<?xml version="1.0" encoding="ISO-8859-1"?>
<gpx xmlns="http://www.topografix.com/GPX/1/1" 
version="1.1" creator="Sports Tracker" 
xmlns:xsi="http://www.w3.org/2001/XMLSchema-instance" 
xsi:schemaLocation="http://www.topografix.com/GPX/1/1 
http://www.topografix.com/GPX/1/1/gpx.xsd 
http://www.garmin.com/xmlschemas/GpxExtensions/v3 
http://www.garmin.com/xmlschemas/GpxExtensionsv3.xsd 
http://www.garmin.com/xmlschemas/TrackPointExtension/v1 
http://www.garmin.com/xmlschemas/TrackPointExtensionv1.xsd" 
xmlns:gpxtpx="http://www.garmin.com/xmlschemas/TrackPointExtension/v1" 
xmlns:gpxx="http://www.garmin.com/xmlschemas/GpxExtensions/v3">
<metadata>
<name><![CDATA[22.05.2011 06:48]]></name>
<desc><![CDATA[Cycling]]></desc>
<author><name><![CDATA[M!N!X]]></name></author>
<link href="www.sports-tracker.com">
<text>Sports Tracker</text>
</link>
<time>2011-05-22T06:48:27.16</time>
</metadata>
<trk>
<name><![CDATA[22.05.2011 06:48]]></name>
<trkseg>
<trkpt lat="40.094407" lon="-8.335143">
<ele>162.0</ele>
<desc>Speed 17.2 km/h Distance 0.00 km</desc>
<time>2011-05-22T06:49:49.75</time>
<name>1</name>
<sym>Crossing</sym>
</trkpt>
<trkpt lat="40.094367" lon="-8.335128">
<ele>162.0</ele>
<desc>Speed 16.7 km/h Distance 0.00 km</desc>
<time>2011-05-22T06:49:50.74</time>
<name>2</name>
<sym>Dot</sym>
</trkpt>
<trkpt lat="40.094327" lon="-8.335118">
<ele>162.0</ele>
<desc>Speed 16.3 km/h Distance 0.01 km</desc>
<time>2011-05-22T06:49:51.74</time>
<name>3</name>
<sym>Dot</sym>
</trkpt>
<trkpt lat="40.094295" lon="-8.335112">
<ele>160.0</ele>
<desc>Speed 15.8 km/h Distance 0.01 km</desc>
<time>2011-05-22T06:49:52.74</time>
<name>4</name>
<sym>Dot</sym>
</trkpt>
<trkpt lat="40.094263" lon="-8.335102">
<ele>159.0</ele>
<desc>Speed 14.4 km/h Distance 0.02 km</desc>
<time>2011-05-22T06:49:53.73</time>
<name>5</name>
<sym>Dot</sym>
</trkpt>
<trkpt lat="40.094233" lon="-8.335092">
<ele>159.0</ele>
<desc>Speed 12.9 km/h Distance 0.02 km</desc>
<time>2011-05-22T06:49:54.72</time>
<name>6</name>
<sym>Dot</sym>
</trkpt>
<trkpt lat="40.094203" lon="-8.335083">
<ele>158.5</ele>
<desc>Speed 11.8 km/h Distance 0.02 km</desc>
<time>2011-05-22T06:49:55.72</time>
<name>7</name>
<sym>Dot</sym>
</trkpt>
<trkpt lat="40.094178" lon="-8.335077">
<ele>158.5</ele>
<desc>Speed 10.6 km/h Distance 0.03 km</desc>
<time>2011-05-22T06:49:56.72</time>
<name>8</name>
<sym>Dot</sym>
</trkpt>
<trkpt lat="40.094150" lon="-8.335068">
<ele>158.5</ele>
<desc>Speed 11.1 km/h Distance 0.03 km</desc>
<time>2011-05-22T06:49:57.72</time>
<name>9</name>
<sym>Dot</sym>
</trkpt>
<trkpt lat="40.094118" lon="-8.335065">
<ele>159.0</ele>
<desc>Speed 11.9 km/h Distance 0.03 km</desc>
<time>2011-05-22T06:49:58.71</time>
<name>10</name>
<sym>Dot</sym>
</trkpt>
<trkpt lat="40.094085" lon="-8.335062">
<ele>159.0</ele>
<desc>Speed 12.9 km/h Distance 0.04 km</desc>
<time>2011-05-22T06:49:59.70</time>
<name>11</name>
<sym>Dot</sym>
</trkpt>
<trkpt lat="40.094050" lon="-8.335053">
<ele>159.5</ele>
<desc>Speed 13.8 km/h Distance 0.04 km</desc>
<time>2011-05-22T06:50:00.70</time>
<name>12</name>
<sym>Dot</sym>
</trkpt>
<trkpt lat="40.094017" lon="-8.335043">
<ele>159.5</ele>
<desc>Speed 13.6 km/h Distance 0.04 km</desc>
<time>2011-05-22T06:50:01.69</time>
<name>13</name>
<sym>Dot</sym>
</trkpt>
<trkpt lat="40.093985" lon="-8.335032">
<ele>160.0</ele>
<desc>Speed 12.9 km/h Distance 0.05 km</desc>
<time>2011-05-22T06:50:02.69</time>
<name>14</name>
<sym>Dot</sym>
</trkpt>
<trkpt lat="40.093953" lon="-8.335023">
<ele>160.0</ele>
<desc>Speed 12.6 km/h Distance 0.05 km</desc>
<time>2011-05-22T06:50:03.68</time>
<name>15</name>
<sym>Dot</sym>
</trkpt>
<trkpt lat="40.093925" lon="-8.335017">
<ele>160.0</ele>
<desc>Speed 11.9 km/h Distance 0.05 km</desc>
<time>2011-05-22T06:50:04.67</time>
<name>16</name>
<sym>Dot</sym>
</trkpt>
<trkpt lat="40.093897" lon="-8.335007">
<ele>160.0</ele>
<desc>Speed 11.4 km/h Distance 0.06 km</desc>
<time>2011-05-22T06:50:05.67</time>
<name>17</name>
<sym>Dot</sym>
</trkpt>
<trkpt lat="40.093872" lon="-8.334995">
<ele>160.0</ele>
<desc>Speed 10.7 km/h Distance 0.06 km</desc>
<time>2011-05-22T06:50:06.66</time>
<name>18</name>
<sym>Dot</sym>
</trkpt>
<trkpt lat="40.093848" lon="-8.334985">
<ele>160.0</ele>
<desc>Speed 10.0 km/h Distance 0.06 km</desc>
<time>2011-05-22T06:50:07.66</time>
<name>19</name>
<sym>Dot</sym>
</trkpt>
<trkpt lat="40.093825" lon="-8.334977">
<ele>160.0</ele>
<desc>Speed 9.5 km/h Distance 0.07 km</desc>
<time>2011-05-22T06:50:08.65</time>
<name>20</name>
<sym>Dot</sym>
</trkpt>
<trkpt lat="40.093803" lon="-8.334972">
<ele>160.0</ele>
<desc>Speed 8.9 km/h Distance 0.07 km</desc>
<time>2011-05-22T06:50:09.65</time>
<name>21</name>
<sym>Dot</sym>
</trkpt>
<trkpt lat="40.093785" lon="-8.334968">
<ele>160.0</ele>
<desc>Speed 7.9 km/h Distance 0.07 km</desc>
<time>2011-05-22T06:50:10.64</time>
<name>22</name>
<sym>Dot</sym>
</trkpt>
<trkpt lat="40.093767" lon="-8.334967">
<ele>160.0</ele>
<desc>Speed 7.6 km/h Distance 0.07 km</desc>
<time>2011-05-22T06:50:11.64</time>
<name>23</name>
<sym>Dot</sym>
</trkpt>
<trkpt lat="40.093747" lon="-8.334963">
<ele>160.5</ele>
<desc>Speed 7.6 km/h Distance 0.08 km</desc>
<time>2011-05-22T06:50:12.64</time>
<name>24</name>
<sym>Dot</sym>
</trkpt>
<trkpt lat="40.093732" lon="-8.334963">
<ele>160.5</ele>
<desc>Speed 6.7 km/h Distance 0.08 km</desc>
<time>2011-05-22T06:50:13.63</time>
<name>25</name>
<sym>Dot</sym>
</trkpt>
<trkpt lat="40.093710" lon="-8.334957">
<ele>160.5</ele>
<desc>Speed 8.7 km/h Distance 0.08 km</desc>
<time>2011-05-22T06:50:14.62</time>
<name>26</name>
<sym>Dot</sym>
</trkpt>
<trkpt lat="40.093688" lon="-8.334952">
<ele>160.5</ele>
<desc>Speed 9.0 km/h Distance 0.08 km</desc>
<time>2011-05-22T06:50:15.62</time>
<name>27</name>
<sym>Dot</sym>
</trkpt>
<trkpt lat="40.093665" lon="-8.334948">
<ele>161.0</ele>
<desc>Speed 9.5 km/h Distance 0.08 km</desc>
<time>2011-05-22T06:50:16.62</time>
<name>28</name>
<sym>Dot</sym>
</trkpt>
<trkpt lat="40.093642" lon="-8.334947">
<ele>161.0</ele>
<desc>Speed 9.9 km/h Distance 0.09 km</desc>
<time>2011-05-22T06:50:17.62</time>
<name>29</name>
<sym>Dot</sym>
</trkpt>
<trkpt lat="40.093617" lon="-8.334948">
<ele>161.0</ele>
<desc>Speed 9.8 km/h Distance 0.09 km</desc>
<time>2011-05-22T06:50:18.62</time>
<name>30</name>
<sym>Dot</sym>
</trkpt>
<trkpt lat="40.093595" lon="-8.334953">
<ele>161.5</ele>
<desc>Speed 9.3 km/h Distance 0.09 km</desc>
<time>2011-05-22T06:50:19.61</time>
<name>31</name>
<sym>Dot</sym>
</trkpt>
<trkpt lat="40.093572" lon="-8.334960">
<ele>161.5</ele>
<desc>Speed 9.5 km/h Distance 0.09 km</desc>
<time>2011-05-22T06:50:20.61</time>
<name>32</name>
<sym>Dot</sym>
</trkpt>
<trkpt lat="40.093552" lon="-8.334968">
<ele>161.5</ele>
<desc>Speed 8.6 km/h Distance 0.10 km</desc>
<time>2011-05-22T06:50:21.61</time>
<name>33</name>
<sym>Dot</sym>
</trkpt>
<trkpt lat="40.093535" lon="-8.334975">
<ele>161.5</ele>
<desc>Speed 7.2 km/h Distance 0.10 km</desc>
<time>2011-05-22T06:50:22.61</time>
<name>34</name>
<sym>Dot</sym>
</trkpt>
<trkpt lat="40.093523" lon="-8.334983">
<ele>162.0</ele>
<desc>Speed 5.2 km/h Distance 0.10 km</desc>
<time>2011-05-22T06:50:23.61</time>
<name>35</name>
<sym>Dot</sym>
</trkpt>
<trkpt lat="40.093518" lon="-8.334988">
<ele>162.0</ele>
<desc>Speed 3.1 km/h Distance 0.10 km</desc>
<time>2011-05-22T06:50:24.61</time>
<name>36</name>
<sym>Dot</sym>
</trkpt>
<trkpt lat="40.093507" lon="-8.334993">
<ele>162.5</ele>
<desc>Speed 4.1 km/h Distance 0.10 km</desc>
<time>2011-05-22T06:50:29.60</time>
<name>37</name>
<sym>Dot</sym>
</trkpt>
<trkpt lat="40.093497" lon="-8.334998">
<ele>163.0</ele>
<desc>Speed 4.2 km/h Distance 0.10 km</desc>
<time>2011-05-22T06:50:30.60</time>
<name>38</name>
<sym>Dot</sym>
</trkpt>
<trkpt lat="40.093487" lon="-8.335008">
<ele>163.5</ele>
<desc>Speed 5.4 km/h Distance 0.11 km</desc>
<time>2011-05-22T06:50:31.60</time>
<name>39</name>
<sym>Dot</sym>
</trkpt>
<trkpt lat="40.093473" lon="-8.335020">
<ele>163.5</ele>
<desc>Speed 6.2 km/h Distance 0.11 km</desc>
<time>2011-05-22T06:50:32.60</time>
<name>40</name>
<sym>Dot</sym>
</trkpt>
<trkpt lat="40.093462" lon="-8.335035">
<ele>164.0</ele>
<desc>Speed 6.5 km/h Distance 0.11 km</desc>
<time>2011-05-22T06:50:33.59</time>
<name>41</name>
<sym>Dot</sym>
</trkpt>
<trkpt lat="40.093450" lon="-8.335052">
<ele>164.0</ele>
<desc>Speed 7.3 km/h Distance 0.11 km</desc>
<time>2011-05-22T06:50:34.59</time>
<name>42</name>
<sym>Dot</sym>
</trkpt>
<trkpt lat="40.093437" lon="-8.335068">
<ele>164.5</ele>
<desc>Speed 7.2 km/h Distance 0.11 km</desc>
<time>2011-05-22T06:50:35.59</time>
<name>43</name>
<sym>Dot</sym>
</trkpt>
<trkpt lat="40.093428" lon="-8.335083">
<ele>164.5</ele>
<desc>Speed 5.9 km/h Distance 0.11 km</desc>
<time>2011-05-22T06:50:36.59</time>
<name>44</name>
<sym>Dot</sym>
</trkpt>
<trkpt lat="40.093420" lon="-8.335098">
<ele>165.0</ele>
<desc>Speed 6.0 km/h Distance 0.12 km</desc>
<time>2011-05-22T06:50:37.58</time>
<name>45</name>
<sym>Dot</sym>
</trkpt>
<trkpt lat="40.093412" lon="-8.335112">
<ele>165.0</ele>
<desc>Speed 4.9 km/h Distance 0.12 km</desc>
<time>2011-05-22T06:50:38.58</time>
<name>46</name>
<sym>Dot</sym>
</trkpt>
<trkpt lat="40.093408" lon="-8.335122">
<ele>165.5</ele>
<desc>Speed 3.6 km/h Distance 0.12 km</desc>
<time>2011-05-22T06:50:39.58</time>
<name>47</name>
<sym>Dot</sym>
</trkpt>
<trkpt lat="40.093405" lon="-8.335128">
<ele>166.0</ele>
<desc>Speed 2.7 km/h Distance 0.12 km</desc>
<time>2011-05-22T06:50:40.57</time>
<name>48</name>
<sym>Dot</sym>
</trkpt>
<trkpt lat="40.093402" lon="-8.335132">
<ele>166.0</ele>
<desc>Speed 1.5 km/h Distance 0.12 km</desc>
<time>2011-05-22T06:50:41.57</time>
<name>49</name>
<sym>Dot</sym>
</trkpt>
<trkpt lat="40.093400" lon="-8.335135">
<ele>166.5</ele>
<desc>Speed 1.1 km/h Distance 0.12 km</desc>
<time>2011-05-22T06:50:46.57</time>
<name>50</name>
<sym>Dot</sym>
</trkpt>
<trkpt lat="40.093392" lon="-8.335147">
<ele>166.5</ele>
<desc>Speed 5.0 km/h Distance 0.12 km</desc>
<time>2011-05-22T06:50:47.56</time>
<name>51</name>
<sym>Dot</sym>
</trkpt>
<trkpt lat="40.093375" lon="-8.335155">
<ele>168.0</ele>
<desc>Speed 6.4 km/h Distance 0.12 km</desc>
<time>2011-05-22T06:50:48.56</time>
<name>52</name>
<sym>Dot</sym>
</trkpt>
<trkpt lat="40.093357" lon="-8.335167">
<ele>168.0</ele>
<desc>Speed 7.8 km/h Distance 0.13 km</desc>
<time>2011-05-22T06:50:49.55</time>
<name>53</name>
<sym>Dot</sym>
</trkpt>
<trkpt lat="40.093340" lon="-8.335188">
<ele>168.0</ele>
<desc>Speed 9.2 km/h Distance 0.13 km</desc>
<time>2011-05-22T06:50:50.55</time>
<name>54</name>
<sym>Dot</sym>
</trkpt>
<trkpt lat="40.093325" lon="-8.335215">
<ele>168.0</ele>
<desc>Speed 10.2 km/h Distance 0.13 km</desc>
<time>2011-05-22T06:50:51.54</time>
<name>55</name>
<sym>Dot</sym>
</trkpt>
<trkpt lat="40.093315" lon="-8.335248">
<ele>168.0</ele>
<desc>Speed 11.6 km/h Distance 0.13 km</desc>
<time>2011-05-22T06:50:52.54</time>
<name>56</name>
<sym>Dot</sym>
</trkpt>
<trkpt lat="40.093307" lon="-8.335288">
<ele>168.0</ele>
<desc>Speed 12.6 km/h Distance 0.14 km</desc>
<time>2011-05-22T06:50:53.54</time>
<name>57</name>
<sym>Dot</sym>
</trkpt>
<trkpt lat="40.093300" lon="-8.335333">
<ele>168.0</ele>
<desc>Speed 14.1 km/h Distance 0.14 km</desc>
<time>2011-05-22T06:50:54.54</time>
<name>58</name>
<sym>Dot</sym>
</trkpt>
<trkpt lat="40.093298" lon="-8.335383">
<ele>168.0</ele>
<desc>Speed 15.8 km/h Distance 0.15 km</desc>
<time>2011-05-22T06:50:55.54</time>
<name>59</name>
<sym>Dot</sym>
</trkpt>
<trkpt lat="40.093295" lon="-8.335438">
<ele>168.0</ele>
<desc>Speed 17.0 km/h Distance 0.15 km</desc>
<time>2011-05-22T06:50:56.53</time>
<name>60</name>
<sym>Dot</sym>
</trkpt>
<trkpt lat="40.093292" lon="-8.335498">
<ele>168.0</ele>
<desc>Speed 18.3 km/h Distance 0.16 km</desc>
<time>2011-05-22T06:50:57.52</time>
<name>61</name>
<sym>Dot</sym>
</trkpt>
<trkpt lat="40.093283" lon="-8.335562">
<ele>167.5</ele>
<desc>Speed 19.7 km/h Distance 0.16 km</desc>
<time>2011-05-22T06:50:58.52</time>
<name>62</name>
<sym>Dot</sym>
</trkpt>
<trkpt lat="40.093278" lon="-8.335628">
<ele>167.5</ele>
<desc>Speed 20.7 km/h Distance 0.17 km</desc>
<time>2011-05-22T06:50:59.52</time>
<name>63</name>
<sym>Dot</sym>
</trkpt>
<trkpt lat="40.093272" lon="-8.335692">
<ele>167.5</ele>
<desc>Speed 19.7 km/h Distance 0.17 km</desc>
<time>2011-05-22T06:51:00.51</time>
<name>64</name>
<sym>Dot</sym>
</trkpt>
<trkpt lat="40.093262" lon="-8.335755">
<ele>167.5</ele>
<desc>Speed 20.2 km/h Distance 0.18 km</desc>
<time>2011-05-22T06:51:01.50</time>
<name>65</name>
<sym>Dot</sym>
</trkpt>
<trkpt lat="40.093248" lon="-8.335822">
<ele>167.5</ele>
<desc>Speed 21.3 km/h Distance 0.18 km</desc>
<time>2011-05-22T06:51:02.50</time>
<name>66</name>
<sym>Dot</sym>
</trkpt>
<trkpt lat="40.093228" lon="-8.335890">
<ele>167.5</ele>
<desc>Speed 22.3 km/h Distance 0.19 km</desc>
<time>2011-05-22T06:51:03.50</time>
<name>67</name>
<sym>Dot</sym>
</trkpt>
<trkpt lat="40.093203" lon="-8.335958">
<ele>167.5</ele>
<desc>Speed 23.4 km/h Distance 0.20 km</desc>
<time>2011-05-22T06:51:04.49</time>
<name>68</name>
<sym>Dot</sym>
</trkpt>
<trkpt lat="40.093173" lon="-8.336028">
<ele>167.5</ele>
<desc>Speed 24.5 km/h Distance 0.20 km</desc>
<time>2011-05-22T06:51:05.48</time>
<name>69</name>
<sym>Dot</sym>
</trkpt>
<trkpt lat="40.093138" lon="-8.336098">
<ele>167.0</ele>
<desc>Speed 25.7 km/h Distance 0.21 km</desc>
<time>2011-05-22T06:51:06.48</time>
<name>70</name>
<sym>Dot</sym>
</trkpt>
<trkpt lat="40.093098" lon="-8.336168">
<ele>166.5</ele>
<desc>Speed 26.8 km/h Distance 0.22 km</desc>
<time>2011-05-22T06:51:07.48</time>
<name>71</name>
<sym>Dot</sym>
</trkpt>
<trkpt lat="40.093050" lon="-8.336233">
<ele>166.5</ele>
<desc>Speed 27.9 km/h Distance 0.23 km</desc>
<time>2011-05-22T06:51:08.47</time>
<name>72</name>
<sym>Dot</sym>
</trkpt>
<trkpt lat="40.092997" lon="-8.336298">
<ele>166.0</ele>
<desc>Speed 29.2 km/h Distance 0.23 km</desc>
<time>2011-05-22T06:51:09.46</time>
<name>73</name>
<sym>Dot</sym>
</trkpt>
<trkpt lat="40.092943" lon="-8.336367">
<ele>166.0</ele>
<desc>Speed 29.9 km/h Distance 0.24 km</desc>
<time>2011-05-22T06:51:10.46</time>
<name>74</name>
<sym>Dot</sym>
</trkpt>
<trkpt lat="40.092883" lon="-8.336428">
<ele>166.0</ele>
<desc>Speed 30.3 km/h Distance 0.25 km</desc>
<time>2011-05-22T06:51:11.46</time>
<name>75</name>
<sym>Dot</sym>
</trkpt>
<trkpt lat="40.092820" lon="-8.336483">
<ele>165.5</ele>
<desc>Speed 30.7 km/h Distance 0.26 km</desc>
<time>2011-05-22T06:51:12.45</time>
<name>76</name>
<sym>Dot</sym>
</trkpt>
<trkpt lat="40.092752" lon="-8.336528">
<ele>165.0</ele>
<desc>Speed 30.8 km/h Distance 0.27 km</desc>
<time>2011-05-22T06:51:13.45</time>
<name>77</name>
<sym>Dot</sym>
</trkpt>
<trkpt lat="40.092680" lon="-8.336560">
<ele>165.0</ele>
<desc>Speed 30.2 km/h Distance 0.28 km</desc>
<time>2011-05-22T06:51:14.45</time>
<name>78</name>
<sym>Dot</sym>
</trkpt>
<trkpt lat="40.092608" lon="-8.336585">
<ele>165.0</ele>
<desc>Speed 29.6 km/h Distance 0.28 km</desc>
<time>2011-05-22T06:51:15.44</time>
<name>79</name>
<sym>Dot</sym>
</trkpt>
<trkpt lat="40.092540" lon="-8.336612">
<ele>165.5</ele>
<desc>Speed 28.6 km/h Distance 0.29 km</desc>
<time>2011-05-22T06:51:16.44</time>
<name>80</name>
<sym>Dot</sym>
</trkpt>
<trkpt lat="40.092478" lon="-8.336652">
<ele>166.5</ele>
<desc>Speed 27.8 km/h Distance 0.30 km</desc>
<time>2011-05-22T06:51:17.44</time>
<name>81</name>
<sym>Dot</sym>
</trkpt>
<trkpt lat="40.092430" lon="-8.336707">
<ele>165.5</ele>
<desc>Speed 25.7 km/h Distance 0.31 km</desc>
<time>2011-05-22T06:51:18.43</time>
<name>82</name>
<sym>Dot</sym>
</trkpt>
<trkpt lat="40.092400" lon="-8.336785">
<ele>166.0</ele>
<desc>Speed 26.6 km/h Distance 0.31 km</desc>
<time>2011-05-22T06:51:19.43</time>
<name>83</name>
<sym>Dot</sym>
</trkpt>
<trkpt lat="40.092393" lon="-8.336863">
<ele>165.5</ele>
<desc>Speed 24.6 km/h Distance 0.32 km</desc>
<time>2011-05-22T06:51:20.42</time>
<name>84</name>
<sym>Dot</sym>
</trkpt>
<trkpt lat="40.092387" lon="-8.336943">
<ele>165.0</ele>
<desc>Speed 24.2 km/h Distance 0.33 km</desc>
<time>2011-05-22T06:51:21.42</time>
<name>85</name>
<sym>Dot</sym>
</trkpt>
<trkpt lat="40.092383" lon="-8.337020">
<ele>165.0</ele>
<desc>Speed 23.6 km/h Distance 0.33 km</desc>
<time>2011-05-22T06:51:22.42</time>
<name>86</name>
<sym>Dot</sym>
</trkpt>
<trkpt lat="40.092382" lon="-8.337095">
<ele>164.5</ele>
<desc>Speed 22.8 km/h Distance 0.34 km</desc>
<time>2011-05-22T06:51:23.42</time>
<name>87</name>
<sym>Dot</sym>
</trkpt>
<trkpt lat="40.092380" lon="-8.337167">
<ele>164.5</ele>
<desc>Speed 22.3 km/h Distance 0.35 km</desc>
<time>2011-05-22T06:51:24.42</time>
<name>88</name>
<sym>Dot</sym>
</trkpt>
<trkpt lat="40.092375" lon="-8.337237">
<ele>164.5</ele>
<desc>Speed 21.7 km/h Distance 0.35 km</desc>
<time>2011-05-22T06:51:25.42</time>
<name>89</name>
<sym>Dot</sym>
</trkpt>
<trkpt lat="40.092370" lon="-8.337307">
<ele>164.5</ele>
<desc>Speed 21.2 km/h Distance 0.36 km</desc>
<time>2011-05-22T06:51:26.42</time>
<name>90</name>
<sym>Dot</sym>
</trkpt>
<trkpt lat="40.092362" lon="-8.337372">
<ele>164.5</ele>
<desc>Speed 20.3 km/h Distance 0.36 km</desc>
<time>2011-05-22T06:51:27.41</time>
<name>91</name>
<sym>Dot</sym>
</trkpt>
<trkpt lat="40.092352" lon="-8.337432">
<ele>164.5</ele>
<desc>Speed 18.8 km/h Distance 0.37 km</desc>
<time>2011-05-22T06:51:28.40</time>
<name>92</name>
<sym>Dot</sym>
</trkpt>
<trkpt lat="40.092338" lon="-8.337483">
<ele>164.5</ele>
<desc>Speed 17.1 km/h Distance 0.37 km</desc>
<time>2011-05-22T06:51:29.40</time>
<name>93</name>
<sym>Dot</sym>
</trkpt>
<trkpt lat="40.092320" lon="-8.337532">
<ele>164.5</ele>
<desc>Speed 16.4 km/h Distance 0.38 km</desc>
<time>2011-05-22T06:51:30.39</time>
<name>94</name>
<sym>Dot</sym>
</trkpt>
<trkpt lat="40.092297" lon="-8.337573">
<ele>165.0</ele>
<desc>Speed 16.0 km/h Distance 0.38 km</desc>
<time>2011-05-22T06:51:31.39</time>
<name>95</name>
<sym>Dot</sym>
</trkpt>
<trkpt lat="40.092272" lon="-8.337612">
<ele>165.5</ele>
<desc>Speed 15.7 km/h Distance 0.39 km</desc>
<time>2011-05-22T06:51:32.39</time>
<name>96</name>
<sym>Dot</sym>
</trkpt>
<trkpt lat="40.092243" lon="-8.337647">
<ele>166.0</ele>
<desc>Speed 15.8 km/h Distance 0.39 km</desc>
<time>2011-05-22T06:51:33.38</time>
<name>97</name>
<sym>Dot</sym>
</trkpt>
<trkpt lat="40.092212" lon="-8.337675">
<ele>166.0</ele>
<desc>Speed 15.2 km/h Distance 0.40 km</desc>
<time>2011-05-22T06:51:34.37</time>
<name>98</name>
<sym>Dot</sym>
</trkpt>
<trkpt lat="40.092180" lon="-8.337700">
<ele>166.5</ele>
<desc>Speed 14.7 km/h Distance 0.40 km</desc>
<time>2011-05-22T06:51:35.36</time>
<name>99</name>
<sym>Dot</sym>
</trkpt>
<trkpt lat="40.092147" lon="-8.337722">
<ele>166.5</ele>
<desc>Speed 14.7 km/h Distance 0.40 km</desc>
<time>2011-05-22T06:51:36.36</time>
<name>100</name>
<sym>Dot</sym>
</trkpt>
<trkpt lat="40.092115" lon="-8.337743">
<ele>167.0</ele>
<desc>Speed 14.7 km/h Distance 0.41 km</desc>
<time>2011-05-22T06:51:37.36</time>
<name>101</name>
<sym>Dot</sym>
</trkpt>
<trkpt lat="40.092083" lon="-8.337765">
<ele>167.0</ele>
<desc>Speed 14.0 km/h Distance 0.41 km</desc>
<time>2011-05-22T06:51:38.36</time>
<name>102</name>
<sym>Dot</sym>
</trkpt>
<trkpt lat="40.092053" lon="-8.337783">
<ele>167.0</ele>
<desc>Speed 13.6 km/h Distance 0.42 km</desc>
<time>2011-05-22T06:51:39.36</time>
<name>103</name>
<sym>Dot</sym>
</trkpt>
<trkpt lat="40.092023" lon="-8.337802">
<ele>167.0</ele>
<desc>Speed 13.4 km/h Distance 0.42 km</desc>
<time>2011-05-22T06:51:40.35</time>
<name>104</name>
<sym>Dot</sym>
</trkpt>
<trkpt lat="40.091993" lon="-8.337820">
<ele>167.5</ele>
<desc>Speed 13.1 km/h Distance 0.42 km</desc>
<time>2011-05-22T06:51:41.35</time>
<name>105</name>
<sym>Dot</sym>
</trkpt>
<trkpt lat="40.091965" lon="-8.337838">
<ele>167.5</ele>
<desc>Speed 13.1 km/h Distance 0.43 km</desc>
<time>2011-05-22T06:51:42.35</time>
<name>106</name>
<sym>Dot</sym>
</trkpt>
<trkpt lat="40.091935" lon="-8.337855">
<ele>168.0</ele>
<desc>Speed 13.1 km/h Distance 0.43 km</desc>
<time>2011-05-22T06:51:43.34</time>
<name>107</name>
<sym>Dot</sym>
</trkpt>
<trkpt lat="40.091907" lon="-8.337875">
<ele>168.0</ele>
<desc>Speed 13.2 km/h Distance 0.43 km</desc>
<time>2011-05-22T06:51:44.34</time>
<name>108</name>
<sym>Dot</sym>
</trkpt>
<trkpt lat="40.091878" lon="-8.337892">
<ele>168.0</ele>
<desc>Speed 12.8 km/h Distance 0.44 km</desc>
<time>2011-05-22T06:51:45.34</time>
<name>109</name>
<sym>Dot</sym>
</trkpt>
<trkpt lat="40.091850" lon="-8.337908">
<ele>168.0</ele>
<desc>Speed 12.4 km/h Distance 0.44 km</desc>
<time>2011-05-22T06:51:46.34</time>
<name>110</name>
<sym>Dot</sym>
</trkpt>
<trkpt lat="40.091822" lon="-8.337920">
<ele>168.0</ele>
<desc>Speed 12.0 km/h Distance 0.44 km</desc>
<time>2011-05-22T06:51:47.33</time>
<name>111</name>
<sym>Dot</sym>
</trkpt>
<trkpt lat="40.091795" lon="-8.337933">
<ele>168.0</ele>
<desc>Speed 11.3 km/h Distance 0.45 km</desc>
<time>2011-05-22T06:51:48.32</time>
<name>112</name>
<sym>Dot</sym>
</trkpt>
<trkpt lat="40.091772" lon="-8.337947">
<ele>168.0</ele>
<desc>Speed 10.8 km/h Distance 0.45 km</desc>
<time>2011-05-22T06:51:49.32</time>
<name>113</name>
<sym>Dot</sym>
</trkpt>
<trkpt lat="40.091747" lon="-8.337960">
<ele>168.0</ele>
<desc>Speed 10.8 km/h Distance 0.45 km</desc>
<time>2011-05-22T06:51:50.31</time>
<name>114</name>
<sym>Dot</sym>
</trkpt>
<trkpt lat="40.091723" lon="-8.337970">
<ele>168.5</ele>
<desc>Speed 10.4 km/h Distance 0.46 km</desc>
<time>2011-05-22T06:51:51.30</time>
<name>115</name>
<sym>Dot</sym>
</trkpt>
<trkpt lat="40.091697" lon="-8.337972">
<ele>168.5</ele>
<desc>Speed 10.7 km/h Distance 0.46 km</desc>
<time>2011-05-22T06:51:52.30</time>
<name>116</name>
<sym>Dot</sym>
</trkpt>
<trkpt lat="40.091670" lon="-8.337967">
<ele>168.5</ele>
<desc>Speed 10.9 km/h Distance 0.46 km</desc>
<time>2011-05-22T06:51:53.29</time>
<name>117</name>
<sym>Dot</sym>
</trkpt>
<trkpt lat="40.091645" lon="-8.337957">
<ele>168.5</ele>
<desc>Speed 10.8 km/h Distance 0.46 km</desc>
<time>2011-05-22T06:51:54.29</time>
<name>118</name>
<sym>Dot</sym>
</trkpt>
<trkpt lat="40.091620" lon="-8.337943">
<ele>168.5</ele>
<desc>Speed 10.8 km/h Distance 0.47 km</desc>
<time>2011-05-22T06:51:55.29</time>
<name>119</name>
<sym>Dot</sym>
</trkpt>
<trkpt lat="40.091597" lon="-8.337925">
<ele>168.5</ele>
<desc>Speed 11.1 km/h Distance 0.47 km</desc>
<time>2011-05-22T06:51:56.29</time>
<name>120</name>
<sym>Dot</sym>
</trkpt>
<trkpt lat="40.091573" lon="-8.337905">
<ele>168.5</ele>
<desc>Speed 11.7 km/h Distance 0.47 km</desc>
<time>2011-05-22T06:51:57.29</time>
<name>121</name>
<sym>Dot</sym>
</trkpt>
<trkpt lat="40.091548" lon="-8.337878">
<ele>168.5</ele>
<desc>Speed 13.2 km/h Distance 0.48 km</desc>
<time>2011-05-22T06:51:58.28</time>
<name>122</name>
<sym>Dot</sym>
</trkpt>
<trkpt lat="40.091523" lon="-8.337845">
<ele>168.0</ele>
<desc>Speed 14.7 km/h Distance 0.48 km</desc>
<time>2011-05-22T06:51:59.28</time>
<name>123</name>
<sym>Dot</sym>
</trkpt>
<trkpt lat="40.091500" lon="-8.337800">
<ele>167.5</ele>
<desc>Speed 16.7 km/h Distance 0.49 km</desc>
<time>2011-05-22T06:52:00.28</time>
<name>124</name>
<sym>Dot</sym>
</trkpt>
<trkpt lat="40.091473" lon="-8.337750">
<ele>167.0</ele>
<desc>Speed 19.0 km/h Distance 0.49 km</desc>
<time>2011-05-22T06:52:01.27</time>
<name>125</name>
<sym>Dot</sym>
</trkpt>
<trkpt lat="40.091440" lon="-8.337697">
<ele>166.5</ele>
<desc>Speed 21.3 km/h Distance 0.50 km</desc>
<time>2011-05-22T06:52:02.27</time>
<name>126</name>
<sym>Dot</sym>
</trkpt>
<trkpt lat="40.091400" lon="-8.337640">
<ele>166.0</ele>
<desc>Speed 23.5 km/h Distance 0.50 km</desc>
<time>2011-05-22T06:52:03.27</time>
<name>127</name>
<sym>Dot</sym>
</trkpt>
<trkpt lat="40.091352" lon="-8.337588">
<ele>165.5</ele>
<desc>Speed 24.9 km/h Distance 0.51 km</desc>
<time>2011-05-22T06:52:04.26</time>
<name>128</name>
<sym>Dot</sym>
</trkpt>
<trkpt lat="40.091297" lon="-8.337545">
<ele>165.0</ele>
<desc>Speed 26.1 km/h Distance 0.52 km</desc>
<time>2011-05-22T06:52:05.26</time>
<name>129</name>
<sym>Dot</sym>
</trkpt>
<trkpt lat="40.091232" lon="-8.337520">
<ele>165.0</ele>
<desc>Speed 27.5 km/h Distance 0.53 km</desc>
<time>2011-05-22T06:52:06.26</time>
<name>130</name>
<sym>Dot</sym>
</trkpt>
<trkpt lat="40.091162" lon="-8.337503">
<ele>164.5</ele>
<desc>Speed 28.6 km/h Distance 0.53 km</desc>
<time>2011-05-22T06:52:07.25</time>
<name>131</name>
<sym>Dot</sym>
</trkpt>
<trkpt lat="40.091088" lon="-8.337495">
<ele>164.0</ele>
<desc>Speed 29.7 km/h Distance 0.54 km</desc>
<time>2011-05-22T06:52:08.25</time>
<name>132</name>
<sym>Dot</sym>
</trkpt>
<trkpt lat="40.091012" lon="-8.337492">
<ele>163.5</ele>
<desc>Speed 30.9 km/h Distance 0.55 km</desc>
<time>2011-05-22T06:52:09.25</time>
<name>133</name>
<sym>Dot</sym>
</trkpt>
<trkpt lat="40.090933" lon="-8.337492">
<ele>163.5</ele>
<desc>Speed 31.6 km/h Distance 0.56 km</desc>
<time>2011-05-22T06:52:10.24</time>
<name>134</name>
<sym>Dot</sym>
</trkpt>
<trkpt lat="40.090853" lon="-8.337493">
<ele>163.0</ele>
<desc>Speed 32.1 km/h Distance 0.57 km</desc>
<time>2011-05-22T06:52:11.24</time>
<name>135</name>
<sym>Dot</sym>
</trkpt>
<trkpt lat="40.090770" lon="-8.337495">
<ele>163.0</ele>
<desc>Speed 32.9 km/h Distance 0.58 km</desc>
<time>2011-05-22T06:52:12.24</time>
<name>136</name>
<sym>Dot</sym>
</trkpt>
<trkpt lat="40.090688" lon="-8.337498">
<ele>162.5</ele>
<desc>Speed 32.8 km/h Distance 0.59 km</desc>
<time>2011-05-22T06:52:13.23</time>
<name>137</name>
<sym>Dot</sym>
</trkpt>
<trkpt lat="40.090610" lon="-8.337505">
<ele>162.5</ele>
<desc>Speed 31.6 km/h Distance 0.59 km</desc>
<time>2011-05-22T06:52:14.23</time>
<name>138</name>
<sym>Dot</sym>
</trkpt>
<trkpt lat="40.090535" lon="-8.337505">
<ele>162.0</ele>
<desc>Speed 30.1 km/h Distance 0.60 km</desc>
<time>2011-05-22T06:52:15.22</time>
<name>139</name>
<sym>Dot</sym>
</trkpt>
<trkpt lat="40.090460" lon="-8.337505">
<ele>163.5</ele>
<desc>Speed 29.6 km/h Distance 0.61 km</desc>
<time>2011-05-22T06:52:16.22</time>
<name>140</name>
<sym>Dot</sym>
</trkpt>
<trkpt lat="40.090388" lon="-8.337502">
<ele>163.5</ele>
<desc>Speed 28.8 km/h Distance 0.62 km</desc>
<time>2011-05-22T06:52:17.21</time>
<name>141</name>
<sym>Dot</sym>
</trkpt>
<trkpt lat="40.090322" lon="-8.337490">
<ele>164.0</ele>
<desc>Speed 27.3 km/h Distance 0.63 km</desc>
<time>2011-05-22T06:52:18.21</time>
<name>142</name>
<sym>Dot</sym>
</trkpt>
<trkpt lat="40.090262" lon="-8.337475">
<ele>165.0</ele>
<desc>Speed 24.8 km/h Distance 0.63 km</desc>
<time>2011-05-22T06:52:19.20</time>
<name>143</name>
<sym>Dot</sym>
</trkpt>
<trkpt lat="40.090210" lon="-8.337455">
<ele>165.0</ele>
<desc>Speed 22.1 km/h Distance 0.64 km</desc>
<time>2011-05-22T06:52:20.21</time>
<name>144</name>
<sym>Dot</sym>
</trkpt>
<trkpt lat="40.090162" lon="-8.337427">
<ele>165.0</ele>
<desc>Speed 21.0 km/h Distance 0.65 km</desc>
<time>2011-05-22T06:52:21.20</time>
<name>145</name>
<sym>Dot</sym>
</trkpt>
<trkpt lat="40.090118" lon="-8.337395">
<ele>165.0</ele>
<desc>Speed 20.1 km/h Distance 0.65 km</desc>
<time>2011-05-22T06:52:22.20</time>
<name>146</name>
<sym>Dot</sym>
</trkpt>
<trkpt lat="40.090080" lon="-8.337360">
<ele>165.5</ele>
<desc>Speed 19.1 km/h Distance 0.66 km</desc>
<time>2011-05-22T06:52:23.20</time>
<name>147</name>
<sym>Dot</sym>
</trkpt>
<trkpt lat="40.090045" lon="-8.337322">
<ele>165.5</ele>
<desc>Speed 18.2 km/h Distance 0.66 km</desc>
<time>2011-05-22T06:52:24.20</time>
<name>148</name>
<sym>Dot</sym>
</trkpt>
<trkpt lat="40.090015" lon="-8.337282">
<ele>165.5</ele>
<desc>Speed 17.6 km/h Distance 0.67 km</desc>
<time>2011-05-22T06:52:25.20</time>
<name>149</name>
<sym>Dot</sym>
</trkpt>
<trkpt lat="40.089988" lon="-8.337237">
<ele>165.5</ele>
<desc>Speed 17.4 km/h Distance 0.67 km</desc>
<time>2011-05-22T06:52:26.20</time>
<name>150</name>
<sym>Dot</sym>
</trkpt>
<trkpt lat="40.089965" lon="-8.337190">
<ele>165.5</ele>
<desc>Speed 17.0 km/h Distance 0.68 km</desc>
<time>2011-05-22T06:52:27.20</time>
<name>151</name>
<sym>Dot</sym>
</trkpt>
<trkpt lat="40.089943" lon="-8.337142">
<ele>165.5</ele>
<desc>Speed 17.4 km/h Distance 0.68 km</desc>
<time>2011-05-22T06:52:28.19</time>
<name>152</name>
<sym>Dot</sym>
</trkpt>
<trkpt lat="40.089925" lon="-8.337090">
<ele>165.5</ele>
<desc>Speed 17.2 km/h Distance 0.69 km</desc>
<time>2011-05-22T06:52:29.19</time>
<name>153</name>
<sym>Dot</sym>
</trkpt>
<trkpt lat="40.089910" lon="-8.337038">
<ele>165.5</ele>
<desc>Speed 17.0 km/h Distance 0.69 km</desc>
<time>2011-05-22T06:52:30.19</time>
<name>154</name>
<sym>Dot</sym>
</trkpt>
<trkpt lat="40.089897" lon="-8.336985">
<ele>165.5</ele>
<desc>Speed 17.0 km/h Distance 0.70 km</desc>
<time>2011-05-22T06:52:31.18</time>
<name>155</name>
<sym>Dot</sym>
</trkpt>
<trkpt lat="40.089885" lon="-8.336932">
<ele>165.5</ele>
<desc>Speed 17.0 km/h Distance 0.70 km</desc>
<time>2011-05-22T06:52:32.19</time>
<name>156</name>
<sym>Dot</sym>
</trkpt>
<trkpt lat="40.089875" lon="-8.336878">
<ele>165.5</ele>
<desc>Speed 17.0 km/h Distance 0.70 km</desc>
<time>2011-05-22T06:52:33.17</time>
<name>157</name>
<sym>Dot</sym>
</trkpt>
<trkpt lat="40.089865" lon="-8.336823">
<ele>165.5</ele>
<desc>Speed 16.8 km/h Distance 0.71 km</desc>
<time>2011-05-22T06:52:34.17</time>
<name>158</name>
<sym>Dot</sym>
</trkpt>
<trkpt lat="40.089857" lon="-8.336772">
<ele>165.5</ele>
<desc>Speed 16.4 km/h Distance 0.71 km</desc>
<time>2011-05-22T06:52:35.17</time>
<name>159</name>
<sym>Dot</sym>
</trkpt>
<trkpt lat="40.089848" lon="-8.336722">
<ele>165.5</ele>
<desc>Speed 15.6 km/h Distance 0.72 km</desc>
<time>2011-05-22T06:52:36.17</time>
<name>160</name>
<sym>Dot</sym>
</trkpt>
<trkpt lat="40.089838" lon="-8.336673">
<ele>165.5</ele>
<desc>Speed 15.2 km/h Distance 0.72 km</desc>
<time>2011-05-22T06:52:37.17</time>
<name>161</name>
<sym>Dot</sym>
</trkpt>
<trkpt lat="40.089830" lon="-8.336625">
<ele>165.5</ele>
<desc>Speed 15.4 km/h Distance 0.73 km</desc>
<time>2011-05-22T06:52:38.16</time>
<name>162</name>
<sym>Dot</sym>
</trkpt>
<trkpt lat="40.089822" lon="-8.336575">
<ele>165.5</ele>
<desc>Speed 15.3 km/h Distance 0.73 km</desc>
<time>2011-05-22T06:52:39.16</time>
<name>163</name>
<sym>Dot</sym>
</trkpt>
<trkpt lat="40.089813" lon="-8.336527">
<ele>165.5</ele>
<desc>Speed 15.3 km/h Distance 0.74 km</desc>
<time>2011-05-22T06:52:40.15</time>
<name>164</name>
<sym>Dot</sym>
</trkpt>
<trkpt lat="40.089803" lon="-8.336478">
<ele>165.5</ele>
<desc>Speed 15.4 km/h Distance 0.74 km</desc>
<time>2011-05-22T06:52:41.15</time>
<name>165</name>
<sym>Dot</sym>
</trkpt>
<trkpt lat="40.089793" lon="-8.336428">
<ele>165.5</ele>
<desc>Speed 15.8 km/h Distance 0.74 km</desc>
<time>2011-05-22T06:52:42.15</time>
<name>166</name>
<sym>Dot</sym>
</trkpt>
<trkpt lat="40.089783" lon="-8.336378">
<ele>165.5</ele>
<desc>Speed 15.8 km/h Distance 0.75 km</desc>
<time>2011-05-22T06:52:43.14</time>
<name>167</name>
<sym>Dot</sym>
</trkpt>
<trkpt lat="40.089775" lon="-8.336327">
<ele>165.5</ele>
<desc>Speed 15.8 km/h Distance 0.75 km</desc>
<time>2011-05-22T06:52:44.14</time>
<name>168</name>
<sym>Dot</sym>
</trkpt>
<trkpt lat="40.089767" lon="-8.336277">
<ele>165.5</ele>
<desc>Speed 15.9 km/h Distance 0.76 km</desc>
<time>2011-05-22T06:52:45.14</time>
<name>169</name>
<sym>Dot</sym>
</trkpt>
<trkpt lat="40.089757" lon="-8.336225">
<ele>165.0</ele>
<desc>Speed 16.2 km/h Distance 0.76 km</desc>
<time>2011-05-22T06:52:46.14</time>
<name>170</name>
<sym>Dot</sym>
</trkpt>
<trkpt lat="40.089747" lon="-8.336173">
<ele>165.0</ele>
<desc>Speed 16.3 km/h Distance 0.77 km</desc>
<time>2011-05-22T06:52:47.14</time>
<name>171</name>
<sym>Dot</sym>
</trkpt>
<trkpt lat="40.089738" lon="-8.336118">
<ele>165.0</ele>
<desc>Speed 16.8 km/h Distance 0.77 km</desc>
<time>2011-05-22T06:52:48.13</time>
<name>172</name>
<sym>Dot</sym>
</trkpt>
<trkpt lat="40.089728" lon="-8.336065">
<ele>165.0</ele>
<desc>Speed 16.9 km/h Distance 0.78 km</desc>
<time>2011-05-22T06:52:49.13</time>
<name>173</name>
<sym>Dot</sym>
</trkpt>
<trkpt lat="40.089718" lon="-8.336010">
<ele>165.0</ele>
<desc>Speed 17.2 km/h Distance 0.78 km</desc>
<time>2011-05-22T06:52:50.13</time>
<name>174</name>
<sym>Dot</sym>
</trkpt>
<trkpt lat="40.089708" lon="-8.335957">
<ele>165.0</ele>
<desc>Speed 17.1 km/h Distance 0.79 km</desc>
<time>2011-05-22T06:52:51.13</time>
<name>175</name>
<sym>Dot</sym>
</trkpt>
<trkpt lat="40.089698" lon="-8.335902">
<ele>165.0</ele>
<desc>Speed 17.4 km/h Distance 0.79 km</desc>
<time>2011-05-22T06:52:52.13</time>
<name>176</name>
<sym>Dot</sym>
</trkpt>
<trkpt lat="40.089690" lon="-8.335843">
<ele>164.5</ele>
<desc>Speed 17.9 km/h Distance 0.80 km</desc>
<time>2011-05-22T06:52:53.12</time>
<name>177</name>
<sym>Dot</sym>
</trkpt>
<trkpt lat="40.089682" lon="-8.335788">
<ele>164.5</ele>
<desc>Speed 17.6 km/h Distance 0.80 km</desc>
<time>2011-05-22T06:52:54.12</time>
<name>178</name>
<sym>Dot</sym>
</trkpt>
<trkpt lat="40.089672" lon="-8.335733">
<ele>164.5</ele>
<desc>Speed 17.1 km/h Distance 0.80 km</desc>
<time>2011-05-22T06:52:55.12</time>
<name>179</name>
<sym>Dot</sym>
</trkpt>
<trkpt lat="40.089662" lon="-8.335677">
<ele>164.0</ele>
<desc>Speed 17.6 km/h Distance 0.81 km</desc>
<time>2011-05-22T06:52:56.11</time>
<name>180</name>
<sym>Dot</sym>
</trkpt>
<trkpt lat="40.089652" lon="-8.335625">
<ele>165.0</ele>
<desc>Speed 16.6 km/h Distance 0.81 km</desc>
<time>2011-05-22T06:52:57.12</time>
<name>181</name>
<sym>Dot</sym>
</trkpt>
<trkpt lat="40.089642" lon="-8.335568">
<ele>165.5</ele>
<desc>Speed 17.8 km/h Distance 0.82 km</desc>
<time>2011-05-22T06:52:58.10</time>
<name>182</name>
<sym>Dot</sym>
</trkpt>
<trkpt lat="40.089632" lon="-8.335512">
<ele>165.5</ele>
<desc>Speed 17.9 km/h Distance 0.82 km</desc>
<time>2011-05-22T06:52:59.10</time>
<name>183</name>
<sym>Dot</sym>
</trkpt>
<trkpt lat="40.089623" lon="-8.335457">
<ele>165.5</ele>
<desc>Speed 17.5 km/h Distance 0.83 km</desc>
<time>2011-05-22T06:53:00.10</time>
<name>184</name>
<sym>Dot</sym>
</trkpt>
<trkpt lat="40.089613" lon="-8.335400">
<ele>165.5</ele>
<desc>Speed 17.4 km/h Distance 0.83 km</desc>
<time>2011-05-22T06:53:01.10</time>
<name>185</name>
<sym>Dot</sym>
</trkpt>
<trkpt lat="40.089605" lon="-8.335343">
<ele>166.0</ele>
<desc>Speed 17.8 km/h Distance 0.84 km</desc>
<time>2011-05-22T06:53:02.10</time>
<name>186</name>
<sym>Dot</sym>
</trkpt>
<trkpt lat="40.089593" lon="-8.335287">
<ele>166.0</ele>
<desc>Speed 17.9 km/h Distance 0.84 km</desc>
<time>2011-05-22T06:53:03.09</time>
<name>187</name>
<sym>Dot</sym>
</trkpt>
<trkpt lat="40.089583" lon="-8.335232">
<ele>166.0</ele>
<desc>Speed 17.2 km/h Distance 0.85 km</desc>
<time>2011-05-22T06:53:04.08</time>
<name>188</name>
<sym>Dot</sym>
</trkpt>
<trkpt lat="40.089575" lon="-8.335178">
<ele>166.0</ele>
<desc>Speed 16.7 km/h Distance 0.85 km</desc>
<time>2011-05-22T06:53:05.08</time>
<name>189</name>
<sym>Dot</sym>
</trkpt>
<trkpt lat="40.089567" lon="-8.335128">
<ele>166.0</ele>
<desc>Speed 15.8 km/h Distance 0.86 km</desc>
<time>2011-05-22T06:53:06.08</time>
<name>190</name>
<sym>Dot</sym>
</trkpt>
<trkpt lat="40.089558" lon="-8.335078">
<ele>166.0</ele>
<desc>Speed 15.6 km/h Distance 0.86 km</desc>
<time>2011-05-22T06:53:07.08</time>
<name>191</name>
<sym>Dot</sym>
</trkpt>
<trkpt lat="40.089550" lon="-8.335032">
<ele>166.0</ele>
<desc>Speed 14.4 km/h Distance 0.87 km</desc>
<time>2011-05-22T06:53:08.07</time>
<name>192</name>
<sym>Dot</sym>
</trkpt>
<trkpt lat="40.089542" lon="-8.334983">
<ele>166.0</ele>
<desc>Speed 15.1 km/h Distance 0.87 km</desc>
<time>2011-05-22T06:53:09.07</time>
<name>193</name>
<sym>Dot</sym>
</trkpt>
<trkpt lat="40.089533" lon="-8.334932">
<ele>166.0</ele>
<desc>Speed 15.8 km/h Distance 0.87 km</desc>
<time>2011-05-22T06:53:10.07</time>
<name>194</name>
<sym>Dot</sym>
</trkpt>
<trkpt lat="40.089525" lon="-8.334878">
<ele>166.0</ele>
<desc>Speed 16.5 km/h Distance 0.88 km</desc>
<time>2011-05-22T06:53:11.07</time>
<name>195</name>
<sym>Dot</sym>
</trkpt>
<trkpt lat="40.089518" lon="-8.334825">
<ele>166.0</ele>
<desc>Speed 16.6 km/h Distance 0.88 km</desc>
<time>2011-05-22T06:53:12.07</time>
<name>196</name>
<sym>Dot</sym>
</trkpt>
<trkpt lat="40.089510" lon="-8.334770">
<ele>166.0</ele>
<desc>Speed 17.1 km/h Distance 0.89 km</desc>
<time>2011-05-22T06:53:13.06</time>
<name>197</name>
<sym>Dot</sym>
</trkpt>
<trkpt lat="40.089500" lon="-8.334713">
<ele>166.0</ele>
<desc>Speed 17.4 km/h Distance 0.89 km</desc>
<time>2011-05-22T06:53:14.06</time>
<name>198</name>
<sym>Dot</sym>
</trkpt>
<trkpt lat="40.089490" lon="-8.334658">
<ele>165.5</ele>
<desc>Speed 17.6 km/h Distance 0.90 km</desc>
<time>2011-05-22T06:53:15.06</time>
<name>199</name>
<sym>Dot</sym>
</trkpt>
<trkpt lat="40.089480" lon="-8.334602">
<ele>165.5</ele>
<desc>Speed 17.6 km/h Distance 0.90 km</desc>
<time>2011-05-22T06:53:16.05</time>
<name>200</name>
<sym>Dot</sym>
</trkpt>
<trkpt lat="40.089470" lon="-8.334545">
<ele>165.5</ele>
<desc>Speed 17.6 km/h Distance 0.91 km</desc>
<time>2011-05-22T06:53:17.05</time>
<name>201</name>
<sym>Dot</sym>
</trkpt>
<trkpt lat="40.089460" lon="-8.334488">
<ele>165.0</ele>
<desc>Speed 17.6 km/h Distance 0.91 km</desc>
<time>2011-05-22T06:53:18.04</time>
<name>202</name>
<sym>Dot</sym>
</trkpt>
<trkpt lat="40.089450" lon="-8.334433">
<ele>165.0</ele>
<desc>Speed 17.4 km/h Distance 0.92 km</desc>
<time>2011-05-22T06:53:19.04</time>
<name>203</name>
<sym>Dot</sym>
</trkpt>
<trkpt lat="40.089440" lon="-8.334377">
<ele>165.0</ele>
<desc>Speed 17.6 km/h Distance 0.92 km</desc>
<time>2011-05-22T06:53:20.04</time>
<name>204</name>
<sym>Dot</sym>
</trkpt>
<trkpt lat="40.089430" lon="-8.334320">
<ele>165.0</ele>
<desc>Speed 17.7 km/h Distance 0.93 km</desc>
<time>2011-05-22T06:53:21.04</time>
<name>205</name>
<sym>Dot</sym>
</trkpt>
<trkpt lat="40.089418" lon="-8.334263">
<ele>165.0</ele>
<desc>Speed 17.6 km/h Distance 0.93 km</desc>
<time>2011-05-22T06:53:22.03</time>
<name>206</name>
<sym>Dot</sym>
</trkpt>
<trkpt lat="40.089405" lon="-8.334208">
<ele>165.0</ele>
<desc>Speed 17.6 km/h Distance 0.94 km</desc>
<time>2011-05-22T06:53:23.03</time>
<name>207</name>
<sym>Dot</sym>
</trkpt>
<trkpt lat="40.089392" lon="-8.334153">
<ele>165.0</ele>
<desc>Speed 17.4 km/h Distance 0.94 km</desc>
<time>2011-05-22T06:53:24.02</time>
<name>208</name>
<sym>Dot</sym>
</trkpt>
<trkpt lat="40.089380" lon="-8.334100">
<ele>165.0</ele>
<desc>Speed 16.7 km/h Distance 0.95 km</desc>
<time>2011-05-22T06:53:25.02</time>
<name>209</name>
<sym>Dot</sym>
</trkpt>
<trkpt lat="40.089370" lon="-8.334050">
<ele>165.0</ele>
<desc>Speed 15.9 km/h Distance 0.95 km</desc>
<time>2011-05-22T06:53:26.02</time>
<name>210</name>
<sym>Dot</sym>
</trkpt>
<trkpt lat="40.089358" lon="-8.334002">
<ele>165.0</ele>
<desc>Speed 15.2 km/h Distance 0.96 km</desc>
<time>2011-05-22T06:53:27.01</time>
<name>211</name>
<sym>Dot</sym>
</trkpt>
<trkpt lat="40.089348" lon="-8.333953">
<ele>164.5</ele>
<desc>Speed 15.1 km/h Distance 0.96 km</desc>
<time>2011-05-22T06:53:28.01</time>
<name>212</name>
<sym>Dot</sym>
</trkpt>
<trkpt lat="40.089338" lon="-8.333908">
<ele>164.5</ele>
<desc>Speed 14.4 km/h Distance 0.96 km</desc>
<time>2011-05-22T06:53:29.01</time>
<name>213</name>
<sym>Dot</sym>
</trkpt>
<trkpt lat="40.089327" lon="-8.333865">
<ele>164.5</ele>
<desc>Speed 13.9 km/h Distance 0.97 km</desc>
<time>2011-05-22T06:53:30.01</time>
<name>214</name>
<sym>Dot</sym>
</trkpt>
<trkpt lat="40.089313" lon="-8.333825">
<ele>164.5</ele>
<desc>Speed 13.4 km/h Distance 0.97 km</desc>
<time>2011-05-22T06:53:31.00</time>
<name>215</name>
<sym>Dot</sym>
</trkpt>
<trkpt lat="40.089295" lon="-8.333787">
<ele>164.0</ele>
<desc>Speed 13.6 km/h Distance 0.98 km</desc>
<time>2011-05-22T06:53:32.01</time>
<name>216</name>
<sym>Dot</sym>
</trkpt>
<trkpt lat="40.089273" lon="-8.333755">
<ele>164.5</ele>
<desc>Speed 13.2 km/h Distance 0.98 km</desc>
<time>2011-05-22T06:53:32.99</time>
<name>217</name>
<sym>Dot</sym>
</trkpt>
<trkpt lat="40.089250" lon="-8.333727">
<ele>164.5</ele>
<desc>Speed 12.5 km/h Distance 0.98 km</desc>
<time>2011-05-22T06:53:33.99</time>
<name>218</name>
<sym>Dot</sym>
</trkpt>
<trkpt lat="40.089227" lon="-8.333700">
<ele>164.5</ele>
<desc>Speed 12.2 km/h Distance 0.99 km</desc>
<time>2011-05-22T06:53:34.99</time>
<name>219</name>
<sym>Dot</sym>
</trkpt>
<trkpt lat="40.089207" lon="-8.333673">
<ele>164.0</ele>
<desc>Speed 11.7 km/h Distance 0.99 km</desc>
<time>2011-05-22T06:53:35.98</time>
<name>220</name>
<sym>Dot</sym>
</trkpt>
<trkpt lat="40.089185" lon="-8.333648">
<ele>164.5</ele>
<desc>Speed 11.6 km/h Distance 0.99 km</desc>
<time>2011-05-22T06:53:36.98</time>
<name>221</name>
<sym>Dot</sym>
</trkpt>
<trkpt lat="40.089162" lon="-8.333623">
<ele>164.5</ele>
<desc>Speed 12.4 km/h Distance 1.00 km</desc>
<time>2011-05-22T06:53:37.97</time>
<name>222</name>
<sym>Dot</sym>
</trkpt>
<trkpt lat="40.089133" lon="-8.333602">
<ele>164.5</ele>
<desc>Speed 13.3 km/h Distance 1.00 km</desc>
<time>2011-05-22T06:53:38.96</time>
<name>223</name>
<sym>Dot</sym>
</trkpt>
<trkpt lat="40.089102" lon="-8.333582">
<ele>164.5</ele>
<desc>Speed 13.8 km/h Distance 1.00 km</desc>
<time>2011-05-22T06:53:39.96</time>
<name>224</name>
<sym>Dot</sym>
</trkpt>
<trkpt lat="40.089067" lon="-8.333565">
<ele>164.5</ele>
<desc>Speed 15.2 km/h Distance 1.01 km</desc>
<time>2011-05-22T06:53:40.96</time>
<name>225</name>
<sym>Dot</sym>
</trkpt>
<trkpt lat="40.089027" lon="-8.333550">
<ele>164.0</ele>
<desc>Speed 16.1 km/h Distance 1.01 km</desc>
<time>2011-05-22T06:53:41.95</time>
<name>226</name>
<sym>Dot</sym>
</trkpt>
<trkpt lat="40.088987" lon="-8.333535">
<ele>163.5</ele>
<desc>Speed 17.2 km/h Distance 1.02 km</desc>
<time>2011-05-22T06:53:42.94</time>
<name>227</name>
<sym>Dot</sym>
</trkpt>
<trkpt lat="40.088942" lon="-8.333518">
<ele>163.0</ele>
<desc>Speed 18.3 km/h Distance 1.02 km</desc>
<time>2011-05-22T06:53:43.93</time>
<name>228</name>
<sym>Dot</sym>
</trkpt>
<trkpt lat="40.088893" lon="-8.333505">
<ele>163.0</ele>
<desc>Speed 19.8 km/h Distance 1.03 km</desc>
<time>2011-05-22T06:53:44.93</time>
<name>229</name>
<sym>Dot</sym>
</trkpt>
<trkpt lat="40.088842" lon="-8.333490">
<ele>163.0</ele>
<desc>Speed 21.0 km/h Distance 1.03 km</desc>
<time>2011-05-22T06:53:45.93</time>
<name>230</name>
<sym>Dot</sym>
</trkpt>
<trkpt lat="40.088793" lon="-8.333467">
<ele>163.0</ele>
<desc>Speed 20.7 km/h Distance 1.04 km</desc>
<time>2011-05-22T06:53:46.93</time>
<name>231</name>
<sym>Dot</sym>
</trkpt>
<trkpt lat="40.088743" lon="-8.333437">
<ele>163.0</ele>
<desc>Speed 21.7 km/h Distance 1.05 km</desc>
<time>2011-05-22T06:53:47.92</time>
<name>232</name>
<sym>Dot</sym>
</trkpt>
<trkpt lat="40.088692" lon="-8.333407">
<ele>162.5</ele>
<desc>Speed 22.5 km/h Distance 1.05 km</desc>
<time>2011-05-22T06:53:48.92</time>
<name>233</name>
<sym>Dot</sym>
</trkpt>
<trkpt lat="40.088638" lon="-8.333378">
<ele>162.5</ele>
<desc>Speed 23.1 km/h Distance 1.06 km</desc>
<time>2011-05-22T06:53:49.92</time>
<name>234</name>
<sym>Dot</sym>
</trkpt>
<trkpt lat="40.088585" lon="-8.333347">
<ele>162.5</ele>
<desc>Speed 23.6 km/h Distance 1.07 km</desc>
<time>2011-05-22T06:53:50.91</time>
<name>235</name>
<sym>Dot</sym>
</trkpt>
<trkpt lat="40.088530" lon="-8.333317">
<ele>162.0</ele>
<desc>Speed 23.7 km/h Distance 1.07 km</desc>
<time>2011-05-22T06:53:51.90</time>
<name>236</name>
<sym>Dot</sym>
</trkpt>
<trkpt lat="40.088477" lon="-8.333288">
<ele>162.0</ele>
<desc>Speed 23.0 km/h Distance 1.08 km</desc>
<time>2011-05-22T06:53:52.90</time>
<name>237</name>
<sym>Dot</sym>
</trkpt>
<trkpt lat="40.088430" lon="-8.333250">
<ele>162.0</ele>
<desc>Speed 22.4 km/h Distance 1.08 km</desc>
<time>2011-05-22T06:53:53.90</time>
<name>238</name>
<sym>Dot</sym>
</trkpt>
<trkpt lat="40.088390" lon="-8.333202">
<ele>162.0</ele>
<desc>Speed 21.3 km/h Distance 1.09 km</desc>
<time>2011-05-22T06:53:54.89</time>
<name>239</name>
<sym>Dot</sym>
</trkpt>
<trkpt lat="40.088357" lon="-8.333153">
<ele>162.0</ele>
<desc>Speed 19.6 km/h Distance 1.10 km</desc>
<time>2011-05-22T06:53:55.88</time>
<name>240</name>
<sym>Dot</sym>
</trkpt>
<trkpt lat="40.088330" lon="-8.333108">
<ele>162.5</ele>
<desc>Speed 17.4 km/h Distance 1.10 km</desc>
<time>2011-05-22T06:53:56.87</time>
<name>241</name>
<sym>Dot</sym>
</trkpt>
<trkpt lat="40.088308" lon="-8.333075">
<ele>162.5</ele>
<desc>Speed 13.3 km/h Distance 1.10 km</desc>
<time>2011-05-22T06:53:57.86</time>
<name>242</name>
<sym>Dot</sym>
</trkpt>
<trkpt lat="40.088288" lon="-8.333073">
<ele>164.5</ele>
<desc>Speed 8.3 km/h Distance 1.11 km</desc>
<time>2011-05-22T06:53:58.86</time>
<name>243</name>
<sym>Dot</sym>
</trkpt>
<trkpt lat="40.088270" lon="-8.333082">
<ele>164.5</ele>
<desc>Speed 7.8 km/h Distance 1.11 km</desc>
<time>2011-05-22T06:53:59.86</time>
<name>244</name>
<sym>Dot</sym>
</trkpt>
<trkpt lat="40.088258" lon="-8.333092">
<ele>164.5</ele>
<desc>Speed 6.0 km/h Distance 1.11 km</desc>
<time>2011-05-22T06:54:00.86</time>
<name>245</name>
<sym>Dot</sym>
</trkpt>
<trkpt lat="40.088243" lon="-8.333097">
<ele>164.5</ele>
<desc>Speed 5.9 km/h Distance 1.11 km</desc>
<time>2011-05-22T06:54:01.85</time>
<name>246</name>
<sym>Dot</sym>
</trkpt>
<trkpt lat="40.088232" lon="-8.333098">
<ele>164.5</ele>
<desc>Speed 5.0 km/h Distance 1.11 km</desc>
<time>2011-05-22T06:54:02.84</time>
<name>247</name>
<sym>Dot</sym>
</trkpt>
<trkpt lat="40.088222" lon="-8.333098">
<ele>164.5</ele>
<desc>Speed 4.3 km/h Distance 1.11 km</desc>
<time>2011-05-22T06:54:03.84</time>
<name>248</name>
<sym>Dot</sym>
</trkpt>
<trkpt lat="40.088213" lon="-8.333102">
<ele>164.5</ele>
<desc>Speed 3.7 km/h Distance 1.12 km</desc>
<time>2011-05-22T06:54:04.83</time>
<name>249</name>
<sym>Dot</sym>
</trkpt>
<trkpt lat="40.088202" lon="-8.333102">
<ele>164.5</ele>
<desc>Speed 4.5 km/h Distance 1.12 km</desc>
<time>2011-05-22T06:54:05.83</time>
<name>250</name>
<sym>Dot</sym>
</trkpt>
<trkpt lat="40.088187" lon="-8.333102">
<ele>165.0</ele>
<desc>Speed 5.8 km/h Distance 1.12 km</desc>
<time>2011-05-22T06:54:06.83</time>
<name>251</name>
<sym>Dot</sym>
</trkpt>
<trkpt lat="40.088170" lon="-8.333108">
<ele>165.0</ele>
<desc>Speed 7.5 km/h Distance 1.12 km</desc>
<time>2011-05-22T06:54:07.82</time>
<name>252</name>
<sym>Dot</sym>
</trkpt>
<trkpt lat="40.088145" lon="-8.333110">
<ele>164.5</ele>
<desc>Speed 9.7 km/h Distance 1.12 km</desc>
<time>2011-05-22T06:54:08.82</time>
<name>253</name>
<sym>Dot</sym>
</trkpt>
<trkpt lat="40.088117" lon="-8.333102">
<ele>164.5</ele>
<desc>Speed 12.1 km/h Distance 1.13 km</desc>
<time>2011-05-22T06:54:09.82</time>
<name>254</name>
<sym>Dot</sym>
</trkpt>
<trkpt lat="40.088083" lon="-8.333088">
<ele>164.5</ele>
<desc>Speed 13.8 km/h Distance 1.13 km</desc>
<time>2011-05-22T06:54:10.82</time>
<name>255</name>
<sym>Dot</sym>
</trkpt>
<trkpt lat="40.088048" lon="-8.333073">
<ele>164.5</ele>
<desc>Speed 15.0 km/h Distance 1.13 km</desc>
<time>2011-05-22T06:54:11.82</time>
<name>256</name>
<sym>Dot</sym>
</trkpt>
<trkpt lat="40.088012" lon="-8.333062">
<ele>164.5</ele>
<desc>Speed 15.5 km/h Distance 1.14 km</desc>
<time>2011-05-22T06:54:12.81</time>
<name>257</name>
<sym>Dot</sym>
</trkpt>
<trkpt lat="40.087975" lon="-8.333045">
<ele>165.0</ele>
<desc>Speed 15.6 km/h Distance 1.14 km</desc>
<time>2011-05-22T06:54:13.81</time>
<name>258</name>
<sym>Dot</sym>
</trkpt>
<trkpt lat="40.087940" lon="-8.333025">
<ele>165.0</ele>
<desc>Speed 15.2 km/h Distance 1.15 km</desc>
<time>2011-05-22T06:54:14.81</time>
<name>259</name>
<sym>Dot</sym>
</trkpt>
<trkpt lat="40.087908" lon="-8.333005">
<ele>165.5</ele>
<desc>Speed 14.4 km/h Distance 1.15 km</desc>
<time>2011-05-22T06:54:15.81</time>
<name>260</name>
<sym>Dot</sym>
</trkpt>
<trkpt lat="40.087877" lon="-8.332988">
<ele>165.5</ele>
<desc>Speed 13.7 km/h Distance 1.15 km</desc>
<time>2011-05-22T06:54:16.81</time>
<name>261</name>
<sym>Dot</sym>
</trkpt>
<trkpt lat="40.087847" lon="-8.332970">
<ele>165.5</ele>
<desc>Speed 13.2 km/h Distance 1.16 km</desc>
<time>2011-05-22T06:54:17.80</time>
<name>262</name>
<sym>Dot</sym>
</trkpt>
<trkpt lat="40.087820" lon="-8.332948">
<ele>166.0</ele>
<desc>Speed 13.2 km/h Distance 1.16 km</desc>
<time>2011-05-22T06:54:18.80</time>
<name>263</name>
<sym>Dot</sym>
</trkpt>
<trkpt lat="40.087793" lon="-8.332923">
<ele>166.0</ele>
<desc>Speed 12.8 km/h Distance 1.17 km</desc>
<time>2011-05-22T06:54:19.79</time>
<name>264</name>
<sym>Dot</sym>
</trkpt>
<trkpt lat="40.087770" lon="-8.332897">
<ele>166.0</ele>
<desc>Speed 12.4 km/h Distance 1.17 km</desc>
<time>2011-05-22T06:54:20.79</time>
<name>265</name>
<sym>Dot</sym>
</trkpt>
<trkpt lat="40.087752" lon="-8.332868">
<ele>166.0</ele>
<desc>Speed 11.7 km/h Distance 1.17 km</desc>
<time>2011-05-22T06:54:21.79</time>
<name>266</name>
<sym>Dot</sym>
</trkpt>
<trkpt lat="40.087733" lon="-8.332843">
<ele>166.5</ele>
<desc>Speed 10.6 km/h Distance 1.18 km</desc>
<time>2011-05-22T06:54:22.79</time>
<name>267</name>
<sym>Dot</sym>
</trkpt>
<trkpt lat="40.087717" lon="-8.332820">
<ele>166.5</ele>
<desc>Speed 9.7 km/h Distance 1.18 km</desc>
<time>2011-05-22T06:54:23.79</time>
<name>268</name>
<sym>Dot</sym>
</trkpt>
<trkpt lat="40.087703" lon="-8.332797">
<ele>166.5</ele>
<desc>Speed 9.0 km/h Distance 1.18 km</desc>
<time>2011-05-22T06:54:24.79</time>
<name>269</name>
<sym>Dot</sym>
</trkpt>
<trkpt lat="40.087687" lon="-8.332775">
<ele>166.5</ele>
<desc>Speed 9.3 km/h Distance 1.18 km</desc>
<time>2011-05-22T06:54:25.79</time>
<name>270</name>
<sym>Dot</sym>
</trkpt>
<trkpt lat="40.087670" lon="-8.332752">
<ele>166.5</ele>
<desc>Speed 9.6 km/h Distance 1.19 km</desc>
<time>2011-05-22T06:54:26.78</time>
<name>271</name>
<sym>Dot</sym>
</trkpt>
<trkpt lat="40.087655" lon="-8.332728">
<ele>166.5</ele>
<desc>Speed 9.4 km/h Distance 1.19 km</desc>
<time>2011-05-22T06:54:27.78</time>
<name>272</name>
<sym>Dot</sym>
</trkpt>
<trkpt lat="40.087638" lon="-8.332705">
<ele>166.5</ele>
<desc>Speed 9.5 km/h Distance 1.19 km</desc>
<time>2011-05-22T06:54:28.77</time>
<name>273</name>
<sym>Dot</sym>
</trkpt>
<trkpt lat="40.087623" lon="-8.332683">
<ele>166.5</ele>
<desc>Speed 9.2 km/h Distance 1.19 km</desc>
<time>2011-05-22T06:54:29.77</time>
<name>274</name>
<sym>Dot</sym>
</trkpt>
<trkpt lat="40.087607" lon="-8.332662">
<ele>166.5</ele>
<desc>Speed 9.2 km/h Distance 1.20 km</desc>
<time>2011-05-22T06:54:30.76</time>
<name>275</name>
<sym>Dot</sym>
</trkpt>
<trkpt lat="40.087592" lon="-8.332640">
<ele>167.0</ele>
<desc>Speed 9.3 km/h Distance 1.20 km</desc>
<time>2011-05-22T06:54:31.76</time>
<name>276</name>
<sym>Dot</sym>
</trkpt>
<trkpt lat="40.087573" lon="-8.332622">
<ele>167.0</ele>
<desc>Speed 9.2 km/h Distance 1.20 km</desc>
<time>2011-05-22T06:54:32.75</time>
<name>277</name>
<sym>Dot</sym>
</trkpt>
<trkpt lat="40.087557" lon="-8.332602">
<ele>167.0</ele>
<desc>Speed 9.3 km/h Distance 1.20 km</desc>
<time>2011-05-22T06:54:33.74</time>
<name>278</name>
<sym>Dot</sym>
</trkpt>
<trkpt lat="40.087538" lon="-8.332582">
<ele>167.0</ele>
<desc>Speed 9.2 km/h Distance 1.21 km</desc>
<time>2011-05-22T06:54:34.74</time>
<name>279</name>
<sym>Dot</sym>
</trkpt>
<trkpt lat="40.087520" lon="-8.332563">
<ele>167.5</ele>
<desc>Speed 9.2 km/h Distance 1.21 km</desc>
<time>2011-05-22T06:54:35.73</time>
<name>280</name>
<sym>Dot</sym>
</trkpt>
<trkpt lat="40.087502" lon="-8.332545">
<ele>167.5</ele>
<desc>Speed 9.4 km/h Distance 1.21 km</desc>
<time>2011-05-22T06:54:36.73</time>
<name>281</name>
<sym>Dot</sym>
</trkpt>
<trkpt lat="40.087483" lon="-8.332528">
<ele>167.5</ele>
<desc>Speed 9.3 km/h Distance 1.21 km</desc>
<time>2011-05-22T06:54:37.74</time>
<name>282</name>
<sym>Dot</sym>
</trkpt>
<trkpt lat="40.087465" lon="-8.332517">
<ele>168.0</ele>
<desc>Speed 8.4 km/h Distance 1.22 km</desc>
<time>2011-05-22T06:54:38.72</time>
<name>283</name>
<sym>Dot</sym>
</trkpt>
<trkpt lat="40.087448" lon="-8.332515">
<ele>168.0</ele>
<desc>Speed 6.6 km/h Distance 1.22 km</desc>
<time>2011-05-22T06:54:39.72</time>
<name>284</name>
<sym>Dot</sym>
</trkpt>
<trkpt lat="40.087437" lon="-8.332512">
<ele>168.0</ele>
<desc>Speed 5.1 km/h Distance 1.22 km</desc>
<time>2011-05-22T06:54:40.72</time>
<name>285</name>
<sym>Dot</sym>
</trkpt>
<trkpt lat="40.087428" lon="-8.332510">
<ele>168.0</ele>
<desc>Speed 3.1 km/h Distance 1.22 km</desc>
<time>2011-05-22T06:54:41.72</time>
<name>286</name>
<sym>Dot</sym>
</trkpt>
<trkpt lat="40.087427" lon="-8.332507">
<ele>168.0</ele>
<desc>Speed 1.5 km/h Distance 1.22 km</desc>
<time>2011-05-22T06:54:42.71</time>
<name>287</name>
<sym>Dot</sym>
</trkpt>
<trkpt lat="40.087422" lon="-8.332505">
<ele>168.0</ele>
<desc>Speed 1.9 km/h Distance 1.22 km</desc>
<time>2011-05-22T06:54:46.71</time>
<name>288</name>
<sym>Dot</sym>
</trkpt>
<trkpt lat="40.087422" lon="-8.332500">
<ele>168.0</ele>
<desc>Speed 1.5 km/h Distance 1.22 km</desc>
<time>2011-05-22T06:54:47.71</time>
<name>289</name>
<sym>Dot</sym>
</trkpt>
<trkpt lat="40.087422" lon="-8.332498">
<ele>168.0</ele>
<desc>Speed 1.2 km/h Distance 1.22 km</desc>
<time>2011-05-22T06:54:50.71</time>
<name>290</name>
<sym>Dot</sym>
</trkpt>
<trkpt lat="40.087425" lon="-8.332497">
<ele>168.5</ele>
<desc>Speed 1.4 km/h Distance 1.22 km</desc>
<time>2011-05-22T06:54:52.70</time>
<name>291</name>
<sym>Dot</sym>
</trkpt>
<trkpt lat="40.087432" lon="-8.332493">
<ele>169.5</ele>
<desc>Speed 2.9 km/h Distance 1.22 km</desc>
<time>2011-05-22T06:54:53.70</time>
<name>292</name>
<sym>Dot</sym>
</trkpt>
<trkpt lat="40.087443" lon="-8.332495">
<ele>170.0</ele>
<desc>Speed 4.3 km/h Distance 1.22 km</desc>
<time>2011-05-22T06:54:54.70</time>
<name>293</name>
<sym>Dot</sym>
</trkpt>
<trkpt lat="40.087457" lon="-8.332503">
<ele>170.0</ele>
<desc>Speed 5.8 km/h Distance 1.23 km</desc>
<time>2011-05-22T06:54:55.69</time>
<name>294</name>
<sym>Dot</sym>
</trkpt>
<trkpt lat="40.087475" lon="-8.332512">
<ele>170.0</ele>
<desc>Speed 7.6 km/h Distance 1.23 km</desc>
<time>2011-05-22T06:54:56.68</time>
<name>295</name>
<sym>Dot</sym>
</trkpt>
<trkpt lat="40.087497" lon="-8.332522">
<ele>170.0</ele>
<desc>Speed 9.2 km/h Distance 1.23 km</desc>
<time>2011-05-22T06:54:57.68</time>
<name>296</name>
<sym>Dot</sym>
</trkpt>
<trkpt lat="40.087520" lon="-8.332538">
<ele>170.0</ele>
<desc>Speed 10.9 km/h Distance 1.23 km</desc>
<time>2011-05-22T06:54:58.68</time>
<name>297</name>
<sym>Dot</sym>
</trkpt>
<trkpt lat="40.087548" lon="-8.332560">
<ele>169.5</ele>
<desc>Speed 12.6 km/h Distance 1.24 km</desc>
<time>2011-05-22T06:54:59.68</time>
<name>298</name>
<sym>Dot</sym>
</trkpt>
<trkpt lat="40.087578" lon="-8.332587">
<ele>169.5</ele>
<desc>Speed 14.4 km/h Distance 1.24 km</desc>
<time>2011-05-22T06:55:00.67</time>
<name>299</name>
<sym>Dot</sym>
</trkpt>
<trkpt lat="40.087608" lon="-8.332618">
<ele>169.0</ele>
<desc>Speed 15.6 km/h Distance 1.25 km</desc>
<time>2011-05-22T06:55:01.67</time>
<name>300</name>
<sym>Dot</sym>
</trkpt>
<trkpt lat="40.087642" lon="-8.332653">
<ele>168.5</ele>
<desc>Speed 17.2 km/h Distance 1.25 km</desc>
<time>2011-05-22T06:55:02.67</time>
<name>301</name>
<sym>Dot</sym>
</trkpt>
<trkpt lat="40.087678" lon="-8.332693">
<ele>168.5</ele>
<desc>Speed 18.7 km/h Distance 1.26 km</desc>
<time>2011-05-22T06:55:03.67</time>
<name>302</name>
<sym>Dot</sym>
</trkpt>
<trkpt lat="40.087717" lon="-8.332737">
<ele>168.0</ele>
<desc>Speed 20.1 km/h Distance 1.26 km</desc>
<time>2011-05-22T06:55:04.67</time>
<name>303</name>
<sym>Dot</sym>
</trkpt>
<trkpt lat="40.087753" lon="-8.332788">
<ele>167.5</ele>
<desc>Speed 21.5 km/h Distance 1.27 km</desc>
<time>2011-05-22T06:55:05.66</time>
<name>304</name>
<sym>Dot</sym>
</trkpt>
<trkpt lat="40.087790" lon="-8.332847">
<ele>167.0</ele>
<desc>Speed 23.3 km/h Distance 1.27 km</desc>
<time>2011-05-22T06:55:06.66</time>
<name>305</name>
<sym>Dot</sym>
</trkpt>
<trkpt lat="40.087832" lon="-8.332905">
<ele>166.5</ele>
<desc>Speed 24.6 km/h Distance 1.28 km</desc>
<time>2011-05-22T06:55:07.65</time>
<name>306</name>
<sym>Dot</sym>
</trkpt>
<trkpt lat="40.087875" lon="-8.332960">
<ele>166.0</ele>
<desc>Speed 23.7 km/h Distance 1.29 km</desc>
<time>2011-05-22T06:55:08.65</time>
<name>307</name>
<sym>Dot</sym>
</trkpt>
<trkpt lat="40.087913" lon="-8.333000">
<ele>165.5</ele>
<desc>Speed 19.9 km/h Distance 1.29 km</desc>
<time>2011-05-22T06:55:09.65</time>
<name>308</name>
<sym>Dot</sym>
</trkpt>
<trkpt lat="40.087950" lon="-8.333023">
<ele>165.5</ele>
<desc>Speed 15.7 km/h Distance 1.30 km</desc>
<time>2011-05-22T06:55:10.64</time>
<name>309</name>
<sym>Dot</sym>
</trkpt>
<trkpt lat="40.087982" lon="-8.333038">
<ele>165.0</ele>
<desc>Speed 13.8 km/h Distance 1.30 km</desc>
<time>2011-05-22T06:55:11.64</time>
<name>310</name>
<sym>Dot</sym>
</trkpt>
<trkpt lat="40.088017" lon="-8.333050">
<ele>165.0</ele>
<desc>Speed 14.1 km/h Distance 1.31 km</desc>
<time>2011-05-22T06:55:12.64</time>
<name>311</name>
<sym>Dot</sym>
</trkpt>
<trkpt lat="40.088052" lon="-8.333058">
<ele>165.0</ele>
<desc>Speed 14.3 km/h Distance 1.31 km</desc>
<time>2011-05-22T06:55:13.64</time>
<name>312</name>
<sym>Dot</sym>
</trkpt>
<trkpt lat="40.088087" lon="-8.333065">
<ele>165.0</ele>
<desc>Speed 13.6 km/h Distance 1.31 km</desc>
<time>2011-05-22T06:55:14.64</time>
<name>313</name>
<sym>Dot</sym>
</trkpt>
<trkpt lat="40.088115" lon="-8.333070">
<ele>165.0</ele>
<desc>Speed 11.1 km/h Distance 1.32 km</desc>
<time>2011-05-22T06:55:15.64</time>
<name>314</name>
<sym>Dot</sym>
</trkpt>
<trkpt lat="40.088135" lon="-8.333067">
<ele>165.5</ele>
<desc>Speed 8.1 km/h Distance 1.32 km</desc>
<time>2011-05-22T06:55:16.63</time>
<name>315</name>
<sym>Dot</sym>
</trkpt>
<trkpt lat="40.088148" lon="-8.333062">
<ele>165.5</ele>
<desc>Speed 5.8 km/h Distance 1.32 km</desc>
<time>2011-05-22T06:55:17.63</time>
<name>316</name>
<sym>Dot</sym>
</trkpt>
<trkpt lat="40.088160" lon="-8.333055">
<ele>165.5</ele>
<desc>Speed 4.6 km/h Distance 1.32 km</desc>
<time>2011-05-22T06:55:18.62</time>
<name>317</name>
<sym>Dot</sym>
</trkpt>
<trkpt lat="40.088170" lon="-8.333047">
<ele>165.5</ele>
<desc>Speed 4.8 km/h Distance 1.32 km</desc>
<time>2011-05-22T06:55:19.62</time>
<name>318</name>
<sym>Dot</sym>
</trkpt>
<trkpt lat="40.088180" lon="-8.333030">
<ele>165.5</ele>
<desc>Speed 6.3 km/h Distance 1.32 km</desc>
<time>2011-05-22T06:55:20.62</time>
<name>319</name>
<sym>Dot</sym>
</trkpt>
<trkpt lat="40.088192" lon="-8.333008">
<ele>165.5</ele>
<desc>Speed 8.1 km/h Distance 1.33 km</desc>
<time>2011-05-22T06:55:21.62</time>
<name>320</name>
<sym>Dot</sym>
</trkpt>
<trkpt lat="40.088202" lon="-8.332977">
<ele>165.5</ele>
<desc>Speed 10.0 km/h Distance 1.33 km</desc>
<time>2011-05-22T06:55:22.62</time>
<name>321</name>
<sym>Dot</sym>
</trkpt>
<trkpt lat="40.088207" lon="-8.332935">
<ele>165.5</ele>
<desc>Speed 12.8 km/h Distance 1.33 km</desc>
<time>2011-05-22T06:55:23.61</time>
<name>322</name>
<sym>Dot</sym>
</trkpt>
<trkpt lat="40.088210" lon="-8.332890">
<ele>165.5</ele>
<desc>Speed 14.0 km/h Distance 1.34 km</desc>
<time>2011-05-22T06:55:24.61</time>
<name>323</name>
<sym>Dot</sym>
</trkpt>
<trkpt lat="40.088212" lon="-8.332842">
<ele>165.5</ele>
<desc>Speed 14.9 km/h Distance 1.34 km</desc>
<time>2011-05-22T06:55:25.61</time>
<name>324</name>
<sym>Dot</sym>
</trkpt>
<trkpt lat="40.088212" lon="-8.332792">
<ele>165.5</ele>
<desc>Speed 14.9 km/h Distance 1.35 km</desc>
<time>2011-05-22T06:55:26.61</time>
<name>325</name>
<sym>Dot</sym>
</trkpt>
<trkpt lat="40.088208" lon="-8.332745">
<ele>166.0</ele>
<desc>Speed 14.7 km/h Distance 1.35 km</desc>
<time>2011-05-22T06:55:27.60</time>
<name>326</name>
<sym>Dot</sym>
</trkpt>
<trkpt lat="40.088205" lon="-8.332698">
<ele>166.0</ele>
<desc>Speed 14.2 km/h Distance 1.35 km</desc>
<time>2011-05-22T06:55:28.59</time>
<name>327</name>
<sym>Dot</sym>
</trkpt>
<trkpt lat="40.088202" lon="-8.332655">
<ele>166.0</ele>
<desc>Speed 13.6 km/h Distance 1.36 km</desc>
<time>2011-05-22T06:55:29.59</time>
<name>328</name>
<sym>Dot</sym>
</trkpt>
<trkpt lat="40.088200" lon="-8.332613">
<ele>166.5</ele>
<desc>Speed 12.7 km/h Distance 1.36 km</desc>
<time>2011-05-22T06:55:30.59</time>
<name>329</name>
<sym>Dot</sym>
</trkpt>
<trkpt lat="40.088198" lon="-8.332573">
<ele>166.5</ele>
<desc>Speed 12.0 km/h Distance 1.36 km</desc>
<time>2011-05-22T06:55:31.59</time>
<name>330</name>
<sym>Dot</sym>
</trkpt>
<trkpt lat="40.088198" lon="-8.332537">
<ele>166.5</ele>
<desc>Speed 11.3 km/h Distance 1.37 km</desc>
<time>2011-05-22T06:55:32.58</time>
<name>331</name>
<sym>Dot</sym>
</trkpt>
<trkpt lat="40.088202" lon="-8.332503">
<ele>166.5</ele>
<desc>Speed 10.7 km/h Distance 1.37 km</desc>
<time>2011-05-22T06:55:33.57</time>
<name>332</name>
<sym>Dot</sym>
</trkpt>
<trkpt lat="40.088210" lon="-8.332473">
<ele>167.5</ele>
<desc>Speed 9.6 km/h Distance 1.37 km</desc>
<time>2011-05-22T06:55:34.57</time>
<name>333</name>
<sym>Dot</sym>
</trkpt>
<trkpt lat="40.088227" lon="-8.332445">
<ele>168.0</ele>
<desc>Speed 10.8 km/h Distance 1.38 km</desc>
<time>2011-05-22T06:55:35.57</time>
<name>334</name>
<sym>Dot</sym>
</trkpt>
<trkpt lat="40.088247" lon="-8.332418">
<ele>168.5</ele>
<desc>Speed 11.3 km/h Distance 1.38 km</desc>
<time>2011-05-22T06:55:36.57</time>
<name>335</name>
<sym>Dot</sym>
</trkpt>
<trkpt lat="40.088273" lon="-8.332400">
<ele>169.0</ele>
<desc>Speed 11.5 km/h Distance 1.38 km</desc>
<time>2011-05-22T06:55:37.57</time>
<name>336</name>
<sym>Dot</sym>
</trkpt>
<trkpt lat="40.088298" lon="-8.332388">
<ele>169.0</ele>
<desc>Speed 10.7 km/h Distance 1.39 km</desc>
<time>2011-05-22T06:55:38.57</time>
<name>337</name>
<sym>Dot</sym>
</trkpt>
<trkpt lat="40.088323" lon="-8.332382">
<ele>169.5</ele>
<desc>Speed 10.2 km/h Distance 1.39 km</desc>
<time>2011-05-22T06:55:39.57</time>
<name>338</name>
<sym>Dot</sym>
</trkpt>
<trkpt lat="40.088348" lon="-8.332375">
<ele>169.5</ele>
<desc>Speed 10.0 km/h Distance 1.39 km</desc>
<time>2011-05-22T06:55:40.56</time>
<name>339</name>
<sym>Dot</sym>
</trkpt>
<trkpt lat="40.088373" lon="-8.332367">
<ele>170.0</ele>
<desc>Speed 9.9 km/h Distance 1.39 km</desc>
<time>2011-05-22T06:55:41.55</time>
<name>340</name>
<sym>Dot</sym>
</trkpt>
<trkpt lat="40.088398" lon="-8.332360">
<ele>170.0</ele>
<desc>Speed 10.0 km/h Distance 1.40 km</desc>
<time>2011-05-22T06:55:42.55</time>
<name>341</name>
<sym>Dot</sym>
</trkpt>
<trkpt lat="40.088423" lon="-8.332358">
<ele>170.5</ele>
<desc>Speed 9.9 km/h Distance 1.40 km</desc>
<time>2011-05-22T06:55:43.54</time>
<name>342</name>
<sym>Dot</sym>
</trkpt>
<trkpt lat="40.088448" lon="-8.332353">
<ele>170.5</ele>
<desc>Speed 10.0 km/h Distance 1.40 km</desc>
<time>2011-05-22T06:55:44.54</time>
<name>343</name>
<sym>Dot</sym>
</trkpt>
<trkpt lat="40.088475" lon="-8.332347">
<ele>171.0</ele>
<desc>Speed 10.3 km/h Distance 1.41 km</desc>
<time>2011-05-22T06:55:45.53</time>
<name>344</name>
<sym>Dot</sym>
</trkpt>
<trkpt lat="40.088502" lon="-8.332340">
<ele>171.0</ele>
<desc>Speed 10.6 km/h Distance 1.41 km</desc>
<time>2011-05-22T06:55:46.53</time>
<name>345</name>
<sym>Dot</sym>
</trkpt>
<trkpt lat="40.088530" lon="-8.332335">
<ele>171.0</ele>
<desc>Speed 11.4 km/h Distance 1.41 km</desc>
<time>2011-05-22T06:55:47.53</time>
<name>346</name>
<sym>Dot</sym>
</trkpt>
<trkpt lat="40.088562" lon="-8.332330">
<ele>171.5</ele>
<desc>Speed 12.2 km/h Distance 1.42 km</desc>
<time>2011-05-22T06:55:48.52</time>
<name>347</name>
<sym>Dot</sym>
</trkpt>
<trkpt lat="40.088592" lon="-8.332325">
<ele>171.5</ele>
<desc>Speed 12.5 km/h Distance 1.42 km</desc>
<time>2011-05-22T06:55:49.54</time>
<name>348</name>
<sym>Dot</sym>
</trkpt>
<trkpt lat="40.088625" lon="-8.332318">
<ele>171.5</ele>
<desc>Speed 12.6 km/h Distance 1.42 km</desc>
<time>2011-05-22T06:55:50.51</time>
<name>349</name>
<sym>Dot</sym>
</trkpt>
<trkpt lat="40.088658" lon="-8.332313">
<ele>172.0</ele>
<desc>Speed 13.1 km/h Distance 1.43 km</desc>
<time>2011-05-22T06:55:51.51</time>
<name>350</name>
<sym>Dot</sym>
</trkpt>
<trkpt lat="40.088692" lon="-8.332312">
<ele>172.5</ele>
<desc>Speed 13.4 km/h Distance 1.43 km</desc>
<time>2011-05-22T06:55:52.50</time>
<name>351</name>
<sym>Dot</sym>
</trkpt>
<trkpt lat="40.088728" lon="-8.332307">
<ele>173.0</ele>
<desc>Speed 14.0 km/h Distance 1.43 km</desc>
<time>2011-05-22T06:55:53.50</time>
<name>352</name>
<sym>Dot</sym>
</trkpt>
<trkpt lat="40.088763" lon="-8.332298">
<ele>173.0</ele>
<desc>Speed 14.4 km/h Distance 1.44 km</desc>
<time>2011-05-22T06:55:54.52</time>
<name>353</name>
<sym>Dot</sym>
</trkpt>
<trkpt lat="40.088802" lon="-8.332293">
<ele>173.5</ele>
<desc>Speed 15.0 km/h Distance 1.44 km</desc>
<time>2011-05-22T06:55:55.50</time>
<name>354</name>
<sym>Dot</sym>
</trkpt>
<trkpt lat="40.088840" lon="-8.332285">
<ele>173.5</ele>
<desc>Speed 15.2 km/h Distance 1.45 km</desc>
<time>2011-05-22T06:55:56.49</time>
<name>355</name>
<sym>Dot</sym>
</trkpt>
<trkpt lat="40.088877" lon="-8.332277">
<ele>173.5</ele>
<desc>Speed 14.9 km/h Distance 1.45 km</desc>
<time>2011-05-22T06:55:57.49</time>
<name>356</name>
<sym>Dot</sym>
</trkpt>
<trkpt lat="40.088913" lon="-8.332263">
<ele>174.0</ele>
<desc>Speed 15.1 km/h Distance 1.45 km</desc>
<time>2011-05-22T06:55:58.49</time>
<name>357</name>
<sym>Dot</sym>
</trkpt>
<trkpt lat="40.088952" lon="-8.332250">
<ele>173.5</ele>
<desc>Speed 15.4 km/h Distance 1.46 km</desc>
<time>2011-05-22T06:55:59.51</time>
<name>358</name>
<sym>Dot</sym>
</trkpt>
<trkpt lat="40.088990" lon="-8.332240">
<ele>173.5</ele>
<desc>Speed 15.8 km/h Distance 1.46 km</desc>
<time>2011-05-22T06:56:00.48</time>
<name>359</name>
<sym>Dot</sym>
</trkpt>
<trkpt lat="40.089028" lon="-8.332227">
<ele>173.5</ele>
<desc>Speed 15.6 km/h Distance 1.47 km</desc>
<time>2011-05-22T06:56:01.47</time>
<name>360</name>
<sym>Dot</sym>
</trkpt>
<trkpt lat="40.089063" lon="-8.332198">
<ele>174.0</ele>
<desc>Speed 15.8 km/h Distance 1.47 km</desc>
<time>2011-05-22T06:56:02.47</time>
<name>361</name>
<sym>Dot</sym>
</trkpt>
<trkpt lat="40.089088" lon="-8.332160">
<ele>174.0</ele>
<desc>Speed 15.5 km/h Distance 1.48 km</desc>
<time>2011-05-22T06:56:03.47</time>
<name>362</name>
<sym>Dot</sym>
</trkpt>
<trkpt lat="40.089100" lon="-8.332113">
<ele>174.0</ele>
<desc>Speed 15.1 km/h Distance 1.48 km</desc>
<time>2011-05-22T06:56:04.47</time>
<name>363</name>
<sym>Dot</sym>
</trkpt>
<trkpt lat="40.089095" lon="-8.332063">
<ele>174.0</ele>
<desc>Speed 15.1 km/h Distance 1.49 km</desc>
<time>2011-05-22T06:56:05.47</time>
<name>364</name>
<sym>Dot</sym>
</trkpt>
<trkpt lat="40.089088" lon="-8.332010">
<ele>174.0</ele>
<desc>Speed 16.7 km/h Distance 1.49 km</desc>
<time>2011-05-22T06:56:06.46</time>
<name>365</name>
<sym>Dot</sym>
</trkpt>
<trkpt lat="40.089083" lon="-8.331957">
<ele>174.0</ele>
<desc>Speed 16.9 km/h Distance 1.49 km</desc>
<time>2011-05-22T06:56:07.46</time>
<name>366</name>
<sym>Dot</sym>
</trkpt>
<trkpt lat="40.089077" lon="-8.331902">
<ele>174.0</ele>
<desc>Speed 16.7 km/h Distance 1.50 km</desc>
<time>2011-05-22T06:56:08.45</time>
<name>367</name>
<sym>Dot</sym>
</trkpt>
<trkpt lat="40.089070" lon="-8.331848">
<ele>174.0</ele>
<desc>Speed 16.8 km/h Distance 1.50 km</desc>
<time>2011-05-22T06:56:09.45</time>
<name>368</name>
<sym>Dot</sym>
</trkpt>
<trkpt lat="40.089063" lon="-8.331795">
<ele>174.5</ele>
<desc>Speed 16.8 km/h Distance 1.51 km</desc>
<time>2011-05-22T06:56:10.45</time>
<name>369</name>
<sym>Dot</sym>
</trkpt>
<trkpt lat="40.089060" lon="-8.331742">
<ele>174.5</ele>
<desc>Speed 16.7 km/h Distance 1.51 km</desc>
<time>2011-05-22T06:56:11.44</time>
<name>370</name>
<sym>Dot</sym>
</trkpt>
<trkpt lat="40.089055" lon="-8.331688">
<ele>175.0</ele>
<desc>Speed 16.7 km/h Distance 1.52 km</desc>
<time>2011-05-22T06:56:12.43</time>
<name>371</name>
<sym>Dot</sym>
</trkpt>
<trkpt lat="40.089050" lon="-8.331633">
<ele>175.0</ele>
<desc>Speed 16.7 km/h Distance 1.52 km</desc>
<time>2011-05-22T06:56:13.44</time>
<name>372</name>
<sym>Dot</sym>
</trkpt>
<trkpt lat="40.089045" lon="-8.331580">
<ele>175.0</ele>
<desc>Speed 16.5 km/h Distance 1.53 km</desc>
<time>2011-05-22T06:56:14.43</time>
<name>373</name>
<sym>Dot</sym>
</trkpt>
<trkpt lat="40.089038" lon="-8.331525">
<ele>175.5</ele>
<desc>Speed 16.6 km/h Distance 1.53 km</desc>
<time>2011-05-22T06:56:15.42</time>
<name>374</name>
<sym>Dot</sym>
</trkpt>
<trkpt lat="40.089033" lon="-8.331472">
<ele>175.5</ele>
<desc>Speed 16.5 km/h Distance 1.54 km</desc>
<time>2011-05-22T06:56:16.42</time>
<name>375</name>
<sym>Dot</sym>
</trkpt>
<trkpt lat="40.089030" lon="-8.331418">
<ele>175.0</ele>
<desc>Speed 16.2 km/h Distance 1.54 km</desc>
<time>2011-05-22T06:56:17.42</time>
<name>376</name>
<sym>Dot</sym>
</trkpt>
<trkpt lat="40.089025" lon="-8.331365">
<ele>175.0</ele>
<desc>Speed 16.1 km/h Distance 1.55 km</desc>
<time>2011-05-22T06:56:18.41</time>
<name>377</name>
<sym>Dot</sym>
</trkpt>
<trkpt lat="40.089020" lon="-8.331312">
<ele>174.5</ele>
<desc>Speed 15.6 km/h Distance 1.55 km</desc>
<time>2011-05-22T06:56:19.41</time>
<name>378</name>
<sym>Dot</sym>
</trkpt>
<trkpt lat="40.089013" lon="-8.331260">
<ele>174.5</ele>
<desc>Speed 15.6 km/h Distance 1.55 km</desc>
<time>2011-05-22T06:56:20.40</time>
<name>379</name>
<sym>Dot</sym>
</trkpt>
<trkpt lat="40.089008" lon="-8.331210">
<ele>174.5</ele>
<desc>Speed 15.6 km/h Distance 1.56 km</desc>
<time>2011-05-22T06:56:21.40</time>
<name>380</name>
<sym>Dot</sym>
</trkpt>
<trkpt lat="40.089003" lon="-8.331160">
<ele>174.5</ele>
<desc>Speed 15.3 km/h Distance 1.56 km</desc>
<time>2011-05-22T06:56:22.39</time>
<name>381</name>
<sym>Dot</sym>
</trkpt>
<trkpt lat="40.088995" lon="-8.331110">
<ele>174.5</ele>
<desc>Speed 15.2 km/h Distance 1.57 km</desc>
<time>2011-05-22T06:56:23.39</time>
<name>382</name>
<sym>Dot</sym>
</trkpt>
<trkpt lat="40.088988" lon="-8.331060">
<ele>174.5</ele>
<desc>Speed 15.3 km/h Distance 1.57 km</desc>
<time>2011-05-22T06:56:24.39</time>
<name>383</name>
<sym>Dot</sym>
</trkpt>
<trkpt lat="40.088982" lon="-8.331010">
<ele>174.5</ele>
<desc>Speed 15.2 km/h Distance 1.58 km</desc>
<time>2011-05-22T06:56:25.38</time>
<name>384</name>
<sym>Dot</sym>
</trkpt>
<trkpt lat="40.088975" lon="-8.330962">
<ele>175.0</ele>
<desc>Speed 15.0 km/h Distance 1.58 km</desc>
<time>2011-05-22T06:56:26.37</time>
<name>385</name>
<sym>Dot</sym>
</trkpt>
<trkpt lat="40.088968" lon="-8.330913">
<ele>175.0</ele>
<desc>Speed 14.7 km/h Distance 1.58 km</desc>
<time>2011-05-22T06:56:27.37</time>
<name>386</name>
<sym>Dot</sym>
</trkpt>
<trkpt lat="40.088962" lon="-8.330867">
<ele>175.0</ele>
<desc>Speed 14.5 km/h Distance 1.59 km</desc>
<time>2011-05-22T06:56:28.37</time>
<name>387</name>
<sym>Dot</sym>
</trkpt>
<trkpt lat="40.088955" lon="-8.330820">
<ele>175.0</ele>
<desc>Speed 14.6 km/h Distance 1.59 km</desc>
<time>2011-05-22T06:56:29.37</time>
<name>388</name>
<sym>Dot</sym>
</trkpt>
<trkpt lat="40.088950" lon="-8.330773">
<ele>175.0</ele>
<desc>Speed 14.4 km/h Distance 1.60 km</desc>
<time>2011-05-22T06:56:30.36</time>
<name>389</name>
<sym>Dot</sym>
</trkpt>
<trkpt lat="40.088945" lon="-8.330727">
<ele>175.5</ele>
<desc>Speed 14.4 km/h Distance 1.60 km</desc>
<time>2011-05-22T06:56:31.36</time>
<name>390</name>
<sym>Dot</sym>
</trkpt>
<trkpt lat="40.088938" lon="-8.330680">
<ele>175.5</ele>
<desc>Speed 14.1 km/h Distance 1.60 km</desc>
<time>2011-05-22T06:56:32.35</time>
<name>391</name>
<sym>Dot</sym>
</trkpt>
<trkpt lat="40.088933" lon="-8.330633">
<ele>175.5</ele>
<desc>Speed 14.4 km/h Distance 1.61 km</desc>
<time>2011-05-22T06:56:33.34</time>
<name>392</name>
<sym>Dot</sym>
</trkpt>
<trkpt lat="40.088927" lon="-8.330587">
<ele>175.5</ele>
<desc>Speed 14.5 km/h Distance 1.61 km</desc>
<time>2011-05-22T06:56:34.34</time>
<name>393</name>
<sym>Dot</sym>
</trkpt>
<trkpt lat="40.088920" lon="-8.330540">
<ele>175.5</ele>
<desc>Speed 14.7 km/h Distance 1.62 km</desc>
<time>2011-05-22T06:56:35.33</time>
<name>394</name>
<sym>Dot</sym>
</trkpt>
<trkpt lat="40.088913" lon="-8.330492">
<ele>175.5</ele>
<desc>Speed 14.9 km/h Distance 1.62 km</desc>
<time>2011-05-22T06:56:36.34</time>
<name>395</name>
<sym>Dot</sym>
</trkpt>
<trkpt lat="40.088907" lon="-8.330443">
<ele>175.0</ele>
<desc>Speed 15.0 km/h Distance 1.63 km</desc>
<time>2011-05-22T06:56:37.32</time>
<name>396</name>
<sym>Dot</sym>
</trkpt>
<trkpt lat="40.088900" lon="-8.330393">
<ele>175.0</ele>
<desc>Speed 15.4 km/h Distance 1.63 km</desc>
<time>2011-05-22T06:56:38.32</time>
<name>397</name>
<sym>Dot</sym>
</trkpt>
<trkpt lat="40.088895" lon="-8.330343">
<ele>175.0</ele>
<desc>Speed 15.5 km/h Distance 1.63 km</desc>
<time>2011-05-22T06:56:39.31</time>
<name>398</name>
<sym>Dot</sym>
</trkpt>
<trkpt lat="40.088890" lon="-8.330293">
<ele>175.5</ele>
<desc>Speed 15.4 km/h Distance 1.64 km</desc>
<time>2011-05-22T06:56:40.31</time>
<name>399</name>
<sym>Dot</sym>
</trkpt>
<trkpt lat="40.088882" lon="-8.330242">
<ele>175.5</ele>
<desc>Speed 15.8 km/h Distance 1.64 km</desc>
<time>2011-05-22T06:56:41.31</time>
<name>400</name>
<sym>Dot</sym>
</trkpt>
<trkpt lat="40.088875" lon="-8.330190">
<ele>175.5</ele>
<desc>Speed 16.0 km/h Distance 1.65 km</desc>
<time>2011-05-22T06:56:42.30</time>
<name>401</name>
<sym>Dot</sym>
</trkpt>
<trkpt lat="40.088867" lon="-8.330137">
<ele>175.0</ele>
<desc>Speed 16.5 km/h Distance 1.65 km</desc>
<time>2011-05-22T06:56:43.29</time>
<name>402</name>
<sym>Dot</sym>
</trkpt>
<trkpt lat="40.088860" lon="-8.330083">
<ele>175.0</ele>
<desc>Speed 16.8 km/h Distance 1.66 km</desc>
<time>2011-05-22T06:56:44.29</time>
<name>403</name>
<sym>Dot</sym>
</trkpt>
<trkpt lat="40.088853" lon="-8.330028">
<ele>175.0</ele>
<desc>Speed 16.9 km/h Distance 1.66 km</desc>
<time>2011-05-22T06:56:45.28</time>
<name>404</name>
<sym>Dot</sym>
</trkpt>
<trkpt lat="40.088847" lon="-8.329972">
<ele>174.5</ele>
<desc>Speed 17.4 km/h Distance 1.67 km</desc>
<time>2011-05-22T06:56:46.28</time>
<name>405</name>
<sym>Dot</sym>
</trkpt>
<trkpt lat="40.088840" lon="-8.329915">
<ele>174.5</ele>
<desc>Speed 17.6 km/h Distance 1.67 km</desc>
<time>2011-05-22T06:56:47.27</time>
<name>406</name>
<sym>Dot</sym>
</trkpt>
<trkpt lat="40.088832" lon="-8.329858">
<ele>174.5</ele>
<desc>Speed 17.5 km/h Distance 1.68 km</desc>
<time>2011-05-22T06:56:48.27</time>
<name>407</name>
<sym>Dot</sym>
</trkpt>
<trkpt lat="40.088823" lon="-8.329802">
<ele>174.5</ele>
<desc>Speed 17.8 km/h Distance 1.68 km</desc>
<time>2011-05-22T06:56:49.26</time>
<name>408</name>
<sym>Dot</sym>
</trkpt>
<trkpt lat="40.088820" lon="-8.329747">
<ele>175.5</ele>
<desc>Speed 16.7 km/h Distance 1.69 km</desc>
<time>2011-05-22T06:56:50.26</time>
<name>409</name>
<sym>Dot</sym>
</trkpt>
<trkpt lat="40.088805" lon="-8.329690">
<ele>175.5</ele>
<desc>Speed 18.3 km/h Distance 1.69 km</desc>
<time>2011-05-22T06:56:51.26</time>
<name>410</name>
<sym>Dot</sym>
</trkpt>
<trkpt lat="40.088785" lon="-8.329637">
<ele>175.5</ele>
<desc>Speed 18.0 km/h Distance 1.70 km</desc>
<time>2011-05-22T06:56:52.25</time>
<name>411</name>
<sym>Dot</sym>
</trkpt>
<trkpt lat="40.088762" lon="-8.329587">
<ele>176.0</ele>
<desc>Speed 17.8 km/h Distance 1.70 km</desc>
<time>2011-05-22T06:56:53.24</time>
<name>412</name>
<sym>Dot</sym>
</trkpt>
<trkpt lat="40.088730" lon="-8.329542">
<ele>177.0</ele>
<desc>Speed 18.3 km/h Distance 1.71 km</desc>
<time>2011-05-22T06:56:54.23</time>
<name>413</name>
<sym>Dot</sym>
</trkpt>
<trkpt lat="40.088687" lon="-8.329512">
<ele>178.5</ele>
<desc>Speed 19.6 km/h Distance 1.71 km</desc>
<time>2011-05-22T06:56:55.23</time>
<name>414</name>
<sym>Dot</sym>
</trkpt>
<trkpt lat="40.088643" lon="-8.329497">
<ele>178.0</ele>
<desc>Speed 18.2 km/h Distance 1.72 km</desc>
<time>2011-05-22T06:56:56.23</time>
<name>415</name>
<sym>Dot</sym>
</trkpt>
<trkpt lat="40.088600" lon="-8.329485">
<ele>178.0</ele>
<desc>Speed 18.5 km/h Distance 1.72 km</desc>
<time>2011-05-22T06:56:57.22</time>
<name>416</name>
<sym>Dot</sym>
</trkpt>
<trkpt lat="40.088555" lon="-8.329478">
<ele>178.0</ele>
<desc>Speed 18.4 km/h Distance 1.73 km</desc>
<time>2011-05-22T06:56:58.22</time>
<name>417</name>
<sym>Dot</sym>
</trkpt>
<trkpt lat="40.088512" lon="-8.329472">
<ele>178.0</ele>
<desc>Speed 18.0 km/h Distance 1.73 km</desc>
<time>2011-05-22T06:56:59.22</time>
<name>418</name>
<sym>Dot</sym>
</trkpt>
<trkpt lat="40.088468" lon="-8.329463">
<ele>178.0</ele>
<desc>Speed 17.9 km/h Distance 1.74 km</desc>
<time>2011-05-22T06:57:00.21</time>
<name>419</name>
<sym>Dot</sym>
</trkpt>
<trkpt lat="40.088425" lon="-8.329457">
<ele>178.0</ele>
<desc>Speed 17.8 km/h Distance 1.74 km</desc>
<time>2011-05-22T06:57:01.20</time>
<name>420</name>
<sym>Dot</sym>
</trkpt>
<trkpt lat="40.088380" lon="-8.329448">
<ele>177.5</ele>
<desc>Speed 17.9 km/h Distance 1.75 km</desc>
<time>2011-05-22T06:57:02.20</time>
<name>421</name>
<sym>Dot</sym>
</trkpt>
<trkpt lat="40.088335" lon="-8.329440">
<ele>177.5</ele>
<desc>Speed 18.1 km/h Distance 1.75 km</desc>
<time>2011-05-22T06:57:03.19</time>
<name>422</name>
<sym>Dot</sym>
</trkpt>
<trkpt lat="40.088288" lon="-8.329430">
<ele>178.0</ele>
<desc>Speed 19.0 km/h Distance 1.76 km</desc>
<time>2011-05-22T06:57:04.18</time>
<name>423</name>
<sym>Dot</sym>
</trkpt>
<trkpt lat="40.088240" lon="-8.329418">
<ele>179.0</ele>
<desc>Speed 19.8 km/h Distance 1.76 km</desc>
<time>2011-05-22T06:57:05.19</time>
<name>424</name>
<sym>Dot</sym>
</trkpt>
<trkpt lat="40.088193" lon="-8.329410">
<ele>179.0</ele>
<desc>Speed 18.8 km/h Distance 1.77 km</desc>
<time>2011-05-22T06:57:06.18</time>
<name>425</name>
<sym>Dot</sym>
</trkpt>
<trkpt lat="40.088148" lon="-8.329402">
<ele>179.0</ele>
<desc>Speed 18.5 km/h Distance 1.77 km</desc>
<time>2011-05-22T06:57:07.18</time>
<name>426</name>
<sym>Dot</sym>
</trkpt>
<trkpt lat="40.088103" lon="-8.329392">
<ele>179.0</ele>
<desc>Speed 18.3 km/h Distance 1.78 km</desc>
<time>2011-05-22T06:57:08.16</time>
<name>427</name>
<sym>Dot</sym>
</trkpt>
<trkpt lat="40.088058" lon="-8.329382">
<ele>178.5</ele>
<desc>Speed 18.4 km/h Distance 1.78 km</desc>
<time>2011-05-22T06:57:09.16</time>
<name>428</name>
<sym>Dot</sym>
</trkpt>
<trkpt lat="40.088013" lon="-8.329372">
<ele>179.0</ele>
<desc>Speed 18.3 km/h Distance 1.79 km</desc>
<time>2011-05-22T06:57:10.17</time>
<name>429</name>
<sym>Dot</sym>
</trkpt>
<trkpt lat="40.087968" lon="-8.329362">
<ele>179.0</ele>
<desc>Speed 18.4 km/h Distance 1.79 km</desc>
<time>2011-05-22T06:57:11.16</time>
<name>430</name>
<sym>Dot</sym>
</trkpt>
<trkpt lat="40.087925" lon="-8.329353">
<ele>179.0</ele>
<desc>Speed 18.1 km/h Distance 1.80 km</desc>
<time>2011-05-22T06:57:12.16</time>
<name>431</name>
<sym>Dot</sym>
</trkpt>
<trkpt lat="40.087883" lon="-8.329347">
<ele>179.0</ele>
<desc>Speed 16.9 km/h Distance 1.80 km</desc>
<time>2011-05-22T06:57:13.16</time>
<name>432</name>
<sym>Dot</sym>
</trkpt>
<trkpt lat="40.087843" lon="-8.329338">
<ele>179.0</ele>
<desc>Speed 16.2 km/h Distance 1.81 km</desc>
<time>2011-05-22T06:57:14.15</time>
<name>433</name>
<sym>Dot</sym>
</trkpt>
<trkpt lat="40.087803" lon="-8.329330">
<ele>179.0</ele>
<desc>Speed 16.3 km/h Distance 1.81 km</desc>
<time>2011-05-22T06:57:15.15</time>
<name>434</name>
<sym>Dot</sym>
</trkpt>
<trkpt lat="40.087762" lon="-8.329322">
<ele>179.0</ele>
<desc>Speed 17.0 km/h Distance 1.82 km</desc>
<time>2011-05-22T06:57:16.14</time>
<name>435</name>
<sym>Dot</sym>
</trkpt>
<trkpt lat="40.087720" lon="-8.329313">
<ele>179.0</ele>
<desc>Speed 16.6 km/h Distance 1.82 km</desc>
<time>2011-05-22T06:57:17.14</time>
<name>436</name>
<sym>Dot</sym>
</trkpt>
<trkpt lat="40.087678" lon="-8.329303">
<ele>178.5</ele>
<desc>Speed 17.0 km/h Distance 1.82 km</desc>
<time>2011-05-22T06:57:18.14</time>
<name>437</name>
<sym>Dot</sym>
</trkpt>
<trkpt lat="40.087637" lon="-8.329295">
<ele>178.5</ele>
<desc>Speed 17.6 km/h Distance 1.83 km</desc>
<time>2011-05-22T06:57:19.14</time>
<name>438</name>
<sym>Dot</sym>
</trkpt>
<trkpt lat="40.087592" lon="-8.329285">
<ele>178.5</ele>
<desc>Speed 18.1 km/h Distance 1.83 km</desc>
<time>2011-05-22T06:57:20.13</time>
<name>439</name>
<sym>Dot</sym>
</trkpt>
<trkpt lat="40.087547" lon="-8.329277">
<ele>178.5</ele>
<desc>Speed 18.5 km/h Distance 1.84 km</desc>
<time>2011-05-22T06:57:21.13</time>
<name>440</name>
<sym>Dot</sym>
</trkpt>
<trkpt lat="40.087502" lon="-8.329268">
<ele>178.5</ele>
<desc>Speed 18.7 km/h Distance 1.84 km</desc>
<time>2011-05-22T06:57:22.13</time>
<name>441</name>
<sym>Dot</sym>
</trkpt>
<trkpt lat="40.087455" lon="-8.329258">
<ele>178.5</ele>
<desc>Speed 18.6 km/h Distance 1.85 km</desc>
<time>2011-05-22T06:57:23.12</time>
<name>442</name>
<sym>Dot</sym>
</trkpt>
<trkpt lat="40.087410" lon="-8.329248">
<ele>178.5</ele>
<desc>Speed 18.8 km/h Distance 1.85 km</desc>
<time>2011-05-22T06:57:24.11</time>
<name>443</name>
<sym>Dot</sym>
</trkpt>
<trkpt lat="40.087365" lon="-8.329238">
<ele>178.5</ele>
<desc>Speed 18.8 km/h Distance 1.86 km</desc>
<time>2011-05-22T06:57:25.11</time>
<name>444</name>
<sym>Dot</sym>
</trkpt>
<trkpt lat="40.087318" lon="-8.329230">
<ele>178.0</ele>
<desc>Speed 18.9 km/h Distance 1.87 km</desc>
<time>2011-05-22T06:57:26.10</time>
<name>445</name>
<sym>Dot</sym>
</trkpt>
<trkpt lat="40.087272" lon="-8.329223">
<ele>178.0</ele>
<desc>Speed 19.1 km/h Distance 1.87 km</desc>
<time>2011-05-22T06:57:27.10</time>
<name>446</name>
<sym>Dot</sym>
</trkpt>
<trkpt lat="40.087225" lon="-8.329215">
<ele>178.0</ele>
<desc>Speed 18.8 km/h Distance 1.88 km</desc>
<time>2011-05-22T06:57:28.10</time>
<name>447</name>
<sym>Dot</sym>
</trkpt>
<trkpt lat="40.087180" lon="-8.329205">
<ele>178.0</ele>
<desc>Speed 18.6 km/h Distance 1.88 km</desc>
<time>2011-05-22T06:57:29.09</time>
<name>448</name>
<sym>Dot</sym>
</trkpt>
<trkpt lat="40.087137" lon="-8.329195">
<ele>178.0</ele>
<desc>Speed 18.3 km/h Distance 1.89 km</desc>
<time>2011-05-22T06:57:30.10</time>
<name>449</name>
<sym>Dot</sym>
</trkpt>
<trkpt lat="40.087092" lon="-8.329187">
<ele>177.5</ele>
<desc>Speed 18.0 km/h Distance 1.89 km</desc>
<time>2011-05-22T06:57:31.10</time>
<name>450</name>
<sym>Dot</sym>
</trkpt>
<trkpt lat="40.087050" lon="-8.329175">
<ele>177.5</ele>
<desc>Speed 17.4 km/h Distance 1.90 km</desc>
<time>2011-05-22T06:57:32.08</time>
<name>451</name>
<sym>Dot</sym>
</trkpt>
<trkpt lat="40.087008" lon="-8.329165">
<ele>177.5</ele>
<desc>Speed 17.0 km/h Distance 1.90 km</desc>
<time>2011-05-22T06:57:33.07</time>
<name>452</name>
<sym>Dot</sym>
</trkpt>
<trkpt lat="40.086967" lon="-8.329157">
<ele>178.0</ele>
<desc>Speed 17.0 km/h Distance 1.90 km</desc>
<time>2011-05-22T06:57:34.07</time>
<name>453</name>
<sym>Dot</sym>
</trkpt>
<trkpt lat="40.086927" lon="-8.329145">
<ele>178.5</ele>
<desc>Speed 16.8 km/h Distance 1.91 km</desc>
<time>2011-05-22T06:57:35.07</time>
<name>454</name>
<sym>Dot</sym>
</trkpt>
<trkpt lat="40.086887" lon="-8.329133">
<ele>178.5</ele>
<desc>Speed 16.1 km/h Distance 1.91 km</desc>
<time>2011-05-22T06:57:36.07</time>
<name>455</name>
<sym>Dot</sym>
</trkpt>
<trkpt lat="40.086848" lon="-8.329122">
<ele>179.0</ele>
<desc>Speed 15.8 km/h Distance 1.92 km</desc>
<time>2011-05-22T06:57:37.06</time>
<name>456</name>
<sym>Dot</sym>
</trkpt>
<trkpt lat="40.086812" lon="-8.329110">
<ele>179.0</ele>
<desc>Speed 15.2 km/h Distance 1.92 km</desc>
<time>2011-05-22T06:57:38.05</time>
<name>457</name>
<sym>Dot</sym>
</trkpt>
<trkpt lat="40.086777" lon="-8.329098">
<ele>179.0</ele>
<desc>Speed 14.4 km/h Distance 1.93 km</desc>
<time>2011-05-22T06:57:39.05</time>
<name>458</name>
<sym>Dot</sym>
</trkpt>
<trkpt lat="40.086743" lon="-8.329085">
<ele>179.0</ele>
<desc>Speed 14.5 km/h Distance 1.93 km</desc>
<time>2011-05-22T06:57:40.04</time>
<name>459</name>
<sym>Dot</sym>
</trkpt>
<trkpt lat="40.086708" lon="-8.329072">
<ele>179.5</ele>
<desc>Speed 14.5 km/h Distance 1.93 km</desc>
<time>2011-05-22T06:57:41.04</time>
<name>460</name>
<sym>Dot</sym>
</trkpt>
<trkpt lat="40.086673" lon="-8.329060">
<ele>179.5</ele>
<desc>Speed 14.5 km/h Distance 1.94 km</desc>
<time>2011-05-22T06:57:42.04</time>
<name>461</name>
<sym>Dot</sym>
</trkpt>
<trkpt lat="40.086638" lon="-8.329048">
<ele>179.5</ele>
<desc>Speed 14.7 km/h Distance 1.94 km</desc>
<time>2011-05-22T06:57:43.04</time>
<name>462</name>
<sym>Dot</sym>
</trkpt>
<trkpt lat="40.086605" lon="-8.329037">
<ele>179.5</ele>
<desc>Speed 14.6 km/h Distance 1.95 km</desc>
<time>2011-05-22T06:57:44.03</time>
<name>463</name>
<sym>Dot</sym>
</trkpt>
<trkpt lat="40.086570" lon="-8.329023">
<ele>179.5</ele>
<desc>Speed 14.4 km/h Distance 1.95 km</desc>
<time>2011-05-22T06:57:45.03</time>
<name>464</name>
<sym>Dot</sym>
</trkpt>
<trkpt lat="40.086537" lon="-8.329010">
<ele>179.5</ele>
<desc>Speed 14.6 km/h Distance 1.95 km</desc>
<time>2011-05-22T06:57:46.02</time>
<name>465</name>
<sym>Dot</sym>
</trkpt>
<trkpt lat="40.086503" lon="-8.328995">
<ele>179.5</ele>
<desc>Speed 14.4 km/h Distance 1.96 km</desc>
<time>2011-05-22T06:57:47.01</time>
<name>466</name>
<sym>Dot</sym>
</trkpt>
<trkpt lat="40.086472" lon="-8.328982">
<ele>179.5</ele>
<desc>Speed 13.5 km/h Distance 1.96 km</desc>
<time>2011-05-22T06:57:48.00</time>
<name>467</name>
<sym>Dot</sym>
</trkpt>
<trkpt lat="40.086440" lon="-8.328970">
<ele>179.5</ele>
<desc>Speed 13.3 km/h Distance 1.97 km</desc>
<time>2011-05-22T06:57:49.00</time>
<name>468</name>
<sym>Dot</sym>
</trkpt>
<trkpt lat="40.086407" lon="-8.328960">
<ele>179.5</ele>
<desc>Speed 13.9 km/h Distance 1.97 km</desc>
<time>2011-05-22T06:57:50.00</time>
<name>469</name>
<sym>Dot</sym>
</trkpt>
<trkpt lat="40.086373" lon="-8.328950">
<ele>180.0</ele>
<desc>Speed 14.0 km/h Distance 1.97 km</desc>
<time>2011-05-22T06:57:51.00</time>
<name>470</name>
<sym>Dot</sym>
</trkpt>
<trkpt lat="40.086340" lon="-8.328940">
<ele>180.0</ele>
<desc>Speed 13.6 km/h Distance 1.98 km</desc>
<time>2011-05-22T06:57:51.99</time>
<name>471</name>
<sym>Dot</sym>
</trkpt>
<trkpt lat="40.086310" lon="-8.328927">
<ele>180.0</ele>
<desc>Speed 13.4 km/h Distance 1.98 km</desc>
<time>2011-05-22T06:57:52.98</time>
<name>472</name>
<sym>Dot</sym>
</trkpt>
<trkpt lat="40.086278" lon="-8.328910">
<ele>179.5</ele>
<desc>Speed 13.8 km/h Distance 1.98 km</desc>
<time>2011-05-22T06:57:53.97</time>
<name>473</name>
<sym>Dot</sym>
</trkpt>
<trkpt lat="40.086248" lon="-8.328898">
<ele>180.0</ele>
<desc>Speed 13.2 km/h Distance 1.99 km</desc>
<time>2011-05-22T06:57:54.97</time>
<name>474</name>
<sym>Dot</sym>
</trkpt>
<trkpt lat="40.086215" lon="-8.328890">
<ele>179.5</ele>
<desc>Speed 13.5 km/h Distance 1.99 km</desc>
<time>2011-05-22T06:57:55.96</time>
<name>475</name>
<sym>Dot</sym>
</trkpt>
<trkpt lat="40.086183" lon="-8.328880">
<ele>180.0</ele>
<desc>Speed 13.6 km/h Distance 2.00 km</desc>
<time>2011-05-22T06:57:56.97</time>
<name>476</name>
<sym>Dot</sym>
</trkpt>
<trkpt lat="40.086150" lon="-8.328870">
<ele>180.5</ele>
<desc>Speed 13.9 km/h Distance 2.00 km</desc>
<time>2011-05-22T06:57:57.96</time>
<name>477</name>
<sym>Dot</sym>
</trkpt>
<trkpt lat="40.086117" lon="-8.328860">
<ele>180.5</ele>
<desc>Speed 14.0 km/h Distance 2.00 km</desc>
<time>2011-05-22T06:57:58.95</time>
<name>478</name>
<sym>Dot</sym>
</trkpt>
<trkpt lat="40.086085" lon="-8.328850">
<ele>181.0</ele>
<desc>Speed 13.6 km/h Distance 2.01 km</desc>
<time>2011-05-22T06:57:59.96</time>
<name>479</name>
<sym>Dot</sym>
</trkpt>
<trkpt lat="40.086052" lon="-8.328838">
<ele>181.5</ele>
<desc>Speed 13.8 km/h Distance 2.01 km</desc>
<time>2011-05-22T06:58:00.95</time>
<name>480</name>
<sym>Dot</sym>
</trkpt>
<trkpt lat="40.086022" lon="-8.328827">
<ele>181.5</ele>
<desc>Speed 12.7 km/h Distance 2.01 km</desc>
<time>2011-05-22T06:58:01.96</time>
<name>481</name>
<sym>Dot</sym>
</trkpt>
<trkpt lat="40.085988" lon="-8.328817">
<ele>181.5</ele>
<desc>Speed 13.4 km/h Distance 2.02 km</desc>
<time>2011-05-22T06:58:02.95</time>
<name>482</name>
<sym>Dot</sym>
</trkpt>
<trkpt lat="40.085957" lon="-8.328807">
<ele>182.0</ele>
<desc>Speed 13.2 km/h Distance 2.02 km</desc>
<time>2011-05-22T06:58:03.95</time>
<name>483</name>
<sym>Dot</sym>
</trkpt>
<trkpt lat="40.085923" lon="-8.328798">
<ele>182.5</ele>
<desc>Speed 13.5 km/h Distance 2.03 km</desc>
<time>2011-05-22T06:58:04.93</time>
<name>484</name>
<sym>Dot</sym>
</trkpt>
<trkpt lat="40.085892" lon="-8.328787">
<ele>183.0</ele>
<desc>Speed 13.4 km/h Distance 2.03 km</desc>
<time>2011-05-22T06:58:05.93</time>
<name>485</name>
<sym>Dot</sym>
</trkpt>
<trkpt lat="40.085858" lon="-8.328775">
<ele>183.0</ele>
<desc>Speed 13.8 km/h Distance 2.03 km</desc>
<time>2011-05-22T06:58:06.94</time>
<name>486</name>
<sym>Dot</sym>
</trkpt>
<trkpt lat="40.085827" lon="-8.328765">
<ele>183.5</ele>
<desc>Speed 13.5 km/h Distance 2.04 km</desc>
<time>2011-05-22T06:58:07.94</time>
<name>487</name>
<sym>Dot</sym>
</trkpt>
<trkpt lat="40.085793" lon="-8.328752">
<ele>183.5</ele>
<desc>Speed 13.7 km/h Distance 2.04 km</desc>
<time>2011-05-22T06:58:08.93</time>
<name>488</name>
<sym>Dot</sym>
</trkpt>
<trkpt lat="40.085762" lon="-8.328738">
<ele>183.0</ele>
<desc>Speed 13.7 km/h Distance 2.04 km</desc>
<time>2011-05-22T06:58:09.93</time>
<name>489</name>
<sym>Dot</sym>
</trkpt>
<trkpt lat="40.085728" lon="-8.328727">
<ele>183.0</ele>
<desc>Speed 13.5 km/h Distance 2.05 km</desc>
<time>2011-05-22T06:58:10.92</time>
<name>490</name>
<sym>Dot</sym>
</trkpt>
<trkpt lat="40.085698" lon="-8.328717">
<ele>183.5</ele>
<desc>Speed 13.0 km/h Distance 2.05 km</desc>
<time>2011-05-22T06:58:11.92</time>
<name>491</name>
<sym>Dot</sym>
</trkpt>
<trkpt lat="40.085668" lon="-8.328707">
<ele>184.0</ele>
<desc>Speed 12.5 km/h Distance 2.05 km</desc>
<time>2011-05-22T06:58:12.92</time>
<name>492</name>
<sym>Dot</sym>
</trkpt>
<trkpt lat="40.085640" lon="-8.328703">
<ele>185.0</ele>
<desc>Speed 11.1 km/h Distance 2.06 km</desc>
<time>2011-05-22T06:58:13.92</time>
<name>493</name>
<sym>Dot</sym>
</trkpt>
<trkpt lat="40.085613" lon="-8.328698">
<ele>185.0</ele>
<desc>Speed 10.7 km/h Distance 2.06 km</desc>
<time>2011-05-22T06:58:14.92</time>
<name>494</name>
<sym>Dot</sym>
</trkpt>
<trkpt lat="40.085587" lon="-8.328693">
<ele>186.5</ele>
<desc>Speed 11.0 km/h Distance 2.06 km</desc>
<time>2011-05-22T06:58:15.91</time>
<name>495</name>
<sym>Dot</sym>
</trkpt>
<trkpt lat="40.085558" lon="-8.328688">
<ele>189.5</ele>
<desc>Speed 11.1 km/h Distance 2.07 km</desc>
<time>2011-05-22T06:58:16.91</time>
<name>496</name>
<sym>Dot</sym>
</trkpt>
<trkpt lat="40.085528" lon="-8.328677">
<ele>191.5</ele>
<desc>Speed 12.7 km/h Distance 2.07 km</desc>
<time>2011-05-22T06:58:17.91</time>
<name>497</name>
<sym>Dot</sym>
</trkpt>
<trkpt lat="40.085498" lon="-8.328663">
<ele>193.5</ele>
<desc>Speed 12.2 km/h Distance 2.07 km</desc>
<time>2011-05-22T06:58:18.90</time>
<name>498</name>
<sym>Dot</sym>
</trkpt>
<trkpt lat="40.085467" lon="-8.328652">
<ele>196.0</ele>
<desc>Speed 12.7 km/h Distance 2.08 km</desc>
<time>2011-05-22T06:58:19.90</time>
<name>499</name>
<sym>Dot</sym>
</trkpt>
<trkpt lat="40.085438" lon="-8.328643">
<ele>196.5</ele>
<desc>Speed 11.7 km/h Distance 2.08 km</desc>
<time>2011-05-22T06:58:20.89</time>
<name>500</name>
<sym>Dot</sym>
</trkpt>
<trkpt lat="40.085407" lon="-8.328630">
<ele>196.5</ele>
<desc>Speed 13.0 km/h Distance 2.08 km</desc>
<time>2011-05-22T06:58:21.90</time>
<name>501</name>
<sym>Dot</sym>
</trkpt>
<trkpt lat="40.085382" lon="-8.328612">
<ele>195.5</ele>
<desc>Speed 11.2 km/h Distance 2.09 km</desc>
<time>2011-05-22T06:58:22.90</time>
<name>502</name>
<sym>Dot</sym>
</trkpt>
<trkpt lat="40.085348" lon="-8.328597">
<ele>195.0</ele>
<desc>Speed 13.6 km/h Distance 2.09 km</desc>
<time>2011-05-22T06:58:23.90</time>
<name>503</name>
<sym>Dot</sym>
</trkpt>
<trkpt lat="40.085317" lon="-8.328587">
<ele>195.5</ele>
<desc>Speed 12.9 km/h Distance 2.10 km</desc>
<time>2011-05-22T06:58:24.89</time>
<name>504</name>
<sym>Dot</sym>
</trkpt>
<trkpt lat="40.085298" lon="-8.328597">
<ele>196.0</ele>
<desc>Speed 7.7 km/h Distance 2.10 km</desc>
<time>2011-05-22T06:58:25.88</time>
<name>505</name>
<sym>Dot</sym>
</trkpt>
<trkpt lat="40.085262" lon="-8.328597">
<ele>197.0</ele>
<desc>Speed 14.0 km/h Distance 2.10 km</desc>
<time>2011-05-22T06:58:26.87</time>
<name>506</name>
<sym>Dot</sym>
</trkpt>
<trkpt lat="40.085227" lon="-8.328585">
<ele>198.0</ele>
<desc>Speed 14.3 km/h Distance 2.11 km</desc>
<time>2011-05-22T06:58:27.87</time>
<name>507</name>
<sym>Dot</sym>
</trkpt>
<trkpt lat="40.085195" lon="-8.328572">
<ele>199.5</ele>
<desc>Speed 12.6 km/h Distance 2.11 km</desc>
<time>2011-05-22T06:58:28.86</time>
<name>508</name>
<sym>Dot</sym>
</trkpt>
<trkpt lat="40.085163" lon="-8.328558">
<ele>200.0</ele>
<desc>Speed 12.7 km/h Distance 2.11 km</desc>
<time>2011-05-22T06:58:29.86</time>
<name>509</name>
<sym>Dot</sym>
</trkpt>
<trkpt lat="40.085133" lon="-8.328547">
<ele>200.0</ele>
<desc>Speed 12.2 km/h Distance 2.12 km</desc>
<time>2011-05-22T06:58:30.86</time>
<name>510</name>
<sym>Dot</sym>
</trkpt>
<trkpt lat="40.085105" lon="-8.328533">
<ele>199.5</ele>
<desc>Speed 12.0 km/h Distance 2.12 km</desc>
<time>2011-05-22T06:58:31.87</time>
<name>511</name>
<sym>Dot</sym>
</trkpt>
<trkpt lat="40.085077" lon="-8.328522">
<ele>199.5</ele>
<desc>Speed 12.0 km/h Distance 2.12 km</desc>
<time>2011-05-22T06:58:32.85</time>
<name>512</name>
<sym>Dot</sym>
</trkpt>
<trkpt lat="40.085047" lon="-8.328508">
<ele>200.0</ele>
<desc>Speed 11.7 km/h Distance 2.13 km</desc>
<time>2011-05-22T06:58:33.85</time>
<name>513</name>
<sym>Dot</sym>
</trkpt>
<trkpt lat="40.085020" lon="-8.328497">
<ele>200.0</ele>
<desc>Speed 11.4 km/h Distance 2.13 km</desc>
<time>2011-05-22T06:58:34.84</time>
<name>514</name>
<sym>Dot</sym>
</trkpt>
<trkpt lat="40.084990" lon="-8.328485">
<ele>199.5</ele>
<desc>Speed 11.8 km/h Distance 2.13 km</desc>
<time>2011-05-22T06:58:35.84</time>
<name>515</name>
<sym>Dot</sym>
</trkpt>
<trkpt lat="40.084963" lon="-8.328473">
<ele>199.0</ele>
<desc>Speed 11.8 km/h Distance 2.14 km</desc>
<time>2011-05-22T06:58:36.83</time>
<name>516</name>
<sym>Dot</sym>
</trkpt>
<trkpt lat="40.084935" lon="-8.328460">
<ele>199.0</ele>
<desc>Speed 11.7 km/h Distance 2.14 km</desc>
<time>2011-05-22T06:58:37.83</time>
<name>517</name>
<sym>Dot</sym>
</trkpt>
<trkpt lat="40.084905" lon="-8.328448">
<ele>198.5</ele>
<desc>Speed 11.7 km/h Distance 2.14 km</desc>
<time>2011-05-22T06:58:38.84</time>
<name>518</name>
<sym>Dot</sym>
</trkpt>
<trkpt lat="40.084875" lon="-8.328438">
<ele>198.5</ele>
<desc>Speed 12.0 km/h Distance 2.15 km</desc>
<time>2011-05-22T06:58:39.83</time>
<name>519</name>
<sym>Dot</sym>
</trkpt>
<trkpt lat="40.084845" lon="-8.328427">
<ele>198.5</ele>
<desc>Speed 12.3 km/h Distance 2.15 km</desc>
<time>2011-05-22T06:58:40.82</time>
<name>520</name>
<sym>Dot</sym>
</trkpt>
<trkpt lat="40.084815" lon="-8.328413">
<ele>198.0</ele>
<desc>Speed 12.7 km/h Distance 2.15 km</desc>
<time>2011-05-22T06:58:41.82</time>
<name>521</name>
<sym>Dot</sym>
</trkpt>
<trkpt lat="40.084785" lon="-8.328400">
<ele>197.5</ele>
<desc>Speed 12.7 km/h Distance 2.16 km</desc>
<time>2011-05-22T06:58:42.82</time>
<name>522</name>
<sym>Dot</sym>
</trkpt>
<trkpt lat="40.084753" lon="-8.328388">
<ele>197.0</ele>
<desc>Speed 12.6 km/h Distance 2.16 km</desc>
<time>2011-05-22T06:58:43.82</time>
<name>523</name>
<sym>Dot</sym>
</trkpt>
<trkpt lat="40.084722" lon="-8.328378">
<ele>196.0</ele>
<desc>Speed 13.1 km/h Distance 2.16 km</desc>
<time>2011-05-22T06:58:44.82</time>
<name>524</name>
<sym>Dot</sym>
</trkpt>
<trkpt lat="40.084690" lon="-8.328367">
<ele>195.5</ele>
<desc>Speed 13.8 km/h Distance 2.17 km</desc>
<time>2011-05-22T06:58:45.81</time>
<name>525</name>
<sym>Dot</sym>
</trkpt>
<trkpt lat="40.084657" lon="-8.328352">
<ele>194.5</ele>
<desc>Speed 14.0 km/h Distance 2.17 km</desc>
<time>2011-05-22T06:58:46.81</time>
<name>526</name>
<sym>Dot</sym>
</trkpt>
<trkpt lat="40.084622" lon="-8.328335">
<ele>194.5</ele>
<desc>Speed 14.5 km/h Distance 2.18 km</desc>
<time>2011-05-22T06:58:47.81</time>
<name>527</name>
<sym>Dot</sym>
</trkpt>
<trkpt lat="40.084587" lon="-8.328322">
<ele>194.0</ele>
<desc>Speed 14.6 km/h Distance 2.18 km</desc>
<time>2011-05-22T06:58:48.81</time>
<name>528</name>
<sym>Dot</sym>
</trkpt>
<trkpt lat="40.084550" lon="-8.328312">
<ele>194.0</ele>
<desc>Speed 14.7 km/h Distance 2.18 km</desc>
<time>2011-05-22T06:58:49.81</time>
<name>529</name>
<sym>Dot</sym>
</trkpt>
<trkpt lat="40.084517" lon="-8.328297">
<ele>193.5</ele>
<desc>Speed 14.8 km/h Distance 2.19 km</desc>
<time>2011-05-22T06:58:50.80</time>
<name>530</name>
<sym>Dot</sym>
</trkpt>
<trkpt lat="40.084478" lon="-8.328283">
<ele>193.5</ele>
<desc>Speed 15.6 km/h Distance 2.19 km</desc>
<time>2011-05-22T06:58:51.81</time>
<name>531</name>
<sym>Dot</sym>
</trkpt>
<trkpt lat="40.084445" lon="-8.328272">
<ele>193.0</ele>
<desc>Speed 14.4 km/h Distance 2.20 km</desc>
<time>2011-05-22T06:58:52.79</time>
<name>532</name>
<sym>Dot</sym>
</trkpt>
<trkpt lat="40.084410" lon="-8.328255">
<ele>193.0</ele>
<desc>Speed 14.3 km/h Distance 2.20 km</desc>
<time>2011-05-22T06:58:53.79</time>
<name>533</name>
<sym>Dot</sym>
</trkpt>
<trkpt lat="40.084375" lon="-8.328243">
<ele>192.5</ele>
<desc>Speed 14.9 km/h Distance 2.20 km</desc>
<time>2011-05-22T06:58:54.79</time>
<name>534</name>
<sym>Dot</sym>
</trkpt>
<trkpt lat="40.084342" lon="-8.328228">
<ele>192.0</ele>
<desc>Speed 14.9 km/h Distance 2.21 km</desc>
<time>2011-05-22T06:58:55.79</time>
<name>535</name>
<sym>Dot</sym>
</trkpt>
<trkpt lat="40.084305" lon="-8.328213">
<ele>191.5</ele>
<desc>Speed 15.2 km/h Distance 2.21 km</desc>
<time>2011-05-22T06:58:56.78</time>
<name>536</name>
<sym>Dot</sym>
</trkpt>
<trkpt lat="40.084268" lon="-8.328200">
<ele>191.0</ele>
<desc>Speed 15.3 km/h Distance 2.22 km</desc>
<time>2011-05-22T06:58:57.77</time>
<name>537</name>
<sym>Dot</sym>
</trkpt>
<trkpt lat="40.084232" lon="-8.328187">
<ele>190.5</ele>
<desc>Speed 15.1 km/h Distance 2.22 km</desc>
<time>2011-05-22T06:58:58.77</time>
<name>538</name>
<sym>Dot</sym>
</trkpt>
<trkpt lat="40.084195" lon="-8.328175">
<ele>190.5</ele>
<desc>Speed 15.3 km/h Distance 2.23 km</desc>
<time>2011-05-22T06:58:59.77</time>
<name>539</name>
<sym>Dot</sym>
</trkpt>
<trkpt lat="40.084157" lon="-8.328162">
<ele>190.5</ele>
<desc>Speed 15.6 km/h Distance 2.23 km</desc>
<time>2011-05-22T06:59:00.77</time>
<name>540</name>
<sym>Dot</sym>
</trkpt>
<trkpt lat="40.084117" lon="-8.328147">
<ele>190.5</ele>
<desc>Speed 16.5 km/h Distance 2.23 km</desc>
<time>2011-05-22T06:59:01.76</time>
<name>541</name>
<sym>Dot</sym>
</trkpt>
<trkpt lat="40.084077" lon="-8.328130">
<ele>190.0</ele>
<desc>Speed 16.3 km/h Distance 2.24 km</desc>
<time>2011-05-22T06:59:02.76</time>
<name>542</name>
<sym>Dot</sym>
</trkpt>
<trkpt lat="40.084037" lon="-8.328117">
<ele>189.5</ele>
<desc>Speed 16.4 km/h Distance 2.24 km</desc>
<time>2011-05-22T06:59:03.75</time>
<name>543</name>
<sym>Dot</sym>
</trkpt>
<trkpt lat="40.083997" lon="-8.328100">
<ele>189.0</ele>
<desc>Speed 16.2 km/h Distance 2.25 km</desc>
<time>2011-05-22T06:59:04.74</time>
<name>544</name>
<sym>Dot</sym>
</trkpt>
<trkpt lat="40.083957" lon="-8.328082">
<ele>188.5</ele>
<desc>Speed 16.2 km/h Distance 2.25 km</desc>
<time>2011-05-22T06:59:05.74</time>
<name>545</name>
<sym>Dot</sym>
</trkpt>
<trkpt lat="40.083917" lon="-8.328065">
<ele>188.0</ele>
<desc>Speed 16.3 km/h Distance 2.26 km</desc>
<time>2011-05-22T06:59:06.74</time>
<name>546</name>
<sym>Dot</sym>
</trkpt>
<trkpt lat="40.083877" lon="-8.328047">
<ele>188.0</ele>
<desc>Speed 16.6 km/h Distance 2.26 km</desc>
<time>2011-05-22T06:59:07.73</time>
<name>547</name>
<sym>Dot</sym>
</trkpt>
<trkpt lat="40.083837" lon="-8.328032">
<ele>187.5</ele>
<desc>Speed 16.9 km/h Distance 2.27 km</desc>
<time>2011-05-22T06:59:08.73</time>
<name>548</name>
<sym>Dot</sym>
</trkpt>
<trkpt lat="40.083793" lon="-8.328015">
<ele>187.5</ele>
<desc>Speed 17.1 km/h Distance 2.27 km</desc>
<time>2011-05-22T06:59:09.72</time>
<name>549</name>
<sym>Dot</sym>
</trkpt>
<trkpt lat="40.083752" lon="-8.328000">
<ele>187.0</ele>
<desc>Speed 17.6 km/h Distance 2.28 km</desc>
<time>2011-05-22T06:59:10.73</time>
<name>550</name>
<sym>Dot</sym>
</trkpt>
<trkpt lat="40.083708" lon="-8.327983">
<ele>187.0</ele>
<desc>Speed 17.9 km/h Distance 2.28 km</desc>
<time>2011-05-22T06:59:11.71</time>
<name>551</name>
<sym>Dot</sym>
</trkpt>
<trkpt lat="40.083665" lon="-8.327965">
<ele>186.5</ele>
<desc>Speed 18.4 km/h Distance 2.29 km</desc>
<time>2011-05-22T06:59:12.71</time>
<name>552</name>
<sym>Dot</sym>
</trkpt>
<trkpt lat="40.083620" lon="-8.327948">
<ele>186.5</ele>
<desc>Speed 18.9 km/h Distance 2.29 km</desc>
<time>2011-05-22T06:59:13.70</time>
<name>553</name>
<sym>Dot</sym>
</trkpt>
<trkpt lat="40.083573" lon="-8.327932">
<ele>186.5</ele>
<desc>Speed 19.2 km/h Distance 2.30 km</desc>
<time>2011-05-22T06:59:14.71</time>
<name>554</name>
<sym>Dot</sym>
</trkpt>
<trkpt lat="40.083525" lon="-8.327915">
<ele>186.5</ele>
<desc>Speed 19.8 km/h Distance 2.30 km</desc>
<time>2011-05-22T06:59:15.70</time>
<name>555</name>
<sym>Dot</sym>
</trkpt>
<trkpt lat="40.083477" lon="-8.327895">
<ele>186.0</ele>
<desc>Speed 20.8 km/h Distance 2.31 km</desc>
<time>2011-05-22T06:59:16.70</time>
<name>556</name>
<sym>Dot</sym>
</trkpt>
<trkpt lat="40.083428" lon="-8.327878">
<ele>186.0</ele>
<desc>Speed 20.3 km/h Distance 2.31 km</desc>
<time>2011-05-22T06:59:17.68</time>
<name>557</name>
<sym>Dot</sym>
</trkpt>
<trkpt lat="40.083380" lon="-8.327857">
<ele>186.0</ele>
<desc>Speed 21.1 km/h Distance 2.32 km</desc>
<time>2011-05-22T06:59:18.68</time>
<name>558</name>
<sym>Dot</sym>
</trkpt>
<trkpt lat="40.083328" lon="-8.327835">
<ele>185.5</ele>
<desc>Speed 21.9 km/h Distance 2.33 km</desc>
<time>2011-05-22T06:59:19.67</time>
<name>559</name>
<sym>Dot</sym>
</trkpt>
<trkpt lat="40.083275" lon="-8.327813">
<ele>185.5</ele>
<desc>Speed 22.7 km/h Distance 2.33 km</desc>
<time>2011-05-22T06:59:20.67</time>
<name>560</name>
<sym>Dot</sym>
</trkpt>
<trkpt lat="40.083218" lon="-8.327795">
<ele>185.0</ele>
<desc>Speed 23.5 km/h Distance 2.34 km</desc>
<time>2011-05-22T06:59:21.66</time>
<name>561</name>
<sym>Dot</sym>
</trkpt>
<trkpt lat="40.083160" lon="-8.327780">
<ele>185.0</ele>
<desc>Speed 23.7 km/h Distance 2.35 km</desc>
<time>2011-05-22T06:59:22.66</time>
<name>562</name>
<sym>Dot</sym>
</trkpt>
<trkpt lat="40.083102" lon="-8.327770">
<ele>185.0</ele>
<desc>Speed 23.6 km/h Distance 2.35 km</desc>
<time>2011-05-22T06:59:23.66</time>
<name>563</name>
<sym>Dot</sym>
</trkpt>
<trkpt lat="40.083043" lon="-8.327758">
<ele>185.0</ele>
<desc>Speed 24.3 km/h Distance 2.36 km</desc>
<time>2011-05-22T06:59:24.65</time>
<name>564</name>
<sym>Dot</sym>
</trkpt>
<trkpt lat="40.082983" lon="-8.327750">
<ele>185.0</ele>
<desc>Speed 24.6 km/h Distance 2.37 km</desc>
<time>2011-05-22T06:59:25.64</time>
<name>565</name>
<sym>Dot</sym>
</trkpt>
<trkpt lat="40.082923" lon="-8.327748">
<ele>185.0</ele>
<desc>Speed 24.3 km/h Distance 2.37 km</desc>
<time>2011-05-22T06:59:26.64</time>
<name>566</name>
<sym>Dot</sym>
</trkpt>
<trkpt lat="40.082863" lon="-8.327750">
<ele>184.5</ele>
<desc>Speed 24.3 km/h Distance 2.38 km</desc>
<time>2011-05-22T06:59:27.64</time>
<name>567</name>
<sym>Dot</sym>
</trkpt>
<trkpt lat="40.082802" lon="-8.327752">
<ele>184.0</ele>
<desc>Speed 24.5 km/h Distance 2.39 km</desc>
<time>2011-05-22T06:59:28.63</time>
<name>568</name>
<sym>Dot</sym>
</trkpt>
<trkpt lat="40.082742" lon="-8.327757">
<ele>183.5</ele>
<desc>Speed 24.2 km/h Distance 2.39 km</desc>
<time>2011-05-22T06:59:29.63</time>
<name>569</name>
<sym>Dot</sym>
</trkpt>
<trkpt lat="40.082682" lon="-8.327762">
<ele>183.0</ele>
<desc>Speed 24.2 km/h Distance 2.40 km</desc>
<time>2011-05-22T06:59:30.63</time>
<name>570</name>
<sym>Dot</sym>
</trkpt>
<trkpt lat="40.082622" lon="-8.327768">
<ele>182.5</ele>
<desc>Speed 24.0 km/h Distance 2.41 km</desc>
<time>2011-05-22T06:59:31.62</time>
<name>571</name>
<sym>Dot</sym>
</trkpt>
<trkpt lat="40.082562" lon="-8.327775">
<ele>182.5</ele>
<desc>Speed 24.2 km/h Distance 2.41 km</desc>
<time>2011-05-22T06:59:32.61</time>
<name>572</name>
<sym>Dot</sym>
</trkpt>
<trkpt lat="40.082502" lon="-8.327780">
<ele>182.5</ele>
<desc>Speed 24.1 km/h Distance 2.42 km</desc>
<time>2011-05-22T06:59:33.61</time>
<name>573</name>
<sym>Dot</sym>
</trkpt>
<trkpt lat="40.082440" lon="-8.327788">
<ele>182.5</ele>
<desc>Speed 24.4 km/h Distance 2.43 km</desc>
<time>2011-05-22T06:59:34.61</time>
<name>574</name>
<sym>Dot</sym>
</trkpt>
<trkpt lat="40.082378" lon="-8.327798">
<ele>183.0</ele>
<desc>Speed 24.6 km/h Distance 2.43 km</desc>
<time>2011-05-22T06:59:35.61</time>
<name>575</name>
<sym>Dot</sym>
</trkpt>
<trkpt lat="40.082318" lon="-8.327812">
<ele>183.0</ele>
<desc>Speed 24.8 km/h Distance 2.44 km</desc>
<time>2011-05-22T06:59:36.62</time>
<name>576</name>
<sym>Dot</sym>
</trkpt>
<trkpt lat="40.082257" lon="-8.327827">
<ele>183.0</ele>
<desc>Speed 24.8 km/h Distance 2.45 km</desc>
<time>2011-05-22T06:59:37.61</time>
<name>577</name>
<sym>Dot</sym>
</trkpt>
<trkpt lat="40.082197" lon="-8.327845">
<ele>183.5</ele>
<desc>Speed 24.9 km/h Distance 2.45 km</desc>
<time>2011-05-22T06:59:38.60</time>
<name>578</name>
<sym>Dot</sym>
</trkpt>
<trkpt lat="40.082138" lon="-8.327875">
<ele>184.0</ele>
<desc>Speed 24.7 km/h Distance 2.46 km</desc>
<time>2011-05-22T06:59:39.59</time>
<name>579</name>
<sym>Dot</sym>
</trkpt>
<trkpt lat="40.082087" lon="-8.327922">
<ele>183.5</ele>
<desc>Speed 25.5 km/h Distance 2.47 km</desc>
<time>2011-05-22T06:59:40.59</time>
<name>580</name>
<sym>Dot</sym>
</trkpt>
<trkpt lat="40.082045" lon="-8.327983">
<ele>183.5</ele>
<desc>Speed 25.2 km/h Distance 2.47 km</desc>
<time>2011-05-22T06:59:41.58</time>
<name>581</name>
<sym>Dot</sym>
</trkpt>
<trkpt lat="40.082013" lon="-8.328053">
<ele>183.5</ele>
<desc>Speed 24.6 km/h Distance 2.48 km</desc>
<time>2011-05-22T06:59:42.57</time>
<name>582</name>
<sym>Dot</sym>
</trkpt>
<trkpt lat="40.081990" lon="-8.328127">
<ele>183.0</ele>
<desc>Speed 24.3 km/h Distance 2.49 km</desc>
<time>2011-05-22T06:59:43.57</time>
<name>583</name>
<sym>Dot</sym>
</trkpt>
<trkpt lat="40.081965" lon="-8.328200">
<ele>183.0</ele>
<desc>Speed 24.5 km/h Distance 2.50 km</desc>
<time>2011-05-22T06:59:44.57</time>
<name>584</name>
<sym>Dot</sym>
</trkpt>
<trkpt lat="40.081927" lon="-8.328262">
<ele>183.0</ele>
<desc>Speed 24.7 km/h Distance 2.50 km</desc>
<time>2011-05-22T06:59:45.56</time>
<name>585</name>
<sym>Dot</sym>
</trkpt>
<trkpt lat="40.081867" lon="-8.328302">
<ele>181.5</ele>
<desc>Speed 27.2 km/h Distance 2.51 km</desc>
<time>2011-05-22T06:59:46.56</time>
<name>586</name>
<sym>Dot</sym>
</trkpt>
<trkpt lat="40.081807" lon="-8.328310">
<ele>180.0</ele>
<desc>Speed 24.2 km/h Distance 2.52 km</desc>
<time>2011-05-22T06:59:47.56</time>
<name>587</name>
<sym>Dot</sym>
</trkpt>
<trkpt lat="40.081738" lon="-8.328282">
<ele>178.5</ele>
<desc>Speed 28.7 km/h Distance 2.52 km</desc>
<time>2011-05-22T06:59:48.57</time>
<name>588</name>
<sym>Dot</sym>
</trkpt>
<trkpt lat="40.081682" lon="-8.328250">
<ele>178.0</ele>
<desc>Speed 25.6 km/h Distance 2.53 km</desc>
<time>2011-05-22T06:59:49.55</time>
<name>589</name>
<sym>Dot</sym>
</trkpt>
<trkpt lat="40.081630" lon="-8.328205">
<ele>178.0</ele>
<desc>Speed 25.2 km/h Distance 2.54 km</desc>
<time>2011-05-22T06:59:50.55</time>
<name>590</name>
<sym>Dot</sym>
</trkpt>
<trkpt lat="40.081583" lon="-8.328153">
<ele>177.5</ele>
<desc>Speed 24.8 km/h Distance 2.54 km</desc>
<time>2011-05-22T06:59:51.54</time>
<name>591</name>
<sym>Dot</sym>
</trkpt>
<trkpt lat="40.081540" lon="-8.328103">
<ele>177.5</ele>
<desc>Speed 24.1 km/h Distance 2.55 km</desc>
<time>2011-05-22T06:59:52.54</time>
<name>592</name>
<sym>Dot</sym>
</trkpt>
<trkpt lat="40.081493" lon="-8.328060">
<ele>177.5</ele>
<desc>Speed 23.4 km/h Distance 2.56 km</desc>
<time>2011-05-22T06:59:53.54</time>
<name>593</name>
<sym>Dot</sym>
</trkpt>
<trkpt lat="40.081443" lon="-8.328025">
<ele>177.5</ele>
<desc>Speed 23.1 km/h Distance 2.56 km</desc>
<time>2011-05-22T06:59:54.53</time>
<name>594</name>
<sym>Dot</sym>
</trkpt>
<trkpt lat="40.081392" lon="-8.327998">
<ele>177.0</ele>
<desc>Speed 22.5 km/h Distance 2.57 km</desc>
<time>2011-05-22T06:59:55.53</time>
<name>595</name>
<sym>Dot</sym>
</trkpt>
<trkpt lat="40.081340" lon="-8.327985">
<ele>177.0</ele>
<desc>Speed 21.7 km/h Distance 2.58 km</desc>
<time>2011-05-22T06:59:56.52</time>
<name>596</name>
<sym>Dot</sym>
</trkpt>
<trkpt lat="40.081295" lon="-8.327985">
<ele>177.0</ele>
<desc>Speed 18.2 km/h Distance 2.58 km</desc>
<time>2011-05-22T06:59:57.52</time>
<name>597</name>
<sym>Dot</sym>
</trkpt>
<trkpt lat="40.081253" lon="-8.327992">
<ele>177.0</ele>
<desc>Speed 16.9 km/h Distance 2.59 km</desc>
<time>2011-05-22T06:59:58.52</time>
<name>598</name>
<sym>Dot</sym>
</trkpt>
<trkpt lat="40.081215" lon="-8.327998">
<ele>177.0</ele>
<desc>Speed 16.1 km/h Distance 2.59 km</desc>
<time>2011-05-22T06:59:59.51</time>
<name>599</name>
<sym>Dot</sym>
</trkpt>
<trkpt lat="40.081185" lon="-8.328010">
<ele>177.0</ele>
<desc>Speed 12.7 km/h Distance 2.59 km</desc>
<time>2011-05-22T07:00:00.51</time>
<name>600</name>
<sym>Dot</sym>
</trkpt>
<trkpt lat="40.081165" lon="-8.328023">
<ele>177.0</ele>
<desc>Speed 8.9 km/h Distance 2.60 km</desc>
<time>2011-05-22T07:00:01.51</time>
<name>601</name>
<sym>Dot</sym>
</trkpt>
<trkpt lat="40.081153" lon="-8.328032">
<ele>176.5</ele>
<desc>Speed 5.4 km/h Distance 2.60 km</desc>
<time>2011-05-22T07:00:02.50</time>
<name>602</name>
<sym>Dot</sym>
</trkpt>
<trkpt lat="40.081148" lon="-8.328028">
<ele>176.5</ele>
<desc>Speed 2.3 km/h Distance 2.60 km</desc>
<time>2011-05-22T07:00:03.50</time>
<name>603</name>
<sym>Dot</sym>
</trkpt>
<trkpt lat="40.081148" lon="-8.328038">
<ele>175.5</ele>
<desc>Speed 1.1 km/h Distance 2.60 km</desc>
<time>2011-05-22T07:00:42.49</time>
<name>604</name>
<sym>Dot</sym>
</trkpt>
<trkpt lat="40.081145" lon="-8.328038">
<ele>175.0</ele>
<desc>Speed 1.4 km/h Distance 2.60 km</desc>
<time>2011-05-22T07:00:43.49</time>
<name>605</name>
<sym>Dot</sym>
</trkpt>
<trkpt lat="40.081140" lon="-8.328042">
<ele>175.0</ele>
<desc>Speed 2.4 km/h Distance 2.60 km</desc>
<time>2011-05-22T07:00:44.49</time>
<name>606</name>
<sym>Dot</sym>
</trkpt>
<trkpt lat="40.081132" lon="-8.328048">
<ele>175.5</ele>
<desc>Speed 4.2 km/h Distance 2.60 km</desc>
<time>2011-05-22T07:00:45.48</time>
<name>607</name>
<sym>Dot</sym>
</trkpt>
<trkpt lat="40.081117" lon="-8.328053">
<ele>175.5</ele>
<desc>Speed 6.3 km/h Distance 2.60 km</desc>
<time>2011-05-22T07:00:46.47</time>
<name>608</name>
<sym>Dot</sym>
</trkpt>
<trkpt lat="40.081097" lon="-8.328057">
<ele>176.0</ele>
<desc>Speed 7.9 km/h Distance 2.60 km</desc>
<time>2011-05-22T07:00:47.47</time>
<name>609</name>
<sym>Dot</sym>
</trkpt>
<trkpt lat="40.081077" lon="-8.328067">
<ele>176.0</ele>
<desc>Speed 8.9 km/h Distance 2.61 km</desc>
<time>2011-05-22T07:00:48.46</time>
<name>610</name>
<sym>Dot</sym>
</trkpt>
<trkpt lat="40.081055" lon="-8.328082">
<ele>176.0</ele>
<desc>Speed 10.2 km/h Distance 2.61 km</desc>
<time>2011-05-22T07:00:49.46</time>
<name>611</name>
<sym>Dot</sym>
</trkpt>
<trkpt lat="40.081030" lon="-8.328097">
<ele>176.0</ele>
<desc>Speed 11.2 km/h Distance 2.61 km</desc>
<time>2011-05-22T07:00:50.45</time>
<name>612</name>
<sym>Dot</sym>
</trkpt>
<trkpt lat="40.080998" lon="-8.328110">
<ele>176.0</ele>
<desc>Speed 13.5 km/h Distance 2.62 km</desc>
<time>2011-05-22T07:00:51.45</time>
<name>613</name>
<sym>Dot</sym>
</trkpt>
<trkpt lat="40.080963" lon="-8.328123">
<ele>176.0</ele>
<desc>Speed 14.9 km/h Distance 2.62 km</desc>
<time>2011-05-22T07:00:52.45</time>
<name>614</name>
<sym>Dot</sym>
</trkpt>
<trkpt lat="40.080925" lon="-8.328138">
<ele>176.0</ele>
<desc>Speed 16.3 km/h Distance 2.63 km</desc>
<time>2011-05-22T07:00:53.44</time>
<name>615</name>
<sym>Dot</sym>
</trkpt>
<trkpt lat="40.080883" lon="-8.328155">
<ele>176.0</ele>
<desc>Speed 17.7 km/h Distance 2.63 km</desc>
<time>2011-05-22T07:00:54.43</time>
<name>616</name>
<sym>Dot</sym>
</trkpt>
<trkpt lat="40.080837" lon="-8.328173">
<ele>176.0</ele>
<desc>Speed 19.2 km/h Distance 2.64 km</desc>
<time>2011-05-22T07:00:55.43</time>
<name>617</name>
<sym>Dot</sym>
</trkpt>
<trkpt lat="40.080788" lon="-8.328193">
<ele>176.0</ele>
<desc>Speed 20.5 km/h Distance 2.64 km</desc>
<time>2011-05-22T07:00:56.42</time>
<name>618</name>
<sym>Dot</sym>
</trkpt>
<trkpt lat="40.080737" lon="-8.328213">
<ele>175.5</ele>
<desc>Speed 21.7 km/h Distance 2.65 km</desc>
<time>2011-05-22T07:00:57.42</time>
<name>619</name>
<sym>Dot</sym>
</trkpt>
<trkpt lat="40.080682" lon="-8.328233">
<ele>175.5</ele>
<desc>Speed 22.9 km/h Distance 2.65 km</desc>
<time>2011-05-22T07:00:58.41</time>
<name>620</name>
<sym>Dot</sym>
</trkpt>
<trkpt lat="40.080625" lon="-8.328257">
<ele>175.5</ele>
<desc>Speed 23.9 km/h Distance 2.66 km</desc>
<time>2011-05-22T07:00:59.41</time>
<name>621</name>
<sym>Dot</sym>
</trkpt>
<trkpt lat="40.080565" lon="-8.328278">
<ele>175.0</ele>
<desc>Speed 24.9 km/h Distance 2.67 km</desc>
<time>2011-05-22T07:01:00.40</time>
<name>622</name>
<sym>Dot</sym>
</trkpt>
<trkpt lat="40.080503" lon="-8.328300">
<ele>175.0</ele>
<desc>Speed 25.7 km/h Distance 2.67 km</desc>
<time>2011-05-22T07:01:01.39</time>
<name>623</name>
<sym>Dot</sym>
</trkpt>
<trkpt lat="40.080440" lon="-8.328323">
<ele>175.0</ele>
<desc>Speed 26.3 km/h Distance 2.68 km</desc>
<time>2011-05-22T07:01:02.39</time>
<name>624</name>
<sym>Dot</sym>
</trkpt>
<trkpt lat="40.080375" lon="-8.328347">
<ele>175.0</ele>
<desc>Speed 27.2 km/h Distance 2.69 km</desc>
<time>2011-05-22T07:01:03.39</time>
<name>625</name>
<sym>Dot</sym>
</trkpt>
<trkpt lat="40.080308" lon="-8.328372">
<ele>174.5</ele>
<desc>Speed 27.4 km/h Distance 2.70 km</desc>
<time>2011-05-22T07:01:04.39</time>
<name>626</name>
<sym>Dot</sym>
</trkpt>
<trkpt lat="40.080240" lon="-8.328395">
<ele>174.5</ele>
<desc>Speed 28.2 km/h Distance 2.70 km</desc>
<time>2011-05-22T07:01:05.38</time>
<name>627</name>
<sym>Dot</sym>
</trkpt>
<trkpt lat="40.080170" lon="-8.328422">
<ele>174.5</ele>
<desc>Speed 29.0 km/h Distance 2.71 km</desc>
<time>2011-05-22T07:01:06.38</time>
<name>628</name>
<sym>Dot</sym>
</trkpt>
<trkpt lat="40.080100" lon="-8.328447">
<ele>174.0</ele>
<desc>Speed 29.3 km/h Distance 2.72 km</desc>
<time>2011-05-22T07:01:07.37</time>
<name>629</name>
<sym>Dot</sym>
</trkpt>
<trkpt lat="40.080028" lon="-8.328475">
<ele>174.0</ele>
<desc>Speed 29.8 km/h Distance 2.73 km</desc>
<time>2011-05-22T07:01:08.37</time>
<name>630</name>
<sym>Dot</sym>
</trkpt>
<trkpt lat="40.079958" lon="-8.328503">
<ele>174.0</ele>
<desc>Speed 29.6 km/h Distance 2.74 km</desc>
<time>2011-05-22T07:01:09.36</time>
<name>631</name>
<sym>Dot</sym>
</trkpt>
<trkpt lat="40.079887" lon="-8.328532">
<ele>174.0</ele>
<desc>Speed 30.0 km/h Distance 2.75 km</desc>
<time>2011-05-22T07:01:10.36</time>
<name>632</name>
<sym>Dot</sym>
</trkpt>
<trkpt lat="40.079813" lon="-8.328558">
<ele>174.5</ele>
<desc>Speed 30.2 km/h Distance 2.75 km</desc>
<time>2011-05-22T07:01:11.35</time>
<name>633</name>
<sym>Dot</sym>
</trkpt>
<trkpt lat="40.079740" lon="-8.328583">
<ele>174.0</ele>
<desc>Speed 31.0 km/h Distance 2.76 km</desc>
<time>2011-05-22T07:01:12.35</time>
<name>634</name>
<sym>Dot</sym>
</trkpt>
<trkpt lat="40.079665" lon="-8.328610">
<ele>174.0</ele>
<desc>Speed 30.8 km/h Distance 2.77 km</desc>
<time>2011-05-22T07:01:13.34</time>
<name>635</name>
<sym>Dot</sym>
</trkpt>
<trkpt lat="40.079590" lon="-8.328628">
<ele>175.0</ele>
<desc>Speed 30.6 km/h Distance 2.78 km</desc>
<time>2011-05-22T07:01:14.34</time>
<name>636</name>
<sym>Dot</sym>
</trkpt>
<trkpt lat="40.079513" lon="-8.328643">
<ele>174.5</ele>
<desc>Speed 31.4 km/h Distance 2.79 km</desc>
<time>2011-05-22T07:01:15.34</time>
<name>637</name>
<sym>Dot</sym>
</trkpt>
<trkpt lat="40.079435" lon="-8.328655">
<ele>174.5</ele>
<desc>Speed 31.5 km/h Distance 2.80 km</desc>
<time>2011-05-22T07:01:16.33</time>
<name>638</name>
<sym>Dot</sym>
</trkpt>
<trkpt lat="40.079357" lon="-8.328662">
<ele>174.5</ele>
<desc>Speed 31.6 km/h Distance 2.81 km</desc>
<time>2011-05-22T07:01:17.32</time>
<name>639</name>
<sym>Dot</sym>
</trkpt>
<trkpt lat="40.079277" lon="-8.328667">
<ele>174.5</ele>
<desc>Speed 31.8 km/h Distance 2.81 km</desc>
<time>2011-05-22T07:01:18.32</time>
<name>640</name>
<sym>Dot</sym>
</trkpt>
<trkpt lat="40.079198" lon="-8.328670">
<ele>174.5</ele>
<desc>Speed 31.9 km/h Distance 2.82 km</desc>
<time>2011-05-22T07:01:19.33</time>
<name>641</name>
<sym>Dot</sym>
</trkpt>
<trkpt lat="40.079118" lon="-8.328675">
<ele>174.5</ele>
<desc>Speed 32.0 km/h Distance 2.83 km</desc>
<time>2011-05-22T07:01:20.31</time>
<name>642</name>
<sym>Dot</sym>
</trkpt>
<trkpt lat="40.079038" lon="-8.328678">
<ele>174.5</ele>
<desc>Speed 32.0 km/h Distance 2.84 km</desc>
<time>2011-05-22T07:01:21.31</time>
<name>643</name>
<sym>Dot</sym>
</trkpt>
<trkpt lat="40.078958" lon="-8.328682">
<ele>174.0</ele>
<desc>Speed 32.6 km/h Distance 2.85 km</desc>
<time>2011-05-22T07:01:22.31</time>
<name>644</name>
<sym>Dot</sym>
</trkpt>
<trkpt lat="40.078877" lon="-8.328683">
<ele>174.5</ele>
<desc>Speed 32.5 km/h Distance 2.86 km</desc>
<time>2011-05-22T07:01:23.31</time>
<name>645</name>
<sym>Dot</sym>
</trkpt>
<trkpt lat="40.078795" lon="-8.328687">
<ele>174.0</ele>
<desc>Speed 32.5 km/h Distance 2.87 km</desc>
<time>2011-05-22T07:01:24.30</time>
<name>646</name>
<sym>Dot</sym>
</trkpt>
<trkpt lat="40.078715" lon="-8.328690">
<ele>174.0</ele>
<desc>Speed 32.6 km/h Distance 2.88 km</desc>
<time>2011-05-22T07:01:25.30</time>
<name>647</name>
<sym>Dot</sym>
</trkpt>
<trkpt lat="40.078633" lon="-8.328693">
<ele>174.0</ele>
<desc>Speed 32.4 km/h Distance 2.89 km</desc>
<time>2011-05-22T07:01:26.29</time>
<name>648</name>
<sym>Dot</sym>
</trkpt>
<trkpt lat="40.078553" lon="-8.328695">
<ele>173.5</ele>
<desc>Speed 32.4 km/h Distance 2.90 km</desc>
<time>2011-05-22T07:01:27.29</time>
<name>649</name>
<sym>Dot</sym>
</trkpt>
<trkpt lat="40.078473" lon="-8.328697">
<ele>173.5</ele>
<desc>Speed 32.0 km/h Distance 2.90 km</desc>
<time>2011-05-22T07:01:28.29</time>
<name>650</name>
<sym>Dot</sym>
</trkpt>
<trkpt lat="40.078393" lon="-8.328700">
<ele>173.5</ele>
<desc>Speed 31.9 km/h Distance 2.91 km</desc>
<time>2011-05-22T07:01:29.28</time>
<name>651</name>
<sym>Dot</sym>
</trkpt>
<trkpt lat="40.078315" lon="-8.328703">
<ele>173.0</ele>
<desc>Speed 31.8 km/h Distance 2.92 km</desc>
<time>2011-05-22T07:01:30.29</time>
<name>652</name>
<sym>Dot</sym>
</trkpt>
<trkpt lat="40.078235" lon="-8.328708">
<ele>173.0</ele>
<desc>Speed 32.2 km/h Distance 2.93 km</desc>
<time>2011-05-22T07:01:31.28</time>
<name>653</name>
<sym>Dot</sym>
</trkpt>
<trkpt lat="40.078155" lon="-8.328715">
<ele>173.0</ele>
<desc>Speed 32.1 km/h Distance 2.94 km</desc>
<time>2011-05-22T07:01:32.28</time>
<name>654</name>
<sym>Dot</sym>
</trkpt>
<trkpt lat="40.078075" lon="-8.328720">
<ele>173.0</ele>
<desc>Speed 32.1 km/h Distance 2.95 km</desc>
<time>2011-05-22T07:01:33.27</time>
<name>655</name>
<sym>Dot</sym>
</trkpt>
<trkpt lat="40.077995" lon="-8.328725">
<ele>173.0</ele>
<desc>Speed 32.1 km/h Distance 2.96 km</desc>
<time>2011-05-22T07:01:34.27</time>
<name>656</name>
<sym>Dot</sym>
</trkpt>
<trkpt lat="40.077915" lon="-8.328728">
<ele>173.0</ele>
<desc>Speed 32.2 km/h Distance 2.97 km</desc>
<time>2011-05-22T07:01:35.27</time>
<name>657</name>
<sym>Dot</sym>
</trkpt>
<trkpt lat="40.077835" lon="-8.328732">
<ele>173.0</ele>
<desc>Speed 32.1 km/h Distance 2.98 km</desc>
<time>2011-05-22T07:01:36.26</time>
<name>658</name>
<sym>Dot</sym>
</trkpt>
<trkpt lat="40.077755" lon="-8.328735">
<ele>173.0</ele>
<desc>Speed 32.3 km/h Distance 2.98 km</desc>
<time>2011-05-22T07:01:37.26</time>
<name>659</name>
<sym>Dot</sym>
</trkpt>
<trkpt lat="40.077675" lon="-8.328738">
<ele>173.0</ele>
<desc>Speed 32.3 km/h Distance 2.99 km</desc>
<time>2011-05-22T07:01:38.25</time>
<name>660</name>
<sym>Dot</sym>
</trkpt>
<trkpt lat="40.077595" lon="-8.328742">
<ele>173.0</ele>
<desc>Speed 32.0 km/h Distance 3.00 km</desc>
<time>2011-05-22T07:01:39.24</time>
<name>661</name>
<sym>Dot</sym>
</trkpt>
<trkpt lat="40.077515" lon="-8.328747">
<ele>173.0</ele>
<desc>Speed 31.9 km/h Distance 3.01 km</desc>
<time>2011-05-22T07:01:40.24</time>
<name>662</name>
<sym>Dot</sym>
</trkpt>
<trkpt lat="40.077437" lon="-8.328750">
<ele>173.0</ele>
<desc>Speed 31.8 km/h Distance 3.02 km</desc>
<time>2011-05-22T07:01:41.24</time>
<name>663</name>
<sym>Dot</sym>
</trkpt>
<trkpt lat="40.077357" lon="-8.328753">
<ele>172.5</ele>
<desc>Speed 31.7 km/h Distance 3.03 km</desc>
<time>2011-05-22T07:01:42.24</time>
<name>664</name>
<sym>Dot</sym>
</trkpt>
<trkpt lat="40.077278" lon="-8.328755">
<ele>172.5</ele>
<desc>Speed 31.6 km/h Distance 3.04 km</desc>
<time>2011-05-22T07:01:43.23</time>
<name>665</name>
<sym>Dot</sym>
</trkpt>
<trkpt lat="40.077202" lon="-8.328758">
<ele>172.5</ele>
<desc>Speed 31.1 km/h Distance 3.05 km</desc>
<time>2011-05-22T07:01:44.23</time>
<name>666</name>
<sym>Dot</sym>
</trkpt>
<trkpt lat="40.077123" lon="-8.328760">
<ele>172.5</ele>
<desc>Speed 31.2 km/h Distance 3.05 km</desc>
<time>2011-05-22T07:01:45.23</time>
<name>667</name>
<sym>Dot</sym>
</trkpt>
<trkpt lat="40.077045" lon="-8.328765">
<ele>172.5</ele>
<desc>Speed 31.2 km/h Distance 3.06 km</desc>
<time>2011-05-22T07:01:46.22</time>
<name>668</name>
<sym>Dot</sym>
</trkpt>
<trkpt lat="40.076968" lon="-8.328768">
<ele>172.5</ele>
<desc>Speed 31.1 km/h Distance 3.07 km</desc>
<time>2011-05-22T07:01:47.21</time>
<name>669</name>
<sym>Dot</sym>
</trkpt>
<trkpt lat="40.076890" lon="-8.328772">
<ele>172.5</ele>
<desc>Speed 31.2 km/h Distance 3.08 km</desc>
<time>2011-05-22T07:01:48.21</time>
<name>670</name>
<sym>Dot</sym>
</trkpt>
<trkpt lat="40.076812" lon="-8.328773">
<ele>172.5</ele>
<desc>Speed 31.1 km/h Distance 3.09 km</desc>
<time>2011-05-22T07:01:49.20</time>
<name>671</name>
<sym>Dot</sym>
</trkpt>
<trkpt lat="40.076735" lon="-8.328775">
<ele>172.5</ele>
<desc>Speed 30.8 km/h Distance 3.10 km</desc>
<time>2011-05-22T07:01:50.19</time>
<name>672</name>
<sym>Dot</sym>
</trkpt>
<trkpt lat="40.076658" lon="-8.328775">
<ele>172.5</ele>
<desc>Speed 30.5 km/h Distance 3.11 km</desc>
<time>2011-05-22T07:01:51.19</time>
<name>673</name>
<sym>Dot</sym>
</trkpt>
<trkpt lat="40.076583" lon="-8.328775">
<ele>172.5</ele>
<desc>Speed 30.4 km/h Distance 3.11 km</desc>
<time>2011-05-22T07:01:52.19</time>
<name>674</name>
<sym>Dot</sym>
</trkpt>
<trkpt lat="40.076507" lon="-8.328773">
<ele>172.5</ele>
<desc>Speed 30.3 km/h Distance 3.12 km</desc>
<time>2011-05-22T07:01:53.17</time>
<name>675</name>
<sym>Dot</sym>
</trkpt>
<trkpt lat="40.076430" lon="-8.328770">
<ele>172.5</ele>
<desc>Speed 30.5 km/h Distance 3.13 km</desc>
<time>2011-05-22T07:01:54.17</time>
<name>676</name>
<sym>Dot</sym>
</trkpt>
<trkpt lat="40.076353" lon="-8.328767">
<ele>172.0</ele>
<desc>Speed 30.7 km/h Distance 3.14 km</desc>
<time>2011-05-22T07:01:55.18</time>
<name>677</name>
<sym>Dot</sym>
</trkpt>
<trkpt lat="40.076277" lon="-8.328765">
<ele>172.0</ele>
<desc>Speed 30.9 km/h Distance 3.15 km</desc>
<time>2011-05-22T07:01:56.16</time>
<name>678</name>
<sym>Dot</sym>
</trkpt>
<trkpt lat="40.076200" lon="-8.328773">
<ele>172.0</ele>
<desc>Speed 30.9 km/h Distance 3.16 km</desc>
<time>2011-05-22T07:01:57.16</time>
<name>679</name>
<sym>Dot</sym>
</trkpt>
<trkpt lat="40.076125" lon="-8.328788">
<ele>172.0</ele>
<desc>Speed 30.8 km/h Distance 3.17 km</desc>
<time>2011-05-22T07:01:58.16</time>
<name>680</name>
<sym>Dot</sym>
</trkpt>
<trkpt lat="40.076048" lon="-8.328802">
<ele>172.5</ele>
<desc>Speed 30.9 km/h Distance 3.17 km</desc>
<time>2011-05-22T07:01:59.16</time>
<name>681</name>
<sym>Dot</sym>
</trkpt>
<trkpt lat="40.075972" lon="-8.328812">
<ele>172.5</ele>
<desc>Speed 30.8 km/h Distance 3.18 km</desc>
<time>2011-05-22T07:02:00.15</time>
<name>682</name>
<sym>Dot</sym>
</trkpt>
<trkpt lat="40.075895" lon="-8.328818">
<ele>173.0</ele>
<desc>Speed 31.1 km/h Distance 3.19 km</desc>
<time>2011-05-22T07:02:01.15</time>
<name>683</name>
<sym>Dot</sym>
</trkpt>
<trkpt lat="40.075817" lon="-8.328822">
<ele>173.0</ele>
<desc>Speed 31.1 km/h Distance 3.20 km</desc>
<time>2011-05-22T07:02:02.15</time>
<name>684</name>
<sym>Dot</sym>
</trkpt>
<trkpt lat="40.075740" lon="-8.328822">
<ele>173.0</ele>
<desc>Speed 31.1 km/h Distance 3.21 km</desc>
<time>2011-05-22T07:02:03.14</time>
<name>685</name>
<sym>Dot</sym>
</trkpt>
<trkpt lat="40.075662" lon="-8.328822">
<ele>173.0</ele>
<desc>Speed 31.0 km/h Distance 3.22 km</desc>
<time>2011-05-22T07:02:04.14</time>
<name>686</name>
<sym>Dot</sym>
</trkpt>
<trkpt lat="40.075585" lon="-8.328815">
<ele>172.5</ele>
<desc>Speed 31.1 km/h Distance 3.23 km</desc>
<time>2011-05-22T07:02:05.14</time>
<name>687</name>
<sym>Dot</sym>
</trkpt>
<trkpt lat="40.075508" lon="-8.328812">
<ele>172.5</ele>
<desc>Speed 30.9 km/h Distance 3.23 km</desc>
<time>2011-05-22T07:02:06.13</time>
<name>688</name>
<sym>Dot</sym>
</trkpt>
<trkpt lat="40.075432" lon="-8.328808">
<ele>172.5</ele>
<desc>Speed 30.7 km/h Distance 3.24 km</desc>
<time>2011-05-22T07:02:07.13</time>
<name>689</name>
<sym>Dot</sym>
</trkpt>
<trkpt lat="40.075357" lon="-8.328803">
<ele>172.5</ele>
<desc>Speed 30.7 km/h Distance 3.25 km</desc>
<time>2011-05-22T07:02:08.13</time>
<name>690</name>
<sym>Dot</sym>
</trkpt>
<trkpt lat="40.075280" lon="-8.328813">
<ele>172.5</ele>
<desc>Speed 30.4 km/h Distance 3.26 km</desc>
<time>2011-05-22T07:02:09.13</time>
<name>691</name>
<sym>Dot</sym>
</trkpt>
<trkpt lat="40.075207" lon="-8.328825">
<ele>172.5</ele>
<desc>Speed 29.9 km/h Distance 3.27 km</desc>
<time>2011-05-22T07:02:10.12</time>
<name>692</name>
<sym>Dot</sym>
</trkpt>
<trkpt lat="40.075133" lon="-8.328830">
<ele>172.5</ele>
<desc>Speed 29.4 km/h Distance 3.28 km</desc>
<time>2011-05-22T07:02:11.12</time>
<name>693</name>
<sym>Dot</sym>
</trkpt>
<trkpt lat="40.075062" lon="-8.328832">
<ele>172.5</ele>
<desc>Speed 29.2 km/h Distance 3.28 km</desc>
<time>2011-05-22T07:02:12.12</time>
<name>694</name>
<sym>Dot</sym>
</trkpt>
<trkpt lat="40.074990" lon="-8.328835">
<ele>173.0</ele>
<desc>Speed 28.4 km/h Distance 3.29 km</desc>
<time>2011-05-22T07:02:13.11</time>
<name>695</name>
<sym>Dot</sym>
</trkpt>
<trkpt lat="40.074922" lon="-8.328840">
<ele>173.0</ele>
<desc>Speed 27.6 km/h Distance 3.30 km</desc>
<time>2011-05-22T07:02:14.10</time>
<name>696</name>
<sym>Dot</sym>
</trkpt>
<trkpt lat="40.074855" lon="-8.328845">
<ele>173.0</ele>
<desc>Speed 27.1 km/h Distance 3.31 km</desc>
<time>2011-05-22T07:02:15.10</time>
<name>697</name>
<sym>Dot</sym>
</trkpt>
<trkpt lat="40.074790" lon="-8.328848">
<ele>173.5</ele>
<desc>Speed 25.8 km/h Distance 3.31 km</desc>
<time>2011-05-22T07:02:16.09</time>
<name>698</name>
<sym>Dot</sym>
</trkpt>
<trkpt lat="40.074730" lon="-8.328848">
<ele>173.5</ele>
<desc>Speed 24.5 km/h Distance 3.32 km</desc>
<time>2011-05-22T07:02:17.09</time>
<name>699</name>
<sym>Dot</sym>
</trkpt>
<trkpt lat="40.074672" lon="-8.328845">
<ele>173.5</ele>
<desc>Speed 22.9 km/h Distance 3.33 km</desc>
<time>2011-05-22T07:02:18.09</time>
<name>700</name>
<sym>Dot</sym>
</trkpt>
<trkpt lat="40.074618" lon="-8.328848">
<ele>174.0</ele>
<desc>Speed 22.1 km/h Distance 3.33 km</desc>
<time>2011-05-22T07:02:19.08</time>
<name>701</name>
<sym>Dot</sym>
</trkpt>
<trkpt lat="40.074565" lon="-8.328852">
<ele>174.0</ele>
<desc>Speed 21.2 km/h Distance 3.34 km</desc>
<time>2011-05-22T07:02:20.08</time>
<name>702</name>
<sym>Dot</sym>
</trkpt>
<trkpt lat="40.074517" lon="-8.328855">
<ele>174.0</ele>
<desc>Speed 19.8 km/h Distance 3.35 km</desc>
<time>2011-05-22T07:02:21.07</time>
<name>703</name>
<sym>Dot</sym>
</trkpt>
<trkpt lat="40.074468" lon="-8.328860">
<ele>174.0</ele>
<desc>Speed 19.2 km/h Distance 3.35 km</desc>
<time>2011-05-22T07:02:22.06</time>
<name>704</name>
<sym>Dot</sym>
</trkpt>
<trkpt lat="40.074425" lon="-8.328863">
<ele>174.0</ele>
<desc>Speed 18.0 km/h Distance 3.36 km</desc>
<time>2011-05-22T07:02:23.05</time>
<name>705</name>
<sym>Dot</sym>
</trkpt>
<trkpt lat="40.074382" lon="-8.328863">
<ele>174.0</ele>
<desc>Speed 17.3 km/h Distance 3.36 km</desc>
<time>2011-05-22T07:02:24.05</time>
<name>706</name>
<sym>Dot</sym>
</trkpt>
<trkpt lat="40.074342" lon="-8.328860">
<ele>175.0</ele>
<desc>Speed 16.4 km/h Distance 3.36 km</desc>
<time>2011-05-22T07:02:25.05</time>
<name>707</name>
<sym>Dot</sym>
</trkpt>
<trkpt lat="40.074302" lon="-8.328860">
<ele>175.0</ele>
<desc>Speed 15.6 km/h Distance 3.37 km</desc>
<time>2011-05-22T07:02:26.05</time>
<name>708</name>
<sym>Dot</sym>
</trkpt>
<trkpt lat="40.074265" lon="-8.328860">
<ele>175.5</ele>
<desc>Speed 14.9 km/h Distance 3.37 km</desc>
<time>2011-05-22T07:02:27.05</time>
<name>709</name>
<sym>Dot</sym>
</trkpt>
<trkpt lat="40.074230" lon="-8.328860">
<ele>175.5</ele>
<desc>Speed 14.2 km/h Distance 3.38 km</desc>
<time>2011-05-22T07:02:28.04</time>
<name>710</name>
<sym>Dot</sym>
</trkpt>
<trkpt lat="40.074197" lon="-8.328860">
<ele>176.0</ele>
<desc>Speed 13.7 km/h Distance 3.38 km</desc>
<time>2011-05-22T07:02:29.04</time>
<name>711</name>
<sym>Dot</sym>
</trkpt>
<trkpt lat="40.074163" lon="-8.328857">
<ele>176.0</ele>
<desc>Speed 13.6 km/h Distance 3.38 km</desc>
<time>2011-05-22T07:02:30.04</time>
<name>712</name>
<sym>Dot</sym>
</trkpt>
<trkpt lat="40.074128" lon="-8.328857">
<ele>176.0</ele>
<desc>Speed 13.8 km/h Distance 3.39 km</desc>
<time>2011-05-22T07:02:31.03</time>
<name>713</name>
<sym>Dot</sym>
</trkpt>
<trkpt lat="40.074095" lon="-8.328865">
<ele>177.0</ele>
<desc>Speed 13.5 km/h Distance 3.39 km</desc>
<time>2011-05-22T07:02:32.03</time>
<name>714</name>
<sym>Dot</sym>
</trkpt>
<trkpt lat="40.074060" lon="-8.328868">
<ele>178.5</ele>
<desc>Speed 14.4 km/h Distance 3.40 km</desc>
<time>2011-05-22T07:02:33.03</time>
<name>715</name>
<sym>Dot</sym>
</trkpt>
<trkpt lat="40.074023" lon="-8.328872">
<ele>179.0</ele>
<desc>Speed 15.2 km/h Distance 3.40 km</desc>
<time>2011-05-22T07:02:34.02</time>
<name>716</name>
<sym>Dot</sym>
</trkpt>
<trkpt lat="40.073985" lon="-8.328875">
<ele>179.0</ele>
<desc>Speed 15.3 km/h Distance 3.40 km</desc>
<time>2011-05-22T07:02:35.01</time>
<name>717</name>
<sym>Dot</sym>
</trkpt>
<trkpt lat="40.073945" lon="-8.328877">
<ele>179.0</ele>
<desc>Speed 16.1 km/h Distance 3.41 km</desc>
<time>2011-05-22T07:02:36.01</time>
<name>718</name>
<sym>Dot</sym>
</trkpt>
<trkpt lat="40.073903" lon="-8.328878">
<ele>179.5</ele>
<desc>Speed 16.7 km/h Distance 3.41 km</desc>
<time>2011-05-22T07:02:37.01</time>
<name>719</name>
<sym>Dot</sym>
</trkpt>
<trkpt lat="40.073863" lon="-8.328880">
<ele>179.5</ele>
<desc>Speed 16.5 km/h Distance 3.42 km</desc>
<time>2011-05-22T07:02:38.01</time>
<name>720</name>
<sym>Dot</sym>
</trkpt>
<trkpt lat="40.073822" lon="-8.328880">
<ele>180.0</ele>
<desc>Speed 16.9 km/h Distance 3.42 km</desc>
<time>2011-05-22T07:02:39.00</time>
<name>721</name>
<sym>Dot</sym>
</trkpt>
<trkpt lat="40.073780" lon="-8.328882">
<ele>180.0</ele>
<desc>Speed 17.0 km/h Distance 3.43 km</desc>
<time>2011-05-22T07:02:40.00</time>
<name>722</name>
<sym>Dot</sym>
</trkpt>
<trkpt lat="40.073737" lon="-8.328885">
<ele>180.0</ele>
<desc>Speed 17.0 km/h Distance 3.43 km</desc>
<time>2011-05-22T07:02:41.00</time>
<name>723</name>
<sym>Dot</sym>
</trkpt>
<trkpt lat="40.073695" lon="-8.328885">
<ele>179.5</ele>
<desc>Speed 17.1 km/h Distance 3.44 km</desc>
<time>2011-05-22T07:02:42.00</time>
<name>724</name>
<sym>Dot</sym>
</trkpt>
<trkpt lat="40.073652" lon="-8.328888">
<ele>180.0</ele>
<desc>Speed 17.6 km/h Distance 3.44 km</desc>
<time>2011-05-22T07:02:43.00</time>
<name>725</name>
<sym>Dot</sym>
</trkpt>
<trkpt lat="40.073608" lon="-8.328890">
<ele>180.0</ele>
<desc>Speed 17.5 km/h Distance 3.45 km</desc>
<time>2011-05-22T07:02:43.99</time>
<name>726</name>
<sym>Dot</sym>
</trkpt>
<trkpt lat="40.073565" lon="-8.328892">
<ele>180.5</ele>
<desc>Speed 17.4 km/h Distance 3.45 km</desc>
<time>2011-05-22T07:02:44.99</time>
<name>727</name>
<sym>Dot</sym>
</trkpt>
<trkpt lat="40.073522" lon="-8.328890">
<ele>180.5</ele>
<desc>Speed 17.6 km/h Distance 3.46 km</desc>
<time>2011-05-22T07:02:45.98</time>
<name>728</name>
<sym>Dot</sym>
</trkpt>
<trkpt lat="40.073478" lon="-8.328892">
<ele>180.5</ele>
<desc>Speed 17.6 km/h Distance 3.46 km</desc>
<time>2011-05-22T07:02:46.98</time>
<name>729</name>
<sym>Dot</sym>
</trkpt>
<trkpt lat="40.073433" lon="-8.328893">
<ele>181.0</ele>
<desc>Speed 17.9 km/h Distance 3.47 km</desc>
<time>2011-05-22T07:02:47.97</time>
<name>730</name>
<sym>Dot</sym>
</trkpt>
<trkpt lat="40.073388" lon="-8.328895">
<ele>180.5</ele>
<desc>Speed 18.1 km/h Distance 3.47 km</desc>
<time>2011-05-22T07:02:48.98</time>
<name>731</name>
<sym>Dot</sym>
</trkpt>
<trkpt lat="40.073343" lon="-8.328897">
<ele>180.5</ele>
<desc>Speed 18.4 km/h Distance 3.48 km</desc>
<time>2011-05-22T07:02:49.96</time>
<name>732</name>
<sym>Dot</sym>
</trkpt>
<trkpt lat="40.073297" lon="-8.328898">
<ele>180.5</ele>
<desc>Speed 18.7 km/h Distance 3.48 km</desc>
<time>2011-05-22T07:02:50.95</time>
<name>733</name>
<sym>Dot</sym>
</trkpt>
<trkpt lat="40.073250" lon="-8.328900">
<ele>180.0</ele>
<desc>Speed 18.9 km/h Distance 3.49 km</desc>
<time>2011-05-22T07:02:51.95</time>
<name>734</name>
<sym>Dot</sym>
</trkpt>
<trkpt lat="40.073202" lon="-8.328900">
<ele>180.0</ele>
<desc>Speed 19.2 km/h Distance 3.49 km</desc>
<time>2011-05-22T07:02:52.94</time>
<name>735</name>
<sym>Dot</sym>
</trkpt>
<trkpt lat="40.073155" lon="-8.328903">
<ele>180.0</ele>
<desc>Speed 18.8 km/h Distance 3.50 km</desc>
<time>2011-05-22T07:02:53.94</time>
<name>736</name>
<sym>Dot</sym>
</trkpt>
<trkpt lat="40.073108" lon="-8.328905">
<ele>180.0</ele>
<desc>Speed 18.8 km/h Distance 3.50 km</desc>
<time>2011-05-22T07:02:54.93</time>
<name>737</name>
<sym>Dot</sym>
</trkpt>
<trkpt lat="40.073062" lon="-8.328907">
<ele>179.5</ele>
<desc>Speed 18.8 km/h Distance 3.51 km</desc>
<time>2011-05-22T07:02:55.92</time>
<name>738</name>
<sym>Dot</sym>
</trkpt>
<trkpt lat="40.073015" lon="-8.328908">
<ele>179.5</ele>
<desc>Speed 18.8 km/h Distance 3.51 km</desc>
<time>2011-05-22T07:02:56.92</time>
<name>739</name>
<sym>Dot</sym>
</trkpt>
<trkpt lat="40.072968" lon="-8.328913">
<ele>179.5</ele>
<desc>Speed 19.0 km/h Distance 3.52 km</desc>
<time>2011-05-22T07:02:57.91</time>
<name>740</name>
<sym>Dot</sym>
</trkpt>
<trkpt lat="40.072922" lon="-8.328917">
<ele>179.5</ele>
<desc>Speed 18.9 km/h Distance 3.52 km</desc>
<time>2011-05-22T07:02:58.92</time>
<name>741</name>
<sym>Dot</sym>
</trkpt>
<trkpt lat="40.072875" lon="-8.328922">
<ele>180.0</ele>
<desc>Speed 18.7 km/h Distance 3.53 km</desc>
<time>2011-05-22T07:02:59.91</time>
<name>742</name>
<sym>Dot</sym>
</trkpt>
<trkpt lat="40.072828" lon="-8.328928">
<ele>180.5</ele>
<desc>Speed 18.5 km/h Distance 3.53 km</desc>
<time>2011-05-22T07:03:00.90</time>
<name>743</name>
<sym>Dot</sym>
</trkpt>
<trkpt lat="40.072785" lon="-8.328932">
<ele>181.0</ele>
<desc>Speed 18.1 km/h Distance 3.54 km</desc>
<time>2011-05-22T07:03:01.90</time>
<name>744</name>
<sym>Dot</sym>
</trkpt>
<trkpt lat="40.072740" lon="-8.328937">
<ele>181.0</ele>
<desc>Speed 17.8 km/h Distance 3.54 km</desc>
<time>2011-05-22T07:03:02.89</time>
<name>745</name>
<sym>Dot</sym>
</trkpt>
<trkpt lat="40.072698" lon="-8.328942">
<ele>182.0</ele>
<desc>Speed 17.3 km/h Distance 3.55 km</desc>
<time>2011-05-22T07:03:03.88</time>
<name>746</name>
<sym>Dot</sym>
</trkpt>
<trkpt lat="40.072657" lon="-8.328950">
<ele>182.5</ele>
<desc>Speed 16.8 km/h Distance 3.55 km</desc>
<time>2011-05-22T07:03:04.88</time>
<name>747</name>
<sym>Dot</sym>
</trkpt>
<trkpt lat="40.072615" lon="-8.328957">
<ele>182.5</ele>
<desc>Speed 17.0 km/h Distance 3.56 km</desc>
<time>2011-05-22T07:03:05.88</time>
<name>748</name>
<sym>Dot</sym>
</trkpt>
<trkpt lat="40.072573" lon="-8.328970">
<ele>182.5</ele>
<desc>Speed 16.9 km/h Distance 3.56 km</desc>
<time>2011-05-22T07:03:06.87</time>
<name>749</name>
<sym>Dot</sym>
</trkpt>
<trkpt lat="40.072533" lon="-8.328987">
<ele>182.5</ele>
<desc>Speed 16.9 km/h Distance 3.57 km</desc>
<time>2011-05-22T07:03:07.87</time>
<name>750</name>
<sym>Dot</sym>
</trkpt>
<trkpt lat="40.072493" lon="-8.329005">
<ele>182.0</ele>
<desc>Speed 16.8 km/h Distance 3.57 km</desc>
<time>2011-05-22T07:03:08.86</time>
<name>751</name>
<sym>Dot</sym>
</trkpt>
<trkpt lat="40.072455" lon="-8.329020">
<ele>182.5</ele>
<desc>Speed 16.0 km/h Distance 3.58 km</desc>
<time>2011-05-22T07:03:09.86</time>
<name>752</name>
<sym>Dot</sym>
</trkpt>
<trkpt lat="40.072415" lon="-8.329038">
<ele>182.5</ele>
<desc>Speed 16.5 km/h Distance 3.58 km</desc>
<time>2011-05-22T07:03:10.86</time>
<name>753</name>
<sym>Dot</sym>
</trkpt>
<trkpt lat="40.072375" lon="-8.329057">
<ele>182.5</ele>
<desc>Speed 16.8 km/h Distance 3.59 km</desc>
<time>2011-05-22T07:03:11.86</time>
<name>754</name>
<sym>Dot</sym>
</trkpt>
<trkpt lat="40.072337" lon="-8.329077">
<ele>182.5</ele>
<desc>Speed 17.0 km/h Distance 3.59 km</desc>
<time>2011-05-22T07:03:12.85</time>
<name>755</name>
<sym>Dot</sym>
</trkpt>
<trkpt lat="40.072297" lon="-8.329100">
<ele>182.5</ele>
<desc>Speed 17.0 km/h Distance 3.60 km</desc>
<time>2011-05-22T07:03:13.85</time>
<name>756</name>
<sym>Dot</sym>
</trkpt>
<trkpt lat="40.072258" lon="-8.329122">
<ele>182.5</ele>
<desc>Speed 16.7 km/h Distance 3.60 km</desc>
<time>2011-05-22T07:03:14.85</time>
<name>757</name>
<sym>Dot</sym>
</trkpt>
<trkpt lat="40.072222" lon="-8.329145">
<ele>182.5</ele>
<desc>Speed 16.2 km/h Distance 3.60 km</desc>
<time>2011-05-22T07:03:15.84</time>
<name>758</name>
<sym>Dot</sym>
</trkpt>
<trkpt lat="40.072188" lon="-8.329168">
<ele>182.0</ele>
<desc>Speed 15.5 km/h Distance 3.61 km</desc>
<time>2011-05-22T07:03:16.84</time>
<name>759</name>
<sym>Dot</sym>
</trkpt>
<trkpt lat="40.072155" lon="-8.329192">
<ele>182.0</ele>
<desc>Speed 15.0 km/h Distance 3.61 km</desc>
<time>2011-05-22T07:03:17.84</time>
<name>760</name>
<sym>Dot</sym>
</trkpt>
<trkpt lat="40.072123" lon="-8.329217">
<ele>182.0</ele>
<desc>Speed 14.6 km/h Distance 3.62 km</desc>
<time>2011-05-22T07:03:18.83</time>
<name>761</name>
<sym>Dot</sym>
</trkpt>
<trkpt lat="40.072095" lon="-8.329242">
<ele>182.0</ele>
<desc>Speed 14.1 km/h Distance 3.62 km</desc>
<time>2011-05-22T07:03:19.83</time>
<name>762</name>
<sym>Dot</sym>
</trkpt>
<trkpt lat="40.072065" lon="-8.329263">
<ele>182.0</ele>
<desc>Speed 13.6 km/h Distance 3.62 km</desc>
<time>2011-05-22T07:03:20.83</time>
<name>763</name>
<sym>Dot</sym>
</trkpt>
<trkpt lat="40.072038" lon="-8.329288">
<ele>182.0</ele>
<desc>Speed 12.7 km/h Distance 3.63 km</desc>
<time>2011-05-22T07:03:21.83</time>
<name>764</name>
<sym>Dot</sym>
</trkpt>
<trkpt lat="40.072015" lon="-8.329312">
<ele>182.0</ele>
<desc>Speed 12.4 km/h Distance 3.63 km</desc>
<time>2011-05-22T07:03:22.83</time>
<name>765</name>
<sym>Dot</sym>
</trkpt>
<trkpt lat="40.071990" lon="-8.329335">
<ele>182.0</ele>
<desc>Speed 12.3 km/h Distance 3.63 km</desc>
<time>2011-05-22T07:03:23.83</time>
<name>766</name>
<sym>Dot</sym>
</trkpt>
<trkpt lat="40.071965" lon="-8.329360">
<ele>182.0</ele>
<desc>Speed 12.2 km/h Distance 3.64 km</desc>
<time>2011-05-22T07:03:24.82</time>
<name>767</name>
<sym>Dot</sym>
</trkpt>
<trkpt lat="40.071943" lon="-8.329383">
<ele>182.0</ele>
<desc>Speed 11.6 km/h Distance 3.64 km</desc>
<time>2011-05-22T07:03:25.82</time>
<name>768</name>
<sym>Dot</sym>
</trkpt>
<trkpt lat="40.071922" lon="-8.329408">
<ele>182.0</ele>
<desc>Speed 11.7 km/h Distance 3.64 km</desc>
<time>2011-05-22T07:03:26.82</time>
<name>769</name>
<sym>Dot</sym>
</trkpt>
<trkpt lat="40.071902" lon="-8.329433">
<ele>182.0</ele>
<desc>Speed 11.2 km/h Distance 3.65 km</desc>
<time>2011-05-22T07:03:27.81</time>
<name>770</name>
<sym>Dot</sym>
</trkpt>
<trkpt lat="40.071883" lon="-8.329458">
<ele>182.5</ele>
<desc>Speed 10.8 km/h Distance 3.65 km</desc>
<time>2011-05-22T07:03:28.81</time>
<name>771</name>
<sym>Dot</sym>
</trkpt>
<trkpt lat="40.071863" lon="-8.329483">
<ele>182.5</ele>
<desc>Speed 11.2 km/h Distance 3.65 km</desc>
<time>2011-05-22T07:03:29.81</time>
<name>772</name>
<sym>Dot</sym>
</trkpt>
<trkpt lat="40.071845" lon="-8.329510">
<ele>182.5</ele>
<desc>Speed 11.3 km/h Distance 3.66 km</desc>
<time>2011-05-22T07:03:30.80</time>
<name>773</name>
<sym>Dot</sym>
</trkpt>
<trkpt lat="40.071825" lon="-8.329538">
<ele>183.0</ele>
<desc>Speed 11.7 km/h Distance 3.66 km</desc>
<time>2011-05-22T07:03:31.80</time>
<name>774</name>
<sym>Dot</sym>
</trkpt>
<trkpt lat="40.071807" lon="-8.329565">
<ele>183.0</ele>
<desc>Speed 11.7 km/h Distance 3.66 km</desc>
<time>2011-05-22T07:03:32.80</time>
<name>775</name>
<sym>Dot</sym>
</trkpt>
<trkpt lat="40.071787" lon="-8.329593">
<ele>183.5</ele>
<desc>Speed 11.7 km/h Distance 3.67 km</desc>
<time>2011-05-22T07:03:33.79</time>
<name>776</name>
<sym>Dot</sym>
</trkpt>
<trkpt lat="40.071767" lon="-8.329620">
<ele>183.5</ele>
<desc>Speed 11.7 km/h Distance 3.67 km</desc>
<time>2011-05-22T07:03:34.79</time>
<name>777</name>
<sym>Dot</sym>
</trkpt>
<trkpt lat="40.071747" lon="-8.329647">
<ele>183.5</ele>
<desc>Speed 11.4 km/h Distance 3.67 km</desc>
<time>2011-05-22T07:03:35.79</time>
<name>778</name>
<sym>Dot</sym>
</trkpt>
<trkpt lat="40.071728" lon="-8.329673">
<ele>183.5</ele>
<desc>Speed 11.3 km/h Distance 3.68 km</desc>
<time>2011-05-22T07:03:36.79</time>
<name>779</name>
<sym>Dot</sym>
</trkpt>
<trkpt lat="40.071710" lon="-8.329698">
<ele>183.5</ele>
<desc>Speed 10.8 km/h Distance 3.68 km</desc>
<time>2011-05-22T07:03:37.79</time>
<name>780</name>
<sym>Dot</sym>
</trkpt>
<trkpt lat="40.071692" lon="-8.329723">
<ele>184.0</ele>
<desc>Speed 10.7 km/h Distance 3.68 km</desc>
<time>2011-05-22T07:03:38.78</time>
<name>781</name>
<sym>Dot</sym>
</trkpt>
<trkpt lat="40.071675" lon="-8.329748">
<ele>184.0</ele>
<desc>Speed 10.6 km/h Distance 3.68 km</desc>
<time>2011-05-22T07:03:39.78</time>
<name>782</name>
<sym>Dot</sym>
</trkpt>
<trkpt lat="40.071658" lon="-8.329775">
<ele>184.0</ele>
<desc>Speed 10.8 km/h Distance 3.69 km</desc>
<time>2011-05-22T07:03:40.78</time>
<name>783</name>
<sym>Dot</sym>
</trkpt>
<trkpt lat="40.071640" lon="-8.329800">
<ele>184.0</ele>
<desc>Speed 10.6 km/h Distance 3.69 km</desc>
<time>2011-05-22T07:03:41.78</time>
<name>784</name>
<sym>Dot</sym>
</trkpt>
<trkpt lat="40.071623" lon="-8.329823">
<ele>184.0</ele>
<desc>Speed 10.0 km/h Distance 3.69 km</desc>
<time>2011-05-22T07:03:42.77</time>
<name>785</name>
<sym>Dot</sym>
</trkpt>
<trkpt lat="40.071607" lon="-8.329847">
<ele>184.5</ele>
<desc>Speed 10.1 km/h Distance 3.70 km</desc>
<time>2011-05-22T07:03:43.77</time>
<name>786</name>
<sym>Dot</sym>
</trkpt>
<trkpt lat="40.071590" lon="-8.329870">
<ele>184.5</ele>
<desc>Speed 9.5 km/h Distance 3.70 km</desc>
<time>2011-05-22T07:03:44.77</time>
<name>787</name>
<sym>Dot</sym>
</trkpt>
<trkpt lat="40.071577" lon="-8.329888">
<ele>184.5</ele>
<desc>Speed 8.2 km/h Distance 3.70 km</desc>
<time>2011-05-22T07:03:45.76</time>
<name>788</name>
<sym>Dot</sym>
</trkpt>
<trkpt lat="40.071565" lon="-8.329900">
<ele>185.0</ele>
<desc>Speed 5.8 km/h Distance 3.70 km</desc>
<time>2011-05-22T07:03:46.76</time>
<name>789</name>
<sym>Dot</sym>
</trkpt>
<trkpt lat="40.071555" lon="-8.329908">
<ele>185.0</ele>
<desc>Speed 5.3 km/h Distance 3.70 km</desc>
<time>2011-05-22T07:03:47.75</time>
<name>790</name>
<sym>Dot</sym>
</trkpt>
<trkpt lat="40.071545" lon="-8.329920">
<ele>185.5</ele>
<desc>Speed 5.7 km/h Distance 3.71 km</desc>
<time>2011-05-22T07:03:48.75</time>
<name>791</name>
<sym>Dot</sym>
</trkpt>
<trkpt lat="40.071535" lon="-8.329935">
<ele>185.5</ele>
<desc>Speed 6.1 km/h Distance 3.71 km</desc>
<time>2011-05-22T07:03:49.74</time>
<name>792</name>
<sym>Dot</sym>
</trkpt>
<trkpt lat="40.071527" lon="-8.329953">
<ele>186.0</ele>
<desc>Speed 6.3 km/h Distance 3.71 km</desc>
<time>2011-05-22T07:03:50.74</time>
<name>793</name>
<sym>Dot</sym>
</trkpt>
<trkpt lat="40.071517" lon="-8.329973">
<ele>186.0</ele>
<desc>Speed 7.3 km/h Distance 3.71 km</desc>
<time>2011-05-22T07:03:51.74</time>
<name>794</name>
<sym>Dot</sym>
</trkpt>
<trkpt lat="40.071505" lon="-8.329993">
<ele>186.0</ele>
<desc>Speed 8.0 km/h Distance 3.71 km</desc>
<time>2011-05-22T07:03:52.74</time>
<name>795</name>
<sym>Dot</sym>
</trkpt>
<trkpt lat="40.071492" lon="-8.330015">
<ele>186.0</ele>
<desc>Speed 8.7 km/h Distance 3.72 km</desc>
<time>2011-05-22T07:03:53.74</time>
<name>796</name>
<sym>Dot</sym>
</trkpt>
<trkpt lat="40.071478" lon="-8.330038">
<ele>186.5</ele>
<desc>Speed 8.9 km/h Distance 3.72 km</desc>
<time>2011-05-22T07:03:54.73</time>
<name>797</name>
<sym>Dot</sym>
</trkpt>
<trkpt lat="40.071467" lon="-8.330060">
<ele>187.0</ele>
<desc>Speed 8.8 km/h Distance 3.72 km</desc>
<time>2011-05-22T07:03:55.73</time>
<name>798</name>
<sym>Dot</sym>
</trkpt>
<trkpt lat="40.071452" lon="-8.330083">
<ele>187.0</ele>
<desc>Speed 9.2 km/h Distance 3.72 km</desc>
<time>2011-05-22T07:03:56.73</time>
<name>799</name>
<sym>Dot</sym>
</trkpt>
<trkpt lat="40.071437" lon="-8.330107">
<ele>187.0</ele>
<desc>Speed 9.6 km/h Distance 3.73 km</desc>
<time>2011-05-22T07:03:57.72</time>
<name>800</name>
<sym>Dot</sym>
</trkpt>
<trkpt lat="40.071420" lon="-8.330132">
<ele>187.5</ele>
<desc>Speed 10.0 km/h Distance 3.73 km</desc>
<time>2011-05-22T07:03:58.72</time>
<name>801</name>
<sym>Dot</sym>
</trkpt>
<trkpt lat="40.071403" lon="-8.330155">
<ele>187.5</ele>
<desc>Speed 10.2 km/h Distance 3.73 km</desc>
<time>2011-05-22T07:03:59.72</time>
<name>802</name>
<sym>Dot</sym>
</trkpt>
<trkpt lat="40.071385" lon="-8.330180">
<ele>187.5</ele>
<desc>Speed 10.4 km/h Distance 3.73 km</desc>
<time>2011-05-22T07:04:00.72</time>
<name>803</name>
<sym>Dot</sym>
</trkpt>
<trkpt lat="40.071365" lon="-8.330203">
<ele>188.0</ele>
<desc>Speed 10.7 km/h Distance 3.74 km</desc>
<time>2011-05-22T07:04:01.72</time>
<name>804</name>
<sym>Dot</sym>
</trkpt>
<trkpt lat="40.071347" lon="-8.330227">
<ele>188.0</ele>
<desc>Speed 10.3 km/h Distance 3.74 km</desc>
<time>2011-05-22T07:04:02.72</time>
<name>805</name>
<sym>Dot</sym>
</trkpt>
<trkpt lat="40.071330" lon="-8.330250">
<ele>188.0</ele>
<desc>Speed 10.3 km/h Distance 3.74 km</desc>
<time>2011-05-22T07:04:03.71</time>
<name>806</name>
<sym>Dot</sym>
</trkpt>
<trkpt lat="40.071312" lon="-8.330273">
<ele>188.5</ele>
<desc>Speed 9.9 km/h Distance 3.75 km</desc>
<time>2011-05-22T07:04:04.71</time>
<name>807</name>
<sym>Dot</sym>
</trkpt>
<trkpt lat="40.071295" lon="-8.330297">
<ele>189.0</ele>
<desc>Speed 10.2 km/h Distance 3.75 km</desc>
<time>2011-05-22T07:04:05.71</time>
<name>808</name>
<sym>Dot</sym>
</trkpt>
<trkpt lat="40.071275" lon="-8.330322">
<ele>189.0</ele>
<desc>Speed 10.7 km/h Distance 3.75 km</desc>
<time>2011-05-22T07:04:06.70</time>
<name>809</name>
<sym>Dot</sym>
</trkpt>
<trkpt lat="40.071258" lon="-8.330347">
<ele>189.0</ele>
<desc>Speed 10.4 km/h Distance 3.75 km</desc>
<time>2011-05-22T07:04:07.70</time>
<name>810</name>
<sym>Dot</sym>
</trkpt>
<trkpt lat="40.071240" lon="-8.330372">
<ele>189.5</ele>
<desc>Speed 10.3 km/h Distance 3.76 km</desc>
<time>2011-05-22T07:04:08.70</time>
<name>811</name>
<sym>Dot</sym>
</trkpt>
<trkpt lat="40.071222" lon="-8.330395">
<ele>189.5</ele>
<desc>Speed 10.4 km/h Distance 3.76 km</desc>
<time>2011-05-22T07:04:09.69</time>
<name>812</name>
<sym>Dot</sym>
</trkpt>
<trkpt lat="40.071205" lon="-8.330420">
<ele>189.5</ele>
<desc>Speed 10.3 km/h Distance 3.76 km</desc>
<time>2011-05-22T07:04:10.69</time>
<name>813</name>
<sym>Dot</sym>
</trkpt>
<trkpt lat="40.071188" lon="-8.330443">
<ele>189.5</ele>
<desc>Speed 10.0 km/h Distance 3.76 km</desc>
<time>2011-05-22T07:04:11.69</time>
<name>814</name>
<sym>Dot</sym>
</trkpt>
<trkpt lat="40.071172" lon="-8.330468">
<ele>189.5</ele>
<desc>Speed 9.9 km/h Distance 3.77 km</desc>
<time>2011-05-22T07:04:12.68</time>
<name>815</name>
<sym>Dot</sym>
</trkpt>
<trkpt lat="40.071157" lon="-8.330492">
<ele>190.0</ele>
<desc>Speed 9.6 km/h Distance 3.77 km</desc>
<time>2011-05-22T07:04:13.68</time>
<name>816</name>
<sym>Dot</sym>
</trkpt>
<trkpt lat="40.071140" lon="-8.330513">
<ele>190.0</ele>
<desc>Speed 9.3 km/h Distance 3.77 km</desc>
<time>2011-05-22T07:04:14.68</time>
<name>817</name>
<sym>Dot</sym>
</trkpt>
<trkpt lat="40.071125" lon="-8.330537">
<ele>190.0</ele>
<desc>Speed 9.2 km/h Distance 3.78 km</desc>
<time>2011-05-22T07:04:15.67</time>
<name>818</name>
<sym>Dot</sym>
</trkpt>
<trkpt lat="40.071110" lon="-8.330558">
<ele>190.0</ele>
<desc>Speed 9.1 km/h Distance 3.78 km</desc>
<time>2011-05-22T07:04:16.67</time>
<name>819</name>
<sym>Dot</sym>
</trkpt>
<trkpt lat="40.071095" lon="-8.330582">
<ele>190.0</ele>
<desc>Speed 9.2 km/h Distance 3.78 km</desc>
<time>2011-05-22T07:04:17.66</time>
<name>820</name>
<sym>Dot</sym>
</trkpt>
<trkpt lat="40.071080" lon="-8.330605">
<ele>190.0</ele>
<desc>Speed 9.5 km/h Distance 3.78 km</desc>
<time>2011-05-22T07:04:18.66</time>
<name>821</name>
<sym>Dot</sym>
</trkpt>
<trkpt lat="40.071063" lon="-8.330628">
<ele>190.0</ele>
<desc>Speed 9.7 km/h Distance 3.79 km</desc>
<time>2011-05-22T07:04:19.65</time>
<name>822</name>
<sym>Dot</sym>
</trkpt>
<trkpt lat="40.071048" lon="-8.330653">
<ele>190.5</ele>
<desc>Speed 9.9 km/h Distance 3.79 km</desc>
<time>2011-05-22T07:04:20.65</time>
<name>823</name>
<sym>Dot</sym>
</trkpt>
<trkpt lat="40.071030" lon="-8.330677">
<ele>190.5</ele>
<desc>Speed 10.0 km/h Distance 3.79 km</desc>
<time>2011-05-22T07:04:21.65</time>
<name>824</name>
<sym>Dot</sym>
</trkpt>
<trkpt lat="40.071015" lon="-8.330702">
<ele>190.5</ele>
<desc>Speed 10.1 km/h Distance 3.79 km</desc>
<time>2011-05-22T07:04:22.64</time>
<name>825</name>
<sym>Dot</sym>
</trkpt>
<trkpt lat="40.070998" lon="-8.330727">
<ele>190.5</ele>
<desc>Speed 9.9 km/h Distance 3.80 km</desc>
<time>2011-05-22T07:04:23.64</time>
<name>826</name>
<sym>Dot</sym>
</trkpt>
<trkpt lat="40.070983" lon="-8.330750">
<ele>190.5</ele>
<desc>Speed 9.6 km/h Distance 3.80 km</desc>
<time>2011-05-22T07:04:24.64</time>
<name>827</name>
<sym>Dot</sym>
</trkpt>
<trkpt lat="40.070967" lon="-8.330773">
<ele>190.5</ele>
<desc>Speed 9.6 km/h Distance 3.80 km</desc>
<time>2011-05-22T07:04:25.64</time>
<name>828</name>
<sym>Dot</sym>
</trkpt>
<trkpt lat="40.070953" lon="-8.330798">
<ele>190.5</ele>
<desc>Speed 9.6 km/h Distance 3.81 km</desc>
<time>2011-05-22T07:04:26.64</time>
<name>829</name>
<sym>Dot</sym>
</trkpt>
<trkpt lat="40.070938" lon="-8.330827">
<ele>190.5</ele>
<desc>Speed 10.2 km/h Distance 3.81 km</desc>
<time>2011-05-22T07:04:27.63</time>
<name>830</name>
<sym>Dot</sym>
</trkpt>
<trkpt lat="40.070922" lon="-8.330852">
<ele>190.5</ele>
<desc>Speed 10.2 km/h Distance 3.81 km</desc>
<time>2011-05-22T07:04:28.63</time>
<name>831</name>
<sym>Dot</sym>
</trkpt>
<trkpt lat="40.070907" lon="-8.330878">
<ele>190.5</ele>
<desc>Speed 10.0 km/h Distance 3.81 km</desc>
<time>2011-05-22T07:04:29.63</time>
<name>832</name>
<sym>Dot</sym>
</trkpt>
<trkpt lat="40.070890" lon="-8.330903">
<ele>190.5</ele>
<desc>Speed 10.0 km/h Distance 3.82 km</desc>
<time>2011-05-22T07:04:30.62</time>
<name>833</name>
<sym>Dot</sym>
</trkpt>
<trkpt lat="40.070873" lon="-8.330928">
<ele>190.5</ele>
<desc>Speed 10.1 km/h Distance 3.82 km</desc>
<time>2011-05-22T07:04:31.61</time>
<name>834</name>
<sym>Dot</sym>
</trkpt>
<trkpt lat="40.070858" lon="-8.330953">
<ele>191.0</ele>
<desc>Speed 9.9 km/h Distance 3.82 km</desc>
<time>2011-05-22T07:04:32.61</time>
<name>835</name>
<sym>Dot</sym>
</trkpt>
<trkpt lat="40.070843" lon="-8.330978">
<ele>191.0</ele>
<desc>Speed 9.9 km/h Distance 3.82 km</desc>
<time>2011-05-22T07:04:33.61</time>
<name>836</name>
<sym>Dot</sym>
</trkpt>
<trkpt lat="40.070827" lon="-8.331003">
<ele>191.0</ele>
<desc>Speed 9.9 km/h Distance 3.83 km</desc>
<time>2011-05-22T07:04:34.60</time>
<name>837</name>
<sym>Dot</sym>
</trkpt>
<trkpt lat="40.070812" lon="-8.331028">
<ele>191.0</ele>
<desc>Speed 10.1 km/h Distance 3.83 km</desc>
<time>2011-05-22T07:04:35.60</time>
<name>838</name>
<sym>Dot</sym>
</trkpt>
<trkpt lat="40.070797" lon="-8.331053">
<ele>191.0</ele>
<desc>Speed 10.1 km/h Distance 3.83 km</desc>
<time>2011-05-22T07:04:36.60</time>
<name>839</name>
<sym>Dot</sym>
</trkpt>
<trkpt lat="40.070780" lon="-8.331078">
<ele>191.0</ele>
<desc>Speed 9.9 km/h Distance 3.84 km</desc>
<time>2011-05-22T07:04:37.59</time>
<name>840</name>
<sym>Dot</sym>
</trkpt>
<trkpt lat="40.070765" lon="-8.331103">
<ele>191.5</ele>
<desc>Speed 9.8 km/h Distance 3.84 km</desc>
<time>2011-05-22T07:04:38.59</time>
<name>841</name>
<sym>Dot</sym>
</trkpt>
<trkpt lat="40.070750" lon="-8.331130">
<ele>191.5</ele>
<desc>Speed 9.9 km/h Distance 3.84 km</desc>
<time>2011-05-22T07:04:39.59</time>
<name>842</name>
<sym>Dot</sym>
</trkpt>
<trkpt lat="40.070735" lon="-8.331155">
<ele>191.5</ele>
<desc>Speed 10.1 km/h Distance 3.84 km</desc>
<time>2011-05-22T07:04:40.58</time>
<name>843</name>
<sym>Dot</sym>
</trkpt>
<trkpt lat="40.070718" lon="-8.331178">
<ele>192.0</ele>
<desc>Speed 10.0 km/h Distance 3.85 km</desc>
<time>2011-05-22T07:04:41.58</time>
<name>844</name>
<sym>Dot</sym>
</trkpt>
<trkpt lat="40.070702" lon="-8.331202">
<ele>192.0</ele>
<desc>Speed 10.1 km/h Distance 3.85 km</desc>
<time>2011-05-22T07:04:42.57</time>
<name>845</name>
<sym>Dot</sym>
</trkpt>
<trkpt lat="40.070683" lon="-8.331225">
<ele>192.0</ele>
<desc>Speed 10.1 km/h Distance 3.85 km</desc>
<time>2011-05-22T07:04:43.57</time>
<name>846</name>
<sym>Dot</sym>
</trkpt>
<trkpt lat="40.070663" lon="-8.331245">
<ele>192.0</ele>
<desc>Speed 10.2 km/h Distance 3.86 km</desc>
<time>2011-05-22T07:04:44.57</time>
<name>847</name>
<sym>Dot</sym>
</trkpt>
<trkpt lat="40.070643" lon="-8.331265">
<ele>192.5</ele>
<desc>Speed 10.1 km/h Distance 3.86 km</desc>
<time>2011-05-22T07:04:45.57</time>
<name>848</name>
<sym>Dot</sym>
</trkpt>
<trkpt lat="40.070623" lon="-8.331287">
<ele>192.5</ele>
<desc>Speed 10.2 km/h Distance 3.86 km</desc>
<time>2011-05-22T07:04:46.56</time>
<name>849</name>
<sym>Dot</sym>
</trkpt>
<trkpt lat="40.070605" lon="-8.331305">
<ele>193.0</ele>
<desc>Speed 9.9 km/h Distance 3.86 km</desc>
<time>2011-05-22T07:04:47.56</time>
<name>850</name>
<sym>Dot</sym>
</trkpt>
<trkpt lat="40.070583" lon="-8.331323">
<ele>193.0</ele>
<desc>Speed 9.9 km/h Distance 3.87 km</desc>
<time>2011-05-22T07:04:48.56</time>
<name>851</name>
<sym>Dot</sym>
</trkpt>
<trkpt lat="40.070562" lon="-8.331337">
<ele>193.0</ele>
<desc>Speed 9.6 km/h Distance 3.87 km</desc>
<time>2011-05-22T07:04:49.56</time>
<name>852</name>
<sym>Dot</sym>
</trkpt>
<trkpt lat="40.070540" lon="-8.331352">
<ele>193.5</ele>
<desc>Speed 9.6 km/h Distance 3.87 km</desc>
<time>2011-05-22T07:04:50.56</time>
<name>853</name>
<sym>Dot</sym>
</trkpt>
<trkpt lat="40.070520" lon="-8.331365">
<ele>193.5</ele>
<desc>Speed 9.6 km/h Distance 3.87 km</desc>
<time>2011-05-22T07:04:51.56</time>
<name>854</name>
<sym>Dot</sym>
</trkpt>
<trkpt lat="40.070498" lon="-8.331378">
<ele>194.0</ele>
<desc>Speed 9.5 km/h Distance 3.88 km</desc>
<time>2011-05-22T07:04:52.55</time>
<name>855</name>
<sym>Dot</sym>
</trkpt>
<trkpt lat="40.070477" lon="-8.331390">
<ele>194.0</ele>
<desc>Speed 9.4 km/h Distance 3.88 km</desc>
<time>2011-05-22T07:04:53.55</time>
<name>856</name>
<sym>Dot</sym>
</trkpt>
<trkpt lat="40.070457" lon="-8.331400">
<ele>194.5</ele>
<desc>Speed 8.8 km/h Distance 3.88 km</desc>
<time>2011-05-22T07:04:54.55</time>
<name>857</name>
<sym>Dot</sym>
</trkpt>
<trkpt lat="40.070435" lon="-8.331410">
<ele>195.0</ele>
<desc>Speed 9.1 km/h Distance 3.88 km</desc>
<time>2011-05-22T07:04:55.54</time>
<name>858</name>
<sym>Dot</sym>
</trkpt>
<trkpt lat="40.070415" lon="-8.331420">
<ele>195.5</ele>
<desc>Speed 8.9 km/h Distance 3.89 km</desc>
<time>2011-05-22T07:04:56.54</time>
<name>859</name>
<sym>Dot</sym>
</trkpt>
<trkpt lat="40.070392" lon="-8.331428">
<ele>196.0</ele>
<desc>Speed 9.3 km/h Distance 3.89 km</desc>
<time>2011-05-22T07:04:57.53</time>
<name>860</name>
<sym>Dot</sym>
</trkpt>
<trkpt lat="40.070370" lon="-8.331437">
<ele>196.5</ele>
<desc>Speed 8.8 km/h Distance 3.89 km</desc>
<time>2011-05-22T07:04:58.53</time>
<name>861</name>
<sym>Dot</sym>
</trkpt>
<trkpt lat="40.070348" lon="-8.331445">
<ele>196.5</ele>
<desc>Speed 9.0 km/h Distance 3.89 km</desc>
<time>2011-05-22T07:04:59.52</time>
<name>862</name>
<sym>Dot</sym>
</trkpt>
<trkpt lat="40.070328" lon="-8.331452">
<ele>197.0</ele>
<desc>Speed 8.8 km/h Distance 3.90 km</desc>
<time>2011-05-22T07:05:00.52</time>
<name>863</name>
<sym>Dot</sym>
</trkpt>
<trkpt lat="40.070307" lon="-8.331460">
<ele>197.0</ele>
<desc>Speed 8.7 km/h Distance 3.90 km</desc>
<time>2011-05-22T07:05:01.53</time>
<name>864</name>
<sym>Dot</sym>
</trkpt>
<trkpt lat="40.070285" lon="-8.331467">
<ele>197.5</ele>
<desc>Speed 8.6 km/h Distance 3.90 km</desc>
<time>2011-05-22T07:05:02.53</time>
<name>865</name>
<sym>Dot</sym>
</trkpt>
<trkpt lat="40.070263" lon="-8.331475">
<ele>198.0</ele>
<desc>Speed 9.1 km/h Distance 3.90 km</desc>
<time>2011-05-22T07:05:03.52</time>
<name>866</name>
<sym>Dot</sym>
</trkpt>
<trkpt lat="40.070245" lon="-8.331483">
<ele>198.5</ele>
<desc>Speed 7.5 km/h Distance 3.91 km</desc>
<time>2011-05-22T07:05:04.51</time>
<name>867</name>
<sym>Dot</sym>
</trkpt>
<trkpt lat="40.070225" lon="-8.331490">
<ele>199.5</ele>
<desc>Speed 7.9 km/h Distance 3.91 km</desc>
<time>2011-05-22T07:05:05.52</time>
<name>868</name>
<sym>Dot</sym>
</trkpt>
<trkpt lat="40.070205" lon="-8.331497">
<ele>200.0</ele>
<desc>Speed 7.8 km/h Distance 3.91 km</desc>
<time>2011-05-22T07:05:06.52</time>
<name>869</name>
<sym>Dot</sym>
</trkpt>
<trkpt lat="40.070185" lon="-8.331503">
<ele>200.5</ele>
<desc>Speed 8.5 km/h Distance 3.91 km</desc>
<time>2011-05-22T07:05:07.52</time>
<name>870</name>
<sym>Dot</sym>
</trkpt>
<trkpt lat="40.070162" lon="-8.331508">
<ele>200.5</ele>
<desc>Speed 9.1 km/h Distance 3.92 km</desc>
<time>2011-05-22T07:05:08.50</time>
<name>871</name>
<sym>Dot</sym>
</trkpt>
<trkpt lat="40.070138" lon="-8.331510">
<ele>200.5</ele>
<desc>Speed 9.0 km/h Distance 3.92 km</desc>
<time>2011-05-22T07:05:09.50</time>
<name>872</name>
<sym>Dot</sym>
</trkpt>
<trkpt lat="40.070115" lon="-8.331512">
<ele>200.5</ele>
<desc>Speed 8.6 km/h Distance 3.92 km</desc>
<time>2011-05-22T07:05:10.51</time>
<name>873</name>
<sym>Dot</sym>
</trkpt>
<trkpt lat="40.070093" lon="-8.331517">
<ele>201.0</ele>
<desc>Speed 8.4 km/h Distance 3.92 km</desc>
<time>2011-05-22T07:05:11.50</time>
<name>874</name>
<sym>Dot</sym>
</trkpt>
<trkpt lat="40.070073" lon="-8.331520">
<ele>201.0</ele>
<desc>Speed 8.6 km/h Distance 3.93 km</desc>
<time>2011-05-22T07:05:12.50</time>
<name>875</name>
<sym>Dot</sym>
</trkpt>
<trkpt lat="40.070052" lon="-8.331522">
<ele>201.0</ele>
<desc>Speed 8.2 km/h Distance 3.93 km</desc>
<time>2011-05-22T07:05:13.50</time>
<name>876</name>
<sym>Dot</sym>
</trkpt>
<trkpt lat="40.070032" lon="-8.331523">
<ele>201.5</ele>
<desc>Speed 7.5 km/h Distance 3.93 km</desc>
<time>2011-05-22T07:05:14.49</time>
<name>877</name>
<sym>Dot</sym>
</trkpt>
<trkpt lat="40.070010" lon="-8.331525">
<ele>201.5</ele>
<desc>Speed 8.0 km/h Distance 3.93 km</desc>
<time>2011-05-22T07:05:15.48</time>
<name>878</name>
<sym>Dot</sym>
</trkpt>
<trkpt lat="40.069990" lon="-8.331527">
<ele>201.5</ele>
<desc>Speed 7.9 km/h Distance 3.94 km</desc>
<time>2011-05-22T07:05:16.48</time>
<name>879</name>
<sym>Dot</sym>
</trkpt>
<trkpt lat="40.069970" lon="-8.331527">
<ele>201.5</ele>
<desc>Speed 8.1 km/h Distance 3.94 km</desc>
<time>2011-05-22T07:05:17.47</time>
<name>880</name>
<sym>Dot</sym>
</trkpt>
<trkpt lat="40.069948" lon="-8.331525">
<ele>202.0</ele>
<desc>Speed 8.0 km/h Distance 3.94 km</desc>
<time>2011-05-22T07:05:18.47</time>
<name>881</name>
<sym>Dot</sym>
</trkpt>
<trkpt lat="40.069927" lon="-8.331523">
<ele>202.0</ele>
<desc>Speed 8.5 km/h Distance 3.94 km</desc>
<time>2011-05-22T07:05:19.48</time>
<name>882</name>
<sym>Dot</sym>
</trkpt>
<trkpt lat="40.069905" lon="-8.331522">
<ele>202.5</ele>
<desc>Speed 8.5 km/h Distance 3.94 km</desc>
<time>2011-05-22T07:05:20.48</time>
<name>883</name>
<sym>Dot</sym>
</trkpt>
<trkpt lat="40.069882" lon="-8.331518">
<ele>202.5</ele>
<desc>Speed 8.7 km/h Distance 3.95 km</desc>
<time>2011-05-22T07:05:21.47</time>
<name>884</name>
<sym>Dot</sym>
</trkpt>
<trkpt lat="40.069862" lon="-8.331513">
<ele>203.0</ele>
<desc>Speed 8.3 km/h Distance 3.95 km</desc>
<time>2011-05-22T07:05:22.46</time>
<name>885</name>
<sym>Dot</sym>
</trkpt>
<trkpt lat="40.069838" lon="-8.331508">
<ele>203.0</ele>
<desc>Speed 8.6 km/h Distance 3.95 km</desc>
<time>2011-05-22T07:05:23.46</time>
<name>886</name>
<sym>Dot</sym>
</trkpt>
<trkpt lat="40.069817" lon="-8.331502">
<ele>203.0</ele>
<desc>Speed 8.9 km/h Distance 3.95 km</desc>
<time>2011-05-22T07:05:24.46</time>
<name>887</name>
<sym>Dot</sym>
</trkpt>
<trkpt lat="40.069793" lon="-8.331497">
<ele>203.0</ele>
<desc>Speed 9.2 km/h Distance 3.96 km</desc>
<time>2011-05-22T07:05:25.45</time>
<name>888</name>
<sym>Dot</sym>
</trkpt>
<trkpt lat="40.069768" lon="-8.331488">
<ele>203.5</ele>
<desc>Speed 9.6 km/h Distance 3.96 km</desc>
<time>2011-05-22T07:05:26.45</time>
<name>889</name>
<sym>Dot</sym>
</trkpt>
<trkpt lat="40.069745" lon="-8.331483">
<ele>203.5</ele>
<desc>Speed 9.3 km/h Distance 3.96 km</desc>
<time>2011-05-22T07:05:27.43</time>
<name>890</name>
<sym>Dot</sym>
</trkpt>
<trkpt lat="40.069718" lon="-8.331475">
<ele>204.0</ele>
<desc>Speed 10.1 km/h Distance 3.97 km</desc>
<time>2011-05-22T07:05:28.43</time>
<name>891</name>
<sym>Dot</sym>
</trkpt>
<trkpt lat="40.069692" lon="-8.331465">
<ele>204.5</ele>
<desc>Speed 10.8 km/h Distance 3.97 km</desc>
<time>2011-05-22T07:05:29.43</time>
<name>892</name>
<sym>Dot</sym>
</trkpt>
<trkpt lat="40.069665" lon="-8.331453">
<ele>205.0</ele>
<desc>Speed 11.3 km/h Distance 3.97 km</desc>
<time>2011-05-22T07:05:30.42</time>
<name>893</name>
<sym>Dot</sym>
</trkpt>
<trkpt lat="40.069637" lon="-8.331440">
<ele>205.0</ele>
<desc>Speed 11.4 km/h Distance 3.98 km</desc>
<time>2011-05-22T07:05:31.42</time>
<name>894</name>
<sym>Dot</sym>
</trkpt>
<trkpt lat="40.069610" lon="-8.331427">
<ele>205.5</ele>
<desc>Speed 11.7 km/h Distance 3.98 km</desc>
<time>2011-05-22T07:05:32.42</time>
<name>895</name>
<sym>Dot</sym>
</trkpt>
<trkpt lat="40.069578" lon="-8.331413">
<ele>206.0</ele>
<desc>Speed 12.6 km/h Distance 3.98 km</desc>
<time>2011-05-22T07:05:33.41</time>
<name>896</name>
<sym>Dot</sym>
</trkpt>
<trkpt lat="40.069548" lon="-8.331400">
<ele>206.0</ele>
<desc>Speed 12.6 km/h Distance 3.99 km</desc>
<time>2011-05-22T07:05:34.41</time>
<name>897</name>
<sym>Dot</sym>
</trkpt>
<trkpt lat="40.069518" lon="-8.331383">
<ele>206.5</ele>
<desc>Speed 13.1 km/h Distance 3.99 km</desc>
<time>2011-05-22T07:05:35.40</time>
<name>898</name>
<sym>Dot</sym>
</trkpt>
<trkpt lat="40.069487" lon="-8.331367">
<ele>206.0</ele>
<desc>Speed 13.4 km/h Distance 3.99 km</desc>
<time>2011-05-22T07:05:36.40</time>
<name>899</name>
<sym>Dot</sym>
</trkpt>
<trkpt lat="40.069453" lon="-8.331345">
<ele>206.0</ele>
<desc>Speed 14.2 km/h Distance 4.00 km</desc>
<time>2011-05-22T07:05:37.41</time>
<name>900</name>
<sym>Dot</sym>
</trkpt>
<trkpt lat="40.069418" lon="-8.331323">
<ele>206.0</ele>
<desc>Speed 14.6 km/h Distance 4.00 km</desc>
<time>2011-05-22T07:05:38.40</time>
<name>901</name>
<sym>Dot</sym>
</trkpt>
<trkpt lat="40.069383" lon="-8.331302">
<ele>205.5</ele>
<desc>Speed 15.0 km/h Distance 4.01 km</desc>
<time>2011-05-22T07:05:39.40</time>
<name>902</name>
<sym>Dot</sym>
</trkpt>
<trkpt lat="40.069347" lon="-8.331278">
<ele>205.5</ele>
<desc>Speed 16.0 km/h Distance 4.01 km</desc>
<time>2011-05-22T07:05:40.40</time>
<name>903</name>
<sym>Dot</sym>
</trkpt>
<trkpt lat="40.069310" lon="-8.331252">
<ele>205.0</ele>
<desc>Speed 16.5 km/h Distance 4.02 km</desc>
<time>2011-05-22T07:05:41.40</time>
<name>904</name>
<sym>Dot</sym>
</trkpt>
<trkpt lat="40.069273" lon="-8.331225">
<ele>205.0</ele>
<desc>Speed 16.5 km/h Distance 4.02 km</desc>
<time>2011-05-22T07:05:42.39</time>
<name>905</name>
<sym>Dot</sym>
</trkpt>
<trkpt lat="40.069235" lon="-8.331200">
<ele>205.0</ele>
<desc>Speed 16.4 km/h Distance 4.02 km</desc>
<time>2011-05-22T07:05:43.38</time>
<name>906</name>
<sym>Dot</sym>
</trkpt>
<trkpt lat="40.069198" lon="-8.331173">
<ele>204.5</ele>
<desc>Speed 16.4 km/h Distance 4.03 km</desc>
<time>2011-05-22T07:05:44.38</time>
<name>907</name>
<sym>Dot</sym>
</trkpt>
<trkpt lat="40.069165" lon="-8.331147">
<ele>204.5</ele>
<desc>Speed 16.0 km/h Distance 4.03 km</desc>
<time>2011-05-22T07:05:45.38</time>
<name>908</name>
<sym>Dot</sym>
</trkpt>
<trkpt lat="40.069132" lon="-8.331115">
<ele>204.5</ele>
<desc>Speed 16.0 km/h Distance 4.04 km</desc>
<time>2011-05-22T07:05:46.37</time>
<name>909</name>
<sym>Dot</sym>
</trkpt>
<trkpt lat="40.069098" lon="-8.331088">
<ele>204.5</ele>
<desc>Speed 15.7 km/h Distance 4.04 km</desc>
<time>2011-05-22T07:05:47.37</time>
<name>910</name>
<sym>Dot</sym>
</trkpt>
<trkpt lat="40.069063" lon="-8.331065">
<ele>204.0</ele>
<desc>Speed 15.6 km/h Distance 4.05 km</desc>
<time>2011-05-22T07:05:48.37</time>
<name>911</name>
<sym>Dot</sym>
</trkpt>
<trkpt lat="40.069028" lon="-8.331042">
<ele>204.0</ele>
<desc>Speed 15.6 km/h Distance 4.05 km</desc>
<time>2011-05-22T07:05:49.37</time>
<name>912</name>
<sym>Dot</sym>
</trkpt>
<trkpt lat="40.068995" lon="-8.331017">
<ele>203.5</ele>
<desc>Speed 15.5 km/h Distance 4.06 km</desc>
<time>2011-05-22T07:05:50.36</time>
<name>913</name>
<sym>Dot</sym>
</trkpt>
<trkpt lat="40.068960" lon="-8.330993">
<ele>203.5</ele>
<desc>Speed 15.4 km/h Distance 4.06 km</desc>
<time>2011-05-22T07:05:51.36</time>
<name>914</name>
<sym>Dot</sym>
</trkpt>
<trkpt lat="40.068925" lon="-8.330972">
<ele>203.5</ele>
<desc>Speed 15.5 km/h Distance 4.06 km</desc>
<time>2011-05-22T07:05:52.36</time>
<name>915</name>
<sym>Dot</sym>
</trkpt>
<trkpt lat="40.068890" lon="-8.330948">
<ele>203.0</ele>
<desc>Speed 16.2 km/h Distance 4.07 km</desc>
<time>2011-05-22T07:05:53.35</time>
<name>916</name>
<sym>Dot</sym>
</trkpt>
<trkpt lat="40.068852" lon="-8.330925">
<ele>203.0</ele>
<desc>Speed 16.7 km/h Distance 4.07 km</desc>
<time>2011-05-22T07:05:54.36</time>
<name>917</name>
<sym>Dot</sym>
</trkpt>
<trkpt lat="40.068813" lon="-8.330900">
<ele>203.0</ele>
<desc>Speed 17.2 km/h Distance 4.08 km</desc>
<time>2011-05-22T07:05:55.35</time>
<name>918</name>
<sym>Dot</sym>
</trkpt>
<trkpt lat="40.068775" lon="-8.330875">
<ele>202.5</ele>
<desc>Speed 17.4 km/h Distance 4.08 km</desc>
<time>2011-05-22T07:05:56.35</time>
<name>919</name>
<sym>Dot</sym>
</trkpt>
<trkpt lat="40.068733" lon="-8.330852">
<ele>202.5</ele>
<desc>Speed 17.9 km/h Distance 4.09 km</desc>
<time>2011-05-22T07:05:57.34</time>
<name>920</name>
<sym>Dot</sym>
</trkpt>
<trkpt lat="40.068692" lon="-8.330830">
<ele>202.5</ele>
<desc>Speed 18.0 km/h Distance 4.09 km</desc>
<time>2011-05-22T07:05:58.33</time>
<name>921</name>
<sym>Dot</sym>
</trkpt>
<trkpt lat="40.068648" lon="-8.330812">
<ele>202.5</ele>
<desc>Speed 18.5 km/h Distance 4.10 km</desc>
<time>2011-05-22T07:05:59.33</time>
<name>922</name>
<sym>Dot</sym>
</trkpt>
<trkpt lat="40.068603" lon="-8.330793">
<ele>202.5</ele>
<desc>Speed 18.9 km/h Distance 4.10 km</desc>
<time>2011-05-22T07:06:00.33</time>
<name>923</name>
<sym>Dot</sym>
</trkpt>
<trkpt lat="40.068557" lon="-8.330777">
<ele>202.0</ele>
<desc>Speed 19.0 km/h Distance 4.11 km</desc>
<time>2011-05-22T07:06:01.32</time>
<name>924</name>
<sym>Dot</sym>
</trkpt>
<trkpt lat="40.068510" lon="-8.330762">
<ele>202.0</ele>
<desc>Speed 19.1 km/h Distance 4.11 km</desc>
<time>2011-05-22T07:06:02.32</time>
<name>925</name>
<sym>Dot</sym>
</trkpt>
<trkpt lat="40.068463" lon="-8.330750">
<ele>201.5</ele>
<desc>Speed 19.0 km/h Distance 4.12 km</desc>
<time>2011-05-22T07:06:03.32</time>
<name>926</name>
<sym>Dot</sym>
</trkpt>
<trkpt lat="40.068417" lon="-8.330742">
<ele>201.5</ele>
<desc>Speed 18.7 km/h Distance 4.12 km</desc>
<time>2011-05-22T07:06:04.31</time>
<name>927</name>
<sym>Dot</sym>
</trkpt>
<trkpt lat="40.068372" lon="-8.330737">
<ele>201.5</ele>
<desc>Speed 18.4 km/h Distance 4.13 km</desc>
<time>2011-05-22T07:06:05.32</time>
<name>928</name>
<sym>Dot</sym>
</trkpt>
<trkpt lat="40.068327" lon="-8.330735">
<ele>201.5</ele>
<desc>Speed 17.7 km/h Distance 4.13 km</desc>
<time>2011-05-22T07:06:06.31</time>
<name>929</name>
<sym>Dot</sym>
</trkpt>
<trkpt lat="40.068283" lon="-8.330735">
<ele>201.5</ele>
<desc>Speed 17.0 km/h Distance 4.14 km</desc>
<time>2011-05-22T07:06:07.31</time>
<name>930</name>
<sym>Dot</sym>
</trkpt>
<trkpt lat="40.068242" lon="-8.330737">
<ele>201.5</ele>
<desc>Speed 16.7 km/h Distance 4.14 km</desc>
<time>2011-05-22T07:06:08.31</time>
<name>931</name>
<sym>Dot</sym>
</trkpt>
<trkpt lat="40.068202" lon="-8.330740">
<ele>201.5</ele>
<desc>Speed 16.3 km/h Distance 4.15 km</desc>
<time>2011-05-22T07:06:09.31</time>
<name>932</name>
<sym>Dot</sym>
</trkpt>
<trkpt lat="40.068162" lon="-8.330747">
<ele>201.5</ele>
<desc>Speed 15.7 km/h Distance 4.15 km</desc>
<time>2011-05-22T07:06:10.30</time>
<name>933</name>
<sym>Dot</sym>
</trkpt>
<trkpt lat="40.068125" lon="-8.330755">
<ele>201.5</ele>
<desc>Speed 15.1 km/h Distance 4.16 km</desc>
<time>2011-05-22T07:06:11.30</time>
<name>934</name>
<sym>Dot</sym>
</trkpt>
<trkpt lat="40.068088" lon="-8.330765">
<ele>201.5</ele>
<desc>Speed 14.9 km/h Distance 4.16 km</desc>
<time>2011-05-22T07:06:12.30</time>
<name>935</name>
<sym>Dot</sym>
</trkpt>
<trkpt lat="40.068055" lon="-8.330777">
<ele>202.0</ele>
<desc>Speed 14.2 km/h Distance 4.17 km</desc>
<time>2011-05-22T07:06:13.30</time>
<name>936</name>
<sym>Dot</sym>
</trkpt>
<trkpt lat="40.068023" lon="-8.330788">
<ele>202.0</ele>
<desc>Speed 13.3 km/h Distance 4.17 km</desc>
<time>2011-05-22T07:06:14.30</time>
<name>937</name>
<sym>Dot</sym>
</trkpt>
<trkpt lat="40.067993" lon="-8.330802">
<ele>202.0</ele>
<desc>Speed 12.2 km/h Distance 4.17 km</desc>
<time>2011-05-22T07:06:15.30</time>
<name>938</name>
<sym>Dot</sym>
</trkpt>
<trkpt lat="40.067967" lon="-8.330813">
<ele>202.5</ele>
<desc>Speed 11.6 km/h Distance 4.18 km</desc>
<time>2011-05-22T07:06:16.30</time>
<name>939</name>
<sym>Dot</sym>
</trkpt>
<trkpt lat="40.067940" lon="-8.330827">
<ele>202.5</ele>
<desc>Speed 11.4 km/h Distance 4.18 km</desc>
<time>2011-05-22T07:06:17.29</time>
<name>940</name>
<sym>Dot</sym>
</trkpt>
<trkpt lat="40.067913" lon="-8.330842">
<ele>203.0</ele>
<desc>Speed 11.7 km/h Distance 4.18 km</desc>
<time>2011-05-22T07:06:18.29</time>
<name>941</name>
<sym>Dot</sym>
</trkpt>
<trkpt lat="40.067887" lon="-8.330857">
<ele>203.0</ele>
<desc>Speed 11.7 km/h Distance 4.19 km</desc>
<time>2011-05-22T07:06:19.29</time>
<name>942</name>
<sym>Dot</sym>
</trkpt>
<trkpt lat="40.067860" lon="-8.330872">
<ele>203.0</ele>
<desc>Speed 11.6 km/h Distance 4.19 km</desc>
<time>2011-05-22T07:06:20.29</time>
<name>943</name>
<sym>Dot</sym>
</trkpt>
<trkpt lat="40.067835" lon="-8.330887">
<ele>203.5</ele>
<desc>Speed 10.9 km/h Distance 4.19 km</desc>
<time>2011-05-22T07:06:21.29</time>
<name>944</name>
<sym>Dot</sym>
</trkpt>
<trkpt lat="40.067812" lon="-8.330900">
<ele>203.5</ele>
<desc>Speed 10.4 km/h Distance 4.19 km</desc>
<time>2011-05-22T07:06:22.28</time>
<name>945</name>
<sym>Dot</sym>
</trkpt>
<trkpt lat="40.067790" lon="-8.330915">
<ele>203.5</ele>
<desc>Speed 10.5 km/h Distance 4.20 km</desc>
<time>2011-05-22T07:06:23.28</time>
<name>946</name>
<sym>Dot</sym>
</trkpt>
<trkpt lat="40.067767" lon="-8.330932">
<ele>204.0</ele>
<desc>Speed 10.5 km/h Distance 4.20 km</desc>
<time>2011-05-22T07:06:24.28</time>
<name>947</name>
<sym>Dot</sym>
</trkpt>
<trkpt lat="40.067745" lon="-8.330948">
<ele>204.0</ele>
<desc>Speed 10.5 km/h Distance 4.20 km</desc>
<time>2011-05-22T07:06:25.27</time>
<name>948</name>
<sym>Dot</sym>
</trkpt>
<trkpt lat="40.067722" lon="-8.330963">
<ele>204.0</ele>
<desc>Speed 10.1 km/h Distance 4.21 km</desc>
<time>2011-05-22T07:06:26.27</time>
<name>949</name>
<sym>Dot</sym>
</trkpt>
<trkpt lat="40.067700" lon="-8.330977">
<ele>204.0</ele>
<desc>Speed 9.8 km/h Distance 4.21 km</desc>
<time>2011-05-22T07:06:27.27</time>
<name>950</name>
<sym>Dot</sym>
</trkpt>
<trkpt lat="40.067678" lon="-8.330990">
<ele>204.0</ele>
<desc>Speed 9.5 km/h Distance 4.21 km</desc>
<time>2011-05-22T07:06:28.26</time>
<name>951</name>
<sym>Dot</sym>
</trkpt>
<trkpt lat="40.067660" lon="-8.331005">
<ele>204.0</ele>
<desc>Speed 8.6 km/h Distance 4.21 km</desc>
<time>2011-05-22T07:06:29.26</time>
<name>952</name>
<sym>Dot</sym>
</trkpt>
<trkpt lat="40.067645" lon="-8.331020">
<ele>204.0</ele>
<desc>Speed 8.2 km/h Distance 4.22 km</desc>
<time>2011-05-22T07:06:30.25</time>
<name>953</name>
<sym>Dot</sym>
</trkpt>
<trkpt lat="40.067628" lon="-8.331035">
<ele>204.0</ele>
<desc>Speed 7.8 km/h Distance 4.22 km</desc>
<time>2011-05-22T07:06:31.25</time>
<name>954</name>
<sym>Dot</sym>
</trkpt>
<trkpt lat="40.067612" lon="-8.331052">
<ele>204.0</ele>
<desc>Speed 8.4 km/h Distance 4.22 km</desc>
<time>2011-05-22T07:06:32.25</time>
<name>955</name>
<sym>Dot</sym>
</trkpt>
<trkpt lat="40.067595" lon="-8.331067">
<ele>204.5</ele>
<desc>Speed 8.6 km/h Distance 4.22 km</desc>
<time>2011-05-22T07:06:33.25</time>
<name>956</name>
<sym>Dot</sym>
</trkpt>
<trkpt lat="40.067577" lon="-8.331082">
<ele>204.5</ele>
<desc>Speed 8.9 km/h Distance 4.22 km</desc>
<time>2011-05-22T07:06:34.25</time>
<name>957</name>
<sym>Dot</sym>
</trkpt>
<trkpt lat="40.067557" lon="-8.331098">
<ele>204.5</ele>
<desc>Speed 9.0 km/h Distance 4.23 km</desc>
<time>2011-05-22T07:06:35.25</time>
<name>958</name>
<sym>Dot</sym>
</trkpt>
<trkpt lat="40.067538" lon="-8.331115">
<ele>204.5</ele>
<desc>Speed 9.0 km/h Distance 4.23 km</desc>
<time>2011-05-22T07:06:36.25</time>
<name>959</name>
<sym>Dot</sym>
</trkpt>
<trkpt lat="40.067520" lon="-8.331132">
<ele>205.0</ele>
<desc>Speed 9.1 km/h Distance 4.23 km</desc>
<time>2011-05-22T07:06:37.25</time>
<name>960</name>
<sym>Dot</sym>
</trkpt>
<trkpt lat="40.067503" lon="-8.331148">
<ele>205.0</ele>
<desc>Speed 9.1 km/h Distance 4.23 km</desc>
<time>2011-05-22T07:06:38.24</time>
<name>961</name>
<sym>Dot</sym>
</trkpt>
<trkpt lat="40.067483" lon="-8.331167">
<ele>205.0</ele>
<desc>Speed 9.5 km/h Distance 4.24 km</desc>
<time>2011-05-22T07:06:39.24</time>
<name>962</name>
<sym>Dot</sym>
</trkpt>
<trkpt lat="40.067463" lon="-8.331183">
<ele>205.5</ele>
<desc>Speed 10.0 km/h Distance 4.24 km</desc>
<time>2011-05-22T07:06:40.24</time>
<name>963</name>
<sym>Dot</sym>
</trkpt>
<trkpt lat="40.067442" lon="-8.331200">
<ele>205.5</ele>
<desc>Speed 10.1 km/h Distance 4.24 km</desc>
<time>2011-05-22T07:06:41.24</time>
<name>964</name>
<sym>Dot</sym>
</trkpt>
<trkpt lat="40.067418" lon="-8.331218">
<ele>205.5</ele>
<desc>Speed 10.6 km/h Distance 4.25 km</desc>
<time>2011-05-22T07:06:42.23</time>
<name>965</name>
<sym>Dot</sym>
</trkpt>
<trkpt lat="40.067397" lon="-8.331235">
<ele>206.0</ele>
<desc>Speed 10.3 km/h Distance 4.25 km</desc>
<time>2011-05-22T07:06:43.23</time>
<name>966</name>
<sym>Dot</sym>
</trkpt>
<trkpt lat="40.067375" lon="-8.331252">
<ele>206.0</ele>
<desc>Speed 10.2 km/h Distance 4.25 km</desc>
<time>2011-05-22T07:06:44.23</time>
<name>967</name>
<sym>Dot</sym>
</trkpt>
<trkpt lat="40.067352" lon="-8.331265">
<ele>206.0</ele>
<desc>Speed 10.2 km/h Distance 4.25 km</desc>
<time>2011-05-22T07:06:45.22</time>
<name>968</name>
<sym>Dot</sym>
</trkpt>
<trkpt lat="40.067330" lon="-8.331278">
<ele>206.5</ele>
<desc>Speed 9.8 km/h Distance 4.26 km</desc>
<time>2011-05-22T07:06:46.22</time>
<name>969</name>
<sym>Dot</sym>
</trkpt>
<trkpt lat="40.067308" lon="-8.331293">
<ele>206.5</ele>
<desc>Speed 10.0 km/h Distance 4.26 km</desc>
<time>2011-05-22T07:06:47.22</time>
<name>970</name>
<sym>Dot</sym>
</trkpt>
<trkpt lat="40.067287" lon="-8.331310">
<ele>207.0</ele>
<desc>Speed 9.8 km/h Distance 4.26 km</desc>
<time>2011-05-22T07:06:48.22</time>
<name>971</name>
<sym>Dot</sym>
</trkpt>
<trkpt lat="40.067267" lon="-8.331322">
<ele>207.5</ele>
<desc>Speed 9.3 km/h Distance 4.26 km</desc>
<time>2011-05-22T07:06:49.22</time>
<name>972</name>
<sym>Dot</sym>
</trkpt>
<trkpt lat="40.067245" lon="-8.331338">
<ele>207.5</ele>
<desc>Speed 10.1 km/h Distance 4.27 km</desc>
<time>2011-05-22T07:06:50.22</time>
<name>973</name>
<sym>Dot</sym>
</trkpt>
<trkpt lat="40.067222" lon="-8.331357">
<ele>207.5</ele>
<desc>Speed 10.9 km/h Distance 4.27 km</desc>
<time>2011-05-22T07:06:51.22</time>
<name>974</name>
<sym>Dot</sym>
</trkpt>
<trkpt lat="40.067198" lon="-8.331375">
<ele>207.5</ele>
<desc>Speed 11.1 km/h Distance 4.27 km</desc>
<time>2011-05-22T07:06:52.21</time>
<name>975</name>
<sym>Dot</sym>
</trkpt>
<trkpt lat="40.067175" lon="-8.331397">
<ele>207.5</ele>
<desc>Speed 11.4 km/h Distance 4.28 km</desc>
<time>2011-05-22T07:06:53.21</time>
<name>976</name>
<sym>Dot</sym>
</trkpt>
<trkpt lat="40.067152" lon="-8.331418">
<ele>208.0</ele>
<desc>Speed 11.2 km/h Distance 4.28 km</desc>
<time>2011-05-22T07:06:54.21</time>
<name>977</name>
<sym>Dot</sym>
</trkpt>
<trkpt lat="40.067128" lon="-8.331437">
<ele>208.0</ele>
<desc>Speed 10.8 km/h Distance 4.28 km</desc>
<time>2011-05-22T07:06:55.21</time>
<name>978</name>
<sym>Dot</sym>
</trkpt>
<trkpt lat="40.067103" lon="-8.331453">
<ele>208.0</ele>
<desc>Speed 10.9 km/h Distance 4.29 km</desc>
<time>2011-05-22T07:06:56.20</time>
<name>979</name>
<sym>Dot</sym>
</trkpt>
<trkpt lat="40.067080" lon="-8.331470">
<ele>208.5</ele>
<desc>Speed 10.6 km/h Distance 4.29 km</desc>
<time>2011-05-22T07:06:57.19</time>
<name>980</name>
<sym>Dot</sym>
</trkpt>
<trkpt lat="40.067058" lon="-8.331485">
<ele>208.5</ele>
<desc>Speed 10.3 km/h Distance 4.29 km</desc>
<time>2011-05-22T07:06:58.19</time>
<name>981</name>
<sym>Dot</sym>
</trkpt>
<trkpt lat="40.067035" lon="-8.331498">
<ele>208.5</ele>
<desc>Speed 9.9 km/h Distance 4.29 km</desc>
<time>2011-05-22T07:06:59.20</time>
<name>982</name>
<sym>Dot</sym>
</trkpt>
<trkpt lat="40.067013" lon="-8.331513">
<ele>208.5</ele>
<desc>Speed 9.9 km/h Distance 4.30 km</desc>
<time>2011-05-22T07:07:00.22</time>
<name>983</name>
<sym>Dot</sym>
</trkpt>
<trkpt lat="40.066992" lon="-8.331528">
<ele>209.0</ele>
<desc>Speed 9.7 km/h Distance 4.30 km</desc>
<time>2011-05-22T07:07:01.18</time>
<name>984</name>
<sym>Dot</sym>
</trkpt>
<trkpt lat="40.066970" lon="-8.331542">
<ele>209.0</ele>
<desc>Speed 9.7 km/h Distance 4.30 km</desc>
<time>2011-05-22T07:07:02.18</time>
<name>985</name>
<sym>Dot</sym>
</trkpt>
<trkpt lat="40.066947" lon="-8.331553">
<ele>209.0</ele>
<desc>Speed 9.8 km/h Distance 4.31 km</desc>
<time>2011-05-22T07:07:03.17</time>
<name>986</name>
<sym>Dot</sym>
</trkpt>
<trkpt lat="40.066925" lon="-8.331565">
<ele>209.0</ele>
<desc>Speed 9.3 km/h Distance 4.31 km</desc>
<time>2011-05-22T07:07:04.19</time>
<name>987</name>
<sym>Dot</sym>
</trkpt>
<trkpt lat="40.066903" lon="-8.331575">
<ele>209.0</ele>
<desc>Speed 9.3 km/h Distance 4.31 km</desc>
<time>2011-05-22T07:07:05.15</time>
<name>988</name>
<sym>Dot</sym>
</trkpt>
<trkpt lat="40.066882" lon="-8.331587">
<ele>209.5</ele>
<desc>Speed 9.3 km/h Distance 4.31 km</desc>
<time>2011-05-22T07:07:06.15</time>
<name>989</name>
<sym>Dot</sym>
</trkpt>
<trkpt lat="40.066860" lon="-8.331595">
<ele>209.5</ele>
<desc>Speed 9.0 km/h Distance 4.32 km</desc>
<time>2011-05-22T07:07:07.15</time>
<name>990</name>
<sym>Dot</sym>
</trkpt>
<trkpt lat="40.066838" lon="-8.331603">
<ele>209.5</ele>
<desc>Speed 9.0 km/h Distance 4.32 km</desc>
<time>2011-05-22T07:07:08.15</time>
<name>991</name>
<sym>Dot</sym>
</trkpt>
<trkpt lat="40.066818" lon="-8.331613">
<ele>210.0</ele>
<desc>Speed 8.9 km/h Distance 4.32 km</desc>
<time>2011-05-22T07:07:09.14</time>
<name>992</name>
<sym>Dot</sym>
</trkpt>
<trkpt lat="40.066797" lon="-8.331622">
<ele>210.0</ele>
<desc>Speed 9.0 km/h Distance 4.32 km</desc>
<time>2011-05-22T07:07:10.14</time>
<name>993</name>
<sym>Dot</sym>
</trkpt>
<trkpt lat="40.066775" lon="-8.331630">
<ele>210.0</ele>
<desc>Speed 8.9 km/h Distance 4.33 km</desc>
<time>2011-05-22T07:07:11.15</time>
<name>994</name>
<sym>Dot</sym>
</trkpt>
<trkpt lat="40.066753" lon="-8.331637">
<ele>210.0</ele>
<desc>Speed 9.1 km/h Distance 4.33 km</desc>
<time>2011-05-22T07:07:12.15</time>
<name>995</name>
<sym>Dot</sym>
</trkpt>
<trkpt lat="40.066732" lon="-8.331643">
<ele>210.0</ele>
<desc>Speed 8.6 km/h Distance 4.33 km</desc>
<time>2011-05-22T07:07:13.15</time>
<name>996</name>
<sym>Dot</sym>
</trkpt>
<trkpt lat="40.066712" lon="-8.331648">
<ele>210.0</ele>
<desc>Speed 8.4 km/h Distance 4.33 km</desc>
<time>2011-05-22T07:07:14.17</time>
<name>997</name>
<sym>Dot</sym>
</trkpt>
<trkpt lat="40.066692" lon="-8.331652">
<ele>210.5</ele>
<desc>Speed 7.9 km/h Distance 4.34 km</desc>
<time>2011-05-22T07:07:15.13</time>
<name>998</name>
<sym>Dot</sym>
</trkpt>
<trkpt lat="40.066672" lon="-8.331653">
<ele>210.5</ele>
<desc>Speed 7.9 km/h Distance 4.34 km</desc>
<time>2011-05-22T07:07:16.13</time>
<name>999</name>
<sym>Dot</sym>
</trkpt>
<trkpt lat="40.066652" lon="-8.331655">
<ele>211.0</ele>
<desc>Speed 7.7 km/h Distance 4.34 km</desc>
<time>2011-05-22T07:07:17.13</time>
<name>1000</name>
<sym>Dot</sym>
</trkpt>
<trkpt lat="40.066632" lon="-8.331658">
<ele>211.5</ele>
<desc>Speed 7.5 km/h Distance 4.34 km</desc>
<time>2011-05-22T07:07:18.12</time>
<name>1001</name>
<sym>Dot</sym>
</trkpt>
<trkpt lat="40.066608" lon="-8.331660">
<ele>211.0</ele>
<desc>Speed 8.9 km/h Distance 4.34 km</desc>
<time>2011-05-22T07:07:19.12</time>
<name>1002</name>
<sym>Dot</sym>
</trkpt>
<trkpt lat="40.066587" lon="-8.331665">
<ele>211.0</ele>
<desc>Speed 8.8 km/h Distance 4.35 km</desc>
<time>2011-05-22T07:07:20.12</time>
<name>1003</name>
<sym>Dot</sym>
</trkpt>
<trkpt lat="40.066562" lon="-8.331667">
<ele>211.0</ele>
<desc>Speed 9.6 km/h Distance 4.35 km</desc>
<time>2011-05-22T07:07:21.13</time>
<name>1004</name>
<sym>Dot</sym>
</trkpt>
<trkpt lat="40.066538" lon="-8.331667">
<ele>211.0</ele>
<desc>Speed 9.6 km/h Distance 4.35 km</desc>
<time>2011-05-22T07:07:22.12</time>
<name>1005</name>
<sym>Dot</sym>
</trkpt>
<trkpt lat="40.066513" lon="-8.331668">
<ele>211.0</ele>
<desc>Speed 9.7 km/h Distance 4.36 km</desc>
<time>2011-05-22T07:07:23.12</time>
<name>1006</name>
<sym>Dot</sym>
</trkpt>
<trkpt lat="40.066488" lon="-8.331670">
<ele>211.0</ele>
<desc>Speed 9.9 km/h Distance 4.36 km</desc>
<time>2011-05-22T07:07:24.12</time>
<name>1007</name>
<sym>Dot</sym>
</trkpt>
<trkpt lat="40.066465" lon="-8.331672">
<ele>211.0</ele>
<desc>Speed 9.1 km/h Distance 4.36 km</desc>
<time>2011-05-22T07:07:25.11</time>
<name>1008</name>
<sym>Dot</sym>
</trkpt>
<trkpt lat="40.066440" lon="-8.331672">
<ele>211.5</ele>
<desc>Speed 9.7 km/h Distance 4.36 km</desc>
<time>2011-05-22T07:07:26.10</time>
<name>1009</name>
<sym>Dot</sym>
</trkpt>
<trkpt lat="40.066417" lon="-8.331672">
<ele>212.0</ele>
<desc>Speed 9.2 km/h Distance 4.37 km</desc>
<time>2011-05-22T07:07:27.10</time>
<name>1010</name>
<sym>Dot</sym>
</trkpt>
<trkpt lat="40.066393" lon="-8.331672">
<ele>212.5</ele>
<desc>Speed 9.1 km/h Distance 4.37 km</desc>
<time>2011-05-22T07:07:28.08</time>
<name>1011</name>
<sym>Dot</sym>
</trkpt>
<trkpt lat="40.066370" lon="-8.331672">
<ele>213.0</ele>
<desc>Speed 9.1 km/h Distance 4.37 km</desc>
<time>2011-05-22T07:07:29.08</time>
<name>1012</name>
<sym>Dot</sym>
</trkpt>
<trkpt lat="40.066347" lon="-8.331670">
<ele>213.5</ele>
<desc>Speed 9.1 km/h Distance 4.37 km</desc>
<time>2011-05-22T07:07:30.08</time>
<name>1013</name>
<sym>Dot</sym>
</trkpt>
<trkpt lat="40.066322" lon="-8.331670">
<ele>214.0</ele>
<desc>Speed 9.6 km/h Distance 4.38 km</desc>
<time>2011-05-22T07:07:31.08</time>
<name>1014</name>
<sym>Dot</sym>
</trkpt>
<trkpt lat="40.066297" lon="-8.331668">
<ele>214.0</ele>
<desc>Speed 9.5 km/h Distance 4.38 km</desc>
<time>2011-05-22T07:07:32.08</time>
<name>1015</name>
<sym>Dot</sym>
</trkpt>
<trkpt lat="40.066275" lon="-8.331665">
<ele>214.0</ele>
<desc>Speed 9.0 km/h Distance 4.38 km</desc>
<time>2011-05-22T07:07:33.07</time>
<name>1016</name>
<sym>Dot</sym>
</trkpt>
<trkpt lat="40.066252" lon="-8.331662">
<ele>214.0</ele>
<desc>Speed 9.0 km/h Distance 4.38 km</desc>
<time>2011-05-22T07:07:34.06</time>
<name>1017</name>
<sym>Dot</sym>
</trkpt>
<trkpt lat="40.066228" lon="-8.331660">
<ele>215.0</ele>
<desc>Speed 9.4 km/h Distance 4.39 km</desc>
<time>2011-05-22T07:07:35.06</time>
<name>1018</name>
<sym>Dot</sym>
</trkpt>
<trkpt lat="40.066205" lon="-8.331658">
<ele>215.5</ele>
<desc>Speed 9.0 km/h Distance 4.39 km</desc>
<time>2011-05-22T07:07:36.07</time>
<name>1019</name>
<sym>Dot</sym>
</trkpt>
<trkpt lat="40.066182" lon="-8.331657">
<ele>216.0</ele>
<desc>Speed 9.1 km/h Distance 4.39 km</desc>
<time>2011-05-22T07:07:37.06</time>
<name>1020</name>
<sym>Dot</sym>
</trkpt>
<trkpt lat="40.066160" lon="-8.331655">
<ele>216.5</ele>
<desc>Speed 9.0 km/h Distance 4.39 km</desc>
<time>2011-05-22T07:07:38.06</time>
<name>1021</name>
<sym>Dot</sym>
</trkpt>
<trkpt lat="40.066138" lon="-8.331652">
<ele>216.5</ele>
<desc>Speed 8.9 km/h Distance 4.40 km</desc>
<time>2011-05-22T07:07:39.04</time>
<name>1022</name>
<sym>Dot</sym>
</trkpt>
<trkpt lat="40.066117" lon="-8.331650">
<ele>217.0</ele>
<desc>Speed 8.9 km/h Distance 4.40 km</desc>
<time>2011-05-22T07:07:40.04</time>
<name>1023</name>
<sym>Dot</sym>
</trkpt>
<trkpt lat="40.066093" lon="-8.331648">
<ele>217.5</ele>
<desc>Speed 9.0 km/h Distance 4.40 km</desc>
<time>2011-05-22T07:07:41.04</time>
<name>1024</name>
<sym>Dot</sym>
</trkpt>
<trkpt lat="40.066072" lon="-8.331647">
<ele>217.5</ele>
<desc>Speed 9.4 km/h Distance 4.40 km</desc>
<time>2011-05-22T07:07:42.04</time>
<name>1025</name>
<sym>Dot</sym>
</trkpt>
<trkpt lat="40.066047" lon="-8.331645">
<ele>218.0</ele>
<desc>Speed 9.4 km/h Distance 4.41 km</desc>
<time>2011-05-22T07:07:43.04</time>
<name>1026</name>
<sym>Dot</sym>
</trkpt>
<trkpt lat="40.066023" lon="-8.331645">
<ele>218.5</ele>
<desc>Speed 9.3 km/h Distance 4.41 km</desc>
<time>2011-05-22T07:07:44.03</time>
<name>1027</name>
<sym>Dot</sym>
</trkpt>
<trkpt lat="40.066002" lon="-8.331645">
<ele>219.0</ele>
<desc>Speed 8.7 km/h Distance 4.41 km</desc>
<time>2011-05-22T07:07:45.03</time>
<name>1028</name>
<sym>Dot</sym>
</trkpt>
<trkpt lat="40.065980" lon="-8.331643">
<ele>219.5</ele>
<desc>Speed 8.7 km/h Distance 4.41 km</desc>
<time>2011-05-22T07:07:46.01</time>
<name>1029</name>
<sym>Dot</sym>
</trkpt>
<trkpt lat="40.065957" lon="-8.331642">
<ele>220.0</ele>
<desc>Speed 9.3 km/h Distance 4.42 km</desc>
<time>2011-05-22T07:07:47.02</time>
<name>1030</name>
<sym>Dot</sym>
</trkpt>
<trkpt lat="40.065935" lon="-8.331643">
<ele>220.5</ele>
<desc>Speed 8.9 km/h Distance 4.42 km</desc>
<time>2011-05-22T07:07:48.01</time>
<name>1031</name>
<sym>Dot</sym>
</trkpt>
<trkpt lat="40.065913" lon="-8.331643">
<ele>221.0</ele>
<desc>Speed 8.9 km/h Distance 4.42 km</desc>
<time>2011-05-22T07:07:49.02</time>
<name>1032</name>
<sym>Dot</sym>
</trkpt>
<trkpt lat="40.065892" lon="-8.331643">
<ele>222.0</ele>
<desc>Speed 8.5 km/h Distance 4.42 km</desc>
<time>2011-05-22T07:07:50.01</time>
<name>1033</name>
<sym>Dot</sym>
</trkpt>
<trkpt lat="40.065872" lon="-8.331643">
<ele>223.0</ele>
<desc>Speed 8.6 km/h Distance 4.43 km</desc>
<time>2011-05-22T07:07:51.00</time>
<name>1034</name>
<sym>Dot</sym>
</trkpt>
<trkpt lat="40.065848" lon="-8.331640">
<ele>223.0</ele>
<desc>Speed 8.9 km/h Distance 4.43 km</desc>
<time>2011-05-22T07:07:52.01</time>
<name>1035</name>
<sym>Dot</sym>
</trkpt>
<trkpt lat="40.065828" lon="-8.331640">
<ele>224.0</ele>
<desc>Speed 8.1 km/h Distance 4.43 km</desc>
<time>2011-05-22T07:07:53.00</time>
<name>1036</name>
<sym>Dot</sym>
</trkpt>
<trkpt lat="40.065805" lon="-8.331638">
<ele>224.0</ele>
<desc>Speed 9.0 km/h Distance 4.43 km</desc>
<time>2011-05-22T07:07:54.01</time>
<name>1037</name>
<sym>Dot</sym>
</trkpt>
<trkpt lat="40.065782" lon="-8.331635">
<ele>224.5</ele>
<desc>Speed 9.1 km/h Distance 4.44 km</desc>
<time>2011-05-22T07:07:55.00</time>
<name>1038</name>
<sym>Dot</sym>
</trkpt>
<trkpt lat="40.065760" lon="-8.331628">
<ele>225.0</ele>
<desc>Speed 9.2 km/h Distance 4.44 km</desc>
<time>2011-05-22T07:07:55.99</time>
<name>1039</name>
<sym>Dot</sym>
</trkpt>
<trkpt lat="40.065735" lon="-8.331625">
<ele>225.0</ele>
<desc>Speed 9.3 km/h Distance 4.44 km</desc>
<time>2011-05-22T07:07:56.99</time>
<name>1040</name>
<sym>Dot</sym>
</trkpt>
<trkpt lat="40.065712" lon="-8.331622">
<ele>225.0</ele>
<desc>Speed 9.5 km/h Distance 4.44 km</desc>
<time>2011-05-22T07:07:57.99</time>
<name>1041</name>
<sym>Dot</sym>
</trkpt>
<trkpt lat="40.065687" lon="-8.331620">
<ele>225.0</ele>
<desc>Speed 9.7 km/h Distance 4.45 km</desc>
<time>2011-05-22T07:07:59.00</time>
<name>1042</name>
<sym>Dot</sym>
</trkpt>
<trkpt lat="40.065662" lon="-8.331617">
<ele>224.5</ele>
<desc>Speed 9.5 km/h Distance 4.45 km</desc>
<time>2011-05-22T07:08:00.00</time>
<name>1043</name>
<sym>Dot</sym>
</trkpt>
<trkpt lat="40.065635" lon="-8.331612">
<ele>224.0</ele>
<desc>Speed 9.6 km/h Distance 4.45 km</desc>
<time>2011-05-22T07:08:00.99</time>
<name>1044</name>
<sym>Dot</sym>
</trkpt>
<trkpt lat="40.065610" lon="-8.331608">
<ele>224.0</ele>
<desc>Speed 9.6 km/h Distance 4.46 km</desc>
<time>2011-05-22T07:08:01.98</time>
<name>1045</name>
<sym>Dot</sym>
</trkpt>
<trkpt lat="40.065585" lon="-8.331603">
<ele>224.0</ele>
<desc>Speed 10.0 km/h Distance 4.46 km</desc>
<time>2011-05-22T07:08:02.98</time>
<name>1046</name>
<sym>Dot</sym>
</trkpt>
<trkpt lat="40.065558" lon="-8.331600">
<ele>223.5</ele>
<desc>Speed 10.0 km/h Distance 4.46 km</desc>
<time>2011-05-22T07:08:03.98</time>
<name>1047</name>
<sym>Dot</sym>
</trkpt>
<trkpt lat="40.065532" lon="-8.331597">
<ele>223.5</ele>
<desc>Speed 10.3 km/h Distance 4.46 km</desc>
<time>2011-05-22T07:08:04.98</time>
<name>1048</name>
<sym>Dot</sym>
</trkpt>
<trkpt lat="40.065503" lon="-8.331595">
<ele>223.0</ele>
<desc>Speed 10.5 km/h Distance 4.47 km</desc>
<time>2011-05-22T07:08:05.98</time>
<name>1049</name>
<sym>Dot</sym>
</trkpt>
<trkpt lat="40.065475" lon="-8.331592">
<ele>223.0</ele>
<desc>Speed 10.8 km/h Distance 4.47 km</desc>
<time>2011-05-22T07:08:06.97</time>
<name>1050</name>
<sym>Dot</sym>
</trkpt>
<trkpt lat="40.065447" lon="-8.331588">
<ele>222.5</ele>
<desc>Speed 10.9 km/h Distance 4.47 km</desc>
<time>2011-05-22T07:08:07.97</time>
<name>1051</name>
<sym>Dot</sym>
</trkpt>
<trkpt lat="40.065417" lon="-8.331585">
<ele>222.5</ele>
<desc>Speed 11.1 km/h Distance 4.48 km</desc>
<time>2011-05-22T07:08:08.97</time>
<name>1052</name>
<sym>Dot</sym>
</trkpt>
<trkpt lat="40.065388" lon="-8.331583">
<ele>222.0</ele>
<desc>Speed 11.4 km/h Distance 4.48 km</desc>
<time>2011-05-22T07:08:09.97</time>
<name>1053</name>
<sym>Dot</sym>
</trkpt>
<trkpt lat="40.065358" lon="-8.331582">
<ele>221.5</ele>
<desc>Speed 11.4 km/h Distance 4.48 km</desc>
<time>2011-05-22T07:08:10.97</time>
<name>1054</name>
<sym>Dot</sym>
</trkpt>
<trkpt lat="40.065330" lon="-8.331577">
<ele>221.5</ele>
<desc>Speed 10.9 km/h Distance 4.49 km</desc>
<time>2011-05-22T07:08:11.97</time>
<name>1055</name>
<sym>Dot</sym>
</trkpt>
<trkpt lat="40.065300" lon="-8.331573">
<ele>221.5</ele>
<desc>Speed 11.4 km/h Distance 4.49 km</desc>
<time>2011-05-22T07:08:12.96</time>
<name>1056</name>
<sym>Dot</sym>
</trkpt>
<trkpt lat="40.065273" lon="-8.331570">
<ele>222.0</ele>
<desc>Speed 10.8 km/h Distance 4.49 km</desc>
<time>2011-05-22T07:08:13.97</time>
<name>1057</name>
<sym>Dot</sym>
</trkpt>
<trkpt lat="40.065243" lon="-8.331567">
<ele>221.5</ele>
<desc>Speed 11.5 km/h Distance 4.50 km</desc>
<time>2011-05-22T07:08:14.96</time>
<name>1058</name>
<sym>Dot</sym>
</trkpt>
<trkpt lat="40.065212" lon="-8.331562">
<ele>221.5</ele>
<desc>Speed 12.6 km/h Distance 4.50 km</desc>
<time>2011-05-22T07:08:15.95</time>
<name>1059</name>
<sym>Dot</sym>
</trkpt>
<trkpt lat="40.065178" lon="-8.331558">
<ele>221.0</ele>
<desc>Speed 12.9 km/h Distance 4.50 km</desc>
<time>2011-05-22T07:08:16.95</time>
<name>1060</name>
<sym>Dot</sym>
</trkpt>
<trkpt lat="40.065145" lon="-8.331553">
<ele>221.5</ele>
<desc>Speed 13.2 km/h Distance 4.51 km</desc>
<time>2011-05-22T07:08:17.96</time>
<name>1061</name>
<sym>Dot</sym>
</trkpt>
<trkpt lat="40.065112" lon="-8.331548">
<ele>221.5</ele>
<desc>Speed 13.4 km/h Distance 4.51 km</desc>
<time>2011-05-22T07:08:18.94</time>
<name>1062</name>
<sym>Dot</sym>
</trkpt>
<trkpt lat="40.065077" lon="-8.331542">
<ele>221.5</ele>
<desc>Speed 13.8 km/h Distance 4.52 km</desc>
<time>2011-05-22T07:08:19.94</time>
<name>1063</name>
<sym>Dot</sym>
</trkpt>
<trkpt lat="40.065042" lon="-8.331535">
<ele>221.5</ele>
<desc>Speed 14.0 km/h Distance 4.52 km</desc>
<time>2011-05-22T07:08:20.94</time>
<name>1064</name>
<sym>Dot</sym>
</trkpt>
<trkpt lat="40.065007" lon="-8.331527">
<ele>221.5</ele>
<desc>Speed 14.0 km/h Distance 4.52 km</desc>
<time>2011-05-22T07:08:21.94</time>
<name>1065</name>
<sym>Dot</sym>
</trkpt>
<trkpt lat="40.064970" lon="-8.331518">
<ele>221.0</ele>
<desc>Speed 14.1 km/h Distance 4.53 km</desc>
<time>2011-05-22T07:08:22.94</time>
<name>1066</name>
<sym>Dot</sym>
</trkpt>
<trkpt lat="40.064935" lon="-8.331508">
<ele>221.5</ele>
<desc>Speed 14.4 km/h Distance 4.53 km</desc>
<time>2011-05-22T07:08:23.93</time>
<name>1067</name>
<sym>Dot</sym>
</trkpt>
<trkpt lat="40.064900" lon="-8.331497">
<ele>221.5</ele>
<desc>Speed 14.5 km/h Distance 4.54 km</desc>
<time>2011-05-22T07:08:24.93</time>
<name>1068</name>
<sym>Dot</sym>
</trkpt>
<trkpt lat="40.064863" lon="-8.331483">
<ele>221.5</ele>
<desc>Speed 14.7 km/h Distance 4.54 km</desc>
<time>2011-05-22T07:08:25.93</time>
<name>1069</name>
<sym>Dot</sym>
</trkpt>
<trkpt lat="40.064825" lon="-8.331470">
<ele>222.0</ele>
<desc>Speed 15.1 km/h Distance 4.54 km</desc>
<time>2011-05-22T07:08:26.92</time>
<name>1070</name>
<sym>Dot</sym>
</trkpt>
<trkpt lat="40.064790" lon="-8.331455">
<ele>222.5</ele>
<desc>Speed 14.8 km/h Distance 4.55 km</desc>
<time>2011-05-22T07:08:27.92</time>
<name>1071</name>
<sym>Dot</sym>
</trkpt>
<trkpt lat="40.064752" lon="-8.331438">
<ele>222.5</ele>
<desc>Speed 15.2 km/h Distance 4.55 km</desc>
<time>2011-05-22T07:08:28.92</time>
<name>1072</name>
<sym>Dot</sym>
</trkpt>
<trkpt lat="40.064715" lon="-8.331427">
<ele>222.0</ele>
<desc>Speed 14.9 km/h Distance 4.56 km</desc>
<time>2011-05-22T07:08:29.91</time>
<name>1073</name>
<sym>Dot</sym>
</trkpt>
<trkpt lat="40.064678" lon="-8.331412">
<ele>222.0</ele>
<desc>Speed 15.0 km/h Distance 4.56 km</desc>
<time>2011-05-22T07:08:30.91</time>
<name>1074</name>
<sym>Dot</sym>
</trkpt>
<trkpt lat="40.064642" lon="-8.331398">
<ele>222.0</ele>
<desc>Speed 15.2 km/h Distance 4.57 km</desc>
<time>2011-05-22T07:08:31.90</time>
<name>1075</name>
<sym>Dot</sym>
</trkpt>
<trkpt lat="40.064607" lon="-8.331383">
<ele>222.0</ele>
<desc>Speed 15.2 km/h Distance 4.57 km</desc>
<time>2011-05-22T07:08:32.90</time>
<name>1076</name>
<sym>Dot</sym>
</trkpt>
<trkpt lat="40.064572" lon="-8.331365">
<ele>221.5</ele>
<desc>Speed 14.9 km/h Distance 4.57 km</desc>
<time>2011-05-22T07:08:33.90</time>
<name>1077</name>
<sym>Dot</sym>
</trkpt>
<trkpt lat="40.064537" lon="-8.331348">
<ele>221.5</ele>
<desc>Speed 15.0 km/h Distance 4.58 km</desc>
<time>2011-05-22T07:08:34.89</time>
<name>1078</name>
<sym>Dot</sym>
</trkpt>
<trkpt lat="40.064500" lon="-8.331333">
<ele>221.5</ele>
<desc>Speed 15.6 km/h Distance 4.58 km</desc>
<time>2011-05-22T07:08:35.88</time>
<name>1079</name>
<sym>Dot</sym>
</trkpt>
<trkpt lat="40.064463" lon="-8.331317">
<ele>221.0</ele>
<desc>Speed 15.5 km/h Distance 4.59 km</desc>
<time>2011-05-22T07:08:36.88</time>
<name>1080</name>
<sym>Dot</sym>
</trkpt>
<trkpt lat="40.064425" lon="-8.331300">
<ele>221.0</ele>
<desc>Speed 16.0 km/h Distance 4.59 km</desc>
<time>2011-05-22T07:08:37.88</time>
<name>1081</name>
<sym>Dot</sym>
</trkpt>
<trkpt lat="40.064387" lon="-8.331283">
<ele>221.0</ele>
<desc>Speed 16.2 km/h Distance 4.60 km</desc>
<time>2011-05-22T07:08:38.88</time>
<name>1082</name>
<sym>Dot</sym>
</trkpt>
<trkpt lat="40.064348" lon="-8.331267">
<ele>221.0</ele>
<desc>Speed 15.9 km/h Distance 4.60 km</desc>
<time>2011-05-22T07:08:39.88</time>
<name>1083</name>
<sym>Dot</sym>
</trkpt>
<trkpt lat="40.064310" lon="-8.331250">
<ele>221.0</ele>
<desc>Speed 15.8 km/h Distance 4.60 km</desc>
<time>2011-05-22T07:08:40.88</time>
<name>1084</name>
<sym>Dot</sym>
</trkpt>
<trkpt lat="40.064272" lon="-8.331233">
<ele>221.0</ele>
<desc>Speed 16.1 km/h Distance 4.61 km</desc>
<time>2011-05-22T07:08:41.88</time>
<name>1085</name>
<sym>Dot</sym>
</trkpt>
<trkpt lat="40.064232" lon="-8.331217">
<ele>221.0</ele>
<desc>Speed 16.1 km/h Distance 4.61 km</desc>
<time>2011-05-22T07:08:42.87</time>
<name>1086</name>
<sym>Dot</sym>
</trkpt>
<trkpt lat="40.064193" lon="-8.331202">
<ele>221.0</ele>
<desc>Speed 16.1 km/h Distance 4.62 km</desc>
<time>2011-05-22T07:08:43.86</time>
<name>1087</name>
<sym>Dot</sym>
</trkpt>
<trkpt lat="40.064153" lon="-8.331185">
<ele>221.0</ele>
<desc>Speed 16.7 km/h Distance 4.62 km</desc>
<time>2011-05-22T07:08:44.87</time>
<name>1088</name>
<sym>Dot</sym>
</trkpt>
<trkpt lat="40.064113" lon="-8.331167">
<ele>221.0</ele>
<desc>Speed 17.1 km/h Distance 4.63 km</desc>
<time>2011-05-22T07:08:45.86</time>
<name>1089</name>
<sym>Dot</sym>
</trkpt>
<trkpt lat="40.064072" lon="-8.331148">
<ele>220.5</ele>
<desc>Speed 17.2 km/h Distance 4.63 km</desc>
<time>2011-05-22T07:08:46.86</time>
<name>1090</name>
<sym>Dot</sym>
</trkpt>
<trkpt lat="40.064028" lon="-8.331130">
<ele>220.5</ele>
<desc>Speed 17.5 km/h Distance 4.64 km</desc>
<time>2011-05-22T07:08:47.85</time>
<name>1091</name>
<sym>Dot</sym>
</trkpt>
<trkpt lat="40.063987" lon="-8.331112">
<ele>220.5</ele>
<desc>Speed 17.9 km/h Distance 4.64 km</desc>
<time>2011-05-22T07:08:48.85</time>
<name>1092</name>
<sym>Dot</sym>
</trkpt>
<trkpt lat="40.063943" lon="-8.331093">
<ele>220.5</ele>
<desc>Speed 17.4 km/h Distance 4.65 km</desc>
<time>2011-05-22T07:08:49.85</time>
<name>1093</name>
<sym>Dot</sym>
</trkpt>
<trkpt lat="40.063900" lon="-8.331077">
<ele>220.0</ele>
<desc>Speed 17.6 km/h Distance 4.65 km</desc>
<time>2011-05-22T07:08:50.84</time>
<name>1094</name>
<sym>Dot</sym>
</trkpt>
<trkpt lat="40.063858" lon="-8.331058">
<ele>220.0</ele>
<desc>Speed 17.4 km/h Distance 4.66 km</desc>
<time>2011-05-22T07:08:51.83</time>
<name>1095</name>
<sym>Dot</sym>
</trkpt>
<trkpt lat="40.063817" lon="-8.331042">
<ele>220.5</ele>
<desc>Speed 17.6 km/h Distance 4.66 km</desc>
<time>2011-05-22T07:08:52.83</time>
<name>1096</name>
<sym>Dot</sym>
</trkpt>
<trkpt lat="40.063777" lon="-8.331027">
<ele>220.5</ele>
<desc>Speed 16.8 km/h Distance 4.67 km</desc>
<time>2011-05-22T07:08:53.82</time>
<name>1097</name>
<sym>Dot</sym>
</trkpt>
<trkpt lat="40.063737" lon="-8.331012">
<ele>220.5</ele>
<desc>Speed 16.4 km/h Distance 4.67 km</desc>
<time>2011-05-22T07:08:54.82</time>
<name>1098</name>
<sym>Dot</sym>
</trkpt>
<trkpt lat="40.063698" lon="-8.330997">
<ele>220.0</ele>
<desc>Speed 15.9 km/h Distance 4.68 km</desc>
<time>2011-05-22T07:08:55.82</time>
<name>1099</name>
<sym>Dot</sym>
</trkpt>
<trkpt lat="40.063662" lon="-8.330978">
<ele>220.5</ele>
<desc>Speed 16.1 km/h Distance 4.68 km</desc>
<time>2011-05-22T07:08:56.81</time>
<name>1100</name>
<sym>Dot</sym>
</trkpt>
<trkpt lat="40.063623" lon="-8.330962">
<ele>221.0</ele>
<desc>Speed 16.3 km/h Distance 4.69 km</desc>
<time>2011-05-22T07:08:57.82</time>
<name>1101</name>
<sym>Dot</sym>
</trkpt>
<trkpt lat="40.063582" lon="-8.330947">
<ele>221.0</ele>
<desc>Speed 16.9 km/h Distance 4.69 km</desc>
<time>2011-05-22T07:08:58.82</time>
<name>1102</name>
<sym>Dot</sym>
</trkpt>
<trkpt lat="40.063542" lon="-8.330930">
<ele>220.5</ele>
<desc>Speed 16.7 km/h Distance 4.69 km</desc>
<time>2011-05-22T07:08:59.81</time>
<name>1103</name>
<sym>Dot</sym>
</trkpt>
<trkpt lat="40.063503" lon="-8.330910">
<ele>221.0</ele>
<desc>Speed 17.1 km/h Distance 4.70 km</desc>
<time>2011-05-22T07:09:00.80</time>
<name>1104</name>
<sym>Dot</sym>
</trkpt>
<trkpt lat="40.063462" lon="-8.330892">
<ele>221.0</ele>
<desc>Speed 17.1 km/h Distance 4.70 km</desc>
<time>2011-05-22T07:09:01.80</time>
<name>1105</name>
<sym>Dot</sym>
</trkpt>
<trkpt lat="40.063420" lon="-8.330873">
<ele>221.0</ele>
<desc>Speed 17.6 km/h Distance 4.71 km</desc>
<time>2011-05-22T07:09:02.80</time>
<name>1106</name>
<sym>Dot</sym>
</trkpt>
<trkpt lat="40.063378" lon="-8.330857">
<ele>221.0</ele>
<desc>Speed 17.6 km/h Distance 4.71 km</desc>
<time>2011-05-22T07:09:03.79</time>
<name>1107</name>
<sym>Dot</sym>
</trkpt>
<trkpt lat="40.063335" lon="-8.330840">
<ele>221.0</ele>
<desc>Speed 17.9 km/h Distance 4.72 km</desc>
<time>2011-05-22T07:09:04.79</time>
<name>1108</name>
<sym>Dot</sym>
</trkpt>
<trkpt lat="40.063293" lon="-8.330822">
<ele>220.5</ele>
<desc>Speed 17.9 km/h Distance 4.72 km</desc>
<time>2011-05-22T07:09:05.79</time>
<name>1109</name>
<sym>Dot</sym>
</trkpt>
<trkpt lat="40.063250" lon="-8.330805">
<ele>220.5</ele>
<desc>Speed 17.7 km/h Distance 4.73 km</desc>
<time>2011-05-22T07:09:06.78</time>
<name>1110</name>
<sym>Dot</sym>
</trkpt>
<trkpt lat="40.063208" lon="-8.330788">
<ele>220.0</ele>
<desc>Speed 17.5 km/h Distance 4.73 km</desc>
<time>2011-05-22T07:09:07.78</time>
<name>1111</name>
<sym>Dot</sym>
</trkpt>
<trkpt lat="40.063167" lon="-8.330772">
<ele>220.0</ele>
<desc>Speed 17.2 km/h Distance 4.74 km</desc>
<time>2011-05-22T07:09:08.77</time>
<name>1112</name>
<sym>Dot</sym>
</trkpt>
<trkpt lat="40.063128" lon="-8.330755">
<ele>220.0</ele>
<desc>Speed 16.7 km/h Distance 4.74 km</desc>
<time>2011-05-22T07:09:09.76</time>
<name>1113</name>
<sym>Dot</sym>
</trkpt>
<trkpt lat="40.063090" lon="-8.330738">
<ele>220.0</ele>
<desc>Speed 15.9 km/h Distance 4.75 km</desc>
<time>2011-05-22T07:09:10.76</time>
<name>1114</name>
<sym>Dot</sym>
</trkpt>
<trkpt lat="40.063053" lon="-8.330723">
<ele>219.5</ele>
<desc>Speed 15.4 km/h Distance 4.75 km</desc>
<time>2011-05-22T07:09:11.76</time>
<name>1115</name>
<sym>Dot</sym>
</trkpt>
<trkpt lat="40.063017" lon="-8.330708">
<ele>219.5</ele>
<desc>Speed 15.6 km/h Distance 4.76 km</desc>
<time>2011-05-22T07:09:12.75</time>
<name>1116</name>
<sym>Dot</sym>
</trkpt>
<trkpt lat="40.062980" lon="-8.330693">
<ele>219.5</ele>
<desc>Speed 15.4 km/h Distance 4.76 km</desc>
<time>2011-05-22T07:09:13.75</time>
<name>1117</name>
<sym>Dot</sym>
</trkpt>
<trkpt lat="40.062943" lon="-8.330678">
<ele>219.0</ele>
<desc>Speed 15.2 km/h Distance 4.76 km</desc>
<time>2011-05-22T07:09:14.75</time>
<name>1118</name>
<sym>Dot</sym>
</trkpt>
<trkpt lat="40.062907" lon="-8.330663">
<ele>219.0</ele>
<desc>Speed 15.2 km/h Distance 4.77 km</desc>
<time>2011-05-22T07:09:15.75</time>
<name>1119</name>
<sym>Dot</sym>
</trkpt>
<trkpt lat="40.062872" lon="-8.330650">
<ele>219.0</ele>
<desc>Speed 15.2 km/h Distance 4.77 km</desc>
<time>2011-05-22T07:09:16.74</time>
<name>1120</name>
<sym>Dot</sym>
</trkpt>
<trkpt lat="40.062833" lon="-8.330635">
<ele>219.0</ele>
<desc>Speed 15.6 km/h Distance 4.78 km</desc>
<time>2011-05-22T07:09:17.73</time>
<name>1121</name>
<sym>Dot</sym>
</trkpt>
<trkpt lat="40.062797" lon="-8.330620">
<ele>219.0</ele>
<desc>Speed 15.8 km/h Distance 4.78 km</desc>
<time>2011-05-22T07:09:18.73</time>
<name>1122</name>
<sym>Dot</sym>
</trkpt>
<trkpt lat="40.062760" lon="-8.330603">
<ele>219.0</ele>
<desc>Speed 15.7 km/h Distance 4.79 km</desc>
<time>2011-05-22T07:09:19.72</time>
<name>1123</name>
<sym>Dot</sym>
</trkpt>
<trkpt lat="40.062723" lon="-8.330588">
<ele>219.0</ele>
<desc>Speed 15.6 km/h Distance 4.79 km</desc>
<time>2011-05-22T07:09:20.71</time>
<name>1124</name>
<sym>Dot</sym>
</trkpt>
<trkpt lat="40.062688" lon="-8.330573">
<ele>218.5</ele>
<desc>Speed 15.4 km/h Distance 4.79 km</desc>
<time>2011-05-22T07:09:21.71</time>
<name>1125</name>
<sym>Dot</sym>
</trkpt>
<trkpt lat="40.062652" lon="-8.330558">
<ele>218.5</ele>
<desc>Speed 14.9 km/h Distance 4.80 km</desc>
<time>2011-05-22T07:09:22.71</time>
<name>1126</name>
<sym>Dot</sym>
</trkpt>
<trkpt lat="40.062618" lon="-8.330538">
<ele>219.0</ele>
<desc>Speed 15.3 km/h Distance 4.80 km</desc>
<time>2011-05-22T07:09:23.70</time>
<name>1127</name>
<sym>Dot</sym>
</trkpt>
<trkpt lat="40.062585" lon="-8.330518">
<ele>219.0</ele>
<desc>Speed 14.8 km/h Distance 4.81 km</desc>
<time>2011-05-22T07:09:24.70</time>
<name>1128</name>
<sym>Dot</sym>
</trkpt>
<trkpt lat="40.062550" lon="-8.330505">
<ele>219.0</ele>
<desc>Speed 14.7 km/h Distance 4.81 km</desc>
<time>2011-05-22T07:09:25.70</time>
<name>1129</name>
<sym>Dot</sym>
</trkpt>
<trkpt lat="40.062515" lon="-8.330492">
<ele>218.5</ele>
<desc>Speed 14.7 km/h Distance 4.81 km</desc>
<time>2011-05-22T07:09:26.69</time>
<name>1130</name>
<sym>Dot</sym>
</trkpt>
<trkpt lat="40.062480" lon="-8.330478">
<ele>218.5</ele>
<desc>Speed 14.9 km/h Distance 4.82 km</desc>
<time>2011-05-22T07:09:27.69</time>
<name>1131</name>
<sym>Dot</sym>
</trkpt>
<trkpt lat="40.062445" lon="-8.330463">
<ele>218.5</ele>
<desc>Speed 15.1 km/h Distance 4.82 km</desc>
<time>2011-05-22T07:09:28.69</time>
<name>1132</name>
<sym>Dot</sym>
</trkpt>
<trkpt lat="40.062408" lon="-8.330447">
<ele>218.5</ele>
<desc>Speed 15.2 km/h Distance 4.83 km</desc>
<time>2011-05-22T07:09:29.68</time>
<name>1133</name>
<sym>Dot</sym>
</trkpt>
<trkpt lat="40.062373" lon="-8.330430">
<ele>218.5</ele>
<desc>Speed 15.2 km/h Distance 4.83 km</desc>
<time>2011-05-22T07:09:30.68</time>
<name>1134</name>
<sym>Dot</sym>
</trkpt>
<trkpt lat="40.062338" lon="-8.330415">
<ele>218.5</ele>
<desc>Speed 14.9 km/h Distance 4.84 km</desc>
<time>2011-05-22T07:09:31.68</time>
<name>1135</name>
<sym>Dot</sym>
</trkpt>
<trkpt lat="40.062305" lon="-8.330397">
<ele>218.5</ele>
<desc>Speed 14.7 km/h Distance 4.84 km</desc>
<time>2011-05-22T07:09:32.68</time>
<name>1136</name>
<sym>Dot</sym>
</trkpt>
<trkpt lat="40.062272" lon="-8.330375">
<ele>218.5</ele>
<desc>Speed 15.2 km/h Distance 4.84 km</desc>
<time>2011-05-22T07:09:33.68</time>
<name>1137</name>
<sym>Dot</sym>
</trkpt>
<trkpt lat="40.062238" lon="-8.330353">
<ele>218.5</ele>
<desc>Speed 14.8 km/h Distance 4.85 km</desc>
<time>2011-05-22T07:09:34.66</time>
<name>1138</name>
<sym>Dot</sym>
</trkpt>
<trkpt lat="40.062205" lon="-8.330333">
<ele>218.0</ele>
<desc>Speed 14.6 km/h Distance 4.85 km</desc>
<time>2011-05-22T07:09:35.66</time>
<name>1139</name>
<sym>Dot</sym>
</trkpt>
<trkpt lat="40.062172" lon="-8.330312">
<ele>218.0</ele>
<desc>Speed 14.9 km/h Distance 4.86 km</desc>
<time>2011-05-22T07:09:36.66</time>
<name>1140</name>
<sym>Dot</sym>
</trkpt>
<trkpt lat="40.062140" lon="-8.330288">
<ele>218.0</ele>
<desc>Speed 14.9 km/h Distance 4.86 km</desc>
<time>2011-05-22T07:09:37.66</time>
<name>1141</name>
<sym>Dot</sym>
</trkpt>
<trkpt lat="40.062108" lon="-8.330262">
<ele>217.5</ele>
<desc>Speed 15.1 km/h Distance 4.86 km</desc>
<time>2011-05-22T07:09:38.67</time>
<name>1142</name>
<sym>Dot</sym>
</trkpt>
<trkpt lat="40.062077" lon="-8.330233">
<ele>217.5</ele>
<desc>Speed 15.2 km/h Distance 4.87 km</desc>
<time>2011-05-22T07:09:39.65</time>
<name>1143</name>
<sym>Dot</sym>
</trkpt>
<trkpt lat="40.062045" lon="-8.330207">
<ele>217.5</ele>
<desc>Speed 15.1 km/h Distance 4.87 km</desc>
<time>2011-05-22T07:09:40.65</time>
<name>1144</name>
<sym>Dot</sym>
</trkpt>
<trkpt lat="40.062013" lon="-8.330178">
<ele>217.5</ele>
<desc>Speed 15.2 km/h Distance 4.88 km</desc>
<time>2011-05-22T07:09:41.65</time>
<name>1145</name>
<sym>Dot</sym>
</trkpt>
<trkpt lat="40.061983" lon="-8.330150">
<ele>217.0</ele>
<desc>Speed 15.2 km/h Distance 4.88 km</desc>
<time>2011-05-22T07:09:42.65</time>
<name>1146</name>
<sym>Dot</sym>
</trkpt>
<trkpt lat="40.061955" lon="-8.330118">
<ele>217.0</ele>
<desc>Speed 15.2 km/h Distance 4.89 km</desc>
<time>2011-05-22T07:09:43.64</time>
<name>1147</name>
<sym>Dot</sym>
</trkpt>
<trkpt lat="40.061925" lon="-8.330088">
<ele>217.0</ele>
<desc>Speed 15.2 km/h Distance 4.89 km</desc>
<time>2011-05-22T07:09:44.64</time>
<name>1148</name>
<sym>Dot</sym>
</trkpt>
<trkpt lat="40.061897" lon="-8.330057">
<ele>217.0</ele>
<desc>Speed 15.2 km/h Distance 4.89 km</desc>
<time>2011-05-22T07:09:45.64</time>
<name>1149</name>
<sym>Dot</sym>
</trkpt>
<trkpt lat="40.061868" lon="-8.330025">
<ele>217.0</ele>
<desc>Speed 15.3 km/h Distance 4.90 km</desc>
<time>2011-05-22T07:09:46.66</time>
<name>1150</name>
<sym>Dot</sym>
</trkpt>
<trkpt lat="40.061840" lon="-8.329992">
<ele>217.0</ele>
<desc>Speed 15.6 km/h Distance 4.90 km</desc>
<time>2011-05-22T07:09:47.62</time>
<name>1151</name>
<sym>Dot</sym>
</trkpt>
<trkpt lat="40.061812" lon="-8.329957">
<ele>217.0</ele>
<desc>Speed 15.6 km/h Distance 4.91 km</desc>
<time>2011-05-22T07:09:48.61</time>
<name>1152</name>
<sym>Dot</sym>
</trkpt>
<trkpt lat="40.061783" lon="-8.329922">
<ele>217.0</ele>
<desc>Speed 15.6 km/h Distance 4.91 km</desc>
<time>2011-05-22T07:09:49.61</time>
<name>1153</name>
<sym>Dot</sym>
</trkpt>
<trkpt lat="40.061755" lon="-8.329887">
<ele>217.0</ele>
<desc>Speed 15.8 km/h Distance 4.92 km</desc>
<time>2011-05-22T07:09:50.60</time>
<name>1154</name>
<sym>Dot</sym>
</trkpt>
<trkpt lat="40.061725" lon="-8.329852">
<ele>217.0</ele>
<desc>Speed 15.9 km/h Distance 4.92 km</desc>
<time>2011-05-22T07:09:51.60</time>
<name>1155</name>
<sym>Dot</sym>
</trkpt>
<trkpt lat="40.061697" lon="-8.329817">
<ele>217.0</ele>
<desc>Speed 16.1 km/h Distance 4.92 km</desc>
<time>2011-05-22T07:09:52.60</time>
<name>1156</name>
<sym>Dot</sym>
</trkpt>
<trkpt lat="40.061667" lon="-8.329782">
<ele>217.0</ele>
<desc>Speed 16.1 km/h Distance 4.93 km</desc>
<time>2011-05-22T07:09:53.60</time>
<name>1157</name>
<sym>Dot</sym>
</trkpt>
<trkpt lat="40.061637" lon="-8.329745">
<ele>217.0</ele>
<desc>Speed 16.2 km/h Distance 4.93 km</desc>
<time>2011-05-22T07:09:54.59</time>
<name>1158</name>
<sym>Dot</sym>
</trkpt>
<trkpt lat="40.061607" lon="-8.329712">
<ele>217.0</ele>
<desc>Speed 16.3 km/h Distance 4.94 km</desc>
<time>2011-05-22T07:09:55.59</time>
<name>1159</name>
<sym>Dot</sym>
</trkpt>
<trkpt lat="40.061577" lon="-8.329675">
<ele>217.0</ele>
<desc>Speed 16.4 km/h Distance 4.94 km</desc>
<time>2011-05-22T07:09:56.59</time>
<name>1160</name>
<sym>Dot</sym>
</trkpt>
<trkpt lat="40.061545" lon="-8.329640">
<ele>217.0</ele>
<desc>Speed 16.3 km/h Distance 4.95 km</desc>
<time>2011-05-22T07:09:57.59</time>
<name>1161</name>
<sym>Dot</sym>
</trkpt>
<trkpt lat="40.061513" lon="-8.329607">
<ele>217.0</ele>
<desc>Speed 16.3 km/h Distance 4.95 km</desc>
<time>2011-05-22T07:09:58.59</time>
<name>1162</name>
<sym>Dot</sym>
</trkpt>
<trkpt lat="40.061480" lon="-8.329575">
<ele>217.5</ele>
<desc>Speed 16.7 km/h Distance 4.96 km</desc>
<time>2011-05-22T07:09:59.59</time>
<name>1163</name>
<sym>Dot</sym>
</trkpt>
<trkpt lat="40.061448" lon="-8.329543">
<ele>218.0</ele>
<desc>Speed 16.0 km/h Distance 4.96 km</desc>
<time>2011-05-22T07:10:00.59</time>
<name>1164</name>
<sym>Dot</sym>
</trkpt>
<trkpt lat="40.061417" lon="-8.329513">
<ele>218.5</ele>
<desc>Speed 15.7 km/h Distance 4.96 km</desc>
<time>2011-05-22T07:10:01.59</time>
<name>1165</name>
<sym>Dot</sym>
</trkpt>
<trkpt lat="40.061385" lon="-8.329487">
<ele>219.0</ele>
<desc>Speed 15.2 km/h Distance 4.97 km</desc>
<time>2011-05-22T07:10:02.58</time>
<name>1166</name>
<sym>Dot</sym>
</trkpt>
<trkpt lat="40.061355" lon="-8.329462">
<ele>219.0</ele>
<desc>Speed 14.7 km/h Distance 4.97 km</desc>
<time>2011-05-22T07:10:03.58</time>
<name>1167</name>
<sym>Dot</sym>
</trkpt>
<trkpt lat="40.061322" lon="-8.329438">
<ele>219.5</ele>
<desc>Speed 14.9 km/h Distance 4.98 km</desc>
<time>2011-05-22T07:10:04.58</time>
<name>1168</name>
<sym>Dot</sym>
</trkpt>
<trkpt lat="40.061290" lon="-8.329417">
<ele>219.5</ele>
<desc>Speed 14.9 km/h Distance 4.98 km</desc>
<time>2011-05-22T07:10:05.58</time>
<name>1169</name>
<sym>Dot</sym>
</trkpt>
<trkpt lat="40.061257" lon="-8.329397">
<ele>219.5</ele>
<desc>Speed 14.4 km/h Distance 4.99 km</desc>
<time>2011-05-22T07:10:06.57</time>
<name>1170</name>
<sym>Dot</sym>
</trkpt>
<trkpt lat="40.061225" lon="-8.329377">
<ele>220.0</ele>
<desc>Speed 14.4 km/h Distance 4.99 km</desc>
<time>2011-05-22T07:10:07.57</time>
<name>1171</name>
<sym>Dot</sym>
</trkpt>
<trkpt lat="40.061192" lon="-8.329358">
<ele>220.0</ele>
<desc>Speed 14.5 km/h Distance 4.99 km</desc>
<time>2011-05-22T07:10:08.57</time>
<name>1172</name>
<sym>Dot</sym>
</trkpt>
<trkpt lat="40.061160" lon="-8.329342">
<ele>220.0</ele>
<desc>Speed 14.2 km/h Distance 5.00 km</desc>
<time>2011-05-22T07:10:09.56</time>
<name>1173</name>
<sym>Dot</sym>
</trkpt>
<trkpt lat="40.061128" lon="-8.329328">
<ele>220.5</ele>
<desc>Speed 13.7 km/h Distance 5.00 km</desc>
<time>2011-05-22T07:10:10.56</time>
<name>1174</name>
<sym>Dot</sym>
</trkpt>
<trkpt lat="40.061097" lon="-8.329313">
<ele>220.5</ele>
<desc>Speed 13.4 km/h Distance 5.00 km</desc>
<time>2011-05-22T07:10:11.56</time>
<name>1175</name>
<sym>Dot</sym>
</trkpt>
<trkpt lat="40.061067" lon="-8.329302">
<ele>221.0</ele>
<desc>Speed 13.1 km/h Distance 5.01 km</desc>
<time>2011-05-22T07:10:12.56</time>
<name>1176</name>
<sym>Dot</sym>
</trkpt>
<trkpt lat="40.061035" lon="-8.329292">
<ele>221.0</ele>
<desc>Speed 13.0 km/h Distance 5.01 km</desc>
<time>2011-05-22T07:10:13.56</time>
<name>1177</name>
<sym>Dot</sym>
</trkpt>
<trkpt lat="40.061005" lon="-8.329282">
<ele>221.0</ele>
<desc>Speed 12.9 km/h Distance 5.01 km</desc>
<time>2011-05-22T07:10:14.56</time>
<name>1178</name>
<sym>Dot</sym>
</trkpt>
<trkpt lat="40.060973" lon="-8.329273">
<ele>221.5</ele>
<desc>Speed 12.6 km/h Distance 5.02 km</desc>
<time>2011-05-22T07:10:15.56</time>
<name>1179</name>
<sym>Dot</sym>
</trkpt>
<trkpt lat="40.060943" lon="-8.329265">
<ele>221.5</ele>
<desc>Speed 12.6 km/h Distance 5.02 km</desc>
<time>2011-05-22T07:10:16.56</time>
<name>1180</name>
<sym>Dot</sym>
</trkpt>
<trkpt lat="40.060913" lon="-8.329257">
<ele>222.0</ele>
<desc>Speed 12.6 km/h Distance 5.03 km</desc>
<time>2011-05-22T07:10:17.55</time>
<name>1181</name>
<sym>Dot</sym>
</trkpt>
<trkpt lat="40.060883" lon="-8.329248">
<ele>222.0</ele>
<desc>Speed 12.6 km/h Distance 5.03 km</desc>
<time>2011-05-22T07:10:18.55</time>
<name>1182</name>
<sym>Dot</sym>
</trkpt>
<trkpt lat="40.060853" lon="-8.329240">
<ele>222.5</ele>
<desc>Speed 12.3 km/h Distance 5.03 km</desc>
<time>2011-05-22T07:10:19.55</time>
<name>1183</name>
<sym>Dot</sym>
</trkpt>
<trkpt lat="40.060825" lon="-8.329233">
<ele>222.5</ele>
<desc>Speed 11.7 km/h Distance 5.04 km</desc>
<time>2011-05-22T07:10:20.55</time>
<name>1184</name>
<sym>Dot</sym>
</trkpt>
<trkpt lat="40.060797" lon="-8.329227">
<ele>223.0</ele>
<desc>Speed 11.8 km/h Distance 5.04 km</desc>
<time>2011-05-22T07:10:21.55</time>
<name>1185</name>
<sym>Dot</sym>
</trkpt>
<trkpt lat="40.060768" lon="-8.329220">
<ele>223.0</ele>
<desc>Speed 11.7 km/h Distance 5.04 km</desc>
<time>2011-05-22T07:10:22.54</time>
<name>1186</name>
<sym>Dot</sym>
</trkpt>
<trkpt lat="40.060738" lon="-8.329215">
<ele>223.5</ele>
<desc>Speed 12.2 km/h Distance 5.05 km</desc>
<time>2011-05-22T07:10:23.54</time>
<name>1187</name>
<sym>Dot</sym>
</trkpt>
<trkpt lat="40.060710" lon="-8.329210">
<ele>223.5</ele>
<desc>Speed 11.4 km/h Distance 5.05 km</desc>
<time>2011-05-22T07:10:24.54</time>
<name>1188</name>
<sym>Dot</sym>
</trkpt>
<trkpt lat="40.060682" lon="-8.329205">
<ele>223.5</ele>
<desc>Speed 11.5 km/h Distance 5.05 km</desc>
<time>2011-05-22T07:10:25.54</time>
<name>1189</name>
<sym>Dot</sym>
</trkpt>
<trkpt lat="40.060655" lon="-8.329205">
<ele>224.0</ele>
<desc>Speed 11.3 km/h Distance 5.05 km</desc>
<time>2011-05-22T07:10:26.53</time>
<name>1190</name>
<sym>Dot</sym>
</trkpt>
<trkpt lat="40.060628" lon="-8.329202">
<ele>224.5</ele>
<desc>Speed 10.9 km/h Distance 5.06 km</desc>
<time>2011-05-22T07:10:27.53</time>
<name>1191</name>
<sym>Dot</sym>
</trkpt>
<trkpt lat="40.060603" lon="-8.329198">
<ele>225.5</ele>
<desc>Speed 10.2 km/h Distance 5.06 km</desc>
<time>2011-05-22T07:10:28.53</time>
<name>1192</name>
<sym>Dot</sym>
</trkpt>
<trkpt lat="40.060578" lon="-8.329192">
<ele>225.5</ele>
<desc>Speed 10.4 km/h Distance 5.06 km</desc>
<time>2011-05-22T07:10:29.52</time>
<name>1193</name>
<sym>Dot</sym>
</trkpt>
<trkpt lat="40.060553" lon="-8.329188">
<ele>226.0</ele>
<desc>Speed 10.4 km/h Distance 5.07 km</desc>
<time>2011-05-22T07:10:30.52</time>
<name>1194</name>
<sym>Dot</sym>
</trkpt>
<trkpt lat="40.060527" lon="-8.329183">
<ele>226.5</ele>
<desc>Speed 10.6 km/h Distance 5.07 km</desc>
<time>2011-05-22T07:10:31.51</time>
<name>1195</name>
<sym>Dot</sym>
</trkpt>
<trkpt lat="40.060502" lon="-8.329175">
<ele>227.0</ele>
<desc>Speed 10.8 km/h Distance 5.07 km</desc>
<time>2011-05-22T07:10:32.51</time>
<name>1196</name>
<sym>Dot</sym>
</trkpt>
<trkpt lat="40.060478" lon="-8.329168">
<ele>227.5</ele>
<desc>Speed 9.9 km/h Distance 5.07 km</desc>
<time>2011-05-22T07:10:33.51</time>
<name>1197</name>
<sym>Dot</sym>
</trkpt>
<trkpt lat="40.060455" lon="-8.329162">
<ele>227.5</ele>
<desc>Speed 9.4 km/h Distance 5.08 km</desc>
<time>2011-05-22T07:10:34.51</time>
<name>1198</name>
<sym>Dot</sym>
</trkpt>
<trkpt lat="40.060433" lon="-8.329155">
<ele>228.0</ele>
<desc>Speed 9.1 km/h Distance 5.08 km</desc>
<time>2011-05-22T07:10:35.52</time>
<name>1199</name>
<sym>Dot</sym>
</trkpt>
<trkpt lat="40.060413" lon="-8.329150">
<ele>228.0</ele>
<desc>Speed 8.8 km/h Distance 5.08 km</desc>
<time>2011-05-22T07:10:36.50</time>
<name>1200</name>
<sym>Dot</sym>
</trkpt>
<trkpt lat="40.060390" lon="-8.329145">
<ele>228.5</ele>
<desc>Speed 9.1 km/h Distance 5.08 km</desc>
<time>2011-05-22T07:10:37.49</time>
<name>1201</name>
<sym>Dot</sym>
</trkpt>
<trkpt lat="40.060368" lon="-8.329140">
<ele>229.0</ele>
<desc>Speed 9.1 km/h Distance 5.09 km</desc>
<time>2011-05-22T07:10:38.49</time>
<name>1202</name>
<sym>Dot</sym>
</trkpt>
<trkpt lat="40.060347" lon="-8.329132">
<ele>229.5</ele>
<desc>Speed 9.3 km/h Distance 5.09 km</desc>
<time>2011-05-22T07:10:39.48</time>
<name>1203</name>
<sym>Dot</sym>
</trkpt>
<trkpt lat="40.060325" lon="-8.329122">
<ele>229.5</ele>
<desc>Speed 9.7 km/h Distance 5.09 km</desc>
<time>2011-05-22T07:10:40.48</time>
<name>1204</name>
<sym>Dot</sym>
</trkpt>
<trkpt lat="40.060300" lon="-8.329115">
<ele>229.5</ele>
<desc>Speed 10.0 km/h Distance 5.09 km</desc>
<time>2011-05-22T07:10:41.47</time>
<name>1205</name>
<sym>Dot</sym>
</trkpt>
<trkpt lat="40.060275" lon="-8.329110">
<ele>229.5</ele>
<desc>Speed 10.2 km/h Distance 5.10 km</desc>
<time>2011-05-22T07:10:42.46</time>
<name>1206</name>
<sym>Dot</sym>
</trkpt>
<trkpt lat="40.060252" lon="-8.329105">
<ele>230.0</ele>
<desc>Speed 10.2 km/h Distance 5.10 km</desc>
<time>2011-05-22T07:10:43.46</time>
<name>1207</name>
<sym>Dot</sym>
</trkpt>
<trkpt lat="40.060227" lon="-8.329100">
<ele>230.0</ele>
<desc>Speed 10.0 km/h Distance 5.10 km</desc>
<time>2011-05-22T07:10:44.45</time>
<name>1208</name>
<sym>Dot</sym>
</trkpt>
<trkpt lat="40.060203" lon="-8.329093">
<ele>230.5</ele>
<desc>Speed 9.9 km/h Distance 5.11 km</desc>
<time>2011-05-22T07:10:45.45</time>
<name>1209</name>
<sym>Dot</sym>
</trkpt>
<trkpt lat="40.060180" lon="-8.329088">
<ele>230.5</ele>
<desc>Speed 9.9 km/h Distance 5.11 km</desc>
<time>2011-05-22T07:10:46.45</time>
<name>1210</name>
<sym>Dot</sym>
</trkpt>
<trkpt lat="40.060157" lon="-8.329082">
<ele>230.5</ele>
<desc>Speed 9.5 km/h Distance 5.11 km</desc>
<time>2011-05-22T07:10:47.44</time>
<name>1211</name>
<sym>Dot</sym>
</trkpt>
<trkpt lat="40.060135" lon="-8.329073">
<ele>230.5</ele>
<desc>Speed 9.8 km/h Distance 5.11 km</desc>
<time>2011-05-22T07:10:48.44</time>
<name>1212</name>
<sym>Dot</sym>
</trkpt>
<trkpt lat="40.060110" lon="-8.329063">
<ele>230.5</ele>
<desc>Speed 10.3 km/h Distance 5.12 km</desc>
<time>2011-05-22T07:10:49.44</time>
<name>1213</name>
<sym>Dot</sym>
</trkpt>
<trkpt lat="40.060087" lon="-8.329053">
<ele>231.0</ele>
<desc>Speed 10.4 km/h Distance 5.12 km</desc>
<time>2011-05-22T07:10:50.43</time>
<name>1214</name>
<sym>Dot</sym>
</trkpt>
<trkpt lat="40.060060" lon="-8.329045">
<ele>231.0</ele>
<desc>Speed 10.9 km/h Distance 5.12 km</desc>
<time>2011-05-22T07:10:51.43</time>
<name>1215</name>
<sym>Dot</sym>
</trkpt>
<trkpt lat="40.060033" lon="-8.329038">
<ele>231.0</ele>
<desc>Speed 11.0 km/h Distance 5.13 km</desc>
<time>2011-05-22T07:10:52.42</time>
<name>1216</name>
<sym>Dot</sym>
</trkpt>
<trkpt lat="40.060007" lon="-8.329028">
<ele>231.0</ele>
<desc>Speed 11.3 km/h Distance 5.13 km</desc>
<time>2011-05-22T07:10:53.42</time>
<name>1217</name>
<sym>Dot</sym>
</trkpt>
<trkpt lat="40.059980" lon="-8.329018">
<ele>231.0</ele>
<desc>Speed 11.3 km/h Distance 5.13 km</desc>
<time>2011-05-22T07:10:54.41</time>
<name>1218</name>
<sym>Dot</sym>
</trkpt>
<trkpt lat="40.059952" lon="-8.329005">
<ele>231.0</ele>
<desc>Speed 11.4 km/h Distance 5.13 km</desc>
<time>2011-05-22T07:10:55.40</time>
<name>1219</name>
<sym>Dot</sym>
</trkpt>
<trkpt lat="40.059925" lon="-8.328993">
<ele>231.0</ele>
<desc>Speed 11.4 km/h Distance 5.14 km</desc>
<time>2011-05-22T07:10:56.40</time>
<name>1220</name>
<sym>Dot</sym>
</trkpt>
<trkpt lat="40.059898" lon="-8.328983">
<ele>231.0</ele>
<desc>Speed 11.5 km/h Distance 5.14 km</desc>
<time>2011-05-22T07:10:57.40</time>
<name>1221</name>
<sym>Dot</sym>
</trkpt>
<trkpt lat="40.059870" lon="-8.328972">
<ele>231.0</ele>
<desc>Speed 11.4 km/h Distance 5.14 km</desc>
<time>2011-05-22T07:10:58.39</time>
<name>1222</name>
<sym>Dot</sym>
</trkpt>
<trkpt lat="40.059843" lon="-8.328958">
<ele>231.0</ele>
<desc>Speed 11.5 km/h Distance 5.15 km</desc>
<time>2011-05-22T07:10:59.39</time>
<name>1223</name>
<sym>Dot</sym>
</trkpt>
<trkpt lat="40.059817" lon="-8.328943">
<ele>230.5</ele>
<desc>Speed 11.7 km/h Distance 5.15 km</desc>
<time>2011-05-22T07:11:00.38</time>
<name>1224</name>
<sym>Dot</sym>
</trkpt>
<trkpt lat="40.059790" lon="-8.328927">
<ele>230.5</ele>
<desc>Speed 11.7 km/h Distance 5.15 km</desc>
<time>2011-05-22T07:11:01.38</time>
<name>1225</name>
<sym>Dot</sym>
</trkpt>
<trkpt lat="40.059762" lon="-8.328913">
<ele>230.5</ele>
<desc>Speed 11.6 km/h Distance 5.16 km</desc>
<time>2011-05-22T07:11:02.38</time>
<name>1226</name>
<sym>Dot</sym>
</trkpt>
<trkpt lat="40.059735" lon="-8.328902">
<ele>230.5</ele>
<desc>Speed 11.3 km/h Distance 5.16 km</desc>
<time>2011-05-22T07:11:03.38</time>
<name>1227</name>
<sym>Dot</sym>
</trkpt>
<trkpt lat="40.059710" lon="-8.328887">
<ele>231.0</ele>
<desc>Speed 11.3 km/h Distance 5.16 km</desc>
<time>2011-05-22T07:11:04.38</time>
<name>1228</name>
<sym>Dot</sym>
</trkpt>
<trkpt lat="40.059685" lon="-8.328873">
<ele>231.0</ele>
<desc>Speed 10.9 km/h Distance 5.17 km</desc>
<time>2011-05-22T07:11:05.37</time>
<name>1229</name>
<sym>Dot</sym>
</trkpt>
<trkpt lat="40.059660" lon="-8.328858">
<ele>231.0</ele>
<desc>Speed 10.9 km/h Distance 5.17 km</desc>
<time>2011-05-22T07:11:06.38</time>
<name>1230</name>
<sym>Dot</sym>
</trkpt>
<trkpt lat="40.059637" lon="-8.328842">
<ele>231.0</ele>
<desc>Speed 10.9 km/h Distance 5.17 km</desc>
<time>2011-05-22T07:11:07.37</time>
<name>1231</name>
<sym>Dot</sym>
</trkpt>
<trkpt lat="40.059612" lon="-8.328830">
<ele>231.5</ele>
<desc>Speed 10.8 km/h Distance 5.18 km</desc>
<time>2011-05-22T07:11:08.36</time>
<name>1232</name>
<sym>Dot</sym>
</trkpt>
<trkpt lat="40.059587" lon="-8.328820">
<ele>231.5</ele>
<desc>Speed 10.4 km/h Distance 5.18 km</desc>
<time>2011-05-22T07:11:09.36</time>
<name>1233</name>
<sym>Dot</sym>
</trkpt>
<trkpt lat="40.059562" lon="-8.328810">
<ele>231.5</ele>
<desc>Speed 10.3 km/h Distance 5.18 km</desc>
<time>2011-05-22T07:11:10.36</time>
<name>1234</name>
<sym>Dot</sym>
</trkpt>
<trkpt lat="40.059538" lon="-8.328797">
<ele>231.5</ele>
<desc>Speed 10.4 km/h Distance 5.18 km</desc>
<time>2011-05-22T07:11:11.36</time>
<name>1235</name>
<sym>Dot</sym>
</trkpt>
<trkpt lat="40.059515" lon="-8.328780">
<ele>231.5</ele>
<desc>Speed 10.5 km/h Distance 5.19 km</desc>
<time>2011-05-22T07:11:12.36</time>
<name>1236</name>
<sym>Dot</sym>
</trkpt>
<trkpt lat="40.059490" lon="-8.328763">
<ele>231.5</ele>
<desc>Speed 11.2 km/h Distance 5.19 km</desc>
<time>2011-05-22T07:11:13.36</time>
<name>1237</name>
<sym>Dot</sym>
</trkpt>
<trkpt lat="40.059465" lon="-8.328747">
<ele>231.5</ele>
<desc>Speed 11.1 km/h Distance 5.19 km</desc>
<time>2011-05-22T07:11:14.35</time>
<name>1238</name>
<sym>Dot</sym>
</trkpt>
<trkpt lat="40.059440" lon="-8.328730">
<ele>232.0</ele>
<desc>Speed 11.0 km/h Distance 5.20 km</desc>
<time>2011-05-22T07:11:15.35</time>
<name>1239</name>
<sym>Dot</sym>
</trkpt>
<trkpt lat="40.059417" lon="-8.328713">
<ele>232.0</ele>
<desc>Speed 10.7 km/h Distance 5.20 km</desc>
<time>2011-05-22T07:11:16.34</time>
<name>1240</name>
<sym>Dot</sym>
</trkpt>
<trkpt lat="40.059393" lon="-8.328700">
<ele>232.0</ele>
<desc>Speed 10.1 km/h Distance 5.20 km</desc>
<time>2011-05-22T07:11:17.34</time>
<name>1241</name>
<sym>Dot</sym>
</trkpt>
<trkpt lat="40.059370" lon="-8.328690">
<ele>232.0</ele>
<desc>Speed 9.8 km/h Distance 5.20 km</desc>
<time>2011-05-22T07:11:18.34</time>
<name>1242</name>
<sym>Dot</sym>
</trkpt>
<trkpt lat="40.059347" lon="-8.328677">
<ele>232.0</ele>
<desc>Speed 9.8 km/h Distance 5.21 km</desc>
<time>2011-05-22T07:11:19.33</time>
<name>1243</name>
<sym>Dot</sym>
</trkpt>
<trkpt lat="40.059325" lon="-8.328660">
<ele>232.0</ele>
<desc>Speed 9.8 km/h Distance 5.21 km</desc>
<time>2011-05-22T07:11:20.33</time>
<name>1244</name>
<sym>Dot</sym>
</trkpt>
<trkpt lat="40.059302" lon="-8.328647">
<ele>232.0</ele>
<desc>Speed 10.0 km/h Distance 5.21 km</desc>
<time>2011-05-22T07:11:21.33</time>
<name>1245</name>
<sym>Dot</sym>
</trkpt>
<trkpt lat="40.059278" lon="-8.328633">
<ele>232.0</ele>
<desc>Speed 10.1 km/h Distance 5.22 km</desc>
<time>2011-05-22T07:11:22.33</time>
<name>1246</name>
<sym>Dot</sym>
</trkpt>
<trkpt lat="40.059257" lon="-8.328620">
<ele>232.0</ele>
<desc>Speed 10.0 km/h Distance 5.22 km</desc>
<time>2011-05-22T07:11:23.33</time>
<name>1247</name>
<sym>Dot</sym>
</trkpt>
<trkpt lat="40.059233" lon="-8.328608">
<ele>232.0</ele>
<desc>Speed 9.9 km/h Distance 5.22 km</desc>
<time>2011-05-22T07:11:24.33</time>
<name>1248</name>
<sym>Dot</sym>
</trkpt>
<trkpt lat="40.059212" lon="-8.328595">
<ele>232.0</ele>
<desc>Speed 10.0 km/h Distance 5.22 km</desc>
<time>2011-05-22T07:11:25.32</time>
<name>1249</name>
<sym>Dot</sym>
</trkpt>
<trkpt lat="40.059187" lon="-8.328582">
<ele>232.0</ele>
<desc>Speed 10.3 km/h Distance 5.23 km</desc>
<time>2011-05-22T07:11:26.32</time>
<name>1250</name>
<sym>Dot</sym>
</trkpt>
<trkpt lat="40.059163" lon="-8.328572">
<ele>232.5</ele>
<desc>Speed 9.8 km/h Distance 5.23 km</desc>
<time>2011-05-22T07:11:27.32</time>
<name>1251</name>
<sym>Dot</sym>
</trkpt>
<trkpt lat="40.059143" lon="-8.328557">
<ele>233.0</ele>
<desc>Speed 9.6 km/h Distance 5.23 km</desc>
<time>2011-05-22T07:11:28.33</time>
<name>1252</name>
<sym>Dot</sym>
</trkpt>
<trkpt lat="40.059122" lon="-8.328542">
<ele>233.0</ele>
<desc>Speed 9.7 km/h Distance 5.24 km</desc>
<time>2011-05-22T07:11:29.32</time>
<name>1253</name>
<sym>Dot</sym>
</trkpt>
<trkpt lat="40.059098" lon="-8.328528">
<ele>233.0</ele>
<desc>Speed 10.0 km/h Distance 5.24 km</desc>
<time>2011-05-22T07:11:30.32</time>
<name>1254</name>
<sym>Dot</sym>
</trkpt>
<trkpt lat="40.059073" lon="-8.328520">
<ele>233.0</ele>
<desc>Speed 10.5 km/h Distance 5.24 km</desc>
<time>2011-05-22T07:11:31.32</time>
<name>1255</name>
<sym>Dot</sym>
</trkpt>
<trkpt lat="40.059047" lon="-8.328512">
<ele>233.0</ele>
<desc>Speed 11.0 km/h Distance 5.24 km</desc>
<time>2011-05-22T07:11:32.31</time>
<name>1256</name>
<sym>Dot</sym>
</trkpt>
<trkpt lat="40.059022" lon="-8.328500">
<ele>233.5</ele>
<desc>Speed 11.3 km/h Distance 5.25 km</desc>
<time>2011-05-22T07:11:33.31</time>
<name>1257</name>
<sym>Dot</sym>
</trkpt>
<trkpt lat="40.058995" lon="-8.328487">
<ele>233.5</ele>
<desc>Speed 11.4 km/h Distance 5.25 km</desc>
<time>2011-05-22T07:11:34.31</time>
<name>1258</name>
<sym>Dot</sym>
</trkpt>
<trkpt lat="40.058970" lon="-8.328473">
<ele>233.5</ele>
<desc>Speed 11.0 km/h Distance 5.25 km</desc>
<time>2011-05-22T07:11:35.30</time>
<name>1259</name>
<sym>Dot</sym>
</trkpt>
<trkpt lat="40.058943" lon="-8.328462">
<ele>233.5</ele>
<desc>Speed 10.8 km/h Distance 5.26 km</desc>
<time>2011-05-22T07:11:36.30</time>
<name>1260</name>
<sym>Dot</sym>
</trkpt>
<trkpt lat="40.058918" lon="-8.328450">
<ele>234.0</ele>
<desc>Speed 11.3 km/h Distance 5.26 km</desc>
<time>2011-05-22T07:11:37.30</time>
<name>1261</name>
<sym>Dot</sym>
</trkpt>
<trkpt lat="40.058892" lon="-8.328438">
<ele>234.0</ele>
<desc>Speed 11.1 km/h Distance 5.26 km</desc>
<time>2011-05-22T07:11:38.29</time>
<name>1262</name>
<sym>Dot</sym>
</trkpt>
<trkpt lat="40.058865" lon="-8.328425">
<ele>234.0</ele>
<desc>Speed 11.5 km/h Distance 5.27 km</desc>
<time>2011-05-22T07:11:39.29</time>
<name>1263</name>
<sym>Dot</sym>
</trkpt>
<trkpt lat="40.058838" lon="-8.328417">
<ele>234.0</ele>
<desc>Speed 11.2 km/h Distance 5.27 km</desc>
<time>2011-05-22T07:11:40.29</time>
<name>1264</name>
<sym>Dot</sym>
</trkpt>
<trkpt lat="40.058810" lon="-8.328412">
<ele>234.0</ele>
<desc>Speed 11.5 km/h Distance 5.27 km</desc>
<time>2011-05-22T07:11:41.29</time>
<name>1265</name>
<sym>Dot</sym>
</trkpt>
<trkpt lat="40.058782" lon="-8.328410">
<ele>234.0</ele>
<desc>Speed 11.6 km/h Distance 5.28 km</desc>
<time>2011-05-22T07:11:42.28</time>
<name>1266</name>
<sym>Dot</sym>
</trkpt>
<trkpt lat="40.058753" lon="-8.328407">
<ele>234.0</ele>
<desc>Speed 11.7 km/h Distance 5.28 km</desc>
<time>2011-05-22T07:11:43.28</time>
<name>1267</name>
<sym>Dot</sym>
</trkpt>
<trkpt lat="40.058723" lon="-8.328403">
<ele>234.0</ele>
<desc>Speed 11.8 km/h Distance 5.28 km</desc>
<time>2011-05-22T07:11:44.28</time>
<name>1268</name>
<sym>Dot</sym>
</trkpt>
<trkpt lat="40.058693" lon="-8.328400">
<ele>234.0</ele>
<desc>Speed 11.8 km/h Distance 5.28 km</desc>
<time>2011-05-22T07:11:45.27</time>
<name>1269</name>
<sym>Dot</sym>
</trkpt>
<trkpt lat="40.058665" lon="-8.328400">
<ele>234.0</ele>
<desc>Speed 11.6 km/h Distance 5.29 km</desc>
<time>2011-05-22T07:11:46.27</time>
<name>1270</name>
<sym>Dot</sym>
</trkpt>
<trkpt lat="40.058635" lon="-8.328405">
<ele>234.0</ele>
<desc>Speed 11.6 km/h Distance 5.29 km</desc>
<time>2011-05-22T07:11:47.27</time>
<name>1271</name>
<sym>Dot</sym>
</trkpt>
<trkpt lat="40.058608" lon="-8.328410">
<ele>234.0</ele>
<desc>Speed 11.0 km/h Distance 5.29 km</desc>
<time>2011-05-22T07:11:48.27</time>
<name>1272</name>
<sym>Dot</sym>
</trkpt>
<trkpt lat="40.058582" lon="-8.328413">
<ele>234.0</ele>
<desc>Speed 10.5 km/h Distance 5.30 km</desc>
<time>2011-05-22T07:11:49.27</time>
<name>1273</name>
<sym>Dot</sym>
</trkpt>
<trkpt lat="40.058555" lon="-8.328420">
<ele>234.0</ele>
<desc>Speed 10.6 km/h Distance 5.30 km</desc>
<time>2011-05-22T07:11:50.27</time>
<name>1274</name>
<sym>Dot</sym>
</trkpt>
<trkpt lat="40.058530" lon="-8.328427">
<ele>234.0</ele>
<desc>Speed 10.9 km/h Distance 5.30 km</desc>
<time>2011-05-22T07:11:51.26</time>
<name>1275</name>
<sym>Dot</sym>
</trkpt>
<trkpt lat="40.058502" lon="-8.328433">
<ele>234.5</ele>
<desc>Speed 11.0 km/h Distance 5.31 km</desc>
<time>2011-05-22T07:11:52.26</time>
<name>1276</name>
<sym>Dot</sym>
</trkpt>
<trkpt lat="40.058475" lon="-8.328440">
<ele>234.5</ele>
<desc>Speed 11.2 km/h Distance 5.31 km</desc>
<time>2011-05-22T07:11:53.25</time>
<name>1277</name>
<sym>Dot</sym>
</trkpt>
<trkpt lat="40.058447" lon="-8.328445">
<ele>234.5</ele>
<desc>Speed 11.1 km/h Distance 5.31 km</desc>
<time>2011-05-22T07:11:54.25</time>
<name>1278</name>
<sym>Dot</sym>
</trkpt>
<trkpt lat="40.058420" lon="-8.328452">
<ele>234.5</ele>
<desc>Speed 11.3 km/h Distance 5.32 km</desc>
<time>2011-05-22T07:11:55.25</time>
<name>1279</name>
<sym>Dot</sym>
</trkpt>
<trkpt lat="40.058392" lon="-8.328458">
<ele>235.0</ele>
<desc>Speed 11.2 km/h Distance 5.32 km</desc>
<time>2011-05-22T07:11:56.25</time>
<name>1280</name>
<sym>Dot</sym>
</trkpt>
<trkpt lat="40.058363" lon="-8.328463">
<ele>235.0</ele>
<desc>Speed 11.7 km/h Distance 5.32 km</desc>
<time>2011-05-22T07:11:57.25</time>
<name>1281</name>
<sym>Dot</sym>
</trkpt>
<trkpt lat="40.058333" lon="-8.328467">
<ele>235.5</ele>
<desc>Speed 12.0 km/h Distance 5.33 km</desc>
<time>2011-05-22T07:11:58.24</time>
<name>1282</name>
<sym>Dot</sym>
</trkpt>
<trkpt lat="40.058303" lon="-8.328470">
<ele>236.0</ele>
<desc>Speed 12.0 km/h Distance 5.33 km</desc>
<time>2011-05-22T07:11:59.24</time>
<name>1283</name>
<sym>Dot</sym>
</trkpt>
<trkpt lat="40.058273" lon="-8.328475">
<ele>236.5</ele>
<desc>Speed 12.0 km/h Distance 5.33 km</desc>
<time>2011-05-22T07:12:00.24</time>
<name>1284</name>
<sym>Dot</sym>
</trkpt>
<trkpt lat="40.058243" lon="-8.328480">
<ele>236.5</ele>
<desc>Speed 12.1 km/h Distance 5.34 km</desc>
<time>2011-05-22T07:12:01.23</time>
<name>1285</name>
<sym>Dot</sym>
</trkpt>
<trkpt lat="40.058213" lon="-8.328487">
<ele>237.0</ele>
<desc>Speed 12.5 km/h Distance 5.34 km</desc>
<time>2011-05-22T07:12:02.23</time>
<name>1286</name>
<sym>Dot</sym>
</trkpt>
<trkpt lat="40.058182" lon="-8.328492">
<ele>237.0</ele>
<desc>Speed 12.6 km/h Distance 5.34 km</desc>
<time>2011-05-22T07:12:03.23</time>
<name>1287</name>
<sym>Dot</sym>
</trkpt>
<trkpt lat="40.058152" lon="-8.328497">
<ele>237.0</ele>
<desc>Speed 12.8 km/h Distance 5.35 km</desc>
<time>2011-05-22T07:12:04.23</time>
<name>1288</name>
<sym>Dot</sym>
</trkpt>
<trkpt lat="40.058120" lon="-8.328505">
<ele>237.0</ele>
<desc>Speed 12.8 km/h Distance 5.35 km</desc>
<time>2011-05-22T07:12:05.22</time>
<name>1289</name>
<sym>Dot</sym>
</trkpt>
<trkpt lat="40.058088" lon="-8.328513">
<ele>237.5</ele>
<desc>Speed 12.6 km/h Distance 5.35 km</desc>
<time>2011-05-22T07:12:06.22</time>
<name>1290</name>
<sym>Dot</sym>
</trkpt>
<trkpt lat="40.058057" lon="-8.328520">
<ele>237.5</ele>
<desc>Speed 12.9 km/h Distance 5.36 km</desc>
<time>2011-05-22T07:12:07.22</time>
<name>1291</name>
<sym>Dot</sym>
</trkpt>
<trkpt lat="40.058025" lon="-8.328528">
<ele>237.5</ele>
<desc>Speed 12.8 km/h Distance 5.36 km</desc>
<time>2011-05-22T07:12:08.22</time>
<name>1292</name>
<sym>Dot</sym>
</trkpt>
<trkpt lat="40.057993" lon="-8.328537">
<ele>237.5</ele>
<desc>Speed 12.7 km/h Distance 5.36 km</desc>
<time>2011-05-22T07:12:09.22</time>
<name>1293</name>
<sym>Dot</sym>
</trkpt>
<trkpt lat="40.057963" lon="-8.328545">
<ele>237.5</ele>
<desc>Speed 12.7 km/h Distance 5.37 km</desc>
<time>2011-05-22T07:12:10.22</time>
<name>1294</name>
<sym>Dot</sym>
</trkpt>
<trkpt lat="40.057932" lon="-8.328552">
<ele>237.5</ele>
<desc>Speed 12.8 km/h Distance 5.37 km</desc>
<time>2011-05-22T07:12:11.21</time>
<name>1295</name>
<sym>Dot</sym>
</trkpt>
<trkpt lat="40.057900" lon="-8.328560">
<ele>237.5</ele>
<desc>Speed 12.6 km/h Distance 5.37 km</desc>
<time>2011-05-22T07:12:12.20</time>
<name>1296</name>
<sym>Dot</sym>
</trkpt>
<trkpt lat="40.057868" lon="-8.328567">
<ele>238.0</ele>
<desc>Speed 12.8 km/h Distance 5.38 km</desc>
<time>2011-05-22T07:12:13.20</time>
<name>1297</name>
<sym>Dot</sym>
</trkpt>
<trkpt lat="40.057837" lon="-8.328573">
<ele>238.0</ele>
<desc>Speed 12.7 km/h Distance 5.38 km</desc>
<time>2011-05-22T07:12:14.19</time>
<name>1298</name>
<sym>Dot</sym>
</trkpt>
<trkpt lat="40.057807" lon="-8.328578">
<ele>238.0</ele>
<desc>Speed 12.5 km/h Distance 5.38 km</desc>
<time>2011-05-22T07:12:15.19</time>
<name>1299</name>
<sym>Dot</sym>
</trkpt>
<trkpt lat="40.057775" lon="-8.328583">
<ele>238.0</ele>
<desc>Speed 12.6 km/h Distance 5.39 km</desc>
<time>2011-05-22T07:12:16.18</time>
<name>1300</name>
<sym>Dot</sym>
</trkpt>
<trkpt lat="40.057743" lon="-8.328588">
<ele>238.0</ele>
<desc>Speed 12.3 km/h Distance 5.39 km</desc>
<time>2011-05-22T07:12:17.18</time>
<name>1301</name>
<sym>Dot</sym>
</trkpt>
<trkpt lat="40.057713" lon="-8.328592">
<ele>238.0</ele>
<desc>Speed 12.0 km/h Distance 5.40 km</desc>
<time>2011-05-22T07:12:18.18</time>
<name>1302</name>
<sym>Dot</sym>
</trkpt>
<trkpt lat="40.057683" lon="-8.328595">
<ele>238.0</ele>
<desc>Speed 12.3 km/h Distance 5.40 km</desc>
<time>2011-05-22T07:12:19.18</time>
<name>1303</name>
<sym>Dot</sym>
</trkpt>
<trkpt lat="40.057653" lon="-8.328600">
<ele>238.0</ele>
<desc>Speed 12.3 km/h Distance 5.40 km</desc>
<time>2011-05-22T07:12:20.18</time>
<name>1304</name>
<sym>Dot</sym>
</trkpt>
<trkpt lat="40.057623" lon="-8.328605">
<ele>238.0</ele>
<desc>Speed 12.2 km/h Distance 5.41 km</desc>
<time>2011-05-22T07:12:21.17</time>
<name>1305</name>
<sym>Dot</sym>
</trkpt>
<trkpt lat="40.057593" lon="-8.328612">
<ele>238.0</ele>
<desc>Speed 12.3 km/h Distance 5.41 km</desc>
<time>2011-05-22T07:12:22.17</time>
<name>1306</name>
<sym>Dot</sym>
</trkpt>
<trkpt lat="40.057562" lon="-8.328620">
<ele>238.0</ele>
<desc>Speed 12.6 km/h Distance 5.41 km</desc>
<time>2011-05-22T07:12:23.17</time>
<name>1307</name>
<sym>Dot</sym>
</trkpt>
<trkpt lat="40.057532" lon="-8.328628">
<ele>238.5</ele>
<desc>Speed 12.0 km/h Distance 5.42 km</desc>
<time>2011-05-22T07:12:24.16</time>
<name>1308</name>
<sym>Dot</sym>
</trkpt>
<trkpt lat="40.057500" lon="-8.328638">
<ele>238.5</ele>
<desc>Speed 12.9 km/h Distance 5.42 km</desc>
<time>2011-05-22T07:12:25.16</time>
<name>1309</name>
<sym>Dot</sym>
</trkpt>
<trkpt lat="40.057468" lon="-8.328647">
<ele>238.5</ele>
<desc>Speed 13.3 km/h Distance 5.42 km</desc>
<time>2011-05-22T07:12:26.15</time>
<name>1310</name>
<sym>Dot</sym>
</trkpt>
<trkpt lat="40.057435" lon="-8.328655">
<ele>239.0</ele>
<desc>Speed 13.4 km/h Distance 5.43 km</desc>
<time>2011-05-22T07:12:27.15</time>
<name>1311</name>
<sym>Dot</sym>
</trkpt>
<trkpt lat="40.057402" lon="-8.328663">
<ele>239.0</ele>
<desc>Speed 13.5 km/h Distance 5.43 km</desc>
<time>2011-05-22T07:12:28.14</time>
<name>1312</name>
<sym>Dot</sym>
</trkpt>
<trkpt lat="40.057368" lon="-8.328672">
<ele>239.0</ele>
<desc>Speed 13.4 km/h Distance 5.43 km</desc>
<time>2011-05-22T07:12:29.13</time>
<name>1313</name>
<sym>Dot</sym>
</trkpt>
<trkpt lat="40.057337" lon="-8.328680">
<ele>239.0</ele>
<desc>Speed 13.2 km/h Distance 5.44 km</desc>
<time>2011-05-22T07:12:30.13</time>
<name>1314</name>
<sym>Dot</sym>
</trkpt>
<trkpt lat="40.057303" lon="-8.328690">
<ele>239.0</ele>
<desc>Speed 13.5 km/h Distance 5.44 km</desc>
<time>2011-05-22T07:12:31.12</time>
<name>1315</name>
<sym>Dot</sym>
</trkpt>
<trkpt lat="40.057270" lon="-8.328698">
<ele>239.0</ele>
<desc>Speed 13.4 km/h Distance 5.45 km</desc>
<time>2011-05-22T07:12:32.11</time>
<name>1316</name>
<sym>Dot</sym>
</trkpt>
<trkpt lat="40.057237" lon="-8.328705">
<ele>239.5</ele>
<desc>Speed 13.8 km/h Distance 5.45 km</desc>
<time>2011-05-22T07:12:33.11</time>
<name>1317</name>
<sym>Dot</sym>
</trkpt>
<trkpt lat="40.057202" lon="-8.328713">
<ele>239.5</ele>
<desc>Speed 14.1 km/h Distance 5.45 km</desc>
<time>2011-05-22T07:12:34.11</time>
<name>1318</name>
<sym>Dot</sym>
</trkpt>
<trkpt lat="40.057167" lon="-8.328720">
<ele>239.5</ele>
<desc>Speed 14.2 km/h Distance 5.46 km</desc>
<time>2011-05-22T07:12:35.11</time>
<name>1319</name>
<sym>Dot</sym>
</trkpt>
<trkpt lat="40.057130" lon="-8.328728">
<ele>240.0</ele>
<desc>Speed 14.3 km/h Distance 5.46 km</desc>
<time>2011-05-22T07:12:36.10</time>
<name>1320</name>
<sym>Dot</sym>
</trkpt>
<trkpt lat="40.057095" lon="-8.328735">
<ele>240.0</ele>
<desc>Speed 14.3 km/h Distance 5.47 km</desc>
<time>2011-05-22T07:12:37.11</time>
<name>1321</name>
<sym>Dot</sym>
</trkpt>
<trkpt lat="40.057060" lon="-8.328745">
<ele>240.0</ele>
<desc>Speed 14.5 km/h Distance 5.47 km</desc>
<time>2011-05-22T07:12:38.10</time>
<name>1322</name>
<sym>Dot</sym>
</trkpt>
<trkpt lat="40.057023" lon="-8.328755">
<ele>240.0</ele>
<desc>Speed 14.7 km/h Distance 5.47 km</desc>
<time>2011-05-22T07:12:39.10</time>
<name>1323</name>
<sym>Dot</sym>
</trkpt>
<trkpt lat="40.056988" lon="-8.328765">
<ele>240.0</ele>
<desc>Speed 14.6 km/h Distance 5.48 km</desc>
<time>2011-05-22T07:12:40.09</time>
<name>1324</name>
<sym>Dot</sym>
</trkpt>
<trkpt lat="40.056952" lon="-8.328773">
<ele>240.0</ele>
<desc>Speed 14.6 km/h Distance 5.48 km</desc>
<time>2011-05-22T07:12:41.09</time>
<name>1325</name>
<sym>Dot</sym>
</trkpt>
<trkpt lat="40.056917" lon="-8.328783">
<ele>240.0</ele>
<desc>Speed 14.5 km/h Distance 5.49 km</desc>
<time>2011-05-22T07:12:42.09</time>
<name>1326</name>
<sym>Dot</sym>
</trkpt>
<trkpt lat="40.056882" lon="-8.328792">
<ele>240.0</ele>
<desc>Speed 14.1 km/h Distance 5.49 km</desc>
<time>2011-05-22T07:12:43.08</time>
<name>1327</name>
<sym>Dot</sym>
</trkpt>
<trkpt lat="40.056848" lon="-8.328803">
<ele>240.0</ele>
<desc>Speed 14.3 km/h Distance 5.49 km</desc>
<time>2011-05-22T07:12:44.09</time>
<name>1328</name>
<sym>Dot</sym>
</trkpt>
<trkpt lat="40.056815" lon="-8.328815">
<ele>240.0</ele>
<desc>Speed 14.1 km/h Distance 5.50 km</desc>
<time>2011-05-22T07:12:45.08</time>
<name>1329</name>
<sym>Dot</sym>
</trkpt>
<trkpt lat="40.056782" lon="-8.328825">
<ele>240.0</ele>
<desc>Speed 14.0 km/h Distance 5.50 km</desc>
<time>2011-05-22T07:12:46.07</time>
<name>1330</name>
<sym>Dot</sym>
</trkpt>
<trkpt lat="40.056747" lon="-8.328837">
<ele>240.0</ele>
<desc>Speed 14.0 km/h Distance 5.51 km</desc>
<time>2011-05-22T07:12:47.07</time>
<name>1331</name>
<sym>Dot</sym>
</trkpt>
<trkpt lat="40.056713" lon="-8.328850">
<ele>240.0</ele>
<desc>Speed 14.2 km/h Distance 5.51 km</desc>
<time>2011-05-22T07:12:48.07</time>
<name>1332</name>
<sym>Dot</sym>
</trkpt>
<trkpt lat="40.056680" lon="-8.328865">
<ele>240.0</ele>
<desc>Speed 14.3 km/h Distance 5.51 km</desc>
<time>2011-05-22T07:12:49.06</time>
<name>1333</name>
<sym>Dot</sym>
</trkpt>
<trkpt lat="40.056647" lon="-8.328882">
<ele>239.5</ele>
<desc>Speed 14.2 km/h Distance 5.52 km</desc>
<time>2011-05-22T07:12:50.06</time>
<name>1334</name>
<sym>Dot</sym>
</trkpt>
<trkpt lat="40.056613" lon="-8.328897">
<ele>239.5</ele>
<desc>Speed 14.3 km/h Distance 5.52 km</desc>
<time>2011-05-22T07:12:51.06</time>
<name>1335</name>
<sym>Dot</sym>
</trkpt>
<trkpt lat="40.056582" lon="-8.328915">
<ele>239.5</ele>
<desc>Speed 14.1 km/h Distance 5.52 km</desc>
<time>2011-05-22T07:12:52.06</time>
<name>1336</name>
<sym>Dot</sym>
</trkpt>
<trkpt lat="40.056550" lon="-8.328935">
<ele>239.5</ele>
<desc>Speed 14.1 km/h Distance 5.53 km</desc>
<time>2011-05-22T07:12:53.06</time>
<name>1337</name>
<sym>Dot</sym>
</trkpt>
<trkpt lat="40.056518" lon="-8.328955">
<ele>239.5</ele>
<desc>Speed 14.3 km/h Distance 5.53 km</desc>
<time>2011-05-22T07:12:54.06</time>
<name>1338</name>
<sym>Dot</sym>
</trkpt>
<trkpt lat="40.056485" lon="-8.328978">
<ele>239.5</ele>
<desc>Speed 14.9 km/h Distance 5.54 km</desc>
<time>2011-05-22T07:12:55.05</time>
<name>1339</name>
<sym>Dot</sym>
</trkpt>
<trkpt lat="40.056452" lon="-8.329002">
<ele>239.5</ele>
<desc>Speed 15.1 km/h Distance 5.54 km</desc>
<time>2011-05-22T07:12:56.05</time>
<name>1340</name>
<sym>Dot</sym>
</trkpt>
<trkpt lat="40.056418" lon="-8.329023">
<ele>239.5</ele>
<desc>Speed 15.1 km/h Distance 5.55 km</desc>
<time>2011-05-22T07:12:57.04</time>
<name>1341</name>
<sym>Dot</sym>
</trkpt>
<trkpt lat="40.056385" lon="-8.329045">
<ele>239.5</ele>
<desc>Speed 15.1 km/h Distance 5.55 km</desc>
<time>2011-05-22T07:12:58.04</time>
<name>1342</name>
<sym>Dot</sym>
</trkpt>
<trkpt lat="40.056352" lon="-8.329067">
<ele>239.5</ele>
<desc>Speed 14.7 km/h Distance 5.55 km</desc>
<time>2011-05-22T07:12:59.04</time>
<name>1343</name>
<sym>Dot</sym>
</trkpt>
<trkpt lat="40.056320" lon="-8.329087">
<ele>239.5</ele>
<desc>Speed 14.1 km/h Distance 5.56 km</desc>
<time>2011-05-22T07:13:00.03</time>
<name>1344</name>
<sym>Dot</sym>
</trkpt>
<trkpt lat="40.056290" lon="-8.329107">
<ele>239.5</ele>
<desc>Speed 13.9 km/h Distance 5.56 km</desc>
<time>2011-05-22T07:13:01.03</time>
<name>1345</name>
<sym>Dot</sym>
</trkpt>
<trkpt lat="40.056260" lon="-8.329123">
<ele>240.0</ele>
<desc>Speed 12.9 km/h Distance 5.56 km</desc>
<time>2011-05-22T07:13:02.03</time>
<name>1346</name>
<sym>Dot</sym>
</trkpt>
<trkpt lat="40.056232" lon="-8.329140">
<ele>240.0</ele>
<desc>Speed 12.8 km/h Distance 5.57 km</desc>
<time>2011-05-22T07:13:03.02</time>
<name>1347</name>
<sym>Dot</sym>
</trkpt>
<trkpt lat="40.056202" lon="-8.329158">
<ele>240.5</ele>
<desc>Speed 12.9 km/h Distance 5.57 km</desc>
<time>2011-05-22T07:13:04.03</time>
<name>1348</name>
<sym>Dot</sym>
</trkpt>
<trkpt lat="40.056172" lon="-8.329177">
<ele>240.0</ele>
<desc>Speed 13.5 km/h Distance 5.58 km</desc>
<time>2011-05-22T07:13:05.02</time>
<name>1349</name>
<sym>Dot</sym>
</trkpt>
<trkpt lat="40.056142" lon="-8.329193">
<ele>240.0</ele>
<desc>Speed 13.1 km/h Distance 5.58 km</desc>
<time>2011-05-22T07:13:06.01</time>
<name>1350</name>
<sym>Dot</sym>
</trkpt>
<trkpt lat="40.056110" lon="-8.329207">
<ele>240.0</ele>
<desc>Speed 13.0 km/h Distance 5.58 km</desc>
<time>2011-05-22T07:13:07.00</time>
<name>1351</name>
<sym>Dot</sym>
</trkpt>
<trkpt lat="40.056080" lon="-8.329218">
<ele>240.0</ele>
<desc>Speed 13.1 km/h Distance 5.59 km</desc>
<time>2011-05-22T07:13:08.00</time>
<name>1352</name>
<sym>Dot</sym>
</trkpt>
<trkpt lat="40.056048" lon="-8.329233">
<ele>240.0</ele>
<desc>Speed 13.4 km/h Distance 5.59 km</desc>
<time>2011-05-22T07:13:09.00</time>
<name>1353</name>
<sym>Dot</sym>
</trkpt>
<trkpt lat="40.056018" lon="-8.329252">
<ele>240.0</ele>
<desc>Speed 13.2 km/h Distance 5.59 km</desc>
<time>2011-05-22T07:13:10.00</time>
<name>1354</name>
<sym>Dot</sym>
</trkpt>
<trkpt lat="40.055988" lon="-8.329272">
<ele>240.0</ele>
<desc>Speed 13.6 km/h Distance 5.60 km</desc>
<time>2011-05-22T07:13:10.99</time>
<name>1355</name>
<sym>Dot</sym>
</trkpt>
<trkpt lat="40.055957" lon="-8.329290">
<ele>240.5</ele>
<desc>Speed 13.7 km/h Distance 5.60 km</desc>
<time>2011-05-22T07:13:11.99</time>
<name>1356</name>
<sym>Dot</sym>
</trkpt>
<trkpt lat="40.055925" lon="-8.329307">
<ele>240.5</ele>
<desc>Speed 13.7 km/h Distance 5.61 km</desc>
<time>2011-05-22T07:13:12.98</time>
<name>1357</name>
<sym>Dot</sym>
</trkpt>
<trkpt lat="40.055895" lon="-8.329322">
<ele>240.5</ele>
<desc>Speed 13.3 km/h Distance 5.61 km</desc>
<time>2011-05-22T07:13:13.99</time>
<name>1358</name>
<sym>Dot</sym>
</trkpt>
<trkpt lat="40.055863" lon="-8.329335">
<ele>240.5</ele>
<desc>Speed 13.3 km/h Distance 5.61 km</desc>
<time>2011-05-22T07:13:14.97</time>
<name>1359</name>
<sym>Dot</sym>
</trkpt>
<trkpt lat="40.055832" lon="-8.329347">
<ele>241.0</ele>
<desc>Speed 13.4 km/h Distance 5.62 km</desc>
<time>2011-05-22T07:13:15.97</time>
<name>1360</name>
<sym>Dot</sym>
</trkpt>
<trkpt lat="40.055798" lon="-8.329357">
<ele>241.0</ele>
<desc>Speed 13.4 km/h Distance 5.62 km</desc>
<time>2011-05-22T07:13:16.98</time>
<name>1361</name>
<sym>Dot</sym>
</trkpt>
<trkpt lat="40.055767" lon="-8.329363">
<ele>241.5</ele>
<desc>Speed 13.1 km/h Distance 5.62 km</desc>
<time>2011-05-22T07:13:17.96</time>
<name>1362</name>
<sym>Dot</sym>
</trkpt>
<trkpt lat="40.055733" lon="-8.329368">
<ele>241.5</ele>
<desc>Speed 14.0 km/h Distance 5.63 km</desc>
<time>2011-05-22T07:13:18.97</time>
<name>1363</name>
<sym>Dot</sym>
</trkpt>
<trkpt lat="40.055698" lon="-8.329370">
<ele>241.5</ele>
<desc>Speed 14.0 km/h Distance 5.63 km</desc>
<time>2011-05-22T07:13:19.96</time>
<name>1364</name>
<sym>Dot</sym>
</trkpt>
<trkpt lat="40.055663" lon="-8.329368">
<ele>241.5</ele>
<desc>Speed 14.3 km/h Distance 5.63 km</desc>
<time>2011-05-22T07:13:20.95</time>
<name>1365</name>
<sym>Dot</sym>
</trkpt>
<trkpt lat="40.055627" lon="-8.329367">
<ele>241.5</ele>
<desc>Speed 14.3 km/h Distance 5.64 km</desc>
<time>2011-05-22T07:13:21.95</time>
<name>1366</name>
<sym>Dot</sym>
</trkpt>
<trkpt lat="40.055592" lon="-8.329363">
<ele>241.5</ele>
<desc>Speed 14.2 km/h Distance 5.64 km</desc>
<time>2011-05-22T07:13:22.95</time>
<name>1367</name>
<sym>Dot</sym>
</trkpt>
<trkpt lat="40.055558" lon="-8.329357">
<ele>242.0</ele>
<desc>Speed 13.8 km/h Distance 5.65 km</desc>
<time>2011-05-22T07:13:23.95</time>
<name>1368</name>
<sym>Dot</sym>
</trkpt>
<trkpt lat="40.055523" lon="-8.329348">
<ele>242.0</ele>
<desc>Speed 14.2 km/h Distance 5.65 km</desc>
<time>2011-05-22T07:13:24.94</time>
<name>1369</name>
<sym>Dot</sym>
</trkpt>
<trkpt lat="40.055488" lon="-8.329338">
<ele>242.0</ele>
<desc>Speed 14.4 km/h Distance 5.65 km</desc>
<time>2011-05-22T07:13:25.94</time>
<name>1370</name>
<sym>Dot</sym>
</trkpt>
<trkpt lat="40.055453" lon="-8.329327">
<ele>242.0</ele>
<desc>Speed 14.7 km/h Distance 5.66 km</desc>
<time>2011-05-22T07:13:26.93</time>
<name>1371</name>
<sym>Dot</sym>
</trkpt>
<trkpt lat="40.055417" lon="-8.329313">
<ele>242.0</ele>
<desc>Speed 14.8 km/h Distance 5.66 km</desc>
<time>2011-05-22T07:13:27.93</time>
<name>1372</name>
<sym>Dot</sym>
</trkpt>
<trkpt lat="40.055380" lon="-8.329300">
<ele>242.0</ele>
<desc>Speed 15.0 km/h Distance 5.67 km</desc>
<time>2011-05-22T07:13:28.92</time>
<name>1373</name>
<sym>Dot</sym>
</trkpt>
<trkpt lat="40.055345" lon="-8.329283">
<ele>242.0</ele>
<desc>Speed 15.0 km/h Distance 5.67 km</desc>
<time>2011-05-22T07:13:29.91</time>
<name>1374</name>
<sym>Dot</sym>
</trkpt>
<trkpt lat="40.055308" lon="-8.329267">
<ele>242.0</ele>
<desc>Speed 15.2 km/h Distance 5.68 km</desc>
<time>2011-05-22T07:13:30.91</time>
<name>1375</name>
<sym>Dot</sym>
</trkpt>
<trkpt lat="40.055272" lon="-8.329250">
<ele>242.0</ele>
<desc>Speed 15.3 km/h Distance 5.68 km</desc>
<time>2011-05-22T07:13:31.91</time>
<name>1376</name>
<sym>Dot</sym>
</trkpt>
<trkpt lat="40.055237" lon="-8.329235">
<ele>242.0</ele>
<desc>Speed 15.2 km/h Distance 5.68 km</desc>
<time>2011-05-22T07:13:32.91</time>
<name>1377</name>
<sym>Dot</sym>
</trkpt>
<trkpt lat="40.055200" lon="-8.329220">
<ele>242.0</ele>
<desc>Speed 15.0 km/h Distance 5.69 km</desc>
<time>2011-05-22T07:13:33.90</time>
<name>1378</name>
<sym>Dot</sym>
</trkpt>
<trkpt lat="40.055165" lon="-8.329203">
<ele>242.0</ele>
<desc>Speed 14.8 km/h Distance 5.69 km</desc>
<time>2011-05-22T07:13:34.90</time>
<name>1379</name>
<sym>Dot</sym>
</trkpt>
<trkpt lat="40.055128" lon="-8.329192">
<ele>242.0</ele>
<desc>Speed 14.9 km/h Distance 5.70 km</desc>
<time>2011-05-22T07:13:35.89</time>
<name>1380</name>
<sym>Dot</sym>
</trkpt>
<trkpt lat="40.055092" lon="-8.329178">
<ele>241.5</ele>
<desc>Speed 14.7 km/h Distance 5.70 km</desc>
<time>2011-05-22T07:13:36.89</time>
<name>1381</name>
<sym>Dot</sym>
</trkpt>
<trkpt lat="40.055057" lon="-8.329165">
<ele>241.5</ele>
<desc>Speed 14.8 km/h Distance 5.70 km</desc>
<time>2011-05-22T07:13:37.89</time>
<name>1382</name>
<sym>Dot</sym>
</trkpt>
<trkpt lat="40.055020" lon="-8.329153">
<ele>241.5</ele>
<desc>Speed 14.9 km/h Distance 5.71 km</desc>
<time>2011-05-22T07:13:38.89</time>
<name>1383</name>
<sym>Dot</sym>
</trkpt>
<trkpt lat="40.054983" lon="-8.329142">
<ele>241.5</ele>
<desc>Speed 15.0 km/h Distance 5.71 km</desc>
<time>2011-05-22T07:13:39.88</time>
<name>1384</name>
<sym>Dot</sym>
</trkpt>
<trkpt lat="40.054947" lon="-8.329132">
<ele>241.0</ele>
<desc>Speed 14.9 km/h Distance 5.72 km</desc>
<time>2011-05-22T07:13:40.88</time>
<name>1385</name>
<sym>Dot</sym>
</trkpt>
<trkpt lat="40.054908" lon="-8.329128">
<ele>241.0</ele>
<desc>Speed 14.9 km/h Distance 5.72 km</desc>
<time>2011-05-22T07:13:41.88</time>
<name>1386</name>
<sym>Dot</sym>
</trkpt>
<trkpt lat="40.054872" lon="-8.329130">
<ele>241.0</ele>
<desc>Speed 15.0 km/h Distance 5.73 km</desc>
<time>2011-05-22T07:13:42.88</time>
<name>1387</name>
<sym>Dot</sym>
</trkpt>
<trkpt lat="40.054833" lon="-8.329135">
<ele>241.0</ele>
<desc>Speed 15.1 km/h Distance 5.73 km</desc>
<time>2011-05-22T07:13:43.88</time>
<name>1388</name>
<sym>Dot</sym>
</trkpt>
<trkpt lat="40.054793" lon="-8.329140">
<ele>242.0</ele>
<desc>Speed 15.9 km/h Distance 5.73 km</desc>
<time>2011-05-22T07:13:44.88</time>
<name>1389</name>
<sym>Dot</sym>
</trkpt>
<trkpt lat="40.054755" lon="-8.329147">
<ele>242.0</ele>
<desc>Speed 15.3 km/h Distance 5.74 km</desc>
<time>2011-05-22T07:13:45.87</time>
<name>1390</name>
<sym>Dot</sym>
</trkpt>
<trkpt lat="40.054718" lon="-8.329155">
<ele>243.0</ele>
<desc>Speed 15.6 km/h Distance 5.74 km</desc>
<time>2011-05-22T07:13:46.86</time>
<name>1391</name>
<sym>Dot</sym>
</trkpt>
<trkpt lat="40.054682" lon="-8.329165">
<ele>243.5</ele>
<desc>Speed 15.3 km/h Distance 5.75 km</desc>
<time>2011-05-22T07:13:47.86</time>
<name>1392</name>
<sym>Dot</sym>
</trkpt>
<trkpt lat="40.054645" lon="-8.329182">
<ele>243.0</ele>
<desc>Speed 15.4 km/h Distance 5.75 km</desc>
<time>2011-05-22T07:13:48.86</time>
<name>1393</name>
<sym>Dot</sym>
</trkpt>
<trkpt lat="40.054608" lon="-8.329198">
<ele>243.5</ele>
<desc>Speed 15.5 km/h Distance 5.76 km</desc>
<time>2011-05-22T07:13:49.85</time>
<name>1394</name>
<sym>Dot</sym>
</trkpt>
<trkpt lat="40.054573" lon="-8.329215">
<ele>243.5</ele>
<desc>Speed 15.4 km/h Distance 5.76 km</desc>
<time>2011-05-22T07:13:50.84</time>
<name>1395</name>
<sym>Dot</sym>
</trkpt>
<trkpt lat="40.054537" lon="-8.329233">
<ele>243.5</ele>
<desc>Speed 15.4 km/h Distance 5.76 km</desc>
<time>2011-05-22T07:13:51.84</time>
<name>1396</name>
<sym>Dot</sym>
</trkpt>
<trkpt lat="40.054502" lon="-8.329253">
<ele>243.5</ele>
<desc>Speed 15.4 km/h Distance 5.77 km</desc>
<time>2011-05-22T07:13:52.84</time>
<name>1397</name>
<sym>Dot</sym>
</trkpt>
<trkpt lat="40.054468" lon="-8.329275">
<ele>243.5</ele>
<desc>Speed 15.1 km/h Distance 5.77 km</desc>
<time>2011-05-22T07:13:53.84</time>
<name>1398</name>
<sym>Dot</sym>
</trkpt>
<trkpt lat="40.054435" lon="-8.329297">
<ele>243.5</ele>
<desc>Speed 14.9 km/h Distance 5.78 km</desc>
<time>2011-05-22T07:13:54.84</time>
<name>1399</name>
<sym>Dot</sym>
</trkpt>
<trkpt lat="40.054402" lon="-8.329318">
<ele>243.5</ele>
<desc>Speed 14.9 km/h Distance 5.78 km</desc>
<time>2011-05-22T07:13:55.84</time>
<name>1400</name>
<sym>Dot</sym>
</trkpt>
<trkpt lat="40.054370" lon="-8.329340">
<ele>243.5</ele>
<desc>Speed 14.7 km/h Distance 5.79 km</desc>
<time>2011-05-22T07:13:56.82</time>
<name>1401</name>
<sym>Dot</sym>
</trkpt>
<trkpt lat="40.054337" lon="-8.329363">
<ele>243.5</ele>
<desc>Speed 14.8 km/h Distance 5.79 km</desc>
<time>2011-05-22T07:13:57.81</time>
<name>1402</name>
<sym>Dot</sym>
</trkpt>
<trkpt lat="40.054305" lon="-8.329387">
<ele>243.0</ele>
<desc>Speed 14.7 km/h Distance 5.79 km</desc>
<time>2011-05-22T07:13:58.81</time>
<name>1403</name>
<sym>Dot</sym>
</trkpt>
<trkpt lat="40.054273" lon="-8.329408">
<ele>243.0</ele>
<desc>Speed 14.6 km/h Distance 5.80 km</desc>
<time>2011-05-22T07:13:59.81</time>
<name>1404</name>
<sym>Dot</sym>
</trkpt>
<trkpt lat="40.054242" lon="-8.329430">
<ele>243.0</ele>
<desc>Speed 14.4 km/h Distance 5.80 km</desc>
<time>2011-05-22T07:14:00.81</time>
<name>1405</name>
<sym>Dot</sym>
</trkpt>
<trkpt lat="40.054212" lon="-8.329452">
<ele>243.5</ele>
<desc>Speed 14.0 km/h Distance 5.81 km</desc>
<time>2011-05-22T07:14:01.81</time>
<name>1406</name>
<sym>Dot</sym>
</trkpt>
<trkpt lat="40.054182" lon="-8.329475">
<ele>243.5</ele>
<desc>Speed 14.1 km/h Distance 5.81 km</desc>
<time>2011-05-22T07:14:02.80</time>
<name>1407</name>
<sym>Dot</sym>
</trkpt>
<trkpt lat="40.054153" lon="-8.329498">
<ele>243.5</ele>
<desc>Speed 13.6 km/h Distance 5.81 km</desc>
<time>2011-05-22T07:14:03.79</time>
<name>1408</name>
<sym>Dot</sym>
</trkpt>
<trkpt lat="40.054125" lon="-8.329522">
<ele>243.5</ele>
<desc>Speed 13.6 km/h Distance 5.82 km</desc>
<time>2011-05-22T07:14:04.80</time>
<name>1409</name>
<sym>Dot</sym>
</trkpt>
<trkpt lat="40.054095" lon="-8.329543">
<ele>243.5</ele>
<desc>Speed 13.7 km/h Distance 5.82 km</desc>
<time>2011-05-22T07:14:05.80</time>
<name>1410</name>
<sym>Dot</sym>
</trkpt>
<trkpt lat="40.054067" lon="-8.329567">
<ele>243.5</ele>
<desc>Speed 13.5 km/h Distance 5.82 km</desc>
<time>2011-05-22T07:14:06.79</time>
<name>1411</name>
<sym>Dot</sym>
</trkpt>
<trkpt lat="40.054038" lon="-8.329588">
<ele>243.5</ele>
<desc>Speed 13.5 km/h Distance 5.83 km</desc>
<time>2011-05-22T07:14:07.80</time>
<name>1412</name>
<sym>Dot</sym>
</trkpt>
<trkpt lat="40.054010" lon="-8.329608">
<ele>243.5</ele>
<desc>Speed 12.9 km/h Distance 5.83 km</desc>
<time>2011-05-22T07:14:08.80</time>
<name>1413</name>
<sym>Dot</sym>
</trkpt>
<trkpt lat="40.053982" lon="-8.329628">
<ele>244.0</ele>
<desc>Speed 13.1 km/h Distance 5.83 km</desc>
<time>2011-05-22T07:14:09.82</time>
<name>1414</name>
<sym>Dot</sym>
</trkpt>
<trkpt lat="40.053953" lon="-8.329650">
<ele>244.0</ele>
<desc>Speed 13.2 km/h Distance 5.84 km</desc>
<time>2011-05-22T07:14:10.78</time>
<name>1415</name>
<sym>Dot</sym>
</trkpt>
<trkpt lat="40.053925" lon="-8.329672">
<ele>244.0</ele>
<desc>Speed 13.1 km/h Distance 5.84 km</desc>
<time>2011-05-22T07:14:11.77</time>
<name>1416</name>
<sym>Dot</sym>
</trkpt>
<trkpt lat="40.053897" lon="-8.329692">
<ele>244.0</ele>
<desc>Speed 13.1 km/h Distance 5.85 km</desc>
<time>2011-05-22T07:14:12.76</time>
<name>1417</name>
<sym>Dot</sym>
</trkpt>
<trkpt lat="40.053870" lon="-8.329712">
<ele>244.0</ele>
<desc>Speed 12.8 km/h Distance 5.85 km</desc>
<time>2011-05-22T07:14:13.76</time>
<name>1418</name>
<sym>Dot</sym>
</trkpt>
<trkpt lat="40.053843" lon="-8.329732">
<ele>244.0</ele>
<desc>Speed 12.2 km/h Distance 5.85 km</desc>
<time>2011-05-22T07:14:14.76</time>
<name>1419</name>
<sym>Dot</sym>
</trkpt>
<trkpt lat="40.053817" lon="-8.329752">
<ele>244.5</ele>
<desc>Speed 12.2 km/h Distance 5.86 km</desc>
<time>2011-05-22T07:14:15.76</time>
<name>1420</name>
<sym>Dot</sym>
</trkpt>
<trkpt lat="40.053792" lon="-8.329772">
<ele>244.5</ele>
<desc>Speed 12.0 km/h Distance 5.86 km</desc>
<time>2011-05-22T07:14:16.75</time>
<name>1421</name>
<sym>Dot</sym>
</trkpt>
<trkpt lat="40.053767" lon="-8.329792">
<ele>244.5</ele>
<desc>Speed 12.0 km/h Distance 5.86 km</desc>
<time>2011-05-22T07:14:17.75</time>
<name>1422</name>
<sym>Dot</sym>
</trkpt>
<trkpt lat="40.053740" lon="-8.329808">
<ele>245.0</ele>
<desc>Speed 11.7 km/h Distance 5.87 km</desc>
<time>2011-05-22T07:14:18.75</time>
<name>1423</name>
<sym>Dot</sym>
</trkpt>
<trkpt lat="40.053715" lon="-8.329827">
<ele>245.0</ele>
<desc>Speed 11.4 km/h Distance 5.87 km</desc>
<time>2011-05-22T07:14:19.75</time>
<name>1424</name>
<sym>Dot</sym>
</trkpt>
<trkpt lat="40.053693" lon="-8.329845">
<ele>245.5</ele>
<desc>Speed 11.0 km/h Distance 5.87 km</desc>
<time>2011-05-22T07:14:20.74</time>
<name>1425</name>
<sym>Dot</sym>
</trkpt>
<trkpt lat="40.053668" lon="-8.329863">
<ele>245.5</ele>
<desc>Speed 11.3 km/h Distance 5.88 km</desc>
<time>2011-05-22T07:14:21.73</time>
<name>1426</name>
<sym>Dot</sym>
</trkpt>
<trkpt lat="40.053645" lon="-8.329882">
<ele>246.0</ele>
<desc>Speed 10.9 km/h Distance 5.88 km</desc>
<time>2011-05-22T07:14:22.73</time>
<name>1427</name>
<sym>Dot</sym>
</trkpt>
<trkpt lat="40.053622" lon="-8.329897">
<ele>246.5</ele>
<desc>Speed 10.8 km/h Distance 5.88 km</desc>
<time>2011-05-22T07:14:23.72</time>
<name>1428</name>
<sym>Dot</sym>
</trkpt>
<trkpt lat="40.053598" lon="-8.329915">
<ele>247.0</ele>
<desc>Speed 10.9 km/h Distance 5.88 km</desc>
<time>2011-05-22T07:14:24.72</time>
<name>1429</name>
<sym>Dot</sym>
</trkpt>
<trkpt lat="40.053575" lon="-8.329933">
<ele>247.0</ele>
<desc>Speed 10.9 km/h Distance 5.89 km</desc>
<time>2011-05-22T07:14:25.72</time>
<name>1430</name>
<sym>Dot</sym>
</trkpt>
<trkpt lat="40.053553" lon="-8.329952">
<ele>247.5</ele>
<desc>Speed 10.8 km/h Distance 5.89 km</desc>
<time>2011-05-22T07:14:26.72</time>
<name>1431</name>
<sym>Dot</sym>
</trkpt>
<trkpt lat="40.053528" lon="-8.329968">
<ele>247.5</ele>
<desc>Speed 11.0 km/h Distance 5.89 km</desc>
<time>2011-05-22T07:14:27.73</time>
<name>1432</name>
<sym>Dot</sym>
</trkpt>
<trkpt lat="40.053505" lon="-8.329987">
<ele>248.0</ele>
<desc>Speed 11.0 km/h Distance 5.90 km</desc>
<time>2011-05-22T07:14:28.72</time>
<name>1433</name>
<sym>Dot</sym>
</trkpt>
<trkpt lat="40.053482" lon="-8.330003">
<ele>248.0</ele>
<desc>Speed 10.9 km/h Distance 5.90 km</desc>
<time>2011-05-22T07:14:29.71</time>
<name>1434</name>
<sym>Dot</sym>
</trkpt>
<trkpt lat="40.053458" lon="-8.330020">
<ele>248.5</ele>
<desc>Speed 10.7 km/h Distance 5.90 km</desc>
<time>2011-05-22T07:14:30.70</time>
<name>1435</name>
<sym>Dot</sym>
</trkpt>
<trkpt lat="40.053437" lon="-8.330035">
<ele>249.0</ele>
<desc>Speed 10.1 km/h Distance 5.90 km</desc>
<time>2011-05-22T07:14:31.70</time>
<name>1436</name>
<sym>Dot</sym>
</trkpt>
<trkpt lat="40.053412" lon="-8.330048">
<ele>249.0</ele>
<desc>Speed 10.4 km/h Distance 5.91 km</desc>
<time>2011-05-22T07:14:32.71</time>
<name>1437</name>
<sym>Dot</sym>
</trkpt>
<trkpt lat="40.053388" lon="-8.330062">
<ele>249.0</ele>
<desc>Speed 10.2 km/h Distance 5.91 km</desc>
<time>2011-05-22T07:14:33.69</time>
<name>1438</name>
<sym>Dot</sym>
</trkpt>
<trkpt lat="40.053365" lon="-8.330077">
<ele>249.0</ele>
<desc>Speed 10.8 km/h Distance 5.91 km</desc>
<time>2011-05-22T07:14:34.70</time>
<name>1439</name>
<sym>Dot</sym>
</trkpt>
<trkpt lat="40.053343" lon="-8.330092">
<ele>249.5</ele>
<desc>Speed 9.4 km/h Distance 5.92 km</desc>
<time>2011-05-22T07:14:35.70</time>
<name>1440</name>
<sym>Dot</sym>
</trkpt>
<trkpt lat="40.053322" lon="-8.330105">
<ele>250.0</ele>
<desc>Speed 9.6 km/h Distance 5.92 km</desc>
<time>2011-05-22T07:14:36.69</time>
<name>1441</name>
<sym>Dot</sym>
</trkpt>
<trkpt lat="40.053298" lon="-8.330122">
<ele>250.0</ele>
<desc>Speed 10.4 km/h Distance 5.92 km</desc>
<time>2011-05-22T07:14:37.67</time>
<name>1442</name>
<sym>Dot</sym>
</trkpt>
<trkpt lat="40.053273" lon="-8.330133">
<ele>250.0</ele>
<desc>Speed 10.9 km/h Distance 5.92 km</desc>
<time>2011-05-22T07:14:38.67</time>
<name>1443</name>
<sym>Dot</sym>
</trkpt>
<trkpt lat="40.053248" lon="-8.330145">
<ele>250.5</ele>
<desc>Speed 11.0 km/h Distance 5.93 km</desc>
<time>2011-05-22T07:14:39.67</time>
<name>1444</name>
<sym>Dot</sym>
</trkpt>
<trkpt lat="40.053222" lon="-8.330157">
<ele>250.5</ele>
<desc>Speed 10.8 km/h Distance 5.93 km</desc>
<time>2011-05-22T07:14:40.66</time>
<name>1445</name>
<sym>Dot</sym>
</trkpt>
<trkpt lat="40.053197" lon="-8.330172">
<ele>250.5</ele>
<desc>Speed 11.3 km/h Distance 5.93 km</desc>
<time>2011-05-22T07:14:41.66</time>
<name>1446</name>
<sym>Dot</sym>
</trkpt>
<trkpt lat="40.053172" lon="-8.330185">
<ele>251.0</ele>
<desc>Speed 10.7 km/h Distance 5.94 km</desc>
<time>2011-05-22T07:14:42.67</time>
<name>1447</name>
<sym>Dot</sym>
</trkpt>
<trkpt lat="40.053147" lon="-8.330193">
<ele>251.5</ele>
<desc>Speed 10.2 km/h Distance 5.94 km</desc>
<time>2011-05-22T07:14:43.63</time>
<name>1448</name>
<sym>Dot</sym>
</trkpt>
<trkpt lat="40.053120" lon="-8.330203">
<ele>251.5</ele>
<desc>Speed 10.5 km/h Distance 5.94 km</desc>
<time>2011-05-22T07:14:44.63</time>
<name>1449</name>
<sym>Dot</sym>
</trkpt>
<trkpt lat="40.053095" lon="-8.330212">
<ele>251.5</ele>
<desc>Speed 10.5 km/h Distance 5.95 km</desc>
<time>2011-05-22T07:14:45.63</time>
<name>1450</name>
<sym>Dot</sym>
</trkpt>
<trkpt lat="40.053068" lon="-8.330218">
<ele>251.5</ele>
<desc>Speed 10.6 km/h Distance 5.95 km</desc>
<time>2011-05-22T07:14:46.62</time>
<name>1451</name>
<sym>Dot</sym>
</trkpt>
<trkpt lat="40.053042" lon="-8.330223">
<ele>251.5</ele>
<desc>Speed 10.4 km/h Distance 5.95 km</desc>
<time>2011-05-22T07:14:47.62</time>
<name>1452</name>
<sym>Dot</sym>
</trkpt>
<trkpt lat="40.053015" lon="-8.330228">
<ele>252.0</ele>
<desc>Speed 10.4 km/h Distance 5.95 km</desc>
<time>2011-05-22T07:14:48.62</time>
<name>1453</name>
<sym>Dot</sym>
</trkpt>
<trkpt lat="40.052990" lon="-8.330228">
<ele>252.5</ele>
<desc>Speed 10.6 km/h Distance 5.96 km</desc>
<time>2011-05-22T07:14:49.62</time>
<name>1454</name>
<sym>Dot</sym>
</trkpt>
<trkpt lat="40.052963" lon="-8.330228">
<ele>253.0</ele>
<desc>Speed 10.5 km/h Distance 5.96 km</desc>
<time>2011-05-22T07:14:50.61</time>
<name>1455</name>
<sym>Dot</sym>
</trkpt>
<trkpt lat="40.052935" lon="-8.330228">
<ele>253.0</ele>
<desc>Speed 10.8 km/h Distance 5.96 km</desc>
<time>2011-05-22T07:14:51.60</time>
<name>1456</name>
<sym>Dot</sym>
</trkpt>
<trkpt lat="40.052908" lon="-8.330227">
<ele>253.0</ele>
<desc>Speed 10.9 km/h Distance 5.97 km</desc>
<time>2011-05-22T07:14:52.60</time>
<name>1457</name>
<sym>Dot</sym>
</trkpt>
<trkpt lat="40.052880" lon="-8.330227">
<ele>253.5</ele>
<desc>Speed 11.2 km/h Distance 5.97 km</desc>
<time>2011-05-22T07:14:53.60</time>
<name>1458</name>
<sym>Dot</sym>
</trkpt>
<trkpt lat="40.052852" lon="-8.330228">
<ele>254.0</ele>
<desc>Speed 11.0 km/h Distance 5.97 km</desc>
<time>2011-05-22T07:14:54.60</time>
<name>1459</name>
<sym>Dot</sym>
</trkpt>
<trkpt lat="40.052823" lon="-8.330230">
<ele>254.5</ele>
<desc>Speed 11.3 km/h Distance 5.98 km</desc>
<time>2011-05-22T07:14:55.59</time>
<name>1460</name>
<sym>Dot</sym>
</trkpt>
<trkpt lat="40.052797" lon="-8.330227">
<ele>255.0</ele>
<desc>Speed 10.9 km/h Distance 5.98 km</desc>
<time>2011-05-22T07:14:56.58</time>
<name>1461</name>
<sym>Dot</sym>
</trkpt>
<trkpt lat="40.052768" lon="-8.330225">
<ele>255.5</ele>
<desc>Speed 11.2 km/h Distance 5.98 km</desc>
<time>2011-05-22T07:14:57.58</time>
<name>1462</name>
<sym>Dot</sym>
</trkpt>
<trkpt lat="40.052740" lon="-8.330225">
<ele>256.5</ele>
<desc>Speed 10.7 km/h Distance 5.99 km</desc>
<time>2011-05-22T07:14:58.57</time>
<name>1463</name>
<sym>Dot</sym>
</trkpt>
<trkpt lat="40.052715" lon="-8.330225">
<ele>257.5</ele>
<desc>Speed 10.4 km/h Distance 5.99 km</desc>
<time>2011-05-22T07:14:59.58</time>
<name>1464</name>
<sym>Dot</sym>
</trkpt>
<trkpt lat="40.052688" lon="-8.330227">
<ele>258.5</ele>
<desc>Speed 10.4 km/h Distance 5.99 km</desc>
<time>2011-05-22T07:15:00.57</time>
<name>1465</name>
<sym>Dot</sym>
</trkpt>
<trkpt lat="40.052662" lon="-8.330227">
<ele>258.5</ele>
<desc>Speed 10.7 km/h Distance 5.99 km</desc>
<time>2011-05-22T07:15:01.57</time>
<name>1466</name>
<sym>Dot</sym>
</trkpt>
<trkpt lat="40.052633" lon="-8.330228">
<ele>259.0</ele>
<desc>Speed 10.9 km/h Distance 6.00 km</desc>
<time>2011-05-22T07:15:02.57</time>
<name>1467</name>
<sym>Dot</sym>
</trkpt>
<trkpt lat="40.052605" lon="-8.330230">
<ele>259.0</ele>
<desc>Speed 11.3 km/h Distance 6.00 km</desc>
<time>2011-05-22T07:15:03.57</time>
<name>1468</name>
<sym>Dot</sym>
</trkpt>
<trkpt lat="40.052577" lon="-8.330235">
<ele>259.5</ele>
<desc>Speed 11.1 km/h Distance 6.00 km</desc>
<time>2011-05-22T07:15:04.58</time>
<name>1469</name>
<sym>Dot</sym>
</trkpt>
<trkpt lat="40.052550" lon="-8.330238">
<ele>259.5</ele>
<desc>Speed 11.1 km/h Distance 6.01 km</desc>
<time>2011-05-22T07:15:05.56</time>
<name>1470</name>
<sym>Dot</sym>
</trkpt>
<trkpt lat="40.052522" lon="-8.330242">
<ele>259.5</ele>
<desc>Speed 11.4 km/h Distance 6.01 km</desc>
<time>2011-05-22T07:15:06.56</time>
<name>1471</name>
<sym>Dot</sym>
</trkpt>
<trkpt lat="40.052492" lon="-8.330245">
<ele>259.5</ele>
<desc>Speed 11.4 km/h Distance 6.01 km</desc>
<time>2011-05-22T07:15:07.55</time>
<name>1472</name>
<sym>Dot</sym>
</trkpt>
<trkpt lat="40.052463" lon="-8.330248">
<ele>259.5</ele>
<desc>Speed 11.2 km/h Distance 6.02 km</desc>
<time>2011-05-22T07:15:08.55</time>
<name>1473</name>
<sym>Dot</sym>
</trkpt>
<trkpt lat="40.052437" lon="-8.330255">
<ele>259.5</ele>
<desc>Speed 10.7 km/h Distance 6.02 km</desc>
<time>2011-05-22T07:15:09.54</time>
<name>1474</name>
<sym>Dot</sym>
</trkpt>
<trkpt lat="40.052410" lon="-8.330262">
<ele>260.0</ele>
<desc>Speed 10.6 km/h Distance 6.02 km</desc>
<time>2011-05-22T07:15:10.54</time>
<name>1475</name>
<sym>Dot</sym>
</trkpt>
<trkpt lat="40.052385" lon="-8.330268">
<ele>260.5</ele>
<desc>Speed 9.9 km/h Distance 6.03 km</desc>
<time>2011-05-22T07:15:11.54</time>
<name>1476</name>
<sym>Dot</sym>
</trkpt>
<trkpt lat="40.052362" lon="-8.330278">
<ele>261.5</ele>
<desc>Speed 9.8 km/h Distance 6.03 km</desc>
<time>2011-05-22T07:15:12.57</time>
<name>1477</name>
<sym>Dot</sym>
</trkpt>
<trkpt lat="40.052340" lon="-8.330288">
<ele>262.0</ele>
<desc>Speed 9.1 km/h Distance 6.03 km</desc>
<time>2011-05-22T07:15:13.53</time>
<name>1478</name>
<sym>Dot</sym>
</trkpt>
<trkpt lat="40.052318" lon="-8.330293">
<ele>263.0</ele>
<desc>Speed 8.6 km/h Distance 6.03 km</desc>
<time>2011-05-22T07:15:14.53</time>
<name>1479</name>
<sym>Dot</sym>
</trkpt>
<trkpt lat="40.052298" lon="-8.330300">
<ele>263.5</ele>
<desc>Speed 8.6 km/h Distance 6.04 km</desc>
<time>2011-05-22T07:15:15.53</time>
<name>1480</name>
<sym>Dot</sym>
</trkpt>
<trkpt lat="40.052278" lon="-8.330312">
<ele>263.5</ele>
<desc>Speed 8.4 km/h Distance 6.04 km</desc>
<time>2011-05-22T07:15:16.52</time>
<name>1481</name>
<sym>Dot</sym>
</trkpt>
<trkpt lat="40.052258" lon="-8.330322">
<ele>263.5</ele>
<desc>Speed 8.2 km/h Distance 6.04 km</desc>
<time>2011-05-22T07:15:17.51</time>
<name>1482</name>
<sym>Dot</sym>
</trkpt>
<trkpt lat="40.052240" lon="-8.330332">
<ele>264.0</ele>
<desc>Speed 8.2 km/h Distance 6.04 km</desc>
<time>2011-05-22T07:15:18.51</time>
<name>1483</name>
<sym>Dot</sym>
</trkpt>
<trkpt lat="40.052220" lon="-8.330340">
<ele>264.5</ele>
<desc>Speed 8.2 km/h Distance 6.04 km</desc>
<time>2011-05-22T07:15:19.51</time>
<name>1484</name>
<sym>Dot</sym>
</trkpt>
<trkpt lat="40.052198" lon="-8.330352">
<ele>264.0</ele>
<desc>Speed 9.3 km/h Distance 6.05 km</desc>
<time>2011-05-22T07:15:20.51</time>
<name>1485</name>
<sym>Dot</sym>
</trkpt>
<trkpt lat="40.052177" lon="-8.330365">
<ele>264.5</ele>
<desc>Speed 9.3 km/h Distance 6.05 km</desc>
<time>2011-05-22T07:15:21.51</time>
<name>1486</name>
<sym>Dot</sym>
</trkpt>
<trkpt lat="40.052155" lon="-8.330378">
<ele>265.0</ele>
<desc>Speed 9.8 km/h Distance 6.05 km</desc>
<time>2011-05-22T07:15:22.50</time>
<name>1487</name>
<sym>Dot</sym>
</trkpt>
<trkpt lat="40.052132" lon="-8.330397">
<ele>265.0</ele>
<desc>Speed 10.2 km/h Distance 6.06 km</desc>
<time>2011-05-22T07:15:23.50</time>
<name>1488</name>
<sym>Dot</sym>
</trkpt>
<trkpt lat="40.052110" lon="-8.330415">
<ele>265.0</ele>
<desc>Speed 10.0 km/h Distance 6.06 km</desc>
<time>2011-05-22T07:15:24.50</time>
<name>1489</name>
<sym>Dot</sym>
</trkpt>
<trkpt lat="40.052090" lon="-8.330433">
<ele>265.0</ele>
<desc>Speed 9.7 km/h Distance 6.06 km</desc>
<time>2011-05-22T07:15:25.50</time>
<name>1490</name>
<sym>Dot</sym>
</trkpt>
<trkpt lat="40.052070" lon="-8.330453">
<ele>265.0</ele>
<desc>Speed 9.9 km/h Distance 6.06 km</desc>
<time>2011-05-22T07:15:26.49</time>
<name>1491</name>
<sym>Dot</sym>
</trkpt>
<trkpt lat="40.052050" lon="-8.330473">
<ele>264.5</ele>
<desc>Speed 9.8 km/h Distance 6.07 km</desc>
<time>2011-05-22T07:15:27.49</time>
<name>1492</name>
<sym>Dot</sym>
</trkpt>
<trkpt lat="40.052032" lon="-8.330497">
<ele>264.5</ele>
<desc>Speed 9.8 km/h Distance 6.07 km</desc>
<time>2011-05-22T07:15:28.48</time>
<name>1493</name>
<sym>Dot</sym>
</trkpt>
<trkpt lat="40.052013" lon="-8.330520">
<ele>264.0</ele>
<desc>Speed 9.9 km/h Distance 6.07 km</desc>
<time>2011-05-22T07:15:29.48</time>
<name>1494</name>
<sym>Dot</sym>
</trkpt>
<trkpt lat="40.051995" lon="-8.330542">
<ele>264.0</ele>
<desc>Speed 10.0 km/h Distance 6.08 km</desc>
<time>2011-05-22T07:15:30.47</time>
<name>1495</name>
<sym>Dot</sym>
</trkpt>
<trkpt lat="40.051977" lon="-8.330563">
<ele>264.0</ele>
<desc>Speed 9.5 km/h Distance 6.08 km</desc>
<time>2011-05-22T07:15:31.46</time>
<name>1496</name>
<sym>Dot</sym>
</trkpt>
<trkpt lat="40.051960" lon="-8.330585">
<ele>264.0</ele>
<desc>Speed 9.5 km/h Distance 6.08 km</desc>
<time>2011-05-22T07:15:32.45</time>
<name>1497</name>
<sym>Dot</sym>
</trkpt>
<trkpt lat="40.051945" lon="-8.330610">
<ele>263.5</ele>
<desc>Speed 9.4 km/h Distance 6.08 km</desc>
<time>2011-05-22T07:15:33.45</time>
<name>1498</name>
<sym>Dot</sym>
</trkpt>
<trkpt lat="40.051932" lon="-8.330633">
<ele>263.5</ele>
<desc>Speed 9.2 km/h Distance 6.09 km</desc>
<time>2011-05-22T07:15:34.45</time>
<name>1499</name>
<sym>Dot</sym>
</trkpt>
<trkpt lat="40.051918" lon="-8.330658">
<ele>263.0</ele>
<desc>Speed 9.0 km/h Distance 6.09 km</desc>
<time>2011-05-22T07:15:35.45</time>
<name>1500</name>
<sym>Dot</sym>
</trkpt>
<trkpt lat="40.051907" lon="-8.330683">
<ele>263.0</ele>
<desc>Speed 9.4 km/h Distance 6.09 km</desc>
<time>2011-05-22T07:15:36.45</time>
<name>1501</name>
<sym>Dot</sym>
</trkpt>
<trkpt lat="40.051895" lon="-8.330712">
<ele>263.0</ele>
<desc>Speed 9.7 km/h Distance 6.09 km</desc>
<time>2011-05-22T07:15:37.44</time>
<name>1502</name>
<sym>Dot</sym>
</trkpt>
<trkpt lat="40.051883" lon="-8.330740">
<ele>262.5</ele>
<desc>Speed 9.8 km/h Distance 6.10 km</desc>
<time>2011-05-22T07:15:38.44</time>
<name>1503</name>
<sym>Dot</sym>
</trkpt>
<trkpt lat="40.051870" lon="-8.330767">
<ele>262.5</ele>
<desc>Speed 9.9 km/h Distance 6.10 km</desc>
<time>2011-05-22T07:15:39.44</time>
<name>1504</name>
<sym>Dot</sym>
</trkpt>
<trkpt lat="40.051858" lon="-8.330795">
<ele>262.5</ele>
<desc>Speed 9.6 km/h Distance 6.10 km</desc>
<time>2011-05-22T07:15:40.43</time>
<name>1505</name>
<sym>Dot</sym>
</trkpt>
<trkpt lat="40.051848" lon="-8.330823">
<ele>262.0</ele>
<desc>Speed 9.5 km/h Distance 6.10 km</desc>
<time>2011-05-22T07:15:41.43</time>
<name>1506</name>
<sym>Dot</sym>
</trkpt>
<trkpt lat="40.051837" lon="-8.330850">
<ele>262.0</ele>
<desc>Speed 9.5 km/h Distance 6.11 km</desc>
<time>2011-05-22T07:15:42.43</time>
<name>1507</name>
<sym>Dot</sym>
</trkpt>
<trkpt lat="40.051827" lon="-8.330878">
<ele>262.0</ele>
<desc>Speed 9.2 km/h Distance 6.11 km</desc>
<time>2011-05-22T07:15:43.43</time>
<name>1508</name>
<sym>Dot</sym>
</trkpt>
<trkpt lat="40.051818" lon="-8.330907">
<ele>262.0</ele>
<desc>Speed 9.3 km/h Distance 6.11 km</desc>
<time>2011-05-22T07:15:44.43</time>
<name>1509</name>
<sym>Dot</sym>
</trkpt>
<trkpt lat="40.051810" lon="-8.330935">
<ele>261.5</ele>
<desc>Speed 9.3 km/h Distance 6.11 km</desc>
<time>2011-05-22T07:15:45.42</time>
<name>1510</name>
<sym>Dot</sym>
</trkpt>
<trkpt lat="40.051803" lon="-8.330963">
<ele>261.5</ele>
<desc>Speed 9.2 km/h Distance 6.12 km</desc>
<time>2011-05-22T07:15:46.42</time>
<name>1511</name>
<sym>Dot</sym>
</trkpt>
<trkpt lat="40.051797" lon="-8.330993">
<ele>262.0</ele>
<desc>Speed 9.4 km/h Distance 6.12 km</desc>
<time>2011-05-22T07:15:47.42</time>
<name>1512</name>
<sym>Dot</sym>
</trkpt>
<trkpt lat="40.051790" lon="-8.331023">
<ele>262.0</ele>
<desc>Speed 9.7 km/h Distance 6.12 km</desc>
<time>2011-05-22T07:15:48.42</time>
<name>1513</name>
<sym>Dot</sym>
</trkpt>
<trkpt lat="40.051783" lon="-8.331055">
<ele>262.0</ele>
<desc>Speed 9.9 km/h Distance 6.13 km</desc>
<time>2011-05-22T07:15:49.42</time>
<name>1514</name>
<sym>Dot</sym>
</trkpt>
<trkpt lat="40.051778" lon="-8.331087">
<ele>262.0</ele>
<desc>Speed 9.9 km/h Distance 6.13 km</desc>
<time>2011-05-22T07:15:50.42</time>
<name>1515</name>
<sym>Dot</sym>
</trkpt>
<trkpt lat="40.051773" lon="-8.331118">
<ele>261.5</ele>
<desc>Speed 9.8 km/h Distance 6.13 km</desc>
<time>2011-05-22T07:15:51.42</time>
<name>1516</name>
<sym>Dot</sym>
</trkpt>
<trkpt lat="40.051768" lon="-8.331150">
<ele>261.5</ele>
<desc>Speed 9.8 km/h Distance 6.13 km</desc>
<time>2011-05-22T07:15:52.41</time>
<name>1517</name>
<sym>Dot</sym>
</trkpt>
<trkpt lat="40.051762" lon="-8.331180">
<ele>261.5</ele>
<desc>Speed 9.6 km/h Distance 6.14 km</desc>
<time>2011-05-22T07:15:53.41</time>
<name>1518</name>
<sym>Dot</sym>
</trkpt>
<trkpt lat="40.051758" lon="-8.331210">
<ele>261.5</ele>
<desc>Speed 9.3 km/h Distance 6.14 km</desc>
<time>2011-05-22T07:15:54.40</time>
<name>1519</name>
<sym>Dot</sym>
</trkpt>
<trkpt lat="40.051755" lon="-8.331240">
<ele>261.0</ele>
<desc>Speed 9.0 km/h Distance 6.14 km</desc>
<time>2011-05-22T07:15:55.39</time>
<name>1520</name>
<sym>Dot</sym>
</trkpt>
<trkpt lat="40.051755" lon="-8.331270">
<ele>261.0</ele>
<desc>Speed 9.1 km/h Distance 6.14 km</desc>
<time>2011-05-22T07:15:56.39</time>
<name>1521</name>
<sym>Dot</sym>
</trkpt>
<trkpt lat="40.051752" lon="-8.331300">
<ele>261.0</ele>
<desc>Speed 9.1 km/h Distance 6.15 km</desc>
<time>2011-05-22T07:15:57.39</time>
<name>1522</name>
<sym>Dot</sym>
</trkpt>
<trkpt lat="40.051748" lon="-8.331328">
<ele>261.0</ele>
<desc>Speed 9.2 km/h Distance 6.15 km</desc>
<time>2011-05-22T07:15:58.38</time>
<name>1523</name>
<sym>Dot</sym>
</trkpt>
<trkpt lat="40.051743" lon="-8.331358">
<ele>261.0</ele>
<desc>Speed 9.2 km/h Distance 6.15 km</desc>
<time>2011-05-22T07:15:59.38</time>
<name>1524</name>
<sym>Dot</sym>
</trkpt>
<trkpt lat="40.051738" lon="-8.331388">
<ele>261.0</ele>
<desc>Speed 9.2 km/h Distance 6.15 km</desc>
<time>2011-05-22T07:16:00.38</time>
<name>1525</name>
<sym>Dot</sym>
</trkpt>
<trkpt lat="40.051735" lon="-8.331417">
<ele>261.0</ele>
<desc>Speed 9.1 km/h Distance 6.16 km</desc>
<time>2011-05-22T07:16:01.38</time>
<name>1526</name>
<sym>Dot</sym>
</trkpt>
<trkpt lat="40.051733" lon="-8.331447">
<ele>261.0</ele>
<desc>Speed 9.1 km/h Distance 6.16 km</desc>
<time>2011-05-22T07:16:02.37</time>
<name>1527</name>
<sym>Dot</sym>
</trkpt>
<trkpt lat="40.051732" lon="-8.331477">
<ele>261.0</ele>
<desc>Speed 9.0 km/h Distance 6.16 km</desc>
<time>2011-05-22T07:16:03.37</time>
<name>1528</name>
<sym>Dot</sym>
</trkpt>
<trkpt lat="40.051730" lon="-8.331505">
<ele>261.0</ele>
<desc>Speed 8.7 km/h Distance 6.16 km</desc>
<time>2011-05-22T07:16:04.37</time>
<name>1529</name>
<sym>Dot</sym>
</trkpt>
<trkpt lat="40.051730" lon="-8.331532">
<ele>261.0</ele>
<desc>Speed 8.3 km/h Distance 6.17 km</desc>
<time>2011-05-22T07:16:05.37</time>
<name>1530</name>
<sym>Dot</sym>
</trkpt>
<trkpt lat="40.051728" lon="-8.331560">
<ele>261.0</ele>
<desc>Speed 8.4 km/h Distance 6.17 km</desc>
<time>2011-05-22T07:16:06.37</time>
<name>1531</name>
<sym>Dot</sym>
</trkpt>
<trkpt lat="40.051725" lon="-8.331588">
<ele>261.0</ele>
<desc>Speed 8.6 km/h Distance 6.17 km</desc>
<time>2011-05-22T07:16:07.37</time>
<name>1532</name>
<sym>Dot</sym>
</trkpt>
<trkpt lat="40.051722" lon="-8.331617">
<ele>261.0</ele>
<desc>Speed 8.8 km/h Distance 6.17 km</desc>
<time>2011-05-22T07:16:08.37</time>
<name>1533</name>
<sym>Dot</sym>
</trkpt>
<trkpt lat="40.051717" lon="-8.331645">
<ele>261.5</ele>
<desc>Speed 9.3 km/h Distance 6.18 km</desc>
<time>2011-05-22T07:16:09.36</time>
<name>1534</name>
<sym>Dot</sym>
</trkpt>
<trkpt lat="40.051713" lon="-8.331675">
<ele>261.5</ele>
<desc>Speed 9.3 km/h Distance 6.18 km</desc>
<time>2011-05-22T07:16:10.36</time>
<name>1535</name>
<sym>Dot</sym>
</trkpt>
<trkpt lat="40.051710" lon="-8.331705">
<ele>261.5</ele>
<desc>Speed 9.1 km/h Distance 6.18 km</desc>
<time>2011-05-22T07:16:11.35</time>
<name>1536</name>
<sym>Dot</sym>
</trkpt>
<trkpt lat="40.051705" lon="-8.331733">
<ele>261.5</ele>
<desc>Speed 9.0 km/h Distance 6.18 km</desc>
<time>2011-05-22T07:16:12.35</time>
<name>1537</name>
<sym>Dot</sym>
</trkpt>
<trkpt lat="40.051698" lon="-8.331762">
<ele>262.0</ele>
<desc>Speed 9.2 km/h Distance 6.19 km</desc>
<time>2011-05-22T07:16:13.35</time>
<name>1538</name>
<sym>Dot</sym>
</trkpt>
<trkpt lat="40.051693" lon="-8.331790">
<ele>262.0</ele>
<desc>Speed 9.1 km/h Distance 6.19 km</desc>
<time>2011-05-22T07:16:14.34</time>
<name>1539</name>
<sym>Dot</sym>
</trkpt>
<trkpt lat="40.051685" lon="-8.331818">
<ele>262.0</ele>
<desc>Speed 9.0 km/h Distance 6.19 km</desc>
<time>2011-05-22T07:16:15.33</time>
<name>1540</name>
<sym>Dot</sym>
</trkpt>
<trkpt lat="40.051678" lon="-8.331847">
<ele>262.0</ele>
<desc>Speed 9.0 km/h Distance 6.19 km</desc>
<time>2011-05-22T07:16:16.33</time>
<name>1541</name>
<sym>Dot</sym>
</trkpt>
<trkpt lat="40.051670" lon="-8.331873">
<ele>262.5</ele>
<desc>Speed 9.0 km/h Distance 6.20 km</desc>
<time>2011-05-22T07:16:17.33</time>
<name>1542</name>
<sym>Dot</sym>
</trkpt>
<trkpt lat="40.051658" lon="-8.331900">
<ele>262.5</ele>
<desc>Speed 9.1 km/h Distance 6.20 km</desc>
<time>2011-05-22T07:16:18.33</time>
<name>1543</name>
<sym>Dot</sym>
</trkpt>
<trkpt lat="40.051650" lon="-8.331927">
<ele>262.5</ele>
<desc>Speed 9.2 km/h Distance 6.20 km</desc>
<time>2011-05-22T07:16:19.33</time>
<name>1544</name>
<sym>Dot</sym>
</trkpt>
<trkpt lat="40.051638" lon="-8.331953">
<ele>263.0</ele>
<desc>Speed 9.3 km/h Distance 6.20 km</desc>
<time>2011-05-22T07:16:20.32</time>
<name>1545</name>
<sym>Dot</sym>
</trkpt>
<trkpt lat="40.051630" lon="-8.331982">
<ele>263.0</ele>
<desc>Speed 9.3 km/h Distance 6.21 km</desc>
<time>2011-05-22T07:16:21.32</time>
<name>1546</name>
<sym>Dot</sym>
</trkpt>
<trkpt lat="40.051618" lon="-8.332008">
<ele>263.5</ele>
<desc>Speed 9.5 km/h Distance 6.21 km</desc>
<time>2011-05-22T07:16:22.32</time>
<name>1547</name>
<sym>Dot</sym>
</trkpt>
<trkpt lat="40.051607" lon="-8.332035">
<ele>263.5</ele>
<desc>Speed 9.6 km/h Distance 6.21 km</desc>
<time>2011-05-22T07:16:23.32</time>
<name>1548</name>
<sym>Dot</sym>
</trkpt>
<trkpt lat="40.051595" lon="-8.332062">
<ele>264.0</ele>
<desc>Speed 9.2 km/h Distance 6.21 km</desc>
<time>2011-05-22T07:16:24.31</time>
<name>1549</name>
<sym>Dot</sym>
</trkpt>
<trkpt lat="40.051583" lon="-8.332085">
<ele>264.0</ele>
<desc>Speed 9.1 km/h Distance 6.22 km</desc>
<time>2011-05-22T07:16:25.31</time>
<name>1550</name>
<sym>Dot</sym>
</trkpt>
<trkpt lat="40.051568" lon="-8.332108">
<ele>264.5</ele>
<desc>Speed 9.8 km/h Distance 6.22 km</desc>
<time>2011-05-22T07:16:26.31</time>
<name>1551</name>
<sym>Dot</sym>
</trkpt>
<trkpt lat="40.051553" lon="-8.332133">
<ele>264.5</ele>
<desc>Speed 9.6 km/h Distance 6.22 km</desc>
<time>2011-05-22T07:16:27.31</time>
<name>1552</name>
<sym>Dot</sym>
</trkpt>
<trkpt lat="40.051538" lon="-8.332158">
<ele>264.5</ele>
<desc>Speed 9.9 km/h Distance 6.23 km</desc>
<time>2011-05-22T07:16:28.30</time>
<name>1553</name>
<sym>Dot</sym>
</trkpt>
<trkpt lat="40.051522" lon="-8.332182">
<ele>264.5</ele>
<desc>Speed 9.8 km/h Distance 6.23 km</desc>
<time>2011-05-22T07:16:29.31</time>
<name>1554</name>
<sym>Dot</sym>
</trkpt>
<trkpt lat="40.051508" lon="-8.332205">
<ele>265.0</ele>
<desc>Speed 9.2 km/h Distance 6.23 km</desc>
<time>2011-05-22T07:16:30.30</time>
<name>1555</name>
<sym>Dot</sym>
</trkpt>
<trkpt lat="40.051493" lon="-8.332228">
<ele>265.5</ele>
<desc>Speed 9.1 km/h Distance 6.23 km</desc>
<time>2011-05-22T07:16:31.29</time>
<name>1556</name>
<sym>Dot</sym>
</trkpt>
<trkpt lat="40.051475" lon="-8.332247">
<ele>265.5</ele>
<desc>Speed 9.1 km/h Distance 6.24 km</desc>
<time>2011-05-22T07:16:32.28</time>
<name>1557</name>
<sym>Dot</sym>
</trkpt>
<trkpt lat="40.051458" lon="-8.332265">
<ele>265.5</ele>
<desc>Speed 9.0 km/h Distance 6.24 km</desc>
<time>2011-05-22T07:16:33.27</time>
<name>1558</name>
<sym>Dot</sym>
</trkpt>
<trkpt lat="40.051440" lon="-8.332282">
<ele>266.0</ele>
<desc>Speed 8.7 km/h Distance 6.24 km</desc>
<time>2011-05-22T07:16:34.27</time>
<name>1559</name>
<sym>Dot</sym>
</trkpt>
<trkpt lat="40.051422" lon="-8.332297">
<ele>266.5</ele>
<desc>Speed 8.8 km/h Distance 6.24 km</desc>
<time>2011-05-22T07:16:35.27</time>
<name>1560</name>
<sym>Dot</sym>
</trkpt>
<trkpt lat="40.051403" lon="-8.332313">
<ele>267.0</ele>
<desc>Speed 9.1 km/h Distance 6.25 km</desc>
<time>2011-05-22T07:16:36.27</time>
<name>1561</name>
<sym>Dot</sym>
</trkpt>
<trkpt lat="40.051385" lon="-8.332330">
<ele>267.0</ele>
<desc>Speed 9.6 km/h Distance 6.25 km</desc>
<time>2011-05-22T07:16:37.26</time>
<name>1562</name>
<sym>Dot</sym>
</trkpt>
<trkpt lat="40.051365" lon="-8.332348">
<ele>267.5</ele>
<desc>Speed 9.9 km/h Distance 6.25 km</desc>
<time>2011-05-22T07:16:38.27</time>
<name>1563</name>
<sym>Dot</sym>
</trkpt>
<trkpt lat="40.051345" lon="-8.332367">
<ele>268.0</ele>
<desc>Speed 9.9 km/h Distance 6.25 km</desc>
<time>2011-05-22T07:16:39.25</time>
<name>1564</name>
<sym>Dot</sym>
</trkpt>
<trkpt lat="40.051325" lon="-8.332383">
<ele>268.5</ele>
<desc>Speed 9.8 km/h Distance 6.26 km</desc>
<time>2011-05-22T07:16:40.25</time>
<name>1565</name>
<sym>Dot</sym>
</trkpt>
<trkpt lat="40.051302" lon="-8.332398">
<ele>269.0</ele>
<desc>Speed 10.2 km/h Distance 6.26 km</desc>
<time>2011-05-22T07:16:41.24</time>
<name>1566</name>
<sym>Dot</sym>
</trkpt>
<trkpt lat="40.051282" lon="-8.332415">
<ele>269.0</ele>
<desc>Speed 10.2 km/h Distance 6.26 km</desc>
<time>2011-05-22T07:16:42.24</time>
<name>1567</name>
<sym>Dot</sym>
</trkpt>
<trkpt lat="40.051260" lon="-8.332433">
<ele>269.5</ele>
<desc>Speed 10.2 km/h Distance 6.26 km</desc>
<time>2011-05-22T07:16:43.24</time>
<name>1568</name>
<sym>Dot</sym>
</trkpt>
<trkpt lat="40.051238" lon="-8.332450">
<ele>270.0</ele>
<desc>Speed 10.6 km/h Distance 6.27 km</desc>
<time>2011-05-22T07:16:44.23</time>
<name>1569</name>
<sym>Dot</sym>
</trkpt>
<trkpt lat="40.051217" lon="-8.332465">
<ele>270.5</ele>
<desc>Speed 9.3 km/h Distance 6.27 km</desc>
<time>2011-05-22T07:16:45.23</time>
<name>1570</name>
<sym>Dot</sym>
</trkpt>
<trkpt lat="40.051195" lon="-8.332480">
<ele>271.0</ele>
<desc>Speed 10.1 km/h Distance 6.27 km</desc>
<time>2011-05-22T07:16:46.22</time>
<name>1571</name>
<sym>Dot</sym>
</trkpt>
<trkpt lat="40.051172" lon="-8.332492">
<ele>271.5</ele>
<desc>Speed 9.5 km/h Distance 6.28 km</desc>
<time>2011-05-22T07:16:47.22</time>
<name>1572</name>
<sym>Dot</sym>
</trkpt>
<trkpt lat="40.051150" lon="-8.332500">
<ele>272.5</ele>
<desc>Speed 8.9 km/h Distance 6.28 km</desc>
<time>2011-05-22T07:16:48.22</time>
<name>1573</name>
<sym>Dot</sym>
</trkpt>
<trkpt lat="40.051130" lon="-8.332512">
<ele>273.5</ele>
<desc>Speed 8.9 km/h Distance 6.28 km</desc>
<time>2011-05-22T07:16:49.23</time>
<name>1574</name>
<sym>Dot</sym>
</trkpt>
<trkpt lat="40.051108" lon="-8.332527">
<ele>274.0</ele>
<desc>Speed 10.2 km/h Distance 6.28 km</desc>
<time>2011-05-22T07:16:50.23</time>
<name>1575</name>
<sym>Dot</sym>
</trkpt>
<trkpt lat="40.051088" lon="-8.332547">
<ele>274.5</ele>
<desc>Speed 10.5 km/h Distance 6.29 km</desc>
<time>2011-05-22T07:16:51.22</time>
<name>1576</name>
<sym>Dot</sym>
</trkpt>
<trkpt lat="40.051067" lon="-8.332567">
<ele>274.5</ele>
<desc>Speed 10.4 km/h Distance 6.29 km</desc>
<time>2011-05-22T07:16:52.22</time>
<name>1577</name>
<sym>Dot</sym>
</trkpt>
<trkpt lat="40.051043" lon="-8.332583">
<ele>275.0</ele>
<desc>Speed 10.7 km/h Distance 6.29 km</desc>
<time>2011-05-22T07:16:53.21</time>
<name>1578</name>
<sym>Dot</sym>
</trkpt>
<trkpt lat="40.051020" lon="-8.332602">
<ele>274.5</ele>
<desc>Speed 10.8 km/h Distance 6.29 km</desc>
<time>2011-05-22T07:16:54.21</time>
<name>1579</name>
<sym>Dot</sym>
</trkpt>
<trkpt lat="40.050997" lon="-8.332618">
<ele>274.5</ele>
<desc>Speed 10.8 km/h Distance 6.30 km</desc>
<time>2011-05-22T07:16:55.20</time>
<name>1580</name>
<sym>Dot</sym>
</trkpt>
<trkpt lat="40.050973" lon="-8.332633">
<ele>275.0</ele>
<desc>Speed 10.2 km/h Distance 6.30 km</desc>
<time>2011-05-22T07:16:56.20</time>
<name>1581</name>
<sym>Dot</sym>
</trkpt>
<trkpt lat="40.050952" lon="-8.332648">
<ele>275.5</ele>
<desc>Speed 10.3 km/h Distance 6.30 km</desc>
<time>2011-05-22T07:16:57.20</time>
<name>1582</name>
<sym>Dot</sym>
</trkpt>
<trkpt lat="40.050928" lon="-8.332662">
<ele>276.0</ele>
<desc>Speed 10.2 km/h Distance 6.31 km</desc>
<time>2011-05-22T07:16:58.19</time>
<name>1583</name>
<sym>Dot</sym>
</trkpt>
<trkpt lat="40.050905" lon="-8.332680">
<ele>276.0</ele>
<desc>Speed 10.8 km/h Distance 6.31 km</desc>
<time>2011-05-22T07:16:59.20</time>
<name>1584</name>
<sym>Dot</sym>
</trkpt>
<trkpt lat="40.050883" lon="-8.332698">
<ele>276.5</ele>
<desc>Speed 10.5 km/h Distance 6.31 km</desc>
<time>2011-05-22T07:17:00.19</time>
<name>1585</name>
<sym>Dot</sym>
</trkpt>
<trkpt lat="40.050862" lon="-8.332717">
<ele>276.5</ele>
<desc>Speed 10.3 km/h Distance 6.32 km</desc>
<time>2011-05-22T07:17:01.18</time>
<name>1586</name>
<sym>Dot</sym>
</trkpt>
<trkpt lat="40.050838" lon="-8.332737">
<ele>276.5</ele>
<desc>Speed 10.8 km/h Distance 6.32 km</desc>
<time>2011-05-22T07:17:02.18</time>
<name>1587</name>
<sym>Dot</sym>
</trkpt>
<trkpt lat="40.050815" lon="-8.332757">
<ele>276.5</ele>
<desc>Speed 10.8 km/h Distance 6.32 km</desc>
<time>2011-05-22T07:17:03.18</time>
<name>1588</name>
<sym>Dot</sym>
</trkpt>
<trkpt lat="40.050792" lon="-8.332777">
<ele>276.5</ele>
<desc>Speed 11.1 km/h Distance 6.32 km</desc>
<time>2011-05-22T07:17:04.17</time>
<name>1589</name>
<sym>Dot</sym>
</trkpt>
<trkpt lat="40.050768" lon="-8.332800">
<ele>276.0</ele>
<desc>Speed 11.5 km/h Distance 6.33 km</desc>
<time>2011-05-22T07:17:05.17</time>
<name>1590</name>
<sym>Dot</sym>
</trkpt>
<trkpt lat="40.050743" lon="-8.332820">
<ele>275.5</ele>
<desc>Speed 11.5 km/h Distance 6.33 km</desc>
<time>2011-05-22T07:17:06.16</time>
<name>1591</name>
<sym>Dot</sym>
</trkpt>
<trkpt lat="40.050720" lon="-8.332838">
<ele>276.0</ele>
<desc>Speed 10.7 km/h Distance 6.33 km</desc>
<time>2011-05-22T07:17:07.16</time>
<name>1592</name>
<sym>Dot</sym>
</trkpt>
<trkpt lat="40.050697" lon="-8.332857">
<ele>276.5</ele>
<desc>Speed 10.6 km/h Distance 6.34 km</desc>
<time>2011-05-22T07:17:08.16</time>
<name>1593</name>
<sym>Dot</sym>
</trkpt>
<trkpt lat="40.050675" lon="-8.332875">
<ele>277.0</ele>
<desc>Speed 10.5 km/h Distance 6.34 km</desc>
<time>2011-05-22T07:17:09.15</time>
<name>1594</name>
<sym>Dot</sym>
</trkpt>
<trkpt lat="40.050655" lon="-8.332897">
<ele>277.0</ele>
<desc>Speed 10.4 km/h Distance 6.34 km</desc>
<time>2011-05-22T07:17:10.15</time>
<name>1595</name>
<sym>Dot</sym>
</trkpt>
<trkpt lat="40.050635" lon="-8.332920">
<ele>277.0</ele>
<desc>Speed 10.5 km/h Distance 6.35 km</desc>
<time>2011-05-22T07:17:11.14</time>
<name>1596</name>
<sym>Dot</sym>
</trkpt>
<trkpt lat="40.050617" lon="-8.332945">
<ele>277.0</ele>
<desc>Speed 10.8 km/h Distance 6.35 km</desc>
<time>2011-05-22T07:17:12.14</time>
<name>1597</name>
<sym>Dot</sym>
</trkpt>
<trkpt lat="40.050595" lon="-8.332968">
<ele>276.5</ele>
<desc>Speed 10.8 km/h Distance 6.35 km</desc>
<time>2011-05-22T07:17:13.13</time>
<name>1598</name>
<sym>Dot</sym>
</trkpt>
<trkpt lat="40.050573" lon="-8.332995">
<ele>276.0</ele>
<desc>Speed 11.0 km/h Distance 6.36 km</desc>
<time>2011-05-22T07:17:14.13</time>
<name>1599</name>
<sym>Dot</sym>
</trkpt>
<trkpt lat="40.050553" lon="-8.333022">
<ele>276.0</ele>
<desc>Speed 11.3 km/h Distance 6.36 km</desc>
<time>2011-05-22T07:17:15.12</time>
<name>1600</name>
<sym>Dot</sym>
</trkpt>
<trkpt lat="40.050535" lon="-8.333050">
<ele>275.5</ele>
<desc>Speed 11.3 km/h Distance 6.36 km</desc>
<time>2011-05-22T07:17:16.12</time>
<name>1601</name>
<sym>Dot</sym>
</trkpt>
<trkpt lat="40.050517" lon="-8.333078">
<ele>275.5</ele>
<desc>Speed 10.7 km/h Distance 6.36 km</desc>
<time>2011-05-22T07:17:17.11</time>
<name>1602</name>
<sym>Dot</sym>
</trkpt>
<trkpt lat="40.050498" lon="-8.333103">
<ele>275.5</ele>
<desc>Speed 9.9 km/h Distance 6.37 km</desc>
<time>2011-05-22T07:17:18.11</time>
<name>1603</name>
<sym>Dot</sym>
</trkpt>
<trkpt lat="40.050482" lon="-8.333128">
<ele>275.0</ele>
<desc>Speed 9.6 km/h Distance 6.37 km</desc>
<time>2011-05-22T07:17:19.11</time>
<name>1604</name>
<sym>Dot</sym>
</trkpt>
<trkpt lat="40.050465" lon="-8.333157">
<ele>274.5</ele>
<desc>Speed 9.9 km/h Distance 6.37 km</desc>
<time>2011-05-22T07:17:20.11</time>
<name>1605</name>
<sym>Dot</sym>
</trkpt>
<trkpt lat="40.050450" lon="-8.333185">
<ele>274.0</ele>
<desc>Speed 10.0 km/h Distance 6.38 km</desc>
<time>2011-05-22T07:17:21.11</time>
<name>1606</name>
<sym>Dot</sym>
</trkpt>
<trkpt lat="40.050433" lon="-8.333212">
<ele>274.0</ele>
<desc>Speed 10.4 km/h Distance 6.38 km</desc>
<time>2011-05-22T07:17:22.10</time>
<name>1607</name>
<sym>Dot</sym>
</trkpt>
<trkpt lat="40.050418" lon="-8.333242">
<ele>274.0</ele>
<desc>Speed 10.4 km/h Distance 6.38 km</desc>
<time>2011-05-22T07:17:23.10</time>
<name>1608</name>
<sym>Dot</sym>
</trkpt>
<trkpt lat="40.050405" lon="-8.333272">
<ele>273.5</ele>
<desc>Speed 10.0 km/h Distance 6.39 km</desc>
<time>2011-05-22T07:17:24.10</time>
<name>1609</name>
<sym>Dot</sym>
</trkpt>
<trkpt lat="40.050392" lon="-8.333302">
<ele>273.5</ele>
<desc>Speed 10.2 km/h Distance 6.39 km</desc>
<time>2011-05-22T07:17:25.10</time>
<name>1610</name>
<sym>Dot</sym>
</trkpt>
<trkpt lat="40.050380" lon="-8.333335">
<ele>273.0</ele>
<desc>Speed 10.4 km/h Distance 6.39 km</desc>
<time>2011-05-22T07:17:26.09</time>
<name>1611</name>
<sym>Dot</sym>
</trkpt>
<trkpt lat="40.050370" lon="-8.333367">
<ele>273.0</ele>
<desc>Speed 10.5 km/h Distance 6.39 km</desc>
<time>2011-05-22T07:17:27.09</time>
<name>1612</name>
<sym>Dot</sym>
</trkpt>
<trkpt lat="40.050360" lon="-8.333398">
<ele>273.0</ele>
<desc>Speed 10.1 km/h Distance 6.40 km</desc>
<time>2011-05-22T07:17:28.08</time>
<name>1613</name>
<sym>Dot</sym>
</trkpt>
<trkpt lat="40.050350" lon="-8.333430">
<ele>273.0</ele>
<desc>Speed 9.8 km/h Distance 6.40 km</desc>
<time>2011-05-22T07:17:29.08</time>
<name>1614</name>
<sym>Dot</sym>
</trkpt>
<trkpt lat="40.050340" lon="-8.333460">
<ele>273.0</ele>
<desc>Speed 9.6 km/h Distance 6.40 km</desc>
<time>2011-05-22T07:17:30.07</time>
<name>1615</name>
<sym>Dot</sym>
</trkpt>
<trkpt lat="40.050332" lon="-8.333492">
<ele>272.5</ele>
<desc>Speed 9.8 km/h Distance 6.41 km</desc>
<time>2011-05-22T07:17:31.07</time>
<name>1616</name>
<sym>Dot</sym>
</trkpt>
<trkpt lat="40.050322" lon="-8.333525">
<ele>272.5</ele>
<desc>Speed 9.9 km/h Distance 6.41 km</desc>
<time>2011-05-22T07:17:32.07</time>
<name>1617</name>
<sym>Dot</sym>
</trkpt>
<trkpt lat="40.050313" lon="-8.333555">
<ele>272.5</ele>
<desc>Speed 9.8 km/h Distance 6.41 km</desc>
<time>2011-05-22T07:17:33.07</time>
<name>1618</name>
<sym>Dot</sym>
</trkpt>
<trkpt lat="40.050305" lon="-8.333588">
<ele>272.5</ele>
<desc>Speed 9.9 km/h Distance 6.41 km</desc>
<time>2011-05-22T07:17:34.06</time>
<name>1619</name>
<sym>Dot</sym>
</trkpt>
<trkpt lat="40.050298" lon="-8.333618">
<ele>272.0</ele>
<desc>Speed 9.8 km/h Distance 6.42 km</desc>
<time>2011-05-22T07:17:35.05</time>
<name>1620</name>
<sym>Dot</sym>
</trkpt>
<trkpt lat="40.050290" lon="-8.333648">
<ele>272.0</ele>
<desc>Speed 9.6 km/h Distance 6.42 km</desc>
<time>2011-05-22T07:17:36.05</time>
<name>1621</name>
<sym>Dot</sym>
</trkpt>
<trkpt lat="40.050280" lon="-8.333678">
<ele>272.0</ele>
<desc>Speed 9.6 km/h Distance 6.42 km</desc>
<time>2011-05-22T07:17:37.04</time>
<name>1622</name>
<sym>Dot</sym>
</trkpt>
<trkpt lat="40.050270" lon="-8.333707">
<ele>272.0</ele>
<desc>Speed 9.6 km/h Distance 6.43 km</desc>
<time>2011-05-22T07:17:38.04</time>
<name>1623</name>
<sym>Dot</sym>
</trkpt>
<trkpt lat="40.050262" lon="-8.333738">
<ele>272.0</ele>
<desc>Speed 9.8 km/h Distance 6.43 km</desc>
<time>2011-05-22T07:17:39.03</time>
<name>1624</name>
<sym>Dot</sym>
</trkpt>
<trkpt lat="40.050255" lon="-8.333767">
<ele>272.0</ele>
<desc>Speed 9.5 km/h Distance 6.43 km</desc>
<time>2011-05-22T07:17:40.02</time>
<name>1625</name>
<sym>Dot</sym>
</trkpt>
<trkpt lat="40.050248" lon="-8.333797">
<ele>272.0</ele>
<desc>Speed 9.3 km/h Distance 6.43 km</desc>
<time>2011-05-22T07:17:41.02</time>
<name>1626</name>
<sym>Dot</sym>
</trkpt>
<trkpt lat="40.050242" lon="-8.333827">
<ele>272.0</ele>
<desc>Speed 9.3 km/h Distance 6.44 km</desc>
<time>2011-05-22T07:17:42.01</time>
<name>1627</name>
<sym>Dot</sym>
</trkpt>
<trkpt lat="40.050235" lon="-8.333857">
<ele>272.5</ele>
<desc>Speed 9.5 km/h Distance 6.44 km</desc>
<time>2011-05-22T07:17:43.01</time>
<name>1628</name>
<sym>Dot</sym>
</trkpt>
<trkpt lat="40.050227" lon="-8.333887">
<ele>272.0</ele>
<desc>Speed 9.6 km/h Distance 6.44 km</desc>
<time>2011-05-22T07:17:44.01</time>
<name>1629</name>
<sym>Dot</sym>
</trkpt>
<trkpt lat="40.050218" lon="-8.333917">
<ele>272.0</ele>
<desc>Speed 9.7 km/h Distance 6.44 km</desc>
<time>2011-05-22T07:17:45.00</time>
<name>1630</name>
<sym>Dot</sym>
</trkpt>
<trkpt lat="40.050212" lon="-8.333947">
<ele>272.0</ele>
<desc>Speed 9.6 km/h Distance 6.45 km</desc>
<time>2011-05-22T07:17:46.00</time>
<name>1631</name>
<sym>Dot</sym>
</trkpt>
<trkpt lat="40.050205" lon="-8.333978">
<ele>272.5</ele>
<desc>Speed 9.7 km/h Distance 6.45 km</desc>
<time>2011-05-22T07:17:47.00</time>
<name>1632</name>
<sym>Dot</sym>
</trkpt>
<trkpt lat="40.050198" lon="-8.334008">
<ele>272.5</ele>
<desc>Speed 9.8 km/h Distance 6.45 km</desc>
<time>2011-05-22T07:17:48.00</time>
<name>1633</name>
<sym>Dot</sym>
</trkpt>
<trkpt lat="40.050192" lon="-8.334038">
<ele>272.5</ele>
<desc>Speed 9.5 km/h Distance 6.46 km</desc>
<time>2011-05-22T07:17:49.00</time>
<name>1634</name>
<sym>Dot</sym>
</trkpt>
<trkpt lat="40.050185" lon="-8.334068">
<ele>273.0</ele>
<desc>Speed 9.6 km/h Distance 6.46 km</desc>
<time>2011-05-22T07:17:49.99</time>
<name>1635</name>
<sym>Dot</sym>
</trkpt>
<trkpt lat="40.050178" lon="-8.334100">
<ele>273.0</ele>
<desc>Speed 9.7 km/h Distance 6.46 km</desc>
<time>2011-05-22T07:17:50.98</time>
<name>1636</name>
<sym>Dot</sym>
</trkpt>
<trkpt lat="40.050172" lon="-8.334132">
<ele>273.0</ele>
<desc>Speed 9.8 km/h Distance 6.46 km</desc>
<time>2011-05-22T07:17:51.98</time>
<name>1637</name>
<sym>Dot</sym>
</trkpt>
<trkpt lat="40.050167" lon="-8.334165">
<ele>273.5</ele>
<desc>Speed 9.9 km/h Distance 6.47 km</desc>
<time>2011-05-22T07:17:52.98</time>
<name>1638</name>
<sym>Dot</sym>
</trkpt>
<trkpt lat="40.050162" lon="-8.334198">
<ele>273.5</ele>
<desc>Speed 9.8 km/h Distance 6.47 km</desc>
<time>2011-05-22T07:17:53.98</time>
<name>1639</name>
<sym>Dot</sym>
</trkpt>
<trkpt lat="40.050153" lon="-8.334228">
<ele>273.5</ele>
<desc>Speed 9.7 km/h Distance 6.47 km</desc>
<time>2011-05-22T07:17:54.98</time>
<name>1640</name>
<sym>Dot</sym>
</trkpt>
<trkpt lat="40.050147" lon="-8.334260">
<ele>273.5</ele>
<desc>Speed 9.7 km/h Distance 6.47 km</desc>
<time>2011-05-22T07:17:55.98</time>
<name>1641</name>
<sym>Dot</sym>
</trkpt>
<trkpt lat="40.050140" lon="-8.334292">
<ele>273.5</ele>
<desc>Speed 9.7 km/h Distance 6.48 km</desc>
<time>2011-05-22T07:17:56.98</time>
<name>1642</name>
<sym>Dot</sym>
</trkpt>
<trkpt lat="40.050133" lon="-8.334323">
<ele>273.5</ele>
<desc>Speed 9.7 km/h Distance 6.48 km</desc>
<time>2011-05-22T07:17:57.97</time>
<name>1643</name>
<sym>Dot</sym>
</trkpt>
<trkpt lat="40.050128" lon="-8.334355">
<ele>273.5</ele>
<desc>Speed 9.5 km/h Distance 6.48 km</desc>
<time>2011-05-22T07:17:58.97</time>
<name>1644</name>
<sym>Dot</sym>
</trkpt>
<trkpt lat="40.050122" lon="-8.334385">
<ele>273.5</ele>
<desc>Speed 9.5 km/h Distance 6.49 km</desc>
<time>2011-05-22T07:17:59.97</time>
<name>1645</name>
<sym>Dot</sym>
</trkpt>
<trkpt lat="40.050115" lon="-8.334417">
<ele>273.5</ele>
<desc>Speed 9.6 km/h Distance 6.49 km</desc>
<time>2011-05-22T07:18:00.96</time>
<name>1646</name>
<sym>Dot</sym>
</trkpt>
<trkpt lat="40.050108" lon="-8.334447">
<ele>274.0</ele>
<desc>Speed 9.3 km/h Distance 6.49 km</desc>
<time>2011-05-22T07:18:01.96</time>
<name>1647</name>
<sym>Dot</sym>
</trkpt>
<trkpt lat="40.050103" lon="-8.334475">
<ele>274.0</ele>
<desc>Speed 8.7 km/h Distance 6.49 km</desc>
<time>2011-05-22T07:18:02.96</time>
<name>1648</name>
<sym>Dot</sym>
</trkpt>
<trkpt lat="40.050098" lon="-8.334503">
<ele>274.0</ele>
<desc>Speed 8.8 km/h Distance 6.50 km</desc>
<time>2011-05-22T07:18:03.95</time>
<name>1649</name>
<sym>Dot</sym>
</trkpt>
<trkpt lat="40.050093" lon="-8.334533">
<ele>274.0</ele>
<desc>Speed 9.0 km/h Distance 6.50 km</desc>
<time>2011-05-22T07:18:04.95</time>
<name>1650</name>
<sym>Dot</sym>
</trkpt>
<trkpt lat="40.050090" lon="-8.334563">
<ele>274.5</ele>
<desc>Speed 9.0 km/h Distance 6.50 km</desc>
<time>2011-05-22T07:18:05.94</time>
<name>1651</name>
<sym>Dot</sym>
</trkpt>
<trkpt lat="40.050085" lon="-8.334592">
<ele>274.5</ele>
<desc>Speed 8.7 km/h Distance 6.50 km</desc>
<time>2011-05-22T07:18:06.93</time>
<name>1652</name>
<sym>Dot</sym>
</trkpt>
<trkpt lat="40.050080" lon="-8.334620">
<ele>275.0</ele>
<desc>Speed 8.7 km/h Distance 6.51 km</desc>
<time>2011-05-22T07:18:07.93</time>
<name>1653</name>
<sym>Dot</sym>
</trkpt>
<trkpt lat="40.050073" lon="-8.334647">
<ele>275.0</ele>
<desc>Speed 8.6 km/h Distance 6.51 km</desc>
<time>2011-05-22T07:18:08.93</time>
<name>1654</name>
<sym>Dot</sym>
</trkpt>
<trkpt lat="40.050065" lon="-8.334673">
<ele>275.0</ele>
<desc>Speed 8.1 km/h Distance 6.51 km</desc>
<time>2011-05-22T07:18:09.93</time>
<name>1655</name>
<sym>Dot</sym>
</trkpt>
<trkpt lat="40.050057" lon="-8.334697">
<ele>275.5</ele>
<desc>Speed 8.0 km/h Distance 6.51 km</desc>
<time>2011-05-22T07:18:10.92</time>
<name>1656</name>
<sym>Dot</sym>
</trkpt>
<trkpt lat="40.050047" lon="-8.334722">
<ele>275.5</ele>
<desc>Speed 8.2 km/h Distance 6.52 km</desc>
<time>2011-05-22T07:18:11.92</time>
<name>1657</name>
<sym>Dot</sym>
</trkpt>
<trkpt lat="40.050037" lon="-8.334745">
<ele>275.5</ele>
<desc>Speed 8.3 km/h Distance 6.52 km</desc>
<time>2011-05-22T07:18:12.91</time>
<name>1658</name>
<sym>Dot</sym>
</trkpt>
<trkpt lat="40.050025" lon="-8.334768">
<ele>275.5</ele>
<desc>Speed 8.6 km/h Distance 6.52 km</desc>
<time>2011-05-22T07:18:13.91</time>
<name>1659</name>
<sym>Dot</sym>
</trkpt>
<trkpt lat="40.050012" lon="-8.334792">
<ele>275.5</ele>
<desc>Speed 8.8 km/h Distance 6.52 km</desc>
<time>2011-05-22T07:18:14.91</time>
<name>1660</name>
<sym>Dot</sym>
</trkpt>
<trkpt lat="40.049998" lon="-8.334815">
<ele>275.5</ele>
<desc>Speed 8.9 km/h Distance 6.53 km</desc>
<time>2011-05-22T07:18:15.90</time>
<name>1661</name>
<sym>Dot</sym>
</trkpt>
<trkpt lat="40.049983" lon="-8.334838">
<ele>276.0</ele>
<desc>Speed 9.0 km/h Distance 6.53 km</desc>
<time>2011-05-22T07:18:16.90</time>
<name>1662</name>
<sym>Dot</sym>
</trkpt>
<trkpt lat="40.049967" lon="-8.334862">
<ele>276.0</ele>
<desc>Speed 9.9 km/h Distance 6.53 km</desc>
<time>2011-05-22T07:18:17.90</time>
<name>1663</name>
<sym>Dot</sym>
</trkpt>
<trkpt lat="40.049948" lon="-8.334885">
<ele>276.0</ele>
<desc>Speed 10.0 km/h Distance 6.53 km</desc>
<time>2011-05-22T07:18:18.90</time>
<name>1664</name>
<sym>Dot</sym>
</trkpt>
<trkpt lat="40.049932" lon="-8.334907">
<ele>276.0</ele>
<desc>Speed 9.8 km/h Distance 6.54 km</desc>
<time>2011-05-22T07:18:19.89</time>
<name>1665</name>
<sym>Dot</sym>
</trkpt>
<trkpt lat="40.049913" lon="-8.334928">
<ele>276.0</ele>
<desc>Speed 9.7 km/h Distance 6.54 km</desc>
<time>2011-05-22T07:18:20.89</time>
<name>1666</name>
<sym>Dot</sym>
</trkpt>
<trkpt lat="40.049895" lon="-8.334948">
<ele>276.5</ele>
<desc>Speed 9.5 km/h Distance 6.54 km</desc>
<time>2011-05-22T07:18:21.88</time>
<name>1667</name>
<sym>Dot</sym>
</trkpt>
<trkpt lat="40.049877" lon="-8.334968">
<ele>276.5</ele>
<desc>Speed 9.7 km/h Distance 6.54 km</desc>
<time>2011-05-22T07:18:22.88</time>
<name>1668</name>
<sym>Dot</sym>
</trkpt>
<trkpt lat="40.049858" lon="-8.334983">
<ele>277.0</ele>
<desc>Speed 8.8 km/h Distance 6.55 km</desc>
<time>2011-05-22T07:18:23.88</time>
<name>1669</name>
<sym>Dot</sym>
</trkpt>
<trkpt lat="40.049842" lon="-8.334998">
<ele>277.0</ele>
<desc>Speed 8.5 km/h Distance 6.55 km</desc>
<time>2011-05-22T07:18:24.88</time>
<name>1670</name>
<sym>Dot</sym>
</trkpt>
<trkpt lat="40.049823" lon="-8.335010">
<ele>277.5</ele>
<desc>Speed 8.6 km/h Distance 6.55 km</desc>
<time>2011-05-22T07:18:25.88</time>
<name>1671</name>
<sym>Dot</sym>
</trkpt>
<trkpt lat="40.049805" lon="-8.335022">
<ele>278.0</ele>
<desc>Speed 8.3 km/h Distance 6.55 km</desc>
<time>2011-05-22T07:18:26.88</time>
<name>1672</name>
<sym>Dot</sym>
</trkpt>
<trkpt lat="40.049785" lon="-8.335033">
<ele>278.0</ele>
<desc>Speed 8.7 km/h Distance 6.56 km</desc>
<time>2011-05-22T07:18:27.87</time>
<name>1673</name>
<sym>Dot</sym>
</trkpt>
<trkpt lat="40.049765" lon="-8.335042">
<ele>278.5</ele>
<desc>Speed 8.2 km/h Distance 6.56 km</desc>
<time>2011-05-22T07:18:28.86</time>
<name>1674</name>
<sym>Dot</sym>
</trkpt>
<trkpt lat="40.049747" lon="-8.335050">
<ele>279.0</ele>
<desc>Speed 8.1 km/h Distance 6.56 km</desc>
<time>2011-05-22T07:18:29.85</time>
<name>1675</name>
<sym>Dot</sym>
</trkpt>
<trkpt lat="40.049728" lon="-8.335058">
<ele>279.5</ele>
<desc>Speed 8.0 km/h Distance 6.56 km</desc>
<time>2011-05-22T07:18:30.85</time>
<name>1676</name>
<sym>Dot</sym>
</trkpt>
<trkpt lat="40.049710" lon="-8.335068">
<ele>280.5</ele>
<desc>Speed 7.4 km/h Distance 6.56 km</desc>
<time>2011-05-22T07:18:31.84</time>
<name>1677</name>
<sym>Dot</sym>
</trkpt>
<trkpt lat="40.049692" lon="-8.335075">
<ele>281.0</ele>
<desc>Speed 7.9 km/h Distance 6.57 km</desc>
<time>2011-05-22T07:18:32.85</time>
<name>1678</name>
<sym>Dot</sym>
</trkpt>
<trkpt lat="40.049672" lon="-8.335080">
<ele>281.5</ele>
<desc>Speed 8.1 km/h Distance 6.57 km</desc>
<time>2011-05-22T07:18:33.83</time>
<name>1679</name>
<sym>Dot</sym>
</trkpt>
<trkpt lat="40.049653" lon="-8.335083">
<ele>282.5</ele>
<desc>Speed 7.4 km/h Distance 6.57 km</desc>
<time>2011-05-22T07:18:34.83</time>
<name>1680</name>
<sym>Dot</sym>
</trkpt>
<trkpt lat="40.049633" lon="-8.335087">
<ele>283.0</ele>
<desc>Speed 7.7 km/h Distance 6.57 km</desc>
<time>2011-05-22T07:18:35.83</time>
<name>1681</name>
<sym>Dot</sym>
</trkpt>
<trkpt lat="40.049615" lon="-8.335093">
<ele>284.0</ele>
<desc>Speed 7.3 km/h Distance 6.58 km</desc>
<time>2011-05-22T07:18:36.82</time>
<name>1682</name>
<sym>Dot</sym>
</trkpt>
<trkpt lat="40.049597" lon="-8.335097">
<ele>284.5</ele>
<desc>Speed 7.4 km/h Distance 6.58 km</desc>
<time>2011-05-22T07:18:37.82</time>
<name>1683</name>
<sym>Dot</sym>
</trkpt>
<trkpt lat="40.049578" lon="-8.335103">
<ele>285.0</ele>
<desc>Speed 7.0 km/h Distance 6.58 km</desc>
<time>2011-05-22T07:18:38.81</time>
<name>1684</name>
<sym>Dot</sym>
</trkpt>
<trkpt lat="40.049558" lon="-8.335110">
<ele>285.5</ele>
<desc>Speed 7.8 km/h Distance 6.58 km</desc>
<time>2011-05-22T07:18:39.81</time>
<name>1685</name>
<sym>Dot</sym>
</trkpt>
<trkpt lat="40.049540" lon="-8.335113">
<ele>285.5</ele>
<desc>Speed 7.7 km/h Distance 6.58 km</desc>
<time>2011-05-22T07:18:40.81</time>
<name>1686</name>
<sym>Dot</sym>
</trkpt>
<trkpt lat="40.049518" lon="-8.335117">
<ele>286.0</ele>
<desc>Speed 8.6 km/h Distance 6.59 km</desc>
<time>2011-05-22T07:18:41.79</time>
<name>1687</name>
<sym>Dot</sym>
</trkpt>
<trkpt lat="40.049498" lon="-8.335120">
<ele>286.5</ele>
<desc>Speed 7.9 km/h Distance 6.59 km</desc>
<time>2011-05-22T07:18:42.79</time>
<name>1688</name>
<sym>Dot</sym>
</trkpt>
<trkpt lat="40.049480" lon="-8.335125">
<ele>287.0</ele>
<desc>Speed 7.3 km/h Distance 6.59 km</desc>
<time>2011-05-22T07:18:43.79</time>
<name>1689</name>
<sym>Dot</sym>
</trkpt>
<trkpt lat="40.049462" lon="-8.335132">
<ele>287.0</ele>
<desc>Speed 7.4 km/h Distance 6.59 km</desc>
<time>2011-05-22T07:18:44.78</time>
<name>1690</name>
<sym>Dot</sym>
</trkpt>
<trkpt lat="40.049445" lon="-8.335138">
<ele>287.5</ele>
<desc>Speed 7.0 km/h Distance 6.59 km</desc>
<time>2011-05-22T07:18:45.78</time>
<name>1691</name>
<sym>Dot</sym>
</trkpt>
<trkpt lat="40.049427" lon="-8.335147">
<ele>287.5</ele>
<desc>Speed 7.4 km/h Distance 6.60 km</desc>
<time>2011-05-22T07:18:46.77</time>
<name>1692</name>
<sym>Dot</sym>
</trkpt>
<trkpt lat="40.049408" lon="-8.335150">
<ele>287.5</ele>
<desc>Speed 7.4 km/h Distance 6.60 km</desc>
<time>2011-05-22T07:18:47.77</time>
<name>1693</name>
<sym>Dot</sym>
</trkpt>
<trkpt lat="40.049390" lon="-8.335152">
<ele>288.0</ele>
<desc>Speed 7.1 km/h Distance 6.60 km</desc>
<time>2011-05-22T07:18:48.75</time>
<name>1694</name>
<sym>Dot</sym>
</trkpt>
<trkpt lat="40.049372" lon="-8.335157">
<ele>288.0</ele>
<desc>Speed 7.1 km/h Distance 6.60 km</desc>
<time>2011-05-22T07:18:49.76</time>
<name>1695</name>
<sym>Dot</sym>
</trkpt>
<trkpt lat="40.049350" lon="-8.335162">
<ele>288.5</ele>
<desc>Speed 8.3 km/h Distance 6.61 km</desc>
<time>2011-05-22T07:18:50.75</time>
<name>1696</name>
<sym>Dot</sym>
</trkpt>
<trkpt lat="40.049327" lon="-8.335167">
<ele>288.5</ele>
<desc>Speed 8.8 km/h Distance 6.61 km</desc>
<time>2011-05-22T07:18:51.75</time>
<name>1697</name>
<sym>Dot</sym>
</trkpt>
<trkpt lat="40.049305" lon="-8.335175">
<ele>288.5</ele>
<desc>Speed 8.8 km/h Distance 6.61 km</desc>
<time>2011-05-22T07:18:52.74</time>
<name>1698</name>
<sym>Dot</sym>
</trkpt>
<trkpt lat="40.049285" lon="-8.335180">
<ele>289.0</ele>
<desc>Speed 8.1 km/h Distance 6.61 km</desc>
<time>2011-05-22T07:18:53.78</time>
<name>1699</name>
<sym>Dot</sym>
</trkpt>
<trkpt lat="40.049265" lon="-8.335185">
<ele>289.5</ele>
<desc>Speed 8.1 km/h Distance 6.62 km</desc>
<time>2011-05-22T07:18:54.74</time>
<name>1700</name>
<sym>Dot</sym>
</trkpt>
<trkpt lat="40.049242" lon="-8.335185">
<ele>289.5</ele>
<desc>Speed 8.9 km/h Distance 6.62 km</desc>
<time>2011-05-22T07:18:55.73</time>
<name>1701</name>
<sym>Dot</sym>
</trkpt>
<trkpt lat="40.049220" lon="-8.335187">
<ele>290.0</ele>
<desc>Speed 9.0 km/h Distance 6.62 km</desc>
<time>2011-05-22T07:18:56.72</time>
<name>1702</name>
<sym>Dot</sym>
</trkpt>
<trkpt lat="40.049197" lon="-8.335192">
<ele>290.0</ele>
<desc>Speed 8.8 km/h Distance 6.62 km</desc>
<time>2011-05-22T07:18:57.72</time>
<name>1703</name>
<sym>Dot</sym>
</trkpt>
<trkpt lat="40.049177" lon="-8.335198">
<ele>290.0</ele>
<desc>Speed 8.3 km/h Distance 6.63 km</desc>
<time>2011-05-22T07:18:58.72</time>
<name>1704</name>
<sym>Dot</sym>
</trkpt>
<trkpt lat="40.049155" lon="-8.335205">
<ele>290.0</ele>
<desc>Speed 8.2 km/h Distance 6.63 km</desc>
<time>2011-05-22T07:18:59.70</time>
<name>1705</name>
<sym>Dot</sym>
</trkpt>
<trkpt lat="40.049133" lon="-8.335210">
<ele>290.0</ele>
<desc>Speed 8.2 km/h Distance 6.63 km</desc>
<time>2011-05-22T07:19:00.70</time>
<name>1706</name>
<sym>Dot</sym>
</trkpt>
<trkpt lat="40.049112" lon="-8.335213">
<ele>290.5</ele>
<desc>Speed 8.7 km/h Distance 6.63 km</desc>
<time>2011-05-22T07:19:01.70</time>
<name>1707</name>
<sym>Dot</sym>
</trkpt>
<trkpt lat="40.049088" lon="-8.335218">
<ele>290.0</ele>
<desc>Speed 8.3 km/h Distance 6.64 km</desc>
<time>2011-05-22T07:19:02.70</time>
<name>1708</name>
<sym>Dot</sym>
</trkpt>
<trkpt lat="40.049067" lon="-8.335225">
<ele>290.0</ele>
<desc>Speed 8.2 km/h Distance 6.64 km</desc>
<time>2011-05-22T07:19:03.70</time>
<name>1709</name>
<sym>Dot</sym>
</trkpt>
<trkpt lat="40.049045" lon="-8.335230">
<ele>290.5</ele>
<desc>Speed 8.3 km/h Distance 6.64 km</desc>
<time>2011-05-22T07:19:04.70</time>
<name>1710</name>
<sym>Dot</sym>
</trkpt>
<trkpt lat="40.049023" lon="-8.335233">
<ele>290.5</ele>
<desc>Speed 8.2 km/h Distance 6.64 km</desc>
<time>2011-05-22T07:19:05.70</time>
<name>1711</name>
<sym>Dot</sym>
</trkpt>
<trkpt lat="40.049002" lon="-8.335238">
<ele>291.0</ele>
<desc>Speed 8.4 km/h Distance 6.64 km</desc>
<time>2011-05-22T07:19:06.68</time>
<name>1712</name>
<sym>Dot</sym>
</trkpt>
<trkpt lat="40.048978" lon="-8.335240">
<ele>291.0</ele>
<desc>Speed 8.6 km/h Distance 6.65 km</desc>
<time>2011-05-22T07:19:07.68</time>
<name>1713</name>
<sym>Dot</sym>
</trkpt>
<trkpt lat="40.048955" lon="-8.335242">
<ele>290.5</ele>
<desc>Speed 8.8 km/h Distance 6.65 km</desc>
<time>2011-05-22T07:19:08.68</time>
<name>1714</name>
<sym>Dot</sym>
</trkpt>
<trkpt lat="40.048933" lon="-8.335242">
<ele>290.5</ele>
<desc>Speed 8.5 km/h Distance 6.65 km</desc>
<time>2011-05-22T07:19:09.68</time>
<name>1715</name>
<sym>Dot</sym>
</trkpt>
<trkpt lat="40.048908" lon="-8.335245">
<ele>290.5</ele>
<desc>Speed 9.0 km/h Distance 6.66 km</desc>
<time>2011-05-22T07:19:10.71</time>
<name>1716</name>
<sym>Dot</sym>
</trkpt>
<trkpt lat="40.048883" lon="-8.335245">
<ele>290.5</ele>
<desc>Speed 9.3 km/h Distance 6.66 km</desc>
<time>2011-05-22T07:19:11.67</time>
<name>1717</name>
<sym>Dot</sym>
</trkpt>
<trkpt lat="40.048858" lon="-8.335247">
<ele>290.5</ele>
<desc>Speed 9.6 km/h Distance 6.66 km</desc>
<time>2011-05-22T07:19:12.66</time>
<name>1718</name>
<sym>Dot</sym>
</trkpt>
<trkpt lat="40.048833" lon="-8.335243">
<ele>290.5</ele>
<desc>Speed 9.6 km/h Distance 6.66 km</desc>
<time>2011-05-22T07:19:13.66</time>
<name>1719</name>
<sym>Dot</sym>
</trkpt>
<trkpt lat="40.048808" lon="-8.335242">
<ele>290.5</ele>
<desc>Speed 9.1 km/h Distance 6.67 km</desc>
<time>2011-05-22T07:19:14.66</time>
<name>1720</name>
<sym>Dot</sym>
</trkpt>
<trkpt lat="40.048785" lon="-8.335238">
<ele>290.5</ele>
<desc>Speed 9.1 km/h Distance 6.67 km</desc>
<time>2011-05-22T07:19:15.66</time>
<name>1721</name>
<sym>Dot</sym>
</trkpt>
<trkpt lat="40.048760" lon="-8.335237">
<ele>290.5</ele>
<desc>Speed 9.0 km/h Distance 6.67 km</desc>
<time>2011-05-22T07:19:16.66</time>
<name>1722</name>
<sym>Dot</sym>
</trkpt>
<trkpt lat="40.048737" lon="-8.335232">
<ele>290.0</ele>
<desc>Speed 8.9 km/h Distance 6.67 km</desc>
<time>2011-05-22T07:19:17.65</time>
<name>1723</name>
<sym>Dot</sym>
</trkpt>
<trkpt lat="40.048713" lon="-8.335228">
<ele>290.0</ele>
<desc>Speed 8.8 km/h Distance 6.68 km</desc>
<time>2011-05-22T07:19:18.65</time>
<name>1724</name>
<sym>Dot</sym>
</trkpt>
<trkpt lat="40.048688" lon="-8.335225">
<ele>290.0</ele>
<desc>Speed 9.0 km/h Distance 6.68 km</desc>
<time>2011-05-22T07:19:19.64</time>
<name>1725</name>
<sym>Dot</sym>
</trkpt>
<trkpt lat="40.048665" lon="-8.335223">
<ele>290.0</ele>
<desc>Speed 9.0 km/h Distance 6.68 km</desc>
<time>2011-05-22T07:19:20.64</time>
<name>1726</name>
<sym>Dot</sym>
</trkpt>
<trkpt lat="40.048642" lon="-8.335218">
<ele>290.0</ele>
<desc>Speed 9.0 km/h Distance 6.69 km</desc>
<time>2011-05-22T07:19:21.65</time>
<name>1727</name>
<sym>Dot</sym>
</trkpt>
<trkpt lat="40.048618" lon="-8.335217">
<ele>290.0</ele>
<desc>Speed 9.0 km/h Distance 6.69 km</desc>
<time>2011-05-22T07:19:22.63</time>
<name>1728</name>
<sym>Dot</sym>
</trkpt>
<trkpt lat="40.048593" lon="-8.335213">
<ele>289.5</ele>
<desc>Speed 9.0 km/h Distance 6.69 km</desc>
<time>2011-05-22T07:19:23.63</time>
<name>1729</name>
<sym>Dot</sym>
</trkpt>
<trkpt lat="40.048570" lon="-8.335208">
<ele>289.5</ele>
<desc>Speed 9.2 km/h Distance 6.69 km</desc>
<time>2011-05-22T07:19:24.63</time>
<name>1730</name>
<sym>Dot</sym>
</trkpt>
<trkpt lat="40.048548" lon="-8.335207">
<ele>290.0</ele>
<desc>Speed 9.3 km/h Distance 6.70 km</desc>
<time>2011-05-22T07:19:25.62</time>
<name>1731</name>
<sym>Dot</sym>
</trkpt>
<trkpt lat="40.048527" lon="-8.335200">
<ele>290.5</ele>
<desc>Speed 9.6 km/h Distance 6.70 km</desc>
<time>2011-05-22T07:19:26.62</time>
<name>1732</name>
<sym>Dot</sym>
</trkpt>
<trkpt lat="40.048507" lon="-8.335192">
<ele>291.5</ele>
<desc>Speed 9.6 km/h Distance 6.70 km</desc>
<time>2011-05-22T07:19:27.61</time>
<name>1733</name>
<sym>Dot</sym>
</trkpt>
<trkpt lat="40.048483" lon="-8.335183">
<ele>291.5</ele>
<desc>Speed 9.2 km/h Distance 6.70 km</desc>
<time>2011-05-22T07:19:28.60</time>
<name>1734</name>
<sym>Dot</sym>
</trkpt>
<trkpt lat="40.048460" lon="-8.335180">
<ele>291.5</ele>
<desc>Speed 9.0 km/h Distance 6.71 km</desc>
<time>2011-05-22T07:19:29.60</time>
<name>1735</name>
<sym>Dot</sym>
</trkpt>
<trkpt lat="40.048442" lon="-8.335178">
<ele>292.0</ele>
<desc>Speed 8.0 km/h Distance 6.71 km</desc>
<time>2011-05-22T07:19:30.60</time>
<name>1736</name>
<sym>Dot</sym>
</trkpt>
<trkpt lat="40.048427" lon="-8.335175">
<ele>292.5</ele>
<desc>Speed 7.0 km/h Distance 6.71 km</desc>
<time>2011-05-22T07:19:31.60</time>
<name>1737</name>
<sym>Dot</sym>
</trkpt>
<trkpt lat="40.048410" lon="-8.335170">
<ele>292.5</ele>
<desc>Speed 6.4 km/h Distance 6.71 km</desc>
<time>2011-05-22T07:19:32.60</time>
<name>1738</name>
<sym>Dot</sym>
</trkpt>
<trkpt lat="40.048392" lon="-8.335170">
<ele>292.5</ele>
<desc>Speed 6.5 km/h Distance 6.71 km</desc>
<time>2011-05-22T07:19:33.60</time>
<name>1739</name>
<sym>Dot</sym>
</trkpt>
<trkpt lat="40.048377" lon="-8.335170">
<ele>293.0</ele>
<desc>Speed 6.8 km/h Distance 6.72 km</desc>
<time>2011-05-22T07:19:34.60</time>
<name>1740</name>
<sym>Dot</sym>
</trkpt>
<trkpt lat="40.048360" lon="-8.335165">
<ele>293.0</ele>
<desc>Speed 7.1 km/h Distance 6.72 km</desc>
<time>2011-05-22T07:19:35.59</time>
<name>1741</name>
<sym>Dot</sym>
</trkpt>
<trkpt lat="40.048340" lon="-8.335160">
<ele>293.0</ele>
<desc>Speed 8.0 km/h Distance 6.72 km</desc>
<time>2011-05-22T07:19:36.59</time>
<name>1742</name>
<sym>Dot</sym>
</trkpt>
<trkpt lat="40.048320" lon="-8.335155">
<ele>293.0</ele>
<desc>Speed 8.6 km/h Distance 6.72 km</desc>
<time>2011-05-22T07:19:37.58</time>
<name>1743</name>
<sym>Dot</sym>
</trkpt>
<trkpt lat="40.048297" lon="-8.335147">
<ele>293.0</ele>
<desc>Speed 9.1 km/h Distance 6.72 km</desc>
<time>2011-05-22T07:19:38.58</time>
<name>1744</name>
<sym>Dot</sym>
</trkpt>
<trkpt lat="40.048275" lon="-8.335138">
<ele>292.5</ele>
<desc>Speed 9.3 km/h Distance 6.73 km</desc>
<time>2011-05-22T07:19:39.57</time>
<name>1745</name>
<sym>Dot</sym>
</trkpt>
<trkpt lat="40.048253" lon="-8.335130">
<ele>292.5</ele>
<desc>Speed 9.0 km/h Distance 6.73 km</desc>
<time>2011-05-22T07:19:40.57</time>
<name>1746</name>
<sym>Dot</sym>
</trkpt>
<trkpt lat="40.048232" lon="-8.335123">
<ele>292.5</ele>
<desc>Speed 9.2 km/h Distance 6.73 km</desc>
<time>2011-05-22T07:19:41.57</time>
<name>1747</name>
<sym>Dot</sym>
</trkpt>
<trkpt lat="40.048210" lon="-8.335115">
<ele>292.5</ele>
<desc>Speed 8.9 km/h Distance 6.73 km</desc>
<time>2011-05-22T07:19:42.57</time>
<name>1748</name>
<sym>Dot</sym>
</trkpt>
<trkpt lat="40.048190" lon="-8.335108">
<ele>292.5</ele>
<desc>Speed 8.6 km/h Distance 6.74 km</desc>
<time>2011-05-22T07:19:43.57</time>
<name>1749</name>
<sym>Dot</sym>
</trkpt>
<trkpt lat="40.048170" lon="-8.335102">
<ele>292.5</ele>
<desc>Speed 8.9 km/h Distance 6.74 km</desc>
<time>2011-05-22T07:19:44.57</time>
<name>1750</name>
<sym>Dot</sym>
</trkpt>
<trkpt lat="40.048150" lon="-8.335095">
<ele>292.0</ele>
<desc>Speed 8.6 km/h Distance 6.74 km</desc>
<time>2011-05-22T07:19:45.56</time>
<name>1751</name>
<sym>Dot</sym>
</trkpt>
<trkpt lat="40.048127" lon="-8.335093">
<ele>291.0</ele>
<desc>Speed 8.8 km/h Distance 6.74 km</desc>
<time>2011-05-22T07:19:46.56</time>
<name>1752</name>
<sym>Dot</sym>
</trkpt>
<trkpt lat="40.048105" lon="-8.335092">
<ele>291.0</ele>
<desc>Speed 9.0 km/h Distance 6.75 km</desc>
<time>2011-05-22T07:19:47.56</time>
<name>1753</name>
<sym>Dot</sym>
</trkpt>
<trkpt lat="40.048083" lon="-8.335088">
<ele>291.0</ele>
<desc>Speed 9.0 km/h Distance 6.75 km</desc>
<time>2011-05-22T07:19:48.57</time>
<name>1754</name>
<sym>Dot</sym>
</trkpt>
<trkpt lat="40.048062" lon="-8.335083">
<ele>290.5</ele>
<desc>Speed 8.4 km/h Distance 6.75 km</desc>
<time>2011-05-22T07:19:49.56</time>
<name>1755</name>
<sym>Dot</sym>
</trkpt>
<trkpt lat="40.048042" lon="-8.335077">
<ele>290.5</ele>
<desc>Speed 8.6 km/h Distance 6.75 km</desc>
<time>2011-05-22T07:19:50.55</time>
<name>1756</name>
<sym>Dot</sym>
</trkpt>
<trkpt lat="40.048020" lon="-8.335070">
<ele>290.5</ele>
<desc>Speed 8.4 km/h Distance 6.76 km</desc>
<time>2011-05-22T07:19:51.55</time>
<name>1757</name>
<sym>Dot</sym>
</trkpt>
<trkpt lat="40.048000" lon="-8.335062">
<ele>291.0</ele>
<desc>Speed 8.2 km/h Distance 6.76 km</desc>
<time>2011-05-22T07:19:52.54</time>
<name>1758</name>
<sym>Dot</sym>
</trkpt>
<trkpt lat="40.047980" lon="-8.335052">
<ele>291.0</ele>
<desc>Speed 8.3 km/h Distance 6.76 km</desc>
<time>2011-05-22T07:19:53.54</time>
<name>1759</name>
<sym>Dot</sym>
</trkpt>
<trkpt lat="40.047960" lon="-8.335045">
<ele>291.0</ele>
<desc>Speed 8.2 km/h Distance 6.76 km</desc>
<time>2011-05-22T07:19:54.54</time>
<name>1760</name>
<sym>Dot</sym>
</trkpt>
<trkpt lat="40.047940" lon="-8.335037">
<ele>291.5</ele>
<desc>Speed 8.0 km/h Distance 6.77 km</desc>
<time>2011-05-22T07:19:55.54</time>
<name>1761</name>
<sym>Dot</sym>
</trkpt>
<trkpt lat="40.047918" lon="-8.335033">
<ele>291.5</ele>
<desc>Speed 8.5 km/h Distance 6.77 km</desc>
<time>2011-05-22T07:19:56.54</time>
<name>1762</name>
<sym>Dot</sym>
</trkpt>
<trkpt lat="40.047897" lon="-8.335027">
<ele>291.5</ele>
<desc>Speed 8.8 km/h Distance 6.77 km</desc>
<time>2011-05-22T07:19:57.53</time>
<name>1763</name>
<sym>Dot</sym>
</trkpt>
<trkpt lat="40.047875" lon="-8.335022">
<ele>291.5</ele>
<desc>Speed 8.6 km/h Distance 6.77 km</desc>
<time>2011-05-22T07:19:58.52</time>
<name>1764</name>
<sym>Dot</sym>
</trkpt>
<trkpt lat="40.047852" lon="-8.335018">
<ele>291.5</ele>
<desc>Speed 9.0 km/h Distance 6.78 km</desc>
<time>2011-05-22T07:19:59.52</time>
<name>1765</name>
<sym>Dot</sym>
</trkpt>
<trkpt lat="40.047827" lon="-8.335017">
<ele>291.5</ele>
<desc>Speed 9.3 km/h Distance 6.78 km</desc>
<time>2011-05-22T07:20:00.52</time>
<name>1766</name>
<sym>Dot</sym>
</trkpt>
<trkpt lat="40.047805" lon="-8.335015">
<ele>291.5</ele>
<desc>Speed 9.0 km/h Distance 6.78 km</desc>
<time>2011-05-22T07:20:01.51</time>
<name>1767</name>
<sym>Dot</sym>
</trkpt>
<trkpt lat="40.047782" lon="-8.335015">
<ele>291.5</ele>
<desc>Speed 9.0 km/h Distance 6.78 km</desc>
<time>2011-05-22T07:20:02.50</time>
<name>1768</name>
<sym>Dot</sym>
</trkpt>
<trkpt lat="40.047758" lon="-8.335015">
<ele>291.0</ele>
<desc>Speed 9.1 km/h Distance 6.79 km</desc>
<time>2011-05-22T07:20:03.49</time>
<name>1769</name>
<sym>Dot</sym>
</trkpt>
<trkpt lat="40.047735" lon="-8.335017">
<ele>290.5</ele>
<desc>Speed 9.0 km/h Distance 6.79 km</desc>
<time>2011-05-22T07:20:04.49</time>
<name>1770</name>
<sym>Dot</sym>
</trkpt>
<trkpt lat="40.047712" lon="-8.335020">
<ele>290.0</ele>
<desc>Speed 8.9 km/h Distance 6.79 km</desc>
<time>2011-05-22T07:20:05.48</time>
<name>1771</name>
<sym>Dot</sym>
</trkpt>
<trkpt lat="40.047690" lon="-8.335027">
<ele>289.5</ele>
<desc>Speed 8.9 km/h Distance 6.79 km</desc>
<time>2011-05-22T07:20:06.48</time>
<name>1772</name>
<sym>Dot</sym>
</trkpt>
<trkpt lat="40.047667" lon="-8.335033">
<ele>290.0</ele>
<desc>Speed 8.9 km/h Distance 6.80 km</desc>
<time>2011-05-22T07:20:07.47</time>
<name>1773</name>
<sym>Dot</sym>
</trkpt>
<trkpt lat="40.047645" lon="-8.335040">
<ele>290.0</ele>
<desc>Speed 9.0 km/h Distance 6.80 km</desc>
<time>2011-05-22T07:20:08.46</time>
<name>1774</name>
<sym>Dot</sym>
</trkpt>
<trkpt lat="40.047623" lon="-8.335050">
<ele>290.0</ele>
<desc>Speed 9.0 km/h Distance 6.80 km</desc>
<time>2011-05-22T07:20:09.47</time>
<name>1775</name>
<sym>Dot</sym>
</trkpt>
<trkpt lat="40.047600" lon="-8.335057">
<ele>290.0</ele>
<desc>Speed 9.4 km/h Distance 6.80 km</desc>
<time>2011-05-22T07:20:10.46</time>
<name>1776</name>
<sym>Dot</sym>
</trkpt>
<trkpt lat="40.047578" lon="-8.335063">
<ele>290.0</ele>
<desc>Speed 9.0 km/h Distance 6.81 km</desc>
<time>2011-05-22T07:20:11.47</time>
<name>1777</name>
<sym>Dot</sym>
</trkpt>
<trkpt lat="40.047557" lon="-8.335075">
<ele>290.5</ele>
<desc>Speed 8.6 km/h Distance 6.81 km</desc>
<time>2011-05-22T07:20:12.46</time>
<name>1778</name>
<sym>Dot</sym>
</trkpt>
<trkpt lat="40.047537" lon="-8.335085">
<ele>290.5</ele>
<desc>Speed 8.8 km/h Distance 6.81 km</desc>
<time>2011-05-22T07:20:13.45</time>
<name>1779</name>
<sym>Dot</sym>
</trkpt>
<trkpt lat="40.047515" lon="-8.335097">
<ele>290.5</ele>
<desc>Speed 8.7 km/h Distance 6.81 km</desc>
<time>2011-05-22T07:20:14.45</time>
<name>1780</name>
<sym>Dot</sym>
</trkpt>
<trkpt lat="40.047495" lon="-8.335107">
<ele>290.5</ele>
<desc>Speed 8.9 km/h Distance 6.82 km</desc>
<time>2011-05-22T07:20:15.45</time>
<name>1781</name>
<sym>Dot</sym>
</trkpt>
<trkpt lat="40.047472" lon="-8.335117">
<ele>290.5</ele>
<desc>Speed 9.0 km/h Distance 6.82 km</desc>
<time>2011-05-22T07:20:16.44</time>
<name>1782</name>
<sym>Dot</sym>
</trkpt>
<trkpt lat="40.047452" lon="-8.335130">
<ele>290.5</ele>
<desc>Speed 9.2 km/h Distance 6.82 km</desc>
<time>2011-05-22T07:20:17.44</time>
<name>1783</name>
<sym>Dot</sym>
</trkpt>
<trkpt lat="40.047430" lon="-8.335143">
<ele>290.5</ele>
<desc>Speed 9.5 km/h Distance 6.82 km</desc>
<time>2011-05-22T07:20:18.44</time>
<name>1784</name>
<sym>Dot</sym>
</trkpt>
<trkpt lat="40.047407" lon="-8.335155">
<ele>291.0</ele>
<desc>Speed 9.3 km/h Distance 6.83 km</desc>
<time>2011-05-22T07:20:19.44</time>
<name>1785</name>
<sym>Dot</sym>
</trkpt>
<trkpt lat="40.047382" lon="-8.335160">
<ele>289.5</ele>
<desc>Speed 10.1 km/h Distance 6.83 km</desc>
<time>2011-05-22T07:20:20.44</time>
<name>1786</name>
<sym>Dot</sym>
</trkpt>
<trkpt lat="40.047355" lon="-8.335165">
<ele>288.5</ele>
<desc>Speed 10.9 km/h Distance 6.83 km</desc>
<time>2011-05-22T07:20:21.44</time>
<name>1787</name>
<sym>Dot</sym>
</trkpt>
<trkpt lat="40.047330" lon="-8.335172">
<ele>288.0</ele>
<desc>Speed 10.2 km/h Distance 6.84 km</desc>
<time>2011-05-22T07:20:22.43</time>
<name>1788</name>
<sym>Dot</sym>
</trkpt>
<trkpt lat="40.047307" lon="-8.335180">
<ele>288.5</ele>
<desc>Speed 9.5 km/h Distance 6.84 km</desc>
<time>2011-05-22T07:20:23.42</time>
<name>1789</name>
<sym>Dot</sym>
</trkpt>
<trkpt lat="40.047283" lon="-8.335193">
<ele>288.5</ele>
<desc>Speed 10.0 km/h Distance 6.84 km</desc>
<time>2011-05-22T07:20:24.42</time>
<name>1790</name>
<sym>Dot</sym>
</trkpt>
<trkpt lat="40.047258" lon="-8.335210">
<ele>288.5</ele>
<desc>Speed 10.7 km/h Distance 6.84 km</desc>
<time>2011-05-22T07:20:25.42</time>
<name>1791</name>
<sym>Dot</sym>
</trkpt>
<trkpt lat="40.047233" lon="-8.335223">
<ele>288.0</ele>
<desc>Speed 10.9 km/h Distance 6.85 km</desc>
<time>2011-05-22T07:20:26.41</time>
<name>1792</name>
<sym>Dot</sym>
</trkpt>
<trkpt lat="40.047207" lon="-8.335235">
<ele>288.0</ele>
<desc>Speed 10.9 km/h Distance 6.85 km</desc>
<time>2011-05-22T07:20:27.41</time>
<name>1793</name>
<sym>Dot</sym>
</trkpt>
<trkpt lat="40.047182" lon="-8.335243">
<ele>288.5</ele>
<desc>Speed 10.5 km/h Distance 6.85 km</desc>
<time>2011-05-22T07:20:28.41</time>
<name>1794</name>
<sym>Dot</sym>
</trkpt>
<trkpt lat="40.047157" lon="-8.335253">
<ele>289.0</ele>
<desc>Speed 10.7 km/h Distance 6.86 km</desc>
<time>2011-05-22T07:20:29.39</time>
<name>1795</name>
<sym>Dot</sym>
</trkpt>
<trkpt lat="40.047132" lon="-8.335268">
<ele>289.0</ele>
<desc>Speed 11.3 km/h Distance 6.86 km</desc>
<time>2011-05-22T07:20:30.39</time>
<name>1796</name>
<sym>Dot</sym>
</trkpt>
<trkpt lat="40.047107" lon="-8.335285">
<ele>289.5</ele>
<desc>Speed 11.0 km/h Distance 6.86 km</desc>
<time>2011-05-22T07:20:31.38</time>
<name>1797</name>
<sym>Dot</sym>
</trkpt>
<trkpt lat="40.047082" lon="-8.335300">
<ele>289.5</ele>
<desc>Speed 10.8 km/h Distance 6.87 km</desc>
<time>2011-05-22T07:20:32.38</time>
<name>1798</name>
<sym>Dot</sym>
</trkpt>
<trkpt lat="40.047057" lon="-8.335315">
<ele>290.0</ele>
<desc>Speed 10.8 km/h Distance 6.87 km</desc>
<time>2011-05-22T07:20:33.38</time>
<name>1799</name>
<sym>Dot</sym>
</trkpt>
<trkpt lat="40.047030" lon="-8.335330">
<ele>290.0</ele>
<desc>Speed 11.2 km/h Distance 6.87 km</desc>
<time>2011-05-22T07:20:34.38</time>
<name>1800</name>
<sym>Dot</sym>
</trkpt>
<trkpt lat="40.047003" lon="-8.335343">
<ele>290.0</ele>
<desc>Speed 11.3 km/h Distance 6.87 km</desc>
<time>2011-05-22T07:20:35.37</time>
<name>1801</name>
<sym>Dot</sym>
</trkpt>
<trkpt lat="40.046978" lon="-8.335358">
<ele>290.5</ele>
<desc>Speed 11.3 km/h Distance 6.88 km</desc>
<time>2011-05-22T07:20:36.37</time>
<name>1802</name>
<sym>Dot</sym>
</trkpt>
<trkpt lat="40.046952" lon="-8.335377">
<ele>290.5</ele>
<desc>Speed 11.6 km/h Distance 6.88 km</desc>
<time>2011-05-22T07:20:37.36</time>
<name>1803</name>
<sym>Dot</sym>
</trkpt>
<trkpt lat="40.046927" lon="-8.335395">
<ele>291.0</ele>
<desc>Speed 11.4 km/h Distance 6.88 km</desc>
<time>2011-05-22T07:20:38.36</time>
<name>1804</name>
<sym>Dot</sym>
</trkpt>
<trkpt lat="40.046902" lon="-8.335413">
<ele>291.5</ele>
<desc>Speed 11.8 km/h Distance 6.89 km</desc>
<time>2011-05-22T07:20:39.36</time>
<name>1805</name>
<sym>Dot</sym>
</trkpt>
<trkpt lat="40.046873" lon="-8.335430">
<ele>291.5</ele>
<desc>Speed 12.0 km/h Distance 6.89 km</desc>
<time>2011-05-22T07:20:40.35</time>
<name>1806</name>
<sym>Dot</sym>
</trkpt>
<trkpt lat="40.046845" lon="-8.335443">
<ele>292.0</ele>
<desc>Speed 12.1 km/h Distance 6.89 km</desc>
<time>2011-05-22T07:20:41.35</time>
<name>1807</name>
<sym>Dot</sym>
</trkpt>
<trkpt lat="40.046817" lon="-8.335458">
<ele>292.0</ele>
<desc>Speed 12.3 km/h Distance 6.90 km</desc>
<time>2011-05-22T07:20:42.35</time>
<name>1808</name>
<sym>Dot</sym>
</trkpt>
<trkpt lat="40.046788" lon="-8.335475">
<ele>292.0</ele>
<desc>Speed 12.3 km/h Distance 6.90 km</desc>
<time>2011-05-22T07:20:43.36</time>
<name>1809</name>
<sym>Dot</sym>
</trkpt>
<trkpt lat="40.046760" lon="-8.335492">
<ele>292.0</ele>
<desc>Speed 12.4 km/h Distance 6.90 km</desc>
<time>2011-05-22T07:20:44.35</time>
<name>1810</name>
<sym>Dot</sym>
</trkpt>
<trkpt lat="40.046732" lon="-8.335510">
<ele>292.0</ele>
<desc>Speed 12.4 km/h Distance 6.91 km</desc>
<time>2011-05-22T07:20:45.34</time>
<name>1811</name>
<sym>Dot</sym>
</trkpt>
<trkpt lat="40.046703" lon="-8.335523">
<ele>292.0</ele>
<desc>Speed 12.1 km/h Distance 6.91 km</desc>
<time>2011-05-22T07:20:46.34</time>
<name>1812</name>
<sym>Dot</sym>
</trkpt>
<trkpt lat="40.046673" lon="-8.335538">
<ele>291.5</ele>
<desc>Speed 12.5 km/h Distance 6.92 km</desc>
<time>2011-05-22T07:20:47.34</time>
<name>1813</name>
<sym>Dot</sym>
</trkpt>
<trkpt lat="40.046645" lon="-8.335553">
<ele>291.5</ele>
<desc>Speed 12.1 km/h Distance 6.92 km</desc>
<time>2011-05-22T07:20:48.33</time>
<name>1814</name>
<sym>Dot</sym>
</trkpt>
<trkpt lat="40.046618" lon="-8.335568">
<ele>291.5</ele>
<desc>Speed 12.0 km/h Distance 6.92 km</desc>
<time>2011-05-22T07:20:49.32</time>
<name>1815</name>
<sym>Dot</sym>
</trkpt>
<trkpt lat="40.046590" lon="-8.335582">
<ele>292.0</ele>
<desc>Speed 11.7 km/h Distance 6.93 km</desc>
<time>2011-05-22T07:20:50.32</time>
<name>1816</name>
<sym>Dot</sym>
</trkpt>
<trkpt lat="40.046563" lon="-8.335595">
<ele>292.0</ele>
<desc>Speed 11.7 km/h Distance 6.93 km</desc>
<time>2011-05-22T07:20:51.31</time>
<name>1817</name>
<sym>Dot</sym>
</trkpt>
<trkpt lat="40.046537" lon="-8.335610">
<ele>292.0</ele>
<desc>Speed 11.4 km/h Distance 6.93 km</desc>
<time>2011-05-22T07:20:52.31</time>
<name>1818</name>
<sym>Dot</sym>
</trkpt>
<trkpt lat="40.046510" lon="-8.335625">
<ele>292.5</ele>
<desc>Speed 11.3 km/h Distance 6.93 km</desc>
<time>2011-05-22T07:20:53.30</time>
<name>1819</name>
<sym>Dot</sym>
</trkpt>
<trkpt lat="40.046485" lon="-8.335638">
<ele>292.5</ele>
<desc>Speed 11.1 km/h Distance 6.94 km</desc>
<time>2011-05-22T07:20:54.31</time>
<name>1820</name>
<sym>Dot</sym>
</trkpt>
<trkpt lat="40.046460" lon="-8.335653">
<ele>292.5</ele>
<desc>Speed 11.1 km/h Distance 6.94 km</desc>
<time>2011-05-22T07:20:55.30</time>
<name>1821</name>
<sym>Dot</sym>
</trkpt>
<trkpt lat="40.046435" lon="-8.335665">
<ele>292.0</ele>
<desc>Speed 10.7 km/h Distance 6.94 km</desc>
<time>2011-05-22T07:20:56.29</time>
<name>1822</name>
<sym>Dot</sym>
</trkpt>
<trkpt lat="40.046410" lon="-8.335678">
<ele>292.0</ele>
<desc>Speed 10.5 km/h Distance 6.95 km</desc>
<time>2011-05-22T07:20:57.29</time>
<name>1823</name>
<sym>Dot</sym>
</trkpt>
<trkpt lat="40.046387" lon="-8.335688">
<ele>292.0</ele>
<desc>Speed 9.9 km/h Distance 6.95 km</desc>
<time>2011-05-22T07:20:58.29</time>
<name>1824</name>
<sym>Dot</sym>
</trkpt>
<trkpt lat="40.046365" lon="-8.335698">
<ele>292.5</ele>
<desc>Speed 9.1 km/h Distance 6.95 km</desc>
<time>2011-05-22T07:20:59.28</time>
<name>1825</name>
<sym>Dot</sym>
</trkpt>
<trkpt lat="40.046343" lon="-8.335707">
<ele>292.5</ele>
<desc>Speed 9.0 km/h Distance 6.95 km</desc>
<time>2011-05-22T07:21:00.28</time>
<name>1826</name>
<sym>Dot</sym>
</trkpt>
<trkpt lat="40.046325" lon="-8.335715">
<ele>292.5</ele>
<desc>Speed 8.1 km/h Distance 6.96 km</desc>
<time>2011-05-22T07:21:01.27</time>
<name>1827</name>
<sym>Dot</sym>
</trkpt>
<trkpt lat="40.046307" lon="-8.335722">
<ele>292.5</ele>
<desc>Speed 7.7 km/h Distance 6.96 km</desc>
<time>2011-05-22T07:21:02.27</time>
<name>1828</name>
<sym>Dot</sym>
</trkpt>
<trkpt lat="40.046288" lon="-8.335728">
<ele>292.5</ele>
<desc>Speed 7.2 km/h Distance 6.96 km</desc>
<time>2011-05-22T07:21:03.26</time>
<name>1829</name>
<sym>Dot</sym>
</trkpt>
<trkpt lat="40.046272" lon="-8.335737">
<ele>292.5</ele>
<desc>Speed 7.3 km/h Distance 6.96 km</desc>
<time>2011-05-22T07:21:04.26</time>
<name>1830</name>
<sym>Dot</sym>
</trkpt>
<trkpt lat="40.046255" lon="-8.335743">
<ele>292.5</ele>
<desc>Speed 7.2 km/h Distance 6.96 km</desc>
<time>2011-05-22T07:21:05.26</time>
<name>1831</name>
<sym>Dot</sym>
</trkpt>
<trkpt lat="40.046242" lon="-8.335748">
<ele>292.5</ele>
<desc>Speed 5.8 km/h Distance 6.97 km</desc>
<time>2011-05-22T07:21:06.25</time>
<name>1832</name>
<sym>Dot</sym>
</trkpt>
<trkpt lat="40.046230" lon="-8.335753">
<ele>292.5</ele>
<desc>Speed 4.6 km/h Distance 6.97 km</desc>
<time>2011-05-22T07:21:07.25</time>
<name>1833</name>
<sym>Dot</sym>
</trkpt>
<trkpt lat="40.046225" lon="-8.335757">
<ele>292.5</ele>
<desc>Speed 2.4 km/h Distance 6.97 km</desc>
<time>2011-05-22T07:21:08.25</time>
<name>1834</name>
<sym>Dot</sym>
</trkpt>
<trkpt lat="40.046223" lon="-8.335755">
<ele>292.0</ele>
<desc>Speed 1.1 km/h Distance 6.97 km</desc>
<time>2011-05-22T07:21:10.25</time>
<name>1835</name>
<sym>Dot</sym>
</trkpt>
<trkpt lat="40.046205" lon="-8.335748">
<ele>293.5</ele>
<desc>Speed 1.8 km/h Distance 6.97 km</desc>
<time>2011-05-22T07:25:06.22</time>
<name>1836</name>
<sym>Dot</sym>
</trkpt>
<trkpt lat="40.046195" lon="-8.335752">
<ele>293.0</ele>
<desc>Speed 3.1 km/h Distance 6.97 km</desc>
<time>2011-05-22T07:25:07.21</time>
<name>1837</name>
<sym>Dot</sym>
</trkpt>
<trkpt lat="40.046187" lon="-8.335755">
<ele>293.0</ele>
<desc>Speed 3.3 km/h Distance 6.97 km</desc>
<time>2011-05-22T07:25:08.21</time>
<name>1838</name>
<sym>Dot</sym>
</trkpt>
<trkpt lat="40.046178" lon="-8.335757">
<ele>293.0</ele>
<desc>Speed 3.0 km/h Distance 6.97 km</desc>
<time>2011-05-22T07:25:09.21</time>
<name>1839</name>
<sym>Dot</sym>
</trkpt>
<trkpt lat="40.046170" lon="-8.335760">
<ele>293.0</ele>
<desc>Speed 2.6 km/h Distance 6.97 km</desc>
<time>2011-05-22T07:25:10.20</time>
<name>1840</name>
<sym>Dot</sym>
</trkpt>
<trkpt lat="40.046167" lon="-8.335760">
<ele>293.0</ele>
<desc>Speed 1.2 km/h Distance 6.98 km</desc>
<time>2011-05-22T07:25:11.20</time>
<name>1841</name>
<sym>Dot</sym>
</trkpt>
<trkpt lat="40.046158" lon="-8.335762">
<ele>293.0</ele>
<desc>Speed 1.6 km/h Distance 6.98 km</desc>
<time>2011-05-22T07:25:51.19</time>
<name>1842</name>
<sym>Dot</sym>
</trkpt>
<trkpt lat="40.046158" lon="-8.335758">
<ele>293.0</ele>
<desc>Speed 1.5 km/h Distance 6.98 km</desc>
<time>2011-05-22T07:25:54.18</time>
<name>1843</name>
<sym>Dot</sym>
</trkpt>
<trkpt lat="40.046165" lon="-8.335753">
<ele>293.5</ele>
<desc>Speed 3.3 km/h Distance 6.98 km</desc>
<time>2011-05-22T07:25:55.18</time>
<name>1844</name>
<sym>Dot</sym>
</trkpt>
<trkpt lat="40.046175" lon="-8.335750">
<ele>294.0</ele>
<desc>Speed 4.0 km/h Distance 6.98 km</desc>
<time>2011-05-22T07:25:56.17</time>
<name>1845</name>
<sym>Dot</sym>
</trkpt>
<trkpt lat="40.046183" lon="-8.335745">
<ele>294.5</ele>
<desc>Speed 3.7 km/h Distance 6.98 km</desc>
<time>2011-05-22T07:25:57.16</time>
<name>1846</name>
<sym>Dot</sym>
</trkpt>
<trkpt lat="40.046190" lon="-8.335743">
<ele>295.0</ele>
<desc>Speed 3.0 km/h Distance 6.98 km</desc>
<time>2011-05-22T07:25:58.16</time>
<name>1847</name>
<sym>Dot</sym>
</trkpt>
<trkpt lat="40.046198" lon="-8.335743">
<ele>295.0</ele>
<desc>Speed 3.2 km/h Distance 6.98 km</desc>
<time>2011-05-22T07:25:59.16</time>
<name>1848</name>
<sym>Dot</sym>
</trkpt>
<trkpt lat="40.046203" lon="-8.335743">
<ele>295.0</ele>
<desc>Speed 1.5 km/h Distance 6.98 km</desc>
<time>2011-05-22T07:26:00.16</time>
<name>1849</name>
<sym>Dot</sym>
</trkpt>
<trkpt lat="40.046203" lon="-8.335748">
<ele>295.0</ele>
<desc>Speed 1.5 km/h Distance 6.98 km</desc>
<time>2011-05-22T07:26:03.15</time>
<name>1850</name>
<sym>Dot</sym>
</trkpt>
<trkpt lat="40.046202" lon="-8.335748">
<ele>294.5</ele>
<desc>Speed 2.0 km/h Distance 6.98 km</desc>
<time>2011-05-22T07:26:06.15</time>
<name>1851</name>
<sym>Dot</sym>
</trkpt>
<trkpt lat="40.046222" lon="-8.335765">
<ele>296.0</ele>
<desc>Speed 1.3 km/h Distance 6.98 km</desc>
<time>2011-05-22T07:26:27.14</time>
<name>1852</name>
<sym>Dot</sym>
</trkpt>
<trkpt lat="40.046220" lon="-8.335763">
<ele>296.5</ele>
<desc>Speed 1.3 km/h Distance 6.99 km</desc>
<time>2011-05-22T07:26:28.13</time>
<name>1853</name>
<sym>Dot</sym>
</trkpt>
<trkpt lat="40.046220" lon="-8.335767">
<ele>296.5</ele>
<desc>Speed 1.1 km/h Distance 6.99 km</desc>
<time>2011-05-22T07:26:31.13</time>
<name>1854</name>
<sym>Dot</sym>
</trkpt>
<trkpt lat="40.046217" lon="-8.335760">
<ele>298.0</ele>
<desc>Speed 3.4 km/h Distance 6.99 km</desc>
<time>2011-05-22T07:26:32.13</time>
<name>1855</name>
<sym>Dot</sym>
</trkpt>
<trkpt lat="40.046222" lon="-8.335775">
<ele>296.0</ele>
<desc>Speed 4.9 km/h Distance 6.99 km</desc>
<time>2011-05-22T07:26:33.11</time>
<name>1856</name>
<sym>Dot</sym>
</trkpt>
<trkpt lat="40.046232" lon="-8.335783">
<ele>295.5</ele>
<desc>Speed 1.7 km/h Distance 6.99 km</desc>
<time>2011-05-22T07:26:39.12</time>
<name>1857</name>
<sym>Dot</sym>
</trkpt>
<trkpt lat="40.046230" lon="-8.335783">
<ele>295.5</ele>
<desc>Speed 1.3 km/h Distance 6.99 km</desc>
<time>2011-05-22T07:26:40.12</time>
<name>1858</name>
<sym>Dot</sym>
</trkpt>
<trkpt lat="40.046222" lon="-8.335773">
<ele>295.0</ele>
<desc>Speed 1.1 km/h Distance 6.99 km</desc>
<time>2011-05-22T07:26:55.11</time>
<name>1859</name>
<sym>Dot</sym>
</trkpt>
<trkpt lat="40.046225" lon="-8.335762">
<ele>294.0</ele>
<desc>Speed 1.3 km/h Distance 6.99 km</desc>
<time>2011-05-22T07:27:07.11</time>
<name>1860</name>
<sym>Dot</sym>
</trkpt>
<trkpt lat="40.046220" lon="-8.335743">
<ele>294.0</ele>
<desc>Speed 5.7 km/h Distance 6.99 km</desc>
<time>2011-05-22T07:27:10.11</time>
<name>1861</name>
<sym>Dot</sym>
</trkpt>
<trkpt lat="40.046228" lon="-8.335747">
<ele>294.0</ele>
<desc>Speed 3.4 km/h Distance 6.99 km</desc>
<time>2011-05-22T07:27:11.11</time>
<name>1862</name>
<sym>Dot</sym>
</trkpt>
<trkpt lat="40.046227" lon="-8.335750">
<ele>294.0</ele>
<desc>Speed 1.5 km/h Distance 6.99 km</desc>
<time>2011-05-22T07:27:13.11</time>
<name>1863</name>
<sym>Dot</sym>
</trkpt>
<trkpt lat="40.046220" lon="-8.335755">
<ele>296.0</ele>
<desc>Speed 2.4 km/h Distance 7.00 km</desc>
<time>2011-05-22T07:27:14.11</time>
<name>1864</name>
<sym>Dot</sym>
</trkpt>
<trkpt lat="40.046218" lon="-8.335755">
<ele>295.5</ele>
<desc>Speed 1.5 km/h Distance 7.00 km</desc>
<time>2011-05-22T07:27:15.11</time>
<name>1865</name>
<sym>Dot</sym>
</trkpt>
<trkpt lat="40.046220" lon="-8.335760">
<ele>294.5</ele>
<desc>Speed 1.3 km/h Distance 7.00 km</desc>
<time>2011-05-22T07:27:18.65</time>
<name>1866</name>
<sym>Dot</sym>
</trkpt>
<trkpt lat="40.046223" lon="-8.335768">
<ele>293.5</ele>
<desc>Speed 1.1 km/h Distance 7.00 km</desc>
<time>2011-05-22T07:27:27.17</time>
<name>1867</name>
<sym>Dot</sym>
</trkpt>
<trkpt lat="40.046220" lon="-8.335772">
<ele>293.0</ele>
<desc>Speed 1.2 km/h Distance 7.00 km</desc>
<time>2011-05-22T07:28:08.34</time>
<name>1868</name>
<sym>Dot</sym>
</trkpt>
<trkpt lat="40.046222" lon="-8.335780">
<ele>292.5</ele>
<desc>Speed 1.7 km/h Distance 7.00 km</desc>
<time>2011-05-22T07:28:12.37</time>
<name>1869</name>
<sym>Dot</sym>
</trkpt>
<trkpt lat="40.046217" lon="-8.335785">
<ele>293.0</ele>
<desc>Speed 1.1 km/h Distance 7.00 km</desc>
<time>2011-05-22T07:28:18.38</time>
<name>1870</name>
<sym>Dot</sym>
</trkpt>
<trkpt lat="40.046202" lon="-8.335778">
<ele>291.5</ele>
<desc>Speed 1.4 km/h Distance 7.00 km</desc>
<time>2011-05-22T07:28:29.52</time>
<name>1871</name>
<sym>Dot</sym>
</trkpt>
<trkpt lat="40.046192" lon="-8.335773">
<ele>291.5</ele>
<desc>Speed 1.1 km/h Distance 7.00 km</desc>
<time>2011-05-22T07:28:35.52</time>
<name>1872</name>
<sym>Dot</sym>
</trkpt>
<trkpt lat="40.046185" lon="-8.335773">
<ele>291.5</ele>
<desc>Speed 2.0 km/h Distance 7.00 km</desc>
<time>2011-05-22T07:28:36.52</time>
<name>1873</name>
<sym>Dot</sym>
</trkpt>
<trkpt lat="40.046177" lon="-8.335777">
<ele>291.5</ele>
<desc>Speed 2.7 km/h Distance 7.00 km</desc>
<time>2011-05-22T07:28:37.52</time>
<name>1874</name>
<sym>Dot</sym>
</trkpt>
<trkpt lat="40.046170" lon="-8.335780">
<ele>291.5</ele>
<desc>Speed 2.8 km/h Distance 7.00 km</desc>
<time>2011-05-22T07:28:38.52</time>
<name>1875</name>
<sym>Dot</sym>
</trkpt>
<trkpt lat="40.046165" lon="-8.335780">
<ele>292.0</ele>
<desc>Speed 1.5 km/h Distance 7.00 km</desc>
<time>2011-05-22T07:28:39.52</time>
<name>1876</name>
<sym>Dot</sym>
</trkpt>
<trkpt lat="40.046153" lon="-8.335780">
<ele>291.5</ele>
<desc>Speed 3.9 km/h Distance 7.01 km</desc>
<time>2011-05-22T07:28:43.72</time>
<name>1877</name>
<sym>Dot</sym>
</trkpt>
<trkpt lat="40.046182" lon="-8.335802">
<ele>287.0</ele>
<desc>Speed 1.3 km/h Distance 7.01 km</desc>
<time>2011-05-22T07:29:00.06</time>
<name>1878</name>
<sym>Dot</sym>
</trkpt>
<trkpt lat="40.046177" lon="-8.335795">
<ele>285.5</ele>
<desc>Speed 2.4 km/h Distance 7.01 km</desc>
<time>2011-05-22T07:29:01.09</time>
<name>1879</name>
<sym>Dot</sym>
</trkpt>
<trkpt lat="40.046177" lon="-8.335795">
<ele>285.5</ele>
<desc>Speed 2.4 km/h Distance 7.01 km</desc>
<time>2011-05-22T07:29:01.56</time>
<name>1880</name>
<sym>Dot</sym>
</trkpt>
<trkpt lat="40.046195" lon="-8.335782">
<ele>286.0</ele>
<desc>Speed 1.5 km/h Distance 7.01 km</desc>
<time>2011-05-22T07:29:03.05</time>
<name>1881</name>
<sym>Dot</sym>
</trkpt>
<trkpt lat="40.046190" lon="-8.335783">
<ele>285.5</ele>
<desc>Speed 2.5 km/h Distance 7.01 km</desc>
<time>2011-05-22T07:29:04.04</time>
<name>1882</name>
<sym>Dot</sym>
</trkpt>
<trkpt lat="40.046187" lon="-8.335785">
<ele>285.5</ele>
<desc>Speed 1.7 km/h Distance 7.01 km</desc>
<time>2011-05-22T07:29:05.04</time>
<name>1883</name>
<sym>Dot</sym>
</trkpt>
<trkpt lat="40.046178" lon="-8.335795">
<ele>286.5</ele>
<desc>Speed 3.3 km/h Distance 7.01 km</desc>
<time>2011-05-22T07:29:14.03</time>
<name>1884</name>
<sym>Dot</sym>
</trkpt>
<trkpt lat="40.046165" lon="-8.335798">
<ele>286.5</ele>
<desc>Speed 5.4 km/h Distance 7.02 km</desc>
<time>2011-05-22T07:29:15.02</time>
<name>1885</name>
<sym>Dot</sym>
</trkpt>
<trkpt lat="40.046153" lon="-8.335805">
<ele>286.5</ele>
<desc>Speed 5.1 km/h Distance 7.02 km</desc>
<time>2011-05-22T07:29:16.01</time>
<name>1886</name>
<sym>Dot</sym>
</trkpt>
<trkpt lat="40.046143" lon="-8.335810">
<ele>287.0</ele>
<desc>Speed 5.0 km/h Distance 7.02 km</desc>
<time>2011-05-22T07:29:17.01</time>
<name>1887</name>
<sym>Dot</sym>
</trkpt>
<trkpt lat="40.046132" lon="-8.335810">
<ele>287.5</ele>
<desc>Speed 5.2 km/h Distance 7.02 km</desc>
<time>2011-05-22T07:29:18.01</time>
<name>1888</name>
<sym>Dot</sym>
</trkpt>
<trkpt lat="40.046118" lon="-8.335815">
<ele>287.5</ele>
<desc>Speed 6.0 km/h Distance 7.02 km</desc>
<time>2011-05-22T07:29:19.00</time>
<name>1889</name>
<sym>Dot</sym>
</trkpt>
<trkpt lat="40.046105" lon="-8.335822">
<ele>288.0</ele>
<desc>Speed 6.3 km/h Distance 7.02 km</desc>
<time>2011-05-22T07:29:20.00</time>
<name>1890</name>
<sym>Dot</sym>
</trkpt>
<trkpt lat="40.046090" lon="-8.335832">
<ele>287.5</ele>
<desc>Speed 7.4 km/h Distance 7.03 km</desc>
<time>2011-05-22T07:29:21.00</time>
<name>1891</name>
<sym>Dot</sym>
</trkpt>
<trkpt lat="40.046070" lon="-8.335838">
<ele>288.0</ele>
<desc>Speed 8.4 km/h Distance 7.03 km</desc>
<time>2011-05-22T07:29:21.99</time>
<name>1892</name>
<sym>Dot</sym>
</trkpt>
<trkpt lat="40.046048" lon="-8.335843">
<ele>288.0</ele>
<desc>Speed 9.3 km/h Distance 7.03 km</desc>
<time>2011-05-22T07:29:22.99</time>
<name>1893</name>
<sym>Dot</sym>
</trkpt>
<trkpt lat="40.046027" lon="-8.335850">
<ele>288.0</ele>
<desc>Speed 8.7 km/h Distance 7.03 km</desc>
<time>2011-05-22T07:29:23.98</time>
<name>1894</name>
<sym>Dot</sym>
</trkpt>
<trkpt lat="40.046005" lon="-8.335857">
<ele>289.0</ele>
<desc>Speed 8.9 km/h Distance 7.03 km</desc>
<time>2011-05-22T07:29:24.98</time>
<name>1895</name>
<sym>Dot</sym>
</trkpt>
<trkpt lat="40.045978" lon="-8.335865">
<ele>289.5</ele>
<desc>Speed 11.4 km/h Distance 7.04 km</desc>
<time>2011-05-22T07:29:25.98</time>
<name>1896</name>
<sym>Dot</sym>
</trkpt>
<trkpt lat="40.045948" lon="-8.335870">
<ele>290.0</ele>
<desc>Speed 12.3 km/h Distance 7.04 km</desc>
<time>2011-05-22T07:29:26.97</time>
<name>1897</name>
<sym>Dot</sym>
</trkpt>
<trkpt lat="40.045917" lon="-8.335872">
<ele>290.0</ele>
<desc>Speed 12.6 km/h Distance 7.04 km</desc>
<time>2011-05-22T07:29:27.97</time>
<name>1898</name>
<sym>Dot</sym>
</trkpt>
<trkpt lat="40.045880" lon="-8.335873">
<ele>289.0</ele>
<desc>Speed 14.3 km/h Distance 7.05 km</desc>
<time>2011-05-22T07:29:28.96</time>
<name>1899</name>
<sym>Dot</sym>
</trkpt>
<trkpt lat="40.045843" lon="-8.335878">
<ele>289.0</ele>
<desc>Speed 15.2 km/h Distance 7.05 km</desc>
<time>2011-05-22T07:29:29.96</time>
<name>1900</name>
<sym>Dot</sym>
</trkpt>
<trkpt lat="40.045803" lon="-8.335883">
<ele>289.0</ele>
<desc>Speed 16.3 km/h Distance 7.06 km</desc>
<time>2011-05-22T07:29:30.95</time>
<name>1901</name>
<sym>Dot</sym>
</trkpt>
<trkpt lat="40.045762" lon="-8.335890">
<ele>289.0</ele>
<desc>Speed 16.7 km/h Distance 7.06 km</desc>
<time>2011-05-22T07:29:31.95</time>
<name>1902</name>
<sym>Dot</sym>
</trkpt>
<trkpt lat="40.045720" lon="-8.335897">
<ele>288.5</ele>
<desc>Speed 16.8 km/h Distance 7.07 km</desc>
<time>2011-05-22T07:29:32.94</time>
<name>1903</name>
<sym>Dot</sym>
</trkpt>
<trkpt lat="40.045677" lon="-8.335905">
<ele>288.5</ele>
<desc>Speed 17.6 km/h Distance 7.07 km</desc>
<time>2011-05-22T07:29:33.94</time>
<name>1904</name>
<sym>Dot</sym>
</trkpt>
<trkpt lat="40.045630" lon="-8.335915">
<ele>288.0</ele>
<desc>Speed 18.3 km/h Distance 7.08 km</desc>
<time>2011-05-22T07:29:34.94</time>
<name>1905</name>
<sym>Dot</sym>
</trkpt>
<trkpt lat="40.045583" lon="-8.335927">
<ele>288.0</ele>
<desc>Speed 18.8 km/h Distance 7.08 km</desc>
<time>2011-05-22T07:29:35.93</time>
<name>1906</name>
<sym>Dot</sym>
</trkpt>
<trkpt lat="40.045535" lon="-8.335935">
<ele>288.0</ele>
<desc>Speed 19.3 km/h Distance 7.09 km</desc>
<time>2011-05-22T07:29:36.93</time>
<name>1907</name>
<sym>Dot</sym>
</trkpt>
<trkpt lat="40.045487" lon="-8.335945">
<ele>288.0</ele>
<desc>Speed 19.8 km/h Distance 7.09 km</desc>
<time>2011-05-22T07:29:37.92</time>
<name>1908</name>
<sym>Dot</sym>
</trkpt>
<trkpt lat="40.045438" lon="-8.335957">
<ele>288.0</ele>
<desc>Speed 19.9 km/h Distance 7.10 km</desc>
<time>2011-05-22T07:29:38.91</time>
<name>1909</name>
<sym>Dot</sym>
</trkpt>
<trkpt lat="40.045390" lon="-8.335977">
<ele>288.0</ele>
<desc>Speed 20.2 km/h Distance 7.10 km</desc>
<time>2011-05-22T07:29:39.90</time>
<name>1910</name>
<sym>Dot</sym>
</trkpt>
<trkpt lat="40.045342" lon="-8.336002">
<ele>287.5</ele>
<desc>Speed 20.5 km/h Distance 7.11 km</desc>
<time>2011-05-22T07:29:40.89</time>
<name>1911</name>
<sym>Dot</sym>
</trkpt>
<trkpt lat="40.045293" lon="-8.336025">
<ele>287.5</ele>
<desc>Speed 20.9 km/h Distance 7.12 km</desc>
<time>2011-05-22T07:29:41.89</time>
<name>1912</name>
<sym>Dot</sym>
</trkpt>
<trkpt lat="40.045245" lon="-8.336052">
<ele>287.5</ele>
<desc>Speed 20.6 km/h Distance 7.12 km</desc>
<time>2011-05-22T07:29:42.89</time>
<name>1913</name>
<sym>Dot</sym>
</trkpt>
<trkpt lat="40.045200" lon="-8.336083">
<ele>287.5</ele>
<desc>Speed 20.1 km/h Distance 7.13 km</desc>
<time>2011-05-22T07:29:43.88</time>
<name>1914</name>
<sym>Dot</sym>
</trkpt>
<trkpt lat="40.045157" lon="-8.336118">
<ele>287.5</ele>
<desc>Speed 20.1 km/h Distance 7.13 km</desc>
<time>2011-05-22T07:29:44.88</time>
<name>1915</name>
<sym>Dot</sym>
</trkpt>
<trkpt lat="40.045115" lon="-8.336155">
<ele>287.0</ele>
<desc>Speed 19.8 km/h Distance 7.14 km</desc>
<time>2011-05-22T07:29:45.87</time>
<name>1916</name>
<sym>Dot</sym>
</trkpt>
<trkpt lat="40.045078" lon="-8.336195">
<ele>287.0</ele>
<desc>Speed 19.6 km/h Distance 7.14 km</desc>
<time>2011-05-22T07:29:46.86</time>
<name>1917</name>
<sym>Dot</sym>
</trkpt>
<trkpt lat="40.045040" lon="-8.336237">
<ele>286.5</ele>
<desc>Speed 19.4 km/h Distance 7.15 km</desc>
<time>2011-05-22T07:29:47.87</time>
<name>1918</name>
<sym>Dot</sym>
</trkpt>
<trkpt lat="40.045003" lon="-8.336277">
<ele>286.5</ele>
<desc>Speed 19.2 km/h Distance 7.15 km</desc>
<time>2011-05-22T07:29:48.86</time>
<name>1919</name>
<sym>Dot</sym>
</trkpt>
<trkpt lat="40.044965" lon="-8.336320">
<ele>286.5</ele>
<desc>Speed 20.1 km/h Distance 7.16 km</desc>
<time>2011-05-22T07:29:49.85</time>
<name>1920</name>
<sym>Dot</sym>
</trkpt>
<trkpt lat="40.044927" lon="-8.336363">
<ele>286.0</ele>
<desc>Speed 20.8 km/h Distance 7.17 km</desc>
<time>2011-05-22T07:29:50.85</time>
<name>1921</name>
<sym>Dot</sym>
</trkpt>
<trkpt lat="40.044885" lon="-8.336408">
<ele>286.0</ele>
<desc>Speed 21.5 km/h Distance 7.17 km</desc>
<time>2011-05-22T07:29:51.85</time>
<name>1922</name>
<sym>Dot</sym>
</trkpt>
<trkpt lat="40.044842" lon="-8.336455">
<ele>285.5</ele>
<desc>Speed 22.1 km/h Distance 7.18 km</desc>
<time>2011-05-22T07:29:52.84</time>
<name>1923</name>
<sym>Dot</sym>
</trkpt>
<trkpt lat="40.044797" lon="-8.336503">
<ele>285.5</ele>
<desc>Speed 22.8 km/h Distance 7.18 km</desc>
<time>2011-05-22T07:29:53.84</time>
<name>1924</name>
<sym>Dot</sym>
</trkpt>
<trkpt lat="40.044752" lon="-8.336555">
<ele>285.0</ele>
<desc>Speed 23.4 km/h Distance 7.19 km</desc>
<time>2011-05-22T07:29:54.83</time>
<name>1925</name>
<sym>Dot</sym>
</trkpt>
<trkpt lat="40.044703" lon="-8.336607">
<ele>284.5</ele>
<desc>Speed 24.5 km/h Distance 7.20 km</desc>
<time>2011-05-22T07:29:55.83</time>
<name>1926</name>
<sym>Dot</sym>
</trkpt>
<trkpt lat="40.044655" lon="-8.336662">
<ele>284.0</ele>
<desc>Speed 25.3 km/h Distance 7.21 km</desc>
<time>2011-05-22T07:29:56.82</time>
<name>1927</name>
<sym>Dot</sym>
</trkpt>
<trkpt lat="40.044607" lon="-8.336720">
<ele>284.0</ele>
<desc>Speed 26.5 km/h Distance 7.21 km</desc>
<time>2011-05-22T07:29:57.82</time>
<name>1928</name>
<sym>Dot</sym>
</trkpt>
<trkpt lat="40.044560" lon="-8.336785">
<ele>283.5</ele>
<desc>Speed 27.2 km/h Distance 7.22 km</desc>
<time>2011-05-22T07:29:58.82</time>
<name>1929</name>
<sym>Dot</sym>
</trkpt>
<trkpt lat="40.044517" lon="-8.336855">
<ele>283.0</ele>
<desc>Speed 27.7 km/h Distance 7.23 km</desc>
<time>2011-05-22T07:29:59.81</time>
<name>1930</name>
<sym>Dot</sym>
</trkpt>
<trkpt lat="40.044473" lon="-8.336930">
<ele>283.0</ele>
<desc>Speed 28.5 km/h Distance 7.24 km</desc>
<time>2011-05-22T07:30:00.81</time>
<name>1931</name>
<sym>Dot</sym>
</trkpt>
<trkpt lat="40.044435" lon="-8.337010">
<ele>283.0</ele>
<desc>Speed 29.0 km/h Distance 7.24 km</desc>
<time>2011-05-22T07:30:01.81</time>
<name>1932</name>
<sym>Dot</sym>
</trkpt>
<trkpt lat="40.044405" lon="-8.337097">
<ele>282.5</ele>
<desc>Speed 29.2 km/h Distance 7.25 km</desc>
<time>2011-05-22T07:30:02.80</time>
<name>1933</name>
<sym>Dot</sym>
</trkpt>
<trkpt lat="40.044378" lon="-8.337188">
<ele>282.0</ele>
<desc>Speed 29.9 km/h Distance 7.26 km</desc>
<time>2011-05-22T07:30:03.80</time>
<name>1934</name>
<sym>Dot</sym>
</trkpt>
<trkpt lat="40.044357" lon="-8.337285">
<ele>281.5</ele>
<desc>Speed 30.6 km/h Distance 7.27 km</desc>
<time>2011-05-22T07:30:04.79</time>
<name>1935</name>
<sym>Dot</sym>
</trkpt>
<trkpt lat="40.044345" lon="-8.337385">
<ele>281.5</ele>
<desc>Speed 31.1 km/h Distance 7.28 km</desc>
<time>2011-05-22T07:30:05.78</time>
<name>1936</name>
<sym>Dot</sym>
</trkpt>
<trkpt lat="40.044340" lon="-8.337488">
<ele>281.0</ele>
<desc>Speed 31.9 km/h Distance 7.29 km</desc>
<time>2011-05-22T07:30:06.77</time>
<name>1937</name>
<sym>Dot</sym>
</trkpt>
<trkpt lat="40.044340" lon="-8.337593">
<ele>281.0</ele>
<desc>Speed 32.1 km/h Distance 7.30 km</desc>
<time>2011-05-22T07:30:07.77</time>
<name>1938</name>
<sym>Dot</sym>
</trkpt>
<trkpt lat="40.044345" lon="-8.337700">
<ele>280.5</ele>
<desc>Speed 32.7 km/h Distance 7.30 km</desc>
<time>2011-05-22T07:30:08.76</time>
<name>1939</name>
<sym>Dot</sym>
</trkpt>
<trkpt lat="40.044353" lon="-8.337807">
<ele>280.5</ele>
<desc>Speed 33.0 km/h Distance 7.31 km</desc>
<time>2011-05-22T07:30:09.76</time>
<name>1940</name>
<sym>Dot</sym>
</trkpt>
<trkpt lat="40.044363" lon="-8.337915">
<ele>280.0</ele>
<desc>Speed 33.6 km/h Distance 7.32 km</desc>
<time>2011-05-22T07:30:10.76</time>
<name>1941</name>
<sym>Dot</sym>
</trkpt>
<trkpt lat="40.044373" lon="-8.338025">
<ele>279.5</ele>
<desc>Speed 34.3 km/h Distance 7.33 km</desc>
<time>2011-05-22T07:30:11.76</time>
<name>1942</name>
<sym>Dot</sym>
</trkpt>
<trkpt lat="40.044385" lon="-8.338138">
<ele>279.5</ele>
<desc>Speed 34.7 km/h Distance 7.34 km</desc>
<time>2011-05-22T07:30:12.75</time>
<name>1943</name>
<sym>Dot</sym>
</trkpt>
<trkpt lat="40.044397" lon="-8.338248">
<ele>279.0</ele>
<desc>Speed 34.4 km/h Distance 7.35 km</desc>
<time>2011-05-22T07:30:13.75</time>
<name>1944</name>
<sym>Dot</sym>
</trkpt>
<trkpt lat="40.044408" lon="-8.338360">
<ele>278.5</ele>
<desc>Speed 34.5 km/h Distance 7.36 km</desc>
<time>2011-05-22T07:30:14.74</time>
<name>1945</name>
<sym>Dot</sym>
</trkpt>
<trkpt lat="40.044418" lon="-8.338470">
<ele>278.0</ele>
<desc>Speed 34.4 km/h Distance 7.37 km</desc>
<time>2011-05-22T07:30:15.74</time>
<name>1946</name>
<sym>Dot</sym>
</trkpt>
<trkpt lat="40.044428" lon="-8.338582">
<ele>277.5</ele>
<desc>Speed 34.3 km/h Distance 7.38 km</desc>
<time>2011-05-22T07:30:16.74</time>
<name>1947</name>
<sym>Dot</sym>
</trkpt>
<trkpt lat="40.044438" lon="-8.338690">
<ele>277.0</ele>
<desc>Speed 33.9 km/h Distance 7.39 km</desc>
<time>2011-05-22T07:30:17.73</time>
<name>1948</name>
<sym>Dot</sym>
</trkpt>
<trkpt lat="40.044445" lon="-8.338802">
<ele>276.5</ele>
<desc>Speed 34.2 km/h Distance 7.40 km</desc>
<time>2011-05-22T07:30:18.73</time>
<name>1949</name>
<sym>Dot</sym>
</trkpt>
<trkpt lat="40.044447" lon="-8.338912">
<ele>276.5</ele>
<desc>Speed 34.5 km/h Distance 7.41 km</desc>
<time>2011-05-22T07:30:19.73</time>
<name>1950</name>
<sym>Dot</sym>
</trkpt>
<trkpt lat="40.044447" lon="-8.339023">
<ele>275.5</ele>
<desc>Speed 34.8 km/h Distance 7.42 km</desc>
<time>2011-05-22T07:30:20.72</time>
<name>1951</name>
<sym>Dot</sym>
</trkpt>
<trkpt lat="40.044442" lon="-8.339138">
<ele>275.0</ele>
<desc>Speed 35.2 km/h Distance 7.43 km</desc>
<time>2011-05-22T07:30:21.72</time>
<name>1952</name>
<sym>Dot</sym>
</trkpt>
<trkpt lat="40.044425" lon="-8.339253">
<ele>274.5</ele>
<desc>Speed 35.6 km/h Distance 7.44 km</desc>
<time>2011-05-22T07:30:22.72</time>
<name>1953</name>
<sym>Dot</sym>
</trkpt>
<trkpt lat="40.044400" lon="-8.339368">
<ele>274.0</ele>
<desc>Speed 36.3 km/h Distance 7.45 km</desc>
<time>2011-05-22T07:30:23.71</time>
<name>1954</name>
<sym>Dot</sym>
</trkpt>
<trkpt lat="40.044365" lon="-8.339480">
<ele>273.5</ele>
<desc>Speed 37.0 km/h Distance 7.46 km</desc>
<time>2011-05-22T07:30:24.71</time>
<name>1955</name>
<sym>Dot</sym>
</trkpt>
<trkpt lat="40.044325" lon="-8.339592">
<ele>273.0</ele>
<desc>Speed 37.7 km/h Distance 7.47 km</desc>
<time>2011-05-22T07:30:25.72</time>
<name>1956</name>
<sym>Dot</sym>
</trkpt>
<trkpt lat="40.044272" lon="-8.339695">
<ele>272.0</ele>
<desc>Speed 38.3 km/h Distance 7.48 km</desc>
<time>2011-05-22T07:30:26.70</time>
<name>1957</name>
<sym>Dot</sym>
</trkpt>
<trkpt lat="40.044195" lon="-8.339783">
<ele>271.0</ele>
<desc>Speed 40.7 km/h Distance 7.49 km</desc>
<time>2011-05-22T07:30:27.70</time>
<name>1958</name>
<sym>Dot</sym>
</trkpt>
<trkpt lat="40.044118" lon="-8.339865">
<ele>270.5</ele>
<desc>Speed 39.1 km/h Distance 7.50 km</desc>
<time>2011-05-22T07:30:28.69</time>
<name>1959</name>
<sym>Dot</sym>
</trkpt>
<trkpt lat="40.044035" lon="-8.339935">
<ele>270.0</ele>
<desc>Speed 40.0 km/h Distance 7.51 km</desc>
<time>2011-05-22T07:30:29.69</time>
<name>1960</name>
<sym>Dot</sym>
</trkpt>
<trkpt lat="40.043947" lon="-8.339998">
<ele>269.5</ele>
<desc>Speed 40.9 km/h Distance 7.52 km</desc>
<time>2011-05-22T07:30:30.69</time>
<name>1961</name>
<sym>Dot</sym>
</trkpt>
<trkpt lat="40.043855" lon="-8.340060">
<ele>268.5</ele>
<desc>Speed 41.2 km/h Distance 7.54 km</desc>
<time>2011-05-22T07:30:31.68</time>
<name>1962</name>
<sym>Dot</sym>
</trkpt>
<trkpt lat="40.043760" lon="-8.340118">
<ele>268.0</ele>
<desc>Speed 42.0 km/h Distance 7.55 km</desc>
<time>2011-05-22T07:30:32.67</time>
<name>1963</name>
<sym>Dot</sym>
</trkpt>
<trkpt lat="40.043663" lon="-8.340177">
<ele>267.5</ele>
<desc>Speed 42.9 km/h Distance 7.56 km</desc>
<time>2011-05-22T07:30:33.67</time>
<name>1964</name>
<sym>Dot</sym>
</trkpt>
<trkpt lat="40.043565" lon="-8.340237">
<ele>267.0</ele>
<desc>Speed 43.4 km/h Distance 7.57 km</desc>
<time>2011-05-22T07:30:34.66</time>
<name>1965</name>
<sym>Dot</sym>
</trkpt>
<trkpt lat="40.043468" lon="-8.340300">
<ele>266.0</ele>
<desc>Speed 43.4 km/h Distance 7.58 km</desc>
<time>2011-05-22T07:30:35.66</time>
<name>1966</name>
<sym>Dot</sym>
</trkpt>
<trkpt lat="40.043373" lon="-8.340375">
<ele>265.5</ele>
<desc>Speed 44.5 km/h Distance 7.60 km</desc>
<time>2011-05-22T07:30:36.66</time>
<name>1967</name>
<sym>Dot</sym>
</trkpt>
<trkpt lat="40.043283" lon="-8.340465">
<ele>265.0</ele>
<desc>Speed 45.3 km/h Distance 7.61 km</desc>
<time>2011-05-22T07:30:37.65</time>
<name>1968</name>
<sym>Dot</sym>
</trkpt>
<trkpt lat="40.043208" lon="-8.340578">
<ele>263.0</ele>
<desc>Speed 46.4 km/h Distance 7.62 km</desc>
<time>2011-05-22T07:30:38.65</time>
<name>1969</name>
<sym>Dot</sym>
</trkpt>
<trkpt lat="40.043137" lon="-8.340698">
<ele>262.5</ele>
<desc>Speed 46.5 km/h Distance 7.63 km</desc>
<time>2011-05-22T07:30:39.65</time>
<name>1970</name>
<sym>Dot</sym>
</trkpt>
<trkpt lat="40.043077" lon="-8.340827">
<ele>262.0</ele>
<desc>Speed 46.4 km/h Distance 7.65 km</desc>
<time>2011-05-22T07:30:40.64</time>
<name>1971</name>
<sym>Dot</sym>
</trkpt>
<trkpt lat="40.043028" lon="-8.340965">
<ele>262.0</ele>
<desc>Speed 46.4 km/h Distance 7.66 km</desc>
<time>2011-05-22T07:30:41.64</time>
<name>1972</name>
<sym>Dot</sym>
</trkpt>
<trkpt lat="40.042988" lon="-8.341103">
<ele>261.5</ele>
<desc>Speed 45.7 km/h Distance 7.67 km</desc>
<time>2011-05-22T07:30:42.63</time>
<name>1973</name>
<sym>Dot</sym>
</trkpt>
<trkpt lat="40.042952" lon="-8.341242">
<ele>261.5</ele>
<desc>Speed 45.1 km/h Distance 7.69 km</desc>
<time>2011-05-22T07:30:43.63</time>
<name>1974</name>
<sym>Dot</sym>
</trkpt>
<trkpt lat="40.042915" lon="-8.341380">
<ele>261.0</ele>
<desc>Speed 44.5 km/h Distance 7.70 km</desc>
<time>2011-05-22T07:30:44.62</time>
<name>1975</name>
<sym>Dot</sym>
</trkpt>
<trkpt lat="40.042883" lon="-8.341517">
<ele>261.0</ele>
<desc>Speed 43.8 km/h Distance 7.71 km</desc>
<time>2011-05-22T07:30:45.62</time>
<name>1976</name>
<sym>Dot</sym>
</trkpt>
<trkpt lat="40.042853" lon="-8.341652">
<ele>261.0</ele>
<desc>Speed 43.1 km/h Distance 7.72 km</desc>
<time>2011-05-22T07:30:46.62</time>
<name>1977</name>
<sym>Dot</sym>
</trkpt>
<trkpt lat="40.042822" lon="-8.341782">
<ele>261.0</ele>
<desc>Speed 42.0 km/h Distance 7.73 km</desc>
<time>2011-05-22T07:30:47.61</time>
<name>1978</name>
<sym>Dot</sym>
</trkpt>
<trkpt lat="40.042788" lon="-8.341910">
<ele>261.0</ele>
<desc>Speed 41.4 km/h Distance 7.74 km</desc>
<time>2011-05-22T07:30:48.60</time>
<name>1979</name>
<sym>Dot</sym>
</trkpt>
<trkpt lat="40.042753" lon="-8.342033">
<ele>261.0</ele>
<desc>Speed 40.8 km/h Distance 7.76 km</desc>
<time>2011-05-22T07:30:49.60</time>
<name>1980</name>
<sym>Dot</sym>
</trkpt>
<trkpt lat="40.042715" lon="-8.342153">
<ele>260.5</ele>
<desc>Speed 40.1 km/h Distance 7.77 km</desc>
<time>2011-05-22T07:30:50.59</time>
<name>1981</name>
<sym>Dot</sym>
</trkpt>
<trkpt lat="40.042670" lon="-8.342268">
<ele>260.5</ele>
<desc>Speed 39.6 km/h Distance 7.78 km</desc>
<time>2011-05-22T07:30:51.59</time>
<name>1982</name>
<sym>Dot</sym>
</trkpt>
<trkpt lat="40.042620" lon="-8.342377">
<ele>260.5</ele>
<desc>Speed 38.9 km/h Distance 7.79 km</desc>
<time>2011-05-22T07:30:52.58</time>
<name>1983</name>
<sym>Dot</sym>
</trkpt>
<trkpt lat="40.042563" lon="-8.342477">
<ele>260.5</ele>
<desc>Speed 38.5 km/h Distance 7.80 km</desc>
<time>2011-05-22T07:30:53.58</time>
<name>1984</name>
<sym>Dot</sym>
</trkpt>
<trkpt lat="40.042502" lon="-8.342572">
<ele>260.5</ele>
<desc>Speed 38.0 km/h Distance 7.81 km</desc>
<time>2011-05-22T07:30:54.58</time>
<name>1985</name>
<sym>Dot</sym>
</trkpt>
<trkpt lat="40.042438" lon="-8.342660">
<ele>260.5</ele>
<desc>Speed 37.4 km/h Distance 7.82 km</desc>
<time>2011-05-22T07:30:55.57</time>
<name>1986</name>
<sym>Dot</sym>
</trkpt>
<trkpt lat="40.042372" lon="-8.342743">
<ele>260.5</ele>
<desc>Speed 36.9 km/h Distance 7.83 km</desc>
<time>2011-05-22T07:30:56.56</time>
<name>1987</name>
<sym>Dot</sym>
</trkpt>
<trkpt lat="40.042303" lon="-8.342820">
<ele>260.5</ele>
<desc>Speed 36.4 km/h Distance 7.84 km</desc>
<time>2011-05-22T07:30:57.56</time>
<name>1988</name>
<sym>Dot</sym>
</trkpt>
<trkpt lat="40.042232" lon="-8.342890">
<ele>260.5</ele>
<desc>Speed 35.7 km/h Distance 7.85 km</desc>
<time>2011-05-22T07:30:58.55</time>
<name>1989</name>
<sym>Dot</sym>
</trkpt>
<trkpt lat="40.042160" lon="-8.342957">
<ele>260.5</ele>
<desc>Speed 35.3 km/h Distance 7.86 km</desc>
<time>2011-05-22T07:30:59.55</time>
<name>1990</name>
<sym>Dot</sym>
</trkpt>
<trkpt lat="40.042088" lon="-8.343022">
<ele>260.5</ele>
<desc>Speed 34.9 km/h Distance 7.87 km</desc>
<time>2011-05-22T07:31:00.55</time>
<name>1991</name>
<sym>Dot</sym>
</trkpt>
<trkpt lat="40.042017" lon="-8.343087">
<ele>260.0</ele>
<desc>Speed 34.7 km/h Distance 7.88 km</desc>
<time>2011-05-22T07:31:01.55</time>
<name>1992</name>
<sym>Dot</sym>
</trkpt>
<trkpt lat="40.041945" lon="-8.343148">
<ele>259.5</ele>
<desc>Speed 35.1 km/h Distance 7.89 km</desc>
<time>2011-05-22T07:31:02.54</time>
<name>1993</name>
<sym>Dot</sym>
</trkpt>
<trkpt lat="40.041872" lon="-8.343213">
<ele>259.0</ele>
<desc>Speed 35.5 km/h Distance 7.90 km</desc>
<time>2011-05-22T07:31:03.53</time>
<name>1994</name>
<sym>Dot</sym>
</trkpt>
<trkpt lat="40.041800" lon="-8.343282">
<ele>259.0</ele>
<desc>Speed 35.5 km/h Distance 7.91 km</desc>
<time>2011-05-22T07:31:04.53</time>
<name>1995</name>
<sym>Dot</sym>
</trkpt>
<trkpt lat="40.041727" lon="-8.343348">
<ele>258.5</ele>
<desc>Speed 35.7 km/h Distance 7.92 km</desc>
<time>2011-05-22T07:31:05.53</time>
<name>1996</name>
<sym>Dot</sym>
</trkpt>
<trkpt lat="40.041655" lon="-8.343417">
<ele>258.5</ele>
<desc>Speed 36.0 km/h Distance 7.93 km</desc>
<time>2011-05-22T07:31:06.52</time>
<name>1997</name>
<sym>Dot</sym>
</trkpt>
<trkpt lat="40.041582" lon="-8.343485">
<ele>258.0</ele>
<desc>Speed 36.1 km/h Distance 7.94 km</desc>
<time>2011-05-22T07:31:07.52</time>
<name>1998</name>
<sym>Dot</sym>
</trkpt>
<trkpt lat="40.041508" lon="-8.343552">
<ele>258.0</ele>
<desc>Speed 35.9 km/h Distance 7.95 km</desc>
<time>2011-05-22T07:31:08.52</time>
<name>1999</name>
<sym>Dot</sym>
</trkpt>
<trkpt lat="40.041435" lon="-8.343620">
<ele>257.5</ele>
<desc>Speed 36.0 km/h Distance 7.96 km</desc>
<time>2011-05-22T07:31:09.52</time>
<name>2000</name>
<sym>Dot</sym>
</trkpt>
<trkpt lat="40.041362" lon="-8.343688">
<ele>257.0</ele>
<desc>Speed 36.2 km/h Distance 7.97 km</desc>
<time>2011-05-22T07:31:10.51</time>
<name>2001</name>
<sym>Dot</sym>
</trkpt>
<trkpt lat="40.041287" lon="-8.343753">
<ele>256.5</ele>
<desc>Speed 36.3 km/h Distance 7.98 km</desc>
<time>2011-05-22T07:31:11.51</time>
<name>2002</name>
<sym>Dot</sym>
</trkpt>
<trkpt lat="40.041210" lon="-8.343820">
<ele>256.5</ele>
<desc>Speed 36.4 km/h Distance 7.99 km</desc>
<time>2011-05-22T07:31:12.51</time>
<name>2003</name>
<sym>Dot</sym>
</trkpt>
<trkpt lat="40.041137" lon="-8.343887">
<ele>256.0</ele>
<desc>Speed 36.3 km/h Distance 8.00 km</desc>
<time>2011-05-22T07:31:13.50</time>
<name>2004</name>
<sym>Dot</sym>
</trkpt>
<trkpt lat="40.041063" lon="-8.343957">
<ele>256.0</ele>
<desc>Speed 36.5 km/h Distance 8.01 km</desc>
<time>2011-05-22T07:31:14.50</time>
<name>2005</name>
<sym>Dot</sym>
</trkpt>
<trkpt lat="40.040990" lon="-8.344027">
<ele>255.5</ele>
<desc>Speed 36.0 km/h Distance 8.02 km</desc>
<time>2011-05-22T07:31:15.50</time>
<name>2006</name>
<sym>Dot</sym>
</trkpt>
<trkpt lat="40.040917" lon="-8.344093">
<ele>255.5</ele>
<desc>Speed 36.1 km/h Distance 8.03 km</desc>
<time>2011-05-22T07:31:16.49</time>
<name>2007</name>
<sym>Dot</sym>
</trkpt>
<trkpt lat="40.040843" lon="-8.344160">
<ele>255.0</ele>
<desc>Speed 36.0 km/h Distance 8.04 km</desc>
<time>2011-05-22T07:31:17.49</time>
<name>2008</name>
<sym>Dot</sym>
</trkpt>
<trkpt lat="40.040770" lon="-8.344228">
<ele>254.5</ele>
<desc>Speed 36.2 km/h Distance 8.05 km</desc>
<time>2011-05-22T07:31:18.49</time>
<name>2009</name>
<sym>Dot</sym>
</trkpt>
<trkpt lat="40.040695" lon="-8.344295">
<ele>254.5</ele>
<desc>Speed 36.1 km/h Distance 8.06 km</desc>
<time>2011-05-22T07:31:19.49</time>
<name>2010</name>
<sym>Dot</sym>
</trkpt>
<trkpt lat="40.040623" lon="-8.344362">
<ele>254.5</ele>
<desc>Speed 35.9 km/h Distance 8.07 km</desc>
<time>2011-05-22T07:31:20.48</time>
<name>2011</name>
<sym>Dot</sym>
</trkpt>
<trkpt lat="40.040552" lon="-8.344428">
<ele>254.5</ele>
<desc>Speed 35.2 km/h Distance 8.08 km</desc>
<time>2011-05-22T07:31:21.47</time>
<name>2012</name>
<sym>Dot</sym>
</trkpt>
<trkpt lat="40.040482" lon="-8.344490">
<ele>254.5</ele>
<desc>Speed 33.8 km/h Distance 8.09 km</desc>
<time>2011-05-22T07:31:22.47</time>
<name>2013</name>
<sym>Dot</sym>
</trkpt>
<trkpt lat="40.040415" lon="-8.344552">
<ele>254.5</ele>
<desc>Speed 32.8 km/h Distance 8.10 km</desc>
<time>2011-05-22T07:31:23.47</time>
<name>2014</name>
<sym>Dot</sym>
</trkpt>
<trkpt lat="40.040352" lon="-8.344612">
<ele>254.5</ele>
<desc>Speed 31.7 km/h Distance 8.11 km</desc>
<time>2011-05-22T07:31:24.46</time>
<name>2015</name>
<sym>Dot</sym>
</trkpt>
<trkpt lat="40.040290" lon="-8.344672">
<ele>254.5</ele>
<desc>Speed 30.6 km/h Distance 8.11 km</desc>
<time>2011-05-22T07:31:25.46</time>
<name>2016</name>
<sym>Dot</sym>
</trkpt>
<trkpt lat="40.040232" lon="-8.344730">
<ele>254.5</ele>
<desc>Speed 29.6 km/h Distance 8.12 km</desc>
<time>2011-05-22T07:31:26.44</time>
<name>2017</name>
<sym>Dot</sym>
</trkpt>
<trkpt lat="40.040173" lon="-8.344783">
<ele>254.5</ele>
<desc>Speed 28.6 km/h Distance 8.13 km</desc>
<time>2011-05-22T07:31:27.44</time>
<name>2018</name>
<sym>Dot</sym>
</trkpt>
<trkpt lat="40.040118" lon="-8.344837">
<ele>255.0</ele>
<desc>Speed 27.9 km/h Distance 8.14 km</desc>
<time>2011-05-22T07:31:28.44</time>
<name>2019</name>
<sym>Dot</sym>
</trkpt>
<trkpt lat="40.040062" lon="-8.344888">
<ele>255.0</ele>
<desc>Speed 27.5 km/h Distance 8.15 km</desc>
<time>2011-05-22T07:31:29.43</time>
<name>2020</name>
<sym>Dot</sym>
</trkpt>
<trkpt lat="40.040005" lon="-8.344940">
<ele>255.0</ele>
<desc>Speed 27.8 km/h Distance 8.15 km</desc>
<time>2011-05-22T07:31:30.42</time>
<name>2021</name>
<sym>Dot</sym>
</trkpt>
<trkpt lat="40.039950" lon="-8.344992">
<ele>255.5</ele>
<desc>Speed 27.3 km/h Distance 8.16 km</desc>
<time>2011-05-22T07:31:31.42</time>
<name>2022</name>
<sym>Dot</sym>
</trkpt>
<trkpt lat="40.039897" lon="-8.345042">
<ele>255.5</ele>
<desc>Speed 26.1 km/h Distance 8.17 km</desc>
<time>2011-05-22T07:31:32.43</time>
<name>2023</name>
<sym>Dot</sym>
</trkpt>
<trkpt lat="40.039852" lon="-8.345087">
<ele>255.0</ele>
<desc>Speed 23.7 km/h Distance 8.18 km</desc>
<time>2011-05-22T07:31:33.42</time>
<name>2024</name>
<sym>Dot</sym>
</trkpt>
<trkpt lat="40.039802" lon="-8.345133">
<ele>255.5</ele>
<desc>Speed 24.7 km/h Distance 8.18 km</desc>
<time>2011-05-22T07:31:34.41</time>
<name>2025</name>
<sym>Dot</sym>
</trkpt>
<trkpt lat="40.039752" lon="-8.345177">
<ele>255.5</ele>
<desc>Speed 24.2 km/h Distance 8.19 km</desc>
<time>2011-05-22T07:31:35.41</time>
<name>2026</name>
<sym>Dot</sym>
</trkpt>
<trkpt lat="40.039705" lon="-8.345220">
<ele>255.5</ele>
<desc>Speed 23.2 km/h Distance 8.20 km</desc>
<time>2011-05-22T07:31:36.41</time>
<name>2027</name>
<sym>Dot</sym>
</trkpt>
<trkpt lat="40.039660" lon="-8.345263">
<ele>256.0</ele>
<desc>Speed 22.7 km/h Distance 8.20 km</desc>
<time>2011-05-22T07:31:37.41</time>
<name>2028</name>
<sym>Dot</sym>
</trkpt>
<trkpt lat="40.039617" lon="-8.345305">
<ele>256.0</ele>
<desc>Speed 21.8 km/h Distance 8.21 km</desc>
<time>2011-05-22T07:31:38.40</time>
<name>2029</name>
<sym>Dot</sym>
</trkpt>
<trkpt lat="40.039573" lon="-8.345345">
<ele>256.0</ele>
<desc>Speed 21.4 km/h Distance 8.21 km</desc>
<time>2011-05-22T07:31:39.40</time>
<name>2030</name>
<sym>Dot</sym>
</trkpt>
<trkpt lat="40.039533" lon="-8.345385">
<ele>255.5</ele>
<desc>Speed 20.1 km/h Distance 8.22 km</desc>
<time>2011-05-22T07:31:40.40</time>
<name>2031</name>
<sym>Dot</sym>
</trkpt>
<trkpt lat="40.039495" lon="-8.345422">
<ele>255.5</ele>
<desc>Speed 19.0 km/h Distance 8.22 km</desc>
<time>2011-05-22T07:31:41.39</time>
<name>2032</name>
<sym>Dot</sym>
</trkpt>
<trkpt lat="40.039457" lon="-8.345460">
<ele>255.5</ele>
<desc>Speed 19.5 km/h Distance 8.23 km</desc>
<time>2011-05-22T07:31:42.39</time>
<name>2033</name>
<sym>Dot</sym>
</trkpt>
<trkpt lat="40.039417" lon="-8.345500">
<ele>255.5</ele>
<desc>Speed 20.0 km/h Distance 8.24 km</desc>
<time>2011-05-22T07:31:43.38</time>
<name>2034</name>
<sym>Dot</sym>
</trkpt>
<trkpt lat="40.039378" lon="-8.345537">
<ele>256.0</ele>
<desc>Speed 19.1 km/h Distance 8.24 km</desc>
<time>2011-05-22T07:31:44.37</time>
<name>2035</name>
<sym>Dot</sym>
</trkpt>
<trkpt lat="40.039340" lon="-8.345573">
<ele>256.0</ele>
<desc>Speed 19.2 km/h Distance 8.25 km</desc>
<time>2011-05-22T07:31:45.37</time>
<name>2036</name>
<sym>Dot</sym>
</trkpt>
<trkpt lat="40.039302" lon="-8.345608">
<ele>256.0</ele>
<desc>Speed 18.8 km/h Distance 8.25 km</desc>
<time>2011-05-22T07:31:46.37</time>
<name>2037</name>
<sym>Dot</sym>
</trkpt>
<trkpt lat="40.039265" lon="-8.345643">
<ele>256.0</ele>
<desc>Speed 18.8 km/h Distance 8.26 km</desc>
<time>2011-05-22T07:31:47.37</time>
<name>2038</name>
<sym>Dot</sym>
</trkpt>
<trkpt lat="40.039225" lon="-8.345680">
<ele>256.0</ele>
<desc>Speed 19.3 km/h Distance 8.26 km</desc>
<time>2011-05-22T07:31:48.36</time>
<name>2039</name>
<sym>Dot</sym>
</trkpt>
<trkpt lat="40.039187" lon="-8.345717">
<ele>256.0</ele>
<desc>Speed 19.5 km/h Distance 8.27 km</desc>
<time>2011-05-22T07:31:49.36</time>
<name>2040</name>
<sym>Dot</sym>
</trkpt>
<trkpt lat="40.039148" lon="-8.345753">
<ele>256.0</ele>
<desc>Speed 19.4 km/h Distance 8.27 km</desc>
<time>2011-05-22T07:31:50.35</time>
<name>2041</name>
<sym>Dot</sym>
</trkpt>
<trkpt lat="40.039110" lon="-8.345790">
<ele>256.0</ele>
<desc>Speed 19.2 km/h Distance 8.28 km</desc>
<time>2011-05-22T07:31:51.35</time>
<name>2042</name>
<sym>Dot</sym>
</trkpt>
<trkpt lat="40.039072" lon="-8.345825">
<ele>256.0</ele>
<desc>Speed 19.2 km/h Distance 8.28 km</desc>
<time>2011-05-22T07:31:52.35</time>
<name>2043</name>
<sym>Dot</sym>
</trkpt>
<trkpt lat="40.039032" lon="-8.345860">
<ele>256.0</ele>
<desc>Speed 19.4 km/h Distance 8.29 km</desc>
<time>2011-05-22T07:31:53.35</time>
<name>2044</name>
<sym>Dot</sym>
</trkpt>
<trkpt lat="40.038990" lon="-8.345898">
<ele>256.0</ele>
<desc>Speed 20.1 km/h Distance 8.29 km</desc>
<time>2011-05-22T07:31:54.35</time>
<name>2045</name>
<sym>Dot</sym>
</trkpt>
<trkpt lat="40.038948" lon="-8.345937">
<ele>256.0</ele>
<desc>Speed 20.3 km/h Distance 8.30 km</desc>
<time>2011-05-22T07:31:55.34</time>
<name>2046</name>
<sym>Dot</sym>
</trkpt>
<trkpt lat="40.038910" lon="-8.345978">
<ele>256.5</ele>
<desc>Speed 20.1 km/h Distance 8.30 km</desc>
<time>2011-05-22T07:31:56.34</time>
<name>2047</name>
<sym>Dot</sym>
</trkpt>
<trkpt lat="40.038870" lon="-8.346017">
<ele>256.5</ele>
<desc>Speed 19.8 km/h Distance 8.31 km</desc>
<time>2011-05-22T07:31:57.34</time>
<name>2048</name>
<sym>Dot</sym>
</trkpt>
<trkpt lat="40.038830" lon="-8.346053">
<ele>256.5</ele>
<desc>Speed 20.1 km/h Distance 8.32 km</desc>
<time>2011-05-22T07:31:58.33</time>
<name>2049</name>
<sym>Dot</sym>
</trkpt>
<trkpt lat="40.038788" lon="-8.346088">
<ele>256.5</ele>
<desc>Speed 20.1 km/h Distance 8.32 km</desc>
<time>2011-05-22T07:31:59.32</time>
<name>2050</name>
<sym>Dot</sym>
</trkpt>
<trkpt lat="40.038747" lon="-8.346127">
<ele>256.5</ele>
<desc>Speed 19.9 km/h Distance 8.33 km</desc>
<time>2011-05-22T07:32:00.32</time>
<name>2051</name>
<sym>Dot</sym>
</trkpt>
<trkpt lat="40.038708" lon="-8.346163">
<ele>256.5</ele>
<desc>Speed 19.3 km/h Distance 8.33 km</desc>
<time>2011-05-22T07:32:01.32</time>
<name>2052</name>
<sym>Dot</sym>
</trkpt>
<trkpt lat="40.038670" lon="-8.346200">
<ele>256.5</ele>
<desc>Speed 18.7 km/h Distance 8.34 km</desc>
<time>2011-05-22T07:32:02.31</time>
<name>2053</name>
<sym>Dot</sym>
</trkpt>
<trkpt lat="40.038633" lon="-8.346233">
<ele>256.5</ele>
<desc>Speed 18.7 km/h Distance 8.34 km</desc>
<time>2011-05-22T07:32:03.31</time>
<name>2054</name>
<sym>Dot</sym>
</trkpt>
<trkpt lat="40.038597" lon="-8.346267">
<ele>256.5</ele>
<desc>Speed 18.5 km/h Distance 8.35 km</desc>
<time>2011-05-22T07:32:04.30</time>
<name>2055</name>
<sym>Dot</sym>
</trkpt>
<trkpt lat="40.038558" lon="-8.346298">
<ele>256.5</ele>
<desc>Speed 18.5 km/h Distance 8.35 km</desc>
<time>2011-05-22T07:32:05.30</time>
<name>2056</name>
<sym>Dot</sym>
</trkpt>
<trkpt lat="40.038517" lon="-8.346325">
<ele>256.5</ele>
<desc>Speed 18.8 km/h Distance 8.36 km</desc>
<time>2011-05-22T07:32:06.29</time>
<name>2057</name>
<sym>Dot</sym>
</trkpt>
<trkpt lat="40.038475" lon="-8.346348">
<ele>257.0</ele>
<desc>Speed 17.9 km/h Distance 8.36 km</desc>
<time>2011-05-22T07:32:07.30</time>
<name>2058</name>
<sym>Dot</sym>
</trkpt>
<trkpt lat="40.038432" lon="-8.346370">
<ele>257.0</ele>
<desc>Speed 18.3 km/h Distance 8.37 km</desc>
<time>2011-05-22T07:32:08.28</time>
<name>2059</name>
<sym>Dot</sym>
</trkpt>
<trkpt lat="40.038385" lon="-8.346392">
<ele>257.5</ele>
<desc>Speed 19.3 km/h Distance 8.37 km</desc>
<time>2011-05-22T07:32:09.28</time>
<name>2060</name>
<sym>Dot</sym>
</trkpt>
<trkpt lat="40.038338" lon="-8.346408">
<ele>257.5</ele>
<desc>Speed 19.4 km/h Distance 8.38 km</desc>
<time>2011-05-22T07:32:10.28</time>
<name>2061</name>
<sym>Dot</sym>
</trkpt>
<trkpt lat="40.038290" lon="-8.346423">
<ele>258.0</ele>
<desc>Speed 20.1 km/h Distance 8.38 km</desc>
<time>2011-05-22T07:32:11.28</time>
<name>2062</name>
<sym>Dot</sym>
</trkpt>
<trkpt lat="40.038240" lon="-8.346435">
<ele>258.0</ele>
<desc>Speed 20.5 km/h Distance 8.39 km</desc>
<time>2011-05-22T07:32:12.28</time>
<name>2063</name>
<sym>Dot</sym>
</trkpt>
<trkpt lat="40.038190" lon="-8.346447">
<ele>258.5</ele>
<desc>Speed 20.4 km/h Distance 8.40 km</desc>
<time>2011-05-22T07:32:13.27</time>
<name>2064</name>
<sym>Dot</sym>
</trkpt>
<trkpt lat="40.038140" lon="-8.346460">
<ele>258.5</ele>
<desc>Speed 20.3 km/h Distance 8.40 km</desc>
<time>2011-05-22T07:32:14.27</time>
<name>2065</name>
<sym>Dot</sym>
</trkpt>
<trkpt lat="40.038093" lon="-8.346478">
<ele>259.0</ele>
<desc>Speed 19.7 km/h Distance 8.41 km</desc>
<time>2011-05-22T07:32:15.26</time>
<name>2066</name>
<sym>Dot</sym>
</trkpt>
<trkpt lat="40.038047" lon="-8.346497">
<ele>259.0</ele>
<desc>Speed 18.9 km/h Distance 8.41 km</desc>
<time>2011-05-22T07:32:16.26</time>
<name>2067</name>
<sym>Dot</sym>
</trkpt>
<trkpt lat="40.038003" lon="-8.346517">
<ele>259.0</ele>
<desc>Speed 18.2 km/h Distance 8.42 km</desc>
<time>2011-05-22T07:32:17.26</time>
<name>2068</name>
<sym>Dot</sym>
</trkpt>
<trkpt lat="40.037962" lon="-8.346537">
<ele>259.5</ele>
<desc>Speed 17.7 km/h Distance 8.42 km</desc>
<time>2011-05-22T07:32:18.25</time>
<name>2069</name>
<sym>Dot</sym>
</trkpt>
<trkpt lat="40.037922" lon="-8.346558">
<ele>259.5</ele>
<desc>Speed 17.1 km/h Distance 8.43 km</desc>
<time>2011-05-22T07:32:19.25</time>
<name>2070</name>
<sym>Dot</sym>
</trkpt>
<trkpt lat="40.037885" lon="-8.346585">
<ele>260.0</ele>
<desc>Speed 16.5 km/h Distance 8.43 km</desc>
<time>2011-05-22T07:32:20.24</time>
<name>2071</name>
<sym>Dot</sym>
</trkpt>
<trkpt lat="40.037850" lon="-8.346610">
<ele>260.0</ele>
<desc>Speed 15.8 km/h Distance 8.44 km</desc>
<time>2011-05-22T07:32:21.24</time>
<name>2072</name>
<sym>Dot</sym>
</trkpt>
<trkpt lat="40.037817" lon="-8.346635">
<ele>260.0</ele>
<desc>Speed 14.8 km/h Distance 8.44 km</desc>
<time>2011-05-22T07:32:22.24</time>
<name>2073</name>
<sym>Dot</sym>
</trkpt>
<trkpt lat="40.037787" lon="-8.346662">
<ele>260.0</ele>
<desc>Speed 14.6 km/h Distance 8.44 km</desc>
<time>2011-05-22T07:32:23.23</time>
<name>2074</name>
<sym>Dot</sym>
</trkpt>
<trkpt lat="40.037757" lon="-8.346687">
<ele>260.5</ele>
<desc>Speed 13.9 km/h Distance 8.45 km</desc>
<time>2011-05-22T07:32:24.23</time>
<name>2075</name>
<sym>Dot</sym>
</trkpt>
<trkpt lat="40.037728" lon="-8.346712">
<ele>260.5</ele>
<desc>Speed 13.5 km/h Distance 8.45 km</desc>
<time>2011-05-22T07:32:25.23</time>
<name>2076</name>
<sym>Dot</sym>
</trkpt>
<trkpt lat="40.037702" lon="-8.346738">
<ele>261.0</ele>
<desc>Speed 13.1 km/h Distance 8.46 km</desc>
<time>2011-05-22T07:32:26.22</time>
<name>2077</name>
<sym>Dot</sym>
</trkpt>
<trkpt lat="40.037677" lon="-8.346765">
<ele>261.0</ele>
<desc>Speed 12.5 km/h Distance 8.46 km</desc>
<time>2011-05-22T07:32:27.22</time>
<name>2078</name>
<sym>Dot</sym>
</trkpt>
<trkpt lat="40.037652" lon="-8.346792">
<ele>261.0</ele>
<desc>Speed 12.6 km/h Distance 8.46 km</desc>
<time>2011-05-22T07:32:28.21</time>
<name>2079</name>
<sym>Dot</sym>
</trkpt>
<trkpt lat="40.037627" lon="-8.346818">
<ele>261.5</ele>
<desc>Speed 12.6 km/h Distance 8.47 km</desc>
<time>2011-05-22T07:32:29.21</time>
<name>2080</name>
<sym>Dot</sym>
</trkpt>
<trkpt lat="40.037603" lon="-8.346845">
<ele>262.0</ele>
<desc>Speed 12.5 km/h Distance 8.47 km</desc>
<time>2011-05-22T07:32:30.20</time>
<name>2081</name>
<sym>Dot</sym>
</trkpt>
<trkpt lat="40.037580" lon="-8.346872">
<ele>262.0</ele>
<desc>Speed 12.1 km/h Distance 8.47 km</desc>
<time>2011-05-22T07:32:31.20</time>
<name>2082</name>
<sym>Dot</sym>
</trkpt>
<trkpt lat="40.037557" lon="-8.346898">
<ele>262.0</ele>
<desc>Speed 12.0 km/h Distance 8.48 km</desc>
<time>2011-05-22T07:32:32.19</time>
<name>2083</name>
<sym>Dot</sym>
</trkpt>
<trkpt lat="40.037535" lon="-8.346922">
<ele>262.0</ele>
<desc>Speed 11.4 km/h Distance 8.48 km</desc>
<time>2011-05-22T07:32:33.19</time>
<name>2084</name>
<sym>Dot</sym>
</trkpt>
<trkpt lat="40.037512" lon="-8.346947">
<ele>262.5</ele>
<desc>Speed 11.2 km/h Distance 8.48 km</desc>
<time>2011-05-22T07:32:34.19</time>
<name>2085</name>
<sym>Dot</sym>
</trkpt>
<trkpt lat="40.037492" lon="-8.346970">
<ele>262.5</ele>
<desc>Speed 10.8 km/h Distance 8.49 km</desc>
<time>2011-05-22T07:32:35.19</time>
<name>2086</name>
<sym>Dot</sym>
</trkpt>
<trkpt lat="40.037470" lon="-8.346992">
<ele>262.5</ele>
<desc>Speed 10.5 km/h Distance 8.49 km</desc>
<time>2011-05-22T07:32:36.19</time>
<name>2087</name>
<sym>Dot</sym>
</trkpt>
<trkpt lat="40.037452" lon="-8.347012">
<ele>262.0</ele>
<desc>Speed 9.9 km/h Distance 8.49 km</desc>
<time>2011-05-22T07:32:37.18</time>
<name>2088</name>
<sym>Dot</sym>
</trkpt>
<trkpt lat="40.037432" lon="-8.347030">
<ele>262.0</ele>
<desc>Speed 9.6 km/h Distance 8.49 km</desc>
<time>2011-05-22T07:32:38.18</time>
<name>2089</name>
<sym>Dot</sym>
</trkpt>
<trkpt lat="40.037408" lon="-8.347048">
<ele>262.0</ele>
<desc>Speed 10.3 km/h Distance 8.50 km</desc>
<time>2011-05-22T07:32:39.18</time>
<name>2090</name>
<sym>Dot</sym>
</trkpt>
<trkpt lat="40.037388" lon="-8.347065">
<ele>261.5</ele>
<desc>Speed 9.5 km/h Distance 8.50 km</desc>
<time>2011-05-22T07:32:40.18</time>
<name>2091</name>
<sym>Dot</sym>
</trkpt>
<trkpt lat="40.037367" lon="-8.347083">
<ele>261.5</ele>
<desc>Speed 9.8 km/h Distance 8.50 km</desc>
<time>2011-05-22T07:32:41.18</time>
<name>2092</name>
<sym>Dot</sym>
</trkpt>
<trkpt lat="40.037347" lon="-8.347100">
<ele>262.0</ele>
<desc>Speed 9.5 km/h Distance 8.51 km</desc>
<time>2011-05-22T07:32:42.17</time>
<name>2093</name>
<sym>Dot</sym>
</trkpt>
<trkpt lat="40.037323" lon="-8.347118">
<ele>262.5</ele>
<desc>Speed 9.9 km/h Distance 8.51 km</desc>
<time>2011-05-22T07:32:43.17</time>
<name>2094</name>
<sym>Dot</sym>
</trkpt>
<trkpt lat="40.037305" lon="-8.347133">
<ele>262.5</ele>
<desc>Speed 9.1 km/h Distance 8.51 km</desc>
<time>2011-05-22T07:32:44.17</time>
<name>2095</name>
<sym>Dot</sym>
</trkpt>
<trkpt lat="40.037285" lon="-8.347148">
<ele>262.5</ele>
<desc>Speed 9.1 km/h Distance 8.51 km</desc>
<time>2011-05-22T07:32:45.16</time>
<name>2096</name>
<sym>Dot</sym>
</trkpt>
<trkpt lat="40.037267" lon="-8.347162">
<ele>262.5</ele>
<desc>Speed 8.6 km/h Distance 8.52 km</desc>
<time>2011-05-22T07:32:46.16</time>
<name>2097</name>
<sym>Dot</sym>
</trkpt>
<trkpt lat="40.037248" lon="-8.347177">
<ele>262.5</ele>
<desc>Speed 8.7 km/h Distance 8.52 km</desc>
<time>2011-05-22T07:32:47.16</time>
<name>2098</name>
<sym>Dot</sym>
</trkpt>
<trkpt lat="40.037227" lon="-8.347187">
<ele>263.0</ele>
<desc>Speed 8.8 km/h Distance 8.52 km</desc>
<time>2011-05-22T07:32:48.16</time>
<name>2099</name>
<sym>Dot</sym>
</trkpt>
<trkpt lat="40.037205" lon="-8.347200">
<ele>263.0</ele>
<desc>Speed 9.5 km/h Distance 8.52 km</desc>
<time>2011-05-22T07:32:49.15</time>
<name>2100</name>
<sym>Dot</sym>
</trkpt>
<trkpt lat="40.037183" lon="-8.347212">
<ele>263.0</ele>
<desc>Speed 9.1 km/h Distance 8.53 km</desc>
<time>2011-05-22T07:32:50.15</time>
<name>2101</name>
<sym>Dot</sym>
</trkpt>
<trkpt lat="40.037163" lon="-8.347223">
<ele>263.5</ele>
<desc>Speed 9.1 km/h Distance 8.53 km</desc>
<time>2011-05-22T07:32:51.15</time>
<name>2102</name>
<sym>Dot</sym>
</trkpt>
<trkpt lat="40.037142" lon="-8.347235">
<ele>263.5</ele>
<desc>Speed 9.1 km/h Distance 8.53 km</desc>
<time>2011-05-22T07:32:52.15</time>
<name>2103</name>
<sym>Dot</sym>
</trkpt>
<trkpt lat="40.037120" lon="-8.347245">
<ele>263.5</ele>
<desc>Speed 8.7 km/h Distance 8.53 km</desc>
<time>2011-05-22T07:32:53.14</time>
<name>2104</name>
<sym>Dot</sym>
</trkpt>
<trkpt lat="40.037098" lon="-8.347253">
<ele>264.0</ele>
<desc>Speed 8.2 km/h Distance 8.54 km</desc>
<time>2011-05-22T07:32:54.14</time>
<name>2105</name>
<sym>Dot</sym>
</trkpt>
<trkpt lat="40.037077" lon="-8.347258">
<ele>264.5</ele>
<desc>Speed 9.0 km/h Distance 8.54 km</desc>
<time>2011-05-22T07:32:55.13</time>
<name>2106</name>
<sym>Dot</sym>
</trkpt>
<trkpt lat="40.037057" lon="-8.347267">
<ele>265.0</ele>
<desc>Speed 8.1 km/h Distance 8.54 km</desc>
<time>2011-05-22T07:32:56.13</time>
<name>2107</name>
<sym>Dot</sym>
</trkpt>
<trkpt lat="40.037033" lon="-8.347273">
<ele>265.0</ele>
<desc>Speed 8.7 km/h Distance 8.54 km</desc>
<time>2011-05-22T07:32:57.13</time>
<name>2108</name>
<sym>Dot</sym>
</trkpt>
<trkpt lat="40.037012" lon="-8.347278">
<ele>265.5</ele>
<desc>Speed 8.8 km/h Distance 8.55 km</desc>
<time>2011-05-22T07:32:58.12</time>
<name>2109</name>
<sym>Dot</sym>
</trkpt>
<trkpt lat="40.036990" lon="-8.347283">
<ele>265.5</ele>
<desc>Speed 8.9 km/h Distance 8.55 km</desc>
<time>2011-05-22T07:32:59.11</time>
<name>2110</name>
<sym>Dot</sym>
</trkpt>
<trkpt lat="40.036968" lon="-8.347288">
<ele>266.0</ele>
<desc>Speed 8.5 km/h Distance 8.55 km</desc>
<time>2011-05-22T07:33:00.11</time>
<name>2111</name>
<sym>Dot</sym>
</trkpt>
<trkpt lat="40.036948" lon="-8.347292">
<ele>266.0</ele>
<desc>Speed 8.1 km/h Distance 8.55 km</desc>
<time>2011-05-22T07:33:01.11</time>
<name>2112</name>
<sym>Dot</sym>
</trkpt>
<trkpt lat="40.036927" lon="-8.347297">
<ele>266.0</ele>
<desc>Speed 8.4 km/h Distance 8.56 km</desc>
<time>2011-05-22T07:33:02.10</time>
<name>2113</name>
<sym>Dot</sym>
</trkpt>
<trkpt lat="40.036903" lon="-8.347302">
<ele>266.5</ele>
<desc>Speed 8.6 km/h Distance 8.56 km</desc>
<time>2011-05-22T07:33:03.09</time>
<name>2114</name>
<sym>Dot</sym>
</trkpt>
<trkpt lat="40.036882" lon="-8.347305">
<ele>266.5</ele>
<desc>Speed 8.4 km/h Distance 8.56 km</desc>
<time>2011-05-22T07:33:04.09</time>
<name>2115</name>
<sym>Dot</sym>
</trkpt>
<trkpt lat="40.036862" lon="-8.347308">
<ele>267.0</ele>
<desc>Speed 7.8 km/h Distance 8.56 km</desc>
<time>2011-05-22T07:33:05.09</time>
<name>2116</name>
<sym>Dot</sym>
</trkpt>
<trkpt lat="40.036843" lon="-8.347310">
<ele>267.0</ele>
<desc>Speed 7.6 km/h Distance 8.57 km</desc>
<time>2011-05-22T07:33:06.09</time>
<name>2117</name>
<sym>Dot</sym>
</trkpt>
<trkpt lat="40.036825" lon="-8.347312">
<ele>267.5</ele>
<desc>Speed 7.3 km/h Distance 8.57 km</desc>
<time>2011-05-22T07:33:07.09</time>
<name>2118</name>
<sym>Dot</sym>
</trkpt>
<trkpt lat="40.036807" lon="-8.347312">
<ele>267.5</ele>
<desc>Speed 7.0 km/h Distance 8.57 km</desc>
<time>2011-05-22T07:33:08.08</time>
<name>2119</name>
<sym>Dot</sym>
</trkpt>
<trkpt lat="40.036788" lon="-8.347312">
<ele>267.0</ele>
<desc>Speed 7.5 km/h Distance 8.57 km</desc>
<time>2011-05-22T07:33:09.07</time>
<name>2120</name>
<sym>Dot</sym>
</trkpt>
<trkpt lat="40.036770" lon="-8.347312">
<ele>267.0</ele>
<desc>Speed 7.3 km/h Distance 8.57 km</desc>
<time>2011-05-22T07:33:10.07</time>
<name>2121</name>
<sym>Dot</sym>
</trkpt>
<trkpt lat="40.036752" lon="-8.347308">
<ele>267.5</ele>
<desc>Speed 7.5 km/h Distance 8.58 km</desc>
<time>2011-05-22T07:33:11.06</time>
<name>2122</name>
<sym>Dot</sym>
</trkpt>
<trkpt lat="40.036732" lon="-8.347308">
<ele>267.5</ele>
<desc>Speed 7.4 km/h Distance 8.58 km</desc>
<time>2011-05-22T07:33:12.06</time>
<name>2123</name>
<sym>Dot</sym>
</trkpt>
<trkpt lat="40.036712" lon="-8.347310">
<ele>267.5</ele>
<desc>Speed 8.0 km/h Distance 8.58 km</desc>
<time>2011-05-22T07:33:13.06</time>
<name>2124</name>
<sym>Dot</sym>
</trkpt>
<trkpt lat="40.036692" lon="-8.347310">
<ele>267.5</ele>
<desc>Speed 8.1 km/h Distance 8.58 km</desc>
<time>2011-05-22T07:33:14.06</time>
<name>2125</name>
<sym>Dot</sym>
</trkpt>
<trkpt lat="40.036670" lon="-8.347308">
<ele>268.0</ele>
<desc>Speed 8.7 km/h Distance 8.58 km</desc>
<time>2011-05-22T07:33:15.05</time>
<name>2126</name>
<sym>Dot</sym>
</trkpt>
<trkpt lat="40.036647" lon="-8.347308">
<ele>268.0</ele>
<desc>Speed 8.9 km/h Distance 8.59 km</desc>
<time>2011-05-22T07:33:16.05</time>
<name>2127</name>
<sym>Dot</sym>
</trkpt>
<trkpt lat="40.036625" lon="-8.347312">
<ele>268.0</ele>
<desc>Speed 8.7 km/h Distance 8.59 km</desc>
<time>2011-05-22T07:33:17.05</time>
<name>2128</name>
<sym>Dot</sym>
</trkpt>
<trkpt lat="40.036603" lon="-8.347315">
<ele>268.0</ele>
<desc>Speed 8.6 km/h Distance 8.59 km</desc>
<time>2011-05-22T07:33:18.05</time>
<name>2129</name>
<sym>Dot</sym>
</trkpt>
<trkpt lat="40.036582" lon="-8.347320">
<ele>268.5</ele>
<desc>Speed 8.4 km/h Distance 8.59 km</desc>
<time>2011-05-22T07:33:19.05</time>
<name>2130</name>
<sym>Dot</sym>
</trkpt>
<trkpt lat="40.036562" lon="-8.347322">
<ele>269.0</ele>
<desc>Speed 7.9 km/h Distance 8.60 km</desc>
<time>2011-05-22T07:33:20.04</time>
<name>2131</name>
<sym>Dot</sym>
</trkpt>
<trkpt lat="40.036545" lon="-8.347327">
<ele>269.0</ele>
<desc>Speed 7.5 km/h Distance 8.60 km</desc>
<time>2011-05-22T07:33:21.03</time>
<name>2132</name>
<sym>Dot</sym>
</trkpt>
<trkpt lat="40.036523" lon="-8.347337">
<ele>269.0</ele>
<desc>Speed 8.8 km/h Distance 8.60 km</desc>
<time>2011-05-22T07:33:22.04</time>
<name>2133</name>
<sym>Dot</sym>
</trkpt>
<trkpt lat="40.036502" lon="-8.347343">
<ele>269.0</ele>
<desc>Speed 9.1 km/h Distance 8.60 km</desc>
<time>2011-05-22T07:33:23.03</time>
<name>2134</name>
<sym>Dot</sym>
</trkpt>
<trkpt lat="40.036478" lon="-8.347348">
<ele>269.0</ele>
<desc>Speed 9.1 km/h Distance 8.61 km</desc>
<time>2011-05-22T07:33:24.02</time>
<name>2135</name>
<sym>Dot</sym>
</trkpt>
<trkpt lat="40.036457" lon="-8.347348">
<ele>269.0</ele>
<desc>Speed 8.9 km/h Distance 8.61 km</desc>
<time>2011-05-22T07:33:25.03</time>
<name>2136</name>
<sym>Dot</sym>
</trkpt>
<trkpt lat="40.036433" lon="-8.347347">
<ele>269.0</ele>
<desc>Speed 9.6 km/h Distance 8.61 km</desc>
<time>2011-05-22T07:33:26.02</time>
<name>2137</name>
<sym>Dot</sym>
</trkpt>
<trkpt lat="40.036410" lon="-8.347342">
<ele>269.0</ele>
<desc>Speed 9.9 km/h Distance 8.61 km</desc>
<time>2011-05-22T07:33:27.01</time>
<name>2138</name>
<sym>Dot</sym>
</trkpt>
<trkpt lat="40.036387" lon="-8.347338">
<ele>269.0</ele>
<desc>Speed 9.1 km/h Distance 8.62 km</desc>
<time>2011-05-22T07:33:28.01</time>
<name>2139</name>
<sym>Dot</sym>
</trkpt>
<trkpt lat="40.036363" lon="-8.347338">
<ele>269.5</ele>
<desc>Speed 9.5 km/h Distance 8.62 km</desc>
<time>2011-05-22T07:33:29.01</time>
<name>2140</name>
<sym>Dot</sym>
</trkpt>
<trkpt lat="40.036342" lon="-8.347340">
<ele>269.5</ele>
<desc>Speed 8.8 km/h Distance 8.62 km</desc>
<time>2011-05-22T07:33:30.00</time>
<name>2141</name>
<sym>Dot</sym>
</trkpt>
<trkpt lat="40.036318" lon="-8.347338">
<ele>269.5</ele>
<desc>Speed 9.1 km/h Distance 8.62 km</desc>
<time>2011-05-22T07:33:31.00</time>
<name>2142</name>
<sym>Dot</sym>
</trkpt>
<trkpt lat="40.036295" lon="-8.347338">
<ele>270.0</ele>
<desc>Speed 9.1 km/h Distance 8.63 km</desc>
<time>2011-05-22T07:33:31.99</time>
<name>2143</name>
<sym>Dot</sym>
</trkpt>
<trkpt lat="40.036272" lon="-8.347338">
<ele>270.0</ele>
<desc>Speed 9.0 km/h Distance 8.63 km</desc>
<time>2011-05-22T07:33:32.99</time>
<name>2144</name>
<sym>Dot</sym>
</trkpt>
<trkpt lat="40.036248" lon="-8.347340">
<ele>270.0</ele>
<desc>Speed 9.5 km/h Distance 8.63 km</desc>
<time>2011-05-22T07:33:33.98</time>
<name>2145</name>
<sym>Dot</sym>
</trkpt>
<trkpt lat="40.036225" lon="-8.347340">
<ele>270.5</ele>
<desc>Speed 9.0 km/h Distance 8.63 km</desc>
<time>2011-05-22T07:33:34.98</time>
<name>2146</name>
<sym>Dot</sym>
</trkpt>
<trkpt lat="40.036203" lon="-8.347340">
<ele>270.5</ele>
<desc>Speed 8.8 km/h Distance 8.64 km</desc>
<time>2011-05-22T07:33:35.98</time>
<name>2147</name>
<sym>Dot</sym>
</trkpt>
<trkpt lat="40.036182" lon="-8.347342">
<ele>270.5</ele>
<desc>Speed 8.2 km/h Distance 8.64 km</desc>
<time>2011-05-22T07:33:36.98</time>
<name>2148</name>
<sym>Dot</sym>
</trkpt>
<trkpt lat="40.036160" lon="-8.347343">
<ele>270.5</ele>
<desc>Speed 8.3 km/h Distance 8.64 km</desc>
<time>2011-05-22T07:33:37.98</time>
<name>2149</name>
<sym>Dot</sym>
</trkpt>
<trkpt lat="40.036140" lon="-8.347345">
<ele>270.0</ele>
<desc>Speed 7.5 km/h Distance 8.64 km</desc>
<time>2011-05-22T07:33:38.97</time>
<name>2150</name>
<sym>Dot</sym>
</trkpt>
<trkpt lat="40.036117" lon="-8.347347">
<ele>270.5</ele>
<desc>Speed 8.9 km/h Distance 8.65 km</desc>
<time>2011-05-22T07:33:39.98</time>
<name>2151</name>
<sym>Dot</sym>
</trkpt>
<trkpt lat="40.036092" lon="-8.347343">
<ele>270.5</ele>
<desc>Speed 9.3 km/h Distance 8.65 km</desc>
<time>2011-05-22T07:33:40.97</time>
<name>2152</name>
<sym>Dot</sym>
</trkpt>
<trkpt lat="40.036065" lon="-8.347338">
<ele>270.5</ele>
<desc>Speed 9.8 km/h Distance 8.65 km</desc>
<time>2011-05-22T07:33:41.96</time>
<name>2153</name>
<sym>Dot</sym>
</trkpt>
<trkpt lat="40.036040" lon="-8.347337">
<ele>270.5</ele>
<desc>Speed 8.9 km/h Distance 8.66 km</desc>
<time>2011-05-22T07:33:42.95</time>
<name>2154</name>
<sym>Dot</sym>
</trkpt>
<trkpt lat="40.036018" lon="-8.347335">
<ele>271.0</ele>
<desc>Speed 7.4 km/h Distance 8.66 km</desc>
<time>2011-05-22T07:33:43.95</time>
<name>2155</name>
<sym>Dot</sym>
</trkpt>
<trkpt lat="40.035992" lon="-8.347333">
<ele>271.0</ele>
<desc>Speed 9.8 km/h Distance 8.66 km</desc>
<time>2011-05-22T07:33:44.95</time>
<name>2156</name>
<sym>Dot</sym>
</trkpt>
<trkpt lat="40.035965" lon="-8.347332">
<ele>271.5</ele>
<desc>Speed 10.2 km/h Distance 8.66 km</desc>
<time>2011-05-22T07:33:45.95</time>
<name>2157</name>
<sym>Dot</sym>
</trkpt>
<trkpt lat="40.035938" lon="-8.347332">
<ele>271.5</ele>
<desc>Speed 10.3 km/h Distance 8.67 km</desc>
<time>2011-05-22T07:33:46.94</time>
<name>2158</name>
<sym>Dot</sym>
</trkpt>
<trkpt lat="40.035912" lon="-8.347330">
<ele>272.0</ele>
<desc>Speed 9.9 km/h Distance 8.67 km</desc>
<time>2011-05-22T07:33:47.94</time>
<name>2159</name>
<sym>Dot</sym>
</trkpt>
<trkpt lat="40.035888" lon="-8.347330">
<ele>272.0</ele>
<desc>Speed 9.6 km/h Distance 8.67 km</desc>
<time>2011-05-22T07:33:48.94</time>
<name>2160</name>
<sym>Dot</sym>
</trkpt>
<trkpt lat="40.035865" lon="-8.347330">
<ele>272.0</ele>
<desc>Speed 8.9 km/h Distance 8.68 km</desc>
<time>2011-05-22T07:33:49.93</time>
<name>2161</name>
<sym>Dot</sym>
</trkpt>
<trkpt lat="40.035842" lon="-8.347328">
<ele>272.0</ele>
<desc>Speed 8.9 km/h Distance 8.68 km</desc>
<time>2011-05-22T07:33:50.93</time>
<name>2162</name>
<sym>Dot</sym>
</trkpt>
<trkpt lat="40.035818" lon="-8.347327">
<ele>272.0</ele>
<desc>Speed 8.9 km/h Distance 8.68 km</desc>
<time>2011-05-22T07:33:51.93</time>
<name>2163</name>
<sym>Dot</sym>
</trkpt>
<trkpt lat="40.035797" lon="-8.347323">
<ele>272.0</ele>
<desc>Speed 8.5 km/h Distance 8.68 km</desc>
<time>2011-05-22T07:33:52.93</time>
<name>2164</name>
<sym>Dot</sym>
</trkpt>
<trkpt lat="40.035775" lon="-8.347325">
<ele>272.5</ele>
<desc>Speed 8.4 km/h Distance 8.69 km</desc>
<time>2011-05-22T07:33:53.92</time>
<name>2165</name>
<sym>Dot</sym>
</trkpt>
<trkpt lat="40.035753" lon="-8.347325">
<ele>272.5</ele>
<desc>Speed 8.2 km/h Distance 8.69 km</desc>
<time>2011-05-22T07:33:54.92</time>
<name>2166</name>
<sym>Dot</sym>
</trkpt>
<trkpt lat="40.035732" lon="-8.347327">
<ele>272.5</ele>
<desc>Speed 8.3 km/h Distance 8.69 km</desc>
<time>2011-05-22T07:33:55.91</time>
<name>2167</name>
<sym>Dot</sym>
</trkpt>
<trkpt lat="40.035705" lon="-8.347328">
<ele>272.5</ele>
<desc>Speed 8.6 km/h Distance 8.69 km</desc>
<time>2011-05-22T07:33:56.91</time>
<name>2168</name>
<sym>Dot</sym>
</trkpt>
<trkpt lat="40.035682" lon="-8.347330">
<ele>272.5</ele>
<desc>Speed 8.9 km/h Distance 8.70 km</desc>
<time>2011-05-22T07:33:57.92</time>
<name>2169</name>
<sym>Dot</sym>
</trkpt>
<trkpt lat="40.035660" lon="-8.347328">
<ele>272.5</ele>
<desc>Speed 8.5 km/h Distance 8.70 km</desc>
<time>2011-05-22T07:33:58.91</time>
<name>2170</name>
<sym>Dot</sym>
</trkpt>
<trkpt lat="40.035640" lon="-8.347327">
<ele>273.0</ele>
<desc>Speed 8.0 km/h Distance 8.70 km</desc>
<time>2011-05-22T07:33:59.90</time>
<name>2171</name>
<sym>Dot</sym>
</trkpt>
<trkpt lat="40.035618" lon="-8.347325">
<ele>273.0</ele>
<desc>Speed 8.4 km/h Distance 8.70 km</desc>
<time>2011-05-22T07:34:00.90</time>
<name>2172</name>
<sym>Dot</sym>
</trkpt>
<trkpt lat="40.035598" lon="-8.347323">
<ele>273.0</ele>
<desc>Speed 7.8 km/h Distance 8.70 km</desc>
<time>2011-05-22T07:34:01.90</time>
<name>2173</name>
<sym>Dot</sym>
</trkpt>
<trkpt lat="40.035578" lon="-8.347320">
<ele>273.0</ele>
<desc>Speed 7.9 km/h Distance 8.71 km</desc>
<time>2011-05-22T07:34:02.89</time>
<name>2174</name>
<sym>Dot</sym>
</trkpt>
<trkpt lat="40.035557" lon="-8.347320">
<ele>273.0</ele>
<desc>Speed 8.1 km/h Distance 8.71 km</desc>
<time>2011-05-22T07:34:03.88</time>
<name>2175</name>
<sym>Dot</sym>
</trkpt>
<trkpt lat="40.035530" lon="-8.347317">
<ele>273.0</ele>
<desc>Speed 9.5 km/h Distance 8.71 km</desc>
<time>2011-05-22T07:34:04.88</time>
<name>2176</name>
<sym>Dot</sym>
</trkpt>
<trkpt lat="40.035502" lon="-8.347313">
<ele>272.5</ele>
<desc>Speed 9.8 km/h Distance 8.72 km</desc>
<time>2011-05-22T07:34:05.89</time>
<name>2177</name>
<sym>Dot</sym>
</trkpt>
<trkpt lat="40.035473" lon="-8.347313">
<ele>272.5</ele>
<desc>Speed 10.5 km/h Distance 8.72 km</desc>
<time>2011-05-22T07:34:06.87</time>
<name>2178</name>
<sym>Dot</sym>
</trkpt>
<trkpt lat="40.035445" lon="-8.347310">
<ele>272.0</ele>
<desc>Speed 10.5 km/h Distance 8.72 km</desc>
<time>2011-05-22T07:34:07.87</time>
<name>2179</name>
<sym>Dot</sym>
</trkpt>
<trkpt lat="40.035417" lon="-8.347307">
<ele>272.0</ele>
<desc>Speed 11.4 km/h Distance 8.73 km</desc>
<time>2011-05-22T07:34:08.86</time>
<name>2180</name>
<sym>Dot</sym>
</trkpt>
<trkpt lat="40.035388" lon="-8.347303">
<ele>272.5</ele>
<desc>Speed 11.1 km/h Distance 8.73 km</desc>
<time>2011-05-22T07:34:09.85</time>
<name>2181</name>
<sym>Dot</sym>
</trkpt>
<trkpt lat="40.035360" lon="-8.347297">
<ele>272.5</ele>
<desc>Speed 11.8 km/h Distance 8.73 km</desc>
<time>2011-05-22T07:34:10.85</time>
<name>2182</name>
<sym>Dot</sym>
</trkpt>
<trkpt lat="40.035330" lon="-8.347288">
<ele>272.5</ele>
<desc>Speed 12.0 km/h Distance 8.73 km</desc>
<time>2011-05-22T07:34:11.84</time>
<name>2183</name>
<sym>Dot</sym>
</trkpt>
<trkpt lat="40.035300" lon="-8.347278">
<ele>272.5</ele>
<desc>Speed 12.2 km/h Distance 8.74 km</desc>
<time>2011-05-22T07:34:12.84</time>
<name>2184</name>
<sym>Dot</sym>
</trkpt>
<trkpt lat="40.035272" lon="-8.347270">
<ele>273.0</ele>
<desc>Speed 11.7 km/h Distance 8.74 km</desc>
<time>2011-05-22T07:34:13.84</time>
<name>2185</name>
<sym>Dot</sym>
</trkpt>
<trkpt lat="40.035240" lon="-8.347267">
<ele>273.0</ele>
<desc>Speed 12.0 km/h Distance 8.75 km</desc>
<time>2011-05-22T07:34:14.83</time>
<name>2186</name>
<sym>Dot</sym>
</trkpt>
<trkpt lat="40.035215" lon="-8.347253">
<ele>273.5</ele>
<desc>Speed 10.8 km/h Distance 8.75 km</desc>
<time>2011-05-22T07:34:15.82</time>
<name>2187</name>
<sym>Dot</sym>
</trkpt>
<trkpt lat="40.035192" lon="-8.347228">
<ele>274.0</ele>
<desc>Speed 11.8 km/h Distance 8.75 km</desc>
<time>2011-05-22T07:34:16.82</time>
<name>2188</name>
<sym>Dot</sym>
</trkpt>
<trkpt lat="40.035168" lon="-8.347205">
<ele>274.0</ele>
<desc>Speed 11.7 km/h Distance 8.75 km</desc>
<time>2011-05-22T07:34:17.82</time>
<name>2189</name>
<sym>Dot</sym>
</trkpt>
<trkpt lat="40.035143" lon="-8.347180">
<ele>274.0</ele>
<desc>Speed 12.3 km/h Distance 8.76 km</desc>
<time>2011-05-22T07:34:18.81</time>
<name>2190</name>
<sym>Dot</sym>
</trkpt>
<trkpt lat="40.035118" lon="-8.347157">
<ele>274.0</ele>
<desc>Speed 12.0 km/h Distance 8.76 km</desc>
<time>2011-05-22T07:34:19.81</time>
<name>2191</name>
<sym>Dot</sym>
</trkpt>
<trkpt lat="40.035093" lon="-8.347135">
<ele>274.5</ele>
<desc>Speed 11.8 km/h Distance 8.76 km</desc>
<time>2011-05-22T07:34:20.81</time>
<name>2192</name>
<sym>Dot</sym>
</trkpt>
<trkpt lat="40.035068" lon="-8.347115">
<ele>274.5</ele>
<desc>Speed 11.3 km/h Distance 8.77 km</desc>
<time>2011-05-22T07:34:21.81</time>
<name>2193</name>
<sym>Dot</sym>
</trkpt>
<trkpt lat="40.035043" lon="-8.347093">
<ele>275.0</ele>
<desc>Speed 11.8 km/h Distance 8.77 km</desc>
<time>2011-05-22T07:34:22.81</time>
<name>2194</name>
<sym>Dot</sym>
</trkpt>
<trkpt lat="40.035018" lon="-8.347072">
<ele>275.5</ele>
<desc>Speed 11.6 km/h Distance 8.77 km</desc>
<time>2011-05-22T07:34:23.81</time>
<name>2195</name>
<sym>Dot</sym>
</trkpt>
<trkpt lat="40.034997" lon="-8.347048">
<ele>275.5</ele>
<desc>Speed 11.4 km/h Distance 8.78 km</desc>
<time>2011-05-22T07:34:24.81</time>
<name>2196</name>
<sym>Dot</sym>
</trkpt>
<trkpt lat="40.034975" lon="-8.347025">
<ele>276.0</ele>
<desc>Speed 11.4 km/h Distance 8.78 km</desc>
<time>2011-05-22T07:34:25.80</time>
<name>2197</name>
<sym>Dot</sym>
</trkpt>
<trkpt lat="40.034955" lon="-8.347007">
<ele>276.5</ele>
<desc>Speed 9.5 km/h Distance 8.78 km</desc>
<time>2011-05-22T07:34:26.80</time>
<name>2198</name>
<sym>Dot</sym>
</trkpt>
<trkpt lat="40.034933" lon="-8.346990">
<ele>277.5</ele>
<desc>Speed 9.6 km/h Distance 8.79 km</desc>
<time>2011-05-22T07:34:27.79</time>
<name>2199</name>
<sym>Dot</sym>
</trkpt>
<trkpt lat="40.034915" lon="-8.346972">
<ele>277.5</ele>
<desc>Speed 8.9 km/h Distance 8.79 km</desc>
<time>2011-05-22T07:34:28.79</time>
<name>2200</name>
<sym>Dot</sym>
</trkpt>
<trkpt lat="40.034897" lon="-8.346952">
<ele>278.5</ele>
<desc>Speed 8.9 km/h Distance 8.79 km</desc>
<time>2011-05-22T07:34:29.78</time>
<name>2201</name>
<sym>Dot</sym>
</trkpt>
<trkpt lat="40.034870" lon="-8.346927">
<ele>279.0</ele>
<desc>Speed 11.6 km/h Distance 8.80 km</desc>
<time>2011-05-22T07:34:30.77</time>
<name>2202</name>
<sym>Dot</sym>
</trkpt>
<trkpt lat="40.034847" lon="-8.346907">
<ele>279.0</ele>
<desc>Speed 11.2 km/h Distance 8.80 km</desc>
<time>2011-05-22T07:34:31.77</time>
<name>2203</name>
<sym>Dot</sym>
</trkpt>
<trkpt lat="40.034825" lon="-8.346888">
<ele>280.0</ele>
<desc>Speed 9.5 km/h Distance 8.80 km</desc>
<time>2011-05-22T07:34:32.76</time>
<name>2204</name>
<sym>Dot</sym>
</trkpt>
<trkpt lat="40.034802" lon="-8.346868">
<ele>280.0</ele>
<desc>Speed 11.1 km/h Distance 8.80 km</desc>
<time>2011-05-22T07:34:33.76</time>
<name>2205</name>
<sym>Dot</sym>
</trkpt>
<trkpt lat="40.034780" lon="-8.346842">
<ele>279.5</ele>
<desc>Speed 10.8 km/h Distance 8.81 km</desc>
<time>2011-05-22T07:34:34.76</time>
<name>2206</name>
<sym>Dot</sym>
</trkpt>
<trkpt lat="40.034760" lon="-8.346817">
<ele>279.5</ele>
<desc>Speed 10.3 km/h Distance 8.81 km</desc>
<time>2011-05-22T07:34:35.76</time>
<name>2207</name>
<sym>Dot</sym>
</trkpt>
<trkpt lat="40.034738" lon="-8.346797">
<ele>279.5</ele>
<desc>Speed 10.4 km/h Distance 8.81 km</desc>
<time>2011-05-22T07:34:36.75</time>
<name>2208</name>
<sym>Dot</sym>
</trkpt>
<trkpt lat="40.034713" lon="-8.346782">
<ele>279.5</ele>
<desc>Speed 9.8 km/h Distance 8.82 km</desc>
<time>2011-05-22T07:34:37.74</time>
<name>2209</name>
<sym>Dot</sym>
</trkpt>
<trkpt lat="40.034688" lon="-8.346770">
<ele>280.0</ele>
<desc>Speed 9.8 km/h Distance 8.82 km</desc>
<time>2011-05-22T07:34:38.74</time>
<name>2210</name>
<sym>Dot</sym>
</trkpt>
<trkpt lat="40.034662" lon="-8.346753">
<ele>280.5</ele>
<desc>Speed 10.2 km/h Distance 8.82 km</desc>
<time>2011-05-22T07:34:39.73</time>
<name>2211</name>
<sym>Dot</sym>
</trkpt>
<trkpt lat="40.034637" lon="-8.346732">
<ele>281.0</ele>
<desc>Speed 10.5 km/h Distance 8.83 km</desc>
<time>2011-05-22T07:34:40.73</time>
<name>2212</name>
<sym>Dot</sym>
</trkpt>
<trkpt lat="40.034612" lon="-8.346708">
<ele>281.5</ele>
<desc>Speed 11.1 km/h Distance 8.83 km</desc>
<time>2011-05-22T07:34:41.72</time>
<name>2213</name>
<sym>Dot</sym>
</trkpt>
<trkpt lat="40.034588" lon="-8.346683">
<ele>282.0</ele>
<desc>Speed 11.1 km/h Distance 8.83 km</desc>
<time>2011-05-22T07:34:42.72</time>
<name>2214</name>
<sym>Dot</sym>
</trkpt>
<trkpt lat="40.034567" lon="-8.346662">
<ele>282.0</ele>
<desc>Speed 10.7 km/h Distance 8.84 km</desc>
<time>2011-05-22T07:34:43.72</time>
<name>2215</name>
<sym>Dot</sym>
</trkpt>
<trkpt lat="40.034543" lon="-8.346640">
<ele>282.5</ele>
<desc>Speed 10.7 km/h Distance 8.84 km</desc>
<time>2011-05-22T07:34:44.71</time>
<name>2216</name>
<sym>Dot</sym>
</trkpt>
<trkpt lat="40.034520" lon="-8.346617">
<ele>282.5</ele>
<desc>Speed 10.8 km/h Distance 8.84 km</desc>
<time>2011-05-22T07:34:45.71</time>
<name>2217</name>
<sym>Dot</sym>
</trkpt>
<trkpt lat="40.034498" lon="-8.346598">
<ele>283.0</ele>
<desc>Speed 9.3 km/h Distance 8.85 km</desc>
<time>2011-05-22T07:34:46.71</time>
<name>2218</name>
<sym>Dot</sym>
</trkpt>
<trkpt lat="40.034475" lon="-8.346575">
<ele>283.0</ele>
<desc>Speed 10.8 km/h Distance 8.85 km</desc>
<time>2011-05-22T07:34:47.70</time>
<name>2219</name>
<sym>Dot</sym>
</trkpt>
<trkpt lat="40.034452" lon="-8.346552">
<ele>283.5</ele>
<desc>Speed 10.9 km/h Distance 8.85 km</desc>
<time>2011-05-22T07:34:48.69</time>
<name>2220</name>
<sym>Dot</sym>
</trkpt>
<trkpt lat="40.034428" lon="-8.346532">
<ele>283.5</ele>
<desc>Speed 10.8 km/h Distance 8.86 km</desc>
<time>2011-05-22T07:34:49.69</time>
<name>2221</name>
<sym>Dot</sym>
</trkpt>
<trkpt lat="40.034405" lon="-8.346512">
<ele>283.5</ele>
<desc>Speed 10.3 km/h Distance 8.86 km</desc>
<time>2011-05-22T07:34:50.68</time>
<name>2222</name>
<sym>Dot</sym>
</trkpt>
<trkpt lat="40.034382" lon="-8.346490">
<ele>283.5</ele>
<desc>Speed 10.7 km/h Distance 8.86 km</desc>
<time>2011-05-22T07:34:51.67</time>
<name>2223</name>
<sym>Dot</sym>
</trkpt>
<trkpt lat="40.034357" lon="-8.346468">
<ele>284.0</ele>
<desc>Speed 10.7 km/h Distance 8.87 km</desc>
<time>2011-05-22T07:34:52.67</time>
<name>2224</name>
<sym>Dot</sym>
</trkpt>
<trkpt lat="40.034332" lon="-8.346445">
<ele>284.5</ele>
<desc>Speed 11.0 km/h Distance 8.87 km</desc>
<time>2011-05-22T07:34:53.66</time>
<name>2225</name>
<sym>Dot</sym>
</trkpt>
<trkpt lat="40.034308" lon="-8.346422">
<ele>284.5</ele>
<desc>Speed 10.8 km/h Distance 8.87 km</desc>
<time>2011-05-22T07:34:54.66</time>
<name>2226</name>
<sym>Dot</sym>
</trkpt>
<trkpt lat="40.034283" lon="-8.346400">
<ele>284.5</ele>
<desc>Speed 10.8 km/h Distance 8.88 km</desc>
<time>2011-05-22T07:34:55.65</time>
<name>2227</name>
<sym>Dot</sym>
</trkpt>
<trkpt lat="40.034258" lon="-8.346380">
<ele>285.0</ele>
<desc>Speed 10.8 km/h Distance 8.88 km</desc>
<time>2011-05-22T07:34:56.65</time>
<name>2228</name>
<sym>Dot</sym>
</trkpt>
<trkpt lat="40.034235" lon="-8.346357">
<ele>285.0</ele>
<desc>Speed 10.6 km/h Distance 8.88 km</desc>
<time>2011-05-22T07:34:57.64</time>
<name>2229</name>
<sym>Dot</sym>
</trkpt>
<trkpt lat="40.034210" lon="-8.346335">
<ele>285.0</ele>
<desc>Speed 11.0 km/h Distance 8.88 km</desc>
<time>2011-05-22T07:34:58.64</time>
<name>2230</name>
<sym>Dot</sym>
</trkpt>
<trkpt lat="40.034190" lon="-8.346315">
<ele>285.5</ele>
<desc>Speed 9.2 km/h Distance 8.89 km</desc>
<time>2011-05-22T07:34:59.64</time>
<name>2231</name>
<sym>Dot</sym>
</trkpt>
<trkpt lat="40.034168" lon="-8.346295">
<ele>285.5</ele>
<desc>Speed 9.9 km/h Distance 8.89 km</desc>
<time>2011-05-22T07:35:00.64</time>
<name>2232</name>
<sym>Dot</sym>
</trkpt>
<trkpt lat="40.034147" lon="-8.346282">
<ele>285.0</ele>
<desc>Speed 9.0 km/h Distance 8.89 km</desc>
<time>2011-05-22T07:35:01.63</time>
<name>2233</name>
<sym>Dot</sym>
</trkpt>
<trkpt lat="40.034125" lon="-8.346267">
<ele>285.0</ele>
<desc>Speed 8.6 km/h Distance 8.90 km</desc>
<time>2011-05-22T07:35:02.63</time>
<name>2234</name>
<sym>Dot</sym>
</trkpt>
<trkpt lat="40.034105" lon="-8.346250">
<ele>285.0</ele>
<desc>Speed 8.8 km/h Distance 8.90 km</desc>
<time>2011-05-22T07:35:03.63</time>
<name>2235</name>
<sym>Dot</sym>
</trkpt>
<trkpt lat="40.034085" lon="-8.346230">
<ele>285.0</ele>
<desc>Speed 9.3 km/h Distance 8.90 km</desc>
<time>2011-05-22T07:35:04.62</time>
<name>2236</name>
<sym>Dot</sym>
</trkpt>
<trkpt lat="40.034063" lon="-8.346212">
<ele>285.0</ele>
<desc>Speed 9.5 km/h Distance 8.90 km</desc>
<time>2011-05-22T07:35:05.61</time>
<name>2237</name>
<sym>Dot</sym>
</trkpt>
<trkpt lat="40.034042" lon="-8.346195">
<ele>285.5</ele>
<desc>Speed 9.8 km/h Distance 8.91 km</desc>
<time>2011-05-22T07:35:06.61</time>
<name>2238</name>
<sym>Dot</sym>
</trkpt>
<trkpt lat="40.034017" lon="-8.346178">
<ele>285.5</ele>
<desc>Speed 10.1 km/h Distance 8.91 km</desc>
<time>2011-05-22T07:35:07.61</time>
<name>2239</name>
<sym>Dot</sym>
</trkpt>
<trkpt lat="40.033993" lon="-8.346162">
<ele>285.5</ele>
<desc>Speed 10.5 km/h Distance 8.91 km</desc>
<time>2011-05-22T07:35:08.61</time>
<name>2240</name>
<sym>Dot</sym>
</trkpt>
<trkpt lat="40.033968" lon="-8.346147">
<ele>285.0</ele>
<desc>Speed 10.3 km/h Distance 8.92 km</desc>
<time>2011-05-22T07:35:09.60</time>
<name>2241</name>
<sym>Dot</sym>
</trkpt>
<trkpt lat="40.033942" lon="-8.346133">
<ele>285.0</ele>
<desc>Speed 11.1 km/h Distance 8.92 km</desc>
<time>2011-05-22T07:35:10.60</time>
<name>2242</name>
<sym>Dot</sym>
</trkpt>
<trkpt lat="40.033915" lon="-8.346118">
<ele>285.0</ele>
<desc>Speed 11.3 km/h Distance 8.92 km</desc>
<time>2011-05-22T07:35:11.59</time>
<name>2243</name>
<sym>Dot</sym>
</trkpt>
<trkpt lat="40.033887" lon="-8.346105">
<ele>285.0</ele>
<desc>Speed 11.7 km/h Distance 8.93 km</desc>
<time>2011-05-22T07:35:12.59</time>
<name>2244</name>
<sym>Dot</sym>
</trkpt>
<trkpt lat="40.033858" lon="-8.346093">
<ele>285.0</ele>
<desc>Speed 11.5 km/h Distance 8.93 km</desc>
<time>2011-05-22T07:35:13.59</time>
<name>2245</name>
<sym>Dot</sym>
</trkpt>
<trkpt lat="40.033828" lon="-8.346088">
<ele>285.0</ele>
<desc>Speed 11.7 km/h Distance 8.93 km</desc>
<time>2011-05-22T07:35:14.58</time>
<name>2246</name>
<sym>Dot</sym>
</trkpt>
<trkpt lat="40.033798" lon="-8.346083">
<ele>284.5</ele>
<desc>Speed 11.7 km/h Distance 8.94 km</desc>
<time>2011-05-22T07:35:15.58</time>
<name>2247</name>
<sym>Dot</sym>
</trkpt>
<trkpt lat="40.033768" lon="-8.346078">
<ele>284.5</ele>
<desc>Speed 11.7 km/h Distance 8.94 km</desc>
<time>2011-05-22T07:35:16.58</time>
<name>2248</name>
<sym>Dot</sym>
</trkpt>
<trkpt lat="40.033737" lon="-8.346073">
<ele>284.5</ele>
<desc>Speed 11.7 km/h Distance 8.94 km</desc>
<time>2011-05-22T07:35:17.58</time>
<name>2249</name>
<sym>Dot</sym>
</trkpt>
<trkpt lat="40.033707" lon="-8.346068">
<ele>284.5</ele>
<desc>Speed 11.7 km/h Distance 8.95 km</desc>
<time>2011-05-22T07:35:18.57</time>
<name>2250</name>
<sym>Dot</sym>
</trkpt>
<trkpt lat="40.033677" lon="-8.346065">
<ele>284.5</ele>
<desc>Speed 11.4 km/h Distance 8.95 km</desc>
<time>2011-05-22T07:35:19.56</time>
<name>2251</name>
<sym>Dot</sym>
</trkpt>
<trkpt lat="40.033647" lon="-8.346062">
<ele>285.0</ele>
<desc>Speed 11.6 km/h Distance 8.95 km</desc>
<time>2011-05-22T07:35:20.56</time>
<name>2252</name>
<sym>Dot</sym>
</trkpt>
<trkpt lat="40.033617" lon="-8.346063">
<ele>285.0</ele>
<desc>Speed 11.7 km/h Distance 8.96 km</desc>
<time>2011-05-22T07:35:21.56</time>
<name>2253</name>
<sym>Dot</sym>
</trkpt>
<trkpt lat="40.033587" lon="-8.346062">
<ele>285.5</ele>
<desc>Speed 11.3 km/h Distance 8.96 km</desc>
<time>2011-05-22T07:35:22.55</time>
<name>2254</name>
<sym>Dot</sym>
</trkpt>
<trkpt lat="40.033555" lon="-8.346053">
<ele>285.5</ele>
<desc>Speed 12.0 km/h Distance 8.96 km</desc>
<time>2011-05-22T07:35:23.55</time>
<name>2255</name>
<sym>Dot</sym>
</trkpt>
<trkpt lat="40.033523" lon="-8.346050">
<ele>285.5</ele>
<desc>Speed 11.9 km/h Distance 8.97 km</desc>
<time>2011-05-22T07:35:24.55</time>
<name>2256</name>
<sym>Dot</sym>
</trkpt>
<trkpt lat="40.033492" lon="-8.346052">
<ele>286.0</ele>
<desc>Speed 12.5 km/h Distance 8.97 km</desc>
<time>2011-05-22T07:35:25.54</time>
<name>2257</name>
<sym>Dot</sym>
</trkpt>
<trkpt lat="40.033457" lon="-8.346053">
<ele>286.0</ele>
<desc>Speed 13.3 km/h Distance 8.97 km</desc>
<time>2011-05-22T07:35:26.53</time>
<name>2258</name>
<sym>Dot</sym>
</trkpt>
<trkpt lat="40.033420" lon="-8.346053">
<ele>286.0</ele>
<desc>Speed 13.9 km/h Distance 8.98 km</desc>
<time>2011-05-22T07:35:27.52</time>
<name>2259</name>
<sym>Dot</sym>
</trkpt>
<trkpt lat="40.033383" lon="-8.346055">
<ele>286.5</ele>
<desc>Speed 14.4 km/h Distance 8.98 km</desc>
<time>2011-05-22T07:35:28.52</time>
<name>2260</name>
<sym>Dot</sym>
</trkpt>
<trkpt lat="40.033343" lon="-8.346055">
<ele>286.5</ele>
<desc>Speed 14.8 km/h Distance 8.99 km</desc>
<time>2011-05-22T07:35:29.52</time>
<name>2261</name>
<sym>Dot</sym>
</trkpt>
<trkpt lat="40.033305" lon="-8.346057">
<ele>287.0</ele>
<desc>Speed 14.9 km/h Distance 8.99 km</desc>
<time>2011-05-22T07:35:30.52</time>
<name>2262</name>
<sym>Dot</sym>
</trkpt>
<trkpt lat="40.033268" lon="-8.346058">
<ele>287.0</ele>
<desc>Speed 14.8 km/h Distance 9.00 km</desc>
<time>2011-05-22T07:35:31.52</time>
<name>2263</name>
<sym>Dot</sym>
</trkpt>
<trkpt lat="40.033228" lon="-8.346062">
<ele>287.0</ele>
<desc>Speed 15.2 km/h Distance 9.00 km</desc>
<time>2011-05-22T07:35:32.52</time>
<name>2264</name>
<sym>Dot</sym>
</trkpt>
<trkpt lat="40.033190" lon="-8.346065">
<ele>287.0</ele>
<desc>Speed 15.2 km/h Distance 9.00 km</desc>
<time>2011-05-22T07:35:33.52</time>
<name>2265</name>
<sym>Dot</sym>
</trkpt>
<trkpt lat="40.033152" lon="-8.346073">
<ele>287.0</ele>
<desc>Speed 15.4 km/h Distance 9.01 km</desc>
<time>2011-05-22T07:35:34.51</time>
<name>2266</name>
<sym>Dot</sym>
</trkpt>
<trkpt lat="40.033110" lon="-8.346083">
<ele>287.0</ele>
<desc>Speed 15.3 km/h Distance 9.01 km</desc>
<time>2011-05-22T07:35:35.51</time>
<name>2267</name>
<sym>Dot</sym>
</trkpt>
<trkpt lat="40.033070" lon="-8.346095">
<ele>286.5</ele>
<desc>Speed 15.3 km/h Distance 9.02 km</desc>
<time>2011-05-22T07:35:36.51</time>
<name>2268</name>
<sym>Dot</sym>
</trkpt>
<trkpt lat="40.033032" lon="-8.346108">
<ele>286.5</ele>
<desc>Speed 15.1 km/h Distance 9.02 km</desc>
<time>2011-05-22T07:35:37.51</time>
<name>2269</name>
<sym>Dot</sym>
</trkpt>
<trkpt lat="40.032995" lon="-8.346123">
<ele>286.5</ele>
<desc>Speed 14.8 km/h Distance 9.03 km</desc>
<time>2011-05-22T07:35:38.51</time>
<name>2270</name>
<sym>Dot</sym>
</trkpt>
<trkpt lat="40.032958" lon="-8.346142">
<ele>286.5</ele>
<desc>Speed 14.4 km/h Distance 9.03 km</desc>
<time>2011-05-22T07:35:39.51</time>
<name>2271</name>
<sym>Dot</sym>
</trkpt>
<trkpt lat="40.032925" lon="-8.346162">
<ele>286.5</ele>
<desc>Speed 14.0 km/h Distance 9.03 km</desc>
<time>2011-05-22T07:35:40.50</time>
<name>2272</name>
<sym>Dot</sym>
</trkpt>
<trkpt lat="40.032893" lon="-8.346183">
<ele>286.5</ele>
<desc>Speed 13.5 km/h Distance 9.04 km</desc>
<time>2011-05-22T07:35:41.50</time>
<name>2273</name>
<sym>Dot</sym>
</trkpt>
<trkpt lat="40.032867" lon="-8.346207">
<ele>286.5</ele>
<desc>Speed 12.3 km/h Distance 9.04 km</desc>
<time>2011-05-22T07:35:42.49</time>
<name>2274</name>
<sym>Dot</sym>
</trkpt>
<trkpt lat="40.032840" lon="-8.346230">
<ele>286.5</ele>
<desc>Speed 11.7 km/h Distance 9.05 km</desc>
<time>2011-05-22T07:35:43.49</time>
<name>2275</name>
<sym>Dot</sym>
</trkpt>
<trkpt lat="40.032818" lon="-8.346252">
<ele>286.5</ele>
<desc>Speed 11.1 km/h Distance 9.05 km</desc>
<time>2011-05-22T07:35:44.49</time>
<name>2276</name>
<sym>Dot</sym>
</trkpt>
<trkpt lat="40.032800" lon="-8.346275">
<ele>287.0</ele>
<desc>Speed 9.9 km/h Distance 9.05 km</desc>
<time>2011-05-22T07:35:45.49</time>
<name>2277</name>
<sym>Dot</sym>
</trkpt>
<trkpt lat="40.032783" lon="-8.346297">
<ele>287.0</ele>
<desc>Speed 9.0 km/h Distance 9.05 km</desc>
<time>2011-05-22T07:35:46.49</time>
<name>2278</name>
<sym>Dot</sym>
</trkpt>
<trkpt lat="40.032768" lon="-8.346317">
<ele>287.0</ele>
<desc>Speed 8.4 km/h Distance 9.06 km</desc>
<time>2011-05-22T07:35:47.49</time>
<name>2279</name>
<sym>Dot</sym>
</trkpt>
<trkpt lat="40.032752" lon="-8.346338">
<ele>287.0</ele>
<desc>Speed 8.9 km/h Distance 9.06 km</desc>
<time>2011-05-22T07:35:48.48</time>
<name>2280</name>
<sym>Dot</sym>
</trkpt>
<trkpt lat="40.032737" lon="-8.346360">
<ele>287.0</ele>
<desc>Speed 8.5 km/h Distance 9.06 km</desc>
<time>2011-05-22T07:35:49.48</time>
<name>2281</name>
<sym>Dot</sym>
</trkpt>
<trkpt lat="40.032723" lon="-8.346383">
<ele>287.0</ele>
<desc>Speed 8.7 km/h Distance 9.06 km</desc>
<time>2011-05-22T07:35:50.47</time>
<name>2282</name>
<sym>Dot</sym>
</trkpt>
<trkpt lat="40.032712" lon="-8.346407">
<ele>287.0</ele>
<desc>Speed 9.0 km/h Distance 9.07 km</desc>
<time>2011-05-22T07:35:51.47</time>
<name>2283</name>
<sym>Dot</sym>
</trkpt>
<trkpt lat="40.032697" lon="-8.346432">
<ele>287.0</ele>
<desc>Speed 9.6 km/h Distance 9.07 km</desc>
<time>2011-05-22T07:35:52.47</time>
<name>2284</name>
<sym>Dot</sym>
</trkpt>
<trkpt lat="40.032682" lon="-8.346457">
<ele>287.5</ele>
<desc>Speed 9.5 km/h Distance 9.07 km</desc>
<time>2011-05-22T07:35:53.47</time>
<name>2285</name>
<sym>Dot</sym>
</trkpt>
<trkpt lat="40.032667" lon="-8.346482">
<ele>287.5</ele>
<desc>Speed 9.6 km/h Distance 9.08 km</desc>
<time>2011-05-22T07:35:54.47</time>
<name>2286</name>
<sym>Dot</sym>
</trkpt>
<trkpt lat="40.032655" lon="-8.346507">
<ele>287.5</ele>
<desc>Speed 9.0 km/h Distance 9.08 km</desc>
<time>2011-05-22T07:35:55.46</time>
<name>2287</name>
<sym>Dot</sym>
</trkpt>
<trkpt lat="40.032645" lon="-8.346533">
<ele>287.5</ele>
<desc>Speed 9.0 km/h Distance 9.08 km</desc>
<time>2011-05-22T07:35:56.46</time>
<name>2288</name>
<sym>Dot</sym>
</trkpt>
<trkpt lat="40.032635" lon="-8.346558">
<ele>287.5</ele>
<desc>Speed 8.6 km/h Distance 9.08 km</desc>
<time>2011-05-22T07:35:57.46</time>
<name>2289</name>
<sym>Dot</sym>
</trkpt>
<trkpt lat="40.032623" lon="-8.346585">
<ele>288.0</ele>
<desc>Speed 9.1 km/h Distance 9.09 km</desc>
<time>2011-05-22T07:35:58.45</time>
<name>2290</name>
<sym>Dot</sym>
</trkpt>
<trkpt lat="40.032613" lon="-8.346612">
<ele>288.0</ele>
<desc>Speed 9.2 km/h Distance 9.09 km</desc>
<time>2011-05-22T07:35:59.45</time>
<name>2291</name>
<sym>Dot</sym>
</trkpt>
<trkpt lat="40.032605" lon="-8.346638">
<ele>288.0</ele>
<desc>Speed 9.1 km/h Distance 9.09 km</desc>
<time>2011-05-22T07:36:00.45</time>
<name>2292</name>
<sym>Dot</sym>
</trkpt>
<trkpt lat="40.032597" lon="-8.346667">
<ele>288.0</ele>
<desc>Speed 9.3 km/h Distance 9.09 km</desc>
<time>2011-05-22T07:36:01.44</time>
<name>2293</name>
<sym>Dot</sym>
</trkpt>
<trkpt lat="40.032588" lon="-8.346695">
<ele>288.0</ele>
<desc>Speed 9.5 km/h Distance 9.10 km</desc>
<time>2011-05-22T07:36:02.43</time>
<name>2294</name>
<sym>Dot</sym>
</trkpt>
<trkpt lat="40.032578" lon="-8.346725">
<ele>288.0</ele>
<desc>Speed 9.6 km/h Distance 9.10 km</desc>
<time>2011-05-22T07:36:03.43</time>
<name>2295</name>
<sym>Dot</sym>
</trkpt>
<trkpt lat="40.032568" lon="-8.346753">
<ele>288.0</ele>
<desc>Speed 9.9 km/h Distance 9.10 km</desc>
<time>2011-05-22T07:36:04.43</time>
<name>2296</name>
<sym>Dot</sym>
</trkpt>
<trkpt lat="40.032558" lon="-8.346783">
<ele>288.0</ele>
<desc>Speed 9.9 km/h Distance 9.10 km</desc>
<time>2011-05-22T07:36:05.43</time>
<name>2297</name>
<sym>Dot</sym>
</trkpt>
<trkpt lat="40.032548" lon="-8.346813">
<ele>288.5</ele>
<desc>Speed 9.9 km/h Distance 9.11 km</desc>
<time>2011-05-22T07:36:06.44</time>
<name>2298</name>
<sym>Dot</sym>
</trkpt>
<trkpt lat="40.032538" lon="-8.346842">
<ele>288.5</ele>
<desc>Speed 9.5 km/h Distance 9.11 km</desc>
<time>2011-05-22T07:36:07.43</time>
<name>2299</name>
<sym>Dot</sym>
</trkpt>
<trkpt lat="40.032530" lon="-8.346872">
<ele>288.5</ele>
<desc>Speed 9.3 km/h Distance 9.11 km</desc>
<time>2011-05-22T07:36:08.42</time>
<name>2300</name>
<sym>Dot</sym>
</trkpt>
<trkpt lat="40.032522" lon="-8.346900">
<ele>289.0</ele>
<desc>Speed 9.2 km/h Distance 9.11 km</desc>
<time>2011-05-22T07:36:09.41</time>
<name>2301</name>
<sym>Dot</sym>
</trkpt>
<trkpt lat="40.032513" lon="-8.346928">
<ele>289.0</ele>
<desc>Speed 9.3 km/h Distance 9.12 km</desc>
<time>2011-05-22T07:36:10.41</time>
<name>2302</name>
<sym>Dot</sym>
</trkpt>
<trkpt lat="40.032500" lon="-8.346955">
<ele>289.0</ele>
<desc>Speed 9.3 km/h Distance 9.12 km</desc>
<time>2011-05-22T07:36:11.40</time>
<name>2303</name>
<sym>Dot</sym>
</trkpt>
<trkpt lat="40.032487" lon="-8.346980">
<ele>289.5</ele>
<desc>Speed 9.3 km/h Distance 9.12 km</desc>
<time>2011-05-22T07:36:12.40</time>
<name>2304</name>
<sym>Dot</sym>
</trkpt>
<trkpt lat="40.032475" lon="-8.347008">
<ele>289.5</ele>
<desc>Speed 9.6 km/h Distance 9.12 km</desc>
<time>2011-05-22T07:36:13.40</time>
<name>2305</name>
<sym>Dot</sym>
</trkpt>
<trkpt lat="40.032463" lon="-8.347035">
<ele>290.0</ele>
<desc>Speed 9.3 km/h Distance 9.13 km</desc>
<time>2011-05-22T07:36:14.40</time>
<name>2306</name>
<sym>Dot</sym>
</trkpt>
<trkpt lat="40.032453" lon="-8.347063">
<ele>290.0</ele>
<desc>Speed 9.5 km/h Distance 9.13 km</desc>
<time>2011-05-22T07:36:15.40</time>
<name>2307</name>
<sym>Dot</sym>
</trkpt>
<trkpt lat="40.032442" lon="-8.347090">
<ele>290.5</ele>
<desc>Speed 9.4 km/h Distance 9.13 km</desc>
<time>2011-05-22T07:36:16.39</time>
<name>2308</name>
<sym>Dot</sym>
</trkpt>
<trkpt lat="40.032430" lon="-8.347117">
<ele>290.5</ele>
<desc>Speed 9.0 km/h Distance 9.14 km</desc>
<time>2011-05-22T07:36:17.38</time>
<name>2309</name>
<sym>Dot</sym>
</trkpt>
<trkpt lat="40.032422" lon="-8.347145">
<ele>291.0</ele>
<desc>Speed 9.2 km/h Distance 9.14 km</desc>
<time>2011-05-22T07:36:18.38</time>
<name>2310</name>
<sym>Dot</sym>
</trkpt>
<trkpt lat="40.032412" lon="-8.347175">
<ele>291.0</ele>
<desc>Speed 9.4 km/h Distance 9.14 km</desc>
<time>2011-05-22T07:36:19.38</time>
<name>2311</name>
<sym>Dot</sym>
</trkpt>
<trkpt lat="40.032403" lon="-8.347203">
<ele>291.0</ele>
<desc>Speed 9.3 km/h Distance 9.14 km</desc>
<time>2011-05-22T07:36:20.38</time>
<name>2312</name>
<sym>Dot</sym>
</trkpt>
<trkpt lat="40.032395" lon="-8.347233">
<ele>291.5</ele>
<desc>Speed 9.3 km/h Distance 9.15 km</desc>
<time>2011-05-22T07:36:21.38</time>
<name>2313</name>
<sym>Dot</sym>
</trkpt>
<trkpt lat="40.032388" lon="-8.347263">
<ele>291.5</ele>
<desc>Speed 9.1 km/h Distance 9.15 km</desc>
<time>2011-05-22T07:36:22.38</time>
<name>2314</name>
<sym>Dot</sym>
</trkpt>
<trkpt lat="40.032380" lon="-8.347290">
<ele>292.0</ele>
<desc>Speed 9.0 km/h Distance 9.15 km</desc>
<time>2011-05-22T07:36:23.38</time>
<name>2315</name>
<sym>Dot</sym>
</trkpt>
<trkpt lat="40.032370" lon="-8.347318">
<ele>292.0</ele>
<desc>Speed 9.0 km/h Distance 9.15 km</desc>
<time>2011-05-22T07:36:24.38</time>
<name>2316</name>
<sym>Dot</sym>
</trkpt>
<trkpt lat="40.032362" lon="-8.347343">
<ele>292.0</ele>
<desc>Speed 8.6 km/h Distance 9.16 km</desc>
<time>2011-05-22T07:36:25.37</time>
<name>2317</name>
<sym>Dot</sym>
</trkpt>
<trkpt lat="40.032352" lon="-8.347372">
<ele>292.5</ele>
<desc>Speed 9.0 km/h Distance 9.16 km</desc>
<time>2011-05-22T07:36:26.37</time>
<name>2318</name>
<sym>Dot</sym>
</trkpt>
<trkpt lat="40.032343" lon="-8.347398">
<ele>292.5</ele>
<desc>Speed 8.9 km/h Distance 9.16 km</desc>
<time>2011-05-22T07:36:27.36</time>
<name>2319</name>
<sym>Dot</sym>
</trkpt>
<trkpt lat="40.032335" lon="-8.347425">
<ele>292.5</ele>
<desc>Speed 8.7 km/h Distance 9.16 km</desc>
<time>2011-05-22T07:36:28.36</time>
<name>2320</name>
<sym>Dot</sym>
</trkpt>
<trkpt lat="40.032325" lon="-8.347450">
<ele>293.0</ele>
<desc>Speed 8.5 km/h Distance 9.17 km</desc>
<time>2011-05-22T07:36:29.35</time>
<name>2321</name>
<sym>Dot</sym>
</trkpt>
<trkpt lat="40.032317" lon="-8.347475">
<ele>293.0</ele>
<desc>Speed 8.4 km/h Distance 9.17 km</desc>
<time>2011-05-22T07:36:30.35</time>
<name>2322</name>
<sym>Dot</sym>
</trkpt>
<trkpt lat="40.032308" lon="-8.347498">
<ele>293.5</ele>
<desc>Speed 8.3 km/h Distance 9.17 km</desc>
<time>2011-05-22T07:36:31.35</time>
<name>2323</name>
<sym>Dot</sym>
</trkpt>
<trkpt lat="40.032298" lon="-8.347523">
<ele>293.5</ele>
<desc>Speed 8.4 km/h Distance 9.17 km</desc>
<time>2011-05-22T07:36:32.34</time>
<name>2324</name>
<sym>Dot</sym>
</trkpt>
<trkpt lat="40.032285" lon="-8.347547">
<ele>293.5</ele>
<desc>Speed 8.7 km/h Distance 9.18 km</desc>
<time>2011-05-22T07:36:33.34</time>
<name>2325</name>
<sym>Dot</sym>
</trkpt>
<trkpt lat="40.032272" lon="-8.347567">
<ele>294.0</ele>
<desc>Speed 8.7 km/h Distance 9.18 km</desc>
<time>2011-05-22T07:36:34.34</time>
<name>2326</name>
<sym>Dot</sym>
</trkpt>
<trkpt lat="40.032257" lon="-8.347587">
<ele>294.0</ele>
<desc>Speed 8.5 km/h Distance 9.18 km</desc>
<time>2011-05-22T07:36:35.33</time>
<name>2327</name>
<sym>Dot</sym>
</trkpt>
<trkpt lat="40.032243" lon="-8.347612">
<ele>294.0</ele>
<desc>Speed 9.0 km/h Distance 9.18 km</desc>
<time>2011-05-22T07:36:36.32</time>
<name>2328</name>
<sym>Dot</sym>
</trkpt>
<trkpt lat="40.032233" lon="-8.347638">
<ele>294.5</ele>
<desc>Speed 8.9 km/h Distance 9.19 km</desc>
<time>2011-05-22T07:36:37.32</time>
<name>2329</name>
<sym>Dot</sym>
</trkpt>
<trkpt lat="40.032225" lon="-8.347667">
<ele>294.5</ele>
<desc>Speed 8.9 km/h Distance 9.19 km</desc>
<time>2011-05-22T07:36:38.31</time>
<name>2330</name>
<sym>Dot</sym>
</trkpt>
<trkpt lat="40.032217" lon="-8.347692">
<ele>294.5</ele>
<desc>Speed 8.7 km/h Distance 9.19 km</desc>
<time>2011-05-22T07:36:39.31</time>
<name>2331</name>
<sym>Dot</sym>
</trkpt>
<trkpt lat="40.032207" lon="-8.347717">
<ele>295.0</ele>
<desc>Speed 8.7 km/h Distance 9.19 km</desc>
<time>2011-05-22T07:36:40.30</time>
<name>2332</name>
<sym>Dot</sym>
</trkpt>
<trkpt lat="40.032195" lon="-8.347740">
<ele>295.5</ele>
<desc>Speed 8.8 km/h Distance 9.19 km</desc>
<time>2011-05-22T07:36:41.29</time>
<name>2333</name>
<sym>Dot</sym>
</trkpt>
<trkpt lat="40.032183" lon="-8.347765">
<ele>295.5</ele>
<desc>Speed 8.9 km/h Distance 9.20 km</desc>
<time>2011-05-22T07:36:42.29</time>
<name>2334</name>
<sym>Dot</sym>
</trkpt>
<trkpt lat="40.032170" lon="-8.347790">
<ele>295.5</ele>
<desc>Speed 9.0 km/h Distance 9.20 km</desc>
<time>2011-05-22T07:36:43.28</time>
<name>2335</name>
<sym>Dot</sym>
</trkpt>
<trkpt lat="40.032157" lon="-8.347815">
<ele>296.0</ele>
<desc>Speed 9.2 km/h Distance 9.20 km</desc>
<time>2011-05-22T07:36:44.28</time>
<name>2336</name>
<sym>Dot</sym>
</trkpt>
<trkpt lat="40.032143" lon="-8.347840">
<ele>296.0</ele>
<desc>Speed 9.4 km/h Distance 9.21 km</desc>
<time>2011-05-22T07:36:45.27</time>
<name>2337</name>
<sym>Dot</sym>
</trkpt>
<trkpt lat="40.032132" lon="-8.347867">
<ele>296.5</ele>
<desc>Speed 9.3 km/h Distance 9.21 km</desc>
<time>2011-05-22T07:36:46.27</time>
<name>2338</name>
<sym>Dot</sym>
</trkpt>
<trkpt lat="40.032118" lon="-8.347890">
<ele>296.5</ele>
<desc>Speed 8.8 km/h Distance 9.21 km</desc>
<time>2011-05-22T07:36:47.26</time>
<name>2339</name>
<sym>Dot</sym>
</trkpt>
<trkpt lat="40.032105" lon="-8.347913">
<ele>296.5</ele>
<desc>Speed 8.7 km/h Distance 9.21 km</desc>
<time>2011-05-22T07:36:48.26</time>
<name>2340</name>
<sym>Dot</sym>
</trkpt>
<trkpt lat="40.032093" lon="-8.347935">
<ele>296.5</ele>
<desc>Speed 8.5 km/h Distance 9.22 km</desc>
<time>2011-05-22T07:36:49.25</time>
<name>2341</name>
<sym>Dot</sym>
</trkpt>
<trkpt lat="40.032080" lon="-8.347958">
<ele>297.0</ele>
<desc>Speed 8.9 km/h Distance 9.22 km</desc>
<time>2011-05-22T07:36:50.25</time>
<name>2342</name>
<sym>Dot</sym>
</trkpt>
<trkpt lat="40.032065" lon="-8.347982">
<ele>297.0</ele>
<desc>Speed 8.9 km/h Distance 9.22 km</desc>
<time>2011-05-22T07:36:51.25</time>
<name>2343</name>
<sym>Dot</sym>
</trkpt>
<trkpt lat="40.032052" lon="-8.348005">
<ele>297.5</ele>
<desc>Speed 9.0 km/h Distance 9.22 km</desc>
<time>2011-05-22T07:36:52.24</time>
<name>2344</name>
<sym>Dot</sym>
</trkpt>
<trkpt lat="40.032037" lon="-8.348028">
<ele>297.5</ele>
<desc>Speed 9.0 km/h Distance 9.23 km</desc>
<time>2011-05-22T07:36:53.24</time>
<name>2345</name>
<sym>Dot</sym>
</trkpt>
<trkpt lat="40.032022" lon="-8.348050">
<ele>297.5</ele>
<desc>Speed 9.0 km/h Distance 9.23 km</desc>
<time>2011-05-22T07:36:54.24</time>
<name>2346</name>
<sym>Dot</sym>
</trkpt>
<trkpt lat="40.032005" lon="-8.348072">
<ele>298.0</ele>
<desc>Speed 9.0 km/h Distance 9.23 km</desc>
<time>2011-05-22T07:36:55.23</time>
<name>2347</name>
<sym>Dot</sym>
</trkpt>
<trkpt lat="40.031990" lon="-8.348093">
<ele>298.0</ele>
<desc>Speed 8.4 km/h Distance 9.23 km</desc>
<time>2011-05-22T07:36:56.23</time>
<name>2348</name>
<sym>Dot</sym>
</trkpt>
<trkpt lat="40.031975" lon="-8.348115">
<ele>298.0</ele>
<desc>Speed 9.1 km/h Distance 9.24 km</desc>
<time>2011-05-22T07:36:57.23</time>
<name>2349</name>
<sym>Dot</sym>
</trkpt>
<trkpt lat="40.031962" lon="-8.348138">
<ele>298.0</ele>
<desc>Speed 8.8 km/h Distance 9.24 km</desc>
<time>2011-05-22T07:36:58.22</time>
<name>2350</name>
<sym>Dot</sym>
</trkpt>
<trkpt lat="40.031947" lon="-8.348160">
<ele>298.5</ele>
<desc>Speed 8.6 km/h Distance 9.24 km</desc>
<time>2011-05-22T07:36:59.21</time>
<name>2351</name>
<sym>Dot</sym>
</trkpt>
<trkpt lat="40.031932" lon="-8.348182">
<ele>298.5</ele>
<desc>Speed 8.5 km/h Distance 9.24 km</desc>
<time>2011-05-22T07:37:00.21</time>
<name>2352</name>
<sym>Dot</sym>
</trkpt>
<trkpt lat="40.031917" lon="-8.348202">
<ele>298.5</ele>
<desc>Speed 8.7 km/h Distance 9.25 km</desc>
<time>2011-05-22T07:37:01.22</time>
<name>2353</name>
<sym>Dot</sym>
</trkpt>
<trkpt lat="40.031900" lon="-8.348222">
<ele>298.5</ele>
<desc>Speed 9.0 km/h Distance 9.25 km</desc>
<time>2011-05-22T07:37:02.21</time>
<name>2354</name>
<sym>Dot</sym>
</trkpt>
<trkpt lat="40.031885" lon="-8.348238">
<ele>299.0</ele>
<desc>Speed 8.2 km/h Distance 9.25 km</desc>
<time>2011-05-22T07:37:03.20</time>
<name>2355</name>
<sym>Dot</sym>
</trkpt>
<trkpt lat="40.031868" lon="-8.348257">
<ele>299.0</ele>
<desc>Speed 8.6 km/h Distance 9.25 km</desc>
<time>2011-05-22T07:37:04.19</time>
<name>2356</name>
<sym>Dot</sym>
</trkpt>
<trkpt lat="40.031852" lon="-8.348273">
<ele>299.0</ele>
<desc>Speed 8.7 km/h Distance 9.25 km</desc>
<time>2011-05-22T07:37:05.19</time>
<name>2357</name>
<sym>Dot</sym>
</trkpt>
<trkpt lat="40.031835" lon="-8.348290">
<ele>299.0</ele>
<desc>Speed 8.3 km/h Distance 9.26 km</desc>
<time>2011-05-22T07:37:06.19</time>
<name>2358</name>
<sym>Dot</sym>
</trkpt>
<trkpt lat="40.031822" lon="-8.348307">
<ele>299.5</ele>
<desc>Speed 8.1 km/h Distance 9.26 km</desc>
<time>2011-05-22T07:37:07.19</time>
<name>2359</name>
<sym>Dot</sym>
</trkpt>
<trkpt lat="40.031805" lon="-8.348323">
<ele>299.5</ele>
<desc>Speed 8.6 km/h Distance 9.26 km</desc>
<time>2011-05-22T07:37:08.19</time>
<name>2360</name>
<sym>Dot</sym>
</trkpt>
<trkpt lat="40.031788" lon="-8.348338">
<ele>299.5</ele>
<desc>Speed 8.7 km/h Distance 9.26 km</desc>
<time>2011-05-22T07:37:09.18</time>
<name>2361</name>
<sym>Dot</sym>
</trkpt>
<trkpt lat="40.031770" lon="-8.348357">
<ele>299.5</ele>
<desc>Speed 8.9 km/h Distance 9.27 km</desc>
<time>2011-05-22T07:37:10.18</time>
<name>2362</name>
<sym>Dot</sym>
</trkpt>
<trkpt lat="40.031755" lon="-8.348377">
<ele>300.0</ele>
<desc>Speed 8.8 km/h Distance 9.27 km</desc>
<time>2011-05-22T07:37:11.18</time>
<name>2363</name>
<sym>Dot</sym>
</trkpt>
<trkpt lat="40.031737" lon="-8.348395">
<ele>300.0</ele>
<desc>Speed 8.9 km/h Distance 9.27 km</desc>
<time>2011-05-22T07:37:12.18</time>
<name>2364</name>
<sym>Dot</sym>
</trkpt>
<trkpt lat="40.031720" lon="-8.348410">
<ele>300.5</ele>
<desc>Speed 8.7 km/h Distance 9.27 km</desc>
<time>2011-05-22T07:37:13.17</time>
<name>2365</name>
<sym>Dot</sym>
</trkpt>
<trkpt lat="40.031700" lon="-8.348423">
<ele>300.5</ele>
<desc>Speed 9.1 km/h Distance 9.28 km</desc>
<time>2011-05-22T07:37:14.17</time>
<name>2366</name>
<sym>Dot</sym>
</trkpt>
<trkpt lat="40.031678" lon="-8.348435">
<ele>300.5</ele>
<desc>Speed 9.3 km/h Distance 9.28 km</desc>
<time>2011-05-22T07:37:15.17</time>
<name>2367</name>
<sym>Dot</sym>
</trkpt>
<trkpt lat="40.031658" lon="-8.348445">
<ele>300.5</ele>
<desc>Speed 9.2 km/h Distance 9.28 km</desc>
<time>2011-05-22T07:37:16.16</time>
<name>2368</name>
<sym>Dot</sym>
</trkpt>
<trkpt lat="40.031637" lon="-8.348455">
<ele>300.5</ele>
<desc>Speed 9.0 km/h Distance 9.28 km</desc>
<time>2011-05-22T07:37:17.15</time>
<name>2369</name>
<sym>Dot</sym>
</trkpt>
<trkpt lat="40.031617" lon="-8.348465">
<ele>300.5</ele>
<desc>Speed 8.4 km/h Distance 9.29 km</desc>
<time>2011-05-22T07:37:18.15</time>
<name>2370</name>
<sym>Dot</sym>
</trkpt>
<trkpt lat="40.031597" lon="-8.348475">
<ele>300.5</ele>
<desc>Speed 8.4 km/h Distance 9.29 km</desc>
<time>2011-05-22T07:37:19.15</time>
<name>2371</name>
<sym>Dot</sym>
</trkpt>
<trkpt lat="40.031578" lon="-8.348485">
<ele>301.0</ele>
<desc>Speed 8.1 km/h Distance 9.29 km</desc>
<time>2011-05-22T07:37:20.15</time>
<name>2372</name>
<sym>Dot</sym>
</trkpt>
<trkpt lat="40.031558" lon="-8.348493">
<ele>301.0</ele>
<desc>Speed 8.3 km/h Distance 9.29 km</desc>
<time>2011-05-22T07:37:21.15</time>
<name>2373</name>
<sym>Dot</sym>
</trkpt>
<trkpt lat="40.031537" lon="-8.348502">
<ele>301.0</ele>
<desc>Speed 8.5 km/h Distance 9.30 km</desc>
<time>2011-05-22T07:37:22.14</time>
<name>2374</name>
<sym>Dot</sym>
</trkpt>
<trkpt lat="40.031518" lon="-8.348510">
<ele>301.0</ele>
<desc>Speed 8.1 km/h Distance 9.30 km</desc>
<time>2011-05-22T07:37:23.14</time>
<name>2375</name>
<sym>Dot</sym>
</trkpt>
<trkpt lat="40.031495" lon="-8.348515">
<ele>301.0</ele>
<desc>Speed 9.0 km/h Distance 9.30 km</desc>
<time>2011-05-22T07:37:24.14</time>
<name>2376</name>
<sym>Dot</sym>
</trkpt>
<trkpt lat="40.031475" lon="-8.348523">
<ele>301.5</ele>
<desc>Speed 8.0 km/h Distance 9.30 km</desc>
<time>2011-05-22T07:37:25.13</time>
<name>2377</name>
<sym>Dot</sym>
</trkpt>
<trkpt lat="40.031455" lon="-8.348532">
<ele>301.5</ele>
<desc>Speed 8.3 km/h Distance 9.30 km</desc>
<time>2011-05-22T07:37:26.13</time>
<name>2378</name>
<sym>Dot</sym>
</trkpt>
<trkpt lat="40.031432" lon="-8.348538">
<ele>301.5</ele>
<desc>Speed 8.7 km/h Distance 9.31 km</desc>
<time>2011-05-22T07:37:27.12</time>
<name>2379</name>
<sym>Dot</sym>
</trkpt>
<trkpt lat="40.031412" lon="-8.348545">
<ele>301.5</ele>
<desc>Speed 8.7 km/h Distance 9.31 km</desc>
<time>2011-05-22T07:37:28.12</time>
<name>2380</name>
<sym>Dot</sym>
</trkpt>
<trkpt lat="40.031388" lon="-8.348552">
<ele>301.5</ele>
<desc>Speed 9.0 km/h Distance 9.31 km</desc>
<time>2011-05-22T07:37:29.12</time>
<name>2381</name>
<sym>Dot</sym>
</trkpt>
<trkpt lat="40.031365" lon="-8.348555">
<ele>302.0</ele>
<desc>Speed 8.9 km/h Distance 9.32 km</desc>
<time>2011-05-22T07:37:30.11</time>
<name>2382</name>
<sym>Dot</sym>
</trkpt>
<trkpt lat="40.031343" lon="-8.348558">
<ele>302.0</ele>
<desc>Speed 8.7 km/h Distance 9.32 km</desc>
<time>2011-05-22T07:37:31.11</time>
<name>2383</name>
<sym>Dot</sym>
</trkpt>
<trkpt lat="40.031320" lon="-8.348563">
<ele>302.0</ele>
<desc>Speed 8.7 km/h Distance 9.32 km</desc>
<time>2011-05-22T07:37:32.10</time>
<name>2384</name>
<sym>Dot</sym>
</trkpt>
<trkpt lat="40.031297" lon="-8.348568">
<ele>302.0</ele>
<desc>Speed 8.7 km/h Distance 9.32 km</desc>
<time>2011-05-22T07:37:33.10</time>
<name>2385</name>
<sym>Dot</sym>
</trkpt>
<trkpt lat="40.031277" lon="-8.348575">
<ele>302.0</ele>
<desc>Speed 8.2 km/h Distance 9.33 km</desc>
<time>2011-05-22T07:37:34.10</time>
<name>2386</name>
<sym>Dot</sym>
</trkpt>
<trkpt lat="40.031257" lon="-8.348578">
<ele>302.5</ele>
<desc>Speed 7.8 km/h Distance 9.33 km</desc>
<time>2011-05-22T07:37:35.10</time>
<name>2387</name>
<sym>Dot</sym>
</trkpt>
<trkpt lat="40.031233" lon="-8.348582">
<ele>302.0</ele>
<desc>Speed 8.9 km/h Distance 9.33 km</desc>
<time>2011-05-22T07:37:36.10</time>
<name>2388</name>
<sym>Dot</sym>
</trkpt>
<trkpt lat="40.031212" lon="-8.348585">
<ele>302.0</ele>
<desc>Speed 9.0 km/h Distance 9.33 km</desc>
<time>2011-05-22T07:37:37.10</time>
<name>2389</name>
<sym>Dot</sym>
</trkpt>
<trkpt lat="40.031190" lon="-8.348588">
<ele>302.5</ele>
<desc>Speed 8.2 km/h Distance 9.33 km</desc>
<time>2011-05-22T07:37:38.10</time>
<name>2390</name>
<sym>Dot</sym>
</trkpt>
<trkpt lat="40.031172" lon="-8.348592">
<ele>302.5</ele>
<desc>Speed 7.8 km/h Distance 9.34 km</desc>
<time>2011-05-22T07:37:39.10</time>
<name>2391</name>
<sym>Dot</sym>
</trkpt>
<trkpt lat="40.031152" lon="-8.348595">
<ele>302.5</ele>
<desc>Speed 8.0 km/h Distance 9.34 km</desc>
<time>2011-05-22T07:37:40.09</time>
<name>2392</name>
<sym>Dot</sym>
</trkpt>
<trkpt lat="40.031133" lon="-8.348595">
<ele>303.0</ele>
<desc>Speed 7.8 km/h Distance 9.34 km</desc>
<time>2011-05-22T07:37:41.09</time>
<name>2393</name>
<sym>Dot</sym>
</trkpt>
<trkpt lat="40.031113" lon="-8.348595">
<ele>303.0</ele>
<desc>Speed 8.0 km/h Distance 9.34 km</desc>
<time>2011-05-22T07:37:42.09</time>
<name>2394</name>
<sym>Dot</sym>
</trkpt>
<trkpt lat="40.031095" lon="-8.348595">
<ele>303.5</ele>
<desc>Speed 7.2 km/h Distance 9.35 km</desc>
<time>2011-05-22T07:37:43.08</time>
<name>2395</name>
<sym>Dot</sym>
</trkpt>
<trkpt lat="40.031073" lon="-8.348597">
<ele>303.5</ele>
<desc>Speed 8.5 km/h Distance 9.35 km</desc>
<time>2011-05-22T07:37:44.08</time>
<name>2396</name>
<sym>Dot</sym>
</trkpt>
<trkpt lat="40.031052" lon="-8.348597">
<ele>303.5</ele>
<desc>Speed 8.1 km/h Distance 9.35 km</desc>
<time>2011-05-22T07:37:45.08</time>
<name>2397</name>
<sym>Dot</sym>
</trkpt>
<trkpt lat="40.031030" lon="-8.348597">
<ele>303.5</ele>
<desc>Speed 7.9 km/h Distance 9.35 km</desc>
<time>2011-05-22T07:37:46.08</time>
<name>2398</name>
<sym>Dot</sym>
</trkpt>
<trkpt lat="40.031007" lon="-8.348595">
<ele>304.0</ele>
<desc>Speed 9.0 km/h Distance 9.36 km</desc>
<time>2011-05-22T07:37:47.08</time>
<name>2399</name>
<sym>Dot</sym>
</trkpt>
<trkpt lat="40.030983" lon="-8.348592">
<ele>304.0</ele>
<desc>Speed 8.8 km/h Distance 9.36 km</desc>
<time>2011-05-22T07:37:48.06</time>
<name>2400</name>
<sym>Dot</sym>
</trkpt>
<trkpt lat="40.030958" lon="-8.348588">
<ele>304.0</ele>
<desc>Speed 9.1 km/h Distance 9.36 km</desc>
<time>2011-05-22T07:37:49.06</time>
<name>2401</name>
<sym>Dot</sym>
</trkpt>
<trkpt lat="40.030935" lon="-8.348585">
<ele>304.0</ele>
<desc>Speed 8.9 km/h Distance 9.36 km</desc>
<time>2011-05-22T07:37:50.06</time>
<name>2402</name>
<sym>Dot</sym>
</trkpt>
<trkpt lat="40.030913" lon="-8.348580">
<ele>304.0</ele>
<desc>Speed 8.3 km/h Distance 9.37 km</desc>
<time>2011-05-22T07:37:51.06</time>
<name>2403</name>
<sym>Dot</sym>
</trkpt>
<trkpt lat="40.030892" lon="-8.348577">
<ele>304.5</ele>
<desc>Speed 8.6 km/h Distance 9.37 km</desc>
<time>2011-05-22T07:37:52.05</time>
<name>2404</name>
<sym>Dot</sym>
</trkpt>
<trkpt lat="40.030872" lon="-8.348572">
<ele>304.5</ele>
<desc>Speed 8.1 km/h Distance 9.37 km</desc>
<time>2011-05-22T07:37:53.05</time>
<name>2405</name>
<sym>Dot</sym>
</trkpt>
<trkpt lat="40.030853" lon="-8.348567">
<ele>305.0</ele>
<desc>Speed 7.3 km/h Distance 9.37 km</desc>
<time>2011-05-22T07:37:54.04</time>
<name>2406</name>
<sym>Dot</sym>
</trkpt>
<trkpt lat="40.030833" lon="-8.348558">
<ele>306.0</ele>
<desc>Speed 7.1 km/h Distance 9.37 km</desc>
<time>2011-05-22T07:37:55.04</time>
<name>2407</name>
<sym>Dot</sym>
</trkpt>
<trkpt lat="40.030812" lon="-8.348548">
<ele>306.5</ele>
<desc>Speed 7.5 km/h Distance 9.38 km</desc>
<time>2011-05-22T07:37:56.03</time>
<name>2408</name>
<sym>Dot</sym>
</trkpt>
<trkpt lat="40.030790" lon="-8.348538">
<ele>306.5</ele>
<desc>Speed 7.3 km/h Distance 9.38 km</desc>
<time>2011-05-22T07:37:57.03</time>
<name>2409</name>
<sym>Dot</sym>
</trkpt>
<trkpt lat="40.030772" lon="-8.348528">
<ele>307.0</ele>
<desc>Speed 7.2 km/h Distance 9.38 km</desc>
<time>2011-05-22T07:37:58.02</time>
<name>2410</name>
<sym>Dot</sym>
</trkpt>
<trkpt lat="40.030758" lon="-8.348527">
<ele>307.0</ele>
<desc>Speed 5.4 km/h Distance 9.38 km</desc>
<time>2011-05-22T07:37:59.02</time>
<name>2411</name>
<sym>Dot</sym>
</trkpt>
<trkpt lat="40.030747" lon="-8.348532">
<ele>307.5</ele>
<desc>Speed 4.9 km/h Distance 9.38 km</desc>
<time>2011-05-22T07:38:00.01</time>
<name>2412</name>
<sym>Dot</sym>
</trkpt>
<trkpt lat="40.030733" lon="-8.348537">
<ele>308.0</ele>
<desc>Speed 5.0 km/h Distance 9.39 km</desc>
<time>2011-05-22T07:38:01.01</time>
<name>2413</name>
<sym>Dot</sym>
</trkpt>
<trkpt lat="40.030722" lon="-8.348530">
<ele>308.5</ele>
<desc>Speed 5.0 km/h Distance 9.39 km</desc>
<time>2011-05-22T07:38:02.02</time>
<name>2414</name>
<sym>Dot</sym>
</trkpt>
<trkpt lat="40.030712" lon="-8.348513">
<ele>308.5</ele>
<desc>Speed 6.2 km/h Distance 9.39 km</desc>
<time>2011-05-22T07:38:03.00</time>
<name>2415</name>
<sym>Dot</sym>
</trkpt>
<trkpt lat="40.030700" lon="-8.348493">
<ele>308.5</ele>
<desc>Speed 7.8 km/h Distance 9.39 km</desc>
<time>2011-05-22T07:38:04.00</time>
<name>2416</name>
<sym>Dot</sym>
</trkpt>
<trkpt lat="40.030682" lon="-8.348482">
<ele>309.0</ele>
<desc>Speed 7.4 km/h Distance 9.39 km</desc>
<time>2011-05-22T07:38:05.00</time>
<name>2417</name>
<sym>Dot</sym>
</trkpt>
<trkpt lat="40.030662" lon="-8.348480">
<ele>309.5</ele>
<desc>Speed 7.3 km/h Distance 9.40 km</desc>
<time>2011-05-22T07:38:05.99</time>
<name>2418</name>
<sym>Dot</sym>
</trkpt>
<trkpt lat="40.030642" lon="-8.348477">
<ele>310.0</ele>
<desc>Speed 7.8 km/h Distance 9.40 km</desc>
<time>2011-05-22T07:38:06.99</time>
<name>2419</name>
<sym>Dot</sym>
</trkpt>
<trkpt lat="40.030620" lon="-8.348472">
<ele>310.5</ele>
<desc>Speed 8.7 km/h Distance 9.40 km</desc>
<time>2011-05-22T07:38:07.99</time>
<name>2420</name>
<sym>Dot</sym>
</trkpt>
<trkpt lat="40.030600" lon="-8.348467">
<ele>311.0</ele>
<desc>Speed 7.0 km/h Distance 9.40 km</desc>
<time>2011-05-22T07:38:08.99</time>
<name>2421</name>
<sym>Dot</sym>
</trkpt>
<trkpt lat="40.030580" lon="-8.348455">
<ele>311.0</ele>
<desc>Speed 8.4 km/h Distance 9.41 km</desc>
<time>2011-05-22T07:38:09.99</time>
<name>2422</name>
<sym>Dot</sym>
</trkpt>
<trkpt lat="40.030557" lon="-8.348440">
<ele>310.5</ele>
<desc>Speed 9.1 km/h Distance 9.41 km</desc>
<time>2011-05-22T07:38:10.98</time>
<name>2423</name>
<sym>Dot</sym>
</trkpt>
<trkpt lat="40.030535" lon="-8.348427">
<ele>310.5</ele>
<desc>Speed 9.3 km/h Distance 9.41 km</desc>
<time>2011-05-22T07:38:11.98</time>
<name>2424</name>
<sym>Dot</sym>
</trkpt>
<trkpt lat="40.030512" lon="-8.348412">
<ele>310.5</ele>
<desc>Speed 9.7 km/h Distance 9.41 km</desc>
<time>2011-05-22T07:38:12.97</time>
<name>2425</name>
<sym>Dot</sym>
</trkpt>
<trkpt lat="40.030488" lon="-8.348398">
<ele>310.5</ele>
<desc>Speed 9.6 km/h Distance 9.42 km</desc>
<time>2011-05-22T07:38:13.98</time>
<name>2426</name>
<sym>Dot</sym>
</trkpt>
<trkpt lat="40.030467" lon="-8.348380">
<ele>310.5</ele>
<desc>Speed 9.8 km/h Distance 9.42 km</desc>
<time>2011-05-22T07:38:14.96</time>
<name>2427</name>
<sym>Dot</sym>
</trkpt>
<trkpt lat="40.030445" lon="-8.348365">
<ele>310.5</ele>
<desc>Speed 9.8 km/h Distance 9.42 km</desc>
<time>2011-05-22T07:38:15.96</time>
<name>2428</name>
<sym>Dot</sym>
</trkpt>
<trkpt lat="40.030427" lon="-8.348352">
<ele>311.0</ele>
<desc>Speed 8.1 km/h Distance 9.42 km</desc>
<time>2011-05-22T07:38:16.96</time>
<name>2429</name>
<sym>Dot</sym>
</trkpt>
<trkpt lat="40.030410" lon="-8.348337">
<ele>312.0</ele>
<desc>Speed 7.7 km/h Distance 9.43 km</desc>
<time>2011-05-22T07:38:17.96</time>
<name>2430</name>
<sym>Dot</sym>
</trkpt>
<trkpt lat="40.030393" lon="-8.348323">
<ele>313.0</ele>
<desc>Speed 8.1 km/h Distance 9.43 km</desc>
<time>2011-05-22T07:38:18.95</time>
<name>2431</name>
<sym>Dot</sym>
</trkpt>
<trkpt lat="40.030372" lon="-8.348308">
<ele>313.0</ele>
<desc>Speed 8.3 km/h Distance 9.43 km</desc>
<time>2011-05-22T07:38:19.95</time>
<name>2432</name>
<sym>Dot</sym>
</trkpt>
<trkpt lat="40.030355" lon="-8.348288">
<ele>313.0</ele>
<desc>Speed 9.0 km/h Distance 9.43 km</desc>
<time>2011-05-22T07:38:20.94</time>
<name>2433</name>
<sym>Dot</sym>
</trkpt>
<trkpt lat="40.030335" lon="-8.348270">
<ele>313.0</ele>
<desc>Speed 9.1 km/h Distance 9.44 km</desc>
<time>2011-05-22T07:38:21.94</time>
<name>2434</name>
<sym>Dot</sym>
</trkpt>
<trkpt lat="40.030315" lon="-8.348252">
<ele>313.0</ele>
<desc>Speed 9.4 km/h Distance 9.44 km</desc>
<time>2011-05-22T07:38:22.93</time>
<name>2435</name>
<sym>Dot</sym>
</trkpt>
<trkpt lat="40.030298" lon="-8.348238">
<ele>313.5</ele>
<desc>Speed 7.7 km/h Distance 9.44 km</desc>
<time>2011-05-22T07:38:23.93</time>
<name>2436</name>
<sym>Dot</sym>
</trkpt>
<trkpt lat="40.030283" lon="-8.348225">
<ele>314.5</ele>
<desc>Speed 7.4 km/h Distance 9.44 km</desc>
<time>2011-05-22T07:38:24.92</time>
<name>2437</name>
<sym>Dot</sym>
</trkpt>
<trkpt lat="40.030265" lon="-8.348210">
<ele>314.5</ele>
<desc>Speed 8.7 km/h Distance 9.45 km</desc>
<time>2011-05-22T07:38:25.91</time>
<name>2438</name>
<sym>Dot</sym>
</trkpt>
<trkpt lat="40.030245" lon="-8.348192">
<ele>314.5</ele>
<desc>Speed 9.4 km/h Distance 9.45 km</desc>
<time>2011-05-22T07:38:26.91</time>
<name>2439</name>
<sym>Dot</sym>
</trkpt>
<trkpt lat="40.030225" lon="-8.348173">
<ele>314.5</ele>
<desc>Speed 9.2 km/h Distance 9.45 km</desc>
<time>2011-05-22T07:38:27.91</time>
<name>2440</name>
<sym>Dot</sym>
</trkpt>
<trkpt lat="40.030208" lon="-8.348157">
<ele>315.0</ele>
<desc>Speed 8.5 km/h Distance 9.45 km</desc>
<time>2011-05-22T07:38:28.91</time>
<name>2441</name>
<sym>Dot</sym>
</trkpt>
<trkpt lat="40.030188" lon="-8.348142">
<ele>315.0</ele>
<desc>Speed 8.9 km/h Distance 9.46 km</desc>
<time>2011-05-22T07:38:29.90</time>
<name>2442</name>
<sym>Dot</sym>
</trkpt>
<trkpt lat="40.030170" lon="-8.348127">
<ele>315.0</ele>
<desc>Speed 8.7 km/h Distance 9.46 km</desc>
<time>2011-05-22T07:38:30.90</time>
<name>2443</name>
<sym>Dot</sym>
</trkpt>
<trkpt lat="40.030157" lon="-8.348113">
<ele>316.5</ele>
<desc>Speed 6.2 km/h Distance 9.46 km</desc>
<time>2011-05-22T07:38:31.90</time>
<name>2444</name>
<sym>Dot</sym>
</trkpt>
<trkpt lat="40.030143" lon="-8.348103">
<ele>318.0</ele>
<desc>Speed 5.3 km/h Distance 9.46 km</desc>
<time>2011-05-22T07:38:32.90</time>
<name>2445</name>
<sym>Dot</sym>
</trkpt>
<trkpt lat="40.030128" lon="-8.348090">
<ele>319.5</ele>
<desc>Speed 6.2 km/h Distance 9.47 km</desc>
<time>2011-05-22T07:38:33.89</time>
<name>2446</name>
<sym>Dot</sym>
</trkpt>
<trkpt lat="40.030115" lon="-8.348080">
<ele>320.5</ele>
<desc>Speed 6.2 km/h Distance 9.47 km</desc>
<time>2011-05-22T07:38:34.89</time>
<name>2447</name>
<sym>Dot</sym>
</trkpt>
<trkpt lat="40.030102" lon="-8.348067">
<ele>322.0</ele>
<desc>Speed 6.1 km/h Distance 9.47 km</desc>
<time>2011-05-22T07:38:35.89</time>
<name>2448</name>
<sym>Dot</sym>
</trkpt>
<trkpt lat="40.030083" lon="-8.348055">
<ele>323.5</ele>
<desc>Speed 5.7 km/h Distance 9.47 km</desc>
<time>2011-05-22T07:38:36.88</time>
<name>2449</name>
<sym>Dot</sym>
</trkpt>
<trkpt lat="40.030068" lon="-8.348045">
<ele>325.0</ele>
<desc>Speed 5.2 km/h Distance 9.47 km</desc>
<time>2011-05-22T07:38:37.88</time>
<name>2450</name>
<sym>Dot</sym>
</trkpt>
<trkpt lat="40.030047" lon="-8.348030">
<ele>325.0</ele>
<desc>Speed 7.6 km/h Distance 9.48 km</desc>
<time>2011-05-22T07:38:38.87</time>
<name>2451</name>
<sym>Dot</sym>
</trkpt>
<trkpt lat="40.030028" lon="-8.348017">
<ele>325.0</ele>
<desc>Speed 8.1 km/h Distance 9.48 km</desc>
<time>2011-05-22T07:38:39.87</time>
<name>2452</name>
<sym>Dot</sym>
</trkpt>
<trkpt lat="40.030012" lon="-8.348005">
<ele>326.0</ele>
<desc>Speed 8.1 km/h Distance 9.48 km</desc>
<time>2011-05-22T07:38:40.86</time>
<name>2453</name>
<sym>Dot</sym>
</trkpt>
<trkpt lat="40.029998" lon="-8.347995">
<ele>326.5</ele>
<desc>Speed 5.5 km/h Distance 9.48 km</desc>
<time>2011-05-22T07:38:41.86</time>
<name>2454</name>
<sym>Dot</sym>
</trkpt>
<trkpt lat="40.029980" lon="-8.347990">
<ele>328.0</ele>
<desc>Speed 5.9 km/h Distance 9.48 km</desc>
<time>2011-05-22T07:38:42.86</time>
<name>2455</name>
<sym>Dot</sym>
</trkpt>
<trkpt lat="40.029962" lon="-8.347975">
<ele>328.0</ele>
<desc>Speed 8.1 km/h Distance 9.49 km</desc>
<time>2011-05-22T07:38:43.86</time>
<name>2456</name>
<sym>Dot</sym>
</trkpt>
<trkpt lat="40.029943" lon="-8.347962">
<ele>328.0</ele>
<desc>Speed 7.6 km/h Distance 9.49 km</desc>
<time>2011-05-22T07:38:44.85</time>
<name>2457</name>
<sym>Dot</sym>
</trkpt>
<trkpt lat="40.029927" lon="-8.347952">
<ele>328.5</ele>
<desc>Speed 5.4 km/h Distance 9.49 km</desc>
<time>2011-05-22T07:38:45.85</time>
<name>2458</name>
<sym>Dot</sym>
</trkpt>
<trkpt lat="40.029903" lon="-8.347937">
<ele>328.0</ele>
<desc>Speed 8.3 km/h Distance 9.49 km</desc>
<time>2011-05-22T07:38:46.84</time>
<name>2459</name>
<sym>Dot</sym>
</trkpt>
<trkpt lat="40.029883" lon="-8.347923">
<ele>328.0</ele>
<desc>Speed 8.5 km/h Distance 9.50 km</desc>
<time>2011-05-22T07:38:47.84</time>
<name>2460</name>
<sym>Dot</sym>
</trkpt>
<trkpt lat="40.029863" lon="-8.347908">
<ele>328.0</ele>
<desc>Speed 9.0 km/h Distance 9.50 km</desc>
<time>2011-05-22T07:38:48.83</time>
<name>2461</name>
<sym>Dot</sym>
</trkpt>
<trkpt lat="40.029843" lon="-8.347895">
<ele>328.5</ele>
<desc>Speed 6.7 km/h Distance 9.50 km</desc>
<time>2011-05-22T07:38:49.82</time>
<name>2462</name>
<sym>Dot</sym>
</trkpt>
<trkpt lat="40.029827" lon="-8.347883">
<ele>329.5</ele>
<desc>Speed 6.7 km/h Distance 9.50 km</desc>
<time>2011-05-22T07:38:50.81</time>
<name>2463</name>
<sym>Dot</sym>
</trkpt>
<trkpt lat="40.029808" lon="-8.347870">
<ele>330.0</ele>
<desc>Speed 7.0 km/h Distance 9.51 km</desc>
<time>2011-05-22T07:38:51.81</time>
<name>2464</name>
<sym>Dot</sym>
</trkpt>
<trkpt lat="40.029792" lon="-8.347858">
<ele>331.0</ele>
<desc>Speed 6.2 km/h Distance 9.51 km</desc>
<time>2011-05-22T07:38:52.80</time>
<name>2465</name>
<sym>Dot</sym>
</trkpt>
<trkpt lat="40.029778" lon="-8.347852">
<ele>332.5</ele>
<desc>Speed 5.0 km/h Distance 9.51 km</desc>
<time>2011-05-22T07:38:53.80</time>
<name>2466</name>
<sym>Dot</sym>
</trkpt>
<trkpt lat="40.029758" lon="-8.347837">
<ele>332.0</ele>
<desc>Speed 8.1 km/h Distance 9.51 km</desc>
<time>2011-05-22T07:38:54.80</time>
<name>2467</name>
<sym>Dot</sym>
</trkpt>
<trkpt lat="40.029742" lon="-8.347825">
<ele>332.5</ele>
<desc>Speed 6.4 km/h Distance 9.51 km</desc>
<time>2011-05-22T07:38:55.80</time>
<name>2468</name>
<sym>Dot</sym>
</trkpt>
<trkpt lat="40.029725" lon="-8.347815">
<ele>333.0</ele>
<desc>Speed 6.2 km/h Distance 9.52 km</desc>
<time>2011-05-22T07:38:56.79</time>
<name>2469</name>
<sym>Dot</sym>
</trkpt>
<trkpt lat="40.029707" lon="-8.347803">
<ele>333.5</ele>
<desc>Speed 6.4 km/h Distance 9.52 km</desc>
<time>2011-05-22T07:38:57.78</time>
<name>2470</name>
<sym>Dot</sym>
</trkpt>
<trkpt lat="40.029690" lon="-8.347795">
<ele>334.5</ele>
<desc>Speed 5.8 km/h Distance 9.52 km</desc>
<time>2011-05-22T07:38:58.78</time>
<name>2471</name>
<sym>Dot</sym>
</trkpt>
<trkpt lat="40.029673" lon="-8.347785">
<ele>335.0</ele>
<desc>Speed 6.2 km/h Distance 9.52 km</desc>
<time>2011-05-22T07:38:59.79</time>
<name>2472</name>
<sym>Dot</sym>
</trkpt>
<trkpt lat="40.029658" lon="-8.347778">
<ele>336.5</ele>
<desc>Speed 5.4 km/h Distance 9.52 km</desc>
<time>2011-05-22T07:39:00.78</time>
<name>2473</name>
<sym>Dot</sym>
</trkpt>
<trkpt lat="40.029643" lon="-8.347770">
<ele>337.5</ele>
<desc>Speed 5.6 km/h Distance 9.53 km</desc>
<time>2011-05-22T07:39:01.77</time>
<name>2474</name>
<sym>Dot</sym>
</trkpt>
<trkpt lat="40.029625" lon="-8.347760">
<ele>337.5</ele>
<desc>Speed 5.0 km/h Distance 9.53 km</desc>
<time>2011-05-22T07:39:02.77</time>
<name>2475</name>
<sym>Dot</sym>
</trkpt>
<trkpt lat="40.029608" lon="-8.347750">
<ele>338.0</ele>
<desc>Speed 6.1 km/h Distance 9.53 km</desc>
<time>2011-05-22T07:39:03.76</time>
<name>2476</name>
<sym>Dot</sym>
</trkpt>
<trkpt lat="40.029587" lon="-8.347738">
<ele>338.0</ele>
<desc>Speed 6.4 km/h Distance 9.53 km</desc>
<time>2011-05-22T07:39:04.76</time>
<name>2477</name>
<sym>Dot</sym>
</trkpt>
<trkpt lat="40.029573" lon="-8.347728">
<ele>338.5</ele>
<desc>Speed 5.0 km/h Distance 9.53 km</desc>
<time>2011-05-22T07:39:05.76</time>
<name>2478</name>
<sym>Dot</sym>
</trkpt>
<trkpt lat="40.029560" lon="-8.347718">
<ele>339.0</ele>
<desc>Speed 4.5 km/h Distance 9.54 km</desc>
<time>2011-05-22T07:39:06.75</time>
<name>2479</name>
<sym>Dot</sym>
</trkpt>
<trkpt lat="40.029545" lon="-8.347708">
<ele>339.0</ele>
<desc>Speed 5.0 km/h Distance 9.54 km</desc>
<time>2011-05-22T07:39:07.74</time>
<name>2480</name>
<sym>Dot</sym>
</trkpt>
<trkpt lat="40.029535" lon="-8.347702">
<ele>339.0</ele>
<desc>Speed 3.7 km/h Distance 9.54 km</desc>
<time>2011-05-22T07:39:08.74</time>
<name>2481</name>
<sym>Dot</sym>
</trkpt>
<trkpt lat="40.029522" lon="-8.347692">
<ele>339.0</ele>
<desc>Speed 3.7 km/h Distance 9.54 km</desc>
<time>2011-05-22T07:39:09.74</time>
<name>2482</name>
<sym>Dot</sym>
</trkpt>
<trkpt lat="40.029510" lon="-8.347685">
<ele>339.5</ele>
<desc>Speed 3.7 km/h Distance 9.54 km</desc>
<time>2011-05-22T07:39:10.73</time>
<name>2483</name>
<sym>Dot</sym>
</trkpt>
<trkpt lat="40.029500" lon="-8.347678">
<ele>340.0</ele>
<desc>Speed 3.6 km/h Distance 9.54 km</desc>
<time>2011-05-22T07:39:11.73</time>
<name>2484</name>
<sym>Dot</sym>
</trkpt>
<trkpt lat="40.029488" lon="-8.347672">
<ele>340.5</ele>
<desc>Speed 3.6 km/h Distance 9.54 km</desc>
<time>2011-05-22T07:39:12.73</time>
<name>2485</name>
<sym>Dot</sym>
</trkpt>
<trkpt lat="40.029473" lon="-8.347663">
<ele>340.0</ele>
<desc>Speed 4.6 km/h Distance 9.55 km</desc>
<time>2011-05-22T07:39:13.72</time>
<name>2486</name>
<sym>Dot</sym>
</trkpt>
<trkpt lat="40.029457" lon="-8.347657">
<ele>340.0</ele>
<desc>Speed 5.2 km/h Distance 9.55 km</desc>
<time>2011-05-22T07:39:14.71</time>
<name>2487</name>
<sym>Dot</sym>
</trkpt>
<trkpt lat="40.029443" lon="-8.347648">
<ele>339.5</ele>
<desc>Speed 4.4 km/h Distance 9.55 km</desc>
<time>2011-05-22T07:39:15.71</time>
<name>2488</name>
<sym>Dot</sym>
</trkpt>
<trkpt lat="40.029425" lon="-8.347637">
<ele>339.0</ele>
<desc>Speed 5.4 km/h Distance 9.55 km</desc>
<time>2011-05-22T07:39:16.70</time>
<name>2489</name>
<sym>Dot</sym>
</trkpt>
<trkpt lat="40.029410" lon="-8.347628">
<ele>338.0</ele>
<desc>Speed 4.8 km/h Distance 9.55 km</desc>
<time>2011-05-22T07:39:17.69</time>
<name>2490</name>
<sym>Dot</sym>
</trkpt>
<trkpt lat="40.029392" lon="-8.347620">
<ele>337.0</ele>
<desc>Speed 5.8 km/h Distance 9.56 km</desc>
<time>2011-05-22T07:39:18.69</time>
<name>2491</name>
<sym>Dot</sym>
</trkpt>
<trkpt lat="40.029375" lon="-8.347613">
<ele>336.5</ele>
<desc>Speed 5.3 km/h Distance 9.56 km</desc>
<time>2011-05-22T07:39:19.68</time>
<name>2492</name>
<sym>Dot</sym>
</trkpt>
<trkpt lat="40.029358" lon="-8.347608">
<ele>336.0</ele>
<desc>Speed 5.4 km/h Distance 9.56 km</desc>
<time>2011-05-22T07:39:20.68</time>
<name>2493</name>
<sym>Dot</sym>
</trkpt>
<trkpt lat="40.029342" lon="-8.347597">
<ele>335.5</ele>
<desc>Speed 5.5 km/h Distance 9.56 km</desc>
<time>2011-05-22T07:39:21.67</time>
<name>2494</name>
<sym>Dot</sym>
</trkpt>
<trkpt lat="40.029325" lon="-8.347587">
<ele>335.0</ele>
<desc>Speed 5.0 km/h Distance 9.56 km</desc>
<time>2011-05-22T07:39:22.67</time>
<name>2495</name>
<sym>Dot</sym>
</trkpt>
<trkpt lat="40.029310" lon="-8.347580">
<ele>334.0</ele>
<desc>Speed 5.0 km/h Distance 9.57 km</desc>
<time>2011-05-22T07:39:23.67</time>
<name>2496</name>
<sym>Dot</sym>
</trkpt>
<trkpt lat="40.029293" lon="-8.347572">
<ele>333.5</ele>
<desc>Speed 5.8 km/h Distance 9.57 km</desc>
<time>2011-05-22T07:39:24.66</time>
<name>2497</name>
<sym>Dot</sym>
</trkpt>
<trkpt lat="40.029278" lon="-8.347565">
<ele>333.5</ele>
<desc>Speed 5.3 km/h Distance 9.57 km</desc>
<time>2011-05-22T07:39:25.66</time>
<name>2498</name>
<sym>Dot</sym>
</trkpt>
<trkpt lat="40.029260" lon="-8.347557">
<ele>333.0</ele>
<desc>Speed 5.6 km/h Distance 9.57 km</desc>
<time>2011-05-22T07:39:26.65</time>
<name>2499</name>
<sym>Dot</sym>
</trkpt>
<trkpt lat="40.029243" lon="-8.347548">
<ele>332.5</ele>
<desc>Speed 5.8 km/h Distance 9.57 km</desc>
<time>2011-05-22T07:39:27.65</time>
<name>2500</name>
<sym>Dot</sym>
</trkpt>
<trkpt lat="40.029227" lon="-8.347542">
<ele>332.0</ele>
<desc>Speed 6.1 km/h Distance 9.58 km</desc>
<time>2011-05-22T07:39:28.65</time>
<name>2501</name>
<sym>Dot</sym>
</trkpt>
<trkpt lat="40.029210" lon="-8.347535">
<ele>331.5</ele>
<desc>Speed 5.7 km/h Distance 9.58 km</desc>
<time>2011-05-22T07:39:29.65</time>
<name>2502</name>
<sym>Dot</sym>
</trkpt>
<trkpt lat="40.029195" lon="-8.347530">
<ele>331.0</ele>
<desc>Speed 5.1 km/h Distance 9.58 km</desc>
<time>2011-05-22T07:39:30.65</time>
<name>2503</name>
<sym>Dot</sym>
</trkpt>
<trkpt lat="40.029182" lon="-8.347520">
<ele>331.0</ele>
<desc>Speed 5.4 km/h Distance 9.58 km</desc>
<time>2011-05-22T07:39:31.64</time>
<name>2504</name>
<sym>Dot</sym>
</trkpt>
<trkpt lat="40.029168" lon="-8.347503">
<ele>330.5</ele>
<desc>Speed 5.5 km/h Distance 9.58 km</desc>
<time>2011-05-22T07:39:32.64</time>
<name>2505</name>
<sym>Dot</sym>
</trkpt>
<trkpt lat="40.029158" lon="-8.347487">
<ele>330.5</ele>
<desc>Speed 5.8 km/h Distance 9.59 km</desc>
<time>2011-05-22T07:39:33.64</time>
<name>2506</name>
<sym>Dot</sym>
</trkpt>
<trkpt lat="40.029145" lon="-8.347477">
<ele>330.5</ele>
<desc>Speed 5.5 km/h Distance 9.59 km</desc>
<time>2011-05-22T07:39:34.63</time>
<name>2507</name>
<sym>Dot</sym>
</trkpt>
<trkpt lat="40.029128" lon="-8.347478">
<ele>330.5</ele>
<desc>Speed 5.9 km/h Distance 9.59 km</desc>
<time>2011-05-22T07:39:35.63</time>
<name>2508</name>
<sym>Dot</sym>
</trkpt>
<trkpt lat="40.029112" lon="-8.347480">
<ele>330.5</ele>
<desc>Speed 6.3 km/h Distance 9.59 km</desc>
<time>2011-05-22T07:39:36.62</time>
<name>2509</name>
<sym>Dot</sym>
</trkpt>
<trkpt lat="40.029093" lon="-8.347480">
<ele>330.5</ele>
<desc>Speed 6.3 km/h Distance 9.59 km</desc>
<time>2011-05-22T07:39:37.62</time>
<name>2510</name>
<sym>Dot</sym>
</trkpt>
<trkpt lat="40.029075" lon="-8.347477">
<ele>330.5</ele>
<desc>Speed 6.4 km/h Distance 9.59 km</desc>
<time>2011-05-22T07:39:38.61</time>
<name>2511</name>
<sym>Dot</sym>
</trkpt>
<trkpt lat="40.029057" lon="-8.347473">
<ele>330.0</ele>
<desc>Speed 6.4 km/h Distance 9.60 km</desc>
<time>2011-05-22T07:39:39.61</time>
<name>2512</name>
<sym>Dot</sym>
</trkpt>
<trkpt lat="40.029042" lon="-8.347468">
<ele>330.0</ele>
<desc>Speed 5.4 km/h Distance 9.60 km</desc>
<time>2011-05-22T07:39:40.61</time>
<name>2513</name>
<sym>Dot</sym>
</trkpt>
<trkpt lat="40.029025" lon="-8.347462">
<ele>329.5</ele>
<desc>Speed 5.7 km/h Distance 9.60 km</desc>
<time>2011-05-22T07:39:41.60</time>
<name>2514</name>
<sym>Dot</sym>
</trkpt>
<trkpt lat="40.029008" lon="-8.347457">
<ele>329.5</ele>
<desc>Speed 5.6 km/h Distance 9.60 km</desc>
<time>2011-05-22T07:39:42.60</time>
<name>2515</name>
<sym>Dot</sym>
</trkpt>
<trkpt lat="40.028990" lon="-8.347452">
<ele>329.5</ele>
<desc>Speed 5.9 km/h Distance 9.60 km</desc>
<time>2011-05-22T07:39:43.60</time>
<name>2516</name>
<sym>Dot</sym>
</trkpt>
<trkpt lat="40.028975" lon="-8.347445">
<ele>329.5</ele>
<desc>Speed 5.9 km/h Distance 9.61 km</desc>
<time>2011-05-22T07:39:44.60</time>
<name>2517</name>
<sym>Dot</sym>
</trkpt>
<trkpt lat="40.028960" lon="-8.347437">
<ele>330.0</ele>
<desc>Speed 5.7 km/h Distance 9.61 km</desc>
<time>2011-05-22T07:39:45.59</time>
<name>2518</name>
<sym>Dot</sym>
</trkpt>
<trkpt lat="40.028943" lon="-8.347430">
<ele>330.0</ele>
<desc>Speed 6.2 km/h Distance 9.61 km</desc>
<time>2011-05-22T07:39:46.59</time>
<name>2519</name>
<sym>Dot</sym>
</trkpt>
<trkpt lat="40.028927" lon="-8.347427">
<ele>330.0</ele>
<desc>Speed 6.3 km/h Distance 9.61 km</desc>
<time>2011-05-22T07:39:47.59</time>
<name>2520</name>
<sym>Dot</sym>
</trkpt>
<trkpt lat="40.028908" lon="-8.347422">
<ele>330.5</ele>
<desc>Speed 6.2 km/h Distance 9.61 km</desc>
<time>2011-05-22T07:39:48.58</time>
<name>2521</name>
<sym>Dot</sym>
</trkpt>
<trkpt lat="40.028890" lon="-8.347415">
<ele>330.5</ele>
<desc>Speed 6.6 km/h Distance 9.62 km</desc>
<time>2011-05-22T07:39:49.58</time>
<name>2522</name>
<sym>Dot</sym>
</trkpt>
<trkpt lat="40.028875" lon="-8.347410">
<ele>330.5</ele>
<desc>Speed 5.7 km/h Distance 9.62 km</desc>
<time>2011-05-22T07:39:50.57</time>
<name>2523</name>
<sym>Dot</sym>
</trkpt>
<trkpt lat="40.028858" lon="-8.347405">
<ele>330.5</ele>
<desc>Speed 6.2 km/h Distance 9.62 km</desc>
<time>2011-05-22T07:39:51.57</time>
<name>2524</name>
<sym>Dot</sym>
</trkpt>
<trkpt lat="40.028840" lon="-8.347397">
<ele>330.5</ele>
<desc>Speed 6.0 km/h Distance 9.62 km</desc>
<time>2011-05-22T07:39:52.57</time>
<name>2525</name>
<sym>Dot</sym>
</trkpt>
<trkpt lat="40.028822" lon="-8.347387">
<ele>331.0</ele>
<desc>Speed 6.4 km/h Distance 9.62 km</desc>
<time>2011-05-22T07:39:53.56</time>
<name>2526</name>
<sym>Dot</sym>
</trkpt>
<trkpt lat="40.028805" lon="-8.347380">
<ele>331.0</ele>
<desc>Speed 6.7 km/h Distance 9.63 km</desc>
<time>2011-05-22T07:39:54.56</time>
<name>2527</name>
<sym>Dot</sym>
</trkpt>
<trkpt lat="40.028790" lon="-8.347375">
<ele>331.5</ele>
<desc>Speed 5.7 km/h Distance 9.63 km</desc>
<time>2011-05-22T07:39:55.56</time>
<name>2528</name>
<sym>Dot</sym>
</trkpt>
<trkpt lat="40.028772" lon="-8.347367">
<ele>331.5</ele>
<desc>Speed 6.4 km/h Distance 9.63 km</desc>
<time>2011-05-22T07:39:56.56</time>
<name>2529</name>
<sym>Dot</sym>
</trkpt>
<trkpt lat="40.028753" lon="-8.347360">
<ele>331.5</ele>
<desc>Speed 6.6 km/h Distance 9.63 km</desc>
<time>2011-05-22T07:39:57.55</time>
<name>2530</name>
<sym>Dot</sym>
</trkpt>
<trkpt lat="40.028733" lon="-8.347353">
<ele>332.0</ele>
<desc>Speed 6.7 km/h Distance 9.63 km</desc>
<time>2011-05-22T07:39:58.55</time>
<name>2531</name>
<sym>Dot</sym>
</trkpt>
<trkpt lat="40.028713" lon="-8.347343">
<ele>332.0</ele>
<desc>Speed 7.7 km/h Distance 9.64 km</desc>
<time>2011-05-22T07:39:59.55</time>
<name>2532</name>
<sym>Dot</sym>
</trkpt>
<trkpt lat="40.028695" lon="-8.347337">
<ele>332.0</ele>
<desc>Speed 6.8 km/h Distance 9.64 km</desc>
<time>2011-05-22T07:40:00.54</time>
<name>2533</name>
<sym>Dot</sym>
</trkpt>
<trkpt lat="40.028677" lon="-8.347328">
<ele>331.5</ele>
<desc>Speed 6.5 km/h Distance 9.64 km</desc>
<time>2011-05-22T07:40:01.53</time>
<name>2534</name>
<sym>Dot</sym>
</trkpt>
<trkpt lat="40.028658" lon="-8.347320">
<ele>331.5</ele>
<desc>Speed 6.4 km/h Distance 9.64 km</desc>
<time>2011-05-22T07:40:02.53</time>
<name>2535</name>
<sym>Dot</sym>
</trkpt>
<trkpt lat="40.028638" lon="-8.347310">
<ele>331.0</ele>
<desc>Speed 6.3 km/h Distance 9.65 km</desc>
<time>2011-05-22T07:40:03.53</time>
<name>2536</name>
<sym>Dot</sym>
</trkpt>
<trkpt lat="40.028622" lon="-8.347302">
<ele>331.5</ele>
<desc>Speed 6.0 km/h Distance 9.65 km</desc>
<time>2011-05-22T07:40:04.53</time>
<name>2537</name>
<sym>Dot</sym>
</trkpt>
<trkpt lat="40.028605" lon="-8.347293">
<ele>331.5</ele>
<desc>Speed 6.4 km/h Distance 9.65 km</desc>
<time>2011-05-22T07:40:05.53</time>
<name>2538</name>
<sym>Dot</sym>
</trkpt>
<trkpt lat="40.028587" lon="-8.347288">
<ele>331.5</ele>
<desc>Speed 6.2 km/h Distance 9.65 km</desc>
<time>2011-05-22T07:40:06.53</time>
<name>2539</name>
<sym>Dot</sym>
</trkpt>
<trkpt lat="40.028568" lon="-8.347287">
<ele>331.5</ele>
<desc>Speed 6.4 km/h Distance 9.65 km</desc>
<time>2011-05-22T07:40:07.52</time>
<name>2540</name>
<sym>Dot</sym>
</trkpt>
<trkpt lat="40.028550" lon="-8.347282">
<ele>331.5</ele>
<desc>Speed 6.3 km/h Distance 9.66 km</desc>
<time>2011-05-22T07:40:08.52</time>
<name>2541</name>
<sym>Dot</sym>
</trkpt>
<trkpt lat="40.028532" lon="-8.347275">
<ele>332.0</ele>
<desc>Speed 6.4 km/h Distance 9.66 km</desc>
<time>2011-05-22T07:40:09.52</time>
<name>2542</name>
<sym>Dot</sym>
</trkpt>
<trkpt lat="40.028515" lon="-8.347270">
<ele>332.0</ele>
<desc>Speed 5.9 km/h Distance 9.66 km</desc>
<time>2011-05-22T07:40:10.51</time>
<name>2543</name>
<sym>Dot</sym>
</trkpt>
<trkpt lat="40.028500" lon="-8.347265">
<ele>332.5</ele>
<desc>Speed 5.8 km/h Distance 9.66 km</desc>
<time>2011-05-22T07:40:11.50</time>
<name>2544</name>
<sym>Dot</sym>
</trkpt>
<trkpt lat="40.028482" lon="-8.347258">
<ele>333.0</ele>
<desc>Speed 6.2 km/h Distance 9.66 km</desc>
<time>2011-05-22T07:40:12.50</time>
<name>2545</name>
<sym>Dot</sym>
</trkpt>
<trkpt lat="40.028465" lon="-8.347252">
<ele>333.0</ele>
<desc>Speed 6.4 km/h Distance 9.67 km</desc>
<time>2011-05-22T07:40:13.50</time>
<name>2546</name>
<sym>Dot</sym>
</trkpt>
<trkpt lat="40.028450" lon="-8.347245">
<ele>333.0</ele>
<desc>Speed 5.9 km/h Distance 9.67 km</desc>
<time>2011-05-22T07:40:14.49</time>
<name>2547</name>
<sym>Dot</sym>
</trkpt>
<trkpt lat="40.028433" lon="-8.347238">
<ele>333.0</ele>
<desc>Speed 6.0 km/h Distance 9.67 km</desc>
<time>2011-05-22T07:40:15.49</time>
<name>2548</name>
<sym>Dot</sym>
</trkpt>
<trkpt lat="40.028417" lon="-8.347232">
<ele>333.5</ele>
<desc>Speed 6.3 km/h Distance 9.67 km</desc>
<time>2011-05-22T07:40:16.49</time>
<name>2549</name>
<sym>Dot</sym>
</trkpt>
<trkpt lat="40.028400" lon="-8.347227">
<ele>333.5</ele>
<desc>Speed 6.4 km/h Distance 9.67 km</desc>
<time>2011-05-22T07:40:17.49</time>
<name>2550</name>
<sym>Dot</sym>
</trkpt>
<trkpt lat="40.028382" lon="-8.347220">
<ele>333.5</ele>
<desc>Speed 6.7 km/h Distance 9.68 km</desc>
<time>2011-05-22T07:40:18.49</time>
<name>2551</name>
<sym>Dot</sym>
</trkpt>
<trkpt lat="40.028363" lon="-8.347213">
<ele>333.5</ele>
<desc>Speed 6.8 km/h Distance 9.68 km</desc>
<time>2011-05-22T07:40:19.49</time>
<name>2552</name>
<sym>Dot</sym>
</trkpt>
<trkpt lat="40.028347" lon="-8.347210">
<ele>334.0</ele>
<desc>Speed 6.4 km/h Distance 9.68 km</desc>
<time>2011-05-22T07:40:20.48</time>
<name>2553</name>
<sym>Dot</sym>
</trkpt>
<trkpt lat="40.028330" lon="-8.347205">
<ele>334.0</ele>
<desc>Speed 6.2 km/h Distance 9.68 km</desc>
<time>2011-05-22T07:40:21.48</time>
<name>2554</name>
<sym>Dot</sym>
</trkpt>
<trkpt lat="40.028313" lon="-8.347200">
<ele>334.0</ele>
<desc>Speed 6.0 km/h Distance 9.68 km</desc>
<time>2011-05-22T07:40:22.48</time>
<name>2555</name>
<sym>Dot</sym>
</trkpt>
<trkpt lat="40.028297" lon="-8.347193">
<ele>334.5</ele>
<desc>Speed 5.9 km/h Distance 9.69 km</desc>
<time>2011-05-22T07:40:23.48</time>
<name>2556</name>
<sym>Dot</sym>
</trkpt>
<trkpt lat="40.028280" lon="-8.347188">
<ele>335.0</ele>
<desc>Speed 6.2 km/h Distance 9.69 km</desc>
<time>2011-05-22T07:40:24.47</time>
<name>2557</name>
<sym>Dot</sym>
</trkpt>
<trkpt lat="40.028265" lon="-8.347183">
<ele>335.0</ele>
<desc>Speed 5.5 km/h Distance 9.69 km</desc>
<time>2011-05-22T07:40:25.46</time>
<name>2558</name>
<sym>Dot</sym>
</trkpt>
<trkpt lat="40.028252" lon="-8.347177">
<ele>335.5</ele>
<desc>Speed 4.3 km/h Distance 9.69 km</desc>
<time>2011-05-22T07:40:26.46</time>
<name>2559</name>
<sym>Dot</sym>
</trkpt>
<trkpt lat="40.028238" lon="-8.347168">
<ele>336.0</ele>
<desc>Speed 4.5 km/h Distance 9.69 km</desc>
<time>2011-05-22T07:40:27.45</time>
<name>2560</name>
<sym>Dot</sym>
</trkpt>
<trkpt lat="40.028223" lon="-8.347157">
<ele>336.0</ele>
<desc>Speed 5.5 km/h Distance 9.69 km</desc>
<time>2011-05-22T07:40:28.45</time>
<name>2561</name>
<sym>Dot</sym>
</trkpt>
<trkpt lat="40.028208" lon="-8.347150">
<ele>336.0</ele>
<desc>Speed 6.1 km/h Distance 9.70 km</desc>
<time>2011-05-22T07:40:29.44</time>
<name>2562</name>
<sym>Dot</sym>
</trkpt>
<trkpt lat="40.028192" lon="-8.347145">
<ele>336.5</ele>
<desc>Speed 6.0 km/h Distance 9.70 km</desc>
<time>2011-05-22T07:40:30.43</time>
<name>2563</name>
<sym>Dot</sym>
</trkpt>
<trkpt lat="40.028175" lon="-8.347138">
<ele>336.5</ele>
<desc>Speed 6.1 km/h Distance 9.70 km</desc>
<time>2011-05-22T07:40:31.43</time>
<name>2564</name>
<sym>Dot</sym>
</trkpt>
<trkpt lat="40.028158" lon="-8.347130">
<ele>336.5</ele>
<desc>Speed 6.5 km/h Distance 9.70 km</desc>
<time>2011-05-22T07:40:32.42</time>
<name>2565</name>
<sym>Dot</sym>
</trkpt>
<trkpt lat="40.028142" lon="-8.347123">
<ele>336.5</ele>
<desc>Speed 6.3 km/h Distance 9.70 km</desc>
<time>2011-05-22T07:40:33.42</time>
<name>2566</name>
<sym>Dot</sym>
</trkpt>
<trkpt lat="40.028125" lon="-8.347113">
<ele>337.0</ele>
<desc>Speed 7.0 km/h Distance 9.71 km</desc>
<time>2011-05-22T07:40:34.42</time>
<name>2567</name>
<sym>Dot</sym>
</trkpt>
<trkpt lat="40.028107" lon="-8.347105">
<ele>337.0</ele>
<desc>Speed 6.8 km/h Distance 9.71 km</desc>
<time>2011-05-22T07:40:35.41</time>
<name>2568</name>
<sym>Dot</sym>
</trkpt>
<trkpt lat="40.028088" lon="-8.347097">
<ele>336.5</ele>
<desc>Speed 7.2 km/h Distance 9.71 km</desc>
<time>2011-05-22T07:40:36.41</time>
<name>2569</name>
<sym>Dot</sym>
</trkpt>
<trkpt lat="40.028070" lon="-8.347088">
<ele>336.5</ele>
<desc>Speed 7.4 km/h Distance 9.71 km</desc>
<time>2011-05-22T07:40:37.41</time>
<name>2570</name>
<sym>Dot</sym>
</trkpt>
<trkpt lat="40.028052" lon="-8.347078">
<ele>336.5</ele>
<desc>Speed 7.4 km/h Distance 9.71 km</desc>
<time>2011-05-22T07:40:38.41</time>
<name>2571</name>
<sym>Dot</sym>
</trkpt>
<trkpt lat="40.028035" lon="-8.347070">
<ele>337.0</ele>
<desc>Speed 7.4 km/h Distance 9.72 km</desc>
<time>2011-05-22T07:40:39.40</time>
<name>2572</name>
<sym>Dot</sym>
</trkpt>
<trkpt lat="40.028017" lon="-8.347062">
<ele>337.0</ele>
<desc>Speed 7.3 km/h Distance 9.72 km</desc>
<time>2011-05-22T07:40:40.40</time>
<name>2573</name>
<sym>Dot</sym>
</trkpt>
<trkpt lat="40.027998" lon="-8.347052">
<ele>337.0</ele>
<desc>Speed 7.3 km/h Distance 9.72 km</desc>
<time>2011-05-22T07:40:41.39</time>
<name>2574</name>
<sym>Dot</sym>
</trkpt>
<trkpt lat="40.027980" lon="-8.347042">
<ele>337.0</ele>
<desc>Speed 7.3 km/h Distance 9.72 km</desc>
<time>2011-05-22T07:40:42.39</time>
<name>2575</name>
<sym>Dot</sym>
</trkpt>
<trkpt lat="40.027962" lon="-8.347032">
<ele>337.5</ele>
<desc>Speed 6.9 km/h Distance 9.72 km</desc>
<time>2011-05-22T07:40:43.38</time>
<name>2576</name>
<sym>Dot</sym>
</trkpt>
<trkpt lat="40.027945" lon="-8.347020">
<ele>337.5</ele>
<desc>Speed 7.3 km/h Distance 9.73 km</desc>
<time>2011-05-22T07:40:44.38</time>
<name>2577</name>
<sym>Dot</sym>
</trkpt>
<trkpt lat="40.027927" lon="-8.347008">
<ele>337.5</ele>
<desc>Speed 7.1 km/h Distance 9.73 km</desc>
<time>2011-05-22T07:40:45.38</time>
<name>2578</name>
<sym>Dot</sym>
</trkpt>
<trkpt lat="40.027910" lon="-8.346997">
<ele>337.5</ele>
<desc>Speed 6.8 km/h Distance 9.73 km</desc>
<time>2011-05-22T07:40:46.38</time>
<name>2579</name>
<sym>Dot</sym>
</trkpt>
<trkpt lat="40.027895" lon="-8.346985">
<ele>337.5</ele>
<desc>Speed 6.8 km/h Distance 9.73 km</desc>
<time>2011-05-22T07:40:47.37</time>
<name>2580</name>
<sym>Dot</sym>
</trkpt>
<trkpt lat="40.027878" lon="-8.346972">
<ele>337.5</ele>
<desc>Speed 7.2 km/h Distance 9.74 km</desc>
<time>2011-05-22T07:40:48.37</time>
<name>2581</name>
<sym>Dot</sym>
</trkpt>
<trkpt lat="40.027860" lon="-8.346962">
<ele>337.5</ele>
<desc>Speed 6.7 km/h Distance 9.74 km</desc>
<time>2011-05-22T07:40:49.37</time>
<name>2582</name>
<sym>Dot</sym>
</trkpt>
<trkpt lat="40.027843" lon="-8.346955">
<ele>337.5</ele>
<desc>Speed 6.7 km/h Distance 9.74 km</desc>
<time>2011-05-22T07:40:50.36</time>
<name>2583</name>
<sym>Dot</sym>
</trkpt>
<trkpt lat="40.027827" lon="-8.346945">
<ele>337.5</ele>
<desc>Speed 7.1 km/h Distance 9.74 km</desc>
<time>2011-05-22T07:40:51.36</time>
<name>2584</name>
<sym>Dot</sym>
</trkpt>
<trkpt lat="40.027808" lon="-8.346935">
<ele>338.0</ele>
<desc>Speed 7.3 km/h Distance 9.74 km</desc>
<time>2011-05-22T07:40:52.35</time>
<name>2585</name>
<sym>Dot</sym>
</trkpt>
<trkpt lat="40.027790" lon="-8.346922">
<ele>337.5</ele>
<desc>Speed 7.3 km/h Distance 9.75 km</desc>
<time>2011-05-22T07:40:53.35</time>
<name>2586</name>
<sym>Dot</sym>
</trkpt>
<trkpt lat="40.027773" lon="-8.346910">
<ele>337.5</ele>
<desc>Speed 7.2 km/h Distance 9.75 km</desc>
<time>2011-05-22T07:40:54.35</time>
<name>2587</name>
<sym>Dot</sym>
</trkpt>
<trkpt lat="40.027757" lon="-8.346897">
<ele>337.5</ele>
<desc>Speed 6.8 km/h Distance 9.75 km</desc>
<time>2011-05-22T07:40:55.34</time>
<name>2588</name>
<sym>Dot</sym>
</trkpt>
<trkpt lat="40.027742" lon="-8.346882">
<ele>337.5</ele>
<desc>Speed 7.1 km/h Distance 9.75 km</desc>
<time>2011-05-22T07:40:56.33</time>
<name>2589</name>
<sym>Dot</sym>
</trkpt>
<trkpt lat="40.027723" lon="-8.346868">
<ele>337.5</ele>
<desc>Speed 7.2 km/h Distance 9.76 km</desc>
<time>2011-05-22T07:40:57.33</time>
<name>2590</name>
<sym>Dot</sym>
</trkpt>
<trkpt lat="40.027708" lon="-8.346855">
<ele>337.5</ele>
<desc>Speed 7.2 km/h Distance 9.76 km</desc>
<time>2011-05-22T07:40:58.33</time>
<name>2591</name>
<sym>Dot</sym>
</trkpt>
<trkpt lat="40.027692" lon="-8.346843">
<ele>337.5</ele>
<desc>Speed 7.1 km/h Distance 9.76 km</desc>
<time>2011-05-22T07:40:59.32</time>
<name>2592</name>
<sym>Dot</sym>
</trkpt>
<trkpt lat="40.027675" lon="-8.346830">
<ele>337.5</ele>
<desc>Speed 7.2 km/h Distance 9.76 km</desc>
<time>2011-05-22T07:41:00.31</time>
<name>2593</name>
<sym>Dot</sym>
</trkpt>
<trkpt lat="40.027653" lon="-8.346815">
<ele>337.5</ele>
<desc>Speed 7.2 km/h Distance 9.76 km</desc>
<time>2011-05-22T07:41:01.31</time>
<name>2594</name>
<sym>Dot</sym>
</trkpt>
<trkpt lat="40.027633" lon="-8.346802">
<ele>337.5</ele>
<desc>Speed 7.5 km/h Distance 9.77 km</desc>
<time>2011-05-22T07:41:02.31</time>
<name>2595</name>
<sym>Dot</sym>
</trkpt>
<trkpt lat="40.027615" lon="-8.346788">
<ele>337.5</ele>
<desc>Speed 7.3 km/h Distance 9.77 km</desc>
<time>2011-05-22T07:41:03.30</time>
<name>2596</name>
<sym>Dot</sym>
</trkpt>
<trkpt lat="40.027597" lon="-8.346775">
<ele>337.5</ele>
<desc>Speed 7.0 km/h Distance 9.77 km</desc>
<time>2011-05-22T07:41:04.30</time>
<name>2597</name>
<sym>Dot</sym>
</trkpt>
<trkpt lat="40.027580" lon="-8.346763">
<ele>337.0</ele>
<desc>Speed 6.4 km/h Distance 9.77 km</desc>
<time>2011-05-22T07:41:05.30</time>
<name>2598</name>
<sym>Dot</sym>
</trkpt>
<trkpt lat="40.027567" lon="-8.346753">
<ele>337.0</ele>
<desc>Speed 5.7 km/h Distance 9.78 km</desc>
<time>2011-05-22T07:41:06.29</time>
<name>2599</name>
<sym>Dot</sym>
</trkpt>
<trkpt lat="40.027555" lon="-8.346745">
<ele>337.0</ele>
<desc>Speed 5.5 km/h Distance 9.78 km</desc>
<time>2011-05-22T07:41:07.29</time>
<name>2600</name>
<sym>Dot</sym>
</trkpt>
<trkpt lat="40.027540" lon="-8.346735">
<ele>337.0</ele>
<desc>Speed 5.9 km/h Distance 9.78 km</desc>
<time>2011-05-22T07:41:08.29</time>
<name>2601</name>
<sym>Dot</sym>
</trkpt>
<trkpt lat="40.027523" lon="-8.346723">
<ele>337.0</ele>
<desc>Speed 6.0 km/h Distance 9.78 km</desc>
<time>2011-05-22T07:41:09.29</time>
<name>2602</name>
<sym>Dot</sym>
</trkpt>
<trkpt lat="40.027507" lon="-8.346712">
<ele>337.0</ele>
<desc>Speed 5.7 km/h Distance 9.78 km</desc>
<time>2011-05-22T07:41:10.29</time>
<name>2603</name>
<sym>Dot</sym>
</trkpt>
<trkpt lat="40.027492" lon="-8.346698">
<ele>337.0</ele>
<desc>Speed 5.9 km/h Distance 9.78 km</desc>
<time>2011-05-22T07:41:11.29</time>
<name>2604</name>
<sym>Dot</sym>
</trkpt>
<trkpt lat="40.027473" lon="-8.346683">
<ele>337.0</ele>
<desc>Speed 6.9 km/h Distance 9.79 km</desc>
<time>2011-05-22T07:41:12.29</time>
<name>2605</name>
<sym>Dot</sym>
</trkpt>
<trkpt lat="40.027458" lon="-8.346668">
<ele>337.0</ele>
<desc>Speed 6.6 km/h Distance 9.79 km</desc>
<time>2011-05-22T07:41:13.29</time>
<name>2606</name>
<sym>Dot</sym>
</trkpt>
<trkpt lat="40.027443" lon="-8.346653">
<ele>337.0</ele>
<desc>Speed 6.7 km/h Distance 9.79 km</desc>
<time>2011-05-22T07:41:14.28</time>
<name>2607</name>
<sym>Dot</sym>
</trkpt>
<trkpt lat="40.027427" lon="-8.346637">
<ele>337.5</ele>
<desc>Speed 7.4 km/h Distance 9.79 km</desc>
<time>2011-05-22T07:41:15.28</time>
<name>2608</name>
<sym>Dot</sym>
</trkpt>
<trkpt lat="40.027408" lon="-8.346618">
<ele>337.5</ele>
<desc>Speed 8.2 km/h Distance 9.80 km</desc>
<time>2011-05-22T07:41:16.27</time>
<name>2609</name>
<sym>Dot</sym>
</trkpt>
<trkpt lat="40.027388" lon="-8.346603">
<ele>337.5</ele>
<desc>Speed 8.6 km/h Distance 9.80 km</desc>
<time>2011-05-22T07:41:17.26</time>
<name>2610</name>
<sym>Dot</sym>
</trkpt>
<trkpt lat="40.027368" lon="-8.346588">
<ele>337.5</ele>
<desc>Speed 8.1 km/h Distance 9.80 km</desc>
<time>2011-05-22T07:41:18.26</time>
<name>2611</name>
<sym>Dot</sym>
</trkpt>
<trkpt lat="40.027350" lon="-8.346572">
<ele>337.5</ele>
<desc>Speed 7.9 km/h Distance 9.80 km</desc>
<time>2011-05-22T07:41:19.26</time>
<name>2612</name>
<sym>Dot</sym>
</trkpt>
<trkpt lat="40.027333" lon="-8.346557">
<ele>338.0</ele>
<desc>Speed 7.5 km/h Distance 9.81 km</desc>
<time>2011-05-22T07:41:20.25</time>
<name>2613</name>
<sym>Dot</sym>
</trkpt>
<trkpt lat="40.027315" lon="-8.346542">
<ele>338.0</ele>
<desc>Speed 7.8 km/h Distance 9.81 km</desc>
<time>2011-05-22T07:41:21.25</time>
<name>2614</name>
<sym>Dot</sym>
</trkpt>
<trkpt lat="40.027298" lon="-8.346527">
<ele>338.0</ele>
<desc>Speed 7.6 km/h Distance 9.81 km</desc>
<time>2011-05-22T07:41:22.25</time>
<name>2615</name>
<sym>Dot</sym>
</trkpt>
<trkpt lat="40.027282" lon="-8.346517">
<ele>339.0</ele>
<desc>Speed 6.4 km/h Distance 9.81 km</desc>
<time>2011-05-22T07:41:23.25</time>
<name>2616</name>
<sym>Dot</sym>
</trkpt>
<trkpt lat="40.027265" lon="-8.346507">
<ele>339.5</ele>
<desc>Speed 6.6 km/h Distance 9.81 km</desc>
<time>2011-05-22T07:41:24.24</time>
<name>2617</name>
<sym>Dot</sym>
</trkpt>
<trkpt lat="40.027250" lon="-8.346495">
<ele>340.0</ele>
<desc>Speed 6.4 km/h Distance 9.82 km</desc>
<time>2011-05-22T07:41:25.24</time>
<name>2618</name>
<sym>Dot</sym>
</trkpt>
<trkpt lat="40.027235" lon="-8.346482">
<ele>340.0</ele>
<desc>Speed 6.7 km/h Distance 9.82 km</desc>
<time>2011-05-22T07:41:26.23</time>
<name>2619</name>
<sym>Dot</sym>
</trkpt>
<trkpt lat="40.027223" lon="-8.346470">
<ele>340.5</ele>
<desc>Speed 5.4 km/h Distance 9.82 km</desc>
<time>2011-05-22T07:41:27.23</time>
<name>2620</name>
<sym>Dot</sym>
</trkpt>
<trkpt lat="40.027210" lon="-8.346460">
<ele>341.5</ele>
<desc>Speed 5.2 km/h Distance 9.82 km</desc>
<time>2011-05-22T07:41:28.22</time>
<name>2621</name>
<sym>Dot</sym>
</trkpt>
<trkpt lat="40.027197" lon="-8.346448">
<ele>342.0</ele>
<desc>Speed 5.9 km/h Distance 9.82 km</desc>
<time>2011-05-22T07:41:29.22</time>
<name>2622</name>
<sym>Dot</sym>
</trkpt>
<trkpt lat="40.027182" lon="-8.346435">
<ele>342.5</ele>
<desc>Speed 6.1 km/h Distance 9.83 km</desc>
<time>2011-05-22T07:41:30.22</time>
<name>2623</name>
<sym>Dot</sym>
</trkpt>
<trkpt lat="40.027170" lon="-8.346422">
<ele>343.0</ele>
<desc>Speed 6.1 km/h Distance 9.83 km</desc>
<time>2011-05-22T07:41:31.21</time>
<name>2624</name>
<sym>Dot</sym>
</trkpt>
<trkpt lat="40.027155" lon="-8.346410">
<ele>343.5</ele>
<desc>Speed 5.9 km/h Distance 9.83 km</desc>
<time>2011-05-22T07:41:32.20</time>
<name>2625</name>
<sym>Dot</sym>
</trkpt>
<trkpt lat="40.027143" lon="-8.346398">
<ele>344.0</ele>
<desc>Speed 6.0 km/h Distance 9.83 km</desc>
<time>2011-05-22T07:41:33.19</time>
<name>2626</name>
<sym>Dot</sym>
</trkpt>
<trkpt lat="40.027128" lon="-8.346387">
<ele>344.5</ele>
<desc>Speed 5.8 km/h Distance 9.83 km</desc>
<time>2011-05-22T07:41:34.19</time>
<name>2627</name>
<sym>Dot</sym>
</trkpt>
<trkpt lat="40.027115" lon="-8.346377">
<ele>345.0</ele>
<desc>Speed 5.4 km/h Distance 9.83 km</desc>
<time>2011-05-22T07:41:35.19</time>
<name>2628</name>
<sym>Dot</sym>
</trkpt>
<trkpt lat="40.027105" lon="-8.346363">
<ele>345.5</ele>
<desc>Speed 5.0 km/h Distance 9.84 km</desc>
<time>2011-05-22T07:41:36.19</time>
<name>2629</name>
<sym>Dot</sym>
</trkpt>
<trkpt lat="40.027092" lon="-8.346350">
<ele>346.0</ele>
<desc>Speed 5.8 km/h Distance 9.84 km</desc>
<time>2011-05-22T07:41:37.19</time>
<name>2630</name>
<sym>Dot</sym>
</trkpt>
<trkpt lat="40.027078" lon="-8.346337">
<ele>346.5</ele>
<desc>Speed 5.6 km/h Distance 9.84 km</desc>
<time>2011-05-22T07:41:38.19</time>
<name>2631</name>
<sym>Dot</sym>
</trkpt>
<trkpt lat="40.027067" lon="-8.346325">
<ele>346.5</ele>
<desc>Speed 5.4 km/h Distance 9.84 km</desc>
<time>2011-05-22T07:41:39.18</time>
<name>2632</name>
<sym>Dot</sym>
</trkpt>
<trkpt lat="40.027058" lon="-8.346312">
<ele>347.0</ele>
<desc>Speed 5.0 km/h Distance 9.84 km</desc>
<time>2011-05-22T07:41:40.19</time>
<name>2633</name>
<sym>Dot</sym>
</trkpt>
<trkpt lat="40.027047" lon="-8.346300">
<ele>347.5</ele>
<desc>Speed 5.4 km/h Distance 9.84 km</desc>
<time>2011-05-22T07:41:41.18</time>
<name>2634</name>
<sym>Dot</sym>
</trkpt>
<trkpt lat="40.027037" lon="-8.346290">
<ele>348.5</ele>
<desc>Speed 4.9 km/h Distance 9.85 km</desc>
<time>2011-05-22T07:41:42.18</time>
<name>2635</name>
<sym>Dot</sym>
</trkpt>
<trkpt lat="40.027025" lon="-8.346278">
<ele>349.5</ele>
<desc>Speed 5.9 km/h Distance 9.85 km</desc>
<time>2011-05-22T07:41:43.17</time>
<name>2636</name>
<sym>Dot</sym>
</trkpt>
<trkpt lat="40.027017" lon="-8.346265">
<ele>350.5</ele>
<desc>Speed 4.5 km/h Distance 9.85 km</desc>
<time>2011-05-22T07:41:44.17</time>
<name>2637</name>
<sym>Dot</sym>
</trkpt>
<trkpt lat="40.027005" lon="-8.346253">
<ele>351.5</ele>
<desc>Speed 5.3 km/h Distance 9.85 km</desc>
<time>2011-05-22T07:41:45.17</time>
<name>2638</name>
<sym>Dot</sym>
</trkpt>
<trkpt lat="40.026987" lon="-8.346238">
<ele>351.0</ele>
<desc>Speed 8.1 km/h Distance 9.85 km</desc>
<time>2011-05-22T07:41:46.17</time>
<name>2639</name>
<sym>Dot</sym>
</trkpt>
<trkpt lat="40.026972" lon="-8.346223">
<ele>351.0</ele>
<desc>Speed 6.8 km/h Distance 9.86 km</desc>
<time>2011-05-22T07:41:47.16</time>
<name>2640</name>
<sym>Dot</sym>
</trkpt>
<trkpt lat="40.026955" lon="-8.346205">
<ele>350.5</ele>
<desc>Speed 8.2 km/h Distance 9.86 km</desc>
<time>2011-05-22T07:41:48.15</time>
<name>2641</name>
<sym>Dot</sym>
</trkpt>
<trkpt lat="40.026937" lon="-8.346187">
<ele>350.0</ele>
<desc>Speed 7.9 km/h Distance 9.86 km</desc>
<time>2011-05-22T07:41:49.15</time>
<name>2642</name>
<sym>Dot</sym>
</trkpt>
<trkpt lat="40.026922" lon="-8.346170">
<ele>350.0</ele>
<desc>Speed 7.4 km/h Distance 9.86 km</desc>
<time>2011-05-22T07:41:50.14</time>
<name>2643</name>
<sym>Dot</sym>
</trkpt>
<trkpt lat="40.026912" lon="-8.346158">
<ele>351.0</ele>
<desc>Speed 5.0 km/h Distance 9.86 km</desc>
<time>2011-05-22T07:41:51.14</time>
<name>2644</name>
<sym>Dot</sym>
</trkpt>
<trkpt lat="40.026897" lon="-8.346143">
<ele>351.0</ele>
<desc>Speed 7.2 km/h Distance 9.87 km</desc>
<time>2011-05-22T07:41:52.13</time>
<name>2645</name>
<sym>Dot</sym>
</trkpt>
<trkpt lat="40.026880" lon="-8.346130">
<ele>351.0</ele>
<desc>Speed 7.5 km/h Distance 9.87 km</desc>
<time>2011-05-22T07:41:53.13</time>
<name>2646</name>
<sym>Dot</sym>
</trkpt>
<trkpt lat="40.026867" lon="-8.346115">
<ele>351.5</ele>
<desc>Speed 6.4 km/h Distance 9.87 km</desc>
<time>2011-05-22T07:41:54.12</time>
<name>2647</name>
<sym>Dot</sym>
</trkpt>
<trkpt lat="40.026853" lon="-8.346102">
<ele>352.5</ele>
<desc>Speed 5.9 km/h Distance 9.87 km</desc>
<time>2011-05-22T07:41:55.12</time>
<name>2648</name>
<sym>Dot</sym>
</trkpt>
<trkpt lat="40.026838" lon="-8.346088">
<ele>353.0</ele>
<desc>Speed 6.8 km/h Distance 9.87 km</desc>
<time>2011-05-22T07:41:56.11</time>
<name>2649</name>
<sym>Dot</sym>
</trkpt>
<trkpt lat="40.026827" lon="-8.346077">
<ele>353.5</ele>
<desc>Speed 5.8 km/h Distance 9.88 km</desc>
<time>2011-05-22T07:41:57.11</time>
<name>2650</name>
<sym>Dot</sym>
</trkpt>
<trkpt lat="40.026813" lon="-8.346063">
<ele>354.0</ele>
<desc>Speed 6.2 km/h Distance 9.88 km</desc>
<time>2011-05-22T07:41:58.12</time>
<name>2651</name>
<sym>Dot</sym>
</trkpt>
<trkpt lat="40.026802" lon="-8.346050">
<ele>354.5</ele>
<desc>Speed 5.4 km/h Distance 9.88 km</desc>
<time>2011-05-22T07:41:59.11</time>
<name>2652</name>
<sym>Dot</sym>
</trkpt>
<trkpt lat="40.026790" lon="-8.346038">
<ele>355.5</ele>
<desc>Speed 5.8 km/h Distance 9.88 km</desc>
<time>2011-05-22T07:42:00.11</time>
<name>2653</name>
<sym>Dot</sym>
</trkpt>
<trkpt lat="40.026778" lon="-8.346027">
<ele>357.0</ele>
<desc>Speed 5.7 km/h Distance 9.88 km</desc>
<time>2011-05-22T07:42:01.11</time>
<name>2654</name>
<sym>Dot</sym>
</trkpt>
<trkpt lat="40.026768" lon="-8.346018">
<ele>358.5</ele>
<desc>Speed 4.8 km/h Distance 9.88 km</desc>
<time>2011-05-22T07:42:02.10</time>
<name>2655</name>
<sym>Dot</sym>
</trkpt>
<trkpt lat="40.026753" lon="-8.346008">
<ele>360.0</ele>
<desc>Speed 5.9 km/h Distance 9.89 km</desc>
<time>2011-05-22T07:42:03.09</time>
<name>2656</name>
<sym>Dot</sym>
</trkpt>
<trkpt lat="40.026742" lon="-8.345998">
<ele>362.0</ele>
<desc>Speed 4.6 km/h Distance 9.89 km</desc>
<time>2011-05-22T07:42:04.10</time>
<name>2657</name>
<sym>Dot</sym>
</trkpt>
<trkpt lat="40.026727" lon="-8.345988">
<ele>363.5</ele>
<desc>Speed 6.3 km/h Distance 9.89 km</desc>
<time>2011-05-22T07:42:05.09</time>
<name>2658</name>
<sym>Dot</sym>
</trkpt>
<trkpt lat="40.026713" lon="-8.345975">
<ele>363.0</ele>
<desc>Speed 5.0 km/h Distance 9.89 km</desc>
<time>2011-05-22T07:42:06.10</time>
<name>2659</name>
<sym>Dot</sym>
</trkpt>
<trkpt lat="40.026692" lon="-8.345955">
<ele>363.0</ele>
<desc>Speed 9.1 km/h Distance 9.89 km</desc>
<time>2011-05-22T07:42:07.09</time>
<name>2660</name>
<sym>Dot</sym>
</trkpt>
<trkpt lat="40.026672" lon="-8.345945">
<ele>363.0</ele>
<desc>Speed 8.1 km/h Distance 9.90 km</desc>
<time>2011-05-22T07:42:08.09</time>
<name>2661</name>
<sym>Dot</sym>
</trkpt>
<trkpt lat="40.026650" lon="-8.345930">
<ele>362.5</ele>
<desc>Speed 9.0 km/h Distance 9.90 km</desc>
<time>2011-05-22T07:42:09.08</time>
<name>2662</name>
<sym>Dot</sym>
</trkpt>
<trkpt lat="40.026628" lon="-8.345913">
<ele>362.5</ele>
<desc>Speed 9.2 km/h Distance 9.90 km</desc>
<time>2011-05-22T07:42:10.07</time>
<name>2663</name>
<sym>Dot</sym>
</trkpt>
<trkpt lat="40.026607" lon="-8.345898">
<ele>362.5</ele>
<desc>Speed 9.2 km/h Distance 9.90 km</desc>
<time>2011-05-22T07:42:11.08</time>
<name>2664</name>
<sym>Dot</sym>
</trkpt>
<trkpt lat="40.026583" lon="-8.345882">
<ele>362.0</ele>
<desc>Speed 9.3 km/h Distance 9.91 km</desc>
<time>2011-05-22T07:42:12.07</time>
<name>2665</name>
<sym>Dot</sym>
</trkpt>
<trkpt lat="40.026560" lon="-8.345863">
<ele>361.5</ele>
<desc>Speed 9.1 km/h Distance 9.91 km</desc>
<time>2011-05-22T07:42:13.07</time>
<name>2666</name>
<sym>Dot</sym>
</trkpt>
<trkpt lat="40.026537" lon="-8.345847">
<ele>361.0</ele>
<desc>Speed 8.7 km/h Distance 9.91 km</desc>
<time>2011-05-22T07:42:14.06</time>
<name>2667</name>
<sym>Dot</sym>
</trkpt>
<trkpt lat="40.026517" lon="-8.345835">
<ele>361.0</ele>
<desc>Speed 8.6 km/h Distance 9.92 km</desc>
<time>2011-05-22T07:42:15.06</time>
<name>2668</name>
<sym>Dot</sym>
</trkpt>
<trkpt lat="40.026492" lon="-8.345812">
<ele>359.0</ele>
<desc>Speed 8.6 km/h Distance 9.92 km</desc>
<time>2011-05-22T07:42:16.05</time>
<name>2669</name>
<sym>Dot</sym>
</trkpt>
<trkpt lat="40.026468" lon="-8.345798">
<ele>358.0</ele>
<desc>Speed 8.8 km/h Distance 9.92 km</desc>
<time>2011-05-22T07:42:17.05</time>
<name>2670</name>
<sym>Dot</sym>
</trkpt>
<trkpt lat="40.026442" lon="-8.345783">
<ele>358.0</ele>
<desc>Speed 9.7 km/h Distance 9.93 km</desc>
<time>2011-05-22T07:42:18.04</time>
<name>2671</name>
<sym>Dot</sym>
</trkpt>
<trkpt lat="40.026415" lon="-8.345767">
<ele>356.5</ele>
<desc>Speed 9.4 km/h Distance 9.93 km</desc>
<time>2011-05-22T07:42:19.03</time>
<name>2672</name>
<sym>Dot</sym>
</trkpt>
<trkpt lat="40.026390" lon="-8.345752">
<ele>355.5</ele>
<desc>Speed 9.0 km/h Distance 9.93 km</desc>
<time>2011-05-22T07:42:20.03</time>
<name>2673</name>
<sym>Dot</sym>
</trkpt>
<trkpt lat="40.026365" lon="-8.345735">
<ele>354.0</ele>
<desc>Speed 8.9 km/h Distance 9.94 km</desc>
<time>2011-05-22T07:42:21.02</time>
<name>2674</name>
<sym>Dot</sym>
</trkpt>
<trkpt lat="40.026340" lon="-8.345718">
<ele>352.5</ele>
<desc>Speed 9.2 km/h Distance 9.94 km</desc>
<time>2011-05-22T07:42:22.03</time>
<name>2675</name>
<sym>Dot</sym>
</trkpt>
<trkpt lat="40.026312" lon="-8.345703">
<ele>351.0</ele>
<desc>Speed 9.6 km/h Distance 9.94 km</desc>
<time>2011-05-22T07:42:23.03</time>
<name>2676</name>
<sym>Dot</sym>
</trkpt>
<trkpt lat="40.026283" lon="-8.345688">
<ele>349.5</ele>
<desc>Speed 9.5 km/h Distance 9.95 km</desc>
<time>2011-05-22T07:42:24.01</time>
<name>2677</name>
<sym>Dot</sym>
</trkpt>
<trkpt lat="40.026258" lon="-8.345673">
<ele>348.5</ele>
<desc>Speed 9.1 km/h Distance 9.95 km</desc>
<time>2011-05-22T07:42:25.01</time>
<name>2678</name>
<sym>Dot</sym>
</trkpt>
<trkpt lat="40.026232" lon="-8.345660">
<ele>348.0</ele>
<desc>Speed 8.8 km/h Distance 9.95 km</desc>
<time>2011-05-22T07:42:26.00</time>
<name>2679</name>
<sym>Dot</sym>
</trkpt>
<trkpt lat="40.026205" lon="-8.345652">
<ele>347.5</ele>
<desc>Speed 9.3 km/h Distance 9.95 km</desc>
<time>2011-05-22T07:42:26.99</time>
<name>2680</name>
<sym>Dot</sym>
</trkpt>
<trkpt lat="40.026178" lon="-8.345645">
<ele>347.0</ele>
<desc>Speed 9.5 km/h Distance 9.96 km</desc>
<time>2011-05-22T07:42:27.99</time>
<name>2681</name>
<sym>Dot</sym>
</trkpt>
<trkpt lat="40.026152" lon="-8.345638">
<ele>346.5</ele>
<desc>Speed 9.3 km/h Distance 9.96 km</desc>
<time>2011-05-22T07:42:28.98</time>
<name>2682</name>
<sym>Dot</sym>
</trkpt>
<trkpt lat="40.026123" lon="-8.345633">
<ele>346.0</ele>
<desc>Speed 10.0 km/h Distance 9.96 km</desc>
<time>2011-05-22T07:42:29.98</time>
<name>2683</name>
<sym>Dot</sym>
</trkpt>
<trkpt lat="40.026093" lon="-8.345628">
<ele>345.5</ele>
<desc>Speed 10.0 km/h Distance 9.97 km</desc>
<time>2011-05-22T07:42:30.98</time>
<name>2684</name>
<sym>Dot</sym>
</trkpt>
<trkpt lat="40.026065" lon="-8.345625">
<ele>345.5</ele>
<desc>Speed 10.0 km/h Distance 9.97 km</desc>
<time>2011-05-22T07:42:31.98</time>
<name>2685</name>
<sym>Dot</sym>
</trkpt>
<trkpt lat="40.026035" lon="-8.345620">
<ele>345.0</ele>
<desc>Speed 10.2 km/h Distance 9.97 km</desc>
<time>2011-05-22T07:42:32.97</time>
<name>2686</name>
<sym>Dot</sym>
</trkpt>
<trkpt lat="40.026005" lon="-8.345617">
<ele>344.5</ele>
<desc>Speed 10.7 km/h Distance 9.98 km</desc>
<time>2011-05-22T07:42:33.97</time>
<name>2687</name>
<sym>Dot</sym>
</trkpt>
<trkpt lat="40.025975" lon="-8.345615">
<ele>344.5</ele>
<desc>Speed 10.8 km/h Distance 9.98 km</desc>
<time>2011-05-22T07:42:34.96</time>
<name>2688</name>
<sym>Dot</sym>
</trkpt>
<trkpt lat="40.025945" lon="-8.345615">
<ele>344.0</ele>
<desc>Speed 10.8 km/h Distance 9.98 km</desc>
<time>2011-05-22T07:42:35.96</time>
<name>2689</name>
<sym>Dot</sym>
</trkpt>
<trkpt lat="40.025915" lon="-8.345617">
<ele>344.0</ele>
<desc>Speed 10.5 km/h Distance 9.99 km</desc>
<time>2011-05-22T07:42:36.96</time>
<name>2690</name>
<sym>Dot</sym>
</trkpt>
<trkpt lat="40.025888" lon="-8.345620">
<ele>343.5</ele>
<desc>Speed 10.4 km/h Distance 9.99 km</desc>
<time>2011-05-22T07:42:37.95</time>
<name>2691</name>
<sym>Dot</sym>
</trkpt>
<trkpt lat="40.025862" lon="-8.345623">
<ele>343.5</ele>
<desc>Speed 9.8 km/h Distance 9.99 km</desc>
<time>2011-05-22T07:42:38.95</time>
<name>2692</name>
<sym>Dot</sym>
</trkpt>
<trkpt lat="40.025837" lon="-8.345625">
<ele>343.0</ele>
<desc>Speed 8.8 km/h Distance 10.00 km</desc>
<time>2011-05-22T07:42:39.94</time>
<name>2693</name>
<sym>Dot</sym>
</trkpt>
<trkpt lat="40.025813" lon="-8.345628">
<ele>343.0</ele>
<desc>Speed 8.0 km/h Distance 10.00 km</desc>
<time>2011-05-22T07:42:40.94</time>
<name>2694</name>
<sym>Dot</sym>
</trkpt>
<trkpt lat="40.025793" lon="-8.345630">
<ele>342.5</ele>
<desc>Speed 7.4 km/h Distance 10.00 km</desc>
<time>2011-05-22T07:42:41.94</time>
<name>2695</name>
<sym>Dot</sym>
</trkpt>
<trkpt lat="40.025773" lon="-8.345633">
<ele>342.5</ele>
<desc>Speed 7.2 km/h Distance 10.00 km</desc>
<time>2011-05-22T07:42:42.94</time>
<name>2696</name>
<sym>Dot</sym>
</trkpt>
<trkpt lat="40.025755" lon="-8.345640">
<ele>342.5</ele>
<desc>Speed 6.8 km/h Distance 10.01 km</desc>
<time>2011-05-22T07:42:43.94</time>
<name>2697</name>
<sym>Dot</sym>
</trkpt>
<trkpt lat="40.025737" lon="-8.345645">
<ele>342.5</ele>
<desc>Speed 6.8 km/h Distance 10.01 km</desc>
<time>2011-05-22T07:42:44.93</time>
<name>2698</name>
<sym>Dot</sym>
</trkpt>
<trkpt lat="40.025718" lon="-8.345652">
<ele>342.5</ele>
<desc>Speed 7.1 km/h Distance 10.01 km</desc>
<time>2011-05-22T07:42:45.93</time>
<name>2699</name>
<sym>Dot</sym>
</trkpt>
<trkpt lat="40.025700" lon="-8.345657">
<ele>343.0</ele>
<desc>Speed 6.8 km/h Distance 10.01 km</desc>
<time>2011-05-22T07:42:46.92</time>
<name>2700</name>
<sym>Dot</sym>
</trkpt>
<trkpt lat="40.025682" lon="-8.345662">
<ele>342.5</ele>
<desc>Speed 6.7 km/h Distance 10.01 km</desc>
<time>2011-05-22T07:42:47.92</time>
<name>2701</name>
<sym>Dot</sym>
</trkpt>
<trkpt lat="40.025665" lon="-8.345663">
<ele>343.0</ele>
<desc>Speed 6.3 km/h Distance 10.02 km</desc>
<time>2011-05-22T07:42:48.91</time>
<name>2702</name>
<sym>Dot</sym>
</trkpt>
<trkpt lat="40.025647" lon="-8.345670">
<ele>342.5</ele>
<desc>Speed 7.4 km/h Distance 10.02 km</desc>
<time>2011-05-22T07:42:49.90</time>
<name>2703</name>
<sym>Dot</sym>
</trkpt>
<trkpt lat="40.025627" lon="-8.345678">
<ele>342.5</ele>
<desc>Speed 7.8 km/h Distance 10.02 km</desc>
<time>2011-05-22T07:42:50.90</time>
<name>2704</name>
<sym>Dot</sym>
</trkpt>
<trkpt lat="40.025607" lon="-8.345688">
<ele>343.0</ele>
<desc>Speed 8.6 km/h Distance 10.02 km</desc>
<time>2011-05-22T07:42:51.89</time>
<name>2705</name>
<sym>Dot</sym>
</trkpt>
<trkpt lat="40.025583" lon="-8.345698">
<ele>343.0</ele>
<desc>Speed 8.7 km/h Distance 10.02 km</desc>
<time>2011-05-22T07:42:52.89</time>
<name>2706</name>
<sym>Dot</sym>
</trkpt>
<trkpt lat="40.025563" lon="-8.345708">
<ele>343.0</ele>
<desc>Speed 8.8 km/h Distance 10.03 km</desc>
<time>2011-05-22T07:42:53.89</time>
<name>2707</name>
<sym>Dot</sym>
</trkpt>
<trkpt lat="40.025543" lon="-8.345718">
<ele>342.5</ele>
<desc>Speed 8.4 km/h Distance 10.03 km</desc>
<time>2011-05-22T07:42:54.88</time>
<name>2708</name>
<sym>Dot</sym>
</trkpt>
<trkpt lat="40.025520" lon="-8.345730">
<ele>342.5</ele>
<desc>Speed 9.8 km/h Distance 10.03 km</desc>
<time>2011-05-22T07:42:55.88</time>
<name>2709</name>
<sym>Dot</sym>
</trkpt>
<trkpt lat="40.025497" lon="-8.345738">
<ele>342.5</ele>
<desc>Speed 9.2 km/h Distance 10.04 km</desc>
<time>2011-05-22T07:42:56.88</time>
<name>2710</name>
<sym>Dot</sym>
</trkpt>
<trkpt lat="40.025478" lon="-8.345742">
<ele>342.0</ele>
<desc>Speed 7.2 km/h Distance 10.04 km</desc>
<time>2011-05-22T07:42:57.86</time>
<name>2711</name>
<sym>Dot</sym>
</trkpt>
<trkpt lat="40.025463" lon="-8.345748">
<ele>342.0</ele>
<desc>Speed 6.3 km/h Distance 10.04 km</desc>
<time>2011-05-22T07:42:58.86</time>
<name>2712</name>
<sym>Dot</sym>
</trkpt>
<trkpt lat="40.025447" lon="-8.345757">
<ele>342.0</ele>
<desc>Speed 6.7 km/h Distance 10.04 km</desc>
<time>2011-05-22T07:42:59.86</time>
<name>2713</name>
<sym>Dot</sym>
</trkpt>
<trkpt lat="40.025435" lon="-8.345767">
<ele>341.5</ele>
<desc>Speed 5.8 km/h Distance 10.04 km</desc>
<time>2011-05-22T07:43:00.85</time>
<name>2714</name>
<sym>Dot</sym>
</trkpt>
<trkpt lat="40.025425" lon="-8.345777">
<ele>342.0</ele>
<desc>Speed 4.7 km/h Distance 10.04 km</desc>
<time>2011-05-22T07:43:01.85</time>
<name>2715</name>
<sym>Dot</sym>
</trkpt>
<trkpt lat="40.025422" lon="-8.345785">
<ele>342.0</ele>
<desc>Speed 2.8 km/h Distance 10.04 km</desc>
<time>2011-05-22T07:43:02.84</time>
<name>2716</name>
<sym>Dot</sym>
</trkpt>
<trkpt lat="40.025418" lon="-8.345783">
<ele>341.5</ele>
<desc>Speed 2.2 km/h Distance 10.05 km</desc>
<time>2011-05-22T07:43:03.83</time>
<name>2717</name>
<sym>Dot</sym>
</trkpt>
<trkpt lat="40.025390" lon="-8.345782">
<ele>339.5</ele>
<desc>Speed 3.5 km/h Distance 10.05 km</desc>
<time>2011-05-22T07:43:08.84</time>
<name>2718</name>
<sym>Dot</sym>
</trkpt>
<trkpt lat="40.025380" lon="-8.345783">
<ele>339.0</ele>
<desc>Speed 2.8 km/h Distance 10.05 km</desc>
<time>2011-05-22T07:43:09.83</time>
<name>2719</name>
<sym>Dot</sym>
</trkpt>
<trkpt lat="40.025368" lon="-8.345788">
<ele>338.5</ele>
<desc>Speed 3.3 km/h Distance 10.05 km</desc>
<time>2011-05-22T07:43:10.83</time>
<name>2720</name>
<sym>Dot</sym>
</trkpt>
<trkpt lat="40.025360" lon="-8.345795">
<ele>338.0</ele>
<desc>Speed 3.6 km/h Distance 10.05 km</desc>
<time>2011-05-22T07:43:11.82</time>
<name>2721</name>
<sym>Dot</sym>
</trkpt>
<trkpt lat="40.025352" lon="-8.345802">
<ele>338.0</ele>
<desc>Speed 3.3 km/h Distance 10.05 km</desc>
<time>2011-05-22T07:43:12.82</time>
<name>2722</name>
<sym>Dot</sym>
</trkpt>
<trkpt lat="40.025347" lon="-8.345808">
<ele>338.0</ele>
<desc>Speed 2.4 km/h Distance 10.05 km</desc>
<time>2011-05-22T07:43:13.82</time>
<name>2723</name>
<sym>Dot</sym>
</trkpt>
<trkpt lat="40.025342" lon="-8.345812">
<ele>338.0</ele>
<desc>Speed 1.3 km/h Distance 10.05 km</desc>
<time>2011-05-22T07:43:14.82</time>
<name>2724</name>
<sym>Dot</sym>
</trkpt>
<trkpt lat="40.025323" lon="-8.345802">
<ele>335.5</ele>
<desc>Speed 1.4 km/h Distance 10.06 km</desc>
<time>2011-05-22T07:43:34.81</time>
<name>2725</name>
<sym>Dot</sym>
</trkpt>
<trkpt lat="40.025322" lon="-8.345797">
<ele>335.5</ele>
<desc>Speed 1.5 km/h Distance 10.06 km</desc>
<time>2011-05-22T07:43:35.81</time>
<name>2726</name>
<sym>Dot</sym>
</trkpt>
<trkpt lat="40.025310" lon="-8.345783">
<ele>335.0</ele>
<desc>Speed 2.2 km/h Distance 10.06 km</desc>
<time>2011-05-22T07:43:38.80</time>
<name>2727</name>
<sym>Dot</sym>
</trkpt>
<trkpt lat="40.025310" lon="-8.345772">
<ele>334.5</ele>
<desc>Speed 3.3 km/h Distance 10.06 km</desc>
<time>2011-05-22T07:43:39.80</time>
<name>2728</name>
<sym>Dot</sym>
</trkpt>
<trkpt lat="40.025308" lon="-8.345760">
<ele>335.5</ele>
<desc>Speed 2.9 km/h Distance 10.06 km</desc>
<time>2011-05-22T07:43:43.79</time>
<name>2729</name>
<sym>Dot</sym>
</trkpt>
<trkpt lat="40.025303" lon="-8.345750">
<ele>336.5</ele>
<desc>Speed 2.0 km/h Distance 10.06 km</desc>
<time>2011-05-22T07:43:47.81</time>
<name>2730</name>
<sym>Dot</sym>
</trkpt>
<trkpt lat="40.025297" lon="-8.345748">
<ele>337.0</ele>
<desc>Speed 1.4 km/h Distance 10.06 km</desc>
<time>2011-05-22T07:43:48.78</time>
<name>2731</name>
<sym>Dot</sym>
</trkpt>
<trkpt lat="40.025287" lon="-8.345743">
<ele>339.0</ele>
<desc>Speed 1.1 km/h Distance 10.06 km</desc>
<time>2011-05-22T07:43:58.77</time>
<name>2732</name>
<sym>Dot</sym>
</trkpt>
<trkpt lat="40.025282" lon="-8.345745">
<ele>340.5</ele>
<desc>Speed 1.4 km/h Distance 10.06 km</desc>
<time>2011-05-22T07:44:01.77</time>
<name>2733</name>
<sym>Dot</sym>
</trkpt>
<trkpt lat="40.025262" lon="-8.345745">
<ele>340.5</ele>
<desc>Speed 6.3 km/h Distance 10.07 km</desc>
<time>2011-05-22T07:44:05.76</time>
<name>2734</name>
<sym>Dot</sym>
</trkpt>
<trkpt lat="40.025258" lon="-8.345750">
<ele>340.0</ele>
<desc>Speed 2.4 km/h Distance 10.07 km</desc>
<time>2011-05-22T07:44:06.76</time>
<name>2735</name>
<sym>Dot</sym>
</trkpt>
<trkpt lat="40.025233" lon="-8.345713">
<ele>340.0</ele>
<desc>Speed 3.0 km/h Distance 10.07 km</desc>
<time>2011-05-22T07:44:08.76</time>
<name>2736</name>
<sym>Dot</sym>
</trkpt>
<trkpt lat="40.025242" lon="-8.345703">
<ele>339.0</ele>
<desc>Speed 1.1 km/h Distance 10.07 km</desc>
<time>2011-05-22T07:44:24.75</time>
<name>2737</name>
<sym>Dot</sym>
</trkpt>
<trkpt lat="40.025247" lon="-8.345707">
<ele>341.0</ele>
<desc>Speed 1.8 km/h Distance 10.07 km</desc>
<time>2011-05-22T07:44:32.75</time>
<name>2738</name>
<sym>Dot</sym>
</trkpt>
<trkpt lat="40.025243" lon="-8.345712">
<ele>343.0</ele>
<desc>Speed 1.9 km/h Distance 10.07 km</desc>
<time>2011-05-22T07:44:34.74</time>
<name>2739</name>
<sym>Dot</sym>
</trkpt>
<trkpt lat="40.025242" lon="-8.345718">
<ele>344.0</ele>
<desc>Speed 1.3 km/h Distance 10.07 km</desc>
<time>2011-05-22T07:44:35.74</time>
<name>2740</name>
<sym>Dot</sym>
</trkpt>
<trkpt lat="40.025240" lon="-8.345718">
<ele>344.0</ele>
<desc>Speed 1.1 km/h Distance 10.07 km</desc>
<time>2011-05-22T07:44:36.73</time>
<name>2741</name>
<sym>Dot</sym>
</trkpt>
<trkpt lat="40.025238" lon="-8.345723">
<ele>345.0</ele>
<desc>Speed 2.8 km/h Distance 10.07 km</desc>
<time>2011-05-22T07:44:39.73</time>
<name>2742</name>
<sym>Dot</sym>
</trkpt>
<trkpt lat="40.025233" lon="-8.345728">
<ele>345.0</ele>
<desc>Speed 2.2 km/h Distance 10.08 km</desc>
<time>2011-05-22T07:44:40.73</time>
<name>2743</name>
<sym>Dot</sym>
</trkpt>
<trkpt lat="40.025235" lon="-8.345737">
<ele>345.5</ele>
<desc>Speed 2.4 km/h Distance 10.08 km</desc>
<time>2011-05-22T07:44:41.72</time>
<name>2744</name>
<sym>Dot</sym>
</trkpt>
<trkpt lat="40.025237" lon="-8.345748">
<ele>345.5</ele>
<desc>Speed 3.2 km/h Distance 10.08 km</desc>
<time>2011-05-22T07:44:42.71</time>
<name>2745</name>
<sym>Dot</sym>
</trkpt>
<trkpt lat="40.025235" lon="-8.345753">
<ele>345.5</ele>
<desc>Speed 3.2 km/h Distance 10.08 km</desc>
<time>2011-05-22T07:44:43.70</time>
<name>2746</name>
<sym>Dot</sym>
</trkpt>
<trkpt lat="40.025232" lon="-8.345763">
<ele>346.0</ele>
<desc>Speed 3.2 km/h Distance 10.08 km</desc>
<time>2011-05-22T07:44:44.72</time>
<name>2747</name>
<sym>Dot</sym>
</trkpt>
<trkpt lat="40.025228" lon="-8.345767">
<ele>345.0</ele>
<desc>Speed 2.7 km/h Distance 10.08 km</desc>
<time>2011-05-22T07:44:45.71</time>
<name>2748</name>
<sym>Dot</sym>
</trkpt>
<trkpt lat="40.025228" lon="-8.345772">
<ele>344.5</ele>
<desc>Speed 3.3 km/h Distance 10.08 km</desc>
<time>2011-05-22T07:44:46.68</time>
<name>2749</name>
<sym>Dot</sym>
</trkpt>
<trkpt lat="40.025222" lon="-8.345778">
<ele>344.5</ele>
<desc>Speed 3.2 km/h Distance 10.08 km</desc>
<time>2011-05-22T07:44:47.68</time>
<name>2750</name>
<sym>Dot</sym>
</trkpt>
<trkpt lat="40.025228" lon="-8.345788">
<ele>344.0</ele>
<desc>Speed 1.8 km/h Distance 10.08 km</desc>
<time>2011-05-22T07:44:52.68</time>
<name>2751</name>
<sym>Dot</sym>
</trkpt>
<trkpt lat="40.025230" lon="-8.345798">
<ele>344.5</ele>
<desc>Speed 3.2 km/h Distance 10.08 km</desc>
<time>2011-05-22T07:44:53.68</time>
<name>2752</name>
<sym>Dot</sym>
</trkpt>
<trkpt lat="40.025228" lon="-8.345803">
<ele>345.0</ele>
<desc>Speed 1.5 km/h Distance 10.08 km</desc>
<time>2011-05-22T07:44:54.68</time>
<name>2753</name>
<sym>Dot</sym>
</trkpt>
<trkpt lat="40.025227" lon="-8.345808">
<ele>345.0</ele>
<desc>Speed 1.8 km/h Distance 10.08 km</desc>
<time>2011-05-22T07:44:55.67</time>
<name>2754</name>
<sym>Dot</sym>
</trkpt>
<trkpt lat="40.025225" lon="-8.345815">
<ele>345.0</ele>
<desc>Speed 1.8 km/h Distance 10.08 km</desc>
<time>2011-05-22T07:44:56.66</time>
<name>2755</name>
<sym>Dot</sym>
</trkpt>
<trkpt lat="40.025253" lon="-8.345822">
<ele>342.5</ele>
<desc>Speed 1.1 km/h Distance 10.09 km</desc>
<time>2011-05-22T07:45:58.64</time>
<name>2756</name>
<sym>Dot</sym>
</trkpt>
<trkpt lat="40.025258" lon="-8.345817">
<ele>342.5</ele>
<desc>Speed 2.0 km/h Distance 10.09 km</desc>
<time>2011-05-22T07:46:00.64</time>
<name>2757</name>
<sym>Dot</sym>
</trkpt>
<trkpt lat="40.025255" lon="-8.345818">
<ele>342.5</ele>
<desc>Speed 2.0 km/h Distance 10.09 km</desc>
<time>2011-05-22T07:46:02.73</time>
<name>2758</name>
<sym>Dot</sym>
</trkpt>
<trkpt lat="40.025248" lon="-8.345823">
<ele>341.5</ele>
<desc>Speed 3.5 km/h Distance 10.09 km</desc>
<time>2011-05-22T07:46:03.64</time>
<name>2759</name>
<sym>Dot</sym>
</trkpt>
<trkpt lat="40.025230" lon="-8.345808">
<ele>340.5</ele>
<desc>Speed 9.6 km/h Distance 10.09 km</desc>
<time>2011-05-22T07:46:04.63</time>
<name>2760</name>
<sym>Dot</sym>
</trkpt>
<trkpt lat="40.025215" lon="-8.345790">
<ele>341.0</ele>
<desc>Speed 1.1 km/h Distance 10.09 km</desc>
<time>2011-05-22T07:46:09.65</time>
<name>2761</name>
<sym>Dot</sym>
</trkpt>
<trkpt lat="40.025227" lon="-8.345798">
<ele>340.5</ele>
<desc>Speed 5.4 km/h Distance 10.10 km</desc>
<time>2011-05-22T07:46:10.70</time>
<name>2762</name>
<sym>Dot</sym>
</trkpt>
<trkpt lat="40.025220" lon="-8.345788">
<ele>340.5</ele>
<desc>Speed 5.4 km/h Distance 10.10 km</desc>
<time>2011-05-22T07:46:12.32</time>
<name>2763</name>
<sym>Dot</sym>
</trkpt>
<trkpt lat="40.025213" lon="-8.345778">
<ele>340.5</ele>
<desc>Speed 5.4 km/h Distance 10.10 km</desc>
<time>2011-05-22T07:46:12.66</time>
<name>2764</name>
<sym>Dot</sym>
</trkpt>
<trkpt lat="40.025207" lon="-8.345770">
<ele>340.5</ele>
<desc>Speed 5.4 km/h Distance 10.10 km</desc>
<time>2011-05-22T07:46:14.10</time>
<name>2765</name>
<sym>Dot</sym>
</trkpt>
<trkpt lat="40.025202" lon="-8.345765">
<ele>340.5</ele>
<desc>Speed 5.4 km/h Distance 10.10 km</desc>
<time>2011-05-22T07:46:14.99</time>
<name>2766</name>
<sym>Dot</sym>
</trkpt>
<trkpt lat="40.025198" lon="-8.345762">
<ele>340.0</ele>
<desc>Speed 5.4 km/h Distance 10.10 km</desc>
<time>2011-05-22T07:46:17.10</time>
<name>2767</name>
<sym>Dot</sym>
</trkpt>
<trkpt lat="40.025198" lon="-8.345762">
<ele>340.0</ele>
<desc>Speed 5.4 km/h Distance 10.10 km</desc>
<time>2011-05-22T07:46:18.09</time>
<name>2768</name>
<sym>Dot</sym>
</trkpt>
<trkpt lat="40.025185" lon="-8.345733">
<ele>340.5</ele>
<desc>Speed 1.9 km/h Distance 10.10 km</desc>
<time>2011-05-22T07:46:19.59</time>
<name>2769</name>
<sym>Dot</sym>
</trkpt>
<trkpt lat="40.025178" lon="-8.345733">
<ele>340.5</ele>
<desc>Speed 1.9 km/h Distance 10.10 km</desc>
<time>2011-05-22T07:46:20.59</time>
<name>2770</name>
<sym>Dot</sym>
</trkpt>
<trkpt lat="40.025178" lon="-8.345733">
<ele>340.5</ele>
<desc>Speed 1.9 km/h Distance 10.10 km</desc>
<time>2011-05-22T07:46:21.58</time>
<name>2771</name>
<sym>Dot</sym>
</trkpt>
<trkpt lat="40.025118" lon="-8.345732">
<ele>340.0</ele>
<desc>Speed 9.2 km/h Distance 10.11 km</desc>
<time>2011-05-22T07:46:23.57</time>
<name>2772</name>
<sym>Dot</sym>
</trkpt>
<trkpt lat="40.025103" lon="-8.345730">
<ele>340.0</ele>
<desc>Speed 9.2 km/h Distance 10.11 km</desc>
<time>2011-05-22T07:46:24.58</time>
<name>2773</name>
<sym>Dot</sym>
</trkpt>
<trkpt lat="40.025092" lon="-8.345728">
<ele>340.0</ele>
<desc>Speed 9.2 km/h Distance 10.11 km</desc>
<time>2011-05-22T07:46:25.68</time>
<name>2774</name>
<sym>Dot</sym>
</trkpt>
<trkpt lat="40.025080" lon="-8.345717">
<ele>340.0</ele>
<desc>Speed 4.5 km/h Distance 10.11 km</desc>
<time>2011-05-22T07:46:26.55</time>
<name>2775</name>
<sym>Dot</sym>
</trkpt>
<trkpt lat="40.025075" lon="-8.345710">
<ele>340.0</ele>
<desc>Speed 4.5 km/h Distance 10.12 km</desc>
<time>2011-05-22T07:46:27.54</time>
<name>2776</name>
<sym>Dot</sym>
</trkpt>
<trkpt lat="40.025100" lon="-8.345712">
<ele>340.0</ele>
<desc>Speed 4.5 km/h Distance 10.12 km</desc>
<time>2011-05-22T07:46:28.54</time>
<name>2777</name>
<sym>Dot</sym>
</trkpt>
<trkpt lat="40.025110" lon="-8.345708">
<ele>340.0</ele>
<desc>Speed 4.5 km/h Distance 10.12 km</desc>
<time>2011-05-22T07:46:29.54</time>
<name>2778</name>
<sym>Dot</sym>
</trkpt>
<trkpt lat="40.025108" lon="-8.345713">
<ele>340.0</ele>
<desc>Speed 4.5 km/h Distance 10.12 km</desc>
<time>2011-05-22T07:46:30.53</time>
<name>2779</name>
<sym>Dot</sym>
</trkpt>
<trkpt lat="40.025113" lon="-8.345717">
<ele>340.0</ele>
<desc>Speed 1.7 km/h Distance 10.12 km</desc>
<time>2011-05-22T07:46:31.53</time>
<name>2780</name>
<sym>Dot</sym>
</trkpt>
<trkpt lat="40.025117" lon="-8.345720">
<ele>340.0</ele>
<desc>Speed 1.7 km/h Distance 10.12 km</desc>
<time>2011-05-22T07:46:32.52</time>
<name>2781</name>
<sym>Dot</sym>
</trkpt>
<trkpt lat="40.025118" lon="-8.345718">
<ele>340.0</ele>
<desc>Speed 1.7 km/h Distance 10.12 km</desc>
<time>2011-05-22T07:46:33.51</time>
<name>2782</name>
<sym>Dot</sym>
</trkpt>
<trkpt lat="40.025132" lon="-8.345810">
<ele>340.0</ele>
<desc>Speed 4.0 km/h Distance 10.13 km</desc>
<time>2011-05-22T07:46:41.50</time>
<name>2783</name>
<sym>Dot</sym>
</trkpt>
<trkpt lat="40.025110" lon="-8.345795">
<ele>340.0</ele>
<desc>Speed 10.7 km/h Distance 10.13 km</desc>
<time>2011-05-22T07:46:42.50</time>
<name>2784</name>
<sym>Dot</sym>
</trkpt>
<trkpt lat="40.025127" lon="-8.345792">
<ele>340.0</ele>
<desc>Speed 1.4 km/h Distance 10.13 km</desc>
<time>2011-05-22T07:46:44.49</time>
<name>2785</name>
<sym>Dot</sym>
</trkpt>
<trkpt lat="40.025158" lon="-8.345798">
<ele>340.5</ele>
<desc>Speed 2.7 km/h Distance 10.14 km</desc>
<time>2011-05-22T07:46:46.48</time>
<name>2786</name>
<sym>Dot</sym>
</trkpt>
<trkpt lat="40.025210" lon="-8.345823">
<ele>340.0</ele>
<desc>Speed 3.2 km/h Distance 10.14 km</desc>
<time>2011-05-22T07:46:50.56</time>
<name>2787</name>
<sym>Dot</sym>
</trkpt>
<trkpt lat="40.025217" lon="-8.345825">
<ele>340.0</ele>
<desc>Speed 3.2 km/h Distance 10.14 km</desc>
<time>2011-05-22T07:46:51.47</time>
<name>2788</name>
<sym>Dot</sym>
</trkpt>
<trkpt lat="40.025223" lon="-8.345830">
<ele>340.0</ele>
<desc>Speed 1.4 km/h Distance 10.15 km</desc>
<time>2011-05-22T07:46:52.47</time>
<name>2789</name>
<sym>Dot</sym>
</trkpt>
<trkpt lat="40.025220" lon="-8.345842">
<ele>339.5</ele>
<desc>Speed 1.7 km/h Distance 10.15 km</desc>
<time>2011-05-22T07:46:53.46</time>
<name>2790</name>
<sym>Dot</sym>
</trkpt>
<trkpt lat="40.025228" lon="-8.345850">
<ele>339.5</ele>
<desc>Speed 9.2 km/h Distance 10.15 km</desc>
<time>2011-05-22T07:46:55.45</time>
<name>2791</name>
<sym>Dot</sym>
</trkpt>
<trkpt lat="40.025240" lon="-8.345857">
<ele>339.0</ele>
<desc>Speed 2.1 km/h Distance 10.15 km</desc>
<time>2011-05-22T07:46:57.44</time>
<name>2792</name>
<sym>Dot</sym>
</trkpt>
<trkpt lat="40.025230" lon="-8.345865">
<ele>339.0</ele>
<desc>Speed 3.7 km/h Distance 10.15 km</desc>
<time>2011-05-22T07:46:59.58</time>
<name>2793</name>
<sym>Dot</sym>
</trkpt>
<trkpt lat="40.025232" lon="-8.345868">
<ele>339.5</ele>
<desc>Speed 1.3 km/h Distance 10.15 km</desc>
<time>2011-05-22T07:47:00.48</time>
<name>2794</name>
<sym>Dot</sym>
</trkpt>
<trkpt lat="40.025238" lon="-8.345855">
<ele>339.0</ele>
<desc>Speed 3.8 km/h Distance 10.15 km</desc>
<time>2011-05-22T07:47:05.51</time>
<name>2795</name>
<sym>Dot</sym>
</trkpt>
<trkpt lat="40.025265" lon="-8.345820">
<ele>337.0</ele>
<desc>Speed 1.7 km/h Distance 10.16 km</desc>
<time>2011-05-22T08:00:54.35</time>
<name>2796</name>
<sym>Dot</sym>
</trkpt>
<trkpt lat="40.025262" lon="-8.345812">
<ele>338.0</ele>
<desc>Speed 3.1 km/h Distance 10.16 km</desc>
<time>2011-05-22T08:02:28.35</time>
<name>2797</name>
<sym>Dot</sym>
</trkpt>
<trkpt lat="40.025237" lon="-8.345797">
<ele>338.5</ele>
<desc>Speed 5.9 km/h Distance 10.16 km</desc>
<time>2011-05-22T08:04:14.35</time>
<name>2798</name>
<sym>Dot</sym>
</trkpt>
<trkpt lat="40.025247" lon="-8.345803">
<ele>337.5</ele>
<desc>Speed 1.4 km/h Distance 10.16 km</desc>
<time>2011-05-22T08:04:43.35</time>
<name>2799</name>
<sym>Dot</sym>
</trkpt>
<trkpt lat="40.025295" lon="-8.345818">
<ele>337.5</ele>
<desc>Speed 2.5 km/h Distance 10.17 km</desc>
<time>2011-05-22T08:05:41.35</time>
<name>2800</name>
<sym>Dot</sym>
</trkpt>
<trkpt lat="40.025297" lon="-8.345818">
<ele>337.0</ele>
<desc>Speed 1.2 km/h Distance 10.17 km</desc>
<time>2011-05-22T08:06:19.35</time>
<name>2801</name>
<sym>Dot</sym>
</trkpt>
<trkpt lat="40.025295" lon="-8.345822">
<ele>337.5</ele>
<desc>Speed 1.6 km/h Distance 10.17 km</desc>
<time>2011-05-22T08:06:20.35</time>
<name>2802</name>
<sym>Dot</sym>
</trkpt>
<trkpt lat="40.025300" lon="-8.345813">
<ele>336.5</ele>
<desc>Speed 2.6 km/h Distance 10.17 km</desc>
<time>2011-05-22T08:06:30.35</time>
<name>2803</name>
<sym>Dot</sym>
</trkpt>
<trkpt lat="40.025295" lon="-8.345818">
<ele>337.0</ele>
<desc>Speed 1.8 km/h Distance 10.17 km</desc>
<time>2011-05-22T08:06:32.35</time>
<name>2804</name>
<sym>Dot</sym>
</trkpt>
<trkpt lat="40.025285" lon="-8.345825">
<ele>337.0</ele>
<desc>Speed 2.7 km/h Distance 10.17 km</desc>
<time>2011-05-22T08:06:37.35</time>
<name>2805</name>
<sym>Dot</sym>
</trkpt>
<trkpt lat="40.025277" lon="-8.345828">
<ele>337.0</ele>
<desc>Speed 3.6 km/h Distance 10.17 km</desc>
<time>2011-05-22T08:06:38.35</time>
<name>2806</name>
<sym>Dot</sym>
</trkpt>
<trkpt lat="40.025265" lon="-8.345833">
<ele>336.5</ele>
<desc>Speed 4.2 km/h Distance 10.17 km</desc>
<time>2011-05-22T08:06:39.35</time>
<name>2807</name>
<sym>Dot</sym>
</trkpt>
<trkpt lat="40.025252" lon="-8.345842">
<ele>336.0</ele>
<desc>Speed 5.7 km/h Distance 10.17 km</desc>
<time>2011-05-22T08:06:40.35</time>
<name>2808</name>
<sym>Dot</sym>
</trkpt>
<trkpt lat="40.025237" lon="-8.345848">
<ele>336.0</ele>
<desc>Speed 5.8 km/h Distance 10.18 km</desc>
<time>2011-05-22T08:06:41.35</time>
<name>2809</name>
<sym>Dot</sym>
</trkpt>
<trkpt lat="40.025218" lon="-8.345847">
<ele>335.5</ele>
<desc>Speed 6.8 km/h Distance 10.18 km</desc>
<time>2011-05-22T08:06:42.35</time>
<name>2810</name>
<sym>Dot</sym>
</trkpt>
<trkpt lat="40.025195" lon="-8.345843">
<ele>335.0</ele>
<desc>Speed 8.7 km/h Distance 10.18 km</desc>
<time>2011-05-22T08:06:43.35</time>
<name>2811</name>
<sym>Dot</sym>
</trkpt>
<trkpt lat="40.025168" lon="-8.345843">
<ele>335.0</ele>
<desc>Speed 10.0 km/h Distance 10.18 km</desc>
<time>2011-05-22T08:06:44.35</time>
<name>2812</name>
<sym>Dot</sym>
</trkpt>
<trkpt lat="40.025140" lon="-8.345850">
<ele>335.5</ele>
<desc>Speed 10.7 km/h Distance 10.19 km</desc>
<time>2011-05-22T08:06:45.35</time>
<name>2813</name>
<sym>Dot</sym>
</trkpt>
<trkpt lat="40.025112" lon="-8.345860">
<ele>335.0</ele>
<desc>Speed 11.1 km/h Distance 10.19 km</desc>
<time>2011-05-22T08:06:46.35</time>
<name>2814</name>
<sym>Dot</sym>
</trkpt>
<trkpt lat="40.025083" lon="-8.345875">
<ele>335.0</ele>
<desc>Speed 11.9 km/h Distance 10.19 km</desc>
<time>2011-05-22T08:06:47.35</time>
<name>2815</name>
<sym>Dot</sym>
</trkpt>
<trkpt lat="40.025055" lon="-8.345893">
<ele>334.5</ele>
<desc>Speed 12.6 km/h Distance 10.20 km</desc>
<time>2011-05-22T08:06:48.35</time>
<name>2816</name>
<sym>Dot</sym>
</trkpt>
<trkpt lat="40.025027" lon="-8.345915">
<ele>333.5</ele>
<desc>Speed 12.8 km/h Distance 10.20 km</desc>
<time>2011-05-22T08:06:49.35</time>
<name>2817</name>
<sym>Dot</sym>
</trkpt>
<trkpt lat="40.024993" lon="-8.345933">
<ele>333.0</ele>
<desc>Speed 14.7 km/h Distance 10.20 km</desc>
<time>2011-05-22T08:06:50.35</time>
<name>2818</name>
<sym>Dot</sym>
</trkpt>
<trkpt lat="40.024958" lon="-8.345955">
<ele>333.0</ele>
<desc>Speed 15.3 km/h Distance 10.21 km</desc>
<time>2011-05-22T08:06:51.35</time>
<name>2819</name>
<sym>Dot</sym>
</trkpt>
<trkpt lat="40.024922" lon="-8.345978">
<ele>332.5</ele>
<desc>Speed 16.0 km/h Distance 10.21 km</desc>
<time>2011-05-22T08:06:52.35</time>
<name>2820</name>
<sym>Dot</sym>
</trkpt>
<trkpt lat="40.024882" lon="-8.346000">
<ele>332.0</ele>
<desc>Speed 16.8 km/h Distance 10.22 km</desc>
<time>2011-05-22T08:06:53.35</time>
<name>2821</name>
<sym>Dot</sym>
</trkpt>
<trkpt lat="40.024840" lon="-8.346023">
<ele>332.0</ele>
<desc>Speed 18.2 km/h Distance 10.22 km</desc>
<time>2011-05-22T08:06:54.35</time>
<name>2822</name>
<sym>Dot</sym>
</trkpt>
<trkpt lat="40.024795" lon="-8.346052">
<ele>332.0</ele>
<desc>Speed 19.4 km/h Distance 10.23 km</desc>
<time>2011-05-22T08:06:55.35</time>
<name>2823</name>
<sym>Dot</sym>
</trkpt>
<trkpt lat="40.024750" lon="-8.346085">
<ele>332.0</ele>
<desc>Speed 20.3 km/h Distance 10.23 km</desc>
<time>2011-05-22T08:06:56.35</time>
<name>2824</name>
<sym>Dot</sym>
</trkpt>
<trkpt lat="40.024703" lon="-8.346120">
<ele>331.5</ele>
<desc>Speed 21.2 km/h Distance 10.24 km</desc>
<time>2011-05-22T08:06:57.35</time>
<name>2825</name>
<sym>Dot</sym>
</trkpt>
<trkpt lat="40.024653" lon="-8.346153">
<ele>331.0</ele>
<desc>Speed 22.5 km/h Distance 10.25 km</desc>
<time>2011-05-22T08:06:58.35</time>
<name>2826</name>
<sym>Dot</sym>
</trkpt>
<trkpt lat="40.024598" lon="-8.346185">
<ele>331.0</ele>
<desc>Speed 23.7 km/h Distance 10.25 km</desc>
<time>2011-05-22T08:06:59.35</time>
<name>2827</name>
<sym>Dot</sym>
</trkpt>
<trkpt lat="40.024542" lon="-8.346218">
<ele>330.5</ele>
<desc>Speed 24.9 km/h Distance 10.26 km</desc>
<time>2011-05-22T08:07:00.35</time>
<name>2828</name>
<sym>Dot</sym>
</trkpt>
<trkpt lat="40.024482" lon="-8.346252">
<ele>330.0</ele>
<desc>Speed 25.7 km/h Distance 10.27 km</desc>
<time>2011-05-22T08:07:01.35</time>
<name>2829</name>
<sym>Dot</sym>
</trkpt>
<trkpt lat="40.024420" lon="-8.346288">
<ele>330.0</ele>
<desc>Speed 26.7 km/h Distance 10.28 km</desc>
<time>2011-05-22T08:07:02.35</time>
<name>2830</name>
<sym>Dot</sym>
</trkpt>
<trkpt lat="40.024357" lon="-8.346325">
<ele>329.5</ele>
<desc>Speed 27.6 km/h Distance 10.28 km</desc>
<time>2011-05-22T08:07:03.35</time>
<name>2831</name>
<sym>Dot</sym>
</trkpt>
<trkpt lat="40.024292" lon="-8.346365">
<ele>329.0</ele>
<desc>Speed 28.4 km/h Distance 10.29 km</desc>
<time>2011-05-22T08:07:04.35</time>
<name>2832</name>
<sym>Dot</sym>
</trkpt>
<trkpt lat="40.024225" lon="-8.346405">
<ele>329.0</ele>
<desc>Speed 29.3 km/h Distance 10.30 km</desc>
<time>2011-05-22T08:07:05.35</time>
<name>2833</name>
<sym>Dot</sym>
</trkpt>
<trkpt lat="40.024155" lon="-8.346448">
<ele>328.5</ele>
<desc>Speed 30.8 km/h Distance 10.31 km</desc>
<time>2011-05-22T08:07:06.35</time>
<name>2834</name>
<sym>Dot</sym>
</trkpt>
<trkpt lat="40.024083" lon="-8.346492">
<ele>328.0</ele>
<desc>Speed 31.1 km/h Distance 10.32 km</desc>
<time>2011-05-22T08:07:07.35</time>
<name>2835</name>
<sym>Dot</sym>
</trkpt>
<trkpt lat="40.024012" lon="-8.346538">
<ele>328.0</ele>
<desc>Speed 32.1 km/h Distance 10.33 km</desc>
<time>2011-05-22T08:07:08.35</time>
<name>2836</name>
<sym>Dot</sym>
</trkpt>
<trkpt lat="40.023938" lon="-8.346585">
<ele>327.5</ele>
<desc>Speed 32.6 km/h Distance 10.33 km</desc>
<time>2011-05-22T08:07:09.35</time>
<name>2837</name>
<sym>Dot</sym>
</trkpt>
<trkpt lat="40.023862" lon="-8.346632">
<ele>327.0</ele>
<desc>Speed 33.8 km/h Distance 10.34 km</desc>
<time>2011-05-22T08:07:10.35</time>
<name>2838</name>
<sym>Dot</sym>
</trkpt>
<trkpt lat="40.023783" lon="-8.346682">
<ele>326.5</ele>
<desc>Speed 34.4 km/h Distance 10.35 km</desc>
<time>2011-05-22T08:07:11.35</time>
<name>2839</name>
<sym>Dot</sym>
</trkpt>
<trkpt lat="40.023705" lon="-8.346732">
<ele>326.0</ele>
<desc>Speed 35.0 km/h Distance 10.36 km</desc>
<time>2011-05-22T08:07:12.35</time>
<name>2840</name>
<sym>Dot</sym>
</trkpt>
<trkpt lat="40.023623" lon="-8.346783">
<ele>325.5</ele>
<desc>Speed 36.2 km/h Distance 10.37 km</desc>
<time>2011-05-22T08:07:13.35</time>
<name>2841</name>
<sym>Dot</sym>
</trkpt>
<trkpt lat="40.023542" lon="-8.346838">
<ele>325.0</ele>
<desc>Speed 36.5 km/h Distance 10.38 km</desc>
<time>2011-05-22T08:07:14.35</time>
<name>2842</name>
<sym>Dot</sym>
</trkpt>
<trkpt lat="40.023460" lon="-8.346895">
<ele>324.5</ele>
<desc>Speed 37.1 km/h Distance 10.39 km</desc>
<time>2011-05-22T08:07:15.35</time>
<name>2843</name>
<sym>Dot</sym>
</trkpt>
<trkpt lat="40.023377" lon="-8.346957">
<ele>324.0</ele>
<desc>Speed 38.1 km/h Distance 10.40 km</desc>
<time>2011-05-22T08:07:16.35</time>
<name>2844</name>
<sym>Dot</sym>
</trkpt>
<trkpt lat="40.023293" lon="-8.347022">
<ele>323.5</ele>
<desc>Speed 38.8 km/h Distance 10.42 km</desc>
<time>2011-05-22T08:07:17.35</time>
<name>2845</name>
<sym>Dot</sym>
</trkpt>
<trkpt lat="40.023210" lon="-8.347092">
<ele>323.0</ele>
<desc>Speed 39.6 km/h Distance 10.43 km</desc>
<time>2011-05-22T08:07:18.35</time>
<name>2846</name>
<sym>Dot</sym>
</trkpt>
<trkpt lat="40.023127" lon="-8.347168">
<ele>322.5</ele>
<desc>Speed 40.5 km/h Distance 10.44 km</desc>
<time>2011-05-22T08:07:19.35</time>
<name>2847</name>
<sym>Dot</sym>
</trkpt>
<trkpt lat="40.023045" lon="-8.347250">
<ele>321.5</ele>
<desc>Speed 41.2 km/h Distance 10.45 km</desc>
<time>2011-05-22T08:07:20.35</time>
<name>2848</name>
<sym>Dot</sym>
</trkpt>
<trkpt lat="40.022965" lon="-8.347337">
<ele>320.5</ele>
<desc>Speed 41.7 km/h Distance 10.46 km</desc>
<time>2011-05-22T08:07:21.35</time>
<name>2849</name>
<sym>Dot</sym>
</trkpt>
<trkpt lat="40.022883" lon="-8.347427">
<ele>320.0</ele>
<desc>Speed 42.7 km/h Distance 10.47 km</desc>
<time>2011-05-22T08:07:22.35</time>
<name>2850</name>
<sym>Dot</sym>
</trkpt>
<trkpt lat="40.022803" lon="-8.347527">
<ele>319.0</ele>
<desc>Speed 44.1 km/h Distance 10.49 km</desc>
<time>2011-05-22T08:07:23.35</time>
<name>2851</name>
<sym>Dot</sym>
</trkpt>
<trkpt lat="40.022723" lon="-8.347628">
<ele>318.5</ele>
<desc>Speed 44.9 km/h Distance 10.50 km</desc>
<time>2011-05-22T08:07:24.35</time>
<name>2852</name>
<sym>Dot</sym>
</trkpt>
<trkpt lat="40.022645" lon="-8.347737">
<ele>317.5</ele>
<desc>Speed 45.8 km/h Distance 10.51 km</desc>
<time>2011-05-22T08:07:25.35</time>
<name>2853</name>
<sym>Dot</sym>
</trkpt>
<trkpt lat="40.022565" lon="-8.347848">
<ele>316.5</ele>
<desc>Speed 46.7 km/h Distance 10.52 km</desc>
<time>2011-05-22T08:07:26.35</time>
<name>2854</name>
<sym>Dot</sym>
</trkpt>
<trkpt lat="40.022482" lon="-8.347960">
<ele>316.0</ele>
<desc>Speed 47.7 km/h Distance 10.54 km</desc>
<time>2011-05-22T08:07:27.35</time>
<name>2855</name>
<sym>Dot</sym>
</trkpt>
<trkpt lat="40.022400" lon="-8.348075">
<ele>315.0</ele>
<desc>Speed 48.2 km/h Distance 10.55 km</desc>
<time>2011-05-22T08:07:28.35</time>
<name>2856</name>
<sym>Dot</sym>
</trkpt>
<trkpt lat="40.022315" lon="-8.348190">
<ele>314.5</ele>
<desc>Speed 49.1 km/h Distance 10.56 km</desc>
<time>2011-05-22T08:07:29.35</time>
<name>2857</name>
<sym>Dot</sym>
</trkpt>
<trkpt lat="40.022230" lon="-8.348307">
<ele>313.5</ele>
<desc>Speed 49.6 km/h Distance 10.58 km</desc>
<time>2011-05-22T08:07:30.35</time>
<name>2858</name>
<sym>Dot</sym>
</trkpt>
<trkpt lat="40.022143" lon="-8.348425">
<ele>312.5</ele>
<desc>Speed 50.1 km/h Distance 10.59 km</desc>
<time>2011-05-22T08:07:31.35</time>
<name>2859</name>
<sym>Dot</sym>
</trkpt>
<trkpt lat="40.022057" lon="-8.348547">
<ele>312.0</ele>
<desc>Speed 50.9 km/h Distance 10.61 km</desc>
<time>2011-05-22T08:07:32.35</time>
<name>2860</name>
<sym>Dot</sym>
</trkpt>
<trkpt lat="40.021970" lon="-8.348668">
<ele>311.0</ele>
<desc>Speed 51.5 km/h Distance 10.62 km</desc>
<time>2011-05-22T08:07:33.35</time>
<name>2861</name>
<sym>Dot</sym>
</trkpt>
<trkpt lat="40.021882" lon="-8.348793">
<ele>310.0</ele>
<desc>Speed 51.8 km/h Distance 10.63 km</desc>
<time>2011-05-22T08:07:34.35</time>
<name>2862</name>
<sym>Dot</sym>
</trkpt>
<trkpt lat="40.021793" lon="-8.348917">
<ele>309.5</ele>
<desc>Speed 52.2 km/h Distance 10.65 km</desc>
<time>2011-05-22T08:07:35.35</time>
<name>2863</name>
<sym>Dot</sym>
</trkpt>
<trkpt lat="40.021703" lon="-8.349042">
<ele>309.0</ele>
<desc>Speed 52.3 km/h Distance 10.66 km</desc>
<time>2011-05-22T08:07:36.35</time>
<name>2864</name>
<sym>Dot</sym>
</trkpt>
<trkpt lat="40.021612" lon="-8.349163">
<ele>308.5</ele>
<desc>Speed 52.3 km/h Distance 10.68 km</desc>
<time>2011-05-22T08:07:37.35</time>
<name>2865</name>
<sym>Dot</sym>
</trkpt>
<trkpt lat="40.021520" lon="-8.349285">
<ele>308.0</ele>
<desc>Speed 52.4 km/h Distance 10.69 km</desc>
<time>2011-05-22T08:07:38.35</time>
<name>2866</name>
<sym>Dot</sym>
</trkpt>
<trkpt lat="40.021430" lon="-8.349408">
<ele>307.5</ele>
<desc>Speed 52.2 km/h Distance 10.71 km</desc>
<time>2011-05-22T08:07:39.35</time>
<name>2867</name>
<sym>Dot</sym>
</trkpt>
<trkpt lat="40.021340" lon="-8.349530">
<ele>306.5</ele>
<desc>Speed 52.1 km/h Distance 10.72 km</desc>
<time>2011-05-22T08:07:40.35</time>
<name>2868</name>
<sym>Dot</sym>
</trkpt>
<trkpt lat="40.021250" lon="-8.349652">
<ele>306.5</ele>
<desc>Speed 51.8 km/h Distance 10.74 km</desc>
<time>2011-05-22T08:07:41.35</time>
<name>2869</name>
<sym>Dot</sym>
</trkpt>
<trkpt lat="40.021163" lon="-8.349775">
<ele>306.0</ele>
<desc>Speed 51.4 km/h Distance 10.75 km</desc>
<time>2011-05-22T08:07:42.35</time>
<name>2870</name>
<sym>Dot</sym>
</trkpt>
<trkpt lat="40.021078" lon="-8.349900">
<ele>305.5</ele>
<desc>Speed 50.9 km/h Distance 10.76 km</desc>
<time>2011-05-22T08:07:43.35</time>
<name>2871</name>
<sym>Dot</sym>
</trkpt>
<trkpt lat="40.020993" lon="-8.350022">
<ele>305.0</ele>
<desc>Speed 50.3 km/h Distance 10.78 km</desc>
<time>2011-05-22T08:07:44.35</time>
<name>2872</name>
<sym>Dot</sym>
</trkpt>
<trkpt lat="40.020908" lon="-8.350140">
<ele>304.5</ele>
<desc>Speed 49.9 km/h Distance 10.79 km</desc>
<time>2011-05-22T08:07:45.35</time>
<name>2873</name>
<sym>Dot</sym>
</trkpt>
<trkpt lat="40.020823" lon="-8.350255">
<ele>304.5</ele>
<desc>Speed 49.4 km/h Distance 10.81 km</desc>
<time>2011-05-22T08:07:46.35</time>
<name>2874</name>
<sym>Dot</sym>
</trkpt>
<trkpt lat="40.020740" lon="-8.350372">
<ele>304.0</ele>
<desc>Speed 49.0 km/h Distance 10.82 km</desc>
<time>2011-05-22T08:07:47.35</time>
<name>2875</name>
<sym>Dot</sym>
</trkpt>
<trkpt lat="40.020657" lon="-8.350485">
<ele>303.5</ele>
<desc>Speed 48.3 km/h Distance 10.83 km</desc>
<time>2011-05-22T08:07:48.35</time>
<name>2876</name>
<sym>Dot</sym>
</trkpt>
<trkpt lat="40.020573" lon="-8.350598">
<ele>303.5</ele>
<desc>Speed 47.8 km/h Distance 10.85 km</desc>
<time>2011-05-22T08:07:49.35</time>
<name>2877</name>
<sym>Dot</sym>
</trkpt>
<trkpt lat="40.020490" lon="-8.350707">
<ele>303.5</ele>
<desc>Speed 47.3 km/h Distance 10.86 km</desc>
<time>2011-05-22T08:07:50.35</time>
<name>2878</name>
<sym>Dot</sym>
</trkpt>
<trkpt lat="40.020407" lon="-8.350812">
<ele>303.0</ele>
<desc>Speed 46.8 km/h Distance 10.87 km</desc>
<time>2011-05-22T08:07:51.35</time>
<name>2879</name>
<sym>Dot</sym>
</trkpt>
<trkpt lat="40.020325" lon="-8.350918">
<ele>303.0</ele>
<desc>Speed 46.0 km/h Distance 10.88 km</desc>
<time>2011-05-22T08:07:52.35</time>
<name>2880</name>
<sym>Dot</sym>
</trkpt>
<trkpt lat="40.020243" lon="-8.351023">
<ele>302.5</ele>
<desc>Speed 45.8 km/h Distance 10.90 km</desc>
<time>2011-05-22T08:07:53.35</time>
<name>2881</name>
<sym>Dot</sym>
</trkpt>
<trkpt lat="40.020163" lon="-8.351127">
<ele>302.5</ele>
<desc>Speed 45.1 km/h Distance 10.91 km</desc>
<time>2011-05-22T08:07:54.35</time>
<name>2882</name>
<sym>Dot</sym>
</trkpt>
<trkpt lat="40.020083" lon="-8.351227">
<ele>302.0</ele>
<desc>Speed 44.1 km/h Distance 10.92 km</desc>
<time>2011-05-22T08:07:55.35</time>
<name>2883</name>
<sym>Dot</sym>
</trkpt>
<trkpt lat="40.020007" lon="-8.351325">
<ele>302.0</ele>
<desc>Speed 43.7 km/h Distance 10.93 km</desc>
<time>2011-05-22T08:07:56.35</time>
<name>2884</name>
<sym>Dot</sym>
</trkpt>
<trkpt lat="40.019930" lon="-8.351423">
<ele>302.0</ele>
<desc>Speed 42.7 km/h Distance 10.95 km</desc>
<time>2011-05-22T08:07:57.35</time>
<name>2885</name>
<sym>Dot</sym>
</trkpt>
<trkpt lat="40.019853" lon="-8.351518">
<ele>301.5</ele>
<desc>Speed 42.2 km/h Distance 10.96 km</desc>
<time>2011-05-22T08:07:58.35</time>
<name>2886</name>
<sym>Dot</sym>
</trkpt>
<trkpt lat="40.019777" lon="-8.351610">
<ele>301.5</ele>
<desc>Speed 42.0 km/h Distance 10.97 km</desc>
<time>2011-05-22T08:07:59.35</time>
<name>2887</name>
<sym>Dot</sym>
</trkpt>
<trkpt lat="40.019700" lon="-8.351700">
<ele>301.0</ele>
<desc>Speed 41.3 km/h Distance 10.98 km</desc>
<time>2011-05-22T08:08:00.35</time>
<name>2888</name>
<sym>Dot</sym>
</trkpt>
<trkpt lat="40.019620" lon="-8.351785">
<ele>301.0</ele>
<desc>Speed 40.9 km/h Distance 10.99 km</desc>
<time>2011-05-22T08:08:01.35</time>
<name>2889</name>
<sym>Dot</sym>
</trkpt>
<trkpt lat="40.019538" lon="-8.351863">
<ele>301.0</ele>
<desc>Speed 40.9 km/h Distance 11.00 km</desc>
<time>2011-05-22T08:08:02.35</time>
<name>2890</name>
<sym>Dot</sym>
</trkpt>
<trkpt lat="40.019452" lon="-8.351935">
<ele>300.5</ele>
<desc>Speed 40.7 km/h Distance 11.02 km</desc>
<time>2011-05-22T08:08:03.35</time>
<name>2891</name>
<sym>Dot</sym>
</trkpt>
<trkpt lat="40.019367" lon="-8.352003">
<ele>300.5</ele>
<desc>Speed 40.3 km/h Distance 11.03 km</desc>
<time>2011-05-22T08:08:04.35</time>
<name>2892</name>
<sym>Dot</sym>
</trkpt>
<trkpt lat="40.019280" lon="-8.352067">
<ele>300.5</ele>
<desc>Speed 39.7 km/h Distance 11.04 km</desc>
<time>2011-05-22T08:08:05.35</time>
<name>2893</name>
<sym>Dot</sym>
</trkpt>
<trkpt lat="40.019193" lon="-8.352125">
<ele>300.5</ele>
<desc>Speed 39.2 km/h Distance 11.05 km</desc>
<time>2011-05-22T08:08:06.35</time>
<name>2894</name>
<sym>Dot</sym>
</trkpt>
<trkpt lat="40.019105" lon="-8.352182">
<ele>300.0</ele>
<desc>Speed 39.0 km/h Distance 11.06 km</desc>
<time>2011-05-22T08:08:07.35</time>
<name>2895</name>
<sym>Dot</sym>
</trkpt>
<trkpt lat="40.019018" lon="-8.352237">
<ele>300.0</ele>
<desc>Speed 38.7 km/h Distance 11.07 km</desc>
<time>2011-05-22T08:08:08.35</time>
<name>2896</name>
<sym>Dot</sym>
</trkpt>
<trkpt lat="40.018932" lon="-8.352288">
<ele>300.0</ele>
<desc>Speed 38.4 km/h Distance 11.08 km</desc>
<time>2011-05-22T08:08:09.35</time>
<name>2897</name>
<sym>Dot</sym>
</trkpt>
<trkpt lat="40.018845" lon="-8.352338">
<ele>300.0</ele>
<desc>Speed 38.1 km/h Distance 11.09 km</desc>
<time>2011-05-22T08:08:10.35</time>
<name>2898</name>
<sym>Dot</sym>
</trkpt>
<trkpt lat="40.018760" lon="-8.352390">
<ele>299.5</ele>
<desc>Speed 37.8 km/h Distance 11.10 km</desc>
<time>2011-05-22T08:08:11.35</time>
<name>2899</name>
<sym>Dot</sym>
</trkpt>
<trkpt lat="40.018673" lon="-8.352440">
<ele>299.5</ele>
<desc>Speed 37.9 km/h Distance 11.11 km</desc>
<time>2011-05-22T08:08:12.35</time>
<name>2900</name>
<sym>Dot</sym>
</trkpt>
<trkpt lat="40.018588" lon="-8.352490">
<ele>299.5</ele>
<desc>Speed 37.3 km/h Distance 11.12 km</desc>
<time>2011-05-22T08:08:13.35</time>
<name>2901</name>
<sym>Dot</sym>
</trkpt>
<trkpt lat="40.018505" lon="-8.352543">
<ele>299.5</ele>
<desc>Speed 36.6 km/h Distance 11.13 km</desc>
<time>2011-05-22T08:08:14.35</time>
<name>2902</name>
<sym>Dot</sym>
</trkpt>
<trkpt lat="40.018422" lon="-8.352593">
<ele>299.5</ele>
<desc>Speed 36.6 km/h Distance 11.14 km</desc>
<time>2011-05-22T08:08:15.35</time>
<name>2903</name>
<sym>Dot</sym>
</trkpt>
<trkpt lat="40.018338" lon="-8.352642">
<ele>299.0</ele>
<desc>Speed 36.2 km/h Distance 11.15 km</desc>
<time>2011-05-22T08:08:16.35</time>
<name>2904</name>
<sym>Dot</sym>
</trkpt>
<trkpt lat="40.018255" lon="-8.352688">
<ele>299.0</ele>
<desc>Speed 36.1 km/h Distance 11.16 km</desc>
<time>2011-05-22T08:08:17.35</time>
<name>2905</name>
<sym>Dot</sym>
</trkpt>
<trkpt lat="40.018173" lon="-8.352730">
<ele>299.0</ele>
<desc>Speed 35.3 km/h Distance 11.17 km</desc>
<time>2011-05-22T08:08:18.35</time>
<name>2906</name>
<sym>Dot</sym>
</trkpt>
<trkpt lat="40.018092" lon="-8.352777">
<ele>299.0</ele>
<desc>Speed 35.3 km/h Distance 11.18 km</desc>
<time>2011-05-22T08:08:19.35</time>
<name>2907</name>
<sym>Dot</sym>
</trkpt>
<trkpt lat="40.018012" lon="-8.352822">
<ele>299.0</ele>
<desc>Speed 35.1 km/h Distance 11.19 km</desc>
<time>2011-05-22T08:08:20.35</time>
<name>2908</name>
<sym>Dot</sym>
</trkpt>
<trkpt lat="40.017932" lon="-8.352863">
<ele>298.5</ele>
<desc>Speed 34.1 km/h Distance 11.20 km</desc>
<time>2011-05-22T08:08:21.35</time>
<name>2909</name>
<sym>Dot</sym>
</trkpt>
<trkpt lat="40.017853" lon="-8.352903">
<ele>298.5</ele>
<desc>Speed 33.9 km/h Distance 11.21 km</desc>
<time>2011-05-22T08:08:22.35</time>
<name>2910</name>
<sym>Dot</sym>
</trkpt>
<trkpt lat="40.017773" lon="-8.352942">
<ele>298.5</ele>
<desc>Speed 33.8 km/h Distance 11.22 km</desc>
<time>2011-05-22T08:08:23.35</time>
<name>2911</name>
<sym>Dot</sym>
</trkpt>
<trkpt lat="40.017697" lon="-8.352982">
<ele>298.5</ele>
<desc>Speed 33.4 km/h Distance 11.23 km</desc>
<time>2011-05-22T08:08:24.35</time>
<name>2912</name>
<sym>Dot</sym>
</trkpt>
<trkpt lat="40.017620" lon="-8.353022">
<ele>298.5</ele>
<desc>Speed 32.9 km/h Distance 11.24 km</desc>
<time>2011-05-22T08:08:25.35</time>
<name>2913</name>
<sym>Dot</sym>
</trkpt>
<trkpt lat="40.017545" lon="-8.353063">
<ele>298.5</ele>
<desc>Speed 32.6 km/h Distance 11.25 km</desc>
<time>2011-05-22T08:08:26.35</time>
<name>2914</name>
<sym>Dot</sym>
</trkpt>
<trkpt lat="40.017472" lon="-8.353110">
<ele>298.5</ele>
<desc>Speed 32.4 km/h Distance 11.26 km</desc>
<time>2011-05-22T08:08:27.35</time>
<name>2915</name>
<sym>Dot</sym>
</trkpt>
<trkpt lat="40.017400" lon="-8.353155">
<ele>298.5</ele>
<desc>Speed 32.1 km/h Distance 11.27 km</desc>
<time>2011-05-22T08:08:28.35</time>
<name>2916</name>
<sym>Dot</sym>
</trkpt>
<trkpt lat="40.017328" lon="-8.353197">
<ele>298.5</ele>
<desc>Speed 31.9 km/h Distance 11.28 km</desc>
<time>2011-05-22T08:08:29.35</time>
<name>2917</name>
<sym>Dot</sym>
</trkpt>
<trkpt lat="40.017255" lon="-8.353237">
<ele>298.5</ele>
<desc>Speed 31.7 km/h Distance 11.28 km</desc>
<time>2011-05-22T08:08:30.35</time>
<name>2918</name>
<sym>Dot</sym>
</trkpt>
<trkpt lat="40.017183" lon="-8.353277">
<ele>298.5</ele>
<desc>Speed 31.2 km/h Distance 11.29 km</desc>
<time>2011-05-22T08:08:31.35</time>
<name>2919</name>
<sym>Dot</sym>
</trkpt>
<trkpt lat="40.017113" lon="-8.353318">
<ele>298.5</ele>
<desc>Speed 31.0 km/h Distance 11.30 km</desc>
<time>2011-05-22T08:08:32.35</time>
<name>2920</name>
<sym>Dot</sym>
</trkpt>
<trkpt lat="40.017043" lon="-8.353360">
<ele>298.5</ele>
<desc>Speed 30.6 km/h Distance 11.31 km</desc>
<time>2011-05-22T08:08:33.35</time>
<name>2921</name>
<sym>Dot</sym>
</trkpt>
<trkpt lat="40.016975" lon="-8.353402">
<ele>298.5</ele>
<desc>Speed 30.3 km/h Distance 11.32 km</desc>
<time>2011-05-22T08:08:34.35</time>
<name>2922</name>
<sym>Dot</sym>
</trkpt>
<trkpt lat="40.016908" lon="-8.353443">
<ele>298.5</ele>
<desc>Speed 30.0 km/h Distance 11.33 km</desc>
<time>2011-05-22T08:08:35.35</time>
<name>2923</name>
<sym>Dot</sym>
</trkpt>
<trkpt lat="40.016840" lon="-8.353480">
<ele>298.5</ele>
<desc>Speed 29.6 km/h Distance 11.33 km</desc>
<time>2011-05-22T08:08:36.35</time>
<name>2924</name>
<sym>Dot</sym>
</trkpt>
<trkpt lat="40.016773" lon="-8.353520">
<ele>298.0</ele>
<desc>Speed 29.3 km/h Distance 11.34 km</desc>
<time>2011-05-22T08:08:37.35</time>
<name>2925</name>
<sym>Dot</sym>
</trkpt>
<trkpt lat="40.016710" lon="-8.353562">
<ele>298.0</ele>
<desc>Speed 28.4 km/h Distance 11.35 km</desc>
<time>2011-05-22T08:08:38.35</time>
<name>2926</name>
<sym>Dot</sym>
</trkpt>
<trkpt lat="40.016647" lon="-8.353598">
<ele>298.0</ele>
<desc>Speed 28.2 km/h Distance 11.36 km</desc>
<time>2011-05-22T08:08:39.35</time>
<name>2927</name>
<sym>Dot</sym>
</trkpt>
<trkpt lat="40.016583" lon="-8.353635">
<ele>298.0</ele>
<desc>Speed 27.8 km/h Distance 11.37 km</desc>
<time>2011-05-22T08:08:40.35</time>
<name>2928</name>
<sym>Dot</sym>
</trkpt>
<trkpt lat="40.016522" lon="-8.353672">
<ele>298.0</ele>
<desc>Speed 27.3 km/h Distance 11.37 km</desc>
<time>2011-05-22T08:08:41.35</time>
<name>2929</name>
<sym>Dot</sym>
</trkpt>
<trkpt lat="40.016460" lon="-8.353705">
<ele>298.5</ele>
<desc>Speed 26.9 km/h Distance 11.38 km</desc>
<time>2011-05-22T08:08:42.35</time>
<name>2930</name>
<sym>Dot</sym>
</trkpt>
<trkpt lat="40.016398" lon="-8.353740">
<ele>298.5</ele>
<desc>Speed 26.6 km/h Distance 11.39 km</desc>
<time>2011-05-22T08:08:43.35</time>
<name>2931</name>
<sym>Dot</sym>
</trkpt>
<trkpt lat="40.016338" lon="-8.353773">
<ele>298.5</ele>
<desc>Speed 26.5 km/h Distance 11.40 km</desc>
<time>2011-05-22T08:08:44.35</time>
<name>2932</name>
<sym>Dot</sym>
</trkpt>
<trkpt lat="40.016278" lon="-8.353807">
<ele>298.5</ele>
<desc>Speed 25.8 km/h Distance 11.40 km</desc>
<time>2011-05-22T08:08:45.35</time>
<name>2933</name>
<sym>Dot</sym>
</trkpt>
<trkpt lat="40.016218" lon="-8.353842">
<ele>298.5</ele>
<desc>Speed 26.4 km/h Distance 11.41 km</desc>
<time>2011-05-22T08:08:46.35</time>
<name>2934</name>
<sym>Dot</sym>
</trkpt>
<trkpt lat="40.016162" lon="-8.353875">
<ele>298.5</ele>
<desc>Speed 25.3 km/h Distance 11.42 km</desc>
<time>2011-05-22T08:08:47.35</time>
<name>2935</name>
<sym>Dot</sym>
</trkpt>
<trkpt lat="40.016105" lon="-8.353908">
<ele>298.5</ele>
<desc>Speed 24.8 km/h Distance 11.42 km</desc>
<time>2011-05-22T08:08:48.35</time>
<name>2936</name>
<sym>Dot</sym>
</trkpt>
<trkpt lat="40.016048" lon="-8.353942">
<ele>298.5</ele>
<desc>Speed 24.6 km/h Distance 11.43 km</desc>
<time>2011-05-22T08:08:49.35</time>
<name>2937</name>
<sym>Dot</sym>
</trkpt>
<trkpt lat="40.015992" lon="-8.353973">
<ele>299.0</ele>
<desc>Speed 24.6 km/h Distance 11.44 km</desc>
<time>2011-05-22T08:08:50.35</time>
<name>2938</name>
<sym>Dot</sym>
</trkpt>
<trkpt lat="40.015937" lon="-8.354007">
<ele>299.0</ele>
<desc>Speed 24.6 km/h Distance 11.44 km</desc>
<time>2011-05-22T08:08:51.35</time>
<name>2939</name>
<sym>Dot</sym>
</trkpt>
<trkpt lat="40.015877" lon="-8.354038">
<ele>299.0</ele>
<desc>Speed 25.7 km/h Distance 11.45 km</desc>
<time>2011-05-22T08:08:52.35</time>
<name>2940</name>
<sym>Dot</sym>
</trkpt>
<trkpt lat="40.015817" lon="-8.354073">
<ele>299.0</ele>
<desc>Speed 26.7 km/h Distance 11.46 km</desc>
<time>2011-05-22T08:08:53.35</time>
<name>2941</name>
<sym>Dot</sym>
</trkpt>
<trkpt lat="40.015755" lon="-8.354110">
<ele>299.0</ele>
<desc>Speed 27.1 km/h Distance 11.47 km</desc>
<time>2011-05-22T08:08:54.35</time>
<name>2942</name>
<sym>Dot</sym>
</trkpt>
<trkpt lat="40.015693" lon="-8.354147">
<ele>298.5</ele>
<desc>Speed 27.4 km/h Distance 11.47 km</desc>
<time>2011-05-22T08:08:55.35</time>
<name>2943</name>
<sym>Dot</sym>
</trkpt>
<trkpt lat="40.015630" lon="-8.354183">
<ele>298.5</ele>
<desc>Speed 27.4 km/h Distance 11.48 km</desc>
<time>2011-05-22T08:08:56.35</time>
<name>2944</name>
<sym>Dot</sym>
</trkpt>
<trkpt lat="40.015567" lon="-8.354217">
<ele>298.5</ele>
<desc>Speed 27.7 km/h Distance 11.49 km</desc>
<time>2011-05-22T08:08:57.35</time>
<name>2945</name>
<sym>Dot</sym>
</trkpt>
<trkpt lat="40.015502" lon="-8.354247">
<ele>298.0</ele>
<desc>Speed 28.2 km/h Distance 11.50 km</desc>
<time>2011-05-22T08:08:58.35</time>
<name>2946</name>
<sym>Dot</sym>
</trkpt>
<trkpt lat="40.015435" lon="-8.354278">
<ele>298.0</ele>
<desc>Speed 28.3 km/h Distance 11.51 km</desc>
<time>2011-05-22T08:08:59.35</time>
<name>2947</name>
<sym>Dot</sym>
</trkpt>
<trkpt lat="40.015367" lon="-8.354312">
<ele>297.5</ele>
<desc>Speed 28.9 km/h Distance 11.51 km</desc>
<time>2011-05-22T08:09:00.35</time>
<name>2948</name>
<sym>Dot</sym>
</trkpt>
<trkpt lat="40.015298" lon="-8.354347">
<ele>297.5</ele>
<desc>Speed 29.3 km/h Distance 11.52 km</desc>
<time>2011-05-22T08:09:01.35</time>
<name>2949</name>
<sym>Dot</sym>
</trkpt>
<trkpt lat="40.015228" lon="-8.354380">
<ele>297.5</ele>
<desc>Speed 29.8 km/h Distance 11.53 km</desc>
<time>2011-05-22T08:09:02.35</time>
<name>2950</name>
<sym>Dot</sym>
</trkpt>
<trkpt lat="40.015158" lon="-8.354413">
<ele>297.5</ele>
<desc>Speed 30.2 km/h Distance 11.54 km</desc>
<time>2011-05-22T08:09:03.35</time>
<name>2951</name>
<sym>Dot</sym>
</trkpt>
<trkpt lat="40.015087" lon="-8.354445">
<ele>297.0</ele>
<desc>Speed 30.2 km/h Distance 11.55 km</desc>
<time>2011-05-22T08:09:04.35</time>
<name>2952</name>
<sym>Dot</sym>
</trkpt>
<trkpt lat="40.015017" lon="-8.354478">
<ele>297.0</ele>
<desc>Speed 30.5 km/h Distance 11.55 km</desc>
<time>2011-05-22T08:09:05.35</time>
<name>2953</name>
<sym>Dot</sym>
</trkpt>
<trkpt lat="40.014943" lon="-8.354513">
<ele>296.5</ele>
<desc>Speed 30.9 km/h Distance 11.56 km</desc>
<time>2011-05-22T08:09:06.35</time>
<name>2954</name>
<sym>Dot</sym>
</trkpt>
<trkpt lat="40.014870" lon="-8.354547">
<ele>296.5</ele>
<desc>Speed 31.2 km/h Distance 11.57 km</desc>
<time>2011-05-22T08:09:07.35</time>
<name>2955</name>
<sym>Dot</sym>
</trkpt>
<trkpt lat="40.014795" lon="-8.354580">
<ele>296.0</ele>
<desc>Speed 31.7 km/h Distance 11.58 km</desc>
<time>2011-05-22T08:09:08.35</time>
<name>2956</name>
<sym>Dot</sym>
</trkpt>
<trkpt lat="40.014720" lon="-8.354612">
<ele>295.5</ele>
<desc>Speed 31.8 km/h Distance 11.59 km</desc>
<time>2011-05-22T08:09:09.35</time>
<name>2957</name>
<sym>Dot</sym>
</trkpt>
<trkpt lat="40.014645" lon="-8.354645">
<ele>295.5</ele>
<desc>Speed 32.0 km/h Distance 11.60 km</desc>
<time>2011-05-22T08:09:10.35</time>
<name>2958</name>
<sym>Dot</sym>
</trkpt>
<trkpt lat="40.014572" lon="-8.354682">
<ele>295.0</ele>
<desc>Speed 32.1 km/h Distance 11.61 km</desc>
<time>2011-05-22T08:09:11.35</time>
<name>2959</name>
<sym>Dot</sym>
</trkpt>
<trkpt lat="40.014495" lon="-8.354717">
<ele>294.5</ele>
<desc>Speed 32.4 km/h Distance 11.62 km</desc>
<time>2011-05-22T08:09:12.35</time>
<name>2960</name>
<sym>Dot</sym>
</trkpt>
<trkpt lat="40.014418" lon="-8.354748">
<ele>294.5</ele>
<desc>Speed 32.5 km/h Distance 11.63 km</desc>
<time>2011-05-22T08:09:13.35</time>
<name>2961</name>
<sym>Dot</sym>
</trkpt>
<trkpt lat="40.014340" lon="-8.354782">
<ele>294.0</ele>
<desc>Speed 32.8 km/h Distance 11.63 km</desc>
<time>2011-05-22T08:09:14.35</time>
<name>2962</name>
<sym>Dot</sym>
</trkpt>
<trkpt lat="40.014262" lon="-8.354817">
<ele>294.0</ele>
<desc>Speed 33.0 km/h Distance 11.64 km</desc>
<time>2011-05-22T08:09:15.35</time>
<name>2963</name>
<sym>Dot</sym>
</trkpt>
<trkpt lat="40.014185" lon="-8.354855">
<ele>294.0</ele>
<desc>Speed 33.1 km/h Distance 11.65 km</desc>
<time>2011-05-22T08:09:16.35</time>
<name>2964</name>
<sym>Dot</sym>
</trkpt>
<trkpt lat="40.014107" lon="-8.354892">
<ele>293.5</ele>
<desc>Speed 33.3 km/h Distance 11.66 km</desc>
<time>2011-05-22T08:09:17.35</time>
<name>2965</name>
<sym>Dot</sym>
</trkpt>
<trkpt lat="40.014028" lon="-8.354928">
<ele>293.5</ele>
<desc>Speed 33.5 km/h Distance 11.67 km</desc>
<time>2011-05-22T08:09:18.35</time>
<name>2966</name>
<sym>Dot</sym>
</trkpt>
<trkpt lat="40.013948" lon="-8.354963">
<ele>293.5</ele>
<desc>Speed 33.8 km/h Distance 11.68 km</desc>
<time>2011-05-22T08:09:19.35</time>
<name>2967</name>
<sym>Dot</sym>
</trkpt>
<trkpt lat="40.013868" lon="-8.354998">
<ele>293.0</ele>
<desc>Speed 33.5 km/h Distance 11.69 km</desc>
<time>2011-05-22T08:09:20.35</time>
<name>2968</name>
<sym>Dot</sym>
</trkpt>
<trkpt lat="40.013788" lon="-8.355033">
<ele>293.0</ele>
<desc>Speed 33.6 km/h Distance 11.70 km</desc>
<time>2011-05-22T08:09:21.35</time>
<name>2969</name>
<sym>Dot</sym>
</trkpt>
<trkpt lat="40.013710" lon="-8.355068">
<ele>293.0</ele>
<desc>Speed 33.5 km/h Distance 11.71 km</desc>
<time>2011-05-22T08:09:22.35</time>
<name>2970</name>
<sym>Dot</sym>
</trkpt>
<trkpt lat="40.013630" lon="-8.355103">
<ele>292.5</ele>
<desc>Speed 33.7 km/h Distance 11.72 km</desc>
<time>2011-05-22T08:09:23.35</time>
<name>2971</name>
<sym>Dot</sym>
</trkpt>
<trkpt lat="40.013550" lon="-8.355142">
<ele>292.0</ele>
<desc>Speed 34.0 km/h Distance 11.73 km</desc>
<time>2011-05-22T08:09:24.35</time>
<name>2972</name>
<sym>Dot</sym>
</trkpt>
<trkpt lat="40.013470" lon="-8.355180">
<ele>292.0</ele>
<desc>Speed 33.9 km/h Distance 11.74 km</desc>
<time>2011-05-22T08:09:25.35</time>
<name>2973</name>
<sym>Dot</sym>
</trkpt>
<trkpt lat="40.013390" lon="-8.355218">
<ele>291.5</ele>
<desc>Speed 34.4 km/h Distance 11.75 km</desc>
<time>2011-05-22T08:09:26.35</time>
<name>2974</name>
<sym>Dot</sym>
</trkpt>
<trkpt lat="40.013310" lon="-8.355257">
<ele>291.5</ele>
<desc>Speed 34.2 km/h Distance 11.76 km</desc>
<time>2011-05-22T08:09:27.35</time>
<name>2975</name>
<sym>Dot</sym>
</trkpt>
<trkpt lat="40.013230" lon="-8.355295">
<ele>291.0</ele>
<desc>Speed 34.1 km/h Distance 11.77 km</desc>
<time>2011-05-22T08:09:28.35</time>
<name>2976</name>
<sym>Dot</sym>
</trkpt>
<trkpt lat="40.013150" lon="-8.355335">
<ele>291.0</ele>
<desc>Speed 34.0 km/h Distance 11.78 km</desc>
<time>2011-05-22T08:09:29.35</time>
<name>2977</name>
<sym>Dot</sym>
</trkpt>
<trkpt lat="40.013070" lon="-8.355377">
<ele>290.5</ele>
<desc>Speed 34.3 km/h Distance 11.78 km</desc>
<time>2011-05-22T08:09:30.35</time>
<name>2978</name>
<sym>Dot</sym>
</trkpt>
<trkpt lat="40.012993" lon="-8.355422">
<ele>290.0</ele>
<desc>Speed 34.1 km/h Distance 11.79 km</desc>
<time>2011-05-22T08:09:31.35</time>
<name>2979</name>
<sym>Dot</sym>
</trkpt>
<trkpt lat="40.012915" lon="-8.355470">
<ele>290.0</ele>
<desc>Speed 34.3 km/h Distance 11.80 km</desc>
<time>2011-05-22T08:09:32.35</time>
<name>2980</name>
<sym>Dot</sym>
</trkpt>
<trkpt lat="40.012838" lon="-8.355518">
<ele>289.5</ele>
<desc>Speed 34.2 km/h Distance 11.81 km</desc>
<time>2011-05-22T08:09:33.35</time>
<name>2981</name>
<sym>Dot</sym>
</trkpt>
<trkpt lat="40.012765" lon="-8.355573">
<ele>289.5</ele>
<desc>Speed 33.8 km/h Distance 11.82 km</desc>
<time>2011-05-22T08:09:34.35</time>
<name>2982</name>
<sym>Dot</sym>
</trkpt>
<trkpt lat="40.012695" lon="-8.355632">
<ele>289.5</ele>
<desc>Speed 33.2 km/h Distance 11.83 km</desc>
<time>2011-05-22T08:09:35.35</time>
<name>2983</name>
<sym>Dot</sym>
</trkpt>
<trkpt lat="40.012627" lon="-8.355690">
<ele>289.0</ele>
<desc>Speed 32.8 km/h Distance 11.84 km</desc>
<time>2011-05-22T08:09:36.35</time>
<name>2984</name>
<sym>Dot</sym>
</trkpt>
<trkpt lat="40.012560" lon="-8.355748">
<ele>288.5</ele>
<desc>Speed 32.3 km/h Distance 11.85 km</desc>
<time>2011-05-22T08:09:37.35</time>
<name>2985</name>
<sym>Dot</sym>
</trkpt>
<trkpt lat="40.012495" lon="-8.355808">
<ele>288.5</ele>
<desc>Speed 32.0 km/h Distance 11.86 km</desc>
<time>2011-05-22T08:09:38.35</time>
<name>2986</name>
<sym>Dot</sym>
</trkpt>
<trkpt lat="40.012432" lon="-8.355870">
<ele>288.0</ele>
<desc>Speed 31.9 km/h Distance 11.87 km</desc>
<time>2011-05-22T08:09:39.35</time>
<name>2987</name>
<sym>Dot</sym>
</trkpt>
<trkpt lat="40.012370" lon="-8.355933">
<ele>288.0</ele>
<desc>Speed 31.6 km/h Distance 11.88 km</desc>
<time>2011-05-22T08:09:40.35</time>
<name>2988</name>
<sym>Dot</sym>
</trkpt>
<trkpt lat="40.012310" lon="-8.355998">
<ele>287.5</ele>
<desc>Speed 31.6 km/h Distance 11.89 km</desc>
<time>2011-05-22T08:09:41.35</time>
<name>2989</name>
<sym>Dot</sym>
</trkpt>
<trkpt lat="40.012248" lon="-8.356065">
<ele>287.5</ele>
<desc>Speed 31.4 km/h Distance 11.89 km</desc>
<time>2011-05-22T08:09:42.35</time>
<name>2990</name>
<sym>Dot</sym>
</trkpt>
<trkpt lat="40.012190" lon="-8.356128">
<ele>287.0</ele>
<desc>Speed 31.0 km/h Distance 11.90 km</desc>
<time>2011-05-22T08:09:43.35</time>
<name>2991</name>
<sym>Dot</sym>
</trkpt>
<trkpt lat="40.012133" lon="-8.356193">
<ele>287.0</ele>
<desc>Speed 30.5 km/h Distance 11.91 km</desc>
<time>2011-05-22T08:09:44.35</time>
<name>2992</name>
<sym>Dot</sym>
</trkpt>
<trkpt lat="40.012078" lon="-8.356260">
<ele>287.0</ele>
<desc>Speed 30.2 km/h Distance 11.92 km</desc>
<time>2011-05-22T08:09:45.35</time>
<name>2993</name>
<sym>Dot</sym>
</trkpt>
<trkpt lat="40.012022" lon="-8.356325">
<ele>286.5</ele>
<desc>Speed 30.1 km/h Distance 11.93 km</desc>
<time>2011-05-22T08:09:46.35</time>
<name>2994</name>
<sym>Dot</sym>
</trkpt>
<trkpt lat="40.011965" lon="-8.356388">
<ele>286.5</ele>
<desc>Speed 29.9 km/h Distance 11.94 km</desc>
<time>2011-05-22T08:09:47.35</time>
<name>2995</name>
<sym>Dot</sym>
</trkpt>
<trkpt lat="40.011913" lon="-8.356453">
<ele>286.0</ele>
<desc>Speed 29.2 km/h Distance 11.94 km</desc>
<time>2011-05-22T08:09:48.35</time>
<name>2996</name>
<sym>Dot</sym>
</trkpt>
<trkpt lat="40.011862" lon="-8.356518">
<ele>286.0</ele>
<desc>Speed 28.9 km/h Distance 11.95 km</desc>
<time>2011-05-22T08:09:49.35</time>
<name>2997</name>
<sym>Dot</sym>
</trkpt>
<trkpt lat="40.011810" lon="-8.356583">
<ele>285.5</ele>
<desc>Speed 28.9 km/h Distance 11.96 km</desc>
<time>2011-05-22T08:09:50.35</time>
<name>2998</name>
<sym>Dot</sym>
</trkpt>
<trkpt lat="40.011758" lon="-8.356648">
<ele>285.5</ele>
<desc>Speed 28.3 km/h Distance 11.97 km</desc>
<time>2011-05-22T08:09:51.35</time>
<name>2999</name>
<sym>Dot</sym>
</trkpt>
<trkpt lat="40.011708" lon="-8.356712">
<ele>285.0</ele>
<desc>Speed 28.2 km/h Distance 11.98 km</desc>
<time>2011-05-22T08:09:52.35</time>
<name>3000</name>
<sym>Dot</sym>
</trkpt>
<trkpt lat="40.011660" lon="-8.356775">
<ele>285.0</ele>
<desc>Speed 27.9 km/h Distance 11.98 km</desc>
<time>2011-05-22T08:09:53.35</time>
<name>3001</name>
<sym>Dot</sym>
</trkpt>
<trkpt lat="40.011612" lon="-8.356840">
<ele>285.0</ele>
<desc>Speed 27.9 km/h Distance 11.99 km</desc>
<time>2011-05-22T08:09:54.35</time>
<name>3002</name>
<sym>Dot</sym>
</trkpt>
<trkpt lat="40.011563" lon="-8.356903">
<ele>284.5</ele>
<desc>Speed 27.7 km/h Distance 12.00 km</desc>
<time>2011-05-22T08:09:55.35</time>
<name>3003</name>
<sym>Dot</sym>
</trkpt>
<trkpt lat="40.011515" lon="-8.356967">
<ele>284.5</ele>
<desc>Speed 27.5 km/h Distance 12.01 km</desc>
<time>2011-05-22T08:09:56.35</time>
<name>3004</name>
<sym>Dot</sym>
</trkpt>
<trkpt lat="40.011468" lon="-8.357033">
<ele>284.0</ele>
<desc>Speed 27.5 km/h Distance 12.01 km</desc>
<time>2011-05-22T08:09:57.35</time>
<name>3005</name>
<sym>Dot</sym>
</trkpt>
<trkpt lat="40.011425" lon="-8.357103">
<ele>284.0</ele>
<desc>Speed 27.6 km/h Distance 12.02 km</desc>
<time>2011-05-22T08:09:58.35</time>
<name>3006</name>
<sym>Dot</sym>
</trkpt>
<trkpt lat="40.011383" lon="-8.357170">
<ele>283.5</ele>
<desc>Speed 26.9 km/h Distance 12.03 km</desc>
<time>2011-05-22T08:09:59.35</time>
<name>3007</name>
<sym>Dot</sym>
</trkpt>
<trkpt lat="40.011347" lon="-8.357243">
<ele>283.5</ele>
<desc>Speed 26.8 km/h Distance 12.04 km</desc>
<time>2011-05-22T08:10:00.35</time>
<name>3008</name>
<sym>Dot</sym>
</trkpt>
<trkpt lat="40.011330" lon="-8.357328">
<ele>282.0</ele>
<desc>Speed 26.8 km/h Distance 12.04 km</desc>
<time>2011-05-22T08:10:01.35</time>
<name>3009</name>
<sym>Dot</sym>
</trkpt>
<trkpt lat="40.011317" lon="-8.357417">
<ele>282.0</ele>
<desc>Speed 27.5 km/h Distance 12.05 km</desc>
<time>2011-05-22T08:10:02.35</time>
<name>3010</name>
<sym>Dot</sym>
</trkpt>
<trkpt lat="40.011305" lon="-8.357505">
<ele>281.5</ele>
<desc>Speed 27.5 km/h Distance 12.06 km</desc>
<time>2011-05-22T08:10:03.35</time>
<name>3011</name>
<sym>Dot</sym>
</trkpt>
<trkpt lat="40.011295" lon="-8.357595">
<ele>281.5</ele>
<desc>Speed 27.5 km/h Distance 12.07 km</desc>
<time>2011-05-22T08:10:04.35</time>
<name>3012</name>
<sym>Dot</sym>
</trkpt>
<trkpt lat="40.011278" lon="-8.357682">
<ele>281.0</ele>
<desc>Speed 27.7 km/h Distance 12.07 km</desc>
<time>2011-05-22T08:10:05.35</time>
<name>3013</name>
<sym>Dot</sym>
</trkpt>
<trkpt lat="40.011255" lon="-8.357767">
<ele>281.0</ele>
<desc>Speed 27.4 km/h Distance 12.08 km</desc>
<time>2011-05-22T08:10:06.35</time>
<name>3014</name>
<sym>Dot</sym>
</trkpt>
<trkpt lat="40.011215" lon="-8.357840">
<ele>280.5</ele>
<desc>Speed 27.7 km/h Distance 12.09 km</desc>
<time>2011-05-22T08:10:07.35</time>
<name>3015</name>
<sym>Dot</sym>
</trkpt>
<trkpt lat="40.011165" lon="-8.357902">
<ele>280.0</ele>
<desc>Speed 27.3 km/h Distance 12.10 km</desc>
<time>2011-05-22T08:10:08.35</time>
<name>3016</name>
<sym>Dot</sym>
</trkpt>
<trkpt lat="40.011113" lon="-8.357952">
<ele>280.0</ele>
<desc>Speed 26.1 km/h Distance 12.10 km</desc>
<time>2011-05-22T08:10:09.35</time>
<name>3017</name>
<sym>Dot</sym>
</trkpt>
<trkpt lat="40.011058" lon="-8.358005">
<ele>280.0</ele>
<desc>Speed 26.9 km/h Distance 12.11 km</desc>
<time>2011-05-22T08:10:10.35</time>
<name>3018</name>
<sym>Dot</sym>
</trkpt>
<trkpt lat="40.011007" lon="-8.358067">
<ele>279.5</ele>
<desc>Speed 28.2 km/h Distance 12.12 km</desc>
<time>2011-05-22T08:10:11.35</time>
<name>3019</name>
<sym>Dot</sym>
</trkpt>
<trkpt lat="40.010960" lon="-8.358140">
<ele>279.0</ele>
<desc>Speed 29.7 km/h Distance 12.13 km</desc>
<time>2011-05-22T08:10:12.35</time>
<name>3020</name>
<sym>Dot</sym>
</trkpt>
<trkpt lat="40.010918" lon="-8.358225">
<ele>278.5</ele>
<desc>Speed 31.1 km/h Distance 12.14 km</desc>
<time>2011-05-22T08:10:13.35</time>
<name>3021</name>
<sym>Dot</sym>
</trkpt>
<trkpt lat="40.010883" lon="-8.358317">
<ele>278.5</ele>
<desc>Speed 31.4 km/h Distance 12.15 km</desc>
<time>2011-05-22T08:10:14.35</time>
<name>3022</name>
<sym>Dot</sym>
</trkpt>
<trkpt lat="40.010857" lon="-8.358415">
<ele>278.0</ele>
<desc>Speed 32.7 km/h Distance 12.15 km</desc>
<time>2011-05-22T08:10:15.35</time>
<name>3023</name>
<sym>Dot</sym>
</trkpt>
<trkpt lat="40.010833" lon="-8.358520">
<ele>277.5</ele>
<desc>Speed 33.8 km/h Distance 12.16 km</desc>
<time>2011-05-22T08:10:16.35</time>
<name>3024</name>
<sym>Dot</sym>
</trkpt>
<trkpt lat="40.010808" lon="-8.358627">
<ele>277.0</ele>
<desc>Speed 34.3 km/h Distance 12.17 km</desc>
<time>2011-05-22T08:10:17.35</time>
<name>3025</name>
<sym>Dot</sym>
</trkpt>
<trkpt lat="40.010783" lon="-8.358735">
<ele>277.0</ele>
<desc>Speed 34.9 km/h Distance 12.18 km</desc>
<time>2011-05-22T08:10:18.35</time>
<name>3026</name>
<sym>Dot</sym>
</trkpt>
<trkpt lat="40.010757" lon="-8.358845">
<ele>276.5</ele>
<desc>Speed 35.4 km/h Distance 12.19 km</desc>
<time>2011-05-22T08:10:19.35</time>
<name>3027</name>
<sym>Dot</sym>
</trkpt>
<trkpt lat="40.010730" lon="-8.358957">
<ele>276.0</ele>
<desc>Speed 36.1 km/h Distance 12.20 km</desc>
<time>2011-05-22T08:10:20.35</time>
<name>3028</name>
<sym>Dot</sym>
</trkpt>
<trkpt lat="40.010705" lon="-8.359072">
<ele>276.0</ele>
<desc>Speed 36.8 km/h Distance 12.21 km</desc>
<time>2011-05-22T08:10:21.35</time>
<name>3029</name>
<sym>Dot</sym>
</trkpt>
<trkpt lat="40.010678" lon="-8.359188">
<ele>275.5</ele>
<desc>Speed 37.4 km/h Distance 12.22 km</desc>
<time>2011-05-22T08:10:22.35</time>
<name>3030</name>
<sym>Dot</sym>
</trkpt>
<trkpt lat="40.010652" lon="-8.359305">
<ele>275.5</ele>
<desc>Speed 37.9 km/h Distance 12.23 km</desc>
<time>2011-05-22T08:10:23.35</time>
<name>3031</name>
<sym>Dot</sym>
</trkpt>
<trkpt lat="40.010623" lon="-8.359425">
<ele>275.0</ele>
<desc>Speed 38.4 km/h Distance 12.24 km</desc>
<time>2011-05-22T08:10:24.35</time>
<name>3032</name>
<sym>Dot</sym>
</trkpt>
<trkpt lat="40.010595" lon="-8.359545">
<ele>274.5</ele>
<desc>Speed 39.0 km/h Distance 12.26 km</desc>
<time>2011-05-22T08:10:25.35</time>
<name>3033</name>
<sym>Dot</sym>
</trkpt>
<trkpt lat="40.010565" lon="-8.359668">
<ele>274.0</ele>
<desc>Speed 39.7 km/h Distance 12.27 km</desc>
<time>2011-05-22T08:10:26.35</time>
<name>3034</name>
<sym>Dot</sym>
</trkpt>
<trkpt lat="40.010535" lon="-8.359792">
<ele>273.5</ele>
<desc>Speed 40.0 km/h Distance 12.28 km</desc>
<time>2011-05-22T08:10:27.35</time>
<name>3035</name>
<sym>Dot</sym>
</trkpt>
<trkpt lat="40.010508" lon="-8.359918">
<ele>273.0</ele>
<desc>Speed 40.5 km/h Distance 12.29 km</desc>
<time>2011-05-22T08:10:28.35</time>
<name>3036</name>
<sym>Dot</sym>
</trkpt>
<trkpt lat="40.010488" lon="-8.360050">
<ele>272.5</ele>
<desc>Speed 40.9 km/h Distance 12.30 km</desc>
<time>2011-05-22T08:10:29.35</time>
<name>3037</name>
<sym>Dot</sym>
</trkpt>
<trkpt lat="40.010482" lon="-8.360185">
<ele>272.0</ele>
<desc>Speed 41.8 km/h Distance 12.31 km</desc>
<time>2011-05-22T08:10:30.35</time>
<name>3038</name>
<sym>Dot</sym>
</trkpt>
<trkpt lat="40.010482" lon="-8.360322">
<ele>271.5</ele>
<desc>Speed 42.1 km/h Distance 12.32 km</desc>
<time>2011-05-22T08:10:31.35</time>
<name>3039</name>
<sym>Dot</sym>
</trkpt>
<trkpt lat="40.010485" lon="-8.360460">
<ele>270.5</ele>
<desc>Speed 42.6 km/h Distance 12.33 km</desc>
<time>2011-05-22T08:10:32.35</time>
<name>3040</name>
<sym>Dot</sym>
</trkpt>
<trkpt lat="40.010488" lon="-8.360598">
<ele>270.0</ele>
<desc>Speed 42.8 km/h Distance 12.35 km</desc>
<time>2011-05-22T08:10:33.35</time>
<name>3041</name>
<sym>Dot</sym>
</trkpt>
<trkpt lat="40.010492" lon="-8.360738">
<ele>269.5</ele>
<desc>Speed 43.5 km/h Distance 12.36 km</desc>
<time>2011-05-22T08:10:34.35</time>
<name>3042</name>
<sym>Dot</sym>
</trkpt>
<trkpt lat="40.010493" lon="-8.360882">
<ele>269.0</ele>
<desc>Speed 43.8 km/h Distance 12.37 km</desc>
<time>2011-05-22T08:10:35.35</time>
<name>3043</name>
<sym>Dot</sym>
</trkpt>
<trkpt lat="40.010497" lon="-8.361023">
<ele>268.5</ele>
<desc>Speed 44.0 km/h Distance 12.38 km</desc>
<time>2011-05-22T08:10:36.35</time>
<name>3044</name>
<sym>Dot</sym>
</trkpt>
<trkpt lat="40.010500" lon="-8.361167">
<ele>268.0</ele>
<desc>Speed 44.2 km/h Distance 12.40 km</desc>
<time>2011-05-22T08:10:37.35</time>
<name>3045</name>
<sym>Dot</sym>
</trkpt>
<trkpt lat="40.010503" lon="-8.361310">
<ele>267.5</ele>
<desc>Speed 44.2 km/h Distance 12.41 km</desc>
<time>2011-05-22T08:10:38.35</time>
<name>3046</name>
<sym>Dot</sym>
</trkpt>
<trkpt lat="40.010507" lon="-8.361453">
<ele>267.0</ele>
<desc>Speed 44.3 km/h Distance 12.42 km</desc>
<time>2011-05-22T08:10:39.35</time>
<name>3047</name>
<sym>Dot</sym>
</trkpt>
<trkpt lat="40.010510" lon="-8.361597">
<ele>266.5</ele>
<desc>Speed 44.1 km/h Distance 12.43 km</desc>
<time>2011-05-22T08:10:40.35</time>
<name>3048</name>
<sym>Dot</sym>
</trkpt>
<trkpt lat="40.010510" lon="-8.361740">
<ele>265.5</ele>
<desc>Speed 44.0 km/h Distance 12.44 km</desc>
<time>2011-05-22T08:10:41.35</time>
<name>3049</name>
<sym>Dot</sym>
</trkpt>
<trkpt lat="40.010512" lon="-8.361885">
<ele>265.5</ele>
<desc>Speed 44.6 km/h Distance 12.46 km</desc>
<time>2011-05-22T08:10:42.35</time>
<name>3050</name>
<sym>Dot</sym>
</trkpt>
<trkpt lat="40.010513" lon="-8.362030">
<ele>265.0</ele>
<desc>Speed 44.7 km/h Distance 12.47 km</desc>
<time>2011-05-22T08:10:43.35</time>
<name>3051</name>
<sym>Dot</sym>
</trkpt>
<trkpt lat="40.010503" lon="-8.362175">
<ele>264.5</ele>
<desc>Speed 44.9 km/h Distance 12.48 km</desc>
<time>2011-05-22T08:10:44.35</time>
<name>3052</name>
<sym>Dot</sym>
</trkpt>
<trkpt lat="40.010480" lon="-8.362320">
<ele>264.0</ele>
<desc>Speed 45.3 km/h Distance 12.49 km</desc>
<time>2011-05-22T08:10:45.35</time>
<name>3053</name>
<sym>Dot</sym>
</trkpt>
<trkpt lat="40.010445" lon="-8.362462">
<ele>263.5</ele>
<desc>Speed 45.9 km/h Distance 12.51 km</desc>
<time>2011-05-22T08:10:46.35</time>
<name>3054</name>
<sym>Dot</sym>
</trkpt>
<trkpt lat="40.010397" lon="-8.362600">
<ele>262.0</ele>
<desc>Speed 46.8 km/h Distance 12.52 km</desc>
<time>2011-05-22T08:10:47.35</time>
<name>3055</name>
<sym>Dot</sym>
</trkpt>
<trkpt lat="40.010342" lon="-8.362735">
<ele>261.5</ele>
<desc>Speed 47.1 km/h Distance 12.53 km</desc>
<time>2011-05-22T08:10:48.35</time>
<name>3056</name>
<sym>Dot</sym>
</trkpt>
<trkpt lat="40.010278" lon="-8.362863">
<ele>261.0</ele>
<desc>Speed 47.2 km/h Distance 12.55 km</desc>
<time>2011-05-22T08:10:49.35</time>
<name>3057</name>
<sym>Dot</sym>
</trkpt>
<trkpt lat="40.010208" lon="-8.362985">
<ele>261.0</ele>
<desc>Speed 46.8 km/h Distance 12.56 km</desc>
<time>2011-05-22T08:10:50.35</time>
<name>3058</name>
<sym>Dot</sym>
</trkpt>
<trkpt lat="40.010133" lon="-8.363102">
<ele>260.5</ele>
<desc>Speed 46.6 km/h Distance 12.57 km</desc>
<time>2011-05-22T08:10:51.35</time>
<name>3059</name>
<sym>Dot</sym>
</trkpt>
<trkpt lat="40.010057" lon="-8.363213">
<ele>260.0</ele>
<desc>Speed 46.2 km/h Distance 12.58 km</desc>
<time>2011-05-22T08:10:52.35</time>
<name>3060</name>
<sym>Dot</sym>
</trkpt>
<trkpt lat="40.009978" lon="-8.363322">
<ele>259.0</ele>
<desc>Speed 45.6 km/h Distance 12.60 km</desc>
<time>2011-05-22T08:10:53.35</time>
<name>3061</name>
<sym>Dot</sym>
</trkpt>
<trkpt lat="40.009900" lon="-8.363425">
<ele>259.0</ele>
<desc>Speed 44.9 km/h Distance 12.61 km</desc>
<time>2011-05-22T08:10:54.35</time>
<name>3062</name>
<sym>Dot</sym>
</trkpt>
<trkpt lat="40.009822" lon="-8.363523">
<ele>258.5</ele>
<desc>Speed 43.7 km/h Distance 12.62 km</desc>
<time>2011-05-22T08:10:55.35</time>
<name>3063</name>
<sym>Dot</sym>
</trkpt>
<trkpt lat="40.009745" lon="-8.363617">
<ele>258.5</ele>
<desc>Speed 42.0 km/h Distance 12.63 km</desc>
<time>2011-05-22T08:10:56.35</time>
<name>3064</name>
<sym>Dot</sym>
</trkpt>
<trkpt lat="40.009668" lon="-8.363705">
<ele>258.5</ele>
<desc>Speed 41.1 km/h Distance 12.64 km</desc>
<time>2011-05-22T08:10:57.35</time>
<name>3065</name>
<sym>Dot</sym>
</trkpt>
<trkpt lat="40.009593" lon="-8.363792">
<ele>258.5</ele>
<desc>Speed 40.1 km/h Distance 12.66 km</desc>
<time>2011-05-22T08:10:58.35</time>
<name>3066</name>
<sym>Dot</sym>
</trkpt>
<trkpt lat="40.009520" lon="-8.363875">
<ele>258.5</ele>
<desc>Speed 39.1 km/h Distance 12.67 km</desc>
<time>2011-05-22T08:10:59.35</time>
<name>3067</name>
<sym>Dot</sym>
</trkpt>
<trkpt lat="40.009452" lon="-8.363960">
<ele>258.0</ele>
<desc>Speed 37.8 km/h Distance 12.68 km</desc>
<time>2011-05-22T08:11:00.35</time>
<name>3068</name>
<sym>Dot</sym>
</trkpt>
<trkpt lat="40.009383" lon="-8.364040">
<ele>258.0</ele>
<desc>Speed 37.0 km/h Distance 12.69 km</desc>
<time>2011-05-22T08:11:01.35</time>
<name>3069</name>
<sym>Dot</sym>
</trkpt>
<trkpt lat="40.009318" lon="-8.364120">
<ele>257.5</ele>
<desc>Speed 35.8 km/h Distance 12.70 km</desc>
<time>2011-05-22T08:11:02.35</time>
<name>3070</name>
<sym>Dot</sym>
</trkpt>
<trkpt lat="40.009255" lon="-8.364197">
<ele>257.5</ele>
<desc>Speed 35.0 km/h Distance 12.71 km</desc>
<time>2011-05-22T08:11:03.35</time>
<name>3071</name>
<sym>Dot</sym>
</trkpt>
<trkpt lat="40.009193" lon="-8.364272">
<ele>257.5</ele>
<desc>Speed 33.4 km/h Distance 12.72 km</desc>
<time>2011-05-22T08:11:04.35</time>
<name>3072</name>
<sym>Dot</sym>
</trkpt>
<trkpt lat="40.009132" lon="-8.364342">
<ele>257.0</ele>
<desc>Speed 32.6 km/h Distance 12.73 km</desc>
<time>2011-05-22T08:11:05.35</time>
<name>3073</name>
<sym>Dot</sym>
</trkpt>
<trkpt lat="40.009073" lon="-8.364408">
<ele>256.5</ele>
<desc>Speed 31.5 km/h Distance 12.73 km</desc>
<time>2011-05-22T08:11:06.35</time>
<name>3074</name>
<sym>Dot</sym>
</trkpt>
<trkpt lat="40.009017" lon="-8.364473">
<ele>256.5</ele>
<desc>Speed 30.5 km/h Distance 12.74 km</desc>
<time>2011-05-22T08:11:07.35</time>
<name>3075</name>
<sym>Dot</sym>
</trkpt>
<trkpt lat="40.008960" lon="-8.364538">
<ele>256.5</ele>
<desc>Speed 29.4 km/h Distance 12.75 km</desc>
<time>2011-05-22T08:11:08.35</time>
<name>3076</name>
<sym>Dot</sym>
</trkpt>
<trkpt lat="40.008907" lon="-8.364600">
<ele>256.5</ele>
<desc>Speed 28.7 km/h Distance 12.76 km</desc>
<time>2011-05-22T08:11:09.35</time>
<name>3077</name>
<sym>Dot</sym>
</trkpt>
<trkpt lat="40.008855" lon="-8.364662">
<ele>256.5</ele>
<desc>Speed 27.9 km/h Distance 12.77 km</desc>
<time>2011-05-22T08:11:10.35</time>
<name>3078</name>
<sym>Dot</sym>
</trkpt>
<trkpt lat="40.008803" lon="-8.364722">
<ele>256.5</ele>
<desc>Speed 27.5 km/h Distance 12.77 km</desc>
<time>2011-05-22T08:11:11.35</time>
<name>3079</name>
<sym>Dot</sym>
</trkpt>
<trkpt lat="40.008752" lon="-8.364782">
<ele>256.5</ele>
<desc>Speed 27.5 km/h Distance 12.78 km</desc>
<time>2011-05-22T08:11:12.35</time>
<name>3080</name>
<sym>Dot</sym>
</trkpt>
<trkpt lat="40.008700" lon="-8.364842">
<ele>256.5</ele>
<desc>Speed 27.7 km/h Distance 12.79 km</desc>
<time>2011-05-22T08:11:13.35</time>
<name>3081</name>
<sym>Dot</sym>
</trkpt>
<trkpt lat="40.008648" lon="-8.364902">
<ele>256.0</ele>
<desc>Speed 27.8 km/h Distance 12.80 km</desc>
<time>2011-05-22T08:11:14.35</time>
<name>3082</name>
<sym>Dot</sym>
</trkpt>
<trkpt lat="40.008595" lon="-8.364962">
<ele>256.5</ele>
<desc>Speed 27.9 km/h Distance 12.81 km</desc>
<time>2011-05-22T08:11:15.35</time>
<name>3083</name>
<sym>Dot</sym>
</trkpt>
<trkpt lat="40.008542" lon="-8.365022">
<ele>256.0</ele>
<desc>Speed 28.3 km/h Distance 12.81 km</desc>
<time>2011-05-22T08:11:16.35</time>
<name>3084</name>
<sym>Dot</sym>
</trkpt>
<trkpt lat="40.008490" lon="-8.365085">
<ele>256.0</ele>
<desc>Speed 28.7 km/h Distance 12.82 km</desc>
<time>2011-05-22T08:11:17.35</time>
<name>3085</name>
<sym>Dot</sym>
</trkpt>
<trkpt lat="40.008435" lon="-8.365145">
<ele>256.0</ele>
<desc>Speed 28.2 km/h Distance 12.83 km</desc>
<time>2011-05-22T08:11:18.35</time>
<name>3086</name>
<sym>Dot</sym>
</trkpt>
<trkpt lat="40.008383" lon="-8.365208">
<ele>256.0</ele>
<desc>Speed 28.4 km/h Distance 12.84 km</desc>
<time>2011-05-22T08:11:19.35</time>
<name>3087</name>
<sym>Dot</sym>
</trkpt>
<trkpt lat="40.008333" lon="-8.365275">
<ele>256.0</ele>
<desc>Speed 28.7 km/h Distance 12.84 km</desc>
<time>2011-05-22T08:11:20.35</time>
<name>3088</name>
<sym>Dot</sym>
</trkpt>
<trkpt lat="40.008283" lon="-8.365342">
<ele>255.5</ele>
<desc>Speed 28.7 km/h Distance 12.85 km</desc>
<time>2011-05-22T08:11:21.35</time>
<name>3089</name>
<sym>Dot</sym>
</trkpt>
<trkpt lat="40.008230" lon="-8.365405">
<ele>255.5</ele>
<desc>Speed 28.7 km/h Distance 12.86 km</desc>
<time>2011-05-22T08:11:22.35</time>
<name>3090</name>
<sym>Dot</sym>
</trkpt>
<trkpt lat="40.008177" lon="-8.365467">
<ele>255.5</ele>
<desc>Speed 28.5 km/h Distance 12.87 km</desc>
<time>2011-05-22T08:11:23.35</time>
<name>3091</name>
<sym>Dot</sym>
</trkpt>
<trkpt lat="40.008125" lon="-8.365528">
<ele>255.5</ele>
<desc>Speed 28.2 km/h Distance 12.88 km</desc>
<time>2011-05-22T08:11:24.35</time>
<name>3092</name>
<sym>Dot</sym>
</trkpt>
<trkpt lat="40.008073" lon="-8.365590">
<ele>255.5</ele>
<desc>Speed 28.1 km/h Distance 12.88 km</desc>
<time>2011-05-22T08:11:25.35</time>
<name>3093</name>
<sym>Dot</sym>
</trkpt>
<trkpt lat="40.008022" lon="-8.365653">
<ele>256.0</ele>
<desc>Speed 28.2 km/h Distance 12.89 km</desc>
<time>2011-05-22T08:11:26.35</time>
<name>3094</name>
<sym>Dot</sym>
</trkpt>
<trkpt lat="40.007970" lon="-8.365713">
<ele>256.0</ele>
<desc>Speed 28.1 km/h Distance 12.90 km</desc>
<time>2011-05-22T08:11:27.35</time>
<name>3095</name>
<sym>Dot</sym>
</trkpt>
<trkpt lat="40.007917" lon="-8.365773">
<ele>255.5</ele>
<desc>Speed 27.7 km/h Distance 12.91 km</desc>
<time>2011-05-22T08:11:28.35</time>
<name>3096</name>
<sym>Dot</sym>
</trkpt>
<trkpt lat="40.007867" lon="-8.365835">
<ele>255.5</ele>
<desc>Speed 27.7 km/h Distance 12.92 km</desc>
<time>2011-05-22T08:11:29.35</time>
<name>3097</name>
<sym>Dot</sym>
</trkpt>
<trkpt lat="40.007815" lon="-8.365897">
<ele>255.5</ele>
<desc>Speed 27.6 km/h Distance 12.92 km</desc>
<time>2011-05-22T08:11:30.35</time>
<name>3098</name>
<sym>Dot</sym>
</trkpt>
<trkpt lat="40.007763" lon="-8.365957">
<ele>255.5</ele>
<desc>Speed 27.7 km/h Distance 12.93 km</desc>
<time>2011-05-22T08:11:31.35</time>
<name>3099</name>
<sym>Dot</sym>
</trkpt>
<trkpt lat="40.007712" lon="-8.366017">
<ele>256.0</ele>
<desc>Speed 27.9 km/h Distance 12.94 km</desc>
<time>2011-05-22T08:11:32.35</time>
<name>3100</name>
<sym>Dot</sym>
</trkpt>
<trkpt lat="40.007660" lon="-8.366078">
<ele>256.0</ele>
<desc>Speed 27.8 km/h Distance 12.95 km</desc>
<time>2011-05-22T08:11:33.35</time>
<name>3101</name>
<sym>Dot</sym>
</trkpt>
<trkpt lat="40.007610" lon="-8.366140">
<ele>256.0</ele>
<desc>Speed 27.5 km/h Distance 12.95 km</desc>
<time>2011-05-22T08:11:34.35</time>
<name>3102</name>
<sym>Dot</sym>
</trkpt>
<trkpt lat="40.007562" lon="-8.366203">
<ele>256.0</ele>
<desc>Speed 27.4 km/h Distance 12.96 km</desc>
<time>2011-05-22T08:11:35.35</time>
<name>3103</name>
<sym>Dot</sym>
</trkpt>
<trkpt lat="40.007513" lon="-8.366267">
<ele>256.0</ele>
<desc>Speed 27.3 km/h Distance 12.97 km</desc>
<time>2011-05-22T08:11:36.35</time>
<name>3104</name>
<sym>Dot</sym>
</trkpt>
<trkpt lat="40.007468" lon="-8.366328">
<ele>256.0</ele>
<desc>Speed 26.4 km/h Distance 12.98 km</desc>
<time>2011-05-22T08:11:37.35</time>
<name>3105</name>
<sym>Dot</sym>
</trkpt>
<trkpt lat="40.007423" lon="-8.366392">
<ele>256.5</ele>
<desc>Speed 26.2 km/h Distance 12.98 km</desc>
<time>2011-05-22T08:11:38.35</time>
<name>3106</name>
<sym>Dot</sym>
</trkpt>
<trkpt lat="40.007383" lon="-8.366457">
<ele>256.5</ele>
<desc>Speed 25.8 km/h Distance 12.99 km</desc>
<time>2011-05-22T08:11:39.35</time>
<name>3107</name>
<sym>Dot</sym>
</trkpt>
<trkpt lat="40.007348" lon="-8.366523">
<ele>256.5</ele>
<desc>Speed 25.2 km/h Distance 13.00 km</desc>
<time>2011-05-22T08:11:40.35</time>
<name>3108</name>
<sym>Dot</sym>
</trkpt>
<trkpt lat="40.007315" lon="-8.366595">
<ele>256.5</ele>
<desc>Speed 25.5 km/h Distance 13.00 km</desc>
<time>2011-05-22T08:11:41.35</time>
<name>3109</name>
<sym>Dot</sym>
</trkpt>
<trkpt lat="40.007283" lon="-8.366668">
<ele>256.5</ele>
<desc>Speed 25.7 km/h Distance 13.01 km</desc>
<time>2011-05-22T08:11:42.35</time>
<name>3110</name>
<sym>Dot</sym>
</trkpt>
<trkpt lat="40.007257" lon="-8.366742">
<ele>256.5</ele>
<desc>Speed 25.1 km/h Distance 13.02 km</desc>
<time>2011-05-22T08:11:43.35</time>
<name>3111</name>
<sym>Dot</sym>
</trkpt>
<trkpt lat="40.007233" lon="-8.366817">
<ele>256.5</ele>
<desc>Speed 24.8 km/h Distance 13.03 km</desc>
<time>2011-05-22T08:11:44.35</time>
<name>3112</name>
<sym>Dot</sym>
</trkpt>
<trkpt lat="40.007215" lon="-8.366892">
<ele>256.5</ele>
<desc>Speed 24.5 km/h Distance 13.03 km</desc>
<time>2011-05-22T08:11:45.35</time>
<name>3113</name>
<sym>Dot</sym>
</trkpt>
<trkpt lat="40.007200" lon="-8.366965">
<ele>257.0</ele>
<desc>Speed 22.9 km/h Distance 13.04 km</desc>
<time>2011-05-22T08:11:46.35</time>
<name>3114</name>
<sym>Dot</sym>
</trkpt>
<trkpt lat="40.007188" lon="-8.367035">
<ele>257.0</ele>
<desc>Speed 22.2 km/h Distance 13.05 km</desc>
<time>2011-05-22T08:11:47.35</time>
<name>3115</name>
<sym>Dot</sym>
</trkpt>
<trkpt lat="40.007180" lon="-8.367103">
<ele>257.5</ele>
<desc>Speed 21.0 km/h Distance 13.05 km</desc>
<time>2011-05-22T08:11:48.35</time>
<name>3116</name>
<sym>Dot</sym>
</trkpt>
<trkpt lat="40.007175" lon="-8.367168">
<ele>257.5</ele>
<desc>Speed 19.7 km/h Distance 13.06 km</desc>
<time>2011-05-22T08:11:49.35</time>
<name>3117</name>
<sym>Dot</sym>
</trkpt>
<trkpt lat="40.007172" lon="-8.367230">
<ele>258.0</ele>
<desc>Speed 18.9 km/h Distance 13.06 km</desc>
<time>2011-05-22T08:11:50.35</time>
<name>3118</name>
<sym>Dot</sym>
</trkpt>
<trkpt lat="40.007172" lon="-8.367287">
<ele>258.5</ele>
<desc>Speed 17.8 km/h Distance 13.07 km</desc>
<time>2011-05-22T08:11:51.35</time>
<name>3119</name>
<sym>Dot</sym>
</trkpt>
<trkpt lat="40.007170" lon="-8.367345">
<ele>258.5</ele>
<desc>Speed 17.6 km/h Distance 13.07 km</desc>
<time>2011-05-22T08:11:52.35</time>
<name>3120</name>
<sym>Dot</sym>
</trkpt>
<trkpt lat="40.007172" lon="-8.367402">
<ele>258.5</ele>
<desc>Speed 17.4 km/h Distance 13.08 km</desc>
<time>2011-05-22T08:11:53.35</time>
<name>3121</name>
<sym>Dot</sym>
</trkpt>
<trkpt lat="40.007175" lon="-8.367458">
<ele>259.0</ele>
<desc>Speed 17.3 km/h Distance 13.08 km</desc>
<time>2011-05-22T08:11:54.35</time>
<name>3122</name>
<sym>Dot</sym>
</trkpt>
<trkpt lat="40.007177" lon="-8.367513">
<ele>259.0</ele>
<desc>Speed 17.1 km/h Distance 13.09 km</desc>
<time>2011-05-22T08:11:55.35</time>
<name>3123</name>
<sym>Dot</sym>
</trkpt>
<trkpt lat="40.007178" lon="-8.367568">
<ele>259.0</ele>
<desc>Speed 16.9 km/h Distance 13.09 km</desc>
<time>2011-05-22T08:11:56.35</time>
<name>3124</name>
<sym>Dot</sym>
</trkpt>
<trkpt lat="40.007182" lon="-8.367623">
<ele>259.0</ele>
<desc>Speed 16.8 km/h Distance 13.10 km</desc>
<time>2011-05-22T08:11:57.35</time>
<name>3125</name>
<sym>Dot</sym>
</trkpt>
<trkpt lat="40.007185" lon="-8.367677">
<ele>259.5</ele>
<desc>Speed 16.4 km/h Distance 13.10 km</desc>
<time>2011-05-22T08:11:58.35</time>
<name>3126</name>
<sym>Dot</sym>
</trkpt>
<trkpt lat="40.007190" lon="-8.367728">
<ele>259.5</ele>
<desc>Speed 16.2 km/h Distance 13.10 km</desc>
<time>2011-05-22T08:11:59.35</time>
<name>3127</name>
<sym>Dot</sym>
</trkpt>
<trkpt lat="40.007197" lon="-8.367780">
<ele>259.5</ele>
<desc>Speed 16.0 km/h Distance 13.11 km</desc>
<time>2011-05-22T08:12:00.35</time>
<name>3128</name>
<sym>Dot</sym>
</trkpt>
<trkpt lat="40.007203" lon="-8.367832">
<ele>260.0</ele>
<desc>Speed 16.2 km/h Distance 13.11 km</desc>
<time>2011-05-22T08:12:01.35</time>
<name>3129</name>
<sym>Dot</sym>
</trkpt>
<trkpt lat="40.007208" lon="-8.367885">
<ele>260.0</ele>
<desc>Speed 16.2 km/h Distance 13.12 km</desc>
<time>2011-05-22T08:12:02.35</time>
<name>3130</name>
<sym>Dot</sym>
</trkpt>
<trkpt lat="40.007215" lon="-8.367937">
<ele>260.5</ele>
<desc>Speed 16.1 km/h Distance 13.12 km</desc>
<time>2011-05-22T08:12:03.35</time>
<name>3131</name>
<sym>Dot</sym>
</trkpt>
<trkpt lat="40.007222" lon="-8.367990">
<ele>260.5</ele>
<desc>Speed 16.3 km/h Distance 13.13 km</desc>
<time>2011-05-22T08:12:04.35</time>
<name>3132</name>
<sym>Dot</sym>
</trkpt>
<trkpt lat="40.007227" lon="-8.368042">
<ele>261.0</ele>
<desc>Speed 16.0 km/h Distance 13.13 km</desc>
<time>2011-05-22T08:12:05.35</time>
<name>3133</name>
<sym>Dot</sym>
</trkpt>
<trkpt lat="40.007232" lon="-8.368093">
<ele>261.0</ele>
<desc>Speed 16.2 km/h Distance 13.14 km</desc>
<time>2011-05-22T08:12:06.35</time>
<name>3134</name>
<sym>Dot</sym>
</trkpt>
<trkpt lat="40.007237" lon="-8.368147">
<ele>261.5</ele>
<desc>Speed 16.2 km/h Distance 13.14 km</desc>
<time>2011-05-22T08:12:07.35</time>
<name>3135</name>
<sym>Dot</sym>
</trkpt>
<trkpt lat="40.007242" lon="-8.368200">
<ele>261.5</ele>
<desc>Speed 16.4 km/h Distance 13.15 km</desc>
<time>2011-05-22T08:12:08.35</time>
<name>3136</name>
<sym>Dot</sym>
</trkpt>
<trkpt lat="40.007247" lon="-8.368253">
<ele>261.5</ele>
<desc>Speed 16.7 km/h Distance 13.15 km</desc>
<time>2011-05-22T08:12:09.35</time>
<name>3137</name>
<sym>Dot</sym>
</trkpt>
<trkpt lat="40.007253" lon="-8.368308">
<ele>262.0</ele>
<desc>Speed 16.6 km/h Distance 13.15 km</desc>
<time>2011-05-22T08:12:10.35</time>
<name>3138</name>
<sym>Dot</sym>
</trkpt>
<trkpt lat="40.007258" lon="-8.368363">
<ele>262.5</ele>
<desc>Speed 17.0 km/h Distance 13.16 km</desc>
<time>2011-05-22T08:12:11.35</time>
<name>3139</name>
<sym>Dot</sym>
</trkpt>
<trkpt lat="40.007260" lon="-8.368420">
<ele>262.5</ele>
<desc>Speed 17.5 km/h Distance 13.16 km</desc>
<time>2011-05-22T08:12:12.35</time>
<name>3140</name>
<sym>Dot</sym>
</trkpt>
<trkpt lat="40.007263" lon="-8.368477">
<ele>263.0</ele>
<desc>Speed 17.5 km/h Distance 13.17 km</desc>
<time>2011-05-22T08:12:13.35</time>
<name>3141</name>
<sym>Dot</sym>
</trkpt>
<trkpt lat="40.007263" lon="-8.368535">
<ele>263.0</ele>
<desc>Speed 17.9 km/h Distance 13.17 km</desc>
<time>2011-05-22T08:12:14.35</time>
<name>3142</name>
<sym>Dot</sym>
</trkpt>
<trkpt lat="40.007260" lon="-8.368593">
<ele>263.0</ele>
<desc>Speed 17.6 km/h Distance 13.18 km</desc>
<time>2011-05-22T08:12:15.35</time>
<name>3143</name>
<sym>Dot</sym>
</trkpt>
<trkpt lat="40.007258" lon="-8.368650">
<ele>263.0</ele>
<desc>Speed 17.5 km/h Distance 13.18 km</desc>
<time>2011-05-22T08:12:16.35</time>
<name>3144</name>
<sym>Dot</sym>
</trkpt>
<trkpt lat="40.007257" lon="-8.368707">
<ele>263.5</ele>
<desc>Speed 17.4 km/h Distance 13.19 km</desc>
<time>2011-05-22T08:12:17.35</time>
<name>3145</name>
<sym>Dot</sym>
</trkpt>
<trkpt lat="40.007253" lon="-8.368763">
<ele>263.5</ele>
<desc>Speed 17.4 km/h Distance 13.19 km</desc>
<time>2011-05-22T08:12:18.35</time>
<name>3146</name>
<sym>Dot</sym>
</trkpt>
<trkpt lat="40.007248" lon="-8.368818">
<ele>264.0</ele>
<desc>Speed 16.7 km/h Distance 13.20 km</desc>
<time>2011-05-22T08:12:19.35</time>
<name>3147</name>
<sym>Dot</sym>
</trkpt>
<trkpt lat="40.007237" lon="-8.368872">
<ele>264.0</ele>
<desc>Speed 17.1 km/h Distance 13.20 km</desc>
<time>2011-05-22T08:12:20.35</time>
<name>3148</name>
<sym>Dot</sym>
</trkpt>
<trkpt lat="40.007222" lon="-8.368925">
<ele>264.0</ele>
<desc>Speed 17.4 km/h Distance 13.21 km</desc>
<time>2011-05-22T08:12:21.35</time>
<name>3149</name>
<sym>Dot</sym>
</trkpt>
<trkpt lat="40.007207" lon="-8.368977">
<ele>264.5</ele>
<desc>Speed 17.2 km/h Distance 13.21 km</desc>
<time>2011-05-22T08:12:22.35</time>
<name>3150</name>
<sym>Dot</sym>
</trkpt>
<trkpt lat="40.007190" lon="-8.369027">
<ele>264.5</ele>
<desc>Speed 16.8 km/h Distance 13.22 km</desc>
<time>2011-05-22T08:12:23.35</time>
<name>3151</name>
<sym>Dot</sym>
</trkpt>
<trkpt lat="40.007173" lon="-8.369077">
<ele>264.5</ele>
<desc>Speed 16.8 km/h Distance 13.22 km</desc>
<time>2011-05-22T08:12:24.35</time>
<name>3152</name>
<sym>Dot</sym>
</trkpt>
<trkpt lat="40.007153" lon="-8.369125">
<ele>264.5</ele>
<desc>Speed 17.0 km/h Distance 13.23 km</desc>
<time>2011-05-22T08:12:25.35</time>
<name>3153</name>
<sym>Dot</sym>
</trkpt>
<trkpt lat="40.007132" lon="-8.369173">
<ele>264.5</ele>
<desc>Speed 17.1 km/h Distance 13.23 km</desc>
<time>2011-05-22T08:12:26.35</time>
<name>3154</name>
<sym>Dot</sym>
</trkpt>
<trkpt lat="40.007110" lon="-8.369223">
<ele>264.5</ele>
<desc>Speed 17.4 km/h Distance 13.24 km</desc>
<time>2011-05-22T08:12:27.35</time>
<name>3155</name>
<sym>Dot</sym>
</trkpt>
<trkpt lat="40.007087" lon="-8.369272">
<ele>264.5</ele>
<desc>Speed 17.5 km/h Distance 13.24 km</desc>
<time>2011-05-22T08:12:28.35</time>
<name>3156</name>
<sym>Dot</sym>
</trkpt>
<trkpt lat="40.007063" lon="-8.369318">
<ele>264.5</ele>
<desc>Speed 17.0 km/h Distance 13.25 km</desc>
<time>2011-05-22T08:12:29.35</time>
<name>3157</name>
<sym>Dot</sym>
</trkpt>
<trkpt lat="40.007037" lon="-8.369365">
<ele>264.5</ele>
<desc>Speed 17.6 km/h Distance 13.25 km</desc>
<time>2011-05-22T08:12:30.35</time>
<name>3158</name>
<sym>Dot</sym>
</trkpt>
<trkpt lat="40.007008" lon="-8.369410">
<ele>264.5</ele>
<desc>Speed 18.1 km/h Distance 13.26 km</desc>
<time>2011-05-22T08:12:31.35</time>
<name>3159</name>
<sym>Dot</sym>
</trkpt>
<trkpt lat="40.006978" lon="-8.369455">
<ele>264.5</ele>
<desc>Speed 17.8 km/h Distance 13.26 km</desc>
<time>2011-05-22T08:12:32.35</time>
<name>3160</name>
<sym>Dot</sym>
</trkpt>
<trkpt lat="40.006947" lon="-8.369495">
<ele>264.5</ele>
<desc>Speed 17.4 km/h Distance 13.27 km</desc>
<time>2011-05-22T08:12:33.35</time>
<name>3161</name>
<sym>Dot</sym>
</trkpt>
<trkpt lat="40.006915" lon="-8.369533">
<ele>264.5</ele>
<desc>Speed 17.3 km/h Distance 13.27 km</desc>
<time>2011-05-22T08:12:34.35</time>
<name>3162</name>
<sym>Dot</sym>
</trkpt>
<trkpt lat="40.006883" lon="-8.369570">
<ele>265.0</ele>
<desc>Speed 17.1 km/h Distance 13.27 km</desc>
<time>2011-05-22T08:12:35.35</time>
<name>3163</name>
<sym>Dot</sym>
</trkpt>
<trkpt lat="40.006850" lon="-8.369603">
<ele>265.0</ele>
<desc>Speed 16.7 km/h Distance 13.28 km</desc>
<time>2011-05-22T08:12:36.35</time>
<name>3164</name>
<sym>Dot</sym>
</trkpt>
<trkpt lat="40.006815" lon="-8.369633">
<ele>265.5</ele>
<desc>Speed 16.6 km/h Distance 13.28 km</desc>
<time>2011-05-22T08:12:37.35</time>
<name>3165</name>
<sym>Dot</sym>
</trkpt>
<trkpt lat="40.006778" lon="-8.369662">
<ele>265.5</ele>
<desc>Speed 16.7 km/h Distance 13.29 km</desc>
<time>2011-05-22T08:12:38.35</time>
<name>3166</name>
<sym>Dot</sym>
</trkpt>
<trkpt lat="40.006742" lon="-8.369690">
<ele>265.5</ele>
<desc>Speed 16.9 km/h Distance 13.29 km</desc>
<time>2011-05-22T08:12:39.35</time>
<name>3167</name>
<sym>Dot</sym>
</trkpt>
<trkpt lat="40.006703" lon="-8.369717">
<ele>265.5</ele>
<desc>Speed 17.0 km/h Distance 13.30 km</desc>
<time>2011-05-22T08:12:40.35</time>
<name>3168</name>
<sym>Dot</sym>
</trkpt>
<trkpt lat="40.006667" lon="-8.369743">
<ele>265.5</ele>
<desc>Speed 16.8 km/h Distance 13.30 km</desc>
<time>2011-05-22T08:12:41.35</time>
<name>3169</name>
<sym>Dot</sym>
</trkpt>
<trkpt lat="40.006627" lon="-8.369770">
<ele>265.5</ele>
<desc>Speed 17.5 km/h Distance 13.31 km</desc>
<time>2011-05-22T08:12:42.35</time>
<name>3170</name>
<sym>Dot</sym>
</trkpt>
<trkpt lat="40.006587" lon="-8.369795">
<ele>265.5</ele>
<desc>Speed 17.9 km/h Distance 13.31 km</desc>
<time>2011-05-22T08:12:43.35</time>
<name>3171</name>
<sym>Dot</sym>
</trkpt>
<trkpt lat="40.006547" lon="-8.369823">
<ele>265.5</ele>
<desc>Speed 18.1 km/h Distance 13.32 km</desc>
<time>2011-05-22T08:12:44.35</time>
<name>3172</name>
<sym>Dot</sym>
</trkpt>
<trkpt lat="40.006502" lon="-8.369850">
<ele>266.0</ele>
<desc>Speed 18.9 km/h Distance 13.32 km</desc>
<time>2011-05-22T08:12:45.35</time>
<name>3173</name>
<sym>Dot</sym>
</trkpt>
<trkpt lat="40.006460" lon="-8.369877">
<ele>266.0</ele>
<desc>Speed 18.9 km/h Distance 13.33 km</desc>
<time>2011-05-22T08:12:46.35</time>
<name>3174</name>
<sym>Dot</sym>
</trkpt>
<trkpt lat="40.006415" lon="-8.369903">
<ele>266.0</ele>
<desc>Speed 19.2 km/h Distance 13.33 km</desc>
<time>2011-05-22T08:12:47.35</time>
<name>3175</name>
<sym>Dot</sym>
</trkpt>
<trkpt lat="40.006372" lon="-8.369928">
<ele>266.0</ele>
<desc>Speed 19.1 km/h Distance 13.34 km</desc>
<time>2011-05-22T08:12:48.35</time>
<name>3176</name>
<sym>Dot</sym>
</trkpt>
<trkpt lat="40.006328" lon="-8.369957">
<ele>266.0</ele>
<desc>Speed 19.2 km/h Distance 13.35 km</desc>
<time>2011-05-22T08:12:49.35</time>
<name>3177</name>
<sym>Dot</sym>
</trkpt>
<trkpt lat="40.006285" lon="-8.369983">
<ele>266.0</ele>
<desc>Speed 19.2 km/h Distance 13.35 km</desc>
<time>2011-05-22T08:12:50.35</time>
<name>3178</name>
<sym>Dot</sym>
</trkpt>
<trkpt lat="40.006240" lon="-8.370010">
<ele>266.0</ele>
<desc>Speed 19.1 km/h Distance 13.36 km</desc>
<time>2011-05-22T08:12:51.35</time>
<name>3179</name>
<sym>Dot</sym>
</trkpt>
<trkpt lat="40.006197" lon="-8.370035">
<ele>266.5</ele>
<desc>Speed 19.0 km/h Distance 13.36 km</desc>
<time>2011-05-22T08:12:52.35</time>
<name>3180</name>
<sym>Dot</sym>
</trkpt>
<trkpt lat="40.006155" lon="-8.370062">
<ele>266.5</ele>
<desc>Speed 18.5 km/h Distance 13.37 km</desc>
<time>2011-05-22T08:12:53.35</time>
<name>3181</name>
<sym>Dot</sym>
</trkpt>
<trkpt lat="40.006115" lon="-8.370088">
<ele>267.0</ele>
<desc>Speed 18.4 km/h Distance 13.37 km</desc>
<time>2011-05-22T08:12:54.35</time>
<name>3182</name>
<sym>Dot</sym>
</trkpt>
<trkpt lat="40.006072" lon="-8.370115">
<ele>267.0</ele>
<desc>Speed 18.4 km/h Distance 13.38 km</desc>
<time>2011-05-22T08:12:55.35</time>
<name>3183</name>
<sym>Dot</sym>
</trkpt>
<trkpt lat="40.006030" lon="-8.370138">
<ele>267.0</ele>
<desc>Speed 18.3 km/h Distance 13.38 km</desc>
<time>2011-05-22T08:12:56.35</time>
<name>3184</name>
<sym>Dot</sym>
</trkpt>
<trkpt lat="40.005988" lon="-8.370163">
<ele>267.0</ele>
<desc>Speed 18.2 km/h Distance 13.39 km</desc>
<time>2011-05-22T08:12:57.35</time>
<name>3185</name>
<sym>Dot</sym>
</trkpt>
<trkpt lat="40.005947" lon="-8.370187">
<ele>267.0</ele>
<desc>Speed 18.0 km/h Distance 13.39 km</desc>
<time>2011-05-22T08:12:58.35</time>
<name>3186</name>
<sym>Dot</sym>
</trkpt>
<trkpt lat="40.005905" lon="-8.370210">
<ele>267.5</ele>
<desc>Speed 18.1 km/h Distance 13.40 km</desc>
<time>2011-05-22T08:12:59.35</time>
<name>3187</name>
<sym>Dot</sym>
</trkpt>
<trkpt lat="40.005863" lon="-8.370233">
<ele>267.5</ele>
<desc>Speed 17.8 km/h Distance 13.40 km</desc>
<time>2011-05-22T08:13:00.35</time>
<name>3188</name>
<sym>Dot</sym>
</trkpt>
<trkpt lat="40.005822" lon="-8.370258">
<ele>267.0</ele>
<desc>Speed 18.0 km/h Distance 13.41 km</desc>
<time>2011-05-22T08:13:01.35</time>
<name>3189</name>
<sym>Dot</sym>
</trkpt>
<trkpt lat="40.005782" lon="-8.370283">
<ele>267.0</ele>
<desc>Speed 18.0 km/h Distance 13.41 km</desc>
<time>2011-05-22T08:13:02.35</time>
<name>3190</name>
<sym>Dot</sym>
</trkpt>
<trkpt lat="40.005740" lon="-8.370308">
<ele>267.5</ele>
<desc>Speed 18.4 km/h Distance 13.42 km</desc>
<time>2011-05-22T08:13:03.35</time>
<name>3191</name>
<sym>Dot</sym>
</trkpt>
<trkpt lat="40.005698" lon="-8.370333">
<ele>267.5</ele>
<desc>Speed 18.2 km/h Distance 13.42 km</desc>
<time>2011-05-22T08:13:04.35</time>
<name>3192</name>
<sym>Dot</sym>
</trkpt>
<trkpt lat="40.005657" lon="-8.370358">
<ele>267.5</ele>
<desc>Speed 18.1 km/h Distance 13.43 km</desc>
<time>2011-05-22T08:13:05.35</time>
<name>3193</name>
<sym>Dot</sym>
</trkpt>
<trkpt lat="40.005615" lon="-8.370383">
<ele>267.5</ele>
<desc>Speed 18.1 km/h Distance 13.43 km</desc>
<time>2011-05-22T08:13:06.35</time>
<name>3194</name>
<sym>Dot</sym>
</trkpt>
<trkpt lat="40.005573" lon="-8.370408">
<ele>267.5</ele>
<desc>Speed 18.1 km/h Distance 13.44 km</desc>
<time>2011-05-22T08:13:07.35</time>
<name>3195</name>
<sym>Dot</sym>
</trkpt>
<trkpt lat="40.005532" lon="-8.370433">
<ele>267.5</ele>
<desc>Speed 18.3 km/h Distance 13.44 km</desc>
<time>2011-05-22T08:13:08.35</time>
<name>3196</name>
<sym>Dot</sym>
</trkpt>
<trkpt lat="40.005490" lon="-8.370460">
<ele>267.5</ele>
<desc>Speed 18.3 km/h Distance 13.45 km</desc>
<time>2011-05-22T08:13:09.35</time>
<name>3197</name>
<sym>Dot</sym>
</trkpt>
<trkpt lat="40.005448" lon="-8.370488">
<ele>267.5</ele>
<desc>Speed 18.5 km/h Distance 13.45 km</desc>
<time>2011-05-22T08:13:10.35</time>
<name>3198</name>
<sym>Dot</sym>
</trkpt>
<trkpt lat="40.005407" lon="-8.370517">
<ele>267.5</ele>
<desc>Speed 18.4 km/h Distance 13.46 km</desc>
<time>2011-05-22T08:13:11.35</time>
<name>3199</name>
<sym>Dot</sym>
</trkpt>
<trkpt lat="40.005368" lon="-8.370552">
<ele>267.0</ele>
<desc>Speed 18.4 km/h Distance 13.46 km</desc>
<time>2011-05-22T08:13:12.35</time>
<name>3200</name>
<sym>Dot</sym>
</trkpt>
<trkpt lat="40.005330" lon="-8.370583">
<ele>267.0</ele>
<desc>Speed 18.4 km/h Distance 13.47 km</desc>
<time>2011-05-22T08:13:13.35</time>
<name>3201</name>
<sym>Dot</sym>
</trkpt>
<trkpt lat="40.005292" lon="-8.370620">
<ele>266.5</ele>
<desc>Speed 18.5 km/h Distance 13.47 km</desc>
<time>2011-05-22T08:13:14.35</time>
<name>3202</name>
<sym>Dot</sym>
</trkpt>
<trkpt lat="40.005255" lon="-8.370658">
<ele>266.5</ele>
<desc>Speed 18.8 km/h Distance 13.48 km</desc>
<time>2011-05-22T08:13:15.35</time>
<name>3203</name>
<sym>Dot</sym>
</trkpt>
<trkpt lat="40.005220" lon="-8.370700">
<ele>266.5</ele>
<desc>Speed 18.9 km/h Distance 13.48 km</desc>
<time>2011-05-22T08:13:16.35</time>
<name>3204</name>
<sym>Dot</sym>
</trkpt>
<trkpt lat="40.005185" lon="-8.370743">
<ele>266.5</ele>
<desc>Speed 18.8 km/h Distance 13.49 km</desc>
<time>2011-05-22T08:13:17.35</time>
<name>3205</name>
<sym>Dot</sym>
</trkpt>
<trkpt lat="40.005153" lon="-8.370785">
<ele>266.5</ele>
<desc>Speed 18.8 km/h Distance 13.49 km</desc>
<time>2011-05-22T08:13:18.35</time>
<name>3206</name>
<sym>Dot</sym>
</trkpt>
<trkpt lat="40.005122" lon="-8.370832">
<ele>266.5</ele>
<desc>Speed 18.7 km/h Distance 13.50 km</desc>
<time>2011-05-22T08:13:19.35</time>
<name>3207</name>
<sym>Dot</sym>
</trkpt>
<trkpt lat="40.005093" lon="-8.370878">
<ele>266.5</ele>
<desc>Speed 18.4 km/h Distance 13.51 km</desc>
<time>2011-05-22T08:13:20.35</time>
<name>3208</name>
<sym>Dot</sym>
</trkpt>
<trkpt lat="40.005065" lon="-8.370927">
<ele>266.5</ele>
<desc>Speed 18.4 km/h Distance 13.51 km</desc>
<time>2011-05-22T08:13:21.35</time>
<name>3209</name>
<sym>Dot</sym>
</trkpt>
<trkpt lat="40.005040" lon="-8.370977">
<ele>266.5</ele>
<desc>Speed 18.6 km/h Distance 13.52 km</desc>
<time>2011-05-22T08:13:22.35</time>
<name>3210</name>
<sym>Dot</sym>
</trkpt>
<trkpt lat="40.005015" lon="-8.371030">
<ele>266.0</ele>
<desc>Speed 19.2 km/h Distance 13.52 km</desc>
<time>2011-05-22T08:13:23.35</time>
<name>3211</name>
<sym>Dot</sym>
</trkpt>
<trkpt lat="40.004992" lon="-8.371085">
<ele>266.0</ele>
<desc>Speed 19.5 km/h Distance 13.53 km</desc>
<time>2011-05-22T08:13:24.35</time>
<name>3212</name>
<sym>Dot</sym>
</trkpt>
<trkpt lat="40.004967" lon="-8.371142">
<ele>266.0</ele>
<desc>Speed 19.8 km/h Distance 13.53 km</desc>
<time>2011-05-22T08:13:25.35</time>
<name>3213</name>
<sym>Dot</sym>
</trkpt>
<trkpt lat="40.004942" lon="-8.371197">
<ele>266.0</ele>
<desc>Speed 19.8 km/h Distance 13.54 km</desc>
<time>2011-05-22T08:13:26.35</time>
<name>3214</name>
<sym>Dot</sym>
</trkpt>
<trkpt lat="40.004917" lon="-8.371253">
<ele>266.0</ele>
<desc>Speed 19.8 km/h Distance 13.54 km</desc>
<time>2011-05-22T08:13:27.35</time>
<name>3215</name>
<sym>Dot</sym>
</trkpt>
<trkpt lat="40.004892" lon="-8.371307">
<ele>266.0</ele>
<desc>Speed 19.7 km/h Distance 13.55 km</desc>
<time>2011-05-22T08:13:28.35</time>
<name>3216</name>
<sym>Dot</sym>
</trkpt>
<trkpt lat="40.004868" lon="-8.371363">
<ele>266.0</ele>
<desc>Speed 19.4 km/h Distance 13.55 km</desc>
<time>2011-05-22T08:13:29.35</time>
<name>3217</name>
<sym>Dot</sym>
</trkpt>
<trkpt lat="40.004850" lon="-8.371422">
<ele>266.0</ele>
<desc>Speed 19.5 km/h Distance 13.56 km</desc>
<time>2011-05-22T08:13:30.35</time>
<name>3218</name>
<sym>Dot</sym>
</trkpt>
<trkpt lat="40.004832" lon="-8.371482">
<ele>266.0</ele>
<desc>Speed 19.7 km/h Distance 13.56 km</desc>
<time>2011-05-22T08:13:31.35</time>
<name>3219</name>
<sym>Dot</sym>
</trkpt>
<trkpt lat="40.004815" lon="-8.371542">
<ele>266.0</ele>
<desc>Speed 19.8 km/h Distance 13.57 km</desc>
<time>2011-05-22T08:13:32.35</time>
<name>3220</name>
<sym>Dot</sym>
</trkpt>
<trkpt lat="40.004798" lon="-8.371603">
<ele>265.5</ele>
<desc>Speed 20.1 km/h Distance 13.58 km</desc>
<time>2011-05-22T08:13:33.35</time>
<name>3221</name>
<sym>Dot</sym>
</trkpt>
<trkpt lat="40.004783" lon="-8.371667">
<ele>265.5</ele>
<desc>Speed 20.1 km/h Distance 13.58 km</desc>
<time>2011-05-22T08:13:34.35</time>
<name>3222</name>
<sym>Dot</sym>
</trkpt>
<trkpt lat="40.004762" lon="-8.371727">
<ele>265.5</ele>
<desc>Speed 20.4 km/h Distance 13.59 km</desc>
<time>2011-05-22T08:13:35.35</time>
<name>3223</name>
<sym>Dot</sym>
</trkpt>
<trkpt lat="40.004740" lon="-8.371787">
<ele>265.5</ele>
<desc>Speed 20.4 km/h Distance 13.59 km</desc>
<time>2011-05-22T08:13:36.35</time>
<name>3224</name>
<sym>Dot</sym>
</trkpt>
<trkpt lat="40.004720" lon="-8.371852">
<ele>265.0</ele>
<desc>Speed 21.3 km/h Distance 13.60 km</desc>
<time>2011-05-22T08:13:37.35</time>
<name>3225</name>
<sym>Dot</sym>
</trkpt>
<trkpt lat="40.004703" lon="-8.371917">
<ele>265.0</ele>
<desc>Speed 21.5 km/h Distance 13.60 km</desc>
<time>2011-05-22T08:13:38.35</time>
<name>3226</name>
<sym>Dot</sym>
</trkpt>
<trkpt lat="40.004680" lon="-8.371982">
<ele>265.0</ele>
<desc>Speed 21.9 km/h Distance 13.61 km</desc>
<time>2011-05-22T08:13:39.35</time>
<name>3227</name>
<sym>Dot</sym>
</trkpt>
<trkpt lat="40.004655" lon="-8.372045">
<ele>265.0</ele>
<desc>Speed 21.9 km/h Distance 13.62 km</desc>
<time>2011-05-22T08:13:40.35</time>
<name>3228</name>
<sym>Dot</sym>
</trkpt>
<trkpt lat="40.004627" lon="-8.372108">
<ele>265.0</ele>
<desc>Speed 22.2 km/h Distance 13.62 km</desc>
<time>2011-05-22T08:13:41.35</time>
<name>3229</name>
<sym>Dot</sym>
</trkpt>
<trkpt lat="40.004595" lon="-8.372168">
<ele>264.5</ele>
<desc>Speed 22.4 km/h Distance 13.63 km</desc>
<time>2011-05-22T08:13:42.35</time>
<name>3230</name>
<sym>Dot</sym>
</trkpt>
<trkpt lat="40.004558" lon="-8.372223">
<ele>265.0</ele>
<desc>Speed 22.4 km/h Distance 13.64 km</desc>
<time>2011-05-22T08:13:43.35</time>
<name>3231</name>
<sym>Dot</sym>
</trkpt>
<trkpt lat="40.004517" lon="-8.372270">
<ele>265.0</ele>
<desc>Speed 22.2 km/h Distance 13.64 km</desc>
<time>2011-05-22T08:13:44.35</time>
<name>3232</name>
<sym>Dot</sym>
</trkpt>
<trkpt lat="40.004475" lon="-8.372313">
<ele>265.0</ele>
<desc>Speed 21.9 km/h Distance 13.65 km</desc>
<time>2011-05-22T08:13:45.35</time>
<name>3233</name>
<sym>Dot</sym>
</trkpt>
<trkpt lat="40.004430" lon="-8.372352">
<ele>265.0</ele>
<desc>Speed 21.9 km/h Distance 13.65 km</desc>
<time>2011-05-22T08:13:46.35</time>
<name>3234</name>
<sym>Dot</sym>
</trkpt>
<trkpt lat="40.004385" lon="-8.372387">
<ele>265.0</ele>
<desc>Speed 21.5 km/h Distance 13.66 km</desc>
<time>2011-05-22T08:13:47.35</time>
<name>3235</name>
<sym>Dot</sym>
</trkpt>
<trkpt lat="40.004338" lon="-8.372418">
<ele>265.0</ele>
<desc>Speed 21.1 km/h Distance 13.66 km</desc>
<time>2011-05-22T08:13:48.35</time>
<name>3236</name>
<sym>Dot</sym>
</trkpt>
<trkpt lat="40.004293" lon="-8.372450">
<ele>265.0</ele>
<desc>Speed 20.6 km/h Distance 13.67 km</desc>
<time>2011-05-22T08:13:49.35</time>
<name>3237</name>
<sym>Dot</sym>
</trkpt>
<trkpt lat="40.004248" lon="-8.372478">
<ele>265.0</ele>
<desc>Speed 20.2 km/h Distance 13.68 km</desc>
<time>2011-05-22T08:13:50.35</time>
<name>3238</name>
<sym>Dot</sym>
</trkpt>
<trkpt lat="40.004205" lon="-8.372505">
<ele>265.0</ele>
<desc>Speed 19.8 km/h Distance 13.68 km</desc>
<time>2011-05-22T08:13:51.35</time>
<name>3239</name>
<sym>Dot</sym>
</trkpt>
<trkpt lat="40.004160" lon="-8.372530">
<ele>265.5</ele>
<desc>Speed 19.5 km/h Distance 13.69 km</desc>
<time>2011-05-22T08:13:52.35</time>
<name>3240</name>
<sym>Dot</sym>
</trkpt>
<trkpt lat="40.004115" lon="-8.372552">
<ele>265.0</ele>
<desc>Speed 19.2 km/h Distance 13.69 km</desc>
<time>2011-05-22T08:13:53.35</time>
<name>3241</name>
<sym>Dot</sym>
</trkpt>
<trkpt lat="40.004075" lon="-8.372582">
<ele>265.5</ele>
<desc>Speed 18.9 km/h Distance 13.70 km</desc>
<time>2011-05-22T08:13:54.35</time>
<name>3242</name>
<sym>Dot</sym>
</trkpt>
<trkpt lat="40.004042" lon="-8.372618">
<ele>265.5</ele>
<desc>Speed 17.8 km/h Distance 13.70 km</desc>
<time>2011-05-22T08:13:55.35</time>
<name>3243</name>
<sym>Dot</sym>
</trkpt>
<trkpt lat="40.004007" lon="-8.372652">
<ele>265.5</ele>
<desc>Speed 17.3 km/h Distance 13.71 km</desc>
<time>2011-05-22T08:13:56.35</time>
<name>3244</name>
<sym>Dot</sym>
</trkpt>
<trkpt lat="40.003975" lon="-8.372685">
<ele>265.5</ele>
<desc>Speed 16.5 km/h Distance 13.71 km</desc>
<time>2011-05-22T08:13:57.35</time>
<name>3245</name>
<sym>Dot</sym>
</trkpt>
<trkpt lat="40.003943" lon="-8.372725">
<ele>265.5</ele>
<desc>Speed 17.6 km/h Distance 13.72 km</desc>
<time>2011-05-22T08:13:58.35</time>
<name>3246</name>
<sym>Dot</sym>
</trkpt>
<trkpt lat="40.003918" lon="-8.372770">
<ele>265.5</ele>
<desc>Speed 17.2 km/h Distance 13.72 km</desc>
<time>2011-05-22T08:13:59.35</time>
<name>3247</name>
<sym>Dot</sym>
</trkpt>
<trkpt lat="40.003887" lon="-8.372808">
<ele>265.5</ele>
<desc>Speed 17.3 km/h Distance 13.73 km</desc>
<time>2011-05-22T08:14:00.35</time>
<name>3248</name>
<sym>Dot</sym>
</trkpt>
<trkpt lat="40.003855" lon="-8.372848">
<ele>265.5</ele>
<desc>Speed 17.9 km/h Distance 13.73 km</desc>
<time>2011-05-22T08:14:01.35</time>
<name>3249</name>
<sym>Dot</sym>
</trkpt>
<trkpt lat="40.003815" lon="-8.372883">
<ele>265.5</ele>
<desc>Speed 19.4 km/h Distance 13.74 km</desc>
<time>2011-05-22T08:14:02.35</time>
<name>3250</name>
<sym>Dot</sym>
</trkpt>
<trkpt lat="40.003772" lon="-8.372918">
<ele>265.0</ele>
<desc>Speed 19.8 km/h Distance 13.74 km</desc>
<time>2011-05-22T08:14:03.35</time>
<name>3251</name>
<sym>Dot</sym>
</trkpt>
<trkpt lat="40.003730" lon="-8.372955">
<ele>265.0</ele>
<desc>Speed 20.0 km/h Distance 13.75 km</desc>
<time>2011-05-22T08:14:04.35</time>
<name>3252</name>
<sym>Dot</sym>
</trkpt>
<trkpt lat="40.003688" lon="-8.372992">
<ele>264.5</ele>
<desc>Speed 20.2 km/h Distance 13.75 km</desc>
<time>2011-05-22T08:14:05.35</time>
<name>3253</name>
<sym>Dot</sym>
</trkpt>
<trkpt lat="40.003647" lon="-8.373030">
<ele>264.5</ele>
<desc>Speed 20.3 km/h Distance 13.76 km</desc>
<time>2011-05-22T08:14:06.35</time>
<name>3254</name>
<sym>Dot</sym>
</trkpt>
<trkpt lat="40.003605" lon="-8.373068">
<ele>264.5</ele>
<desc>Speed 20.6 km/h Distance 13.76 km</desc>
<time>2011-05-22T08:14:07.35</time>
<name>3255</name>
<sym>Dot</sym>
</trkpt>
<trkpt lat="40.003563" lon="-8.373108">
<ele>264.5</ele>
<desc>Speed 20.6 km/h Distance 13.77 km</desc>
<time>2011-05-22T08:14:08.35</time>
<name>3256</name>
<sym>Dot</sym>
</trkpt>
<trkpt lat="40.003525" lon="-8.373150">
<ele>264.0</ele>
<desc>Speed 20.6 km/h Distance 13.78 km</desc>
<time>2011-05-22T08:14:09.35</time>
<name>3257</name>
<sym>Dot</sym>
</trkpt>
<trkpt lat="40.003487" lon="-8.373195">
<ele>263.5</ele>
<desc>Speed 20.5 km/h Distance 13.78 km</desc>
<time>2011-05-22T08:14:10.35</time>
<name>3258</name>
<sym>Dot</sym>
</trkpt>
<trkpt lat="40.003447" lon="-8.373243">
<ele>263.5</ele>
<desc>Speed 21.6 km/h Distance 13.79 km</desc>
<time>2011-05-22T08:14:11.35</time>
<name>3259</name>
<sym>Dot</sym>
</trkpt>
<trkpt lat="40.003408" lon="-8.373293">
<ele>263.5</ele>
<desc>Speed 22.1 km/h Distance 13.79 km</desc>
<time>2011-05-22T08:14:12.35</time>
<name>3260</name>
<sym>Dot</sym>
</trkpt>
<trkpt lat="40.003372" lon="-8.373345">
<ele>263.5</ele>
<desc>Speed 21.9 km/h Distance 13.80 km</desc>
<time>2011-05-22T08:14:13.35</time>
<name>3261</name>
<sym>Dot</sym>
</trkpt>
<trkpt lat="40.003337" lon="-8.373397">
<ele>263.5</ele>
<desc>Speed 22.0 km/h Distance 13.81 km</desc>
<time>2011-05-22T08:14:14.35</time>
<name>3262</name>
<sym>Dot</sym>
</trkpt>
<trkpt lat="40.003300" lon="-8.373450">
<ele>263.0</ele>
<desc>Speed 21.9 km/h Distance 13.81 km</desc>
<time>2011-05-22T08:14:15.35</time>
<name>3263</name>
<sym>Dot</sym>
</trkpt>
<trkpt lat="40.003263" lon="-8.373502">
<ele>263.0</ele>
<desc>Speed 21.8 km/h Distance 13.82 km</desc>
<time>2011-05-22T08:14:16.35</time>
<name>3264</name>
<sym>Dot</sym>
</trkpt>
<trkpt lat="40.003228" lon="-8.373555">
<ele>262.5</ele>
<desc>Speed 21.6 km/h Distance 13.82 km</desc>
<time>2011-05-22T08:14:17.35</time>
<name>3265</name>
<sym>Dot</sym>
</trkpt>
<trkpt lat="40.003195" lon="-8.373608">
<ele>262.5</ele>
<desc>Speed 21.4 km/h Distance 13.83 km</desc>
<time>2011-05-22T08:14:18.35</time>
<name>3266</name>
<sym>Dot</sym>
</trkpt>
<trkpt lat="40.003162" lon="-8.373660">
<ele>262.0</ele>
<desc>Speed 21.2 km/h Distance 13.84 km</desc>
<time>2011-05-22T08:14:19.35</time>
<name>3267</name>
<sym>Dot</sym>
</trkpt>
<trkpt lat="40.003128" lon="-8.373712">
<ele>262.5</ele>
<desc>Speed 20.8 km/h Distance 13.84 km</desc>
<time>2011-05-22T08:14:20.35</time>
<name>3268</name>
<sym>Dot</sym>
</trkpt>
<trkpt lat="40.003095" lon="-8.373762">
<ele>262.5</ele>
<desc>Speed 20.1 km/h Distance 13.85 km</desc>
<time>2011-05-22T08:14:21.35</time>
<name>3269</name>
<sym>Dot</sym>
</trkpt>
<trkpt lat="40.003062" lon="-8.373810">
<ele>262.5</ele>
<desc>Speed 19.8 km/h Distance 13.85 km</desc>
<time>2011-05-22T08:14:22.35</time>
<name>3270</name>
<sym>Dot</sym>
</trkpt>
<trkpt lat="40.003028" lon="-8.373860">
<ele>262.0</ele>
<desc>Speed 20.3 km/h Distance 13.86 km</desc>
<time>2011-05-22T08:14:23.35</time>
<name>3271</name>
<sym>Dot</sym>
</trkpt>
<trkpt lat="40.002997" lon="-8.373910">
<ele>262.0</ele>
<desc>Speed 20.1 km/h Distance 13.86 km</desc>
<time>2011-05-22T08:14:24.35</time>
<name>3272</name>
<sym>Dot</sym>
</trkpt>
<trkpt lat="40.002965" lon="-8.373960">
<ele>262.0</ele>
<desc>Speed 19.4 km/h Distance 13.87 km</desc>
<time>2011-05-22T08:14:25.35</time>
<name>3273</name>
<sym>Dot</sym>
</trkpt>
<trkpt lat="40.002932" lon="-8.374007">
<ele>262.0</ele>
<desc>Speed 19.7 km/h Distance 13.87 km</desc>
<time>2011-05-22T08:14:26.35</time>
<name>3274</name>
<sym>Dot</sym>
</trkpt>
<trkpt lat="40.002898" lon="-8.374055">
<ele>262.0</ele>
<desc>Speed 20.1 km/h Distance 13.88 km</desc>
<time>2011-05-22T08:14:27.35</time>
<name>3275</name>
<sym>Dot</sym>
</trkpt>
<trkpt lat="40.002865" lon="-8.374103">
<ele>262.0</ele>
<desc>Speed 20.1 km/h Distance 13.89 km</desc>
<time>2011-05-22T08:14:28.35</time>
<name>3276</name>
<sym>Dot</sym>
</trkpt>
<trkpt lat="40.002832" lon="-8.374152">
<ele>261.5</ele>
<desc>Speed 20.4 km/h Distance 13.89 km</desc>
<time>2011-05-22T08:14:29.35</time>
<name>3277</name>
<sym>Dot</sym>
</trkpt>
<trkpt lat="40.002795" lon="-8.374200">
<ele>261.5</ele>
<desc>Speed 20.7 km/h Distance 13.90 km</desc>
<time>2011-05-22T08:14:30.35</time>
<name>3278</name>
<sym>Dot</sym>
</trkpt>
<trkpt lat="40.002758" lon="-8.374247">
<ele>261.5</ele>
<desc>Speed 20.7 km/h Distance 13.90 km</desc>
<time>2011-05-22T08:14:31.35</time>
<name>3279</name>
<sym>Dot</sym>
</trkpt>
<trkpt lat="40.002720" lon="-8.374292">
<ele>261.5</ele>
<desc>Speed 20.9 km/h Distance 13.91 km</desc>
<time>2011-05-22T08:14:32.35</time>
<name>3280</name>
<sym>Dot</sym>
</trkpt>
<trkpt lat="40.002678" lon="-8.374335">
<ele>261.5</ele>
<desc>Speed 20.9 km/h Distance 13.91 km</desc>
<time>2011-05-22T08:14:33.35</time>
<name>3281</name>
<sym>Dot</sym>
</trkpt>
<trkpt lat="40.002637" lon="-8.374377">
<ele>261.0</ele>
<desc>Speed 21.2 km/h Distance 13.92 km</desc>
<time>2011-05-22T08:14:34.35</time>
<name>3282</name>
<sym>Dot</sym>
</trkpt>
<trkpt lat="40.002595" lon="-8.374420">
<ele>261.0</ele>
<desc>Speed 21.5 km/h Distance 13.93 km</desc>
<time>2011-05-22T08:14:35.35</time>
<name>3283</name>
<sym>Dot</sym>
</trkpt>
<trkpt lat="40.002552" lon="-8.374460">
<ele>261.0</ele>
<desc>Speed 21.3 km/h Distance 13.93 km</desc>
<time>2011-05-22T08:14:36.35</time>
<name>3284</name>
<sym>Dot</sym>
</trkpt>
<trkpt lat="40.002508" lon="-8.374500">
<ele>260.5</ele>
<desc>Speed 21.0 km/h Distance 13.94 km</desc>
<time>2011-05-22T08:14:37.35</time>
<name>3285</name>
<sym>Dot</sym>
</trkpt>
<trkpt lat="40.002463" lon="-8.374540">
<ele>260.5</ele>
<desc>Speed 21.5 km/h Distance 13.94 km</desc>
<time>2011-05-22T08:14:38.35</time>
<name>3286</name>
<sym>Dot</sym>
</trkpt>
<trkpt lat="40.002417" lon="-8.374578">
<ele>260.5</ele>
<desc>Speed 22.0 km/h Distance 13.95 km</desc>
<time>2011-05-22T08:14:39.35</time>
<name>3287</name>
<sym>Dot</sym>
</trkpt>
<trkpt lat="40.002368" lon="-8.374615">
<ele>260.0</ele>
<desc>Speed 22.2 km/h Distance 13.96 km</desc>
<time>2011-05-22T08:14:40.35</time>
<name>3288</name>
<sym>Dot</sym>
</trkpt>
<trkpt lat="40.002320" lon="-8.374648">
<ele>260.5</ele>
<desc>Speed 21.9 km/h Distance 13.96 km</desc>
<time>2011-05-22T08:14:41.35</time>
<name>3289</name>
<sym>Dot</sym>
</trkpt>
<trkpt lat="40.002268" lon="-8.374677">
<ele>260.0</ele>
<desc>Speed 22.8 km/h Distance 13.97 km</desc>
<time>2011-05-22T08:14:42.35</time>
<name>3290</name>
<sym>Dot</sym>
</trkpt>
<trkpt lat="40.002215" lon="-8.374708">
<ele>260.0</ele>
<desc>Speed 23.4 km/h Distance 13.98 km</desc>
<time>2011-05-22T08:14:43.35</time>
<name>3291</name>
<sym>Dot</sym>
</trkpt>
<trkpt lat="40.002160" lon="-8.374742">
<ele>260.0</ele>
<desc>Speed 23.8 km/h Distance 13.98 km</desc>
<time>2011-05-22T08:14:44.35</time>
<name>3292</name>
<sym>Dot</sym>
</trkpt>
<trkpt lat="40.002107" lon="-8.374775">
<ele>260.0</ele>
<desc>Speed 23.7 km/h Distance 13.99 km</desc>
<time>2011-05-22T08:14:45.35</time>
<name>3293</name>
<sym>Dot</sym>
</trkpt>
<trkpt lat="40.002053" lon="-8.374807">
<ele>260.5</ele>
<desc>Speed 23.7 km/h Distance 13.99 km</desc>
<time>2011-05-22T08:14:46.35</time>
<name>3294</name>
<sym>Dot</sym>
</trkpt>
<trkpt lat="40.001997" lon="-8.374835">
<ele>260.5</ele>
<desc>Speed 23.9 km/h Distance 14.00 km</desc>
<time>2011-05-22T08:14:48.48</time>
<name>3295</name>
<sym>Dot</sym>
</trkpt>
<trkpt lat="40.001940" lon="-8.374862">
<ele>260.5</ele>
<desc>Speed 24.1 km/h Distance 14.01 km</desc>
<time>2011-05-22T08:14:49.36</time>
<name>3296</name>
<sym>Dot</sym>
</trkpt>
<trkpt lat="40.001883" lon="-8.374887">
<ele>260.0</ele>
<desc>Speed 24.2 km/h Distance 14.01 km</desc>
<time>2011-05-22T08:14:50.36</time>
<name>3297</name>
<sym>Dot</sym>
</trkpt>
<trkpt lat="40.001825" lon="-8.374912">
<ele>260.0</ele>
<desc>Speed 24.4 km/h Distance 14.02 km</desc>
<time>2011-05-22T08:14:51.36</time>
<name>3298</name>
<sym>Dot</sym>
</trkpt>
<trkpt lat="40.001767" lon="-8.374935">
<ele>259.5</ele>
<desc>Speed 24.6 km/h Distance 14.03 km</desc>
<time>2011-05-22T08:14:52.36</time>
<name>3299</name>
<sym>Dot</sym>
</trkpt>
<trkpt lat="40.001705" lon="-8.374957">
<ele>259.5</ele>
<desc>Speed 25.2 km/h Distance 14.04 km</desc>
<time>2011-05-22T08:14:53.36</time>
<name>3300</name>
<sym>Dot</sym>
</trkpt>
<trkpt lat="40.001645" lon="-8.374980">
<ele>259.0</ele>
<desc>Speed 25.6 km/h Distance 14.04 km</desc>
<time>2011-05-22T08:14:54.36</time>
<name>3301</name>
<sym>Dot</sym>
</trkpt>
<trkpt lat="40.001582" lon="-8.375003">
<ele>259.0</ele>
<desc>Speed 26.1 km/h Distance 14.05 km</desc>
<time>2011-05-22T08:14:55.36</time>
<name>3302</name>
<sym>Dot</sym>
</trkpt>
<trkpt lat="40.001517" lon="-8.375025">
<ele>259.0</ele>
<desc>Speed 26.6 km/h Distance 14.06 km</desc>
<time>2011-05-22T08:14:56.36</time>
<name>3303</name>
<sym>Dot</sym>
</trkpt>
<trkpt lat="40.001452" lon="-8.375047">
<ele>258.5</ele>
<desc>Speed 27.3 km/h Distance 14.06 km</desc>
<time>2011-05-22T08:14:57.36</time>
<name>3304</name>
<sym>Dot</sym>
</trkpt>
<trkpt lat="40.001383" lon="-8.375068">
<ele>258.5</ele>
<desc>Speed 28.1 km/h Distance 14.07 km</desc>
<time>2011-05-22T08:14:58.36</time>
<name>3305</name>
<sym>Dot</sym>
</trkpt>
<trkpt lat="40.001313" lon="-8.375092">
<ele>258.5</ele>
<desc>Speed 29.1 km/h Distance 14.08 km</desc>
<time>2011-05-22T08:14:59.36</time>
<name>3306</name>
<sym>Dot</sym>
</trkpt>
<trkpt lat="40.001243" lon="-8.375117">
<ele>258.0</ele>
<desc>Speed 29.5 km/h Distance 14.09 km</desc>
<time>2011-05-22T08:15:00.36</time>
<name>3307</name>
<sym>Dot</sym>
</trkpt>
<trkpt lat="40.001172" lon="-8.375142">
<ele>257.0</ele>
<desc>Speed 29.7 km/h Distance 14.10 km</desc>
<time>2011-05-22T08:15:01.36</time>
<name>3308</name>
<sym>Dot</sym>
</trkpt>
<trkpt lat="40.001095" lon="-8.375167">
<ele>257.0</ele>
<desc>Speed 31.2 km/h Distance 14.11 km</desc>
<time>2011-05-22T08:15:02.36</time>
<name>3309</name>
<sym>Dot</sym>
</trkpt>
<trkpt lat="40.001017" lon="-8.375193">
<ele>256.5</ele>
<desc>Speed 32.1 km/h Distance 14.11 km</desc>
<time>2011-05-22T08:15:03.36</time>
<name>3310</name>
<sym>Dot</sym>
</trkpt>
<trkpt lat="40.000937" lon="-8.375218">
<ele>256.5</ele>
<desc>Speed 32.8 km/h Distance 14.12 km</desc>
<time>2011-05-22T08:15:04.36</time>
<name>3311</name>
<sym>Dot</sym>
</trkpt>
<trkpt lat="40.000857" lon="-8.375245">
<ele>256.0</ele>
<desc>Speed 33.0 km/h Distance 14.13 km</desc>
<time>2011-05-22T08:15:05.36</time>
<name>3312</name>
<sym>Dot</sym>
</trkpt>
<trkpt lat="40.000777" lon="-8.375272">
<ele>255.5</ele>
<desc>Speed 33.3 km/h Distance 14.14 km</desc>
<time>2011-05-22T08:15:06.36</time>
<name>3313</name>
<sym>Dot</sym>
</trkpt>
<trkpt lat="40.000695" lon="-8.375300">
<ele>255.5</ele>
<desc>Speed 33.5 km/h Distance 14.15 km</desc>
<time>2011-05-22T08:15:07.36</time>
<name>3314</name>
<sym>Dot</sym>
</trkpt>
<trkpt lat="40.000615" lon="-8.375327">
<ele>255.0</ele>
<desc>Speed 33.4 km/h Distance 14.16 km</desc>
<time>2011-05-22T08:15:08.36</time>
<name>3315</name>
<sym>Dot</sym>
</trkpt>
<trkpt lat="40.000532" lon="-8.375353">
<ele>255.0</ele>
<desc>Speed 34.1 km/h Distance 14.17 km</desc>
<time>2011-05-22T08:15:09.36</time>
<name>3316</name>
<sym>Dot</sym>
</trkpt>
<trkpt lat="40.000448" lon="-8.375382">
<ele>255.0</ele>
<desc>Speed 34.1 km/h Distance 14.18 km</desc>
<time>2011-05-22T08:15:10.36</time>
<name>3317</name>
<sym>Dot</sym>
</trkpt>
<trkpt lat="40.000367" lon="-8.375408">
<ele>254.5</ele>
<desc>Speed 33.9 km/h Distance 14.19 km</desc>
<time>2011-05-22T08:15:11.36</time>
<name>3318</name>
<sym>Dot</sym>
</trkpt>
<trkpt lat="40.000282" lon="-8.375433">
<ele>254.5</ele>
<desc>Speed 34.4 km/h Distance 14.20 km</desc>
<time>2011-05-22T08:15:12.36</time>
<name>3319</name>
<sym>Dot</sym>
</trkpt>
<trkpt lat="40.000197" lon="-8.375460">
<ele>254.0</ele>
<desc>Speed 35.0 km/h Distance 14.21 km</desc>
<time>2011-05-22T08:15:13.36</time>
<name>3320</name>
<sym>Dot</sym>
</trkpt>
<trkpt lat="40.000113" lon="-8.375488">
<ele>253.5</ele>
<desc>Speed 34.7 km/h Distance 14.22 km</desc>
<time>2011-05-22T08:15:14.36</time>
<name>3321</name>
<sym>Dot</sym>
</trkpt>
<trkpt lat="40.000025" lon="-8.375513">
<ele>253.5</ele>
<desc>Speed 35.4 km/h Distance 14.23 km</desc>
<time>2011-05-22T08:15:15.36</time>
<name>3322</name>
<sym>Dot</sym>
</trkpt>
<trkpt lat="39.999938" lon="-8.375540">
<ele>253.0</ele>
<desc>Speed 35.6 km/h Distance 14.24 km</desc>
<time>2011-05-22T08:15:16.36</time>
<name>3323</name>
<sym>Dot</sym>
</trkpt>
<trkpt lat="39.999853" lon="-8.375570">
<ele>253.0</ele>
<desc>Speed 35.5 km/h Distance 14.25 km</desc>
<time>2011-05-22T08:15:17.36</time>
<name>3324</name>
<sym>Dot</sym>
</trkpt>
<trkpt lat="39.999767" lon="-8.375598">
<ele>253.0</ele>
<desc>Speed 35.8 km/h Distance 14.26 km</desc>
<time>2011-05-22T08:15:18.36</time>
<name>3325</name>
<sym>Dot</sym>
</trkpt>
<trkpt lat="39.999680" lon="-8.375627">
<ele>252.5</ele>
<desc>Speed 35.8 km/h Distance 14.27 km</desc>
<time>2011-05-22T08:15:19.36</time>
<name>3326</name>
<sym>Dot</sym>
</trkpt>
<trkpt lat="39.999593" lon="-8.375655">
<ele>252.5</ele>
<desc>Speed 35.9 km/h Distance 14.28 km</desc>
<time>2011-05-22T08:15:20.36</time>
<name>3327</name>
<sym>Dot</sym>
</trkpt>
<trkpt lat="39.999508" lon="-8.375683">
<ele>252.5</ele>
<desc>Speed 35.6 km/h Distance 14.29 km</desc>
<time>2011-05-22T08:15:21.36</time>
<name>3328</name>
<sym>Dot</sym>
</trkpt>
<trkpt lat="39.999423" lon="-8.375712">
<ele>252.0</ele>
<desc>Speed 35.1 km/h Distance 14.30 km</desc>
<time>2011-05-22T08:15:22.36</time>
<name>3329</name>
<sym>Dot</sym>
</trkpt>
<trkpt lat="39.999338" lon="-8.375738">
<ele>252.5</ele>
<desc>Speed 34.9 km/h Distance 14.31 km</desc>
<time>2011-05-22T08:15:23.36</time>
<name>3330</name>
<sym>Dot</sym>
</trkpt>
<trkpt lat="39.999257" lon="-8.375767">
<ele>252.5</ele>
<desc>Speed 34.0 km/h Distance 14.32 km</desc>
<time>2011-05-22T08:15:24.36</time>
<name>3331</name>
<sym>Dot</sym>
</trkpt>
<trkpt lat="39.999175" lon="-8.375792">
<ele>252.5</ele>
<desc>Speed 33.8 km/h Distance 14.33 km</desc>
<time>2011-05-22T08:15:25.36</time>
<name>3332</name>
<sym>Dot</sym>
</trkpt>
<trkpt lat="39.999093" lon="-8.375817">
<ele>252.5</ele>
<desc>Speed 33.2 km/h Distance 14.34 km</desc>
<time>2011-05-22T08:15:26.36</time>
<name>3333</name>
<sym>Dot</sym>
</trkpt>
<trkpt lat="39.999017" lon="-8.375842">
<ele>252.5</ele>
<desc>Speed 31.9 km/h Distance 14.34 km</desc>
<time>2011-05-22T08:15:27.36</time>
<name>3334</name>
<sym>Dot</sym>
</trkpt>
<trkpt lat="39.998942" lon="-8.375867">
<ele>252.0</ele>
<desc>Speed 31.2 km/h Distance 14.35 km</desc>
<time>2011-05-22T08:15:28.36</time>
<name>3335</name>
<sym>Dot</sym>
</trkpt>
<trkpt lat="39.998867" lon="-8.375892">
<ele>252.0</ele>
<desc>Speed 30.8 km/h Distance 14.36 km</desc>
<time>2011-05-22T08:15:29.36</time>
<name>3336</name>
<sym>Dot</sym>
</trkpt>
<trkpt lat="39.998793" lon="-8.375915">
<ele>252.0</ele>
<desc>Speed 30.4 km/h Distance 14.37 km</desc>
<time>2011-05-22T08:15:30.36</time>
<name>3337</name>
<sym>Dot</sym>
</trkpt>
<trkpt lat="39.998722" lon="-8.375938">
<ele>252.0</ele>
<desc>Speed 29.7 km/h Distance 14.38 km</desc>
<time>2011-05-22T08:15:31.36</time>
<name>3338</name>
<sym>Dot</sym>
</trkpt>
<trkpt lat="39.998653" lon="-8.375962">
<ele>251.5</ele>
<desc>Speed 28.9 km/h Distance 14.39 km</desc>
<time>2011-05-22T08:15:32.36</time>
<name>3339</name>
<sym>Dot</sym>
</trkpt>
<trkpt lat="39.998585" lon="-8.375985">
<ele>251.5</ele>
<desc>Speed 28.6 km/h Distance 14.39 km</desc>
<time>2011-05-22T08:15:33.36</time>
<name>3340</name>
<sym>Dot</sym>
</trkpt>
<trkpt lat="39.998515" lon="-8.376007">
<ele>251.5</ele>
<desc>Speed 28.7 km/h Distance 14.40 km</desc>
<time>2011-05-22T08:15:34.36</time>
<name>3341</name>
<sym>Dot</sym>
</trkpt>
<trkpt lat="39.998447" lon="-8.376030">
<ele>251.5</ele>
<desc>Speed 28.2 km/h Distance 14.41 km</desc>
<time>2011-05-22T08:15:35.36</time>
<name>3342</name>
<sym>Dot</sym>
</trkpt>
<trkpt lat="39.998380" lon="-8.376053">
<ele>251.5</ele>
<desc>Speed 28.0 km/h Distance 14.42 km</desc>
<time>2011-05-22T08:15:36.36</time>
<name>3343</name>
<sym>Dot</sym>
</trkpt>
<trkpt lat="39.998313" lon="-8.376077">
<ele>251.5</ele>
<desc>Speed 27.8 km/h Distance 14.43 km</desc>
<time>2011-05-22T08:15:37.36</time>
<name>3344</name>
<sym>Dot</sym>
</trkpt>
<trkpt lat="39.998247" lon="-8.376102">
<ele>251.5</ele>
<desc>Speed 27.7 km/h Distance 14.43 km</desc>
<time>2011-05-22T08:15:38.36</time>
<name>3345</name>
<sym>Dot</sym>
</trkpt>
<trkpt lat="39.998178" lon="-8.376123">
<ele>252.0</ele>
<desc>Speed 27.9 km/h Distance 14.44 km</desc>
<time>2011-05-22T08:15:39.36</time>
<name>3346</name>
<sym>Dot</sym>
</trkpt>
<trkpt lat="39.998113" lon="-8.376145">
<ele>252.5</ele>
<desc>Speed 27.3 km/h Distance 14.45 km</desc>
<time>2011-05-22T08:15:40.36</time>
<name>3347</name>
<sym>Dot</sym>
</trkpt>
<trkpt lat="39.998048" lon="-8.376167">
<ele>253.0</ele>
<desc>Speed 27.3 km/h Distance 14.46 km</desc>
<time>2011-05-22T08:15:41.36</time>
<name>3348</name>
<sym>Dot</sym>
</trkpt>
<trkpt lat="39.997983" lon="-8.376187">
<ele>253.0</ele>
<desc>Speed 26.9 km/h Distance 14.46 km</desc>
<time>2011-05-22T08:15:42.36</time>
<name>3349</name>
<sym>Dot</sym>
</trkpt>
<trkpt lat="39.997917" lon="-8.376207">
<ele>253.5</ele>
<desc>Speed 26.9 km/h Distance 14.47 km</desc>
<time>2011-05-22T08:15:43.36</time>
<name>3350</name>
<sym>Dot</sym>
</trkpt>
<trkpt lat="39.997857" lon="-8.376223">
<ele>253.5</ele>
<desc>Speed 25.1 km/h Distance 14.48 km</desc>
<time>2011-05-22T08:15:44.36</time>
<name>3351</name>
<sym>Dot</sym>
</trkpt>
<trkpt lat="39.997797" lon="-8.376245">
<ele>253.5</ele>
<desc>Speed 24.6 km/h Distance 14.48 km</desc>
<time>2011-05-22T08:15:45.36</time>
<name>3352</name>
<sym>Dot</sym>
</trkpt>
<trkpt lat="39.997738" lon="-8.376267">
<ele>253.5</ele>
<desc>Speed 24.6 km/h Distance 14.49 km</desc>
<time>2011-05-22T08:15:46.36</time>
<name>3353</name>
<sym>Dot</sym>
</trkpt>
<trkpt lat="39.997685" lon="-8.376292">
<ele>252.0</ele>
<desc>Speed 23.0 km/h Distance 14.50 km</desc>
<time>2011-05-22T08:15:47.36</time>
<name>3354</name>
<sym>Dot</sym>
</trkpt>
<trkpt lat="39.997623" lon="-8.376315">
<ele>253.5</ele>
<desc>Speed 25.1 km/h Distance 14.50 km</desc>
<time>2011-05-22T08:15:48.36</time>
<name>3355</name>
<sym>Dot</sym>
</trkpt>
<trkpt lat="39.997560" lon="-8.376335">
<ele>254.5</ele>
<desc>Speed 25.9 km/h Distance 14.51 km</desc>
<time>2011-05-22T08:15:49.36</time>
<name>3356</name>
<sym>Dot</sym>
</trkpt>
<trkpt lat="39.997500" lon="-8.376353">
<ele>254.0</ele>
<desc>Speed 25.4 km/h Distance 14.52 km</desc>
<time>2011-05-22T08:15:50.36</time>
<name>3357</name>
<sym>Dot</sym>
</trkpt>
<trkpt lat="39.997442" lon="-8.376375">
<ele>253.5</ele>
<desc>Speed 24.2 km/h Distance 14.53 km</desc>
<time>2011-05-22T08:15:51.36</time>
<name>3358</name>
<sym>Dot</sym>
</trkpt>
<trkpt lat="39.997382" lon="-8.376395">
<ele>253.0</ele>
<desc>Speed 24.9 km/h Distance 14.53 km</desc>
<time>2011-05-22T08:15:52.36</time>
<name>3359</name>
<sym>Dot</sym>
</trkpt>
<trkpt lat="39.997320" lon="-8.376415">
<ele>253.0</ele>
<desc>Speed 25.5 km/h Distance 14.54 km</desc>
<time>2011-05-22T08:15:53.36</time>
<name>3360</name>
<sym>Dot</sym>
</trkpt>
<trkpt lat="39.997260" lon="-8.376428">
<ele>253.0</ele>
<desc>Speed 24.7 km/h Distance 14.55 km</desc>
<time>2011-05-22T08:15:54.36</time>
<name>3361</name>
<sym>Dot</sym>
</trkpt>
<trkpt lat="39.997202" lon="-8.376443">
<ele>253.5</ele>
<desc>Speed 23.6 km/h Distance 14.55 km</desc>
<time>2011-05-22T08:15:55.36</time>
<name>3362</name>
<sym>Dot</sym>
</trkpt>
<trkpt lat="39.997145" lon="-8.376460">
<ele>253.5</ele>
<desc>Speed 23.0 km/h Distance 14.56 km</desc>
<time>2011-05-22T08:15:56.36</time>
<name>3363</name>
<sym>Dot</sym>
</trkpt>
<trkpt lat="39.997092" lon="-8.376482">
<ele>253.0</ele>
<desc>Speed 22.4 km/h Distance 14.57 km</desc>
<time>2011-05-22T08:15:57.36</time>
<name>3364</name>
<sym>Dot</sym>
</trkpt>
<trkpt lat="39.997038" lon="-8.376502">
<ele>253.0</ele>
<desc>Speed 21.7 km/h Distance 14.57 km</desc>
<time>2011-05-22T08:15:58.36</time>
<name>3365</name>
<sym>Dot</sym>
</trkpt>
<trkpt lat="39.996987" lon="-8.376520">
<ele>253.0</ele>
<desc>Speed 21.8 km/h Distance 14.58 km</desc>
<time>2011-05-22T08:15:59.36</time>
<name>3366</name>
<sym>Dot</sym>
</trkpt>
<trkpt lat="39.996935" lon="-8.376537">
<ele>252.5</ele>
<desc>Speed 21.1 km/h Distance 14.58 km</desc>
<time>2011-05-22T08:16:00.36</time>
<name>3367</name>
<sym>Dot</sym>
</trkpt>
<trkpt lat="39.996885" lon="-8.376553">
<ele>252.5</ele>
<desc>Speed 21.2 km/h Distance 14.59 km</desc>
<time>2011-05-22T08:16:01.36</time>
<name>3368</name>
<sym>Dot</sym>
</trkpt>
<trkpt lat="39.996830" lon="-8.376568">
<ele>252.0</ele>
<desc>Speed 22.1 km/h Distance 14.60 km</desc>
<time>2011-05-22T08:16:02.36</time>
<name>3369</name>
<sym>Dot</sym>
</trkpt>
<trkpt lat="39.996775" lon="-8.376587">
<ele>252.0</ele>
<desc>Speed 23.0 km/h Distance 14.60 km</desc>
<time>2011-05-22T08:16:03.36</time>
<name>3370</name>
<sym>Dot</sym>
</trkpt>
<trkpt lat="39.996717" lon="-8.376605">
<ele>252.0</ele>
<desc>Speed 23.5 km/h Distance 14.61 km</desc>
<time>2011-05-22T08:16:04.36</time>
<name>3371</name>
<sym>Dot</sym>
</trkpt>
<trkpt lat="39.996660" lon="-8.376623">
<ele>252.0</ele>
<desc>Speed 23.8 km/h Distance 14.62 km</desc>
<time>2011-05-22T08:16:05.36</time>
<name>3372</name>
<sym>Dot</sym>
</trkpt>
<trkpt lat="39.996602" lon="-8.376643">
<ele>252.0</ele>
<desc>Speed 24.0 km/h Distance 14.62 km</desc>
<time>2011-05-22T08:16:06.36</time>
<name>3373</name>
<sym>Dot</sym>
</trkpt>
<trkpt lat="39.996542" lon="-8.376662">
<ele>252.0</ele>
<desc>Speed 24.6 km/h Distance 14.63 km</desc>
<time>2011-05-22T08:16:07.36</time>
<name>3374</name>
<sym>Dot</sym>
</trkpt>
<trkpt lat="39.996482" lon="-8.376680">
<ele>252.0</ele>
<desc>Speed 25.0 km/h Distance 14.64 km</desc>
<time>2011-05-22T08:16:08.36</time>
<name>3375</name>
<sym>Dot</sym>
</trkpt>
<trkpt lat="39.996422" lon="-8.376700">
<ele>251.5</ele>
<desc>Speed 24.6 km/h Distance 14.64 km</desc>
<time>2011-05-22T08:16:09.36</time>
<name>3376</name>
<sym>Dot</sym>
</trkpt>
<trkpt lat="39.996360" lon="-8.376720">
<ele>252.0</ele>
<desc>Speed 25.1 km/h Distance 14.65 km</desc>
<time>2011-05-22T08:16:10.36</time>
<name>3377</name>
<sym>Dot</sym>
</trkpt>
<trkpt lat="39.996298" lon="-8.376738">
<ele>252.0</ele>
<desc>Speed 25.4 km/h Distance 14.66 km</desc>
<time>2011-05-22T08:16:11.36</time>
<name>3378</name>
<sym>Dot</sym>
</trkpt>
<trkpt lat="39.996237" lon="-8.376757">
<ele>252.0</ele>
<desc>Speed 25.5 km/h Distance 14.66 km</desc>
<time>2011-05-22T08:16:12.36</time>
<name>3379</name>
<sym>Dot</sym>
</trkpt>
<trkpt lat="39.996175" lon="-8.376775">
<ele>251.5</ele>
<desc>Speed 25.2 km/h Distance 14.67 km</desc>
<time>2011-05-22T08:16:13.36</time>
<name>3380</name>
<sym>Dot</sym>
</trkpt>
<trkpt lat="39.996112" lon="-8.376795">
<ele>251.5</ele>
<desc>Speed 26.1 km/h Distance 14.68 km</desc>
<time>2011-05-22T08:16:14.36</time>
<name>3381</name>
<sym>Dot</sym>
</trkpt>
<trkpt lat="39.996050" lon="-8.376815">
<ele>252.0</ele>
<desc>Speed 25.5 km/h Distance 14.69 km</desc>
<time>2011-05-22T08:16:15.36</time>
<name>3382</name>
<sym>Dot</sym>
</trkpt>
<trkpt lat="39.995990" lon="-8.376837">
<ele>252.0</ele>
<desc>Speed 25.1 km/h Distance 14.69 km</desc>
<time>2011-05-22T08:16:16.36</time>
<name>3383</name>
<sym>Dot</sym>
</trkpt>
<trkpt lat="39.995927" lon="-8.376855">
<ele>252.0</ele>
<desc>Speed 25.4 km/h Distance 14.70 km</desc>
<time>2011-05-22T08:16:17.36</time>
<name>3384</name>
<sym>Dot</sym>
</trkpt>
<trkpt lat="39.995865" lon="-8.376875">
<ele>252.0</ele>
<desc>Speed 25.5 km/h Distance 14.71 km</desc>
<time>2011-05-22T08:16:18.36</time>
<name>3385</name>
<sym>Dot</sym>
</trkpt>
<trkpt lat="39.995805" lon="-8.376895">
<ele>252.0</ele>
<desc>Speed 25.2 km/h Distance 14.71 km</desc>
<time>2011-05-22T08:16:19.36</time>
<name>3386</name>
<sym>Dot</sym>
</trkpt>
<trkpt lat="39.995745" lon="-8.376913">
<ele>251.5</ele>
<desc>Speed 24.7 km/h Distance 14.72 km</desc>
<time>2011-05-22T08:16:20.36</time>
<name>3387</name>
<sym>Dot</sym>
</trkpt>
<trkpt lat="39.995683" lon="-8.376933">
<ele>251.5</ele>
<desc>Speed 25.3 km/h Distance 14.73 km</desc>
<time>2011-05-22T08:16:21.36</time>
<name>3388</name>
<sym>Dot</sym>
</trkpt>
<trkpt lat="39.995622" lon="-8.376952">
<ele>251.5</ele>
<desc>Speed 25.4 km/h Distance 14.73 km</desc>
<time>2011-05-22T08:16:22.36</time>
<name>3389</name>
<sym>Dot</sym>
</trkpt>
<trkpt lat="39.995562" lon="-8.376970">
<ele>251.5</ele>
<desc>Speed 25.3 km/h Distance 14.74 km</desc>
<time>2011-05-22T08:16:23.36</time>
<name>3390</name>
<sym>Dot</sym>
</trkpt>
<trkpt lat="39.995500" lon="-8.376990">
<ele>251.5</ele>
<desc>Speed 25.4 km/h Distance 14.75 km</desc>
<time>2011-05-22T08:16:24.36</time>
<name>3391</name>
<sym>Dot</sym>
</trkpt>
<trkpt lat="39.995438" lon="-8.377012">
<ele>251.0</ele>
<desc>Speed 25.1 km/h Distance 14.76 km</desc>
<time>2011-05-22T08:16:25.36</time>
<name>3392</name>
<sym>Dot</sym>
</trkpt>
<trkpt lat="39.995377" lon="-8.377030">
<ele>251.0</ele>
<desc>Speed 25.7 km/h Distance 14.76 km</desc>
<time>2011-05-22T08:16:26.36</time>
<name>3393</name>
<sym>Dot</sym>
</trkpt>
<trkpt lat="39.995315" lon="-8.377052">
<ele>251.5</ele>
<desc>Speed 25.7 km/h Distance 14.77 km</desc>
<time>2011-05-22T08:16:27.36</time>
<name>3394</name>
<sym>Dot</sym>
</trkpt>
<trkpt lat="39.995253" lon="-8.377072">
<ele>251.5</ele>
<desc>Speed 25.9 km/h Distance 14.78 km</desc>
<time>2011-05-22T08:16:28.36</time>
<name>3395</name>
<sym>Dot</sym>
</trkpt>
<trkpt lat="39.995192" lon="-8.377093">
<ele>251.5</ele>
<desc>Speed 25.6 km/h Distance 14.78 km</desc>
<time>2011-05-22T08:16:29.36</time>
<name>3396</name>
<sym>Dot</sym>
</trkpt>
<trkpt lat="39.995130" lon="-8.377118">
<ele>251.5</ele>
<desc>Speed 26.0 km/h Distance 14.79 km</desc>
<time>2011-05-22T08:16:30.36</time>
<name>3397</name>
<sym>Dot</sym>
</trkpt>
<trkpt lat="39.995070" lon="-8.377148">
<ele>251.5</ele>
<desc>Speed 26.0 km/h Distance 14.80 km</desc>
<time>2011-05-22T08:16:31.36</time>
<name>3398</name>
<sym>Dot</sym>
</trkpt>
<trkpt lat="39.995010" lon="-8.377178">
<ele>251.5</ele>
<desc>Speed 25.5 km/h Distance 14.80 km</desc>
<time>2011-05-22T08:16:32.36</time>
<name>3399</name>
<sym>Dot</sym>
</trkpt>
<trkpt lat="39.994953" lon="-8.377210">
<ele>251.5</ele>
<desc>Speed 25.2 km/h Distance 14.81 km</desc>
<time>2011-05-22T08:16:33.36</time>
<name>3400</name>
<sym>Dot</sym>
</trkpt>
<trkpt lat="39.994898" lon="-8.377245">
<ele>251.5</ele>
<desc>Speed 24.6 km/h Distance 14.82 km</desc>
<time>2011-05-22T08:16:34.35</time>
<name>3401</name>
<sym>Dot</sym>
</trkpt>
<trkpt lat="39.994845" lon="-8.377283">
<ele>251.5</ele>
<desc>Speed 24.6 km/h Distance 14.83 km</desc>
<time>2011-05-22T08:16:35.35</time>
<name>3402</name>
<sym>Dot</sym>
</trkpt>
<trkpt lat="39.994792" lon="-8.377323">
<ele>251.0</ele>
<desc>Speed 24.6 km/h Distance 14.83 km</desc>
<time>2011-05-22T08:16:36.35</time>
<name>3403</name>
<sym>Dot</sym>
</trkpt>
<trkpt lat="39.994740" lon="-8.377365">
<ele>251.0</ele>
<desc>Speed 24.2 km/h Distance 14.84 km</desc>
<time>2011-05-22T08:16:37.35</time>
<name>3404</name>
<sym>Dot</sym>
</trkpt>
<trkpt lat="39.994690" lon="-8.377405">
<ele>251.0</ele>
<desc>Speed 23.8 km/h Distance 14.85 km</desc>
<time>2011-05-22T08:16:38.35</time>
<name>3405</name>
<sym>Dot</sym>
</trkpt>
<trkpt lat="39.994642" lon="-8.377448">
<ele>251.0</ele>
<desc>Speed 23.7 km/h Distance 14.85 km</desc>
<time>2011-05-22T08:16:39.35</time>
<name>3406</name>
<sym>Dot</sym>
</trkpt>
<trkpt lat="39.994592" lon="-8.377490">
<ele>251.0</ele>
<desc>Speed 24.1 km/h Distance 14.86 km</desc>
<time>2011-05-22T08:16:40.35</time>
<name>3407</name>
<sym>Dot</sym>
</trkpt>
<trkpt lat="39.994542" lon="-8.377532">
<ele>251.0</ele>
<desc>Speed 24.2 km/h Distance 14.87 km</desc>
<time>2011-05-22T08:16:41.35</time>
<name>3408</name>
<sym>Dot</sym>
</trkpt>
<trkpt lat="39.994492" lon="-8.377575">
<ele>251.0</ele>
<desc>Speed 24.3 km/h Distance 14.87 km</desc>
<time>2011-05-22T08:16:42.35</time>
<name>3409</name>
<sym>Dot</sym>
</trkpt>
<trkpt lat="39.994440" lon="-8.377618">
<ele>251.0</ele>
<desc>Speed 24.6 km/h Distance 14.88 km</desc>
<time>2011-05-22T08:16:43.35</time>
<name>3410</name>
<sym>Dot</sym>
</trkpt>
<trkpt lat="39.994388" lon="-8.377662">
<ele>251.5</ele>
<desc>Speed 24.7 km/h Distance 14.89 km</desc>
<time>2011-05-22T08:16:44.35</time>
<name>3411</name>
<sym>Dot</sym>
</trkpt>
<trkpt lat="39.994337" lon="-8.377707">
<ele>251.5</ele>
<desc>Speed 24.6 km/h Distance 14.89 km</desc>
<time>2011-05-22T08:16:45.35</time>
<name>3412</name>
<sym>Dot</sym>
</trkpt>
<trkpt lat="39.994285" lon="-8.377748">
<ele>251.0</ele>
<desc>Speed 24.5 km/h Distance 14.90 km</desc>
<time>2011-05-22T08:16:46.35</time>
<name>3413</name>
<sym>Dot</sym>
</trkpt>
<trkpt lat="39.994232" lon="-8.377790">
<ele>250.5</ele>
<desc>Speed 25.0 km/h Distance 14.91 km</desc>
<time>2011-05-22T08:16:47.35</time>
<name>3414</name>
<sym>Dot</sym>
</trkpt>
<trkpt lat="39.994178" lon="-8.377833">
<ele>250.5</ele>
<desc>Speed 25.1 km/h Distance 14.91 km</desc>
<time>2011-05-22T08:16:48.35</time>
<name>3415</name>
<sym>Dot</sym>
</trkpt>
<trkpt lat="39.994128" lon="-8.377880">
<ele>250.5</ele>
<desc>Speed 25.0 km/h Distance 14.92 km</desc>
<time>2011-05-22T08:16:49.35</time>
<name>3416</name>
<sym>Dot</sym>
</trkpt>
<trkpt lat="39.994075" lon="-8.377923">
<ele>250.5</ele>
<desc>Speed 25.1 km/h Distance 14.93 km</desc>
<time>2011-05-22T08:16:50.35</time>
<name>3417</name>
<sym>Dot</sym>
</trkpt>
<trkpt lat="39.994023" lon="-8.377968">
<ele>250.5</ele>
<desc>Speed 25.1 km/h Distance 14.93 km</desc>
<time>2011-05-22T08:16:51.35</time>
<name>3418</name>
<sym>Dot</sym>
</trkpt>
<trkpt lat="39.993972" lon="-8.378013">
<ele>250.5</ele>
<desc>Speed 24.8 km/h Distance 14.94 km</desc>
<time>2011-05-22T08:16:52.35</time>
<name>3419</name>
<sym>Dot</sym>
</trkpt>
<trkpt lat="39.993918" lon="-8.378055">
<ele>250.5</ele>
<desc>Speed 24.8 km/h Distance 14.95 km</desc>
<time>2011-05-22T08:16:53.35</time>
<name>3420</name>
<sym>Dot</sym>
</trkpt>
<trkpt lat="39.993867" lon="-8.378098">
<ele>251.0</ele>
<desc>Speed 24.7 km/h Distance 14.95 km</desc>
<time>2011-05-22T08:16:54.35</time>
<name>3421</name>
<sym>Dot</sym>
</trkpt>
<trkpt lat="39.993813" lon="-8.378138">
<ele>251.0</ele>
<desc>Speed 24.6 km/h Distance 14.96 km</desc>
<time>2011-05-22T08:16:55.35</time>
<name>3422</name>
<sym>Dot</sym>
</trkpt>
<trkpt lat="39.993758" lon="-8.378175">
<ele>252.0</ele>
<desc>Speed 24.4 km/h Distance 14.97 km</desc>
<time>2011-05-22T08:16:56.35</time>
<name>3423</name>
<sym>Dot</sym>
</trkpt>
<trkpt lat="39.993705" lon="-8.378210">
<ele>252.0</ele>
<desc>Speed 24.3 km/h Distance 14.98 km</desc>
<time>2011-05-22T08:16:57.35</time>
<name>3424</name>
<sym>Dot</sym>
</trkpt>
<trkpt lat="39.993652" lon="-8.378247">
<ele>252.0</ele>
<desc>Speed 24.4 km/h Distance 14.98 km</desc>
<time>2011-05-22T08:16:58.35</time>
<name>3425</name>
<sym>Dot</sym>
</trkpt>
<trkpt lat="39.993597" lon="-8.378282">
<ele>252.5</ele>
<desc>Speed 24.2 km/h Distance 14.99 km</desc>
<time>2011-05-22T08:16:59.35</time>
<name>3426</name>
<sym>Dot</sym>
</trkpt>
<trkpt lat="39.993543" lon="-8.378313">
<ele>252.0</ele>
<desc>Speed 23.8 km/h Distance 15.00 km</desc>
<time>2011-05-22T08:17:00.35</time>
<name>3427</name>
<sym>Dot</sym>
</trkpt>
<trkpt lat="39.993490" lon="-8.378345">
<ele>252.0</ele>
<desc>Speed 23.8 km/h Distance 15.00 km</desc>
<time>2011-05-22T08:17:01.35</time>
<name>3428</name>
<sym>Dot</sym>
</trkpt>
<trkpt lat="39.993433" lon="-8.378377">
<ele>252.0</ele>
<desc>Speed 24.7 km/h Distance 15.01 km</desc>
<time>2011-05-22T08:17:02.35</time>
<name>3429</name>
<sym>Dot</sym>
</trkpt>
<trkpt lat="39.993377" lon="-8.378405">
<ele>252.0</ele>
<desc>Speed 24.3 km/h Distance 15.02 km</desc>
<time>2011-05-22T08:17:03.35</time>
<name>3430</name>
<sym>Dot</sym>
</trkpt>
<trkpt lat="39.993320" lon="-8.378432">
<ele>252.5</ele>
<desc>Speed 24.6 km/h Distance 15.02 km</desc>
<time>2011-05-22T08:17:04.35</time>
<name>3431</name>
<sym>Dot</sym>
</trkpt>
<trkpt lat="39.993263" lon="-8.378460">
<ele>252.5</ele>
<desc>Speed 24.3 km/h Distance 15.03 km</desc>
<time>2011-05-22T08:17:05.35</time>
<name>3432</name>
<sym>Dot</sym>
</trkpt>
<trkpt lat="39.993205" lon="-8.378487">
<ele>252.5</ele>
<desc>Speed 24.5 km/h Distance 15.04 km</desc>
<time>2011-05-22T08:17:06.35</time>
<name>3433</name>
<sym>Dot</sym>
</trkpt>
<trkpt lat="39.993148" lon="-8.378513">
<ele>252.5</ele>
<desc>Speed 24.3 km/h Distance 15.04 km</desc>
<time>2011-05-22T08:17:07.35</time>
<name>3434</name>
<sym>Dot</sym>
</trkpt>
<trkpt lat="39.993090" lon="-8.378538">
<ele>252.5</ele>
<desc>Speed 24.4 km/h Distance 15.05 km</desc>
<time>2011-05-22T08:17:08.35</time>
<name>3435</name>
<sym>Dot</sym>
</trkpt>
<trkpt lat="39.993033" lon="-8.378565">
<ele>253.0</ele>
<desc>Speed 24.3 km/h Distance 15.06 km</desc>
<time>2011-05-22T08:17:09.35</time>
<name>3436</name>
<sym>Dot</sym>
</trkpt>
<trkpt lat="39.992977" lon="-8.378590">
<ele>253.0</ele>
<desc>Speed 23.9 km/h Distance 15.06 km</desc>
<time>2011-05-22T08:17:10.35</time>
<name>3437</name>
<sym>Dot</sym>
</trkpt>
<trkpt lat="39.992920" lon="-8.378615">
<ele>253.0</ele>
<desc>Speed 23.6 km/h Distance 15.07 km</desc>
<time>2011-05-22T08:17:11.35</time>
<name>3438</name>
<sym>Dot</sym>
</trkpt>
<trkpt lat="39.992868" lon="-8.378640">
<ele>253.0</ele>
<desc>Speed 22.5 km/h Distance 15.08 km</desc>
<time>2011-05-22T08:17:12.35</time>
<name>3439</name>
<sym>Dot</sym>
</trkpt>
<trkpt lat="39.992815" lon="-8.378665">
<ele>253.5</ele>
<desc>Speed 22.6 km/h Distance 15.08 km</desc>
<time>2011-05-22T08:17:13.35</time>
<name>3440</name>
<sym>Dot</sym>
</trkpt>
<trkpt lat="39.992765" lon="-8.378690">
<ele>253.0</ele>
<desc>Speed 21.6 km/h Distance 15.09 km</desc>
<time>2011-05-22T08:17:14.35</time>
<name>3441</name>
<sym>Dot</sym>
</trkpt>
<trkpt lat="39.992715" lon="-8.378713">
<ele>253.0</ele>
<desc>Speed 21.1 km/h Distance 15.09 km</desc>
<time>2011-05-22T08:17:15.35</time>
<name>3442</name>
<sym>Dot</sym>
</trkpt>
<trkpt lat="39.992665" lon="-8.378737">
<ele>253.0</ele>
<desc>Speed 21.0 km/h Distance 15.10 km</desc>
<time>2011-05-22T08:17:16.35</time>
<name>3443</name>
<sym>Dot</sym>
</trkpt>
<trkpt lat="39.992617" lon="-8.378760">
<ele>253.0</ele>
<desc>Speed 20.9 km/h Distance 15.11 km</desc>
<time>2011-05-22T08:17:17.35</time>
<name>3444</name>
<sym>Dot</sym>
</trkpt>
<trkpt lat="39.992568" lon="-8.378783">
<ele>253.0</ele>
<desc>Speed 20.5 km/h Distance 15.11 km</desc>
<time>2011-05-22T08:17:18.35</time>
<name>3445</name>
<sym>Dot</sym>
</trkpt>
<trkpt lat="39.992522" lon="-8.378805">
<ele>253.5</ele>
<desc>Speed 20.0 km/h Distance 15.12 km</desc>
<time>2011-05-22T08:17:19.35</time>
<name>3446</name>
<sym>Dot</sym>
</trkpt>
<trkpt lat="39.992473" lon="-8.378825">
<ele>253.5</ele>
<desc>Speed 19.9 km/h Distance 15.12 km</desc>
<time>2011-05-22T08:17:20.35</time>
<name>3447</name>
<sym>Dot</sym>
</trkpt>
<trkpt lat="39.992428" lon="-8.378845">
<ele>254.0</ele>
<desc>Speed 19.6 km/h Distance 15.13 km</desc>
<time>2011-05-22T08:17:21.35</time>
<name>3448</name>
<sym>Dot</sym>
</trkpt>
<trkpt lat="39.992382" lon="-8.378865">
<ele>254.0</ele>
<desc>Speed 19.3 km/h Distance 15.13 km</desc>
<time>2011-05-22T08:17:22.35</time>
<name>3449</name>
<sym>Dot</sym>
</trkpt>
<trkpt lat="39.992338" lon="-8.378885">
<ele>254.5</ele>
<desc>Speed 19.0 km/h Distance 15.14 km</desc>
<time>2011-05-22T08:17:23.35</time>
<name>3450</name>
<sym>Dot</sym>
</trkpt>
<trkpt lat="39.992293" lon="-8.378903">
<ele>254.5</ele>
<desc>Speed 18.6 km/h Distance 15.14 km</desc>
<time>2011-05-22T08:17:24.35</time>
<name>3451</name>
<sym>Dot</sym>
</trkpt>
<trkpt lat="39.992250" lon="-8.378923">
<ele>254.5</ele>
<desc>Speed 18.8 km/h Distance 15.15 km</desc>
<time>2011-05-22T08:17:25.35</time>
<name>3452</name>
<sym>Dot</sym>
</trkpt>
<trkpt lat="39.992205" lon="-8.378942">
<ele>255.0</ele>
<desc>Speed 18.8 km/h Distance 15.15 km</desc>
<time>2011-05-22T08:17:26.35</time>
<name>3453</name>
<sym>Dot</sym>
</trkpt>
<trkpt lat="39.992162" lon="-8.378963">
<ele>255.0</ele>
<desc>Speed 18.8 km/h Distance 15.16 km</desc>
<time>2011-05-22T08:17:27.35</time>
<name>3454</name>
<sym>Dot</sym>
</trkpt>
<trkpt lat="39.992118" lon="-8.378985">
<ele>255.0</ele>
<desc>Speed 18.5 km/h Distance 15.16 km</desc>
<time>2011-05-22T08:17:28.35</time>
<name>3455</name>
<sym>Dot</sym>
</trkpt>
<trkpt lat="39.992073" lon="-8.379005">
<ele>255.5</ele>
<desc>Speed 18.6 km/h Distance 15.17 km</desc>
<time>2011-05-22T08:17:29.35</time>
<name>3456</name>
<sym>Dot</sym>
</trkpt>
<trkpt lat="39.992032" lon="-8.379023">
<ele>255.5</ele>
<desc>Speed 18.5 km/h Distance 15.17 km</desc>
<time>2011-05-22T08:17:30.35</time>
<name>3457</name>
<sym>Dot</sym>
</trkpt>
<trkpt lat="39.991988" lon="-8.379043">
<ele>255.5</ele>
<desc>Speed 18.2 km/h Distance 15.18 km</desc>
<time>2011-05-22T08:17:31.35</time>
<name>3458</name>
<sym>Dot</sym>
</trkpt>
<trkpt lat="39.991945" lon="-8.379062">
<ele>255.5</ele>
<desc>Speed 18.5 km/h Distance 15.18 km</desc>
<time>2011-05-22T08:17:32.35</time>
<name>3459</name>
<sym>Dot</sym>
</trkpt>
<trkpt lat="39.991902" lon="-8.379080">
<ele>256.0</ele>
<desc>Speed 18.3 km/h Distance 15.19 km</desc>
<time>2011-05-22T08:17:33.35</time>
<name>3460</name>
<sym>Dot</sym>
</trkpt>
<trkpt lat="39.991862" lon="-8.379102">
<ele>256.0</ele>
<desc>Speed 17.5 km/h Distance 15.19 km</desc>
<time>2011-05-22T08:17:34.35</time>
<name>3461</name>
<sym>Dot</sym>
</trkpt>
<trkpt lat="39.991818" lon="-8.379122">
<ele>256.0</ele>
<desc>Speed 18.3 km/h Distance 15.20 km</desc>
<time>2011-05-22T08:17:35.35</time>
<name>3462</name>
<sym>Dot</sym>
</trkpt>
<trkpt lat="39.991777" lon="-8.379142">
<ele>256.0</ele>
<desc>Speed 18.1 km/h Distance 15.20 km</desc>
<time>2011-05-22T08:17:36.35</time>
<name>3463</name>
<sym>Dot</sym>
</trkpt>
<trkpt lat="39.991733" lon="-8.379155">
<ele>256.5</ele>
<desc>Speed 17.8 km/h Distance 15.21 km</desc>
<time>2011-05-22T08:17:37.35</time>
<name>3464</name>
<sym>Dot</sym>
</trkpt>
<trkpt lat="39.991692" lon="-8.379168">
<ele>256.5</ele>
<desc>Speed 17.4 km/h Distance 15.21 km</desc>
<time>2011-05-22T08:17:38.35</time>
<name>3465</name>
<sym>Dot</sym>
</trkpt>
<trkpt lat="39.991650" lon="-8.379188">
<ele>256.5</ele>
<desc>Speed 17.7 km/h Distance 15.22 km</desc>
<time>2011-05-22T08:17:39.35</time>
<name>3466</name>
<sym>Dot</sym>
</trkpt>
<trkpt lat="39.991610" lon="-8.379210">
<ele>256.5</ele>
<desc>Speed 17.5 km/h Distance 15.22 km</desc>
<time>2011-05-22T08:17:40.35</time>
<name>3467</name>
<sym>Dot</sym>
</trkpt>
<trkpt lat="39.991570" lon="-8.379228">
<ele>256.5</ele>
<desc>Speed 17.4 km/h Distance 15.23 km</desc>
<time>2011-05-22T08:17:41.35</time>
<name>3468</name>
<sym>Dot</sym>
</trkpt>
<trkpt lat="39.991528" lon="-8.379243">
<ele>256.5</ele>
<desc>Speed 17.4 km/h Distance 15.23 km</desc>
<time>2011-05-22T08:17:42.35</time>
<name>3469</name>
<sym>Dot</sym>
</trkpt>
<trkpt lat="39.991487" lon="-8.379260">
<ele>257.0</ele>
<desc>Speed 17.3 km/h Distance 15.24 km</desc>
<time>2011-05-22T08:17:43.35</time>
<name>3470</name>
<sym>Dot</sym>
</trkpt>
<trkpt lat="39.991448" lon="-8.379278">
<ele>257.0</ele>
<desc>Speed 16.2 km/h Distance 15.24 km</desc>
<time>2011-05-22T08:17:44.35</time>
<name>3471</name>
<sym>Dot</sym>
</trkpt>
<trkpt lat="39.991413" lon="-8.379298">
<ele>257.5</ele>
<desc>Speed 15.6 km/h Distance 15.25 km</desc>
<time>2011-05-22T08:17:45.35</time>
<name>3472</name>
<sym>Dot</sym>
</trkpt>
<trkpt lat="39.991378" lon="-8.379320">
<ele>258.5</ele>
<desc>Speed 15.7 km/h Distance 15.25 km</desc>
<time>2011-05-22T08:17:46.35</time>
<name>3473</name>
<sym>Dot</sym>
</trkpt>
<trkpt lat="39.991335" lon="-8.379335">
<ele>258.5</ele>
<desc>Speed 17.9 km/h Distance 15.26 km</desc>
<time>2011-05-22T08:17:47.35</time>
<name>3474</name>
<sym>Dot</sym>
</trkpt>
<trkpt lat="39.991292" lon="-8.379350">
<ele>258.5</ele>
<desc>Speed 18.3 km/h Distance 15.26 km</desc>
<time>2011-05-22T08:17:48.35</time>
<name>3475</name>
<sym>Dot</sym>
</trkpt>
<trkpt lat="39.991247" lon="-8.379365">
<ele>258.5</ele>
<desc>Speed 18.5 km/h Distance 15.27 km</desc>
<time>2011-05-22T08:17:49.35</time>
<name>3476</name>
<sym>Dot</sym>
</trkpt>
<trkpt lat="39.991202" lon="-8.379378">
<ele>258.5</ele>
<desc>Speed 18.3 km/h Distance 15.27 km</desc>
<time>2011-05-22T08:17:50.35</time>
<name>3477</name>
<sym>Dot</sym>
</trkpt>
<trkpt lat="39.991158" lon="-8.379393">
<ele>258.5</ele>
<desc>Speed 18.0 km/h Distance 15.28 km</desc>
<time>2011-05-22T08:17:51.35</time>
<name>3478</name>
<sym>Dot</sym>
</trkpt>
<trkpt lat="39.991115" lon="-8.379407">
<ele>258.5</ele>
<desc>Speed 17.7 km/h Distance 15.28 km</desc>
<time>2011-05-22T08:17:52.35</time>
<name>3479</name>
<sym>Dot</sym>
</trkpt>
<trkpt lat="39.991072" lon="-8.379418">
<ele>259.0</ele>
<desc>Speed 17.8 km/h Distance 15.29 km</desc>
<time>2011-05-22T08:17:53.35</time>
<name>3480</name>
<sym>Dot</sym>
</trkpt>
<trkpt lat="39.991028" lon="-8.379430">
<ele>259.0</ele>
<desc>Speed 18.0 km/h Distance 15.29 km</desc>
<time>2011-05-22T08:17:54.35</time>
<name>3481</name>
<sym>Dot</sym>
</trkpt>
<trkpt lat="39.990982" lon="-8.379442">
<ele>259.0</ele>
<desc>Speed 18.5 km/h Distance 15.30 km</desc>
<time>2011-05-22T08:17:55.35</time>
<name>3482</name>
<sym>Dot</sym>
</trkpt>
<trkpt lat="39.990937" lon="-8.379452">
<ele>259.0</ele>
<desc>Speed 18.3 km/h Distance 15.30 km</desc>
<time>2011-05-22T08:17:56.35</time>
<name>3483</name>
<sym>Dot</sym>
</trkpt>
<trkpt lat="39.990890" lon="-8.379462">
<ele>259.0</ele>
<desc>Speed 18.6 km/h Distance 15.31 km</desc>
<time>2011-05-22T08:17:57.35</time>
<name>3484</name>
<sym>Dot</sym>
</trkpt>
<trkpt lat="39.990843" lon="-8.379468">
<ele>259.0</ele>
<desc>Speed 18.8 km/h Distance 15.31 km</desc>
<time>2011-05-22T08:17:58.35</time>
<name>3485</name>
<sym>Dot</sym>
</trkpt>
<trkpt lat="39.990797" lon="-8.379477">
<ele>258.5</ele>
<desc>Speed 18.7 km/h Distance 15.32 km</desc>
<time>2011-05-22T08:17:59.35</time>
<name>3486</name>
<sym>Dot</sym>
</trkpt>
<trkpt lat="39.990750" lon="-8.379483">
<ele>258.5</ele>
<desc>Speed 18.8 km/h Distance 15.32 km</desc>
<time>2011-05-22T08:18:00.35</time>
<name>3487</name>
<sym>Dot</sym>
</trkpt>
<trkpt lat="39.990702" lon="-8.379490">
<ele>258.5</ele>
<desc>Speed 19.0 km/h Distance 15.33 km</desc>
<time>2011-05-22T08:18:01.35</time>
<name>3488</name>
<sym>Dot</sym>
</trkpt>
<trkpt lat="39.990655" lon="-8.379497">
<ele>258.5</ele>
<desc>Speed 18.8 km/h Distance 15.33 km</desc>
<time>2011-05-22T08:18:02.35</time>
<name>3489</name>
<sym>Dot</sym>
</trkpt>
<trkpt lat="39.990608" lon="-8.379500">
<ele>258.5</ele>
<desc>Speed 18.8 km/h Distance 15.34 km</desc>
<time>2011-05-22T08:18:03.35</time>
<name>3490</name>
<sym>Dot</sym>
</trkpt>
<trkpt lat="39.990562" lon="-8.379502">
<ele>259.0</ele>
<desc>Speed 18.8 km/h Distance 15.34 km</desc>
<time>2011-05-22T08:18:04.35</time>
<name>3491</name>
<sym>Dot</sym>
</trkpt>
<trkpt lat="39.990515" lon="-8.379507">
<ele>259.0</ele>
<desc>Speed 18.5 km/h Distance 15.35 km</desc>
<time>2011-05-22T08:18:05.35</time>
<name>3492</name>
<sym>Dot</sym>
</trkpt>
<trkpt lat="39.990468" lon="-8.379508">
<ele>259.5</ele>
<desc>Speed 18.8 km/h Distance 15.35 km</desc>
<time>2011-05-22T08:18:06.35</time>
<name>3493</name>
<sym>Dot</sym>
</trkpt>
<trkpt lat="39.990420" lon="-8.379512">
<ele>259.5</ele>
<desc>Speed 19.2 km/h Distance 15.36 km</desc>
<time>2011-05-22T08:18:07.35</time>
<name>3494</name>
<sym>Dot</sym>
</trkpt>
<trkpt lat="39.990373" lon="-8.379517">
<ele>260.0</ele>
<desc>Speed 18.9 km/h Distance 15.36 km</desc>
<time>2011-05-22T08:18:08.35</time>
<name>3495</name>
<sym>Dot</sym>
</trkpt>
<trkpt lat="39.990327" lon="-8.379518">
<ele>260.0</ele>
<desc>Speed 18.8 km/h Distance 15.37 km</desc>
<time>2011-05-22T08:18:09.35</time>
<name>3496</name>
<sym>Dot</sym>
</trkpt>
<trkpt lat="39.990278" lon="-8.379518">
<ele>260.0</ele>
<desc>Speed 19.1 km/h Distance 15.38 km</desc>
<time>2011-05-22T08:18:10.35</time>
<name>3497</name>
<sym>Dot</sym>
</trkpt>
<trkpt lat="39.990233" lon="-8.379517">
<ele>260.0</ele>
<desc>Speed 18.5 km/h Distance 15.38 km</desc>
<time>2011-05-22T08:18:11.35</time>
<name>3498</name>
<sym>Dot</sym>
</trkpt>
<trkpt lat="39.990185" lon="-8.379517">
<ele>259.5</ele>
<desc>Speed 19.2 km/h Distance 15.39 km</desc>
<time>2011-05-22T08:18:12.35</time>
<name>3499</name>
<sym>Dot</sym>
</trkpt>
<trkpt lat="39.990140" lon="-8.379512">
<ele>259.0</ele>
<desc>Speed 18.3 km/h Distance 15.39 km</desc>
<time>2011-05-22T08:18:13.35</time>
<name>3500</name>
<sym>Dot</sym>
</trkpt>
<trkpt lat="39.990100" lon="-8.379512">
<ele>257.5</ele>
<desc>Speed 16.1 km/h Distance 15.40 km</desc>
<time>2011-05-22T08:18:14.35</time>
<name>3501</name>
<sym>Dot</sym>
</trkpt>
<trkpt lat="39.990055" lon="-8.379510">
<ele>257.0</ele>
<desc>Speed 17.7 km/h Distance 15.40 km</desc>
<time>2011-05-22T08:18:15.35</time>
<name>3502</name>
<sym>Dot</sym>
</trkpt>
<trkpt lat="39.990007" lon="-8.379510">
<ele>257.0</ele>
<desc>Speed 19.6 km/h Distance 15.41 km</desc>
<time>2011-05-22T08:18:16.35</time>
<name>3503</name>
<sym>Dot</sym>
</trkpt>
<trkpt lat="39.989957" lon="-8.379512">
<ele>257.0</ele>
<desc>Speed 19.4 km/h Distance 15.41 km</desc>
<time>2011-05-22T08:18:17.35</time>
<name>3504</name>
<sym>Dot</sym>
</trkpt>
<trkpt lat="39.989910" lon="-8.379513">
<ele>257.0</ele>
<desc>Speed 18.9 km/h Distance 15.42 km</desc>
<time>2011-05-22T08:18:18.35</time>
<name>3505</name>
<sym>Dot</sym>
</trkpt>
<trkpt lat="39.989863" lon="-8.379513">
<ele>257.0</ele>
<desc>Speed 18.4 km/h Distance 15.42 km</desc>
<time>2011-05-22T08:18:19.35</time>
<name>3506</name>
<sym>Dot</sym>
</trkpt>
<trkpt lat="39.989815" lon="-8.379510">
<ele>256.5</ele>
<desc>Speed 19.6 km/h Distance 15.43 km</desc>
<time>2011-05-22T08:18:20.35</time>
<name>3507</name>
<sym>Dot</sym>
</trkpt>
<trkpt lat="39.989765" lon="-8.379507">
<ele>256.5</ele>
<desc>Speed 19.6 km/h Distance 15.43 km</desc>
<time>2011-05-22T08:18:21.35</time>
<name>3508</name>
<sym>Dot</sym>
</trkpt>
<trkpt lat="39.989718" lon="-8.379498">
<ele>256.5</ele>
<desc>Speed 19.4 km/h Distance 15.44 km</desc>
<time>2011-05-22T08:18:22.35</time>
<name>3509</name>
<sym>Dot</sym>
</trkpt>
<trkpt lat="39.989670" lon="-8.379493">
<ele>256.5</ele>
<desc>Speed 19.2 km/h Distance 15.44 km</desc>
<time>2011-05-22T08:18:23.35</time>
<name>3510</name>
<sym>Dot</sym>
</trkpt>
<trkpt lat="39.989618" lon="-8.379488">
<ele>257.0</ele>
<desc>Speed 19.4 km/h Distance 15.45 km</desc>
<time>2011-05-22T08:18:24.35</time>
<name>3511</name>
<sym>Dot</sym>
</trkpt>
<trkpt lat="39.989570" lon="-8.379480">
<ele>257.0</ele>
<desc>Speed 19.5 km/h Distance 15.45 km</desc>
<time>2011-05-22T08:18:25.35</time>
<name>3512</name>
<sym>Dot</sym>
</trkpt>
<trkpt lat="39.989520" lon="-8.379472">
<ele>257.0</ele>
<desc>Speed 19.4 km/h Distance 15.46 km</desc>
<time>2011-05-22T08:18:26.35</time>
<name>3513</name>
<sym>Dot</sym>
</trkpt>
<trkpt lat="39.989470" lon="-8.379463">
<ele>257.0</ele>
<desc>Speed 19.5 km/h Distance 15.47 km</desc>
<time>2011-05-22T08:18:27.35</time>
<name>3514</name>
<sym>Dot</sym>
</trkpt>
<trkpt lat="39.989422" lon="-8.379452">
<ele>257.0</ele>
<desc>Speed 19.3 km/h Distance 15.47 km</desc>
<time>2011-05-22T08:18:28.35</time>
<name>3515</name>
<sym>Dot</sym>
</trkpt>
<trkpt lat="39.989373" lon="-8.379442">
<ele>257.0</ele>
<desc>Speed 19.3 km/h Distance 15.48 km</desc>
<time>2011-05-22T08:18:29.35</time>
<name>3516</name>
<sym>Dot</sym>
</trkpt>
<trkpt lat="39.989327" lon="-8.379432">
<ele>257.0</ele>
<desc>Speed 19.1 km/h Distance 15.48 km</desc>
<time>2011-05-22T08:18:30.35</time>
<name>3517</name>
<sym>Dot</sym>
</trkpt>
<trkpt lat="39.989278" lon="-8.379420">
<ele>257.0</ele>
<desc>Speed 19.2 km/h Distance 15.49 km</desc>
<time>2011-05-22T08:18:31.35</time>
<name>3518</name>
<sym>Dot</sym>
</trkpt>
<trkpt lat="39.989230" lon="-8.379408">
<ele>257.0</ele>
<desc>Speed 19.2 km/h Distance 15.49 km</desc>
<time>2011-05-22T08:18:32.35</time>
<name>3519</name>
<sym>Dot</sym>
</trkpt>
<trkpt lat="39.989183" lon="-8.379402">
<ele>257.0</ele>
<desc>Speed 19.0 km/h Distance 15.50 km</desc>
<time>2011-05-22T08:18:33.35</time>
<name>3520</name>
<sym>Dot</sym>
</trkpt>
<trkpt lat="39.989135" lon="-8.379405">
<ele>257.0</ele>
<desc>Speed 19.5 km/h Distance 15.50 km</desc>
<time>2011-05-22T08:18:34.35</time>
<name>3521</name>
<sym>Dot</sym>
</trkpt>
<trkpt lat="39.989087" lon="-8.379418">
<ele>257.5</ele>
<desc>Speed 19.7 km/h Distance 15.51 km</desc>
<time>2011-05-22T08:18:35.35</time>
<name>3522</name>
<sym>Dot</sym>
</trkpt>
<trkpt lat="39.989038" lon="-8.379438">
<ele>257.5</ele>
<desc>Speed 19.9 km/h Distance 15.51 km</desc>
<time>2011-05-22T08:18:36.35</time>
<name>3523</name>
<sym>Dot</sym>
</trkpt>
<trkpt lat="39.988997" lon="-8.379473">
<ele>257.5</ele>
<desc>Speed 19.5 km/h Distance 15.52 km</desc>
<time>2011-05-22T08:18:37.35</time>
<name>3524</name>
<sym>Dot</sym>
</trkpt>
<trkpt lat="39.988960" lon="-8.379518">
<ele>257.5</ele>
<desc>Speed 20.2 km/h Distance 15.53 km</desc>
<time>2011-05-22T08:18:38.35</time>
<name>3525</name>
<sym>Dot</sym>
</trkpt>
<trkpt lat="39.988932" lon="-8.379575">
<ele>257.0</ele>
<desc>Speed 21.0 km/h Distance 15.53 km</desc>
<time>2011-05-22T08:18:39.35</time>
<name>3526</name>
<sym>Dot</sym>
</trkpt>
<trkpt lat="39.988912" lon="-8.379642">
<ele>257.0</ele>
<desc>Speed 22.1 km/h Distance 15.54 km</desc>
<time>2011-05-22T08:18:40.35</time>
<name>3527</name>
<sym>Dot</sym>
</trkpt>
<trkpt lat="39.988898" lon="-8.379708">
<ele>257.0</ele>
<desc>Speed 21.5 km/h Distance 15.54 km</desc>
<time>2011-05-22T08:18:41.35</time>
<name>3528</name>
<sym>Dot</sym>
</trkpt>
<trkpt lat="39.988885" lon="-8.379777">
<ele>256.5</ele>
<desc>Speed 21.6 km/h Distance 15.55 km</desc>
<time>2011-05-22T08:18:42.35</time>
<name>3529</name>
<sym>Dot</sym>
</trkpt>
<trkpt lat="39.988877" lon="-8.379847">
<ele>257.0</ele>
<desc>Speed 21.6 km/h Distance 15.56 km</desc>
<time>2011-05-22T08:18:43.35</time>
<name>3530</name>
<sym>Dot</sym>
</trkpt>
<trkpt lat="39.988865" lon="-8.379913">
<ele>257.0</ele>
<desc>Speed 21.0 km/h Distance 15.56 km</desc>
<time>2011-05-22T08:18:44.35</time>
<name>3531</name>
<sym>Dot</sym>
</trkpt>
<trkpt lat="39.988855" lon="-8.379977">
<ele>257.0</ele>
<desc>Speed 20.3 km/h Distance 15.57 km</desc>
<time>2011-05-22T08:18:45.35</time>
<name>3532</name>
<sym>Dot</sym>
</trkpt>
<trkpt lat="39.988843" lon="-8.380040">
<ele>257.0</ele>
<desc>Speed 19.8 km/h Distance 15.57 km</desc>
<time>2011-05-22T08:18:46.35</time>
<name>3533</name>
<sym>Dot</sym>
</trkpt>
<trkpt lat="39.988833" lon="-8.380103">
<ele>257.0</ele>
<desc>Speed 19.7 km/h Distance 15.58 km</desc>
<time>2011-05-22T08:18:47.35</time>
<name>3534</name>
<sym>Dot</sym>
</trkpt>
<trkpt lat="39.988825" lon="-8.380165">
<ele>257.0</ele>
<desc>Speed 19.6 km/h Distance 15.58 km</desc>
<time>2011-05-22T08:18:48.35</time>
<name>3535</name>
<sym>Dot</sym>
</trkpt>
<trkpt lat="39.988815" lon="-8.380228">
<ele>257.5</ele>
<desc>Speed 19.4 km/h Distance 15.59 km</desc>
<time>2011-05-22T08:18:49.35</time>
<name>3536</name>
<sym>Dot</sym>
</trkpt>
<trkpt lat="39.988807" lon="-8.380288">
<ele>257.5</ele>
<desc>Speed 18.8 km/h Distance 15.59 km</desc>
<time>2011-05-22T08:18:50.35</time>
<name>3537</name>
<sym>Dot</sym>
</trkpt>
<trkpt lat="39.988800" lon="-8.380347">
<ele>257.5</ele>
<desc>Speed 18.3 km/h Distance 15.60 km</desc>
<time>2011-05-22T08:18:51.35</time>
<name>3538</name>
<sym>Dot</sym>
</trkpt>
<trkpt lat="39.988792" lon="-8.380405">
<ele>257.5</ele>
<desc>Speed 17.6 km/h Distance 15.60 km</desc>
<time>2011-05-22T08:18:52.35</time>
<name>3539</name>
<sym>Dot</sym>
</trkpt>
<trkpt lat="39.988787" lon="-8.380462">
<ele>257.5</ele>
<desc>Speed 17.5 km/h Distance 15.61 km</desc>
<time>2011-05-22T08:18:53.35</time>
<name>3540</name>
<sym>Dot</sym>
</trkpt>
<trkpt lat="39.988780" lon="-8.380517">
<ele>258.0</ele>
<desc>Speed 17.4 km/h Distance 15.61 km</desc>
<time>2011-05-22T08:18:54.35</time>
<name>3541</name>
<sym>Dot</sym>
</trkpt>
<trkpt lat="39.988775" lon="-8.380572">
<ele>258.5</ele>
<desc>Speed 16.8 km/h Distance 15.62 km</desc>
<time>2011-05-22T08:18:55.35</time>
<name>3542</name>
<sym>Dot</sym>
</trkpt>
<trkpt lat="39.988767" lon="-8.380627">
<ele>258.5</ele>
<desc>Speed 17.0 km/h Distance 15.62 km</desc>
<time>2011-05-22T08:18:56.35</time>
<name>3543</name>
<sym>Dot</sym>
</trkpt>
<trkpt lat="39.988758" lon="-8.380682">
<ele>258.5</ele>
<desc>Speed 17.1 km/h Distance 15.63 km</desc>
<time>2011-05-22T08:18:57.35</time>
<name>3544</name>
<sym>Dot</sym>
</trkpt>
<trkpt lat="39.988753" lon="-8.380733">
<ele>258.5</ele>
<desc>Speed 16.5 km/h Distance 15.63 km</desc>
<time>2011-05-22T08:18:58.35</time>
<name>3545</name>
<sym>Dot</sym>
</trkpt>
<trkpt lat="39.988748" lon="-8.380785">
<ele>258.0</ele>
<desc>Speed 16.2 km/h Distance 15.64 km</desc>
<time>2011-05-22T08:18:59.35</time>
<name>3546</name>
<sym>Dot</sym>
</trkpt>
<trkpt lat="39.988740" lon="-8.380838">
<ele>258.5</ele>
<desc>Speed 16.6 km/h Distance 15.64 km</desc>
<time>2011-05-22T08:19:00.35</time>
<name>3547</name>
<sym>Dot</sym>
</trkpt>
<trkpt lat="39.988732" lon="-8.380892">
<ele>258.5</ele>
<desc>Speed 16.7 km/h Distance 15.65 km</desc>
<time>2011-05-22T08:19:01.35</time>
<name>3548</name>
<sym>Dot</sym>
</trkpt>
<trkpt lat="39.988722" lon="-8.380943">
<ele>258.5</ele>
<desc>Speed 16.8 km/h Distance 15.65 km</desc>
<time>2011-05-22T08:19:02.35</time>
<name>3549</name>
<sym>Dot</sym>
</trkpt>
<trkpt lat="39.988712" lon="-8.380997">
<ele>258.5</ele>
<desc>Speed 17.0 km/h Distance 15.66 km</desc>
<time>2011-05-22T08:19:03.35</time>
<name>3550</name>
<sym>Dot</sym>
</trkpt>
<trkpt lat="39.988703" lon="-8.381050">
<ele>258.5</ele>
<desc>Speed 16.7 km/h Distance 15.66 km</desc>
<time>2011-05-22T08:19:04.35</time>
<name>3551</name>
<sym>Dot</sym>
</trkpt>
<trkpt lat="39.988695" lon="-8.381102">
<ele>258.5</ele>
<desc>Speed 16.1 km/h Distance 15.66 km</desc>
<time>2011-05-22T08:19:05.35</time>
<name>3552</name>
<sym>Dot</sym>
</trkpt>
<trkpt lat="39.988687" lon="-8.381148">
<ele>258.5</ele>
<desc>Speed 15.1 km/h Distance 15.67 km</desc>
<time>2011-05-22T08:19:06.35</time>
<name>3553</name>
<sym>Dot</sym>
</trkpt>
<trkpt lat="39.988677" lon="-8.381192">
<ele>259.0</ele>
<desc>Speed 13.6 km/h Distance 15.67 km</desc>
<time>2011-05-22T08:19:07.35</time>
<name>3554</name>
<sym>Dot</sym>
</trkpt>
<trkpt lat="39.988665" lon="-8.381228">
<ele>259.5</ele>
<desc>Speed 12.5 km/h Distance 15.68 km</desc>
<time>2011-05-22T08:19:08.35</time>
<name>3555</name>
<sym>Dot</sym>
</trkpt>
<trkpt lat="39.988653" lon="-8.381263">
<ele>259.5</ele>
<desc>Speed 11.6 km/h Distance 15.68 km</desc>
<time>2011-05-22T08:19:09.35</time>
<name>3556</name>
<sym>Dot</sym>
</trkpt>
<trkpt lat="39.988645" lon="-8.381293">
<ele>260.0</ele>
<desc>Speed 10.2 km/h Distance 15.68 km</desc>
<time>2011-05-22T08:19:10.35</time>
<name>3557</name>
<sym>Dot</sym>
</trkpt>
<trkpt lat="39.988632" lon="-8.381320">
<ele>260.5</ele>
<desc>Speed 9.3 km/h Distance 15.68 km</desc>
<time>2011-05-22T08:19:11.35</time>
<name>3558</name>
<sym>Dot</sym>
</trkpt>
<trkpt lat="39.988618" lon="-8.381343">
<ele>260.5</ele>
<desc>Speed 9.0 km/h Distance 15.69 km</desc>
<time>2011-05-22T08:19:12.35</time>
<name>3559</name>
<sym>Dot</sym>
</trkpt>
<trkpt lat="39.988605" lon="-8.381365">
<ele>261.0</ele>
<desc>Speed 8.1 km/h Distance 15.69 km</desc>
<time>2011-05-22T08:19:13.35</time>
<name>3560</name>
<sym>Dot</sym>
</trkpt>
<trkpt lat="39.988597" lon="-8.381385">
<ele>261.0</ele>
<desc>Speed 7.1 km/h Distance 15.69 km</desc>
<time>2011-05-22T08:19:14.35</time>
<name>3561</name>
<sym>Dot</sym>
</trkpt>
<trkpt lat="39.988590" lon="-8.381402">
<ele>261.5</ele>
<desc>Speed 5.9 km/h Distance 15.69 km</desc>
<time>2011-05-22T08:19:15.35</time>
<name>3562</name>
<sym>Dot</sym>
</trkpt>
<trkpt lat="39.988585" lon="-8.381417">
<ele>261.5</ele>
<desc>Speed 4.8 km/h Distance 15.69 km</desc>
<time>2011-05-22T08:19:16.35</time>
<name>3563</name>
<sym>Dot</sym>
</trkpt>
<trkpt lat="39.988577" lon="-8.381432">
<ele>261.5</ele>
<desc>Speed 5.5 km/h Distance 15.70 km</desc>
<time>2011-05-22T08:19:17.35</time>
<name>3564</name>
<sym>Dot</sym>
</trkpt>
<trkpt lat="39.988568" lon="-8.381445">
<ele>261.5</ele>
<desc>Speed 5.7 km/h Distance 15.70 km</desc>
<time>2011-05-22T08:19:18.35</time>
<name>3565</name>
<sym>Dot</sym>
</trkpt>
<trkpt lat="39.988560" lon="-8.381462">
<ele>261.5</ele>
<desc>Speed 6.0 km/h Distance 15.70 km</desc>
<time>2011-05-22T08:19:19.35</time>
<name>3566</name>
<sym>Dot</sym>
</trkpt>
<trkpt lat="39.988550" lon="-8.381477">
<ele>261.5</ele>
<desc>Speed 6.2 km/h Distance 15.70 km</desc>
<time>2011-05-22T08:19:20.35</time>
<name>3567</name>
<sym>Dot</sym>
</trkpt>
<trkpt lat="39.988538" lon="-8.381492">
<ele>261.5</ele>
<desc>Speed 6.1 km/h Distance 15.70 km</desc>
<time>2011-05-22T08:19:21.35</time>
<name>3568</name>
<sym>Dot</sym>
</trkpt>
<trkpt lat="39.988527" lon="-8.381507">
<ele>261.5</ele>
<desc>Speed 6.2 km/h Distance 15.70 km</desc>
<time>2011-05-22T08:19:22.35</time>
<name>3569</name>
<sym>Dot</sym>
</trkpt>
<trkpt lat="39.988517" lon="-8.381522">
<ele>261.5</ele>
<desc>Speed 6.1 km/h Distance 15.71 km</desc>
<time>2011-05-22T08:19:23.35</time>
<name>3570</name>
<sym>Dot</sym>
</trkpt>
<trkpt lat="39.988508" lon="-8.381538">
<ele>262.0</ele>
<desc>Speed 6.0 km/h Distance 15.71 km</desc>
<time>2011-05-22T08:19:24.35</time>
<name>3571</name>
<sym>Dot</sym>
</trkpt>
<trkpt lat="39.988500" lon="-8.381555">
<ele>262.0</ele>
<desc>Speed 5.7 km/h Distance 15.71 km</desc>
<time>2011-05-22T08:19:25.35</time>
<name>3572</name>
<sym>Dot</sym>
</trkpt>
<trkpt lat="39.988493" lon="-8.381568">
<ele>262.0</ele>
<desc>Speed 5.0 km/h Distance 15.71 km</desc>
<time>2011-05-22T08:19:26.35</time>
<name>3573</name>
<sym>Dot</sym>
</trkpt>
<trkpt lat="39.988487" lon="-8.381583">
<ele>262.5</ele>
<desc>Speed 5.4 km/h Distance 15.71 km</desc>
<time>2011-05-22T08:19:27.35</time>
<name>3574</name>
<sym>Dot</sym>
</trkpt>
<trkpt lat="39.988478" lon="-8.381600">
<ele>262.5</ele>
<desc>Speed 6.2 km/h Distance 15.71 km</desc>
<time>2011-05-22T08:19:28.35</time>
<name>3575</name>
<sym>Dot</sym>
</trkpt>
<trkpt lat="39.988470" lon="-8.381617">
<ele>262.5</ele>
<desc>Speed 6.0 km/h Distance 15.72 km</desc>
<time>2011-05-22T08:19:29.35</time>
<name>3576</name>
<sym>Dot</sym>
</trkpt>
<trkpt lat="39.988462" lon="-8.381633">
<ele>262.5</ele>
<desc>Speed 6.2 km/h Distance 15.72 km</desc>
<time>2011-05-22T08:19:30.35</time>
<name>3577</name>
<sym>Dot</sym>
</trkpt>
<trkpt lat="39.988450" lon="-8.381650">
<ele>263.0</ele>
<desc>Speed 6.3 km/h Distance 15.72 km</desc>
<time>2011-05-22T08:19:31.35</time>
<name>3578</name>
<sym>Dot</sym>
</trkpt>
<trkpt lat="39.988440" lon="-8.381667">
<ele>263.0</ele>
<desc>Speed 6.1 km/h Distance 15.72 km</desc>
<time>2011-05-22T08:19:32.35</time>
<name>3579</name>
<sym>Dot</sym>
</trkpt>
<trkpt lat="39.988430" lon="-8.381682">
<ele>263.5</ele>
<desc>Speed 6.1 km/h Distance 15.72 km</desc>
<time>2011-05-22T08:19:33.35</time>
<name>3580</name>
<sym>Dot</sym>
</trkpt>
<trkpt lat="39.988418" lon="-8.381698">
<ele>264.0</ele>
<desc>Speed 6.5 km/h Distance 15.72 km</desc>
<time>2011-05-22T08:19:34.35</time>
<name>3581</name>
<sym>Dot</sym>
</trkpt>
<trkpt lat="39.988405" lon="-8.381713">
<ele>264.5</ele>
<desc>Speed 6.6 km/h Distance 15.73 km</desc>
<time>2011-05-22T08:19:35.35</time>
<name>3582</name>
<sym>Dot</sym>
</trkpt>
<trkpt lat="39.988392" lon="-8.381730">
<ele>265.0</ele>
<desc>Speed 6.6 km/h Distance 15.73 km</desc>
<time>2011-05-22T08:19:36.35</time>
<name>3583</name>
<sym>Dot</sym>
</trkpt>
<trkpt lat="39.988382" lon="-8.381747">
<ele>265.0</ele>
<desc>Speed 6.5 km/h Distance 15.73 km</desc>
<time>2011-05-22T08:19:37.35</time>
<name>3584</name>
<sym>Dot</sym>
</trkpt>
<trkpt lat="39.988372" lon="-8.381763">
<ele>266.0</ele>
<desc>Speed 6.0 km/h Distance 15.73 km</desc>
<time>2011-05-22T08:19:38.35</time>
<name>3585</name>
<sym>Dot</sym>
</trkpt>
<trkpt lat="39.988362" lon="-8.381778">
<ele>266.5</ele>
<desc>Speed 6.1 km/h Distance 15.73 km</desc>
<time>2011-05-22T08:19:39.35</time>
<name>3586</name>
<sym>Dot</sym>
</trkpt>
<trkpt lat="39.988348" lon="-8.381797">
<ele>267.0</ele>
<desc>Speed 6.8 km/h Distance 15.74 km</desc>
<time>2011-05-22T08:19:40.36</time>
<name>3587</name>
<sym>Dot</sym>
</trkpt>
<trkpt lat="39.988338" lon="-8.381815">
<ele>267.0</ele>
<desc>Speed 6.8 km/h Distance 15.74 km</desc>
<time>2011-05-22T08:19:41.36</time>
<name>3588</name>
<sym>Dot</sym>
</trkpt>
<trkpt lat="39.988328" lon="-8.381833">
<ele>267.0</ele>
<desc>Speed 6.8 km/h Distance 15.74 km</desc>
<time>2011-05-22T08:19:42.36</time>
<name>3589</name>
<sym>Dot</sym>
</trkpt>
<trkpt lat="39.988315" lon="-8.381852">
<ele>267.5</ele>
<desc>Speed 6.9 km/h Distance 15.74 km</desc>
<time>2011-05-22T08:19:43.36</time>
<name>3590</name>
<sym>Dot</sym>
</trkpt>
<trkpt lat="39.988305" lon="-8.381868">
<ele>267.5</ele>
<desc>Speed 6.7 km/h Distance 15.74 km</desc>
<time>2011-05-22T08:19:44.36</time>
<name>3591</name>
<sym>Dot</sym>
</trkpt>
<trkpt lat="39.988295" lon="-8.381888">
<ele>267.5</ele>
<desc>Speed 6.9 km/h Distance 15.75 km</desc>
<time>2011-05-22T08:19:45.36</time>
<name>3592</name>
<sym>Dot</sym>
</trkpt>
<trkpt lat="39.988285" lon="-8.381908">
<ele>267.5</ele>
<desc>Speed 7.2 km/h Distance 15.75 km</desc>
<time>2011-05-22T08:19:46.36</time>
<name>3593</name>
<sym>Dot</sym>
</trkpt>
<trkpt lat="39.988273" lon="-8.381927">
<ele>267.5</ele>
<desc>Speed 7.0 km/h Distance 15.75 km</desc>
<time>2011-05-22T08:19:47.36</time>
<name>3594</name>
<sym>Dot</sym>
</trkpt>
<trkpt lat="39.988263" lon="-8.381945">
<ele>267.0</ele>
<desc>Speed 6.8 km/h Distance 15.75 km</desc>
<time>2011-05-22T08:19:48.36</time>
<name>3595</name>
<sym>Dot</sym>
</trkpt>
<trkpt lat="39.988255" lon="-8.381963">
<ele>267.0</ele>
<desc>Speed 6.4 km/h Distance 15.75 km</desc>
<time>2011-05-22T08:19:49.36</time>
<name>3596</name>
<sym>Dot</sym>
</trkpt>
<trkpt lat="39.988245" lon="-8.381982">
<ele>267.0</ele>
<desc>Speed 7.0 km/h Distance 15.76 km</desc>
<time>2011-05-22T08:19:50.36</time>
<name>3597</name>
<sym>Dot</sym>
</trkpt>
<trkpt lat="39.988233" lon="-8.382000">
<ele>267.0</ele>
<desc>Speed 6.9 km/h Distance 15.76 km</desc>
<time>2011-05-22T08:19:51.36</time>
<name>3598</name>
<sym>Dot</sym>
</trkpt>
<trkpt lat="39.988223" lon="-8.382017">
<ele>267.0</ele>
<desc>Speed 6.7 km/h Distance 15.76 km</desc>
<time>2011-05-22T08:19:52.36</time>
<name>3599</name>
<sym>Dot</sym>
</trkpt>
<trkpt lat="39.988213" lon="-8.382035">
<ele>267.5</ele>
<desc>Speed 6.4 km/h Distance 15.76 km</desc>
<time>2011-05-22T08:19:53.36</time>
<name>3600</name>
<sym>Dot</sym>
</trkpt>
<trkpt lat="39.988205" lon="-8.382052">
<ele>267.5</ele>
<desc>Speed 6.2 km/h Distance 15.76 km</desc>
<time>2011-05-22T08:19:54.36</time>
<name>3601</name>
<sym>Dot</sym>
</trkpt>
<trkpt lat="39.988197" lon="-8.382072">
<ele>268.0</ele>
<desc>Speed 6.6 km/h Distance 15.76 km</desc>
<time>2011-05-22T08:19:55.36</time>
<name>3602</name>
<sym>Dot</sym>
</trkpt>
<trkpt lat="39.988187" lon="-8.382090">
<ele>268.0</ele>
<desc>Speed 6.7 km/h Distance 15.77 km</desc>
<time>2011-05-22T08:19:56.36</time>
<name>3603</name>
<sym>Dot</sym>
</trkpt>
<trkpt lat="39.988178" lon="-8.382110">
<ele>268.0</ele>
<desc>Speed 7.1 km/h Distance 15.77 km</desc>
<time>2011-05-22T08:19:57.36</time>
<name>3604</name>
<sym>Dot</sym>
</trkpt>
<trkpt lat="39.988168" lon="-8.382130">
<ele>268.0</ele>
<desc>Speed 7.1 km/h Distance 15.77 km</desc>
<time>2011-05-22T08:19:58.36</time>
<name>3605</name>
<sym>Dot</sym>
</trkpt>
<trkpt lat="39.988158" lon="-8.382150">
<ele>268.0</ele>
<desc>Speed 7.2 km/h Distance 15.77 km</desc>
<time>2011-05-22T08:19:59.36</time>
<name>3606</name>
<sym>Dot</sym>
</trkpt>
<trkpt lat="39.988148" lon="-8.382170">
<ele>268.5</ele>
<desc>Speed 7.2 km/h Distance 15.77 km</desc>
<time>2011-05-22T08:20:00.36</time>
<name>3607</name>
<sym>Dot</sym>
</trkpt>
<trkpt lat="39.988140" lon="-8.382192">
<ele>268.5</ele>
<desc>Speed 7.2 km/h Distance 15.78 km</desc>
<time>2011-05-22T08:20:01.36</time>
<name>3608</name>
<sym>Dot</sym>
</trkpt>
<trkpt lat="39.988133" lon="-8.382215">
<ele>268.5</ele>
<desc>Speed 7.4 km/h Distance 15.78 km</desc>
<time>2011-05-22T08:20:02.36</time>
<name>3609</name>
<sym>Dot</sym>
</trkpt>
<trkpt lat="39.988125" lon="-8.382238">
<ele>268.5</ele>
<desc>Speed 7.4 km/h Distance 15.78 km</desc>
<time>2011-05-22T08:20:03.36</time>
<name>3610</name>
<sym>Dot</sym>
</trkpt>
<trkpt lat="39.988117" lon="-8.382262">
<ele>269.0</ele>
<desc>Speed 7.7 km/h Distance 15.78 km</desc>
<time>2011-05-22T08:20:04.36</time>
<name>3611</name>
<sym>Dot</sym>
</trkpt>
<trkpt lat="39.988108" lon="-8.382283">
<ele>269.0</ele>
<desc>Speed 7.3 km/h Distance 15.79 km</desc>
<time>2011-05-22T08:20:05.36</time>
<name>3612</name>
<sym>Dot</sym>
</trkpt>
<trkpt lat="39.988103" lon="-8.382307">
<ele>269.0</ele>
<desc>Speed 6.9 km/h Distance 15.79 km</desc>
<time>2011-05-22T08:20:06.36</time>
<name>3613</name>
<sym>Dot</sym>
</trkpt>
<trkpt lat="39.988098" lon="-8.382327">
<ele>269.0</ele>
<desc>Speed 6.6 km/h Distance 15.79 km</desc>
<time>2011-05-22T08:20:07.36</time>
<name>3614</name>
<sym>Dot</sym>
</trkpt>
<trkpt lat="39.988092" lon="-8.382348">
<ele>269.5</ele>
<desc>Speed 6.8 km/h Distance 15.79 km</desc>
<time>2011-05-22T08:20:08.36</time>
<name>3615</name>
<sym>Dot</sym>
</trkpt>
<trkpt lat="39.988085" lon="-8.382370">
<ele>269.5</ele>
<desc>Speed 7.1 km/h Distance 15.79 km</desc>
<time>2011-05-22T08:20:09.36</time>
<name>3616</name>
<sym>Dot</sym>
</trkpt>
<trkpt lat="39.988080" lon="-8.382393">
<ele>270.0</ele>
<desc>Speed 7.3 km/h Distance 15.80 km</desc>
<time>2011-05-22T08:20:10.36</time>
<name>3617</name>
<sym>Dot</sym>
</trkpt>
<trkpt lat="39.988075" lon="-8.382417">
<ele>270.0</ele>
<desc>Speed 6.8 km/h Distance 15.80 km</desc>
<time>2011-05-22T08:20:11.36</time>
<name>3618</name>
<sym>Dot</sym>
</trkpt>
<trkpt lat="39.988070" lon="-8.382438">
<ele>270.0</ele>
<desc>Speed 7.0 km/h Distance 15.80 km</desc>
<time>2011-05-22T08:20:12.36</time>
<name>3619</name>
<sym>Dot</sym>
</trkpt>
<trkpt lat="39.988067" lon="-8.382462">
<ele>270.5</ele>
<desc>Speed 6.8 km/h Distance 15.80 km</desc>
<time>2011-05-22T08:20:13.36</time>
<name>3620</name>
<sym>Dot</sym>
</trkpt>
<trkpt lat="39.988063" lon="-8.382482">
<ele>271.0</ele>
<desc>Speed 6.6 km/h Distance 15.80 km</desc>
<time>2011-05-22T08:20:14.36</time>
<name>3621</name>
<sym>Dot</sym>
</trkpt>
<trkpt lat="39.988062" lon="-8.382503">
<ele>271.0</ele>
<desc>Speed 6.4 km/h Distance 15.81 km</desc>
<time>2011-05-22T08:20:15.36</time>
<name>3622</name>
<sym>Dot</sym>
</trkpt>
<trkpt lat="39.988062" lon="-8.382525">
<ele>271.5</ele>
<desc>Speed 6.7 km/h Distance 15.81 km</desc>
<time>2011-05-22T08:20:16.36</time>
<name>3623</name>
<sym>Dot</sym>
</trkpt>
<trkpt lat="39.988060" lon="-8.382547">
<ele>271.5</ele>
<desc>Speed 6.2 km/h Distance 15.81 km</desc>
<time>2011-05-22T08:20:17.36</time>
<name>3624</name>
<sym>Dot</sym>
</trkpt>
<trkpt lat="39.988060" lon="-8.382565">
<ele>271.5</ele>
<desc>Speed 5.9 km/h Distance 15.81 km</desc>
<time>2011-05-22T08:20:18.36</time>
<name>3625</name>
<sym>Dot</sym>
</trkpt>
<trkpt lat="39.988058" lon="-8.382588">
<ele>272.0</ele>
<desc>Speed 6.8 km/h Distance 15.81 km</desc>
<time>2011-05-22T08:20:19.36</time>
<name>3626</name>
<sym>Dot</sym>
</trkpt>
<trkpt lat="39.988055" lon="-8.382610">
<ele>272.0</ele>
<desc>Speed 6.8 km/h Distance 15.81 km</desc>
<time>2011-05-22T08:20:20.36</time>
<name>3627</name>
<sym>Dot</sym>
</trkpt>
<trkpt lat="39.988055" lon="-8.382632">
<ele>271.5</ele>
<desc>Speed 6.3 km/h Distance 15.82 km</desc>
<time>2011-05-22T08:20:21.36</time>
<name>3628</name>
<sym>Dot</sym>
</trkpt>
<trkpt lat="39.988053" lon="-8.382653">
<ele>272.0</ele>
<desc>Speed 6.9 km/h Distance 15.82 km</desc>
<time>2011-05-22T08:20:22.36</time>
<name>3629</name>
<sym>Dot</sym>
</trkpt>
<trkpt lat="39.988052" lon="-8.382675">
<ele>272.0</ele>
<desc>Speed 6.7 km/h Distance 15.82 km</desc>
<time>2011-05-22T08:20:23.36</time>
<name>3630</name>
<sym>Dot</sym>
</trkpt>
<trkpt lat="39.988050" lon="-8.382697">
<ele>272.5</ele>
<desc>Speed 6.3 km/h Distance 15.82 km</desc>
<time>2011-05-22T08:20:24.36</time>
<name>3631</name>
<sym>Dot</sym>
</trkpt>
<trkpt lat="39.988047" lon="-8.382720">
<ele>272.5</ele>
<desc>Speed 7.3 km/h Distance 15.82 km</desc>
<time>2011-05-22T08:20:25.36</time>
<name>3632</name>
<sym>Dot</sym>
</trkpt>
<trkpt lat="39.988043" lon="-8.382743">
<ele>272.0</ele>
<desc>Speed 7.0 km/h Distance 15.83 km</desc>
<time>2011-05-22T08:20:26.36</time>
<name>3633</name>
<sym>Dot</sym>
</trkpt>
<trkpt lat="39.988042" lon="-8.382767">
<ele>272.5</ele>
<desc>Speed 7.2 km/h Distance 15.83 km</desc>
<time>2011-05-22T08:20:27.36</time>
<name>3634</name>
<sym>Dot</sym>
</trkpt>
<trkpt lat="39.988035" lon="-8.382792">
<ele>272.5</ele>
<desc>Speed 7.9 km/h Distance 15.83 km</desc>
<time>2011-05-22T08:20:28.36</time>
<name>3635</name>
<sym>Dot</sym>
</trkpt>
<trkpt lat="39.988033" lon="-8.382817">
<ele>273.0</ele>
<desc>Speed 7.2 km/h Distance 15.83 km</desc>
<time>2011-05-22T08:20:29.36</time>
<name>3636</name>
<sym>Dot</sym>
</trkpt>
<trkpt lat="39.988030" lon="-8.382842">
<ele>273.0</ele>
<desc>Speed 7.5 km/h Distance 15.83 km</desc>
<time>2011-05-22T08:20:30.36</time>
<name>3637</name>
<sym>Dot</sym>
</trkpt>
<trkpt lat="39.988030" lon="-8.382865">
<ele>273.5</ele>
<desc>Speed 7.0 km/h Distance 15.84 km</desc>
<time>2011-05-22T08:20:31.36</time>
<name>3638</name>
<sym>Dot</sym>
</trkpt>
<trkpt lat="39.988027" lon="-8.382890">
<ele>274.0</ele>
<desc>Speed 7.4 km/h Distance 15.84 km</desc>
<time>2011-05-22T08:20:32.36</time>
<name>3639</name>
<sym>Dot</sym>
</trkpt>
<trkpt lat="39.988025" lon="-8.382915">
<ele>274.0</ele>
<desc>Speed 7.4 km/h Distance 15.84 km</desc>
<time>2011-05-22T08:20:33.36</time>
<name>3640</name>
<sym>Dot</sym>
</trkpt>
<trkpt lat="39.988023" lon="-8.382938">
<ele>274.5</ele>
<desc>Speed 6.9 km/h Distance 15.84 km</desc>
<time>2011-05-22T08:20:34.36</time>
<name>3641</name>
<sym>Dot</sym>
</trkpt>
<trkpt lat="39.988022" lon="-8.382963">
<ele>274.5</ele>
<desc>Speed 7.3 km/h Distance 15.84 km</desc>
<time>2011-05-22T08:20:35.36</time>
<name>3642</name>
<sym>Dot</sym>
</trkpt>
<trkpt lat="39.988018" lon="-8.382988">
<ele>274.5</ele>
<desc>Speed 7.7 km/h Distance 15.85 km</desc>
<time>2011-05-22T08:20:36.36</time>
<name>3643</name>
<sym>Dot</sym>
</trkpt>
<trkpt lat="39.988017" lon="-8.383013">
<ele>274.5</ele>
<desc>Speed 7.2 km/h Distance 15.85 km</desc>
<time>2011-05-22T08:20:37.36</time>
<name>3644</name>
<sym>Dot</sym>
</trkpt>
<trkpt lat="39.988013" lon="-8.383038">
<ele>275.0</ele>
<desc>Speed 7.5 km/h Distance 15.85 km</desc>
<time>2011-05-22T08:20:38.36</time>
<name>3645</name>
<sym>Dot</sym>
</trkpt>
<trkpt lat="39.988010" lon="-8.383063">
<ele>275.0</ele>
<desc>Speed 7.6 km/h Distance 15.85 km</desc>
<time>2011-05-22T08:20:39.36</time>
<name>3646</name>
<sym>Dot</sym>
</trkpt>
<trkpt lat="39.988005" lon="-8.383088">
<ele>275.0</ele>
<desc>Speed 7.6 km/h Distance 15.86 km</desc>
<time>2011-05-22T08:20:40.36</time>
<name>3647</name>
<sym>Dot</sym>
</trkpt>
<trkpt lat="39.988000" lon="-8.383112">
<ele>275.0</ele>
<desc>Speed 7.5 km/h Distance 15.86 km</desc>
<time>2011-05-22T08:20:41.36</time>
<name>3648</name>
<sym>Dot</sym>
</trkpt>
<trkpt lat="39.987995" lon="-8.383135">
<ele>275.0</ele>
<desc>Speed 7.3 km/h Distance 15.86 km</desc>
<time>2011-05-22T08:20:42.36</time>
<name>3649</name>
<sym>Dot</sym>
</trkpt>
<trkpt lat="39.987990" lon="-8.383162">
<ele>275.0</ele>
<desc>Speed 7.8 km/h Distance 15.86 km</desc>
<time>2011-05-22T08:20:43.36</time>
<name>3650</name>
<sym>Dot</sym>
</trkpt>
<trkpt lat="39.987985" lon="-8.383185">
<ele>275.0</ele>
<desc>Speed 7.6 km/h Distance 15.86 km</desc>
<time>2011-05-22T08:20:44.36</time>
<name>3651</name>
<sym>Dot</sym>
</trkpt>
<trkpt lat="39.987980" lon="-8.383212">
<ele>274.5</ele>
<desc>Speed 7.7 km/h Distance 15.87 km</desc>
<time>2011-05-22T08:20:45.36</time>
<name>3652</name>
<sym>Dot</sym>
</trkpt>
<trkpt lat="39.987975" lon="-8.383237">
<ele>274.5</ele>
<desc>Speed 7.8 km/h Distance 15.87 km</desc>
<time>2011-05-22T08:20:46.36</time>
<name>3653</name>
<sym>Dot</sym>
</trkpt>
<trkpt lat="39.987970" lon="-8.383262">
<ele>274.5</ele>
<desc>Speed 7.9 km/h Distance 15.87 km</desc>
<time>2011-05-22T08:20:47.36</time>
<name>3654</name>
<sym>Dot</sym>
</trkpt>
<trkpt lat="39.987962" lon="-8.383287">
<ele>274.5</ele>
<desc>Speed 8.0 km/h Distance 15.87 km</desc>
<time>2011-05-22T08:20:48.36</time>
<name>3655</name>
<sym>Dot</sym>
</trkpt>
<trkpt lat="39.987955" lon="-8.383313">
<ele>275.0</ele>
<desc>Speed 7.7 km/h Distance 15.88 km</desc>
<time>2011-05-22T08:20:49.36</time>
<name>3656</name>
<sym>Dot</sym>
</trkpt>
<trkpt lat="39.987948" lon="-8.383340">
<ele>275.0</ele>
<desc>Speed 6.9 km/h Distance 15.88 km</desc>
<time>2011-05-22T08:20:50.36</time>
<name>3657</name>
<sym>Dot</sym>
</trkpt>
<trkpt lat="39.987942" lon="-8.383367">
<ele>275.5</ele>
<desc>Speed 7.2 km/h Distance 15.88 km</desc>
<time>2011-05-22T08:20:51.36</time>
<name>3658</name>
<sym>Dot</sym>
</trkpt>
<trkpt lat="39.987935" lon="-8.383388">
<ele>275.5</ele>
<desc>Speed 7.1 km/h Distance 15.88 km</desc>
<time>2011-05-22T08:20:52.36</time>
<name>3659</name>
<sym>Dot</sym>
</trkpt>
<trkpt lat="39.987927" lon="-8.383413">
<ele>275.5</ele>
<desc>Speed 7.8 km/h Distance 15.88 km</desc>
<time>2011-05-22T08:20:53.36</time>
<name>3660</name>
<sym>Dot</sym>
</trkpt>
<trkpt lat="39.987917" lon="-8.383438">
<ele>276.0</ele>
<desc>Speed 7.6 km/h Distance 15.89 km</desc>
<time>2011-05-22T08:20:54.36</time>
<name>3661</name>
<sym>Dot</sym>
</trkpt>
<trkpt lat="39.987908" lon="-8.383467">
<ele>276.0</ele>
<desc>Speed 7.7 km/h Distance 15.89 km</desc>
<time>2011-05-22T08:20:55.36</time>
<name>3662</name>
<sym>Dot</sym>
</trkpt>
<trkpt lat="39.987900" lon="-8.383493">
<ele>276.0</ele>
<desc>Speed 7.8 km/h Distance 15.89 km</desc>
<time>2011-05-22T08:20:56.36</time>
<name>3663</name>
<sym>Dot</sym>
</trkpt>
<trkpt lat="39.987893" lon="-8.383522">
<ele>276.5</ele>
<desc>Speed 7.2 km/h Distance 15.89 km</desc>
<time>2011-05-22T08:20:57.36</time>
<name>3664</name>
<sym>Dot</sym>
</trkpt>
<trkpt lat="39.987885" lon="-8.383547">
<ele>276.5</ele>
<desc>Speed 7.1 km/h Distance 15.90 km</desc>
<time>2011-05-22T08:20:58.36</time>
<name>3665</name>
<sym>Dot</sym>
</trkpt>
<trkpt lat="39.987873" lon="-8.383572">
<ele>277.0</ele>
<desc>Speed 7.3 km/h Distance 15.90 km</desc>
<time>2011-05-22T08:20:59.36</time>
<name>3666</name>
<sym>Dot</sym>
</trkpt>
<trkpt lat="39.987858" lon="-8.383597">
<ele>277.5</ele>
<desc>Speed 8.0 km/h Distance 15.90 km</desc>
<time>2011-05-22T08:21:00.36</time>
<name>3667</name>
<sym>Dot</sym>
</trkpt>
<trkpt lat="39.987845" lon="-8.383620">
<ele>277.5</ele>
<desc>Speed 7.8 km/h Distance 15.90 km</desc>
<time>2011-05-22T08:21:01.36</time>
<name>3668</name>
<sym>Dot</sym>
</trkpt>
<trkpt lat="39.987833" lon="-8.383645">
<ele>278.0</ele>
<desc>Speed 7.3 km/h Distance 15.91 km</desc>
<time>2011-05-22T08:21:02.36</time>
<name>3669</name>
<sym>Dot</sym>
</trkpt>
<trkpt lat="39.987820" lon="-8.383668">
<ele>278.0</ele>
<desc>Speed 7.5 km/h Distance 15.91 km</desc>
<time>2011-05-22T08:21:03.36</time>
<name>3670</name>
<sym>Dot</sym>
</trkpt>
<trkpt lat="39.987807" lon="-8.383690">
<ele>278.0</ele>
<desc>Speed 7.3 km/h Distance 15.91 km</desc>
<time>2011-05-22T08:21:04.36</time>
<name>3671</name>
<sym>Dot</sym>
</trkpt>
<trkpt lat="39.987793" lon="-8.383712">
<ele>278.5</ele>
<desc>Speed 7.3 km/h Distance 15.91 km</desc>
<time>2011-05-22T08:21:05.36</time>
<name>3672</name>
<sym>Dot</sym>
</trkpt>
<trkpt lat="39.987778" lon="-8.383732">
<ele>278.5</ele>
<desc>Speed 7.6 km/h Distance 15.92 km</desc>
<time>2011-05-22T08:21:06.36</time>
<name>3673</name>
<sym>Dot</sym>
</trkpt>
<trkpt lat="39.987762" lon="-8.383750">
<ele>278.5</ele>
<desc>Speed 7.7 km/h Distance 15.92 km</desc>
<time>2011-05-22T08:21:07.36</time>
<name>3674</name>
<sym>Dot</sym>
</trkpt>
<trkpt lat="39.987745" lon="-8.383768">
<ele>279.0</ele>
<desc>Speed 7.6 km/h Distance 15.92 km</desc>
<time>2011-05-22T08:21:08.36</time>
<name>3675</name>
<sym>Dot</sym>
</trkpt>
<trkpt lat="39.987728" lon="-8.383785">
<ele>279.0</ele>
<desc>Speed 7.3 km/h Distance 15.92 km</desc>
<time>2011-05-22T08:21:09.36</time>
<name>3676</name>
<sym>Dot</sym>
</trkpt>
<trkpt lat="39.987713" lon="-8.383805">
<ele>279.5</ele>
<desc>Speed 7.0 km/h Distance 15.93 km</desc>
<time>2011-05-22T08:21:10.36</time>
<name>3677</name>
<sym>Dot</sym>
</trkpt>
<trkpt lat="39.987698" lon="-8.383823">
<ele>279.5</ele>
<desc>Speed 7.3 km/h Distance 15.93 km</desc>
<time>2011-05-22T08:21:11.36</time>
<name>3678</name>
<sym>Dot</sym>
</trkpt>
<trkpt lat="39.987683" lon="-8.383840">
<ele>279.5</ele>
<desc>Speed 7.5 km/h Distance 15.93 km</desc>
<time>2011-05-22T08:21:12.36</time>
<name>3679</name>
<sym>Dot</sym>
</trkpt>
<trkpt lat="39.987663" lon="-8.383855">
<ele>280.0</ele>
<desc>Speed 7.6 km/h Distance 15.93 km</desc>
<time>2011-05-22T08:21:13.36</time>
<name>3680</name>
<sym>Dot</sym>
</trkpt>
<trkpt lat="39.987647" lon="-8.383868">
<ele>280.0</ele>
<desc>Speed 7.5 km/h Distance 15.94 km</desc>
<time>2011-05-22T08:21:14.36</time>
<name>3681</name>
<sym>Dot</sym>
</trkpt>
<trkpt lat="39.987628" lon="-8.383883">
<ele>280.0</ele>
<desc>Speed 7.3 km/h Distance 15.94 km</desc>
<time>2011-05-22T08:21:15.36</time>
<name>3682</name>
<sym>Dot</sym>
</trkpt>
<trkpt lat="39.987612" lon="-8.383898">
<ele>280.0</ele>
<desc>Speed 7.1 km/h Distance 15.94 km</desc>
<time>2011-05-22T08:21:16.36</time>
<name>3683</name>
<sym>Dot</sym>
</trkpt>
<trkpt lat="39.987595" lon="-8.383908">
<ele>281.0</ele>
<desc>Speed 6.6 km/h Distance 15.94 km</desc>
<time>2011-05-22T08:21:17.36</time>
<name>3684</name>
<sym>Dot</sym>
</trkpt>
<trkpt lat="39.987578" lon="-8.383918">
<ele>281.5</ele>
<desc>Speed 6.8 km/h Distance 15.94 km</desc>
<time>2011-05-22T08:21:18.36</time>
<name>3685</name>
<sym>Dot</sym>
</trkpt>
<trkpt lat="39.987563" lon="-8.383930">
<ele>282.0</ele>
<desc>Speed 6.4 km/h Distance 15.95 km</desc>
<time>2011-05-22T08:21:19.36</time>
<name>3686</name>
<sym>Dot</sym>
</trkpt>
<trkpt lat="39.987547" lon="-8.383938">
<ele>282.5</ele>
<desc>Speed 6.9 km/h Distance 15.95 km</desc>
<time>2011-05-22T08:21:20.36</time>
<name>3687</name>
<sym>Dot</sym>
</trkpt>
<trkpt lat="39.987532" lon="-8.383952">
<ele>282.5</ele>
<desc>Speed 6.6 km/h Distance 15.95 km</desc>
<time>2011-05-22T08:21:21.36</time>
<name>3688</name>
<sym>Dot</sym>
</trkpt>
<trkpt lat="39.987517" lon="-8.383963">
<ele>282.5</ele>
<desc>Speed 6.6 km/h Distance 15.95 km</desc>
<time>2011-05-22T08:21:22.36</time>
<name>3689</name>
<sym>Dot</sym>
</trkpt>
<trkpt lat="39.987500" lon="-8.383975">
<ele>283.0</ele>
<desc>Speed 7.2 km/h Distance 15.95 km</desc>
<time>2011-05-22T08:21:23.36</time>
<name>3690</name>
<sym>Dot</sym>
</trkpt>
<trkpt lat="39.987483" lon="-8.383990">
<ele>283.0</ele>
<desc>Speed 7.2 km/h Distance 15.96 km</desc>
<time>2011-05-22T08:21:24.36</time>
<name>3691</name>
<sym>Dot</sym>
</trkpt>
<trkpt lat="39.987463" lon="-8.384005">
<ele>283.0</ele>
<desc>Speed 7.5 km/h Distance 15.96 km</desc>
<time>2011-05-22T08:21:25.36</time>
<name>3692</name>
<sym>Dot</sym>
</trkpt>
<trkpt lat="39.987445" lon="-8.384020">
<ele>282.5</ele>
<desc>Speed 7.5 km/h Distance 15.96 km</desc>
<time>2011-05-22T08:21:26.36</time>
<name>3693</name>
<sym>Dot</sym>
</trkpt>
<trkpt lat="39.987425" lon="-8.384035">
<ele>282.5</ele>
<desc>Speed 7.5 km/h Distance 15.96 km</desc>
<time>2011-05-22T08:21:27.36</time>
<name>3694</name>
<sym>Dot</sym>
</trkpt>
<trkpt lat="39.987408" lon="-8.384048">
<ele>283.0</ele>
<desc>Speed 7.3 km/h Distance 15.97 km</desc>
<time>2011-05-22T08:21:28.36</time>
<name>3695</name>
<sym>Dot</sym>
</trkpt>
<trkpt lat="39.987390" lon="-8.384062">
<ele>283.0</ele>
<desc>Speed 7.3 km/h Distance 15.97 km</desc>
<time>2011-05-22T08:21:29.36</time>
<name>3696</name>
<sym>Dot</sym>
</trkpt>
<trkpt lat="39.987372" lon="-8.384077">
<ele>283.0</ele>
<desc>Speed 7.5 km/h Distance 15.97 km</desc>
<time>2011-05-22T08:21:30.36</time>
<name>3697</name>
<sym>Dot</sym>
</trkpt>
<trkpt lat="39.987353" lon="-8.384092">
<ele>283.5</ele>
<desc>Speed 7.3 km/h Distance 15.97 km</desc>
<time>2011-05-22T08:21:31.36</time>
<name>3698</name>
<sym>Dot</sym>
</trkpt>
<trkpt lat="39.987335" lon="-8.384103">
<ele>283.5</ele>
<desc>Speed 7.3 km/h Distance 15.98 km</desc>
<time>2011-05-22T08:21:32.36</time>
<name>3699</name>
<sym>Dot</sym>
</trkpt>
<trkpt lat="39.987318" lon="-8.384117">
<ele>283.5</ele>
<desc>Speed 7.0 km/h Distance 15.98 km</desc>
<time>2011-05-22T08:21:33.36</time>
<name>3700</name>
<sym>Dot</sym>
</trkpt>
<trkpt lat="39.987303" lon="-8.384133">
<ele>283.5</ele>
<desc>Speed 7.2 km/h Distance 15.98 km</desc>
<time>2011-05-22T08:21:34.36</time>
<name>3701</name>
<sym>Dot</sym>
</trkpt>
<trkpt lat="39.987287" lon="-8.384148">
<ele>283.5</ele>
<desc>Speed 7.1 km/h Distance 15.98 km</desc>
<time>2011-05-22T08:21:35.36</time>
<name>3702</name>
<sym>Dot</sym>
</trkpt>
<trkpt lat="39.987272" lon="-8.384163">
<ele>283.5</ele>
<desc>Speed 7.0 km/h Distance 15.98 km</desc>
<time>2011-05-22T08:21:36.36</time>
<name>3703</name>
<sym>Dot</sym>
</trkpt>
<trkpt lat="39.987255" lon="-8.384177">
<ele>283.5</ele>
<desc>Speed 7.3 km/h Distance 15.99 km</desc>
<time>2011-05-22T08:21:37.36</time>
<name>3704</name>
<sym>Dot</sym>
</trkpt>
<trkpt lat="39.987237" lon="-8.384188">
<ele>283.5</ele>
<desc>Speed 7.4 km/h Distance 15.99 km</desc>
<time>2011-05-22T08:21:38.36</time>
<name>3705</name>
<sym>Dot</sym>
</trkpt>
<trkpt lat="39.987222" lon="-8.384200">
<ele>283.5</ele>
<desc>Speed 7.2 km/h Distance 15.99 km</desc>
<time>2011-05-22T08:21:39.36</time>
<name>3706</name>
<sym>Dot</sym>
</trkpt>
<trkpt lat="39.987207" lon="-8.384215">
<ele>283.0</ele>
<desc>Speed 6.7 km/h Distance 15.99 km</desc>
<time>2011-05-22T08:21:40.36</time>
<name>3707</name>
<sym>Dot</sym>
</trkpt>
<trkpt lat="39.987188" lon="-8.384228">
<ele>283.0</ele>
<desc>Speed 7.0 km/h Distance 16.00 km</desc>
<time>2011-05-22T08:21:41.36</time>
<name>3708</name>
<sym>Dot</sym>
</trkpt>
<trkpt lat="39.987170" lon="-8.384237">
<ele>283.0</ele>
<desc>Speed 7.4 km/h Distance 16.00 km</desc>
<time>2011-05-22T08:21:42.36</time>
<name>3709</name>
<sym>Dot</sym>
</trkpt>
<trkpt lat="39.987153" lon="-8.384250">
<ele>283.0</ele>
<desc>Speed 7.0 km/h Distance 16.00 km</desc>
<time>2011-05-22T08:21:43.36</time>
<name>3710</name>
<sym>Dot</sym>
</trkpt>
<trkpt lat="39.987138" lon="-8.384263">
<ele>283.0</ele>
<desc>Speed 7.1 km/h Distance 16.00 km</desc>
<time>2011-05-22T08:21:44.36</time>
<name>3711</name>
<sym>Dot</sym>
</trkpt>
<trkpt lat="39.987123" lon="-8.384277">
<ele>283.5</ele>
<desc>Speed 6.4 km/h Distance 16.00 km</desc>
<time>2011-05-22T08:21:45.36</time>
<name>3712</name>
<sym>Dot</sym>
</trkpt>
<trkpt lat="39.987110" lon="-8.384292">
<ele>283.0</ele>
<desc>Speed 5.8 km/h Distance 16.01 km</desc>
<time>2011-05-22T08:21:46.36</time>
<name>3713</name>
<sym>Dot</sym>
</trkpt>
<trkpt lat="39.987097" lon="-8.384308">
<ele>283.5</ele>
<desc>Speed 6.4 km/h Distance 16.01 km</desc>
<time>2011-05-22T08:21:47.36</time>
<name>3714</name>
<sym>Dot</sym>
</trkpt>
<trkpt lat="39.987082" lon="-8.384320">
<ele>283.5</ele>
<desc>Speed 7.2 km/h Distance 16.01 km</desc>
<time>2011-05-22T08:21:48.36</time>
<name>3715</name>
<sym>Dot</sym>
</trkpt>
<trkpt lat="39.987065" lon="-8.384333">
<ele>284.0</ele>
<desc>Speed 7.2 km/h Distance 16.01 km</desc>
<time>2011-05-22T08:21:49.36</time>
<name>3716</name>
<sym>Dot</sym>
</trkpt>
<trkpt lat="39.987052" lon="-8.384345">
<ele>284.0</ele>
<desc>Speed 6.1 km/h Distance 16.01 km</desc>
<time>2011-05-22T08:21:50.36</time>
<name>3717</name>
<sym>Dot</sym>
</trkpt>
<trkpt lat="39.987035" lon="-8.384358">
<ele>284.5</ele>
<desc>Speed 6.7 km/h Distance 16.02 km</desc>
<time>2011-05-22T08:21:51.36</time>
<name>3718</name>
<sym>Dot</sym>
</trkpt>
<trkpt lat="39.987020" lon="-8.384370">
<ele>284.5</ele>
<desc>Speed 6.8 km/h Distance 16.02 km</desc>
<time>2011-05-22T08:21:52.36</time>
<name>3719</name>
<sym>Dot</sym>
</trkpt>
<trkpt lat="39.987005" lon="-8.384383">
<ele>285.0</ele>
<desc>Speed 6.8 km/h Distance 16.02 km</desc>
<time>2011-05-22T08:21:53.36</time>
<name>3720</name>
<sym>Dot</sym>
</trkpt>
<trkpt lat="39.986990" lon="-8.384397">
<ele>285.0</ele>
<desc>Speed 7.1 km/h Distance 16.02 km</desc>
<time>2011-05-22T08:21:54.36</time>
<name>3721</name>
<sym>Dot</sym>
</trkpt>
<trkpt lat="39.986972" lon="-8.384407">
<ele>285.5</ele>
<desc>Speed 7.2 km/h Distance 16.02 km</desc>
<time>2011-05-22T08:21:55.36</time>
<name>3722</name>
<sym>Dot</sym>
</trkpt>
<trkpt lat="39.986953" lon="-8.384412">
<ele>286.0</ele>
<desc>Speed 7.1 km/h Distance 16.03 km</desc>
<time>2011-05-22T08:21:56.36</time>
<name>3723</name>
<sym>Dot</sym>
</trkpt>
<trkpt lat="39.986937" lon="-8.384420">
<ele>286.0</ele>
<desc>Speed 7.1 km/h Distance 16.03 km</desc>
<time>2011-05-22T08:21:57.36</time>
<name>3724</name>
<sym>Dot</sym>
</trkpt>
<trkpt lat="39.986920" lon="-8.384432">
<ele>286.5</ele>
<desc>Speed 6.9 km/h Distance 16.03 km</desc>
<time>2011-05-22T08:21:58.36</time>
<name>3725</name>
<sym>Dot</sym>
</trkpt>
<trkpt lat="39.986903" lon="-8.384445">
<ele>286.5</ele>
<desc>Speed 7.4 km/h Distance 16.03 km</desc>
<time>2011-05-22T08:21:59.36</time>
<name>3726</name>
<sym>Dot</sym>
</trkpt>
<trkpt lat="39.986887" lon="-8.384458">
<ele>287.0</ele>
<desc>Speed 7.3 km/h Distance 16.03 km</desc>
<time>2011-05-22T08:22:00.36</time>
<name>3727</name>
<sym>Dot</sym>
</trkpt>
<trkpt lat="39.986872" lon="-8.384473">
<ele>287.0</ele>
<desc>Speed 7.4 km/h Distance 16.04 km</desc>
<time>2011-05-22T08:22:01.36</time>
<name>3728</name>
<sym>Dot</sym>
</trkpt>
<trkpt lat="39.986855" lon="-8.384488">
<ele>287.5</ele>
<desc>Speed 7.4 km/h Distance 16.04 km</desc>
<time>2011-05-22T08:22:02.36</time>
<name>3729</name>
<sym>Dot</sym>
</trkpt>
<trkpt lat="39.986840" lon="-8.384505">
<ele>288.0</ele>
<desc>Speed 7.3 km/h Distance 16.04 km</desc>
<time>2011-05-22T08:22:03.36</time>
<name>3730</name>
<sym>Dot</sym>
</trkpt>
<trkpt lat="39.986823" lon="-8.384522">
<ele>288.5</ele>
<desc>Speed 8.1 km/h Distance 16.04 km</desc>
<time>2011-05-22T08:22:04.36</time>
<name>3731</name>
<sym>Dot</sym>
</trkpt>
<trkpt lat="39.986807" lon="-8.384537">
<ele>288.5</ele>
<desc>Speed 8.2 km/h Distance 16.05 km</desc>
<time>2011-05-22T08:22:05.36</time>
<name>3732</name>
<sym>Dot</sym>
</trkpt>
<trkpt lat="39.986790" lon="-8.384557">
<ele>288.5</ele>
<desc>Speed 8.3 km/h Distance 16.05 km</desc>
<time>2011-05-22T08:22:06.36</time>
<name>3733</name>
<sym>Dot</sym>
</trkpt>
<trkpt lat="39.986772" lon="-8.384575">
<ele>289.0</ele>
<desc>Speed 8.5 km/h Distance 16.05 km</desc>
<time>2011-05-22T08:22:07.36</time>
<name>3734</name>
<sym>Dot</sym>
</trkpt>
<trkpt lat="39.986753" lon="-8.384592">
<ele>289.0</ele>
<desc>Speed 8.0 km/h Distance 16.05 km</desc>
<time>2011-05-22T08:22:08.36</time>
<name>3735</name>
<sym>Dot</sym>
</trkpt>
<trkpt lat="39.986737" lon="-8.384608">
<ele>289.0</ele>
<desc>Speed 7.7 km/h Distance 16.06 km</desc>
<time>2011-05-22T08:22:09.36</time>
<name>3736</name>
<sym>Dot</sym>
</trkpt>
<trkpt lat="39.986722" lon="-8.384625">
<ele>289.0</ele>
<desc>Speed 7.3 km/h Distance 16.06 km</desc>
<time>2011-05-22T08:22:10.36</time>
<name>3737</name>
<sym>Dot</sym>
</trkpt>
<trkpt lat="39.986708" lon="-8.384642">
<ele>289.0</ele>
<desc>Speed 7.4 km/h Distance 16.06 km</desc>
<time>2011-05-22T08:22:11.36</time>
<name>3738</name>
<sym>Dot</sym>
</trkpt>
<trkpt lat="39.986693" lon="-8.384658">
<ele>289.5</ele>
<desc>Speed 7.2 km/h Distance 16.06 km</desc>
<time>2011-05-22T08:22:12.36</time>
<name>3739</name>
<sym>Dot</sym>
</trkpt>
<trkpt lat="39.986680" lon="-8.384675">
<ele>289.5</ele>
<desc>Speed 7.6 km/h Distance 16.06 km</desc>
<time>2011-05-22T08:22:13.36</time>
<name>3740</name>
<sym>Dot</sym>
</trkpt>
<trkpt lat="39.986665" lon="-8.384692">
<ele>289.5</ele>
<desc>Speed 7.2 km/h Distance 16.07 km</desc>
<time>2011-05-22T08:22:14.36</time>
<name>3741</name>
<sym>Dot</sym>
</trkpt>
<trkpt lat="39.986652" lon="-8.384707">
<ele>289.5</ele>
<desc>Speed 7.0 km/h Distance 16.07 km</desc>
<time>2011-05-22T08:22:15.36</time>
<name>3742</name>
<sym>Dot</sym>
</trkpt>
<trkpt lat="39.986638" lon="-8.384720">
<ele>290.0</ele>
<desc>Speed 6.7 km/h Distance 16.07 km</desc>
<time>2011-05-22T08:22:16.36</time>
<name>3743</name>
<sym>Dot</sym>
</trkpt>
<trkpt lat="39.986627" lon="-8.384737">
<ele>290.5</ele>
<desc>Speed 6.6 km/h Distance 16.07 km</desc>
<time>2011-05-22T08:22:17.36</time>
<name>3744</name>
<sym>Dot</sym>
</trkpt>
<trkpt lat="39.986613" lon="-8.384752">
<ele>290.5</ele>
<desc>Speed 6.8 km/h Distance 16.07 km</desc>
<time>2011-05-22T08:22:18.36</time>
<name>3745</name>
<sym>Dot</sym>
</trkpt>
<trkpt lat="39.986600" lon="-8.384767">
<ele>291.0</ele>
<desc>Speed 6.6 km/h Distance 16.08 km</desc>
<time>2011-05-22T08:22:19.36</time>
<name>3746</name>
<sym>Dot</sym>
</trkpt>
<trkpt lat="39.986587" lon="-8.384782">
<ele>291.5</ele>
<desc>Speed 6.4 km/h Distance 16.08 km</desc>
<time>2011-05-22T08:22:20.36</time>
<name>3747</name>
<sym>Dot</sym>
</trkpt>
<trkpt lat="39.986573" lon="-8.384797">
<ele>291.5</ele>
<desc>Speed 6.7 km/h Distance 16.08 km</desc>
<time>2011-05-22T08:22:21.36</time>
<name>3748</name>
<sym>Dot</sym>
</trkpt>
<trkpt lat="39.986562" lon="-8.384810">
<ele>292.0</ele>
<desc>Speed 6.1 km/h Distance 16.08 km</desc>
<time>2011-05-22T08:22:22.36</time>
<name>3749</name>
<sym>Dot</sym>
</trkpt>
<trkpt lat="39.986550" lon="-8.384825">
<ele>292.0</ele>
<desc>Speed 6.1 km/h Distance 16.08 km</desc>
<time>2011-05-22T08:22:23.36</time>
<name>3750</name>
<sym>Dot</sym>
</trkpt>
<trkpt lat="39.986540" lon="-8.384845">
<ele>292.5</ele>
<desc>Speed 6.8 km/h Distance 16.09 km</desc>
<time>2011-05-22T08:22:24.36</time>
<name>3751</name>
<sym>Dot</sym>
</trkpt>
<trkpt lat="39.986527" lon="-8.384862">
<ele>292.5</ele>
<desc>Speed 7.1 km/h Distance 16.09 km</desc>
<time>2011-05-22T08:22:25.36</time>
<name>3752</name>
<sym>Dot</sym>
</trkpt>
<trkpt lat="39.986513" lon="-8.384878">
<ele>293.0</ele>
<desc>Speed 7.1 km/h Distance 16.09 km</desc>
<time>2011-05-22T08:22:26.36</time>
<name>3753</name>
<sym>Dot</sym>
</trkpt>
<trkpt lat="39.986500" lon="-8.384897">
<ele>293.5</ele>
<desc>Speed 7.2 km/h Distance 16.09 km</desc>
<time>2011-05-22T08:22:27.36</time>
<name>3754</name>
<sym>Dot</sym>
</trkpt>
<trkpt lat="39.986488" lon="-8.384917">
<ele>293.5</ele>
<desc>Speed 7.4 km/h Distance 16.09 km</desc>
<time>2011-05-22T08:22:28.36</time>
<name>3755</name>
<sym>Dot</sym>
</trkpt>
<trkpt lat="39.986475" lon="-8.384937">
<ele>294.0</ele>
<desc>Speed 7.4 km/h Distance 16.10 km</desc>
<time>2011-05-22T08:22:29.36</time>
<name>3756</name>
<sym>Dot</sym>
</trkpt>
<trkpt lat="39.986465" lon="-8.384957">
<ele>294.5</ele>
<desc>Speed 7.2 km/h Distance 16.10 km</desc>
<time>2011-05-22T08:22:30.36</time>
<name>3757</name>
<sym>Dot</sym>
</trkpt>
<trkpt lat="39.986453" lon="-8.384977">
<ele>294.5</ele>
<desc>Speed 7.7 km/h Distance 16.10 km</desc>
<time>2011-05-22T08:22:31.36</time>
<name>3758</name>
<sym>Dot</sym>
</trkpt>
<trkpt lat="39.986442" lon="-8.384998">
<ele>295.0</ele>
<desc>Speed 7.6 km/h Distance 16.10 km</desc>
<time>2011-05-22T08:22:32.36</time>
<name>3759</name>
<sym>Dot</sym>
</trkpt>
<trkpt lat="39.986430" lon="-8.385017">
<ele>295.5</ele>
<desc>Speed 7.6 km/h Distance 16.10 km</desc>
<time>2011-05-22T08:22:33.36</time>
<name>3760</name>
<sym>Dot</sym>
</trkpt>
<trkpt lat="39.986417" lon="-8.385037">
<ele>296.0</ele>
<desc>Speed 7.4 km/h Distance 16.11 km</desc>
<time>2011-05-22T08:22:34.36</time>
<name>3761</name>
<sym>Dot</sym>
</trkpt>
<trkpt lat="39.986403" lon="-8.385055">
<ele>296.0</ele>
<desc>Speed 7.6 km/h Distance 16.11 km</desc>
<time>2011-05-22T08:22:35.36</time>
<name>3762</name>
<sym>Dot</sym>
</trkpt>
<trkpt lat="39.986390" lon="-8.385072">
<ele>296.5</ele>
<desc>Speed 7.5 km/h Distance 16.11 km</desc>
<time>2011-05-22T08:22:36.36</time>
<name>3763</name>
<sym>Dot</sym>
</trkpt>
<trkpt lat="39.986377" lon="-8.385092">
<ele>297.0</ele>
<desc>Speed 7.8 km/h Distance 16.11 km</desc>
<time>2011-05-22T08:22:37.36</time>
<name>3764</name>
<sym>Dot</sym>
</trkpt>
<trkpt lat="39.986362" lon="-8.385113">
<ele>297.5</ele>
<desc>Speed 8.6 km/h Distance 16.12 km</desc>
<time>2011-05-22T08:22:38.36</time>
<name>3765</name>
<sym>Dot</sym>
</trkpt>
<trkpt lat="39.986347" lon="-8.385135">
<ele>298.0</ele>
<desc>Speed 8.5 km/h Distance 16.12 km</desc>
<time>2011-05-22T08:22:39.36</time>
<name>3766</name>
<sym>Dot</sym>
</trkpt>
<trkpt lat="39.986332" lon="-8.385155">
<ele>298.0</ele>
<desc>Speed 8.5 km/h Distance 16.12 km</desc>
<time>2011-05-22T08:22:40.35</time>
<name>3767</name>
<sym>Dot</sym>
</trkpt>
<trkpt lat="39.986317" lon="-8.385178">
<ele>298.5</ele>
<desc>Speed 8.6 km/h Distance 16.12 km</desc>
<time>2011-05-22T08:22:41.35</time>
<name>3768</name>
<sym>Dot</sym>
</trkpt>
<trkpt lat="39.986302" lon="-8.385200">
<ele>298.5</ele>
<desc>Speed 8.6 km/h Distance 16.13 km</desc>
<time>2011-05-22T08:22:42.35</time>
<name>3769</name>
<sym>Dot</sym>
</trkpt>
<trkpt lat="39.986287" lon="-8.385222">
<ele>299.0</ele>
<desc>Speed 8.6 km/h Distance 16.13 km</desc>
<time>2011-05-22T08:22:43.35</time>
<name>3770</name>
<sym>Dot</sym>
</trkpt>
<trkpt lat="39.986270" lon="-8.385243">
<ele>299.0</ele>
<desc>Speed 8.9 km/h Distance 16.13 km</desc>
<time>2011-05-22T08:22:44.35</time>
<name>3771</name>
<sym>Dot</sym>
</trkpt>
<trkpt lat="39.986257" lon="-8.385265">
<ele>299.0</ele>
<desc>Speed 8.3 km/h Distance 16.13 km</desc>
<time>2011-05-22T08:22:45.35</time>
<name>3772</name>
<sym>Dot</sym>
</trkpt>
<trkpt lat="39.986243" lon="-8.385287">
<ele>299.5</ele>
<desc>Speed 8.5 km/h Distance 16.14 km</desc>
<time>2011-05-22T08:22:46.35</time>
<name>3773</name>
<sym>Dot</sym>
</trkpt>
<trkpt lat="39.986228" lon="-8.385308">
<ele>299.5</ele>
<desc>Speed 8.7 km/h Distance 16.14 km</desc>
<time>2011-05-22T08:22:47.35</time>
<name>3774</name>
<sym>Dot</sym>
</trkpt>
<trkpt lat="39.986213" lon="-8.385328">
<ele>299.5</ele>
<desc>Speed 8.4 km/h Distance 16.14 km</desc>
<time>2011-05-22T08:22:48.35</time>
<name>3775</name>
<sym>Dot</sym>
</trkpt>
<trkpt lat="39.986200" lon="-8.385350">
<ele>300.0</ele>
<desc>Speed 8.2 km/h Distance 16.14 km</desc>
<time>2011-05-22T08:22:49.35</time>
<name>3776</name>
<sym>Dot</sym>
</trkpt>
<trkpt lat="39.986187" lon="-8.385372">
<ele>300.5</ele>
<desc>Speed 8.2 km/h Distance 16.15 km</desc>
<time>2011-05-22T08:22:50.35</time>
<name>3777</name>
<sym>Dot</sym>
</trkpt>
<trkpt lat="39.986172" lon="-8.385393">
<ele>301.0</ele>
<desc>Speed 8.4 km/h Distance 16.15 km</desc>
<time>2011-05-22T08:22:51.35</time>
<name>3778</name>
<sym>Dot</sym>
</trkpt>
<trkpt lat="39.986157" lon="-8.385415">
<ele>301.0</ele>
<desc>Speed 8.6 km/h Distance 16.15 km</desc>
<time>2011-05-22T08:22:52.35</time>
<name>3779</name>
<sym>Dot</sym>
</trkpt>
<trkpt lat="39.986142" lon="-8.385435">
<ele>301.0</ele>
<desc>Speed 8.5 km/h Distance 16.15 km</desc>
<time>2011-05-22T08:22:53.35</time>
<name>3780</name>
<sym>Dot</sym>
</trkpt>
<trkpt lat="39.986127" lon="-8.385457">
<ele>301.5</ele>
<desc>Speed 8.5 km/h Distance 16.16 km</desc>
<time>2011-05-22T08:22:54.35</time>
<name>3781</name>
<sym>Dot</sym>
</trkpt>
<trkpt lat="39.986112" lon="-8.385477">
<ele>301.5</ele>
<desc>Speed 8.4 km/h Distance 16.16 km</desc>
<time>2011-05-22T08:22:55.35</time>
<name>3782</name>
<sym>Dot</sym>
</trkpt>
<trkpt lat="39.986097" lon="-8.385495">
<ele>301.5</ele>
<desc>Speed 8.1 km/h Distance 16.16 km</desc>
<time>2011-05-22T08:22:56.35</time>
<name>3783</name>
<sym>Dot</sym>
</trkpt>
<trkpt lat="39.986082" lon="-8.385515">
<ele>302.0</ele>
<desc>Speed 8.1 km/h Distance 16.16 km</desc>
<time>2011-05-22T08:22:57.35</time>
<name>3784</name>
<sym>Dot</sym>
</trkpt>
<trkpt lat="39.986067" lon="-8.385535">
<ele>302.5</ele>
<desc>Speed 8.1 km/h Distance 16.16 km</desc>
<time>2011-05-22T08:22:58.35</time>
<name>3785</name>
<sym>Dot</sym>
</trkpt>
<trkpt lat="39.986050" lon="-8.385555">
<ele>302.5</ele>
<desc>Speed 8.4 km/h Distance 16.17 km</desc>
<time>2011-05-22T08:22:59.35</time>
<name>3786</name>
<sym>Dot</sym>
</trkpt>
<trkpt lat="39.986037" lon="-8.385573">
<ele>303.0</ele>
<desc>Speed 7.5 km/h Distance 16.17 km</desc>
<time>2011-05-22T08:23:00.35</time>
<name>3787</name>
<sym>Dot</sym>
</trkpt>
<trkpt lat="39.986025" lon="-8.385592">
<ele>303.5</ele>
<desc>Speed 7.0 km/h Distance 16.17 km</desc>
<time>2011-05-22T08:23:01.35</time>
<name>3788</name>
<sym>Dot</sym>
</trkpt>
<trkpt lat="39.986018" lon="-8.385613">
<ele>304.0</ele>
<desc>Speed 6.7 km/h Distance 16.17 km</desc>
<time>2011-05-22T08:23:02.35</time>
<name>3789</name>
<sym>Dot</sym>
</trkpt>
<trkpt lat="39.986010" lon="-8.385628">
<ele>304.5</ele>
<desc>Speed 5.8 km/h Distance 16.17 km</desc>
<time>2011-05-22T08:23:03.35</time>
<name>3790</name>
<sym>Dot</sym>
</trkpt>
<trkpt lat="39.986002" lon="-8.385648">
<ele>305.0</ele>
<desc>Speed 6.4 km/h Distance 16.18 km</desc>
<time>2011-05-22T08:23:04.35</time>
<name>3791</name>
<sym>Dot</sym>
</trkpt>
<trkpt lat="39.985988" lon="-8.385670">
<ele>305.5</ele>
<desc>Speed 8.1 km/h Distance 16.18 km</desc>
<time>2011-05-22T08:23:05.35</time>
<name>3792</name>
<sym>Dot</sym>
</trkpt>
<trkpt lat="39.985972" lon="-8.385688">
<ele>306.0</ele>
<desc>Speed 8.2 km/h Distance 16.18 km</desc>
<time>2011-05-22T08:23:06.35</time>
<name>3793</name>
<sym>Dot</sym>
</trkpt>
<trkpt lat="39.985957" lon="-8.385708">
<ele>306.0</ele>
<desc>Speed 8.0 km/h Distance 16.18 km</desc>
<time>2011-05-22T08:23:07.35</time>
<name>3794</name>
<sym>Dot</sym>
</trkpt>
<trkpt lat="39.985940" lon="-8.385725">
<ele>306.0</ele>
<desc>Speed 8.4 km/h Distance 16.19 km</desc>
<time>2011-05-22T08:23:08.35</time>
<name>3795</name>
<sym>Dot</sym>
</trkpt>
<trkpt lat="39.985923" lon="-8.385743">
<ele>306.0</ele>
<desc>Speed 8.2 km/h Distance 16.19 km</desc>
<time>2011-05-22T08:23:09.35</time>
<name>3796</name>
<sym>Dot</sym>
</trkpt>
<trkpt lat="39.985908" lon="-8.385762">
<ele>306.5</ele>
<desc>Speed 8.0 km/h Distance 16.19 km</desc>
<time>2011-05-22T08:23:10.35</time>
<name>3797</name>
<sym>Dot</sym>
</trkpt>
<trkpt lat="39.985892" lon="-8.385778">
<ele>307.0</ele>
<desc>Speed 8.1 km/h Distance 16.19 km</desc>
<time>2011-05-22T08:23:11.35</time>
<name>3798</name>
<sym>Dot</sym>
</trkpt>
<trkpt lat="39.985877" lon="-8.385797">
<ele>307.0</ele>
<desc>Speed 7.6 km/h Distance 16.20 km</desc>
<time>2011-05-22T08:23:12.35</time>
<name>3799</name>
<sym>Dot</sym>
</trkpt>
<trkpt lat="39.985858" lon="-8.385815">
<ele>307.5</ele>
<desc>Speed 8.6 km/h Distance 16.20 km</desc>
<time>2011-05-22T08:23:13.35</time>
<name>3800</name>
<sym>Dot</sym>
</trkpt>
<trkpt lat="39.985842" lon="-8.385833">
<ele>308.0</ele>
<desc>Speed 8.8 km/h Distance 16.20 km</desc>
<time>2011-05-22T08:23:14.35</time>
<name>3801</name>
<sym>Dot</sym>
</trkpt>
<trkpt lat="39.985823" lon="-8.385855">
<ele>308.0</ele>
<desc>Speed 8.7 km/h Distance 16.20 km</desc>
<time>2011-05-22T08:23:15.35</time>
<name>3802</name>
<sym>Dot</sym>
</trkpt>
<trkpt lat="39.985807" lon="-8.385873">
<ele>308.0</ele>
<desc>Speed 8.4 km/h Distance 16.21 km</desc>
<time>2011-05-22T08:23:16.35</time>
<name>3803</name>
<sym>Dot</sym>
</trkpt>
<trkpt lat="39.985790" lon="-8.385890">
<ele>308.5</ele>
<desc>Speed 8.1 km/h Distance 16.21 km</desc>
<time>2011-05-22T08:23:17.35</time>
<name>3804</name>
<sym>Dot</sym>
</trkpt>
<trkpt lat="39.985775" lon="-8.385908">
<ele>308.5</ele>
<desc>Speed 8.2 km/h Distance 16.21 km</desc>
<time>2011-05-22T08:23:18.35</time>
<name>3805</name>
<sym>Dot</sym>
</trkpt>
<trkpt lat="39.985762" lon="-8.385927">
<ele>309.0</ele>
<desc>Speed 7.8 km/h Distance 16.21 km</desc>
<time>2011-05-22T08:23:19.35</time>
<name>3806</name>
<sym>Dot</sym>
</trkpt>
<trkpt lat="39.985747" lon="-8.385945">
<ele>309.0</ele>
<desc>Speed 8.1 km/h Distance 16.21 km</desc>
<time>2011-05-22T08:23:20.35</time>
<name>3807</name>
<sym>Dot</sym>
</trkpt>
<trkpt lat="39.985730" lon="-8.385960">
<ele>309.5</ele>
<desc>Speed 7.8 km/h Distance 16.22 km</desc>
<time>2011-05-22T08:23:21.35</time>
<name>3808</name>
<sym>Dot</sym>
</trkpt>
<trkpt lat="39.985713" lon="-8.385977">
<ele>309.5</ele>
<desc>Speed 8.1 km/h Distance 16.22 km</desc>
<time>2011-05-22T08:23:22.35</time>
<name>3809</name>
<sym>Dot</sym>
</trkpt>
<trkpt lat="39.985698" lon="-8.385993">
<ele>309.5</ele>
<desc>Speed 8.1 km/h Distance 16.22 km</desc>
<time>2011-05-22T08:23:23.35</time>
<name>3810</name>
<sym>Dot</sym>
</trkpt>
<trkpt lat="39.985682" lon="-8.386013">
<ele>309.5</ele>
<desc>Speed 8.7 km/h Distance 16.22 km</desc>
<time>2011-05-22T08:23:24.35</time>
<name>3811</name>
<sym>Dot</sym>
</trkpt>
<trkpt lat="39.985663" lon="-8.386030">
<ele>310.0</ele>
<desc>Speed 8.9 km/h Distance 16.23 km</desc>
<time>2011-05-22T08:23:25.35</time>
<name>3812</name>
<sym>Dot</sym>
</trkpt>
<trkpt lat="39.985643" lon="-8.386050">
<ele>309.5</ele>
<desc>Speed 8.9 km/h Distance 16.23 km</desc>
<time>2011-05-22T08:23:26.35</time>
<name>3813</name>
<sym>Dot</sym>
</trkpt>
<trkpt lat="39.985625" lon="-8.386067">
<ele>309.5</ele>
<desc>Speed 9.0 km/h Distance 16.23 km</desc>
<time>2011-05-22T08:23:27.35</time>
<name>3814</name>
<sym>Dot</sym>
</trkpt>
<trkpt lat="39.985607" lon="-8.386083">
<ele>309.5</ele>
<desc>Speed 9.0 km/h Distance 16.23 km</desc>
<time>2011-05-22T08:23:28.35</time>
<name>3815</name>
<sym>Dot</sym>
</trkpt>
<trkpt lat="39.985587" lon="-8.386100">
<ele>309.5</ele>
<desc>Speed 9.2 km/h Distance 16.24 km</desc>
<time>2011-05-22T08:23:29.35</time>
<name>3816</name>
<sym>Dot</sym>
</trkpt>
<trkpt lat="39.985568" lon="-8.386117">
<ele>309.5</ele>
<desc>Speed 9.0 km/h Distance 16.24 km</desc>
<time>2011-05-22T08:23:30.35</time>
<name>3817</name>
<sym>Dot</sym>
</trkpt>
<trkpt lat="39.985548" lon="-8.386132">
<ele>309.5</ele>
<desc>Speed 8.8 km/h Distance 16.24 km</desc>
<time>2011-05-22T08:23:31.35</time>
<name>3818</name>
<sym>Dot</sym>
</trkpt>
<trkpt lat="39.985530" lon="-8.386147">
<ele>309.5</ele>
<desc>Speed 8.7 km/h Distance 16.24 km</desc>
<time>2011-05-22T08:23:32.35</time>
<name>3819</name>
<sym>Dot</sym>
</trkpt>
<trkpt lat="39.985510" lon="-8.386162">
<ele>309.5</ele>
<desc>Speed 9.0 km/h Distance 16.25 km</desc>
<time>2011-05-22T08:23:33.35</time>
<name>3820</name>
<sym>Dot</sym>
</trkpt>
<trkpt lat="39.985490" lon="-8.386177">
<ele>309.5</ele>
<desc>Speed 9.1 km/h Distance 16.25 km</desc>
<time>2011-05-22T08:23:34.35</time>
<name>3821</name>
<sym>Dot</sym>
</trkpt>
<trkpt lat="39.985470" lon="-8.386190">
<ele>309.5</ele>
<desc>Speed 8.7 km/h Distance 16.25 km</desc>
<time>2011-05-22T08:23:35.35</time>
<name>3822</name>
<sym>Dot</sym>
</trkpt>
<trkpt lat="39.985450" lon="-8.386200">
<ele>309.5</ele>
<desc>Speed 8.8 km/h Distance 16.25 km</desc>
<time>2011-05-22T08:23:36.35</time>
<name>3823</name>
<sym>Dot</sym>
</trkpt>
<trkpt lat="39.985428" lon="-8.386212">
<ele>309.5</ele>
<desc>Speed 9.3 km/h Distance 16.26 km</desc>
<time>2011-05-22T08:23:37.35</time>
<name>3824</name>
<sym>Dot</sym>
</trkpt>
<trkpt lat="39.985405" lon="-8.386222">
<ele>309.0</ele>
<desc>Speed 9.3 km/h Distance 16.26 km</desc>
<time>2011-05-22T08:23:38.35</time>
<name>3825</name>
<sym>Dot</sym>
</trkpt>
<trkpt lat="39.985382" lon="-8.386233">
<ele>309.0</ele>
<desc>Speed 9.4 km/h Distance 16.26 km</desc>
<time>2011-05-22T08:23:39.35</time>
<name>3826</name>
<sym>Dot</sym>
</trkpt>
<trkpt lat="39.985357" lon="-8.386243">
<ele>308.5</ele>
<desc>Speed 9.8 km/h Distance 16.27 km</desc>
<time>2011-05-22T08:23:40.35</time>
<name>3827</name>
<sym>Dot</sym>
</trkpt>
<trkpt lat="39.985330" lon="-8.386253">
<ele>308.5</ele>
<desc>Speed 9.5 km/h Distance 16.27 km</desc>
<time>2011-05-22T08:23:41.35</time>
<name>3828</name>
<sym>Dot</sym>
</trkpt>
<trkpt lat="39.985305" lon="-8.386262">
<ele>308.0</ele>
<desc>Speed 10.0 km/h Distance 16.27 km</desc>
<time>2011-05-22T08:23:42.35</time>
<name>3829</name>
<sym>Dot</sym>
</trkpt>
<trkpt lat="39.985278" lon="-8.386272">
<ele>307.5</ele>
<desc>Speed 10.4 km/h Distance 16.27 km</desc>
<time>2011-05-22T08:23:43.35</time>
<name>3830</name>
<sym>Dot</sym>
</trkpt>
<trkpt lat="39.985250" lon="-8.386282">
<ele>308.0</ele>
<desc>Speed 10.4 km/h Distance 16.28 km</desc>
<time>2011-05-22T08:23:44.35</time>
<name>3831</name>
<sym>Dot</sym>
</trkpt>
<trkpt lat="39.985222" lon="-8.386290">
<ele>308.0</ele>
<desc>Speed 10.7 km/h Distance 16.28 km</desc>
<time>2011-05-22T08:23:45.35</time>
<name>3832</name>
<sym>Dot</sym>
</trkpt>
<trkpt lat="39.985195" lon="-8.386298">
<ele>308.0</ele>
<desc>Speed 10.3 km/h Distance 16.28 km</desc>
<time>2011-05-22T08:23:46.35</time>
<name>3833</name>
<sym>Dot</sym>
</trkpt>
<trkpt lat="39.985168" lon="-8.386308">
<ele>308.0</ele>
<desc>Speed 10.3 km/h Distance 16.29 km</desc>
<time>2011-05-22T08:23:47.35</time>
<name>3834</name>
<sym>Dot</sym>
</trkpt>
<trkpt lat="39.985142" lon="-8.386317">
<ele>308.0</ele>
<desc>Speed 10.0 km/h Distance 16.29 km</desc>
<time>2011-05-22T08:23:48.35</time>
<name>3835</name>
<sym>Dot</sym>
</trkpt>
<trkpt lat="39.985115" lon="-8.386323">
<ele>307.5</ele>
<desc>Speed 10.2 km/h Distance 16.29 km</desc>
<time>2011-05-22T08:23:49.35</time>
<name>3836</name>
<sym>Dot</sym>
</trkpt>
<trkpt lat="39.985087" lon="-8.386332">
<ele>307.5</ele>
<desc>Speed 10.3 km/h Distance 16.30 km</desc>
<time>2011-05-22T08:23:50.35</time>
<name>3837</name>
<sym>Dot</sym>
</trkpt>
<trkpt lat="39.985060" lon="-8.386338">
<ele>307.5</ele>
<desc>Speed 10.2 km/h Distance 16.30 km</desc>
<time>2011-05-22T08:23:51.35</time>
<name>3838</name>
<sym>Dot</sym>
</trkpt>
<trkpt lat="39.985033" lon="-8.386343">
<ele>307.5</ele>
<desc>Speed 9.9 km/h Distance 16.30 km</desc>
<time>2011-05-22T08:23:52.35</time>
<name>3839</name>
<sym>Dot</sym>
</trkpt>
<trkpt lat="39.985010" lon="-8.386348">
<ele>308.0</ele>
<desc>Speed 9.9 km/h Distance 16.31 km</desc>
<time>2011-05-22T08:23:53.35</time>
<name>3840</name>
<sym>Dot</sym>
</trkpt>
<trkpt lat="39.984985" lon="-8.386353">
<ele>308.0</ele>
<desc>Speed 9.9 km/h Distance 16.31 km</desc>
<time>2011-05-22T08:23:54.35</time>
<name>3841</name>
<sym>Dot</sym>
</trkpt>
<trkpt lat="39.984962" lon="-8.386360">
<ele>307.5</ele>
<desc>Speed 9.0 km/h Distance 16.31 km</desc>
<time>2011-05-22T08:23:55.35</time>
<name>3842</name>
<sym>Dot</sym>
</trkpt>
<trkpt lat="39.984937" lon="-8.386367">
<ele>307.5</ele>
<desc>Speed 10.0 km/h Distance 16.31 km</desc>
<time>2011-05-22T08:23:56.35</time>
<name>3843</name>
<sym>Dot</sym>
</trkpt>
<trkpt lat="39.984910" lon="-8.386375">
<ele>308.0</ele>
<desc>Speed 10.0 km/h Distance 16.32 km</desc>
<time>2011-05-22T08:23:57.35</time>
<name>3844</name>
<sym>Dot</sym>
</trkpt>
<trkpt lat="39.984887" lon="-8.386385">
<ele>307.5</ele>
<desc>Speed 9.0 km/h Distance 16.32 km</desc>
<time>2011-05-22T08:23:58.35</time>
<name>3845</name>
<sym>Dot</sym>
</trkpt>
<trkpt lat="39.984862" lon="-8.386393">
<ele>307.5</ele>
<desc>Speed 9.9 km/h Distance 16.32 km</desc>
<time>2011-05-22T08:23:59.35</time>
<name>3846</name>
<sym>Dot</sym>
</trkpt>
<trkpt lat="39.984837" lon="-8.386400">
<ele>307.5</ele>
<desc>Speed 9.9 km/h Distance 16.33 km</desc>
<time>2011-05-22T08:24:00.35</time>
<name>3847</name>
<sym>Dot</sym>
</trkpt>
<trkpt lat="39.984812" lon="-8.386405">
<ele>307.5</ele>
<desc>Speed 9.6 km/h Distance 16.33 km</desc>
<time>2011-05-22T08:24:01.35</time>
<name>3848</name>
<sym>Dot</sym>
</trkpt>
<trkpt lat="39.984787" lon="-8.386412">
<ele>307.5</ele>
<desc>Speed 9.6 km/h Distance 16.33 km</desc>
<time>2011-05-22T08:24:02.35</time>
<name>3849</name>
<sym>Dot</sym>
</trkpt>
<trkpt lat="39.984760" lon="-8.386417">
<ele>307.5</ele>
<desc>Speed 10.2 km/h Distance 16.33 km</desc>
<time>2011-05-22T08:24:03.35</time>
<name>3850</name>
<sym>Dot</sym>
</trkpt>
<trkpt lat="39.984737" lon="-8.386425">
<ele>307.5</ele>
<desc>Speed 9.5 km/h Distance 16.34 km</desc>
<time>2011-05-22T08:24:04.35</time>
<name>3851</name>
<sym>Dot</sym>
</trkpt>
<trkpt lat="39.984712" lon="-8.386432">
<ele>307.5</ele>
<desc>Speed 9.4 km/h Distance 16.34 km</desc>
<time>2011-05-22T08:24:05.35</time>
<name>3852</name>
<sym>Dot</sym>
</trkpt>
<trkpt lat="39.984685" lon="-8.386437">
<ele>307.5</ele>
<desc>Speed 10.1 km/h Distance 16.34 km</desc>
<time>2011-05-22T08:24:06.35</time>
<name>3853</name>
<sym>Dot</sym>
</trkpt>
<trkpt lat="39.984662" lon="-8.386443">
<ele>308.0</ele>
<desc>Speed 9.7 km/h Distance 16.34 km</desc>
<time>2011-05-22T08:24:07.35</time>
<name>3854</name>
<sym>Dot</sym>
</trkpt>
<trkpt lat="39.984637" lon="-8.386450">
<ele>308.0</ele>
<desc>Speed 9.6 km/h Distance 16.35 km</desc>
<time>2011-05-22T08:24:08.35</time>
<name>3855</name>
<sym>Dot</sym>
</trkpt>
<trkpt lat="39.984615" lon="-8.386455">
<ele>308.0</ele>
<desc>Speed 9.0 km/h Distance 16.35 km</desc>
<time>2011-05-22T08:24:09.35</time>
<name>3856</name>
<sym>Dot</sym>
</trkpt>
<trkpt lat="39.984590" lon="-8.386463">
<ele>308.5</ele>
<desc>Speed 8.8 km/h Distance 16.35 km</desc>
<time>2011-05-22T08:24:10.35</time>
<name>3857</name>
<sym>Dot</sym>
</trkpt>
<trkpt lat="39.984565" lon="-8.386470">
<ele>308.5</ele>
<desc>Speed 9.6 km/h Distance 16.36 km</desc>
<time>2011-05-22T08:24:11.35</time>
<name>3858</name>
<sym>Dot</sym>
</trkpt>
<trkpt lat="39.984538" lon="-8.386478">
<ele>308.5</ele>
<desc>Speed 10.1 km/h Distance 16.36 km</desc>
<time>2011-05-22T08:24:12.35</time>
<name>3859</name>
<sym>Dot</sym>
</trkpt>
<trkpt lat="39.984512" lon="-8.386485">
<ele>308.5</ele>
<desc>Speed 10.0 km/h Distance 16.36 km</desc>
<time>2011-05-22T08:24:13.35</time>
<name>3860</name>
<sym>Dot</sym>
</trkpt>
<trkpt lat="39.984485" lon="-8.386492">
<ele>308.5</ele>
<desc>Speed 10.2 km/h Distance 16.36 km</desc>
<time>2011-05-22T08:24:14.35</time>
<name>3861</name>
<sym>Dot</sym>
</trkpt>
<trkpt lat="39.984458" lon="-8.386498">
<ele>309.0</ele>
<desc>Speed 10.2 km/h Distance 16.37 km</desc>
<time>2011-05-22T08:24:15.35</time>
<name>3862</name>
<sym>Dot</sym>
</trkpt>
<trkpt lat="39.984432" lon="-8.386505">
<ele>309.0</ele>
<desc>Speed 10.4 km/h Distance 16.37 km</desc>
<time>2011-05-22T08:24:16.35</time>
<name>3863</name>
<sym>Dot</sym>
</trkpt>
<trkpt lat="39.984405" lon="-8.386515">
<ele>309.0</ele>
<desc>Speed 10.1 km/h Distance 16.37 km</desc>
<time>2011-05-22T08:24:17.35</time>
<name>3864</name>
<sym>Dot</sym>
</trkpt>
<trkpt lat="39.984378" lon="-8.386522">
<ele>309.5</ele>
<desc>Speed 10.4 km/h Distance 16.38 km</desc>
<time>2011-05-22T08:24:18.35</time>
<name>3865</name>
<sym>Dot</sym>
</trkpt>
<trkpt lat="39.984353" lon="-8.386530">
<ele>309.5</ele>
<desc>Speed 9.9 km/h Distance 16.38 km</desc>
<time>2011-05-22T08:24:19.35</time>
<name>3866</name>
<sym>Dot</sym>
</trkpt>
<trkpt lat="39.984328" lon="-8.386537">
<ele>309.5</ele>
<desc>Speed 9.8 km/h Distance 16.38 km</desc>
<time>2011-05-22T08:24:20.35</time>
<name>3867</name>
<sym>Dot</sym>
</trkpt>
<trkpt lat="39.984303" lon="-8.386545">
<ele>310.0</ele>
<desc>Speed 9.9 km/h Distance 16.39 km</desc>
<time>2011-05-22T08:24:21.35</time>
<name>3868</name>
<sym>Dot</sym>
</trkpt>
<trkpt lat="39.984278" lon="-8.386555">
<ele>310.0</ele>
<desc>Speed 9.9 km/h Distance 16.39 km</desc>
<time>2011-05-22T08:24:22.35</time>
<name>3869</name>
<sym>Dot</sym>
</trkpt>
<trkpt lat="39.984252" lon="-8.386562">
<ele>310.0</ele>
<desc>Speed 10.4 km/h Distance 16.39 km</desc>
<time>2011-05-22T08:24:23.35</time>
<name>3870</name>
<sym>Dot</sym>
</trkpt>
<trkpt lat="39.984225" lon="-8.386573">
<ele>310.5</ele>
<desc>Speed 10.3 km/h Distance 16.39 km</desc>
<time>2011-05-22T08:24:24.35</time>
<name>3871</name>
<sym>Dot</sym>
</trkpt>
<trkpt lat="39.984198" lon="-8.386582">
<ele>311.0</ele>
<desc>Speed 10.3 km/h Distance 16.40 km</desc>
<time>2011-05-22T08:24:25.35</time>
<name>3872</name>
<sym>Dot</sym>
</trkpt>
<trkpt lat="39.984173" lon="-8.386592">
<ele>311.0</ele>
<desc>Speed 9.9 km/h Distance 16.40 km</desc>
<time>2011-05-22T08:24:26.35</time>
<name>3873</name>
<sym>Dot</sym>
</trkpt>
<trkpt lat="39.984148" lon="-8.386603">
<ele>311.0</ele>
<desc>Speed 9.8 km/h Distance 16.40 km</desc>
<time>2011-05-22T08:24:27.35</time>
<name>3874</name>
<sym>Dot</sym>
</trkpt>
<trkpt lat="39.984123" lon="-8.386612">
<ele>311.5</ele>
<desc>Speed 9.8 km/h Distance 16.41 km</desc>
<time>2011-05-22T08:24:28.35</time>
<name>3875</name>
<sym>Dot</sym>
</trkpt>
<trkpt lat="39.984098" lon="-8.386623">
<ele>312.0</ele>
<desc>Speed 9.9 km/h Distance 16.41 km</desc>
<time>2011-05-22T08:24:29.35</time>
<name>3876</name>
<sym>Dot</sym>
</trkpt>
<trkpt lat="39.984073" lon="-8.386633">
<ele>312.0</ele>
<desc>Speed 10.0 km/h Distance 16.41 km</desc>
<time>2011-05-22T08:24:30.35</time>
<name>3877</name>
<sym>Dot</sym>
</trkpt>
<trkpt lat="39.984048" lon="-8.386645">
<ele>312.5</ele>
<desc>Speed 9.8 km/h Distance 16.42 km</desc>
<time>2011-05-22T08:24:31.35</time>
<name>3878</name>
<sym>Dot</sym>
</trkpt>
<trkpt lat="39.984025" lon="-8.386660">
<ele>313.0</ele>
<desc>Speed 9.9 km/h Distance 16.42 km</desc>
<time>2011-05-22T08:24:32.35</time>
<name>3879</name>
<sym>Dot</sym>
</trkpt>
<trkpt lat="39.984002" lon="-8.386673">
<ele>313.0</ele>
<desc>Speed 10.0 km/h Distance 16.42 km</desc>
<time>2011-05-22T08:24:33.35</time>
<name>3880</name>
<sym>Dot</sym>
</trkpt>
<trkpt lat="39.983980" lon="-8.386688">
<ele>313.5</ele>
<desc>Speed 9.9 km/h Distance 16.42 km</desc>
<time>2011-05-22T08:24:34.35</time>
<name>3881</name>
<sym>Dot</sym>
</trkpt>
<trkpt lat="39.983957" lon="-8.386705">
<ele>313.5</ele>
<desc>Speed 9.9 km/h Distance 16.43 km</desc>
<time>2011-05-22T08:24:35.35</time>
<name>3882</name>
<sym>Dot</sym>
</trkpt>
<trkpt lat="39.983933" lon="-8.386723">
<ele>314.0</ele>
<desc>Speed 10.1 km/h Distance 16.43 km</desc>
<time>2011-05-22T08:24:36.35</time>
<name>3883</name>
<sym>Dot</sym>
</trkpt>
<trkpt lat="39.983913" lon="-8.386742">
<ele>314.0</ele>
<desc>Speed 9.8 km/h Distance 16.43 km</desc>
<time>2011-05-22T08:24:37.35</time>
<name>3884</name>
<sym>Dot</sym>
</trkpt>
<trkpt lat="39.983893" lon="-8.386760">
<ele>314.5</ele>
<desc>Speed 9.5 km/h Distance 16.44 km</desc>
<time>2011-05-22T08:24:38.35</time>
<name>3885</name>
<sym>Dot</sym>
</trkpt>
<trkpt lat="39.983877" lon="-8.386778">
<ele>314.5</ele>
<desc>Speed 8.6 km/h Distance 16.44 km</desc>
<time>2011-05-22T08:24:39.35</time>
<name>3886</name>
<sym>Dot</sym>
</trkpt>
<trkpt lat="39.983863" lon="-8.386797">
<ele>315.0</ele>
<desc>Speed 7.6 km/h Distance 16.44 km</desc>
<time>2011-05-22T08:24:40.35</time>
<name>3887</name>
<sym>Dot</sym>
</trkpt>
<trkpt lat="39.983848" lon="-8.386817">
<ele>315.5</ele>
<desc>Speed 8.1 km/h Distance 16.44 km</desc>
<time>2011-05-22T08:24:41.35</time>
<name>3888</name>
<sym>Dot</sym>
</trkpt>
<trkpt lat="39.983837" lon="-8.386838">
<ele>316.0</ele>
<desc>Speed 8.1 km/h Distance 16.44 km</desc>
<time>2011-05-22T08:24:42.35</time>
<name>3889</name>
<sym>Dot</sym>
</trkpt>
<trkpt lat="39.983823" lon="-8.386860">
<ele>316.0</ele>
<desc>Speed 8.7 km/h Distance 16.45 km</desc>
<time>2011-05-22T08:24:43.35</time>
<name>3890</name>
<sym>Dot</sym>
</trkpt>
<trkpt lat="39.983810" lon="-8.386882">
<ele>316.5</ele>
<desc>Speed 8.2 km/h Distance 16.45 km</desc>
<time>2011-05-22T08:24:44.35</time>
<name>3891</name>
<sym>Dot</sym>
</trkpt>
<trkpt lat="39.983798" lon="-8.386902">
<ele>317.0</ele>
<desc>Speed 7.8 km/h Distance 16.45 km</desc>
<time>2011-05-22T08:24:45.35</time>
<name>3892</name>
<sym>Dot</sym>
</trkpt>
<trkpt lat="39.983788" lon="-8.386923">
<ele>317.0</ele>
<desc>Speed 7.8 km/h Distance 16.45 km</desc>
<time>2011-05-22T08:24:46.35</time>
<name>3893</name>
<sym>Dot</sym>
</trkpt>
<trkpt lat="39.983777" lon="-8.386947">
<ele>317.5</ele>
<desc>Speed 8.0 km/h Distance 16.46 km</desc>
<time>2011-05-22T08:24:47.35</time>
<name>3894</name>
<sym>Dot</sym>
</trkpt>
<trkpt lat="39.983767" lon="-8.386970">
<ele>318.0</ele>
<desc>Speed 8.5 km/h Distance 16.46 km</desc>
<time>2011-05-22T08:24:48.35</time>
<name>3895</name>
<sym>Dot</sym>
</trkpt>
<trkpt lat="39.983755" lon="-8.386995">
<ele>318.0</ele>
<desc>Speed 8.5 km/h Distance 16.46 km</desc>
<time>2011-05-22T08:24:49.35</time>
<name>3896</name>
<sym>Dot</sym>
</trkpt>
<trkpt lat="39.983745" lon="-8.387018">
<ele>318.0</ele>
<desc>Speed 8.1 km/h Distance 16.46 km</desc>
<time>2011-05-22T08:24:50.35</time>
<name>3897</name>
<sym>Dot</sym>
</trkpt>
<trkpt lat="39.983735" lon="-8.387042">
<ele>318.0</ele>
<desc>Speed 8.1 km/h Distance 16.47 km</desc>
<time>2011-05-22T08:24:51.35</time>
<name>3898</name>
<sym>Dot</sym>
</trkpt>
<trkpt lat="39.983727" lon="-8.387063">
<ele>318.5</ele>
<desc>Speed 7.5 km/h Distance 16.47 km</desc>
<time>2011-05-22T08:24:52.35</time>
<name>3899</name>
<sym>Dot</sym>
</trkpt>
<trkpt lat="39.983720" lon="-8.387088">
<ele>318.5</ele>
<desc>Speed 8.1 km/h Distance 16.47 km</desc>
<time>2011-05-22T08:24:53.35</time>
<name>3900</name>
<sym>Dot</sym>
</trkpt>
<trkpt lat="39.983712" lon="-8.387113">
<ele>319.0</ele>
<desc>Speed 8.2 km/h Distance 16.47 km</desc>
<time>2011-05-22T08:24:54.35</time>
<name>3901</name>
<sym>Dot</sym>
</trkpt>
<trkpt lat="39.983705" lon="-8.387142">
<ele>319.0</ele>
<desc>Speed 9.0 km/h Distance 16.47 km</desc>
<time>2011-05-22T08:24:55.35</time>
<name>3902</name>
<sym>Dot</sym>
</trkpt>
<trkpt lat="39.983697" lon="-8.387172">
<ele>319.5</ele>
<desc>Speed 9.8 km/h Distance 16.48 km</desc>
<time>2011-05-22T08:24:56.35</time>
<name>3903</name>
<sym>Dot</sym>
</trkpt>
<trkpt lat="39.983687" lon="-8.387203">
<ele>319.5</ele>
<desc>Speed 9.9 km/h Distance 16.48 km</desc>
<time>2011-05-22T08:24:57.35</time>
<name>3904</name>
<sym>Dot</sym>
</trkpt>
<trkpt lat="39.983677" lon="-8.387233">
<ele>319.5</ele>
<desc>Speed 9.9 km/h Distance 16.48 km</desc>
<time>2011-05-22T08:24:58.35</time>
<name>3905</name>
<sym>Dot</sym>
</trkpt>
<trkpt lat="39.983668" lon="-8.387262">
<ele>319.5</ele>
<desc>Speed 9.3 km/h Distance 16.49 km</desc>
<time>2011-05-22T08:24:59.35</time>
<name>3906</name>
<sym>Dot</sym>
</trkpt>
<trkpt lat="39.983660" lon="-8.387292">
<ele>319.5</ele>
<desc>Speed 9.8 km/h Distance 16.49 km</desc>
<time>2011-05-22T08:25:00.35</time>
<name>3907</name>
<sym>Dot</sym>
</trkpt>
<trkpt lat="39.983652" lon="-8.387322">
<ele>320.0</ele>
<desc>Speed 9.7 km/h Distance 16.49 km</desc>
<time>2011-05-22T08:25:01.35</time>
<name>3908</name>
<sym>Dot</sym>
</trkpt>
<trkpt lat="39.983645" lon="-8.387353">
<ele>320.0</ele>
<desc>Speed 10.0 km/h Distance 16.49 km</desc>
<time>2011-05-22T08:25:02.35</time>
<name>3909</name>
<sym>Dot</sym>
</trkpt>
<trkpt lat="39.983638" lon="-8.387385">
<ele>320.0</ele>
<desc>Speed 9.6 km/h Distance 16.50 km</desc>
<time>2011-05-22T08:25:03.35</time>
<name>3910</name>
<sym>Dot</sym>
</trkpt>
<trkpt lat="39.983632" lon="-8.387415">
<ele>320.0</ele>
<desc>Speed 9.6 km/h Distance 16.50 km</desc>
<time>2011-05-22T08:25:04.35</time>
<name>3911</name>
<sym>Dot</sym>
</trkpt>
<trkpt lat="39.983623" lon="-8.387447">
<ele>320.5</ele>
<desc>Speed 10.0 km/h Distance 16.50 km</desc>
<time>2011-05-22T08:25:05.35</time>
<name>3912</name>
<sym>Dot</sym>
</trkpt>
<trkpt lat="39.983615" lon="-8.387480">
<ele>320.5</ele>
<desc>Speed 10.2 km/h Distance 16.51 km</desc>
<time>2011-05-22T08:25:06.35</time>
<name>3913</name>
<sym>Dot</sym>
</trkpt>
<trkpt lat="39.983608" lon="-8.387513">
<ele>321.0</ele>
<desc>Speed 10.4 km/h Distance 16.51 km</desc>
<time>2011-05-22T08:25:07.35</time>
<name>3914</name>
<sym>Dot</sym>
</trkpt>
<trkpt lat="39.983602" lon="-8.387548">
<ele>321.0</ele>
<desc>Speed 10.8 km/h Distance 16.51 km</desc>
<time>2011-05-22T08:25:08.35</time>
<name>3915</name>
<sym>Dot</sym>
</trkpt>
<trkpt lat="39.983593" lon="-8.387582">
<ele>321.0</ele>
<desc>Speed 10.7 km/h Distance 16.51 km</desc>
<time>2011-05-22T08:25:09.35</time>
<name>3916</name>
<sym>Dot</sym>
</trkpt>
<trkpt lat="39.983587" lon="-8.387615">
<ele>321.0</ele>
<desc>Speed 10.5 km/h Distance 16.52 km</desc>
<time>2011-05-22T08:25:10.35</time>
<name>3917</name>
<sym>Dot</sym>
</trkpt>
<trkpt lat="39.983580" lon="-8.387648">
<ele>321.0</ele>
<desc>Speed 10.6 km/h Distance 16.52 km</desc>
<time>2011-05-22T08:25:11.35</time>
<name>3918</name>
<sym>Dot</sym>
</trkpt>
<trkpt lat="39.983575" lon="-8.387683">
<ele>321.0</ele>
<desc>Speed 10.6 km/h Distance 16.52 km</desc>
<time>2011-05-22T08:25:12.35</time>
<name>3919</name>
<sym>Dot</sym>
</trkpt>
<trkpt lat="39.983567" lon="-8.387717">
<ele>321.0</ele>
<desc>Speed 10.5 km/h Distance 16.53 km</desc>
<time>2011-05-22T08:25:13.35</time>
<name>3920</name>
<sym>Dot</sym>
</trkpt>
<trkpt lat="39.983560" lon="-8.387750">
<ele>321.0</ele>
<desc>Speed 10.5 km/h Distance 16.53 km</desc>
<time>2011-05-22T08:25:14.35</time>
<name>3921</name>
<sym>Dot</sym>
</trkpt>
<trkpt lat="39.983553" lon="-8.387783">
<ele>321.0</ele>
<desc>Speed 10.3 km/h Distance 16.53 km</desc>
<time>2011-05-22T08:25:15.35</time>
<name>3922</name>
<sym>Dot</sym>
</trkpt>
<trkpt lat="39.983545" lon="-8.387817">
<ele>321.0</ele>
<desc>Speed 10.3 km/h Distance 16.53 km</desc>
<time>2011-05-22T08:25:16.35</time>
<name>3923</name>
<sym>Dot</sym>
</trkpt>
<trkpt lat="39.983537" lon="-8.387852">
<ele>321.0</ele>
<desc>Speed 11.2 km/h Distance 16.54 km</desc>
<time>2011-05-22T08:25:17.35</time>
<name>3924</name>
<sym>Dot</sym>
</trkpt>
<trkpt lat="39.983530" lon="-8.387890">
<ele>321.0</ele>
<desc>Speed 11.7 km/h Distance 16.54 km</desc>
<time>2011-05-22T08:25:18.35</time>
<name>3925</name>
<sym>Dot</sym>
</trkpt>
<trkpt lat="39.983522" lon="-8.387928">
<ele>321.0</ele>
<desc>Speed 12.1 km/h Distance 16.54 km</desc>
<time>2011-05-22T08:25:19.35</time>
<name>3926</name>
<sym>Dot</sym>
</trkpt>
<trkpt lat="39.983512" lon="-8.387970">
<ele>321.0</ele>
<desc>Speed 12.8 km/h Distance 16.55 km</desc>
<time>2011-05-22T08:25:20.35</time>
<name>3927</name>
<sym>Dot</sym>
</trkpt>
<trkpt lat="39.983500" lon="-8.388013">
<ele>320.5</ele>
<desc>Speed 13.8 km/h Distance 16.55 km</desc>
<time>2011-05-22T08:25:21.35</time>
<name>3928</name>
<sym>Dot</sym>
</trkpt>
<trkpt lat="39.983487" lon="-8.388057">
<ele>320.5</ele>
<desc>Speed 14.1 km/h Distance 16.56 km</desc>
<time>2011-05-22T08:25:22.35</time>
<name>3929</name>
<sym>Dot</sym>
</trkpt>
<trkpt lat="39.983475" lon="-8.388102">
<ele>320.5</ele>
<desc>Speed 14.6 km/h Distance 16.56 km</desc>
<time>2011-05-22T08:25:23.35</time>
<name>3930</name>
<sym>Dot</sym>
</trkpt>
<trkpt lat="39.983462" lon="-8.388152">
<ele>320.5</ele>
<desc>Speed 15.6 km/h Distance 16.56 km</desc>
<time>2011-05-22T08:25:24.35</time>
<name>3931</name>
<sym>Dot</sym>
</trkpt>
<trkpt lat="39.983448" lon="-8.388202">
<ele>320.5</ele>
<desc>Speed 16.1 km/h Distance 16.57 km</desc>
<time>2011-05-22T08:25:25.35</time>
<name>3932</name>
<sym>Dot</sym>
</trkpt>
<trkpt lat="39.983435" lon="-8.388253">
<ele>320.5</ele>
<desc>Speed 16.1 km/h Distance 16.57 km</desc>
<time>2011-05-22T08:25:26.35</time>
<name>3933</name>
<sym>Dot</sym>
</trkpt>
<trkpt lat="39.983422" lon="-8.388307">
<ele>320.5</ele>
<desc>Speed 16.8 km/h Distance 16.58 km</desc>
<time>2011-05-22T08:25:27.35</time>
<name>3934</name>
<sym>Dot</sym>
</trkpt>
<trkpt lat="39.983408" lon="-8.388362">
<ele>320.5</ele>
<desc>Speed 17.8 km/h Distance 16.58 km</desc>
<time>2011-05-22T08:25:28.35</time>
<name>3935</name>
<sym>Dot</sym>
</trkpt>
<trkpt lat="39.983395" lon="-8.388422">
<ele>320.5</ele>
<desc>Speed 18.7 km/h Distance 16.59 km</desc>
<time>2011-05-22T08:25:29.35</time>
<name>3936</name>
<sym>Dot</sym>
</trkpt>
<trkpt lat="39.983380" lon="-8.388482">
<ele>320.0</ele>
<desc>Speed 19.6 km/h Distance 16.59 km</desc>
<time>2011-05-22T08:25:30.35</time>
<name>3937</name>
<sym>Dot</sym>
</trkpt>
<trkpt lat="39.983365" lon="-8.388547">
<ele>320.5</ele>
<desc>Speed 20.3 km/h Distance 16.60 km</desc>
<time>2011-05-22T08:25:31.35</time>
<name>3938</name>
<sym>Dot</sym>
</trkpt>
<trkpt lat="39.983350" lon="-8.388618">
<ele>320.0</ele>
<desc>Speed 22.6 km/h Distance 16.61 km</desc>
<time>2011-05-22T08:25:32.35</time>
<name>3939</name>
<sym>Dot</sym>
</trkpt>
<trkpt lat="39.983332" lon="-8.388695">
<ele>320.5</ele>
<desc>Speed 24.5 km/h Distance 16.61 km</desc>
<time>2011-05-22T08:25:33.35</time>
<name>3940</name>
<sym>Dot</sym>
</trkpt>
<trkpt lat="39.983312" lon="-8.388775">
<ele>320.5</ele>
<desc>Speed 25.5 km/h Distance 16.62 km</desc>
<time>2011-05-22T08:25:34.35</time>
<name>3941</name>
<sym>Dot</sym>
</trkpt>
<trkpt lat="39.983290" lon="-8.388857">
<ele>320.5</ele>
<desc>Speed 26.1 km/h Distance 16.63 km</desc>
<time>2011-05-22T08:25:35.35</time>
<name>3942</name>
<sym>Dot</sym>
</trkpt>
<trkpt lat="39.983268" lon="-8.388938">
<ele>320.5</ele>
<desc>Speed 26.8 km/h Distance 16.64 km</desc>
<time>2011-05-22T08:25:36.35</time>
<name>3943</name>
<sym>Dot</sym>
</trkpt>
<trkpt lat="39.983248" lon="-8.389022">
<ele>321.0</ele>
<desc>Speed 26.6 km/h Distance 16.64 km</desc>
<time>2011-05-22T08:25:37.35</time>
<name>3944</name>
<sym>Dot</sym>
</trkpt>
<trkpt lat="39.983225" lon="-8.389103">
<ele>321.5</ele>
<desc>Speed 26.5 km/h Distance 16.65 km</desc>
<time>2011-05-22T08:25:38.35</time>
<name>3945</name>
<sym>Dot</sym>
</trkpt>
<trkpt lat="39.983208" lon="-8.389188">
<ele>321.5</ele>
<desc>Speed 26.9 km/h Distance 16.66 km</desc>
<time>2011-05-22T08:25:39.35</time>
<name>3946</name>
<sym>Dot</sym>
</trkpt>
<trkpt lat="39.983185" lon="-8.389272">
<ele>322.0</ele>
<desc>Speed 26.6 km/h Distance 16.67 km</desc>
<time>2011-05-22T08:25:40.35</time>
<name>3947</name>
<sym>Dot</sym>
</trkpt>
<trkpt lat="39.983165" lon="-8.389352">
<ele>322.5</ele>
<desc>Speed 26.0 km/h Distance 16.67 km</desc>
<time>2011-05-22T08:25:41.35</time>
<name>3948</name>
<sym>Dot</sym>
</trkpt>
<trkpt lat="39.983145" lon="-8.389433">
<ele>323.0</ele>
<desc>Speed 26.0 km/h Distance 16.68 km</desc>
<time>2011-05-22T08:25:42.35</time>
<name>3949</name>
<sym>Dot</sym>
</trkpt>
<trkpt lat="39.983125" lon="-8.389512">
<ele>324.0</ele>
<desc>Speed 25.5 km/h Distance 16.69 km</desc>
<time>2011-05-22T08:25:43.35</time>
<name>3950</name>
<sym>Dot</sym>
</trkpt>
<trkpt lat="39.983103" lon="-8.389588">
<ele>324.5</ele>
<desc>Speed 24.8 km/h Distance 16.69 km</desc>
<time>2011-05-22T08:25:44.35</time>
<name>3951</name>
<sym>Dot</sym>
</trkpt>
<trkpt lat="39.983085" lon="-8.389660">
<ele>325.0</ele>
<desc>Speed 23.0 km/h Distance 16.70 km</desc>
<time>2011-05-22T08:25:45.35</time>
<name>3952</name>
<sym>Dot</sym>
</trkpt>
<trkpt lat="39.983067" lon="-8.389732">
<ele>325.0</ele>
<desc>Speed 23.0 km/h Distance 16.71 km</desc>
<time>2011-05-22T08:25:46.35</time>
<name>3953</name>
<sym>Dot</sym>
</trkpt>
<trkpt lat="39.983048" lon="-8.389808">
<ele>325.5</ele>
<desc>Speed 23.9 km/h Distance 16.71 km</desc>
<time>2011-05-22T08:25:47.35</time>
<name>3954</name>
<sym>Dot</sym>
</trkpt>
<trkpt lat="39.983030" lon="-8.389882">
<ele>325.5</ele>
<desc>Speed 23.8 km/h Distance 16.72 km</desc>
<time>2011-05-22T08:25:48.35</time>
<name>3955</name>
<sym>Dot</sym>
</trkpt>
<trkpt lat="39.983015" lon="-8.389957">
<ele>326.0</ele>
<desc>Speed 23.5 km/h Distance 16.73 km</desc>
<time>2011-05-22T08:25:49.35</time>
<name>3956</name>
<sym>Dot</sym>
</trkpt>
<trkpt lat="39.982997" lon="-8.390030">
<ele>326.5</ele>
<desc>Speed 23.6 km/h Distance 16.73 km</desc>
<time>2011-05-22T08:25:50.35</time>
<name>3957</name>
<sym>Dot</sym>
</trkpt>
<trkpt lat="39.982980" lon="-8.390107">
<ele>327.0</ele>
<desc>Speed 24.0 km/h Distance 16.74 km</desc>
<time>2011-05-22T08:25:51.35</time>
<name>3958</name>
<sym>Dot</sym>
</trkpt>
<trkpt lat="39.982963" lon="-8.390180">
<ele>327.5</ele>
<desc>Speed 23.7 km/h Distance 16.75 km</desc>
<time>2011-05-22T08:25:52.35</time>
<name>3959</name>
<sym>Dot</sym>
</trkpt>
<trkpt lat="39.982950" lon="-8.390255">
<ele>328.0</ele>
<desc>Speed 23.4 km/h Distance 16.75 km</desc>
<time>2011-05-22T08:25:53.35</time>
<name>3960</name>
<sym>Dot</sym>
</trkpt>
<trkpt lat="39.982933" lon="-8.390328">
<ele>329.0</ele>
<desc>Speed 22.9 km/h Distance 16.76 km</desc>
<time>2011-05-22T08:25:54.35</time>
<name>3961</name>
<sym>Dot</sym>
</trkpt>
<trkpt lat="39.982920" lon="-8.390400">
<ele>329.5</ele>
<desc>Speed 22.8 km/h Distance 16.77 km</desc>
<time>2011-05-22T08:25:55.35</time>
<name>3962</name>
<sym>Dot</sym>
</trkpt>
<trkpt lat="39.982907" lon="-8.390473">
<ele>329.5</ele>
<desc>Speed 23.0 km/h Distance 16.77 km</desc>
<time>2011-05-22T08:25:56.35</time>
<name>3963</name>
<sym>Dot</sym>
</trkpt>
<trkpt lat="39.982895" lon="-8.390548">
<ele>329.5</ele>
<desc>Speed 23.3 km/h Distance 16.78 km</desc>
<time>2011-05-22T08:25:57.35</time>
<name>3964</name>
<sym>Dot</sym>
</trkpt>
<trkpt lat="39.982887" lon="-8.390625">
<ele>329.5</ele>
<desc>Speed 23.3 km/h Distance 16.79 km</desc>
<time>2011-05-22T08:25:58.35</time>
<name>3965</name>
<sym>Dot</sym>
</trkpt>
<trkpt lat="39.982880" lon="-8.390700">
<ele>329.5</ele>
<desc>Speed 23.3 km/h Distance 16.79 km</desc>
<time>2011-05-22T08:25:59.35</time>
<name>3966</name>
<sym>Dot</sym>
</trkpt>
<trkpt lat="39.982872" lon="-8.390775">
<ele>329.5</ele>
<desc>Speed 23.1 km/h Distance 16.80 km</desc>
<time>2011-05-22T08:26:00.35</time>
<name>3967</name>
<sym>Dot</sym>
</trkpt>
<trkpt lat="39.982852" lon="-8.390858">
<ele>329.0</ele>
<desc>Speed 11.6 km/h Distance 16.81 km</desc>
<time>2011-05-22T08:26:02.35</time>
<name>3968</name>
<sym>Dot</sym>
</trkpt>
<trkpt lat="39.982853" lon="-8.390890">
<ele>329.0</ele>
<desc>Speed 9.3 km/h Distance 16.81 km</desc>
<time>2011-05-22T08:26:03.35</time>
<name>3969</name>
<sym>Dot</sym>
</trkpt>
<trkpt lat="39.982855" lon="-8.390913">
<ele>329.0</ele>
<desc>Speed 7.0 km/h Distance 16.81 km</desc>
<time>2011-05-22T08:26:04.35</time>
<name>3970</name>
<sym>Dot</sym>
</trkpt>
<trkpt lat="39.982852" lon="-8.390928">
<ele>329.0</ele>
<desc>Speed 4.9 km/h Distance 16.81 km</desc>
<time>2011-05-22T08:26:05.35</time>
<name>3971</name>
<sym>Dot</sym>
</trkpt>
<trkpt lat="39.982848" lon="-8.390928">
<ele>329.0</ele>
<desc>Speed 1.4 km/h Distance 16.81 km</desc>
<time>2011-05-22T08:26:06.35</time>
<name>3972</name>
<sym>Dot</sym>
</trkpt>
<trkpt lat="39.982855" lon="-8.390943">
<ele>329.5</ele>
<desc>Speed 1.1 km/h Distance 16.81 km</desc>
<time>2011-05-22T08:28:25.35</time>
<name>3973</name>
<sym>Dot</sym>
</trkpt>
<trkpt lat="39.982850" lon="-8.390945">
<ele>330.0</ele>
<desc>Speed 2.2 km/h Distance 16.81 km</desc>
<time>2011-05-22T08:28:26.35</time>
<name>3974</name>
<sym>Dot</sym>
</trkpt>
<trkpt lat="39.982843" lon="-8.390948">
<ele>330.0</ele>
<desc>Speed 2.6 km/h Distance 16.82 km</desc>
<time>2011-05-22T08:28:27.35</time>
<name>3975</name>
<sym>Dot</sym>
</trkpt>
<trkpt lat="39.982838" lon="-8.390955">
<ele>330.5</ele>
<desc>Speed 2.6 km/h Distance 16.82 km</desc>
<time>2011-05-22T08:28:28.35</time>
<name>3976</name>
<sym>Dot</sym>
</trkpt>
<trkpt lat="39.982830" lon="-8.390965">
<ele>330.5</ele>
<desc>Speed 4.5 km/h Distance 16.82 km</desc>
<time>2011-05-22T08:28:29.35</time>
<name>3977</name>
<sym>Dot</sym>
</trkpt>
<trkpt lat="39.982823" lon="-8.390982">
<ele>330.5</ele>
<desc>Speed 5.6 km/h Distance 16.82 km</desc>
<time>2011-05-22T08:28:30.35</time>
<name>3978</name>
<sym>Dot</sym>
</trkpt>
<trkpt lat="39.982822" lon="-8.391003">
<ele>330.5</ele>
<desc>Speed 6.6 km/h Distance 16.82 km</desc>
<time>2011-05-22T08:28:31.35</time>
<name>3979</name>
<sym>Dot</sym>
</trkpt>
<trkpt lat="39.982823" lon="-8.391027">
<ele>331.0</ele>
<desc>Speed 7.2 km/h Distance 16.82 km</desc>
<time>2011-05-22T08:28:32.35</time>
<name>3980</name>
<sym>Dot</sym>
</trkpt>
<trkpt lat="39.982825" lon="-8.391048">
<ele>331.0</ele>
<desc>Speed 6.4 km/h Distance 16.82 km</desc>
<time>2011-05-22T08:28:33.35</time>
<name>3981</name>
<sym>Dot</sym>
</trkpt>
<trkpt lat="39.982820" lon="-8.391063">
<ele>331.5</ele>
<desc>Speed 5.0 km/h Distance 16.83 km</desc>
<time>2011-05-22T08:28:34.35</time>
<name>3982</name>
<sym>Dot</sym>
</trkpt>
<trkpt lat="39.982818" lon="-8.391075">
<ele>331.5</ele>
<desc>Speed 3.6 km/h Distance 16.83 km</desc>
<time>2011-05-22T08:28:35.35</time>
<name>3983</name>
<sym>Dot</sym>
</trkpt>
<trkpt lat="39.982818" lon="-8.391085">
<ele>331.5</ele>
<desc>Speed 2.6 km/h Distance 16.83 km</desc>
<time>2011-05-22T08:28:36.35</time>
<name>3984</name>
<sym>Dot</sym>
</trkpt>
<trkpt lat="39.982808" lon="-8.391090">
<ele>331.5</ele>
<desc>Speed 1.6 km/h Distance 16.83 km</desc>
<time>2011-05-22T08:28:44.35</time>
<name>3985</name>
<sym>Dot</sym>
</trkpt>
<trkpt lat="39.982810" lon="-8.391093">
<ele>331.5</ele>
<desc>Speed 1.5 km/h Distance 16.83 km</desc>
<time>2011-05-22T08:28:45.35</time>
<name>3986</name>
<sym>Dot</sym>
</trkpt>
<trkpt lat="39.982810" lon="-8.391098">
<ele>332.0</ele>
<desc>Speed 1.3 km/h Distance 16.83 km</desc>
<time>2011-05-22T08:28:46.35</time>
<name>3987</name>
<sym>Dot</sym>
</trkpt>
<trkpt lat="39.982810" lon="-8.391102">
<ele>332.0</ele>
<desc>Speed 1.1 km/h Distance 16.83 km</desc>
<time>2011-05-22T08:28:47.35</time>
<name>3988</name>
<sym>Dot</sym>
</trkpt>
<trkpt lat="39.982813" lon="-8.391103">
<ele>332.0</ele>
<desc>Speed 1.4 km/h Distance 16.83 km</desc>
<time>2011-05-22T08:28:48.35</time>
<name>3989</name>
<sym>Dot</sym>
</trkpt>
<trkpt lat="39.982815" lon="-8.391105">
<ele>332.0</ele>
<desc>Speed 1.5 km/h Distance 16.83 km</desc>
<time>2011-05-22T08:28:49.35</time>
<name>3990</name>
<sym>Dot</sym>
</trkpt>
<trkpt lat="39.982818" lon="-8.391110">
<ele>332.5</ele>
<desc>Speed 2.0 km/h Distance 16.83 km</desc>
<time>2011-05-22T08:28:50.35</time>
<name>3991</name>
<sym>Dot</sym>
</trkpt>
<trkpt lat="39.982818" lon="-8.391118">
<ele>332.5</ele>
<desc>Speed 2.7 km/h Distance 16.83 km</desc>
<time>2011-05-22T08:28:51.35</time>
<name>3992</name>
<sym>Dot</sym>
</trkpt>
<trkpt lat="39.982817" lon="-8.391130">
<ele>332.5</ele>
<desc>Speed 3.4 km/h Distance 16.83 km</desc>
<time>2011-05-22T08:28:52.35</time>
<name>3993</name>
<sym>Dot</sym>
</trkpt>
<trkpt lat="39.982815" lon="-8.391143">
<ele>332.5</ele>
<desc>Speed 4.3 km/h Distance 16.83 km</desc>
<time>2011-05-22T08:28:53.35</time>
<name>3994</name>
<sym>Dot</sym>
</trkpt>
<trkpt lat="39.982815" lon="-8.391155">
<ele>333.0</ele>
<desc>Speed 3.4 km/h Distance 16.84 km</desc>
<time>2011-05-22T08:28:54.35</time>
<name>3995</name>
<sym>Dot</sym>
</trkpt>
<trkpt lat="39.982817" lon="-8.391158">
<ele>333.0</ele>
<desc>Speed 1.4 km/h Distance 16.84 km</desc>
<time>2011-05-22T08:28:55.35</time>
<name>3996</name>
<sym>Dot</sym>
</trkpt>
<trkpt lat="39.982817" lon="-8.391158">
<ele>333.5</ele>
<desc>Speed 1.2 km/h Distance 16.84 km</desc>
<time>2011-05-22T08:29:00.35</time>
<name>3997</name>
<sym>Dot</sym>
</trkpt>
<trkpt lat="39.982820" lon="-8.391165">
<ele>334.0</ele>
<desc>Speed 1.8 km/h Distance 16.84 km</desc>
<time>2011-05-22T08:29:03.35</time>
<name>3998</name>
<sym>Dot</sym>
</trkpt>
<trkpt lat="39.982817" lon="-8.391165">
<ele>334.0</ele>
<desc>Speed 3.6 km/h Distance 16.84 km</desc>
<time>2011-05-22T08:29:14.35</time>
<name>3999</name>
<sym>Dot</sym>
</trkpt>
<trkpt lat="39.982808" lon="-8.391157">
<ele>333.5</ele>
<desc>Speed 4.3 km/h Distance 16.84 km</desc>
<time>2011-05-22T08:29:15.35</time>
<name>4000</name>
<sym>Dot</sym>
</trkpt>
<trkpt lat="39.982805" lon="-8.391152">
<ele>332.5</ele>
<desc>Speed 2.7 km/h Distance 16.84 km</desc>
<time>2011-05-22T08:29:16.35</time>
<name>4001</name>
<sym>Dot</sym>
</trkpt>
<trkpt lat="39.982807" lon="-8.391150">
<ele>332.5</ele>
<desc>Speed 1.3 km/h Distance 16.84 km</desc>
<time>2011-05-22T08:29:17.35</time>
<name>4002</name>
<sym>Dot</sym>
</trkpt>
<trkpt lat="39.982805" lon="-8.391153">
<ele>332.5</ele>
<desc>Speed 1.8 km/h Distance 16.84 km</desc>
<time>2011-05-22T08:29:18.35</time>
<name>4003</name>
<sym>Dot</sym>
</trkpt>
<trkpt lat="39.982802" lon="-8.391152">
<ele>332.5</ele>
<desc>Speed 1.4 km/h Distance 16.84 km</desc>
<time>2011-05-22T08:29:57.35</time>
<name>4004</name>
<sym>Dot</sym>
</trkpt>
<trkpt lat="39.982803" lon="-8.391147">
<ele>333.0</ele>
<desc>Speed 1.4 km/h Distance 16.84 km</desc>
<time>2011-05-22T08:29:59.35</time>
<name>4005</name>
<sym>Dot</sym>
</trkpt>
<trkpt lat="39.982807" lon="-8.391153">
<ele>333.0</ele>
<desc>Speed 2.5 km/h Distance 16.84 km</desc>
<time>2011-05-22T08:30:00.35</time>
<name>4006</name>
<sym>Dot</sym>
</trkpt>
<trkpt lat="39.982805" lon="-8.391163">
<ele>333.5</ele>
<desc>Speed 3.6 km/h Distance 16.84 km</desc>
<time>2011-05-22T08:30:01.35</time>
<name>4007</name>
<sym>Dot</sym>
</trkpt>
<trkpt lat="39.982805" lon="-8.391173">
<ele>334.0</ele>
<desc>Speed 3.1 km/h Distance 16.84 km</desc>
<time>2011-05-22T08:30:02.35</time>
<name>4008</name>
<sym>Dot</sym>
</trkpt>
<trkpt lat="39.982808" lon="-8.391182">
<ele>334.0</ele>
<desc>Speed 2.8 km/h Distance 16.84 km</desc>
<time>2011-05-22T08:30:03.35</time>
<name>4009</name>
<sym>Dot</sym>
</trkpt>
<trkpt lat="39.982812" lon="-8.391180">
<ele>333.0</ele>
<desc>Speed 1.5 km/h Distance 16.84 km</desc>
<time>2011-05-22T08:30:14.35</time>
<name>4010</name>
<sym>Dot</sym>
</trkpt>
<trkpt lat="39.982815" lon="-8.391180">
<ele>333.0</ele>
<desc>Speed 1.4 km/h Distance 16.84 km</desc>
<time>2011-05-22T08:30:18.35</time>
<name>4011</name>
<sym>Dot</sym>
</trkpt>
<trkpt lat="39.982817" lon="-8.391172">
<ele>333.0</ele>
<desc>Speed 2.8 km/h Distance 16.84 km</desc>
<time>2011-05-22T08:30:19.35</time>
<name>4012</name>
<sym>Dot</sym>
</trkpt>
<trkpt lat="39.982820" lon="-8.391167">
<ele>333.5</ele>
<desc>Speed 1.8 km/h Distance 16.84 km</desc>
<time>2011-05-22T08:30:20.35</time>
<name>4013</name>
<sym>Dot</sym>
</trkpt>
<trkpt lat="39.982820" lon="-8.391162">
<ele>334.0</ele>
<desc>Speed 2.0 km/h Distance 16.85 km</desc>
<time>2011-05-22T08:30:21.35</time>
<name>4014</name>
<sym>Dot</sym>
</trkpt>
<trkpt lat="39.982818" lon="-8.391162">
<ele>334.0</ele>
<desc>Speed 1.3 km/h Distance 16.85 km</desc>
<time>2011-05-22T08:30:22.35</time>
<name>4015</name>
<sym>Dot</sym>
</trkpt>
<trkpt lat="39.982813" lon="-8.391163">
<ele>334.5</ele>
<desc>Speed 1.2 km/h Distance 16.85 km</desc>
<time>2011-05-22T08:30:24.35</time>
<name>4016</name>
<sym>Dot</sym>
</trkpt>
<trkpt lat="39.982810" lon="-8.391162">
<ele>334.5</ele>
<desc>Speed 1.4 km/h Distance 16.85 km</desc>
<time>2011-05-22T08:30:25.35</time>
<name>4017</name>
<sym>Dot</sym>
</trkpt>
<trkpt lat="39.982793" lon="-8.391160">
<ele>334.5</ele>
<desc>Speed 1.5 km/h Distance 16.85 km</desc>
<time>2011-05-22T08:30:47.35</time>
<name>4018</name>
<sym>Dot</sym>
</trkpt>
<trkpt lat="39.982795" lon="-8.391163">
<ele>334.5</ele>
<desc>Speed 1.1 km/h Distance 16.85 km</desc>
<time>2011-05-22T08:30:48.35</time>
<name>4019</name>
<sym>Dot</sym>
</trkpt>
<trkpt lat="39.982792" lon="-8.391170">
<ele>334.5</ele>
<desc>Speed 2.3 km/h Distance 16.85 km</desc>
<time>2011-05-22T08:30:49.35</time>
<name>4020</name>
<sym>Dot</sym>
</trkpt>
<trkpt lat="39.982788" lon="-8.391167">
<ele>333.0</ele>
<desc>Speed 1.8 km/h Distance 16.85 km</desc>
<time>2011-05-22T08:31:58.35</time>
<name>4021</name>
<sym>Dot</sym>
</trkpt>
<trkpt lat="39.982788" lon="-8.391167">
<ele>333.0</ele>
<desc>Speed 1.7 km/h Distance 16.85 km</desc>
<time>2011-05-22T08:32:14.35</time>
<name>4022</name>
<sym>Dot</sym>
</trkpt>
<trkpt lat="39.982785" lon="-8.391170">
<ele>333.0</ele>
<desc>Speed 1.2 km/h Distance 16.85 km</desc>
<time>2011-05-22T08:32:21.35</time>
<name>4023</name>
<sym>Dot</sym>
</trkpt>
<trkpt lat="39.982777" lon="-8.391153">
<ele>333.0</ele>
<desc>Speed 2.3 km/h Distance 16.85 km</desc>
<time>2011-05-22T08:33:07.35</time>
<name>4024</name>
<sym>Dot</sym>
</trkpt>
<trkpt lat="39.982778" lon="-8.391142">
<ele>333.0</ele>
<desc>Speed 3.1 km/h Distance 16.85 km</desc>
<time>2011-05-22T08:33:08.35</time>
<name>4025</name>
<sym>Dot</sym>
</trkpt>
<trkpt lat="39.982777" lon="-8.391133">
<ele>333.5</ele>
<desc>Speed 1.2 km/h Distance 16.85 km</desc>
<time>2011-05-22T08:33:14.35</time>
<name>4026</name>
<sym>Dot</sym>
</trkpt>
<trkpt lat="39.982773" lon="-8.391127">
<ele>334.0</ele>
<desc>Speed 1.6 km/h Distance 16.85 km</desc>
<time>2011-05-22T08:33:18.35</time>
<name>4027</name>
<sym>Dot</sym>
</trkpt>
<trkpt lat="39.982773" lon="-8.391120">
<ele>334.5</ele>
<desc>Speed 1.3 km/h Distance 16.86 km</desc>
<time>2011-05-22T08:33:24.35</time>
<name>4028</name>
<sym>Dot</sym>
</trkpt>
<trkpt lat="39.982773" lon="-8.391115">
<ele>335.0</ele>
<desc>Speed 1.2 km/h Distance 16.86 km</desc>
<time>2011-05-22T08:33:25.35</time>
<name>4029</name>
<sym>Dot</sym>
</trkpt>
<trkpt lat="39.982773" lon="-8.391105">
<ele>336.0</ele>
<desc>Speed 1.5 km/h Distance 16.86 km</desc>
<time>2011-05-22T08:33:32.35</time>
<name>4030</name>
<sym>Dot</sym>
</trkpt>
<trkpt lat="39.982770" lon="-8.391103">
<ele>335.5</ele>
<desc>Speed 1.3 km/h Distance 16.86 km</desc>
<time>2011-05-22T08:33:34.35</time>
<name>4031</name>
<sym>Dot</sym>
</trkpt>
<trkpt lat="39.982763" lon="-8.391107">
<ele>335.5</ele>
<desc>Speed 2.4 km/h Distance 16.86 km</desc>
<time>2011-05-22T08:33:37.35</time>
<name>4032</name>
<sym>Dot</sym>
</trkpt>
<trkpt lat="39.982760" lon="-8.391112">
<ele>335.0</ele>
<desc>Speed 2.7 km/h Distance 16.86 km</desc>
<time>2011-05-22T08:33:38.35</time>
<name>4033</name>
<sym>Dot</sym>
</trkpt>
<trkpt lat="39.982755" lon="-8.391128">
<ele>334.5</ele>
<desc>Speed 5.7 km/h Distance 16.86 km</desc>
<time>2011-05-22T08:33:39.35</time>
<name>4034</name>
<sym>Dot</sym>
</trkpt>
<trkpt lat="39.982753" lon="-8.391157">
<ele>334.0</ele>
<desc>Speed 8.3 km/h Distance 16.86 km</desc>
<time>2011-05-22T08:33:40.35</time>
<name>4035</name>
<sym>Dot</sym>
</trkpt>
<trkpt lat="39.982752" lon="-8.391192">
<ele>333.5</ele>
<desc>Speed 10.6 km/h Distance 16.87 km</desc>
<time>2011-05-22T08:33:41.35</time>
<name>4036</name>
<sym>Dot</sym>
</trkpt>
<trkpt lat="39.982748" lon="-8.391232">
<ele>333.0</ele>
<desc>Speed 12.5 km/h Distance 16.87 km</desc>
<time>2011-05-22T08:33:42.35</time>
<name>4037</name>
<sym>Dot</sym>
</trkpt>
<trkpt lat="39.982742" lon="-8.391280">
<ele>333.0</ele>
<desc>Speed 14.7 km/h Distance 16.87 km</desc>
<time>2011-05-22T08:33:43.35</time>
<name>4038</name>
<sym>Dot</sym>
</trkpt>
<trkpt lat="39.982733" lon="-8.391332">
<ele>332.5</ele>
<desc>Speed 16.5 km/h Distance 16.88 km</desc>
<time>2011-05-22T08:33:44.35</time>
<name>4039</name>
<sym>Dot</sym>
</trkpt>
<trkpt lat="39.982723" lon="-8.391388">
<ele>332.0</ele>
<desc>Speed 17.6 km/h Distance 16.88 km</desc>
<time>2011-05-22T08:33:45.35</time>
<name>4040</name>
<sym>Dot</sym>
</trkpt>
<trkpt lat="39.982715" lon="-8.391448">
<ele>332.0</ele>
<desc>Speed 18.9 km/h Distance 16.89 km</desc>
<time>2011-05-22T08:33:46.35</time>
<name>4041</name>
<sym>Dot</sym>
</trkpt>
<trkpt lat="39.982705" lon="-8.391513">
<ele>331.5</ele>
<desc>Speed 20.5 km/h Distance 16.89 km</desc>
<time>2011-05-22T08:33:47.35</time>
<name>4042</name>
<sym>Dot</sym>
</trkpt>
<trkpt lat="39.982693" lon="-8.391583">
<ele>331.5</ele>
<desc>Speed 22.1 km/h Distance 16.90 km</desc>
<time>2011-05-22T08:33:48.35</time>
<name>4043</name>
<sym>Dot</sym>
</trkpt>
<trkpt lat="39.982680" lon="-8.391660">
<ele>331.0</ele>
<desc>Speed 24.0 km/h Distance 16.91 km</desc>
<time>2011-05-22T08:33:49.35</time>
<name>4044</name>
<sym>Dot</sym>
</trkpt>
<trkpt lat="39.982665" lon="-8.391743">
<ele>330.5</ele>
<desc>Speed 26.0 km/h Distance 16.91 km</desc>
<time>2011-05-22T08:33:50.35</time>
<name>4045</name>
<sym>Dot</sym>
</trkpt>
<trkpt lat="39.982648" lon="-8.391832">
<ele>329.5</ele>
<desc>Speed 28.3 km/h Distance 16.92 km</desc>
<time>2011-05-22T08:33:51.35</time>
<name>4046</name>
<sym>Dot</sym>
</trkpt>
<trkpt lat="39.982632" lon="-8.391927">
<ele>329.5</ele>
<desc>Speed 30.1 km/h Distance 16.93 km</desc>
<time>2011-05-22T08:33:52.35</time>
<name>4047</name>
<sym>Dot</sym>
</trkpt>
<trkpt lat="39.982612" lon="-8.392028">
<ele>328.5</ele>
<desc>Speed 32.0 km/h Distance 16.94 km</desc>
<time>2011-05-22T08:33:53.35</time>
<name>4048</name>
<sym>Dot</sym>
</trkpt>
<trkpt lat="39.982592" lon="-8.392133">
<ele>328.0</ele>
<desc>Speed 33.4 km/h Distance 16.95 km</desc>
<time>2011-05-22T08:33:54.35</time>
<name>4049</name>
<sym>Dot</sym>
</trkpt>
<trkpt lat="39.982570" lon="-8.392242">
<ele>327.0</ele>
<desc>Speed 34.3 km/h Distance 16.96 km</desc>
<time>2011-05-22T08:33:55.35</time>
<name>4050</name>
<sym>Dot</sym>
</trkpt>
<trkpt lat="39.982550" lon="-8.392353">
<ele>326.5</ele>
<desc>Speed 35.3 km/h Distance 16.97 km</desc>
<time>2011-05-22T08:33:56.35</time>
<name>4051</name>
<sym>Dot</sym>
</trkpt>
<trkpt lat="39.982528" lon="-8.392472">
<ele>325.5</ele>
<desc>Speed 36.9 km/h Distance 16.98 km</desc>
<time>2011-05-22T08:33:57.35</time>
<name>4052</name>
<sym>Dot</sym>
</trkpt>
<trkpt lat="39.982507" lon="-8.392592">
<ele>325.0</ele>
<desc>Speed 38.0 km/h Distance 16.99 km</desc>
<time>2011-05-22T08:33:58.35</time>
<name>4053</name>
<sym>Dot</sym>
</trkpt>
<trkpt lat="39.982483" lon="-8.392715">
<ele>324.0</ele>
<desc>Speed 39.0 km/h Distance 17.00 km</desc>
<time>2011-05-22T08:33:59.35</time>
<name>4054</name>
<sym>Dot</sym>
</trkpt>
<trkpt lat="39.982460" lon="-8.392840">
<ele>323.5</ele>
<desc>Speed 39.5 km/h Distance 17.01 km</desc>
<time>2011-05-22T08:34:00.35</time>
<name>4055</name>
<sym>Dot</sym>
</trkpt>
<trkpt lat="39.982435" lon="-8.392965">
<ele>323.0</ele>
<desc>Speed 39.5 km/h Distance 17.02 km</desc>
<time>2011-05-22T08:34:01.35</time>
<name>4056</name>
<sym>Dot</sym>
</trkpt>
<trkpt lat="39.982412" lon="-8.393090">
<ele>323.0</ele>
<desc>Speed 39.1 km/h Distance 17.03 km</desc>
<time>2011-05-22T08:34:02.35</time>
<name>4057</name>
<sym>Dot</sym>
</trkpt>
<trkpt lat="39.982388" lon="-8.393213">
<ele>322.5</ele>
<desc>Speed 39.1 km/h Distance 17.04 km</desc>
<time>2011-05-22T08:34:03.35</time>
<name>4058</name>
<sym>Dot</sym>
</trkpt>
<trkpt lat="39.982367" lon="-8.393335">
<ele>322.0</ele>
<desc>Speed 38.2 km/h Distance 17.05 km</desc>
<time>2011-05-22T08:34:04.35</time>
<name>4059</name>
<sym>Dot</sym>
</trkpt>
<trkpt lat="39.982343" lon="-8.393455">
<ele>322.0</ele>
<desc>Speed 37.9 km/h Distance 17.06 km</desc>
<time>2011-05-22T08:34:05.35</time>
<name>4060</name>
<sym>Dot</sym>
</trkpt>
<trkpt lat="39.982320" lon="-8.393572">
<ele>322.0</ele>
<desc>Speed 37.1 km/h Distance 17.07 km</desc>
<time>2011-05-22T08:34:06.35</time>
<name>4061</name>
<sym>Dot</sym>
</trkpt>
<trkpt lat="39.982298" lon="-8.393687">
<ele>321.5</ele>
<desc>Speed 36.6 km/h Distance 17.08 km</desc>
<time>2011-05-22T08:34:07.35</time>
<name>4062</name>
<sym>Dot</sym>
</trkpt>
<trkpt lat="39.982277" lon="-8.393802">
<ele>321.5</ele>
<desc>Speed 36.0 km/h Distance 17.09 km</desc>
<time>2011-05-22T08:34:08.35</time>
<name>4063</name>
<sym>Dot</sym>
</trkpt>
<trkpt lat="39.982257" lon="-8.393912">
<ele>321.5</ele>
<desc>Speed 35.0 km/h Distance 17.10 km</desc>
<time>2011-05-22T08:34:09.35</time>
<name>4064</name>
<sym>Dot</sym>
</trkpt>
<trkpt lat="39.982237" lon="-8.394020">
<ele>322.0</ele>
<desc>Speed 34.1 km/h Distance 17.11 km</desc>
<time>2011-05-22T08:34:10.35</time>
<name>4065</name>
<sym>Dot</sym>
</trkpt>
<trkpt lat="39.982217" lon="-8.394125">
<ele>322.0</ele>
<desc>Speed 33.4 km/h Distance 17.12 km</desc>
<time>2011-05-22T08:34:11.35</time>
<name>4066</name>
<sym>Dot</sym>
</trkpt>
<trkpt lat="39.982198" lon="-8.394228">
<ele>322.5</ele>
<desc>Speed 32.2 km/h Distance 17.13 km</desc>
<time>2011-05-22T08:34:12.35</time>
<name>4067</name>
<sym>Dot</sym>
</trkpt>
<trkpt lat="39.982178" lon="-8.394327">
<ele>322.5</ele>
<desc>Speed 31.4 km/h Distance 17.14 km</desc>
<time>2011-05-22T08:34:13.35</time>
<name>4068</name>
<sym>Dot</sym>
</trkpt>
<trkpt lat="39.982158" lon="-8.394423">
<ele>322.5</ele>
<desc>Speed 30.6 km/h Distance 17.15 km</desc>
<time>2011-05-22T08:34:14.35</time>
<name>4069</name>
<sym>Dot</sym>
</trkpt>
<trkpt lat="39.982142" lon="-8.394518">
<ele>322.5</ele>
<desc>Speed 30.0 km/h Distance 17.16 km</desc>
<time>2011-05-22T08:34:15.35</time>
<name>4070</name>
<sym>Dot</sym>
</trkpt>
<trkpt lat="39.982125" lon="-8.394612">
<ele>322.5</ele>
<desc>Speed 29.3 km/h Distance 17.17 km</desc>
<time>2011-05-22T08:34:16.35</time>
<name>4071</name>
<sym>Dot</sym>
</trkpt>
<trkpt lat="39.982110" lon="-8.394705">
<ele>322.5</ele>
<desc>Speed 29.0 km/h Distance 17.17 km</desc>
<time>2011-05-22T08:34:17.35</time>
<name>4072</name>
<sym>Dot</sym>
</trkpt>
<trkpt lat="39.982093" lon="-8.394793">
<ele>322.5</ele>
<desc>Speed 28.1 km/h Distance 17.18 km</desc>
<time>2011-05-22T08:34:18.35</time>
<name>4073</name>
<sym>Dot</sym>
</trkpt>
<trkpt lat="39.982077" lon="-8.394878">
<ele>323.0</ele>
<desc>Speed 27.1 km/h Distance 17.19 km</desc>
<time>2011-05-22T08:34:19.35</time>
<name>4074</name>
<sym>Dot</sym>
</trkpt>
<trkpt lat="39.982062" lon="-8.394963">
<ele>323.0</ele>
<desc>Speed 26.9 km/h Distance 17.20 km</desc>
<time>2011-05-22T08:34:20.35</time>
<name>4075</name>
<sym>Dot</sym>
</trkpt>
<trkpt lat="39.982045" lon="-8.395047">
<ele>323.5</ele>
<desc>Speed 26.4 km/h Distance 17.20 km</desc>
<time>2011-05-22T08:34:21.35</time>
<name>4076</name>
<sym>Dot</sym>
</trkpt>
<trkpt lat="39.982030" lon="-8.395130">
<ele>323.5</ele>
<desc>Speed 26.4 km/h Distance 17.21 km</desc>
<time>2011-05-22T08:34:22.35</time>
<name>4077</name>
<sym>Dot</sym>
</trkpt>
<trkpt lat="39.982013" lon="-8.395213">
<ele>324.0</ele>
<desc>Speed 26.1 km/h Distance 17.22 km</desc>
<time>2011-05-22T08:34:23.35</time>
<name>4078</name>
<sym>Dot</sym>
</trkpt>
<trkpt lat="39.981995" lon="-8.395295">
<ele>324.5</ele>
<desc>Speed 26.1 km/h Distance 17.23 km</desc>
<time>2011-05-22T08:34:24.35</time>
<name>4079</name>
<sym>Dot</sym>
</trkpt>
<trkpt lat="39.981975" lon="-8.395378">
<ele>324.5</ele>
<desc>Speed 26.8 km/h Distance 17.23 km</desc>
<time>2011-05-22T08:34:25.35</time>
<name>4080</name>
<sym>Dot</sym>
</trkpt>
<trkpt lat="39.981960" lon="-8.395463">
<ele>325.0</ele>
<desc>Speed 26.6 km/h Distance 17.24 km</desc>
<time>2011-05-22T08:34:26.35</time>
<name>4081</name>
<sym>Dot</sym>
</trkpt>
<trkpt lat="39.981945" lon="-8.395547">
<ele>325.5</ele>
<desc>Speed 26.3 km/h Distance 17.25 km</desc>
<time>2011-05-22T08:34:27.35</time>
<name>4082</name>
<sym>Dot</sym>
</trkpt>
<trkpt lat="39.981930" lon="-8.395630">
<ele>325.5</ele>
<desc>Speed 26.3 km/h Distance 17.25 km</desc>
<time>2011-05-22T08:34:28.35</time>
<name>4083</name>
<sym>Dot</sym>
</trkpt>
<trkpt lat="39.981915" lon="-8.395713">
<ele>325.5</ele>
<desc>Speed 26.1 km/h Distance 17.26 km</desc>
<time>2011-05-22T08:34:29.35</time>
<name>4084</name>
<sym>Dot</sym>
</trkpt>
<trkpt lat="39.981902" lon="-8.395793">
<ele>326.5</ele>
<desc>Speed 25.0 km/h Distance 17.27 km</desc>
<time>2011-05-22T08:34:30.35</time>
<name>4085</name>
<sym>Dot</sym>
</trkpt>
<trkpt lat="39.981883" lon="-8.395873">
<ele>326.5</ele>
<desc>Speed 25.3 km/h Distance 17.28 km</desc>
<time>2011-05-22T08:34:31.35</time>
<name>4086</name>
<sym>Dot</sym>
</trkpt>
<trkpt lat="39.981867" lon="-8.395952">
<ele>327.0</ele>
<desc>Speed 25.3 km/h Distance 17.28 km</desc>
<time>2011-05-22T08:34:32.35</time>
<name>4087</name>
<sym>Dot</sym>
</trkpt>
<trkpt lat="39.981850" lon="-8.396033">
<ele>327.5</ele>
<desc>Speed 25.8 km/h Distance 17.29 km</desc>
<time>2011-05-22T08:34:33.35</time>
<name>4088</name>
<sym>Dot</sym>
</trkpt>
<trkpt lat="39.981835" lon="-8.396113">
<ele>327.5</ele>
<desc>Speed 25.4 km/h Distance 17.30 km</desc>
<time>2011-05-22T08:34:34.35</time>
<name>4089</name>
<sym>Dot</sym>
</trkpt>
<trkpt lat="39.981820" lon="-8.396193">
<ele>327.5</ele>
<desc>Speed 25.5 km/h Distance 17.30 km</desc>
<time>2011-05-22T08:34:35.35</time>
<name>4090</name>
<sym>Dot</sym>
</trkpt>
<trkpt lat="39.981805" lon="-8.396275">
<ele>328.0</ele>
<desc>Speed 25.3 km/h Distance 17.31 km</desc>
<time>2011-05-22T08:34:36.35</time>
<name>4091</name>
<sym>Dot</sym>
</trkpt>
<trkpt lat="39.981790" lon="-8.396357">
<ele>328.0</ele>
<desc>Speed 25.6 km/h Distance 17.32 km</desc>
<time>2011-05-22T08:34:37.35</time>
<name>4092</name>
<sym>Dot</sym>
</trkpt>
<trkpt lat="39.981775" lon="-8.396437">
<ele>328.5</ele>
<desc>Speed 25.7 km/h Distance 17.33 km</desc>
<time>2011-05-22T08:34:38.35</time>
<name>4093</name>
<sym>Dot</sym>
</trkpt>
<trkpt lat="39.981762" lon="-8.396515">
<ele>328.5</ele>
<desc>Speed 24.6 km/h Distance 17.33 km</desc>
<time>2011-05-22T08:34:39.35</time>
<name>4094</name>
<sym>Dot</sym>
</trkpt>
<trkpt lat="39.981748" lon="-8.396590">
<ele>329.5</ele>
<desc>Speed 23.6 km/h Distance 17.34 km</desc>
<time>2011-05-22T08:34:40.35</time>
<name>4095</name>
<sym>Dot</sym>
</trkpt>
<trkpt lat="39.981733" lon="-8.396663">
<ele>329.5</ele>
<desc>Speed 23.4 km/h Distance 17.35 km</desc>
<time>2011-05-22T08:34:41.35</time>
<name>4096</name>
<sym>Dot</sym>
</trkpt>
<trkpt lat="39.981720" lon="-8.396735">
<ele>330.0</ele>
<desc>Speed 23.1 km/h Distance 17.35 km</desc>
<time>2011-05-22T08:34:42.35</time>
<name>4097</name>
<sym>Dot</sym>
</trkpt>
<trkpt lat="39.981707" lon="-8.396807">
<ele>330.5</ele>
<desc>Speed 22.6 km/h Distance 17.36 km</desc>
<time>2011-05-22T08:34:43.35</time>
<name>4098</name>
<sym>Dot</sym>
</trkpt>
<trkpt lat="39.981688" lon="-8.396878">
<ele>331.0</ele>
<desc>Speed 22.8 km/h Distance 17.36 km</desc>
<time>2011-05-22T08:34:44.35</time>
<name>4099</name>
<sym>Dot</sym>
</trkpt>
<trkpt lat="39.981670" lon="-8.396948">
<ele>331.5</ele>
<desc>Speed 22.8 km/h Distance 17.37 km</desc>
<time>2011-05-22T08:34:45.35</time>
<name>4100</name>
<sym>Dot</sym>
</trkpt>
<trkpt lat="39.981657" lon="-8.397020">
<ele>331.5</ele>
<desc>Speed 22.8 km/h Distance 17.38 km</desc>
<time>2011-05-22T08:34:46.35</time>
<name>4101</name>
<sym>Dot</sym>
</trkpt>
<trkpt lat="39.981647" lon="-8.397093">
<ele>332.0</ele>
<desc>Speed 22.8 km/h Distance 17.38 km</desc>
<time>2011-05-22T08:34:47.35</time>
<name>4102</name>
<sym>Dot</sym>
</trkpt>
<trkpt lat="39.981638" lon="-8.397168">
<ele>332.5</ele>
<desc>Speed 23.0 km/h Distance 17.39 km</desc>
<time>2011-05-22T08:34:48.35</time>
<name>4103</name>
<sym>Dot</sym>
</trkpt>
<trkpt lat="39.981628" lon="-8.397240">
<ele>333.0</ele>
<desc>Speed 22.5 km/h Distance 17.40 km</desc>
<time>2011-05-22T08:34:49.35</time>
<name>4104</name>
<sym>Dot</sym>
</trkpt>
<trkpt lat="39.981613" lon="-8.397310">
<ele>333.0</ele>
<desc>Speed 22.1 km/h Distance 17.40 km</desc>
<time>2011-05-22T08:34:50.35</time>
<name>4105</name>
<sym>Dot</sym>
</trkpt>
<trkpt lat="39.981597" lon="-8.397375">
<ele>334.0</ele>
<desc>Speed 21.1 km/h Distance 17.41 km</desc>
<time>2011-05-22T08:34:51.35</time>
<name>4106</name>
<sym>Dot</sym>
</trkpt>
<trkpt lat="39.981582" lon="-8.397442">
<ele>334.5</ele>
<desc>Speed 21.4 km/h Distance 17.41 km</desc>
<time>2011-05-22T08:34:52.35</time>
<name>4107</name>
<sym>Dot</sym>
</trkpt>
<trkpt lat="39.981567" lon="-8.397508">
<ele>334.5</ele>
<desc>Speed 21.2 km/h Distance 17.42 km</desc>
<time>2011-05-22T08:34:53.35</time>
<name>4108</name>
<sym>Dot</sym>
</trkpt>
<trkpt lat="39.981557" lon="-8.397577">
<ele>335.0</ele>
<desc>Speed 21.4 km/h Distance 17.43 km</desc>
<time>2011-05-22T08:34:54.35</time>
<name>4109</name>
<sym>Dot</sym>
</trkpt>
<trkpt lat="39.981548" lon="-8.397643">
<ele>335.5</ele>
<desc>Speed 21.0 km/h Distance 17.43 km</desc>
<time>2011-05-22T08:34:55.35</time>
<name>4110</name>
<sym>Dot</sym>
</trkpt>
<trkpt lat="39.981537" lon="-8.397712">
<ele>336.0</ele>
<desc>Speed 21.2 km/h Distance 17.44 km</desc>
<time>2011-05-22T08:34:56.35</time>
<name>4111</name>
<sym>Dot</sym>
</trkpt>
<trkpt lat="39.981528" lon="-8.397775">
<ele>336.0</ele>
<desc>Speed 19.7 km/h Distance 17.44 km</desc>
<time>2011-05-22T08:34:57.35</time>
<name>4112</name>
<sym>Dot</sym>
</trkpt>
<trkpt lat="39.981517" lon="-8.397833">
<ele>336.5</ele>
<desc>Speed 18.6 km/h Distance 17.45 km</desc>
<time>2011-05-22T08:34:58.35</time>
<name>4113</name>
<sym>Dot</sym>
</trkpt>
<trkpt lat="39.981508" lon="-8.397887">
<ele>336.5</ele>
<desc>Speed 16.8 km/h Distance 17.45 km</desc>
<time>2011-05-22T08:34:59.35</time>
<name>4114</name>
<sym>Dot</sym>
</trkpt>
<trkpt lat="39.981498" lon="-8.397935">
<ele>337.0</ele>
<desc>Speed 15.5 km/h Distance 17.46 km</desc>
<time>2011-05-22T08:35:00.35</time>
<name>4115</name>
<sym>Dot</sym>
</trkpt>
<trkpt lat="39.981492" lon="-8.397977">
<ele>337.5</ele>
<desc>Speed 12.9 km/h Distance 17.46 km</desc>
<time>2011-05-22T08:35:01.35</time>
<name>4116</name>
<sym>Dot</sym>
</trkpt>
<trkpt lat="39.981485" lon="-8.398017">
<ele>337.5</ele>
<desc>Speed 12.7 km/h Distance 17.46 km</desc>
<time>2011-05-22T08:35:02.35</time>
<name>4117</name>
<sym>Dot</sym>
</trkpt>
<trkpt lat="39.981477" lon="-8.398053">
<ele>337.5</ele>
<desc>Speed 11.5 km/h Distance 17.47 km</desc>
<time>2011-05-22T08:35:03.35</time>
<name>4118</name>
<sym>Dot</sym>
</trkpt>
<trkpt lat="39.981463" lon="-8.398087">
<ele>337.5</ele>
<desc>Speed 11.3 km/h Distance 17.47 km</desc>
<time>2011-05-22T08:35:04.35</time>
<name>4119</name>
<sym>Dot</sym>
</trkpt>
<trkpt lat="39.981445" lon="-8.398115">
<ele>337.5</ele>
<desc>Speed 11.4 km/h Distance 17.47 km</desc>
<time>2011-05-22T08:35:05.35</time>
<name>4120</name>
<sym>Dot</sym>
</trkpt>
<trkpt lat="39.981422" lon="-8.398135">
<ele>338.0</ele>
<desc>Speed 11.4 km/h Distance 17.48 km</desc>
<time>2011-05-22T08:35:06.35</time>
<name>4121</name>
<sym>Dot</sym>
</trkpt>
<trkpt lat="39.981395" lon="-8.398145">
<ele>338.0</ele>
<desc>Speed 10.9 km/h Distance 17.48 km</desc>
<time>2011-05-22T08:35:07.35</time>
<name>4122</name>
<sym>Dot</sym>
</trkpt>
<trkpt lat="39.981373" lon="-8.398148">
<ele>338.5</ele>
<desc>Speed 9.1 km/h Distance 17.48 km</desc>
<time>2011-05-22T08:35:08.35</time>
<name>4123</name>
<sym>Dot</sym>
</trkpt>
<trkpt lat="39.981355" lon="-8.398150">
<ele>338.5</ele>
<desc>Speed 7.7 km/h Distance 17.48 km</desc>
<time>2011-05-22T08:35:09.35</time>
<name>4124</name>
<sym>Dot</sym>
</trkpt>
<trkpt lat="39.981343" lon="-8.398150">
<ele>339.0</ele>
<desc>Speed 5.5 km/h Distance 17.49 km</desc>
<time>2011-05-22T08:35:10.35</time>
<name>4125</name>
<sym>Dot</sym>
</trkpt>
<trkpt lat="39.981337" lon="-8.398158">
<ele>339.0</ele>
<desc>Speed 4.0 km/h Distance 17.49 km</desc>
<time>2011-05-22T08:35:11.35</time>
<name>4126</name>
<sym>Dot</sym>
</trkpt>
<trkpt lat="39.981338" lon="-8.398167">
<ele>339.0</ele>
<desc>Speed 2.3 km/h Distance 17.49 km</desc>
<time>2011-05-22T08:35:12.35</time>
<name>4127</name>
<sym>Dot</sym>
</trkpt>
<trkpt lat="39.981342" lon="-8.398172">
<ele>339.0</ele>
<desc>Speed 1.8 km/h Distance 17.49 km</desc>
<time>2011-05-22T08:35:13.35</time>
<name>4128</name>
<sym>Dot</sym>
</trkpt>
<trkpt lat="39.981350" lon="-8.398173">
<ele>339.0</ele>
<desc>Speed 3.1 km/h Distance 17.49 km</desc>
<time>2011-05-22T08:35:14.35</time>
<name>4129</name>
<sym>Dot</sym>
</trkpt>
<trkpt lat="39.981360" lon="-8.398173">
<ele>338.5</ele>
<desc>Speed 4.1 km/h Distance 17.49 km</desc>
<time>2011-05-22T08:35:15.35</time>
<name>4130</name>
<sym>Dot</sym>
</trkpt>
<trkpt lat="39.981370" lon="-8.398168">
<ele>338.5</ele>
<desc>Speed 4.0 km/h Distance 17.49 km</desc>
<time>2011-05-22T08:35:16.35</time>
<name>4131</name>
<sym>Dot</sym>
</trkpt>
<trkpt lat="39.981373" lon="-8.398163">
<ele>338.5</ele>
<desc>Speed 2.2 km/h Distance 17.49 km</desc>
<time>2011-05-22T08:35:17.35</time>
<name>4132</name>
<sym>Dot</sym>
</trkpt>
<trkpt lat="39.981378" lon="-8.398160">
<ele>338.0</ele>
<desc>Speed 2.1 km/h Distance 17.49 km</desc>
<time>2011-05-22T08:35:37.35</time>
<name>4133</name>
<sym>Dot</sym>
</trkpt>
<trkpt lat="39.981387" lon="-8.398158">
<ele>338.0</ele>
<desc>Speed 3.5 km/h Distance 17.49 km</desc>
<time>2011-05-22T08:35:38.35</time>
<name>4134</name>
<sym>Dot</sym>
</trkpt>
<trkpt lat="39.981395" lon="-8.398158">
<ele>338.0</ele>
<desc>Speed 3.9 km/h Distance 17.49 km</desc>
<time>2011-05-22T08:35:39.35</time>
<name>4135</name>
<sym>Dot</sym>
</trkpt>
<trkpt lat="39.981400" lon="-8.398168">
<ele>338.0</ele>
<desc>Speed 3.3 km/h Distance 17.50 km</desc>
<time>2011-05-22T08:35:40.35</time>
<name>4136</name>
<sym>Dot</sym>
</trkpt>
<trkpt lat="39.981402" lon="-8.398180">
<ele>338.0</ele>
<desc>Speed 3.6 km/h Distance 17.50 km</desc>
<time>2011-05-22T08:35:41.35</time>
<name>4137</name>
<sym>Dot</sym>
</trkpt>
<trkpt lat="39.981405" lon="-8.398193">
<ele>338.0</ele>
<desc>Speed 4.2 km/h Distance 17.50 km</desc>
<time>2011-05-22T08:35:42.35</time>
<name>4138</name>
<sym>Dot</sym>
</trkpt>
<trkpt lat="39.981408" lon="-8.398212">
<ele>337.5</ele>
<desc>Speed 5.7 km/h Distance 17.50 km</desc>
<time>2011-05-22T08:35:43.35</time>
<name>4139</name>
<sym>Dot</sym>
</trkpt>
<trkpt lat="39.981407" lon="-8.398230">
<ele>337.5</ele>
<desc>Speed 5.4 km/h Distance 17.50 km</desc>
<time>2011-05-22T08:35:44.35</time>
<name>4140</name>
<sym>Dot</sym>
</trkpt>
<trkpt lat="39.981402" lon="-8.398248">
<ele>337.5</ele>
<desc>Speed 5.7 km/h Distance 17.50 km</desc>
<time>2011-05-22T08:35:45.35</time>
<name>4141</name>
<sym>Dot</sym>
</trkpt>
<trkpt lat="39.981400" lon="-8.398265">
<ele>337.5</ele>
<desc>Speed 5.1 km/h Distance 17.50 km</desc>
<time>2011-05-22T08:35:46.35</time>
<name>4142</name>
<sym>Dot</sym>
</trkpt>
<trkpt lat="39.981400" lon="-8.398285">
<ele>337.5</ele>
<desc>Speed 5.9 km/h Distance 17.51 km</desc>
<time>2011-05-22T08:35:47.35</time>
<name>4143</name>
<sym>Dot</sym>
</trkpt>
<trkpt lat="39.981398" lon="-8.398305">
<ele>337.5</ele>
<desc>Speed 6.0 km/h Distance 17.51 km</desc>
<time>2011-05-22T08:35:48.35</time>
<name>4144</name>
<sym>Dot</sym>
</trkpt>
<trkpt lat="39.981397" lon="-8.398322">
<ele>337.5</ele>
<desc>Speed 4.9 km/h Distance 17.51 km</desc>
<time>2011-05-22T08:35:49.35</time>
<name>4145</name>
<sym>Dot</sym>
</trkpt>
<trkpt lat="39.981392" lon="-8.398333">
<ele>337.5</ele>
<desc>Speed 4.3 km/h Distance 17.51 km</desc>
<time>2011-05-22T08:35:50.35</time>
<name>4146</name>
<sym>Dot</sym>
</trkpt>
<trkpt lat="39.981392" lon="-8.398347">
<ele>337.5</ele>
<desc>Speed 3.9 km/h Distance 17.51 km</desc>
<time>2011-05-22T08:35:51.35</time>
<name>4147</name>
<sym>Dot</sym>
</trkpt>
<trkpt lat="39.981390" lon="-8.398358">
<ele>337.0</ele>
<desc>Speed 3.6 km/h Distance 17.51 km</desc>
<time>2011-05-22T08:35:52.35</time>
<name>4148</name>
<sym>Dot</sym>
</trkpt>
<trkpt lat="39.981388" lon="-8.398370">
<ele>337.0</ele>
<desc>Speed 3.6 km/h Distance 17.51 km</desc>
<time>2011-05-22T08:35:53.35</time>
<name>4149</name>
<sym>Dot</sym>
</trkpt>
<trkpt lat="39.981383" lon="-8.398385">
<ele>337.0</ele>
<desc>Speed 4.8 km/h Distance 17.51 km</desc>
<time>2011-05-22T08:35:54.35</time>
<name>4150</name>
<sym>Dot</sym>
</trkpt>
<trkpt lat="39.981377" lon="-8.398400">
<ele>337.0</ele>
<desc>Speed 4.9 km/h Distance 17.52 km</desc>
<time>2011-05-22T08:35:55.35</time>
<name>4151</name>
<sym>Dot</sym>
</trkpt>
<trkpt lat="39.981372" lon="-8.398415">
<ele>337.0</ele>
<desc>Speed 4.6 km/h Distance 17.52 km</desc>
<time>2011-05-22T08:35:56.35</time>
<name>4152</name>
<sym>Dot</sym>
</trkpt>
<trkpt lat="39.981368" lon="-8.398430">
<ele>337.0</ele>
<desc>Speed 4.4 km/h Distance 17.52 km</desc>
<time>2011-05-22T08:35:57.35</time>
<name>4153</name>
<sym>Dot</sym>
</trkpt>
<trkpt lat="39.981365" lon="-8.398442">
<ele>336.5</ele>
<desc>Speed 4.0 km/h Distance 17.52 km</desc>
<time>2011-05-22T08:35:58.35</time>
<name>4154</name>
<sym>Dot</sym>
</trkpt>
<trkpt lat="39.981362" lon="-8.398460">
<ele>336.5</ele>
<desc>Speed 5.8 km/h Distance 17.52 km</desc>
<time>2011-05-22T08:35:59.35</time>
<name>4155</name>
<sym>Dot</sym>
</trkpt>
<trkpt lat="39.981360" lon="-8.398480">
<ele>336.5</ele>
<desc>Speed 5.8 km/h Distance 17.52 km</desc>
<time>2011-05-22T08:36:00.35</time>
<name>4156</name>
<sym>Dot</sym>
</trkpt>
<trkpt lat="39.981362" lon="-8.398502">
<ele>336.5</ele>
<desc>Speed 6.7 km/h Distance 17.53 km</desc>
<time>2011-05-22T08:36:01.35</time>
<name>4157</name>
<sym>Dot</sym>
</trkpt>
<trkpt lat="39.981358" lon="-8.398528">
<ele>336.5</ele>
<desc>Speed 8.3 km/h Distance 17.53 km</desc>
<time>2011-05-22T08:36:02.35</time>
<name>4158</name>
<sym>Dot</sym>
</trkpt>
<trkpt lat="39.981353" lon="-8.398557">
<ele>336.5</ele>
<desc>Speed 8.9 km/h Distance 17.53 km</desc>
<time>2011-05-22T08:36:03.35</time>
<name>4159</name>
<sym>Dot</sym>
</trkpt>
<trkpt lat="39.981350" lon="-8.398588">
<ele>336.5</ele>
<desc>Speed 9.6 km/h Distance 17.53 km</desc>
<time>2011-05-22T08:36:04.35</time>
<name>4160</name>
<sym>Dot</sym>
</trkpt>
<trkpt lat="39.981347" lon="-8.398623">
<ele>336.5</ele>
<desc>Speed 10.4 km/h Distance 17.54 km</desc>
<time>2011-05-22T08:36:05.35</time>
<name>4161</name>
<sym>Dot</sym>
</trkpt>
<trkpt lat="39.981342" lon="-8.398658">
<ele>336.5</ele>
<desc>Speed 10.8 km/h Distance 17.54 km</desc>
<time>2011-05-22T08:36:06.35</time>
<name>4162</name>
<sym>Dot</sym>
</trkpt>
<trkpt lat="39.981337" lon="-8.398695">
<ele>336.5</ele>
<desc>Speed 11.3 km/h Distance 17.54 km</desc>
<time>2011-05-22T08:36:07.35</time>
<name>4163</name>
<sym>Dot</sym>
</trkpt>
<trkpt lat="39.981333" lon="-8.398735">
<ele>336.5</ele>
<desc>Speed 11.8 km/h Distance 17.55 km</desc>
<time>2011-05-22T08:36:08.35</time>
<name>4164</name>
<sym>Dot</sym>
</trkpt>
<trkpt lat="39.981330" lon="-8.398777">
<ele>337.0</ele>
<desc>Speed 12.4 km/h Distance 17.55 km</desc>
<time>2011-05-22T08:36:09.35</time>
<name>4165</name>
<sym>Dot</sym>
</trkpt>
<trkpt lat="39.981325" lon="-8.398820">
<ele>337.0</ele>
<desc>Speed 12.8 km/h Distance 17.55 km</desc>
<time>2011-05-22T08:36:10.35</time>
<name>4166</name>
<sym>Dot</sym>
</trkpt>
<trkpt lat="39.981317" lon="-8.398863">
<ele>337.0</ele>
<desc>Speed 12.9 km/h Distance 17.56 km</desc>
<time>2011-05-22T08:36:11.35</time>
<name>4167</name>
<sym>Dot</sym>
</trkpt>
<trkpt lat="39.981307" lon="-8.398905">
<ele>337.0</ele>
<desc>Speed 13.2 km/h Distance 17.56 km</desc>
<time>2011-05-22T08:36:12.35</time>
<name>4168</name>
<sym>Dot</sym>
</trkpt>
<trkpt lat="39.981295" lon="-8.398947">
<ele>337.0</ele>
<desc>Speed 12.9 km/h Distance 17.56 km</desc>
<time>2011-05-22T08:36:13.35</time>
<name>4169</name>
<sym>Dot</sym>
</trkpt>
<trkpt lat="39.981287" lon="-8.398988">
<ele>337.0</ele>
<desc>Speed 12.8 km/h Distance 17.57 km</desc>
<time>2011-05-22T08:36:14.35</time>
<name>4170</name>
<sym>Dot</sym>
</trkpt>
<trkpt lat="39.981282" lon="-8.399030">
<ele>337.0</ele>
<desc>Speed 12.7 km/h Distance 17.57 km</desc>
<time>2011-05-22T08:36:15.35</time>
<name>4171</name>
<sym>Dot</sym>
</trkpt>
<trkpt lat="39.981277" lon="-8.399072">
<ele>337.0</ele>
<desc>Speed 12.6 km/h Distance 17.57 km</desc>
<time>2011-05-22T08:36:16.35</time>
<name>4172</name>
<sym>Dot</sym>
</trkpt>
<trkpt lat="39.981268" lon="-8.399113">
<ele>337.0</ele>
<desc>Speed 12.5 km/h Distance 17.58 km</desc>
<time>2011-05-22T08:36:17.35</time>
<name>4173</name>
<sym>Dot</sym>
</trkpt>
<trkpt lat="39.981260" lon="-8.399153">
<ele>337.0</ele>
<desc>Speed 12.6 km/h Distance 17.58 km</desc>
<time>2011-05-22T08:36:18.35</time>
<name>4174</name>
<sym>Dot</sym>
</trkpt>
<trkpt lat="39.981252" lon="-8.399195">
<ele>337.0</ele>
<desc>Speed 13.2 km/h Distance 17.59 km</desc>
<time>2011-05-22T08:36:19.35</time>
<name>4175</name>
<sym>Dot</sym>
</trkpt>
<trkpt lat="39.981247" lon="-8.399238">
<ele>337.0</ele>
<desc>Speed 13.1 km/h Distance 17.59 km</desc>
<time>2011-05-22T08:36:20.35</time>
<name>4176</name>
<sym>Dot</sym>
</trkpt>
<trkpt lat="39.981242" lon="-8.399282">
<ele>336.5</ele>
<desc>Speed 13.2 km/h Distance 17.59 km</desc>
<time>2011-05-22T08:36:21.35</time>
<name>4177</name>
<sym>Dot</sym>
</trkpt>
<trkpt lat="39.981237" lon="-8.399325">
<ele>336.5</ele>
<desc>Speed 13.8 km/h Distance 17.60 km</desc>
<time>2011-05-22T08:36:22.35</time>
<name>4178</name>
<sym>Dot</sym>
</trkpt>
<trkpt lat="39.981232" lon="-8.399372">
<ele>336.5</ele>
<desc>Speed 14.1 km/h Distance 17.60 km</desc>
<time>2011-05-22T08:36:23.35</time>
<name>4179</name>
<sym>Dot</sym>
</trkpt>
<trkpt lat="39.981227" lon="-8.399418">
<ele>336.5</ele>
<desc>Speed 14.7 km/h Distance 17.60 km</desc>
<time>2011-05-22T08:36:24.35</time>
<name>4180</name>
<sym>Dot</sym>
</trkpt>
<trkpt lat="39.981222" lon="-8.399468">
<ele>336.5</ele>
<desc>Speed 15.0 km/h Distance 17.61 km</desc>
<time>2011-05-22T08:36:25.35</time>
<name>4181</name>
<sym>Dot</sym>
</trkpt>
<trkpt lat="39.981215" lon="-8.399518">
<ele>336.5</ele>
<desc>Speed 15.5 km/h Distance 17.61 km</desc>
<time>2011-05-22T08:36:26.35</time>
<name>4182</name>
<sym>Dot</sym>
</trkpt>
<trkpt lat="39.981205" lon="-8.399568">
<ele>336.5</ele>
<desc>Speed 16.2 km/h Distance 17.62 km</desc>
<time>2011-05-22T08:36:27.35</time>
<name>4183</name>
<sym>Dot</sym>
</trkpt>
<trkpt lat="39.981195" lon="-8.399623">
<ele>336.0</ele>
<desc>Speed 17.0 km/h Distance 17.62 km</desc>
<time>2011-05-22T08:36:28.35</time>
<name>4184</name>
<sym>Dot</sym>
</trkpt>
<trkpt lat="39.981183" lon="-8.399680">
<ele>336.0</ele>
<desc>Speed 18.2 km/h Distance 17.63 km</desc>
<time>2011-05-22T08:36:29.35</time>
<name>4185</name>
<sym>Dot</sym>
</trkpt>
<trkpt lat="39.981168" lon="-8.399740">
<ele>336.0</ele>
<desc>Speed 19.3 km/h Distance 17.63 km</desc>
<time>2011-05-22T08:36:30.35</time>
<name>4186</name>
<sym>Dot</sym>
</trkpt>
<trkpt lat="39.981152" lon="-8.399803">
<ele>335.5</ele>
<desc>Speed 20.4 km/h Distance 17.64 km</desc>
<time>2011-05-22T08:36:31.35</time>
<name>4187</name>
<sym>Dot</sym>
</trkpt>
<trkpt lat="39.981130" lon="-8.399867">
<ele>335.0</ele>
<desc>Speed 21.6 km/h Distance 17.64 km</desc>
<time>2011-05-22T08:36:32.35</time>
<name>4188</name>
<sym>Dot</sym>
</trkpt>
<trkpt lat="39.981100" lon="-8.399935">
<ele>334.5</ele>
<desc>Speed 23.6 km/h Distance 17.65 km</desc>
<time>2011-05-22T08:36:33.35</time>
<name>4189</name>
<sym>Dot</sym>
</trkpt>
<trkpt lat="39.981062" lon="-8.400002">
<ele>334.5</ele>
<desc>Speed 25.7 km/h Distance 17.66 km</desc>
<time>2011-05-22T08:36:34.35</time>
<name>4190</name>
<sym>Dot</sym>
</trkpt>
<trkpt lat="39.981017" lon="-8.400070">
<ele>334.0</ele>
<desc>Speed 27.3 km/h Distance 17.67 km</desc>
<time>2011-05-22T08:36:35.35</time>
<name>4191</name>
<sym>Dot</sym>
</trkpt>
<trkpt lat="39.980968" lon="-8.400135">
<ele>333.5</ele>
<desc>Speed 28.6 km/h Distance 17.67 km</desc>
<time>2011-05-22T08:36:36.35</time>
<name>4192</name>
<sym>Dot</sym>
</trkpt>
<trkpt lat="39.980912" lon="-8.400197">
<ele>333.0</ele>
<desc>Speed 29.5 km/h Distance 17.68 km</desc>
<time>2011-05-22T08:36:37.35</time>
<name>4193</name>
<sym>Dot</sym>
</trkpt>
<trkpt lat="39.980847" lon="-8.400248">
<ele>332.5</ele>
<desc>Speed 30.3 km/h Distance 17.69 km</desc>
<time>2011-05-22T08:36:38.35</time>
<name>4194</name>
<sym>Dot</sym>
</trkpt>
<trkpt lat="39.980777" lon="-8.400292">
<ele>332.0</ele>
<desc>Speed 31.4 km/h Distance 17.70 km</desc>
<time>2011-05-22T08:36:39.35</time>
<name>4195</name>
<sym>Dot</sym>
</trkpt>
<trkpt lat="39.980705" lon="-8.400333">
<ele>331.5</ele>
<desc>Speed 31.9 km/h Distance 17.71 km</desc>
<time>2011-05-22T08:36:40.35</time>
<name>4196</name>
<sym>Dot</sym>
</trkpt>
<trkpt lat="39.980630" lon="-8.400372">
<ele>331.0</ele>
<desc>Speed 32.7 km/h Distance 17.72 km</desc>
<time>2011-05-22T08:36:41.35</time>
<name>4197</name>
<sym>Dot</sym>
</trkpt>
<trkpt lat="39.980552" lon="-8.400408">
<ele>331.0</ele>
<desc>Speed 33.6 km/h Distance 17.73 km</desc>
<time>2011-05-22T08:36:42.35</time>
<name>4198</name>
<sym>Dot</sym>
</trkpt>
<trkpt lat="39.980472" lon="-8.400447">
<ele>330.5</ele>
<desc>Speed 34.1 km/h Distance 17.74 km</desc>
<time>2011-05-22T08:36:43.34</time>
<name>4199</name>
<sym>Dot</sym>
</trkpt>
<trkpt lat="39.980388" lon="-8.400480">
<ele>330.0</ele>
<desc>Speed 35.0 km/h Distance 17.75 km</desc>
<time>2011-05-22T08:36:44.34</time>
<name>4200</name>
<sym>Dot</sym>
</trkpt>
<trkpt lat="39.980303" lon="-8.400510">
<ele>329.5</ele>
<desc>Speed 36.0 km/h Distance 17.76 km</desc>
<time>2011-05-22T08:36:45.34</time>
<name>4201</name>
<sym>Dot</sym>
</trkpt>
<trkpt lat="39.980213" lon="-8.400538">
<ele>329.0</ele>
<desc>Speed 37.0 km/h Distance 17.77 km</desc>
<time>2011-05-22T08:36:46.34</time>
<name>4202</name>
<sym>Dot</sym>
</trkpt>
<trkpt lat="39.980122" lon="-8.400563">
<ele>328.5</ele>
<desc>Speed 38.1 km/h Distance 17.78 km</desc>
<time>2011-05-22T08:36:47.34</time>
<name>4203</name>
<sym>Dot</sym>
</trkpt>
<trkpt lat="39.980027" lon="-8.400590">
<ele>328.0</ele>
<desc>Speed 39.0 km/h Distance 17.79 km</desc>
<time>2011-05-22T08:36:48.34</time>
<name>4204</name>
<sym>Dot</sym>
</trkpt>
<trkpt lat="39.979928" lon="-8.400613">
<ele>327.0</ele>
<desc>Speed 40.1 km/h Distance 17.80 km</desc>
<time>2011-05-22T08:36:49.34</time>
<name>4205</name>
<sym>Dot</sym>
</trkpt>
<trkpt lat="39.979827" lon="-8.400640">
<ele>326.5</ele>
<desc>Speed 41.1 km/h Distance 17.81 km</desc>
<time>2011-05-22T08:36:50.34</time>
<name>4206</name>
<sym>Dot</sym>
</trkpt>
<trkpt lat="39.979725" lon="-8.400663">
<ele>325.5</ele>
<desc>Speed 41.9 km/h Distance 17.82 km</desc>
<time>2011-05-22T08:36:51.34</time>
<name>4207</name>
<sym>Dot</sym>
</trkpt>
<trkpt lat="39.979618" lon="-8.400688">
<ele>325.0</ele>
<desc>Speed 42.8 km/h Distance 17.83 km</desc>
<time>2011-05-22T08:36:52.34</time>
<name>4208</name>
<sym>Dot</sym>
</trkpt>
<trkpt lat="39.979512" lon="-8.400713">
<ele>324.0</ele>
<desc>Speed 43.8 km/h Distance 17.85 km</desc>
<time>2011-05-22T08:36:53.34</time>
<name>4209</name>
<sym>Dot</sym>
</trkpt>
<trkpt lat="39.979402" lon="-8.400737">
<ele>323.5</ele>
<desc>Speed 44.6 km/h Distance 17.86 km</desc>
<time>2011-05-22T08:36:54.34</time>
<name>4210</name>
<sym>Dot</sym>
</trkpt>
<trkpt lat="39.979290" lon="-8.400772">
<ele>322.5</ele>
<desc>Speed 45.4 km/h Distance 17.87 km</desc>
<time>2011-05-22T08:36:55.34</time>
<name>4211</name>
<sym>Dot</sym>
</trkpt>
<trkpt lat="39.979182" lon="-8.400815">
<ele>322.0</ele>
<desc>Speed 45.2 km/h Distance 17.88 km</desc>
<time>2011-05-22T08:36:56.34</time>
<name>4212</name>
<sym>Dot</sym>
</trkpt>
<trkpt lat="39.979077" lon="-8.400855">
<ele>321.0</ele>
<desc>Speed 44.0 km/h Distance 17.90 km</desc>
<time>2011-05-22T08:36:57.34</time>
<name>4213</name>
<sym>Dot</sym>
</trkpt>
<trkpt lat="39.978968" lon="-8.400895">
<ele>320.0</ele>
<desc>Speed 44.9 km/h Distance 17.91 km</desc>
<time>2011-05-22T08:36:58.34</time>
<name>4214</name>
<sym>Dot</sym>
</trkpt>
<trkpt lat="39.978860" lon="-8.400937">
<ele>319.0</ele>
<desc>Speed 45.4 km/h Distance 17.92 km</desc>
<time>2011-05-22T08:36:59.34</time>
<name>4215</name>
<sym>Dot</sym>
</trkpt>
<trkpt lat="39.978748" lon="-8.400977">
<ele>318.5</ele>
<desc>Speed 46.2 km/h Distance 17.93 km</desc>
<time>2011-05-22T08:37:00.34</time>
<name>4216</name>
<sym>Dot</sym>
</trkpt>
<trkpt lat="39.978642" lon="-8.401028">
<ele>317.5</ele>
<desc>Speed 45.1 km/h Distance 17.95 km</desc>
<time>2011-05-22T08:37:01.34</time>
<name>4217</name>
<sym>Dot</sym>
</trkpt>
<trkpt lat="39.978558" lon="-8.401120">
<ele>316.5</ele>
<desc>Speed 43.5 km/h Distance 17.96 km</desc>
<time>2011-05-22T08:37:02.34</time>
<name>4218</name>
<sym>Dot</sym>
</trkpt>
<trkpt lat="39.978488" lon="-8.401230">
<ele>317.0</ele>
<desc>Speed 44.1 km/h Distance 17.97 km</desc>
<time>2011-05-22T08:37:03.34</time>
<name>4219</name>
<sym>Dot</sym>
</trkpt>
<trkpt lat="39.978457" lon="-8.401372">
<ele>317.0</ele>
<desc>Speed 45.2 km/h Distance 17.98 km</desc>
<time>2011-05-22T08:37:04.34</time>
<name>4220</name>
<sym>Dot</sym>
</trkpt>
<trkpt lat="39.978440" lon="-8.401522">
<ele>316.0</ele>
<desc>Speed 46.3 km/h Distance 18.00 km</desc>
<time>2011-05-22T08:37:05.34</time>
<name>4221</name>
<sym>Dot</sym>
</trkpt>
<trkpt lat="39.978428" lon="-8.401675">
<ele>315.0</ele>
<desc>Speed 47.4 km/h Distance 18.01 km</desc>
<time>2011-05-22T08:37:06.34</time>
<name>4222</name>
<sym>Dot</sym>
</trkpt>
<trkpt lat="39.978420" lon="-8.401830">
<ele>314.0</ele>
<desc>Speed 47.3 km/h Distance 18.02 km</desc>
<time>2011-05-22T08:37:07.34</time>
<name>4223</name>
<sym>Dot</sym>
</trkpt>
<trkpt lat="39.978412" lon="-8.401978">
<ele>314.0</ele>
<desc>Speed 45.8 km/h Distance 18.03 km</desc>
<time>2011-05-22T08:37:08.34</time>
<name>4224</name>
<sym>Dot</sym>
</trkpt>
<trkpt lat="39.978403" lon="-8.402118">
<ele>314.5</ele>
<desc>Speed 42.8 km/h Distance 18.05 km</desc>
<time>2011-05-22T08:37:09.34</time>
<name>4225</name>
<sym>Dot</sym>
</trkpt>
<trkpt lat="39.978388" lon="-8.402245">
<ele>315.0</ele>
<desc>Speed 39.6 km/h Distance 18.06 km</desc>
<time>2011-05-22T08:37:10.34</time>
<name>4226</name>
<sym>Dot</sym>
</trkpt>
<trkpt lat="39.978357" lon="-8.402353">
<ele>316.5</ele>
<desc>Speed 35.4 km/h Distance 18.07 km</desc>
<time>2011-05-22T08:37:11.34</time>
<name>4227</name>
<sym>Dot</sym>
</trkpt>
<trkpt lat="39.978323" lon="-8.402453">
<ele>317.0</ele>
<desc>Speed 33.7 km/h Distance 18.08 km</desc>
<time>2011-05-22T08:37:12.34</time>
<name>4228</name>
<sym>Dot</sym>
</trkpt>
<trkpt lat="39.978282" lon="-8.402538">
<ele>317.5</ele>
<desc>Speed 30.7 km/h Distance 18.09 km</desc>
<time>2011-05-22T08:37:13.34</time>
<name>4229</name>
<sym>Dot</sym>
</trkpt>
<trkpt lat="39.978235" lon="-8.402610">
<ele>318.0</ele>
<desc>Speed 28.6 km/h Distance 18.09 km</desc>
<time>2011-05-22T08:37:14.34</time>
<name>4230</name>
<sym>Dot</sym>
</trkpt>
<trkpt lat="39.978188" lon="-8.402670">
<ele>318.5</ele>
<desc>Speed 26.6 km/h Distance 18.10 km</desc>
<time>2011-05-22T08:37:15.34</time>
<name>4231</name>
<sym>Dot</sym>
</trkpt>
<trkpt lat="39.978140" lon="-8.402725">
<ele>318.5</ele>
<desc>Speed 25.6 km/h Distance 18.11 km</desc>
<time>2011-05-22T08:37:16.34</time>
<name>4232</name>
<sym>Dot</sym>
</trkpt>
<trkpt lat="39.978090" lon="-8.402772">
<ele>319.0</ele>
<desc>Speed 24.6 km/h Distance 18.11 km</desc>
<time>2011-05-22T08:37:17.34</time>
<name>4233</name>
<sym>Dot</sym>
</trkpt>
<trkpt lat="39.978040" lon="-8.402812">
<ele>319.0</ele>
<desc>Speed 23.5 km/h Distance 18.12 km</desc>
<time>2011-05-22T08:37:18.34</time>
<name>4234</name>
<sym>Dot</sym>
</trkpt>
<trkpt lat="39.977992" lon="-8.402850">
<ele>319.5</ele>
<desc>Speed 22.5 km/h Distance 18.13 km</desc>
<time>2011-05-22T08:37:19.34</time>
<name>4235</name>
<sym>Dot</sym>
</trkpt>
<trkpt lat="39.977945" lon="-8.402887">
<ele>319.5</ele>
<desc>Speed 21.5 km/h Distance 18.13 km</desc>
<time>2011-05-22T08:37:20.34</time>
<name>4236</name>
<sym>Dot</sym>
</trkpt>
<trkpt lat="39.977902" lon="-8.402922">
<ele>320.0</ele>
<desc>Speed 20.5 km/h Distance 18.14 km</desc>
<time>2011-05-22T08:37:21.34</time>
<name>4237</name>
<sym>Dot</sym>
</trkpt>
<trkpt lat="39.977860" lon="-8.402958">
<ele>320.0</ele>
<desc>Speed 20.1 km/h Distance 18.14 km</desc>
<time>2011-05-22T08:37:22.34</time>
<name>4238</name>
<sym>Dot</sym>
</trkpt>
<trkpt lat="39.977818" lon="-8.402993">
<ele>320.0</ele>
<desc>Speed 19.8 km/h Distance 18.15 km</desc>
<time>2011-05-22T08:37:23.34</time>
<name>4239</name>
<sym>Dot</sym>
</trkpt>
<trkpt lat="39.977778" lon="-8.403028">
<ele>320.5</ele>
<desc>Speed 19.6 km/h Distance 18.16 km</desc>
<time>2011-05-22T08:37:24.34</time>
<name>4240</name>
<sym>Dot</sym>
</trkpt>
<trkpt lat="39.977738" lon="-8.403063">
<ele>320.0</ele>
<desc>Speed 19.6 km/h Distance 18.16 km</desc>
<time>2011-05-22T08:37:25.34</time>
<name>4241</name>
<sym>Dot</sym>
</trkpt>
<trkpt lat="39.977698" lon="-8.403098">
<ele>320.5</ele>
<desc>Speed 19.7 km/h Distance 18.17 km</desc>
<time>2011-05-22T08:37:26.34</time>
<name>4242</name>
<sym>Dot</sym>
</trkpt>
<trkpt lat="39.977657" lon="-8.403133">
<ele>320.5</ele>
<desc>Speed 19.7 km/h Distance 18.17 km</desc>
<time>2011-05-22T08:37:27.34</time>
<name>4243</name>
<sym>Dot</sym>
</trkpt>
<trkpt lat="39.977615" lon="-8.403165">
<ele>320.5</ele>
<desc>Speed 19.7 km/h Distance 18.18 km</desc>
<time>2011-05-22T08:37:28.34</time>
<name>4244</name>
<sym>Dot</sym>
</trkpt>
<trkpt lat="39.977575" lon="-8.403198">
<ele>321.0</ele>
<desc>Speed 19.6 km/h Distance 18.18 km</desc>
<time>2011-05-22T08:37:29.34</time>
<name>4245</name>
<sym>Dot</sym>
</trkpt>
<trkpt lat="39.977535" lon="-8.403235">
<ele>321.0</ele>
<desc>Speed 19.8 km/h Distance 18.19 km</desc>
<time>2011-05-22T08:37:30.34</time>
<name>4246</name>
<sym>Dot</sym>
</trkpt>
<trkpt lat="39.977493" lon="-8.403273">
<ele>321.0</ele>
<desc>Speed 20.5 km/h Distance 18.19 km</desc>
<time>2011-05-22T08:37:31.34</time>
<name>4247</name>
<sym>Dot</sym>
</trkpt>
<trkpt lat="39.977452" lon="-8.403312">
<ele>321.5</ele>
<desc>Speed 20.3 km/h Distance 18.20 km</desc>
<time>2011-05-22T08:37:32.34</time>
<name>4248</name>
<sym>Dot</sym>
</trkpt>
<trkpt lat="39.977410" lon="-8.403348">
<ele>321.5</ele>
<desc>Speed 20.2 km/h Distance 18.20 km</desc>
<time>2011-05-22T08:37:33.34</time>
<name>4249</name>
<sym>Dot</sym>
</trkpt>
<trkpt lat="39.977368" lon="-8.403385">
<ele>321.5</ele>
<desc>Speed 20.2 km/h Distance 18.21 km</desc>
<time>2011-05-22T08:37:34.34</time>
<name>4250</name>
<sym>Dot</sym>
</trkpt>
<trkpt lat="39.977327" lon="-8.403422">
<ele>321.5</ele>
<desc>Speed 20.2 km/h Distance 18.22 km</desc>
<time>2011-05-22T08:37:35.34</time>
<name>4251</name>
<sym>Dot</sym>
</trkpt>
<trkpt lat="39.977283" lon="-8.403457">
<ele>321.5</ele>
<desc>Speed 20.6 km/h Distance 18.22 km</desc>
<time>2011-05-22T08:37:36.34</time>
<name>4252</name>
<sym>Dot</sym>
</trkpt>
<trkpt lat="39.977242" lon="-8.403493">
<ele>322.0</ele>
<desc>Speed 20.3 km/h Distance 18.23 km</desc>
<time>2011-05-22T08:37:37.34</time>
<name>4253</name>
<sym>Dot</sym>
</trkpt>
<trkpt lat="39.977200" lon="-8.403528">
<ele>322.0</ele>
<desc>Speed 19.8 km/h Distance 18.23 km</desc>
<time>2011-05-22T08:37:38.34</time>
<name>4254</name>
<sym>Dot</sym>
</trkpt>
<trkpt lat="39.977160" lon="-8.403562">
<ele>322.5</ele>
<desc>Speed 19.4 km/h Distance 18.24 km</desc>
<time>2011-05-22T08:37:39.34</time>
<name>4255</name>
<sym>Dot</sym>
</trkpt>
<trkpt lat="39.977120" lon="-8.403597">
<ele>322.5</ele>
<desc>Speed 19.2 km/h Distance 18.24 km</desc>
<time>2011-05-22T08:37:40.34</time>
<name>4256</name>
<sym>Dot</sym>
</trkpt>
<trkpt lat="39.977080" lon="-8.403630">
<ele>323.0</ele>
<desc>Speed 19.2 km/h Distance 18.25 km</desc>
<time>2011-05-22T08:37:41.34</time>
<name>4257</name>
<sym>Dot</sym>
</trkpt>
<trkpt lat="39.977040" lon="-8.403665">
<ele>323.5</ele>
<desc>Speed 19.2 km/h Distance 18.25 km</desc>
<time>2011-05-22T08:37:42.34</time>
<name>4258</name>
<sym>Dot</sym>
</trkpt>
<trkpt lat="39.977002" lon="-8.403700">
<ele>323.5</ele>
<desc>Speed 18.7 km/h Distance 18.26 km</desc>
<time>2011-05-22T08:37:43.34</time>
<name>4259</name>
<sym>Dot</sym>
</trkpt>
<trkpt lat="39.976963" lon="-8.403733">
<ele>323.5</ele>
<desc>Speed 18.7 km/h Distance 18.26 km</desc>
<time>2011-05-22T08:37:44.34</time>
<name>4260</name>
<sym>Dot</sym>
</trkpt>
<trkpt lat="39.976925" lon="-8.403768">
<ele>324.0</ele>
<desc>Speed 18.8 km/h Distance 18.27 km</desc>
<time>2011-05-22T08:37:45.34</time>
<name>4261</name>
<sym>Dot</sym>
</trkpt>
<trkpt lat="39.976885" lon="-8.403803">
<ele>324.0</ele>
<desc>Speed 18.9 km/h Distance 18.28 km</desc>
<time>2011-05-22T08:37:46.34</time>
<name>4262</name>
<sym>Dot</sym>
</trkpt>
<trkpt lat="39.976847" lon="-8.403837">
<ele>324.0</ele>
<desc>Speed 18.8 km/h Distance 18.28 km</desc>
<time>2011-05-22T08:37:47.34</time>
<name>4263</name>
<sym>Dot</sym>
</trkpt>
<trkpt lat="39.976808" lon="-8.403870">
<ele>324.5</ele>
<desc>Speed 18.3 km/h Distance 18.29 km</desc>
<time>2011-05-22T08:37:48.34</time>
<name>4264</name>
<sym>Dot</sym>
</trkpt>
<trkpt lat="39.976773" lon="-8.403903">
<ele>324.5</ele>
<desc>Speed 17.6 km/h Distance 18.29 km</desc>
<time>2011-05-22T08:37:49.34</time>
<name>4265</name>
<sym>Dot</sym>
</trkpt>
<trkpt lat="39.976738" lon="-8.403935">
<ele>325.0</ele>
<desc>Speed 17.0 km/h Distance 18.29 km</desc>
<time>2011-05-22T08:37:50.34</time>
<name>4266</name>
<sym>Dot</sym>
</trkpt>
<trkpt lat="39.976705" lon="-8.403967">
<ele>325.0</ele>
<desc>Speed 16.5 km/h Distance 18.30 km</desc>
<time>2011-05-22T08:37:51.34</time>
<name>4267</name>
<sym>Dot</sym>
</trkpt>
<trkpt lat="39.976670" lon="-8.403997">
<ele>325.0</ele>
<desc>Speed 16.7 km/h Distance 18.30 km</desc>
<time>2011-05-22T08:37:52.34</time>
<name>4268</name>
<sym>Dot</sym>
</trkpt>
<trkpt lat="39.976637" lon="-8.404027">
<ele>325.0</ele>
<desc>Speed 16.7 km/h Distance 18.31 km</desc>
<time>2011-05-22T08:37:53.34</time>
<name>4269</name>
<sym>Dot</sym>
</trkpt>
<trkpt lat="39.976603" lon="-8.404058">
<ele>325.5</ele>
<desc>Speed 16.3 km/h Distance 18.31 km</desc>
<time>2011-05-22T08:37:54.34</time>
<name>4270</name>
<sym>Dot</sym>
</trkpt>
<trkpt lat="39.976573" lon="-8.404090">
<ele>325.5</ele>
<desc>Speed 15.9 km/h Distance 18.32 km</desc>
<time>2011-05-22T08:37:55.34</time>
<name>4271</name>
<sym>Dot</sym>
</trkpt>
<trkpt lat="39.976543" lon="-8.404120">
<ele>325.5</ele>
<desc>Speed 15.1 km/h Distance 18.32 km</desc>
<time>2011-05-22T08:37:56.34</time>
<name>4272</name>
<sym>Dot</sym>
</trkpt>
<trkpt lat="39.976515" lon="-8.404150">
<ele>325.5</ele>
<desc>Speed 14.8 km/h Distance 18.33 km</desc>
<time>2011-05-22T08:37:57.34</time>
<name>4273</name>
<sym>Dot</sym>
</trkpt>
<trkpt lat="39.976487" lon="-8.404180">
<ele>326.0</ele>
<desc>Speed 14.7 km/h Distance 18.33 km</desc>
<time>2011-05-22T08:37:58.34</time>
<name>4274</name>
<sym>Dot</sym>
</trkpt>
<trkpt lat="39.976457" lon="-8.404208">
<ele>326.0</ele>
<desc>Speed 14.7 km/h Distance 18.33 km</desc>
<time>2011-05-22T08:37:59.34</time>
<name>4275</name>
<sym>Dot</sym>
</trkpt>
<trkpt lat="39.976428" lon="-8.404238">
<ele>326.0</ele>
<desc>Speed 15.0 km/h Distance 18.34 km</desc>
<time>2011-05-22T08:38:00.34</time>
<name>4276</name>
<sym>Dot</sym>
</trkpt>
<trkpt lat="39.976398" lon="-8.404268">
<ele>326.0</ele>
<desc>Speed 15.2 km/h Distance 18.34 km</desc>
<time>2011-05-22T08:38:01.34</time>
<name>4277</name>
<sym>Dot</sym>
</trkpt>
<trkpt lat="39.976368" lon="-8.404300">
<ele>326.0</ele>
<desc>Speed 15.2 km/h Distance 18.35 km</desc>
<time>2011-05-22T08:38:02.34</time>
<name>4278</name>
<sym>Dot</sym>
</trkpt>
<trkpt lat="39.976338" lon="-8.404332">
<ele>326.0</ele>
<desc>Speed 15.6 km/h Distance 18.35 km</desc>
<time>2011-05-22T08:38:03.34</time>
<name>4279</name>
<sym>Dot</sym>
</trkpt>
<trkpt lat="39.976308" lon="-8.404367">
<ele>326.0</ele>
<desc>Speed 16.0 km/h Distance 18.36 km</desc>
<time>2011-05-22T08:38:04.34</time>
<name>4280</name>
<sym>Dot</sym>
</trkpt>
<trkpt lat="39.976278" lon="-8.404402">
<ele>326.0</ele>
<desc>Speed 16.4 km/h Distance 18.36 km</desc>
<time>2011-05-22T08:38:05.34</time>
<name>4281</name>
<sym>Dot</sym>
</trkpt>
<trkpt lat="39.976248" lon="-8.404438">
<ele>326.0</ele>
<desc>Speed 16.4 km/h Distance 18.36 km</desc>
<time>2011-05-22T08:38:06.34</time>
<name>4282</name>
<sym>Dot</sym>
</trkpt>
<trkpt lat="39.976218" lon="-8.404477">
<ele>326.0</ele>
<desc>Speed 16.8 km/h Distance 18.37 km</desc>
<time>2011-05-22T08:38:07.34</time>
<name>4283</name>
<sym>Dot</sym>
</trkpt>
<trkpt lat="39.976188" lon="-8.404518">
<ele>325.5</ele>
<desc>Speed 17.8 km/h Distance 18.37 km</desc>
<time>2011-05-22T08:38:08.34</time>
<name>4284</name>
<sym>Dot</sym>
</trkpt>
<trkpt lat="39.976157" lon="-8.404562">
<ele>325.5</ele>
<desc>Speed 17.9 km/h Distance 18.38 km</desc>
<time>2011-05-22T08:38:09.34</time>
<name>4285</name>
<sym>Dot</sym>
</trkpt>
<trkpt lat="39.976127" lon="-8.404602">
<ele>326.0</ele>
<desc>Speed 17.7 km/h Distance 18.38 km</desc>
<time>2011-05-22T08:38:10.34</time>
<name>4286</name>
<sym>Dot</sym>
</trkpt>
<trkpt lat="39.976097" lon="-8.404642">
<ele>326.0</ele>
<desc>Speed 17.5 km/h Distance 18.39 km</desc>
<time>2011-05-22T08:38:11.34</time>
<name>4287</name>
<sym>Dot</sym>
</trkpt>
<trkpt lat="39.976065" lon="-8.404683">
<ele>326.0</ele>
<desc>Speed 17.8 km/h Distance 18.39 km</desc>
<time>2011-05-22T08:38:12.34</time>
<name>4288</name>
<sym>Dot</sym>
</trkpt>
<trkpt lat="39.976037" lon="-8.404727">
<ele>326.0</ele>
<desc>Speed 17.9 km/h Distance 18.40 km</desc>
<time>2011-05-22T08:38:13.34</time>
<name>4289</name>
<sym>Dot</sym>
</trkpt>
<trkpt lat="39.976007" lon="-8.404770">
<ele>326.0</ele>
<desc>Speed 17.7 km/h Distance 18.40 km</desc>
<time>2011-05-22T08:38:14.34</time>
<name>4290</name>
<sym>Dot</sym>
</trkpt>
<trkpt lat="39.975977" lon="-8.404813">
<ele>326.0</ele>
<desc>Speed 18.0 km/h Distance 18.41 km</desc>
<time>2011-05-22T08:38:15.34</time>
<name>4291</name>
<sym>Dot</sym>
</trkpt>
<trkpt lat="39.975945" lon="-8.404855">
<ele>326.0</ele>
<desc>Speed 17.9 km/h Distance 18.41 km</desc>
<time>2011-05-22T08:38:16.34</time>
<name>4292</name>
<sym>Dot</sym>
</trkpt>
<trkpt lat="39.975915" lon="-8.404898">
<ele>326.0</ele>
<desc>Speed 17.9 km/h Distance 18.42 km</desc>
<time>2011-05-22T08:38:17.34</time>
<name>4293</name>
<sym>Dot</sym>
</trkpt>
<trkpt lat="39.975883" lon="-8.404940">
<ele>326.0</ele>
<desc>Speed 17.7 km/h Distance 18.42 km</desc>
<time>2011-05-22T08:38:18.34</time>
<name>4294</name>
<sym>Dot</sym>
</trkpt>
<trkpt lat="39.975853" lon="-8.404982">
<ele>326.0</ele>
<desc>Speed 17.5 km/h Distance 18.43 km</desc>
<time>2011-05-22T08:38:19.34</time>
<name>4295</name>
<sym>Dot</sym>
</trkpt>
<trkpt lat="39.975822" lon="-8.405020">
<ele>326.5</ele>
<desc>Speed 17.1 km/h Distance 18.43 km</desc>
<time>2011-05-22T08:38:20.34</time>
<name>4296</name>
<sym>Dot</sym>
</trkpt>
<trkpt lat="39.975790" lon="-8.405060">
<ele>326.5</ele>
<desc>Speed 17.4 km/h Distance 18.44 km</desc>
<time>2011-05-22T08:38:21.34</time>
<name>4297</name>
<sym>Dot</sym>
</trkpt>
<trkpt lat="39.975760" lon="-8.405100">
<ele>327.0</ele>
<desc>Speed 17.0 km/h Distance 18.44 km</desc>
<time>2011-05-22T08:38:22.34</time>
<name>4298</name>
<sym>Dot</sym>
</trkpt>
<trkpt lat="39.975732" lon="-8.405142">
<ele>327.0</ele>
<desc>Speed 17.2 km/h Distance 18.45 km</desc>
<time>2011-05-22T08:38:23.34</time>
<name>4299</name>
<sym>Dot</sym>
</trkpt>
<trkpt lat="39.975703" lon="-8.405185">
<ele>327.5</ele>
<desc>Speed 17.5 km/h Distance 18.45 km</desc>
<time>2011-05-22T08:38:24.34</time>
<name>4300</name>
<sym>Dot</sym>
</trkpt>
<trkpt lat="39.975672" lon="-8.405225">
<ele>327.5</ele>
<desc>Speed 17.1 km/h Distance 18.46 km</desc>
<time>2011-05-22T08:38:25.34</time>
<name>4301</name>
<sym>Dot</sym>
</trkpt>
<trkpt lat="39.975643" lon="-8.405260">
<ele>327.5</ele>
<desc>Speed 16.2 km/h Distance 18.46 km</desc>
<time>2011-05-22T08:38:26.34</time>
<name>4302</name>
<sym>Dot</sym>
</trkpt>
<trkpt lat="39.975615" lon="-8.405297">
<ele>328.0</ele>
<desc>Speed 15.6 km/h Distance 18.47 km</desc>
<time>2011-05-22T08:38:27.34</time>
<name>4303</name>
<sym>Dot</sym>
</trkpt>
<trkpt lat="39.975587" lon="-8.405330">
<ele>328.0</ele>
<desc>Speed 15.3 km/h Distance 18.47 km</desc>
<time>2011-05-22T08:38:28.34</time>
<name>4304</name>
<sym>Dot</sym>
</trkpt>
<trkpt lat="39.975560" lon="-8.405363">
<ele>328.0</ele>
<desc>Speed 14.7 km/h Distance 18.47 km</desc>
<time>2011-05-22T08:38:29.34</time>
<name>4305</name>
<sym>Dot</sym>
</trkpt>
<trkpt lat="39.975535" lon="-8.405397">
<ele>328.0</ele>
<desc>Speed 14.3 km/h Distance 18.48 km</desc>
<time>2011-05-22T08:38:30.34</time>
<name>4306</name>
<sym>Dot</sym>
</trkpt>
<trkpt lat="39.975512" lon="-8.405432">
<ele>328.5</ele>
<desc>Speed 14.4 km/h Distance 18.48 km</desc>
<time>2011-05-22T08:38:31.34</time>
<name>4307</name>
<sym>Dot</sym>
</trkpt>
<trkpt lat="39.975487" lon="-8.405467">
<ele>328.5</ele>
<desc>Speed 14.5 km/h Distance 18.49 km</desc>
<time>2011-05-22T08:38:32.34</time>
<name>4308</name>
<sym>Dot</sym>
</trkpt>
<trkpt lat="39.975465" lon="-8.405502">
<ele>328.5</ele>
<desc>Speed 13.9 km/h Distance 18.49 km</desc>
<time>2011-05-22T08:38:33.34</time>
<name>4309</name>
<sym>Dot</sym>
</trkpt>
<trkpt lat="39.975443" lon="-8.405535">
<ele>329.0</ele>
<desc>Speed 13.4 km/h Distance 18.49 km</desc>
<time>2011-05-22T08:38:34.34</time>
<name>4310</name>
<sym>Dot</sym>
</trkpt>
<trkpt lat="39.975420" lon="-8.405565">
<ele>329.0</ele>
<desc>Speed 13.0 km/h Distance 18.50 km</desc>
<time>2011-05-22T08:38:35.34</time>
<name>4311</name>
<sym>Dot</sym>
</trkpt>
<trkpt lat="39.975397" lon="-8.405595">
<ele>329.0</ele>
<desc>Speed 13.1 km/h Distance 18.50 km</desc>
<time>2011-05-22T08:38:36.34</time>
<name>4312</name>
<sym>Dot</sym>
</trkpt>
<trkpt lat="39.975372" lon="-8.405627">
<ele>329.5</ele>
<desc>Speed 13.7 km/h Distance 18.51 km</desc>
<time>2011-05-22T08:38:37.33</time>
<name>4313</name>
<sym>Dot</sym>
</trkpt>
<trkpt lat="39.975348" lon="-8.405660">
<ele>329.5</ele>
<desc>Speed 14.0 km/h Distance 18.51 km</desc>
<time>2011-05-22T08:38:38.33</time>
<name>4314</name>
<sym>Dot</sym>
</trkpt>
<trkpt lat="39.975323" lon="-8.405693">
<ele>329.5</ele>
<desc>Speed 14.4 km/h Distance 18.51 km</desc>
<time>2011-05-22T08:38:39.33</time>
<name>4315</name>
<sym>Dot</sym>
</trkpt>
<trkpt lat="39.975298" lon="-8.405728">
<ele>330.0</ele>
<desc>Speed 14.7 km/h Distance 18.52 km</desc>
<time>2011-05-22T08:38:40.33</time>
<name>4316</name>
<sym>Dot</sym>
</trkpt>
<trkpt lat="39.975272" lon="-8.405765">
<ele>330.0</ele>
<desc>Speed 15.3 km/h Distance 18.52 km</desc>
<time>2011-05-22T08:38:41.33</time>
<name>4317</name>
<sym>Dot</sym>
</trkpt>
<trkpt lat="39.975245" lon="-8.405802">
<ele>330.0</ele>
<desc>Speed 15.3 km/h Distance 18.53 km</desc>
<time>2011-05-22T08:38:42.33</time>
<name>4318</name>
<sym>Dot</sym>
</trkpt>
<trkpt lat="39.975220" lon="-8.405838">
<ele>330.0</ele>
<desc>Speed 15.2 km/h Distance 18.53 km</desc>
<time>2011-05-22T08:38:43.33</time>
<name>4319</name>
<sym>Dot</sym>
</trkpt>
<trkpt lat="39.975195" lon="-8.405872">
<ele>330.5</ele>
<desc>Speed 14.4 km/h Distance 18.53 km</desc>
<time>2011-05-22T08:38:44.33</time>
<name>4320</name>
<sym>Dot</sym>
</trkpt>
<trkpt lat="39.975168" lon="-8.405907">
<ele>330.5</ele>
<desc>Speed 15.2 km/h Distance 18.54 km</desc>
<time>2011-05-22T08:38:45.33</time>
<name>4321</name>
<sym>Dot</sym>
</trkpt>
<trkpt lat="39.975142" lon="-8.405945">
<ele>331.0</ele>
<desc>Speed 15.3 km/h Distance 18.54 km</desc>
<time>2011-05-22T08:38:46.33</time>
<name>4322</name>
<sym>Dot</sym>
</trkpt>
<trkpt lat="39.975117" lon="-8.405982">
<ele>331.0</ele>
<desc>Speed 15.3 km/h Distance 18.55 km</desc>
<time>2011-05-22T08:38:47.33</time>
<name>4323</name>
<sym>Dot</sym>
</trkpt>
<trkpt lat="39.975090" lon="-8.406020">
<ele>331.0</ele>
<desc>Speed 15.4 km/h Distance 18.55 km</desc>
<time>2011-05-22T08:38:48.33</time>
<name>4324</name>
<sym>Dot</sym>
</trkpt>
<trkpt lat="39.975067" lon="-8.406055">
<ele>331.5</ele>
<desc>Speed 14.6 km/h Distance 18.56 km</desc>
<time>2011-05-22T08:38:49.33</time>
<name>4325</name>
<sym>Dot</sym>
</trkpt>
<trkpt lat="39.975042" lon="-8.406093">
<ele>331.5</ele>
<desc>Speed 15.2 km/h Distance 18.56 km</desc>
<time>2011-05-22T08:38:50.33</time>
<name>4326</name>
<sym>Dot</sym>
</trkpt>
<trkpt lat="39.975018" lon="-8.406133">
<ele>332.0</ele>
<desc>Speed 15.2 km/h Distance 18.56 km</desc>
<time>2011-05-22T08:38:51.33</time>
<name>4327</name>
<sym>Dot</sym>
</trkpt>
<trkpt lat="39.974995" lon="-8.406170">
<ele>332.0</ele>
<desc>Speed 14.9 km/h Distance 18.57 km</desc>
<time>2011-05-22T08:38:52.33</time>
<name>4328</name>
<sym>Dot</sym>
</trkpt>
<trkpt lat="39.974970" lon="-8.406205">
<ele>332.5</ele>
<desc>Speed 14.8 km/h Distance 18.57 km</desc>
<time>2011-05-22T08:38:53.33</time>
<name>4329</name>
<sym>Dot</sym>
</trkpt>
<trkpt lat="39.974945" lon="-8.406242">
<ele>332.5</ele>
<desc>Speed 14.9 km/h Distance 18.58 km</desc>
<time>2011-05-22T08:38:54.33</time>
<name>4330</name>
<sym>Dot</sym>
</trkpt>
<trkpt lat="39.974920" lon="-8.406277">
<ele>332.5</ele>
<desc>Speed 14.9 km/h Distance 18.58 km</desc>
<time>2011-05-22T08:38:55.33</time>
<name>4331</name>
<sym>Dot</sym>
</trkpt>
<trkpt lat="39.974893" lon="-8.406313">
<ele>332.5</ele>
<desc>Speed 15.2 km/h Distance 18.58 km</desc>
<time>2011-05-22T08:38:56.33</time>
<name>4332</name>
<sym>Dot</sym>
</trkpt>
<trkpt lat="39.974865" lon="-8.406350">
<ele>332.5</ele>
<desc>Speed 15.4 km/h Distance 18.59 km</desc>
<time>2011-05-22T08:38:57.33</time>
<name>4333</name>
<sym>Dot</sym>
</trkpt>
<trkpt lat="39.974838" lon="-8.406387">
<ele>333.0</ele>
<desc>Speed 15.7 km/h Distance 18.59 km</desc>
<time>2011-05-22T08:38:58.33</time>
<name>4334</name>
<sym>Dot</sym>
</trkpt>
<trkpt lat="39.974812" lon="-8.406425">
<ele>333.0</ele>
<desc>Speed 15.6 km/h Distance 18.60 km</desc>
<time>2011-05-22T08:38:59.33</time>
<name>4335</name>
<sym>Dot</sym>
</trkpt>
<trkpt lat="39.974785" lon="-8.406462">
<ele>333.0</ele>
<desc>Speed 15.7 km/h Distance 18.60 km</desc>
<time>2011-05-22T08:39:00.33</time>
<name>4336</name>
<sym>Dot</sym>
</trkpt>
<trkpt lat="39.974758" lon="-8.406500">
<ele>333.0</ele>
<desc>Speed 15.7 km/h Distance 18.61 km</desc>
<time>2011-05-22T08:39:01.33</time>
<name>4337</name>
<sym>Dot</sym>
</trkpt>
<trkpt lat="39.974732" lon="-8.406537">
<ele>333.0</ele>
<desc>Speed 15.4 km/h Distance 18.61 km</desc>
<time>2011-05-22T08:39:02.33</time>
<name>4338</name>
<sym>Dot</sym>
</trkpt>
<trkpt lat="39.974705" lon="-8.406573">
<ele>333.0</ele>
<desc>Speed 15.3 km/h Distance 18.61 km</desc>
<time>2011-05-22T08:39:03.33</time>
<name>4339</name>
<sym>Dot</sym>
</trkpt>
<trkpt lat="39.974680" lon="-8.406608">
<ele>333.5</ele>
<desc>Speed 14.9 km/h Distance 18.62 km</desc>
<time>2011-05-22T08:39:04.33</time>
<name>4340</name>
<sym>Dot</sym>
</trkpt>
<trkpt lat="39.974658" lon="-8.406643">
<ele>333.5</ele>
<desc>Speed 13.5 km/h Distance 18.62 km</desc>
<time>2011-05-22T08:39:05.33</time>
<name>4341</name>
<sym>Dot</sym>
</trkpt>
<trkpt lat="39.974637" lon="-8.406678">
<ele>333.5</ele>
<desc>Speed 13.4 km/h Distance 18.63 km</desc>
<time>2011-05-22T08:39:06.33</time>
<name>4342</name>
<sym>Dot</sym>
</trkpt>
<trkpt lat="39.974612" lon="-8.406712">
<ele>333.5</ele>
<desc>Speed 14.5 km/h Distance 18.63 km</desc>
<time>2011-05-22T08:39:07.33</time>
<name>4343</name>
<sym>Dot</sym>
</trkpt>
<trkpt lat="39.974587" lon="-8.406747">
<ele>333.5</ele>
<desc>Speed 14.2 km/h Distance 18.63 km</desc>
<time>2011-05-22T08:39:08.33</time>
<name>4344</name>
<sym>Dot</sym>
</trkpt>
<trkpt lat="39.974563" lon="-8.406778">
<ele>334.0</ele>
<desc>Speed 13.6 km/h Distance 18.64 km</desc>
<time>2011-05-22T08:39:09.33</time>
<name>4345</name>
<sym>Dot</sym>
</trkpt>
<trkpt lat="39.974542" lon="-8.406810">
<ele>334.0</ele>
<desc>Speed 12.8 km/h Distance 18.64 km</desc>
<time>2011-05-22T08:39:10.33</time>
<name>4346</name>
<sym>Dot</sym>
</trkpt>
<trkpt lat="39.974522" lon="-8.406843">
<ele>334.0</ele>
<desc>Speed 13.2 km/h Distance 18.65 km</desc>
<time>2011-05-22T08:39:11.33</time>
<name>4347</name>
<sym>Dot</sym>
</trkpt>
<trkpt lat="39.974503" lon="-8.406877">
<ele>334.0</ele>
<desc>Speed 12.3 km/h Distance 18.65 km</desc>
<time>2011-05-22T08:39:12.33</time>
<name>4348</name>
<sym>Dot</sym>
</trkpt>
<trkpt lat="39.974482" lon="-8.406910">
<ele>334.0</ele>
<desc>Speed 13.4 km/h Distance 18.65 km</desc>
<time>2011-05-22T08:39:13.33</time>
<name>4349</name>
<sym>Dot</sym>
</trkpt>
<trkpt lat="39.974458" lon="-8.406942">
<ele>334.5</ele>
<desc>Speed 12.9 km/h Distance 18.66 km</desc>
<time>2011-05-22T08:39:14.33</time>
<name>4350</name>
<sym>Dot</sym>
</trkpt>
<trkpt lat="39.974435" lon="-8.406973">
<ele>334.5</ele>
<desc>Speed 13.5 km/h Distance 18.66 km</desc>
<time>2011-05-22T08:39:15.33</time>
<name>4351</name>
<sym>Dot</sym>
</trkpt>
<trkpt lat="39.974412" lon="-8.407003">
<ele>334.5</ele>
<desc>Speed 13.5 km/h Distance 18.66 km</desc>
<time>2011-05-22T08:39:16.33</time>
<name>4352</name>
<sym>Dot</sym>
</trkpt>
<trkpt lat="39.974388" lon="-8.407035">
<ele>334.5</ele>
<desc>Speed 13.0 km/h Distance 18.67 km</desc>
<time>2011-05-22T08:39:17.33</time>
<name>4353</name>
<sym>Dot</sym>
</trkpt>
<trkpt lat="39.974367" lon="-8.407065">
<ele>334.0</ele>
<desc>Speed 12.8 km/h Distance 18.67 km</desc>
<time>2011-05-22T08:39:18.33</time>
<name>4354</name>
<sym>Dot</sym>
</trkpt>
<trkpt lat="39.974345" lon="-8.407097">
<ele>334.5</ele>
<desc>Speed 12.6 km/h Distance 18.68 km</desc>
<time>2011-05-22T08:39:19.33</time>
<name>4355</name>
<sym>Dot</sym>
</trkpt>
<trkpt lat="39.974327" lon="-8.407123">
<ele>335.0</ele>
<desc>Speed 10.8 km/h Distance 18.68 km</desc>
<time>2011-05-22T08:39:20.33</time>
<name>4356</name>
<sym>Dot</sym>
</trkpt>
<trkpt lat="39.974307" lon="-8.407152">
<ele>335.0</ele>
<desc>Speed 11.5 km/h Distance 18.68 km</desc>
<time>2011-05-22T08:39:21.33</time>
<name>4357</name>
<sym>Dot</sym>
</trkpt>
<trkpt lat="39.974292" lon="-8.407175">
<ele>335.5</ele>
<desc>Speed 9.5 km/h Distance 18.68 km</desc>
<time>2011-05-22T08:39:22.33</time>
<name>4358</name>
<sym>Dot</sym>
</trkpt>
<trkpt lat="39.974275" lon="-8.407197">
<ele>336.5</ele>
<desc>Speed 9.1 km/h Distance 18.69 km</desc>
<time>2011-05-22T08:39:23.33</time>
<name>4359</name>
<sym>Dot</sym>
</trkpt>
<trkpt lat="39.974258" lon="-8.407218">
<ele>336.5</ele>
<desc>Speed 9.1 km/h Distance 18.69 km</desc>
<time>2011-05-22T08:39:24.33</time>
<name>4360</name>
<sym>Dot</sym>
</trkpt>
<trkpt lat="39.974242" lon="-8.407242">
<ele>337.0</ele>
<desc>Speed 9.9 km/h Distance 18.69 km</desc>
<time>2011-05-22T08:39:25.32</time>
<name>4361</name>
<sym>Dot</sym>
</trkpt>
<trkpt lat="39.974223" lon="-8.407267">
<ele>337.0</ele>
<desc>Speed 10.5 km/h Distance 18.69 km</desc>
<time>2011-05-22T08:39:26.32</time>
<name>4362</name>
<sym>Dot</sym>
</trkpt>
<trkpt lat="39.974205" lon="-8.407295">
<ele>337.0</ele>
<desc>Speed 10.5 km/h Distance 18.70 km</desc>
<time>2011-05-22T08:39:27.32</time>
<name>4363</name>
<sym>Dot</sym>
</trkpt>
<trkpt lat="39.974187" lon="-8.407322">
<ele>337.0</ele>
<desc>Speed 11.1 km/h Distance 18.70 km</desc>
<time>2011-05-22T08:39:28.32</time>
<name>4364</name>
<sym>Dot</sym>
</trkpt>
<trkpt lat="39.974167" lon="-8.407347">
<ele>337.5</ele>
<desc>Speed 11.1 km/h Distance 18.70 km</desc>
<time>2011-05-22T08:39:29.32</time>
<name>4365</name>
<sym>Dot</sym>
</trkpt>
<trkpt lat="39.974148" lon="-8.407372">
<ele>337.5</ele>
<desc>Speed 10.9 km/h Distance 18.71 km</desc>
<time>2011-05-22T08:39:30.32</time>
<name>4366</name>
<sym>Dot</sym>
</trkpt>
<trkpt lat="39.974128" lon="-8.407398">
<ele>337.5</ele>
<desc>Speed 11.4 km/h Distance 18.71 km</desc>
<time>2011-05-22T08:39:31.32</time>
<name>4367</name>
<sym>Dot</sym>
</trkpt>
<trkpt lat="39.974108" lon="-8.407427">
<ele>337.5</ele>
<desc>Speed 11.6 km/h Distance 18.71 km</desc>
<time>2011-05-22T08:39:32.32</time>
<name>4368</name>
<sym>Dot</sym>
</trkpt>
<trkpt lat="39.974087" lon="-8.407455">
<ele>337.5</ele>
<desc>Speed 12.5 km/h Distance 18.72 km</desc>
<time>2011-05-22T08:39:33.32</time>
<name>4369</name>
<sym>Dot</sym>
</trkpt>
<trkpt lat="39.974065" lon="-8.407485">
<ele>337.5</ele>
<desc>Speed 12.6 km/h Distance 18.72 km</desc>
<time>2011-05-22T08:39:34.32</time>
<name>4370</name>
<sym>Dot</sym>
</trkpt>
<trkpt lat="39.974043" lon="-8.407513">
<ele>338.0</ele>
<desc>Speed 12.1 km/h Distance 18.72 km</desc>
<time>2011-05-22T08:39:35.32</time>
<name>4371</name>
<sym>Dot</sym>
</trkpt>
<trkpt lat="39.974022" lon="-8.407542">
<ele>338.5</ele>
<desc>Speed 11.7 km/h Distance 18.73 km</desc>
<time>2011-05-22T08:39:36.32</time>
<name>4372</name>
<sym>Dot</sym>
</trkpt>
<trkpt lat="39.974003" lon="-8.407570">
<ele>339.0</ele>
<desc>Speed 11.5 km/h Distance 18.73 km</desc>
<time>2011-05-22T08:39:37.32</time>
<name>4373</name>
<sym>Dot</sym>
</trkpt>
<trkpt lat="39.973983" lon="-8.407598">
<ele>339.0</ele>
<desc>Speed 11.7 km/h Distance 18.73 km</desc>
<time>2011-05-22T08:39:38.32</time>
<name>4374</name>
<sym>Dot</sym>
</trkpt>
<trkpt lat="39.973963" lon="-8.407627">
<ele>339.5</ele>
<desc>Speed 11.8 km/h Distance 18.74 km</desc>
<time>2011-05-22T08:39:39.32</time>
<name>4375</name>
<sym>Dot</sym>
</trkpt>
<trkpt lat="39.973940" lon="-8.407657">
<ele>339.5</ele>
<desc>Speed 12.7 km/h Distance 18.74 km</desc>
<time>2011-05-22T08:39:40.32</time>
<name>4376</name>
<sym>Dot</sym>
</trkpt>
<trkpt lat="39.973915" lon="-8.407682">
<ele>339.5</ele>
<desc>Speed 12.5 km/h Distance 18.74 km</desc>
<time>2011-05-22T08:39:41.32</time>
<name>4377</name>
<sym>Dot</sym>
</trkpt>
<trkpt lat="39.973893" lon="-8.407710">
<ele>340.0</ele>
<desc>Speed 12.6 km/h Distance 18.75 km</desc>
<time>2011-05-22T08:39:42.32</time>
<name>4378</name>
<sym>Dot</sym>
</trkpt>
<trkpt lat="39.973872" lon="-8.407742">
<ele>340.0</ele>
<desc>Speed 12.9 km/h Distance 18.75 km</desc>
<time>2011-05-22T08:39:43.32</time>
<name>4379</name>
<sym>Dot</sym>
</trkpt>
<trkpt lat="39.973845" lon="-8.407767">
<ele>340.0</ele>
<desc>Speed 12.5 km/h Distance 18.75 km</desc>
<time>2011-05-22T08:39:44.32</time>
<name>4380</name>
<sym>Dot</sym>
</trkpt>
<trkpt lat="39.973822" lon="-8.407790">
<ele>340.0</ele>
<desc>Speed 12.0 km/h Distance 18.76 km</desc>
<time>2011-05-22T08:39:45.32</time>
<name>4381</name>
<sym>Dot</sym>
</trkpt>
<trkpt lat="39.973800" lon="-8.407813">
<ele>340.0</ele>
<desc>Speed 10.8 km/h Distance 18.76 km</desc>
<time>2011-05-22T08:39:46.32</time>
<name>4382</name>
<sym>Dot</sym>
</trkpt>
<trkpt lat="39.973785" lon="-8.407838">
<ele>340.0</ele>
<desc>Speed 10.2 km/h Distance 18.76 km</desc>
<time>2011-05-22T08:39:47.32</time>
<name>4383</name>
<sym>Dot</sym>
</trkpt>
<trkpt lat="39.973773" lon="-8.407868">
<ele>340.0</ele>
<desc>Speed 10.0 km/h Distance 18.77 km</desc>
<time>2011-05-22T08:39:48.32</time>
<name>4384</name>
<sym>Dot</sym>
</trkpt>
<trkpt lat="39.973760" lon="-8.407897">
<ele>340.0</ele>
<desc>Speed 10.0 km/h Distance 18.77 km</desc>
<time>2011-05-22T08:39:49.32</time>
<name>4385</name>
<sym>Dot</sym>
</trkpt>
<trkpt lat="39.973743" lon="-8.407922">
<ele>340.0</ele>
<desc>Speed 10.0 km/h Distance 18.77 km</desc>
<time>2011-05-22T08:39:50.32</time>
<name>4386</name>
<sym>Dot</sym>
</trkpt>
<trkpt lat="39.973728" lon="-8.407947">
<ele>340.0</ele>
<desc>Speed 9.7 km/h Distance 18.78 km</desc>
<time>2011-05-22T08:39:51.32</time>
<name>4387</name>
<sym>Dot</sym>
</trkpt>
<trkpt lat="39.973712" lon="-8.407968">
<ele>340.0</ele>
<desc>Speed 9.1 km/h Distance 18.78 km</desc>
<time>2011-05-22T08:39:52.32</time>
<name>4388</name>
<sym>Dot</sym>
</trkpt>
<trkpt lat="39.973693" lon="-8.407983">
<ele>340.0</ele>
<desc>Speed 8.4 km/h Distance 18.78 km</desc>
<time>2011-05-22T08:39:53.32</time>
<name>4389</name>
<sym>Dot</sym>
</trkpt>
<trkpt lat="39.973678" lon="-8.407995">
<ele>340.0</ele>
<desc>Speed 6.8 km/h Distance 18.78 km</desc>
<time>2011-05-22T08:39:54.32</time>
<name>4390</name>
<sym>Dot</sym>
</trkpt>
<trkpt lat="39.973665" lon="-8.408000">
<ele>340.0</ele>
<desc>Speed 5.1 km/h Distance 18.78 km</desc>
<time>2011-05-22T08:39:55.32</time>
<name>4391</name>
<sym>Dot</sym>
</trkpt>
<trkpt lat="39.973655" lon="-8.408008">
<ele>340.0</ele>
<desc>Speed 4.9 km/h Distance 18.79 km</desc>
<time>2011-05-22T08:39:56.32</time>
<name>4392</name>
<sym>Dot</sym>
</trkpt>
<trkpt lat="39.973643" lon="-8.408022">
<ele>340.0</ele>
<desc>Speed 5.8 km/h Distance 18.79 km</desc>
<time>2011-05-22T08:39:57.32</time>
<name>4393</name>
<sym>Dot</sym>
</trkpt>
<trkpt lat="39.973633" lon="-8.408040">
<ele>340.0</ele>
<desc>Speed 7.3 km/h Distance 18.79 km</desc>
<time>2011-05-22T08:39:58.32</time>
<name>4394</name>
<sym>Dot</sym>
</trkpt>
<trkpt lat="39.973623" lon="-8.408063">
<ele>340.5</ele>
<desc>Speed 7.8 km/h Distance 18.79 km</desc>
<time>2011-05-22T08:39:59.32</time>
<name>4395</name>
<sym>Dot</sym>
</trkpt>
<trkpt lat="39.973610" lon="-8.408087">
<ele>340.5</ele>
<desc>Speed 8.8 km/h Distance 18.79 km</desc>
<time>2011-05-22T08:40:00.32</time>
<name>4396</name>
<sym>Dot</sym>
</trkpt>
<trkpt lat="39.973593" lon="-8.408107">
<ele>340.5</ele>
<desc>Speed 8.9 km/h Distance 18.80 km</desc>
<time>2011-05-22T08:40:01.32</time>
<name>4397</name>
<sym>Dot</sym>
</trkpt>
<trkpt lat="39.973577" lon="-8.408125">
<ele>340.5</ele>
<desc>Speed 8.9 km/h Distance 18.80 km</desc>
<time>2011-05-22T08:40:02.32</time>
<name>4398</name>
<sym>Dot</sym>
</trkpt>
<trkpt lat="39.973560" lon="-8.408145">
<ele>340.5</ele>
<desc>Speed 9.0 km/h Distance 18.80 km</desc>
<time>2011-05-22T08:40:03.32</time>
<name>4399</name>
<sym>Dot</sym>
</trkpt>
<trkpt lat="39.973543" lon="-8.408168">
<ele>340.5</ele>
<desc>Speed 9.3 km/h Distance 18.80 km</desc>
<time>2011-05-22T08:40:04.32</time>
<name>4400</name>
<sym>Dot</sym>
</trkpt>
<trkpt lat="39.973527" lon="-8.408190">
<ele>340.5</ele>
<desc>Speed 9.3 km/h Distance 18.81 km</desc>
<time>2011-05-22T08:40:05.32</time>
<name>4401</name>
<sym>Dot</sym>
</trkpt>
<trkpt lat="39.973512" lon="-8.408210">
<ele>340.5</ele>
<desc>Speed 8.7 km/h Distance 18.81 km</desc>
<time>2011-05-22T08:40:06.32</time>
<name>4402</name>
<sym>Dot</sym>
</trkpt>
<trkpt lat="39.973497" lon="-8.408233">
<ele>340.5</ele>
<desc>Speed 9.0 km/h Distance 18.81 km</desc>
<time>2011-05-22T08:40:07.32</time>
<name>4403</name>
<sym>Dot</sym>
</trkpt>
<trkpt lat="39.973488" lon="-8.408262">
<ele>340.5</ele>
<desc>Speed 9.2 km/h Distance 18.81 km</desc>
<time>2011-05-22T08:40:08.32</time>
<name>4404</name>
<sym>Dot</sym>
</trkpt>
<trkpt lat="39.973472" lon="-8.408285">
<ele>340.5</ele>
<desc>Speed 9.3 km/h Distance 18.82 km</desc>
<time>2011-05-22T08:40:09.32</time>
<name>4405</name>
<sym>Dot</sym>
</trkpt>
<trkpt lat="39.973453" lon="-8.408298">
<ele>341.0</ele>
<desc>Speed 8.3 km/h Distance 18.82 km</desc>
<time>2011-05-22T08:40:10.32</time>
<name>4406</name>
<sym>Dot</sym>
</trkpt>
<trkpt lat="39.973435" lon="-8.408318">
<ele>341.0</ele>
<desc>Speed 9.2 km/h Distance 18.82 km</desc>
<time>2011-05-22T08:40:11.32</time>
<name>4407</name>
<sym>Dot</sym>
</trkpt>
<trkpt lat="39.973418" lon="-8.408343">
<ele>341.0</ele>
<desc>Speed 10.5 km/h Distance 18.82 km</desc>
<time>2011-05-22T08:40:12.32</time>
<name>4408</name>
<sym>Dot</sym>
</trkpt>
<trkpt lat="39.973405" lon="-8.408370">
<ele>341.0</ele>
<desc>Speed 9.4 km/h Distance 18.83 km</desc>
<time>2011-05-22T08:40:13.32</time>
<name>4409</name>
<sym>Dot</sym>
</trkpt>
<trkpt lat="39.973392" lon="-8.408393">
<ele>341.5</ele>
<desc>Speed 8.6 km/h Distance 18.83 km</desc>
<time>2011-05-22T08:40:14.32</time>
<name>4410</name>
<sym>Dot</sym>
</trkpt>
<trkpt lat="39.973375" lon="-8.408417">
<ele>342.0</ele>
<desc>Speed 9.8 km/h Distance 18.83 km</desc>
<time>2011-05-22T08:40:15.32</time>
<name>4411</name>
<sym>Dot</sym>
</trkpt>
<trkpt lat="39.973360" lon="-8.408442">
<ele>342.0</ele>
<desc>Speed 9.6 km/h Distance 18.84 km</desc>
<time>2011-05-22T08:40:16.32</time>
<name>4412</name>
<sym>Dot</sym>
</trkpt>
<trkpt lat="39.973347" lon="-8.408463">
<ele>342.0</ele>
<desc>Speed 8.6 km/h Distance 18.84 km</desc>
<time>2011-05-22T08:40:17.32</time>
<name>4413</name>
<sym>Dot</sym>
</trkpt>
<trkpt lat="39.973335" lon="-8.408487">
<ele>342.5</ele>
<desc>Speed 8.2 km/h Distance 18.84 km</desc>
<time>2011-05-22T08:40:18.32</time>
<name>4414</name>
<sym>Dot</sym>
</trkpt>
<trkpt lat="39.973320" lon="-8.408510">
<ele>343.0</ele>
<desc>Speed 9.0 km/h Distance 18.84 km</desc>
<time>2011-05-22T08:40:19.32</time>
<name>4415</name>
<sym>Dot</sym>
</trkpt>
<trkpt lat="39.973305" lon="-8.408537">
<ele>343.0</ele>
<desc>Speed 9.8 km/h Distance 18.85 km</desc>
<time>2011-05-22T08:40:20.32</time>
<name>4416</name>
<sym>Dot</sym>
</trkpt>
<trkpt lat="39.973293" lon="-8.408560">
<ele>343.5</ele>
<desc>Speed 8.7 km/h Distance 18.85 km</desc>
<time>2011-05-22T08:40:21.32</time>
<name>4417</name>
<sym>Dot</sym>
</trkpt>
<trkpt lat="39.973275" lon="-8.408588">
<ele>343.5</ele>
<desc>Speed 10.8 km/h Distance 18.85 km</desc>
<time>2011-05-22T08:40:22.32</time>
<name>4418</name>
<sym>Dot</sym>
</trkpt>
<trkpt lat="39.973257" lon="-8.408617">
<ele>343.5</ele>
<desc>Speed 11.3 km/h Distance 18.85 km</desc>
<time>2011-05-22T08:40:23.32</time>
<name>4419</name>
<sym>Dot</sym>
</trkpt>
<trkpt lat="39.973237" lon="-8.408643">
<ele>343.5</ele>
<desc>Speed 10.8 km/h Distance 18.86 km</desc>
<time>2011-05-22T08:40:24.32</time>
<name>4420</name>
<sym>Dot</sym>
</trkpt>
<trkpt lat="39.973218" lon="-8.408670">
<ele>343.5</ele>
<desc>Speed 10.8 km/h Distance 18.86 km</desc>
<time>2011-05-22T08:40:25.32</time>
<name>4421</name>
<sym>Dot</sym>
</trkpt>
<trkpt lat="39.973200" lon="-8.408695">
<ele>344.0</ele>
<desc>Speed 10.4 km/h Distance 18.86 km</desc>
<time>2011-05-22T08:40:26.32</time>
<name>4422</name>
<sym>Dot</sym>
</trkpt>
<trkpt lat="39.973183" lon="-8.408720">
<ele>344.0</ele>
<desc>Speed 10.1 km/h Distance 18.87 km</desc>
<time>2011-05-22T08:40:27.32</time>
<name>4423</name>
<sym>Dot</sym>
</trkpt>
<trkpt lat="39.973162" lon="-8.408745">
<ele>343.5</ele>
<desc>Speed 10.5 km/h Distance 18.87 km</desc>
<time>2011-05-22T08:40:28.32</time>
<name>4424</name>
<sym>Dot</sym>
</trkpt>
<trkpt lat="39.973145" lon="-8.408768">
<ele>343.5</ele>
<desc>Speed 9.8 km/h Distance 18.87 km</desc>
<time>2011-05-22T08:40:29.32</time>
<name>4425</name>
<sym>Dot</sym>
</trkpt>
<trkpt lat="39.973127" lon="-8.408790">
<ele>343.5</ele>
<desc>Speed 9.6 km/h Distance 18.87 km</desc>
<time>2011-05-22T08:40:30.32</time>
<name>4426</name>
<sym>Dot</sym>
</trkpt>
<trkpt lat="39.973108" lon="-8.408812">
<ele>343.5</ele>
<desc>Speed 9.7 km/h Distance 18.88 km</desc>
<time>2011-05-22T08:40:31.32</time>
<name>4427</name>
<sym>Dot</sym>
</trkpt>
<trkpt lat="39.973085" lon="-8.408832">
<ele>343.0</ele>
<desc>Speed 10.5 km/h Distance 18.88 km</desc>
<time>2011-05-22T08:40:32.32</time>
<name>4428</name>
<sym>Dot</sym>
</trkpt>
<trkpt lat="39.973068" lon="-8.408858">
<ele>343.5</ele>
<desc>Speed 10.2 km/h Distance 18.88 km</desc>
<time>2011-05-22T08:40:33.32</time>
<name>4429</name>
<sym>Dot</sym>
</trkpt>
<trkpt lat="39.973052" lon="-8.408882">
<ele>344.0</ele>
<desc>Speed 9.3 km/h Distance 18.89 km</desc>
<time>2011-05-22T08:40:34.32</time>
<name>4430</name>
<sym>Dot</sym>
</trkpt>
<trkpt lat="39.973037" lon="-8.408905">
<ele>344.0</ele>
<desc>Speed 9.6 km/h Distance 18.89 km</desc>
<time>2011-05-22T08:40:35.32</time>
<name>4431</name>
<sym>Dot</sym>
</trkpt>
<trkpt lat="39.973023" lon="-8.408930">
<ele>344.5</ele>
<desc>Speed 9.4 km/h Distance 18.89 km</desc>
<time>2011-05-22T08:40:36.32</time>
<name>4432</name>
<sym>Dot</sym>
</trkpt>
<trkpt lat="39.973007" lon="-8.408955">
<ele>345.0</ele>
<desc>Speed 9.9 km/h Distance 18.89 km</desc>
<time>2011-05-22T08:40:37.32</time>
<name>4433</name>
<sym>Dot</sym>
</trkpt>
<trkpt lat="39.972990" lon="-8.408982">
<ele>345.0</ele>
<desc>Speed 10.0 km/h Distance 18.90 km</desc>
<time>2011-05-22T08:40:38.32</time>
<name>4434</name>
<sym>Dot</sym>
</trkpt>
<trkpt lat="39.972972" lon="-8.409008">
<ele>345.5</ele>
<desc>Speed 11.1 km/h Distance 18.90 km</desc>
<time>2011-05-22T08:40:39.32</time>
<name>4435</name>
<sym>Dot</sym>
</trkpt>
<trkpt lat="39.972952" lon="-8.409037">
<ele>345.0</ele>
<desc>Speed 11.1 km/h Distance 18.90 km</desc>
<time>2011-05-22T08:40:40.32</time>
<name>4436</name>
<sym>Dot</sym>
</trkpt>
<trkpt lat="39.972935" lon="-8.409065">
<ele>345.0</ele>
<desc>Speed 10.8 km/h Distance 18.91 km</desc>
<time>2011-05-22T08:40:41.32</time>
<name>4437</name>
<sym>Dot</sym>
</trkpt>
<trkpt lat="39.972912" lon="-8.409093">
<ele>345.0</ele>
<desc>Speed 11.7 km/h Distance 18.91 km</desc>
<time>2011-05-22T08:40:42.32</time>
<name>4438</name>
<sym>Dot</sym>
</trkpt>
<trkpt lat="39.972887" lon="-8.409118">
<ele>345.5</ele>
<desc>Speed 11.7 km/h Distance 18.91 km</desc>
<time>2011-05-22T08:40:43.32</time>
<name>4439</name>
<sym>Dot</sym>
</trkpt>
<trkpt lat="39.972867" lon="-8.409145">
<ele>345.5</ele>
<desc>Speed 11.0 km/h Distance 18.92 km</desc>
<time>2011-05-22T08:40:44.32</time>
<name>4440</name>
<sym>Dot</sym>
</trkpt>
<trkpt lat="39.972843" lon="-8.409173">
<ele>345.5</ele>
<desc>Speed 10.7 km/h Distance 18.92 km</desc>
<time>2011-05-22T08:40:45.32</time>
<name>4441</name>
<sym>Dot</sym>
</trkpt>
<trkpt lat="39.972822" lon="-8.409200">
<ele>346.0</ele>
<desc>Speed 10.2 km/h Distance 18.92 km</desc>
<time>2011-05-22T08:40:46.32</time>
<name>4442</name>
<sym>Dot</sym>
</trkpt>
<trkpt lat="39.972798" lon="-8.409225">
<ele>346.0</ele>
<desc>Speed 10.4 km/h Distance 18.93 km</desc>
<time>2011-05-22T08:40:47.32</time>
<name>4443</name>
<sym>Dot</sym>
</trkpt>
<trkpt lat="39.972777" lon="-8.409250">
<ele>346.0</ele>
<desc>Speed 11.0 km/h Distance 18.93 km</desc>
<time>2011-05-22T08:40:48.32</time>
<name>4444</name>
<sym>Dot</sym>
</trkpt>
<trkpt lat="39.972752" lon="-8.409275">
<ele>346.0</ele>
<desc>Speed 11.5 km/h Distance 18.93 km</desc>
<time>2011-05-22T08:40:49.32</time>
<name>4445</name>
<sym>Dot</sym>
</trkpt>
<trkpt lat="39.972727" lon="-8.409302">
<ele>346.0</ele>
<desc>Speed 11.4 km/h Distance 18.94 km</desc>
<time>2011-05-22T08:40:50.32</time>
<name>4446</name>
<sym>Dot</sym>
</trkpt>
<trkpt lat="39.972702" lon="-8.409327">
<ele>345.5</ele>
<desc>Speed 11.3 km/h Distance 18.94 km</desc>
<time>2011-05-22T08:40:51.32</time>
<name>4447</name>
<sym>Dot</sym>
</trkpt>
<trkpt lat="39.972677" lon="-8.409350">
<ele>345.5</ele>
<desc>Speed 11.6 km/h Distance 18.94 km</desc>
<time>2011-05-22T08:40:52.32</time>
<name>4448</name>
<sym>Dot</sym>
</trkpt>
<trkpt lat="39.972648" lon="-8.409373">
<ele>345.5</ele>
<desc>Speed 12.2 km/h Distance 18.95 km</desc>
<time>2011-05-22T08:40:53.32</time>
<name>4449</name>
<sym>Dot</sym>
</trkpt>
<trkpt lat="39.972622" lon="-8.409397">
<ele>345.5</ele>
<desc>Speed 12.3 km/h Distance 18.95 km</desc>
<time>2011-05-22T08:40:54.32</time>
<name>4450</name>
<sym>Dot</sym>
</trkpt>
<trkpt lat="39.972597" lon="-8.409420">
<ele>345.5</ele>
<desc>Speed 12.1 km/h Distance 18.95 km</desc>
<time>2011-05-22T08:40:55.32</time>
<name>4451</name>
<sym>Dot</sym>
</trkpt>
<trkpt lat="39.972570" lon="-8.409442">
<ele>345.5</ele>
<desc>Speed 11.7 km/h Distance 18.96 km</desc>
<time>2011-05-22T08:40:56.32</time>
<name>4452</name>
<sym>Dot</sym>
</trkpt>
<trkpt lat="39.972545" lon="-8.409463">
<ele>345.0</ele>
<desc>Speed 12.0 km/h Distance 18.96 km</desc>
<time>2011-05-22T08:40:57.32</time>
<name>4453</name>
<sym>Dot</sym>
</trkpt>
<trkpt lat="39.972517" lon="-8.409483">
<ele>345.0</ele>
<desc>Speed 12.6 km/h Distance 18.97 km</desc>
<time>2011-05-22T08:40:58.32</time>
<name>4454</name>
<sym>Dot</sym>
</trkpt>
<trkpt lat="39.972485" lon="-8.409505">
<ele>345.0</ele>
<desc>Speed 13.5 km/h Distance 18.97 km</desc>
<time>2011-05-22T08:40:59.32</time>
<name>4455</name>
<sym>Dot</sym>
</trkpt>
<trkpt lat="39.972457" lon="-8.409523">
<ele>345.0</ele>
<desc>Speed 12.3 km/h Distance 18.97 km</desc>
<time>2011-05-22T08:41:00.32</time>
<name>4456</name>
<sym>Dot</sym>
</trkpt>
<trkpt lat="39.972432" lon="-8.409542">
<ele>346.0</ele>
<desc>Speed 11.0 km/h Distance 18.98 km</desc>
<time>2011-05-22T08:41:01.32</time>
<name>4457</name>
<sym>Dot</sym>
</trkpt>
<trkpt lat="39.972405" lon="-8.409558">
<ele>346.5</ele>
<desc>Speed 11.1 km/h Distance 18.98 km</desc>
<time>2011-05-22T08:41:02.32</time>
<name>4458</name>
<sym>Dot</sym>
</trkpt>
<trkpt lat="39.972378" lon="-8.409573">
<ele>347.0</ele>
<desc>Speed 11.7 km/h Distance 18.98 km</desc>
<time>2011-05-22T08:41:03.32</time>
<name>4459</name>
<sym>Dot</sym>
</trkpt>
<trkpt lat="39.972355" lon="-8.409592">
<ele>348.5</ele>
<desc>Speed 11.2 km/h Distance 18.99 km</desc>
<time>2011-05-22T08:41:04.32</time>
<name>4460</name>
<sym>Dot</sym>
</trkpt>
<trkpt lat="39.972320" lon="-8.409613">
<ele>348.5</ele>
<desc>Speed 15.0 km/h Distance 18.99 km</desc>
<time>2011-05-22T08:41:05.32</time>
<name>4461</name>
<sym>Dot</sym>
</trkpt>
<trkpt lat="39.972283" lon="-8.409637">
<ele>349.0</ele>
<desc>Speed 15.5 km/h Distance 18.99 km</desc>
<time>2011-05-22T08:41:06.32</time>
<name>4462</name>
<sym>Dot</sym>
</trkpt>
<trkpt lat="39.972245" lon="-8.409658">
<ele>349.5</ele>
<desc>Speed 16.2 km/h Distance 19.00 km</desc>
<time>2011-05-22T08:41:07.32</time>
<name>4463</name>
<sym>Dot</sym>
</trkpt>
<trkpt lat="39.972210" lon="-8.409677">
<ele>351.0</ele>
<desc>Speed 14.5 km/h Distance 19.00 km</desc>
<time>2011-05-22T08:41:08.32</time>
<name>4464</name>
<sym>Dot</sym>
</trkpt>
<trkpt lat="39.972175" lon="-8.409698">
<ele>351.5</ele>
<desc>Speed 14.8 km/h Distance 19.01 km</desc>
<time>2011-05-22T08:41:09.32</time>
<name>4465</name>
<sym>Dot</sym>
</trkpt>
<trkpt lat="39.972137" lon="-8.409718">
<ele>351.5</ele>
<desc>Speed 16.4 km/h Distance 19.01 km</desc>
<time>2011-05-22T08:41:10.32</time>
<name>4466</name>
<sym>Dot</sym>
</trkpt>
<trkpt lat="39.972097" lon="-8.409738">
<ele>351.5</ele>
<desc>Speed 16.7 km/h Distance 19.02 km</desc>
<time>2011-05-22T08:41:11.32</time>
<name>4467</name>
<sym>Dot</sym>
</trkpt>
<trkpt lat="39.972058" lon="-8.409760">
<ele>352.0</ele>
<desc>Speed 16.7 km/h Distance 19.02 km</desc>
<time>2011-05-22T08:41:12.32</time>
<name>4468</name>
<sym>Dot</sym>
</trkpt>
<trkpt lat="39.972030" lon="-8.409797">
<ele>351.0</ele>
<desc>Speed 15.3 km/h Distance 19.03 km</desc>
<time>2011-05-22T08:41:13.31</time>
<name>4469</name>
<sym>Dot</sym>
</trkpt>
<trkpt lat="39.971987" lon="-8.409818">
<ele>351.5</ele>
<desc>Speed 17.9 km/h Distance 19.03 km</desc>
<time>2011-05-22T08:41:14.31</time>
<name>4470</name>
<sym>Dot</sym>
</trkpt>
<trkpt lat="39.971947" lon="-8.409842">
<ele>351.0</ele>
<desc>Speed 17.4 km/h Distance 19.04 km</desc>
<time>2011-05-22T08:41:15.31</time>
<name>4471</name>
<sym>Dot</sym>
</trkpt>
<trkpt lat="39.971908" lon="-8.409868">
<ele>351.0</ele>
<desc>Speed 17.0 km/h Distance 19.04 km</desc>
<time>2011-05-22T08:41:16.31</time>
<name>4472</name>
<sym>Dot</sym>
</trkpt>
<trkpt lat="39.971867" lon="-8.409892">
<ele>351.0</ele>
<desc>Speed 17.6 km/h Distance 19.05 km</desc>
<time>2011-05-22T08:41:17.31</time>
<name>4473</name>
<sym>Dot</sym>
</trkpt>
<trkpt lat="39.971827" lon="-8.409917">
<ele>351.0</ele>
<desc>Speed 17.6 km/h Distance 19.05 km</desc>
<time>2011-05-22T08:41:18.31</time>
<name>4474</name>
<sym>Dot</sym>
</trkpt>
<trkpt lat="39.971787" lon="-8.409942">
<ele>351.0</ele>
<desc>Speed 17.3 km/h Distance 19.06 km</desc>
<time>2011-05-22T08:41:19.31</time>
<name>4475</name>
<sym>Dot</sym>
</trkpt>
<trkpt lat="39.971742" lon="-8.409970">
<ele>350.5</ele>
<desc>Speed 17.0 km/h Distance 19.06 km</desc>
<time>2011-05-22T08:41:20.31</time>
<name>4476</name>
<sym>Dot</sym>
</trkpt>
<trkpt lat="39.971635" lon="-8.410003">
<ele>350.5</ele>
<desc>Speed 18.1 km/h Distance 19.07 km</desc>
<time>2011-05-22T08:41:22.31</time>
<name>4477</name>
<sym>Dot</sym>
</trkpt>
<trkpt lat="39.971588" lon="-8.410023">
<ele>351.0</ele>
<desc>Speed 18.0 km/h Distance 19.08 km</desc>
<time>2011-05-22T08:41:23.31</time>
<name>4478</name>
<sym>Dot</sym>
</trkpt>
<trkpt lat="39.971543" lon="-8.410040">
<ele>351.0</ele>
<desc>Speed 18.1 km/h Distance 19.08 km</desc>
<time>2011-05-22T08:41:24.31</time>
<name>4479</name>
<sym>Dot</sym>
</trkpt>
<trkpt lat="39.971497" lon="-8.410053">
<ele>351.5</ele>
<desc>Speed 18.5 km/h Distance 19.09 km</desc>
<time>2011-05-22T08:41:25.31</time>
<name>4480</name>
<sym>Dot</sym>
</trkpt>
<trkpt lat="39.971450" lon="-8.410060">
<ele>351.5</ele>
<desc>Speed 18.8 km/h Distance 19.09 km</desc>
<time>2011-05-22T08:41:26.31</time>
<name>4481</name>
<sym>Dot</sym>
</trkpt>
<trkpt lat="39.971400" lon="-8.410063">
<ele>352.0</ele>
<desc>Speed 19.4 km/h Distance 19.10 km</desc>
<time>2011-05-22T08:41:27.31</time>
<name>4482</name>
<sym>Dot</sym>
</trkpt>
<trkpt lat="39.971348" lon="-8.410060">
<ele>352.5</ele>
<desc>Speed 20.1 km/h Distance 19.11 km</desc>
<time>2011-05-22T08:41:28.31</time>
<name>4483</name>
<sym>Dot</sym>
</trkpt>
<trkpt lat="39.971295" lon="-8.410053">
<ele>353.0</ele>
<desc>Speed 20.7 km/h Distance 19.11 km</desc>
<time>2011-05-22T08:41:29.31</time>
<name>4484</name>
<sym>Dot</sym>
</trkpt>
<trkpt lat="39.971237" lon="-8.410047">
<ele>352.0</ele>
<desc>Speed 21.5 km/h Distance 19.12 km</desc>
<time>2011-05-22T08:41:30.31</time>
<name>4485</name>
<sym>Dot</sym>
</trkpt>
<trkpt lat="39.971182" lon="-8.410030">
<ele>352.5</ele>
<desc>Speed 21.6 km/h Distance 19.13 km</desc>
<time>2011-05-22T08:41:31.31</time>
<name>4486</name>
<sym>Dot</sym>
</trkpt>
<trkpt lat="39.971118" lon="-8.410013">
<ele>351.0</ele>
<desc>Speed 23.3 km/h Distance 19.13 km</desc>
<time>2011-05-22T08:41:32.31</time>
<name>4487</name>
<sym>Dot</sym>
</trkpt>
<trkpt lat="39.971053" lon="-8.409983">
<ele>349.0</ele>
<desc>Speed 24.9 km/h Distance 19.14 km</desc>
<time>2011-05-22T08:41:33.31</time>
<name>4488</name>
<sym>Dot</sym>
</trkpt>
<trkpt lat="39.970985" lon="-8.409947">
<ele>347.5</ele>
<desc>Speed 26.6 km/h Distance 19.15 km</desc>
<time>2011-05-22T08:41:34.31</time>
<name>4489</name>
<sym>Dot</sym>
</trkpt>
<trkpt lat="39.970918" lon="-8.409903">
<ele>346.0</ele>
<desc>Speed 28.3 km/h Distance 19.16 km</desc>
<time>2011-05-22T08:41:35.31</time>
<name>4490</name>
<sym>Dot</sym>
</trkpt>
<trkpt lat="39.970845" lon="-8.409848">
<ele>345.5</ele>
<desc>Speed 29.8 km/h Distance 19.17 km</desc>
<time>2011-05-22T08:41:36.31</time>
<name>4491</name>
<sym>Dot</sym>
</trkpt>
<trkpt lat="39.970772" lon="-8.409788">
<ele>344.5</ele>
<desc>Speed 31.5 km/h Distance 19.18 km</desc>
<time>2011-05-22T08:41:37.31</time>
<name>4492</name>
<sym>Dot</sym>
</trkpt>
<trkpt lat="39.970702" lon="-8.409730">
<ele>343.5</ele>
<desc>Speed 32.6 km/h Distance 19.18 km</desc>
<time>2011-05-22T08:41:38.31</time>
<name>4493</name>
<sym>Dot</sym>
</trkpt>
<trkpt lat="39.970632" lon="-8.409668">
<ele>343.0</ele>
<desc>Speed 33.4 km/h Distance 19.19 km</desc>
<time>2011-05-22T08:41:39.31</time>
<name>4494</name>
<sym>Dot</sym>
</trkpt>
<trkpt lat="39.970557" lon="-8.409605">
<ele>342.5</ele>
<desc>Speed 35.3 km/h Distance 19.20 km</desc>
<time>2011-05-22T08:41:40.31</time>
<name>4495</name>
<sym>Dot</sym>
</trkpt>
<trkpt lat="39.970473" lon="-8.409543">
<ele>341.0</ele>
<desc>Speed 37.1 km/h Distance 19.21 km</desc>
<time>2011-05-22T08:41:41.31</time>
<name>4496</name>
<sym>Dot</sym>
</trkpt>
<trkpt lat="39.970387" lon="-8.409487">
<ele>340.0</ele>
<desc>Speed 38.1 km/h Distance 19.23 km</desc>
<time>2011-05-22T08:41:42.31</time>
<name>4497</name>
<sym>Dot</sym>
</trkpt>
<trkpt lat="39.970297" lon="-8.409443">
<ele>339.5</ele>
<desc>Speed 38.2 km/h Distance 19.24 km</desc>
<time>2011-05-22T08:41:43.31</time>
<name>4498</name>
<sym>Dot</sym>
</trkpt>
<trkpt lat="39.970203" lon="-8.409438">
<ele>340.0</ele>
<desc>Speed 37.1 km/h Distance 19.25 km</desc>
<time>2011-05-22T08:41:44.31</time>
<name>4499</name>
<sym>Dot</sym>
</trkpt>
<trkpt lat="39.970107" lon="-8.409465">
<ele>342.0</ele>
<desc>Speed 39.3 km/h Distance 19.26 km</desc>
<time>2011-05-22T08:41:45.31</time>
<name>4500</name>
<sym>Dot</sym>
</trkpt>
<trkpt lat="39.970005" lon="-8.409487">
<ele>342.0</ele>
<desc>Speed 41.1 km/h Distance 19.27 km</desc>
<time>2011-05-22T08:41:46.31</time>
<name>4501</name>
<sym>Dot</sym>
</trkpt>
<trkpt lat="39.969910" lon="-8.409528">
<ele>341.5</ele>
<desc>Speed 40.1 km/h Distance 19.28 km</desc>
<time>2011-05-22T08:41:47.31</time>
<name>4502</name>
<sym>Dot</sym>
</trkpt>
<trkpt lat="39.969815" lon="-8.409570">
<ele>341.5</ele>
<desc>Speed 40.4 km/h Distance 19.29 km</desc>
<time>2011-05-22T08:41:48.31</time>
<name>4503</name>
<sym>Dot</sym>
</trkpt>
<trkpt lat="39.969722" lon="-8.409615">
<ele>341.0</ele>
<desc>Speed 39.8 km/h Distance 19.30 km</desc>
<time>2011-05-22T08:41:49.31</time>
<name>4504</name>
<sym>Dot</sym>
</trkpt>
<trkpt lat="39.969628" lon="-8.409655">
<ele>340.5</ele>
<desc>Speed 39.4 km/h Distance 19.31 km</desc>
<time>2011-05-22T08:41:50.31</time>
<name>4505</name>
<sym>Dot</sym>
</trkpt>
<trkpt lat="39.969537" lon="-8.409697">
<ele>340.5</ele>
<desc>Speed 38.6 km/h Distance 19.32 km</desc>
<time>2011-05-22T08:41:51.31</time>
<name>4506</name>
<sym>Dot</sym>
</trkpt>
<trkpt lat="39.969448" lon="-8.409735">
<ele>340.0</ele>
<desc>Speed 37.5 km/h Distance 19.33 km</desc>
<time>2011-05-22T08:41:52.31</time>
<name>4507</name>
<sym>Dot</sym>
</trkpt>
<trkpt lat="39.969362" lon="-8.409775">
<ele>339.5</ele>
<desc>Speed 36.8 km/h Distance 19.34 km</desc>
<time>2011-05-22T08:41:53.31</time>
<name>4508</name>
<sym>Dot</sym>
</trkpt>
<trkpt lat="39.969272" lon="-8.409810">
<ele>340.0</ele>
<desc>Speed 37.2 km/h Distance 19.36 km</desc>
<time>2011-05-22T08:41:54.31</time>
<name>4509</name>
<sym>Dot</sym>
</trkpt>
<trkpt lat="39.969192" lon="-8.409862">
<ele>339.5</ele>
<desc>Speed 35.6 km/h Distance 19.37 km</desc>
<time>2011-05-22T08:41:55.31</time>
<name>4510</name>
<sym>Dot</sym>
</trkpt>
<trkpt lat="39.969118" lon="-8.409922">
<ele>339.5</ele>
<desc>Speed 35.1 km/h Distance 19.37 km</desc>
<time>2011-05-22T08:41:56.31</time>
<name>4511</name>
<sym>Dot</sym>
</trkpt>
<trkpt lat="39.969070" lon="-8.410013">
<ele>340.0</ele>
<desc>Speed 34.1 km/h Distance 19.38 km</desc>
<time>2011-05-22T08:41:57.31</time>
<name>4512</name>
<sym>Dot</sym>
</trkpt>
<trkpt lat="39.969017" lon="-8.410102">
<ele>340.0</ele>
<desc>Speed 34.6 km/h Distance 19.39 km</desc>
<time>2011-05-22T08:41:58.31</time>
<name>4513</name>
<sym>Dot</sym>
</trkpt>
<trkpt lat="39.968968" lon="-8.410190">
<ele>340.0</ele>
<desc>Speed 33.4 km/h Distance 19.40 km</desc>
<time>2011-05-22T08:41:59.31</time>
<name>4514</name>
<sym>Dot</sym>
</trkpt>
<trkpt lat="39.968917" lon="-8.410278">
<ele>339.5</ele>
<desc>Speed 34.7 km/h Distance 19.41 km</desc>
<time>2011-05-22T08:42:00.31</time>
<name>4515</name>
<sym>Dot</sym>
</trkpt>
<trkpt lat="39.968858" lon="-8.410365">
<ele>339.0</ele>
<desc>Speed 35.5 km/h Distance 19.42 km</desc>
<time>2011-05-22T08:42:01.31</time>
<name>4516</name>
<sym>Dot</sym>
</trkpt>
<trkpt lat="39.968793" lon="-8.410447">
<ele>337.5</ele>
<desc>Speed 36.4 km/h Distance 19.43 km</desc>
<time>2011-05-22T08:42:02.31</time>
<name>4517</name>
<sym>Dot</sym>
</trkpt>
<trkpt lat="39.968715" lon="-8.410503">
<ele>338.0</ele>
<desc>Speed 36.2 km/h Distance 19.44 km</desc>
<time>2011-05-22T08:42:03.31</time>
<name>4518</name>
<sym>Dot</sym>
</trkpt>
<trkpt lat="39.968633" lon="-8.410565">
<ele>337.0</ele>
<desc>Speed 37.7 km/h Distance 19.45 km</desc>
<time>2011-05-22T08:42:04.31</time>
<name>4519</name>
<sym>Dot</sym>
</trkpt>
<trkpt lat="39.968547" lon="-8.410622">
<ele>336.0</ele>
<desc>Speed 38.7 km/h Distance 19.46 km</desc>
<time>2011-05-22T08:42:05.31</time>
<name>4520</name>
<sym>Dot</sym>
</trkpt>
<trkpt lat="39.968458" lon="-8.410682">
<ele>334.5</ele>
<desc>Speed 39.5 km/h Distance 19.47 km</desc>
<time>2011-05-22T08:42:06.31</time>
<name>4521</name>
<sym>Dot</sym>
</trkpt>
<trkpt lat="39.968368" lon="-8.410740">
<ele>334.0</ele>
<desc>Speed 40.8 km/h Distance 19.49 km</desc>
<time>2011-05-22T08:42:07.31</time>
<name>4522</name>
<sym>Dot</sym>
</trkpt>
<trkpt lat="39.968273" lon="-8.410797">
<ele>333.0</ele>
<desc>Speed 41.5 km/h Distance 19.50 km</desc>
<time>2011-05-22T08:42:08.31</time>
<name>4523</name>
<sym>Dot</sym>
</trkpt>
<trkpt lat="39.968177" lon="-8.410848">
<ele>332.0</ele>
<desc>Speed 41.7 km/h Distance 19.51 km</desc>
<time>2011-05-22T08:42:09.31</time>
<name>4524</name>
<sym>Dot</sym>
</trkpt>
<trkpt lat="39.968082" lon="-8.410885">
<ele>331.5</ele>
<desc>Speed 37.9 km/h Distance 19.52 km</desc>
<time>2011-05-22T08:42:10.31</time>
<name>4525</name>
<sym>Dot</sym>
</trkpt>
<trkpt lat="39.967990" lon="-8.410898">
<ele>330.5</ele>
<desc>Speed 36.3 km/h Distance 19.53 km</desc>
<time>2011-05-22T08:42:11.31</time>
<name>4526</name>
<sym>Dot</sym>
</trkpt>
<trkpt lat="39.967887" lon="-8.410892">
<ele>330.5</ele>
<desc>Speed 39.3 km/h Distance 19.54 km</desc>
<time>2011-05-22T08:42:12.31</time>
<name>4527</name>
<sym>Dot</sym>
</trkpt>
<trkpt lat="39.967780" lon="-8.410840">
<ele>330.5</ele>
<desc>Speed 43.7 km/h Distance 19.55 km</desc>
<time>2011-05-22T08:42:13.31</time>
<name>4528</name>
<sym>Dot</sym>
</trkpt>
<trkpt lat="39.967682" lon="-8.410788">
<ele>329.5</ele>
<desc>Speed 39.8 km/h Distance 19.57 km</desc>
<time>2011-05-22T08:42:14.31</time>
<name>4529</name>
<sym>Dot</sym>
</trkpt>
<trkpt lat="39.967582" lon="-8.410735">
<ele>327.5</ele>
<desc>Speed 41.1 km/h Distance 19.58 km</desc>
<time>2011-05-22T08:42:15.31</time>
<name>4530</name>
<sym>Dot</sym>
</trkpt>
<trkpt lat="39.967475" lon="-8.410682">
<ele>326.0</ele>
<desc>Speed 42.2 km/h Distance 19.59 km</desc>
<time>2011-05-22T08:42:16.31</time>
<name>4531</name>
<sym>Dot</sym>
</trkpt>
<trkpt lat="39.967370" lon="-8.410637">
<ele>325.0</ele>
<desc>Speed 43.1 km/h Distance 19.60 km</desc>
<time>2011-05-22T08:42:17.31</time>
<name>4532</name>
<sym>Dot</sym>
</trkpt>
<trkpt lat="39.967128" lon="-8.410618">
<ele>324.0</ele>
<desc>Speed 45.4 km/h Distance 19.63 km</desc>
<time>2011-05-22T08:42:19.31</time>
<name>4533</name>
<sym>Dot</sym>
</trkpt>
<trkpt lat="39.967010" lon="-8.410635">
<ele>324.0</ele>
<desc>Speed 46.5 km/h Distance 19.64 km</desc>
<time>2011-05-22T08:42:20.31</time>
<name>4534</name>
<sym>Dot</sym>
</trkpt>
<trkpt lat="39.966905" lon="-8.410670">
<ele>323.5</ele>
<desc>Speed 43.2 km/h Distance 19.66 km</desc>
<time>2011-05-22T08:42:21.31</time>
<name>4535</name>
<sym>Dot</sym>
</trkpt>
<trkpt lat="39.966805" lon="-8.410713">
<ele>323.0</ele>
<desc>Speed 41.5 km/h Distance 19.67 km</desc>
<time>2011-05-22T08:42:22.31</time>
<name>4536</name>
<sym>Dot</sym>
</trkpt>
<trkpt lat="39.966710" lon="-8.410762">
<ele>322.5</ele>
<desc>Speed 40.4 km/h Distance 19.68 km</desc>
<time>2011-05-22T08:42:23.31</time>
<name>4537</name>
<sym>Dot</sym>
</trkpt>
<trkpt lat="39.966618" lon="-8.410810">
<ele>322.0</ele>
<desc>Speed 39.5 km/h Distance 19.69 km</desc>
<time>2011-05-22T08:42:24.31</time>
<name>4538</name>
<sym>Dot</sym>
</trkpt>
<trkpt lat="39.966527" lon="-8.410852">
<ele>321.5</ele>
<desc>Speed 38.2 km/h Distance 19.70 km</desc>
<time>2011-05-22T08:42:25.31</time>
<name>4539</name>
<sym>Dot</sym>
</trkpt>
<trkpt lat="39.966430" lon="-8.410858">
<ele>322.0</ele>
<desc>Speed 39.0 km/h Distance 19.71 km</desc>
<time>2011-05-22T08:42:26.31</time>
<name>4540</name>
<sym>Dot</sym>
</trkpt>
<trkpt lat="39.966340" lon="-8.410858">
<ele>321.5</ele>
<desc>Speed 35.5 km/h Distance 19.72 km</desc>
<time>2011-05-22T08:42:27.31</time>
<name>4541</name>
<sym>Dot</sym>
</trkpt>
<trkpt lat="39.966253" lon="-8.410843">
<ele>320.5</ele>
<desc>Speed 35.4 km/h Distance 19.73 km</desc>
<time>2011-05-22T08:42:28.31</time>
<name>4542</name>
<sym>Dot</sym>
</trkpt>
<trkpt lat="39.966165" lon="-8.410820">
<ele>320.0</ele>
<desc>Speed 35.4 km/h Distance 19.74 km</desc>
<time>2011-05-22T08:42:29.31</time>
<name>4543</name>
<sym>Dot</sym>
</trkpt>
<trkpt lat="39.966080" lon="-8.410792">
<ele>319.5</ele>
<desc>Speed 35.2 km/h Distance 19.75 km</desc>
<time>2011-05-22T08:42:30.31</time>
<name>4544</name>
<sym>Dot</sym>
</trkpt>
<trkpt lat="39.965995" lon="-8.410763">
<ele>319.0</ele>
<desc>Speed 35.2 km/h Distance 19.76 km</desc>
<time>2011-05-22T08:42:31.31</time>
<name>4545</name>
<sym>Dot</sym>
</trkpt>
<trkpt lat="39.965910" lon="-8.410733">
<ele>318.5</ele>
<desc>Speed 35.3 km/h Distance 19.77 km</desc>
<time>2011-05-22T08:42:32.31</time>
<name>4546</name>
<sym>Dot</sym>
</trkpt>
<trkpt lat="39.965823" lon="-8.410705">
<ele>318.0</ele>
<desc>Speed 35.5 km/h Distance 19.78 km</desc>
<time>2011-05-22T08:42:33.31</time>
<name>4547</name>
<sym>Dot</sym>
</trkpt>
<trkpt lat="39.965737" lon="-8.410677">
<ele>317.5</ele>
<desc>Speed 35.8 km/h Distance 19.79 km</desc>
<time>2011-05-22T08:42:34.31</time>
<name>4548</name>
<sym>Dot</sym>
</trkpt>
<trkpt lat="39.965650" lon="-8.410648">
<ele>317.5</ele>
<desc>Speed 35.9 km/h Distance 19.80 km</desc>
<time>2011-05-22T08:42:35.31</time>
<name>4549</name>
<sym>Dot</sym>
</trkpt>
<trkpt lat="39.965562" lon="-8.410622">
<ele>317.0</ele>
<desc>Speed 36.2 km/h Distance 19.81 km</desc>
<time>2011-05-22T08:42:36.31</time>
<name>4550</name>
<sym>Dot</sym>
</trkpt>
<trkpt lat="39.965472" lon="-8.410595">
<ele>317.0</ele>
<desc>Speed 36.5 km/h Distance 19.82 km</desc>
<time>2011-05-22T08:42:37.31</time>
<name>4551</name>
<sym>Dot</sym>
</trkpt>
<trkpt lat="39.965383" lon="-8.410568">
<ele>316.5</ele>
<desc>Speed 36.4 km/h Distance 19.83 km</desc>
<time>2011-05-22T08:42:38.31</time>
<name>4552</name>
<sym>Dot</sym>
</trkpt>
<trkpt lat="39.965293" lon="-8.410543">
<ele>316.0</ele>
<desc>Speed 36.7 km/h Distance 19.84 km</desc>
<time>2011-05-22T08:42:39.31</time>
<name>4553</name>
<sym>Dot</sym>
</trkpt>
<trkpt lat="39.965203" lon="-8.410522">
<ele>315.5</ele>
<desc>Speed 36.8 km/h Distance 19.85 km</desc>
<time>2011-05-22T08:42:40.31</time>
<name>4554</name>
<sym>Dot</sym>
</trkpt>
<trkpt lat="39.965112" lon="-8.410507">
<ele>315.0</ele>
<desc>Speed 36.9 km/h Distance 19.86 km</desc>
<time>2011-05-22T08:42:41.31</time>
<name>4555</name>
<sym>Dot</sym>
</trkpt>
<trkpt lat="39.965017" lon="-8.410508">
<ele>314.5</ele>
<desc>Speed 37.9 km/h Distance 19.87 km</desc>
<time>2011-05-22T08:42:42.31</time>
<name>4556</name>
<sym>Dot</sym>
</trkpt>
<trkpt lat="39.964923" lon="-8.410527">
<ele>314.0</ele>
<desc>Speed 37.7 km/h Distance 19.88 km</desc>
<time>2011-05-22T08:42:43.31</time>
<name>4557</name>
<sym>Dot</sym>
</trkpt>
<trkpt lat="39.964833" lon="-8.410557">
<ele>313.5</ele>
<desc>Speed 37.0 km/h Distance 19.89 km</desc>
<time>2011-05-22T08:42:44.31</time>
<name>4558</name>
<sym>Dot</sym>
</trkpt>
<trkpt lat="39.964748" lon="-8.410598">
<ele>313.5</ele>
<desc>Speed 36.6 km/h Distance 19.90 km</desc>
<time>2011-05-22T08:42:45.31</time>
<name>4559</name>
<sym>Dot</sym>
</trkpt>
<trkpt lat="39.964667" lon="-8.410647">
<ele>313.0</ele>
<desc>Speed 35.6 km/h Distance 19.91 km</desc>
<time>2011-05-22T08:42:46.31</time>
<name>4560</name>
<sym>Dot</sym>
</trkpt>
<trkpt lat="39.964590" lon="-8.410697">
<ele>313.0</ele>
<desc>Speed 34.6 km/h Distance 19.92 km</desc>
<time>2011-05-22T08:42:47.31</time>
<name>4561</name>
<sym>Dot</sym>
</trkpt>
<trkpt lat="39.964515" lon="-8.410745">
<ele>313.0</ele>
<desc>Speed 33.9 km/h Distance 19.93 km</desc>
<time>2011-05-22T08:42:48.31</time>
<name>4562</name>
<sym>Dot</sym>
</trkpt>
<trkpt lat="39.964438" lon="-8.410788">
<ele>313.0</ele>
<desc>Speed 32.9 km/h Distance 19.94 km</desc>
<time>2011-05-22T08:42:49.31</time>
<name>4563</name>
<sym>Dot</sym>
</trkpt>
<trkpt lat="39.964360" lon="-8.410815">
<ele>313.0</ele>
<desc>Speed 32.3 km/h Distance 19.95 km</desc>
<time>2011-05-22T08:42:50.31</time>
<name>4564</name>
<sym>Dot</sym>
</trkpt>
<trkpt lat="39.964283" lon="-8.410828">
<ele>313.5</ele>
<desc>Speed 31.2 km/h Distance 19.96 km</desc>
<time>2011-05-22T08:42:51.31</time>
<name>4565</name>
<sym>Dot</sym>
</trkpt>
<trkpt lat="39.964208" lon="-8.410822">
<ele>313.5</ele>
<desc>Speed 29.8 km/h Distance 19.97 km</desc>
<time>2011-05-22T08:42:52.31</time>
<name>4566</name>
<sym>Dot</sym>
</trkpt>
<trkpt lat="39.964138" lon="-8.410805">
<ele>313.5</ele>
<desc>Speed 28.9 km/h Distance 19.98 km</desc>
<time>2011-05-22T08:42:53.31</time>
<name>4567</name>
<sym>Dot</sym>
</trkpt>
<trkpt lat="39.964068" lon="-8.410780">
<ele>313.5</ele>
<desc>Speed 28.6 km/h Distance 19.98 km</desc>
<time>2011-05-22T08:42:54.31</time>
<name>4568</name>
<sym>Dot</sym>
</trkpt>
<trkpt lat="39.964003" lon="-8.410752">
<ele>313.5</ele>
<desc>Speed 27.9 km/h Distance 19.99 km</desc>
<time>2011-05-22T08:42:55.31</time>
<name>4569</name>
<sym>Dot</sym>
</trkpt>
<trkpt lat="39.963938" lon="-8.410720">
<ele>313.5</ele>
<desc>Speed 27.7 km/h Distance 20.00 km</desc>
<time>2011-05-22T08:42:56.31</time>
<name>4570</name>
<sym>Dot</sym>
</trkpt>
<trkpt lat="39.963873" lon="-8.410690">
<ele>314.0</ele>
<desc>Speed 27.3 km/h Distance 20.01 km</desc>
<time>2011-05-22T08:42:57.31</time>
<name>4571</name>
<sym>Dot</sym>
</trkpt>
<trkpt lat="39.963812" lon="-8.410658">
<ele>314.0</ele>
<desc>Speed 26.8 km/h Distance 20.01 km</desc>
<time>2011-05-22T08:42:58.31</time>
<name>4572</name>
<sym>Dot</sym>
</trkpt>
<trkpt lat="39.963752" lon="-8.410625">
<ele>314.0</ele>
<desc>Speed 26.2 km/h Distance 20.02 km</desc>
<time>2011-05-22T08:42:59.31</time>
<name>4573</name>
<sym>Dot</sym>
</trkpt>
<trkpt lat="39.963693" lon="-8.410593">
<ele>314.0</ele>
<desc>Speed 25.5 km/h Distance 20.03 km</desc>
<time>2011-05-22T08:43:00.31</time>
<name>4574</name>
<sym>Dot</sym>
</trkpt>
<trkpt lat="39.963635" lon="-8.410560">
<ele>314.0</ele>
<desc>Speed 25.1 km/h Distance 20.04 km</desc>
<time>2011-05-22T08:43:01.31</time>
<name>4575</name>
<sym>Dot</sym>
</trkpt>
<trkpt lat="39.963578" lon="-8.410527">
<ele>314.0</ele>
<desc>Speed 24.8 km/h Distance 20.04 km</desc>
<time>2011-05-22T08:43:02.31</time>
<name>4576</name>
<sym>Dot</sym>
</trkpt>
<trkpt lat="39.963523" lon="-8.410493">
<ele>314.0</ele>
<desc>Speed 24.4 km/h Distance 20.05 km</desc>
<time>2011-05-22T08:43:03.31</time>
<name>4577</name>
<sym>Dot</sym>
</trkpt>
<trkpt lat="39.963468" lon="-8.410467">
<ele>314.0</ele>
<desc>Speed 24.1 km/h Distance 20.06 km</desc>
<time>2011-05-22T08:43:04.31</time>
<name>4578</name>
<sym>Dot</sym>
</trkpt>
<trkpt lat="39.963412" lon="-8.410437">
<ele>314.0</ele>
<desc>Speed 24.4 km/h Distance 20.06 km</desc>
<time>2011-05-22T08:43:05.31</time>
<name>4579</name>
<sym>Dot</sym>
</trkpt>
<trkpt lat="39.963355" lon="-8.410408">
<ele>314.0</ele>
<desc>Speed 24.6 km/h Distance 20.07 km</desc>
<time>2011-05-22T08:43:06.31</time>
<name>4580</name>
<sym>Dot</sym>
</trkpt>
<trkpt lat="39.963297" lon="-8.410380">
<ele>314.0</ele>
<desc>Speed 25.0 km/h Distance 20.08 km</desc>
<time>2011-05-22T08:43:07.31</time>
<name>4581</name>
<sym>Dot</sym>
</trkpt>
<trkpt lat="39.963238" lon="-8.410352">
<ele>314.0</ele>
<desc>Speed 24.8 km/h Distance 20.08 km</desc>
<time>2011-05-22T08:43:08.31</time>
<name>4582</name>
<sym>Dot</sym>
</trkpt>
<trkpt lat="39.963180" lon="-8.410322">
<ele>314.0</ele>
<desc>Speed 25.1 km/h Distance 20.09 km</desc>
<time>2011-05-22T08:43:09.31</time>
<name>4583</name>
<sym>Dot</sym>
</trkpt>
<trkpt lat="39.963123" lon="-8.410288">
<ele>314.5</ele>
<desc>Speed 25.1 km/h Distance 20.10 km</desc>
<time>2011-05-22T08:43:10.31</time>
<name>4584</name>
<sym>Dot</sym>
</trkpt>
<trkpt lat="39.963068" lon="-8.410258">
<ele>314.5</ele>
<desc>Speed 24.2 km/h Distance 20.10 km</desc>
<time>2011-05-22T08:43:11.31</time>
<name>4585</name>
<sym>Dot</sym>
</trkpt>
<trkpt lat="39.963013" lon="-8.410230">
<ele>315.0</ele>
<desc>Speed 23.7 km/h Distance 20.11 km</desc>
<time>2011-05-22T08:43:12.31</time>
<name>4586</name>
<sym>Dot</sym>
</trkpt>
<trkpt lat="39.962958" lon="-8.410203">
<ele>315.0</ele>
<desc>Speed 23.3 km/h Distance 20.12 km</desc>
<time>2011-05-22T08:43:13.31</time>
<name>4587</name>
<sym>Dot</sym>
</trkpt>
<trkpt lat="39.962907" lon="-8.410177">
<ele>315.5</ele>
<desc>Speed 22.5 km/h Distance 20.12 km</desc>
<time>2011-05-22T08:43:14.31</time>
<name>4588</name>
<sym>Dot</sym>
</trkpt>
<trkpt lat="39.962858" lon="-8.410150">
<ele>315.5</ele>
<desc>Speed 21.9 km/h Distance 20.13 km</desc>
<time>2011-05-22T08:43:15.31</time>
<name>4589</name>
<sym>Dot</sym>
</trkpt>
<trkpt lat="39.962810" lon="-8.410123">
<ele>316.0</ele>
<desc>Speed 21.4 km/h Distance 20.13 km</desc>
<time>2011-05-22T08:43:16.31</time>
<name>4590</name>
<sym>Dot</sym>
</trkpt>
<trkpt lat="39.962762" lon="-8.410098">
<ele>316.0</ele>
<desc>Speed 20.6 km/h Distance 20.14 km</desc>
<time>2011-05-22T08:43:17.31</time>
<name>4591</name>
<sym>Dot</sym>
</trkpt>
<trkpt lat="39.962715" lon="-8.410075">
<ele>316.0</ele>
<desc>Speed 20.1 km/h Distance 20.15 km</desc>
<time>2011-05-22T08:43:18.31</time>
<name>4592</name>
<sym>Dot</sym>
</trkpt>
<trkpt lat="39.962670" lon="-8.410053">
<ele>316.0</ele>
<desc>Speed 20.0 km/h Distance 20.15 km</desc>
<time>2011-05-22T08:43:19.31</time>
<name>4593</name>
<sym>Dot</sym>
</trkpt>
<trkpt lat="39.962625" lon="-8.410028">
<ele>316.5</ele>
<desc>Speed 19.5 km/h Distance 20.16 km</desc>
<time>2011-05-22T08:43:20.31</time>
<name>4594</name>
<sym>Dot</sym>
</trkpt>
<trkpt lat="39.962582" lon="-8.410002">
<ele>316.0</ele>
<desc>Speed 19.4 km/h Distance 20.16 km</desc>
<time>2011-05-22T08:43:21.31</time>
<name>4595</name>
<sym>Dot</sym>
</trkpt>
<trkpt lat="39.962540" lon="-8.409967">
<ele>316.5</ele>
<desc>Speed 20.1 km/h Distance 20.17 km</desc>
<time>2011-05-22T08:43:22.31</time>
<name>4596</name>
<sym>Dot</sym>
</trkpt>
<trkpt lat="39.962497" lon="-8.409933">
<ele>316.5</ele>
<desc>Speed 20.1 km/h Distance 20.17 km</desc>
<time>2011-05-22T08:43:23.31</time>
<name>4597</name>
<sym>Dot</sym>
</trkpt>
<trkpt lat="39.962447" lon="-8.409915">
<ele>316.5</ele>
<desc>Speed 21.0 km/h Distance 20.18 km</desc>
<time>2011-05-22T08:43:24.31</time>
<name>4598</name>
<sym>Dot</sym>
</trkpt>
<trkpt lat="39.962395" lon="-8.409898">
<ele>316.5</ele>
<desc>Speed 21.5 km/h Distance 20.18 km</desc>
<time>2011-05-22T08:43:25.31</time>
<name>4599</name>
<sym>Dot</sym>
</trkpt>
<trkpt lat="39.962343" lon="-8.409878">
<ele>316.5</ele>
<desc>Speed 21.7 km/h Distance 20.19 km</desc>
<time>2011-05-22T08:43:26.31</time>
<name>4600</name>
<sym>Dot</sym>
</trkpt>
<trkpt lat="39.962292" lon="-8.409855">
<ele>316.0</ele>
<desc>Speed 22.1 km/h Distance 20.20 km</desc>
<time>2011-05-22T08:43:27.31</time>
<name>4601</name>
<sym>Dot</sym>
</trkpt>
<trkpt lat="39.962238" lon="-8.409828">
<ele>316.0</ele>
<desc>Speed 22.8 km/h Distance 20.20 km</desc>
<time>2011-05-22T08:43:28.31</time>
<name>4602</name>
<sym>Dot</sym>
</trkpt>
<trkpt lat="39.962185" lon="-8.409805">
<ele>316.0</ele>
<desc>Speed 23.2 km/h Distance 20.21 km</desc>
<time>2011-05-22T08:43:29.31</time>
<name>4603</name>
<sym>Dot</sym>
</trkpt>
<trkpt lat="39.962128" lon="-8.409780">
<ele>315.5</ele>
<desc>Speed 23.9 km/h Distance 20.22 km</desc>
<time>2011-05-22T08:43:30.31</time>
<name>4604</name>
<sym>Dot</sym>
</trkpt>
<trkpt lat="39.962070" lon="-8.409753">
<ele>315.0</ele>
<desc>Speed 24.8 km/h Distance 20.22 km</desc>
<time>2011-05-22T08:43:31.31</time>
<name>4605</name>
<sym>Dot</sym>
</trkpt>
<trkpt lat="39.962012" lon="-8.409723">
<ele>314.5</ele>
<desc>Speed 25.2 km/h Distance 20.23 km</desc>
<time>2011-05-22T08:43:32.31</time>
<name>4606</name>
<sym>Dot</sym>
</trkpt>
<trkpt lat="39.961950" lon="-8.409693">
<ele>314.5</ele>
<desc>Speed 26.4 km/h Distance 20.24 km</desc>
<time>2011-05-22T08:43:33.31</time>
<name>4607</name>
<sym>Dot</sym>
</trkpt>
<trkpt lat="39.961885" lon="-8.409668">
<ele>314.0</ele>
<desc>Speed 27.3 km/h Distance 20.24 km</desc>
<time>2011-05-22T08:43:34.31</time>
<name>4608</name>
<sym>Dot</sym>
</trkpt>
<trkpt lat="39.961818" lon="-8.409645">
<ele>313.5</ele>
<desc>Speed 27.5 km/h Distance 20.25 km</desc>
<time>2011-05-22T08:43:35.31</time>
<name>4609</name>
<sym>Dot</sym>
</trkpt>
<trkpt lat="39.961750" lon="-8.409625">
<ele>313.5</ele>
<desc>Speed 28.4 km/h Distance 20.26 km</desc>
<time>2011-05-22T08:43:36.31</time>
<name>4610</name>
<sym>Dot</sym>
</trkpt>
<trkpt lat="39.961680" lon="-8.409607">
<ele>313.5</ele>
<desc>Speed 28.2 km/h Distance 20.27 km</desc>
<time>2011-05-22T08:43:37.31</time>
<name>4611</name>
<sym>Dot</sym>
</trkpt>
<trkpt lat="39.961610" lon="-8.409590">
<ele>313.0</ele>
<desc>Speed 28.6 km/h Distance 20.28 km</desc>
<time>2011-05-22T08:43:38.31</time>
<name>4612</name>
<sym>Dot</sym>
</trkpt>
<trkpt lat="39.961533" lon="-8.409575">
<ele>313.0</ele>
<desc>Speed 30.4 km/h Distance 20.28 km</desc>
<time>2011-05-22T08:43:39.31</time>
<name>4613</name>
<sym>Dot</sym>
</trkpt>
<trkpt lat="39.961455" lon="-8.409563">
<ele>312.0</ele>
<desc>Speed 32.0 km/h Distance 20.29 km</desc>
<time>2011-05-22T08:43:40.31</time>
<name>4614</name>
<sym>Dot</sym>
</trkpt>
<trkpt lat="39.961368" lon="-8.409550">
<ele>312.0</ele>
<desc>Speed 34.6 km/h Distance 20.30 km</desc>
<time>2011-05-22T08:43:41.31</time>
<name>4615</name>
<sym>Dot</sym>
</trkpt>
<trkpt lat="39.961280" lon="-8.409538">
<ele>311.5</ele>
<desc>Speed 35.1 km/h Distance 20.31 km</desc>
<time>2011-05-22T08:43:42.31</time>
<name>4616</name>
<sym>Dot</sym>
</trkpt>
<trkpt lat="39.961193" lon="-8.409530">
<ele>311.5</ele>
<desc>Speed 34.8 km/h Distance 20.32 km</desc>
<time>2011-05-22T08:43:43.31</time>
<name>4617</name>
<sym>Dot</sym>
</trkpt>
<trkpt lat="39.961103" lon="-8.409522">
<ele>311.0</ele>
<desc>Speed 35.7 km/h Distance 20.33 km</desc>
<time>2011-05-22T08:43:44.31</time>
<name>4618</name>
<sym>Dot</sym>
</trkpt>
<trkpt lat="39.961015" lon="-8.409515">
<ele>311.0</ele>
<desc>Speed 36.0 km/h Distance 20.34 km</desc>
<time>2011-05-22T08:43:45.31</time>
<name>4619</name>
<sym>Dot</sym>
</trkpt>
<trkpt lat="39.960923" lon="-8.409507">
<ele>310.5</ele>
<desc>Speed 36.3 km/h Distance 20.35 km</desc>
<time>2011-05-22T08:43:46.31</time>
<name>4620</name>
<sym>Dot</sym>
</trkpt>
<trkpt lat="39.960837" lon="-8.409495">
<ele>310.5</ele>
<desc>Speed 35.1 km/h Distance 20.36 km</desc>
<time>2011-05-22T08:43:47.31</time>
<name>4621</name>
<sym>Dot</sym>
</trkpt>
<trkpt lat="39.960747" lon="-8.409487">
<ele>310.5</ele>
<desc>Speed 35.5 km/h Distance 20.37 km</desc>
<time>2011-05-22T08:43:48.31</time>
<name>4622</name>
<sym>Dot</sym>
</trkpt>
<trkpt lat="39.960658" lon="-8.409478">
<ele>310.5</ele>
<desc>Speed 35.9 km/h Distance 20.38 km</desc>
<time>2011-05-22T08:43:49.31</time>
<name>4623</name>
<sym>Dot</sym>
</trkpt>
<trkpt lat="39.960568" lon="-8.409472">
<ele>310.0</ele>
<desc>Speed 35.4 km/h Distance 20.39 km</desc>
<time>2011-05-22T08:43:50.31</time>
<name>4624</name>
<sym>Dot</sym>
</trkpt>
<trkpt lat="39.960482" lon="-8.409465">
<ele>310.0</ele>
<desc>Speed 35.3 km/h Distance 20.40 km</desc>
<time>2011-05-22T08:43:51.31</time>
<name>4625</name>
<sym>Dot</sym>
</trkpt>
<trkpt lat="39.960393" lon="-8.409460">
<ele>310.0</ele>
<desc>Speed 35.1 km/h Distance 20.41 km</desc>
<time>2011-05-22T08:43:52.31</time>
<name>4626</name>
<sym>Dot</sym>
</trkpt>
<trkpt lat="39.960307" lon="-8.409453">
<ele>309.5</ele>
<desc>Speed 34.7 km/h Distance 20.42 km</desc>
<time>2011-05-22T08:43:53.31</time>
<name>4627</name>
<sym>Dot</sym>
</trkpt>
<trkpt lat="39.960220" lon="-8.409447">
<ele>309.5</ele>
<desc>Speed 34.9 km/h Distance 20.43 km</desc>
<time>2011-05-22T08:43:54.31</time>
<name>4628</name>
<sym>Dot</sym>
</trkpt>
<trkpt lat="39.960133" lon="-8.409438">
<ele>309.0</ele>
<desc>Speed 34.6 km/h Distance 20.44 km</desc>
<time>2011-05-22T08:43:55.31</time>
<name>4629</name>
<sym>Dot</sym>
</trkpt>
<trkpt lat="39.960045" lon="-8.409432">
<ele>309.0</ele>
<desc>Speed 35.1 km/h Distance 20.45 km</desc>
<time>2011-05-22T08:43:56.31</time>
<name>4630</name>
<sym>Dot</sym>
</trkpt>
<trkpt lat="39.959955" lon="-8.409425">
<ele>308.5</ele>
<desc>Speed 35.3 km/h Distance 20.46 km</desc>
<time>2011-05-22T08:43:57.31</time>
<name>4631</name>
<sym>Dot</sym>
</trkpt>
<trkpt lat="39.959867" lon="-8.409422">
<ele>308.0</ele>
<desc>Speed 35.6 km/h Distance 20.47 km</desc>
<time>2011-05-22T08:43:58.31</time>
<name>4632</name>
<sym>Dot</sym>
</trkpt>
<trkpt lat="39.959777" lon="-8.409423">
<ele>307.5</ele>
<desc>Speed 35.7 km/h Distance 20.48 km</desc>
<time>2011-05-22T08:43:59.31</time>
<name>4633</name>
<sym>Dot</sym>
</trkpt>
<trkpt lat="39.959688" lon="-8.409437">
<ele>307.5</ele>
<desc>Speed 35.6 km/h Distance 20.49 km</desc>
<time>2011-05-22T08:44:00.31</time>
<name>4634</name>
<sym>Dot</sym>
</trkpt>
<trkpt lat="39.959602" lon="-8.409462">
<ele>306.5</ele>
<desc>Speed 35.5 km/h Distance 20.50 km</desc>
<time>2011-05-22T08:44:01.31</time>
<name>4635</name>
<sym>Dot</sym>
</trkpt>
<trkpt lat="39.959517" lon="-8.409497">
<ele>306.0</ele>
<desc>Speed 35.8 km/h Distance 20.51 km</desc>
<time>2011-05-22T08:44:02.31</time>
<name>4636</name>
<sym>Dot</sym>
</trkpt>
<trkpt lat="39.959432" lon="-8.409530">
<ele>305.5</ele>
<desc>Speed 35.8 km/h Distance 20.52 km</desc>
<time>2011-05-22T08:44:03.31</time>
<name>4637</name>
<sym>Dot</sym>
</trkpt>
<trkpt lat="39.959345" lon="-8.409568">
<ele>305.0</ele>
<desc>Speed 36.1 km/h Distance 20.53 km</desc>
<time>2011-05-22T08:44:04.31</time>
<name>4638</name>
<sym>Dot</sym>
</trkpt>
<trkpt lat="39.959260" lon="-8.409603">
<ele>305.0</ele>
<desc>Speed 35.9 km/h Distance 20.54 km</desc>
<time>2011-05-22T08:44:05.31</time>
<name>4639</name>
<sym>Dot</sym>
</trkpt>
<trkpt lat="39.959172" lon="-8.409627">
<ele>304.5</ele>
<desc>Speed 36.1 km/h Distance 20.55 km</desc>
<time>2011-05-22T08:44:06.31</time>
<name>4640</name>
<sym>Dot</sym>
</trkpt>
<trkpt lat="39.959083" lon="-8.409645">
<ele>304.0</ele>
<desc>Speed 35.9 km/h Distance 20.56 km</desc>
<time>2011-05-22T08:44:07.31</time>
<name>4641</name>
<sym>Dot</sym>
</trkpt>
<trkpt lat="39.958993" lon="-8.409658">
<ele>304.0</ele>
<desc>Speed 35.6 km/h Distance 20.57 km</desc>
<time>2011-05-22T08:44:08.31</time>
<name>4642</name>
<sym>Dot</sym>
</trkpt>
<trkpt lat="39.958905" lon="-8.409667">
<ele>304.0</ele>
<desc>Speed 35.3 km/h Distance 20.58 km</desc>
<time>2011-05-22T08:44:09.31</time>
<name>4643</name>
<sym>Dot</sym>
</trkpt>
<trkpt lat="39.958817" lon="-8.409675">
<ele>304.0</ele>
<desc>Speed 35.3 km/h Distance 20.59 km</desc>
<time>2011-05-22T08:44:10.31</time>
<name>4644</name>
<sym>Dot</sym>
</trkpt>
<trkpt lat="39.958728" lon="-8.409680">
<ele>304.0</ele>
<desc>Speed 35.6 km/h Distance 20.60 km</desc>
<time>2011-05-22T08:44:11.31</time>
<name>4645</name>
<sym>Dot</sym>
</trkpt>
<trkpt lat="39.958640" lon="-8.409678">
<ele>304.0</ele>
<desc>Speed 35.0 km/h Distance 20.61 km</desc>
<time>2011-05-22T08:44:12.31</time>
<name>4646</name>
<sym>Dot</sym>
</trkpt>
<trkpt lat="39.958553" lon="-8.409677">
<ele>304.0</ele>
<desc>Speed 34.7 km/h Distance 20.62 km</desc>
<time>2011-05-22T08:44:13.31</time>
<name>4647</name>
<sym>Dot</sym>
</trkpt>
<trkpt lat="39.958467" lon="-8.409663">
<ele>304.0</ele>
<desc>Speed 35.0 km/h Distance 20.63 km</desc>
<time>2011-05-22T08:44:14.31</time>
<name>4648</name>
<sym>Dot</sym>
</trkpt>
<trkpt lat="39.958385" lon="-8.409635">
<ele>304.0</ele>
<desc>Speed 33.9 km/h Distance 20.64 km</desc>
<time>2011-05-22T08:44:15.31</time>
<name>4649</name>
<sym>Dot</sym>
</trkpt>
<trkpt lat="39.958303" lon="-8.409608">
<ele>304.0</ele>
<desc>Speed 33.6 km/h Distance 20.65 km</desc>
<time>2011-05-22T08:44:16.31</time>
<name>4650</name>
<sym>Dot</sym>
</trkpt>
<trkpt lat="39.958223" lon="-8.409583">
<ele>304.0</ele>
<desc>Speed 33.5 km/h Distance 20.66 km</desc>
<time>2011-05-22T08:44:17.31</time>
<name>4651</name>
<sym>Dot</sym>
</trkpt>
<trkpt lat="39.958142" lon="-8.409557">
<ele>304.0</ele>
<desc>Speed 33.4 km/h Distance 20.67 km</desc>
<time>2011-05-22T08:44:18.31</time>
<name>4652</name>
<sym>Dot</sym>
</trkpt>
<trkpt lat="39.958062" lon="-8.409528">
<ele>303.5</ele>
<desc>Speed 33.8 km/h Distance 20.68 km</desc>
<time>2011-05-22T08:44:19.31</time>
<name>4653</name>
<sym>Dot</sym>
</trkpt>
<trkpt lat="39.957978" lon="-8.409498">
<ele>303.5</ele>
<desc>Speed 34.1 km/h Distance 20.69 km</desc>
<time>2011-05-22T08:44:20.31</time>
<name>4654</name>
<sym>Dot</sym>
</trkpt>
<trkpt lat="39.957898" lon="-8.409470">
<ele>303.5</ele>
<desc>Speed 33.9 km/h Distance 20.69 km</desc>
<time>2011-05-22T08:44:21.31</time>
<name>4655</name>
<sym>Dot</sym>
</trkpt>
<trkpt lat="39.957813" lon="-8.409442">
<ele>303.5</ele>
<desc>Speed 35.1 km/h Distance 20.70 km</desc>
<time>2011-05-22T08:44:22.31</time>
<name>4656</name>
<sym>Dot</sym>
</trkpt>
<trkpt lat="39.957728" lon="-8.409420">
<ele>303.5</ele>
<desc>Speed 34.9 km/h Distance 20.71 km</desc>
<time>2011-05-22T08:44:23.31</time>
<name>4657</name>
<sym>Dot</sym>
</trkpt>
<trkpt lat="39.957645" lon="-8.409405">
<ele>303.5</ele>
<desc>Speed 34.5 km/h Distance 20.72 km</desc>
<time>2011-05-22T08:44:24.31</time>
<name>4658</name>
<sym>Dot</sym>
</trkpt>
<trkpt lat="39.957558" lon="-8.409393">
<ele>303.5</ele>
<desc>Speed 34.8 km/h Distance 20.73 km</desc>
<time>2011-05-22T08:44:25.31</time>
<name>4659</name>
<sym>Dot</sym>
</trkpt>
<trkpt lat="39.957475" lon="-8.409388">
<ele>303.5</ele>
<desc>Speed 34.1 km/h Distance 20.74 km</desc>
<time>2011-05-22T08:44:26.31</time>
<name>4660</name>
<sym>Dot</sym>
</trkpt>
<trkpt lat="39.957390" lon="-8.409390">
<ele>303.5</ele>
<desc>Speed 33.9 km/h Distance 20.75 km</desc>
<time>2011-05-22T08:44:27.31</time>
<name>4661</name>
<sym>Dot</sym>
</trkpt>
<trkpt lat="39.957307" lon="-8.409398">
<ele>304.0</ele>
<desc>Speed 33.6 km/h Distance 20.76 km</desc>
<time>2011-05-22T08:44:28.31</time>
<name>4662</name>
<sym>Dot</sym>
</trkpt>
<trkpt lat="39.957225" lon="-8.409415">
<ele>304.0</ele>
<desc>Speed 33.0 km/h Distance 20.77 km</desc>
<time>2011-05-22T08:44:29.31</time>
<name>4663</name>
<sym>Dot</sym>
</trkpt>
<trkpt lat="39.957145" lon="-8.409438">
<ele>304.0</ele>
<desc>Speed 32.7 km/h Distance 20.78 km</desc>
<time>2011-05-22T08:44:30.31</time>
<name>4664</name>
<sym>Dot</sym>
</trkpt>
<trkpt lat="39.957065" lon="-8.409468">
<ele>304.0</ele>
<desc>Speed 32.9 km/h Distance 20.79 km</desc>
<time>2011-05-22T08:44:31.31</time>
<name>4665</name>
<sym>Dot</sym>
</trkpt>
<trkpt lat="39.956990" lon="-8.409503">
<ele>304.5</ele>
<desc>Speed 32.3 km/h Distance 20.80 km</desc>
<time>2011-05-22T08:44:32.31</time>
<name>4666</name>
<sym>Dot</sym>
</trkpt>
<trkpt lat="39.956915" lon="-8.409540">
<ele>304.5</ele>
<desc>Speed 31.7 km/h Distance 20.81 km</desc>
<time>2011-05-22T08:44:33.31</time>
<name>4667</name>
<sym>Dot</sym>
</trkpt>
<trkpt lat="39.956840" lon="-8.409568">
<ele>304.5</ele>
<desc>Speed 31.5 km/h Distance 20.82 km</desc>
<time>2011-05-22T08:44:34.31</time>
<name>4668</name>
<sym>Dot</sym>
</trkpt>
<trkpt lat="39.956762" lon="-8.409585">
<ele>304.5</ele>
<desc>Speed 31.8 km/h Distance 20.82 km</desc>
<time>2011-05-22T08:44:35.31</time>
<name>4669</name>
<sym>Dot</sym>
</trkpt>
<trkpt lat="39.956683" lon="-8.409587">
<ele>304.5</ele>
<desc>Speed 31.4 km/h Distance 20.83 km</desc>
<time>2011-05-22T08:44:36.31</time>
<name>4670</name>
<sym>Dot</sym>
</trkpt>
<trkpt lat="39.956607" lon="-8.409573">
<ele>304.5</ele>
<desc>Speed 31.0 km/h Distance 20.84 km</desc>
<time>2011-05-22T08:44:37.31</time>
<name>4671</name>
<sym>Dot</sym>
</trkpt>
<trkpt lat="39.956532" lon="-8.409548">
<ele>304.5</ele>
<desc>Speed 30.8 km/h Distance 20.85 km</desc>
<time>2011-05-22T08:44:38.31</time>
<name>4672</name>
<sym>Dot</sym>
</trkpt>
<trkpt lat="39.956460" lon="-8.409513">
<ele>304.0</ele>
<desc>Speed 31.1 km/h Distance 20.86 km</desc>
<time>2011-05-22T08:44:39.31</time>
<name>4673</name>
<sym>Dot</sym>
</trkpt>
<trkpt lat="39.956392" lon="-8.409472">
<ele>304.0</ele>
<desc>Speed 30.7 km/h Distance 20.87 km</desc>
<time>2011-05-22T08:44:40.31</time>
<name>4674</name>
<sym>Dot</sym>
</trkpt>
<trkpt lat="39.956330" lon="-8.409418">
<ele>304.0</ele>
<desc>Speed 30.2 km/h Distance 20.88 km</desc>
<time>2011-05-22T08:44:41.31</time>
<name>4675</name>
<sym>Dot</sym>
</trkpt>
<trkpt lat="39.956273" lon="-8.409355">
<ele>304.0</ele>
<desc>Speed 29.8 km/h Distance 20.88 km</desc>
<time>2011-05-22T08:44:42.31</time>
<name>4676</name>
<sym>Dot</sym>
</trkpt>
<trkpt lat="39.956225" lon="-8.409287">
<ele>304.0</ele>
<desc>Speed 29.2 km/h Distance 20.89 km</desc>
<time>2011-05-22T08:44:43.31</time>
<name>4677</name>
<sym>Dot</sym>
</trkpt>
<trkpt lat="39.956178" lon="-8.409217">
<ele>303.5</ele>
<desc>Speed 28.7 km/h Distance 20.90 km</desc>
<time>2011-05-22T08:44:44.31</time>
<name>4678</name>
<sym>Dot</sym>
</trkpt>
<trkpt lat="39.956133" lon="-8.409145">
<ele>303.5</ele>
<desc>Speed 28.7 km/h Distance 20.91 km</desc>
<time>2011-05-22T08:44:45.31</time>
<name>4679</name>
<sym>Dot</sym>
</trkpt>
<trkpt lat="39.956088" lon="-8.409075">
<ele>303.5</ele>
<desc>Speed 28.4 km/h Distance 20.92 km</desc>
<time>2011-05-22T08:44:46.31</time>
<name>4680</name>
<sym>Dot</sym>
</trkpt>
<trkpt lat="39.956042" lon="-8.409013">
<ele>303.5</ele>
<desc>Speed 27.7 km/h Distance 20.92 km</desc>
<time>2011-05-22T08:44:47.31</time>
<name>4681</name>
<sym>Dot</sym>
</trkpt>
<trkpt lat="39.955932" lon="-8.408922">
<ele>303.5</ele>
<desc>Speed 25.9 km/h Distance 20.94 km</desc>
<time>2011-05-22T08:44:48.92</time>
<name>4682</name>
<sym>Dot</sym>
</trkpt>
<trkpt lat="39.955873" lon="-8.408888">
<ele>304.0</ele>
<desc>Speed 25.1 km/h Distance 20.94 km</desc>
<time>2011-05-22T08:44:50.35</time>
<name>4683</name>
<sym>Dot</sym>
</trkpt>
<trkpt lat="39.955820" lon="-8.408858">
<ele>304.0</ele>
<desc>Speed 23.3 km/h Distance 20.95 km</desc>
<time>2011-05-22T08:44:51.35</time>
<name>4684</name>
<sym>Dot</sym>
</trkpt>
<trkpt lat="39.955768" lon="-8.408835">
<ele>304.0</ele>
<desc>Speed 22.2 km/h Distance 20.96 km</desc>
<time>2011-05-22T08:44:52.35</time>
<name>4685</name>
<sym>Dot</sym>
</trkpt>
<trkpt lat="39.955717" lon="-8.408812">
<ele>304.0</ele>
<desc>Speed 21.3 km/h Distance 20.96 km</desc>
<time>2011-05-22T08:44:53.35</time>
<name>4686</name>
<sym>Dot</sym>
</trkpt>
<trkpt lat="39.955668" lon="-8.408793">
<ele>304.0</ele>
<desc>Speed 20.7 km/h Distance 20.97 km</desc>
<time>2011-05-22T08:44:54.35</time>
<name>4687</name>
<sym>Dot</sym>
</trkpt>
<trkpt lat="39.955620" lon="-8.408775">
<ele>304.5</ele>
<desc>Speed 20.0 km/h Distance 20.97 km</desc>
<time>2011-05-22T08:44:55.35</time>
<name>4688</name>
<sym>Dot</sym>
</trkpt>
<trkpt lat="39.955575" lon="-8.408755">
<ele>304.5</ele>
<desc>Speed 19.1 km/h Distance 20.98 km</desc>
<time>2011-05-22T08:44:56.35</time>
<name>4689</name>
<sym>Dot</sym>
</trkpt>
<trkpt lat="39.955530" lon="-8.408735">
<ele>304.5</ele>
<desc>Speed 18.8 km/h Distance 20.98 km</desc>
<time>2011-05-22T08:44:57.35</time>
<name>4690</name>
<sym>Dot</sym>
</trkpt>
<trkpt lat="39.955488" lon="-8.408718">
<ele>304.5</ele>
<desc>Speed 17.9 km/h Distance 20.99 km</desc>
<time>2011-05-22T08:44:58.35</time>
<name>4691</name>
<sym>Dot</sym>
</trkpt>
<trkpt lat="39.955448" lon="-8.408702">
<ele>304.5</ele>
<desc>Speed 16.7 km/h Distance 20.99 km</desc>
<time>2011-05-22T08:44:59.35</time>
<name>4692</name>
<sym>Dot</sym>
</trkpt>
<trkpt lat="39.955410" lon="-8.408683">
<ele>305.0</ele>
<desc>Speed 16.1 km/h Distance 21.00 km</desc>
<time>2011-05-22T08:45:00.35</time>
<name>4693</name>
<sym>Dot</sym>
</trkpt>
<trkpt lat="39.955373" lon="-8.408665">
<ele>305.0</ele>
<desc>Speed 16.1 km/h Distance 21.00 km</desc>
<time>2011-05-22T08:45:01.35</time>
<name>4694</name>
<sym>Dot</sym>
</trkpt>
<trkpt lat="39.955337" lon="-8.408648">
<ele>305.0</ele>
<desc>Speed 15.5 km/h Distance 21.01 km</desc>
<time>2011-05-22T08:45:02.35</time>
<name>4695</name>
<sym>Dot</sym>
</trkpt>
<trkpt lat="39.955300" lon="-8.408630">
<ele>305.0</ele>
<desc>Speed 15.4 km/h Distance 21.01 km</desc>
<time>2011-05-22T08:45:03.35</time>
<name>4696</name>
<sym>Dot</sym>
</trkpt>
<trkpt lat="39.955267" lon="-8.408615">
<ele>305.0</ele>
<desc>Speed 14.3 km/h Distance 21.02 km</desc>
<time>2011-05-22T08:45:04.35</time>
<name>4697</name>
<sym>Dot</sym>
</trkpt>
<trkpt lat="39.955235" lon="-8.408600">
<ele>305.5</ele>
<desc>Speed 13.5 km/h Distance 21.02 km</desc>
<time>2011-05-22T08:45:05.35</time>
<name>4698</name>
<sym>Dot</sym>
</trkpt>
<trkpt lat="39.955205" lon="-8.408585">
<ele>305.5</ele>
<desc>Speed 13.3 km/h Distance 21.02 km</desc>
<time>2011-05-22T08:45:06.35</time>
<name>4699</name>
<sym>Dot</sym>
</trkpt>
<trkpt lat="39.955173" lon="-8.408570">
<ele>305.5</ele>
<desc>Speed 13.5 km/h Distance 21.03 km</desc>
<time>2011-05-22T08:45:07.35</time>
<name>4700</name>
<sym>Dot</sym>
</trkpt>
<trkpt lat="39.955142" lon="-8.408557">
<ele>306.0</ele>
<desc>Speed 13.4 km/h Distance 21.03 km</desc>
<time>2011-05-22T08:45:08.35</time>
<name>4701</name>
<sym>Dot</sym>
</trkpt>
<trkpt lat="39.955112" lon="-8.408543">
<ele>306.0</ele>
<desc>Speed 13.5 km/h Distance 21.03 km</desc>
<time>2011-05-22T08:45:09.35</time>
<name>4702</name>
<sym>Dot</sym>
</trkpt>
<trkpt lat="39.955080" lon="-8.408530">
<ele>306.0</ele>
<desc>Speed 13.7 km/h Distance 21.04 km</desc>
<time>2011-05-22T08:45:10.35</time>
<name>4703</name>
<sym>Dot</sym>
</trkpt>
<trkpt lat="39.955047" lon="-8.408517">
<ele>306.5</ele>
<desc>Speed 13.9 km/h Distance 21.04 km</desc>
<time>2011-05-22T08:45:11.35</time>
<name>4704</name>
<sym>Dot</sym>
</trkpt>
<trkpt lat="39.955017" lon="-8.408503">
<ele>306.5</ele>
<desc>Speed 13.5 km/h Distance 21.04 km</desc>
<time>2011-05-22T08:45:12.35</time>
<name>4705</name>
<sym>Dot</sym>
</trkpt>
<trkpt lat="39.954985" lon="-8.408490">
<ele>307.0</ele>
<desc>Speed 13.2 km/h Distance 21.05 km</desc>
<time>2011-05-22T08:45:13.35</time>
<name>4706</name>
<sym>Dot</sym>
</trkpt>
<trkpt lat="39.954955" lon="-8.408477">
<ele>307.0</ele>
<desc>Speed 13.1 km/h Distance 21.05 km</desc>
<time>2011-05-22T08:45:14.35</time>
<name>4707</name>
<sym>Dot</sym>
</trkpt>
<trkpt lat="39.954925" lon="-8.408465">
<ele>307.0</ele>
<desc>Speed 12.9 km/h Distance 21.06 km</desc>
<time>2011-05-22T08:45:15.35</time>
<name>4708</name>
<sym>Dot</sym>
</trkpt>
<trkpt lat="39.954893" lon="-8.408452">
<ele>307.0</ele>
<desc>Speed 13.1 km/h Distance 21.06 km</desc>
<time>2011-05-22T08:45:16.35</time>
<name>4709</name>
<sym>Dot</sym>
</trkpt>
<trkpt lat="39.954862" lon="-8.408440">
<ele>307.5</ele>
<desc>Speed 13.0 km/h Distance 21.06 km</desc>
<time>2011-05-22T08:45:17.35</time>
<name>4710</name>
<sym>Dot</sym>
</trkpt>
<trkpt lat="39.954833" lon="-8.408427">
<ele>307.5</ele>
<desc>Speed 12.0 km/h Distance 21.07 km</desc>
<time>2011-05-22T08:45:18.48</time>
<name>4711</name>
<sym>Dot</sym>
</trkpt>
<trkpt lat="39.954807" lon="-8.408415">
<ele>307.5</ele>
<desc>Speed 11.1 km/h Distance 21.07 km</desc>
<time>2011-05-22T08:45:19.34</time>
<name>4712</name>
<sym>Dot</sym>
</trkpt>
<trkpt lat="39.954778" lon="-8.408403">
<ele>307.5</ele>
<desc>Speed 11.8 km/h Distance 21.07 km</desc>
<time>2011-05-22T08:45:20.34</time>
<name>4713</name>
<sym>Dot</sym>
</trkpt>
<trkpt lat="39.954752" lon="-8.408392">
<ele>308.0</ele>
<desc>Speed 11.7 km/h Distance 21.08 km</desc>
<time>2011-05-22T08:45:21.34</time>
<name>4714</name>
<sym>Dot</sym>
</trkpt>
<trkpt lat="39.954723" lon="-8.408380">
<ele>308.0</ele>
<desc>Speed 11.6 km/h Distance 21.08 km</desc>
<time>2011-05-22T08:45:22.34</time>
<name>4715</name>
<sym>Dot</sym>
</trkpt>
<trkpt lat="39.954697" lon="-8.408368">
<ele>308.0</ele>
<desc>Speed 11.4 km/h Distance 21.08 km</desc>
<time>2011-05-22T08:45:23.34</time>
<name>4716</name>
<sym>Dot</sym>
</trkpt>
<trkpt lat="39.954670" lon="-8.408355">
<ele>308.5</ele>
<desc>Speed 11.3 km/h Distance 21.09 km</desc>
<time>2011-05-22T08:45:24.34</time>
<name>4717</name>
<sym>Dot</sym>
</trkpt>
<trkpt lat="39.954643" lon="-8.408342">
<ele>308.5</ele>
<desc>Speed 11.2 km/h Distance 21.09 km</desc>
<time>2011-05-22T08:45:25.34</time>
<name>4718</name>
<sym>Dot</sym>
</trkpt>
<trkpt lat="39.954618" lon="-8.408330">
<ele>309.0</ele>
<desc>Speed 10.5 km/h Distance 21.09 km</desc>
<time>2011-05-22T08:45:26.34</time>
<name>4719</name>
<sym>Dot</sym>
</trkpt>
<trkpt lat="39.954595" lon="-8.408318">
<ele>309.0</ele>
<desc>Speed 9.4 km/h Distance 21.09 km</desc>
<time>2011-05-22T08:45:27.34</time>
<name>4720</name>
<sym>Dot</sym>
</trkpt>
<trkpt lat="39.954575" lon="-8.408310">
<ele>309.5</ele>
<desc>Speed 8.0 km/h Distance 21.10 km</desc>
<time>2011-05-22T08:45:28.34</time>
<name>4721</name>
<sym>Dot</sym>
</trkpt>
<trkpt lat="39.954558" lon="-8.408303">
<ele>309.0</ele>
<desc>Speed 6.2 km/h Distance 21.10 km</desc>
<time>2011-05-22T08:45:29.34</time>
<name>4722</name>
<sym>Dot</sym>
</trkpt>
<trkpt lat="39.954542" lon="-8.408297">
<ele>308.5</ele>
<desc>Speed 6.7 km/h Distance 21.10 km</desc>
<time>2011-05-22T08:45:30.34</time>
<name>4723</name>
<sym>Dot</sym>
</trkpt>
<trkpt lat="39.954525" lon="-8.408288">
<ele>308.5</ele>
<desc>Speed 6.3 km/h Distance 21.10 km</desc>
<time>2011-05-22T08:45:31.34</time>
<name>4724</name>
<sym>Dot</sym>
</trkpt>
<trkpt lat="39.954513" lon="-8.408280">
<ele>309.0</ele>
<desc>Speed 5.2 km/h Distance 21.10 km</desc>
<time>2011-05-22T08:45:32.34</time>
<name>4725</name>
<sym>Dot</sym>
</trkpt>
<trkpt lat="39.954502" lon="-8.408272">
<ele>309.0</ele>
<desc>Speed 4.6 km/h Distance 21.11 km</desc>
<time>2011-05-22T08:45:33.34</time>
<name>4726</name>
<sym>Dot</sym>
</trkpt>
<trkpt lat="39.954492" lon="-8.408263">
<ele>309.5</ele>
<desc>Speed 4.2 km/h Distance 21.11 km</desc>
<time>2011-05-22T08:45:34.34</time>
<name>4727</name>
<sym>Dot</sym>
</trkpt>
<trkpt lat="39.954482" lon="-8.408257">
<ele>309.5</ele>
<desc>Speed 4.4 km/h Distance 21.11 km</desc>
<time>2011-05-22T08:45:35.34</time>
<name>4728</name>
<sym>Dot</sym>
</trkpt>
<trkpt lat="39.954472" lon="-8.408253">
<ele>309.0</ele>
<desc>Speed 3.6 km/h Distance 21.11 km</desc>
<time>2011-05-22T08:45:36.34</time>
<name>4729</name>
<sym>Dot</sym>
</trkpt>
<trkpt lat="39.954468" lon="-8.408248">
<ele>309.0</ele>
<desc>Speed 2.3 km/h Distance 21.11 km</desc>
<time>2011-05-22T08:45:37.34</time>
<name>4730</name>
<sym>Dot</sym>
</trkpt>
<trkpt lat="39.954460" lon="-8.408250">
<ele>309.5</ele>
<desc>Speed 2.4 km/h Distance 21.11 km</desc>
<time>2011-05-22T08:45:40.34</time>
<name>4731</name>
<sym>Dot</sym>
</trkpt>
<trkpt lat="39.954452" lon="-8.408250">
<ele>309.5</ele>
<desc>Speed 2.9 km/h Distance 21.11 km</desc>
<time>2011-05-22T08:45:41.34</time>
<name>4732</name>
<sym>Dot</sym>
</trkpt>
<trkpt lat="39.954447" lon="-8.408248">
<ele>309.5</ele>
<desc>Speed 2.2 km/h Distance 21.11 km</desc>
<time>2011-05-22T08:45:42.34</time>
<name>4733</name>
<sym>Dot</sym>
</trkpt>
<trkpt lat="39.954447" lon="-8.408245">
<ele>308.5</ele>
<desc>Speed 1.2 km/h Distance 21.11 km</desc>
<time>2011-05-22T08:46:17.34</time>
<name>4734</name>
<sym>Dot</sym>
</trkpt>
<trkpt lat="39.954438" lon="-8.408238">
<ele>308.5</ele>
<desc>Speed 3.1 km/h Distance 21.11 km</desc>
<time>2011-05-22T08:46:20.34</time>
<name>4735</name>
<sym>Dot</sym>
</trkpt>
<trkpt lat="39.954432" lon="-8.408232">
<ele>309.0</ele>
<desc>Speed 3.2 km/h Distance 21.11 km</desc>
<time>2011-05-22T08:46:21.34</time>
<name>4736</name>
<sym>Dot</sym>
</trkpt>
<trkpt lat="39.954420" lon="-8.408222">
<ele>309.5</ele>
<desc>Speed 4.8 km/h Distance 21.12 km</desc>
<time>2011-05-22T08:46:22.34</time>
<name>4737</name>
<sym>Dot</sym>
</trkpt>
<trkpt lat="39.954410" lon="-8.408212">
<ele>309.5</ele>
<desc>Speed 4.8 km/h Distance 21.12 km</desc>
<time>2011-05-22T08:46:23.34</time>
<name>4738</name>
<sym>Dot</sym>
</trkpt>
<trkpt lat="39.954398" lon="-8.408203">
<ele>309.5</ele>
<desc>Speed 5.0 km/h Distance 21.12 km</desc>
<time>2011-05-22T08:46:24.34</time>
<name>4739</name>
<sym>Dot</sym>
</trkpt>
<trkpt lat="39.954388" lon="-8.408197">
<ele>309.5</ele>
<desc>Speed 4.6 km/h Distance 21.12 km</desc>
<time>2011-05-22T08:46:25.34</time>
<name>4740</name>
<sym>Dot</sym>
</trkpt>
<trkpt lat="39.954375" lon="-8.408188">
<ele>310.0</ele>
<desc>Speed 4.9 km/h Distance 21.12 km</desc>
<time>2011-05-22T08:46:26.34</time>
<name>4741</name>
<sym>Dot</sym>
</trkpt>
<trkpt lat="39.954363" lon="-8.408180">
<ele>310.0</ele>
<desc>Speed 5.3 km/h Distance 21.12 km</desc>
<time>2011-05-22T08:46:27.34</time>
<name>4742</name>
<sym>Dot</sym>
</trkpt>
<trkpt lat="39.954353" lon="-8.408168">
<ele>310.5</ele>
<desc>Speed 5.5 km/h Distance 21.12 km</desc>
<time>2011-05-22T08:46:28.34</time>
<name>4743</name>
<sym>Dot</sym>
</trkpt>
<trkpt lat="39.954343" lon="-8.408155">
<ele>311.0</ele>
<desc>Speed 5.1 km/h Distance 21.13 km</desc>
<time>2011-05-22T08:46:29.34</time>
<name>4744</name>
<sym>Dot</sym>
</trkpt>
<trkpt lat="39.954335" lon="-8.408140">
<ele>311.0</ele>
<desc>Speed 5.7 km/h Distance 21.13 km</desc>
<time>2011-05-22T08:46:30.34</time>
<name>4745</name>
<sym>Dot</sym>
</trkpt>
<trkpt lat="39.954322" lon="-8.408125">
<ele>311.5</ele>
<desc>Speed 6.8 km/h Distance 21.13 km</desc>
<time>2011-05-22T08:46:31.34</time>
<name>4746</name>
<sym>Dot</sym>
</trkpt>
<trkpt lat="39.954305" lon="-8.408113">
<ele>311.5</ele>
<desc>Speed 7.7 km/h Distance 21.13 km</desc>
<time>2011-05-22T08:46:32.34</time>
<name>4747</name>
<sym>Dot</sym>
</trkpt>
<trkpt lat="39.954288" lon="-8.408098">
<ele>311.5</ele>
<desc>Speed 7.9 km/h Distance 21.13 km</desc>
<time>2011-05-22T08:46:33.34</time>
<name>4748</name>
<sym>Dot</sym>
</trkpt>
<trkpt lat="39.954272" lon="-8.408083">
<ele>311.5</ele>
<desc>Speed 8.2 km/h Distance 21.14 km</desc>
<time>2011-05-22T08:46:34.34</time>
<name>4749</name>
<sym>Dot</sym>
</trkpt>
<trkpt lat="39.954253" lon="-8.408067">
<ele>311.5</ele>
<desc>Speed 8.6 km/h Distance 21.14 km</desc>
<time>2011-05-22T08:46:35.34</time>
<name>4750</name>
<sym>Dot</sym>
</trkpt>
<trkpt lat="39.954235" lon="-8.408053">
<ele>311.5</ele>
<desc>Speed 8.5 km/h Distance 21.14 km</desc>
<time>2011-05-22T08:46:36.34</time>
<name>4751</name>
<sym>Dot</sym>
</trkpt>
<trkpt lat="39.954218" lon="-8.408037">
<ele>311.5</ele>
<desc>Speed 8.7 km/h Distance 21.14 km</desc>
<time>2011-05-22T08:46:37.34</time>
<name>4752</name>
<sym>Dot</sym>
</trkpt>
<trkpt lat="39.954198" lon="-8.408018">
<ele>311.5</ele>
<desc>Speed 9.2 km/h Distance 21.15 km</desc>
<time>2011-05-22T08:46:38.34</time>
<name>4753</name>
<sym>Dot</sym>
</trkpt>
<trkpt lat="39.954180" lon="-8.408002">
<ele>311.5</ele>
<desc>Speed 9.2 km/h Distance 21.15 km</desc>
<time>2011-05-22T08:46:39.34</time>
<name>4754</name>
<sym>Dot</sym>
</trkpt>
<trkpt lat="39.954160" lon="-8.407982">
<ele>312.0</ele>
<desc>Speed 9.6 km/h Distance 21.15 km</desc>
<time>2011-05-22T08:46:40.34</time>
<name>4755</name>
<sym>Dot</sym>
</trkpt>
<trkpt lat="39.954140" lon="-8.407965">
<ele>312.0</ele>
<desc>Speed 9.4 km/h Distance 21.15 km</desc>
<time>2011-05-22T08:46:41.34</time>
<name>4756</name>
<sym>Dot</sym>
</trkpt>
<trkpt lat="39.954120" lon="-8.407947">
<ele>312.5</ele>
<desc>Speed 8.9 km/h Distance 21.16 km</desc>
<time>2011-05-22T08:46:42.34</time>
<name>4757</name>
<sym>Dot</sym>
</trkpt>
<trkpt lat="39.954102" lon="-8.407928">
<ele>312.5</ele>
<desc>Speed 9.2 km/h Distance 21.16 km</desc>
<time>2011-05-22T08:46:43.34</time>
<name>4758</name>
<sym>Dot</sym>
</trkpt>
<trkpt lat="39.954083" lon="-8.407908">
<ele>312.5</ele>
<desc>Speed 9.4 km/h Distance 21.16 km</desc>
<time>2011-05-22T08:46:44.34</time>
<name>4759</name>
<sym>Dot</sym>
</trkpt>
<trkpt lat="39.954063" lon="-8.407890">
<ele>312.5</ele>
<desc>Speed 9.3 km/h Distance 21.17 km</desc>
<time>2011-05-22T08:46:45.34</time>
<name>4760</name>
<sym>Dot</sym>
</trkpt>
<trkpt lat="39.954045" lon="-8.407873">
<ele>312.5</ele>
<desc>Speed 8.5 km/h Distance 21.17 km</desc>
<time>2011-05-22T08:46:46.34</time>
<name>4761</name>
<sym>Dot</sym>
</trkpt>
<trkpt lat="39.954030" lon="-8.407855">
<ele>313.0</ele>
<desc>Speed 8.0 km/h Distance 21.17 km</desc>
<time>2011-05-22T08:46:47.34</time>
<name>4762</name>
<sym>Dot</sym>
</trkpt>
<trkpt lat="39.954013" lon="-8.407838">
<ele>313.0</ele>
<desc>Speed 8.1 km/h Distance 21.17 km</desc>
<time>2011-05-22T08:46:48.34</time>
<name>4763</name>
<sym>Dot</sym>
</trkpt>
<trkpt lat="39.953997" lon="-8.407823">
<ele>313.0</ele>
<desc>Speed 8.3 km/h Distance 21.17 km</desc>
<time>2011-05-22T08:46:49.34</time>
<name>4764</name>
<sym>Dot</sym>
</trkpt>
<trkpt lat="39.953978" lon="-8.407807">
<ele>313.0</ele>
<desc>Speed 8.8 km/h Distance 21.18 km</desc>
<time>2011-05-22T08:46:50.34</time>
<name>4765</name>
<sym>Dot</sym>
</trkpt>
<trkpt lat="39.953958" lon="-8.407790">
<ele>313.0</ele>
<desc>Speed 9.0 km/h Distance 21.18 km</desc>
<time>2011-05-22T08:46:51.34</time>
<name>4766</name>
<sym>Dot</sym>
</trkpt>
<trkpt lat="39.953940" lon="-8.407773">
<ele>313.5</ele>
<desc>Speed 9.1 km/h Distance 21.18 km</desc>
<time>2011-05-22T08:46:52.34</time>
<name>4767</name>
<sym>Dot</sym>
</trkpt>
<trkpt lat="39.953922" lon="-8.407757">
<ele>313.5</ele>
<desc>Speed 8.9 km/h Distance 21.18 km</desc>
<time>2011-05-22T08:46:53.34</time>
<name>4768</name>
<sym>Dot</sym>
</trkpt>
<trkpt lat="39.953900" lon="-8.407740">
<ele>314.0</ele>
<desc>Speed 9.3 km/h Distance 21.19 km</desc>
<time>2011-05-22T08:46:54.34</time>
<name>4769</name>
<sym>Dot</sym>
</trkpt>
<trkpt lat="39.953880" lon="-8.407720">
<ele>314.0</ele>
<desc>Speed 9.7 km/h Distance 21.19 km</desc>
<time>2011-05-22T08:46:55.34</time>
<name>4770</name>
<sym>Dot</sym>
</trkpt>
<trkpt lat="39.953860" lon="-8.407700">
<ele>314.5</ele>
<desc>Speed 9.6 km/h Distance 21.19 km</desc>
<time>2011-05-22T08:46:56.34</time>
<name>4771</name>
<sym>Dot</sym>
</trkpt>
<trkpt lat="39.953840" lon="-8.407680">
<ele>314.5</ele>
<desc>Speed 9.7 km/h Distance 21.20 km</desc>
<time>2011-05-22T08:46:57.34</time>
<name>4772</name>
<sym>Dot</sym>
</trkpt>
<trkpt lat="39.953820" lon="-8.407663">
<ele>315.0</ele>
<desc>Speed 9.2 km/h Distance 21.20 km</desc>
<time>2011-05-22T08:46:58.34</time>
<name>4773</name>
<sym>Dot</sym>
</trkpt>
<trkpt lat="39.953803" lon="-8.407643">
<ele>315.0</ele>
<desc>Speed 9.0 km/h Distance 21.20 km</desc>
<time>2011-05-22T08:46:59.34</time>
<name>4774</name>
<sym>Dot</sym>
</trkpt>
<trkpt lat="39.953785" lon="-8.407627">
<ele>315.5</ele>
<desc>Speed 8.6 km/h Distance 21.20 km</desc>
<time>2011-05-22T08:47:00.34</time>
<name>4775</name>
<sym>Dot</sym>
</trkpt>
<trkpt lat="39.953765" lon="-8.407610">
<ele>315.5</ele>
<desc>Speed 9.1 km/h Distance 21.21 km</desc>
<time>2011-05-22T08:47:01.34</time>
<name>4776</name>
<sym>Dot</sym>
</trkpt>
<trkpt lat="39.953745" lon="-8.407592">
<ele>316.0</ele>
<desc>Speed 9.5 km/h Distance 21.21 km</desc>
<time>2011-05-22T08:47:02.34</time>
<name>4777</name>
<sym>Dot</sym>
</trkpt>
<trkpt lat="39.953727" lon="-8.407572">
<ele>316.0</ele>
<desc>Speed 9.3 km/h Distance 21.21 km</desc>
<time>2011-05-22T08:47:03.34</time>
<name>4778</name>
<sym>Dot</sym>
</trkpt>
<trkpt lat="39.953708" lon="-8.407553">
<ele>316.0</ele>
<desc>Speed 9.1 km/h Distance 21.21 km</desc>
<time>2011-05-22T08:47:04.34</time>
<name>4779</name>
<sym>Dot</sym>
</trkpt>
<trkpt lat="39.953690" lon="-8.407535">
<ele>316.0</ele>
<desc>Speed 9.2 km/h Distance 21.22 km</desc>
<time>2011-05-22T08:47:05.34</time>
<name>4780</name>
<sym>Dot</sym>
</trkpt>
<trkpt lat="39.953672" lon="-8.407517">
<ele>316.5</ele>
<desc>Speed 9.1 km/h Distance 21.22 km</desc>
<time>2011-05-22T08:47:06.34</time>
<name>4781</name>
<sym>Dot</sym>
</trkpt>
<trkpt lat="39.953655" lon="-8.407498">
<ele>316.5</ele>
<desc>Speed 9.0 km/h Distance 21.22 km</desc>
<time>2011-05-22T08:47:07.34</time>
<name>4782</name>
<sym>Dot</sym>
</trkpt>
<trkpt lat="39.953638" lon="-8.407482">
<ele>316.5</ele>
<desc>Speed 7.9 km/h Distance 21.22 km</desc>
<time>2011-05-22T08:47:08.34</time>
<name>4783</name>
<sym>Dot</sym>
</trkpt>
<trkpt lat="39.953623" lon="-8.407467">
<ele>316.5</ele>
<desc>Speed 7.3 km/h Distance 21.23 km</desc>
<time>2011-05-22T08:47:09.34</time>
<name>4784</name>
<sym>Dot</sym>
</trkpt>
<trkpt lat="39.953607" lon="-8.407452">
<ele>316.5</ele>
<desc>Speed 7.8 km/h Distance 21.23 km</desc>
<time>2011-05-22T08:47:10.34</time>
<name>4785</name>
<sym>Dot</sym>
</trkpt>
<trkpt lat="39.953587" lon="-8.407437">
<ele>316.5</ele>
<desc>Speed 9.0 km/h Distance 21.23 km</desc>
<time>2011-05-22T08:47:11.34</time>
<name>4786</name>
<sym>Dot</sym>
</trkpt>
<trkpt lat="39.953570" lon="-8.407417">
<ele>316.5</ele>
<desc>Speed 9.0 km/h Distance 21.23 km</desc>
<time>2011-05-22T08:47:12.34</time>
<name>4787</name>
<sym>Dot</sym>
</trkpt>
<trkpt lat="39.953553" lon="-8.407398">
<ele>316.5</ele>
<desc>Speed 8.5 km/h Distance 21.24 km</desc>
<time>2011-05-22T08:47:13.34</time>
<name>4788</name>
<sym>Dot</sym>
</trkpt>
<trkpt lat="39.953537" lon="-8.407382">
<ele>316.5</ele>
<desc>Speed 8.3 km/h Distance 21.24 km</desc>
<time>2011-05-22T08:47:14.34</time>
<name>4789</name>
<sym>Dot</sym>
</trkpt>
<trkpt lat="39.953517" lon="-8.407363">
<ele>317.0</ele>
<desc>Speed 9.0 km/h Distance 21.24 km</desc>
<time>2011-05-22T08:47:15.34</time>
<name>4790</name>
<sym>Dot</sym>
</trkpt>
<trkpt lat="39.953498" lon="-8.407343">
<ele>317.0</ele>
<desc>Speed 9.5 km/h Distance 21.24 km</desc>
<time>2011-05-22T08:47:16.34</time>
<name>4791</name>
<sym>Dot</sym>
</trkpt>
<trkpt lat="39.953482" lon="-8.407323">
<ele>317.0</ele>
<desc>Speed 9.5 km/h Distance 21.25 km</desc>
<time>2011-05-22T08:47:17.34</time>
<name>4792</name>
<sym>Dot</sym>
</trkpt>
<trkpt lat="39.953463" lon="-8.407303">
<ele>317.0</ele>
<desc>Speed 9.3 km/h Distance 21.25 km</desc>
<time>2011-05-22T08:47:18.34</time>
<name>4793</name>
<sym>Dot</sym>
</trkpt>
<trkpt lat="39.953443" lon="-8.407282">
<ele>317.0</ele>
<desc>Speed 9.9 km/h Distance 21.25 km</desc>
<time>2011-05-22T08:47:19.34</time>
<name>4794</name>
<sym>Dot</sym>
</trkpt>
<trkpt lat="39.953425" lon="-8.407262">
<ele>317.0</ele>
<desc>Speed 9.7 km/h Distance 21.25 km</desc>
<time>2011-05-22T08:47:20.34</time>
<name>4795</name>
<sym>Dot</sym>
</trkpt>
<trkpt lat="39.953408" lon="-8.407242">
<ele>317.5</ele>
<desc>Speed 9.4 km/h Distance 21.26 km</desc>
<time>2011-05-22T08:47:21.34</time>
<name>4796</name>
<sym>Dot</sym>
</trkpt>
<trkpt lat="39.953390" lon="-8.407225">
<ele>318.0</ele>
<desc>Speed 8.8 km/h Distance 21.26 km</desc>
<time>2011-05-22T08:47:22.34</time>
<name>4797</name>
<sym>Dot</sym>
</trkpt>
<trkpt lat="39.953372" lon="-8.407205">
<ele>318.0</ele>
<desc>Speed 9.3 km/h Distance 21.26 km</desc>
<time>2011-05-22T08:47:23.34</time>
<name>4798</name>
<sym>Dot</sym>
</trkpt>
<trkpt lat="39.953357" lon="-8.407182">
<ele>318.0</ele>
<desc>Speed 9.6 km/h Distance 21.26 km</desc>
<time>2011-05-22T08:47:24.34</time>
<name>4799</name>
<sym>Dot</sym>
</trkpt>
<trkpt lat="39.953340" lon="-8.407158">
<ele>318.0</ele>
<desc>Speed 9.6 km/h Distance 21.27 km</desc>
<time>2011-05-22T08:47:25.34</time>
<name>4800</name>
<sym>Dot</sym>
</trkpt>
<trkpt lat="39.953323" lon="-8.407135">
<ele>317.5</ele>
<desc>Speed 9.6 km/h Distance 21.27 km</desc>
<time>2011-05-22T08:47:26.34</time>
<name>4801</name>
<sym>Dot</sym>
</trkpt>
<trkpt lat="39.953308" lon="-8.407112">
<ele>318.0</ele>
<desc>Speed 9.0 km/h Distance 21.27 km</desc>
<time>2011-05-22T08:47:27.34</time>
<name>4802</name>
<sym>Dot</sym>
</trkpt>
<trkpt lat="39.953292" lon="-8.407088">
<ele>318.5</ele>
<desc>Speed 9.2 km/h Distance 21.28 km</desc>
<time>2011-05-22T08:47:28.34</time>
<name>4803</name>
<sym>Dot</sym>
</trkpt>
<trkpt lat="39.953277" lon="-8.407063">
<ele>318.5</ele>
<desc>Speed 9.5 km/h Distance 21.28 km</desc>
<time>2011-05-22T08:47:29.34</time>
<name>4804</name>
<sym>Dot</sym>
</trkpt>
<trkpt lat="39.953262" lon="-8.407037">
<ele>318.5</ele>
<desc>Speed 9.9 km/h Distance 21.28 km</desc>
<time>2011-05-22T08:47:30.34</time>
<name>4805</name>
<sym>Dot</sym>
</trkpt>
<trkpt lat="39.953248" lon="-8.407008">
<ele>319.0</ele>
<desc>Speed 10.0 km/h Distance 21.28 km</desc>
<time>2011-05-22T08:47:31.34</time>
<name>4806</name>
<sym>Dot</sym>
</trkpt>
<trkpt lat="39.953235" lon="-8.406978">
<ele>319.0</ele>
<desc>Speed 10.2 km/h Distance 21.29 km</desc>
<time>2011-05-22T08:47:32.34</time>
<name>4807</name>
<sym>Dot</sym>
</trkpt>
<trkpt lat="39.953223" lon="-8.406950">
<ele>319.0</ele>
<desc>Speed 10.2 km/h Distance 21.29 km</desc>
<time>2011-05-22T08:47:33.34</time>
<name>4808</name>
<sym>Dot</sym>
</trkpt>
<trkpt lat="39.953210" lon="-8.406923">
<ele>319.0</ele>
<desc>Speed 9.8 km/h Distance 21.29 km</desc>
<time>2011-05-22T08:47:34.34</time>
<name>4809</name>
<sym>Dot</sym>
</trkpt>
<trkpt lat="39.953197" lon="-8.406897">
<ele>319.5</ele>
<desc>Speed 9.6 km/h Distance 21.29 km</desc>
<time>2011-05-22T08:47:35.34</time>
<name>4810</name>
<sym>Dot</sym>
</trkpt>
<trkpt lat="39.953187" lon="-8.406868">
<ele>319.5</ele>
<desc>Speed 9.5 km/h Distance 21.30 km</desc>
<time>2011-05-22T08:47:36.34</time>
<name>4811</name>
<sym>Dot</sym>
</trkpt>
<trkpt lat="39.953175" lon="-8.406838">
<ele>319.5</ele>
<desc>Speed 9.7 km/h Distance 21.30 km</desc>
<time>2011-05-22T08:47:37.34</time>
<name>4812</name>
<sym>Dot</sym>
</trkpt>
<trkpt lat="39.953165" lon="-8.406812">
<ele>319.5</ele>
<desc>Speed 9.4 km/h Distance 21.30 km</desc>
<time>2011-05-22T08:47:38.34</time>
<name>4813</name>
<sym>Dot</sym>
</trkpt>
<trkpt lat="39.953153" lon="-8.406783">
<ele>320.0</ele>
<desc>Speed 9.6 km/h Distance 21.31 km</desc>
<time>2011-05-22T08:47:39.34</time>
<name>4814</name>
<sym>Dot</sym>
</trkpt>
<trkpt lat="39.953143" lon="-8.406757">
<ele>320.5</ele>
<desc>Speed 9.1 km/h Distance 21.31 km</desc>
<time>2011-05-22T08:47:40.34</time>
<name>4815</name>
<sym>Dot</sym>
</trkpt>
<trkpt lat="39.953132" lon="-8.406730">
<ele>320.5</ele>
<desc>Speed 9.1 km/h Distance 21.31 km</desc>
<time>2011-05-22T08:47:41.34</time>
<name>4816</name>
<sym>Dot</sym>
</trkpt>
<trkpt lat="39.953120" lon="-8.406703">
<ele>320.5</ele>
<desc>Speed 9.3 km/h Distance 21.31 km</desc>
<time>2011-05-22T08:47:42.34</time>
<name>4817</name>
<sym>Dot</sym>
</trkpt>
<trkpt lat="39.953110" lon="-8.406677">
<ele>320.5</ele>
<desc>Speed 9.0 km/h Distance 21.32 km</desc>
<time>2011-05-22T08:47:43.34</time>
<name>4818</name>
<sym>Dot</sym>
</trkpt>
<trkpt lat="39.953098" lon="-8.406648">
<ele>320.5</ele>
<desc>Speed 9.2 km/h Distance 21.32 km</desc>
<time>2011-05-22T08:47:44.34</time>
<name>4819</name>
<sym>Dot</sym>
</trkpt>
<trkpt lat="39.953087" lon="-8.406622">
<ele>320.5</ele>
<desc>Speed 9.4 km/h Distance 21.32 km</desc>
<time>2011-05-22T08:47:45.34</time>
<name>4820</name>
<sym>Dot</sym>
</trkpt>
<trkpt lat="39.953075" lon="-8.406595">
<ele>320.5</ele>
<desc>Speed 9.6 km/h Distance 21.32 km</desc>
<time>2011-05-22T08:47:46.34</time>
<name>4821</name>
<sym>Dot</sym>
</trkpt>
<trkpt lat="39.953065" lon="-8.406567">
<ele>321.0</ele>
<desc>Speed 9.5 km/h Distance 21.33 km</desc>
<time>2011-05-22T08:47:47.34</time>
<name>4822</name>
<sym>Dot</sym>
</trkpt>
<trkpt lat="39.953053" lon="-8.406537">
<ele>321.0</ele>
<desc>Speed 9.8 km/h Distance 21.33 km</desc>
<time>2011-05-22T08:47:48.34</time>
<name>4823</name>
<sym>Dot</sym>
</trkpt>
<trkpt lat="39.953043" lon="-8.406508">
<ele>321.0</ele>
<desc>Speed 9.6 km/h Distance 21.33 km</desc>
<time>2011-05-22T08:47:49.34</time>
<name>4824</name>
<sym>Dot</sym>
</trkpt>
<trkpt lat="39.953033" lon="-8.406480">
<ele>321.0</ele>
<desc>Speed 9.7 km/h Distance 21.33 km</desc>
<time>2011-05-22T08:47:50.34</time>
<name>4825</name>
<sym>Dot</sym>
</trkpt>
<trkpt lat="39.953022" lon="-8.406450">
<ele>321.0</ele>
<desc>Speed 9.9 km/h Distance 21.34 km</desc>
<time>2011-05-22T08:47:51.34</time>
<name>4826</name>
<sym>Dot</sym>
</trkpt>
<trkpt lat="39.953012" lon="-8.406422">
<ele>320.5</ele>
<desc>Speed 10.1 km/h Distance 21.34 km</desc>
<time>2011-05-22T08:47:52.34</time>
<name>4827</name>
<sym>Dot</sym>
</trkpt>
<trkpt lat="39.953000" lon="-8.406392">
<ele>320.5</ele>
<desc>Speed 10.0 km/h Distance 21.34 km</desc>
<time>2011-05-22T08:47:53.34</time>
<name>4828</name>
<sym>Dot</sym>
</trkpt>
<trkpt lat="39.952988" lon="-8.406358">
<ele>320.5</ele>
<desc>Speed 10.6 km/h Distance 21.35 km</desc>
<time>2011-05-22T08:47:54.34</time>
<name>4829</name>
<sym>Dot</sym>
</trkpt>
<trkpt lat="39.952977" lon="-8.406327">
<ele>320.5</ele>
<desc>Speed 10.5 km/h Distance 21.35 km</desc>
<time>2011-05-22T08:47:55.34</time>
<name>4830</name>
<sym>Dot</sym>
</trkpt>
<trkpt lat="39.952967" lon="-8.406297">
<ele>320.5</ele>
<desc>Speed 10.4 km/h Distance 21.35 km</desc>
<time>2011-05-22T08:47:56.34</time>
<name>4831</name>
<sym>Dot</sym>
</trkpt>
<trkpt lat="39.952957" lon="-8.406263">
<ele>320.5</ele>
<desc>Speed 10.4 km/h Distance 21.36 km</desc>
<time>2011-05-22T08:47:57.34</time>
<name>4832</name>
<sym>Dot</sym>
</trkpt>
<trkpt lat="39.952947" lon="-8.406232">
<ele>320.5</ele>
<desc>Speed 10.4 km/h Distance 21.36 km</desc>
<time>2011-05-22T08:47:58.34</time>
<name>4833</name>
<sym>Dot</sym>
</trkpt>
<trkpt lat="39.952935" lon="-8.406200">
<ele>320.5</ele>
<desc>Speed 10.6 km/h Distance 21.36 km</desc>
<time>2011-05-22T08:47:59.34</time>
<name>4834</name>
<sym>Dot</sym>
</trkpt>
<trkpt lat="39.952923" lon="-8.406167">
<ele>320.5</ele>
<desc>Speed 10.9 km/h Distance 21.36 km</desc>
<time>2011-05-22T08:48:00.34</time>
<name>4835</name>
<sym>Dot</sym>
</trkpt>
<trkpt lat="39.952912" lon="-8.406133">
<ele>320.5</ele>
<desc>Speed 11.1 km/h Distance 21.37 km</desc>
<time>2011-05-22T08:48:01.34</time>
<name>4836</name>
<sym>Dot</sym>
</trkpt>
<trkpt lat="39.952900" lon="-8.406100">
<ele>320.5</ele>
<desc>Speed 11.0 km/h Distance 21.37 km</desc>
<time>2011-05-22T08:48:02.34</time>
<name>4837</name>
<sym>Dot</sym>
</trkpt>
<trkpt lat="39.952888" lon="-8.406067">
<ele>320.5</ele>
<desc>Speed 11.3 km/h Distance 21.37 km</desc>
<time>2011-05-22T08:48:03.34</time>
<name>4838</name>
<sym>Dot</sym>
</trkpt>
<trkpt lat="39.952877" lon="-8.406030">
<ele>320.5</ele>
<desc>Speed 11.7 km/h Distance 21.38 km</desc>
<time>2011-05-22T08:48:04.34</time>
<name>4839</name>
<sym>Dot</sym>
</trkpt>
<trkpt lat="39.952863" lon="-8.405993">
<ele>320.5</ele>
<desc>Speed 12.5 km/h Distance 21.38 km</desc>
<time>2011-05-22T08:48:05.34</time>
<name>4840</name>
<sym>Dot</sym>
</trkpt>
<trkpt lat="39.952850" lon="-8.405957">
<ele>320.5</ele>
<desc>Speed 12.6 km/h Distance 21.38 km</desc>
<time>2011-05-22T08:48:06.34</time>
<name>4841</name>
<sym>Dot</sym>
</trkpt>
<trkpt lat="39.952837" lon="-8.405918">
<ele>320.0</ele>
<desc>Speed 12.9 km/h Distance 21.39 km</desc>
<time>2011-05-22T08:48:07.34</time>
<name>4842</name>
<sym>Dot</sym>
</trkpt>
<trkpt lat="39.952822" lon="-8.405880">
<ele>320.0</ele>
<desc>Speed 13.1 km/h Distance 21.39 km</desc>
<time>2011-05-22T08:48:08.34</time>
<name>4843</name>
<sym>Dot</sym>
</trkpt>
<trkpt lat="39.952808" lon="-8.405840">
<ele>320.0</ele>
<desc>Speed 13.5 km/h Distance 21.39 km</desc>
<time>2011-05-22T08:48:09.34</time>
<name>4844</name>
<sym>Dot</sym>
</trkpt>
<trkpt lat="39.952795" lon="-8.405800">
<ele>319.5</ele>
<desc>Speed 13.6 km/h Distance 21.40 km</desc>
<time>2011-05-22T08:48:10.34</time>
<name>4845</name>
<sym>Dot</sym>
</trkpt>
<trkpt lat="39.952780" lon="-8.405757">
<ele>319.0</ele>
<desc>Speed 14.4 km/h Distance 21.40 km</desc>
<time>2011-05-22T08:48:11.34</time>
<name>4846</name>
<sym>Dot</sym>
</trkpt>
<trkpt lat="39.952760" lon="-8.405713">
<ele>319.0</ele>
<desc>Speed 15.2 km/h Distance 21.41 km</desc>
<time>2011-05-22T08:48:12.34</time>
<name>4847</name>
<sym>Dot</sym>
</trkpt>
<trkpt lat="39.952742" lon="-8.405670">
<ele>319.0</ele>
<desc>Speed 15.8 km/h Distance 21.41 km</desc>
<time>2011-05-22T08:48:13.34</time>
<name>4848</name>
<sym>Dot</sym>
</trkpt>
<trkpt lat="39.952715" lon="-8.405632">
<ele>319.5</ele>
<desc>Speed 15.9 km/h Distance 21.42 km</desc>
<time>2011-05-22T08:48:14.34</time>
<name>4849</name>
<sym>Dot</sym>
</trkpt>
<trkpt lat="39.952687" lon="-8.405592">
<ele>320.5</ele>
<desc>Speed 17.0 km/h Distance 21.42 km</desc>
<time>2011-05-22T08:48:15.34</time>
<name>4850</name>
<sym>Dot</sym>
</trkpt>
<trkpt lat="39.952655" lon="-8.405553">
<ele>322.0</ele>
<desc>Speed 17.7 km/h Distance 21.43 km</desc>
<time>2011-05-22T08:48:16.34</time>
<name>4851</name>
<sym>Dot</sym>
</trkpt>
<trkpt lat="39.952627" lon="-8.405520">
<ele>323.5</ele>
<desc>Speed 15.6 km/h Distance 21.43 km</desc>
<time>2011-05-22T08:48:17.34</time>
<name>4852</name>
<sym>Dot</sym>
</trkpt>
<trkpt lat="39.952580" lon="-8.405508">
<ele>323.5</ele>
<desc>Speed 19.0 km/h Distance 21.43 km</desc>
<time>2011-05-22T08:48:18.34</time>
<name>4853</name>
<sym>Dot</sym>
</trkpt>
<trkpt lat="39.952533" lon="-8.405517">
<ele>323.0</ele>
<desc>Speed 19.7 km/h Distance 21.44 km</desc>
<time>2011-05-22T08:48:19.34</time>
<name>4854</name>
<sym>Dot</sym>
</trkpt>
<trkpt lat="39.952488" lon="-8.405535">
<ele>323.0</ele>
<desc>Speed 18.8 km/h Distance 21.45 km</desc>
<time>2011-05-22T08:48:20.34</time>
<name>4855</name>
<sym>Dot</sym>
</trkpt>
<trkpt lat="39.952447" lon="-8.405562">
<ele>322.5</ele>
<desc>Speed 19.0 km/h Distance 21.45 km</desc>
<time>2011-05-22T08:48:21.34</time>
<name>4856</name>
<sym>Dot</sym>
</trkpt>
<trkpt lat="39.952422" lon="-8.405602">
<ele>324.5</ele>
<desc>Speed 15.6 km/h Distance 21.45 km</desc>
<time>2011-05-22T08:48:22.34</time>
<name>4857</name>
<sym>Dot</sym>
</trkpt>
<trkpt lat="39.952387" lon="-8.405645">
<ele>324.0</ele>
<desc>Speed 19.5 km/h Distance 21.46 km</desc>
<time>2011-05-22T08:48:23.34</time>
<name>4858</name>
<sym>Dot</sym>
</trkpt>
<trkpt lat="39.952353" lon="-8.405692">
<ele>324.0</ele>
<desc>Speed 19.4 km/h Distance 21.47 km</desc>
<time>2011-05-22T08:48:24.34</time>
<name>4859</name>
<sym>Dot</sym>
</trkpt>
<trkpt lat="39.952322" lon="-8.405738">
<ele>324.0</ele>
<desc>Speed 19.5 km/h Distance 21.47 km</desc>
<time>2011-05-22T08:48:25.34</time>
<name>4860</name>
<sym>Dot</sym>
</trkpt>
<trkpt lat="39.952287" lon="-8.405787">
<ele>323.5</ele>
<desc>Speed 20.3 km/h Distance 21.48 km</desc>
<time>2011-05-22T08:48:26.34</time>
<name>4861</name>
<sym>Dot</sym>
</trkpt>
<trkpt lat="39.952248" lon="-8.405832">
<ele>323.5</ele>
<desc>Speed 20.5 km/h Distance 21.48 km</desc>
<time>2011-05-22T08:48:27.34</time>
<name>4862</name>
<sym>Dot</sym>
</trkpt>
<trkpt lat="39.952207" lon="-8.405872">
<ele>323.5</ele>
<desc>Speed 20.8 km/h Distance 21.49 km</desc>
<time>2011-05-22T08:48:28.34</time>
<name>4863</name>
<sym>Dot</sym>
</trkpt>
<trkpt lat="39.952165" lon="-8.405910">
<ele>323.0</ele>
<desc>Speed 20.9 km/h Distance 21.49 km</desc>
<time>2011-05-22T08:48:29.34</time>
<name>4864</name>
<sym>Dot</sym>
</trkpt>
<trkpt lat="39.952122" lon="-8.405948">
<ele>323.0</ele>
<desc>Speed 21.2 km/h Distance 21.50 km</desc>
<time>2011-05-22T08:48:30.34</time>
<name>4865</name>
<sym>Dot</sym>
</trkpt>
<trkpt lat="39.952078" lon="-8.405987">
<ele>323.0</ele>
<desc>Speed 21.1 km/h Distance 21.51 km</desc>
<time>2011-05-22T08:48:31.34</time>
<name>4866</name>
<sym>Dot</sym>
</trkpt>
<trkpt lat="39.952037" lon="-8.406028">
<ele>322.5</ele>
<desc>Speed 20.9 km/h Distance 21.51 km</desc>
<time>2011-05-22T08:48:32.34</time>
<name>4867</name>
<sym>Dot</sym>
</trkpt>
<trkpt lat="39.951995" lon="-8.406070">
<ele>322.0</ele>
<desc>Speed 21.3 km/h Distance 21.52 km</desc>
<time>2011-05-22T08:48:33.34</time>
<name>4868</name>
<sym>Dot</sym>
</trkpt>
<trkpt lat="39.951953" lon="-8.406113">
<ele>321.5</ele>
<desc>Speed 21.4 km/h Distance 21.52 km</desc>
<time>2011-05-22T08:48:34.34</time>
<name>4869</name>
<sym>Dot</sym>
</trkpt>
<trkpt lat="39.951910" lon="-8.406158">
<ele>321.5</ele>
<desc>Speed 22.3 km/h Distance 21.53 km</desc>
<time>2011-05-22T08:48:35.34</time>
<name>4870</name>
<sym>Dot</sym>
</trkpt>
<trkpt lat="39.951867" lon="-8.406205">
<ele>321.0</ele>
<desc>Speed 22.2 km/h Distance 21.54 km</desc>
<time>2011-05-22T08:48:36.34</time>
<name>4871</name>
<sym>Dot</sym>
</trkpt>
<trkpt lat="39.951823" lon="-8.406253">
<ele>321.0</ele>
<desc>Speed 22.7 km/h Distance 21.54 km</desc>
<time>2011-05-22T08:48:37.34</time>
<name>4872</name>
<sym>Dot</sym>
</trkpt>
<trkpt lat="39.951782" lon="-8.406303">
<ele>321.0</ele>
<desc>Speed 22.4 km/h Distance 21.55 km</desc>
<time>2011-05-22T08:48:38.34</time>
<name>4873</name>
<sym>Dot</sym>
</trkpt>
<trkpt lat="39.951740" lon="-8.406353">
<ele>321.0</ele>
<desc>Speed 22.7 km/h Distance 21.55 km</desc>
<time>2011-05-22T08:48:39.34</time>
<name>4874</name>
<sym>Dot</sym>
</trkpt>
<trkpt lat="39.951698" lon="-8.406405">
<ele>320.5</ele>
<desc>Speed 23.0 km/h Distance 21.56 km</desc>
<time>2011-05-22T08:48:40.34</time>
<name>4875</name>
<sym>Dot</sym>
</trkpt>
<trkpt lat="39.951655" lon="-8.406457">
<ele>320.5</ele>
<desc>Speed 23.4 km/h Distance 21.57 km</desc>
<time>2011-05-22T08:48:41.34</time>
<name>4876</name>
<sym>Dot</sym>
</trkpt>
<trkpt lat="39.951612" lon="-8.406507">
<ele>320.0</ele>
<desc>Speed 23.3 km/h Distance 21.57 km</desc>
<time>2011-05-22T08:48:42.34</time>
<name>4877</name>
<sym>Dot</sym>
</trkpt>
<trkpt lat="39.951567" lon="-8.406555">
<ele>320.0</ele>
<desc>Speed 23.4 km/h Distance 21.58 km</desc>
<time>2011-05-22T08:48:43.34</time>
<name>4878</name>
<sym>Dot</sym>
</trkpt>
<trkpt lat="39.951518" lon="-8.406600">
<ele>319.5</ele>
<desc>Speed 23.9 km/h Distance 21.59 km</desc>
<time>2011-05-22T08:48:44.34</time>
<name>4879</name>
<sym>Dot</sym>
</trkpt>
<trkpt lat="39.951468" lon="-8.406643">
<ele>319.5</ele>
<desc>Speed 24.1 km/h Distance 21.59 km</desc>
<time>2011-05-22T08:48:45.34</time>
<name>4880</name>
<sym>Dot</sym>
</trkpt>
<trkpt lat="39.951417" lon="-8.406682">
<ele>319.5</ele>
<desc>Speed 23.9 km/h Distance 21.60 km</desc>
<time>2011-05-22T08:48:46.34</time>
<name>4881</name>
<sym>Dot</sym>
</trkpt>
<trkpt lat="39.951363" lon="-8.406722">
<ele>319.5</ele>
<desc>Speed 24.3 km/h Distance 21.61 km</desc>
<time>2011-05-22T08:48:47.34</time>
<name>4882</name>
<sym>Dot</sym>
</trkpt>
<trkpt lat="39.951310" lon="-8.406760">
<ele>319.0</ele>
<desc>Speed 24.4 km/h Distance 21.61 km</desc>
<time>2011-05-22T08:48:48.34</time>
<name>4883</name>
<sym>Dot</sym>
</trkpt>
<trkpt lat="39.951255" lon="-8.406800">
<ele>319.0</ele>
<desc>Speed 24.6 km/h Distance 21.62 km</desc>
<time>2011-05-22T08:48:49.34</time>
<name>4884</name>
<sym>Dot</sym>
</trkpt>
<trkpt lat="39.951202" lon="-8.406837">
<ele>318.5</ele>
<desc>Speed 24.1 km/h Distance 21.63 km</desc>
<time>2011-05-22T08:48:50.34</time>
<name>4885</name>
<sym>Dot</sym>
</trkpt>
<trkpt lat="39.951150" lon="-8.406873">
<ele>318.5</ele>
<desc>Speed 23.7 km/h Distance 21.63 km</desc>
<time>2011-05-22T08:48:51.34</time>
<name>4886</name>
<sym>Dot</sym>
</trkpt>
<trkpt lat="39.951100" lon="-8.406910">
<ele>318.5</ele>
<desc>Speed 23.0 km/h Distance 21.64 km</desc>
<time>2011-05-22T08:48:52.34</time>
<name>4887</name>
<sym>Dot</sym>
</trkpt>
<trkpt lat="39.951052" lon="-8.406943">
<ele>318.5</ele>
<desc>Speed 22.3 km/h Distance 21.65 km</desc>
<time>2011-05-22T08:48:53.34</time>
<name>4888</name>
<sym>Dot</sym>
</trkpt>
<trkpt lat="39.951003" lon="-8.406975">
<ele>318.5</ele>
<desc>Speed 21.8 km/h Distance 21.65 km</desc>
<time>2011-05-22T08:48:54.34</time>
<name>4889</name>
<sym>Dot</sym>
</trkpt>
<trkpt lat="39.950957" lon="-8.407010">
<ele>318.5</ele>
<desc>Speed 21.0 km/h Distance 21.66 km</desc>
<time>2011-05-22T08:48:55.34</time>
<name>4890</name>
<sym>Dot</sym>
</trkpt>
<trkpt lat="39.950913" lon="-8.407047">
<ele>318.5</ele>
<desc>Speed 20.6 km/h Distance 21.66 km</desc>
<time>2011-05-22T08:48:56.34</time>
<name>4891</name>
<sym>Dot</sym>
</trkpt>
<trkpt lat="39.950870" lon="-8.407077">
<ele>318.0</ele>
<desc>Speed 19.8 km/h Distance 21.67 km</desc>
<time>2011-05-22T08:48:57.34</time>
<name>4892</name>
<sym>Dot</sym>
</trkpt>
<trkpt lat="39.950825" lon="-8.407103">
<ele>318.0</ele>
<desc>Speed 19.7 km/h Distance 21.68 km</desc>
<time>2011-05-22T08:48:58.34</time>
<name>4893</name>
<sym>Dot</sym>
</trkpt>
<trkpt lat="39.950778" lon="-8.407128">
<ele>318.0</ele>
<desc>Speed 19.7 km/h Distance 21.68 km</desc>
<time>2011-05-22T08:48:59.34</time>
<name>4894</name>
<sym>Dot</sym>
</trkpt>
<trkpt lat="39.950732" lon="-8.407148">
<ele>318.5</ele>
<desc>Speed 19.7 km/h Distance 21.69 km</desc>
<time>2011-05-22T08:49:00.34</time>
<name>4895</name>
<sym>Dot</sym>
</trkpt>
<trkpt lat="39.950685" lon="-8.407165">
<ele>318.5</ele>
<desc>Speed 19.8 km/h Distance 21.69 km</desc>
<time>2011-05-22T08:49:01.34</time>
<name>4896</name>
<sym>Dot</sym>
</trkpt>
<trkpt lat="39.950635" lon="-8.407177">
<ele>318.5</ele>
<desc>Speed 20.0 km/h Distance 21.70 km</desc>
<time>2011-05-22T08:49:02.34</time>
<name>4897</name>
<sym>Dot</sym>
</trkpt>
<trkpt lat="39.950590" lon="-8.407182">
<ele>318.5</ele>
<desc>Speed 18.0 km/h Distance 21.70 km</desc>
<time>2011-05-22T08:49:03.34</time>
<name>4898</name>
<sym>Dot</sym>
</trkpt>
<trkpt lat="39.950545" lon="-8.407183">
<ele>318.5</ele>
<desc>Speed 18.2 km/h Distance 21.71 km</desc>
<time>2011-05-22T08:49:04.34</time>
<name>4899</name>
<sym>Dot</sym>
</trkpt>
<trkpt lat="39.950498" lon="-8.407182">
<ele>318.5</ele>
<desc>Speed 18.6 km/h Distance 21.71 km</desc>
<time>2011-05-22T08:49:05.34</time>
<name>4900</name>
<sym>Dot</sym>
</trkpt>
<trkpt lat="39.950450" lon="-8.407178">
<ele>318.5</ele>
<desc>Speed 19.4 km/h Distance 21.72 km</desc>
<time>2011-05-22T08:49:06.34</time>
<name>4901</name>
<sym>Dot</sym>
</trkpt>
<trkpt lat="39.950400" lon="-8.407173">
<ele>318.0</ele>
<desc>Speed 20.4 km/h Distance 21.72 km</desc>
<time>2011-05-22T08:49:07.34</time>
<name>4902</name>
<sym>Dot</sym>
</trkpt>
<trkpt lat="39.950347" lon="-8.407168">
<ele>317.5</ele>
<desc>Speed 21.1 km/h Distance 21.73 km</desc>
<time>2011-05-22T08:49:08.34</time>
<name>4903</name>
<sym>Dot</sym>
</trkpt>
<trkpt lat="39.950288" lon="-8.407160">
<ele>317.5</ele>
<desc>Speed 23.3 km/h Distance 21.74 km</desc>
<time>2011-05-22T08:49:09.34</time>
<name>4904</name>
<sym>Dot</sym>
</trkpt>
<trkpt lat="39.950228" lon="-8.407153">
<ele>317.5</ele>
<desc>Speed 23.9 km/h Distance 21.74 km</desc>
<time>2011-05-22T08:49:10.34</time>
<name>4905</name>
<sym>Dot</sym>
</trkpt>
<trkpt lat="39.950167" lon="-8.407148">
<ele>317.5</ele>
<desc>Speed 24.2 km/h Distance 21.75 km</desc>
<time>2011-05-22T08:49:11.34</time>
<name>4906</name>
<sym>Dot</sym>
</trkpt>
<trkpt lat="39.950105" lon="-8.407143">
<ele>317.5</ele>
<desc>Speed 24.6 km/h Distance 21.76 km</desc>
<time>2011-05-22T08:49:12.34</time>
<name>4907</name>
<sym>Dot</sym>
</trkpt>
<trkpt lat="39.950040" lon="-8.407145">
<ele>317.5</ele>
<desc>Speed 25.0 km/h Distance 21.76 km</desc>
<time>2011-05-22T08:49:13.34</time>
<name>4908</name>
<sym>Dot</sym>
</trkpt>
<trkpt lat="39.949982" lon="-8.407165">
<ele>316.0</ele>
<desc>Speed 23.9 km/h Distance 21.77 km</desc>
<time>2011-05-22T08:49:14.34</time>
<name>4909</name>
<sym>Dot</sym>
</trkpt>
<trkpt lat="39.949920" lon="-8.407193">
<ele>316.0</ele>
<desc>Speed 26.1 km/h Distance 21.78 km</desc>
<time>2011-05-22T08:49:15.34</time>
<name>4910</name>
<sym>Dot</sym>
</trkpt>
<trkpt lat="39.949862" lon="-8.407237">
<ele>316.0</ele>
<desc>Speed 26.6 km/h Distance 21.79 km</desc>
<time>2011-05-22T08:49:16.34</time>
<name>4911</name>
<sym>Dot</sym>
</trkpt>
<trkpt lat="39.949807" lon="-8.407292">
<ele>316.0</ele>
<desc>Speed 27.5 km/h Distance 21.79 km</desc>
<time>2011-05-22T08:49:17.34</time>
<name>4912</name>
<sym>Dot</sym>
</trkpt>
<trkpt lat="39.949755" lon="-8.407352">
<ele>315.5</ele>
<desc>Speed 27.9 km/h Distance 21.80 km</desc>
<time>2011-05-22T08:49:18.34</time>
<name>4913</name>
<sym>Dot</sym>
</trkpt>
<trkpt lat="39.949707" lon="-8.407412">
<ele>315.5</ele>
<desc>Speed 26.6 km/h Distance 21.81 km</desc>
<time>2011-05-22T08:49:19.34</time>
<name>4914</name>
<sym>Dot</sym>
</trkpt>
<trkpt lat="39.949657" lon="-8.407468">
<ele>315.5</ele>
<desc>Speed 26.6 km/h Distance 21.82 km</desc>
<time>2011-05-22T08:49:20.34</time>
<name>4915</name>
<sym>Dot</sym>
</trkpt>
<trkpt lat="39.949602" lon="-8.407518">
<ele>315.0</ele>
<desc>Speed 27.4 km/h Distance 21.82 km</desc>
<time>2011-05-22T08:49:21.34</time>
<name>4916</name>
<sym>Dot</sym>
</trkpt>
<trkpt lat="39.949538" lon="-8.407560">
<ele>315.0</ele>
<desc>Speed 28.1 km/h Distance 21.83 km</desc>
<time>2011-05-22T08:49:22.34</time>
<name>4917</name>
<sym>Dot</sym>
</trkpt>
<trkpt lat="39.949468" lon="-8.407592">
<ele>315.0</ele>
<desc>Speed 29.0 km/h Distance 21.84 km</desc>
<time>2011-05-22T08:49:23.34</time>
<name>4918</name>
<sym>Dot</sym>
</trkpt>
<trkpt lat="39.949395" lon="-8.407613">
<ele>315.0</ele>
<desc>Speed 29.1 km/h Distance 21.85 km</desc>
<time>2011-05-22T08:49:24.34</time>
<name>4919</name>
<sym>Dot</sym>
</trkpt>
<trkpt lat="39.949322" lon="-8.407637">
<ele>315.0</ele>
<desc>Speed 29.8 km/h Distance 21.86 km</desc>
<time>2011-05-22T08:49:25.34</time>
<name>4920</name>
<sym>Dot</sym>
</trkpt>
<trkpt lat="39.949247" lon="-8.407660">
<ele>314.0</ele>
<desc>Speed 30.5 km/h Distance 21.86 km</desc>
<time>2011-05-22T08:49:26.34</time>
<name>4921</name>
<sym>Dot</sym>
</trkpt>
<trkpt lat="39.949170" lon="-8.407682">
<ele>314.0</ele>
<desc>Speed 31.1 km/h Distance 21.87 km</desc>
<time>2011-05-22T08:49:27.34</time>
<name>4922</name>
<sym>Dot</sym>
</trkpt>
<trkpt lat="39.949093" lon="-8.407708">
<ele>313.5</ele>
<desc>Speed 31.4 km/h Distance 21.88 km</desc>
<time>2011-05-22T08:49:28.34</time>
<name>4923</name>
<sym>Dot</sym>
</trkpt>
<trkpt lat="39.949017" lon="-8.407733">
<ele>313.0</ele>
<desc>Speed 31.7 km/h Distance 21.89 km</desc>
<time>2011-05-22T08:49:29.34</time>
<name>4924</name>
<sym>Dot</sym>
</trkpt>
<trkpt lat="39.948938" lon="-8.407758">
<ele>313.0</ele>
<desc>Speed 31.9 km/h Distance 21.90 km</desc>
<time>2011-05-22T08:49:30.34</time>
<name>4925</name>
<sym>Dot</sym>
</trkpt>
<trkpt lat="39.948860" lon="-8.407785">
<ele>312.5</ele>
<desc>Speed 32.4 km/h Distance 21.91 km</desc>
<time>2011-05-22T08:49:31.34</time>
<name>4926</name>
<sym>Dot</sym>
</trkpt>
<trkpt lat="39.948780" lon="-8.407807">
<ele>312.0</ele>
<desc>Speed 32.6 km/h Distance 21.92 km</desc>
<time>2011-05-22T08:49:32.34</time>
<name>4927</name>
<sym>Dot</sym>
</trkpt>
<trkpt lat="39.948698" lon="-8.407833">
<ele>311.0</ele>
<desc>Speed 33.5 km/h Distance 21.93 km</desc>
<time>2011-05-22T08:49:33.34</time>
<name>4928</name>
<sym>Dot</sym>
</trkpt>
<trkpt lat="39.948617" lon="-8.407858">
<ele>311.0</ele>
<desc>Speed 33.8 km/h Distance 21.94 km</desc>
<time>2011-05-22T08:49:34.34</time>
<name>4929</name>
<sym>Dot</sym>
</trkpt>
<trkpt lat="39.948533" lon="-8.407883">
<ele>310.5</ele>
<desc>Speed 34.1 km/h Distance 21.95 km</desc>
<time>2011-05-22T08:49:35.34</time>
<name>4930</name>
<sym>Dot</sym>
</trkpt>
<trkpt lat="39.948448" lon="-8.407907">
<ele>310.0</ele>
<desc>Speed 34.4 km/h Distance 21.96 km</desc>
<time>2011-05-22T08:49:36.34</time>
<name>4931</name>
<sym>Dot</sym>
</trkpt>
<trkpt lat="39.948365" lon="-8.407930">
<ele>309.5</ele>
<desc>Speed 34.2 km/h Distance 21.97 km</desc>
<time>2011-05-22T08:49:37.34</time>
<name>4932</name>
<sym>Dot</sym>
</trkpt>
<trkpt lat="39.948280" lon="-8.407953">
<ele>309.0</ele>
<desc>Speed 34.1 km/h Distance 21.97 km</desc>
<time>2011-05-22T08:49:38.34</time>
<name>4933</name>
<sym>Dot</sym>
</trkpt>
<trkpt lat="39.948197" lon="-8.407977">
<ele>308.5</ele>
<desc>Speed 34.1 km/h Distance 21.98 km</desc>
<time>2011-05-22T08:49:39.34</time>
<name>4934</name>
<sym>Dot</sym>
</trkpt>
<trkpt lat="39.948113" lon="-8.408002">
<ele>308.0</ele>
<desc>Speed 34.2 km/h Distance 21.99 km</desc>
<time>2011-05-22T08:49:40.34</time>
<name>4935</name>
<sym>Dot</sym>
</trkpt>
<trkpt lat="39.948033" lon="-8.408030">
<ele>307.5</ele>
<desc>Speed 33.5 km/h Distance 22.00 km</desc>
<time>2011-05-22T08:49:41.34</time>
<name>4936</name>
<sym>Dot</sym>
</trkpt>
<trkpt lat="39.947952" lon="-8.408057">
<ele>307.5</ele>
<desc>Speed 33.7 km/h Distance 22.01 km</desc>
<time>2011-05-22T08:49:42.34</time>
<name>4937</name>
<sym>Dot</sym>
</trkpt>
<trkpt lat="39.947868" lon="-8.408078">
<ele>307.0</ele>
<desc>Speed 33.9 km/h Distance 22.02 km</desc>
<time>2011-05-22T08:49:43.34</time>
<name>4938</name>
<sym>Dot</sym>
</trkpt>
<trkpt lat="39.947785" lon="-8.408102">
<ele>306.5</ele>
<desc>Speed 33.8 km/h Distance 22.03 km</desc>
<time>2011-05-22T08:49:44.34</time>
<name>4939</name>
<sym>Dot</sym>
</trkpt>
<trkpt lat="39.947702" lon="-8.408123">
<ele>306.0</ele>
<desc>Speed 34.2 km/h Distance 22.04 km</desc>
<time>2011-05-22T08:49:45.34</time>
<name>4940</name>
<sym>Dot</sym>
</trkpt>
<trkpt lat="39.947617" lon="-8.408145">
<ele>305.0</ele>
<desc>Speed 34.6 km/h Distance 22.05 km</desc>
<time>2011-05-22T08:49:46.34</time>
<name>4941</name>
<sym>Dot</sym>
</trkpt>
<trkpt lat="39.947528" lon="-8.408163">
<ele>304.5</ele>
<desc>Speed 35.3 km/h Distance 22.06 km</desc>
<time>2011-05-22T08:49:47.34</time>
<name>4942</name>
<sym>Dot</sym>
</trkpt>
<trkpt lat="39.947442" lon="-8.408187">
<ele>303.5</ele>
<desc>Speed 35.9 km/h Distance 22.07 km</desc>
<time>2011-05-22T08:49:48.34</time>
<name>4943</name>
<sym>Dot</sym>
</trkpt>
<trkpt lat="39.947352" lon="-8.408215">
<ele>303.0</ele>
<desc>Speed 36.6 km/h Distance 22.08 km</desc>
<time>2011-05-22T08:49:49.34</time>
<name>4944</name>
<sym>Dot</sym>
</trkpt>
<trkpt lat="39.947258" lon="-8.408240">
<ele>303.0</ele>
<desc>Speed 37.4 km/h Distance 22.09 km</desc>
<time>2011-05-22T08:49:50.34</time>
<name>4945</name>
<sym>Dot</sym>
</trkpt>
<trkpt lat="39.947167" lon="-8.408267">
<ele>302.5</ele>
<desc>Speed 37.7 km/h Distance 22.10 km</desc>
<time>2011-05-22T08:49:51.34</time>
<name>4946</name>
<sym>Dot</sym>
</trkpt>
<trkpt lat="39.947073" lon="-8.408288">
<ele>302.0</ele>
<desc>Speed 37.5 km/h Distance 22.11 km</desc>
<time>2011-05-22T08:49:52.34</time>
<name>4947</name>
<sym>Dot</sym>
</trkpt>
<trkpt lat="39.946982" lon="-8.408293">
<ele>301.5</ele>
<desc>Speed 36.9 km/h Distance 22.12 km</desc>
<time>2011-05-22T08:49:53.34</time>
<name>4948</name>
<sym>Dot</sym>
</trkpt>
<trkpt lat="39.946883" lon="-8.408282">
<ele>301.0</ele>
<desc>Speed 39.0 km/h Distance 22.13 km</desc>
<time>2011-05-22T08:49:54.34</time>
<name>4949</name>
<sym>Dot</sym>
</trkpt>
<trkpt lat="39.946787" lon="-8.408263">
<ele>300.5</ele>
<desc>Speed 38.6 km/h Distance 22.14 km</desc>
<time>2011-05-22T08:49:55.34</time>
<name>4950</name>
<sym>Dot</sym>
</trkpt>
<trkpt lat="39.946687" lon="-8.408250">
<ele>300.0</ele>
<desc>Speed 39.5 km/h Distance 22.16 km</desc>
<time>2011-05-22T08:49:56.34</time>
<name>4951</name>
<sym>Dot</sym>
</trkpt>
<trkpt lat="39.946588" lon="-8.408243">
<ele>300.0</ele>
<desc>Speed 39.6 km/h Distance 22.17 km</desc>
<time>2011-05-22T08:49:57.34</time>
<name>4952</name>
<sym>Dot</sym>
</trkpt>
<trkpt lat="39.946488" lon="-8.408237">
<ele>299.0</ele>
<desc>Speed 39.9 km/h Distance 22.18 km</desc>
<time>2011-05-22T08:49:58.34</time>
<name>4953</name>
<sym>Dot</sym>
</trkpt>
<trkpt lat="39.946388" lon="-8.408227">
<ele>299.0</ele>
<desc>Speed 40.1 km/h Distance 22.19 km</desc>
<time>2011-05-22T08:49:59.34</time>
<name>4954</name>
<sym>Dot</sym>
</trkpt>
<trkpt lat="39.946290" lon="-8.408208">
<ele>298.5</ele>
<desc>Speed 39.5 km/h Distance 22.20 km</desc>
<time>2011-05-22T08:50:00.34</time>
<name>4955</name>
<sym>Dot</sym>
</trkpt>
<trkpt lat="39.946193" lon="-8.408173">
<ele>298.0</ele>
<desc>Speed 40.0 km/h Distance 22.21 km</desc>
<time>2011-05-22T08:50:01.34</time>
<name>4956</name>
<sym>Dot</sym>
</trkpt>
<trkpt lat="39.946102" lon="-8.408125">
<ele>297.5</ele>
<desc>Speed 39.3 km/h Distance 22.22 km</desc>
<time>2011-05-22T08:50:02.34</time>
<name>4957</name>
<sym>Dot</sym>
</trkpt>
<trkpt lat="39.946017" lon="-8.408075">
<ele>297.0</ele>
<desc>Speed 37.1 km/h Distance 22.23 km</desc>
<time>2011-05-22T08:50:03.34</time>
<name>4958</name>
<sym>Dot</sym>
</trkpt>
<trkpt lat="39.945940" lon="-8.408030">
<ele>296.0</ele>
<desc>Speed 33.7 km/h Distance 22.24 km</desc>
<time>2011-05-22T08:50:04.34</time>
<name>4959</name>
<sym>Dot</sym>
</trkpt>
<trkpt lat="39.945863" lon="-8.407997">
<ele>296.0</ele>
<desc>Speed 31.2 km/h Distance 22.25 km</desc>
<time>2011-05-22T08:50:05.34</time>
<name>4960</name>
<sym>Dot</sym>
</trkpt>
<trkpt lat="39.945793" lon="-8.407982">
<ele>295.0</ele>
<desc>Speed 28.2 km/h Distance 22.26 km</desc>
<time>2011-05-22T08:50:06.34</time>
<name>4961</name>
<sym>Dot</sym>
</trkpt>
<trkpt lat="39.945725" lon="-8.407980">
<ele>295.0</ele>
<desc>Speed 27.6 km/h Distance 22.27 km</desc>
<time>2011-05-22T08:50:07.34</time>
<name>4962</name>
<sym>Dot</sym>
</trkpt>
<trkpt lat="39.945650" lon="-8.407995">
<ele>294.5</ele>
<desc>Speed 29.4 km/h Distance 22.27 km</desc>
<time>2011-05-22T08:50:08.34</time>
<name>4963</name>
<sym>Dot</sym>
</trkpt>
<trkpt lat="39.945580" lon="-8.408025">
<ele>294.0</ele>
<desc>Speed 29.8 km/h Distance 22.28 km</desc>
<time>2011-05-22T08:50:09.34</time>
<name>4964</name>
<sym>Dot</sym>
</trkpt>
<trkpt lat="39.945517" lon="-8.408063">
<ele>293.5</ele>
<desc>Speed 27.6 km/h Distance 22.29 km</desc>
<time>2011-05-22T08:50:10.34</time>
<name>4965</name>
<sym>Dot</sym>
</trkpt>
<trkpt lat="39.945467" lon="-8.408103">
<ele>293.0</ele>
<desc>Speed 23.4 km/h Distance 22.30 km</desc>
<time>2011-05-22T08:50:11.34</time>
<name>4966</name>
<sym>Dot</sym>
</trkpt>
<trkpt lat="39.945423" lon="-8.408130">
<ele>293.0</ele>
<desc>Speed 18.9 km/h Distance 22.30 km</desc>
<time>2011-05-22T08:50:12.34</time>
<name>4967</name>
<sym>Dot</sym>
</trkpt>
<trkpt lat="39.945392" lon="-8.408140">
<ele>295.5</ele>
<desc>Speed 4.5 km/h Distance 22.31 km</desc>
<time>2011-05-22T08:50:15.43</time>
<name>4968</name>
<sym>Dot</sym>
</trkpt>
<trkpt lat="39.945390" lon="-8.408147">
<ele>295.5</ele>
<desc>Speed 1.9 km/h Distance 22.31 km</desc>
<time>2011-05-22T08:50:16.43</time>
<name>4969</name>
<sym>Dot</sym>
</trkpt>
<trkpt lat="39.945392" lon="-8.408145">
<ele>295.5</ele>
<desc>Speed 1.2 km/h Distance 22.31 km</desc>
<time>2011-05-22T08:50:17.43</time>
<name>4970</name>
<sym>Dot</sym>
</trkpt>
<trkpt lat="39.945388" lon="-8.408142">
<ele>295.5</ele>
<desc>Speed 1.4 km/h Distance 22.31 km</desc>
<time>2011-05-22T08:50:18.43</time>
<name>4971</name>
<sym>Dot</sym>
</trkpt>
<trkpt lat="39.945385" lon="-8.408150">
<ele>295.5</ele>
<desc>Speed 1.6 km/h Distance 22.31 km</desc>
<time>2011-05-22T08:50:23.43</time>
<name>4972</name>
<sym>Dot</sym>
</trkpt>
<trkpt lat="39.945387" lon="-8.408155">
<ele>295.5</ele>
<desc>Speed 1.8 km/h Distance 22.31 km</desc>
<time>2011-05-22T08:50:24.43</time>
<name>4973</name>
<sym>Dot</sym>
</trkpt>
<trkpt lat="39.945385" lon="-8.408162">
<ele>296.0</ele>
<desc>Speed 1.2 km/h Distance 22.31 km</desc>
<time>2011-05-22T08:50:26.43</time>
<name>4974</name>
<sym>Dot</sym>
</trkpt>
<trkpt lat="39.945383" lon="-8.408168">
<ele>296.5</ele>
<desc>Speed 2.4 km/h Distance 22.31 km</desc>
<time>2011-05-22T08:50:27.43</time>
<name>4975</name>
<sym>Dot</sym>
</trkpt>
<trkpt lat="39.945377" lon="-8.408187">
<ele>297.0</ele>
<desc>Speed 6.0 km/h Distance 22.31 km</desc>
<time>2011-05-22T08:50:28.43</time>
<name>4976</name>
<sym>Dot</sym>
</trkpt>
<trkpt lat="39.945372" lon="-8.408203">
<ele>298.0</ele>
<desc>Speed 6.3 km/h Distance 22.31 km</desc>
<time>2011-05-22T08:50:29.43</time>
<name>4977</name>
<sym>Dot</sym>
</trkpt>
<trkpt lat="39.945362" lon="-8.408208">
<ele>298.5</ele>
<desc>Speed 5.7 km/h Distance 22.31 km</desc>
<time>2011-05-22T08:50:30.43</time>
<name>4978</name>
<sym>Dot</sym>
</trkpt>
<trkpt lat="39.945353" lon="-8.408207">
<ele>298.5</ele>
<desc>Speed 4.8 km/h Distance 22.32 km</desc>
<time>2011-05-22T08:50:31.43</time>
<name>4979</name>
<sym>Dot</sym>
</trkpt>
<trkpt lat="39.945345" lon="-8.408200">
<ele>298.5</ele>
<desc>Speed 4.5 km/h Distance 22.32 km</desc>
<time>2011-05-22T08:50:32.43</time>
<name>4980</name>
<sym>Dot</sym>
</trkpt>
<trkpt lat="39.945340" lon="-8.408195">
<ele>299.0</ele>
<desc>Speed 3.1 km/h Distance 22.32 km</desc>
<time>2011-05-22T08:50:33.43</time>
<name>4981</name>
<sym>Dot</sym>
</trkpt>
<trkpt lat="39.945332" lon="-8.408190">
<ele>298.5</ele>
<desc>Speed 3.5 km/h Distance 22.32 km</desc>
<time>2011-05-22T08:50:34.43</time>
<name>4982</name>
<sym>Dot</sym>
</trkpt>
<trkpt lat="39.945322" lon="-8.408187">
<ele>299.0</ele>
<desc>Speed 3.6 km/h Distance 22.32 km</desc>
<time>2011-05-22T08:50:35.43</time>
<name>4983</name>
<sym>Dot</sym>
</trkpt>
<trkpt lat="39.945318" lon="-8.408180">
<ele>298.5</ele>
<desc>Speed 2.2 km/h Distance 22.32 km</desc>
<time>2011-05-22T08:50:36.43</time>
<name>4984</name>
<sym>Dot</sym>
</trkpt>
<trkpt lat="39.945312" lon="-8.408177">
<ele>298.5</ele>
<desc>Speed 1.4 km/h Distance 22.32 km</desc>
<time>2011-05-22T08:50:38.43</time>
<name>4985</name>
<sym>Dot</sym>
</trkpt>
<trkpt lat="39.945307" lon="-8.408170">
<ele>298.0</ele>
<desc>Speed 2.4 km/h Distance 22.32 km</desc>
<time>2011-05-22T08:50:39.43</time>
<name>4986</name>
<sym>Dot</sym>
</trkpt>
<trkpt lat="39.945270" lon="-8.408200">
<ele>297.5</ele>
<desc>Speed 4.8 km/h Distance 22.33 km</desc>
<time>2011-05-22T08:50:53.43</time>
<name>4987</name>
<sym>Dot</sym>
</trkpt>
<trkpt lat="39.945267" lon="-8.408205">
<ele>297.5</ele>
<desc>Speed 1.5 km/h Distance 22.33 km</desc>
<time>2011-05-22T08:50:55.43</time>
<name>4988</name>
<sym>Dot</sym>
</trkpt>
<trkpt lat="39.945267" lon="-8.408208">
<ele>298.0</ele>
<desc>Speed 1.4 km/h Distance 22.33 km</desc>
<time>2011-05-22T08:50:56.43</time>
<name>4989</name>
<sym>Dot</sym>
</trkpt>
<trkpt lat="39.945270" lon="-8.408212">
<ele>298.0</ele>
<desc>Speed 2.0 km/h Distance 22.33 km</desc>
<time>2011-05-22T08:50:57.43</time>
<name>4990</name>
<sym>Dot</sym>
</trkpt>
<trkpt lat="39.945272" lon="-8.408212">
<ele>297.0</ele>
<desc>Speed 1.7 km/h Distance 22.33 km</desc>
<time>2011-05-22T08:51:05.43</time>
<name>4991</name>
<sym>Dot</sym>
</trkpt>
<trkpt lat="39.945268" lon="-8.408217">
<ele>297.0</ele>
<desc>Speed 1.1 km/h Distance 22.33 km</desc>
<time>2011-05-22T08:51:06.43</time>
<name>4992</name>
<sym>Dot</sym>
</trkpt>
<trkpt lat="39.945268" lon="-8.408223">
<ele>294.5</ele>
<desc>Speed 1.1 km/h Distance 22.33 km</desc>
<time>2011-05-22T08:51:18.43</time>
<name>4993</name>
<sym>Dot</sym>
</trkpt>
<trkpt lat="39.945292" lon="-8.408213">
<ele>289.5</ele>
<desc>Speed 1.5 km/h Distance 22.33 km</desc>
<time>2011-05-22T08:52:21.43</time>
<name>4994</name>
<sym>Dot</sym>
</trkpt>
<trkpt lat="39.945297" lon="-8.408213">
<ele>289.5</ele>
<desc>Speed 1.9 km/h Distance 22.33 km</desc>
<time>2011-05-22T08:52:22.43</time>
<name>4995</name>
<sym>Dot</sym>
</trkpt>
<trkpt lat="39.945303" lon="-8.408212">
<ele>290.0</ele>
<desc>Speed 2.2 km/h Distance 22.33 km</desc>
<time>2011-05-22T08:52:23.43</time>
<name>4996</name>
<sym>Dot</sym>
</trkpt>
<trkpt lat="39.945308" lon="-8.408205">
<ele>290.0</ele>
<desc>Speed 2.4 km/h Distance 22.33 km</desc>
<time>2011-05-22T08:52:24.43</time>
<name>4997</name>
<sym>Dot</sym>
</trkpt>
<trkpt lat="39.945312" lon="-8.408200">
<ele>290.0</ele>
<desc>Speed 2.4 km/h Distance 22.33 km</desc>
<time>2011-05-22T08:52:25.43</time>
<name>4998</name>
<sym>Dot</sym>
</trkpt>
<trkpt lat="39.945317" lon="-8.408193">
<ele>290.0</ele>
<desc>Speed 2.2 km/h Distance 22.34 km</desc>
<time>2011-05-22T08:52:26.43</time>
<name>4999</name>
<sym>Dot</sym>
</trkpt>
<trkpt lat="39.945322" lon="-8.408190">
<ele>290.0</ele>
<desc>Speed 1.1 km/h Distance 22.34 km</desc>
<time>2011-05-22T08:52:28.43</time>
<name>5000</name>
<sym>Dot</sym>
</trkpt>
<trkpt lat="39.945328" lon="-8.408180">
<ele>288.5</ele>
<desc>Speed 1.8 km/h Distance 22.34 km</desc>
<time>2011-05-22T08:52:33.43</time>
<name>5001</name>
<sym>Dot</sym>
</trkpt>
<trkpt lat="39.945328" lon="-8.408175">
<ele>288.5</ele>
<desc>Speed 1.5 km/h Distance 22.34 km</desc>
<time>2011-05-22T08:52:34.43</time>
<name>5002</name>
<sym>Dot</sym>
</trkpt>
<trkpt lat="39.945327" lon="-8.408170">
<ele>287.5</ele>
<desc>Speed 1.8 km/h Distance 22.34 km</desc>
<time>2011-05-22T08:52:35.43</time>
<name>5003</name>
<sym>Dot</sym>
</trkpt>
<trkpt lat="39.945330" lon="-8.408165">
<ele>287.5</ele>
<desc>Speed 1.5 km/h Distance 22.34 km</desc>
<time>2011-05-22T08:52:36.43</time>
<name>5004</name>
<sym>Dot</sym>
</trkpt>
<trkpt lat="39.945327" lon="-8.408157">
<ele>287.0</ele>
<desc>Speed 1.9 km/h Distance 22.34 km</desc>
<time>2011-05-22T08:52:38.43</time>
<name>5005</name>
<sym>Dot</sym>
</trkpt>
<trkpt lat="39.945325" lon="-8.408153">
<ele>287.0</ele>
<desc>Speed 1.1 km/h Distance 22.34 km</desc>
<time>2011-05-22T08:52:39.43</time>
<name>5006</name>
<sym>Dot</sym>
</trkpt>
<trkpt lat="39.945323" lon="-8.408153">
<ele>287.0</ele>
<desc>Speed 1.1 km/h Distance 22.34 km</desc>
<time>2011-05-22T08:52:40.43</time>
<name>5007</name>
<sym>Dot</sym>
</trkpt>
<trkpt lat="39.945313" lon="-8.408153">
<ele>286.5</ele>
<desc>Speed 3.6 km/h Distance 22.34 km</desc>
<time>2011-05-22T08:52:42.43</time>
<name>5008</name>
<sym>Dot</sym>
</trkpt>
<trkpt lat="39.945303" lon="-8.408157">
<ele>286.5</ele>
<desc>Speed 4.3 km/h Distance 22.34 km</desc>
<time>2011-05-22T08:52:43.43</time>
<name>5009</name>
<sym>Dot</sym>
</trkpt>
<trkpt lat="39.945297" lon="-8.408165">
<ele>286.0</ele>
<desc>Speed 3.7 km/h Distance 22.34 km</desc>
<time>2011-05-22T08:52:44.43</time>
<name>5010</name>
<sym>Dot</sym>
</trkpt>
<trkpt lat="39.945297" lon="-8.408170">
<ele>287.0</ele>
<desc>Speed 1.9 km/h Distance 22.34 km</desc>
<time>2011-05-22T08:52:45.43</time>
<name>5011</name>
<sym>Dot</sym>
</trkpt>
<trkpt lat="39.945290" lon="-8.408178">
<ele>287.0</ele>
<desc>Speed 3.3 km/h Distance 22.34 km</desc>
<time>2011-05-22T08:52:46.43</time>
<name>5012</name>
<sym>Dot</sym>
</trkpt>
<trkpt lat="39.945285" lon="-8.408178">
<ele>286.5</ele>
<desc>Speed 2.1 km/h Distance 22.35 km</desc>
<time>2011-05-22T08:52:47.43</time>
<name>5013</name>
<sym>Dot</sym>
</trkpt>
<trkpt lat="39.945275" lon="-8.408175">
<ele>286.5</ele>
<desc>Speed 4.2 km/h Distance 22.35 km</desc>
<time>2011-05-22T08:52:48.43</time>
<name>5014</name>
<sym>Dot</sym>
</trkpt>
<trkpt lat="39.945272" lon="-8.408172">
<ele>286.5</ele>
<desc>Speed 1.9 km/h Distance 22.35 km</desc>
<time>2011-05-22T08:52:49.43</time>
<name>5015</name>
<sym>Dot</sym>
</trkpt>
<trkpt lat="39.945277" lon="-8.408172">
<ele>287.0</ele>
<desc>Speed 1.9 km/h Distance 22.35 km</desc>
<time>2011-05-22T08:52:50.43</time>
<name>5016</name>
<sym>Dot</sym>
</trkpt>
<trkpt lat="39.945278" lon="-8.408170">
<ele>287.5</ele>
<desc>Speed 1.9 km/h Distance 22.35 km</desc>
<time>2011-05-22T08:52:51.43</time>
<name>5017</name>
<sym>Dot</sym>
</trkpt>
<trkpt lat="39.945278" lon="-8.408168">
<ele>287.5</ele>
<desc>Speed 1.9 km/h Distance 22.35 km</desc>
<time>2011-05-22T08:52:52.43</time>
<name>5018</name>
<sym>Dot</sym>
</trkpt>
<trkpt lat="39.945280" lon="-8.408168">
<ele>288.0</ele>
<desc>Speed 1.9 km/h Distance 22.35 km</desc>
<time>2011-05-22T08:52:53.43</time>
<name>5019</name>
<sym>Dot</sym>
</trkpt>
<trkpt lat="39.945295" lon="-8.408177">
<ele>288.0</ele>
<desc>Speed 1.9 km/h Distance 22.35 km</desc>
<time>2011-05-22T08:52:54.43</time>
<name>5020</name>
<sym>Dot</sym>
</trkpt>
<trkpt lat="39.945305" lon="-8.408182">
<ele>288.0</ele>
<desc>Speed 1.9 km/h Distance 22.35 km</desc>
<time>2011-05-22T08:52:55.43</time>
<name>5021</name>
<sym>Dot</sym>
</trkpt>
<trkpt lat="39.945308" lon="-8.408160">
<ele>288.0</ele>
<desc>Speed 1.9 km/h Distance 22.35 km</desc>
<time>2011-05-22T08:52:56.43</time>
<name>5022</name>
<sym>Dot</sym>
</trkpt>
<trkpt lat="39.945317" lon="-8.408152">
<ele>288.5</ele>
<desc>Speed 1.9 km/h Distance 22.35 km</desc>
<time>2011-05-22T08:52:57.43</time>
<name>5023</name>
<sym>Dot</sym>
</trkpt>
<trkpt lat="39.945320" lon="-8.408145">
<ele>288.5</ele>
<desc>Speed 1.9 km/h Distance 22.35 km</desc>
<time>2011-05-22T08:52:58.43</time>
<name>5024</name>
<sym>Dot</sym>
</trkpt>
<trkpt lat="39.945320" lon="-8.408148">
<ele>288.5</ele>
<desc>Speed 1.9 km/h Distance 22.35 km</desc>
<time>2011-05-22T08:52:59.43</time>
<name>5025</name>
<sym>Dot</sym>
</trkpt>
<trkpt lat="39.945322" lon="-8.408145">
<ele>288.5</ele>
<desc>Speed 1.9 km/h Distance 22.36 km</desc>
<time>2011-05-22T08:53:00.43</time>
<name>5026</name>
<sym>Dot</sym>
</trkpt>
<trkpt lat="39.945328" lon="-8.408143">
<ele>288.5</ele>
<desc>Speed 1.9 km/h Distance 22.36 km</desc>
<time>2011-05-22T08:53:01.43</time>
<name>5027</name>
<sym>Dot</sym>
</trkpt>
<trkpt lat="39.945332" lon="-8.408143">
<ele>288.5</ele>
<desc>Speed 1.9 km/h Distance 22.36 km</desc>
<time>2011-05-22T08:53:02.43</time>
<name>5028</name>
<sym>Dot</sym>
</trkpt>
<trkpt lat="39.945335" lon="-8.408143">
<ele>288.5</ele>
<desc>Speed 1.9 km/h Distance 22.36 km</desc>
<time>2011-05-22T08:53:03.43</time>
<name>5029</name>
<sym>Dot</sym>
</trkpt>
<trkpt lat="39.945390" lon="-8.408167">
<ele>289.0</ele>
<desc>Speed 1.9 km/h Distance 22.36 km</desc>
<time>2011-05-22T08:53:05.97</time>
<name>5030</name>
<sym>Dot</sym>
</trkpt>
<trkpt lat="39.945390" lon="-8.408167">
<ele>289.0</ele>
<desc>Speed 1.9 km/h Distance 22.36 km</desc>
<time>2011-05-22T08:53:06.43</time>
<name>5031</name>
<sym>Dot</sym>
</trkpt>
<trkpt lat="39.945377" lon="-8.408182">
<ele>289.0</ele>
<desc>Speed 1.9 km/h Distance 22.37 km</desc>
<time>2011-05-22T08:53:07.43</time>
<name>5032</name>
<sym>Dot</sym>
</trkpt>
<trkpt lat="39.945398" lon="-8.408045">
<ele>288.5</ele>
<desc>Speed 1.9 km/h Distance 22.38 km</desc>
<time>2011-05-22T08:53:10.43</time>
<name>5033</name>
<sym>Dot</sym>
</trkpt>
<trkpt lat="39.945393" lon="-8.408038">
<ele>288.5</ele>
<desc>Speed 1.9 km/h Distance 22.38 km</desc>
<time>2011-05-22T08:53:11.43</time>
<name>5034</name>
<sym>Dot</sym>
</trkpt>
<trkpt lat="39.945388" lon="-8.408047">
<ele>288.5</ele>
<desc>Speed 1.9 km/h Distance 22.38 km</desc>
<time>2011-05-22T08:53:12.43</time>
<name>5035</name>
<sym>Dot</sym>
</trkpt>
<trkpt lat="39.945387" lon="-8.408052">
<ele>288.5</ele>
<desc>Speed 1.9 km/h Distance 22.38 km</desc>
<time>2011-05-22T08:53:13.43</time>
<name>5036</name>
<sym>Dot</sym>
</trkpt>
<trkpt lat="39.945385" lon="-8.408055">
<ele>288.5</ele>
<desc>Speed 1.9 km/h Distance 22.38 km</desc>
<time>2011-05-22T08:53:14.43</time>
<name>5037</name>
<sym>Dot</sym>
</trkpt>
<trkpt lat="39.945383" lon="-8.408050">
<ele>289.0</ele>
<desc>Speed 1.9 km/h Distance 22.38 km</desc>
<time>2011-05-22T08:53:15.43</time>
<name>5038</name>
<sym>Dot</sym>
</trkpt>
<trkpt lat="39.945377" lon="-8.408070">
<ele>289.0</ele>
<desc>Speed 1.9 km/h Distance 22.38 km</desc>
<time>2011-05-22T08:53:16.43</time>
<name>5039</name>
<sym>Dot</sym>
</trkpt>
<trkpt lat="39.945372" lon="-8.408078">
<ele>289.0</ele>
<desc>Speed 1.9 km/h Distance 22.38 km</desc>
<time>2011-05-22T08:53:17.43</time>
<name>5040</name>
<sym>Dot</sym>
</trkpt>
<trkpt lat="39.945372" lon="-8.408082">
<ele>289.0</ele>
<desc>Speed 1.9 km/h Distance 22.38 km</desc>
<time>2011-05-22T08:53:18.43</time>
<name>5041</name>
<sym>Dot</sym>
</trkpt>
<trkpt lat="39.945372" lon="-8.408075">
<ele>289.0</ele>
<desc>Speed 1.9 km/h Distance 22.38 km</desc>
<time>2011-05-22T08:53:19.43</time>
<name>5042</name>
<sym>Dot</sym>
</trkpt>
<trkpt lat="39.945380" lon="-8.408093">
<ele>291.0</ele>
<desc>Speed 2.2 km/h Distance 22.39 km</desc>
<time>2011-05-22T08:53:20.43</time>
<name>5043</name>
<sym>Dot</sym>
</trkpt>
<trkpt lat="39.945382" lon="-8.408093">
<ele>291.5</ele>
<desc>Speed 2.2 km/h Distance 22.39 km</desc>
<time>2011-05-22T08:53:21.43</time>
<name>5044</name>
<sym>Dot</sym>
</trkpt>
<trkpt lat="39.945403" lon="-8.408102">
<ele>290.0</ele>
<desc>Speed 2.9 km/h Distance 22.39 km</desc>
<time>2011-05-22T08:53:23.43</time>
<name>5045</name>
<sym>Dot</sym>
</trkpt>
<trkpt lat="39.945410" lon="-8.408102">
<ele>289.5</ele>
<desc>Speed 2.9 km/h Distance 22.39 km</desc>
<time>2011-05-22T08:53:24.43</time>
<name>5046</name>
<sym>Dot</sym>
</trkpt>
<trkpt lat="39.945412" lon="-8.408105">
<ele>290.0</ele>
<desc>Speed 2.9 km/h Distance 22.39 km</desc>
<time>2011-05-22T08:53:25.43</time>
<name>5047</name>
<sym>Dot</sym>
</trkpt>
<trkpt lat="39.945417" lon="-8.408102">
<ele>290.5</ele>
<desc>Speed 2.1 km/h Distance 22.39 km</desc>
<time>2011-05-22T08:53:26.43</time>
<name>5048</name>
<sym>Dot</sym>
</trkpt>
<trkpt lat="39.945415" lon="-8.408103">
<ele>293.5</ele>
<desc>Speed 1.2 km/h Distance 22.39 km</desc>
<time>2011-05-22T08:53:27.43</time>
<name>5049</name>
<sym>Dot</sym>
</trkpt>
<trkpt lat="39.945373" lon="-8.408105">
<ele>293.5</ele>
<desc>Speed 1.4 km/h Distance 22.39 km</desc>
<time>2011-05-22T08:53:29.43</time>
<name>5050</name>
<sym>Dot</sym>
</trkpt>
<trkpt lat="39.945358" lon="-8.408103">
<ele>295.0</ele>
<desc>Speed 3.7 km/h Distance 22.40 km</desc>
<time>2011-05-22T08:53:30.43</time>
<name>5051</name>
<sym>Dot</sym>
</trkpt>
<trkpt lat="39.945348" lon="-8.408103">
<ele>296.0</ele>
<desc>Speed 3.7 km/h Distance 22.40 km</desc>
<time>2011-05-22T08:53:31.43</time>
<name>5052</name>
<sym>Dot</sym>
</trkpt>
<trkpt lat="39.945322" lon="-8.408105">
<ele>291.5</ele>
<desc>Speed 3.7 km/h Distance 22.40 km</desc>
<time>2011-05-22T08:53:32.43</time>
<name>5053</name>
<sym>Dot</sym>
</trkpt>
<trkpt lat="39.945312" lon="-8.408117">
<ele>289.0</ele>
<desc>Speed 1.3 km/h Distance 22.40 km</desc>
<time>2011-05-22T08:53:33.43</time>
<name>5054</name>
<sym>Dot</sym>
</trkpt>
<trkpt lat="39.945290" lon="-8.408153">
<ele>285.5</ele>
<desc>Speed 2.4 km/h Distance 22.41 km</desc>
<time>2011-05-22T08:53:35.43</time>
<name>5055</name>
<sym>Dot</sym>
</trkpt>
<trkpt lat="39.945270" lon="-8.408162">
<ele>281.0</ele>
<desc>Speed 2.3 km/h Distance 22.41 km</desc>
<time>2011-05-22T08:53:36.43</time>
<name>5056</name>
<sym>Dot</sym>
</trkpt>
<trkpt lat="39.945253" lon="-8.408162">
<ele>277.5</ele>
<desc>Speed 3.9 km/h Distance 22.41 km</desc>
<time>2011-05-22T08:53:37.43</time>
<name>5057</name>
<sym>Dot</sym>
</trkpt>
<trkpt lat="39.945248" lon="-8.408160">
<ele>275.0</ele>
<desc>Speed 3.9 km/h Distance 22.41 km</desc>
<time>2011-05-22T08:53:38.43</time>
<name>5058</name>
<sym>Dot</sym>
</trkpt>
<trkpt lat="39.945245" lon="-8.408157">
<ele>274.0</ele>
<desc>Speed 3.9 km/h Distance 22.41 km</desc>
<time>2011-05-22T08:53:39.43</time>
<name>5059</name>
<sym>Dot</sym>
</trkpt>
<trkpt lat="39.945238" lon="-8.408157">
<ele>274.0</ele>
<desc>Speed 3.9 km/h Distance 22.41 km</desc>
<time>2011-05-22T08:53:40.43</time>
<name>5060</name>
<sym>Dot</sym>
</trkpt>
<trkpt lat="39.945232" lon="-8.408157">
<ele>273.5</ele>
<desc>Speed 3.9 km/h Distance 22.41 km</desc>
<time>2011-05-22T08:53:41.43</time>
<name>5061</name>
<sym>Dot</sym>
</trkpt>
<trkpt lat="39.945227" lon="-8.408160">
<ele>273.5</ele>
<desc>Speed 3.9 km/h Distance 22.41 km</desc>
<time>2011-05-22T08:53:42.43</time>
<name>5062</name>
<sym>Dot</sym>
</trkpt>
<trkpt lat="39.945222" lon="-8.408163">
<ele>273.5</ele>
<desc>Speed 3.9 km/h Distance 22.41 km</desc>
<time>2011-05-22T08:53:43.43</time>
<name>5063</name>
<sym>Dot</sym>
</trkpt>
<trkpt lat="39.945210" lon="-8.408153">
<ele>273.0</ele>
<desc>Speed 3.9 km/h Distance 22.42 km</desc>
<time>2011-05-22T08:53:44.43</time>
<name>5064</name>
<sym>Dot</sym>
</trkpt>
<trkpt lat="39.945205" lon="-8.408148">
<ele>272.5</ele>
<desc>Speed 3.9 km/h Distance 22.42 km</desc>
<time>2011-05-22T08:53:45.43</time>
<name>5065</name>
<sym>Dot</sym>
</trkpt>
<trkpt lat="39.945197" lon="-8.408152">
<ele>272.5</ele>
<desc>Speed 4.0 km/h Distance 22.42 km</desc>
<time>2011-05-22T08:53:46.43</time>
<name>5066</name>
<sym>Dot</sym>
</trkpt>
<trkpt lat="39.945187" lon="-8.408158">
<ele>272.5</ele>
<desc>Speed 4.0 km/h Distance 22.42 km</desc>
<time>2011-05-22T08:53:47.43</time>
<name>5067</name>
<sym>Dot</sym>
</trkpt>
<trkpt lat="39.945180" lon="-8.408172">
<ele>272.5</ele>
<desc>Speed 4.0 km/h Distance 22.42 km</desc>
<time>2011-05-22T08:53:48.43</time>
<name>5068</name>
<sym>Dot</sym>
</trkpt>
<trkpt lat="39.945178" lon="-8.408175">
<ele>272.0</ele>
<desc>Speed 4.0 km/h Distance 22.42 km</desc>
<time>2011-05-22T08:53:49.43</time>
<name>5069</name>
<sym>Dot</sym>
</trkpt>
<trkpt lat="39.945180" lon="-8.408180">
<ele>271.0</ele>
<desc>Speed 4.0 km/h Distance 22.42 km</desc>
<time>2011-05-22T08:53:50.43</time>
<name>5070</name>
<sym>Dot</sym>
</trkpt>
<trkpt lat="39.945177" lon="-8.408188">
<ele>270.5</ele>
<desc>Speed 4.0 km/h Distance 22.42 km</desc>
<time>2011-05-22T08:53:51.43</time>
<name>5071</name>
<sym>Dot</sym>
</trkpt>
<trkpt lat="39.945177" lon="-8.408192">
<ele>270.5</ele>
<desc>Speed 4.0 km/h Distance 22.42 km</desc>
<time>2011-05-22T08:53:52.43</time>
<name>5072</name>
<sym>Dot</sym>
</trkpt>
<trkpt lat="39.945178" lon="-8.408200">
<ele>270.5</ele>
<desc>Speed 1.3 km/h Distance 22.42 km</desc>
<time>2011-05-22T08:53:53.43</time>
<name>5073</name>
<sym>Dot</sym>
</trkpt>
<trkpt lat="39.945175" lon="-8.408203">
<ele>270.5</ele>
<desc>Speed 1.5 km/h Distance 22.42 km</desc>
<time>2011-05-22T08:53:54.43</time>
<name>5074</name>
<sym>Dot</sym>
</trkpt>
<trkpt lat="39.945173" lon="-8.408207">
<ele>270.5</ele>
<desc>Speed 1.5 km/h Distance 22.42 km</desc>
<time>2011-05-22T08:53:55.43</time>
<name>5075</name>
<sym>Dot</sym>
</trkpt>
<trkpt lat="39.945175" lon="-8.408205">
<ele>270.5</ele>
<desc>Speed 1.5 km/h Distance 22.42 km</desc>
<time>2011-05-22T08:53:56.43</time>
<name>5076</name>
<sym>Dot</sym>
</trkpt>
<trkpt lat="39.945182" lon="-8.408212">
<ele>269.5</ele>
<desc>Speed 1.2 km/h Distance 22.42 km</desc>
<time>2011-05-22T08:53:58.43</time>
<name>5077</name>
<sym>Dot</sym>
</trkpt>
<trkpt lat="39.945187" lon="-8.408217">
<ele>269.0</ele>
<desc>Speed 1.4 km/h Distance 22.43 km</desc>
<time>2011-05-22T08:53:59.43</time>
<name>5078</name>
<sym>Dot</sym>
</trkpt>
<trkpt lat="39.945230" lon="-8.408280">
<ele>289.0</ele>
<desc>Speed 3.1 km/h Distance 22.43 km</desc>
<time>2011-05-22T08:55:01.43</time>
<name>5079</name>
<sym>Dot</sym>
</trkpt>
<trkpt lat="39.945225" lon="-8.408275">
<ele>289.0</ele>
<desc>Speed 3.1 km/h Distance 22.43 km</desc>
<time>2011-05-22T08:55:02.43</time>
<name>5080</name>
<sym>Dot</sym>
</trkpt>
<trkpt lat="39.945220" lon="-8.408270">
<ele>289.0</ele>
<desc>Speed 3.1 km/h Distance 22.43 km</desc>
<time>2011-05-22T08:55:03.43</time>
<name>5081</name>
<sym>Dot</sym>
</trkpt>
<trkpt lat="39.945208" lon="-8.408295">
<ele>289.0</ele>
<desc>Speed 3.1 km/h Distance 22.44 km</desc>
<time>2011-05-22T08:55:04.43</time>
<name>5082</name>
<sym>Dot</sym>
</trkpt>
<trkpt lat="39.945205" lon="-8.408293">
<ele>289.5</ele>
<desc>Speed 3.1 km/h Distance 22.44 km</desc>
<time>2011-05-22T08:55:05.43</time>
<name>5083</name>
<sym>Dot</sym>
</trkpt>
<trkpt lat="39.945202" lon="-8.408292">
<ele>289.5</ele>
<desc>Speed 3.1 km/h Distance 22.44 km</desc>
<time>2011-05-22T08:55:06.43</time>
<name>5084</name>
<sym>Dot</sym>
</trkpt>
<trkpt lat="39.945197" lon="-8.408288">
<ele>289.5</ele>
<desc>Speed 3.1 km/h Distance 22.44 km</desc>
<time>2011-05-22T08:55:07.43</time>
<name>5085</name>
<sym>Dot</sym>
</trkpt>
<trkpt lat="39.945195" lon="-8.408292">
<ele>289.5</ele>
<desc>Speed 3.1 km/h Distance 22.44 km</desc>
<time>2011-05-22T08:55:08.43</time>
<name>5086</name>
<sym>Dot</sym>
</trkpt>
<trkpt lat="39.945198" lon="-8.408280">
<ele>289.5</ele>
<desc>Speed 3.1 km/h Distance 22.44 km</desc>
<time>2011-05-22T08:55:09.43</time>
<name>5087</name>
<sym>Dot</sym>
</trkpt>
<trkpt lat="39.945202" lon="-8.408272">
<ele>289.5</ele>
<desc>Speed 3.1 km/h Distance 22.44 km</desc>
<time>2011-05-22T08:55:10.43</time>
<name>5088</name>
<sym>Dot</sym>
</trkpt>
<trkpt lat="39.945192" lon="-8.408255">
<ele>289.5</ele>
<desc>Speed 3.1 km/h Distance 22.44 km</desc>
<time>2011-05-22T08:55:11.43</time>
<name>5089</name>
<sym>Dot</sym>
</trkpt>
<trkpt lat="39.945187" lon="-8.408255">
<ele>289.5</ele>
<desc>Speed 3.1 km/h Distance 22.44 km</desc>
<time>2011-05-22T08:55:12.43</time>
<name>5090</name>
<sym>Dot</sym>
</trkpt>
<trkpt lat="39.945185" lon="-8.408257">
<ele>289.5</ele>
<desc>Speed 3.1 km/h Distance 22.44 km</desc>
<time>2011-05-22T08:55:13.43</time>
<name>5091</name>
<sym>Dot</sym>
</trkpt>
<trkpt lat="39.945183" lon="-8.408257">
<ele>289.5</ele>
<desc>Speed 3.1 km/h Distance 22.44 km</desc>
<time>2011-05-22T08:55:14.43</time>
<name>5092</name>
<sym>Dot</sym>
</trkpt>
<trkpt lat="39.945182" lon="-8.408258">
<ele>289.5</ele>
<desc>Speed 3.1 km/h Distance 22.44 km</desc>
<time>2011-05-22T08:55:15.43</time>
<name>5093</name>
<sym>Dot</sym>
</trkpt>
<trkpt lat="39.945182" lon="-8.408265">
<ele>290.0</ele>
<desc>Speed 3.1 km/h Distance 22.44 km</desc>
<time>2011-05-22T08:55:16.43</time>
<name>5094</name>
<sym>Dot</sym>
</trkpt>
<trkpt lat="39.945178" lon="-8.408270">
<ele>290.0</ele>
<desc>Speed 3.1 km/h Distance 22.44 km</desc>
<time>2011-05-22T08:55:17.43</time>
<name>5095</name>
<sym>Dot</sym>
</trkpt>
<trkpt lat="39.945178" lon="-8.408273">
<ele>290.0</ele>
<desc>Speed 3.1 km/h Distance 22.44 km</desc>
<time>2011-05-22T08:55:18.43</time>
<name>5096</name>
<sym>Dot</sym>
</trkpt>
<trkpt lat="39.945178" lon="-8.408273">
<ele>290.0</ele>
<desc>Speed 3.1 km/h Distance 22.44 km</desc>
<time>2011-05-22T08:55:19.43</time>
<name>5097</name>
<sym>Dot</sym>
</trkpt>
<trkpt lat="39.945178" lon="-8.408285">
<ele>290.0</ele>
<desc>Speed 3.1 km/h Distance 22.45 km</desc>
<time>2011-05-22T08:55:20.43</time>
<name>5098</name>
<sym>Dot</sym>
</trkpt>
<trkpt lat="39.945177" lon="-8.408288">
<ele>290.0</ele>
<desc>Speed 3.1 km/h Distance 22.45 km</desc>
<time>2011-05-22T08:55:21.43</time>
<name>5099</name>
<sym>Dot</sym>
</trkpt>
<trkpt lat="39.945180" lon="-8.408292">
<ele>290.0</ele>
<desc>Speed 3.1 km/h Distance 22.45 km</desc>
<time>2011-05-22T08:55:22.43</time>
<name>5100</name>
<sym>Dot</sym>
</trkpt>
<trkpt lat="39.945182" lon="-8.408293">
<ele>290.0</ele>
<desc>Speed 3.1 km/h Distance 22.45 km</desc>
<time>2011-05-22T08:55:23.43</time>
<name>5101</name>
<sym>Dot</sym>
</trkpt>
<trkpt lat="39.945182" lon="-8.408293">
<ele>290.0</ele>
<desc>Speed 3.1 km/h Distance 22.45 km</desc>
<time>2011-05-22T08:55:24.43</time>
<name>5102</name>
<sym>Dot</sym>
</trkpt>
<trkpt lat="39.945182" lon="-8.408292">
<ele>290.0</ele>
<desc>Speed 3.1 km/h Distance 22.45 km</desc>
<time>2011-05-22T08:55:25.43</time>
<name>5103</name>
<sym>Dot</sym>
</trkpt>
<trkpt lat="39.945180" lon="-8.408290">
<ele>290.0</ele>
<desc>Speed 3.1 km/h Distance 22.45 km</desc>
<time>2011-05-22T08:55:26.43</time>
<name>5104</name>
<sym>Dot</sym>
</trkpt>
<trkpt lat="39.945177" lon="-8.408263">
<ele>290.0</ele>
<desc>Speed 3.1 km/h Distance 22.45 km</desc>
<time>2011-05-22T08:55:27.43</time>
<name>5105</name>
<sym>Dot</sym>
</trkpt>
<trkpt lat="39.945175" lon="-8.408250">
<ele>290.0</ele>
<desc>Speed 3.1 km/h Distance 22.45 km</desc>
<time>2011-05-22T08:55:28.43</time>
<name>5106</name>
<sym>Dot</sym>
</trkpt>
<trkpt lat="39.945173" lon="-8.408248">
<ele>290.0</ele>
<desc>Speed 3.1 km/h Distance 22.45 km</desc>
<time>2011-05-22T08:55:29.43</time>
<name>5107</name>
<sym>Dot</sym>
</trkpt>
<trkpt lat="39.945172" lon="-8.408245">
<ele>290.0</ele>
<desc>Speed 3.1 km/h Distance 22.45 km</desc>
<time>2011-05-22T08:55:30.43</time>
<name>5108</name>
<sym>Dot</sym>
</trkpt>
<trkpt lat="39.945170" lon="-8.408242">
<ele>290.0</ele>
<desc>Speed 3.1 km/h Distance 22.45 km</desc>
<time>2011-05-22T08:55:31.43</time>
<name>5109</name>
<sym>Dot</sym>
</trkpt>
<trkpt lat="39.945170" lon="-8.408242">
<ele>290.0</ele>
<desc>Speed 3.1 km/h Distance 22.45 km</desc>
<time>2011-05-22T08:55:32.43</time>
<name>5110</name>
<sym>Dot</sym>
</trkpt>
<trkpt lat="39.945167" lon="-8.408242">
<ele>290.0</ele>
<desc>Speed 3.1 km/h Distance 22.45 km</desc>
<time>2011-05-22T08:55:33.43</time>
<name>5111</name>
<sym>Dot</sym>
</trkpt>
<trkpt lat="39.945167" lon="-8.408242">
<ele>290.0</ele>
<desc>Speed 3.1 km/h Distance 22.45 km</desc>
<time>2011-05-22T08:55:34.43</time>
<name>5112</name>
<sym>Dot</sym>
</trkpt>
<trkpt lat="39.945165" lon="-8.408238">
<ele>290.0</ele>
<desc>Speed 3.1 km/h Distance 22.45 km</desc>
<time>2011-05-22T08:55:35.43</time>
<name>5113</name>
<sym>Dot</sym>
</trkpt>
<trkpt lat="39.945167" lon="-8.408238">
<ele>290.0</ele>
<desc>Speed 3.1 km/h Distance 22.45 km</desc>
<time>2011-05-22T08:55:36.43</time>
<name>5114</name>
<sym>Dot</sym>
</trkpt>
<trkpt lat="39.945167" lon="-8.408237">
<ele>290.0</ele>
<desc>Speed 3.1 km/h Distance 22.45 km</desc>
<time>2011-05-22T08:55:37.43</time>
<name>5115</name>
<sym>Dot</sym>
</trkpt>
<trkpt lat="39.945165" lon="-8.408237">
<ele>290.0</ele>
<desc>Speed 3.1 km/h Distance 22.45 km</desc>
<time>2011-05-22T08:55:38.43</time>
<name>5116</name>
<sym>Dot</sym>
</trkpt>
<trkpt lat="39.945190" lon="-8.408240">
<ele>290.0</ele>
<desc>Speed 3.1 km/h Distance 22.46 km</desc>
<time>2011-05-22T08:55:39.43</time>
<name>5117</name>
<sym>Dot</sym>
</trkpt>
<trkpt lat="39.945207" lon="-8.408245">
<ele>290.0</ele>
<desc>Speed 3.1 km/h Distance 22.46 km</desc>
<time>2011-05-22T08:55:40.43</time>
<name>5118</name>
<sym>Dot</sym>
</trkpt>
<trkpt lat="39.945215" lon="-8.408248">
<ele>290.0</ele>
<desc>Speed 3.1 km/h Distance 22.46 km</desc>
<time>2011-05-22T08:55:41.43</time>
<name>5119</name>
<sym>Dot</sym>
</trkpt>
<trkpt lat="39.945220" lon="-8.408250">
<ele>290.0</ele>
<desc>Speed 3.1 km/h Distance 22.46 km</desc>
<time>2011-05-22T08:55:42.43</time>
<name>5120</name>
<sym>Dot</sym>
</trkpt>
<trkpt lat="39.945225" lon="-8.408250">
<ele>290.0</ele>
<desc>Speed 3.1 km/h Distance 22.46 km</desc>
<time>2011-05-22T08:55:43.43</time>
<name>5121</name>
<sym>Dot</sym>
</trkpt>
<trkpt lat="39.945227" lon="-8.408250">
<ele>290.0</ele>
<desc>Speed 3.1 km/h Distance 22.46 km</desc>
<time>2011-05-22T08:55:44.43</time>
<name>5122</name>
<sym>Dot</sym>
</trkpt>
<trkpt lat="39.945240" lon="-8.408230">
<ele>290.0</ele>
<desc>Speed 3.1 km/h Distance 22.46 km</desc>
<time>2011-05-22T08:55:45.43</time>
<name>5123</name>
<sym>Dot</sym>
</trkpt>
<trkpt lat="39.945245" lon="-8.408223">
<ele>290.0</ele>
<desc>Speed 3.1 km/h Distance 22.46 km</desc>
<time>2011-05-22T08:55:46.43</time>
<name>5124</name>
<sym>Dot</sym>
</trkpt>
<trkpt lat="39.945247" lon="-8.408222">
<ele>290.0</ele>
<desc>Speed 3.1 km/h Distance 22.46 km</desc>
<time>2011-05-22T08:55:47.43</time>
<name>5125</name>
<sym>Dot</sym>
</trkpt>
<trkpt lat="39.945248" lon="-8.408223">
<ele>290.0</ele>
<desc>Speed 3.1 km/h Distance 22.46 km</desc>
<time>2011-05-22T08:55:48.43</time>
<name>5126</name>
<sym>Dot</sym>
</trkpt>
<trkpt lat="39.945252" lon="-8.408225">
<ele>290.0</ele>
<desc>Speed 3.1 km/h Distance 22.46 km</desc>
<time>2011-05-22T08:55:49.43</time>
<name>5127</name>
<sym>Dot</sym>
</trkpt>
<trkpt lat="39.945253" lon="-8.408227">
<ele>290.0</ele>
<desc>Speed 3.1 km/h Distance 22.46 km</desc>
<time>2011-05-22T08:55:50.43</time>
<name>5128</name>
<sym>Dot</sym>
</trkpt>
<trkpt lat="39.945253" lon="-8.408230">
<ele>290.0</ele>
<desc>Speed 3.1 km/h Distance 22.46 km</desc>
<time>2011-05-22T08:55:51.43</time>
<name>5129</name>
<sym>Dot</sym>
</trkpt>
<trkpt lat="39.945253" lon="-8.408233">
<ele>290.0</ele>
<desc>Speed 3.1 km/h Distance 22.46 km</desc>
<time>2011-05-22T08:55:52.43</time>
<name>5130</name>
<sym>Dot</sym>
</trkpt>
<trkpt lat="39.945257" lon="-8.408232">
<ele>290.0</ele>
<desc>Speed 3.1 km/h Distance 22.46 km</desc>
<time>2011-05-22T08:55:53.43</time>
<name>5131</name>
<sym>Dot</sym>
</trkpt>
<trkpt lat="39.945260" lon="-8.408225">
<ele>290.0</ele>
<desc>Speed 3.1 km/h Distance 22.47 km</desc>
<time>2011-05-22T08:55:54.43</time>
<name>5132</name>
<sym>Dot</sym>
</trkpt>
<trkpt lat="39.945263" lon="-8.408223">
<ele>290.0</ele>
<desc>Speed 3.1 km/h Distance 22.47 km</desc>
<time>2011-05-22T08:55:55.43</time>
<name>5133</name>
<sym>Dot</sym>
</trkpt>
<trkpt lat="39.945262" lon="-8.408228">
<ele>290.0</ele>
<desc>Speed 3.1 km/h Distance 22.47 km</desc>
<time>2011-05-22T08:55:56.43</time>
<name>5134</name>
<sym>Dot</sym>
</trkpt>
<trkpt lat="39.945262" lon="-8.408228">
<ele>290.0</ele>
<desc>Speed 3.1 km/h Distance 22.47 km</desc>
<time>2011-05-22T08:55:57.43</time>
<name>5135</name>
<sym>Dot</sym>
</trkpt>
<trkpt lat="39.945265" lon="-8.408225">
<ele>290.0</ele>
<desc>Speed 3.1 km/h Distance 22.47 km</desc>
<time>2011-05-22T08:55:58.43</time>
<name>5136</name>
<sym>Dot</sym>
</trkpt>
<trkpt lat="39.945255" lon="-8.408228">
<ele>291.5</ele>
<desc>Speed 3.9 km/h Distance 22.47 km</desc>
<time>2011-05-22T08:55:59.43</time>
<name>5137</name>
<sym>Dot</sym>
</trkpt>
<trkpt lat="39.945247" lon="-8.408235">
<ele>292.0</ele>
<desc>Speed 3.9 km/h Distance 22.47 km</desc>
<time>2011-05-22T08:56:00.43</time>
<name>5138</name>
<sym>Dot</sym>
</trkpt>
<trkpt lat="39.945240" lon="-8.408243">
<ele>292.0</ele>
<desc>Speed 3.9 km/h Distance 22.47 km</desc>
<time>2011-05-22T08:56:01.43</time>
<name>5139</name>
<sym>Dot</sym>
</trkpt>
<trkpt lat="39.945232" lon="-8.408248">
<ele>292.5</ele>
<desc>Speed 3.9 km/h Distance 22.47 km</desc>
<time>2011-05-22T08:56:02.43</time>
<name>5140</name>
<sym>Dot</sym>
</trkpt>
<trkpt lat="39.945242" lon="-8.408262">
<ele>293.5</ele>
<desc>Speed 3.9 km/h Distance 22.47 km</desc>
<time>2011-05-22T08:56:03.43</time>
<name>5141</name>
<sym>Dot</sym>
</trkpt>
<trkpt lat="39.945232" lon="-8.408252">
<ele>294.0</ele>
<desc>Speed 3.7 km/h Distance 22.47 km</desc>
<time>2011-05-22T08:56:04.43</time>
<name>5142</name>
<sym>Dot</sym>
</trkpt>
<trkpt lat="39.945227" lon="-8.408242">
<ele>294.5</ele>
<desc>Speed 3.7 km/h Distance 22.47 km</desc>
<time>2011-05-22T08:56:05.43</time>
<name>5143</name>
<sym>Dot</sym>
</trkpt>
<trkpt lat="39.945223" lon="-8.408232">
<ele>295.0</ele>
<desc>Speed 3.7 km/h Distance 22.48 km</desc>
<time>2011-05-22T08:56:06.43</time>
<name>5144</name>
<sym>Dot</sym>
</trkpt>
<trkpt lat="39.945220" lon="-8.408240">
<ele>295.0</ele>
<desc>Speed 3.7 km/h Distance 22.48 km</desc>
<time>2011-05-22T08:56:07.43</time>
<name>5145</name>
<sym>Dot</sym>
</trkpt>
<trkpt lat="39.945223" lon="-8.408252">
<ele>295.5</ele>
<desc>Speed 1.5 km/h Distance 22.48 km</desc>
<time>2011-05-22T08:56:08.43</time>
<name>5146</name>
<sym>Dot</sym>
</trkpt>
<trkpt lat="39.945218" lon="-8.408253">
<ele>296.0</ele>
<desc>Speed 1.5 km/h Distance 22.48 km</desc>
<time>2011-05-22T08:56:09.43</time>
<name>5147</name>
<sym>Dot</sym>
</trkpt>
<trkpt lat="39.945217" lon="-8.408263">
<ele>296.0</ele>
<desc>Speed 1.5 km/h Distance 22.48 km</desc>
<time>2011-05-22T08:56:10.43</time>
<name>5148</name>
<sym>Dot</sym>
</trkpt>
<trkpt lat="39.945228" lon="-8.408252">
<ele>296.0</ele>
<desc>Speed 5.9 km/h Distance 22.48 km</desc>
<time>2011-05-22T08:56:11.43</time>
<name>5149</name>
<sym>Dot</sym>
</trkpt>
<trkpt lat="39.945287" lon="-8.408253">
<ele>297.5</ele>
<desc>Speed 5.9 km/h Distance 22.49 km</desc>
<time>2011-05-22T08:56:13.43</time>
<name>5150</name>
<sym>Dot</sym>
</trkpt>
<trkpt lat="39.945293" lon="-8.408248">
<ele>297.5</ele>
<desc>Speed 5.9 km/h Distance 22.49 km</desc>
<time>2011-05-22T08:56:14.43</time>
<name>5151</name>
<sym>Dot</sym>
</trkpt>
<trkpt lat="39.945303" lon="-8.408245">
<ele>297.5</ele>
<desc>Speed 2.5 km/h Distance 22.49 km</desc>
<time>2011-05-22T08:56:15.43</time>
<name>5152</name>
<sym>Dot</sym>
</trkpt>
<trkpt lat="39.945303" lon="-8.408242">
<ele>297.5</ele>
<desc>Speed 1.7 km/h Distance 22.49 km</desc>
<time>2011-05-22T08:56:16.43</time>
<name>5153</name>
<sym>Dot</sym>
</trkpt>
<trkpt lat="39.945303" lon="-8.408240">
<ele>297.5</ele>
<desc>Speed 1.7 km/h Distance 22.49 km</desc>
<time>2011-05-22T08:56:17.43</time>
<name>5154</name>
<sym>Dot</sym>
</trkpt>
<trkpt lat="39.945308" lon="-8.408238">
<ele>297.5</ele>
<desc>Speed 1.7 km/h Distance 22.49 km</desc>
<time>2011-05-22T08:56:18.43</time>
<name>5155</name>
<sym>Dot</sym>
</trkpt>
<trkpt lat="39.945303" lon="-8.408248">
<ele>297.5</ele>
<desc>Speed 3.1 km/h Distance 22.49 km</desc>
<time>2011-05-22T08:56:19.43</time>
<name>5156</name>
<sym>Dot</sym>
</trkpt>
<trkpt lat="39.945323" lon="-8.408252">
<ele>298.0</ele>
<desc>Speed 1.9 km/h Distance 22.49 km</desc>
<time>2011-05-22T08:56:24.43</time>
<name>5157</name>
<sym>Dot</sym>
</trkpt>
<trkpt lat="39.945333" lon="-8.408253">
<ele>298.0</ele>
<desc>Speed 1.9 km/h Distance 22.49 km</desc>
<time>2011-05-22T08:56:25.43</time>
<name>5158</name>
<sym>Dot</sym>
</trkpt>
<trkpt lat="39.945338" lon="-8.408253">
<ele>298.0</ele>
<desc>Speed 1.9 km/h Distance 22.49 km</desc>
<time>2011-05-22T08:56:26.43</time>
<name>5159</name>
<sym>Dot</sym>
</trkpt>
<trkpt lat="39.945340" lon="-8.408258">
<ele>298.0</ele>
<desc>Speed 1.9 km/h Distance 22.50 km</desc>
<time>2011-05-22T08:56:27.43</time>
<name>5160</name>
<sym>Dot</sym>
</trkpt>
<trkpt lat="39.945347" lon="-8.408272">
<ele>299.0</ele>
<desc>Speed 4.6 km/h Distance 22.50 km</desc>
<time>2011-05-22T08:56:28.43</time>
<name>5161</name>
<sym>Dot</sym>
</trkpt>
<trkpt lat="39.945347" lon="-8.408285">
<ele>298.5</ele>
<desc>Speed 4.6 km/h Distance 22.50 km</desc>
<time>2011-05-22T08:56:29.43</time>
<name>5162</name>
<sym>Dot</sym>
</trkpt>
<trkpt lat="39.945345" lon="-8.408293">
<ele>298.5</ele>
<desc>Speed 4.6 km/h Distance 22.50 km</desc>
<time>2011-05-22T08:56:30.43</time>
<name>5163</name>
<sym>Dot</sym>
</trkpt>
<trkpt lat="39.945348" lon="-8.408302">
<ele>298.5</ele>
<desc>Speed 4.6 km/h Distance 22.50 km</desc>
<time>2011-05-22T08:56:31.43</time>
<name>5164</name>
<sym>Dot</sym>
</trkpt>
<trkpt lat="39.945367" lon="-8.408315">
<ele>299.0</ele>
<desc>Speed 3.3 km/h Distance 22.50 km</desc>
<time>2011-05-22T08:56:32.43</time>
<name>5165</name>
<sym>Dot</sym>
</trkpt>
<trkpt lat="39.945380" lon="-8.408323">
<ele>299.0</ele>
<desc>Speed 3.3 km/h Distance 22.50 km</desc>
<time>2011-05-22T08:56:33.43</time>
<name>5166</name>
<sym>Dot</sym>
</trkpt>
<trkpt lat="39.945388" lon="-8.408330">
<ele>299.0</ele>
<desc>Speed 3.3 km/h Distance 22.50 km</desc>
<time>2011-05-22T08:56:34.43</time>
<name>5167</name>
<sym>Dot</sym>
</trkpt>
<trkpt lat="39.945413" lon="-8.408300">
<ele>298.0</ele>
<desc>Speed 3.1 km/h Distance 22.51 km</desc>
<time>2011-05-22T08:56:36.43</time>
<name>5168</name>
<sym>Dot</sym>
</trkpt>
<trkpt lat="39.945417" lon="-8.408300">
<ele>297.5</ele>
<desc>Speed 3.1 km/h Distance 22.51 km</desc>
<time>2011-05-22T08:56:37.43</time>
<name>5169</name>
<sym>Dot</sym>
</trkpt>
<trkpt lat="39.945418" lon="-8.408300">
<ele>297.5</ele>
<desc>Speed 3.1 km/h Distance 22.51 km</desc>
<time>2011-05-22T08:56:38.43</time>
<name>5170</name>
<sym>Dot</sym>
</trkpt>
<trkpt lat="39.945428" lon="-8.408272">
<ele>297.0</ele>
<desc>Speed 3.1 km/h Distance 22.51 km</desc>
<time>2011-05-22T08:56:39.43</time>
<name>5171</name>
<sym>Dot</sym>
</trkpt>
<trkpt lat="39.945447" lon="-8.408273">
<ele>297.0</ele>
<desc>Speed 3.1 km/h Distance 22.51 km</desc>
<time>2011-05-22T08:56:40.43</time>
<name>5172</name>
<sym>Dot</sym>
</trkpt>
<trkpt lat="39.945452" lon="-8.408275">
<ele>296.5</ele>
<desc>Speed 3.1 km/h Distance 22.51 km</desc>
<time>2011-05-22T08:56:41.43</time>
<name>5173</name>
<sym>Dot</sym>
</trkpt>
<trkpt lat="39.945453" lon="-8.408275">
<ele>296.5</ele>
<desc>Speed 3.1 km/h Distance 22.51 km</desc>
<time>2011-05-22T08:56:42.43</time>
<name>5174</name>
<sym>Dot</sym>
</trkpt>
<trkpt lat="39.945462" lon="-8.408260">
<ele>296.5</ele>
<desc>Speed 3.1 km/h Distance 22.52 km</desc>
<time>2011-05-22T08:56:43.43</time>
<name>5175</name>
<sym>Dot</sym>
</trkpt>
<trkpt lat="39.945477" lon="-8.408262">
<ele>295.5</ele>
<desc>Speed 3.1 km/h Distance 22.52 km</desc>
<time>2011-05-22T08:56:44.43</time>
<name>5176</name>
<sym>Dot</sym>
</trkpt>
<trkpt lat="39.945480" lon="-8.408263">
<ele>295.0</ele>
<desc>Speed 3.1 km/h Distance 22.52 km</desc>
<time>2011-05-22T08:56:45.43</time>
<name>5177</name>
<sym>Dot</sym>
</trkpt>
<trkpt lat="39.945482" lon="-8.408263">
<ele>295.0</ele>
<desc>Speed 3.1 km/h Distance 22.52 km</desc>
<time>2011-05-22T08:56:46.43</time>
<name>5178</name>
<sym>Dot</sym>
</trkpt>
<trkpt lat="39.945483" lon="-8.408260">
<ele>294.5</ele>
<desc>Speed 3.1 km/h Distance 22.52 km</desc>
<time>2011-05-22T08:56:47.43</time>
<name>5179</name>
<sym>Dot</sym>
</trkpt>
<trkpt lat="39.945488" lon="-8.408260">
<ele>294.5</ele>
<desc>Speed 3.1 km/h Distance 22.52 km</desc>
<time>2011-05-22T08:56:48.43</time>
<name>5180</name>
<sym>Dot</sym>
</trkpt>
<trkpt lat="39.945492" lon="-8.408255">
<ele>294.0</ele>
<desc>Speed 3.1 km/h Distance 22.52 km</desc>
<time>2011-05-22T08:56:49.43</time>
<name>5181</name>
<sym>Dot</sym>
</trkpt>
<trkpt lat="39.945495" lon="-8.408252">
<ele>294.0</ele>
<desc>Speed 3.1 km/h Distance 22.52 km</desc>
<time>2011-05-22T08:56:50.43</time>
<name>5182</name>
<sym>Dot</sym>
</trkpt>
<trkpt lat="39.945497" lon="-8.408250">
<ele>294.0</ele>
<desc>Speed 3.1 km/h Distance 22.52 km</desc>
<time>2011-05-22T08:56:51.43</time>
<name>5183</name>
<sym>Dot</sym>
</trkpt>
<trkpt lat="39.945498" lon="-8.408252">
<ele>294.0</ele>
<desc>Speed 3.1 km/h Distance 22.52 km</desc>
<time>2011-05-22T08:56:52.43</time>
<name>5184</name>
<sym>Dot</sym>
</trkpt>
<trkpt lat="39.945512" lon="-8.408245">
<ele>294.0</ele>
<desc>Speed 2.3 km/h Distance 22.52 km</desc>
<time>2011-05-22T08:56:53.43</time>
<name>5185</name>
<sym>Dot</sym>
</trkpt>
<trkpt lat="39.945525" lon="-8.408233">
<ele>293.5</ele>
<desc>Speed 2.3 km/h Distance 22.52 km</desc>
<time>2011-05-22T08:56:54.43</time>
<name>5186</name>
<sym>Dot</sym>
</trkpt>
<trkpt lat="39.945540" lon="-8.408222">
<ele>293.0</ele>
<desc>Speed 2.3 km/h Distance 22.53 km</desc>
<time>2011-05-22T08:56:55.43</time>
<name>5187</name>
<sym>Dot</sym>
</trkpt>
<trkpt lat="39.945535" lon="-8.408218">
<ele>292.5</ele>
<desc>Speed 3.1 km/h Distance 22.53 km</desc>
<time>2011-05-22T08:56:56.43</time>
<name>5188</name>
<sym>Dot</sym>
</trkpt>
<trkpt lat="39.945530" lon="-8.408217">
<ele>291.0</ele>
<desc>Speed 3.1 km/h Distance 22.53 km</desc>
<time>2011-05-22T08:56:57.43</time>
<name>5189</name>
<sym>Dot</sym>
</trkpt>
<trkpt lat="39.945527" lon="-8.408217">
<ele>290.5</ele>
<desc>Speed 3.1 km/h Distance 22.53 km</desc>
<time>2011-05-22T08:56:58.43</time>
<name>5190</name>
<sym>Dot</sym>
</trkpt>
<trkpt lat="39.945523" lon="-8.408217">
<ele>290.0</ele>
<desc>Speed 3.1 km/h Distance 22.53 km</desc>
<time>2011-05-22T08:56:59.43</time>
<name>5191</name>
<sym>Dot</sym>
</trkpt>
<trkpt lat="39.945527" lon="-8.408212">
<ele>291.0</ele>
<desc>Speed 3.1 km/h Distance 22.53 km</desc>
<time>2011-05-22T08:57:00.43</time>
<name>5192</name>
<sym>Dot</sym>
</trkpt>
<trkpt lat="39.945525" lon="-8.408227">
<ele>290.0</ele>
<desc>Speed 3.1 km/h Distance 22.53 km</desc>
<time>2011-05-22T08:57:01.43</time>
<name>5193</name>
<sym>Dot</sym>
</trkpt>
<trkpt lat="39.945522" lon="-8.408232">
<ele>289.5</ele>
<desc>Speed 3.1 km/h Distance 22.53 km</desc>
<time>2011-05-22T08:57:02.43</time>
<name>5194</name>
<sym>Dot</sym>
</trkpt>
<trkpt lat="39.945533" lon="-8.408235">
<ele>290.5</ele>
<desc>Speed 3.1 km/h Distance 22.53 km</desc>
<time>2011-05-22T08:57:03.43</time>
<name>5195</name>
<sym>Dot</sym>
</trkpt>
<trkpt lat="39.945532" lon="-8.408232">
<ele>291.5</ele>
<desc>Speed 4.6 km/h Distance 22.53 km</desc>
<time>2011-05-22T08:57:04.43</time>
<name>5196</name>
<sym>Dot</sym>
</trkpt>
<trkpt lat="39.945515" lon="-8.408238">
<ele>292.0</ele>
<desc>Speed 5.2 km/h Distance 22.53 km</desc>
<time>2011-05-22T08:57:05.43</time>
<name>5197</name>
<sym>Dot</sym>
</trkpt>
<trkpt lat="39.945502" lon="-8.408242">
<ele>292.0</ele>
<desc>Speed 5.2 km/h Distance 22.54 km</desc>
<time>2011-05-22T08:57:06.43</time>
<name>5198</name>
<sym>Dot</sym>
</trkpt>
<trkpt lat="39.945488" lon="-8.408242">
<ele>292.0</ele>
<desc>Speed 5.2 km/h Distance 22.54 km</desc>
<time>2011-05-22T08:57:07.43</time>
<name>5199</name>
<sym>Dot</sym>
</trkpt>
<trkpt lat="39.945478" lon="-8.408242">
<ele>292.0</ele>
<desc>Speed 5.2 km/h Distance 22.54 km</desc>
<time>2011-05-22T08:57:08.43</time>
<name>5200</name>
<sym>Dot</sym>
</trkpt>
<trkpt lat="39.945475" lon="-8.408235">
<ele>291.5</ele>
<desc>Speed 5.2 km/h Distance 22.54 km</desc>
<time>2011-05-22T08:57:09.43</time>
<name>5201</name>
<sym>Dot</sym>
</trkpt>
<trkpt lat="39.945470" lon="-8.408235">
<ele>291.5</ele>
<desc>Speed 5.2 km/h Distance 22.54 km</desc>
<time>2011-05-22T08:57:10.43</time>
<name>5202</name>
<sym>Dot</sym>
</trkpt>
<trkpt lat="39.945467" lon="-8.408233">
<ele>291.5</ele>
<desc>Speed 5.2 km/h Distance 22.54 km</desc>
<time>2011-05-22T08:57:11.43</time>
<name>5203</name>
<sym>Dot</sym>
</trkpt>
<trkpt lat="39.945463" lon="-8.408233">
<ele>291.5</ele>
<desc>Speed 5.2 km/h Distance 22.54 km</desc>
<time>2011-05-22T08:57:12.43</time>
<name>5204</name>
<sym>Dot</sym>
</trkpt>
<trkpt lat="39.945472" lon="-8.408223">
<ele>291.0</ele>
<desc>Speed 5.2 km/h Distance 22.54 km</desc>
<time>2011-05-22T08:57:13.43</time>
<name>5205</name>
<sym>Dot</sym>
</trkpt>
<trkpt lat="39.945472" lon="-8.408222">
<ele>291.0</ele>
<desc>Speed 5.2 km/h Distance 22.54 km</desc>
<time>2011-05-22T08:57:14.43</time>
<name>5206</name>
<sym>Dot</sym>
</trkpt>
<trkpt lat="39.945467" lon="-8.408217">
<ele>290.5</ele>
<desc>Speed 5.2 km/h Distance 22.54 km</desc>
<time>2011-05-22T08:57:15.43</time>
<name>5207</name>
<sym>Dot</sym>
</trkpt>
<trkpt lat="39.945463" lon="-8.408212">
<ele>290.5</ele>
<desc>Speed 5.2 km/h Distance 22.54 km</desc>
<time>2011-05-22T08:57:16.43</time>
<name>5208</name>
<sym>Dot</sym>
</trkpt>
<trkpt lat="39.945463" lon="-8.408205">
<ele>290.0</ele>
<desc>Speed 5.2 km/h Distance 22.54 km</desc>
<time>2011-05-22T08:57:17.43</time>
<name>5209</name>
<sym>Dot</sym>
</trkpt>
<trkpt lat="39.945462" lon="-8.408203">
<ele>290.0</ele>
<desc>Speed 5.2 km/h Distance 22.54 km</desc>
<time>2011-05-22T08:57:18.43</time>
<name>5210</name>
<sym>Dot</sym>
</trkpt>
<trkpt lat="39.945460" lon="-8.408202">
<ele>290.0</ele>
<desc>Speed 5.2 km/h Distance 22.54 km</desc>
<time>2011-05-22T08:57:19.43</time>
<name>5211</name>
<sym>Dot</sym>
</trkpt>
<trkpt lat="39.945458" lon="-8.408197">
<ele>290.0</ele>
<desc>Speed 5.2 km/h Distance 22.54 km</desc>
<time>2011-05-22T08:57:20.43</time>
<name>5212</name>
<sym>Dot</sym>
</trkpt>
<trkpt lat="39.945458" lon="-8.408192">
<ele>290.0</ele>
<desc>Speed 5.2 km/h Distance 22.54 km</desc>
<time>2011-05-22T08:57:21.43</time>
<name>5213</name>
<sym>Dot</sym>
</trkpt>
<trkpt lat="39.945457" lon="-8.408193">
<ele>290.0</ele>
<desc>Speed 5.2 km/h Distance 22.54 km</desc>
<time>2011-05-22T08:57:22.43</time>
<name>5214</name>
<sym>Dot</sym>
</trkpt>
<trkpt lat="39.945458" lon="-8.408195">
<ele>289.5</ele>
<desc>Speed 5.2 km/h Distance 22.55 km</desc>
<time>2011-05-22T08:57:23.43</time>
<name>5215</name>
<sym>Dot</sym>
</trkpt>
<trkpt lat="39.945460" lon="-8.408193">
<ele>289.5</ele>
<desc>Speed 5.2 km/h Distance 22.55 km</desc>
<time>2011-05-22T08:57:24.43</time>
<name>5216</name>
<sym>Dot</sym>
</trkpt>
<trkpt lat="39.945460" lon="-8.408190">
<ele>289.5</ele>
<desc>Speed 5.2 km/h Distance 22.55 km</desc>
<time>2011-05-22T08:57:25.43</time>
<name>5217</name>
<sym>Dot</sym>
</trkpt>
<trkpt lat="39.945463" lon="-8.408168">
<ele>289.0</ele>
<desc>Speed 5.2 km/h Distance 22.55 km</desc>
<time>2011-05-22T08:57:26.43</time>
<name>5218</name>
<sym>Dot</sym>
</trkpt>
<trkpt lat="39.945465" lon="-8.408163">
<ele>289.0</ele>
<desc>Speed 5.2 km/h Distance 22.55 km</desc>
<time>2011-05-22T08:57:27.43</time>
<name>5219</name>
<sym>Dot</sym>
</trkpt>
<trkpt lat="39.945463" lon="-8.408162">
<ele>289.0</ele>
<desc>Speed 5.2 km/h Distance 22.55 km</desc>
<time>2011-05-22T08:57:28.43</time>
<name>5220</name>
<sym>Dot</sym>
</trkpt>
<trkpt lat="39.945463" lon="-8.408162">
<ele>289.0</ele>
<desc>Speed 5.2 km/h Distance 22.55 km</desc>
<time>2011-05-22T08:57:29.43</time>
<name>5221</name>
<sym>Dot</sym>
</trkpt>
<trkpt lat="39.945462" lon="-8.408170">
<ele>288.5</ele>
<desc>Speed 5.2 km/h Distance 22.55 km</desc>
<time>2011-05-22T08:57:30.43</time>
<name>5222</name>
<sym>Dot</sym>
</trkpt>
<trkpt lat="39.945410" lon="-8.408175">
<ele>288.0</ele>
<desc>Speed 5.2 km/h Distance 22.55 km</desc>
<time>2011-05-22T08:57:32.43</time>
<name>5223</name>
<sym>Dot</sym>
</trkpt>
<trkpt lat="39.945398" lon="-8.408178">
<ele>288.0</ele>
<desc>Speed 5.2 km/h Distance 22.56 km</desc>
<time>2011-05-22T08:57:33.43</time>
<name>5224</name>
<sym>Dot</sym>
</trkpt>
<trkpt lat="39.945390" lon="-8.408205">
<ele>287.5</ele>
<desc>Speed 5.2 km/h Distance 22.56 km</desc>
<time>2011-05-22T08:57:34.43</time>
<name>5225</name>
<sym>Dot</sym>
</trkpt>
<trkpt lat="39.945303" lon="-8.408202">
<ele>287.0</ele>
<desc>Speed 5.2 km/h Distance 22.57 km</desc>
<time>2011-05-22T08:57:36.43</time>
<name>5226</name>
<sym>Dot</sym>
</trkpt>
<trkpt lat="39.945295" lon="-8.408208">
<ele>287.0</ele>
<desc>Speed 5.2 km/h Distance 22.57 km</desc>
<time>2011-05-22T08:57:37.43</time>
<name>5227</name>
<sym>Dot</sym>
</trkpt>
<trkpt lat="39.945292" lon="-8.408210">
<ele>287.0</ele>
<desc>Speed 5.2 km/h Distance 22.57 km</desc>
<time>2011-05-22T08:57:38.43</time>
<name>5228</name>
<sym>Dot</sym>
</trkpt>
<trkpt lat="39.945287" lon="-8.408212">
<ele>287.0</ele>
<desc>Speed 5.2 km/h Distance 22.57 km</desc>
<time>2011-05-22T08:57:39.43</time>
<name>5229</name>
<sym>Dot</sym>
</trkpt>
<trkpt lat="39.945278" lon="-8.408218">
<ele>287.0</ele>
<desc>Speed 5.2 km/h Distance 22.57 km</desc>
<time>2011-05-22T08:57:40.43</time>
<name>5230</name>
<sym>Dot</sym>
</trkpt>
<trkpt lat="39.945273" lon="-8.408227">
<ele>287.0</ele>
<desc>Speed 5.2 km/h Distance 22.57 km</desc>
<time>2011-05-22T08:57:41.43</time>
<name>5231</name>
<sym>Dot</sym>
</trkpt>
<trkpt lat="39.945270" lon="-8.408233">
<ele>287.0</ele>
<desc>Speed 5.2 km/h Distance 22.57 km</desc>
<time>2011-05-22T08:57:42.43</time>
<name>5232</name>
<sym>Dot</sym>
</trkpt>
<trkpt lat="39.945267" lon="-8.408235">
<ele>287.0</ele>
<desc>Speed 5.2 km/h Distance 22.57 km</desc>
<time>2011-05-22T08:57:43.43</time>
<name>5233</name>
<sym>Dot</sym>
</trkpt>
<trkpt lat="39.945253" lon="-8.408242">
<ele>287.0</ele>
<desc>Speed 5.2 km/h Distance 22.57 km</desc>
<time>2011-05-22T08:57:44.43</time>
<name>5234</name>
<sym>Dot</sym>
</trkpt>
<trkpt lat="39.945245" lon="-8.408243">
<ele>287.0</ele>
<desc>Speed 5.2 km/h Distance 22.58 km</desc>
<time>2011-05-22T08:57:45.43</time>
<name>5235</name>
<sym>Dot</sym>
</trkpt>
<trkpt lat="39.945243" lon="-8.408245">
<ele>287.0</ele>
<desc>Speed 5.2 km/h Distance 22.58 km</desc>
<time>2011-05-22T08:57:46.43</time>
<name>5236</name>
<sym>Dot</sym>
</trkpt>
<trkpt lat="39.945245" lon="-8.408247">
<ele>287.0</ele>
<desc>Speed 5.2 km/h Distance 22.58 km</desc>
<time>2011-05-22T08:57:47.43</time>
<name>5237</name>
<sym>Dot</sym>
</trkpt>
<trkpt lat="39.945245" lon="-8.408257">
<ele>287.0</ele>
<desc>Speed 5.2 km/h Distance 22.58 km</desc>
<time>2011-05-22T08:57:48.43</time>
<name>5238</name>
<sym>Dot</sym>
</trkpt>
<trkpt lat="39.945247" lon="-8.408257">
<ele>287.0</ele>
<desc>Speed 5.2 km/h Distance 22.58 km</desc>
<time>2011-05-22T08:57:49.43</time>
<name>5239</name>
<sym>Dot</sym>
</trkpt>
<trkpt lat="39.945247" lon="-8.408267">
<ele>287.0</ele>
<desc>Speed 5.2 km/h Distance 22.58 km</desc>
<time>2011-05-22T08:57:50.43</time>
<name>5240</name>
<sym>Dot</sym>
</trkpt>
<trkpt lat="39.945245" lon="-8.408273">
<ele>286.5</ele>
<desc>Speed 5.2 km/h Distance 22.58 km</desc>
<time>2011-05-22T08:57:51.43</time>
<name>5241</name>
<sym>Dot</sym>
</trkpt>
<trkpt lat="39.945258" lon="-8.408332">
<ele>286.0</ele>
<desc>Speed 5.2 km/h Distance 22.58 km</desc>
<time>2011-05-22T08:57:53.43</time>
<name>5242</name>
<sym>Dot</sym>
</trkpt>
<trkpt lat="39.945258" lon="-8.408340">
<ele>286.0</ele>
<desc>Speed 5.2 km/h Distance 22.58 km</desc>
<time>2011-05-22T08:57:54.43</time>
<name>5243</name>
<sym>Dot</sym>
</trkpt>
<trkpt lat="39.945243" lon="-8.408340">
<ele>285.5</ele>
<desc>Speed 1.8 km/h Distance 22.59 km</desc>
<time>2011-05-22T08:57:55.43</time>
<name>5244</name>
<sym>Dot</sym>
</trkpt>
<trkpt lat="39.945237" lon="-8.408338">
<ele>285.0</ele>
<desc>Speed 1.8 km/h Distance 22.59 km</desc>
<time>2011-05-22T08:57:56.43</time>
<name>5245</name>
<sym>Dot</sym>
</trkpt>
<trkpt lat="39.945233" lon="-8.408332">
<ele>285.0</ele>
<desc>Speed 1.8 km/h Distance 22.59 km</desc>
<time>2011-05-22T08:57:57.43</time>
<name>5246</name>
<sym>Dot</sym>
</trkpt>
<trkpt lat="39.945237" lon="-8.408313">
<ele>284.0</ele>
<desc>Speed 1.8 km/h Distance 22.59 km</desc>
<time>2011-05-22T08:57:58.43</time>
<name>5247</name>
<sym>Dot</sym>
</trkpt>
<trkpt lat="39.945233" lon="-8.408308">
<ele>284.0</ele>
<desc>Speed 1.8 km/h Distance 22.59 km</desc>
<time>2011-05-22T08:57:59.43</time>
<name>5248</name>
<sym>Dot</sym>
</trkpt>
<trkpt lat="39.945235" lon="-8.408310">
<ele>284.0</ele>
<desc>Speed 1.8 km/h Distance 22.59 km</desc>
<time>2011-05-22T08:58:00.43</time>
<name>5249</name>
<sym>Dot</sym>
</trkpt>
<trkpt lat="39.945233" lon="-8.408310">
<ele>284.0</ele>
<desc>Speed 1.8 km/h Distance 22.59 km</desc>
<time>2011-05-22T08:58:01.43</time>
<name>5250</name>
<sym>Dot</sym>
</trkpt>
<trkpt lat="39.945237" lon="-8.408297">
<ele>283.5</ele>
<desc>Speed 1.8 km/h Distance 22.59 km</desc>
<time>2011-05-22T08:58:02.43</time>
<name>5251</name>
<sym>Dot</sym>
</trkpt>
<trkpt lat="39.945215" lon="-8.408293">
<ele>282.5</ele>
<desc>Speed 2.7 km/h Distance 22.59 km</desc>
<time>2011-05-22T08:58:03.43</time>
<name>5252</name>
<sym>Dot</sym>
</trkpt>
<trkpt lat="39.945215" lon="-8.408283">
<ele>282.5</ele>
<desc>Speed 7.2 km/h Distance 22.59 km</desc>
<time>2011-05-22T08:58:04.43</time>
<name>5253</name>
<sym>Dot</sym>
</trkpt>
<trkpt lat="39.945222" lon="-8.408273">
<ele>282.5</ele>
<desc>Speed 7.2 km/h Distance 22.60 km</desc>
<time>2011-05-22T08:58:05.43</time>
<name>5254</name>
<sym>Dot</sym>
</trkpt>
<trkpt lat="39.945237" lon="-8.408262">
<ele>282.0</ele>
<desc>Speed 3.1 km/h Distance 22.60 km</desc>
<time>2011-05-22T08:58:06.43</time>
<name>5255</name>
<sym>Dot</sym>
</trkpt>
<trkpt lat="39.945203" lon="-8.408277">
<ele>282.0</ele>
<desc>Speed 4.5 km/h Distance 22.60 km</desc>
<time>2011-05-22T08:58:08.43</time>
<name>5256</name>
<sym>Dot</sym>
</trkpt>
<trkpt lat="39.945195" lon="-8.408278">
<ele>282.0</ele>
<desc>Speed 4.5 km/h Distance 22.60 km</desc>
<time>2011-05-22T08:58:09.43</time>
<name>5257</name>
<sym>Dot</sym>
</trkpt>
<trkpt lat="39.945190" lon="-8.408280">
<ele>282.0</ele>
<desc>Speed 4.5 km/h Distance 22.60 km</desc>
<time>2011-05-22T08:58:10.43</time>
<name>5258</name>
<sym>Dot</sym>
</trkpt>
<trkpt lat="39.945170" lon="-8.408282">
<ele>282.0</ele>
<desc>Speed 4.5 km/h Distance 22.61 km</desc>
<time>2011-05-22T08:58:11.43</time>
<name>5259</name>
<sym>Dot</sym>
</trkpt>
<trkpt lat="39.945162" lon="-8.408283">
<ele>282.0</ele>
<desc>Speed 4.5 km/h Distance 22.61 km</desc>
<time>2011-05-22T08:58:12.43</time>
<name>5260</name>
<sym>Dot</sym>
</trkpt>
<trkpt lat="39.945155" lon="-8.408285">
<ele>282.0</ele>
<desc>Speed 4.5 km/h Distance 22.61 km</desc>
<time>2011-05-22T08:58:13.43</time>
<name>5261</name>
<sym>Dot</sym>
</trkpt>
<trkpt lat="39.945153" lon="-8.408285">
<ele>282.0</ele>
<desc>Speed 4.5 km/h Distance 22.61 km</desc>
<time>2011-05-22T08:58:14.43</time>
<name>5262</name>
<sym>Dot</sym>
</trkpt>
<trkpt lat="39.945145" lon="-8.408278">
<ele>281.5</ele>
<desc>Speed 4.5 km/h Distance 22.61 km</desc>
<time>2011-05-22T08:58:15.43</time>
<name>5263</name>
<sym>Dot</sym>
</trkpt>
<trkpt lat="39.945143" lon="-8.408275">
<ele>281.5</ele>
<desc>Speed 4.5 km/h Distance 22.61 km</desc>
<time>2011-05-22T08:58:16.43</time>
<name>5264</name>
<sym>Dot</sym>
</trkpt>
<trkpt lat="39.945145" lon="-8.408275">
<ele>281.5</ele>
<desc>Speed 4.5 km/h Distance 22.61 km</desc>
<time>2011-05-22T08:58:17.43</time>
<name>5265</name>
<sym>Dot</sym>
</trkpt>
<trkpt lat="39.945147" lon="-8.408267">
<ele>281.5</ele>
<desc>Speed 4.5 km/h Distance 22.61 km</desc>
<time>2011-05-22T08:58:18.43</time>
<name>5266</name>
<sym>Dot</sym>
</trkpt>
<trkpt lat="39.945148" lon="-8.408262">
<ele>281.5</ele>
<desc>Speed 4.5 km/h Distance 22.61 km</desc>
<time>2011-05-22T08:58:19.43</time>
<name>5267</name>
<sym>Dot</sym>
</trkpt>
<trkpt lat="39.945158" lon="-8.408267">
<ele>281.5</ele>
<desc>Speed 4.5 km/h Distance 22.61 km</desc>
<time>2011-05-22T08:58:20.43</time>
<name>5268</name>
<sym>Dot</sym>
</trkpt>
<trkpt lat="39.945165" lon="-8.408270">
<ele>281.5</ele>
<desc>Speed 4.5 km/h Distance 22.61 km</desc>
<time>2011-05-22T08:58:21.43</time>
<name>5269</name>
<sym>Dot</sym>
</trkpt>
<trkpt lat="39.945165" lon="-8.408268">
<ele>281.5</ele>
<desc>Speed 4.5 km/h Distance 22.61 km</desc>
<time>2011-05-22T08:58:22.43</time>
<name>5270</name>
<sym>Dot</sym>
</trkpt>
<trkpt lat="39.945167" lon="-8.408268">
<ele>282.0</ele>
<desc>Speed 4.5 km/h Distance 22.61 km</desc>
<time>2011-05-22T08:58:23.43</time>
<name>5271</name>
<sym>Dot</sym>
</trkpt>
<trkpt lat="39.945170" lon="-8.408250">
<ele>282.0</ele>
<desc>Speed 4.5 km/h Distance 22.61 km</desc>
<time>2011-05-22T08:58:24.43</time>
<name>5272</name>
<sym>Dot</sym>
</trkpt>
<trkpt lat="39.945180" lon="-8.408248">
<ele>282.0</ele>
<desc>Speed 4.5 km/h Distance 22.62 km</desc>
<time>2011-05-22T08:58:25.43</time>
<name>5273</name>
<sym>Dot</sym>
</trkpt>
<trkpt lat="39.945207" lon="-8.408247">
<ele>282.0</ele>
<desc>Speed 4.5 km/h Distance 22.62 km</desc>
<time>2011-05-22T08:58:26.43</time>
<name>5274</name>
<sym>Dot</sym>
</trkpt>
<trkpt lat="39.945215" lon="-8.408243">
<ele>282.0</ele>
<desc>Speed 4.5 km/h Distance 22.62 km</desc>
<time>2011-05-22T08:58:27.43</time>
<name>5275</name>
<sym>Dot</sym>
</trkpt>
<trkpt lat="39.945227" lon="-8.408252">
<ele>282.5</ele>
<desc>Speed 4.5 km/h Distance 22.62 km</desc>
<time>2011-05-22T08:58:28.43</time>
<name>5276</name>
<sym>Dot</sym>
</trkpt>
<trkpt lat="39.945227" lon="-8.408250">
<ele>282.5</ele>
<desc>Speed 4.5 km/h Distance 22.62 km</desc>
<time>2011-05-22T08:58:29.43</time>
<name>5277</name>
<sym>Dot</sym>
</trkpt>
<trkpt lat="39.945227" lon="-8.408252">
<ele>282.5</ele>
<desc>Speed 4.5 km/h Distance 22.62 km</desc>
<time>2011-05-22T08:58:30.43</time>
<name>5278</name>
<sym>Dot</sym>
</trkpt>
<trkpt lat="39.945235" lon="-8.408248">
<ele>282.5</ele>
<desc>Speed 4.5 km/h Distance 22.62 km</desc>
<time>2011-05-22T08:58:31.43</time>
<name>5279</name>
<sym>Dot</sym>
</trkpt>
<trkpt lat="39.945250" lon="-8.408257">
<ele>282.5</ele>
<desc>Speed 4.5 km/h Distance 22.62 km</desc>
<time>2011-05-22T08:58:32.43</time>
<name>5280</name>
<sym>Dot</sym>
</trkpt>
<trkpt lat="39.945257" lon="-8.408262">
<ele>282.5</ele>
<desc>Speed 4.5 km/h Distance 22.62 km</desc>
<time>2011-05-22T08:58:33.43</time>
<name>5281</name>
<sym>Dot</sym>
</trkpt>
<trkpt lat="39.945263" lon="-8.408265">
<ele>283.0</ele>
<desc>Speed 4.5 km/h Distance 22.63 km</desc>
<time>2011-05-22T08:58:34.43</time>
<name>5282</name>
<sym>Dot</sym>
</trkpt>
<trkpt lat="39.945255" lon="-8.408233">
<ele>282.5</ele>
<desc>Speed 4.3 km/h Distance 22.63 km</desc>
<time>2011-05-22T08:58:35.43</time>
<name>5283</name>
<sym>Dot</sym>
</trkpt>
<trkpt lat="39.945233" lon="-8.408228">
<ele>282.5</ele>
<desc>Speed 10.3 km/h Distance 22.63 km</desc>
<time>2011-05-22T08:58:36.43</time>
<name>5284</name>
<sym>Dot</sym>
</trkpt>
<trkpt lat="39.945242" lon="-8.408217">
<ele>284.0</ele>
<desc>Speed 1.3 km/h Distance 22.63 km</desc>
<time>2011-05-22T08:58:39.43</time>
<name>5285</name>
<sym>Dot</sym>
</trkpt>
<trkpt lat="39.945262" lon="-8.408195">
<ele>285.5</ele>
<desc>Speed 2.4 km/h Distance 22.64 km</desc>
<time>2011-05-22T08:58:43.43</time>
<name>5286</name>
<sym>Dot</sym>
</trkpt>
<trkpt lat="39.945267" lon="-8.408187">
<ele>285.5</ele>
<desc>Speed 2.0 km/h Distance 22.64 km</desc>
<time>2011-05-22T08:58:44.43</time>
<name>5287</name>
<sym>Dot</sym>
</trkpt>
<trkpt lat="39.945272" lon="-8.408175">
<ele>284.5</ele>
<desc>Speed 2.9 km/h Distance 22.64 km</desc>
<time>2011-05-22T08:58:45.43</time>
<name>5288</name>
<sym>Dot</sym>
</trkpt>
<trkpt lat="39.945275" lon="-8.408167">
<ele>284.5</ele>
<desc>Speed 2.2 km/h Distance 22.64 km</desc>
<time>2011-05-22T08:58:46.43</time>
<name>5289</name>
<sym>Dot</sym>
</trkpt>
<trkpt lat="39.945283" lon="-8.408165">
<ele>285.0</ele>
<desc>Speed 2.0 km/h Distance 22.64 km</desc>
<time>2011-05-22T08:58:47.43</time>
<name>5290</name>
<sym>Dot</sym>
</trkpt>
<trkpt lat="39.945295" lon="-8.408170">
<ele>285.5</ele>
<desc>Speed 3.8 km/h Distance 22.64 km</desc>
<time>2011-05-22T08:58:48.43</time>
<name>5291</name>
<sym>Dot</sym>
</trkpt>
<trkpt lat="39.945302" lon="-8.408173">
<ele>286.0</ele>
<desc>Speed 2.4 km/h Distance 22.64 km</desc>
<time>2011-05-22T08:58:49.43</time>
<name>5292</name>
<sym>Dot</sym>
</trkpt>
<trkpt lat="39.945307" lon="-8.408175">
<ele>286.5</ele>
<desc>Speed 1.3 km/h Distance 22.64 km</desc>
<time>2011-05-22T08:58:50.43</time>
<name>5293</name>
<sym>Dot</sym>
</trkpt>
<trkpt lat="39.945322" lon="-8.408170">
<ele>288.0</ele>
<desc>Speed 4.4 km/h Distance 22.64 km</desc>
<time>2011-05-22T08:58:52.43</time>
<name>5294</name>
<sym>Dot</sym>
</trkpt>
<trkpt lat="39.945337" lon="-8.408177">
<ele>289.0</ele>
<desc>Speed 1.3 km/h Distance 22.65 km</desc>
<time>2011-05-22T08:59:06.43</time>
<name>5295</name>
<sym>Dot</sym>
</trkpt>
<trkpt lat="39.945342" lon="-8.408173">
<ele>290.5</ele>
<desc>Speed 1.2 km/h Distance 22.65 km</desc>
<time>2011-05-22T08:59:13.43</time>
<name>5296</name>
<sym>Dot</sym>
</trkpt>
<trkpt lat="39.945337" lon="-8.408170">
<ele>291.0</ele>
<desc>Speed 1.5 km/h Distance 22.65 km</desc>
<time>2011-05-22T08:59:17.43</time>
<name>5297</name>
<sym>Dot</sym>
</trkpt>
<trkpt lat="39.945337" lon="-8.408167">
<ele>292.0</ele>
<desc>Speed 1.3 km/h Distance 22.65 km</desc>
<time>2011-05-22T08:59:18.43</time>
<name>5298</name>
<sym>Dot</sym>
</trkpt>
<trkpt lat="39.945338" lon="-8.408167">
<ele>292.5</ele>
<desc>Speed 1.1 km/h Distance 22.65 km</desc>
<time>2011-05-22T08:59:19.43</time>
<name>5299</name>
<sym>Dot</sym>
</trkpt>
<trkpt lat="39.945342" lon="-8.408168">
<ele>293.0</ele>
<desc>Speed 1.7 km/h Distance 22.65 km</desc>
<time>2011-05-22T08:59:20.42</time>
<name>5300</name>
<sym>Dot</sym>
</trkpt>
<trkpt lat="39.945360" lon="-8.408167">
<ele>292.5</ele>
<desc>Speed 6.6 km/h Distance 22.65 km</desc>
<time>2011-05-22T08:59:26.92</time>
<name>5301</name>
<sym>Dot</sym>
</trkpt>
<trkpt lat="39.945358" lon="-8.408165">
<ele>292.0</ele>
<desc>Speed 3.5 km/h Distance 22.65 km</desc>
<time>2011-05-22T08:59:32.93</time>
<name>5302</name>
<sym>Dot</sym>
</trkpt>
<trkpt lat="39.945400" lon="-8.408167">
<ele>292.0</ele>
<desc>Speed 1.1 km/h Distance 22.65 km</desc>
<time>2011-05-22T08:59:34.92</time>
<name>5303</name>
<sym>Dot</sym>
</trkpt>
<trkpt lat="39.945407" lon="-8.408167">
<ele>292.5</ele>
<desc>Speed 2.6 km/h Distance 22.65 km</desc>
<time>2011-05-22T08:59:36.91</time>
<name>5304</name>
<sym>Dot</sym>
</trkpt>
<trkpt lat="39.945347" lon="-8.408122">
<ele>292.5</ele>
<desc>Speed 3.0 km/h Distance 22.66 km</desc>
<time>2011-05-22T08:59:40.04</time>
<name>5305</name>
<sym>Dot</sym>
</trkpt>
<trkpt lat="39.945343" lon="-8.408123">
<ele>292.5</ele>
<desc>Speed 1.4 km/h Distance 22.66 km</desc>
<time>2011-05-22T08:59:41.00</time>
<name>5306</name>
<sym>Dot</sym>
</trkpt>
<trkpt lat="39.945338" lon="-8.408125">
<ele>292.5</ele>
<desc>Speed 2.4 km/h Distance 22.66 km</desc>
<time>2011-05-22T08:59:41.94</time>
<name>5307</name>
<sym>Dot</sym>
</trkpt>
<trkpt lat="39.945330" lon="-8.408127">
<ele>292.5</ele>
<desc>Speed 3.3 km/h Distance 22.66 km</desc>
<time>2011-05-22T08:59:43.03</time>
<name>5308</name>
<sym>Dot</sym>
</trkpt>
<trkpt lat="39.945323" lon="-8.408128">
<ele>292.5</ele>
<desc>Speed 3.3 km/h Distance 22.67 km</desc>
<time>2011-05-22T08:59:43.93</time>
<name>5309</name>
<sym>Dot</sym>
</trkpt>
<trkpt lat="39.945325" lon="-8.408128">
<ele>293.0</ele>
<desc>Speed 3.3 km/h Distance 22.67 km</desc>
<time>2011-05-22T08:59:44.92</time>
<name>5310</name>
<sym>Dot</sym>
</trkpt>
<trkpt lat="39.945325" lon="-8.408127">
<ele>293.0</ele>
<desc>Speed 3.3 km/h Distance 22.67 km</desc>
<time>2011-05-22T08:59:45.92</time>
<name>5311</name>
<sym>Dot</sym>
</trkpt>
<trkpt lat="39.945327" lon="-8.408127">
<ele>293.0</ele>
<desc>Speed 3.3 km/h Distance 22.67 km</desc>
<time>2011-05-22T08:59:46.91</time>
<name>5312</name>
<sym>Dot</sym>
</trkpt>
<trkpt lat="39.945313" lon="-8.408133">
<ele>293.0</ele>
<desc>Speed 5.4 km/h Distance 22.67 km</desc>
<time>2011-05-22T08:59:47.90</time>
<name>5313</name>
<sym>Dot</sym>
</trkpt>
<trkpt lat="39.945318" lon="-8.408143">
<ele>293.5</ele>
<desc>Speed 1.4 km/h Distance 22.67 km</desc>
<time>2011-05-22T08:59:48.89</time>
<name>5314</name>
<sym>Dot</sym>
</trkpt>
<trkpt lat="39.945328" lon="-8.408150">
<ele>293.0</ele>
<desc>Speed 1.4 km/h Distance 22.67 km</desc>
<time>2011-05-22T08:59:49.89</time>
<name>5315</name>
<sym>Dot</sym>
</trkpt>
<trkpt lat="39.945335" lon="-8.408162">
<ele>293.0</ele>
<desc>Speed 1.4 km/h Distance 22.67 km</desc>
<time>2011-05-22T08:59:50.90</time>
<name>5316</name>
<sym>Dot</sym>
</trkpt>
<trkpt lat="39.945343" lon="-8.408170">
<ele>293.0</ele>
<desc>Speed 1.4 km/h Distance 22.67 km</desc>
<time>2011-05-22T08:59:52.08</time>
<name>5317</name>
<sym>Dot</sym>
</trkpt>
<trkpt lat="39.945345" lon="-8.408178">
<ele>293.0</ele>
<desc>Speed 1.1 km/h Distance 22.67 km</desc>
<time>2011-05-22T08:59:53.31</time>
<name>5318</name>
<sym>Dot</sym>
</trkpt>
<trkpt lat="39.945347" lon="-8.408187">
<ele>293.0</ele>
<desc>Speed 1.1 km/h Distance 22.67 km</desc>
<time>2011-05-22T08:59:53.96</time>
<name>5319</name>
<sym>Dot</sym>
</trkpt>
<trkpt lat="39.945345" lon="-8.408187">
<ele>293.0</ele>
<desc>Speed 1.1 km/h Distance 22.67 km</desc>
<time>2011-05-22T08:59:54.96</time>
<name>5320</name>
<sym>Dot</sym>
</trkpt>
<trkpt lat="39.945343" lon="-8.408187">
<ele>293.0</ele>
<desc>Speed 1.1 km/h Distance 22.67 km</desc>
<time>2011-05-22T08:59:55.96</time>
<name>5321</name>
<sym>Dot</sym>
</trkpt>
<trkpt lat="39.945340" lon="-8.408190">
<ele>293.0</ele>
<desc>Speed 1.9 km/h Distance 22.67 km</desc>
<time>2011-05-22T08:59:57.19</time>
<name>5322</name>
<sym>Dot</sym>
</trkpt>
<trkpt lat="39.945355" lon="-8.408198">
<ele>293.0</ele>
<desc>Speed 4.4 km/h Distance 22.68 km</desc>
<time>2011-05-22T08:59:58.17</time>
<name>5323</name>
<sym>Dot</sym>
</trkpt>
<trkpt lat="39.945372" lon="-8.408205">
<ele>293.0</ele>
<desc>Speed 3.3 km/h Distance 22.68 km</desc>
<time>2011-05-22T08:59:59.52</time>
<name>5324</name>
<sym>Dot</sym>
</trkpt>
<trkpt lat="39.945365" lon="-8.408210">
<ele>293.0</ele>
<desc>Speed 7.3 km/h Distance 22.68 km</desc>
<time>2011-05-22T09:00:00.35</time>
<name>5325</name>
<sym>Dot</sym>
</trkpt>
<trkpt lat="39.945370" lon="-8.408213">
<ele>293.5</ele>
<desc>Speed 5.0 km/h Distance 22.68 km</desc>
<time>2011-05-22T09:00:01.84</time>
<name>5326</name>
<sym>Dot</sym>
</trkpt>
<trkpt lat="39.945390" lon="-8.408213">
<ele>293.5</ele>
<desc>Speed 1.6 km/h Distance 22.68 km</desc>
<time>2011-05-22T09:00:03.00</time>
<name>5327</name>
<sym>Dot</sym>
</trkpt>
<trkpt lat="39.945390" lon="-8.408213">
<ele>293.5</ele>
<desc>Speed 1.6 km/h Distance 22.68 km</desc>
<time>2011-05-22T09:00:03.34</time>
<name>5328</name>
<sym>Dot</sym>
</trkpt>
<trkpt lat="39.945408" lon="-8.408210">
<ele>293.5</ele>
<desc>Speed 1.6 km/h Distance 22.68 km</desc>
<time>2011-05-22T09:00:04.86</time>
<name>5329</name>
<sym>Dot</sym>
</trkpt>
<trkpt lat="39.945453" lon="-8.408237">
<ele>293.5</ele>
<desc>Speed 5.6 km/h Distance 22.69 km</desc>
<time>2011-05-22T09:00:08.88</time>
<name>5330</name>
<sym>Dot</sym>
</trkpt>
<trkpt lat="39.945467" lon="-8.408247">
<ele>293.5</ele>
<desc>Speed 5.6 km/h Distance 22.69 km</desc>
<time>2011-05-22T09:00:09.93</time>
<name>5331</name>
<sym>Dot</sym>
</trkpt>
<trkpt lat="39.945470" lon="-8.408265">
<ele>293.0</ele>
<desc>Speed 1.5 km/h Distance 22.69 km</desc>
<time>2011-05-22T09:00:12.86</time>
<name>5332</name>
<sym>Dot</sym>
</trkpt>
<trkpt lat="39.945482" lon="-8.408270">
<ele>293.0</ele>
<desc>Speed 1.1 km/h Distance 22.69 km</desc>
<time>2011-05-22T09:00:14.82</time>
<name>5333</name>
<sym>Dot</sym>
</trkpt>
<trkpt lat="39.945482" lon="-8.408268">
<ele>293.0</ele>
<desc>Speed 1.4 km/h Distance 22.69 km</desc>
<time>2011-05-22T09:00:15.91</time>
<name>5334</name>
<sym>Dot</sym>
</trkpt>
<trkpt lat="39.945483" lon="-8.408268">
<ele>293.5</ele>
<desc>Speed 1.1 km/h Distance 22.69 km</desc>
<time>2011-05-22T09:00:16.96</time>
<name>5335</name>
<sym>Dot</sym>
</trkpt>
<trkpt lat="39.945480" lon="-8.408267">
<ele>293.0</ele>
<desc>Speed 1.1 km/h Distance 22.69 km</desc>
<time>2011-05-22T09:00:17.94</time>
<name>5336</name>
<sym>Dot</sym>
</trkpt>
<trkpt lat="39.945487" lon="-8.408250">
<ele>293.0</ele>
<desc>Speed 6.6 km/h Distance 22.70 km</desc>
<time>2011-05-22T09:00:18.97</time>
<name>5337</name>
<sym>Dot</sym>
</trkpt>
<trkpt lat="39.945505" lon="-8.408260">
<ele>293.5</ele>
<desc>Speed 2.8 km/h Distance 22.70 km</desc>
<time>2011-05-22T09:00:19.90</time>
<name>5338</name>
<sym>Dot</sym>
</trkpt>
<trkpt lat="39.945518" lon="-8.408263">
<ele>293.5</ele>
<desc>Speed 2.0 km/h Distance 22.70 km</desc>
<time>2011-05-22T09:00:20.89</time>
<name>5339</name>
<sym>Dot</sym>
</trkpt>
<trkpt lat="39.945523" lon="-8.408255">
<ele>293.0</ele>
<desc>Speed 3.8 km/h Distance 22.70 km</desc>
<time>2011-05-22T09:00:24.79</time>
<name>5340</name>
<sym>Dot</sym>
</trkpt>
<trkpt lat="39.945472" lon="-8.408213">
<ele>294.0</ele>
<desc>Speed 8.1 km/h Distance 22.71 km</desc>
<time>2011-05-22T09:00:30.78</time>
<name>5341</name>
<sym>Dot</sym>
</trkpt>
<trkpt lat="39.945465" lon="-8.408212">
<ele>294.0</ele>
<desc>Speed 2.4 km/h Distance 22.71 km</desc>
<time>2011-05-22T09:00:34.78</time>
<name>5342</name>
<sym>Dot</sym>
</trkpt>
<trkpt lat="39.945467" lon="-8.408212">
<ele>294.0</ele>
<desc>Speed 2.5 km/h Distance 22.71 km</desc>
<time>2011-05-22T09:00:36.77</time>
<name>5343</name>
<sym>Dot</sym>
</trkpt>
<trkpt lat="39.945467" lon="-8.408215">
<ele>293.5</ele>
<desc>Speed 2.7 km/h Distance 22.71 km</desc>
<time>2011-05-22T09:00:37.76</time>
<name>5344</name>
<sym>Dot</sym>
</trkpt>
<trkpt lat="39.945475" lon="-8.408218">
<ele>293.0</ele>
<desc>Speed 2.7 km/h Distance 22.71 km</desc>
<time>2011-05-22T09:00:38.75</time>
<name>5345</name>
<sym>Dot</sym>
</trkpt>
<trkpt lat="39.945483" lon="-8.408217">
<ele>292.5</ele>
<desc>Speed 2.7 km/h Distance 22.71 km</desc>
<time>2011-05-22T09:00:39.74</time>
<name>5346</name>
<sym>Dot</sym>
</trkpt>
<trkpt lat="39.945493" lon="-8.408233">
<ele>292.0</ele>
<desc>Speed 4.6 km/h Distance 22.71 km</desc>
<time>2011-05-22T09:00:41.74</time>
<name>5347</name>
<sym>Dot</sym>
</trkpt>
<trkpt lat="39.945497" lon="-8.408237">
<ele>292.0</ele>
<desc>Speed 1.4 km/h Distance 22.71 km</desc>
<time>2011-05-22T09:00:42.74</time>
<name>5348</name>
<sym>Dot</sym>
</trkpt>
<trkpt lat="39.945495" lon="-8.408237">
<ele>291.5</ele>
<desc>Speed 1.4 km/h Distance 22.71 km</desc>
<time>2011-05-22T09:00:43.73</time>
<name>5349</name>
<sym>Dot</sym>
</trkpt>
<trkpt lat="39.945497" lon="-8.408235">
<ele>292.0</ele>
<desc>Speed 2.7 km/h Distance 22.71 km</desc>
<time>2011-05-22T09:00:44.73</time>
<name>5350</name>
<sym>Dot</sym>
</trkpt>
<trkpt lat="39.945500" lon="-8.408237">
<ele>291.5</ele>
<desc>Speed 2.7 km/h Distance 22.71 km</desc>
<time>2011-05-22T09:00:45.72</time>
<name>5351</name>
<sym>Dot</sym>
</trkpt>
<trkpt lat="39.945498" lon="-8.408235">
<ele>291.5</ele>
<desc>Speed 2.4 km/h Distance 22.71 km</desc>
<time>2011-05-22T09:00:46.71</time>
<name>5352</name>
<sym>Dot</sym>
</trkpt>
<trkpt lat="39.945512" lon="-8.408247">
<ele>291.0</ele>
<desc>Speed 3.7 km/h Distance 22.72 km</desc>
<time>2011-05-22T09:00:47.71</time>
<name>5353</name>
<sym>Dot</sym>
</trkpt>
<trkpt lat="39.945488" lon="-8.408228">
<ele>290.0</ele>
<desc>Speed 1.5 km/h Distance 22.72 km</desc>
<time>2011-05-22T09:00:48.71</time>
<name>5354</name>
<sym>Dot</sym>
</trkpt>
<trkpt lat="39.945472" lon="-8.408213">
<ele>289.0</ele>
<desc>Speed 1.5 km/h Distance 22.72 km</desc>
<time>2011-05-22T09:00:49.70</time>
<name>5355</name>
<sym>Dot</sym>
</trkpt>
<trkpt lat="39.945475" lon="-8.408210">
<ele>289.0</ele>
<desc>Speed 2.5 km/h Distance 22.72 km</desc>
<time>2011-05-22T09:00:50.69</time>
<name>5356</name>
<sym>Dot</sym>
</trkpt>
<trkpt lat="39.945442" lon="-8.408193">
<ele>287.0</ele>
<desc>Speed 1.9 km/h Distance 22.73 km</desc>
<time>2011-05-22T09:00:52.75</time>
<name>5357</name>
<sym>Dot</sym>
</trkpt>
<trkpt lat="39.945438" lon="-8.408197">
<ele>287.0</ele>
<desc>Speed 1.9 km/h Distance 22.73 km</desc>
<time>2011-05-22T09:00:53.69</time>
<name>5358</name>
<sym>Dot</sym>
</trkpt>
<trkpt lat="39.945423" lon="-8.408185">
<ele>287.5</ele>
<desc>Speed 1.2 km/h Distance 22.73 km</desc>
<time>2011-05-22T09:00:55.70</time>
<name>5359</name>
<sym>Dot</sym>
</trkpt>
<trkpt lat="39.945398" lon="-8.408157">
<ele>288.0</ele>
<desc>Speed 2.7 km/h Distance 22.73 km</desc>
<time>2011-05-22T09:00:58.70</time>
<name>5360</name>
<sym>Dot</sym>
</trkpt>
<trkpt lat="39.945428" lon="-8.408202">
<ele>288.5</ele>
<desc>Speed 8.1 km/h Distance 22.74 km</desc>
<time>2011-05-22T09:01:00.72</time>
<name>5361</name>
<sym>Dot</sym>
</trkpt>
<trkpt lat="39.945442" lon="-8.408222">
<ele>288.5</ele>
<desc>Speed 8.1 km/h Distance 22.74 km</desc>
<time>2011-05-22T09:01:02.39</time>
<name>5362</name>
<sym>Dot</sym>
</trkpt>
<trkpt lat="39.945412" lon="-8.408200">
<ele>289.0</ele>
<desc>Speed 4.5 km/h Distance 22.74 km</desc>
<time>2011-05-22T09:01:03.72</time>
<name>5363</name>
<sym>Dot</sym>
</trkpt>
<trkpt lat="39.945348" lon="-8.408183">
<ele>289.5</ele>
<desc>Speed 1.2 km/h Distance 22.75 km</desc>
<time>2011-05-22T09:01:41.72</time>
<name>5364</name>
<sym>Dot</sym>
</trkpt>
<trkpt lat="39.945343" lon="-8.408185">
<ele>289.5</ele>
<desc>Speed 1.1 km/h Distance 22.75 km</desc>
<time>2011-05-22T09:01:43.72</time>
<name>5365</name>
<sym>Dot</sym>
</trkpt>
<trkpt lat="39.945340" lon="-8.408188">
<ele>289.5</ele>
<desc>Speed 1.6 km/h Distance 22.75 km</desc>
<time>2011-05-22T09:01:47.72</time>
<name>5366</name>
<sym>Dot</sym>
</trkpt>
<trkpt lat="39.945330" lon="-8.408188">
<ele>290.0</ele>
<desc>Speed 1.2 km/h Distance 22.75 km</desc>
<time>2011-05-22T09:02:02.72</time>
<name>5367</name>
<sym>Dot</sym>
</trkpt>
<trkpt lat="39.945350" lon="-8.408185">
<ele>290.0</ele>
<desc>Speed 1.2 km/h Distance 22.75 km</desc>
<time>2011-05-22T09:03:20.72</time>
<name>5368</name>
<sym>Dot</sym>
</trkpt>
<trkpt lat="39.945338" lon="-8.408175">
<ele>290.5</ele>
<desc>Speed 2.0 km/h Distance 22.76 km</desc>
<time>2011-05-22T09:03:35.72</time>
<name>5369</name>
<sym>Dot</sym>
</trkpt>
<trkpt lat="39.945340" lon="-8.408182">
<ele>291.0</ele>
<desc>Speed 1.4 km/h Distance 22.76 km</desc>
<time>2011-05-22T09:03:39.72</time>
<name>5370</name>
<sym>Dot</sym>
</trkpt>
<trkpt lat="39.945343" lon="-8.408192">
<ele>292.0</ele>
<desc>Speed 1.1 km/h Distance 22.76 km</desc>
<time>2011-05-22T09:03:56.72</time>
<name>5371</name>
<sym>Dot</sym>
</trkpt>
<trkpt lat="39.945347" lon="-8.408200">
<ele>292.5</ele>
<desc>Speed 2.3 km/h Distance 22.76 km</desc>
<time>2011-05-22T09:04:01.72</time>
<name>5372</name>
<sym>Dot</sym>
</trkpt>
<trkpt lat="39.945343" lon="-8.408203">
<ele>293.0</ele>
<desc>Speed 1.3 km/h Distance 22.76 km</desc>
<time>2011-05-22T09:04:02.72</time>
<name>5373</name>
<sym>Dot</sym>
</trkpt>
<trkpt lat="39.945345" lon="-8.408210">
<ele>293.0</ele>
<desc>Speed 1.3 km/h Distance 22.76 km</desc>
<time>2011-05-22T09:04:03.72</time>
<name>5374</name>
<sym>Dot</sym>
</trkpt>
<trkpt lat="39.945342" lon="-8.408212">
<ele>293.0</ele>
<desc>Speed 1.1 km/h Distance 22.76 km</desc>
<time>2011-05-22T09:04:04.72</time>
<name>5375</name>
<sym>Dot</sym>
</trkpt>
<trkpt lat="39.945323" lon="-8.408215">
<ele>292.0</ele>
<desc>Speed 1.7 km/h Distance 22.76 km</desc>
<time>2011-05-22T09:04:40.72</time>
<name>5376</name>
<sym>Dot</sym>
</trkpt>
<trkpt lat="39.945318" lon="-8.408212">
<ele>292.0</ele>
<desc>Speed 2.2 km/h Distance 22.76 km</desc>
<time>2011-05-22T09:04:41.72</time>
<name>5377</name>
<sym>Dot</sym>
</trkpt>
<trkpt lat="39.945313" lon="-8.408208">
<ele>292.5</ele>
<desc>Speed 2.1 km/h Distance 22.76 km</desc>
<time>2011-05-22T09:04:42.72</time>
<name>5378</name>
<sym>Dot</sym>
</trkpt>
<trkpt lat="39.945308" lon="-8.408212">
<ele>292.5</ele>
<desc>Speed 2.0 km/h Distance 22.76 km</desc>
<time>2011-05-22T09:04:43.72</time>
<name>5379</name>
<sym>Dot</sym>
</trkpt>
<trkpt lat="39.945308" lon="-8.408207">
<ele>292.0</ele>
<desc>Speed 1.4 km/h Distance 22.76 km</desc>
<time>2011-05-22T09:04:44.72</time>
<name>5380</name>
<sym>Dot</sym>
</trkpt>
<trkpt lat="39.945303" lon="-8.408207">
<ele>292.0</ele>
<desc>Speed 2.2 km/h Distance 22.76 km</desc>
<time>2011-05-22T09:04:45.72</time>
<name>5381</name>
<sym>Dot</sym>
</trkpt>
<trkpt lat="39.945303" lon="-8.408203">
<ele>291.5</ele>
<desc>Speed 1.4 km/h Distance 22.77 km</desc>
<time>2011-05-22T09:04:46.72</time>
<name>5382</name>
<sym>Dot</sym>
</trkpt>
<trkpt lat="39.945305" lon="-8.408198">
<ele>291.0</ele>
<desc>Speed 2.1 km/h Distance 22.77 km</desc>
<time>2011-05-22T09:04:53.72</time>
<name>5383</name>
<sym>Dot</sym>
</trkpt>
<trkpt lat="39.945303" lon="-8.408193">
<ele>291.0</ele>
<desc>Speed 1.7 km/h Distance 22.77 km</desc>
<time>2011-05-22T09:04:54.72</time>
<name>5384</name>
<sym>Dot</sym>
</trkpt>
<trkpt lat="39.945307" lon="-8.408193">
<ele>291.0</ele>
<desc>Speed 1.3 km/h Distance 22.77 km</desc>
<time>2011-05-22T09:04:56.72</time>
<name>5385</name>
<sym>Dot</sym>
</trkpt>
<trkpt lat="39.945312" lon="-8.408182">
<ele>291.5</ele>
<desc>Speed 2.3 km/h Distance 22.77 km</desc>
<time>2011-05-22T09:05:28.72</time>
<name>5386</name>
<sym>Dot</sym>
</trkpt>
<trkpt lat="39.945312" lon="-8.408188">
<ele>293.0</ele>
<desc>Speed 2.4 km/h Distance 22.77 km</desc>
<time>2011-05-22T09:05:29.72</time>
<name>5387</name>
<sym>Dot</sym>
</trkpt>
<trkpt lat="39.945308" lon="-8.408202">
<ele>294.5</ele>
<desc>Speed 2.2 km/h Distance 22.77 km</desc>
<time>2011-05-22T09:05:30.72</time>
<name>5388</name>
<sym>Dot</sym>
</trkpt>
<trkpt lat="39.945307" lon="-8.408212">
<ele>295.5</ele>
<desc>Speed 2.2 km/h Distance 22.77 km</desc>
<time>2011-05-22T09:05:31.72</time>
<name>5389</name>
<sym>Dot</sym>
</trkpt>
<trkpt lat="39.945307" lon="-8.408230">
<ele>297.0</ele>
<desc>Speed 4.1 km/h Distance 22.77 km</desc>
<time>2011-05-22T09:05:32.72</time>
<name>5390</name>
<sym>Dot</sym>
</trkpt>
<trkpt lat="39.945307" lon="-8.408253">
<ele>298.5</ele>
<desc>Speed 6.1 km/h Distance 22.77 km</desc>
<time>2011-05-22T09:05:33.72</time>
<name>5391</name>
<sym>Dot</sym>
</trkpt>
<trkpt lat="39.945300" lon="-8.408282">
<ele>299.5</ele>
<desc>Speed 7.7 km/h Distance 22.78 km</desc>
<time>2011-05-22T09:05:34.72</time>
<name>5392</name>
<sym>Dot</sym>
</trkpt>
<trkpt lat="39.945295" lon="-8.408308">
<ele>300.0</ele>
<desc>Speed 8.1 km/h Distance 22.78 km</desc>
<time>2011-05-22T09:05:35.72</time>
<name>5393</name>
<sym>Dot</sym>
</trkpt>
<trkpt lat="39.945285" lon="-8.408338">
<ele>300.5</ele>
<desc>Speed 8.7 km/h Distance 22.78 km</desc>
<time>2011-05-22T09:05:36.72</time>
<name>5394</name>
<sym>Dot</sym>
</trkpt>
<trkpt lat="39.945273" lon="-8.408368">
<ele>300.5</ele>
<desc>Speed 9.6 km/h Distance 22.78 km</desc>
<time>2011-05-22T09:05:37.72</time>
<name>5395</name>
<sym>Dot</sym>
</trkpt>
<trkpt lat="39.945263" lon="-8.408400">
<ele>300.5</ele>
<desc>Speed 10.1 km/h Distance 22.79 km</desc>
<time>2011-05-22T09:05:38.72</time>
<name>5396</name>
<sym>Dot</sym>
</trkpt>
<trkpt lat="39.945250" lon="-8.408432">
<ele>300.5</ele>
<desc>Speed 10.4 km/h Distance 22.79 km</desc>
<time>2011-05-22T09:05:39.72</time>
<name>5397</name>
<sym>Dot</sym>
</trkpt>
<trkpt lat="39.945233" lon="-8.408462">
<ele>300.0</ele>
<desc>Speed 10.9 km/h Distance 22.79 km</desc>
<time>2011-05-22T09:05:40.72</time>
<name>5398</name>
<sym>Dot</sym>
</trkpt>
<trkpt lat="39.945215" lon="-8.408493">
<ele>299.5</ele>
<desc>Speed 11.1 km/h Distance 22.80 km</desc>
<time>2011-05-22T09:05:41.72</time>
<name>5399</name>
<sym>Dot</sym>
</trkpt>
<trkpt lat="39.945195" lon="-8.408522">
<ele>299.0</ele>
<desc>Speed 11.3 km/h Distance 22.80 km</desc>
<time>2011-05-22T09:05:42.72</time>
<name>5400</name>
<sym>Dot</sym>
</trkpt>
<trkpt lat="39.945178" lon="-8.408552">
<ele>298.5</ele>
<desc>Speed 11.4 km/h Distance 22.80 km</desc>
<time>2011-05-22T09:05:43.72</time>
<name>5401</name>
<sym>Dot</sym>
</trkpt>
<trkpt lat="39.945158" lon="-8.408582">
<ele>298.0</ele>
<desc>Speed 11.7 km/h Distance 22.81 km</desc>
<time>2011-05-22T09:05:44.72</time>
<name>5402</name>
<sym>Dot</sym>
</trkpt>
<trkpt lat="39.945140" lon="-8.408610">
<ele>298.0</ele>
<desc>Speed 11.3 km/h Distance 22.81 km</desc>
<time>2011-05-22T09:05:45.72</time>
<name>5403</name>
<sym>Dot</sym>
</trkpt>
<trkpt lat="39.945123" lon="-8.408638">
<ele>298.0</ele>
<desc>Speed 11.3 km/h Distance 22.81 km</desc>
<time>2011-05-22T09:05:46.72</time>
<name>5404</name>
<sym>Dot</sym>
</trkpt>
<trkpt lat="39.945107" lon="-8.408668">
<ele>298.0</ele>
<desc>Speed 11.2 km/h Distance 22.82 km</desc>
<time>2011-05-22T09:05:47.72</time>
<name>5405</name>
<sym>Dot</sym>
</trkpt>
<trkpt lat="39.945093" lon="-8.408698">
<ele>298.0</ele>
<desc>Speed 10.8 km/h Distance 22.82 km</desc>
<time>2011-05-22T09:05:48.72</time>
<name>5406</name>
<sym>Dot</sym>
</trkpt>
<trkpt lat="39.945080" lon="-8.408727">
<ele>298.0</ele>
<desc>Speed 10.4 km/h Distance 22.82 km</desc>
<time>2011-05-22T09:05:49.72</time>
<name>5407</name>
<sym>Dot</sym>
</trkpt>
<trkpt lat="39.945067" lon="-8.408755">
<ele>298.0</ele>
<desc>Speed 10.0 km/h Distance 22.82 km</desc>
<time>2011-05-22T09:05:50.72</time>
<name>5408</name>
<sym>Dot</sym>
</trkpt>
<trkpt lat="39.945052" lon="-8.408783">
<ele>297.5</ele>
<desc>Speed 10.6 km/h Distance 22.83 km</desc>
<time>2011-05-22T09:05:51.72</time>
<name>5409</name>
<sym>Dot</sym>
</trkpt>
<trkpt lat="39.945032" lon="-8.408812">
<ele>297.0</ele>
<desc>Speed 11.6 km/h Distance 22.83 km</desc>
<time>2011-05-22T09:05:52.72</time>
<name>5410</name>
<sym>Dot</sym>
</trkpt>
<trkpt lat="39.945010" lon="-8.408835">
<ele>297.5</ele>
<desc>Speed 11.7 km/h Distance 22.83 km</desc>
<time>2011-05-22T09:05:53.72</time>
<name>5411</name>
<sym>Dot</sym>
</trkpt>
<trkpt lat="39.944992" lon="-8.408867">
<ele>297.0</ele>
<desc>Speed 12.1 km/h Distance 22.84 km</desc>
<time>2011-05-22T09:05:54.72</time>
<name>5412</name>
<sym>Dot</sym>
</trkpt>
<trkpt lat="39.944972" lon="-8.408895">
<ele>297.0</ele>
<desc>Speed 12.5 km/h Distance 22.84 km</desc>
<time>2011-05-22T09:05:55.72</time>
<name>5413</name>
<sym>Dot</sym>
</trkpt>
<trkpt lat="39.944952" lon="-8.408923">
<ele>297.0</ele>
<desc>Speed 11.8 km/h Distance 22.84 km</desc>
<time>2011-05-22T09:05:56.72</time>
<name>5414</name>
<sym>Dot</sym>
</trkpt>
<trkpt lat="39.944933" lon="-8.408953">
<ele>297.0</ele>
<desc>Speed 11.6 km/h Distance 22.85 km</desc>
<time>2011-05-22T09:05:57.72</time>
<name>5415</name>
<sym>Dot</sym>
</trkpt>
<trkpt lat="39.944912" lon="-8.408978">
<ele>297.0</ele>
<desc>Speed 11.5 km/h Distance 22.85 km</desc>
<time>2011-05-22T09:05:58.72</time>
<name>5416</name>
<sym>Dot</sym>
</trkpt>
<trkpt lat="39.944890" lon="-8.408998">
<ele>297.0</ele>
<desc>Speed 11.4 km/h Distance 22.85 km</desc>
<time>2011-05-22T09:05:59.72</time>
<name>5417</name>
<sym>Dot</sym>
</trkpt>
<trkpt lat="39.944865" lon="-8.409022">
<ele>297.0</ele>
<desc>Speed 11.9 km/h Distance 22.86 km</desc>
<time>2011-05-22T09:06:00.72</time>
<name>5418</name>
<sym>Dot</sym>
</trkpt>
<trkpt lat="39.944838" lon="-8.409038">
<ele>297.0</ele>
<desc>Speed 12.1 km/h Distance 22.86 km</desc>
<time>2011-05-22T09:06:01.72</time>
<name>5419</name>
<sym>Dot</sym>
</trkpt>
<trkpt lat="39.944810" lon="-8.409055">
<ele>297.5</ele>
<desc>Speed 12.3 km/h Distance 22.86 km</desc>
<time>2011-05-22T09:06:02.72</time>
<name>5420</name>
<sym>Dot</sym>
</trkpt>
<trkpt lat="39.944782" lon="-8.409067">
<ele>298.0</ele>
<desc>Speed 12.2 km/h Distance 22.87 km</desc>
<time>2011-05-22T09:06:03.72</time>
<name>5421</name>
<sym>Dot</sym>
</trkpt>
<trkpt lat="39.944750" lon="-8.409077">
<ele>298.5</ele>
<desc>Speed 13.2 km/h Distance 22.87 km</desc>
<time>2011-05-22T09:06:04.72</time>
<name>5422</name>
<sym>Dot</sym>
</trkpt>
<trkpt lat="39.944715" lon="-8.409083">
<ele>299.0</ele>
<desc>Speed 13.9 km/h Distance 22.87 km</desc>
<time>2011-05-22T09:06:05.72</time>
<name>5423</name>
<sym>Dot</sym>
</trkpt>
<trkpt lat="39.944680" lon="-8.409088">
<ele>299.0</ele>
<desc>Speed 14.0 km/h Distance 22.88 km</desc>
<time>2011-05-22T09:06:06.72</time>
<name>5424</name>
<sym>Dot</sym>
</trkpt>
<trkpt lat="39.944648" lon="-8.409087">
<ele>300.5</ele>
<desc>Speed 12.9 km/h Distance 22.88 km</desc>
<time>2011-05-22T09:06:07.72</time>
<name>5425</name>
<sym>Dot</sym>
</trkpt>
<trkpt lat="39.944613" lon="-8.409087">
<ele>301.0</ele>
<desc>Speed 13.9 km/h Distance 22.89 km</desc>
<time>2011-05-22T09:06:08.72</time>
<name>5426</name>
<sym>Dot</sym>
</trkpt>
<trkpt lat="39.944577" lon="-8.409085">
<ele>301.5</ele>
<desc>Speed 14.5 km/h Distance 22.89 km</desc>
<time>2011-05-22T09:06:09.72</time>
<name>5427</name>
<sym>Dot</sym>
</trkpt>
<trkpt lat="39.944540" lon="-8.409085">
<ele>301.5</ele>
<desc>Speed 14.4 km/h Distance 22.89 km</desc>
<time>2011-05-22T09:06:10.72</time>
<name>5428</name>
<sym>Dot</sym>
</trkpt>
<trkpt lat="39.944505" lon="-8.409085">
<ele>302.0</ele>
<desc>Speed 14.2 km/h Distance 22.90 km</desc>
<time>2011-05-22T09:06:11.72</time>
<name>5429</name>
<sym>Dot</sym>
</trkpt>
<trkpt lat="39.944470" lon="-8.409082">
<ele>302.5</ele>
<desc>Speed 13.8 km/h Distance 22.90 km</desc>
<time>2011-05-22T09:06:12.72</time>
<name>5430</name>
<sym>Dot</sym>
</trkpt>
<trkpt lat="39.944437" lon="-8.409082">
<ele>303.0</ele>
<desc>Speed 13.7 km/h Distance 22.91 km</desc>
<time>2011-05-22T09:06:13.72</time>
<name>5431</name>
<sym>Dot</sym>
</trkpt>
<trkpt lat="39.944400" lon="-8.409082">
<ele>302.5</ele>
<desc>Speed 14.2 km/h Distance 22.91 km</desc>
<time>2011-05-22T09:06:14.72</time>
<name>5432</name>
<sym>Dot</sym>
</trkpt>
<trkpt lat="39.944365" lon="-8.409083">
<ele>302.5</ele>
<desc>Speed 14.1 km/h Distance 22.91 km</desc>
<time>2011-05-22T09:06:15.72</time>
<name>5433</name>
<sym>Dot</sym>
</trkpt>
<trkpt lat="39.944328" lon="-8.409087">
<ele>302.5</ele>
<desc>Speed 14.4 km/h Distance 22.92 km</desc>
<time>2011-05-22T09:06:16.72</time>
<name>5434</name>
<sym>Dot</sym>
</trkpt>
<trkpt lat="39.944292" lon="-8.409090">
<ele>302.5</ele>
<desc>Speed 15.1 km/h Distance 22.92 km</desc>
<time>2011-05-22T09:06:17.72</time>
<name>5435</name>
<sym>Dot</sym>
</trkpt>
<trkpt lat="39.944252" lon="-8.409098">
<ele>302.5</ele>
<desc>Speed 15.8 km/h Distance 22.93 km</desc>
<time>2011-05-22T09:06:18.72</time>
<name>5436</name>
<sym>Dot</sym>
</trkpt>
<trkpt lat="39.944213" lon="-8.409110">
<ele>302.5</ele>
<desc>Speed 15.8 km/h Distance 22.93 km</desc>
<time>2011-05-22T09:06:19.72</time>
<name>5437</name>
<sym>Dot</sym>
</trkpt>
<trkpt lat="39.944175" lon="-8.409123">
<ele>302.5</ele>
<desc>Speed 15.8 km/h Distance 22.93 km</desc>
<time>2011-05-22T09:06:20.72</time>
<name>5438</name>
<sym>Dot</sym>
</trkpt>
<trkpt lat="39.944138" lon="-8.409140">
<ele>302.5</ele>
<desc>Speed 15.8 km/h Distance 22.94 km</desc>
<time>2011-05-22T09:06:21.72</time>
<name>5439</name>
<sym>Dot</sym>
</trkpt>
<trkpt lat="39.944103" lon="-8.409162">
<ele>302.5</ele>
<desc>Speed 15.5 km/h Distance 22.94 km</desc>
<time>2011-05-22T09:06:22.72</time>
<name>5440</name>
<sym>Dot</sym>
</trkpt>
<trkpt lat="39.944073" lon="-8.409193">
<ele>302.5</ele>
<desc>Speed 15.3 km/h Distance 22.95 km</desc>
<time>2011-05-22T09:06:23.72</time>
<name>5441</name>
<sym>Dot</sym>
</trkpt>
<trkpt lat="39.944047" lon="-8.409230">
<ele>302.5</ele>
<desc>Speed 15.6 km/h Distance 22.95 km</desc>
<time>2011-05-22T09:06:24.72</time>
<name>5442</name>
<sym>Dot</sym>
</trkpt>
<trkpt lat="39.944022" lon="-8.409272">
<ele>302.0</ele>
<desc>Speed 16.4 km/h Distance 22.96 km</desc>
<time>2011-05-22T09:06:25.72</time>
<name>5443</name>
<sym>Dot</sym>
</trkpt>
<trkpt lat="39.943998" lon="-8.409318">
<ele>302.0</ele>
<desc>Speed 16.7 km/h Distance 22.96 km</desc>
<time>2011-05-22T09:06:26.72</time>
<name>5444</name>
<sym>Dot</sym>
</trkpt>
<trkpt lat="39.943977" lon="-8.409370">
<ele>301.5</ele>
<desc>Speed 17.4 km/h Distance 22.97 km</desc>
<time>2011-05-22T09:06:27.72</time>
<name>5445</name>
<sym>Dot</sym>
</trkpt>
<trkpt lat="39.943957" lon="-8.409423">
<ele>301.0</ele>
<desc>Speed 17.6 km/h Distance 22.97 km</desc>
<time>2011-05-22T09:06:28.72</time>
<name>5446</name>
<sym>Dot</sym>
</trkpt>
<trkpt lat="39.943937" lon="-8.409475">
<ele>300.5</ele>
<desc>Speed 17.4 km/h Distance 22.98 km</desc>
<time>2011-05-22T09:06:29.72</time>
<name>5447</name>
<sym>Dot</sym>
</trkpt>
<trkpt lat="39.943918" lon="-8.409528">
<ele>300.5</ele>
<desc>Speed 17.6 km/h Distance 22.98 km</desc>
<time>2011-05-22T09:06:30.72</time>
<name>5448</name>
<sym>Dot</sym>
</trkpt>
<trkpt lat="39.943902" lon="-8.409582">
<ele>300.0</ele>
<desc>Speed 17.4 km/h Distance 22.99 km</desc>
<time>2011-05-22T09:06:31.72</time>
<name>5449</name>
<sym>Dot</sym>
</trkpt>
<trkpt lat="39.943885" lon="-8.409635">
<ele>299.5</ele>
<desc>Speed 17.2 km/h Distance 22.99 km</desc>
<time>2011-05-22T09:06:32.72</time>
<name>5450</name>
<sym>Dot</sym>
</trkpt>
<trkpt lat="39.943868" lon="-8.409687">
<ele>299.0</ele>
<desc>Speed 17.0 km/h Distance 23.00 km</desc>
<time>2011-05-22T09:06:33.72</time>
<name>5451</name>
<sym>Dot</sym>
</trkpt>
<trkpt lat="39.943853" lon="-8.409738">
<ele>298.5</ele>
<desc>Speed 16.6 km/h Distance 23.00 km</desc>
<time>2011-05-22T09:06:34.72</time>
<name>5452</name>
<sym>Dot</sym>
</trkpt>
<trkpt lat="39.943837" lon="-8.409788">
<ele>298.0</ele>
<desc>Speed 16.2 km/h Distance 23.01 km</desc>
<time>2011-05-22T09:06:35.72</time>
<name>5453</name>
<sym>Dot</sym>
</trkpt>
<trkpt lat="39.943820" lon="-8.409838">
<ele>297.5</ele>
<desc>Speed 16.0 km/h Distance 23.01 km</desc>
<time>2011-05-22T09:06:36.72</time>
<name>5454</name>
<sym>Dot</sym>
</trkpt>
<trkpt lat="39.943805" lon="-8.409888">
<ele>297.0</ele>
<desc>Speed 16.1 km/h Distance 23.01 km</desc>
<time>2011-05-22T09:06:37.72</time>
<name>5455</name>
<sym>Dot</sym>
</trkpt>
<trkpt lat="39.943790" lon="-8.409940">
<ele>296.5</ele>
<desc>Speed 16.5 km/h Distance 23.02 km</desc>
<time>2011-05-22T09:06:38.72</time>
<name>5456</name>
<sym>Dot</sym>
</trkpt>
<trkpt lat="39.943773" lon="-8.409993">
<ele>296.0</ele>
<desc>Speed 17.0 km/h Distance 23.02 km</desc>
<time>2011-05-22T09:06:39.72</time>
<name>5457</name>
<sym>Dot</sym>
</trkpt>
<trkpt lat="39.943757" lon="-8.410045">
<ele>296.0</ele>
<desc>Speed 17.2 km/h Distance 23.03 km</desc>
<time>2011-05-22T09:06:40.71</time>
<name>5458</name>
<sym>Dot</sym>
</trkpt>
<trkpt lat="39.943738" lon="-8.410098">
<ele>295.5</ele>
<desc>Speed 17.6 km/h Distance 23.03 km</desc>
<time>2011-05-22T09:06:41.71</time>
<name>5459</name>
<sym>Dot</sym>
</trkpt>
<trkpt lat="39.943718" lon="-8.410152">
<ele>295.0</ele>
<desc>Speed 17.7 km/h Distance 23.04 km</desc>
<time>2011-05-22T09:06:42.71</time>
<name>5460</name>
<sym>Dot</sym>
</trkpt>
<trkpt lat="39.943698" lon="-8.410205">
<ele>295.0</ele>
<desc>Speed 18.1 km/h Distance 23.04 km</desc>
<time>2011-05-22T09:06:43.71</time>
<name>5461</name>
<sym>Dot</sym>
</trkpt>
<trkpt lat="39.943678" lon="-8.410258">
<ele>294.5</ele>
<desc>Speed 18.4 km/h Distance 23.05 km</desc>
<time>2011-05-22T09:06:44.71</time>
<name>5462</name>
<sym>Dot</sym>
</trkpt>
<trkpt lat="39.943657" lon="-8.410313">
<ele>294.5</ele>
<desc>Speed 18.5 km/h Distance 23.05 km</desc>
<time>2011-05-22T09:06:45.71</time>
<name>5463</name>
<sym>Dot</sym>
</trkpt>
<trkpt lat="39.943633" lon="-8.410367">
<ele>294.0</ele>
<desc>Speed 18.7 km/h Distance 23.06 km</desc>
<time>2011-05-22T09:06:46.71</time>
<name>5464</name>
<sym>Dot</sym>
</trkpt>
<trkpt lat="39.943608" lon="-8.410417">
<ele>294.0</ele>
<desc>Speed 18.7 km/h Distance 23.06 km</desc>
<time>2011-05-22T09:06:47.71</time>
<name>5465</name>
<sym>Dot</sym>
</trkpt>
<trkpt lat="39.943580" lon="-8.410465">
<ele>293.5</ele>
<desc>Speed 18.4 km/h Distance 23.07 km</desc>
<time>2011-05-22T09:06:48.71</time>
<name>5466</name>
<sym>Dot</sym>
</trkpt>
<trkpt lat="39.943552" lon="-8.410512">
<ele>293.5</ele>
<desc>Speed 18.3 km/h Distance 23.08 km</desc>
<time>2011-05-22T09:06:49.71</time>
<name>5467</name>
<sym>Dot</sym>
</trkpt>
<trkpt lat="39.943523" lon="-8.410558">
<ele>293.5</ele>
<desc>Speed 17.9 km/h Distance 23.08 km</desc>
<time>2011-05-22T09:06:50.71</time>
<name>5468</name>
<sym>Dot</sym>
</trkpt>
<trkpt lat="39.943493" lon="-8.410600">
<ele>293.5</ele>
<desc>Speed 17.6 km/h Distance 23.09 km</desc>
<time>2011-05-22T09:06:51.71</time>
<name>5469</name>
<sym>Dot</sym>
</trkpt>
<trkpt lat="39.943463" lon="-8.410643">
<ele>293.0</ele>
<desc>Speed 17.6 km/h Distance 23.09 km</desc>
<time>2011-05-22T09:06:52.71</time>
<name>5470</name>
<sym>Dot</sym>
</trkpt>
<trkpt lat="39.943435" lon="-8.410685">
<ele>293.0</ele>
<desc>Speed 17.3 km/h Distance 23.09 km</desc>
<time>2011-05-22T09:06:53.71</time>
<name>5471</name>
<sym>Dot</sym>
</trkpt>
<trkpt lat="39.943405" lon="-8.410725">
<ele>293.0</ele>
<desc>Speed 17.2 km/h Distance 23.10 km</desc>
<time>2011-05-22T09:06:54.71</time>
<name>5472</name>
<sym>Dot</sym>
</trkpt>
<trkpt lat="39.943375" lon="-8.410765">
<ele>293.0</ele>
<desc>Speed 17.0 km/h Distance 23.10 km</desc>
<time>2011-05-22T09:06:55.71</time>
<name>5473</name>
<sym>Dot</sym>
</trkpt>
<trkpt lat="39.943347" lon="-8.410803">
<ele>293.0</ele>
<desc>Speed 16.3 km/h Distance 23.11 km</desc>
<time>2011-05-22T09:06:56.71</time>
<name>5474</name>
<sym>Dot</sym>
</trkpt>
<trkpt lat="39.943320" lon="-8.410842">
<ele>293.0</ele>
<desc>Speed 16.2 km/h Distance 23.11 km</desc>
<time>2011-05-22T09:06:57.71</time>
<name>5475</name>
<sym>Dot</sym>
</trkpt>
<trkpt lat="39.943292" lon="-8.410878">
<ele>293.0</ele>
<desc>Speed 15.8 km/h Distance 23.12 km</desc>
<time>2011-05-22T09:06:58.71</time>
<name>5476</name>
<sym>Dot</sym>
</trkpt>
<trkpt lat="39.943263" lon="-8.410915">
<ele>293.0</ele>
<desc>Speed 15.9 km/h Distance 23.12 km</desc>
<time>2011-05-22T09:06:59.71</time>
<name>5477</name>
<sym>Dot</sym>
</trkpt>
<trkpt lat="39.943237" lon="-8.410955">
<ele>293.0</ele>
<desc>Speed 15.8 km/h Distance 23.13 km</desc>
<time>2011-05-22T09:07:00.71</time>
<name>5478</name>
<sym>Dot</sym>
</trkpt>
<trkpt lat="39.943212" lon="-8.410990">
<ele>293.5</ele>
<desc>Speed 14.7 km/h Distance 23.13 km</desc>
<time>2011-05-22T09:07:01.71</time>
<name>5479</name>
<sym>Dot</sym>
</trkpt>
<trkpt lat="39.943183" lon="-8.411025">
<ele>293.0</ele>
<desc>Speed 15.7 km/h Distance 23.14 km</desc>
<time>2011-05-22T09:07:02.71</time>
<name>5480</name>
<sym>Dot</sym>
</trkpt>
<trkpt lat="39.943152" lon="-8.411058">
<ele>293.0</ele>
<desc>Speed 16.2 km/h Distance 23.14 km</desc>
<time>2011-05-22T09:07:03.71</time>
<name>5481</name>
<sym>Dot</sym>
</trkpt>
<trkpt lat="39.943118" lon="-8.411090">
<ele>293.0</ele>
<desc>Speed 16.8 km/h Distance 23.14 km</desc>
<time>2011-05-22T09:07:04.71</time>
<name>5482</name>
<sym>Dot</sym>
</trkpt>
<trkpt lat="39.943080" lon="-8.411118">
<ele>293.0</ele>
<desc>Speed 17.1 km/h Distance 23.15 km</desc>
<time>2011-05-22T09:07:05.71</time>
<name>5483</name>
<sym>Dot</sym>
</trkpt>
<trkpt lat="39.943042" lon="-8.411147">
<ele>293.0</ele>
<desc>Speed 17.4 km/h Distance 23.15 km</desc>
<time>2011-05-22T09:07:06.71</time>
<name>5484</name>
<sym>Dot</sym>
</trkpt>
<trkpt lat="39.943003" lon="-8.411173">
<ele>292.5</ele>
<desc>Speed 17.9 km/h Distance 23.16 km</desc>
<time>2011-05-22T09:07:07.71</time>
<name>5485</name>
<sym>Dot</sym>
</trkpt>
<trkpt lat="39.942962" lon="-8.411202">
<ele>292.5</ele>
<desc>Speed 18.3 km/h Distance 23.16 km</desc>
<time>2011-05-22T09:07:08.71</time>
<name>5486</name>
<sym>Dot</sym>
</trkpt>
<trkpt lat="39.942922" lon="-8.411232">
<ele>292.0</ele>
<desc>Speed 18.6 km/h Distance 23.17 km</desc>
<time>2011-05-22T09:07:09.71</time>
<name>5487</name>
<sym>Dot</sym>
</trkpt>
<trkpt lat="39.942880" lon="-8.411262">
<ele>292.0</ele>
<desc>Speed 18.8 km/h Distance 23.17 km</desc>
<time>2011-05-22T09:07:10.70</time>
<name>5488</name>
<sym>Dot</sym>
</trkpt>
<trkpt lat="39.942840" lon="-8.411292">
<ele>291.5</ele>
<desc>Speed 18.5 km/h Distance 23.18 km</desc>
<time>2011-05-22T09:07:11.70</time>
<name>5489</name>
<sym>Dot</sym>
</trkpt>
<trkpt lat="39.942798" lon="-8.411320">
<ele>291.0</ele>
<desc>Speed 18.6 km/h Distance 23.19 km</desc>
<time>2011-05-22T09:07:12.70</time>
<name>5490</name>
<sym>Dot</sym>
</trkpt>
<trkpt lat="39.942755" lon="-8.411348">
<ele>290.5</ele>
<desc>Speed 19.1 km/h Distance 23.19 km</desc>
<time>2011-05-22T09:07:13.70</time>
<name>5491</name>
<sym>Dot</sym>
</trkpt>
<trkpt lat="39.942710" lon="-8.411372">
<ele>290.5</ele>
<desc>Speed 19.2 km/h Distance 23.20 km</desc>
<time>2011-05-22T09:07:14.70</time>
<name>5492</name>
<sym>Dot</sym>
</trkpt>
<trkpt lat="39.942663" lon="-8.411387">
<ele>290.5</ele>
<desc>Speed 19.3 km/h Distance 23.20 km</desc>
<time>2011-05-22T09:07:15.70</time>
<name>5493</name>
<sym>Dot</sym>
</trkpt>
<trkpt lat="39.942615" lon="-8.411397">
<ele>291.0</ele>
<desc>Speed 19.6 km/h Distance 23.21 km</desc>
<time>2011-05-22T09:07:16.70</time>
<name>5494</name>
<sym>Dot</sym>
</trkpt>
<trkpt lat="39.942565" lon="-8.411397">
<ele>291.0</ele>
<desc>Speed 19.8 km/h Distance 23.21 km</desc>
<time>2011-05-22T09:07:17.70</time>
<name>5495</name>
<sym>Dot</sym>
</trkpt>
<trkpt lat="39.942517" lon="-8.411393">
<ele>291.5</ele>
<desc>Speed 19.8 km/h Distance 23.22 km</desc>
<time>2011-05-22T09:07:18.70</time>
<name>5496</name>
<sym>Dot</sym>
</trkpt>
<trkpt lat="39.942465" lon="-8.411385">
<ele>291.5</ele>
<desc>Speed 20.5 km/h Distance 23.22 km</desc>
<time>2011-05-22T09:07:19.70</time>
<name>5497</name>
<sym>Dot</sym>
</trkpt>
<trkpt lat="39.942413" lon="-8.411375">
<ele>291.5</ele>
<desc>Speed 21.0 km/h Distance 23.23 km</desc>
<time>2011-05-22T09:07:20.70</time>
<name>5498</name>
<sym>Dot</sym>
</trkpt>
<trkpt lat="39.942360" lon="-8.411368">
<ele>291.5</ele>
<desc>Speed 21.5 km/h Distance 23.24 km</desc>
<time>2011-05-22T09:07:21.70</time>
<name>5499</name>
<sym>Dot</sym>
</trkpt>
<trkpt lat="39.942305" lon="-8.411370">
<ele>291.0</ele>
<desc>Speed 21.9 km/h Distance 23.24 km</desc>
<time>2011-05-22T09:07:22.70</time>
<name>5500</name>
<sym>Dot</sym>
</trkpt>
<trkpt lat="39.942250" lon="-8.411382">
<ele>291.0</ele>
<desc>Speed 22.1 km/h Distance 23.25 km</desc>
<time>2011-05-22T09:07:23.70</time>
<name>5501</name>
<sym>Dot</sym>
</trkpt>
<trkpt lat="39.942197" lon="-8.411398">
<ele>291.0</ele>
<desc>Speed 21.9 km/h Distance 23.25 km</desc>
<time>2011-05-22T09:07:24.70</time>
<name>5502</name>
<sym>Dot</sym>
</trkpt>
<trkpt lat="39.942143" lon="-8.411415">
<ele>291.0</ele>
<desc>Speed 22.1 km/h Distance 23.26 km</desc>
<time>2011-05-22T09:07:25.70</time>
<name>5503</name>
<sym>Dot</sym>
</trkpt>
<trkpt lat="39.942090" lon="-8.411432">
<ele>291.0</ele>
<desc>Speed 22.2 km/h Distance 23.27 km</desc>
<time>2011-05-22T09:07:26.69</time>
<name>5504</name>
<sym>Dot</sym>
</trkpt>
<trkpt lat="39.942037" lon="-8.411448">
<ele>291.0</ele>
<desc>Speed 22.2 km/h Distance 23.27 km</desc>
<time>2011-05-22T09:07:27.69</time>
<name>5505</name>
<sym>Dot</sym>
</trkpt>
<trkpt lat="39.941982" lon="-8.411468">
<ele>291.0</ele>
<desc>Speed 22.5 km/h Distance 23.28 km</desc>
<time>2011-05-22T09:07:28.69</time>
<name>5506</name>
<sym>Dot</sym>
</trkpt>
<trkpt lat="39.941928" lon="-8.411493">
<ele>291.0</ele>
<desc>Speed 23.0 km/h Distance 23.28 km</desc>
<time>2011-05-22T09:07:29.69</time>
<name>5507</name>
<sym>Dot</sym>
</trkpt>
<trkpt lat="39.941877" lon="-8.411527">
<ele>291.0</ele>
<desc>Speed 23.3 km/h Distance 23.29 km</desc>
<time>2011-05-22T09:07:30.69</time>
<name>5508</name>
<sym>Dot</sym>
</trkpt>
<trkpt lat="39.941827" lon="-8.411568">
<ele>291.0</ele>
<desc>Speed 23.7 km/h Distance 23.30 km</desc>
<time>2011-05-22T09:07:31.69</time>
<name>5509</name>
<sym>Dot</sym>
</trkpt>
<trkpt lat="39.941782" lon="-8.411618">
<ele>291.5</ele>
<desc>Speed 23.7 km/h Distance 23.30 km</desc>
<time>2011-05-22T09:07:32.69</time>
<name>5510</name>
<sym>Dot</sym>
</trkpt>
<trkpt lat="39.941740" lon="-8.411675">
<ele>291.5</ele>
<desc>Speed 24.4 km/h Distance 23.31 km</desc>
<time>2011-05-22T09:07:33.69</time>
<name>5511</name>
<sym>Dot</sym>
</trkpt>
<trkpt lat="39.941700" lon="-8.411737">
<ele>291.5</ele>
<desc>Speed 24.8 km/h Distance 23.32 km</desc>
<time>2011-05-22T09:07:34.69</time>
<name>5512</name>
<sym>Dot</sym>
</trkpt>
<trkpt lat="39.941660" lon="-8.411798">
<ele>291.5</ele>
<desc>Speed 25.1 km/h Distance 23.32 km</desc>
<time>2011-05-22T09:07:35.69</time>
<name>5513</name>
<sym>Dot</sym>
</trkpt>
<trkpt lat="39.941620" lon="-8.411862">
<ele>291.5</ele>
<desc>Speed 25.1 km/h Distance 23.33 km</desc>
<time>2011-05-22T09:07:36.69</time>
<name>5514</name>
<sym>Dot</sym>
</trkpt>
<trkpt lat="39.941582" lon="-8.411925">
<ele>291.5</ele>
<desc>Speed 24.8 km/h Distance 23.34 km</desc>
<time>2011-05-22T09:07:37.69</time>
<name>5515</name>
<sym>Dot</sym>
</trkpt>
<trkpt lat="39.941543" lon="-8.411988">
<ele>291.5</ele>
<desc>Speed 25.1 km/h Distance 23.35 km</desc>
<time>2011-05-22T09:07:38.69</time>
<name>5516</name>
<sym>Dot</sym>
</trkpt>
<trkpt lat="39.941507" lon="-8.412052">
<ele>292.5</ele>
<desc>Speed 24.4 km/h Distance 23.35 km</desc>
<time>2011-05-22T09:07:39.69</time>
<name>5517</name>
<sym>Dot</sym>
</trkpt>
<trkpt lat="39.941468" lon="-8.412117">
<ele>292.0</ele>
<desc>Speed 24.9 km/h Distance 23.36 km</desc>
<time>2011-05-22T09:07:40.69</time>
<name>5518</name>
<sym>Dot</sym>
</trkpt>
<trkpt lat="39.941430" lon="-8.412183">
<ele>291.5</ele>
<desc>Speed 25.5 km/h Distance 23.37 km</desc>
<time>2011-05-22T09:07:41.69</time>
<name>5519</name>
<sym>Dot</sym>
</trkpt>
<trkpt lat="39.941390" lon="-8.412247">
<ele>291.0</ele>
<desc>Speed 25.4 km/h Distance 23.37 km</desc>
<time>2011-05-22T09:07:42.69</time>
<name>5520</name>
<sym>Dot</sym>
</trkpt>
<trkpt lat="39.941350" lon="-8.412310">
<ele>290.5</ele>
<desc>Speed 25.1 km/h Distance 23.38 km</desc>
<time>2011-05-22T09:07:43.69</time>
<name>5521</name>
<sym>Dot</sym>
</trkpt>
<trkpt lat="39.941313" lon="-8.412372">
<ele>290.5</ele>
<desc>Speed 24.2 km/h Distance 23.39 km</desc>
<time>2011-05-22T09:07:44.69</time>
<name>5522</name>
<sym>Dot</sym>
</trkpt>
<trkpt lat="39.941277" lon="-8.412433">
<ele>290.5</ele>
<desc>Speed 23.9 km/h Distance 23.39 km</desc>
<time>2011-05-22T09:07:45.69</time>
<name>5523</name>
<sym>Dot</sym>
</trkpt>
<trkpt lat="39.941240" lon="-8.412493">
<ele>290.5</ele>
<desc>Speed 23.5 km/h Distance 23.40 km</desc>
<time>2011-05-22T09:07:46.69</time>
<name>5524</name>
<sym>Dot</sym>
</trkpt>
<trkpt lat="39.941205" lon="-8.412553">
<ele>290.5</ele>
<desc>Speed 23.3 km/h Distance 23.41 km</desc>
<time>2011-05-22T09:07:47.69</time>
<name>5525</name>
<sym>Dot</sym>
</trkpt>
<trkpt lat="39.941168" lon="-8.412610">
<ele>290.5</ele>
<desc>Speed 23.0 km/h Distance 23.41 km</desc>
<time>2011-05-22T09:07:48.69</time>
<name>5526</name>
<sym>Dot</sym>
</trkpt>
<trkpt lat="39.941133" lon="-8.412668">
<ele>290.0</ele>
<desc>Speed 22.8 km/h Distance 23.42 km</desc>
<time>2011-05-22T09:07:49.69</time>
<name>5527</name>
<sym>Dot</sym>
</trkpt>
<trkpt lat="39.941100" lon="-8.412725">
<ele>290.0</ele>
<desc>Speed 22.4 km/h Distance 23.43 km</desc>
<time>2011-05-22T09:07:50.69</time>
<name>5528</name>
<sym>Dot</sym>
</trkpt>
<trkpt lat="39.941067" lon="-8.412782">
<ele>290.0</ele>
<desc>Speed 22.1 km/h Distance 23.43 km</desc>
<time>2011-05-22T09:07:51.69</time>
<name>5529</name>
<sym>Dot</sym>
</trkpt>
<trkpt lat="39.941033" lon="-8.412838">
<ele>290.0</ele>
<desc>Speed 21.8 km/h Distance 23.44 km</desc>
<time>2011-05-22T09:07:52.69</time>
<name>5530</name>
<sym>Dot</sym>
</trkpt>
<trkpt lat="39.941000" lon="-8.412892">
<ele>290.0</ele>
<desc>Speed 21.3 km/h Distance 23.44 km</desc>
<time>2011-05-22T09:07:53.69</time>
<name>5531</name>
<sym>Dot</sym>
</trkpt>
<trkpt lat="39.940967" lon="-8.412945">
<ele>290.0</ele>
<desc>Speed 21.2 km/h Distance 23.45 km</desc>
<time>2011-05-22T09:07:54.69</time>
<name>5532</name>
<sym>Dot</sym>
</trkpt>
<trkpt lat="39.940933" lon="-8.412998">
<ele>289.5</ele>
<desc>Speed 21.3 km/h Distance 23.46 km</desc>
<time>2011-05-22T09:07:55.69</time>
<name>5533</name>
<sym>Dot</sym>
</trkpt>
<trkpt lat="39.940900" lon="-8.413053">
<ele>289.5</ele>
<desc>Speed 21.2 km/h Distance 23.46 km</desc>
<time>2011-05-22T09:07:56.69</time>
<name>5534</name>
<sym>Dot</sym>
</trkpt>
<trkpt lat="39.940867" lon="-8.413107">
<ele>289.0</ele>
<desc>Speed 21.2 km/h Distance 23.47 km</desc>
<time>2011-05-22T09:07:57.69</time>
<name>5535</name>
<sym>Dot</sym>
</trkpt>
<trkpt lat="39.940830" lon="-8.413160">
<ele>289.0</ele>
<desc>Speed 21.4 km/h Distance 23.47 km</desc>
<time>2011-05-22T09:07:58.69</time>
<name>5536</name>
<sym>Dot</sym>
</trkpt>
<trkpt lat="39.940795" lon="-8.413213">
<ele>289.0</ele>
<desc>Speed 21.5 km/h Distance 23.48 km</desc>
<time>2011-05-22T09:07:59.69</time>
<name>5537</name>
<sym>Dot</sym>
</trkpt>
<trkpt lat="39.940760" lon="-8.413263">
<ele>288.5</ele>
<desc>Speed 21.0 km/h Distance 23.48 km</desc>
<time>2011-05-22T09:08:00.69</time>
<name>5538</name>
<sym>Dot</sym>
</trkpt>
<trkpt lat="39.940722" lon="-8.413312">
<ele>288.5</ele>
<desc>Speed 21.0 km/h Distance 23.49 km</desc>
<time>2011-05-22T09:08:01.69</time>
<name>5539</name>
<sym>Dot</sym>
</trkpt>
<trkpt lat="39.940682" lon="-8.413355">
<ele>288.5</ele>
<desc>Speed 20.6 km/h Distance 23.50 km</desc>
<time>2011-05-22T09:08:02.69</time>
<name>5540</name>
<sym>Dot</sym>
</trkpt>
<trkpt lat="39.940642" lon="-8.413393">
<ele>288.5</ele>
<desc>Speed 20.4 km/h Distance 23.50 km</desc>
<time>2011-05-22T09:08:03.69</time>
<name>5541</name>
<sym>Dot</sym>
</trkpt>
<trkpt lat="39.940598" lon="-8.413428">
<ele>288.5</ele>
<desc>Speed 20.6 km/h Distance 23.51 km</desc>
<time>2011-05-22T09:08:04.69</time>
<name>5542</name>
<sym>Dot</sym>
</trkpt>
<trkpt lat="39.940550" lon="-8.413463">
<ele>287.5</ele>
<desc>Speed 22.0 km/h Distance 23.51 km</desc>
<time>2011-05-22T09:08:05.69</time>
<name>5543</name>
<sym>Dot</sym>
</trkpt>
<trkpt lat="39.940502" lon="-8.413487">
<ele>287.5</ele>
<desc>Speed 20.4 km/h Distance 23.52 km</desc>
<time>2011-05-22T09:08:06.69</time>
<name>5544</name>
<sym>Dot</sym>
</trkpt>
<trkpt lat="39.940452" lon="-8.413505">
<ele>287.5</ele>
<desc>Speed 21.1 km/h Distance 23.53 km</desc>
<time>2011-05-22T09:08:07.69</time>
<name>5545</name>
<sym>Dot</sym>
</trkpt>
<trkpt lat="39.940400" lon="-8.413520">
<ele>288.0</ele>
<desc>Speed 21.3 km/h Distance 23.53 km</desc>
<time>2011-05-22T09:08:08.69</time>
<name>5546</name>
<sym>Dot</sym>
</trkpt>
<trkpt lat="39.940348" lon="-8.413533">
<ele>288.0</ele>
<desc>Speed 21.5 km/h Distance 23.54 km</desc>
<time>2011-05-22T09:08:09.69</time>
<name>5547</name>
<sym>Dot</sym>
</trkpt>
<trkpt lat="39.940297" lon="-8.413545">
<ele>288.5</ele>
<desc>Speed 21.0 km/h Distance 23.54 km</desc>
<time>2011-05-22T09:08:10.69</time>
<name>5548</name>
<sym>Dot</sym>
</trkpt>
<trkpt lat="39.940245" lon="-8.413553">
<ele>288.5</ele>
<desc>Speed 20.7 km/h Distance 23.55 km</desc>
<time>2011-05-22T09:08:11.69</time>
<name>5549</name>
<sym>Dot</sym>
</trkpt>
<trkpt lat="39.940195" lon="-8.413560">
<ele>289.0</ele>
<desc>Speed 20.3 km/h Distance 23.55 km</desc>
<time>2011-05-22T09:08:12.69</time>
<name>5550</name>
<sym>Dot</sym>
</trkpt>
<trkpt lat="39.940143" lon="-8.413572">
<ele>289.0</ele>
<desc>Speed 20.8 km/h Distance 23.56 km</desc>
<time>2011-05-22T09:08:13.69</time>
<name>5551</name>
<sym>Dot</sym>
</trkpt>
<trkpt lat="39.940092" lon="-8.413580">
<ele>289.0</ele>
<desc>Speed 20.9 km/h Distance 23.57 km</desc>
<time>2011-05-22T09:08:14.69</time>
<name>5552</name>
<sym>Dot</sym>
</trkpt>
<trkpt lat="39.940042" lon="-8.413592">
<ele>289.0</ele>
<desc>Speed 20.4 km/h Distance 23.57 km</desc>
<time>2011-05-22T09:08:15.69</time>
<name>5553</name>
<sym>Dot</sym>
</trkpt>
<trkpt lat="39.939992" lon="-8.413605">
<ele>289.0</ele>
<desc>Speed 20.2 km/h Distance 23.58 km</desc>
<time>2011-05-22T09:08:16.69</time>
<name>5554</name>
<sym>Dot</sym>
</trkpt>
<trkpt lat="39.939945" lon="-8.413620">
<ele>289.0</ele>
<desc>Speed 19.8 km/h Distance 23.58 km</desc>
<time>2011-05-22T09:08:17.69</time>
<name>5555</name>
<sym>Dot</sym>
</trkpt>
<trkpt lat="39.939897" lon="-8.413640">
<ele>289.0</ele>
<desc>Speed 20.0 km/h Distance 23.59 km</desc>
<time>2011-05-22T09:08:18.69</time>
<name>5556</name>
<sym>Dot</sym>
</trkpt>
<trkpt lat="39.939850" lon="-8.413662">
<ele>289.0</ele>
<desc>Speed 20.1 km/h Distance 23.59 km</desc>
<time>2011-05-22T09:08:19.69</time>
<name>5557</name>
<sym>Dot</sym>
</trkpt>
<trkpt lat="39.939803" lon="-8.413688">
<ele>289.5</ele>
<desc>Speed 20.1 km/h Distance 23.60 km</desc>
<time>2011-05-22T09:08:20.69</time>
<name>5558</name>
<sym>Dot</sym>
</trkpt>
<trkpt lat="39.939760" lon="-8.413715">
<ele>289.5</ele>
<desc>Speed 19.5 km/h Distance 23.60 km</desc>
<time>2011-05-22T09:08:21.69</time>
<name>5559</name>
<sym>Dot</sym>
</trkpt>
<trkpt lat="39.939717" lon="-8.413742">
<ele>289.5</ele>
<desc>Speed 19.6 km/h Distance 23.61 km</desc>
<time>2011-05-22T09:08:22.69</time>
<name>5560</name>
<sym>Dot</sym>
</trkpt>
<trkpt lat="39.939673" lon="-8.413773">
<ele>289.0</ele>
<desc>Speed 19.4 km/h Distance 23.62 km</desc>
<time>2011-05-22T09:08:23.69</time>
<name>5561</name>
<sym>Dot</sym>
</trkpt>
<trkpt lat="39.939633" lon="-8.413805">
<ele>289.0</ele>
<desc>Speed 19.2 km/h Distance 23.62 km</desc>
<time>2011-05-22T09:08:24.69</time>
<name>5562</name>
<sym>Dot</sym>
</trkpt>
<trkpt lat="39.939592" lon="-8.413837">
<ele>289.0</ele>
<desc>Speed 19.2 km/h Distance 23.63 km</desc>
<time>2011-05-22T09:08:25.69</time>
<name>5563</name>
<sym>Dot</sym>
</trkpt>
<trkpt lat="39.939550" lon="-8.413870">
<ele>289.0</ele>
<desc>Speed 19.6 km/h Distance 23.63 km</desc>
<time>2011-05-22T09:08:26.69</time>
<name>5564</name>
<sym>Dot</sym>
</trkpt>
<trkpt lat="39.939510" lon="-8.413905">
<ele>289.0</ele>
<desc>Speed 19.9 km/h Distance 23.64 km</desc>
<time>2011-05-22T09:08:27.69</time>
<name>5565</name>
<sym>Dot</sym>
</trkpt>
<trkpt lat="39.939467" lon="-8.413942">
<ele>288.5</ele>
<desc>Speed 20.6 km/h Distance 23.64 km</desc>
<time>2011-05-22T09:08:28.69</time>
<name>5566</name>
<sym>Dot</sym>
</trkpt>
<trkpt lat="39.939422" lon="-8.413978">
<ele>288.5</ele>
<desc>Speed 21.0 km/h Distance 23.65 km</desc>
<time>2011-05-22T09:08:29.69</time>
<name>5567</name>
<sym>Dot</sym>
</trkpt>
<trkpt lat="39.939375" lon="-8.414017">
<ele>288.0</ele>
<desc>Speed 21.7 km/h Distance 23.66 km</desc>
<time>2011-05-22T09:08:30.69</time>
<name>5568</name>
<sym>Dot</sym>
</trkpt>
<trkpt lat="39.939330" lon="-8.414060">
<ele>288.0</ele>
<desc>Speed 22.3 km/h Distance 23.66 km</desc>
<time>2011-05-22T09:08:31.69</time>
<name>5569</name>
<sym>Dot</sym>
</trkpt>
<trkpt lat="39.939283" lon="-8.414102">
<ele>288.0</ele>
<desc>Speed 23.0 km/h Distance 23.67 km</desc>
<time>2011-05-22T09:08:32.69</time>
<name>5570</name>
<sym>Dot</sym>
</trkpt>
<trkpt lat="39.939235" lon="-8.414147">
<ele>288.0</ele>
<desc>Speed 24.0 km/h Distance 23.67 km</desc>
<time>2011-05-22T09:08:33.69</time>
<name>5571</name>
<sym>Dot</sym>
</trkpt>
<trkpt lat="39.939187" lon="-8.414195">
<ele>287.5</ele>
<desc>Speed 24.4 km/h Distance 23.68 km</desc>
<time>2011-05-22T09:08:34.69</time>
<name>5572</name>
<sym>Dot</sym>
</trkpt>
<trkpt lat="39.939137" lon="-8.414243">
<ele>288.0</ele>
<desc>Speed 24.6 km/h Distance 23.69 km</desc>
<time>2011-05-22T09:08:35.69</time>
<name>5573</name>
<sym>Dot</sym>
</trkpt>
<trkpt lat="39.939087" lon="-8.414290">
<ele>287.5</ele>
<desc>Speed 24.6 km/h Distance 23.69 km</desc>
<time>2011-05-22T09:08:36.69</time>
<name>5574</name>
<sym>Dot</sym>
</trkpt>
<trkpt lat="39.939038" lon="-8.414340">
<ele>287.5</ele>
<desc>Speed 24.9 km/h Distance 23.70 km</desc>
<time>2011-05-22T09:08:37.69</time>
<name>5575</name>
<sym>Dot</sym>
</trkpt>
<trkpt lat="39.938990" lon="-8.414392">
<ele>287.0</ele>
<desc>Speed 25.1 km/h Distance 23.71 km</desc>
<time>2011-05-22T09:08:38.69</time>
<name>5576</name>
<sym>Dot</sym>
</trkpt>
<trkpt lat="39.938940" lon="-8.414442">
<ele>287.0</ele>
<desc>Speed 25.1 km/h Distance 23.72 km</desc>
<time>2011-05-22T09:08:39.69</time>
<name>5577</name>
<sym>Dot</sym>
</trkpt>
<trkpt lat="39.938890" lon="-8.414488">
<ele>286.5</ele>
<desc>Speed 24.7 km/h Distance 23.72 km</desc>
<time>2011-05-22T09:08:40.69</time>
<name>5578</name>
<sym>Dot</sym>
</trkpt>
<trkpt lat="39.938838" lon="-8.414532">
<ele>286.5</ele>
<desc>Speed 24.8 km/h Distance 23.73 km</desc>
<time>2011-05-22T09:08:41.69</time>
<name>5579</name>
<sym>Dot</sym>
</trkpt>
<trkpt lat="39.938785" lon="-8.414575">
<ele>286.5</ele>
<desc>Speed 25.3 km/h Distance 23.74 km</desc>
<time>2011-05-22T09:08:42.69</time>
<name>5580</name>
<sym>Dot</sym>
</trkpt>
<trkpt lat="39.938730" lon="-8.414617">
<ele>286.5</ele>
<desc>Speed 25.2 km/h Distance 23.74 km</desc>
<time>2011-05-22T09:08:43.69</time>
<name>5581</name>
<sym>Dot</sym>
</trkpt>
<trkpt lat="39.938675" lon="-8.414655">
<ele>286.5</ele>
<desc>Speed 25.6 km/h Distance 23.75 km</desc>
<time>2011-05-22T09:08:44.69</time>
<name>5582</name>
<sym>Dot</sym>
</trkpt>
<trkpt lat="39.938620" lon="-8.414698">
<ele>286.5</ele>
<desc>Speed 25.8 km/h Distance 23.76 km</desc>
<time>2011-05-22T09:08:45.69</time>
<name>5583</name>
<sym>Dot</sym>
</trkpt>
<trkpt lat="39.938565" lon="-8.414745">
<ele>286.5</ele>
<desc>Speed 26.0 km/h Distance 23.76 km</desc>
<time>2011-05-22T09:08:46.69</time>
<name>5584</name>
<sym>Dot</sym>
</trkpt>
<trkpt lat="39.938510" lon="-8.414792">
<ele>286.0</ele>
<desc>Speed 26.3 km/h Distance 23.77 km</desc>
<time>2011-05-22T09:08:47.69</time>
<name>5585</name>
<sym>Dot</sym>
</trkpt>
<trkpt lat="39.938453" lon="-8.414838">
<ele>286.0</ele>
<desc>Speed 26.7 km/h Distance 23.78 km</desc>
<time>2011-05-22T09:08:48.69</time>
<name>5586</name>
<sym>Dot</sym>
</trkpt>
<trkpt lat="39.938397" lon="-8.414887">
<ele>285.5</ele>
<desc>Speed 27.0 km/h Distance 23.79 km</desc>
<time>2011-05-22T09:08:49.69</time>
<name>5587</name>
<sym>Dot</sym>
</trkpt>
<trkpt lat="39.938342" lon="-8.414938">
<ele>285.5</ele>
<desc>Speed 27.4 km/h Distance 23.79 km</desc>
<time>2011-05-22T09:08:50.69</time>
<name>5588</name>
<sym>Dot</sym>
</trkpt>
<trkpt lat="39.938285" lon="-8.414990">
<ele>285.0</ele>
<desc>Speed 27.7 km/h Distance 23.80 km</desc>
<time>2011-05-22T09:08:51.69</time>
<name>5589</name>
<sym>Dot</sym>
</trkpt>
<trkpt lat="39.938228" lon="-8.415043">
<ele>285.0</ele>
<desc>Speed 28.2 km/h Distance 23.81 km</desc>
<time>2011-05-22T09:08:52.69</time>
<name>5590</name>
<sym>Dot</sym>
</trkpt>
<trkpt lat="39.938172" lon="-8.415098">
<ele>285.0</ele>
<desc>Speed 28.4 km/h Distance 23.82 km</desc>
<time>2011-05-22T09:08:53.69</time>
<name>5591</name>
<sym>Dot</sym>
</trkpt>
<trkpt lat="39.938115" lon="-8.415157">
<ele>284.5</ele>
<desc>Speed 28.7 km/h Distance 23.83 km</desc>
<time>2011-05-22T09:08:54.69</time>
<name>5592</name>
<sym>Dot</sym>
</trkpt>
<trkpt lat="39.938063" lon="-8.415220">
<ele>284.5</ele>
<desc>Speed 28.8 km/h Distance 23.83 km</desc>
<time>2011-05-22T09:08:55.69</time>
<name>5593</name>
<sym>Dot</sym>
</trkpt>
<trkpt lat="39.938013" lon="-8.415288">
<ele>284.5</ele>
<desc>Speed 28.9 km/h Distance 23.84 km</desc>
<time>2011-05-22T09:08:56.69</time>
<name>5594</name>
<sym>Dot</sym>
</trkpt>
<trkpt lat="39.937965" lon="-8.415358">
<ele>284.5</ele>
<desc>Speed 28.9 km/h Distance 23.85 km</desc>
<time>2011-05-22T09:08:57.69</time>
<name>5595</name>
<sym>Dot</sym>
</trkpt>
<trkpt lat="39.937917" lon="-8.415428">
<ele>284.5</ele>
<desc>Speed 28.9 km/h Distance 23.86 km</desc>
<time>2011-05-22T09:08:58.69</time>
<name>5596</name>
<sym>Dot</sym>
</trkpt>
<trkpt lat="39.937870" lon="-8.415500">
<ele>284.0</ele>
<desc>Speed 28.9 km/h Distance 23.87 km</desc>
<time>2011-05-22T09:08:59.69</time>
<name>5597</name>
<sym>Dot</sym>
</trkpt>
<trkpt lat="39.937822" lon="-8.415572">
<ele>284.0</ele>
<desc>Speed 29.0 km/h Distance 23.87 km</desc>
<time>2011-05-22T09:09:00.69</time>
<name>5598</name>
<sym>Dot</sym>
</trkpt>
<trkpt lat="39.937775" lon="-8.415642">
<ele>284.0</ele>
<desc>Speed 28.6 km/h Distance 23.88 km</desc>
<time>2011-05-22T09:09:01.69</time>
<name>5599</name>
<sym>Dot</sym>
</trkpt>
<trkpt lat="39.937732" lon="-8.415713">
<ele>283.5</ele>
<desc>Speed 28.0 km/h Distance 23.89 km</desc>
<time>2011-05-22T09:09:02.69</time>
<name>5600</name>
<sym>Dot</sym>
</trkpt>
<trkpt lat="39.937688" lon="-8.415785">
<ele>283.5</ele>
<desc>Speed 28.2 km/h Distance 23.90 km</desc>
<time>2011-05-22T09:09:03.69</time>
<name>5601</name>
<sym>Dot</sym>
</trkpt>
<trkpt lat="39.937642" lon="-8.415855">
<ele>283.0</ele>
<desc>Speed 28.0 km/h Distance 23.91 km</desc>
<time>2011-05-22T09:09:04.69</time>
<name>5602</name>
<sym>Dot</sym>
</trkpt>
<trkpt lat="39.937598" lon="-8.415923">
<ele>283.0</ele>
<desc>Speed 27.6 km/h Distance 23.91 km</desc>
<time>2011-05-22T09:09:05.69</time>
<name>5603</name>
<sym>Dot</sym>
</trkpt>
<trkpt lat="39.937555" lon="-8.415993">
<ele>283.0</ele>
<desc>Speed 27.5 km/h Distance 23.92 km</desc>
<time>2011-05-22T09:09:06.69</time>
<name>5604</name>
<sym>Dot</sym>
</trkpt>
<trkpt lat="39.937512" lon="-8.416063">
<ele>282.5</ele>
<desc>Speed 27.3 km/h Distance 23.93 km</desc>
<time>2011-05-22T09:09:07.69</time>
<name>5605</name>
<sym>Dot</sym>
</trkpt>
<trkpt lat="39.937468" lon="-8.416132">
<ele>282.5</ele>
<desc>Speed 27.2 km/h Distance 23.94 km</desc>
<time>2011-05-22T09:09:08.69</time>
<name>5606</name>
<sym>Dot</sym>
</trkpt>
<trkpt lat="39.937427" lon="-8.416202">
<ele>282.0</ele>
<desc>Speed 26.6 km/h Distance 23.94 km</desc>
<time>2011-05-22T09:09:09.69</time>
<name>5607</name>
<sym>Dot</sym>
</trkpt>
<trkpt lat="39.937392" lon="-8.416273">
<ele>282.0</ele>
<desc>Speed 26.3 km/h Distance 23.95 km</desc>
<time>2011-05-22T09:09:10.69</time>
<name>5608</name>
<sym>Dot</sym>
</trkpt>
<trkpt lat="39.937355" lon="-8.416347">
<ele>281.5</ele>
<desc>Speed 26.3 km/h Distance 23.96 km</desc>
<time>2011-05-22T09:09:11.69</time>
<name>5609</name>
<sym>Dot</sym>
</trkpt>
<trkpt lat="39.937322" lon="-8.416422">
<ele>281.0</ele>
<desc>Speed 26.6 km/h Distance 23.97 km</desc>
<time>2011-05-22T09:09:12.69</time>
<name>5610</name>
<sym>Dot</sym>
</trkpt>
<trkpt lat="39.937290" lon="-8.416498">
<ele>281.0</ele>
<desc>Speed 26.7 km/h Distance 23.97 km</desc>
<time>2011-05-22T09:09:13.69</time>
<name>5611</name>
<sym>Dot</sym>
</trkpt>
<trkpt lat="39.937258" lon="-8.416575">
<ele>281.0</ele>
<desc>Speed 26.7 km/h Distance 23.98 km</desc>
<time>2011-05-22T09:09:14.69</time>
<name>5612</name>
<sym>Dot</sym>
</trkpt>
<trkpt lat="39.937228" lon="-8.416653">
<ele>281.0</ele>
<desc>Speed 26.5 km/h Distance 23.99 km</desc>
<time>2011-05-22T09:09:15.69</time>
<name>5613</name>
<sym>Dot</sym>
</trkpt>
<trkpt lat="39.937198" lon="-8.416730">
<ele>280.5</ele>
<desc>Speed 26.4 km/h Distance 24.00 km</desc>
<time>2011-05-22T09:09:16.69</time>
<name>5614</name>
<sym>Dot</sym>
</trkpt>
<trkpt lat="39.937168" lon="-8.416805">
<ele>280.5</ele>
<desc>Speed 26.1 km/h Distance 24.00 km</desc>
<time>2011-05-22T09:09:17.69</time>
<name>5615</name>
<sym>Dot</sym>
</trkpt>
<trkpt lat="39.937137" lon="-8.416880">
<ele>280.5</ele>
<desc>Speed 26.0 km/h Distance 24.01 km</desc>
<time>2011-05-22T09:09:18.69</time>
<name>5616</name>
<sym>Dot</sym>
</trkpt>
<trkpt lat="39.937107" lon="-8.416953">
<ele>280.5</ele>
<desc>Speed 25.7 km/h Distance 24.02 km</desc>
<time>2011-05-22T09:09:19.69</time>
<name>5617</name>
<sym>Dot</sym>
</trkpt>
<trkpt lat="39.937077" lon="-8.417028">
<ele>280.5</ele>
<desc>Speed 25.8 km/h Distance 24.02 km</desc>
<time>2011-05-22T09:09:20.69</time>
<name>5618</name>
<sym>Dot</sym>
</trkpt>
<trkpt lat="39.937050" lon="-8.417103">
<ele>280.5</ele>
<desc>Speed 25.7 km/h Distance 24.03 km</desc>
<time>2011-05-22T09:09:21.69</time>
<name>5619</name>
<sym>Dot</sym>
</trkpt>
<trkpt lat="39.937022" lon="-8.417178">
<ele>280.5</ele>
<desc>Speed 25.6 km/h Distance 24.04 km</desc>
<time>2011-05-22T09:09:22.69</time>
<name>5620</name>
<sym>Dot</sym>
</trkpt>
<trkpt lat="39.936993" lon="-8.417255">
<ele>280.0</ele>
<desc>Speed 25.8 km/h Distance 24.05 km</desc>
<time>2011-05-22T09:09:23.69</time>
<name>5621</name>
<sym>Dot</sym>
</trkpt>
<trkpt lat="39.936965" lon="-8.417332">
<ele>280.0</ele>
<desc>Speed 26.0 km/h Distance 24.05 km</desc>
<time>2011-05-22T09:09:24.69</time>
<name>5622</name>
<sym>Dot</sym>
</trkpt>
<trkpt lat="39.936937" lon="-8.417405">
<ele>280.0</ele>
<desc>Speed 25.3 km/h Distance 24.06 km</desc>
<time>2011-05-22T09:09:25.69</time>
<name>5623</name>
<sym>Dot</sym>
</trkpt>
<trkpt lat="39.936907" lon="-8.417477">
<ele>279.5</ele>
<desc>Speed 25.0 km/h Distance 24.07 km</desc>
<time>2011-05-22T09:09:26.69</time>
<name>5624</name>
<sym>Dot</sym>
</trkpt>
<trkpt lat="39.936878" lon="-8.417548">
<ele>279.5</ele>
<desc>Speed 24.8 km/h Distance 24.07 km</desc>
<time>2011-05-22T09:09:27.69</time>
<name>5625</name>
<sym>Dot</sym>
</trkpt>
<trkpt lat="39.936852" lon="-8.417620">
<ele>279.5</ele>
<desc>Speed 24.6 km/h Distance 24.08 km</desc>
<time>2011-05-22T09:09:28.69</time>
<name>5626</name>
<sym>Dot</sym>
</trkpt>
<trkpt lat="39.936825" lon="-8.417692">
<ele>279.5</ele>
<desc>Speed 24.6 km/h Distance 24.09 km</desc>
<time>2011-05-22T09:09:29.69</time>
<name>5627</name>
<sym>Dot</sym>
</trkpt>
<trkpt lat="39.936797" lon="-8.417767">
<ele>279.5</ele>
<desc>Speed 25.4 km/h Distance 24.09 km</desc>
<time>2011-05-22T09:09:30.69</time>
<name>5628</name>
<sym>Dot</sym>
</trkpt>
<trkpt lat="39.936768" lon="-8.417838">
<ele>279.5</ele>
<desc>Speed 24.9 km/h Distance 24.10 km</desc>
<time>2011-05-22T09:09:31.69</time>
<name>5629</name>
<sym>Dot</sym>
</trkpt>
<trkpt lat="39.936740" lon="-8.417910">
<ele>280.0</ele>
<desc>Speed 24.6 km/h Distance 24.11 km</desc>
<time>2011-05-22T09:09:32.69</time>
<name>5630</name>
<sym>Dot</sym>
</trkpt>
<trkpt lat="39.936710" lon="-8.417980">
<ele>280.0</ele>
<desc>Speed 25.0 km/h Distance 24.12 km</desc>
<time>2011-05-22T09:09:33.69</time>
<name>5631</name>
<sym>Dot</sym>
</trkpt>
<trkpt lat="39.936677" lon="-8.418050">
<ele>280.0</ele>
<desc>Speed 25.1 km/h Distance 24.12 km</desc>
<time>2011-05-22T09:09:34.69</time>
<name>5632</name>
<sym>Dot</sym>
</trkpt>
<trkpt lat="39.936643" lon="-8.418120">
<ele>279.5</ele>
<desc>Speed 25.4 km/h Distance 24.13 km</desc>
<time>2011-05-22T09:09:35.69</time>
<name>5633</name>
<sym>Dot</sym>
</trkpt>
<trkpt lat="39.936605" lon="-8.418187">
<ele>279.5</ele>
<desc>Speed 25.5 km/h Distance 24.14 km</desc>
<time>2011-05-22T09:09:36.69</time>
<name>5634</name>
<sym>Dot</sym>
</trkpt>
<trkpt lat="39.936567" lon="-8.418252">
<ele>279.5</ele>
<desc>Speed 25.2 km/h Distance 24.14 km</desc>
<time>2011-05-22T09:09:37.69</time>
<name>5635</name>
<sym>Dot</sym>
</trkpt>
<trkpt lat="39.936527" lon="-8.418315">
<ele>279.5</ele>
<desc>Speed 25.0 km/h Distance 24.15 km</desc>
<time>2011-05-22T09:09:38.69</time>
<name>5636</name>
<sym>Dot</sym>
</trkpt>
<trkpt lat="39.936490" lon="-8.418377">
<ele>279.5</ele>
<desc>Speed 24.3 km/h Distance 24.16 km</desc>
<time>2011-05-22T09:09:39.69</time>
<name>5637</name>
<sym>Dot</sym>
</trkpt>
<trkpt lat="39.936453" lon="-8.418438">
<ele>279.5</ele>
<desc>Speed 23.9 km/h Distance 24.16 km</desc>
<time>2011-05-22T09:09:40.69</time>
<name>5638</name>
<sym>Dot</sym>
</trkpt>
<trkpt lat="39.936417" lon="-8.418497">
<ele>280.0</ele>
<desc>Speed 23.4 km/h Distance 24.17 km</desc>
<time>2011-05-22T09:09:41.69</time>
<name>5639</name>
<sym>Dot</sym>
</trkpt>
<trkpt lat="39.936380" lon="-8.418555">
<ele>280.0</ele>
<desc>Speed 23.3 km/h Distance 24.18 km</desc>
<time>2011-05-22T09:09:42.69</time>
<name>5640</name>
<sym>Dot</sym>
</trkpt>
<trkpt lat="39.936343" lon="-8.418615">
<ele>279.5</ele>
<desc>Speed 23.5 km/h Distance 24.18 km</desc>
<time>2011-05-22T09:09:43.69</time>
<name>5641</name>
<sym>Dot</sym>
</trkpt>
<trkpt lat="39.936305" lon="-8.418675">
<ele>279.5</ele>
<desc>Speed 23.9 km/h Distance 24.19 km</desc>
<time>2011-05-22T09:09:44.69</time>
<name>5642</name>
<sym>Dot</sym>
</trkpt>
<trkpt lat="39.936265" lon="-8.418735">
<ele>279.5</ele>
<desc>Speed 24.1 km/h Distance 24.20 km</desc>
<time>2011-05-22T09:09:45.69</time>
<name>5643</name>
<sym>Dot</sym>
</trkpt>
<trkpt lat="39.936227" lon="-8.418793">
<ele>279.5</ele>
<desc>Speed 24.1 km/h Distance 24.20 km</desc>
<time>2011-05-22T09:09:46.69</time>
<name>5644</name>
<sym>Dot</sym>
</trkpt>
<trkpt lat="39.936187" lon="-8.418853">
<ele>279.5</ele>
<desc>Speed 24.0 km/h Distance 24.21 km</desc>
<time>2011-05-22T09:09:47.69</time>
<name>5645</name>
<sym>Dot</sym>
</trkpt>
<trkpt lat="39.936148" lon="-8.418912">
<ele>279.5</ele>
<desc>Speed 24.1 km/h Distance 24.22 km</desc>
<time>2011-05-22T09:09:48.69</time>
<name>5646</name>
<sym>Dot</sym>
</trkpt>
<trkpt lat="39.936108" lon="-8.418970">
<ele>279.5</ele>
<desc>Speed 23.8 km/h Distance 24.22 km</desc>
<time>2011-05-22T09:09:49.69</time>
<name>5647</name>
<sym>Dot</sym>
</trkpt>
<trkpt lat="39.936068" lon="-8.419027">
<ele>279.5</ele>
<desc>Speed 23.5 km/h Distance 24.23 km</desc>
<time>2011-05-22T09:09:50.69</time>
<name>5648</name>
<sym>Dot</sym>
</trkpt>
<trkpt lat="39.936030" lon="-8.419083">
<ele>279.0</ele>
<desc>Speed 23.5 km/h Distance 24.24 km</desc>
<time>2011-05-22T09:09:51.69</time>
<name>5649</name>
<sym>Dot</sym>
</trkpt>
<trkpt lat="39.935992" lon="-8.419143">
<ele>279.0</ele>
<desc>Speed 23.7 km/h Distance 24.24 km</desc>
<time>2011-05-22T09:09:52.69</time>
<name>5650</name>
<sym>Dot</sym>
</trkpt>
<trkpt lat="39.935953" lon="-8.419202">
<ele>279.0</ele>
<desc>Speed 23.7 km/h Distance 24.25 km</desc>
<time>2011-05-22T09:09:53.69</time>
<name>5651</name>
<sym>Dot</sym>
</trkpt>
<trkpt lat="39.935915" lon="-8.419258">
<ele>279.0</ele>
<desc>Speed 23.4 km/h Distance 24.26 km</desc>
<time>2011-05-22T09:09:54.69</time>
<name>5652</name>
<sym>Dot</sym>
</trkpt>
<trkpt lat="39.935875" lon="-8.419312">
<ele>279.5</ele>
<desc>Speed 23.3 km/h Distance 24.26 km</desc>
<time>2011-05-22T09:09:55.69</time>
<name>5653</name>
<sym>Dot</sym>
</trkpt>
<trkpt lat="39.935835" lon="-8.419367">
<ele>279.5</ele>
<desc>Speed 23.4 km/h Distance 24.27 km</desc>
<time>2011-05-22T09:09:56.69</time>
<name>5654</name>
<sym>Dot</sym>
</trkpt>
<trkpt lat="39.935795" lon="-8.419422">
<ele>279.5</ele>
<desc>Speed 23.4 km/h Distance 24.28 km</desc>
<time>2011-05-22T09:09:57.69</time>
<name>5655</name>
<sym>Dot</sym>
</trkpt>
<trkpt lat="39.935758" lon="-8.419480">
<ele>279.5</ele>
<desc>Speed 23.1 km/h Distance 24.28 km</desc>
<time>2011-05-22T09:09:58.69</time>
<name>5656</name>
<sym>Dot</sym>
</trkpt>
<trkpt lat="39.935718" lon="-8.419535">
<ele>279.5</ele>
<desc>Speed 23.0 km/h Distance 24.29 km</desc>
<time>2011-05-22T09:09:59.69</time>
<name>5657</name>
<sym>Dot</sym>
</trkpt>
<trkpt lat="39.935680" lon="-8.419588">
<ele>279.5</ele>
<desc>Speed 22.8 km/h Distance 24.29 km</desc>
<time>2011-05-22T09:10:00.69</time>
<name>5658</name>
<sym>Dot</sym>
</trkpt>
<trkpt lat="39.935642" lon="-8.419642">
<ele>279.5</ele>
<desc>Speed 22.7 km/h Distance 24.30 km</desc>
<time>2011-05-22T09:10:01.69</time>
<name>5659</name>
<sym>Dot</sym>
</trkpt>
<trkpt lat="39.935603" lon="-8.419693">
<ele>279.5</ele>
<desc>Speed 22.5 km/h Distance 24.31 km</desc>
<time>2011-05-22T09:10:02.69</time>
<name>5660</name>
<sym>Dot</sym>
</trkpt>
<trkpt lat="39.935565" lon="-8.419748">
<ele>279.5</ele>
<desc>Speed 22.4 km/h Distance 24.31 km</desc>
<time>2011-05-22T09:10:03.69</time>
<name>5661</name>
<sym>Dot</sym>
</trkpt>
<trkpt lat="39.935527" lon="-8.419800">
<ele>279.0</ele>
<desc>Speed 22.1 km/h Distance 24.32 km</desc>
<time>2011-05-22T09:10:04.69</time>
<name>5662</name>
<sym>Dot</sym>
</trkpt>
<trkpt lat="39.935487" lon="-8.419848">
<ele>279.5</ele>
<desc>Speed 21.9 km/h Distance 24.33 km</desc>
<time>2011-05-22T09:10:05.69</time>
<name>5663</name>
<sym>Dot</sym>
</trkpt>
<trkpt lat="39.935445" lon="-8.419893">
<ele>279.0</ele>
<desc>Speed 22.1 km/h Distance 24.33 km</desc>
<time>2011-05-22T09:10:06.69</time>
<name>5664</name>
<sym>Dot</sym>
</trkpt>
<trkpt lat="39.935398" lon="-8.419937">
<ele>279.0</ele>
<desc>Speed 22.5 km/h Distance 24.34 km</desc>
<time>2011-05-22T09:10:07.69</time>
<name>5665</name>
<sym>Dot</sym>
</trkpt>
<trkpt lat="39.935350" lon="-8.419975">
<ele>279.0</ele>
<desc>Speed 22.9 km/h Distance 24.34 km</desc>
<time>2011-05-22T09:10:08.69</time>
<name>5666</name>
<sym>Dot</sym>
</trkpt>
<trkpt lat="39.935300" lon="-8.420013">
<ele>279.0</ele>
<desc>Speed 23.0 km/h Distance 24.35 km</desc>
<time>2011-05-22T09:10:09.69</time>
<name>5667</name>
<sym>Dot</sym>
</trkpt>
<trkpt lat="39.935250" lon="-8.420052">
<ele>279.0</ele>
<desc>Speed 23.3 km/h Distance 24.36 km</desc>
<time>2011-05-22T09:10:10.69</time>
<name>5668</name>
<sym>Dot</sym>
</trkpt>
<trkpt lat="39.935203" lon="-8.420085">
<ele>279.5</ele>
<desc>Speed 21.6 km/h Distance 24.36 km</desc>
<time>2011-05-22T09:10:11.69</time>
<name>5669</name>
<sym>Dot</sym>
</trkpt>
<trkpt lat="39.935153" lon="-8.420122">
<ele>280.0</ele>
<desc>Speed 22.8 km/h Distance 24.37 km</desc>
<time>2011-05-22T09:10:12.69</time>
<name>5670</name>
<sym>Dot</sym>
</trkpt>
<trkpt lat="39.935103" lon="-8.420163">
<ele>280.5</ele>
<desc>Speed 23.7 km/h Distance 24.38 km</desc>
<time>2011-05-22T09:10:13.69</time>
<name>5671</name>
<sym>Dot</sym>
</trkpt>
<trkpt lat="39.935053" lon="-8.420202">
<ele>280.5</ele>
<desc>Speed 23.5 km/h Distance 24.38 km</desc>
<time>2011-05-22T09:10:14.69</time>
<name>5672</name>
<sym>Dot</sym>
</trkpt>
<trkpt lat="39.935003" lon="-8.420238">
<ele>280.5</ele>
<desc>Speed 23.1 km/h Distance 24.39 km</desc>
<time>2011-05-22T09:10:15.69</time>
<name>5673</name>
<sym>Dot</sym>
</trkpt>
<trkpt lat="39.934953" lon="-8.420273">
<ele>280.5</ele>
<desc>Speed 22.7 km/h Distance 24.39 km</desc>
<time>2011-05-22T09:10:16.69</time>
<name>5674</name>
<sym>Dot</sym>
</trkpt>
<trkpt lat="39.934905" lon="-8.420308">
<ele>280.5</ele>
<desc>Speed 22.4 km/h Distance 24.40 km</desc>
<time>2011-05-22T09:10:17.69</time>
<name>5675</name>
<sym>Dot</sym>
</trkpt>
<trkpt lat="39.934857" lon="-8.420345">
<ele>280.5</ele>
<desc>Speed 22.1 km/h Distance 24.41 km</desc>
<time>2011-05-22T09:10:18.69</time>
<name>5676</name>
<sym>Dot</sym>
</trkpt>
<trkpt lat="39.934808" lon="-8.420378">
<ele>280.5</ele>
<desc>Speed 22.1 km/h Distance 24.41 km</desc>
<time>2011-05-22T09:10:19.69</time>
<name>5677</name>
<sym>Dot</sym>
</trkpt>
<trkpt lat="39.934760" lon="-8.420413">
<ele>280.5</ele>
<desc>Speed 22.3 km/h Distance 24.42 km</desc>
<time>2011-05-22T09:10:20.69</time>
<name>5678</name>
<sym>Dot</sym>
</trkpt>
<trkpt lat="39.934710" lon="-8.420448">
<ele>280.5</ele>
<desc>Speed 22.6 km/h Distance 24.43 km</desc>
<time>2011-05-22T09:10:21.69</time>
<name>5679</name>
<sym>Dot</sym>
</trkpt>
<trkpt lat="39.934660" lon="-8.420483">
<ele>280.5</ele>
<desc>Speed 23.0 km/h Distance 24.43 km</desc>
<time>2011-05-22T09:10:22.69</time>
<name>5680</name>
<sym>Dot</sym>
</trkpt>
<trkpt lat="39.934610" lon="-8.420518">
<ele>280.5</ele>
<desc>Speed 22.9 km/h Distance 24.44 km</desc>
<time>2011-05-22T09:10:23.69</time>
<name>5681</name>
<sym>Dot</sym>
</trkpt>
<trkpt lat="39.934560" lon="-8.420553">
<ele>280.5</ele>
<desc>Speed 22.8 km/h Distance 24.44 km</desc>
<time>2011-05-22T09:10:24.69</time>
<name>5682</name>
<sym>Dot</sym>
</trkpt>
<trkpt lat="39.934512" lon="-8.420588">
<ele>280.5</ele>
<desc>Speed 22.4 km/h Distance 24.45 km</desc>
<time>2011-05-22T09:10:25.69</time>
<name>5683</name>
<sym>Dot</sym>
</trkpt>
<trkpt lat="39.934463" lon="-8.420622">
<ele>280.5</ele>
<desc>Speed 22.1 km/h Distance 24.46 km</desc>
<time>2011-05-22T09:10:26.69</time>
<name>5684</name>
<sym>Dot</sym>
</trkpt>
<trkpt lat="39.934415" lon="-8.420655">
<ele>280.5</ele>
<desc>Speed 22.0 km/h Distance 24.46 km</desc>
<time>2011-05-22T09:10:27.69</time>
<name>5685</name>
<sym>Dot</sym>
</trkpt>
<trkpt lat="39.934367" lon="-8.420688">
<ele>280.5</ele>
<desc>Speed 21.9 km/h Distance 24.47 km</desc>
<time>2011-05-22T09:10:28.69</time>
<name>5686</name>
<sym>Dot</sym>
</trkpt>
<trkpt lat="39.934317" lon="-8.420723">
<ele>280.5</ele>
<desc>Speed 22.8 km/h Distance 24.48 km</desc>
<time>2011-05-22T09:10:29.69</time>
<name>5687</name>
<sym>Dot</sym>
</trkpt>
<trkpt lat="39.934265" lon="-8.420762">
<ele>280.5</ele>
<desc>Speed 23.7 km/h Distance 24.48 km</desc>
<time>2011-05-22T09:10:30.69</time>
<name>5688</name>
<sym>Dot</sym>
</trkpt>
<trkpt lat="39.934213" lon="-8.420802">
<ele>280.0</ele>
<desc>Speed 24.5 km/h Distance 24.49 km</desc>
<time>2011-05-22T09:10:31.69</time>
<name>5689</name>
<sym>Dot</sym>
</trkpt>
<trkpt lat="39.934158" lon="-8.420842">
<ele>280.0</ele>
<desc>Speed 24.9 km/h Distance 24.50 km</desc>
<time>2011-05-22T09:10:32.69</time>
<name>5690</name>
<sym>Dot</sym>
</trkpt>
<trkpt lat="39.934103" lon="-8.420883">
<ele>280.0</ele>
<desc>Speed 25.7 km/h Distance 24.50 km</desc>
<time>2011-05-22T09:10:33.69</time>
<name>5691</name>
<sym>Dot</sym>
</trkpt>
<trkpt lat="39.934047" lon="-8.420928">
<ele>279.5</ele>
<desc>Speed 26.4 km/h Distance 24.51 km</desc>
<time>2011-05-22T09:10:34.69</time>
<name>5692</name>
<sym>Dot</sym>
</trkpt>
<trkpt lat="39.933988" lon="-8.420973">
<ele>279.0</ele>
<desc>Speed 27.0 km/h Distance 24.52 km</desc>
<time>2011-05-22T09:10:35.69</time>
<name>5693</name>
<sym>Dot</sym>
</trkpt>
<trkpt lat="39.933928" lon="-8.421017">
<ele>278.5</ele>
<desc>Speed 27.6 km/h Distance 24.53 km</desc>
<time>2011-05-22T09:10:36.69</time>
<name>5694</name>
<sym>Dot</sym>
</trkpt>
<trkpt lat="39.933867" lon="-8.421062">
<ele>278.5</ele>
<desc>Speed 28.4 km/h Distance 24.53 km</desc>
<time>2011-05-22T09:10:37.69</time>
<name>5695</name>
<sym>Dot</sym>
</trkpt>
<trkpt lat="39.933803" lon="-8.421108">
<ele>278.0</ele>
<desc>Speed 29.0 km/h Distance 24.54 km</desc>
<time>2011-05-22T09:10:38.69</time>
<name>5696</name>
<sym>Dot</sym>
</trkpt>
<trkpt lat="39.933740" lon="-8.421157">
<ele>277.5</ele>
<desc>Speed 29.5 km/h Distance 24.55 km</desc>
<time>2011-05-22T09:10:39.68</time>
<name>5697</name>
<sym>Dot</sym>
</trkpt>
<trkpt lat="39.933675" lon="-8.421205">
<ele>277.0</ele>
<desc>Speed 30.2 km/h Distance 24.56 km</desc>
<time>2011-05-22T09:10:40.68</time>
<name>5698</name>
<sym>Dot</sym>
</trkpt>
<trkpt lat="39.933607" lon="-8.421252">
<ele>277.0</ele>
<desc>Speed 30.5 km/h Distance 24.57 km</desc>
<time>2011-05-22T09:10:41.68</time>
<name>5699</name>
<sym>Dot</sym>
</trkpt>
<trkpt lat="39.933538" lon="-8.421297">
<ele>276.5</ele>
<desc>Speed 30.7 km/h Distance 24.58 km</desc>
<time>2011-05-22T09:10:42.68</time>
<name>5700</name>
<sym>Dot</sym>
</trkpt>
<trkpt lat="39.933472" lon="-8.421347">
<ele>276.5</ele>
<desc>Speed 31.1 km/h Distance 24.58 km</desc>
<time>2011-05-22T09:10:43.68</time>
<name>5701</name>
<sym>Dot</sym>
</trkpt>
<trkpt lat="39.933405" lon="-8.421398">
<ele>276.0</ele>
<desc>Speed 31.2 km/h Distance 24.59 km</desc>
<time>2011-05-22T09:10:44.68</time>
<name>5702</name>
<sym>Dot</sym>
</trkpt>
<trkpt lat="39.933340" lon="-8.421452">
<ele>276.0</ele>
<desc>Speed 30.7 km/h Distance 24.60 km</desc>
<time>2011-05-22T09:10:45.68</time>
<name>5703</name>
<sym>Dot</sym>
</trkpt>
<trkpt lat="39.933285" lon="-8.421517">
<ele>276.0</ele>
<desc>Speed 29.9 km/h Distance 24.61 km</desc>
<time>2011-05-22T09:10:46.68</time>
<name>5704</name>
<sym>Dot</sym>
</trkpt>
<trkpt lat="39.933240" lon="-8.421593">
<ele>276.5</ele>
<desc>Speed 29.3 km/h Distance 24.62 km</desc>
<time>2011-05-22T09:10:47.68</time>
<name>5705</name>
<sym>Dot</sym>
</trkpt>
<trkpt lat="39.933205" lon="-8.421675">
<ele>276.5</ele>
<desc>Speed 28.7 km/h Distance 24.63 km</desc>
<time>2011-05-22T09:10:48.68</time>
<name>5706</name>
<sym>Dot</sym>
</trkpt>
<trkpt lat="39.933178" lon="-8.421758">
<ele>276.5</ele>
<desc>Speed 27.9 km/h Distance 24.63 km</desc>
<time>2011-05-22T09:10:49.68</time>
<name>5707</name>
<sym>Dot</sym>
</trkpt>
<trkpt lat="39.933157" lon="-8.421845">
<ele>276.0</ele>
<desc>Speed 27.3 km/h Distance 24.64 km</desc>
<time>2011-05-22T09:10:50.68</time>
<name>5708</name>
<sym>Dot</sym>
</trkpt>
<trkpt lat="39.933142" lon="-8.421928">
<ele>276.0</ele>
<desc>Speed 26.4 km/h Distance 24.65 km</desc>
<time>2011-05-22T09:10:51.68</time>
<name>5709</name>
<sym>Dot</sym>
</trkpt>
<trkpt lat="39.933132" lon="-8.422010">
<ele>276.0</ele>
<desc>Speed 25.4 km/h Distance 24.66 km</desc>
<time>2011-05-22T09:10:52.68</time>
<name>5710</name>
<sym>Dot</sym>
</trkpt>
<trkpt lat="39.933127" lon="-8.422088">
<ele>276.0</ele>
<desc>Speed 24.2 km/h Distance 24.66 km</desc>
<time>2011-05-22T09:10:53.68</time>
<name>5711</name>
<sym>Dot</sym>
</trkpt>
<trkpt lat="39.933123" lon="-8.422165">
<ele>276.0</ele>
<desc>Speed 23.7 km/h Distance 24.67 km</desc>
<time>2011-05-22T09:10:54.68</time>
<name>5712</name>
<sym>Dot</sym>
</trkpt>
<trkpt lat="39.933118" lon="-8.422243">
<ele>276.0</ele>
<desc>Speed 23.7 km/h Distance 24.68 km</desc>
<time>2011-05-22T09:10:55.68</time>
<name>5713</name>
<sym>Dot</sym>
</trkpt>
<trkpt lat="39.933118" lon="-8.422320">
<ele>276.0</ele>
<desc>Speed 23.5 km/h Distance 24.68 km</desc>
<time>2011-05-22T09:10:56.68</time>
<name>5714</name>
<sym>Dot</sym>
</trkpt>
<trkpt lat="39.933120" lon="-8.422395">
<ele>276.0</ele>
<desc>Speed 23.3 km/h Distance 24.69 km</desc>
<time>2011-05-22T09:10:57.68</time>
<name>5715</name>
<sym>Dot</sym>
</trkpt>
<trkpt lat="39.933122" lon="-8.422472">
<ele>276.0</ele>
<desc>Speed 23.3 km/h Distance 24.69 km</desc>
<time>2011-05-22T09:10:58.68</time>
<name>5716</name>
<sym>Dot</sym>
</trkpt>
<trkpt lat="39.933122" lon="-8.422547">
<ele>276.0</ele>
<desc>Speed 23.3 km/h Distance 24.70 km</desc>
<time>2011-05-22T09:10:59.68</time>
<name>5717</name>
<sym>Dot</sym>
</trkpt>
<trkpt lat="39.933125" lon="-8.422622">
<ele>276.0</ele>
<desc>Speed 22.8 km/h Distance 24.71 km</desc>
<time>2011-05-22T09:11:00.68</time>
<name>5718</name>
<sym>Dot</sym>
</trkpt>
<trkpt lat="39.933125" lon="-8.422697">
<ele>276.0</ele>
<desc>Speed 22.8 km/h Distance 24.71 km</desc>
<time>2011-05-22T09:11:01.68</time>
<name>5719</name>
<sym>Dot</sym>
</trkpt>
<trkpt lat="39.933127" lon="-8.422768">
<ele>275.5</ele>
<desc>Speed 22.2 km/h Distance 24.72 km</desc>
<time>2011-05-22T09:11:02.68</time>
<name>5720</name>
<sym>Dot</sym>
</trkpt>
<trkpt lat="39.933130" lon="-8.422840">
<ele>275.5</ele>
<desc>Speed 22.1 km/h Distance 24.73 km</desc>
<time>2011-05-22T09:11:03.68</time>
<name>5721</name>
<sym>Dot</sym>
</trkpt>
<trkpt lat="39.933130" lon="-8.422912">
<ele>275.5</ele>
<desc>Speed 21.7 km/h Distance 24.73 km</desc>
<time>2011-05-22T09:11:04.68</time>
<name>5722</name>
<sym>Dot</sym>
</trkpt>
<trkpt lat="39.933138" lon="-8.422978">
<ele>275.5</ele>
<desc>Speed 20.2 km/h Distance 24.74 km</desc>
<time>2011-05-22T09:11:05.68</time>
<name>5723</name>
<sym>Dot</sym>
</trkpt>
<trkpt lat="39.933140" lon="-8.423047">
<ele>275.5</ele>
<desc>Speed 21.2 km/h Distance 24.74 km</desc>
<time>2011-05-22T09:11:06.68</time>
<name>5724</name>
<sym>Dot</sym>
</trkpt>
<trkpt lat="39.933140" lon="-8.423117">
<ele>275.0</ele>
<desc>Speed 21.0 km/h Distance 24.75 km</desc>
<time>2011-05-22T09:11:07.68</time>
<name>5725</name>
<sym>Dot</sym>
</trkpt>
<trkpt lat="39.933138" lon="-8.423185">
<ele>275.0</ele>
<desc>Speed 21.0 km/h Distance 24.76 km</desc>
<time>2011-05-22T09:11:08.68</time>
<name>5726</name>
<sym>Dot</sym>
</trkpt>
<trkpt lat="39.933133" lon="-8.423255">
<ele>275.0</ele>
<desc>Speed 21.2 km/h Distance 24.76 km</desc>
<time>2011-05-22T09:11:09.68</time>
<name>5727</name>
<sym>Dot</sym>
</trkpt>
<trkpt lat="39.933127" lon="-8.423323">
<ele>275.0</ele>
<desc>Speed 21.2 km/h Distance 24.77 km</desc>
<time>2011-05-22T09:11:10.68</time>
<name>5728</name>
<sym>Dot</sym>
</trkpt>
<trkpt lat="39.933115" lon="-8.423392">
<ele>274.5</ele>
<desc>Speed 21.0 km/h Distance 24.77 km</desc>
<time>2011-05-22T09:11:11.68</time>
<name>5729</name>
<sym>Dot</sym>
</trkpt>
<trkpt lat="39.933100" lon="-8.423458">
<ele>274.5</ele>
<desc>Speed 20.7 km/h Distance 24.78 km</desc>
<time>2011-05-22T09:11:12.68</time>
<name>5730</name>
<sym>Dot</sym>
</trkpt>
<trkpt lat="39.933080" lon="-8.423520">
<ele>274.5</ele>
<desc>Speed 20.7 km/h Distance 24.79 km</desc>
<time>2011-05-22T09:11:13.68</time>
<name>5731</name>
<sym>Dot</sym>
</trkpt>
<trkpt lat="39.933052" lon="-8.423578">
<ele>274.5</ele>
<desc>Speed 21.0 km/h Distance 24.79 km</desc>
<time>2011-05-22T09:11:14.68</time>
<name>5732</name>
<sym>Dot</sym>
</trkpt>
<trkpt lat="39.933020" lon="-8.423635">
<ele>274.5</ele>
<desc>Speed 21.3 km/h Distance 24.80 km</desc>
<time>2011-05-22T09:11:15.68</time>
<name>5733</name>
<sym>Dot</sym>
</trkpt>
<trkpt lat="39.932987" lon="-8.423690">
<ele>274.0</ele>
<desc>Speed 21.7 km/h Distance 24.80 km</desc>
<time>2011-05-22T09:11:16.68</time>
<name>5734</name>
<sym>Dot</sym>
</trkpt>
<trkpt lat="39.932948" lon="-8.423747">
<ele>274.0</ele>
<desc>Speed 22.5 km/h Distance 24.81 km</desc>
<time>2011-05-22T09:11:17.68</time>
<name>5735</name>
<sym>Dot</sym>
</trkpt>
<trkpt lat="39.932910" lon="-8.423800">
<ele>273.5</ele>
<desc>Speed 22.9 km/h Distance 24.82 km</desc>
<time>2011-05-22T09:11:18.68</time>
<name>5736</name>
<sym>Dot</sym>
</trkpt>
<trkpt lat="39.932870" lon="-8.423857">
<ele>273.5</ele>
<desc>Speed 23.6 km/h Distance 24.82 km</desc>
<time>2011-05-22T09:11:19.68</time>
<name>5737</name>
<sym>Dot</sym>
</trkpt>
<trkpt lat="39.932828" lon="-8.423915">
<ele>273.5</ele>
<desc>Speed 24.3 km/h Distance 24.83 km</desc>
<time>2011-05-22T09:11:20.68</time>
<name>5738</name>
<sym>Dot</sym>
</trkpt>
<trkpt lat="39.932787" lon="-8.423972">
<ele>273.0</ele>
<desc>Speed 24.6 km/h Distance 24.84 km</desc>
<time>2011-05-22T09:11:21.68</time>
<name>5739</name>
<sym>Dot</sym>
</trkpt>
<trkpt lat="39.932742" lon="-8.424027">
<ele>273.0</ele>
<desc>Speed 24.7 km/h Distance 24.84 km</desc>
<time>2011-05-22T09:11:22.68</time>
<name>5740</name>
<sym>Dot</sym>
</trkpt>
<trkpt lat="39.932695" lon="-8.424082">
<ele>273.0</ele>
<desc>Speed 25.2 km/h Distance 24.85 km</desc>
<time>2011-05-22T09:11:23.68</time>
<name>5741</name>
<sym>Dot</sym>
</trkpt>
<trkpt lat="39.932647" lon="-8.424135">
<ele>272.5</ele>
<desc>Speed 25.4 km/h Distance 24.86 km</desc>
<time>2011-05-22T09:11:24.68</time>
<name>5742</name>
<sym>Dot</sym>
</trkpt>
<trkpt lat="39.932595" lon="-8.424185">
<ele>272.5</ele>
<desc>Speed 26.1 km/h Distance 24.86 km</desc>
<time>2011-05-22T09:11:25.68</time>
<name>5743</name>
<sym>Dot</sym>
</trkpt>
<trkpt lat="39.932538" lon="-8.424230">
<ele>272.0</ele>
<desc>Speed 26.4 km/h Distance 24.87 km</desc>
<time>2011-05-22T09:11:26.68</time>
<name>5744</name>
<sym>Dot</sym>
</trkpt>
<trkpt lat="39.932480" lon="-8.424275">
<ele>272.0</ele>
<desc>Speed 26.9 km/h Distance 24.88 km</desc>
<time>2011-05-22T09:11:27.68</time>
<name>5745</name>
<sym>Dot</sym>
</trkpt>
<trkpt lat="39.932423" lon="-8.424318">
<ele>272.0</ele>
<desc>Speed 27.0 km/h Distance 24.89 km</desc>
<time>2011-05-22T09:11:28.68</time>
<name>5746</name>
<sym>Dot</sym>
</trkpt>
<trkpt lat="39.932363" lon="-8.424362">
<ele>271.5</ele>
<desc>Speed 27.4 km/h Distance 24.89 km</desc>
<time>2011-05-22T09:11:29.68</time>
<name>5747</name>
<sym>Dot</sym>
</trkpt>
<trkpt lat="39.932302" lon="-8.424405">
<ele>271.5</ele>
<desc>Speed 27.5 km/h Distance 24.90 km</desc>
<time>2011-05-22T09:11:30.68</time>
<name>5748</name>
<sym>Dot</sym>
</trkpt>
<trkpt lat="39.932242" lon="-8.424450">
<ele>271.0</ele>
<desc>Speed 27.8 km/h Distance 24.91 km</desc>
<time>2011-05-22T09:11:31.68</time>
<name>5749</name>
<sym>Dot</sym>
</trkpt>
<trkpt lat="39.932183" lon="-8.424497">
<ele>271.0</ele>
<desc>Speed 27.8 km/h Distance 24.92 km</desc>
<time>2011-05-22T09:11:32.68</time>
<name>5750</name>
<sym>Dot</sym>
</trkpt>
<trkpt lat="39.932123" lon="-8.424542">
<ele>271.0</ele>
<desc>Speed 27.6 km/h Distance 24.92 km</desc>
<time>2011-05-22T09:11:33.68</time>
<name>5751</name>
<sym>Dot</sym>
</trkpt>
<trkpt lat="39.932065" lon="-8.424588">
<ele>270.5</ele>
<desc>Speed 27.5 km/h Distance 24.93 km</desc>
<time>2011-05-22T09:11:34.68</time>
<name>5752</name>
<sym>Dot</sym>
</trkpt>
<trkpt lat="39.932007" lon="-8.424635">
<ele>270.5</ele>
<desc>Speed 27.4 km/h Distance 24.94 km</desc>
<time>2011-05-22T09:11:35.68</time>
<name>5753</name>
<sym>Dot</sym>
</trkpt>
<trkpt lat="39.931950" lon="-8.424680">
<ele>270.5</ele>
<desc>Speed 26.9 km/h Distance 24.95 km</desc>
<time>2011-05-22T09:11:36.68</time>
<name>5754</name>
<sym>Dot</sym>
</trkpt>
<trkpt lat="39.931893" lon="-8.424728">
<ele>270.0</ele>
<desc>Speed 26.4 km/h Distance 24.95 km</desc>
<time>2011-05-22T09:11:37.68</time>
<name>5755</name>
<sym>Dot</sym>
</trkpt>
<trkpt lat="39.931840" lon="-8.424778">
<ele>270.0</ele>
<desc>Speed 26.4 km/h Distance 24.96 km</desc>
<time>2011-05-22T09:11:38.68</time>
<name>5756</name>
<sym>Dot</sym>
</trkpt>
<trkpt lat="39.931788" lon="-8.424832">
<ele>270.0</ele>
<desc>Speed 26.3 km/h Distance 24.97 km</desc>
<time>2011-05-22T09:11:39.68</time>
<name>5757</name>
<sym>Dot</sym>
</trkpt>
<trkpt lat="39.931738" lon="-8.424887">
<ele>269.5</ele>
<desc>Speed 26.4 km/h Distance 24.98 km</desc>
<time>2011-05-22T09:11:40.68</time>
<name>5758</name>
<sym>Dot</sym>
</trkpt>
<trkpt lat="39.931690" lon="-8.424945">
<ele>269.5</ele>
<desc>Speed 26.2 km/h Distance 24.98 km</desc>
<time>2011-05-22T09:11:41.68</time>
<name>5759</name>
<sym>Dot</sym>
</trkpt>
<trkpt lat="39.931643" lon="-8.425003">
<ele>269.5</ele>
<desc>Speed 26.3 km/h Distance 24.99 km</desc>
<time>2011-05-22T09:11:42.68</time>
<name>5760</name>
<sym>Dot</sym>
</trkpt>
<trkpt lat="39.931595" lon="-8.425063">
<ele>269.5</ele>
<desc>Speed 26.1 km/h Distance 25.00 km</desc>
<time>2011-05-22T09:11:43.68</time>
<name>5761</name>
<sym>Dot</sym>
</trkpt>
<trkpt lat="39.931548" lon="-8.425122">
<ele>269.5</ele>
<desc>Speed 26.1 km/h Distance 25.01 km</desc>
<time>2011-05-22T09:11:44.67</time>
<name>5762</name>
<sym>Dot</sym>
</trkpt>
<trkpt lat="39.931503" lon="-8.425182">
<ele>269.5</ele>
<desc>Speed 26.0 km/h Distance 25.01 km</desc>
<time>2011-05-22T09:11:45.67</time>
<name>5763</name>
<sym>Dot</sym>
</trkpt>
<trkpt lat="39.931457" lon="-8.425242">
<ele>269.5</ele>
<desc>Speed 26.3 km/h Distance 25.02 km</desc>
<time>2011-05-22T09:11:46.67</time>
<name>5764</name>
<sym>Dot</sym>
</trkpt>
<trkpt lat="39.931408" lon="-8.425300">
<ele>269.5</ele>
<desc>Speed 26.0 km/h Distance 25.03 km</desc>
<time>2011-05-22T09:11:47.67</time>
<name>5765</name>
<sym>Dot</sym>
</trkpt>
<trkpt lat="39.931362" lon="-8.425358">
<ele>269.5</ele>
<desc>Speed 26.0 km/h Distance 25.03 km</desc>
<time>2011-05-22T09:11:48.67</time>
<name>5766</name>
<sym>Dot</sym>
</trkpt>
<trkpt lat="39.931317" lon="-8.425420">
<ele>269.5</ele>
<desc>Speed 26.0 km/h Distance 25.04 km</desc>
<time>2011-05-22T09:11:49.67</time>
<name>5767</name>
<sym>Dot</sym>
</trkpt>
<trkpt lat="39.931273" lon="-8.425482">
<ele>269.5</ele>
<desc>Speed 25.8 km/h Distance 25.05 km</desc>
<time>2011-05-22T09:11:50.67</time>
<name>5768</name>
<sym>Dot</sym>
</trkpt>
<trkpt lat="39.931232" lon="-8.425547">
<ele>269.5</ele>
<desc>Speed 26.3 km/h Distance 25.06 km</desc>
<time>2011-05-22T09:11:51.67</time>
<name>5769</name>
<sym>Dot</sym>
</trkpt>
<trkpt lat="39.931190" lon="-8.425613">
<ele>269.5</ele>
<desc>Speed 26.4 km/h Distance 25.06 km</desc>
<time>2011-05-22T09:11:52.67</time>
<name>5770</name>
<sym>Dot</sym>
</trkpt>
<trkpt lat="39.931153" lon="-8.425680">
<ele>270.0</ele>
<desc>Speed 25.6 km/h Distance 25.07 km</desc>
<time>2011-05-22T09:11:53.67</time>
<name>5771</name>
<sym>Dot</sym>
</trkpt>
<trkpt lat="39.931115" lon="-8.425748">
<ele>270.0</ele>
<desc>Speed 26.0 km/h Distance 25.08 km</desc>
<time>2011-05-22T09:11:54.67</time>
<name>5772</name>
<sym>Dot</sym>
</trkpt>
<trkpt lat="39.931080" lon="-8.425820">
<ele>270.0</ele>
<desc>Speed 26.3 km/h Distance 25.09 km</desc>
<time>2011-05-22T09:11:55.67</time>
<name>5773</name>
<sym>Dot</sym>
</trkpt>
<trkpt lat="39.931050" lon="-8.425893">
<ele>270.5</ele>
<desc>Speed 25.5 km/h Distance 25.09 km</desc>
<time>2011-05-22T09:11:56.67</time>
<name>5774</name>
<sym>Dot</sym>
</trkpt>
<trkpt lat="39.931020" lon="-8.425970">
<ele>270.0</ele>
<desc>Speed 26.5 km/h Distance 25.10 km</desc>
<time>2011-05-22T09:11:57.67</time>
<name>5775</name>
<sym>Dot</sym>
</trkpt>
<trkpt lat="39.930990" lon="-8.426047">
<ele>270.0</ele>
<desc>Speed 26.4 km/h Distance 25.11 km</desc>
<time>2011-05-22T09:11:58.66</time>
<name>5776</name>
<sym>Dot</sym>
</trkpt>
<trkpt lat="39.930967" lon="-8.426125">
<ele>270.0</ele>
<desc>Speed 26.1 km/h Distance 25.11 km</desc>
<time>2011-05-22T09:11:59.66</time>
<name>5777</name>
<sym>Dot</sym>
</trkpt>
<trkpt lat="39.930942" lon="-8.426205">
<ele>270.0</ele>
<desc>Speed 26.4 km/h Distance 25.12 km</desc>
<time>2011-05-22T09:12:00.66</time>
<name>5778</name>
<sym>Dot</sym>
</trkpt>
<trkpt lat="39.930917" lon="-8.426285">
<ele>269.5</ele>
<desc>Speed 26.5 km/h Distance 25.13 km</desc>
<time>2011-05-22T09:12:01.66</time>
<name>5779</name>
<sym>Dot</sym>
</trkpt>
<trkpt lat="39.930890" lon="-8.426363">
<ele>269.5</ele>
<desc>Speed 26.5 km/h Distance 25.14 km</desc>
<time>2011-05-22T09:12:02.66</time>
<name>5780</name>
<sym>Dot</sym>
</trkpt>
<trkpt lat="39.930863" lon="-8.426442">
<ele>269.0</ele>
<desc>Speed 26.2 km/h Distance 25.14 km</desc>
<time>2011-05-22T09:12:03.66</time>
<name>5781</name>
<sym>Dot</sym>
</trkpt>
<trkpt lat="39.930833" lon="-8.426517">
<ele>269.0</ele>
<desc>Speed 25.7 km/h Distance 25.15 km</desc>
<time>2011-05-22T09:12:04.66</time>
<name>5782</name>
<sym>Dot</sym>
</trkpt>
<trkpt lat="39.930802" lon="-8.426588">
<ele>269.5</ele>
<desc>Speed 25.4 km/h Distance 25.16 km</desc>
<time>2011-05-22T09:12:05.66</time>
<name>5783</name>
<sym>Dot</sym>
</trkpt>
<trkpt lat="39.930768" lon="-8.426658">
<ele>269.5</ele>
<desc>Speed 25.2 km/h Distance 25.16 km</desc>
<time>2011-05-22T09:12:06.66</time>
<name>5784</name>
<sym>Dot</sym>
</trkpt>
<trkpt lat="39.930735" lon="-8.426727">
<ele>269.5</ele>
<desc>Speed 25.1 km/h Distance 25.17 km</desc>
<time>2011-05-22T09:12:07.66</time>
<name>5785</name>
<sym>Dot</sym>
</trkpt>
<trkpt lat="39.930702" lon="-8.426795">
<ele>269.5</ele>
<desc>Speed 24.8 km/h Distance 25.18 km</desc>
<time>2011-05-22T09:12:08.66</time>
<name>5786</name>
<sym>Dot</sym>
</trkpt>
<trkpt lat="39.930667" lon="-8.426862">
<ele>270.0</ele>
<desc>Speed 24.7 km/h Distance 25.19 km</desc>
<time>2011-05-22T09:12:09.66</time>
<name>5787</name>
<sym>Dot</sym>
</trkpt>
<trkpt lat="39.930633" lon="-8.426928">
<ele>270.0</ele>
<desc>Speed 24.6 km/h Distance 25.19 km</desc>
<time>2011-05-22T09:12:10.66</time>
<name>5788</name>
<sym>Dot</sym>
</trkpt>
<trkpt lat="39.930598" lon="-8.426995">
<ele>269.5</ele>
<desc>Speed 24.3 km/h Distance 25.20 km</desc>
<time>2011-05-22T09:12:11.66</time>
<name>5789</name>
<sym>Dot</sym>
</trkpt>
<trkpt lat="39.930567" lon="-8.427060">
<ele>269.5</ele>
<desc>Speed 23.6 km/h Distance 25.21 km</desc>
<time>2011-05-22T09:12:12.66</time>
<name>5790</name>
<sym>Dot</sym>
</trkpt>
<trkpt lat="39.930532" lon="-8.427127">
<ele>269.5</ele>
<desc>Speed 24.3 km/h Distance 25.21 km</desc>
<time>2011-05-22T09:12:13.66</time>
<name>5791</name>
<sym>Dot</sym>
</trkpt>
<trkpt lat="39.930497" lon="-8.427192">
<ele>269.5</ele>
<desc>Speed 24.5 km/h Distance 25.22 km</desc>
<time>2011-05-22T09:12:14.66</time>
<name>5792</name>
<sym>Dot</sym>
</trkpt>
<trkpt lat="39.930462" lon="-8.427255">
<ele>269.5</ele>
<desc>Speed 24.3 km/h Distance 25.23 km</desc>
<time>2011-05-22T09:12:15.66</time>
<name>5793</name>
<sym>Dot</sym>
</trkpt>
<trkpt lat="39.930425" lon="-8.427322">
<ele>269.5</ele>
<desc>Speed 24.5 km/h Distance 25.23 km</desc>
<time>2011-05-22T09:12:16.66</time>
<name>5794</name>
<sym>Dot</sym>
</trkpt>
<trkpt lat="39.930388" lon="-8.427387">
<ele>269.5</ele>
<desc>Speed 25.0 km/h Distance 25.24 km</desc>
<time>2011-05-22T09:12:17.66</time>
<name>5795</name>
<sym>Dot</sym>
</trkpt>
<trkpt lat="39.930348" lon="-8.427450">
<ele>270.0</ele>
<desc>Speed 24.8 km/h Distance 25.25 km</desc>
<time>2011-05-22T09:12:18.66</time>
<name>5796</name>
<sym>Dot</sym>
</trkpt>
<trkpt lat="39.930305" lon="-8.427510">
<ele>270.0</ele>
<desc>Speed 25.2 km/h Distance 25.25 km</desc>
<time>2011-05-22T09:12:19.66</time>
<name>5797</name>
<sym>Dot</sym>
</trkpt>
<trkpt lat="39.930258" lon="-8.427565">
<ele>270.0</ele>
<desc>Speed 25.2 km/h Distance 25.26 km</desc>
<time>2011-05-22T09:12:20.66</time>
<name>5798</name>
<sym>Dot</sym>
</trkpt>
<trkpt lat="39.930208" lon="-8.427615">
<ele>270.0</ele>
<desc>Speed 25.1 km/h Distance 25.27 km</desc>
<time>2011-05-22T09:12:21.66</time>
<name>5799</name>
<sym>Dot</sym>
</trkpt>
<trkpt lat="39.930158" lon="-8.427662">
<ele>270.0</ele>
<desc>Speed 24.9 km/h Distance 25.28 km</desc>
<time>2011-05-22T09:12:22.66</time>
<name>5800</name>
<sym>Dot</sym>
</trkpt>
<trkpt lat="39.930105" lon="-8.427707">
<ele>270.0</ele>
<desc>Speed 25.2 km/h Distance 25.28 km</desc>
<time>2011-05-22T09:12:23.66</time>
<name>5801</name>
<sym>Dot</sym>
</trkpt>
<trkpt lat="39.930052" lon="-8.427750">
<ele>270.0</ele>
<desc>Speed 25.5 km/h Distance 25.29 km</desc>
<time>2011-05-22T09:12:24.66</time>
<name>5802</name>
<sym>Dot</sym>
</trkpt>
<trkpt lat="39.929997" lon="-8.427795">
<ele>270.0</ele>
<desc>Speed 25.5 km/h Distance 25.30 km</desc>
<time>2011-05-22T09:12:25.66</time>
<name>5803</name>
<sym>Dot</sym>
</trkpt>
<trkpt lat="39.929943" lon="-8.427838">
<ele>270.0</ele>
<desc>Speed 25.5 km/h Distance 25.30 km</desc>
<time>2011-05-22T09:12:26.66</time>
<name>5804</name>
<sym>Dot</sym>
</trkpt>
<trkpt lat="39.929890" lon="-8.427883">
<ele>270.0</ele>
<desc>Speed 25.2 km/h Distance 25.31 km</desc>
<time>2011-05-22T09:12:27.66</time>
<name>5805</name>
<sym>Dot</sym>
</trkpt>
<trkpt lat="39.929838" lon="-8.427927">
<ele>270.0</ele>
<desc>Speed 25.1 km/h Distance 25.32 km</desc>
<time>2011-05-22T09:12:28.66</time>
<name>5806</name>
<sym>Dot</sym>
</trkpt>
<trkpt lat="39.929785" lon="-8.427968">
<ele>270.0</ele>
<desc>Speed 24.9 km/h Distance 25.32 km</desc>
<time>2011-05-22T09:12:29.66</time>
<name>5807</name>
<sym>Dot</sym>
</trkpt>
<trkpt lat="39.929730" lon="-8.428012">
<ele>270.0</ele>
<desc>Speed 25.7 km/h Distance 25.33 km</desc>
<time>2011-05-22T09:12:30.66</time>
<name>5808</name>
<sym>Dot</sym>
</trkpt>
<trkpt lat="39.929673" lon="-8.428052">
<ele>270.0</ele>
<desc>Speed 25.6 km/h Distance 25.34 km</desc>
<time>2011-05-22T09:12:31.66</time>
<name>5809</name>
<sym>Dot</sym>
</trkpt>
<trkpt lat="39.929613" lon="-8.428082">
<ele>270.0</ele>
<desc>Speed 25.8 km/h Distance 25.35 km</desc>
<time>2011-05-22T09:12:32.66</time>
<name>5810</name>
<sym>Dot</sym>
</trkpt>
<trkpt lat="39.929547" lon="-8.428105">
<ele>269.5</ele>
<desc>Speed 27.9 km/h Distance 25.35 km</desc>
<time>2011-05-22T09:12:33.66</time>
<name>5811</name>
<sym>Dot</sym>
</trkpt>
<trkpt lat="39.929475" lon="-8.428120">
<ele>268.5</ele>
<desc>Speed 28.7 km/h Distance 25.36 km</desc>
<time>2011-05-22T09:12:34.66</time>
<name>5812</name>
<sym>Dot</sym>
</trkpt>
<trkpt lat="39.929402" lon="-8.428127">
<ele>268.5</ele>
<desc>Speed 29.4 km/h Distance 25.37 km</desc>
<time>2011-05-22T09:12:35.66</time>
<name>5813</name>
<sym>Dot</sym>
</trkpt>
<trkpt lat="39.929323" lon="-8.428130">
<ele>268.5</ele>
<desc>Speed 31.2 km/h Distance 25.38 km</desc>
<time>2011-05-22T09:12:36.66</time>
<name>5814</name>
<sym>Dot</sym>
</trkpt>
<trkpt lat="39.929242" lon="-8.428132">
<ele>268.5</ele>
<desc>Speed 32.9 km/h Distance 25.39 km</desc>
<time>2011-05-22T09:12:37.66</time>
<name>5815</name>
<sym>Dot</sym>
</trkpt>
<trkpt lat="39.929158" lon="-8.428132">
<ele>267.5</ele>
<desc>Speed 33.5 km/h Distance 25.40 km</desc>
<time>2011-05-22T09:12:38.66</time>
<name>5816</name>
<sym>Dot</sym>
</trkpt>
<trkpt lat="39.929070" lon="-8.428135">
<ele>267.0</ele>
<desc>Speed 34.7 km/h Distance 25.41 km</desc>
<time>2011-05-22T09:12:39.66</time>
<name>5817</name>
<sym>Dot</sym>
</trkpt>
<trkpt lat="39.928983" lon="-8.428135">
<ele>267.0</ele>
<desc>Speed 35.2 km/h Distance 25.42 km</desc>
<time>2011-05-22T09:12:40.66</time>
<name>5818</name>
<sym>Dot</sym>
</trkpt>
<trkpt lat="39.928893" lon="-8.428140">
<ele>266.5</ele>
<desc>Speed 35.6 km/h Distance 25.43 km</desc>
<time>2011-05-22T09:12:41.66</time>
<name>5819</name>
<sym>Dot</sym>
</trkpt>
<trkpt lat="39.928803" lon="-8.428150">
<ele>266.0</ele>
<desc>Speed 36.1 km/h Distance 25.44 km</desc>
<time>2011-05-22T09:12:42.66</time>
<name>5820</name>
<sym>Dot</sym>
</trkpt>
<trkpt lat="39.928712" lon="-8.428173">
<ele>266.0</ele>
<desc>Speed 37.1 km/h Distance 25.45 km</desc>
<time>2011-05-22T09:12:43.66</time>
<name>5821</name>
<sym>Dot</sym>
</trkpt>
<trkpt lat="39.928623" lon="-8.428208">
<ele>265.5</ele>
<desc>Speed 37.5 km/h Distance 25.46 km</desc>
<time>2011-05-22T09:12:44.66</time>
<name>5822</name>
<sym>Dot</sym>
</trkpt>
<trkpt lat="39.928533" lon="-8.428255">
<ele>265.0</ele>
<desc>Speed 38.0 km/h Distance 25.47 km</desc>
<time>2011-05-22T09:12:45.66</time>
<name>5823</name>
<sym>Dot</sym>
</trkpt>
<trkpt lat="39.928447" lon="-8.428307">
<ele>264.5</ele>
<desc>Speed 38.2 km/h Distance 25.48 km</desc>
<time>2011-05-22T09:12:46.66</time>
<name>5824</name>
<sym>Dot</sym>
</trkpt>
<trkpt lat="39.928362" lon="-8.428362">
<ele>264.0</ele>
<desc>Speed 38.3 km/h Distance 25.49 km</desc>
<time>2011-05-22T09:12:47.66</time>
<name>5825</name>
<sym>Dot</sym>
</trkpt>
<trkpt lat="39.928277" lon="-8.428418">
<ele>264.0</ele>
<desc>Speed 38.3 km/h Distance 25.50 km</desc>
<time>2011-05-22T09:12:48.66</time>
<name>5826</name>
<sym>Dot</sym>
</trkpt>
<trkpt lat="39.928192" lon="-8.428472">
<ele>263.5</ele>
<desc>Speed 37.7 km/h Distance 25.51 km</desc>
<time>2011-05-22T09:12:49.66</time>
<name>5827</name>
<sym>Dot</sym>
</trkpt>
<trkpt lat="39.928103" lon="-8.428517">
<ele>263.0</ele>
<desc>Speed 37.5 km/h Distance 25.52 km</desc>
<time>2011-05-22T09:12:50.66</time>
<name>5828</name>
<sym>Dot</sym>
</trkpt>
<trkpt lat="39.928013" lon="-8.428547">
<ele>262.5</ele>
<desc>Speed 37.1 km/h Distance 25.53 km</desc>
<time>2011-05-22T09:12:51.66</time>
<name>5829</name>
<sym>Dot</sym>
</trkpt>
<trkpt lat="39.927923" lon="-8.428573">
<ele>262.5</ele>
<desc>Speed 36.8 km/h Distance 25.54 km</desc>
<time>2011-05-22T09:12:52.66</time>
<name>5830</name>
<sym>Dot</sym>
</trkpt>
<trkpt lat="39.927832" lon="-8.428593">
<ele>262.0</ele>
<desc>Speed 36.8 km/h Distance 25.55 km</desc>
<time>2011-05-22T09:12:53.66</time>
<name>5831</name>
<sym>Dot</sym>
</trkpt>
<trkpt lat="39.927743" lon="-8.428607">
<ele>261.5</ele>
<desc>Speed 36.0 km/h Distance 25.56 km</desc>
<time>2011-05-22T09:12:54.66</time>
<name>5832</name>
<sym>Dot</sym>
</trkpt>
<trkpt lat="39.927655" lon="-8.428620">
<ele>261.0</ele>
<desc>Speed 35.3 km/h Distance 25.57 km</desc>
<time>2011-05-22T09:12:55.66</time>
<name>5833</name>
<sym>Dot</sym>
</trkpt>
<trkpt lat="39.927568" lon="-8.428632">
<ele>261.5</ele>
<desc>Speed 34.6 km/h Distance 25.58 km</desc>
<time>2011-05-22T09:12:56.66</time>
<name>5834</name>
<sym>Dot</sym>
</trkpt>
<trkpt lat="39.927482" lon="-8.428650">
<ele>261.5</ele>
<desc>Speed 35.0 km/h Distance 25.59 km</desc>
<time>2011-05-22T09:12:57.66</time>
<name>5835</name>
<sym>Dot</sym>
</trkpt>
<trkpt lat="39.927397" lon="-8.428665">
<ele>262.0</ele>
<desc>Speed 34.2 km/h Distance 25.60 km</desc>
<time>2011-05-22T09:12:58.66</time>
<name>5836</name>
<sym>Dot</sym>
</trkpt>
<trkpt lat="39.927313" lon="-8.428683">
<ele>261.0</ele>
<desc>Speed 33.6 km/h Distance 25.61 km</desc>
<time>2011-05-22T09:12:59.66</time>
<name>5837</name>
<sym>Dot</sym>
</trkpt>
<trkpt lat="39.927228" lon="-8.428698">
<ele>261.0</ele>
<desc>Speed 34.1 km/h Distance 25.62 km</desc>
<time>2011-05-22T09:13:00.65</time>
<name>5838</name>
<sym>Dot</sym>
</trkpt>
<trkpt lat="39.927147" lon="-8.428713">
<ele>261.0</ele>
<desc>Speed 33.2 km/h Distance 25.63 km</desc>
<time>2011-05-22T09:13:01.65</time>
<name>5839</name>
<sym>Dot</sym>
</trkpt>
<trkpt lat="39.927065" lon="-8.428727">
<ele>261.0</ele>
<desc>Speed 32.7 km/h Distance 25.64 km</desc>
<time>2011-05-22T09:13:02.65</time>
<name>5840</name>
<sym>Dot</sym>
</trkpt>
<trkpt lat="39.926987" lon="-8.428740">
<ele>260.5</ele>
<desc>Speed 31.7 km/h Distance 25.65 km</desc>
<time>2011-05-22T09:13:03.65</time>
<name>5841</name>
<sym>Dot</sym>
</trkpt>
<trkpt lat="39.926910" lon="-8.428750">
<ele>260.0</ele>
<desc>Speed 31.0 km/h Distance 25.65 km</desc>
<time>2011-05-22T09:13:04.65</time>
<name>5842</name>
<sym>Dot</sym>
</trkpt>
<trkpt lat="39.926835" lon="-8.428763">
<ele>260.0</ele>
<desc>Speed 29.9 km/h Distance 25.66 km</desc>
<time>2011-05-22T09:13:05.65</time>
<name>5843</name>
<sym>Dot</sym>
</trkpt>
<trkpt lat="39.926762" lon="-8.428777">
<ele>260.5</ele>
<desc>Speed 29.7 km/h Distance 25.67 km</desc>
<time>2011-05-22T09:13:06.65</time>
<name>5844</name>
<sym>Dot</sym>
</trkpt>
<trkpt lat="39.926690" lon="-8.428788">
<ele>260.0</ele>
<desc>Speed 28.8 km/h Distance 25.68 km</desc>
<time>2011-05-22T09:13:07.65</time>
<name>5845</name>
<sym>Dot</sym>
</trkpt>
<trkpt lat="39.926617" lon="-8.428802">
<ele>259.5</ele>
<desc>Speed 29.1 km/h Distance 25.69 km</desc>
<time>2011-05-22T09:13:08.65</time>
<name>5846</name>
<sym>Dot</sym>
</trkpt>
<trkpt lat="39.926545" lon="-8.428815">
<ele>260.0</ele>
<desc>Speed 29.0 km/h Distance 25.70 km</desc>
<time>2011-05-22T09:13:09.65</time>
<name>5847</name>
<sym>Dot</sym>
</trkpt>
<trkpt lat="39.926475" lon="-8.428827">
<ele>259.5</ele>
<desc>Speed 27.6 km/h Distance 25.70 km</desc>
<time>2011-05-22T09:13:10.65</time>
<name>5848</name>
<sym>Dot</sym>
</trkpt>
<trkpt lat="39.926405" lon="-8.428840">
<ele>258.5</ele>
<desc>Speed 28.0 km/h Distance 25.71 km</desc>
<time>2011-05-22T09:13:11.65</time>
<name>5849</name>
<sym>Dot</sym>
</trkpt>
<trkpt lat="39.926335" lon="-8.428853">
<ele>258.0</ele>
<desc>Speed 28.2 km/h Distance 25.72 km</desc>
<time>2011-05-22T09:13:12.65</time>
<name>5850</name>
<sym>Dot</sym>
</trkpt>
<trkpt lat="39.926263" lon="-8.428868">
<ele>258.0</ele>
<desc>Speed 28.7 km/h Distance 25.73 km</desc>
<time>2011-05-22T09:13:13.65</time>
<name>5851</name>
<sym>Dot</sym>
</trkpt>
<trkpt lat="39.926192" lon="-8.428882">
<ele>258.0</ele>
<desc>Speed 29.0 km/h Distance 25.74 km</desc>
<time>2011-05-22T09:13:14.65</time>
<name>5852</name>
<sym>Dot</sym>
</trkpt>
<trkpt lat="39.926120" lon="-8.428898">
<ele>258.0</ele>
<desc>Speed 29.3 km/h Distance 25.74 km</desc>
<time>2011-05-22T09:13:15.65</time>
<name>5853</name>
<sym>Dot</sym>
</trkpt>
<trkpt lat="39.926045" lon="-8.428917">
<ele>258.0</ele>
<desc>Speed 29.6 km/h Distance 25.75 km</desc>
<time>2011-05-22T09:13:16.65</time>
<name>5854</name>
<sym>Dot</sym>
</trkpt>
<trkpt lat="39.925975" lon="-8.428935">
<ele>257.0</ele>
<desc>Speed 29.1 km/h Distance 25.76 km</desc>
<time>2011-05-22T09:13:17.65</time>
<name>5855</name>
<sym>Dot</sym>
</trkpt>
<trkpt lat="39.925905" lon="-8.428955">
<ele>257.0</ele>
<desc>Speed 28.5 km/h Distance 25.77 km</desc>
<time>2011-05-22T09:13:18.65</time>
<name>5856</name>
<sym>Dot</sym>
</trkpt>
<trkpt lat="39.925835" lon="-8.428980">
<ele>256.5</ele>
<desc>Speed 28.7 km/h Distance 25.78 km</desc>
<time>2011-05-22T09:13:19.65</time>
<name>5857</name>
<sym>Dot</sym>
</trkpt>
<trkpt lat="39.925767" lon="-8.429008">
<ele>256.5</ele>
<desc>Speed 28.2 km/h Distance 25.78 km</desc>
<time>2011-05-22T09:13:20.65</time>
<name>5858</name>
<sym>Dot</sym>
</trkpt>
<trkpt lat="39.925700" lon="-8.429035">
<ele>256.5</ele>
<desc>Speed 27.8 km/h Distance 25.79 km</desc>
<time>2011-05-22T09:13:21.65</time>
<name>5859</name>
<sym>Dot</sym>
</trkpt>
<trkpt lat="39.925633" lon="-8.429062">
<ele>256.5</ele>
<desc>Speed 27.7 km/h Distance 25.80 km</desc>
<time>2011-05-22T09:13:22.65</time>
<name>5860</name>
<sym>Dot</sym>
</trkpt>
<trkpt lat="39.925568" lon="-8.429087">
<ele>256.5</ele>
<desc>Speed 26.9 km/h Distance 25.81 km</desc>
<time>2011-05-22T09:13:23.65</time>
<name>5861</name>
<sym>Dot</sym>
</trkpt>
<trkpt lat="39.925503" lon="-8.429112">
<ele>256.5</ele>
<desc>Speed 26.9 km/h Distance 25.81 km</desc>
<time>2011-05-22T09:13:24.65</time>
<name>5862</name>
<sym>Dot</sym>
</trkpt>
<trkpt lat="39.925442" lon="-8.429137">
<ele>256.5</ele>
<desc>Speed 26.0 km/h Distance 25.82 km</desc>
<time>2011-05-22T09:13:25.65</time>
<name>5863</name>
<sym>Dot</sym>
</trkpt>
<trkpt lat="39.925378" lon="-8.429162">
<ele>256.5</ele>
<desc>Speed 26.0 km/h Distance 25.83 km</desc>
<time>2011-05-22T09:13:26.65</time>
<name>5864</name>
<sym>Dot</sym>
</trkpt>
<trkpt lat="39.925320" lon="-8.429183">
<ele>257.0</ele>
<desc>Speed 24.2 km/h Distance 25.84 km</desc>
<time>2011-05-22T09:13:27.65</time>
<name>5865</name>
<sym>Dot</sym>
</trkpt>
<trkpt lat="39.925258" lon="-8.429205">
<ele>256.5</ele>
<desc>Speed 25.6 km/h Distance 25.84 km</desc>
<time>2011-05-22T09:13:28.65</time>
<name>5866</name>
<sym>Dot</sym>
</trkpt>
<trkpt lat="39.925193" lon="-8.429228">
<ele>257.0</ele>
<desc>Speed 26.9 km/h Distance 25.85 km</desc>
<time>2011-05-22T09:13:29.65</time>
<name>5867</name>
<sym>Dot</sym>
</trkpt>
<trkpt lat="39.925130" lon="-8.429252">
<ele>257.0</ele>
<desc>Speed 26.4 km/h Distance 25.86 km</desc>
<time>2011-05-22T09:13:30.65</time>
<name>5868</name>
<sym>Dot</sym>
</trkpt>
<trkpt lat="39.925067" lon="-8.429270">
<ele>256.5</ele>
<desc>Speed 25.6 km/h Distance 25.87 km</desc>
<time>2011-05-22T09:13:31.65</time>
<name>5869</name>
<sym>Dot</sym>
</trkpt>
<trkpt lat="39.925005" lon="-8.429287">
<ele>256.5</ele>
<desc>Speed 25.3 km/h Distance 25.87 km</desc>
<time>2011-05-22T09:13:32.65</time>
<name>5870</name>
<sym>Dot</sym>
</trkpt>
<trkpt lat="39.924942" lon="-8.429305">
<ele>256.5</ele>
<desc>Speed 25.4 km/h Distance 25.88 km</desc>
<time>2011-05-22T09:13:33.65</time>
<name>5871</name>
<sym>Dot</sym>
</trkpt>
<trkpt lat="39.924880" lon="-8.429323">
<ele>257.0</ele>
<desc>Speed 25.4 km/h Distance 25.89 km</desc>
<time>2011-05-22T09:13:34.65</time>
<name>5872</name>
<sym>Dot</sym>
</trkpt>
<trkpt lat="39.924818" lon="-8.429342">
<ele>257.0</ele>
<desc>Speed 25.5 km/h Distance 25.89 km</desc>
<time>2011-05-22T09:13:35.65</time>
<name>5873</name>
<sym>Dot</sym>
</trkpt>
<trkpt lat="39.924755" lon="-8.429357">
<ele>257.0</ele>
<desc>Speed 26.1 km/h Distance 25.90 km</desc>
<time>2011-05-22T09:13:36.65</time>
<name>5874</name>
<sym>Dot</sym>
</trkpt>
<trkpt lat="39.924692" lon="-8.429373">
<ele>256.5</ele>
<desc>Speed 26.1 km/h Distance 25.91 km</desc>
<time>2011-05-22T09:13:37.65</time>
<name>5875</name>
<sym>Dot</sym>
</trkpt>
<trkpt lat="39.924627" lon="-8.429392">
<ele>256.0</ele>
<desc>Speed 26.4 km/h Distance 25.92 km</desc>
<time>2011-05-22T09:13:38.65</time>
<name>5876</name>
<sym>Dot</sym>
</trkpt>
<trkpt lat="39.924562" lon="-8.429407">
<ele>256.0</ele>
<desc>Speed 26.3 km/h Distance 25.92 km</desc>
<time>2011-05-22T09:13:39.65</time>
<name>5877</name>
<sym>Dot</sym>
</trkpt>
<trkpt lat="39.924498" lon="-8.429423">
<ele>256.0</ele>
<desc>Speed 26.0 km/h Distance 25.93 km</desc>
<time>2011-05-22T09:13:40.65</time>
<name>5878</name>
<sym>Dot</sym>
</trkpt>
<trkpt lat="39.924437" lon="-8.429440">
<ele>255.5</ele>
<desc>Speed 25.7 km/h Distance 25.94 km</desc>
<time>2011-05-22T09:13:41.65</time>
<name>5879</name>
<sym>Dot</sym>
</trkpt>
<trkpt lat="39.924372" lon="-8.429457">
<ele>255.5</ele>
<desc>Speed 26.1 km/h Distance 25.94 km</desc>
<time>2011-05-22T09:13:42.65</time>
<name>5880</name>
<sym>Dot</sym>
</trkpt>
<trkpt lat="39.924308" lon="-8.429473">
<ele>256.0</ele>
<desc>Speed 26.0 km/h Distance 25.95 km</desc>
<time>2011-05-22T09:13:43.65</time>
<name>5881</name>
<sym>Dot</sym>
</trkpt>
<trkpt lat="39.924247" lon="-8.429495">
<ele>255.0</ele>
<desc>Speed 26.0 km/h Distance 25.96 km</desc>
<time>2011-05-22T09:13:44.65</time>
<name>5882</name>
<sym>Dot</sym>
</trkpt>
<trkpt lat="39.924182" lon="-8.429513">
<ele>255.5</ele>
<desc>Speed 26.4 km/h Distance 25.97 km</desc>
<time>2011-05-22T09:13:45.65</time>
<name>5883</name>
<sym>Dot</sym>
</trkpt>
<trkpt lat="39.924118" lon="-8.429530">
<ele>255.5</ele>
<desc>Speed 26.1 km/h Distance 25.97 km</desc>
<time>2011-05-22T09:13:46.65</time>
<name>5884</name>
<sym>Dot</sym>
</trkpt>
<trkpt lat="39.924055" lon="-8.429543">
<ele>255.5</ele>
<desc>Speed 25.8 km/h Distance 25.98 km</desc>
<time>2011-05-22T09:13:47.65</time>
<name>5885</name>
<sym>Dot</sym>
</trkpt>
<trkpt lat="39.923992" lon="-8.429560">
<ele>256.0</ele>
<desc>Speed 26.0 km/h Distance 25.99 km</desc>
<time>2011-05-22T09:13:48.65</time>
<name>5886</name>
<sym>Dot</sym>
</trkpt>
<trkpt lat="39.923928" lon="-8.429575">
<ele>256.0</ele>
<desc>Speed 25.7 km/h Distance 25.99 km</desc>
<time>2011-05-22T09:13:49.65</time>
<name>5887</name>
<sym>Dot</sym>
</trkpt>
<trkpt lat="39.923867" lon="-8.429590">
<ele>256.0</ele>
<desc>Speed 25.9 km/h Distance 26.00 km</desc>
<time>2011-05-22T09:13:50.65</time>
<name>5888</name>
<sym>Dot</sym>
</trkpt>
<trkpt lat="39.923803" lon="-8.429607">
<ele>256.0</ele>
<desc>Speed 25.9 km/h Distance 26.01 km</desc>
<time>2011-05-22T09:13:51.65</time>
<name>5889</name>
<sym>Dot</sym>
</trkpt>
<trkpt lat="39.923742" lon="-8.429622">
<ele>256.5</ele>
<desc>Speed 25.5 km/h Distance 26.02 km</desc>
<time>2011-05-22T09:13:52.65</time>
<name>5890</name>
<sym>Dot</sym>
</trkpt>
<trkpt lat="39.923680" lon="-8.429635">
<ele>256.0</ele>
<desc>Speed 25.3 km/h Distance 26.02 km</desc>
<time>2011-05-22T09:13:53.65</time>
<name>5891</name>
<sym>Dot</sym>
</trkpt>
<trkpt lat="39.923617" lon="-8.429648">
<ele>256.5</ele>
<desc>Speed 25.5 km/h Distance 26.03 km</desc>
<time>2011-05-22T09:13:54.65</time>
<name>5892</name>
<sym>Dot</sym>
</trkpt>
<trkpt lat="39.923555" lon="-8.429662">
<ele>257.0</ele>
<desc>Speed 25.2 km/h Distance 26.04 km</desc>
<time>2011-05-22T09:13:55.65</time>
<name>5893</name>
<sym>Dot</sym>
</trkpt>
<trkpt lat="39.923493" lon="-8.429672">
<ele>258.0</ele>
<desc>Speed 25.0 km/h Distance 26.04 km</desc>
<time>2011-05-22T09:13:56.65</time>
<name>5894</name>
<sym>Dot</sym>
</trkpt>
<trkpt lat="39.923433" lon="-8.429682">
<ele>258.5</ele>
<desc>Speed 24.9 km/h Distance 26.05 km</desc>
<time>2011-05-22T09:13:57.65</time>
<name>5895</name>
<sym>Dot</sym>
</trkpt>
<trkpt lat="39.923373" lon="-8.429695">
<ele>259.0</ele>
<desc>Speed 24.6 km/h Distance 26.06 km</desc>
<time>2011-05-22T09:13:58.65</time>
<name>5896</name>
<sym>Dot</sym>
</trkpt>
<trkpt lat="39.923313" lon="-8.429710">
<ele>259.5</ele>
<desc>Speed 24.6 km/h Distance 26.06 km</desc>
<time>2011-05-22T09:13:59.65</time>
<name>5897</name>
<sym>Dot</sym>
</trkpt>
<trkpt lat="39.923253" lon="-8.429725">
<ele>259.5</ele>
<desc>Speed 24.7 km/h Distance 26.07 km</desc>
<time>2011-05-22T09:14:00.65</time>
<name>5898</name>
<sym>Dot</sym>
</trkpt>
<trkpt lat="39.923192" lon="-8.429743">
<ele>260.0</ele>
<desc>Speed 25.3 km/h Distance 26.08 km</desc>
<time>2011-05-22T09:14:01.65</time>
<name>5899</name>
<sym>Dot</sym>
</trkpt>
<trkpt lat="39.923130" lon="-8.429758">
<ele>259.5</ele>
<desc>Speed 25.3 km/h Distance 26.09 km</desc>
<time>2011-05-22T09:14:02.65</time>
<name>5900</name>
<sym>Dot</sym>
</trkpt>
<trkpt lat="39.923067" lon="-8.429777">
<ele>259.5</ele>
<desc>Speed 25.7 km/h Distance 26.09 km</desc>
<time>2011-05-22T09:14:03.64</time>
<name>5901</name>
<sym>Dot</sym>
</trkpt>
<trkpt lat="39.923003" lon="-8.429795">
<ele>259.5</ele>
<desc>Speed 26.0 km/h Distance 26.10 km</desc>
<time>2011-05-22T09:14:04.64</time>
<name>5902</name>
<sym>Dot</sym>
</trkpt>
<trkpt lat="39.922940" lon="-8.429815">
<ele>259.5</ele>
<desc>Speed 26.2 km/h Distance 26.11 km</desc>
<time>2011-05-22T09:14:05.64</time>
<name>5903</name>
<sym>Dot</sym>
</trkpt>
<trkpt lat="39.922877" lon="-8.429837">
<ele>259.5</ele>
<desc>Speed 26.4 km/h Distance 26.11 km</desc>
<time>2011-05-22T09:14:06.64</time>
<name>5904</name>
<sym>Dot</sym>
</trkpt>
<trkpt lat="39.922815" lon="-8.429863">
<ele>259.5</ele>
<desc>Speed 26.7 km/h Distance 26.12 km</desc>
<time>2011-05-22T09:14:07.64</time>
<name>5905</name>
<sym>Dot</sym>
</trkpt>
<trkpt lat="39.922753" lon="-8.429898">
<ele>259.0</ele>
<desc>Speed 26.9 km/h Distance 26.13 km</desc>
<time>2011-05-22T09:14:08.64</time>
<name>5906</name>
<sym>Dot</sym>
</trkpt>
<trkpt lat="39.922693" lon="-8.429937">
<ele>259.0</ele>
<desc>Speed 27.1 km/h Distance 26.14 km</desc>
<time>2011-05-22T09:14:09.64</time>
<name>5907</name>
<sym>Dot</sym>
</trkpt>
<trkpt lat="39.922633" lon="-8.429977">
<ele>259.0</ele>
<desc>Speed 26.9 km/h Distance 26.14 km</desc>
<time>2011-05-22T09:14:10.64</time>
<name>5908</name>
<sym>Dot</sym>
</trkpt>
<trkpt lat="39.922575" lon="-8.430020">
<ele>258.5</ele>
<desc>Speed 27.0 km/h Distance 26.15 km</desc>
<time>2011-05-22T09:14:11.64</time>
<name>5909</name>
<sym>Dot</sym>
</trkpt>
<trkpt lat="39.922518" lon="-8.430065">
<ele>258.5</ele>
<desc>Speed 27.0 km/h Distance 26.16 km</desc>
<time>2011-05-22T09:14:12.64</time>
<name>5910</name>
<sym>Dot</sym>
</trkpt>
<trkpt lat="39.922462" lon="-8.430112">
<ele>258.5</ele>
<desc>Speed 27.2 km/h Distance 26.17 km</desc>
<time>2011-05-22T09:14:13.64</time>
<name>5911</name>
<sym>Dot</sym>
</trkpt>
<trkpt lat="39.922405" lon="-8.430158">
<ele>258.5</ele>
<desc>Speed 27.3 km/h Distance 26.17 km</desc>
<time>2011-05-22T09:14:14.64</time>
<name>5912</name>
<sym>Dot</sym>
</trkpt>
<trkpt lat="39.922345" lon="-8.430203">
<ele>258.5</ele>
<desc>Speed 27.8 km/h Distance 26.18 km</desc>
<time>2011-05-22T09:14:15.64</time>
<name>5913</name>
<sym>Dot</sym>
</trkpt>
<trkpt lat="39.922287" lon="-8.430250">
<ele>258.5</ele>
<desc>Speed 28.0 km/h Distance 26.19 km</desc>
<time>2011-05-22T09:14:16.64</time>
<name>5914</name>
<sym>Dot</sym>
</trkpt>
<trkpt lat="39.922227" lon="-8.430297">
<ele>258.5</ele>
<desc>Speed 28.2 km/h Distance 26.20 km</desc>
<time>2011-05-22T09:14:17.64</time>
<name>5915</name>
<sym>Dot</sym>
</trkpt>
<trkpt lat="39.922165" lon="-8.430340">
<ele>258.0</ele>
<desc>Speed 28.5 km/h Distance 26.20 km</desc>
<time>2011-05-22T09:14:18.64</time>
<name>5916</name>
<sym>Dot</sym>
</trkpt>
<trkpt lat="39.922102" lon="-8.430380">
<ele>258.0</ele>
<desc>Speed 28.2 km/h Distance 26.21 km</desc>
<time>2011-05-22T09:14:19.64</time>
<name>5917</name>
<sym>Dot</sym>
</trkpt>
<trkpt lat="39.922037" lon="-8.430418">
<ele>257.5</ele>
<desc>Speed 28.4 km/h Distance 26.22 km</desc>
<time>2011-05-22T09:14:20.64</time>
<name>5918</name>
<sym>Dot</sym>
</trkpt>
<trkpt lat="39.921972" lon="-8.430453">
<ele>257.5</ele>
<desc>Speed 28.5 km/h Distance 26.23 km</desc>
<time>2011-05-22T09:14:21.64</time>
<name>5919</name>
<sym>Dot</sym>
</trkpt>
<trkpt lat="39.921903" lon="-8.430485">
<ele>257.0</ele>
<desc>Speed 28.8 km/h Distance 26.24 km</desc>
<time>2011-05-22T09:14:22.64</time>
<name>5920</name>
<sym>Dot</sym>
</trkpt>
<trkpt lat="39.921835" lon="-8.430513">
<ele>257.0</ele>
<desc>Speed 28.9 km/h Distance 26.24 km</desc>
<time>2011-05-22T09:14:23.64</time>
<name>5921</name>
<sym>Dot</sym>
</trkpt>
<trkpt lat="39.921765" lon="-8.430542">
<ele>256.5</ele>
<desc>Speed 28.9 km/h Distance 26.25 km</desc>
<time>2011-05-22T09:14:24.64</time>
<name>5922</name>
<sym>Dot</sym>
</trkpt>
<trkpt lat="39.921697" lon="-8.430570">
<ele>256.0</ele>
<desc>Speed 29.0 km/h Distance 26.26 km</desc>
<time>2011-05-22T09:14:25.64</time>
<name>5923</name>
<sym>Dot</sym>
</trkpt>
<trkpt lat="39.921628" lon="-8.430597">
<ele>256.0</ele>
<desc>Speed 28.8 km/h Distance 26.27 km</desc>
<time>2011-05-22T09:14:26.64</time>
<name>5924</name>
<sym>Dot</sym>
</trkpt>
<trkpt lat="39.921558" lon="-8.430625">
<ele>256.0</ele>
<desc>Speed 29.0 km/h Distance 26.28 km</desc>
<time>2011-05-22T09:14:27.64</time>
<name>5925</name>
<sym>Dot</sym>
</trkpt>
<trkpt lat="39.921490" lon="-8.430652">
<ele>255.5</ele>
<desc>Speed 28.7 km/h Distance 26.28 km</desc>
<time>2011-05-22T09:14:28.64</time>
<name>5926</name>
<sym>Dot</sym>
</trkpt>
<trkpt lat="39.921422" lon="-8.430678">
<ele>255.5</ele>
<desc>Speed 28.7 km/h Distance 26.29 km</desc>
<time>2011-05-22T09:14:29.64</time>
<name>5927</name>
<sym>Dot</sym>
</trkpt>
<trkpt lat="39.921352" lon="-8.430707">
<ele>255.5</ele>
<desc>Speed 29.1 km/h Distance 26.30 km</desc>
<time>2011-05-22T09:14:30.64</time>
<name>5928</name>
<sym>Dot</sym>
</trkpt>
<trkpt lat="39.921282" lon="-8.430733">
<ele>255.5</ele>
<desc>Speed 29.1 km/h Distance 26.31 km</desc>
<time>2011-05-22T09:14:31.64</time>
<name>5929</name>
<sym>Dot</sym>
</trkpt>
<trkpt lat="39.921212" lon="-8.430760">
<ele>255.5</ele>
<desc>Speed 29.3 km/h Distance 26.32 km</desc>
<time>2011-05-22T09:14:32.64</time>
<name>5930</name>
<sym>Dot</sym>
</trkpt>
<trkpt lat="39.921143" lon="-8.430787">
<ele>255.5</ele>
<desc>Speed 29.2 km/h Distance 26.32 km</desc>
<time>2011-05-22T09:14:33.64</time>
<name>5931</name>
<sym>Dot</sym>
</trkpt>
<trkpt lat="39.921073" lon="-8.430813">
<ele>255.0</ele>
<desc>Speed 29.1 km/h Distance 26.33 km</desc>
<time>2011-05-22T09:14:34.64</time>
<name>5932</name>
<sym>Dot</sym>
</trkpt>
<trkpt lat="39.921005" lon="-8.430840">
<ele>255.5</ele>
<desc>Speed 28.8 km/h Distance 26.34 km</desc>
<time>2011-05-22T09:14:35.64</time>
<name>5933</name>
<sym>Dot</sym>
</trkpt>
<trkpt lat="39.920935" lon="-8.430867">
<ele>255.5</ele>
<desc>Speed 28.9 km/h Distance 26.35 km</desc>
<time>2011-05-22T09:14:36.64</time>
<name>5934</name>
<sym>Dot</sym>
</trkpt>
<trkpt lat="39.920865" lon="-8.430888">
<ele>255.5</ele>
<desc>Speed 29.2 km/h Distance 26.36 km</desc>
<time>2011-05-22T09:14:37.64</time>
<name>5935</name>
<sym>Dot</sym>
</trkpt>
<trkpt lat="39.920793" lon="-8.430907">
<ele>255.5</ele>
<desc>Speed 28.9 km/h Distance 26.36 km</desc>
<time>2011-05-22T09:14:38.64</time>
<name>5936</name>
<sym>Dot</sym>
</trkpt>
<trkpt lat="39.920720" lon="-8.430922">
<ele>255.0</ele>
<desc>Speed 29.7 km/h Distance 26.37 km</desc>
<time>2011-05-22T09:14:39.64</time>
<name>5937</name>
<sym>Dot</sym>
</trkpt>
<trkpt lat="39.920647" lon="-8.430925">
<ele>255.0</ele>
<desc>Speed 29.6 km/h Distance 26.38 km</desc>
<time>2011-05-22T09:14:40.64</time>
<name>5938</name>
<sym>Dot</sym>
</trkpt>
<trkpt lat="39.920573" lon="-8.430920">
<ele>255.0</ele>
<desc>Speed 29.7 km/h Distance 26.39 km</desc>
<time>2011-05-22T09:14:41.64</time>
<name>5939</name>
<sym>Dot</sym>
</trkpt>
<trkpt lat="39.920497" lon="-8.430908">
<ele>254.5</ele>
<desc>Speed 30.9 km/h Distance 26.40 km</desc>
<time>2011-05-22T09:14:42.64</time>
<name>5940</name>
<sym>Dot</sym>
</trkpt>
<trkpt lat="39.920420" lon="-8.430893">
<ele>254.5</ele>
<desc>Speed 30.5 km/h Distance 26.41 km</desc>
<time>2011-05-22T09:14:43.64</time>
<name>5941</name>
<sym>Dot</sym>
</trkpt>
<trkpt lat="39.920345" lon="-8.430877">
<ele>254.5</ele>
<desc>Speed 30.6 km/h Distance 26.42 km</desc>
<time>2011-05-22T09:14:44.64</time>
<name>5942</name>
<sym>Dot</sym>
</trkpt>
<trkpt lat="39.920272" lon="-8.430853">
<ele>254.0</ele>
<desc>Speed 30.7 km/h Distance 26.42 km</desc>
<time>2011-05-22T09:14:45.64</time>
<name>5943</name>
<sym>Dot</sym>
</trkpt>
<trkpt lat="39.920198" lon="-8.430832">
<ele>254.0</ele>
<desc>Speed 30.3 km/h Distance 26.43 km</desc>
<time>2011-05-22T09:14:46.64</time>
<name>5944</name>
<sym>Dot</sym>
</trkpt>
<trkpt lat="39.920125" lon="-8.430808">
<ele>254.0</ele>
<desc>Speed 30.5 km/h Distance 26.44 km</desc>
<time>2011-05-22T09:14:47.80</time>
<name>5945</name>
<sym>Dot</sym>
</trkpt>
<trkpt lat="39.920052" lon="-8.430783">
<ele>254.0</ele>
<desc>Speed 30.5 km/h Distance 26.45 km</desc>
<time>2011-05-22T09:14:48.65</time>
<name>5946</name>
<sym>Dot</sym>
</trkpt>
<trkpt lat="39.919978" lon="-8.430758">
<ele>254.5</ele>
<desc>Speed 30.5 km/h Distance 26.46 km</desc>
<time>2011-05-22T09:14:49.65</time>
<name>5947</name>
<sym>Dot</sym>
</trkpt>
<trkpt lat="39.919905" lon="-8.430735">
<ele>254.5</ele>
<desc>Speed 30.4 km/h Distance 26.47 km</desc>
<time>2011-05-22T09:14:50.65</time>
<name>5948</name>
<sym>Dot</sym>
</trkpt>
<trkpt lat="39.919833" lon="-8.430713">
<ele>255.0</ele>
<desc>Speed 30.1 km/h Distance 26.47 km</desc>
<time>2011-05-22T09:14:51.65</time>
<name>5949</name>
<sym>Dot</sym>
</trkpt>
<trkpt lat="39.919758" lon="-8.430690">
<ele>255.0</ele>
<desc>Speed 30.3 km/h Distance 26.48 km</desc>
<time>2011-05-22T09:14:52.65</time>
<name>5950</name>
<sym>Dot</sym>
</trkpt>
<trkpt lat="39.919685" lon="-8.430667">
<ele>255.5</ele>
<desc>Speed 30.7 km/h Distance 26.49 km</desc>
<time>2011-05-22T09:14:53.65</time>
<name>5951</name>
<sym>Dot</sym>
</trkpt>
<trkpt lat="39.919612" lon="-8.430645">
<ele>255.5</ele>
<desc>Speed 30.5 km/h Distance 26.50 km</desc>
<time>2011-05-22T09:14:54.65</time>
<name>5952</name>
<sym>Dot</sym>
</trkpt>
<trkpt lat="39.919538" lon="-8.430622">
<ele>256.0</ele>
<desc>Speed 30.2 km/h Distance 26.51 km</desc>
<time>2011-05-22T09:14:55.65</time>
<name>5953</name>
<sym>Dot</sym>
</trkpt>
<trkpt lat="39.919465" lon="-8.430602">
<ele>256.0</ele>
<desc>Speed 29.8 km/h Distance 26.52 km</desc>
<time>2011-05-22T09:14:56.65</time>
<name>5954</name>
<sym>Dot</sym>
</trkpt>
<trkpt lat="39.919393" lon="-8.430582">
<ele>255.5</ele>
<desc>Speed 29.8 km/h Distance 26.52 km</desc>
<time>2011-05-22T09:14:57.65</time>
<name>5955</name>
<sym>Dot</sym>
</trkpt>
<trkpt lat="39.919322" lon="-8.430558">
<ele>255.5</ele>
<desc>Speed 29.6 km/h Distance 26.53 km</desc>
<time>2011-05-22T09:14:58.65</time>
<name>5956</name>
<sym>Dot</sym>
</trkpt>
<trkpt lat="39.919250" lon="-8.430533">
<ele>256.0</ele>
<desc>Speed 29.4 km/h Distance 26.54 km</desc>
<time>2011-05-22T09:14:59.65</time>
<name>5957</name>
<sym>Dot</sym>
</trkpt>
<trkpt lat="39.919180" lon="-8.430510">
<ele>255.5</ele>
<desc>Speed 29.3 km/h Distance 26.55 km</desc>
<time>2011-05-22T09:15:00.65</time>
<name>5958</name>
<sym>Dot</sym>
</trkpt>
<trkpt lat="39.919108" lon="-8.430488">
<ele>255.5</ele>
<desc>Speed 29.2 km/h Distance 26.56 km</desc>
<time>2011-05-22T09:15:01.65</time>
<name>5959</name>
<sym>Dot</sym>
</trkpt>
<trkpt lat="39.919038" lon="-8.430465">
<ele>255.5</ele>
<desc>Speed 29.1 km/h Distance 26.56 km</desc>
<time>2011-05-22T09:15:02.65</time>
<name>5960</name>
<sym>Dot</sym>
</trkpt>
<trkpt lat="39.918970" lon="-8.430442">
<ele>255.5</ele>
<desc>Speed 28.7 km/h Distance 26.57 km</desc>
<time>2011-05-22T09:15:03.65</time>
<name>5961</name>
<sym>Dot</sym>
</trkpt>
<trkpt lat="39.918902" lon="-8.430422">
<ele>256.0</ele>
<desc>Speed 28.2 km/h Distance 26.58 km</desc>
<time>2011-05-22T09:15:04.65</time>
<name>5962</name>
<sym>Dot</sym>
</trkpt>
<trkpt lat="39.918833" lon="-8.430403">
<ele>255.5</ele>
<desc>Speed 27.9 km/h Distance 26.59 km</desc>
<time>2011-05-22T09:15:05.65</time>
<name>5963</name>
<sym>Dot</sym>
</trkpt>
<trkpt lat="39.918765" lon="-8.430387">
<ele>256.0</ele>
<desc>Speed 28.1 km/h Distance 26.60 km</desc>
<time>2011-05-22T09:15:06.65</time>
<name>5964</name>
<sym>Dot</sym>
</trkpt>
<trkpt lat="39.918695" lon="-8.430368">
<ele>256.0</ele>
<desc>Speed 28.4 km/h Distance 26.60 km</desc>
<time>2011-05-22T09:15:07.65</time>
<name>5965</name>
<sym>Dot</sym>
</trkpt>
<trkpt lat="39.918625" lon="-8.430352">
<ele>255.5</ele>
<desc>Speed 28.7 km/h Distance 26.61 km</desc>
<time>2011-05-22T09:15:08.65</time>
<name>5966</name>
<sym>Dot</sym>
</trkpt>
<trkpt lat="39.918557" lon="-8.430333">
<ele>255.0</ele>
<desc>Speed 28.4 km/h Distance 26.62 km</desc>
<time>2011-05-22T09:15:09.65</time>
<name>5967</name>
<sym>Dot</sym>
</trkpt>
<trkpt lat="39.918487" lon="-8.430317">
<ele>255.0</ele>
<desc>Speed 28.7 km/h Distance 26.63 km</desc>
<time>2011-05-22T09:15:10.65</time>
<name>5968</name>
<sym>Dot</sym>
</trkpt>
<trkpt lat="39.918415" lon="-8.430307">
<ele>255.0</ele>
<desc>Speed 28.8 km/h Distance 26.64 km</desc>
<time>2011-05-22T09:15:11.65</time>
<name>5969</name>
<sym>Dot</sym>
</trkpt>
<trkpt lat="39.918343" lon="-8.430307">
<ele>255.0</ele>
<desc>Speed 28.8 km/h Distance 26.64 km</desc>
<time>2011-05-22T09:15:12.65</time>
<name>5970</name>
<sym>Dot</sym>
</trkpt>
<trkpt lat="39.918272" lon="-8.430313">
<ele>255.0</ele>
<desc>Speed 29.0 km/h Distance 26.65 km</desc>
<time>2011-05-22T09:15:13.65</time>
<name>5971</name>
<sym>Dot</sym>
</trkpt>
<trkpt lat="39.918198" lon="-8.430328">
<ele>255.0</ele>
<desc>Speed 29.4 km/h Distance 26.66 km</desc>
<time>2011-05-22T09:15:14.65</time>
<name>5972</name>
<sym>Dot</sym>
</trkpt>
<trkpt lat="39.918128" lon="-8.430353">
<ele>255.0</ele>
<desc>Speed 29.4 km/h Distance 26.67 km</desc>
<time>2011-05-22T09:15:15.65</time>
<name>5973</name>
<sym>Dot</sym>
</trkpt>
<trkpt lat="39.918062" lon="-8.430390">
<ele>254.5</ele>
<desc>Speed 29.1 km/h Distance 26.68 km</desc>
<time>2011-05-22T09:15:16.65</time>
<name>5974</name>
<sym>Dot</sym>
</trkpt>
<trkpt lat="39.917997" lon="-8.430435">
<ele>254.5</ele>
<desc>Speed 29.1 km/h Distance 26.68 km</desc>
<time>2011-05-22T09:15:17.65</time>
<name>5975</name>
<sym>Dot</sym>
</trkpt>
<trkpt lat="39.917938" lon="-8.430487">
<ele>254.5</ele>
<desc>Speed 28.4 km/h Distance 26.69 km</desc>
<time>2011-05-22T09:15:18.65</time>
<name>5976</name>
<sym>Dot</sym>
</trkpt>
<trkpt lat="39.917885" lon="-8.430540">
<ele>255.0</ele>
<desc>Speed 26.9 km/h Distance 26.70 km</desc>
<time>2011-05-22T09:15:19.65</time>
<name>5977</name>
<sym>Dot</sym>
</trkpt>
<trkpt lat="39.917835" lon="-8.430590">
<ele>255.5</ele>
<desc>Speed 25.1 km/h Distance 26.71 km</desc>
<time>2011-05-22T09:15:20.65</time>
<name>5978</name>
<sym>Dot</sym>
</trkpt>
<trkpt lat="39.917792" lon="-8.430638">
<ele>255.5</ele>
<desc>Speed 22.8 km/h Distance 26.71 km</desc>
<time>2011-05-22T09:15:21.65</time>
<name>5979</name>
<sym>Dot</sym>
</trkpt>
<trkpt lat="39.917753" lon="-8.430680">
<ele>256.5</ele>
<desc>Speed 20.7 km/h Distance 26.72 km</desc>
<time>2011-05-22T09:15:22.65</time>
<name>5980</name>
<sym>Dot</sym>
</trkpt>
<trkpt lat="39.917718" lon="-8.430722">
<ele>257.0</ele>
<desc>Speed 19.2 km/h Distance 26.72 km</desc>
<time>2011-05-22T09:15:23.65</time>
<name>5981</name>
<sym>Dot</sym>
</trkpt>
<trkpt lat="39.917685" lon="-8.430760">
<ele>257.0</ele>
<desc>Speed 17.9 km/h Distance 26.73 km</desc>
<time>2011-05-22T09:15:24.65</time>
<name>5982</name>
<sym>Dot</sym>
</trkpt>
<trkpt lat="39.917655" lon="-8.430797">
<ele>257.5</ele>
<desc>Speed 16.6 km/h Distance 26.73 km</desc>
<time>2011-05-22T09:15:25.65</time>
<name>5983</name>
<sym>Dot</sym>
</trkpt>
<trkpt lat="39.917628" lon="-8.430830">
<ele>258.0</ele>
<desc>Speed 15.1 km/h Distance 26.74 km</desc>
<time>2011-05-22T09:15:26.65</time>
<name>5984</name>
<sym>Dot</sym>
</trkpt>
<trkpt lat="39.917602" lon="-8.430862">
<ele>258.0</ele>
<desc>Speed 14.5 km/h Distance 26.74 km</desc>
<time>2011-05-22T09:15:27.65</time>
<name>5985</name>
<sym>Dot</sym>
</trkpt>
<trkpt lat="39.917575" lon="-8.430892">
<ele>258.0</ele>
<desc>Speed 14.2 km/h Distance 26.75 km</desc>
<time>2011-05-22T09:15:28.65</time>
<name>5986</name>
<sym>Dot</sym>
</trkpt>
<trkpt lat="39.917547" lon="-8.430922">
<ele>258.0</ele>
<desc>Speed 14.7 km/h Distance 26.75 km</desc>
<time>2011-05-22T09:15:29.65</time>
<name>5987</name>
<sym>Dot</sym>
</trkpt>
<trkpt lat="39.917518" lon="-8.430952">
<ele>258.5</ele>
<desc>Speed 15.1 km/h Distance 26.75 km</desc>
<time>2011-05-22T09:15:30.65</time>
<name>5988</name>
<sym>Dot</sym>
</trkpt>
<trkpt lat="39.917488" lon="-8.430982">
<ele>259.0</ele>
<desc>Speed 15.0 km/h Distance 26.76 km</desc>
<time>2011-05-22T09:15:31.65</time>
<name>5989</name>
<sym>Dot</sym>
</trkpt>
<trkpt lat="39.917458" lon="-8.431012">
<ele>259.0</ele>
<desc>Speed 15.2 km/h Distance 26.76 km</desc>
<time>2011-05-22T09:15:32.65</time>
<name>5990</name>
<sym>Dot</sym>
</trkpt>
<trkpt lat="39.917428" lon="-8.431043">
<ele>259.0</ele>
<desc>Speed 15.5 km/h Distance 26.77 km</desc>
<time>2011-05-22T09:15:33.65</time>
<name>5991</name>
<sym>Dot</sym>
</trkpt>
<trkpt lat="39.917398" lon="-8.431073">
<ele>259.5</ele>
<desc>Speed 15.6 km/h Distance 26.77 km</desc>
<time>2011-05-22T09:15:34.65</time>
<name>5992</name>
<sym>Dot</sym>
</trkpt>
<trkpt lat="39.917367" lon="-8.431105">
<ele>259.5</ele>
<desc>Speed 16.0 km/h Distance 26.77 km</desc>
<time>2011-05-22T09:15:35.65</time>
<name>5993</name>
<sym>Dot</sym>
</trkpt>
<trkpt lat="39.917335" lon="-8.431137">
<ele>259.5</ele>
<desc>Speed 16.2 km/h Distance 26.78 km</desc>
<time>2011-05-22T09:15:36.65</time>
<name>5994</name>
<sym>Dot</sym>
</trkpt>
<trkpt lat="39.917302" lon="-8.431168">
<ele>260.0</ele>
<desc>Speed 16.5 km/h Distance 26.78 km</desc>
<time>2011-05-22T09:15:37.65</time>
<name>5995</name>
<sym>Dot</sym>
</trkpt>
<trkpt lat="39.917267" lon="-8.431195">
<ele>260.0</ele>
<desc>Speed 16.1 km/h Distance 26.79 km</desc>
<time>2011-05-22T09:15:38.65</time>
<name>5996</name>
<sym>Dot</sym>
</trkpt>
<trkpt lat="39.917232" lon="-8.431220">
<ele>260.0</ele>
<desc>Speed 16.6 km/h Distance 26.79 km</desc>
<time>2011-05-22T09:15:39.65</time>
<name>5997</name>
<sym>Dot</sym>
</trkpt>
<trkpt lat="39.917195" lon="-8.431247">
<ele>260.0</ele>
<desc>Speed 16.6 km/h Distance 26.80 km</desc>
<time>2011-05-22T09:15:40.65</time>
<name>5998</name>
<sym>Dot</sym>
</trkpt>
<trkpt lat="39.917158" lon="-8.431270">
<ele>260.0</ele>
<desc>Speed 16.5 km/h Distance 26.80 km</desc>
<time>2011-05-22T09:15:41.65</time>
<name>5999</name>
<sym>Dot</sym>
</trkpt>
<trkpt lat="39.917122" lon="-8.431293">
<ele>260.0</ele>
<desc>Speed 16.6 km/h Distance 26.81 km</desc>
<time>2011-05-22T09:15:42.65</time>
<name>6000</name>
<sym>Dot</sym>
</trkpt>
<trkpt lat="39.917083" lon="-8.431317">
<ele>260.0</ele>
<desc>Speed 16.7 km/h Distance 26.81 km</desc>
<time>2011-05-22T09:15:43.65</time>
<name>6001</name>
<sym>Dot</sym>
</trkpt>
<trkpt lat="39.917045" lon="-8.431335">
<ele>260.0</ele>
<desc>Speed 16.7 km/h Distance 26.82 km</desc>
<time>2011-05-22T09:15:44.65</time>
<name>6002</name>
<sym>Dot</sym>
</trkpt>
<trkpt lat="39.917005" lon="-8.431355">
<ele>260.0</ele>
<desc>Speed 17.0 km/h Distance 26.82 km</desc>
<time>2011-05-22T09:15:45.65</time>
<name>6003</name>
<sym>Dot</sym>
</trkpt>
<trkpt lat="39.916967" lon="-8.431373">
<ele>260.5</ele>
<desc>Speed 17.2 km/h Distance 26.83 km</desc>
<time>2011-05-22T09:15:46.65</time>
<name>6004</name>
<sym>Dot</sym>
</trkpt>
<trkpt lat="39.916925" lon="-8.431393">
<ele>260.5</ele>
<desc>Speed 17.4 km/h Distance 26.83 km</desc>
<time>2011-05-22T09:15:47.65</time>
<name>6005</name>
<sym>Dot</sym>
</trkpt>
<trkpt lat="39.916885" lon="-8.431413">
<ele>260.5</ele>
<desc>Speed 17.5 km/h Distance 26.83 km</desc>
<time>2011-05-22T09:15:48.65</time>
<name>6006</name>
<sym>Dot</sym>
</trkpt>
<trkpt lat="39.916843" lon="-8.431433">
<ele>260.5</ele>
<desc>Speed 17.9 km/h Distance 26.84 km</desc>
<time>2011-05-22T09:15:49.65</time>
<name>6007</name>
<sym>Dot</sym>
</trkpt>
<trkpt lat="39.916800" lon="-8.431452">
<ele>260.5</ele>
<desc>Speed 18.0 km/h Distance 26.84 km</desc>
<time>2011-05-22T09:15:50.65</time>
<name>6008</name>
<sym>Dot</sym>
</trkpt>
<trkpt lat="39.916758" lon="-8.431470">
<ele>260.5</ele>
<desc>Speed 18.2 km/h Distance 26.85 km</desc>
<time>2011-05-22T09:15:51.65</time>
<name>6009</name>
<sym>Dot</sym>
</trkpt>
<trkpt lat="39.916713" lon="-8.431488">
<ele>260.5</ele>
<desc>Speed 18.5 km/h Distance 26.85 km</desc>
<time>2011-05-22T09:15:52.65</time>
<name>6010</name>
<sym>Dot</sym>
</trkpt>
<trkpt lat="39.916668" lon="-8.431507">
<ele>260.5</ele>
<desc>Speed 19.1 km/h Distance 26.86 km</desc>
<time>2011-05-22T09:15:53.65</time>
<name>6011</name>
<sym>Dot</sym>
</trkpt>
<trkpt lat="39.916618" lon="-8.431520">
<ele>260.0</ele>
<desc>Speed 20.7 km/h Distance 26.87 km</desc>
<time>2011-05-22T09:15:54.65</time>
<name>6012</name>
<sym>Dot</sym>
</trkpt>
<trkpt lat="39.916563" lon="-8.431530">
<ele>260.0</ele>
<desc>Speed 22.7 km/h Distance 26.87 km</desc>
<time>2011-05-22T09:15:55.65</time>
<name>6013</name>
<sym>Dot</sym>
</trkpt>
<trkpt lat="39.916503" lon="-8.431540">
<ele>260.0</ele>
<desc>Speed 24.2 km/h Distance 26.88 km</desc>
<time>2011-05-22T09:15:56.65</time>
<name>6014</name>
<sym>Dot</sym>
</trkpt>
<trkpt lat="39.916442" lon="-8.431550">
<ele>260.0</ele>
<desc>Speed 25.1 km/h Distance 26.89 km</desc>
<time>2011-05-22T09:15:57.65</time>
<name>6015</name>
<sym>Dot</sym>
</trkpt>
<trkpt lat="39.916377" lon="-8.431558">
<ele>260.0</ele>
<desc>Speed 26.2 km/h Distance 26.89 km</desc>
<time>2011-05-22T09:15:58.65</time>
<name>6016</name>
<sym>Dot</sym>
</trkpt>
<trkpt lat="39.916308" lon="-8.431565">
<ele>260.0</ele>
<desc>Speed 27.4 km/h Distance 26.90 km</desc>
<time>2011-05-22T09:15:59.65</time>
<name>6017</name>
<sym>Dot</sym>
</trkpt>
<trkpt lat="39.916237" lon="-8.431568">
<ele>259.5</ele>
<desc>Speed 28.9 km/h Distance 26.91 km</desc>
<time>2011-05-22T09:16:00.65</time>
<name>6018</name>
<sym>Dot</sym>
</trkpt>
<trkpt lat="39.916163" lon="-8.431565">
<ele>259.5</ele>
<desc>Speed 29.6 km/h Distance 26.92 km</desc>
<time>2011-05-22T09:16:01.65</time>
<name>6019</name>
<sym>Dot</sym>
</trkpt>
<trkpt lat="39.916088" lon="-8.431562">
<ele>259.5</ele>
<desc>Speed 30.3 km/h Distance 26.93 km</desc>
<time>2011-05-22T09:16:02.65</time>
<name>6020</name>
<sym>Dot</sym>
</trkpt>
<trkpt lat="39.916010" lon="-8.431555">
<ele>259.0</ele>
<desc>Speed 31.1 km/h Distance 26.93 km</desc>
<time>2011-05-22T09:16:03.65</time>
<name>6021</name>
<sym>Dot</sym>
</trkpt>
<trkpt lat="39.915930" lon="-8.431545">
<ele>259.0</ele>
<desc>Speed 32.1 km/h Distance 26.94 km</desc>
<time>2011-05-22T09:16:04.65</time>
<name>6022</name>
<sym>Dot</sym>
</trkpt>
<trkpt lat="39.915848" lon="-8.431530">
<ele>259.0</ele>
<desc>Speed 33.0 km/h Distance 26.95 km</desc>
<time>2011-05-22T09:16:05.65</time>
<name>6023</name>
<sym>Dot</sym>
</trkpt>
<trkpt lat="39.915765" lon="-8.431510">
<ele>258.5</ele>
<desc>Speed 34.1 km/h Distance 26.96 km</desc>
<time>2011-05-22T09:16:06.65</time>
<name>6024</name>
<sym>Dot</sym>
</trkpt>
<trkpt lat="39.915680" lon="-8.431487">
<ele>258.5</ele>
<desc>Speed 34.5 km/h Distance 26.97 km</desc>
<time>2011-05-22T09:16:07.65</time>
<name>6025</name>
<sym>Dot</sym>
</trkpt>
<trkpt lat="39.915595" lon="-8.431458">
<ele>258.0</ele>
<desc>Speed 34.9 km/h Distance 26.98 km</desc>
<time>2011-05-22T09:16:08.65</time>
<name>6026</name>
<sym>Dot</sym>
</trkpt>
<trkpt lat="39.915510" lon="-8.431430">
<ele>258.0</ele>
<desc>Speed 35.4 km/h Distance 26.99 km</desc>
<time>2011-05-22T09:16:09.65</time>
<name>6027</name>
<sym>Dot</sym>
</trkpt>
<trkpt lat="39.915427" lon="-8.431395">
<ele>258.0</ele>
<desc>Speed 35.1 km/h Distance 27.00 km</desc>
<time>2011-05-22T09:16:10.65</time>
<name>6028</name>
<sym>Dot</sym>
</trkpt>
<trkpt lat="39.915345" lon="-8.431358">
<ele>258.0</ele>
<desc>Speed 34.7 km/h Distance 27.01 km</desc>
<time>2011-05-22T09:16:11.65</time>
<name>6029</name>
<sym>Dot</sym>
</trkpt>
<trkpt lat="39.915268" lon="-8.431323">
<ele>258.5</ele>
<desc>Speed 32.7 km/h Distance 27.02 km</desc>
<time>2011-05-22T09:16:12.65</time>
<name>6030</name>
<sym>Dot</sym>
</trkpt>
<trkpt lat="39.915195" lon="-8.431295">
<ele>258.5</ele>
<desc>Speed 30.3 km/h Distance 27.03 km</desc>
<time>2011-05-22T09:16:13.65</time>
<name>6031</name>
<sym>Dot</sym>
</trkpt>
<trkpt lat="39.915125" lon="-8.431280">
<ele>258.5</ele>
<desc>Speed 28.8 km/h Distance 27.04 km</desc>
<time>2011-05-22T09:16:14.65</time>
<name>6032</name>
<sym>Dot</sym>
</trkpt>
<trkpt lat="39.915048" lon="-8.431290">
<ele>260.0</ele>
<desc>Speed 30.8 km/h Distance 27.04 km</desc>
<time>2011-05-22T09:16:15.65</time>
<name>6033</name>
<sym>Dot</sym>
</trkpt>
<trkpt lat="39.915000" lon="-8.431338">
<ele>261.0</ele>
<desc>Speed 24.5 km/h Distance 27.05 km</desc>
<time>2011-05-22T09:16:16.65</time>
<name>6034</name>
<sym>Dot</sym>
</trkpt>
<trkpt lat="39.914957" lon="-8.431412">
<ele>259.5</ele>
<desc>Speed 28.4 km/h Distance 27.06 km</desc>
<time>2011-05-22T09:16:17.65</time>
<name>6035</name>
<sym>Dot</sym>
</trkpt>
<trkpt lat="39.914923" lon="-8.431488">
<ele>259.0</ele>
<desc>Speed 27.0 km/h Distance 27.07 km</desc>
<time>2011-05-22T09:16:18.65</time>
<name>6036</name>
<sym>Dot</sym>
</trkpt>
<trkpt lat="39.914895" lon="-8.431570">
<ele>259.0</ele>
<desc>Speed 27.5 km/h Distance 27.07 km</desc>
<time>2011-05-22T09:16:19.65</time>
<name>6037</name>
<sym>Dot</sym>
</trkpt>
<trkpt lat="39.914868" lon="-8.431650">
<ele>258.5</ele>
<desc>Speed 27.1 km/h Distance 27.08 km</desc>
<time>2011-05-22T09:16:20.65</time>
<name>6038</name>
<sym>Dot</sym>
</trkpt>
<trkpt lat="39.914837" lon="-8.431733">
<ele>258.0</ele>
<desc>Speed 28.7 km/h Distance 27.09 km</desc>
<time>2011-05-22T09:16:21.65</time>
<name>6039</name>
<sym>Dot</sym>
</trkpt>
<trkpt lat="39.914805" lon="-8.431817">
<ele>257.5</ele>
<desc>Speed 28.3 km/h Distance 27.10 km</desc>
<time>2011-05-22T09:16:22.65</time>
<name>6040</name>
<sym>Dot</sym>
</trkpt>
<trkpt lat="39.914772" lon="-8.431898">
<ele>257.5</ele>
<desc>Speed 28.7 km/h Distance 27.11 km</desc>
<time>2011-05-22T09:16:23.65</time>
<name>6041</name>
<sym>Dot</sym>
</trkpt>
<trkpt lat="39.914738" lon="-8.431982">
<ele>257.5</ele>
<desc>Speed 28.7 km/h Distance 27.11 km</desc>
<time>2011-05-22T09:16:24.65</time>
<name>6042</name>
<sym>Dot</sym>
</trkpt>
<trkpt lat="39.914705" lon="-8.432065">
<ele>257.0</ele>
<desc>Speed 28.8 km/h Distance 27.12 km</desc>
<time>2011-05-22T09:16:25.65</time>
<name>6043</name>
<sym>Dot</sym>
</trkpt>
<trkpt lat="39.914673" lon="-8.432150">
<ele>256.0</ele>
<desc>Speed 29.1 km/h Distance 27.13 km</desc>
<time>2011-05-22T09:16:26.65</time>
<name>6044</name>
<sym>Dot</sym>
</trkpt>
<trkpt lat="39.914638" lon="-8.432233">
<ele>256.0</ele>
<desc>Speed 28.9 km/h Distance 27.14 km</desc>
<time>2011-05-22T09:16:27.65</time>
<name>6045</name>
<sym>Dot</sym>
</trkpt>
<trkpt lat="39.914602" lon="-8.432313">
<ele>255.5</ele>
<desc>Speed 28.8 km/h Distance 27.15 km</desc>
<time>2011-05-22T09:16:28.65</time>
<name>6046</name>
<sym>Dot</sym>
</trkpt>
<trkpt lat="39.914568" lon="-8.432397">
<ele>255.0</ele>
<desc>Speed 28.7 km/h Distance 27.15 km</desc>
<time>2011-05-22T09:16:29.65</time>
<name>6047</name>
<sym>Dot</sym>
</trkpt>
<trkpt lat="39.914538" lon="-8.432480">
<ele>254.5</ele>
<desc>Speed 28.2 km/h Distance 27.16 km</desc>
<time>2011-05-22T09:16:30.65</time>
<name>6048</name>
<sym>Dot</sym>
</trkpt>
<trkpt lat="39.914508" lon="-8.432562">
<ele>254.5</ele>
<desc>Speed 28.0 km/h Distance 27.17 km</desc>
<time>2011-05-22T09:16:31.65</time>
<name>6049</name>
<sym>Dot</sym>
</trkpt>
<trkpt lat="39.914478" lon="-8.432642">
<ele>254.0</ele>
<desc>Speed 27.5 km/h Distance 27.18 km</desc>
<time>2011-05-22T09:16:32.65</time>
<name>6050</name>
<sym>Dot</sym>
</trkpt>
<trkpt lat="39.914450" lon="-8.432722">
<ele>253.5</ele>
<desc>Speed 27.3 km/h Distance 27.18 km</desc>
<time>2011-05-22T09:16:33.65</time>
<name>6051</name>
<sym>Dot</sym>
</trkpt>
<trkpt lat="39.914418" lon="-8.432800">
<ele>253.0</ele>
<desc>Speed 26.9 km/h Distance 27.19 km</desc>
<time>2011-05-22T09:16:34.65</time>
<name>6052</name>
<sym>Dot</sym>
</trkpt>
<trkpt lat="39.914388" lon="-8.432875">
<ele>253.0</ele>
<desc>Speed 25.9 km/h Distance 27.20 km</desc>
<time>2011-05-22T09:16:35.65</time>
<name>6053</name>
<sym>Dot</sym>
</trkpt>
<trkpt lat="39.914360" lon="-8.432947">
<ele>253.0</ele>
<desc>Speed 25.2 km/h Distance 27.21 km</desc>
<time>2011-05-22T09:16:36.65</time>
<name>6054</name>
<sym>Dot</sym>
</trkpt>
<trkpt lat="39.914335" lon="-8.433022">
<ele>252.5</ele>
<desc>Speed 24.8 km/h Distance 27.21 km</desc>
<time>2011-05-22T09:16:37.65</time>
<name>6055</name>
<sym>Dot</sym>
</trkpt>
<trkpt lat="39.914313" lon="-8.433090">
<ele>253.0</ele>
<desc>Speed 23.3 km/h Distance 27.22 km</desc>
<time>2011-05-22T09:16:38.65</time>
<name>6056</name>
<sym>Dot</sym>
</trkpt>
<trkpt lat="39.914288" lon="-8.433152">
<ele>253.5</ele>
<desc>Speed 21.9 km/h Distance 27.22 km</desc>
<time>2011-05-22T09:16:39.65</time>
<name>6057</name>
<sym>Dot</sym>
</trkpt>
<trkpt lat="39.914263" lon="-8.433215">
<ele>253.0</ele>
<desc>Speed 21.5 km/h Distance 27.23 km</desc>
<time>2011-05-22T09:16:40.65</time>
<name>6058</name>
<sym>Dot</sym>
</trkpt>
<trkpt lat="39.914240" lon="-8.433273">
<ele>253.5</ele>
<desc>Speed 20.7 km/h Distance 27.24 km</desc>
<time>2011-05-22T09:16:41.65</time>
<name>6059</name>
<sym>Dot</sym>
</trkpt>
<trkpt lat="39.914218" lon="-8.433332">
<ele>253.5</ele>
<desc>Speed 20.6 km/h Distance 27.24 km</desc>
<time>2011-05-22T09:16:42.65</time>
<name>6060</name>
<sym>Dot</sym>
</trkpt>
<trkpt lat="39.914197" lon="-8.433392">
<ele>253.0</ele>
<desc>Speed 20.5 km/h Distance 27.25 km</desc>
<time>2011-05-22T09:16:43.65</time>
<name>6061</name>
<sym>Dot</sym>
</trkpt>
<trkpt lat="39.914175" lon="-8.433452">
<ele>253.0</ele>
<desc>Speed 20.6 km/h Distance 27.25 km</desc>
<time>2011-05-22T09:16:44.65</time>
<name>6062</name>
<sym>Dot</sym>
</trkpt>
<trkpt lat="39.914152" lon="-8.433513">
<ele>253.5</ele>
<desc>Speed 21.2 km/h Distance 27.26 km</desc>
<time>2011-05-22T09:16:45.65</time>
<name>6063</name>
<sym>Dot</sym>
</trkpt>
<trkpt lat="39.914128" lon="-8.433573">
<ele>253.5</ele>
<desc>Speed 21.2 km/h Distance 27.27 km</desc>
<time>2011-05-22T09:16:46.65</time>
<name>6064</name>
<sym>Dot</sym>
</trkpt>
<trkpt lat="39.914107" lon="-8.433635">
<ele>253.5</ele>
<desc>Speed 21.4 km/h Distance 27.27 km</desc>
<time>2011-05-22T09:16:47.65</time>
<name>6065</name>
<sym>Dot</sym>
</trkpt>
<trkpt lat="39.914083" lon="-8.433698">
<ele>253.5</ele>
<desc>Speed 21.6 km/h Distance 27.28 km</desc>
<time>2011-05-22T09:16:48.65</time>
<name>6066</name>
<sym>Dot</sym>
</trkpt>
<trkpt lat="39.914058" lon="-8.433760">
<ele>253.5</ele>
<desc>Speed 21.5 km/h Distance 27.28 km</desc>
<time>2011-05-22T09:16:49.65</time>
<name>6067</name>
<sym>Dot</sym>
</trkpt>
<trkpt lat="39.914035" lon="-8.433822">
<ele>253.5</ele>
<desc>Speed 21.2 km/h Distance 27.29 km</desc>
<time>2011-05-22T09:16:50.65</time>
<name>6068</name>
<sym>Dot</sym>
</trkpt>
<trkpt lat="39.914013" lon="-8.433882">
<ele>254.0</ele>
<desc>Speed 21.0 km/h Distance 27.29 km</desc>
<time>2011-05-22T09:16:51.65</time>
<name>6069</name>
<sym>Dot</sym>
</trkpt>
<trkpt lat="39.913992" lon="-8.433943">
<ele>254.0</ele>
<desc>Speed 20.3 km/h Distance 27.30 km</desc>
<time>2011-05-22T09:16:52.65</time>
<name>6070</name>
<sym>Dot</sym>
</trkpt>
<trkpt lat="39.913973" lon="-8.434003">
<ele>254.0</ele>
<desc>Speed 20.1 km/h Distance 27.31 km</desc>
<time>2011-05-22T09:16:53.65</time>
<name>6071</name>
<sym>Dot</sym>
</trkpt>
<trkpt lat="39.913953" lon="-8.434063">
<ele>254.0</ele>
<desc>Speed 19.7 km/h Distance 27.31 km</desc>
<time>2011-05-22T09:16:54.65</time>
<name>6072</name>
<sym>Dot</sym>
</trkpt>
<trkpt lat="39.913933" lon="-8.434123">
<ele>254.0</ele>
<desc>Speed 19.8 km/h Distance 27.32 km</desc>
<time>2011-05-22T09:16:55.65</time>
<name>6073</name>
<sym>Dot</sym>
</trkpt>
<trkpt lat="39.913912" lon="-8.434183">
<ele>253.5</ele>
<desc>Speed 20.3 km/h Distance 27.32 km</desc>
<time>2011-05-22T09:16:56.65</time>
<name>6074</name>
<sym>Dot</sym>
</trkpt>
<trkpt lat="39.913892" lon="-8.434242">
<ele>254.0</ele>
<desc>Speed 19.4 km/h Distance 27.33 km</desc>
<time>2011-05-22T09:16:57.65</time>
<name>6075</name>
<sym>Dot</sym>
</trkpt>
<trkpt lat="39.913870" lon="-8.434303">
<ele>253.5</ele>
<desc>Speed 20.5 km/h Distance 27.33 km</desc>
<time>2011-05-22T09:16:58.65</time>
<name>6076</name>
<sym>Dot</sym>
</trkpt>
<trkpt lat="39.913852" lon="-8.434363">
<ele>253.5</ele>
<desc>Speed 19.9 km/h Distance 27.34 km</desc>
<time>2011-05-22T09:16:59.65</time>
<name>6077</name>
<sym>Dot</sym>
</trkpt>
<trkpt lat="39.913835" lon="-8.434422">
<ele>254.0</ele>
<desc>Speed 18.9 km/h Distance 27.34 km</desc>
<time>2011-05-22T09:17:00.65</time>
<name>6078</name>
<sym>Dot</sym>
</trkpt>
<trkpt lat="39.913818" lon="-8.434482">
<ele>254.5</ele>
<desc>Speed 19.9 km/h Distance 27.35 km</desc>
<time>2011-05-22T09:17:01.65</time>
<name>6079</name>
<sym>Dot</sym>
</trkpt>
<trkpt lat="39.913802" lon="-8.434545">
<ele>254.5</ele>
<desc>Speed 20.5 km/h Distance 27.36 km</desc>
<time>2011-05-22T09:17:02.65</time>
<name>6080</name>
<sym>Dot</sym>
</trkpt>
<trkpt lat="39.913790" lon="-8.434602">
<ele>255.5</ele>
<desc>Speed 18.2 km/h Distance 27.36 km</desc>
<time>2011-05-22T09:17:03.65</time>
<name>6081</name>
<sym>Dot</sym>
</trkpt>
<trkpt lat="39.913780" lon="-8.434660">
<ele>255.5</ele>
<desc>Speed 17.9 km/h Distance 27.37 km</desc>
<time>2011-05-22T09:17:04.65</time>
<name>6082</name>
<sym>Dot</sym>
</trkpt>
<trkpt lat="39.913770" lon="-8.434723">
<ele>255.5</ele>
<desc>Speed 19.9 km/h Distance 27.37 km</desc>
<time>2011-05-22T09:17:05.65</time>
<name>6083</name>
<sym>Dot</sym>
</trkpt>
<trkpt lat="39.913757" lon="-8.434788">
<ele>255.5</ele>
<desc>Speed 20.2 km/h Distance 27.38 km</desc>
<time>2011-05-22T09:17:06.65</time>
<name>6084</name>
<sym>Dot</sym>
</trkpt>
<trkpt lat="39.913740" lon="-8.434850">
<ele>255.5</ele>
<desc>Speed 20.2 km/h Distance 27.38 km</desc>
<time>2011-05-22T09:17:07.65</time>
<name>6085</name>
<sym>Dot</sym>
</trkpt>
<trkpt lat="39.913728" lon="-8.434918">
<ele>255.5</ele>
<desc>Speed 21.3 km/h Distance 27.39 km</desc>
<time>2011-05-22T09:17:08.65</time>
<name>6086</name>
<sym>Dot</sym>
</trkpt>
<trkpt lat="39.913717" lon="-8.434987">
<ele>255.5</ele>
<desc>Speed 21.3 km/h Distance 27.39 km</desc>
<time>2011-05-22T09:17:09.65</time>
<name>6087</name>
<sym>Dot</sym>
</trkpt>
<trkpt lat="39.913705" lon="-8.435057">
<ele>255.5</ele>
<desc>Speed 21.4 km/h Distance 27.40 km</desc>
<time>2011-05-22T09:17:10.65</time>
<name>6088</name>
<sym>Dot</sym>
</trkpt>
<trkpt lat="39.913693" lon="-8.435125">
<ele>255.0</ele>
<desc>Speed 21.4 km/h Distance 27.41 km</desc>
<time>2011-05-22T09:17:11.65</time>
<name>6089</name>
<sym>Dot</sym>
</trkpt>
<trkpt lat="39.913682" lon="-8.435193">
<ele>254.5</ele>
<desc>Speed 21.2 km/h Distance 27.41 km</desc>
<time>2011-05-22T09:17:12.65</time>
<name>6090</name>
<sym>Dot</sym>
</trkpt>
<trkpt lat="39.913670" lon="-8.435262">
<ele>254.0</ele>
<desc>Speed 21.2 km/h Distance 27.42 km</desc>
<time>2011-05-22T09:17:13.65</time>
<name>6091</name>
<sym>Dot</sym>
</trkpt>
<trkpt lat="39.913658" lon="-8.435330">
<ele>254.0</ele>
<desc>Speed 20.9 km/h Distance 27.42 km</desc>
<time>2011-05-22T09:17:14.65</time>
<name>6092</name>
<sym>Dot</sym>
</trkpt>
<trkpt lat="39.913643" lon="-8.435392">
<ele>254.5</ele>
<desc>Speed 19.7 km/h Distance 27.43 km</desc>
<time>2011-05-22T09:17:15.65</time>
<name>6093</name>
<sym>Dot</sym>
</trkpt>
<trkpt lat="39.913617" lon="-8.435433">
<ele>254.5</ele>
<desc>Speed 16.2 km/h Distance 27.43 km</desc>
<time>2011-05-22T09:17:16.65</time>
<name>6094</name>
<sym>Dot</sym>
</trkpt>
<trkpt lat="39.913583" lon="-8.435458">
<ele>254.5</ele>
<desc>Speed 15.4 km/h Distance 27.44 km</desc>
<time>2011-05-22T09:17:17.65</time>
<name>6095</name>
<sym>Dot</sym>
</trkpt>
<trkpt lat="39.913537" lon="-8.435453">
<ele>254.5</ele>
<desc>Speed 18.8 km/h Distance 27.44 km</desc>
<time>2011-05-22T09:17:18.66</time>
<name>6096</name>
<sym>Dot</sym>
</trkpt>
<trkpt lat="39.913487" lon="-8.435442">
<ele>255.5</ele>
<desc>Speed 20.0 km/h Distance 27.45 km</desc>
<time>2011-05-22T09:17:19.65</time>
<name>6097</name>
<sym>Dot</sym>
</trkpt>
<trkpt lat="39.913437" lon="-8.435433">
<ele>256.5</ele>
<desc>Speed 20.1 km/h Distance 27.46 km</desc>
<time>2011-05-22T09:17:20.65</time>
<name>6098</name>
<sym>Dot</sym>
</trkpt>
<trkpt lat="39.913392" lon="-8.435423">
<ele>257.0</ele>
<desc>Speed 18.3 km/h Distance 27.46 km</desc>
<time>2011-05-22T09:17:21.65</time>
<name>6099</name>
<sym>Dot</sym>
</trkpt>
<trkpt lat="39.913345" lon="-8.435412">
<ele>258.0</ele>
<desc>Speed 18.7 km/h Distance 27.47 km</desc>
<time>2011-05-22T09:17:22.65</time>
<name>6100</name>
<sym>Dot</sym>
</trkpt>
<trkpt lat="39.913302" lon="-8.435402">
<ele>258.5</ele>
<desc>Speed 17.6 km/h Distance 27.47 km</desc>
<time>2011-05-22T09:17:23.65</time>
<name>6101</name>
<sym>Dot</sym>
</trkpt>
<trkpt lat="39.913260" lon="-8.435392">
<ele>259.0</ele>
<desc>Speed 16.8 km/h Distance 27.48 km</desc>
<time>2011-05-22T09:17:24.65</time>
<name>6102</name>
<sym>Dot</sym>
</trkpt>
<trkpt lat="39.913220" lon="-8.435380">
<ele>259.5</ele>
<desc>Speed 15.5 km/h Distance 27.48 km</desc>
<time>2011-05-22T09:17:25.65</time>
<name>6103</name>
<sym>Dot</sym>
</trkpt>
<trkpt lat="39.913183" lon="-8.435368">
<ele>260.0</ele>
<desc>Speed 15.2 km/h Distance 27.48 km</desc>
<time>2011-05-22T09:17:26.65</time>
<name>6104</name>
<sym>Dot</sym>
</trkpt>
<trkpt lat="39.913150" lon="-8.435360">
<ele>260.5</ele>
<desc>Speed 13.3 km/h Distance 27.49 km</desc>
<time>2011-05-22T09:17:27.65</time>
<name>6105</name>
<sym>Dot</sym>
</trkpt>
<trkpt lat="39.913115" lon="-8.435353">
<ele>260.5</ele>
<desc>Speed 13.8 km/h Distance 27.49 km</desc>
<time>2011-05-22T09:17:28.65</time>
<name>6106</name>
<sym>Dot</sym>
</trkpt>
<trkpt lat="39.913080" lon="-8.435343">
<ele>261.0</ele>
<desc>Speed 14.0 km/h Distance 27.50 km</desc>
<time>2011-05-22T09:17:29.65</time>
<name>6107</name>
<sym>Dot</sym>
</trkpt>
<trkpt lat="39.913048" lon="-8.435333">
<ele>261.5</ele>
<desc>Speed 13.2 km/h Distance 27.50 km</desc>
<time>2011-05-22T09:17:30.65</time>
<name>6108</name>
<sym>Dot</sym>
</trkpt>
<trkpt lat="39.913015" lon="-8.435325">
<ele>261.5</ele>
<desc>Speed 13.2 km/h Distance 27.50 km</desc>
<time>2011-05-22T09:17:31.65</time>
<name>6109</name>
<sym>Dot</sym>
</trkpt>
<trkpt lat="39.912982" lon="-8.435318">
<ele>262.0</ele>
<desc>Speed 13.2 km/h Distance 27.51 km</desc>
<time>2011-05-22T09:17:32.65</time>
<name>6110</name>
<sym>Dot</sym>
</trkpt>
<trkpt lat="39.912947" lon="-8.435313">
<ele>262.5</ele>
<desc>Speed 14.0 km/h Distance 27.51 km</desc>
<time>2011-05-22T09:17:33.65</time>
<name>6111</name>
<sym>Dot</sym>
</trkpt>
<trkpt lat="39.912910" lon="-8.435310">
<ele>263.5</ele>
<desc>Speed 14.1 km/h Distance 27.52 km</desc>
<time>2011-05-22T09:17:34.65</time>
<name>6112</name>
<sym>Dot</sym>
</trkpt>
<trkpt lat="39.912878" lon="-8.435308">
<ele>264.5</ele>
<desc>Speed 12.9 km/h Distance 27.52 km</desc>
<time>2011-05-22T09:17:35.65</time>
<name>6113</name>
<sym>Dot</sym>
</trkpt>
<trkpt lat="39.912853" lon="-8.435320">
<ele>264.5</ele>
<desc>Speed 10.1 km/h Distance 27.52 km</desc>
<time>2011-05-22T09:17:36.65</time>
<name>6114</name>
<sym>Dot</sym>
</trkpt>
<trkpt lat="39.912818" lon="-8.435328">
<ele>265.5</ele>
<desc>Speed 13.4 km/h Distance 27.53 km</desc>
<time>2011-05-22T09:17:37.65</time>
<name>6115</name>
<sym>Dot</sym>
</trkpt>
<trkpt lat="39.912785" lon="-8.435345">
<ele>265.5</ele>
<desc>Speed 13.2 km/h Distance 27.53 km</desc>
<time>2011-05-22T09:17:38.65</time>
<name>6116</name>
<sym>Dot</sym>
</trkpt>
<trkpt lat="39.912753" lon="-8.435362">
<ele>265.0</ele>
<desc>Speed 12.9 km/h Distance 27.53 km</desc>
<time>2011-05-22T09:17:39.65</time>
<name>6117</name>
<sym>Dot</sym>
</trkpt>
<trkpt lat="39.912722" lon="-8.435377">
<ele>264.5</ele>
<desc>Speed 12.3 km/h Distance 27.54 km</desc>
<time>2011-05-22T09:17:40.65</time>
<name>6118</name>
<sym>Dot</sym>
</trkpt>
<trkpt lat="39.912693" lon="-8.435390">
<ele>265.0</ele>
<desc>Speed 11.5 km/h Distance 27.54 km</desc>
<time>2011-05-22T09:17:41.65</time>
<name>6119</name>
<sym>Dot</sym>
</trkpt>
<trkpt lat="39.912663" lon="-8.435403">
<ele>265.0</ele>
<desc>Speed 12.4 km/h Distance 27.54 km</desc>
<time>2011-05-22T09:17:42.65</time>
<name>6120</name>
<sym>Dot</sym>
</trkpt>
<trkpt lat="39.912635" lon="-8.435417">
<ele>265.5</ele>
<desc>Speed 10.9 km/h Distance 27.55 km</desc>
<time>2011-05-22T09:17:43.65</time>
<name>6121</name>
<sym>Dot</sym>
</trkpt>
<trkpt lat="39.912608" lon="-8.435433">
<ele>265.5</ele>
<desc>Speed 11.6 km/h Distance 27.55 km</desc>
<time>2011-05-22T09:17:44.65</time>
<name>6122</name>
<sym>Dot</sym>
</trkpt>
<trkpt lat="39.912580" lon="-8.435452">
<ele>265.5</ele>
<desc>Speed 12.3 km/h Distance 27.55 km</desc>
<time>2011-05-22T09:17:45.65</time>
<name>6123</name>
<sym>Dot</sym>
</trkpt>
<trkpt lat="39.912550" lon="-8.435467">
<ele>265.5</ele>
<desc>Speed 12.6 km/h Distance 27.56 km</desc>
<time>2011-05-22T09:17:46.65</time>
<name>6124</name>
<sym>Dot</sym>
</trkpt>
<trkpt lat="39.912520" lon="-8.435483">
<ele>265.0</ele>
<desc>Speed 12.7 km/h Distance 27.56 km</desc>
<time>2011-05-22T09:17:47.65</time>
<name>6125</name>
<sym>Dot</sym>
</trkpt>
<trkpt lat="39.912492" lon="-8.435498">
<ele>265.0</ele>
<desc>Speed 11.7 km/h Distance 27.56 km</desc>
<time>2011-05-22T09:17:48.65</time>
<name>6126</name>
<sym>Dot</sym>
</trkpt>
<trkpt lat="39.912482" lon="-8.435518">
<ele>266.5</ele>
<desc>Speed 6.5 km/h Distance 27.57 km</desc>
<time>2011-05-22T09:17:49.65</time>
<name>6127</name>
<sym>Dot</sym>
</trkpt>
<trkpt lat="39.912462" lon="-8.435537">
<ele>267.0</ele>
<desc>Speed 9.8 km/h Distance 27.57 km</desc>
<time>2011-05-22T09:17:50.64</time>
<name>6128</name>
<sym>Dot</sym>
</trkpt>
<trkpt lat="39.912440" lon="-8.435552">
<ele>268.5</ele>
<desc>Speed 10.0 km/h Distance 27.57 km</desc>
<time>2011-05-22T09:17:51.64</time>
<name>6129</name>
<sym>Dot</sym>
</trkpt>
<trkpt lat="39.912417" lon="-8.435570">
<ele>269.0</ele>
<desc>Speed 10.5 km/h Distance 27.58 km</desc>
<time>2011-05-22T09:17:52.64</time>
<name>6130</name>
<sym>Dot</sym>
</trkpt>
<trkpt lat="39.912390" lon="-8.435583">
<ele>270.0</ele>
<desc>Speed 11.2 km/h Distance 27.58 km</desc>
<time>2011-05-22T09:17:53.64</time>
<name>6131</name>
<sym>Dot</sym>
</trkpt>
<trkpt lat="39.912362" lon="-8.435598">
<ele>271.0</ele>
<desc>Speed 11.9 km/h Distance 27.58 km</desc>
<time>2011-05-22T09:17:54.64</time>
<name>6132</name>
<sym>Dot</sym>
</trkpt>
<trkpt lat="39.912328" lon="-8.435610">
<ele>272.0</ele>
<desc>Speed 13.3 km/h Distance 27.59 km</desc>
<time>2011-05-22T09:17:55.64</time>
<name>6133</name>
<sym>Dot</sym>
</trkpt>
<trkpt lat="39.912293" lon="-8.435623">
<ele>273.0</ele>
<desc>Speed 13.6 km/h Distance 27.59 km</desc>
<time>2011-05-22T09:17:56.64</time>
<name>6134</name>
<sym>Dot</sym>
</trkpt>
<trkpt lat="39.912258" lon="-8.435638">
<ele>273.0</ele>
<desc>Speed 14.4 km/h Distance 27.59 km</desc>
<time>2011-05-22T09:17:57.64</time>
<name>6135</name>
<sym>Dot</sym>
</trkpt>
<trkpt lat="39.912222" lon="-8.435653">
<ele>273.5</ele>
<desc>Speed 14.8 km/h Distance 27.60 km</desc>
<time>2011-05-22T09:17:58.64</time>
<name>6136</name>
<sym>Dot</sym>
</trkpt>
<trkpt lat="39.912187" lon="-8.435667">
<ele>274.0</ele>
<desc>Speed 14.4 km/h Distance 27.60 km</desc>
<time>2011-05-22T09:17:59.64</time>
<name>6137</name>
<sym>Dot</sym>
</trkpt>
<trkpt lat="39.912153" lon="-8.435678">
<ele>274.0</ele>
<desc>Speed 13.6 km/h Distance 27.61 km</desc>
<time>2011-05-22T09:18:00.63</time>
<name>6138</name>
<sym>Dot</sym>
</trkpt>
<trkpt lat="39.912110" lon="-8.435685">
<ele>274.0</ele>
<desc>Speed 16.8 km/h Distance 27.61 km</desc>
<time>2011-05-22T09:18:01.63</time>
<name>6139</name>
<sym>Dot</sym>
</trkpt>
<trkpt lat="39.912078" lon="-8.435697">
<ele>275.0</ele>
<desc>Speed 12.0 km/h Distance 27.61 km</desc>
<time>2011-05-22T09:18:02.63</time>
<name>6140</name>
<sym>Dot</sym>
</trkpt>
<trkpt lat="39.912047" lon="-8.435708">
<ele>274.5</ele>
<desc>Speed 12.6 km/h Distance 27.62 km</desc>
<time>2011-05-22T09:18:03.63</time>
<name>6141</name>
<sym>Dot</sym>
</trkpt>
<trkpt lat="39.912013" lon="-8.435720">
<ele>275.0</ele>
<desc>Speed 13.3 km/h Distance 27.62 km</desc>
<time>2011-05-22T09:18:04.63</time>
<name>6142</name>
<sym>Dot</sym>
</trkpt>
<trkpt lat="39.911978" lon="-8.435727">
<ele>276.0</ele>
<desc>Speed 13.7 km/h Distance 27.63 km</desc>
<time>2011-05-22T09:18:05.63</time>
<name>6143</name>
<sym>Dot</sym>
</trkpt>
<trkpt lat="39.911943" lon="-8.435733">
<ele>277.0</ele>
<desc>Speed 13.6 km/h Distance 27.63 km</desc>
<time>2011-05-22T09:18:06.63</time>
<name>6144</name>
<sym>Dot</sym>
</trkpt>
<trkpt lat="39.911908" lon="-8.435735">
<ele>278.5</ele>
<desc>Speed 13.4 km/h Distance 27.63 km</desc>
<time>2011-05-22T09:18:07.63</time>
<name>6145</name>
<sym>Dot</sym>
</trkpt>
<trkpt lat="39.911877" lon="-8.435740">
<ele>280.0</ele>
<desc>Speed 13.1 km/h Distance 27.64 km</desc>
<time>2011-05-22T09:18:08.63</time>
<name>6146</name>
<sym>Dot</sym>
</trkpt>
<trkpt lat="39.911847" lon="-8.435748">
<ele>282.0</ele>
<desc>Speed 11.8 km/h Distance 27.64 km</desc>
<time>2011-05-22T09:18:09.63</time>
<name>6147</name>
<sym>Dot</sym>
</trkpt>
<trkpt lat="39.911817" lon="-8.435760">
<ele>283.0</ele>
<desc>Speed 12.5 km/h Distance 27.64 km</desc>
<time>2011-05-22T09:18:10.63</time>
<name>6148</name>
<sym>Dot</sym>
</trkpt>
<trkpt lat="39.911788" lon="-8.435772">
<ele>283.5</ele>
<desc>Speed 12.2 km/h Distance 27.65 km</desc>
<time>2011-05-22T09:18:11.63</time>
<name>6149</name>
<sym>Dot</sym>
</trkpt>
<trkpt lat="39.911762" lon="-8.435782">
<ele>284.5</ele>
<desc>Speed 11.0 km/h Distance 27.65 km</desc>
<time>2011-05-22T09:18:12.63</time>
<name>6150</name>
<sym>Dot</sym>
</trkpt>
<trkpt lat="39.911738" lon="-8.435790">
<ele>285.0</ele>
<desc>Speed 8.3 km/h Distance 27.65 km</desc>
<time>2011-05-22T09:18:13.63</time>
<name>6151</name>
<sym>Dot</sym>
</trkpt>
<trkpt lat="39.911718" lon="-8.435798">
<ele>286.0</ele>
<desc>Speed 8.5 km/h Distance 27.66 km</desc>
<time>2011-05-22T09:18:14.63</time>
<name>6152</name>
<sym>Dot</sym>
</trkpt>
<trkpt lat="39.911703" lon="-8.435805">
<ele>287.0</ele>
<desc>Speed 6.5 km/h Distance 27.66 km</desc>
<time>2011-05-22T09:18:15.63</time>
<name>6153</name>
<sym>Dot</sym>
</trkpt>
<trkpt lat="39.911687" lon="-8.435817">
<ele>287.5</ele>
<desc>Speed 6.9 km/h Distance 27.66 km</desc>
<time>2011-05-22T09:18:16.63</time>
<name>6154</name>
<sym>Dot</sym>
</trkpt>
<trkpt lat="39.911670" lon="-8.435823">
<ele>289.5</ele>
<desc>Speed 7.7 km/h Distance 27.66 km</desc>
<time>2011-05-22T09:18:17.63</time>
<name>6155</name>
<sym>Dot</sym>
</trkpt>
<trkpt lat="39.911668" lon="-8.435830">
<ele>290.0</ele>
<desc>Speed 2.4 km/h Distance 27.66 km</desc>
<time>2011-05-22T09:18:18.63</time>
<name>6156</name>
<sym>Dot</sym>
</trkpt>
<trkpt lat="39.911665" lon="-8.435837">
<ele>290.0</ele>
<desc>Speed 2.2 km/h Distance 27.66 km</desc>
<time>2011-05-22T09:18:19.63</time>
<name>6157</name>
<sym>Dot</sym>
</trkpt>
<trkpt lat="39.911653" lon="-8.435842">
<ele>291.0</ele>
<desc>Speed 4.5 km/h Distance 27.66 km</desc>
<time>2011-05-22T09:18:20.63</time>
<name>6158</name>
<sym>Dot</sym>
</trkpt>
<trkpt lat="39.911638" lon="-8.435843">
<ele>292.0</ele>
<desc>Speed 4.8 km/h Distance 27.67 km</desc>
<time>2011-05-22T09:18:21.63</time>
<name>6159</name>
<sym>Dot</sym>
</trkpt>
<trkpt lat="39.911625" lon="-8.435847">
<ele>293.0</ele>
<desc>Speed 4.9 km/h Distance 27.67 km</desc>
<time>2011-05-22T09:18:22.63</time>
<name>6160</name>
<sym>Dot</sym>
</trkpt>
<trkpt lat="39.911610" lon="-8.435847">
<ele>294.5</ele>
<desc>Speed 5.1 km/h Distance 27.67 km</desc>
<time>2011-05-22T09:18:23.63</time>
<name>6161</name>
<sym>Dot</sym>
</trkpt>
<trkpt lat="39.911592" lon="-8.435847">
<ele>295.5</ele>
<desc>Speed 5.5 km/h Distance 27.67 km</desc>
<time>2011-05-22T09:18:24.63</time>
<name>6162</name>
<sym>Dot</sym>
</trkpt>
<trkpt lat="39.911575" lon="-8.435845">
<ele>296.5</ele>
<desc>Speed 6.0 km/h Distance 27.67 km</desc>
<time>2011-05-22T09:18:25.63</time>
<name>6163</name>
<sym>Dot</sym>
</trkpt>
<trkpt lat="39.911553" lon="-8.435848">
<ele>297.0</ele>
<desc>Speed 7.7 km/h Distance 27.68 km</desc>
<time>2011-05-22T09:18:26.63</time>
<name>6164</name>
<sym>Dot</sym>
</trkpt>
<trkpt lat="39.911530" lon="-8.435853">
<ele>297.0</ele>
<desc>Speed 8.6 km/h Distance 27.68 km</desc>
<time>2011-05-22T09:18:27.63</time>
<name>6165</name>
<sym>Dot</sym>
</trkpt>
<trkpt lat="39.911508" lon="-8.435860">
<ele>297.0</ele>
<desc>Speed 8.7 km/h Distance 27.68 km</desc>
<time>2011-05-22T09:18:28.63</time>
<name>6166</name>
<sym>Dot</sym>
</trkpt>
<trkpt lat="39.911485" lon="-8.435867">
<ele>297.0</ele>
<desc>Speed 8.4 km/h Distance 27.68 km</desc>
<time>2011-05-22T09:18:29.63</time>
<name>6167</name>
<sym>Dot</sym>
</trkpt>
<trkpt lat="39.911463" lon="-8.435868">
<ele>297.0</ele>
<desc>Speed 7.1 km/h Distance 27.69 km</desc>
<time>2011-05-22T09:18:30.63</time>
<name>6168</name>
<sym>Dot</sym>
</trkpt>
<trkpt lat="39.911443" lon="-8.435860">
<ele>298.5</ele>
<desc>Speed 7.6 km/h Distance 27.69 km</desc>
<time>2011-05-22T09:18:31.63</time>
<name>6169</name>
<sym>Dot</sym>
</trkpt>
<trkpt lat="39.911417" lon="-8.435863">
<ele>298.5</ele>
<desc>Speed 9.7 km/h Distance 27.69 km</desc>
<time>2011-05-22T09:18:32.63</time>
<name>6170</name>
<sym>Dot</sym>
</trkpt>
<trkpt lat="39.911390" lon="-8.435868">
<ele>298.5</ele>
<desc>Speed 10.5 km/h Distance 27.69 km</desc>
<time>2011-05-22T09:18:33.63</time>
<name>6171</name>
<sym>Dot</sym>
</trkpt>
<trkpt lat="39.911370" lon="-8.435865">
<ele>300.0</ele>
<desc>Speed 7.5 km/h Distance 27.70 km</desc>
<time>2011-05-22T09:18:34.63</time>
<name>6172</name>
<sym>Dot</sym>
</trkpt>
<trkpt lat="39.911352" lon="-8.435873">
<ele>300.0</ele>
<desc>Speed 7.1 km/h Distance 27.70 km</desc>
<time>2011-05-22T09:18:35.63</time>
<name>6173</name>
<sym>Dot</sym>
</trkpt>
<trkpt lat="39.911330" lon="-8.435873">
<ele>301.5</ele>
<desc>Speed 7.9 km/h Distance 27.70 km</desc>
<time>2011-05-22T09:18:36.63</time>
<name>6174</name>
<sym>Dot</sym>
</trkpt>
<trkpt lat="39.911308" lon="-8.435883">
<ele>302.0</ele>
<desc>Speed 9.0 km/h Distance 27.70 km</desc>
<time>2011-05-22T09:18:37.63</time>
<name>6175</name>
<sym>Dot</sym>
</trkpt>
<trkpt lat="39.911283" lon="-8.435895">
<ele>302.0</ele>
<desc>Speed 9.5 km/h Distance 27.71 km</desc>
<time>2011-05-22T09:18:38.63</time>
<name>6176</name>
<sym>Dot</sym>
</trkpt>
<trkpt lat="39.911262" lon="-8.435897">
<ele>303.0</ele>
<desc>Speed 8.4 km/h Distance 27.71 km</desc>
<time>2011-05-22T09:18:39.63</time>
<name>6177</name>
<sym>Dot</sym>
</trkpt>
<trkpt lat="39.911238" lon="-8.435895">
<ele>304.0</ele>
<desc>Speed 9.2 km/h Distance 27.71 km</desc>
<time>2011-05-22T09:18:40.63</time>
<name>6178</name>
<sym>Dot</sym>
</trkpt>
<trkpt lat="39.911213" lon="-8.435893">
<ele>304.0</ele>
<desc>Speed 9.6 km/h Distance 27.71 km</desc>
<time>2011-05-22T09:18:41.63</time>
<name>6179</name>
<sym>Dot</sym>
</trkpt>
<trkpt lat="39.911185" lon="-8.435895">
<ele>304.0</ele>
<desc>Speed 10.7 km/h Distance 27.72 km</desc>
<time>2011-05-22T09:18:42.63</time>
<name>6180</name>
<sym>Dot</sym>
</trkpt>
<trkpt lat="39.911157" lon="-8.435898">
<ele>304.5</ele>
<desc>Speed 11.0 km/h Distance 27.72 km</desc>
<time>2011-05-22T09:18:43.63</time>
<name>6181</name>
<sym>Dot</sym>
</trkpt>
<trkpt lat="39.911128" lon="-8.435902">
<ele>305.0</ele>
<desc>Speed 11.3 km/h Distance 27.72 km</desc>
<time>2011-05-22T09:18:44.63</time>
<name>6182</name>
<sym>Dot</sym>
</trkpt>
<trkpt lat="39.911097" lon="-8.435907">
<ele>305.5</ele>
<desc>Speed 12.1 km/h Distance 27.73 km</desc>
<time>2011-05-22T09:18:45.63</time>
<name>6183</name>
<sym>Dot</sym>
</trkpt>
<trkpt lat="39.911070" lon="-8.435908">
<ele>305.0</ele>
<desc>Speed 10.7 km/h Distance 27.73 km</desc>
<time>2011-05-22T09:18:46.63</time>
<name>6184</name>
<sym>Dot</sym>
</trkpt>
<trkpt lat="39.911043" lon="-8.435905">
<ele>305.0</ele>
<desc>Speed 10.0 km/h Distance 27.73 km</desc>
<time>2011-05-22T09:18:47.63</time>
<name>6185</name>
<sym>Dot</sym>
</trkpt>
<trkpt lat="39.911020" lon="-8.435902">
<ele>304.0</ele>
<desc>Speed 9.3 km/h Distance 27.74 km</desc>
<time>2011-05-22T09:18:48.63</time>
<name>6186</name>
<sym>Dot</sym>
</trkpt>
<trkpt lat="39.910993" lon="-8.435903">
<ele>304.5</ele>
<desc>Speed 10.3 km/h Distance 27.74 km</desc>
<time>2011-05-22T09:18:49.63</time>
<name>6187</name>
<sym>Dot</sym>
</trkpt>
<trkpt lat="39.910968" lon="-8.435902">
<ele>305.0</ele>
<desc>Speed 9.9 km/h Distance 27.74 km</desc>
<time>2011-05-22T09:18:50.63</time>
<name>6188</name>
<sym>Dot</sym>
</trkpt>
<trkpt lat="39.910943" lon="-8.435902">
<ele>305.0</ele>
<desc>Speed 9.9 km/h Distance 27.74 km</desc>
<time>2011-05-22T09:18:51.63</time>
<name>6189</name>
<sym>Dot</sym>
</trkpt>
<trkpt lat="39.910913" lon="-8.435912">
<ele>304.5</ele>
<desc>Speed 11.1 km/h Distance 27.75 km</desc>
<time>2011-05-22T09:18:52.63</time>
<name>6190</name>
<sym>Dot</sym>
</trkpt>
<trkpt lat="39.910890" lon="-8.435917">
<ele>304.5</ele>
<desc>Speed 8.4 km/h Distance 27.75 km</desc>
<time>2011-05-22T09:18:53.63</time>
<name>6191</name>
<sym>Dot</sym>
</trkpt>
<trkpt lat="39.910870" lon="-8.435922">
<ele>305.5</ele>
<desc>Speed 6.3 km/h Distance 27.75 km</desc>
<time>2011-05-22T09:18:54.63</time>
<name>6192</name>
<sym>Dot</sym>
</trkpt>
<trkpt lat="39.910848" lon="-8.435937">
<ele>307.0</ele>
<desc>Speed 8.5 km/h Distance 27.76 km</desc>
<time>2011-05-22T09:18:55.63</time>
<name>6193</name>
<sym>Dot</sym>
</trkpt>
<trkpt lat="39.910833" lon="-8.435963">
<ele>306.5</ele>
<desc>Speed 8.1 km/h Distance 27.76 km</desc>
<time>2011-05-22T09:18:56.63</time>
<name>6194</name>
<sym>Dot</sym>
</trkpt>
<trkpt lat="39.910812" lon="-8.435990">
<ele>305.5</ele>
<desc>Speed 9.9 km/h Distance 27.76 km</desc>
<time>2011-05-22T09:18:57.63</time>
<name>6195</name>
<sym>Dot</sym>
</trkpt>
<trkpt lat="39.910792" lon="-8.436015">
<ele>306.0</ele>
<desc>Speed 9.9 km/h Distance 27.76 km</desc>
<time>2011-05-22T09:18:58.63</time>
<name>6196</name>
<sym>Dot</sym>
</trkpt>
<trkpt lat="39.910772" lon="-8.436042">
<ele>305.5</ele>
<desc>Speed 9.8 km/h Distance 27.77 km</desc>
<time>2011-05-22T09:18:59.63</time>
<name>6197</name>
<sym>Dot</sym>
</trkpt>
<trkpt lat="39.910752" lon="-8.436072">
<ele>304.5</ele>
<desc>Speed 10.1 km/h Distance 27.77 km</desc>
<time>2011-05-22T09:19:00.62</time>
<name>6198</name>
<sym>Dot</sym>
</trkpt>
<trkpt lat="39.910735" lon="-8.436103">
<ele>304.0</ele>
<desc>Speed 9.5 km/h Distance 27.77 km</desc>
<time>2011-05-22T09:19:01.62</time>
<name>6199</name>
<sym>Dot</sym>
</trkpt>
<trkpt lat="39.910715" lon="-8.436138">
<ele>303.0</ele>
<desc>Speed 9.9 km/h Distance 27.78 km</desc>
<time>2011-05-22T09:19:02.62</time>
<name>6200</name>
<sym>Dot</sym>
</trkpt>
<trkpt lat="39.910693" lon="-8.436172">
<ele>301.0</ele>
<desc>Speed 10.1 km/h Distance 27.78 km</desc>
<time>2011-05-22T09:19:03.62</time>
<name>6201</name>
<sym>Dot</sym>
</trkpt>
<trkpt lat="39.910672" lon="-8.436208">
<ele>299.0</ele>
<desc>Speed 10.1 km/h Distance 27.79 km</desc>
<time>2011-05-22T09:19:04.62</time>
<name>6202</name>
<sym>Dot</sym>
</trkpt>
<trkpt lat="39.910650" lon="-8.436235">
<ele>298.0</ele>
<desc>Speed 10.3 km/h Distance 27.79 km</desc>
<time>2011-05-22T09:19:05.62</time>
<name>6203</name>
<sym>Dot</sym>
</trkpt>
<trkpt lat="39.910628" lon="-8.436265">
<ele>297.0</ele>
<desc>Speed 10.3 km/h Distance 27.79 km</desc>
<time>2011-05-22T09:19:06.62</time>
<name>6204</name>
<sym>Dot</sym>
</trkpt>
<trkpt lat="39.910607" lon="-8.436300">
<ele>295.0</ele>
<desc>Speed 9.9 km/h Distance 27.80 km</desc>
<time>2011-05-22T09:19:07.62</time>
<name>6205</name>
<sym>Dot</sym>
</trkpt>
<trkpt lat="39.910587" lon="-8.436337">
<ele>293.0</ele>
<desc>Speed 9.7 km/h Distance 27.80 km</desc>
<time>2011-05-22T09:19:08.62</time>
<name>6206</name>
<sym>Dot</sym>
</trkpt>
<trkpt lat="39.910565" lon="-8.436370">
<ele>290.5</ele>
<desc>Speed 8.9 km/h Distance 27.80 km</desc>
<time>2011-05-22T09:19:09.62</time>
<name>6207</name>
<sym>Dot</sym>
</trkpt>
<trkpt lat="39.910545" lon="-8.436400">
<ele>289.0</ele>
<desc>Speed 8.9 km/h Distance 27.81 km</desc>
<time>2011-05-22T09:19:10.62</time>
<name>6208</name>
<sym>Dot</sym>
</trkpt>
<trkpt lat="39.910525" lon="-8.436430">
<ele>287.0</ele>
<desc>Speed 9.4 km/h Distance 27.81 km</desc>
<time>2011-05-22T09:19:11.62</time>
<name>6209</name>
<sym>Dot</sym>
</trkpt>
<trkpt lat="39.910503" lon="-8.436455">
<ele>286.5</ele>
<desc>Speed 9.5 km/h Distance 27.81 km</desc>
<time>2011-05-22T09:19:12.62</time>
<name>6210</name>
<sym>Dot</sym>
</trkpt>
<trkpt lat="39.910482" lon="-8.436478">
<ele>285.5</ele>
<desc>Speed 9.5 km/h Distance 27.82 km</desc>
<time>2011-05-22T09:19:13.62</time>
<name>6211</name>
<sym>Dot</sym>
</trkpt>
<trkpt lat="39.910462" lon="-8.436497">
<ele>285.5</ele>
<desc>Speed 9.0 km/h Distance 27.82 km</desc>
<time>2011-05-22T09:19:14.62</time>
<name>6212</name>
<sym>Dot</sym>
</trkpt>
<trkpt lat="39.910443" lon="-8.436518">
<ele>285.5</ele>
<desc>Speed 9.3 km/h Distance 27.82 km</desc>
<time>2011-05-22T09:19:15.62</time>
<name>6213</name>
<sym>Dot</sym>
</trkpt>
<trkpt lat="39.910425" lon="-8.436538">
<ele>285.5</ele>
<desc>Speed 8.4 km/h Distance 27.83 km</desc>
<time>2011-05-22T09:19:16.62</time>
<name>6214</name>
<sym>Dot</sym>
</trkpt>
<trkpt lat="39.910403" lon="-8.436562">
<ele>284.5</ele>
<desc>Speed 9.9 km/h Distance 27.83 km</desc>
<time>2011-05-22T09:19:17.62</time>
<name>6215</name>
<sym>Dot</sym>
</trkpt>
<trkpt lat="39.910382" lon="-8.436580">
<ele>284.0</ele>
<desc>Speed 9.7 km/h Distance 27.83 km</desc>
<time>2011-05-22T09:19:18.62</time>
<name>6216</name>
<sym>Dot</sym>
</trkpt>
<trkpt lat="39.910363" lon="-8.436597">
<ele>284.5</ele>
<desc>Speed 7.9 km/h Distance 27.83 km</desc>
<time>2011-05-22T09:19:19.62</time>
<name>6217</name>
<sym>Dot</sym>
</trkpt>
<trkpt lat="39.910347" lon="-8.436612">
<ele>285.5</ele>
<desc>Speed 7.4 km/h Distance 27.84 km</desc>
<time>2011-05-22T09:19:20.62</time>
<name>6218</name>
<sym>Dot</sym>
</trkpt>
<trkpt lat="39.910332" lon="-8.436637">
<ele>286.5</ele>
<desc>Speed 9.1 km/h Distance 27.84 km</desc>
<time>2011-05-22T09:19:21.62</time>
<name>6219</name>
<sym>Dot</sym>
</trkpt>
<trkpt lat="39.910323" lon="-8.436663">
<ele>288.0</ele>
<desc>Speed 8.2 km/h Distance 27.84 km</desc>
<time>2011-05-22T09:19:22.62</time>
<name>6220</name>
<sym>Dot</sym>
</trkpt>
<trkpt lat="39.910317" lon="-8.436690">
<ele>290.0</ele>
<desc>Speed 8.5 km/h Distance 27.84 km</desc>
<time>2011-05-22T09:19:23.62</time>
<name>6221</name>
<sym>Dot</sym>
</trkpt>
<trkpt lat="39.910305" lon="-8.436715">
<ele>291.5</ele>
<desc>Speed 8.6 km/h Distance 27.85 km</desc>
<time>2011-05-22T09:19:24.62</time>
<name>6222</name>
<sym>Dot</sym>
</trkpt>
<trkpt lat="39.910292" lon="-8.436738">
<ele>293.5</ele>
<desc>Speed 8.1 km/h Distance 27.85 km</desc>
<time>2011-05-22T09:19:25.62</time>
<name>6223</name>
<sym>Dot</sym>
</trkpt>
<trkpt lat="39.910278" lon="-8.436755">
<ele>295.0</ele>
<desc>Speed 7.2 km/h Distance 27.85 km</desc>
<time>2011-05-22T09:19:26.62</time>
<name>6224</name>
<sym>Dot</sym>
</trkpt>
<trkpt lat="39.910250" lon="-8.436772">
<ele>294.5</ele>
<desc>Speed 11.7 km/h Distance 27.85 km</desc>
<time>2011-05-22T09:19:27.62</time>
<name>6225</name>
<sym>Dot</sym>
</trkpt>
<trkpt lat="39.910227" lon="-8.436793">
<ele>294.5</ele>
<desc>Speed 10.8 km/h Distance 27.86 km</desc>
<time>2011-05-22T09:19:28.62</time>
<name>6226</name>
<sym>Dot</sym>
</trkpt>
<trkpt lat="39.910202" lon="-8.436823">
<ele>293.5</ele>
<desc>Speed 12.0 km/h Distance 27.86 km</desc>
<time>2011-05-22T09:19:29.62</time>
<name>6227</name>
<sym>Dot</sym>
</trkpt>
<trkpt lat="39.910185" lon="-8.436853">
<ele>293.5</ele>
<desc>Speed 10.5 km/h Distance 27.86 km</desc>
<time>2011-05-22T09:19:30.62</time>
<name>6228</name>
<sym>Dot</sym>
</trkpt>
<trkpt lat="39.910160" lon="-8.436880">
<ele>293.5</ele>
<desc>Speed 12.5 km/h Distance 27.87 km</desc>
<time>2011-05-22T09:19:31.62</time>
<name>6229</name>
<sym>Dot</sym>
</trkpt>
<trkpt lat="39.910137" lon="-8.436908">
<ele>293.5</ele>
<desc>Speed 12.1 km/h Distance 27.87 km</desc>
<time>2011-05-22T09:19:32.62</time>
<name>6230</name>
<sym>Dot</sym>
</trkpt>
<trkpt lat="39.910112" lon="-8.436937">
<ele>293.0</ele>
<desc>Speed 12.8 km/h Distance 27.88 km</desc>
<time>2011-05-22T09:19:33.62</time>
<name>6231</name>
<sym>Dot</sym>
</trkpt>
<trkpt lat="39.910098" lon="-8.436967">
<ele>294.0</ele>
<desc>Speed 10.3 km/h Distance 27.88 km</desc>
<time>2011-05-22T09:19:34.62</time>
<name>6232</name>
<sym>Dot</sym>
</trkpt>
<trkpt lat="39.910085" lon="-8.437012">
<ele>293.5</ele>
<desc>Speed 12.7 km/h Distance 27.88 km</desc>
<time>2011-05-22T09:19:35.62</time>
<name>6233</name>
<sym>Dot</sym>
</trkpt>
<trkpt lat="39.910063" lon="-8.437047">
<ele>293.0</ele>
<desc>Speed 13.6 km/h Distance 27.89 km</desc>
<time>2011-05-22T09:19:36.62</time>
<name>6234</name>
<sym>Dot</sym>
</trkpt>
<trkpt lat="39.910038" lon="-8.437078">
<ele>293.5</ele>
<desc>Speed 13.4 km/h Distance 27.89 km</desc>
<time>2011-05-22T09:19:37.62</time>
<name>6235</name>
<sym>Dot</sym>
</trkpt>
<trkpt lat="39.910007" lon="-8.437113">
<ele>292.5</ele>
<desc>Speed 15.0 km/h Distance 27.89 km</desc>
<time>2011-05-22T09:19:38.62</time>
<name>6236</name>
<sym>Dot</sym>
</trkpt>
<trkpt lat="39.909977" lon="-8.437138">
<ele>291.5</ele>
<desc>Speed 12.9 km/h Distance 27.90 km</desc>
<time>2011-05-22T09:19:39.62</time>
<name>6237</name>
<sym>Dot</sym>
</trkpt>
<trkpt lat="39.909948" lon="-8.437158">
<ele>291.5</ele>
<desc>Speed 12.0 km/h Distance 27.90 km</desc>
<time>2011-05-22T09:19:40.62</time>
<name>6238</name>
<sym>Dot</sym>
</trkpt>
<trkpt lat="39.909918" lon="-8.437173">
<ele>290.5</ele>
<desc>Speed 12.5 km/h Distance 27.91 km</desc>
<time>2011-05-22T09:19:41.62</time>
<name>6239</name>
<sym>Dot</sym>
</trkpt>
<trkpt lat="39.909887" lon="-8.437190">
<ele>290.0</ele>
<desc>Speed 12.6 km/h Distance 27.91 km</desc>
<time>2011-05-22T09:19:42.62</time>
<name>6240</name>
<sym>Dot</sym>
</trkpt>
<trkpt lat="39.909855" lon="-8.437198">
<ele>291.5</ele>
<desc>Speed 12.1 km/h Distance 27.91 km</desc>
<time>2011-05-22T09:19:43.62</time>
<name>6241</name>
<sym>Dot</sym>
</trkpt>
<trkpt lat="39.909812" lon="-8.437217">
<ele>290.0</ele>
<desc>Speed 16.5 km/h Distance 27.92 km</desc>
<time>2011-05-22T09:19:44.62</time>
<name>6242</name>
<sym>Dot</sym>
</trkpt>
<trkpt lat="39.909765" lon="-8.437237">
<ele>289.0</ele>
<desc>Speed 18.3 km/h Distance 27.92 km</desc>
<time>2011-05-22T09:19:45.62</time>
<name>6243</name>
<sym>Dot</sym>
</trkpt>
<trkpt lat="39.909713" lon="-8.437253">
<ele>288.0</ele>
<desc>Speed 19.4 km/h Distance 27.93 km</desc>
<time>2011-05-22T09:19:46.62</time>
<name>6244</name>
<sym>Dot</sym>
</trkpt>
<trkpt lat="39.909662" lon="-8.437260">
<ele>288.0</ele>
<desc>Speed 19.7 km/h Distance 27.94 km</desc>
<time>2011-05-22T09:19:47.62</time>
<name>6245</name>
<sym>Dot</sym>
</trkpt>
<trkpt lat="39.909607" lon="-8.437267">
<ele>287.5</ele>
<desc>Speed 20.8 km/h Distance 27.94 km</desc>
<time>2011-05-22T09:19:48.62</time>
<name>6246</name>
<sym>Dot</sym>
</trkpt>
<trkpt lat="39.909548" lon="-8.437275">
<ele>288.0</ele>
<desc>Speed 22.4 km/h Distance 27.95 km</desc>
<time>2011-05-22T09:19:49.62</time>
<name>6247</name>
<sym>Dot</sym>
</trkpt>
<trkpt lat="39.909485" lon="-8.437282">
<ele>288.0</ele>
<desc>Speed 23.7 km/h Distance 27.96 km</desc>
<time>2011-05-22T09:19:50.62</time>
<name>6248</name>
<sym>Dot</sym>
</trkpt>
<trkpt lat="39.909423" lon="-8.437288">
<ele>286.5</ele>
<desc>Speed 22.9 km/h Distance 27.96 km</desc>
<time>2011-05-22T09:19:51.62</time>
<name>6249</name>
<sym>Dot</sym>
</trkpt>
<trkpt lat="39.909358" lon="-8.437302">
<ele>286.0</ele>
<desc>Speed 25.4 km/h Distance 27.97 km</desc>
<time>2011-05-22T09:19:52.62</time>
<name>6250</name>
<sym>Dot</sym>
</trkpt>
<trkpt lat="39.909288" lon="-8.437312">
<ele>285.0</ele>
<desc>Speed 26.0 km/h Distance 27.98 km</desc>
<time>2011-05-22T09:19:53.62</time>
<name>6251</name>
<sym>Dot</sym>
</trkpt>
<trkpt lat="39.909220" lon="-8.437325">
<ele>284.0</ele>
<desc>Speed 26.4 km/h Distance 27.98 km</desc>
<time>2011-05-22T09:19:54.62</time>
<name>6252</name>
<sym>Dot</sym>
</trkpt>
<trkpt lat="39.909152" lon="-8.437335">
<ele>283.5</ele>
<desc>Speed 26.7 km/h Distance 27.99 km</desc>
<time>2011-05-22T09:19:55.62</time>
<name>6253</name>
<sym>Dot</sym>
</trkpt>
<trkpt lat="39.909078" lon="-8.437348">
<ele>282.5</ele>
<desc>Speed 27.8 km/h Distance 28.00 km</desc>
<time>2011-05-22T09:19:56.62</time>
<name>6254</name>
<sym>Dot</sym>
</trkpt>
<trkpt lat="39.909005" lon="-8.437367">
<ele>282.0</ele>
<desc>Speed 28.9 km/h Distance 28.01 km</desc>
<time>2011-05-22T09:19:57.62</time>
<name>6255</name>
<sym>Dot</sym>
</trkpt>
<trkpt lat="39.908928" lon="-8.437383">
<ele>281.0</ele>
<desc>Speed 29.6 km/h Distance 28.02 km</desc>
<time>2011-05-22T09:19:58.62</time>
<name>6256</name>
<sym>Dot</sym>
</trkpt>
<trkpt lat="39.908850" lon="-8.437395">
<ele>280.0</ele>
<desc>Speed 29.7 km/h Distance 28.03 km</desc>
<time>2011-05-22T09:19:59.62</time>
<name>6257</name>
<sym>Dot</sym>
</trkpt>
<trkpt lat="39.908772" lon="-8.437405">
<ele>279.5</ele>
<desc>Speed 30.2 km/h Distance 28.04 km</desc>
<time>2011-05-22T09:20:00.61</time>
<name>6258</name>
<sym>Dot</sym>
</trkpt>
<trkpt lat="39.908693" lon="-8.437420">
<ele>279.0</ele>
<desc>Speed 30.8 km/h Distance 28.04 km</desc>
<time>2011-05-22T09:20:01.61</time>
<name>6259</name>
<sym>Dot</sym>
</trkpt>
<trkpt lat="39.908615" lon="-8.437433">
<ele>278.5</ele>
<desc>Speed 30.9 km/h Distance 28.05 km</desc>
<time>2011-05-22T09:20:02.61</time>
<name>6260</name>
<sym>Dot</sym>
</trkpt>
<trkpt lat="39.908537" lon="-8.437448">
<ele>278.0</ele>
<desc>Speed 30.3 km/h Distance 28.06 km</desc>
<time>2011-05-22T09:20:03.61</time>
<name>6261</name>
<sym>Dot</sym>
</trkpt>
<trkpt lat="39.908458" lon="-8.437467">
<ele>277.0</ele>
<desc>Speed 29.8 km/h Distance 28.07 km</desc>
<time>2011-05-22T09:20:04.61</time>
<name>6262</name>
<sym>Dot</sym>
</trkpt>
<trkpt lat="39.908385" lon="-8.437490">
<ele>276.5</ele>
<desc>Speed 29.6 km/h Distance 28.08 km</desc>
<time>2011-05-22T09:20:05.61</time>
<name>6263</name>
<sym>Dot</sym>
</trkpt>
<trkpt lat="39.908312" lon="-8.437512">
<ele>276.5</ele>
<desc>Speed 29.3 km/h Distance 28.09 km</desc>
<time>2011-05-22T09:20:06.61</time>
<name>6264</name>
<sym>Dot</sym>
</trkpt>
<trkpt lat="39.908242" lon="-8.437533">
<ele>276.5</ele>
<desc>Speed 28.3 km/h Distance 28.10 km</desc>
<time>2011-05-22T09:20:07.61</time>
<name>6265</name>
<sym>Dot</sym>
</trkpt>
<trkpt lat="39.908168" lon="-8.437553">
<ele>276.5</ele>
<desc>Speed 28.9 km/h Distance 28.10 km</desc>
<time>2011-05-22T09:20:08.61</time>
<name>6266</name>
<sym>Dot</sym>
</trkpt>
<trkpt lat="39.908097" lon="-8.437578">
<ele>276.5</ele>
<desc>Speed 28.9 km/h Distance 28.11 km</desc>
<time>2011-05-22T09:20:09.61</time>
<name>6267</name>
<sym>Dot</sym>
</trkpt>
<trkpt lat="39.908027" lon="-8.437603">
<ele>276.0</ele>
<desc>Speed 28.4 km/h Distance 28.12 km</desc>
<time>2011-05-22T09:20:10.61</time>
<name>6268</name>
<sym>Dot</sym>
</trkpt>
<trkpt lat="39.907957" lon="-8.437628">
<ele>275.5</ele>
<desc>Speed 27.9 km/h Distance 28.13 km</desc>
<time>2011-05-22T09:20:11.61</time>
<name>6269</name>
<sym>Dot</sym>
</trkpt>
<trkpt lat="39.907890" lon="-8.437652">
<ele>275.0</ele>
<desc>Speed 27.8 km/h Distance 28.14 km</desc>
<time>2011-05-22T09:20:12.61</time>
<name>6270</name>
<sym>Dot</sym>
</trkpt>
<trkpt lat="39.907823" lon="-8.437677">
<ele>275.0</ele>
<desc>Speed 27.3 km/h Distance 28.14 km</desc>
<time>2011-05-22T09:20:13.61</time>
<name>6271</name>
<sym>Dot</sym>
</trkpt>
<trkpt lat="39.907758" lon="-8.437700">
<ele>275.0</ele>
<desc>Speed 26.3 km/h Distance 28.15 km</desc>
<time>2011-05-22T09:20:14.61</time>
<name>6272</name>
<sym>Dot</sym>
</trkpt>
<trkpt lat="39.907698" lon="-8.437722">
<ele>275.0</ele>
<desc>Speed 24.8 km/h Distance 28.16 km</desc>
<time>2011-05-22T09:20:15.61</time>
<name>6273</name>
<sym>Dot</sym>
</trkpt>
<trkpt lat="39.907640" lon="-8.437740">
<ele>275.5</ele>
<desc>Speed 23.4 km/h Distance 28.16 km</desc>
<time>2011-05-22T09:20:16.61</time>
<name>6274</name>
<sym>Dot</sym>
</trkpt>
<trkpt lat="39.907587" lon="-8.437760">
<ele>275.0</ele>
<desc>Speed 21.8 km/h Distance 28.17 km</desc>
<time>2011-05-22T09:20:17.61</time>
<name>6275</name>
<sym>Dot</sym>
</trkpt>
<trkpt lat="39.907537" lon="-8.437778">
<ele>274.5</ele>
<desc>Speed 20.3 km/h Distance 28.18 km</desc>
<time>2011-05-22T09:20:18.61</time>
<name>6276</name>
<sym>Dot</sym>
</trkpt>
<trkpt lat="39.907490" lon="-8.437792">
<ele>274.5</ele>
<desc>Speed 18.5 km/h Distance 28.18 km</desc>
<time>2011-05-22T09:20:19.61</time>
<name>6277</name>
<sym>Dot</sym>
</trkpt>
<trkpt lat="39.907448" lon="-8.437805">
<ele>274.5</ele>
<desc>Speed 16.7 km/h Distance 28.19 km</desc>
<time>2011-05-22T09:20:20.61</time>
<name>6278</name>
<sym>Dot</sym>
</trkpt>
<trkpt lat="39.907410" lon="-8.437817">
<ele>274.5</ele>
<desc>Speed 14.9 km/h Distance 28.19 km</desc>
<time>2011-05-22T09:20:21.61</time>
<name>6279</name>
<sym>Dot</sym>
</trkpt>
<trkpt lat="39.907377" lon="-8.437828">
<ele>274.0</ele>
<desc>Speed 13.8 km/h Distance 28.19 km</desc>
<time>2011-05-22T09:20:22.61</time>
<name>6280</name>
<sym>Dot</sym>
</trkpt>
<trkpt lat="39.907347" lon="-8.437838">
<ele>274.0</ele>
<desc>Speed 12.0 km/h Distance 28.20 km</desc>
<time>2011-05-22T09:20:23.61</time>
<name>6281</name>
<sym>Dot</sym>
</trkpt>
<trkpt lat="39.907318" lon="-8.437848">
<ele>274.0</ele>
<desc>Speed 10.9 km/h Distance 28.20 km</desc>
<time>2011-05-22T09:20:24.61</time>
<name>6282</name>
<sym>Dot</sym>
</trkpt>
<trkpt lat="39.907295" lon="-8.437860">
<ele>273.5</ele>
<desc>Speed 9.5 km/h Distance 28.20 km</desc>
<time>2011-05-22T09:20:25.61</time>
<name>6283</name>
<sym>Dot</sym>
</trkpt>
<trkpt lat="39.907275" lon="-8.437870">
<ele>273.5</ele>
<desc>Speed 8.3 km/h Distance 28.21 km</desc>
<time>2011-05-22T09:20:26.61</time>
<name>6284</name>
<sym>Dot</sym>
</trkpt>
<trkpt lat="39.907255" lon="-8.437878">
<ele>273.0</ele>
<desc>Speed 7.4 km/h Distance 28.21 km</desc>
<time>2011-05-22T09:20:27.61</time>
<name>6285</name>
<sym>Dot</sym>
</trkpt>
<trkpt lat="39.907240" lon="-8.437887">
<ele>273.0</ele>
<desc>Speed 6.7 km/h Distance 28.21 km</desc>
<time>2011-05-22T09:20:28.61</time>
<name>6286</name>
<sym>Dot</sym>
</trkpt>
<trkpt lat="39.907225" lon="-8.437893">
<ele>273.0</ele>
<desc>Speed 6.1 km/h Distance 28.21 km</desc>
<time>2011-05-22T09:20:29.61</time>
<name>6287</name>
<sym>Dot</sym>
</trkpt>
<trkpt lat="39.907212" lon="-8.437897">
<ele>273.0</ele>
<desc>Speed 4.6 km/h Distance 28.21 km</desc>
<time>2011-05-22T09:20:30.61</time>
<name>6288</name>
<sym>Dot</sym>
</trkpt>
<trkpt lat="39.907205" lon="-8.437900">
<ele>273.0</ele>
<desc>Speed 3.1 km/h Distance 28.21 km</desc>
<time>2011-05-22T09:20:31.61</time>
<name>6289</name>
<sym>Dot</sym>
</trkpt>
<trkpt lat="39.907197" lon="-8.437905">
<ele>273.0</ele>
<desc>Speed 3.6 km/h Distance 28.22 km</desc>
<time>2011-05-22T09:20:32.61</time>
<name>6290</name>
<sym>Dot</sym>
</trkpt>
<trkpt lat="39.907188" lon="-8.437913">
<ele>273.0</ele>
<desc>Speed 3.6 km/h Distance 28.22 km</desc>
<time>2011-05-22T09:20:33.61</time>
<name>6291</name>
<sym>Dot</sym>
</trkpt>
<trkpt lat="39.907177" lon="-8.437923">
<ele>273.0</ele>
<desc>Speed 5.7 km/h Distance 28.22 km</desc>
<time>2011-05-22T09:20:34.61</time>
<name>6292</name>
<sym>Dot</sym>
</trkpt>
<trkpt lat="39.907163" lon="-8.437932">
<ele>273.5</ele>
<desc>Speed 5.2 km/h Distance 28.22 km</desc>
<time>2011-05-22T09:20:35.61</time>
<name>6293</name>
<sym>Dot</sym>
</trkpt>
<trkpt lat="39.907155" lon="-8.437937">
<ele>274.0</ele>
<desc>Speed 3.6 km/h Distance 28.22 km</desc>
<time>2011-05-22T09:20:36.61</time>
<name>6294</name>
<sym>Dot</sym>
</trkpt>
<trkpt lat="39.907145" lon="-8.437942">
<ele>274.5</ele>
<desc>Speed 4.4 km/h Distance 28.22 km</desc>
<time>2011-05-22T09:20:37.61</time>
<name>6295</name>
<sym>Dot</sym>
</trkpt>
<trkpt lat="39.907132" lon="-8.437948">
<ele>275.0</ele>
<desc>Speed 5.3 km/h Distance 28.22 km</desc>
<time>2011-05-22T09:20:38.61</time>
<name>6296</name>
<sym>Dot</sym>
</trkpt>
<trkpt lat="39.907112" lon="-8.437957">
<ele>275.0</ele>
<desc>Speed 8.5 km/h Distance 28.23 km</desc>
<time>2011-05-22T09:20:39.61</time>
<name>6297</name>
<sym>Dot</sym>
</trkpt>
<trkpt lat="39.907088" lon="-8.437965">
<ele>275.0</ele>
<desc>Speed 9.9 km/h Distance 28.23 km</desc>
<time>2011-05-22T09:20:40.61</time>
<name>6298</name>
<sym>Dot</sym>
</trkpt>
<trkpt lat="39.907062" lon="-8.437977">
<ele>275.0</ele>
<desc>Speed 10.8 km/h Distance 28.23 km</desc>
<time>2011-05-22T09:20:41.61</time>
<name>6299</name>
<sym>Dot</sym>
</trkpt>
<trkpt lat="39.907033" lon="-8.437985">
<ele>275.0</ele>
<desc>Speed 11.7 km/h Distance 28.24 km</desc>
<time>2011-05-22T09:20:42.61</time>
<name>6300</name>
<sym>Dot</sym>
</trkpt>
<trkpt lat="39.907003" lon="-8.437995">
<ele>275.0</ele>
<desc>Speed 12.2 km/h Distance 28.24 km</desc>
<time>2011-05-22T09:20:43.61</time>
<name>6301</name>
<sym>Dot</sym>
</trkpt>
<trkpt lat="39.906973" lon="-8.438005">
<ele>275.0</ele>
<desc>Speed 12.2 km/h Distance 28.24 km</desc>
<time>2011-05-22T09:20:44.61</time>
<name>6302</name>
<sym>Dot</sym>
</trkpt>
<trkpt lat="39.906945" lon="-8.438013">
<ele>276.0</ele>
<desc>Speed 11.7 km/h Distance 28.25 km</desc>
<time>2011-05-22T09:20:45.61</time>
<name>6303</name>
<sym>Dot</sym>
</trkpt>
<trkpt lat="39.906917" lon="-8.438025">
<ele>276.0</ele>
<desc>Speed 11.8 km/h Distance 28.25 km</desc>
<time>2011-05-22T09:20:46.61</time>
<name>6304</name>
<sym>Dot</sym>
</trkpt>
<trkpt lat="39.906888" lon="-8.438035">
<ele>276.5</ele>
<desc>Speed 11.7 km/h Distance 28.25 km</desc>
<time>2011-05-22T09:20:47.61</time>
<name>6305</name>
<sym>Dot</sym>
</trkpt>
<trkpt lat="39.906858" lon="-8.438045">
<ele>276.5</ele>
<desc>Speed 11.7 km/h Distance 28.26 km</desc>
<time>2011-05-22T09:20:48.61</time>
<name>6306</name>
<sym>Dot</sym>
</trkpt>
<trkpt lat="39.906830" lon="-8.438052">
<ele>277.0</ele>
<desc>Speed 12.0 km/h Distance 28.26 km</desc>
<time>2011-05-22T09:20:49.61</time>
<name>6307</name>
<sym>Dot</sym>
</trkpt>
<trkpt lat="39.906800" lon="-8.438062">
<ele>277.5</ele>
<desc>Speed 11.7 km/h Distance 28.26 km</desc>
<time>2011-05-22T09:20:50.61</time>
<name>6308</name>
<sym>Dot</sym>
</trkpt>
<trkpt lat="39.906772" lon="-8.438070">
<ele>278.0</ele>
<desc>Speed 11.4 km/h Distance 28.27 km</desc>
<time>2011-05-22T09:20:51.61</time>
<name>6309</name>
<sym>Dot</sym>
</trkpt>
<trkpt lat="39.906743" lon="-8.438078">
<ele>278.5</ele>
<desc>Speed 11.6 km/h Distance 28.27 km</desc>
<time>2011-05-22T09:20:52.61</time>
<name>6310</name>
<sym>Dot</sym>
</trkpt>
<trkpt lat="39.906717" lon="-8.438092">
<ele>278.5</ele>
<desc>Speed 11.2 km/h Distance 28.27 km</desc>
<time>2011-05-22T09:20:53.61</time>
<name>6311</name>
<sym>Dot</sym>
</trkpt>
<trkpt lat="39.906692" lon="-8.438103">
<ele>279.0</ele>
<desc>Speed 10.5 km/h Distance 28.27 km</desc>
<time>2011-05-22T09:20:54.61</time>
<name>6312</name>
<sym>Dot</sym>
</trkpt>
<trkpt lat="39.906668" lon="-8.438115">
<ele>279.0</ele>
<desc>Speed 9.6 km/h Distance 28.28 km</desc>
<time>2011-05-22T09:20:55.61</time>
<name>6313</name>
<sym>Dot</sym>
</trkpt>
<trkpt lat="39.906647" lon="-8.438128">
<ele>279.5</ele>
<desc>Speed 9.2 km/h Distance 28.28 km</desc>
<time>2011-05-22T09:20:56.61</time>
<name>6314</name>
<sym>Dot</sym>
</trkpt>
<trkpt lat="39.906625" lon="-8.438140">
<ele>279.5</ele>
<desc>Speed 9.5 km/h Distance 28.28 km</desc>
<time>2011-05-22T09:20:57.61</time>
<name>6315</name>
<sym>Dot</sym>
</trkpt>
<trkpt lat="39.906607" lon="-8.438157">
<ele>279.5</ele>
<desc>Speed 9.1 km/h Distance 28.29 km</desc>
<time>2011-05-22T09:20:58.61</time>
<name>6316</name>
<sym>Dot</sym>
</trkpt>
<trkpt lat="39.906587" lon="-8.438173">
<ele>280.0</ele>
<desc>Speed 9.0 km/h Distance 28.29 km</desc>
<time>2011-05-22T09:20:59.61</time>
<name>6317</name>
<sym>Dot</sym>
</trkpt>
<trkpt lat="39.906565" lon="-8.438187">
<ele>280.0</ele>
<desc>Speed 9.9 km/h Distance 28.29 km</desc>
<time>2011-05-22T09:21:00.60</time>
<name>6318</name>
<sym>Dot</sym>
</trkpt>
<trkpt lat="39.906542" lon="-8.438202">
<ele>280.0</ele>
<desc>Speed 9.9 km/h Distance 28.29 km</desc>
<time>2011-05-22T09:21:01.60</time>
<name>6319</name>
<sym>Dot</sym>
</trkpt>
<trkpt lat="39.906518" lon="-8.438217">
<ele>280.5</ele>
<desc>Speed 10.1 km/h Distance 28.30 km</desc>
<time>2011-05-22T09:21:02.60</time>
<name>6320</name>
<sym>Dot</sym>
</trkpt>
<trkpt lat="39.906500" lon="-8.438232">
<ele>281.0</ele>
<desc>Speed 8.4 km/h Distance 28.30 km</desc>
<time>2011-05-22T09:21:03.60</time>
<name>6321</name>
<sym>Dot</sym>
</trkpt>
<trkpt lat="39.906480" lon="-8.438247">
<ele>281.5</ele>
<desc>Speed 9.0 km/h Distance 28.30 km</desc>
<time>2011-05-22T09:21:04.60</time>
<name>6322</name>
<sym>Dot</sym>
</trkpt>
<trkpt lat="39.906458" lon="-8.438267">
<ele>281.5</ele>
<desc>Speed 10.8 km/h Distance 28.30 km</desc>
<time>2011-05-22T09:21:05.60</time>
<name>6323</name>
<sym>Dot</sym>
</trkpt>
<trkpt lat="39.906432" lon="-8.438292">
<ele>281.0</ele>
<desc>Speed 12.3 km/h Distance 28.31 km</desc>
<time>2011-05-22T09:21:06.60</time>
<name>6324</name>
<sym>Dot</sym>
</trkpt>
<trkpt lat="39.906403" lon="-8.438317">
<ele>281.0</ele>
<desc>Speed 13.3 km/h Distance 28.31 km</desc>
<time>2011-05-22T09:21:07.60</time>
<name>6325</name>
<sym>Dot</sym>
</trkpt>
<trkpt lat="39.906373" lon="-8.438342">
<ele>280.5</ele>
<desc>Speed 13.8 km/h Distance 28.32 km</desc>
<time>2011-05-22T09:21:08.60</time>
<name>6326</name>
<sym>Dot</sym>
</trkpt>
<trkpt lat="39.906342" lon="-8.438367">
<ele>280.0</ele>
<desc>Speed 14.1 km/h Distance 28.32 km</desc>
<time>2011-05-22T09:21:09.60</time>
<name>6327</name>
<sym>Dot</sym>
</trkpt>
<trkpt lat="39.906310" lon="-8.438392">
<ele>280.0</ele>
<desc>Speed 14.1 km/h Distance 28.32 km</desc>
<time>2011-05-22T09:21:10.60</time>
<name>6328</name>
<sym>Dot</sym>
</trkpt>
<trkpt lat="39.906280" lon="-8.438415">
<ele>280.0</ele>
<desc>Speed 13.8 km/h Distance 28.33 km</desc>
<time>2011-05-22T09:21:11.60</time>
<name>6329</name>
<sym>Dot</sym>
</trkpt>
<trkpt lat="39.906250" lon="-8.438438">
<ele>279.5</ele>
<desc>Speed 13.8 km/h Distance 28.33 km</desc>
<time>2011-05-22T09:21:12.60</time>
<name>6330</name>
<sym>Dot</sym>
</trkpt>
<trkpt lat="39.906220" lon="-8.438458">
<ele>279.5</ele>
<desc>Speed 13.3 km/h Distance 28.34 km</desc>
<time>2011-05-22T09:21:13.60</time>
<name>6331</name>
<sym>Dot</sym>
</trkpt>
<trkpt lat="39.906190" lon="-8.438478">
<ele>279.5</ele>
<desc>Speed 13.1 km/h Distance 28.34 km</desc>
<time>2011-05-22T09:21:14.60</time>
<name>6332</name>
<sym>Dot</sym>
</trkpt>
<trkpt lat="39.906160" lon="-8.438498">
<ele>279.5</ele>
<desc>Speed 12.5 km/h Distance 28.34 km</desc>
<time>2011-05-22T09:21:15.60</time>
<name>6333</name>
<sym>Dot</sym>
</trkpt>
<trkpt lat="39.906133" lon="-8.438517">
<ele>280.0</ele>
<desc>Speed 12.4 km/h Distance 28.35 km</desc>
<time>2011-05-22T09:21:16.60</time>
<name>6334</name>
<sym>Dot</sym>
</trkpt>
<trkpt lat="39.906103" lon="-8.438542">
<ele>279.0</ele>
<desc>Speed 13.5 km/h Distance 28.35 km</desc>
<time>2011-05-22T09:21:17.60</time>
<name>6335</name>
<sym>Dot</sym>
</trkpt>
<trkpt lat="39.906073" lon="-8.438567">
<ele>278.5</ele>
<desc>Speed 14.2 km/h Distance 28.35 km</desc>
<time>2011-05-22T09:21:18.60</time>
<name>6336</name>
<sym>Dot</sym>
</trkpt>
<trkpt lat="39.906043" lon="-8.438590">
<ele>278.0</ele>
<desc>Speed 13.5 km/h Distance 28.36 km</desc>
<time>2011-05-22T09:21:19.60</time>
<name>6337</name>
<sym>Dot</sym>
</trkpt>
<trkpt lat="39.906015" lon="-8.438612">
<ele>278.0</ele>
<desc>Speed 13.2 km/h Distance 28.36 km</desc>
<time>2011-05-22T09:21:20.60</time>
<name>6338</name>
<sym>Dot</sym>
</trkpt>
<trkpt lat="39.905987" lon="-8.438635">
<ele>278.0</ele>
<desc>Speed 13.2 km/h Distance 28.37 km</desc>
<time>2011-05-22T09:21:21.60</time>
<name>6339</name>
<sym>Dot</sym>
</trkpt>
<trkpt lat="39.905960" lon="-8.438655">
<ele>278.0</ele>
<desc>Speed 11.8 km/h Distance 28.37 km</desc>
<time>2011-05-22T09:21:22.60</time>
<name>6340</name>
<sym>Dot</sym>
</trkpt>
<trkpt lat="39.905933" lon="-8.438677">
<ele>278.5</ele>
<desc>Speed 12.5 km/h Distance 28.37 km</desc>
<time>2011-05-22T09:21:23.60</time>
<name>6341</name>
<sym>Dot</sym>
</trkpt>
<trkpt lat="39.905903" lon="-8.438697">
<ele>278.5</ele>
<desc>Speed 13.2 km/h Distance 28.38 km</desc>
<time>2011-05-22T09:21:24.60</time>
<name>6342</name>
<sym>Dot</sym>
</trkpt>
<trkpt lat="39.905873" lon="-8.438718">
<ele>278.5</ele>
<desc>Speed 13.3 km/h Distance 28.38 km</desc>
<time>2011-05-22T09:21:25.60</time>
<name>6343</name>
<sym>Dot</sym>
</trkpt>
<trkpt lat="39.905845" lon="-8.438742">
<ele>278.5</ele>
<desc>Speed 13.5 km/h Distance 28.38 km</desc>
<time>2011-05-22T09:21:26.60</time>
<name>6344</name>
<sym>Dot</sym>
</trkpt>
<trkpt lat="39.905817" lon="-8.438768">
<ele>278.0</ele>
<desc>Speed 13.8 km/h Distance 28.39 km</desc>
<time>2011-05-22T09:21:27.60</time>
<name>6345</name>
<sym>Dot</sym>
</trkpt>
<trkpt lat="39.905790" lon="-8.438798">
<ele>278.0</ele>
<desc>Speed 13.4 km/h Distance 28.39 km</desc>
<time>2011-05-22T09:21:28.60</time>
<name>6346</name>
<sym>Dot</sym>
</trkpt>
<trkpt lat="39.905765" lon="-8.438832">
<ele>278.0</ele>
<desc>Speed 13.8 km/h Distance 28.40 km</desc>
<time>2011-05-22T09:21:29.60</time>
<name>6347</name>
<sym>Dot</sym>
</trkpt>
<trkpt lat="39.905743" lon="-8.438868">
<ele>278.0</ele>
<desc>Speed 14.1 km/h Distance 28.40 km</desc>
<time>2011-05-22T09:21:30.60</time>
<name>6348</name>
<sym>Dot</sym>
</trkpt>
<trkpt lat="39.905723" lon="-8.438908">
<ele>278.0</ele>
<desc>Speed 14.4 km/h Distance 28.40 km</desc>
<time>2011-05-22T09:21:31.60</time>
<name>6349</name>
<sym>Dot</sym>
</trkpt>
<trkpt lat="39.905702" lon="-8.438947">
<ele>278.0</ele>
<desc>Speed 14.7 km/h Distance 28.41 km</desc>
<time>2011-05-22T09:21:32.60</time>
<name>6350</name>
<sym>Dot</sym>
</trkpt>
<trkpt lat="39.905678" lon="-8.438985">
<ele>277.5</ele>
<desc>Speed 14.4 km/h Distance 28.41 km</desc>
<time>2011-05-22T09:21:33.60</time>
<name>6351</name>
<sym>Dot</sym>
</trkpt>
<trkpt lat="39.905657" lon="-8.439022">
<ele>277.5</ele>
<desc>Speed 13.8 km/h Distance 28.42 km</desc>
<time>2011-05-22T09:21:34.60</time>
<name>6352</name>
<sym>Dot</sym>
</trkpt>
<trkpt lat="39.905632" lon="-8.439053">
<ele>277.5</ele>
<desc>Speed 13.8 km/h Distance 28.42 km</desc>
<time>2011-05-22T09:21:35.60</time>
<name>6353</name>
<sym>Dot</sym>
</trkpt>
<trkpt lat="39.905600" lon="-8.439077">
<ele>277.5</ele>
<desc>Speed 13.9 km/h Distance 28.42 km</desc>
<time>2011-05-22T09:21:36.60</time>
<name>6354</name>
<sym>Dot</sym>
</trkpt>
<trkpt lat="39.905567" lon="-8.439088">
<ele>278.0</ele>
<desc>Speed 14.0 km/h Distance 28.43 km</desc>
<time>2011-05-22T09:21:37.60</time>
<name>6355</name>
<sym>Dot</sym>
</trkpt>
<trkpt lat="39.905530" lon="-8.439090">
<ele>277.5</ele>
<desc>Speed 14.4 km/h Distance 28.43 km</desc>
<time>2011-05-22T09:21:38.60</time>
<name>6356</name>
<sym>Dot</sym>
</trkpt>
<trkpt lat="39.905493" lon="-8.439093">
<ele>277.5</ele>
<desc>Speed 14.6 km/h Distance 28.44 km</desc>
<time>2011-05-22T09:21:39.60</time>
<name>6357</name>
<sym>Dot</sym>
</trkpt>
<trkpt lat="39.905455" lon="-8.439098">
<ele>277.5</ele>
<desc>Speed 15.0 km/h Distance 28.44 km</desc>
<time>2011-05-22T09:21:40.60</time>
<name>6358</name>
<sym>Dot</sym>
</trkpt>
<trkpt lat="39.905420" lon="-8.439105">
<ele>277.5</ele>
<desc>Speed 14.4 km/h Distance 28.44 km</desc>
<time>2011-05-22T09:21:41.60</time>
<name>6359</name>
<sym>Dot</sym>
</trkpt>
<trkpt lat="39.905387" lon="-8.439115">
<ele>277.5</ele>
<desc>Speed 14.0 km/h Distance 28.45 km</desc>
<time>2011-05-22T09:21:42.60</time>
<name>6360</name>
<sym>Dot</sym>
</trkpt>
<trkpt lat="39.905355" lon="-8.439132">
<ele>278.0</ele>
<desc>Speed 13.6 km/h Distance 28.45 km</desc>
<time>2011-05-22T09:21:43.60</time>
<name>6361</name>
<sym>Dot</sym>
</trkpt>
<trkpt lat="39.905323" lon="-8.439153">
<ele>277.5</ele>
<desc>Speed 13.8 km/h Distance 28.46 km</desc>
<time>2011-05-22T09:21:44.59</time>
<name>6362</name>
<sym>Dot</sym>
</trkpt>
<trkpt lat="39.905295" lon="-8.439177">
<ele>277.5</ele>
<desc>Speed 13.5 km/h Distance 28.46 km</desc>
<time>2011-05-22T09:21:45.59</time>
<name>6363</name>
<sym>Dot</sym>
</trkpt>
<trkpt lat="39.905265" lon="-8.439202">
<ele>277.5</ele>
<desc>Speed 13.6 km/h Distance 28.46 km</desc>
<time>2011-05-22T09:21:46.59</time>
<name>6364</name>
<sym>Dot</sym>
</trkpt>
<trkpt lat="39.905238" lon="-8.439227">
<ele>277.5</ele>
<desc>Speed 13.4 km/h Distance 28.47 km</desc>
<time>2011-05-22T09:21:47.59</time>
<name>6365</name>
<sym>Dot</sym>
</trkpt>
<trkpt lat="39.905210" lon="-8.439248">
<ele>277.5</ele>
<desc>Speed 13.1 km/h Distance 28.47 km</desc>
<time>2011-05-22T09:21:48.59</time>
<name>6366</name>
<sym>Dot</sym>
</trkpt>
<trkpt lat="39.905182" lon="-8.439270">
<ele>277.5</ele>
<desc>Speed 12.9 km/h Distance 28.47 km</desc>
<time>2011-05-22T09:21:49.59</time>
<name>6367</name>
<sym>Dot</sym>
</trkpt>
<trkpt lat="39.905153" lon="-8.439292">
<ele>277.5</ele>
<desc>Speed 12.7 km/h Distance 28.48 km</desc>
<time>2011-05-22T09:21:50.59</time>
<name>6368</name>
<sym>Dot</sym>
</trkpt>
<trkpt lat="39.905127" lon="-8.439313">
<ele>277.0</ele>
<desc>Speed 12.7 km/h Distance 28.48 km</desc>
<time>2011-05-22T09:21:51.59</time>
<name>6369</name>
<sym>Dot</sym>
</trkpt>
<trkpt lat="39.905098" lon="-8.439338">
<ele>277.0</ele>
<desc>Speed 12.9 km/h Distance 28.49 km</desc>
<time>2011-05-22T09:21:52.59</time>
<name>6370</name>
<sym>Dot</sym>
</trkpt>
<trkpt lat="39.905072" lon="-8.439362">
<ele>277.0</ele>
<desc>Speed 13.1 km/h Distance 28.49 km</desc>
<time>2011-05-22T09:21:53.59</time>
<name>6371</name>
<sym>Dot</sym>
</trkpt>
<trkpt lat="39.905043" lon="-8.439383">
<ele>277.0</ele>
<desc>Speed 13.1 km/h Distance 28.49 km</desc>
<time>2011-05-22T09:21:54.59</time>
<name>6372</name>
<sym>Dot</sym>
</trkpt>
<trkpt lat="39.905015" lon="-8.439407">
<ele>277.0</ele>
<desc>Speed 13.2 km/h Distance 28.50 km</desc>
<time>2011-05-22T09:21:55.59</time>
<name>6373</name>
<sym>Dot</sym>
</trkpt>
<trkpt lat="39.904988" lon="-8.439430">
<ele>277.0</ele>
<desc>Speed 12.9 km/h Distance 28.50 km</desc>
<time>2011-05-22T09:21:56.59</time>
<name>6374</name>
<sym>Dot</sym>
</trkpt>
<trkpt lat="39.904960" lon="-8.439453">
<ele>277.0</ele>
<desc>Speed 12.9 km/h Distance 28.50 km</desc>
<time>2011-05-22T09:21:57.59</time>
<name>6375</name>
<sym>Dot</sym>
</trkpt>
<trkpt lat="39.904932" lon="-8.439475">
<ele>277.0</ele>
<desc>Speed 12.9 km/h Distance 28.51 km</desc>
<time>2011-05-22T09:21:58.59</time>
<name>6376</name>
<sym>Dot</sym>
</trkpt>
<trkpt lat="39.904903" lon="-8.439497">
<ele>277.0</ele>
<desc>Speed 12.9 km/h Distance 28.51 km</desc>
<time>2011-05-22T09:21:59.59</time>
<name>6377</name>
<sym>Dot</sym>
</trkpt>
<trkpt lat="39.904877" lon="-8.439518">
<ele>277.0</ele>
<desc>Speed 12.9 km/h Distance 28.51 km</desc>
<time>2011-05-22T09:22:00.58</time>
<name>6378</name>
<sym>Dot</sym>
</trkpt>
<trkpt lat="39.904848" lon="-8.439540">
<ele>277.0</ele>
<desc>Speed 12.8 km/h Distance 28.52 km</desc>
<time>2011-05-22T09:22:01.58</time>
<name>6379</name>
<sym>Dot</sym>
</trkpt>
<trkpt lat="39.904820" lon="-8.439562">
<ele>277.0</ele>
<desc>Speed 12.9 km/h Distance 28.52 km</desc>
<time>2011-05-22T09:22:02.58</time>
<name>6380</name>
<sym>Dot</sym>
</trkpt>
<trkpt lat="39.904793" lon="-8.439585">
<ele>277.0</ele>
<desc>Speed 12.9 km/h Distance 28.53 km</desc>
<time>2011-05-22T09:22:03.58</time>
<name>6381</name>
<sym>Dot</sym>
</trkpt>
<trkpt lat="39.904765" lon="-8.439608">
<ele>277.0</ele>
<desc>Speed 12.9 km/h Distance 28.53 km</desc>
<time>2011-05-22T09:22:04.58</time>
<name>6382</name>
<sym>Dot</sym>
</trkpt>
<trkpt lat="39.904738" lon="-8.439632">
<ele>277.0</ele>
<desc>Speed 13.1 km/h Distance 28.53 km</desc>
<time>2011-05-22T09:22:05.58</time>
<name>6383</name>
<sym>Dot</sym>
</trkpt>
<trkpt lat="39.904710" lon="-8.439655">
<ele>277.0</ele>
<desc>Speed 13.2 km/h Distance 28.54 km</desc>
<time>2011-05-22T09:22:06.58</time>
<name>6384</name>
<sym>Dot</sym>
</trkpt>
<trkpt lat="39.904683" lon="-8.439678">
<ele>277.0</ele>
<desc>Speed 13.2 km/h Distance 28.54 km</desc>
<time>2011-05-22T09:22:07.58</time>
<name>6385</name>
<sym>Dot</sym>
</trkpt>
<trkpt lat="39.904655" lon="-8.439703">
<ele>277.0</ele>
<desc>Speed 13.4 km/h Distance 28.54 km</desc>
<time>2011-05-22T09:22:08.58</time>
<name>6386</name>
<sym>Dot</sym>
</trkpt>
<trkpt lat="39.904627" lon="-8.439727">
<ele>277.0</ele>
<desc>Speed 13.2 km/h Distance 28.55 km</desc>
<time>2011-05-22T09:22:09.58</time>
<name>6387</name>
<sym>Dot</sym>
</trkpt>
<trkpt lat="39.904598" lon="-8.439748">
<ele>277.5</ele>
<desc>Speed 13.2 km/h Distance 28.55 km</desc>
<time>2011-05-22T09:22:10.58</time>
<name>6388</name>
<sym>Dot</sym>
</trkpt>
<trkpt lat="39.904570" lon="-8.439772">
<ele>277.5</ele>
<desc>Speed 13.2 km/h Distance 28.55 km</desc>
<time>2011-05-22T09:22:11.58</time>
<name>6389</name>
<sym>Dot</sym>
</trkpt>
<trkpt lat="39.904542" lon="-8.439793">
<ele>278.0</ele>
<desc>Speed 13.2 km/h Distance 28.56 km</desc>
<time>2011-05-22T09:22:12.58</time>
<name>6390</name>
<sym>Dot</sym>
</trkpt>
<trkpt lat="39.904513" lon="-8.439817">
<ele>278.0</ele>
<desc>Speed 13.5 km/h Distance 28.56 km</desc>
<time>2011-05-22T09:22:13.58</time>
<name>6391</name>
<sym>Dot</sym>
</trkpt>
<trkpt lat="39.904485" lon="-8.439838">
<ele>278.0</ele>
<desc>Speed 13.3 km/h Distance 28.57 km</desc>
<time>2011-05-22T09:22:14.58</time>
<name>6392</name>
<sym>Dot</sym>
</trkpt>
<trkpt lat="39.904458" lon="-8.439862">
<ele>278.0</ele>
<desc>Speed 12.9 km/h Distance 28.57 km</desc>
<time>2011-05-22T09:22:15.58</time>
<name>6393</name>
<sym>Dot</sym>
</trkpt>
<trkpt lat="39.904430" lon="-8.439885">
<ele>278.5</ele>
<desc>Speed 13.2 km/h Distance 28.57 km</desc>
<time>2011-05-22T09:22:16.58</time>
<name>6394</name>
<sym>Dot</sym>
</trkpt>
<trkpt lat="39.904403" lon="-8.439907">
<ele>278.5</ele>
<desc>Speed 13.2 km/h Distance 28.58 km</desc>
<time>2011-05-22T09:22:17.58</time>
<name>6395</name>
<sym>Dot</sym>
</trkpt>
<trkpt lat="39.904375" lon="-8.439930">
<ele>278.5</ele>
<desc>Speed 13.2 km/h Distance 28.58 km</desc>
<time>2011-05-22T09:22:18.58</time>
<name>6396</name>
<sym>Dot</sym>
</trkpt>
<trkpt lat="39.904347" lon="-8.439953">
<ele>279.0</ele>
<desc>Speed 13.2 km/h Distance 28.58 km</desc>
<time>2011-05-22T09:22:19.58</time>
<name>6397</name>
<sym>Dot</sym>
</trkpt>
<trkpt lat="39.904318" lon="-8.439977">
<ele>279.0</ele>
<desc>Speed 13.2 km/h Distance 28.59 km</desc>
<time>2011-05-22T09:22:20.58</time>
<name>6398</name>
<sym>Dot</sym>
</trkpt>
<trkpt lat="39.904290" lon="-8.440000">
<ele>279.0</ele>
<desc>Speed 13.2 km/h Distance 28.59 km</desc>
<time>2011-05-22T09:22:21.58</time>
<name>6399</name>
<sym>Dot</sym>
</trkpt>
<trkpt lat="39.904263" lon="-8.440023">
<ele>279.0</ele>
<desc>Speed 13.2 km/h Distance 28.60 km</desc>
<time>2011-05-22T09:22:22.58</time>
<name>6400</name>
<sym>Dot</sym>
</trkpt>
<trkpt lat="39.904235" lon="-8.440045">
<ele>279.0</ele>
<desc>Speed 13.3 km/h Distance 28.60 km</desc>
<time>2011-05-22T09:22:23.58</time>
<name>6401</name>
<sym>Dot</sym>
</trkpt>
<trkpt lat="39.904207" lon="-8.440070">
<ele>279.0</ele>
<desc>Speed 13.3 km/h Distance 28.60 km</desc>
<time>2011-05-22T09:22:24.58</time>
<name>6402</name>
<sym>Dot</sym>
</trkpt>
<trkpt lat="39.904180" lon="-8.440093">
<ele>279.0</ele>
<desc>Speed 13.1 km/h Distance 28.61 km</desc>
<time>2011-05-22T09:22:25.58</time>
<name>6403</name>
<sym>Dot</sym>
</trkpt>
<trkpt lat="39.904153" lon="-8.440117">
<ele>279.0</ele>
<desc>Speed 12.8 km/h Distance 28.61 km</desc>
<time>2011-05-22T09:22:26.58</time>
<name>6404</name>
<sym>Dot</sym>
</trkpt>
<trkpt lat="39.904125" lon="-8.440138">
<ele>279.0</ele>
<desc>Speed 12.8 km/h Distance 28.61 km</desc>
<time>2011-05-22T09:22:27.58</time>
<name>6405</name>
<sym>Dot</sym>
</trkpt>
<trkpt lat="39.904098" lon="-8.440160">
<ele>279.0</ele>
<desc>Speed 12.9 km/h Distance 28.62 km</desc>
<time>2011-05-22T09:22:28.58</time>
<name>6406</name>
<sym>Dot</sym>
</trkpt>
<trkpt lat="39.904070" lon="-8.440183">
<ele>279.0</ele>
<desc>Speed 13.1 km/h Distance 28.62 km</desc>
<time>2011-05-22T09:22:29.58</time>
<name>6407</name>
<sym>Dot</sym>
</trkpt>
<trkpt lat="39.904042" lon="-8.440207">
<ele>279.0</ele>
<desc>Speed 13.4 km/h Distance 28.62 km</desc>
<time>2011-05-22T09:22:30.58</time>
<name>6408</name>
<sym>Dot</sym>
</trkpt>
<trkpt lat="39.904015" lon="-8.440230">
<ele>279.0</ele>
<desc>Speed 13.2 km/h Distance 28.63 km</desc>
<time>2011-05-22T09:22:31.58</time>
<name>6409</name>
<sym>Dot</sym>
</trkpt>
<trkpt lat="39.903987" lon="-8.440253">
<ele>279.0</ele>
<desc>Speed 13.1 km/h Distance 28.63 km</desc>
<time>2011-05-22T09:22:32.58</time>
<name>6410</name>
<sym>Dot</sym>
</trkpt>
<trkpt lat="39.903960" lon="-8.440273">
<ele>279.5</ele>
<desc>Speed 12.7 km/h Distance 28.64 km</desc>
<time>2011-05-22T09:22:33.58</time>
<name>6411</name>
<sym>Dot</sym>
</trkpt>
<trkpt lat="39.903933" lon="-8.440295">
<ele>279.5</ele>
<desc>Speed 12.7 km/h Distance 28.64 km</desc>
<time>2011-05-22T09:22:34.58</time>
<name>6412</name>
<sym>Dot</sym>
</trkpt>
<trkpt lat="39.903907" lon="-8.440318">
<ele>280.0</ele>
<desc>Speed 12.8 km/h Distance 28.64 km</desc>
<time>2011-05-22T09:22:35.58</time>
<name>6413</name>
<sym>Dot</sym>
</trkpt>
<trkpt lat="39.903878" lon="-8.440340">
<ele>280.0</ele>
<desc>Speed 12.8 km/h Distance 28.65 km</desc>
<time>2011-05-22T09:22:36.58</time>
<name>6414</name>
<sym>Dot</sym>
</trkpt>
<trkpt lat="39.903852" lon="-8.440362">
<ele>280.0</ele>
<desc>Speed 12.7 km/h Distance 28.65 km</desc>
<time>2011-05-22T09:22:37.58</time>
<name>6415</name>
<sym>Dot</sym>
</trkpt>
<trkpt lat="39.903823" lon="-8.440382">
<ele>280.5</ele>
<desc>Speed 12.7 km/h Distance 28.65 km</desc>
<time>2011-05-22T09:22:38.58</time>
<name>6416</name>
<sym>Dot</sym>
</trkpt>
<trkpt lat="39.903798" lon="-8.440403">
<ele>280.5</ele>
<desc>Speed 12.6 km/h Distance 28.66 km</desc>
<time>2011-05-22T09:22:39.58</time>
<name>6417</name>
<sym>Dot</sym>
</trkpt>
<trkpt lat="39.903770" lon="-8.440425">
<ele>280.5</ele>
<desc>Speed 12.8 km/h Distance 28.66 km</desc>
<time>2011-05-22T09:22:40.58</time>
<name>6418</name>
<sym>Dot</sym>
</trkpt>
<trkpt lat="39.903742" lon="-8.440445">
<ele>281.0</ele>
<desc>Speed 12.7 km/h Distance 28.66 km</desc>
<time>2011-05-22T09:22:41.58</time>
<name>6419</name>
<sym>Dot</sym>
</trkpt>
<trkpt lat="39.903713" lon="-8.440465">
<ele>281.0</ele>
<desc>Speed 12.8 km/h Distance 28.67 km</desc>
<time>2011-05-22T09:22:42.58</time>
<name>6420</name>
<sym>Dot</sym>
</trkpt>
<trkpt lat="39.903687" lon="-8.440485">
<ele>281.0</ele>
<desc>Speed 12.7 km/h Distance 28.67 km</desc>
<time>2011-05-22T09:22:43.58</time>
<name>6421</name>
<sym>Dot</sym>
</trkpt>
<trkpt lat="39.903658" lon="-8.440503">
<ele>281.0</ele>
<desc>Speed 12.7 km/h Distance 28.67 km</desc>
<time>2011-05-22T09:22:44.58</time>
<name>6422</name>
<sym>Dot</sym>
</trkpt>
<trkpt lat="39.903628" lon="-8.440520">
<ele>281.0</ele>
<desc>Speed 12.9 km/h Distance 28.68 km</desc>
<time>2011-05-22T09:22:45.58</time>
<name>6423</name>
<sym>Dot</sym>
</trkpt>
<trkpt lat="39.903598" lon="-8.440537">
<ele>281.5</ele>
<desc>Speed 12.8 km/h Distance 28.68 km</desc>
<time>2011-05-22T09:22:46.58</time>
<name>6424</name>
<sym>Dot</sym>
</trkpt>
<trkpt lat="39.903568" lon="-8.440557">
<ele>281.5</ele>
<desc>Speed 13.4 km/h Distance 28.69 km</desc>
<time>2011-05-22T09:22:47.58</time>
<name>6425</name>
<sym>Dot</sym>
</trkpt>
<trkpt lat="39.903540" lon="-8.440577">
<ele>282.0</ele>
<desc>Speed 13.2 km/h Distance 28.69 km</desc>
<time>2011-05-22T09:22:48.58</time>
<name>6426</name>
<sym>Dot</sym>
</trkpt>
<trkpt lat="39.903510" lon="-8.440595">
<ele>282.0</ele>
<desc>Speed 13.3 km/h Distance 28.69 km</desc>
<time>2011-05-22T09:22:49.58</time>
<name>6427</name>
<sym>Dot</sym>
</trkpt>
<trkpt lat="39.903478" lon="-8.440612">
<ele>282.0</ele>
<desc>Speed 13.3 km/h Distance 28.70 km</desc>
<time>2011-05-22T09:22:50.58</time>
<name>6428</name>
<sym>Dot</sym>
</trkpt>
<trkpt lat="39.903450" lon="-8.440630">
<ele>282.0</ele>
<desc>Speed 13.2 km/h Distance 28.70 km</desc>
<time>2011-05-22T09:22:51.58</time>
<name>6429</name>
<sym>Dot</sym>
</trkpt>
<trkpt lat="39.903422" lon="-8.440648">
<ele>283.0</ele>
<desc>Speed 12.5 km/h Distance 28.70 km</desc>
<time>2011-05-22T09:22:52.58</time>
<name>6430</name>
<sym>Dot</sym>
</trkpt>
<trkpt lat="39.903390" lon="-8.440667">
<ele>283.0</ele>
<desc>Speed 13.9 km/h Distance 28.71 km</desc>
<time>2011-05-22T09:22:53.58</time>
<name>6431</name>
<sym>Dot</sym>
</trkpt>
<trkpt lat="39.903357" lon="-8.440685">
<ele>283.5</ele>
<desc>Speed 14.0 km/h Distance 28.71 km</desc>
<time>2011-05-22T09:22:54.58</time>
<name>6432</name>
<sym>Dot</sym>
</trkpt>
<trkpt lat="39.903325" lon="-8.440702">
<ele>284.0</ele>
<desc>Speed 13.8 km/h Distance 28.71 km</desc>
<time>2011-05-22T09:22:55.58</time>
<name>6433</name>
<sym>Dot</sym>
</trkpt>
<trkpt lat="39.903293" lon="-8.440722">
<ele>284.0</ele>
<desc>Speed 14.0 km/h Distance 28.72 km</desc>
<time>2011-05-22T09:22:56.58</time>
<name>6434</name>
<sym>Dot</sym>
</trkpt>
<trkpt lat="39.903262" lon="-8.440740">
<ele>284.0</ele>
<desc>Speed 14.1 km/h Distance 28.72 km</desc>
<time>2011-05-22T09:22:57.58</time>
<name>6435</name>
<sym>Dot</sym>
</trkpt>
<trkpt lat="39.903232" lon="-8.440757">
<ele>284.5</ele>
<desc>Speed 13.0 km/h Distance 28.73 km</desc>
<time>2011-05-22T09:22:58.58</time>
<name>6436</name>
<sym>Dot</sym>
</trkpt>
<trkpt lat="39.903200" lon="-8.440773">
<ele>285.0</ele>
<desc>Speed 13.4 km/h Distance 28.73 km</desc>
<time>2011-05-22T09:22:59.58</time>
<name>6437</name>
<sym>Dot</sym>
</trkpt>
<trkpt lat="39.903170" lon="-8.440792">
<ele>285.0</ele>
<desc>Speed 13.4 km/h Distance 28.73 km</desc>
<time>2011-05-22T09:23:00.57</time>
<name>6438</name>
<sym>Dot</sym>
</trkpt>
<trkpt lat="39.903138" lon="-8.440810">
<ele>285.5</ele>
<desc>Speed 14.0 km/h Distance 28.74 km</desc>
<time>2011-05-22T09:23:01.57</time>
<name>6439</name>
<sym>Dot</sym>
</trkpt>
<trkpt lat="39.903108" lon="-8.440828">
<ele>286.0</ele>
<desc>Speed 13.3 km/h Distance 28.74 km</desc>
<time>2011-05-22T09:23:02.57</time>
<name>6440</name>
<sym>Dot</sym>
</trkpt>
<trkpt lat="39.903078" lon="-8.440847">
<ele>286.5</ele>
<desc>Speed 13.1 km/h Distance 28.75 km</desc>
<time>2011-05-22T09:23:03.57</time>
<name>6441</name>
<sym>Dot</sym>
</trkpt>
<trkpt lat="39.903047" lon="-8.440867">
<ele>286.5</ele>
<desc>Speed 13.7 km/h Distance 28.75 km</desc>
<time>2011-05-22T09:23:04.57</time>
<name>6442</name>
<sym>Dot</sym>
</trkpt>
<trkpt lat="39.903018" lon="-8.440885">
<ele>286.5</ele>
<desc>Speed 12.5 km/h Distance 28.75 km</desc>
<time>2011-05-22T09:23:05.57</time>
<name>6443</name>
<sym>Dot</sym>
</trkpt>
<trkpt lat="39.902995" lon="-8.440905">
<ele>286.5</ele>
<desc>Speed 10.8 km/h Distance 28.76 km</desc>
<time>2011-05-22T09:23:06.57</time>
<name>6444</name>
<sym>Dot</sym>
</trkpt>
<trkpt lat="39.902973" lon="-8.440923">
<ele>286.5</ele>
<desc>Speed 10.7 km/h Distance 28.76 km</desc>
<time>2011-05-22T09:23:07.57</time>
<name>6445</name>
<sym>Dot</sym>
</trkpt>
<trkpt lat="39.902952" lon="-8.440938">
<ele>287.5</ele>
<desc>Speed 9.7 km/h Distance 28.76 km</desc>
<time>2011-05-22T09:23:08.57</time>
<name>6446</name>
<sym>Dot</sym>
</trkpt>
<trkpt lat="39.902930" lon="-8.440953">
<ele>289.0</ele>
<desc>Speed 9.5 km/h Distance 28.76 km</desc>
<time>2011-05-22T09:23:09.57</time>
<name>6447</name>
<sym>Dot</sym>
</trkpt>
<trkpt lat="39.902907" lon="-8.440972">
<ele>289.0</ele>
<desc>Speed 11.0 km/h Distance 28.77 km</desc>
<time>2011-05-22T09:23:10.57</time>
<name>6448</name>
<sym>Dot</sym>
</trkpt>
<trkpt lat="39.902882" lon="-8.440988">
<ele>290.5</ele>
<desc>Speed 10.5 km/h Distance 28.77 km</desc>
<time>2011-05-22T09:23:11.57</time>
<name>6449</name>
<sym>Dot</sym>
</trkpt>
<trkpt lat="39.902855" lon="-8.441005">
<ele>291.0</ele>
<desc>Speed 11.7 km/h Distance 28.77 km</desc>
<time>2011-05-22T09:23:12.57</time>
<name>6450</name>
<sym>Dot</sym>
</trkpt>
<trkpt lat="39.902828" lon="-8.441020">
<ele>292.0</ele>
<desc>Speed 10.8 km/h Distance 28.78 km</desc>
<time>2011-05-22T09:23:13.57</time>
<name>6451</name>
<sym>Dot</sym>
</trkpt>
<trkpt lat="39.902802" lon="-8.441035">
<ele>293.0</ele>
<desc>Speed 11.6 km/h Distance 28.78 km</desc>
<time>2011-05-22T09:23:14.57</time>
<name>6452</name>
<sym>Dot</sym>
</trkpt>
<trkpt lat="39.902772" lon="-8.441052">
<ele>293.5</ele>
<desc>Speed 12.7 km/h Distance 28.78 km</desc>
<time>2011-05-22T09:23:15.57</time>
<name>6453</name>
<sym>Dot</sym>
</trkpt>
<trkpt lat="39.902742" lon="-8.441070">
<ele>293.0</ele>
<desc>Speed 12.9 km/h Distance 28.79 km</desc>
<time>2011-05-22T09:23:16.57</time>
<name>6454</name>
<sym>Dot</sym>
</trkpt>
<trkpt lat="39.902710" lon="-8.441083">
<ele>293.5</ele>
<desc>Speed 13.1 km/h Distance 28.79 km</desc>
<time>2011-05-22T09:23:17.57</time>
<name>6455</name>
<sym>Dot</sym>
</trkpt>
<trkpt lat="39.902685" lon="-8.441095">
<ele>295.0</ele>
<desc>Speed 10.2 km/h Distance 28.79 km</desc>
<time>2011-05-22T09:23:18.57</time>
<name>6456</name>
<sym>Dot</sym>
</trkpt>
<trkpt lat="39.902657" lon="-8.441113">
<ele>295.0</ele>
<desc>Speed 12.2 km/h Distance 28.80 km</desc>
<time>2011-05-22T09:23:19.57</time>
<name>6457</name>
<sym>Dot</sym>
</trkpt>
<trkpt lat="39.902628" lon="-8.441135">
<ele>295.0</ele>
<desc>Speed 12.7 km/h Distance 28.80 km</desc>
<time>2011-05-22T09:23:20.57</time>
<name>6458</name>
<sym>Dot</sym>
</trkpt>
<trkpt lat="39.902600" lon="-8.441152">
<ele>295.0</ele>
<desc>Speed 11.6 km/h Distance 28.80 km</desc>
<time>2011-05-22T09:23:21.57</time>
<name>6459</name>
<sym>Dot</sym>
</trkpt>
<trkpt lat="39.902573" lon="-8.441173">
<ele>294.5</ele>
<desc>Speed 12.2 km/h Distance 28.81 km</desc>
<time>2011-05-22T09:23:22.57</time>
<name>6460</name>
<sym>Dot</sym>
</trkpt>
<trkpt lat="39.902547" lon="-8.441188">
<ele>295.0</ele>
<desc>Speed 11.3 km/h Distance 28.81 km</desc>
<time>2011-05-22T09:23:23.57</time>
<name>6461</name>
<sym>Dot</sym>
</trkpt>
<trkpt lat="39.902520" lon="-8.441203">
<ele>295.0</ele>
<desc>Speed 11.4 km/h Distance 28.81 km</desc>
<time>2011-05-22T09:23:24.57</time>
<name>6462</name>
<sym>Dot</sym>
</trkpt>
<trkpt lat="39.902493" lon="-8.441225">
<ele>295.0</ele>
<desc>Speed 11.8 km/h Distance 28.82 km</desc>
<time>2011-05-22T09:23:25.57</time>
<name>6463</name>
<sym>Dot</sym>
</trkpt>
<trkpt lat="39.902468" lon="-8.441247">
<ele>295.0</ele>
<desc>Speed 11.7 km/h Distance 28.82 km</desc>
<time>2011-05-22T09:23:26.57</time>
<name>6464</name>
<sym>Dot</sym>
</trkpt>
<trkpt lat="39.902442" lon="-8.441270">
<ele>294.5</ele>
<desc>Speed 12.2 km/h Distance 28.82 km</desc>
<time>2011-05-22T09:23:27.57</time>
<name>6465</name>
<sym>Dot</sym>
</trkpt>
<trkpt lat="39.902413" lon="-8.441292">
<ele>294.5</ele>
<desc>Speed 12.5 km/h Distance 28.83 km</desc>
<time>2011-05-22T09:23:28.57</time>
<name>6466</name>
<sym>Dot</sym>
</trkpt>
<trkpt lat="39.902385" lon="-8.441310">
<ele>294.0</ele>
<desc>Speed 12.3 km/h Distance 28.83 km</desc>
<time>2011-05-22T09:23:29.57</time>
<name>6467</name>
<sym>Dot</sym>
</trkpt>
<trkpt lat="39.902355" lon="-8.441332">
<ele>294.0</ele>
<desc>Speed 13.3 km/h Distance 28.84 km</desc>
<time>2011-05-22T09:23:30.57</time>
<name>6468</name>
<sym>Dot</sym>
</trkpt>
<trkpt lat="39.902325" lon="-8.441348">
<ele>294.0</ele>
<desc>Speed 13.2 km/h Distance 28.84 km</desc>
<time>2011-05-22T09:23:31.57</time>
<name>6469</name>
<sym>Dot</sym>
</trkpt>
<trkpt lat="39.902297" lon="-8.441378">
<ele>293.5</ele>
<desc>Speed 13.8 km/h Distance 28.84 km</desc>
<time>2011-05-22T09:23:32.57</time>
<name>6470</name>
<sym>Dot</sym>
</trkpt>
<trkpt lat="39.902267" lon="-8.441407">
<ele>293.0</ele>
<desc>Speed 14.6 km/h Distance 28.85 km</desc>
<time>2011-05-22T09:23:33.57</time>
<name>6471</name>
<sym>Dot</sym>
</trkpt>
<trkpt lat="39.902233" lon="-8.441433">
<ele>292.5</ele>
<desc>Speed 14.8 km/h Distance 28.85 km</desc>
<time>2011-05-22T09:23:34.57</time>
<name>6472</name>
<sym>Dot</sym>
</trkpt>
<trkpt lat="39.902202" lon="-8.441462">
<ele>292.0</ele>
<desc>Speed 14.9 km/h Distance 28.86 km</desc>
<time>2011-05-22T09:23:35.57</time>
<name>6473</name>
<sym>Dot</sym>
</trkpt>
<trkpt lat="39.902172" lon="-8.441485">
<ele>292.0</ele>
<desc>Speed 14.1 km/h Distance 28.86 km</desc>
<time>2011-05-22T09:23:36.57</time>
<name>6474</name>
<sym>Dot</sym>
</trkpt>
<trkpt lat="39.902142" lon="-8.441512">
<ele>292.0</ele>
<desc>Speed 14.0 km/h Distance 28.86 km</desc>
<time>2011-05-22T09:23:37.57</time>
<name>6475</name>
<sym>Dot</sym>
</trkpt>
<trkpt lat="39.902113" lon="-8.441538">
<ele>291.5</ele>
<desc>Speed 13.5 km/h Distance 28.87 km</desc>
<time>2011-05-22T09:23:38.57</time>
<name>6476</name>
<sym>Dot</sym>
</trkpt>
<trkpt lat="39.902090" lon="-8.441558">
<ele>292.5</ele>
<desc>Speed 10.2 km/h Distance 28.87 km</desc>
<time>2011-05-22T09:23:39.57</time>
<name>6477</name>
<sym>Dot</sym>
</trkpt>
<trkpt lat="39.902067" lon="-8.441577">
<ele>293.0</ele>
<desc>Speed 10.4 km/h Distance 28.87 km</desc>
<time>2011-05-22T09:23:40.57</time>
<name>6478</name>
<sym>Dot</sym>
</trkpt>
<trkpt lat="39.902040" lon="-8.441603">
<ele>293.0</ele>
<desc>Speed 13.3 km/h Distance 28.88 km</desc>
<time>2011-05-22T09:23:41.57</time>
<name>6479</name>
<sym>Dot</sym>
</trkpt>
<trkpt lat="39.902010" lon="-8.441638">
<ele>292.5</ele>
<desc>Speed 15.2 km/h Distance 28.88 km</desc>
<time>2011-05-22T09:23:42.57</time>
<name>6480</name>
<sym>Dot</sym>
</trkpt>
<trkpt lat="39.901978" lon="-8.441667">
<ele>292.5</ele>
<desc>Speed 14.6 km/h Distance 28.89 km</desc>
<time>2011-05-22T09:23:43.57</time>
<name>6481</name>
<sym>Dot</sym>
</trkpt>
<trkpt lat="39.901945" lon="-8.441690">
<ele>291.5</ele>
<desc>Speed 14.7 km/h Distance 28.89 km</desc>
<time>2011-05-22T09:23:44.57</time>
<name>6482</name>
<sym>Dot</sym>
</trkpt>
<trkpt lat="39.901907" lon="-8.441710">
<ele>291.0</ele>
<desc>Speed 15.8 km/h Distance 28.90 km</desc>
<time>2011-05-22T09:23:45.57</time>
<name>6483</name>
<sym>Dot</sym>
</trkpt>
<trkpt lat="39.901872" lon="-8.441732">
<ele>291.0</ele>
<desc>Speed 14.9 km/h Distance 28.90 km</desc>
<time>2011-05-22T09:23:46.57</time>
<name>6484</name>
<sym>Dot</sym>
</trkpt>
<trkpt lat="39.901833" lon="-8.441753">
<ele>289.5</ele>
<desc>Speed 15.4 km/h Distance 28.90 km</desc>
<time>2011-05-22T09:23:47.57</time>
<name>6485</name>
<sym>Dot</sym>
</trkpt>
<trkpt lat="39.901798" lon="-8.441777">
<ele>288.5</ele>
<desc>Speed 14.6 km/h Distance 28.91 km</desc>
<time>2011-05-22T09:23:48.57</time>
<name>6486</name>
<sym>Dot</sym>
</trkpt>
<trkpt lat="39.901773" lon="-8.441795">
<ele>288.5</ele>
<desc>Speed 10.4 km/h Distance 28.91 km</desc>
<time>2011-05-22T09:23:49.57</time>
<name>6487</name>
<sym>Dot</sym>
</trkpt>
<trkpt lat="39.901737" lon="-8.441805">
<ele>288.5</ele>
<desc>Speed 13.9 km/h Distance 28.92 km</desc>
<time>2011-05-22T09:23:50.57</time>
<name>6488</name>
<sym>Dot</sym>
</trkpt>
<trkpt lat="39.901703" lon="-8.441818">
<ele>288.5</ele>
<desc>Speed 12.8 km/h Distance 28.92 km</desc>
<time>2011-05-22T09:23:51.57</time>
<name>6489</name>
<sym>Dot</sym>
</trkpt>
<trkpt lat="39.901680" lon="-8.441828">
<ele>290.0</ele>
<desc>Speed 9.3 km/h Distance 28.92 km</desc>
<time>2011-05-22T09:23:52.57</time>
<name>6490</name>
<sym>Dot</sym>
</trkpt>
<trkpt lat="39.901648" lon="-8.441828">
<ele>290.0</ele>
<desc>Speed 11.7 km/h Distance 28.93 km</desc>
<time>2011-05-22T09:23:53.57</time>
<name>6491</name>
<sym>Dot</sym>
</trkpt>
<trkpt lat="39.901613" lon="-8.441828">
<ele>290.0</ele>
<desc>Speed 13.5 km/h Distance 28.93 km</desc>
<time>2011-05-22T09:23:54.57</time>
<name>6492</name>
<sym>Dot</sym>
</trkpt>
<trkpt lat="39.901578" lon="-8.441833">
<ele>289.5</ele>
<desc>Speed 13.5 km/h Distance 28.93 km</desc>
<time>2011-05-22T09:23:55.57</time>
<name>6493</name>
<sym>Dot</sym>
</trkpt>
<trkpt lat="39.901543" lon="-8.441833">
<ele>289.5</ele>
<desc>Speed 13.4 km/h Distance 28.94 km</desc>
<time>2011-05-22T09:23:56.57</time>
<name>6494</name>
<sym>Dot</sym>
</trkpt>
<trkpt lat="39.901505" lon="-8.441840">
<ele>289.0</ele>
<desc>Speed 14.4 km/h Distance 28.94 km</desc>
<time>2011-05-22T09:23:57.57</time>
<name>6495</name>
<sym>Dot</sym>
</trkpt>
<trkpt lat="39.901465" lon="-8.441843">
<ele>290.0</ele>
<desc>Speed 15.4 km/h Distance 28.95 km</desc>
<time>2011-05-22T09:23:58.57</time>
<name>6496</name>
<sym>Dot</sym>
</trkpt>
<trkpt lat="39.901427" lon="-8.441850">
<ele>290.0</ele>
<desc>Speed 14.6 km/h Distance 28.95 km</desc>
<time>2011-05-22T09:23:59.57</time>
<name>6497</name>
<sym>Dot</sym>
</trkpt>
<trkpt lat="39.901388" lon="-8.441855">
<ele>290.5</ele>
<desc>Speed 14.9 km/h Distance 28.96 km</desc>
<time>2011-05-22T09:24:00.56</time>
<name>6498</name>
<sym>Dot</sym>
</trkpt>
<trkpt lat="39.901348" lon="-8.441865">
<ele>290.5</ele>
<desc>Speed 15.0 km/h Distance 28.96 km</desc>
<time>2011-05-22T09:24:01.56</time>
<name>6499</name>
<sym>Dot</sym>
</trkpt>
<trkpt lat="39.901312" lon="-8.441873">
<ele>290.5</ele>
<desc>Speed 14.3 km/h Distance 28.96 km</desc>
<time>2011-05-22T09:24:02.56</time>
<name>6500</name>
<sym>Dot</sym>
</trkpt>
<trkpt lat="39.901275" lon="-8.441883">
<ele>290.0</ele>
<desc>Speed 14.4 km/h Distance 28.97 km</desc>
<time>2011-05-22T09:24:03.56</time>
<name>6501</name>
<sym>Dot</sym>
</trkpt>
<trkpt lat="39.901237" lon="-8.441897">
<ele>290.0</ele>
<desc>Speed 15.3 km/h Distance 28.97 km</desc>
<time>2011-05-22T09:24:04.56</time>
<name>6502</name>
<sym>Dot</sym>
</trkpt>
<trkpt lat="39.901198" lon="-8.441907">
<ele>290.0</ele>
<desc>Speed 15.6 km/h Distance 28.98 km</desc>
<time>2011-05-22T09:24:05.56</time>
<name>6503</name>
<sym>Dot</sym>
</trkpt>
<trkpt lat="39.901160" lon="-8.441910">
<ele>290.0</ele>
<desc>Speed 15.3 km/h Distance 28.98 km</desc>
<time>2011-05-22T09:24:06.56</time>
<name>6504</name>
<sym>Dot</sym>
</trkpt>
<trkpt lat="39.901122" lon="-8.441915">
<ele>289.5</ele>
<desc>Speed 14.9 km/h Distance 28.99 km</desc>
<time>2011-05-22T09:24:07.56</time>
<name>6505</name>
<sym>Dot</sym>
</trkpt>
<trkpt lat="39.901082" lon="-8.441923">
<ele>289.0</ele>
<desc>Speed 15.8 km/h Distance 28.99 km</desc>
<time>2011-05-22T09:24:08.56</time>
<name>6506</name>
<sym>Dot</sym>
</trkpt>
<trkpt lat="39.901042" lon="-8.441932">
<ele>289.0</ele>
<desc>Speed 16.0 km/h Distance 28.99 km</desc>
<time>2011-05-22T09:24:09.56</time>
<name>6507</name>
<sym>Dot</sym>
</trkpt>
<trkpt lat="39.901002" lon="-8.441933">
<ele>288.5</ele>
<desc>Speed 15.6 km/h Distance 29.00 km</desc>
<time>2011-05-22T09:24:10.56</time>
<name>6508</name>
<sym>Dot</sym>
</trkpt>
<trkpt lat="39.900962" lon="-8.441940">
<ele>288.5</ele>
<desc>Speed 15.6 km/h Distance 29.00 km</desc>
<time>2011-05-22T09:24:11.56</time>
<name>6509</name>
<sym>Dot</sym>
</trkpt>
<trkpt lat="39.900922" lon="-8.441948">
<ele>288.5</ele>
<desc>Speed 15.9 km/h Distance 29.01 km</desc>
<time>2011-05-22T09:24:12.56</time>
<name>6510</name>
<sym>Dot</sym>
</trkpt>
<trkpt lat="39.900888" lon="-8.441950">
<ele>288.0</ele>
<desc>Speed 13.8 km/h Distance 29.01 km</desc>
<time>2011-05-22T09:24:13.56</time>
<name>6511</name>
<sym>Dot</sym>
</trkpt>
<trkpt lat="39.900850" lon="-8.441950">
<ele>287.5</ele>
<desc>Speed 14.6 km/h Distance 29.02 km</desc>
<time>2011-05-22T09:24:14.56</time>
<name>6512</name>
<sym>Dot</sym>
</trkpt>
<trkpt lat="39.900812" lon="-8.441952">
<ele>287.5</ele>
<desc>Speed 14.9 km/h Distance 29.02 km</desc>
<time>2011-05-22T09:24:15.56</time>
<name>6513</name>
<sym>Dot</sym>
</trkpt>
<trkpt lat="39.900773" lon="-8.441955">
<ele>287.5</ele>
<desc>Speed 15.2 km/h Distance 29.02 km</desc>
<time>2011-05-22T09:24:16.56</time>
<name>6514</name>
<sym>Dot</sym>
</trkpt>
<trkpt lat="39.900735" lon="-8.441958">
<ele>287.5</ele>
<desc>Speed 14.8 km/h Distance 29.03 km</desc>
<time>2011-05-22T09:24:17.56</time>
<name>6515</name>
<sym>Dot</sym>
</trkpt>
<trkpt lat="39.900703" lon="-8.441950">
<ele>286.5</ele>
<desc>Speed 12.6 km/h Distance 29.03 km</desc>
<time>2011-05-22T09:24:18.56</time>
<name>6516</name>
<sym>Dot</sym>
</trkpt>
<trkpt lat="39.900668" lon="-8.441952">
<ele>286.5</ele>
<desc>Speed 13.6 km/h Distance 29.04 km</desc>
<time>2011-05-22T09:24:19.56</time>
<name>6517</name>
<sym>Dot</sym>
</trkpt>
<trkpt lat="39.900633" lon="-8.441958">
<ele>286.5</ele>
<desc>Speed 13.5 km/h Distance 29.04 km</desc>
<time>2011-05-22T09:24:20.56</time>
<name>6518</name>
<sym>Dot</sym>
</trkpt>
<trkpt lat="39.900598" lon="-8.441968">
<ele>286.5</ele>
<desc>Speed 13.6 km/h Distance 29.04 km</desc>
<time>2011-05-22T09:24:21.56</time>
<name>6519</name>
<sym>Dot</sym>
</trkpt>
<trkpt lat="39.900565" lon="-8.441983">
<ele>286.5</ele>
<desc>Speed 13.4 km/h Distance 29.05 km</desc>
<time>2011-05-22T09:24:22.56</time>
<name>6520</name>
<sym>Dot</sym>
</trkpt>
<trkpt lat="39.900533" lon="-8.442002">
<ele>286.5</ele>
<desc>Speed 13.2 km/h Distance 29.05 km</desc>
<time>2011-05-22T09:24:23.56</time>
<name>6521</name>
<sym>Dot</sym>
</trkpt>
<trkpt lat="39.900505" lon="-8.442020">
<ele>287.0</ele>
<desc>Speed 12.5 km/h Distance 29.06 km</desc>
<time>2011-05-22T09:24:24.56</time>
<name>6522</name>
<sym>Dot</sym>
</trkpt>
<trkpt lat="39.900477" lon="-8.442035">
<ele>287.5</ele>
<desc>Speed 11.7 km/h Distance 29.06 km</desc>
<time>2011-05-22T09:24:25.56</time>
<name>6523</name>
<sym>Dot</sym>
</trkpt>
<trkpt lat="39.900447" lon="-8.442052">
<ele>287.5</ele>
<desc>Speed 12.8 km/h Distance 29.06 km</desc>
<time>2011-05-22T09:24:26.56</time>
<name>6524</name>
<sym>Dot</sym>
</trkpt>
<trkpt lat="39.900417" lon="-8.442068">
<ele>287.5</ele>
<desc>Speed 12.1 km/h Distance 29.07 km</desc>
<time>2011-05-22T09:24:27.56</time>
<name>6525</name>
<sym>Dot</sym>
</trkpt>
<trkpt lat="39.900390" lon="-8.442085">
<ele>288.0</ele>
<desc>Speed 11.3 km/h Distance 29.07 km</desc>
<time>2011-05-22T09:24:28.56</time>
<name>6526</name>
<sym>Dot</sym>
</trkpt>
<trkpt lat="39.900363" lon="-8.442102">
<ele>288.0</ele>
<desc>Speed 11.4 km/h Distance 29.07 km</desc>
<time>2011-05-22T09:24:29.56</time>
<name>6527</name>
<sym>Dot</sym>
</trkpt>
<trkpt lat="39.900335" lon="-8.442113">
<ele>287.5</ele>
<desc>Speed 11.4 km/h Distance 29.08 km</desc>
<time>2011-05-22T09:24:30.56</time>
<name>6528</name>
<sym>Dot</sym>
</trkpt>
<trkpt lat="39.900310" lon="-8.442115">
<ele>287.0</ele>
<desc>Speed 9.2 km/h Distance 29.08 km</desc>
<time>2011-05-22T09:24:31.56</time>
<name>6529</name>
<sym>Dot</sym>
</trkpt>
<trkpt lat="39.900287" lon="-8.442118">
<ele>287.0</ele>
<desc>Speed 8.9 km/h Distance 29.08 km</desc>
<time>2011-05-22T09:24:32.56</time>
<name>6530</name>
<sym>Dot</sym>
</trkpt>
<trkpt lat="39.900263" lon="-8.442123">
<ele>287.0</ele>
<desc>Speed 8.6 km/h Distance 29.08 km</desc>
<time>2011-05-22T09:24:33.56</time>
<name>6531</name>
<sym>Dot</sym>
</trkpt>
<trkpt lat="39.900248" lon="-8.442133">
<ele>287.0</ele>
<desc>Speed 6.7 km/h Distance 29.09 km</desc>
<time>2011-05-22T09:24:34.56</time>
<name>6532</name>
<sym>Dot</sym>
</trkpt>
<trkpt lat="39.900232" lon="-8.442150">
<ele>287.5</ele>
<desc>Speed 7.8 km/h Distance 29.09 km</desc>
<time>2011-05-22T09:24:35.56</time>
<name>6533</name>
<sym>Dot</sym>
</trkpt>
<trkpt lat="39.900217" lon="-8.442168">
<ele>287.5</ele>
<desc>Speed 8.4 km/h Distance 29.09 km</desc>
<time>2011-05-22T09:24:36.56</time>
<name>6534</name>
<sym>Dot</sym>
</trkpt>
<trkpt lat="39.900198" lon="-8.442188">
<ele>288.0</ele>
<desc>Speed 8.7 km/h Distance 29.09 km</desc>
<time>2011-05-22T09:24:37.56</time>
<name>6535</name>
<sym>Dot</sym>
</trkpt>
<trkpt lat="39.900178" lon="-8.442200">
<ele>288.0</ele>
<desc>Speed 8.5 km/h Distance 29.10 km</desc>
<time>2011-05-22T09:24:38.56</time>
<name>6536</name>
<sym>Dot</sym>
</trkpt>
<trkpt lat="39.900162" lon="-8.442207">
<ele>288.5</ele>
<desc>Speed 7.0 km/h Distance 29.10 km</desc>
<time>2011-05-22T09:24:39.56</time>
<name>6537</name>
<sym>Dot</sym>
</trkpt>
<trkpt lat="39.900147" lon="-8.442215">
<ele>288.5</ele>
<desc>Speed 6.7 km/h Distance 29.10 km</desc>
<time>2011-05-22T09:24:40.56</time>
<name>6538</name>
<sym>Dot</sym>
</trkpt>
<trkpt lat="39.900130" lon="-8.442223">
<ele>288.5</ele>
<desc>Speed 6.3 km/h Distance 29.10 km</desc>
<time>2011-05-22T09:24:41.56</time>
<name>6539</name>
<sym>Dot</sym>
</trkpt>
<trkpt lat="39.900117" lon="-8.442228">
<ele>288.5</ele>
<desc>Speed 5.9 km/h Distance 29.10 km</desc>
<time>2011-05-22T09:24:42.56</time>
<name>6540</name>
<sym>Dot</sym>
</trkpt>
<trkpt lat="39.900102" lon="-8.442233">
<ele>288.5</ele>
<desc>Speed 5.8 km/h Distance 29.10 km</desc>
<time>2011-05-22T09:24:43.56</time>
<name>6541</name>
<sym>Dot</sym>
</trkpt>
<trkpt lat="39.900088" lon="-8.442242">
<ele>288.5</ele>
<desc>Speed 5.8 km/h Distance 29.11 km</desc>
<time>2011-05-22T09:24:44.56</time>
<name>6542</name>
<sym>Dot</sym>
</trkpt>
<trkpt lat="39.900075" lon="-8.442253">
<ele>288.5</ele>
<desc>Speed 6.0 km/h Distance 29.11 km</desc>
<time>2011-05-22T09:24:45.56</time>
<name>6543</name>
<sym>Dot</sym>
</trkpt>
<trkpt lat="39.900065" lon="-8.442262">
<ele>288.5</ele>
<desc>Speed 4.4 km/h Distance 29.11 km</desc>
<time>2011-05-22T09:24:46.56</time>
<name>6544</name>
<sym>Dot</sym>
</trkpt>
<trkpt lat="39.900052" lon="-8.442265">
<ele>289.0</ele>
<desc>Speed 5.2 km/h Distance 29.11 km</desc>
<time>2011-05-22T09:24:47.56</time>
<name>6545</name>
<sym>Dot</sym>
</trkpt>
<trkpt lat="39.900040" lon="-8.442272">
<ele>289.5</ele>
<desc>Speed 5.3 km/h Distance 29.11 km</desc>
<time>2011-05-22T09:24:48.56</time>
<name>6546</name>
<sym>Dot</sym>
</trkpt>
<trkpt lat="39.900025" lon="-8.442282">
<ele>289.5</ele>
<desc>Speed 6.6 km/h Distance 29.11 km</desc>
<time>2011-05-22T09:24:49.56</time>
<name>6547</name>
<sym>Dot</sym>
</trkpt>
<trkpt lat="39.900008" lon="-8.442288">
<ele>289.5</ele>
<desc>Speed 6.8 km/h Distance 29.12 km</desc>
<time>2011-05-22T09:24:50.56</time>
<name>6548</name>
<sym>Dot</sym>
</trkpt>
<trkpt lat="39.899990" lon="-8.442297">
<ele>290.0</ele>
<desc>Speed 7.7 km/h Distance 29.12 km</desc>
<time>2011-05-22T09:24:51.56</time>
<name>6549</name>
<sym>Dot</sym>
</trkpt>
<trkpt lat="39.899970" lon="-8.442298">
<ele>290.0</ele>
<desc>Speed 8.0 km/h Distance 29.12 km</desc>
<time>2011-05-22T09:24:52.56</time>
<name>6550</name>
<sym>Dot</sym>
</trkpt>
<trkpt lat="39.899948" lon="-8.442303">
<ele>290.0</ele>
<desc>Speed 8.4 km/h Distance 29.12 km</desc>
<time>2011-05-22T09:24:53.56</time>
<name>6551</name>
<sym>Dot</sym>
</trkpt>
<trkpt lat="39.899928" lon="-8.442307">
<ele>290.0</ele>
<desc>Speed 7.8 km/h Distance 29.13 km</desc>
<time>2011-05-22T09:24:54.56</time>
<name>6552</name>
<sym>Dot</sym>
</trkpt>
<trkpt lat="39.899910" lon="-8.442310">
<ele>290.5</ele>
<desc>Speed 7.5 km/h Distance 29.13 km</desc>
<time>2011-05-22T09:24:55.56</time>
<name>6553</name>
<sym>Dot</sym>
</trkpt>
<trkpt lat="39.899888" lon="-8.442313">
<ele>290.5</ele>
<desc>Speed 8.4 km/h Distance 29.13 km</desc>
<time>2011-05-22T09:24:56.56</time>
<name>6554</name>
<sym>Dot</sym>
</trkpt>
<trkpt lat="39.899867" lon="-8.442317">
<ele>290.5</ele>
<desc>Speed 8.1 km/h Distance 29.13 km</desc>
<time>2011-05-22T09:24:57.56</time>
<name>6555</name>
<sym>Dot</sym>
</trkpt>
<trkpt lat="39.899845" lon="-8.442315">
<ele>291.0</ele>
<desc>Speed 8.7 km/h Distance 29.13 km</desc>
<time>2011-05-22T09:24:58.56</time>
<name>6556</name>
<sym>Dot</sym>
</trkpt>
<trkpt lat="39.899818" lon="-8.442313">
<ele>291.5</ele>
<desc>Speed 10.1 km/h Distance 29.14 km</desc>
<time>2011-05-22T09:24:59.56</time>
<name>6557</name>
<sym>Dot</sym>
</trkpt>
<trkpt lat="39.899785" lon="-8.442310">
<ele>291.5</ele>
<desc>Speed 12.6 km/h Distance 29.14 km</desc>
<time>2011-05-22T09:25:00.55</time>
<name>6558</name>
<sym>Dot</sym>
</trkpt>
<trkpt lat="39.899750" lon="-8.442305">
<ele>291.5</ele>
<desc>Speed 13.3 km/h Distance 29.15 km</desc>
<time>2011-05-22T09:25:01.55</time>
<name>6559</name>
<sym>Dot</sym>
</trkpt>
<trkpt lat="39.899713" lon="-8.442298">
<ele>291.5</ele>
<desc>Speed 14.1 km/h Distance 29.15 km</desc>
<time>2011-05-22T09:25:02.55</time>
<name>6560</name>
<sym>Dot</sym>
</trkpt>
<trkpt lat="39.899672" lon="-8.442292">
<ele>291.5</ele>
<desc>Speed 15.6 km/h Distance 29.15 km</desc>
<time>2011-05-22T09:25:03.55</time>
<name>6561</name>
<sym>Dot</sym>
</trkpt>
<trkpt lat="39.899630" lon="-8.442288">
<ele>292.0</ele>
<desc>Speed 16.0 km/h Distance 29.16 km</desc>
<time>2011-05-22T09:25:04.55</time>
<name>6562</name>
<sym>Dot</sym>
</trkpt>
<trkpt lat="39.899590" lon="-8.442280">
<ele>292.5</ele>
<desc>Speed 15.8 km/h Distance 29.16 km</desc>
<time>2011-05-22T09:25:05.55</time>
<name>6563</name>
<sym>Dot</sym>
</trkpt>
<trkpt lat="39.899552" lon="-8.442268">
<ele>292.5</ele>
<desc>Speed 14.9 km/h Distance 29.17 km</desc>
<time>2011-05-22T09:25:06.55</time>
<name>6564</name>
<sym>Dot</sym>
</trkpt>
<trkpt lat="39.899515" lon="-8.442258">
<ele>292.5</ele>
<desc>Speed 14.3 km/h Distance 29.17 km</desc>
<time>2011-05-22T09:25:07.55</time>
<name>6565</name>
<sym>Dot</sym>
</trkpt>
<trkpt lat="39.899475" lon="-8.442250">
<ele>292.5</ele>
<desc>Speed 15.0 km/h Distance 29.18 km</desc>
<time>2011-05-22T09:25:08.55</time>
<name>6566</name>
<sym>Dot</sym>
</trkpt>
<trkpt lat="39.899435" lon="-8.442242">
<ele>292.5</ele>
<desc>Speed 15.5 km/h Distance 29.18 km</desc>
<time>2011-05-22T09:25:09.55</time>
<name>6567</name>
<sym>Dot</sym>
</trkpt>
<trkpt lat="39.899395" lon="-8.442235">
<ele>293.0</ele>
<desc>Speed 15.3 km/h Distance 29.19 km</desc>
<time>2011-05-22T09:25:10.55</time>
<name>6568</name>
<sym>Dot</sym>
</trkpt>
<trkpt lat="39.899357" lon="-8.442228">
<ele>294.0</ele>
<desc>Speed 14.9 km/h Distance 29.19 km</desc>
<time>2011-05-22T09:25:11.55</time>
<name>6569</name>
<sym>Dot</sym>
</trkpt>
<trkpt lat="39.899313" lon="-8.442225">
<ele>294.5</ele>
<desc>Speed 16.4 km/h Distance 29.19 km</desc>
<time>2011-05-22T09:25:12.55</time>
<name>6570</name>
<sym>Dot</sym>
</trkpt>
<trkpt lat="39.899270" lon="-8.442223">
<ele>295.0</ele>
<desc>Speed 16.4 km/h Distance 29.20 km</desc>
<time>2011-05-22T09:25:13.55</time>
<name>6571</name>
<sym>Dot</sym>
</trkpt>
<trkpt lat="39.899230" lon="-8.442217">
<ele>295.0</ele>
<desc>Speed 14.9 km/h Distance 29.20 km</desc>
<time>2011-05-22T09:25:14.55</time>
<name>6572</name>
<sym>Dot</sym>
</trkpt>
<trkpt lat="39.899192" lon="-8.442212">
<ele>295.5</ele>
<desc>Speed 15.2 km/h Distance 29.21 km</desc>
<time>2011-05-22T09:25:15.55</time>
<name>6573</name>
<sym>Dot</sym>
</trkpt>
<trkpt lat="39.899150" lon="-8.442207">
<ele>296.0</ele>
<desc>Speed 15.9 km/h Distance 29.21 km</desc>
<time>2011-05-22T09:25:16.55</time>
<name>6574</name>
<sym>Dot</sym>
</trkpt>
<trkpt lat="39.899108" lon="-8.442200">
<ele>296.0</ele>
<desc>Speed 15.6 km/h Distance 29.22 km</desc>
<time>2011-05-22T09:25:17.55</time>
<name>6575</name>
<sym>Dot</sym>
</trkpt>
<trkpt lat="39.899067" lon="-8.442193">
<ele>296.5</ele>
<desc>Speed 15.6 km/h Distance 29.22 km</desc>
<time>2011-05-22T09:25:18.55</time>
<name>6576</name>
<sym>Dot</sym>
</trkpt>
<trkpt lat="39.899027" lon="-8.442188">
<ele>297.0</ele>
<desc>Speed 15.6 km/h Distance 29.23 km</desc>
<time>2011-05-22T09:25:19.55</time>
<name>6577</name>
<sym>Dot</sym>
</trkpt>
<trkpt lat="39.898985" lon="-8.442185">
<ele>297.0</ele>
<desc>Speed 15.8 km/h Distance 29.23 km</desc>
<time>2011-05-22T09:25:20.55</time>
<name>6578</name>
<sym>Dot</sym>
</trkpt>
<trkpt lat="39.898942" lon="-8.442180">
<ele>297.5</ele>
<desc>Speed 16.5 km/h Distance 29.24 km</desc>
<time>2011-05-22T09:25:21.55</time>
<name>6579</name>
<sym>Dot</sym>
</trkpt>
<trkpt lat="39.898898" lon="-8.442178">
<ele>297.5</ele>
<desc>Speed 16.2 km/h Distance 29.24 km</desc>
<time>2011-05-22T09:25:22.55</time>
<name>6580</name>
<sym>Dot</sym>
</trkpt>
<trkpt lat="39.898857" lon="-8.442177">
<ele>297.0</ele>
<desc>Speed 15.9 km/h Distance 29.25 km</desc>
<time>2011-05-22T09:25:23.55</time>
<name>6581</name>
<sym>Dot</sym>
</trkpt>
<trkpt lat="39.898817" lon="-8.442173">
<ele>296.5</ele>
<desc>Speed 15.8 km/h Distance 29.25 km</desc>
<time>2011-05-22T09:25:24.55</time>
<name>6582</name>
<sym>Dot</sym>
</trkpt>
<trkpt lat="39.898775" lon="-8.442172">
<ele>296.5</ele>
<desc>Speed 15.4 km/h Distance 29.25 km</desc>
<time>2011-05-22T09:25:25.55</time>
<name>6583</name>
<sym>Dot</sym>
</trkpt>
<trkpt lat="39.898735" lon="-8.442170">
<ele>295.5</ele>
<desc>Speed 16.1 km/h Distance 29.26 km</desc>
<time>2011-05-22T09:25:26.55</time>
<name>6584</name>
<sym>Dot</sym>
</trkpt>
<trkpt lat="39.898692" lon="-8.442165">
<ele>295.5</ele>
<desc>Speed 16.4 km/h Distance 29.26 km</desc>
<time>2011-05-22T09:25:27.55</time>
<name>6585</name>
<sym>Dot</sym>
</trkpt>
<trkpt lat="39.898650" lon="-8.442160">
<ele>295.0</ele>
<desc>Speed 16.7 km/h Distance 29.27 km</desc>
<time>2011-05-22T09:25:28.55</time>
<name>6586</name>
<sym>Dot</sym>
</trkpt>
<trkpt lat="39.898608" lon="-8.442157">
<ele>295.0</ele>
<desc>Speed 16.8 km/h Distance 29.27 km</desc>
<time>2011-05-22T09:25:29.55</time>
<name>6587</name>
<sym>Dot</sym>
</trkpt>
<trkpt lat="39.898567" lon="-8.442155">
<ele>294.5</ele>
<desc>Speed 17.0 km/h Distance 29.28 km</desc>
<time>2011-05-22T09:25:30.55</time>
<name>6588</name>
<sym>Dot</sym>
</trkpt>
<trkpt lat="39.898523" lon="-8.442153">
<ele>294.0</ele>
<desc>Speed 17.1 km/h Distance 29.28 km</desc>
<time>2011-05-22T09:25:31.55</time>
<name>6589</name>
<sym>Dot</sym>
</trkpt>
<trkpt lat="39.898478" lon="-8.442152">
<ele>293.5</ele>
<desc>Speed 17.1 km/h Distance 29.29 km</desc>
<time>2011-05-22T09:25:32.55</time>
<name>6590</name>
<sym>Dot</sym>
</trkpt>
<trkpt lat="39.898435" lon="-8.442147">
<ele>293.5</ele>
<desc>Speed 17.4 km/h Distance 29.29 km</desc>
<time>2011-05-22T09:25:33.55</time>
<name>6591</name>
<sym>Dot</sym>
</trkpt>
<trkpt lat="39.898392" lon="-8.442140">
<ele>293.0</ele>
<desc>Speed 17.5 km/h Distance 29.30 km</desc>
<time>2011-05-22T09:25:34.55</time>
<name>6592</name>
<sym>Dot</sym>
</trkpt>
<trkpt lat="39.898343" lon="-8.442137">
<ele>293.0</ele>
<desc>Speed 18.5 km/h Distance 29.30 km</desc>
<time>2011-05-22T09:25:35.55</time>
<name>6593</name>
<sym>Dot</sym>
</trkpt>
<trkpt lat="39.898295" lon="-8.442133">
<ele>293.0</ele>
<desc>Speed 19.3 km/h Distance 29.31 km</desc>
<time>2011-05-22T09:25:36.55</time>
<name>6594</name>
<sym>Dot</sym>
</trkpt>
<trkpt lat="39.898243" lon="-8.442128">
<ele>292.5</ele>
<desc>Speed 20.4 km/h Distance 29.31 km</desc>
<time>2011-05-22T09:25:37.55</time>
<name>6595</name>
<sym>Dot</sym>
</trkpt>
<trkpt lat="39.898187" lon="-8.442127">
<ele>292.5</ele>
<desc>Speed 22.4 km/h Distance 29.32 km</desc>
<time>2011-05-22T09:25:38.55</time>
<name>6596</name>
<sym>Dot</sym>
</trkpt>
<trkpt lat="39.898128" lon="-8.442123">
<ele>292.0</ele>
<desc>Speed 23.0 km/h Distance 29.33 km</desc>
<time>2011-05-22T09:25:39.55</time>
<name>6597</name>
<sym>Dot</sym>
</trkpt>
<trkpt lat="39.898068" lon="-8.442120">
<ele>291.5</ele>
<desc>Speed 23.7 km/h Distance 29.33 km</desc>
<time>2011-05-22T09:25:40.55</time>
<name>6598</name>
<sym>Dot</sym>
</trkpt>
<trkpt lat="39.898007" lon="-8.442117">
<ele>291.5</ele>
<desc>Speed 24.6 km/h Distance 29.34 km</desc>
<time>2011-05-22T09:25:41.55</time>
<name>6599</name>
<sym>Dot</sym>
</trkpt>
<trkpt lat="39.897943" lon="-8.442112">
<ele>291.0</ele>
<desc>Speed 25.2 km/h Distance 29.35 km</desc>
<time>2011-05-22T09:25:42.55</time>
<name>6600</name>
<sym>Dot</sym>
</trkpt>
<trkpt lat="39.897878" lon="-8.442102">
<ele>290.5</ele>
<desc>Speed 26.0 km/h Distance 29.35 km</desc>
<time>2011-05-22T09:25:43.55</time>
<name>6601</name>
<sym>Dot</sym>
</trkpt>
<trkpt lat="39.897812" lon="-8.442095">
<ele>290.0</ele>
<desc>Speed 26.6 km/h Distance 29.36 km</desc>
<time>2011-05-22T09:25:44.55</time>
<name>6602</name>
<sym>Dot</sym>
</trkpt>
<trkpt lat="39.897745" lon="-8.442087">
<ele>289.5</ele>
<desc>Speed 27.0 km/h Distance 29.37 km</desc>
<time>2011-05-22T09:25:45.55</time>
<name>6603</name>
<sym>Dot</sym>
</trkpt>
<trkpt lat="39.897677" lon="-8.442078">
<ele>289.0</ele>
<desc>Speed 27.4 km/h Distance 29.38 km</desc>
<time>2011-05-22T09:25:46.55</time>
<name>6604</name>
<sym>Dot</sym>
</trkpt>
<trkpt lat="39.897607" lon="-8.442073">
<ele>289.0</ele>
<desc>Speed 27.9 km/h Distance 29.39 km</desc>
<time>2011-05-22T09:25:47.55</time>
<name>6605</name>
<sym>Dot</sym>
</trkpt>
<trkpt lat="39.897535" lon="-8.442070">
<ele>288.5</ele>
<desc>Speed 28.8 km/h Distance 29.39 km</desc>
<time>2011-05-22T09:25:48.55</time>
<name>6606</name>
<sym>Dot</sym>
</trkpt>
<trkpt lat="39.897463" lon="-8.442068">
<ele>288.0</ele>
<desc>Speed 29.2 km/h Distance 29.40 km</desc>
<time>2011-05-22T09:25:49.55</time>
<name>6607</name>
<sym>Dot</sym>
</trkpt>
<trkpt lat="39.897390" lon="-8.442065">
<ele>288.0</ele>
<desc>Speed 29.0 km/h Distance 29.41 km</desc>
<time>2011-05-22T09:25:50.55</time>
<name>6608</name>
<sym>Dot</sym>
</trkpt>
<trkpt lat="39.897320" lon="-8.442062">
<ele>287.0</ele>
<desc>Speed 28.1 km/h Distance 29.42 km</desc>
<time>2011-05-22T09:25:51.55</time>
<name>6609</name>
<sym>Dot</sym>
</trkpt>
<trkpt lat="39.897248" lon="-8.442062">
<ele>286.0</ele>
<desc>Speed 28.6 km/h Distance 29.42 km</desc>
<time>2011-05-22T09:25:52.55</time>
<name>6610</name>
<sym>Dot</sym>
</trkpt>
<trkpt lat="39.897175" lon="-8.442073">
<ele>285.5</ele>
<desc>Speed 29.2 km/h Distance 29.43 km</desc>
<time>2011-05-22T09:25:53.55</time>
<name>6611</name>
<sym>Dot</sym>
</trkpt>
<trkpt lat="39.897105" lon="-8.442108">
<ele>285.0</ele>
<desc>Speed 29.6 km/h Distance 29.44 km</desc>
<time>2011-05-22T09:25:54.55</time>
<name>6612</name>
<sym>Dot</sym>
</trkpt>
<trkpt lat="39.897042" lon="-8.442163">
<ele>284.0</ele>
<desc>Speed 30.9 km/h Distance 29.45 km</desc>
<time>2011-05-22T09:25:55.55</time>
<name>6613</name>
<sym>Dot</sym>
</trkpt>
<trkpt lat="39.896982" lon="-8.442235">
<ele>283.0</ele>
<desc>Speed 32.1 km/h Distance 29.46 km</desc>
<time>2011-05-22T09:25:56.55</time>
<name>6614</name>
<sym>Dot</sym>
</trkpt>
<trkpt lat="39.896928" lon="-8.442318">
<ele>282.0</ele>
<desc>Speed 32.7 km/h Distance 29.47 km</desc>
<time>2011-05-22T09:25:57.55</time>
<name>6615</name>
<sym>Dot</sym>
</trkpt>
<trkpt lat="39.896880" lon="-8.442407">
<ele>281.5</ele>
<desc>Speed 32.6 km/h Distance 29.48 km</desc>
<time>2011-05-22T09:25:58.55</time>
<name>6616</name>
<sym>Dot</sym>
</trkpt>
<trkpt lat="39.896833" lon="-8.442497">
<ele>280.0</ele>
<desc>Speed 33.2 km/h Distance 29.49 km</desc>
<time>2011-05-22T09:25:59.55</time>
<name>6617</name>
<sym>Dot</sym>
</trkpt>
<trkpt lat="39.896790" lon="-8.442588">
<ele>279.0</ele>
<desc>Speed 32.8 km/h Distance 29.50 km</desc>
<time>2011-05-22T09:26:00.54</time>
<name>6618</name>
<sym>Dot</sym>
</trkpt>
<trkpt lat="39.896747" lon="-8.442682">
<ele>278.0</ele>
<desc>Speed 32.9 km/h Distance 29.51 km</desc>
<time>2011-05-22T09:26:01.54</time>
<name>6619</name>
<sym>Dot</sym>
</trkpt>
<trkpt lat="39.896703" lon="-8.442775">
<ele>277.5</ele>
<desc>Speed 33.0 km/h Distance 29.51 km</desc>
<time>2011-05-22T09:26:02.54</time>
<name>6620</name>
<sym>Dot</sym>
</trkpt>
<trkpt lat="39.896658" lon="-8.442870">
<ele>276.5</ele>
<desc>Speed 33.8 km/h Distance 29.52 km</desc>
<time>2011-05-22T09:26:03.54</time>
<name>6621</name>
<sym>Dot</sym>
</trkpt>
<trkpt lat="39.896617" lon="-8.442962">
<ele>275.5</ele>
<desc>Speed 33.0 km/h Distance 29.53 km</desc>
<time>2011-05-22T09:26:04.54</time>
<name>6622</name>
<sym>Dot</sym>
</trkpt>
<trkpt lat="39.896572" lon="-8.443050">
<ele>275.0</ele>
<desc>Speed 33.0 km/h Distance 29.54 km</desc>
<time>2011-05-22T09:26:05.54</time>
<name>6623</name>
<sym>Dot</sym>
</trkpt>
<trkpt lat="39.896525" lon="-8.443143">
<ele>274.0</ele>
<desc>Speed 34.1 km/h Distance 29.55 km</desc>
<time>2011-05-22T09:26:06.54</time>
<name>6624</name>
<sym>Dot</sym>
</trkpt>
<trkpt lat="39.896475" lon="-8.443235">
<ele>273.5</ele>
<desc>Speed 34.7 km/h Distance 29.56 km</desc>
<time>2011-05-22T09:26:07.54</time>
<name>6625</name>
<sym>Dot</sym>
</trkpt>
<trkpt lat="39.896423" lon="-8.443328">
<ele>273.0</ele>
<desc>Speed 35.6 km/h Distance 29.57 km</desc>
<time>2011-05-22T09:26:08.54</time>
<name>6626</name>
<sym>Dot</sym>
</trkpt>
<trkpt lat="39.896367" lon="-8.443420">
<ele>272.5</ele>
<desc>Speed 36.1 km/h Distance 29.58 km</desc>
<time>2011-05-22T09:26:09.54</time>
<name>6627</name>
<sym>Dot</sym>
</trkpt>
<trkpt lat="39.896310" lon="-8.443512">
<ele>272.0</ele>
<desc>Speed 36.5 km/h Distance 29.59 km</desc>
<time>2011-05-22T09:26:10.54</time>
<name>6628</name>
<sym>Dot</sym>
</trkpt>
<trkpt lat="39.896252" lon="-8.443607">
<ele>271.5</ele>
<desc>Speed 37.1 km/h Distance 29.60 km</desc>
<time>2011-05-22T09:26:11.54</time>
<name>6629</name>
<sym>Dot</sym>
</trkpt>
<trkpt lat="39.896195" lon="-8.443702">
<ele>271.5</ele>
<desc>Speed 37.1 km/h Distance 29.61 km</desc>
<time>2011-05-22T09:26:12.54</time>
<name>6630</name>
<sym>Dot</sym>
</trkpt>
<trkpt lat="39.896138" lon="-8.443798">
<ele>271.0</ele>
<desc>Speed 37.4 km/h Distance 29.62 km</desc>
<time>2011-05-22T09:26:13.54</time>
<name>6631</name>
<sym>Dot</sym>
</trkpt>
<trkpt lat="39.896082" lon="-8.443893">
<ele>270.5</ele>
<desc>Speed 37.1 km/h Distance 29.63 km</desc>
<time>2011-05-22T09:26:14.54</time>
<name>6632</name>
<sym>Dot</sym>
</trkpt>
<trkpt lat="39.896025" lon="-8.443988">
<ele>270.0</ele>
<desc>Speed 36.8 km/h Distance 29.64 km</desc>
<time>2011-05-22T09:26:15.54</time>
<name>6633</name>
<sym>Dot</sym>
</trkpt>
<trkpt lat="39.895972" lon="-8.444082">
<ele>269.5</ele>
<desc>Speed 36.5 km/h Distance 29.65 km</desc>
<time>2011-05-22T09:26:16.54</time>
<name>6634</name>
<sym>Dot</sym>
</trkpt>
<trkpt lat="39.895915" lon="-8.444175">
<ele>269.5</ele>
<desc>Speed 36.5 km/h Distance 29.66 km</desc>
<time>2011-05-22T09:26:17.54</time>
<name>6635</name>
<sym>Dot</sym>
</trkpt>
<trkpt lat="39.895858" lon="-8.444268">
<ele>269.0</ele>
<desc>Speed 36.5 km/h Distance 29.67 km</desc>
<time>2011-05-22T09:26:18.54</time>
<name>6636</name>
<sym>Dot</sym>
</trkpt>
<trkpt lat="39.895803" lon="-8.444360">
<ele>269.0</ele>
<desc>Speed 36.3 km/h Distance 29.68 km</desc>
<time>2011-05-22T09:26:19.54</time>
<name>6637</name>
<sym>Dot</sym>
</trkpt>
<trkpt lat="39.895747" lon="-8.444450">
<ele>268.5</ele>
<desc>Speed 35.7 km/h Distance 29.69 km</desc>
<time>2011-05-22T09:26:20.54</time>
<name>6638</name>
<sym>Dot</sym>
</trkpt>
<trkpt lat="39.895692" lon="-8.444538">
<ele>268.5</ele>
<desc>Speed 35.2 km/h Distance 29.70 km</desc>
<time>2011-05-22T09:26:21.54</time>
<name>6639</name>
<sym>Dot</sym>
</trkpt>
<trkpt lat="39.895638" lon="-8.444625">
<ele>268.5</ele>
<desc>Speed 34.3 km/h Distance 29.71 km</desc>
<time>2011-05-22T09:26:22.54</time>
<name>6640</name>
<sym>Dot</sym>
</trkpt>
<trkpt lat="39.895585" lon="-8.444708">
<ele>268.5</ele>
<desc>Speed 33.6 km/h Distance 29.72 km</desc>
<time>2011-05-22T09:26:23.54</time>
<name>6641</name>
<sym>Dot</sym>
</trkpt>
<trkpt lat="39.895533" lon="-8.444790">
<ele>268.5</ele>
<desc>Speed 32.3 km/h Distance 29.73 km</desc>
<time>2011-05-22T09:26:24.54</time>
<name>6642</name>
<sym>Dot</sym>
</trkpt>
<trkpt lat="39.895483" lon="-8.444867">
<ele>268.5</ele>
<desc>Speed 31.2 km/h Distance 29.74 km</desc>
<time>2011-05-22T09:26:25.54</time>
<name>6643</name>
<sym>Dot</sym>
</trkpt>
<trkpt lat="39.895437" lon="-8.444940">
<ele>269.0</ele>
<desc>Speed 29.6 km/h Distance 29.75 km</desc>
<time>2011-05-22T09:26:26.54</time>
<name>6644</name>
<sym>Dot</sym>
</trkpt>
<trkpt lat="39.895390" lon="-8.445010">
<ele>269.0</ele>
<desc>Speed 28.6 km/h Distance 29.76 km</desc>
<time>2011-05-22T09:26:27.54</time>
<name>6645</name>
<sym>Dot</sym>
</trkpt>
<trkpt lat="39.895343" lon="-8.445075">
<ele>269.0</ele>
<desc>Speed 27.3 km/h Distance 29.76 km</desc>
<time>2011-05-22T09:26:28.54</time>
<name>6646</name>
<sym>Dot</sym>
</trkpt>
<trkpt lat="39.895297" lon="-8.445133">
<ele>269.5</ele>
<desc>Speed 25.9 km/h Distance 29.77 km</desc>
<time>2011-05-22T09:26:29.54</time>
<name>6647</name>
<sym>Dot</sym>
</trkpt>
<trkpt lat="39.895252" lon="-8.445185">
<ele>269.5</ele>
<desc>Speed 24.1 km/h Distance 29.78 km</desc>
<time>2011-05-22T09:26:30.54</time>
<name>6648</name>
<sym>Dot</sym>
</trkpt>
<trkpt lat="39.895210" lon="-8.445232">
<ele>269.5</ele>
<desc>Speed 21.9 km/h Distance 29.78 km</desc>
<time>2011-05-22T09:26:31.54</time>
<name>6649</name>
<sym>Dot</sym>
</trkpt>
<trkpt lat="39.895170" lon="-8.445268">
<ele>270.0</ele>
<desc>Speed 19.8 km/h Distance 29.79 km</desc>
<time>2011-05-22T09:26:32.54</time>
<name>6650</name>
<sym>Dot</sym>
</trkpt>
<trkpt lat="39.895132" lon="-8.445297">
<ele>270.5</ele>
<desc>Speed 17.9 km/h Distance 29.79 km</desc>
<time>2011-05-22T09:26:33.54</time>
<name>6651</name>
<sym>Dot</sym>
</trkpt>
<trkpt lat="39.895095" lon="-8.445318">
<ele>271.0</ele>
<desc>Speed 16.5 km/h Distance 29.80 km</desc>
<time>2011-05-22T09:26:34.54</time>
<name>6652</name>
<sym>Dot</sym>
</trkpt>
<trkpt lat="39.895058" lon="-8.445332">
<ele>271.5</ele>
<desc>Speed 15.2 km/h Distance 29.80 km</desc>
<time>2011-05-22T09:26:35.54</time>
<name>6653</name>
<sym>Dot</sym>
</trkpt>
<trkpt lat="39.895020" lon="-8.445342">
<ele>272.0</ele>
<desc>Speed 15.2 km/h Distance 29.81 km</desc>
<time>2011-05-22T09:26:36.54</time>
<name>6654</name>
<sym>Dot</sym>
</trkpt>
<trkpt lat="39.894983" lon="-8.445343">
<ele>272.0</ele>
<desc>Speed 15.2 km/h Distance 29.81 km</desc>
<time>2011-05-22T09:26:37.54</time>
<name>6655</name>
<sym>Dot</sym>
</trkpt>
<trkpt lat="39.894945" lon="-8.445347">
<ele>272.5</ele>
<desc>Speed 15.0 km/h Distance 29.81 km</desc>
<time>2011-05-22T09:26:38.54</time>
<name>6656</name>
<sym>Dot</sym>
</trkpt>
<trkpt lat="39.894908" lon="-8.445345">
<ele>273.0</ele>
<desc>Speed 14.7 km/h Distance 29.82 km</desc>
<time>2011-05-22T09:26:39.54</time>
<name>6657</name>
<sym>Dot</sym>
</trkpt>
<trkpt lat="39.894873" lon="-8.445345">
<ele>273.0</ele>
<desc>Speed 14.1 km/h Distance 29.82 km</desc>
<time>2011-05-22T09:26:40.54</time>
<name>6658</name>
<sym>Dot</sym>
</trkpt>
<trkpt lat="39.894840" lon="-8.445343">
<ele>273.0</ele>
<desc>Speed 13.6 km/h Distance 29.83 km</desc>
<time>2011-05-22T09:26:41.54</time>
<name>6659</name>
<sym>Dot</sym>
</trkpt>
<trkpt lat="39.894807" lon="-8.445340">
<ele>273.5</ele>
<desc>Speed 13.3 km/h Distance 29.83 km</desc>
<time>2011-05-22T09:26:42.54</time>
<name>6660</name>
<sym>Dot</sym>
</trkpt>
<trkpt lat="39.894777" lon="-8.445333">
<ele>274.0</ele>
<desc>Speed 12.7 km/h Distance 29.83 km</desc>
<time>2011-05-22T09:26:43.54</time>
<name>6661</name>
<sym>Dot</sym>
</trkpt>
<trkpt lat="39.894743" lon="-8.445325">
<ele>274.5</ele>
<desc>Speed 13.1 km/h Distance 29.84 km</desc>
<time>2011-05-22T09:26:44.54</time>
<name>6662</name>
<sym>Dot</sym>
</trkpt>
<trkpt lat="39.894712" lon="-8.445318">
<ele>275.0</ele>
<desc>Speed 13.2 km/h Distance 29.84 km</desc>
<time>2011-05-22T09:26:45.54</time>
<name>6663</name>
<sym>Dot</sym>
</trkpt>
<trkpt lat="39.894678" lon="-8.445308">
<ele>275.0</ele>
<desc>Speed 13.7 km/h Distance 29.84 km</desc>
<time>2011-05-22T09:26:46.54</time>
<name>6664</name>
<sym>Dot</sym>
</trkpt>
<trkpt lat="39.894647" lon="-8.445295">
<ele>275.0</ele>
<desc>Speed 13.5 km/h Distance 29.85 km</desc>
<time>2011-05-22T09:26:47.54</time>
<name>6665</name>
<sym>Dot</sym>
</trkpt>
<trkpt lat="39.894615" lon="-8.445278">
<ele>275.0</ele>
<desc>Speed 13.8 km/h Distance 29.85 km</desc>
<time>2011-05-22T09:26:48.54</time>
<name>6666</name>
<sym>Dot</sym>
</trkpt>
<trkpt lat="39.894583" lon="-8.445262">
<ele>275.0</ele>
<desc>Speed 13.5 km/h Distance 29.86 km</desc>
<time>2011-05-22T09:26:49.54</time>
<name>6667</name>
<sym>Dot</sym>
</trkpt>
<trkpt lat="39.894553" lon="-8.445247">
<ele>275.5</ele>
<desc>Speed 13.2 km/h Distance 29.86 km</desc>
<time>2011-05-22T09:26:50.54</time>
<name>6668</name>
<sym>Dot</sym>
</trkpt>
<trkpt lat="39.894523" lon="-8.445233">
<ele>275.0</ele>
<desc>Speed 12.7 km/h Distance 29.86 km</desc>
<time>2011-05-22T09:26:51.54</time>
<name>6669</name>
<sym>Dot</sym>
</trkpt>
<trkpt lat="39.894495" lon="-8.445217">
<ele>275.5</ele>
<desc>Speed 12.3 km/h Distance 29.87 km</desc>
<time>2011-05-22T09:26:52.54</time>
<name>6670</name>
<sym>Dot</sym>
</trkpt>
<trkpt lat="39.894467" lon="-8.445200">
<ele>275.5</ele>
<desc>Speed 12.9 km/h Distance 29.87 km</desc>
<time>2011-05-22T09:26:53.54</time>
<name>6671</name>
<sym>Dot</sym>
</trkpt>
<trkpt lat="39.894438" lon="-8.445185">
<ele>276.5</ele>
<desc>Speed 12.0 km/h Distance 29.87 km</desc>
<time>2011-05-22T09:26:54.54</time>
<name>6672</name>
<sym>Dot</sym>
</trkpt>
<trkpt lat="39.894410" lon="-8.445167">
<ele>277.5</ele>
<desc>Speed 12.6 km/h Distance 29.88 km</desc>
<time>2011-05-22T09:26:55.54</time>
<name>6673</name>
<sym>Dot</sym>
</trkpt>
<trkpt lat="39.894380" lon="-8.445152">
<ele>279.0</ele>
<desc>Speed 13.0 km/h Distance 29.88 km</desc>
<time>2011-05-22T09:26:56.54</time>
<name>6674</name>
<sym>Dot</sym>
</trkpt>
<trkpt lat="39.894350" lon="-8.445138">
<ele>281.0</ele>
<desc>Speed 12.5 km/h Distance 29.88 km</desc>
<time>2011-05-22T09:26:57.54</time>
<name>6675</name>
<sym>Dot</sym>
</trkpt>
<trkpt lat="39.894328" lon="-8.445113">
<ele>281.0</ele>
<desc>Speed 11.5 km/h Distance 29.89 km</desc>
<time>2011-05-22T09:26:58.54</time>
<name>6676</name>
<sym>Dot</sym>
</trkpt>
<trkpt lat="39.894305" lon="-8.445093">
<ele>282.0</ele>
<desc>Speed 11.5 km/h Distance 29.89 km</desc>
<time>2011-05-22T09:26:59.54</time>
<name>6677</name>
<sym>Dot</sym>
</trkpt>
<trkpt lat="39.894283" lon="-8.445070">
<ele>282.5</ele>
<desc>Speed 11.5 km/h Distance 29.89 km</desc>
<time>2011-05-22T09:27:00.53</time>
<name>6678</name>
<sym>Dot</sym>
</trkpt>
<trkpt lat="39.894255" lon="-8.445055">
<ele>284.0</ele>
<desc>Speed 11.8 km/h Distance 29.90 km</desc>
<time>2011-05-22T09:27:01.53</time>
<name>6679</name>
<sym>Dot</sym>
</trkpt>
<trkpt lat="39.894230" lon="-8.445038">
<ele>285.0</ele>
<desc>Speed 11.3 km/h Distance 29.90 km</desc>
<time>2011-05-22T09:27:02.53</time>
<name>6680</name>
<sym>Dot</sym>
</trkpt>
<trkpt lat="39.894207" lon="-8.445022">
<ele>286.5</ele>
<desc>Speed 10.8 km/h Distance 29.90 km</desc>
<time>2011-05-22T09:27:03.53</time>
<name>6681</name>
<sym>Dot</sym>
</trkpt>
<trkpt lat="39.894192" lon="-8.444990">
<ele>286.5</ele>
<desc>Speed 11.5 km/h Distance 29.91 km</desc>
<time>2011-05-22T09:27:04.53</time>
<name>6682</name>
<sym>Dot</sym>
</trkpt>
<trkpt lat="39.894177" lon="-8.444963">
<ele>286.5</ele>
<desc>Speed 10.8 km/h Distance 29.91 km</desc>
<time>2011-05-22T09:27:05.53</time>
<name>6683</name>
<sym>Dot</sym>
</trkpt>
<trkpt lat="39.894162" lon="-8.444935">
<ele>286.5</ele>
<desc>Speed 10.6 km/h Distance 29.91 km</desc>
<time>2011-05-22T09:27:06.53</time>
<name>6684</name>
<sym>Dot</sym>
</trkpt>
<trkpt lat="39.894148" lon="-8.444907">
<ele>286.5</ele>
<desc>Speed 10.6 km/h Distance 29.91 km</desc>
<time>2011-05-22T09:27:07.53</time>
<name>6685</name>
<sym>Dot</sym>
</trkpt>
<trkpt lat="39.894135" lon="-8.444875">
<ele>286.5</ele>
<desc>Speed 10.9 km/h Distance 29.92 km</desc>
<time>2011-05-22T09:27:08.53</time>
<name>6686</name>
<sym>Dot</sym>
</trkpt>
<trkpt lat="39.894122" lon="-8.444845">
<ele>287.0</ele>
<desc>Speed 10.9 km/h Distance 29.92 km</desc>
<time>2011-05-22T09:27:09.53</time>
<name>6687</name>
<sym>Dot</sym>
</trkpt>
<trkpt lat="39.894105" lon="-8.444818">
<ele>287.0</ele>
<desc>Speed 10.5 km/h Distance 29.92 km</desc>
<time>2011-05-22T09:27:10.53</time>
<name>6688</name>
<sym>Dot</sym>
</trkpt>
<trkpt lat="39.894090" lon="-8.444793">
<ele>287.0</ele>
<desc>Speed 9.9 km/h Distance 29.93 km</desc>
<time>2011-05-22T09:27:11.53</time>
<name>6689</name>
<sym>Dot</sym>
</trkpt>
<trkpt lat="39.894078" lon="-8.444767">
<ele>287.5</ele>
<desc>Speed 9.5 km/h Distance 29.93 km</desc>
<time>2011-05-22T09:27:12.53</time>
<name>6690</name>
<sym>Dot</sym>
</trkpt>
<trkpt lat="39.894068" lon="-8.444738">
<ele>287.5</ele>
<desc>Speed 9.5 km/h Distance 29.93 km</desc>
<time>2011-05-22T09:27:13.53</time>
<name>6691</name>
<sym>Dot</sym>
</trkpt>
<trkpt lat="39.894062" lon="-8.444707">
<ele>287.0</ele>
<desc>Speed 10.2 km/h Distance 29.93 km</desc>
<time>2011-05-22T09:27:14.53</time>
<name>6692</name>
<sym>Dot</sym>
</trkpt>
<trkpt lat="39.894053" lon="-8.444673">
<ele>287.0</ele>
<desc>Speed 10.8 km/h Distance 29.94 km</desc>
<time>2011-05-22T09:27:15.53</time>
<name>6693</name>
<sym>Dot</sym>
</trkpt>
<trkpt lat="39.894043" lon="-8.444638">
<ele>287.0</ele>
<desc>Speed 11.0 km/h Distance 29.94 km</desc>
<time>2011-05-22T09:27:16.53</time>
<name>6694</name>
<sym>Dot</sym>
</trkpt>
<trkpt lat="39.894033" lon="-8.444605">
<ele>287.0</ele>
<desc>Speed 10.9 km/h Distance 29.94 km</desc>
<time>2011-05-22T09:27:17.53</time>
<name>6695</name>
<sym>Dot</sym>
</trkpt>
<trkpt lat="39.894023" lon="-8.444572">
<ele>287.0</ele>
<desc>Speed 11.2 km/h Distance 29.95 km</desc>
<time>2011-05-22T09:27:18.53</time>
<name>6696</name>
<sym>Dot</sym>
</trkpt>
<trkpt lat="39.894012" lon="-8.444538">
<ele>287.0</ele>
<desc>Speed 11.3 km/h Distance 29.95 km</desc>
<time>2011-05-22T09:27:19.53</time>
<name>6697</name>
<sym>Dot</sym>
</trkpt>
<trkpt lat="39.894000" lon="-8.444505">
<ele>287.5</ele>
<desc>Speed 11.1 km/h Distance 29.95 km</desc>
<time>2011-05-22T09:27:20.53</time>
<name>6698</name>
<sym>Dot</sym>
</trkpt>
<trkpt lat="39.893990" lon="-8.444473">
<ele>287.5</ele>
<desc>Speed 10.9 km/h Distance 29.96 km</desc>
<time>2011-05-22T09:27:21.53</time>
<name>6699</name>
<sym>Dot</sym>
</trkpt>
<trkpt lat="39.893978" lon="-8.444440">
<ele>287.5</ele>
<desc>Speed 10.7 km/h Distance 29.96 km</desc>
<time>2011-05-22T09:27:22.53</time>
<name>6700</name>
<sym>Dot</sym>
</trkpt>
<trkpt lat="39.893970" lon="-8.444408">
<ele>288.0</ele>
<desc>Speed 10.5 km/h Distance 29.96 km</desc>
<time>2011-05-22T09:27:23.53</time>
<name>6701</name>
<sym>Dot</sym>
</trkpt>
<trkpt lat="39.893960" lon="-8.444378">
<ele>288.0</ele>
<desc>Speed 10.1 km/h Distance 29.96 km</desc>
<time>2011-05-22T09:27:24.53</time>
<name>6702</name>
<sym>Dot</sym>
</trkpt>
<trkpt lat="39.893950" lon="-8.444350">
<ele>288.5</ele>
<desc>Speed 9.3 km/h Distance 29.97 km</desc>
<time>2011-05-22T09:27:25.53</time>
<name>6703</name>
<sym>Dot</sym>
</trkpt>
<trkpt lat="39.893943" lon="-8.444322">
<ele>289.0</ele>
<desc>Speed 8.9 km/h Distance 29.97 km</desc>
<time>2011-05-22T09:27:26.53</time>
<name>6704</name>
<sym>Dot</sym>
</trkpt>
<trkpt lat="39.893935" lon="-8.444295">
<ele>289.0</ele>
<desc>Speed 9.2 km/h Distance 29.97 km</desc>
<time>2011-05-22T09:27:27.53</time>
<name>6705</name>
<sym>Dot</sym>
</trkpt>
<trkpt lat="39.893927" lon="-8.444270">
<ele>289.5</ele>
<desc>Speed 8.3 km/h Distance 29.97 km</desc>
<time>2011-05-22T09:27:28.53</time>
<name>6706</name>
<sym>Dot</sym>
</trkpt>
<trkpt lat="39.893918" lon="-8.444245">
<ele>290.0</ele>
<desc>Speed 8.6 km/h Distance 29.98 km</desc>
<time>2011-05-22T09:27:29.53</time>
<name>6707</name>
<sym>Dot</sym>
</trkpt>
<trkpt lat="39.893912" lon="-8.444220">
<ele>291.0</ele>
<desc>Speed 8.1 km/h Distance 29.98 km</desc>
<time>2011-05-22T09:27:30.53</time>
<name>6708</name>
<sym>Dot</sym>
</trkpt>
<trkpt lat="39.893908" lon="-8.444195">
<ele>292.0</ele>
<desc>Speed 7.7 km/h Distance 29.98 km</desc>
<time>2011-05-22T09:27:31.53</time>
<name>6709</name>
<sym>Dot</sym>
</trkpt>
<trkpt lat="39.893907" lon="-8.444170">
<ele>293.5</ele>
<desc>Speed 7.8 km/h Distance 29.98 km</desc>
<time>2011-05-22T09:27:32.53</time>
<name>6710</name>
<sym>Dot</sym>
</trkpt>
<trkpt lat="39.893903" lon="-8.444143">
<ele>294.5</ele>
<desc>Speed 8.2 km/h Distance 29.99 km</desc>
<time>2011-05-22T09:27:33.53</time>
<name>6711</name>
<sym>Dot</sym>
</trkpt>
<trkpt lat="39.893895" lon="-8.444117">
<ele>295.0</ele>
<desc>Speed 8.8 km/h Distance 29.99 km</desc>
<time>2011-05-22T09:27:34.53</time>
<name>6712</name>
<sym>Dot</sym>
</trkpt>
<trkpt lat="39.893883" lon="-8.444092">
<ele>296.0</ele>
<desc>Speed 8.6 km/h Distance 29.99 km</desc>
<time>2011-05-22T09:27:35.53</time>
<name>6713</name>
<sym>Dot</sym>
</trkpt>
<trkpt lat="39.893877" lon="-8.444063">
<ele>296.5</ele>
<desc>Speed 9.2 km/h Distance 29.99 km</desc>
<time>2011-05-22T09:27:36.53</time>
<name>6714</name>
<sym>Dot</sym>
</trkpt>
<trkpt lat="39.893867" lon="-8.444035">
<ele>297.0</ele>
<desc>Speed 9.1 km/h Distance 30.00 km</desc>
<time>2011-05-22T09:27:37.53</time>
<name>6715</name>
<sym>Dot</sym>
</trkpt>
<trkpt lat="39.893860" lon="-8.444005">
<ele>298.0</ele>
<desc>Speed 9.6 km/h Distance 30.00 km</desc>
<time>2011-05-22T09:27:38.53</time>
<name>6716</name>
<sym>Dot</sym>
</trkpt>
<trkpt lat="39.893850" lon="-8.443977">
<ele>298.5</ele>
<desc>Speed 9.8 km/h Distance 30.00 km</desc>
<time>2011-05-22T09:27:39.53</time>
<name>6717</name>
<sym>Dot</sym>
</trkpt>
<trkpt lat="39.893842" lon="-8.443945">
<ele>299.0</ele>
<desc>Speed 10.2 km/h Distance 30.00 km</desc>
<time>2011-05-22T09:27:40.53</time>
<name>6718</name>
<sym>Dot</sym>
</trkpt>
<trkpt lat="39.893833" lon="-8.443917">
<ele>298.5</ele>
<desc>Speed 9.1 km/h Distance 30.01 km</desc>
<time>2011-05-22T09:27:41.53</time>
<name>6719</name>
<sym>Dot</sym>
</trkpt>
<trkpt lat="39.893822" lon="-8.443888">
<ele>298.5</ele>
<desc>Speed 9.8 km/h Distance 30.01 km</desc>
<time>2011-05-22T09:27:42.53</time>
<name>6720</name>
<sym>Dot</sym>
</trkpt>
<trkpt lat="39.893810" lon="-8.443862">
<ele>298.5</ele>
<desc>Speed 9.4 km/h Distance 30.01 km</desc>
<time>2011-05-22T09:27:43.53</time>
<name>6721</name>
<sym>Dot</sym>
</trkpt>
<trkpt lat="39.893800" lon="-8.443832">
<ele>299.0</ele>
<desc>Speed 9.6 km/h Distance 30.02 km</desc>
<time>2011-05-22T09:27:44.53</time>
<name>6722</name>
<sym>Dot</sym>
</trkpt>
<trkpt lat="39.893785" lon="-8.443807">
<ele>300.0</ele>
<desc>Speed 9.1 km/h Distance 30.02 km</desc>
<time>2011-05-22T09:27:45.53</time>
<name>6723</name>
<sym>Dot</sym>
</trkpt>
<trkpt lat="39.893775" lon="-8.443780">
<ele>301.5</ele>
<desc>Speed 8.7 km/h Distance 30.02 km</desc>
<time>2011-05-22T09:27:46.53</time>
<name>6724</name>
<sym>Dot</sym>
</trkpt>
<trkpt lat="39.893768" lon="-8.443753">
<ele>302.5</ele>
<desc>Speed 8.1 km/h Distance 30.02 km</desc>
<time>2011-05-22T09:27:47.53</time>
<name>6725</name>
<sym>Dot</sym>
</trkpt>
<trkpt lat="39.893760" lon="-8.443728">
<ele>304.0</ele>
<desc>Speed 8.6 km/h Distance 30.03 km</desc>
<time>2011-05-22T09:27:48.53</time>
<name>6726</name>
<sym>Dot</sym>
</trkpt>
<trkpt lat="39.893750" lon="-8.443705">
<ele>306.0</ele>
<desc>Speed 7.8 km/h Distance 30.03 km</desc>
<time>2011-05-22T09:27:49.53</time>
<name>6727</name>
<sym>Dot</sym>
</trkpt>
<trkpt lat="39.893738" lon="-8.443680">
<ele>307.5</ele>
<desc>Speed 8.6 km/h Distance 30.03 km</desc>
<time>2011-05-22T09:27:50.53</time>
<name>6728</name>
<sym>Dot</sym>
</trkpt>
<trkpt lat="39.893725" lon="-8.443657">
<ele>309.0</ele>
<desc>Speed 8.4 km/h Distance 30.03 km</desc>
<time>2011-05-22T09:27:51.53</time>
<name>6729</name>
<sym>Dot</sym>
</trkpt>
<trkpt lat="39.893705" lon="-8.443633">
<ele>310.0</ele>
<desc>Speed 10.4 km/h Distance 30.04 km</desc>
<time>2011-05-22T09:27:52.53</time>
<name>6730</name>
<sym>Dot</sym>
</trkpt>
<trkpt lat="39.893687" lon="-8.443607">
<ele>310.5</ele>
<desc>Speed 11.2 km/h Distance 30.04 km</desc>
<time>2011-05-22T09:27:53.53</time>
<name>6731</name>
<sym>Dot</sym>
</trkpt>
<trkpt lat="39.893668" lon="-8.443578">
<ele>310.5</ele>
<desc>Speed 11.1 km/h Distance 30.04 km</desc>
<time>2011-05-22T09:27:54.53</time>
<name>6732</name>
<sym>Dot</sym>
</trkpt>
<trkpt lat="39.893657" lon="-8.443550">
<ele>311.0</ele>
<desc>Speed 9.5 km/h Distance 30.04 km</desc>
<time>2011-05-22T09:27:55.53</time>
<name>6733</name>
<sym>Dot</sym>
</trkpt>
<trkpt lat="39.893637" lon="-8.443532">
<ele>312.5</ele>
<desc>Speed 10.2 km/h Distance 30.05 km</desc>
<time>2011-05-22T09:27:56.53</time>
<name>6734</name>
<sym>Dot</sym>
</trkpt>
<trkpt lat="39.893617" lon="-8.443508">
<ele>313.5</ele>
<desc>Speed 10.6 km/h Distance 30.05 km</desc>
<time>2011-05-22T09:27:57.53</time>
<name>6735</name>
<sym>Dot</sym>
</trkpt>
<trkpt lat="39.893597" lon="-8.443485">
<ele>314.5</ele>
<desc>Speed 10.8 km/h Distance 30.05 km</desc>
<time>2011-05-22T09:27:58.53</time>
<name>6736</name>
<sym>Dot</sym>
</trkpt>
<trkpt lat="39.893575" lon="-8.443458">
<ele>315.0</ele>
<desc>Speed 11.4 km/h Distance 30.06 km</desc>
<time>2011-05-22T09:27:59.53</time>
<name>6737</name>
<sym>Dot</sym>
</trkpt>
<trkpt lat="39.893552" lon="-8.443435">
<ele>315.5</ele>
<desc>Speed 11.4 km/h Distance 30.06 km</desc>
<time>2011-05-22T09:28:00.52</time>
<name>6738</name>
<sym>Dot</sym>
</trkpt>
<trkpt lat="39.893532" lon="-8.443408">
<ele>315.5</ele>
<desc>Speed 9.8 km/h Distance 30.06 km</desc>
<time>2011-05-22T09:28:01.52</time>
<name>6739</name>
<sym>Dot</sym>
</trkpt>
<trkpt lat="39.893510" lon="-8.443385">
<ele>315.0</ele>
<desc>Speed 11.0 km/h Distance 30.07 km</desc>
<time>2011-05-22T09:28:02.52</time>
<name>6740</name>
<sym>Dot</sym>
</trkpt>
<trkpt lat="39.893485" lon="-8.443367">
<ele>315.0</ele>
<desc>Speed 10.2 km/h Distance 30.07 km</desc>
<time>2011-05-22T09:28:03.52</time>
<name>6741</name>
<sym>Dot</sym>
</trkpt>
<trkpt lat="39.893460" lon="-8.443352">
<ele>315.0</ele>
<desc>Speed 9.7 km/h Distance 30.07 km</desc>
<time>2011-05-22T09:28:04.52</time>
<name>6742</name>
<sym>Dot</sym>
</trkpt>
<trkpt lat="39.893437" lon="-8.443338">
<ele>315.0</ele>
<desc>Speed 9.7 km/h Distance 30.08 km</desc>
<time>2011-05-22T09:28:05.52</time>
<name>6743</name>
<sym>Dot</sym>
</trkpt>
<trkpt lat="39.893412" lon="-8.443323">
<ele>315.0</ele>
<desc>Speed 10.0 km/h Distance 30.08 km</desc>
<time>2011-05-22T09:28:06.52</time>
<name>6744</name>
<sym>Dot</sym>
</trkpt>
<trkpt lat="39.893388" lon="-8.443302">
<ele>315.0</ele>
<desc>Speed 10.5 km/h Distance 30.08 km</desc>
<time>2011-05-22T09:28:07.52</time>
<name>6745</name>
<sym>Dot</sym>
</trkpt>
<trkpt lat="39.893365" lon="-8.443280">
<ele>316.5</ele>
<desc>Speed 11.0 km/h Distance 30.08 km</desc>
<time>2011-05-22T09:28:08.52</time>
<name>6746</name>
<sym>Dot</sym>
</trkpt>
<trkpt lat="39.893343" lon="-8.443260">
<ele>317.5</ele>
<desc>Speed 11.4 km/h Distance 30.09 km</desc>
<time>2011-05-22T09:28:09.52</time>
<name>6747</name>
<sym>Dot</sym>
</trkpt>
<trkpt lat="39.893317" lon="-8.443242">
<ele>317.5</ele>
<desc>Speed 11.6 km/h Distance 30.09 km</desc>
<time>2011-05-22T09:28:10.52</time>
<name>6748</name>
<sym>Dot</sym>
</trkpt>
<trkpt lat="39.893287" lon="-8.443223">
<ele>318.0</ele>
<desc>Speed 12.0 km/h Distance 30.09 km</desc>
<time>2011-05-22T09:28:11.52</time>
<name>6749</name>
<sym>Dot</sym>
</trkpt>
<trkpt lat="39.893262" lon="-8.443200">
<ele>318.0</ele>
<desc>Speed 11.6 km/h Distance 30.10 km</desc>
<time>2011-05-22T09:28:12.52</time>
<name>6750</name>
<sym>Dot</sym>
</trkpt>
<trkpt lat="39.893233" lon="-8.443178">
<ele>318.0</ele>
<desc>Speed 11.6 km/h Distance 30.10 km</desc>
<time>2011-05-22T09:28:13.52</time>
<name>6751</name>
<sym>Dot</sym>
</trkpt>
<trkpt lat="39.893203" lon="-8.443158">
<ele>318.0</ele>
<desc>Speed 11.8 km/h Distance 30.11 km</desc>
<time>2011-05-22T09:28:14.52</time>
<name>6752</name>
<sym>Dot</sym>
</trkpt>
<trkpt lat="39.893177" lon="-8.443135">
<ele>318.5</ele>
<desc>Speed 12.6 km/h Distance 30.11 km</desc>
<time>2011-05-22T09:28:15.52</time>
<name>6753</name>
<sym>Dot</sym>
</trkpt>
<trkpt lat="39.893147" lon="-8.443113">
<ele>318.5</ele>
<desc>Speed 12.4 km/h Distance 30.11 km</desc>
<time>2011-05-22T09:28:16.52</time>
<name>6754</name>
<sym>Dot</sym>
</trkpt>
<trkpt lat="39.893120" lon="-8.443090">
<ele>319.5</ele>
<desc>Speed 11.9 km/h Distance 30.12 km</desc>
<time>2011-05-22T09:28:17.52</time>
<name>6755</name>
<sym>Dot</sym>
</trkpt>
<trkpt lat="39.893095" lon="-8.443063">
<ele>320.5</ele>
<desc>Speed 12.0 km/h Distance 30.12 km</desc>
<time>2011-05-22T09:28:18.52</time>
<name>6756</name>
<sym>Dot</sym>
</trkpt>
<trkpt lat="39.893070" lon="-8.443040">
<ele>320.5</ele>
<desc>Speed 11.5 km/h Distance 30.12 km</desc>
<time>2011-05-22T09:28:19.52</time>
<name>6757</name>
<sym>Dot</sym>
</trkpt>
<trkpt lat="39.893047" lon="-8.443022">
<ele>321.5</ele>
<desc>Speed 10.2 km/h Distance 30.13 km</desc>
<time>2011-05-22T09:28:20.52</time>
<name>6758</name>
<sym>Dot</sym>
</trkpt>
<trkpt lat="39.893027" lon="-8.443007">
<ele>321.5</ele>
<desc>Speed 9.0 km/h Distance 30.13 km</desc>
<time>2011-05-22T09:28:21.52</time>
<name>6759</name>
<sym>Dot</sym>
</trkpt>
<trkpt lat="39.893012" lon="-8.442997">
<ele>321.0</ele>
<desc>Speed 6.4 km/h Distance 30.13 km</desc>
<time>2011-05-22T09:28:22.52</time>
<name>6760</name>
<sym>Dot</sym>
</trkpt>
<trkpt lat="39.892983" lon="-8.442987">
<ele>320.0</ele>
<desc>Speed 11.7 km/h Distance 30.13 km</desc>
<time>2011-05-22T09:28:23.52</time>
<name>6761</name>
<sym>Dot</sym>
</trkpt>
<trkpt lat="39.892952" lon="-8.442978">
<ele>319.0</ele>
<desc>Speed 11.7 km/h Distance 30.14 km</desc>
<time>2011-05-22T09:28:24.52</time>
<name>6762</name>
<sym>Dot</sym>
</trkpt>
<trkpt lat="39.892920" lon="-8.442968">
<ele>318.0</ele>
<desc>Speed 13.2 km/h Distance 30.14 km</desc>
<time>2011-05-22T09:28:25.52</time>
<name>6763</name>
<sym>Dot</sym>
</trkpt>
<trkpt lat="39.892892" lon="-8.442950">
<ele>317.0</ele>
<desc>Speed 12.3 km/h Distance 30.14 km</desc>
<time>2011-05-22T09:28:26.52</time>
<name>6764</name>
<sym>Dot</sym>
</trkpt>
<trkpt lat="39.892863" lon="-8.442940">
<ele>318.5</ele>
<desc>Speed 8.0 km/h Distance 30.15 km</desc>
<time>2011-05-22T09:28:28.52</time>
<name>6765</name>
<sym>Dot</sym>
</trkpt>
<trkpt lat="39.892832" lon="-8.442930">
<ele>319.5</ele>
<desc>Speed 12.5 km/h Distance 30.15 km</desc>
<time>2011-05-22T09:28:29.52</time>
<name>6766</name>
<sym>Dot</sym>
</trkpt>
<trkpt lat="39.892798" lon="-8.442913">
<ele>321.0</ele>
<desc>Speed 13.6 km/h Distance 30.16 km</desc>
<time>2011-05-22T09:28:30.52</time>
<name>6767</name>
<sym>Dot</sym>
</trkpt>
<trkpt lat="39.892767" lon="-8.442900">
<ele>322.5</ele>
<desc>Speed 13.6 km/h Distance 30.16 km</desc>
<time>2011-05-22T09:28:31.52</time>
<name>6768</name>
<sym>Dot</sym>
</trkpt>
<trkpt lat="39.892737" lon="-8.442888">
<ele>324.0</ele>
<desc>Speed 13.3 km/h Distance 30.16 km</desc>
<time>2011-05-22T09:28:32.52</time>
<name>6769</name>
<sym>Dot</sym>
</trkpt>
<trkpt lat="39.892708" lon="-8.442872">
<ele>327.0</ele>
<desc>Speed 13.5 km/h Distance 30.17 km</desc>
<time>2011-05-22T09:28:33.52</time>
<name>6770</name>
<sym>Dot</sym>
</trkpt>
<trkpt lat="39.892675" lon="-8.442860">
<ele>327.5</ele>
<desc>Speed 13.8 km/h Distance 30.17 km</desc>
<time>2011-05-22T09:28:34.52</time>
<name>6771</name>
<sym>Dot</sym>
</trkpt>
<trkpt lat="39.892643" lon="-8.442850">
<ele>328.5</ele>
<desc>Speed 13.8 km/h Distance 30.17 km</desc>
<time>2011-05-22T09:28:35.52</time>
<name>6772</name>
<sym>Dot</sym>
</trkpt>
<trkpt lat="39.892610" lon="-8.442837">
<ele>329.5</ele>
<desc>Speed 14.4 km/h Distance 30.18 km</desc>
<time>2011-05-22T09:28:36.52</time>
<name>6773</name>
<sym>Dot</sym>
</trkpt>
<trkpt lat="39.892577" lon="-8.442827">
<ele>331.0</ele>
<desc>Speed 14.7 km/h Distance 30.18 km</desc>
<time>2011-05-22T09:28:37.52</time>
<name>6774</name>
<sym>Dot</sym>
</trkpt>
<trkpt lat="39.892545" lon="-8.442817">
<ele>331.5</ele>
<desc>Speed 14.4 km/h Distance 30.19 km</desc>
<time>2011-05-22T09:28:38.52</time>
<name>6775</name>
<sym>Dot</sym>
</trkpt>
<trkpt lat="39.892513" lon="-8.442807">
<ele>333.0</ele>
<desc>Speed 14.6 km/h Distance 30.19 km</desc>
<time>2011-05-22T09:28:39.52</time>
<name>6776</name>
<sym>Dot</sym>
</trkpt>
<trkpt lat="39.892482" lon="-8.442798">
<ele>333.5</ele>
<desc>Speed 14.9 km/h Distance 30.19 km</desc>
<time>2011-05-22T09:28:40.52</time>
<name>6777</name>
<sym>Dot</sym>
</trkpt>
<trkpt lat="39.892450" lon="-8.442788">
<ele>333.5</ele>
<desc>Speed 15.3 km/h Distance 30.20 km</desc>
<time>2011-05-22T09:28:41.52</time>
<name>6778</name>
<sym>Dot</sym>
</trkpt>
<trkpt lat="39.892417" lon="-8.442780">
<ele>334.5</ele>
<desc>Speed 14.8 km/h Distance 30.20 km</desc>
<time>2011-05-22T09:28:42.52</time>
<name>6779</name>
<sym>Dot</sym>
</trkpt>
<trkpt lat="39.892385" lon="-8.442770">
<ele>334.5</ele>
<desc>Speed 13.8 km/h Distance 30.20 km</desc>
<time>2011-05-22T09:28:43.52</time>
<name>6780</name>
<sym>Dot</sym>
</trkpt>
<trkpt lat="39.892355" lon="-8.442763">
<ele>335.0</ele>
<desc>Speed 13.0 km/h Distance 30.21 km</desc>
<time>2011-05-22T09:28:44.52</time>
<name>6781</name>
<sym>Dot</sym>
</trkpt>
<trkpt lat="39.892323" lon="-8.442762">
<ele>335.5</ele>
<desc>Speed 12.6 km/h Distance 30.21 km</desc>
<time>2011-05-22T09:28:45.52</time>
<name>6782</name>
<sym>Dot</sym>
</trkpt>
<trkpt lat="39.892290" lon="-8.442757">
<ele>335.5</ele>
<desc>Speed 13.3 km/h Distance 30.21 km</desc>
<time>2011-05-22T09:28:46.52</time>
<name>6783</name>
<sym>Dot</sym>
</trkpt>
<trkpt lat="39.892257" lon="-8.442757">
<ele>335.0</ele>
<desc>Speed 13.4 km/h Distance 30.22 km</desc>
<time>2011-05-22T09:28:47.52</time>
<name>6784</name>
<sym>Dot</sym>
</trkpt>
<trkpt lat="39.892225" lon="-8.442755">
<ele>335.5</ele>
<desc>Speed 11.8 km/h Distance 30.22 km</desc>
<time>2011-05-22T09:28:48.52</time>
<name>6785</name>
<sym>Dot</sym>
</trkpt>
<trkpt lat="39.892198" lon="-8.442753">
<ele>336.0</ele>
<desc>Speed 11.7 km/h Distance 30.22 km</desc>
<time>2011-05-22T09:28:49.52</time>
<name>6786</name>
<sym>Dot</sym>
</trkpt>
<trkpt lat="39.892167" lon="-8.442750">
<ele>336.5</ele>
<desc>Speed 13.0 km/h Distance 30.23 km</desc>
<time>2011-05-22T09:28:50.52</time>
<name>6787</name>
<sym>Dot</sym>
</trkpt>
<trkpt lat="39.892143" lon="-8.442750">
<ele>337.5</ele>
<desc>Speed 9.2 km/h Distance 30.23 km</desc>
<time>2011-05-22T09:28:51.52</time>
<name>6788</name>
<sym>Dot</sym>
</trkpt>
<trkpt lat="39.892107" lon="-8.442738">
<ele>337.5</ele>
<desc>Speed 10.2 km/h Distance 30.23 km</desc>
<time>2011-05-22T09:28:52.52</time>
<name>6789</name>
<sym>Dot</sym>
</trkpt>
<trkpt lat="39.892073" lon="-8.442733">
<ele>338.0</ele>
<desc>Speed 11.2 km/h Distance 30.24 km</desc>
<time>2011-05-22T09:28:53.52</time>
<name>6790</name>
<sym>Dot</sym>
</trkpt>
<trkpt lat="39.892037" lon="-8.442730">
<ele>338.0</ele>
<desc>Speed 13.9 km/h Distance 30.24 km</desc>
<time>2011-05-22T09:28:54.52</time>
<name>6791</name>
<sym>Dot</sym>
</trkpt>
<trkpt lat="39.892002" lon="-8.442730">
<ele>338.0</ele>
<desc>Speed 13.5 km/h Distance 30.25 km</desc>
<time>2011-05-22T09:28:55.52</time>
<name>6792</name>
<sym>Dot</sym>
</trkpt>
<trkpt lat="39.891967" lon="-8.442730">
<ele>338.5</ele>
<desc>Speed 13.8 km/h Distance 30.25 km</desc>
<time>2011-05-22T09:28:56.52</time>
<name>6793</name>
<sym>Dot</sym>
</trkpt>
<trkpt lat="39.891935" lon="-8.442725">
<ele>339.0</ele>
<desc>Speed 14.0 km/h Distance 30.25 km</desc>
<time>2011-05-22T09:28:57.52</time>
<name>6794</name>
<sym>Dot</sym>
</trkpt>
<trkpt lat="39.891903" lon="-8.442720">
<ele>340.0</ele>
<desc>Speed 13.0 km/h Distance 30.26 km</desc>
<time>2011-05-22T09:28:58.52</time>
<name>6795</name>
<sym>Dot</sym>
</trkpt>
<trkpt lat="39.891870" lon="-8.442720">
<ele>340.5</ele>
<desc>Speed 12.9 km/h Distance 30.26 km</desc>
<time>2011-05-22T09:28:59.52</time>
<name>6796</name>
<sym>Dot</sym>
</trkpt>
<trkpt lat="39.891837" lon="-8.442718">
<ele>340.5</ele>
<desc>Speed 14.0 km/h Distance 30.26 km</desc>
<time>2011-05-22T09:29:00.51</time>
<name>6797</name>
<sym>Dot</sym>
</trkpt>
<trkpt lat="39.891805" lon="-8.442712">
<ele>340.0</ele>
<desc>Speed 12.6 km/h Distance 30.27 km</desc>
<time>2011-05-22T09:29:01.51</time>
<name>6798</name>
<sym>Dot</sym>
</trkpt>
<trkpt lat="39.891775" lon="-8.442708">
<ele>340.0</ele>
<desc>Speed 12.0 km/h Distance 30.27 km</desc>
<time>2011-05-22T09:29:02.51</time>
<name>6799</name>
<sym>Dot</sym>
</trkpt>
<trkpt lat="39.891743" lon="-8.442707">
<ele>339.5</ele>
<desc>Speed 12.1 km/h Distance 30.28 km</desc>
<time>2011-05-22T09:29:03.51</time>
<name>6800</name>
<sym>Dot</sym>
</trkpt>
<trkpt lat="39.891712" lon="-8.442703">
<ele>338.5</ele>
<desc>Speed 13.0 km/h Distance 30.28 km</desc>
<time>2011-05-22T09:29:04.51</time>
<name>6801</name>
<sym>Dot</sym>
</trkpt>
<trkpt lat="39.891680" lon="-8.442697">
<ele>337.5</ele>
<desc>Speed 13.0 km/h Distance 30.28 km</desc>
<time>2011-05-22T09:29:05.51</time>
<name>6802</name>
<sym>Dot</sym>
</trkpt>
<trkpt lat="39.891647" lon="-8.442702">
<ele>337.5</ele>
<desc>Speed 12.0 km/h Distance 30.29 km</desc>
<time>2011-05-22T09:29:06.51</time>
<name>6803</name>
<sym>Dot</sym>
</trkpt>
<trkpt lat="39.891615" lon="-8.442708">
<ele>337.0</ele>
<desc>Speed 12.2 km/h Distance 30.29 km</desc>
<time>2011-05-22T09:29:07.51</time>
<name>6804</name>
<sym>Dot</sym>
</trkpt>
<trkpt lat="39.891573" lon="-8.442703">
<ele>335.5</ele>
<desc>Speed 13.4 km/h Distance 30.29 km</desc>
<time>2011-05-22T09:29:08.51</time>
<name>6805</name>
<sym>Dot</sym>
</trkpt>
<trkpt lat="39.891537" lon="-8.442707">
<ele>335.5</ele>
<desc>Speed 13.9 km/h Distance 30.30 km</desc>
<time>2011-05-22T09:29:09.51</time>
<name>6806</name>
<sym>Dot</sym>
</trkpt>
<trkpt lat="39.891498" lon="-8.442708">
<ele>335.5</ele>
<desc>Speed 14.3 km/h Distance 30.30 km</desc>
<time>2011-05-22T09:29:10.51</time>
<name>6807</name>
<sym>Dot</sym>
</trkpt>
<trkpt lat="39.891457" lon="-8.442712">
<ele>335.5</ele>
<desc>Speed 15.3 km/h Distance 30.31 km</desc>
<time>2011-05-22T09:29:11.51</time>
<name>6808</name>
<sym>Dot</sym>
</trkpt>
<trkpt lat="39.891417" lon="-8.442713">
<ele>335.5</ele>
<desc>Speed 15.1 km/h Distance 30.31 km</desc>
<time>2011-05-22T09:29:12.51</time>
<name>6809</name>
<sym>Dot</sym>
</trkpt>
<trkpt lat="39.891372" lon="-8.442708">
<ele>335.0</ele>
<desc>Speed 14.8 km/h Distance 30.32 km</desc>
<time>2011-05-22T09:29:13.51</time>
<name>6810</name>
<sym>Dot</sym>
</trkpt>
<trkpt lat="39.891325" lon="-8.442703">
<ele>334.5</ele>
<desc>Speed 15.2 km/h Distance 30.32 km</desc>
<time>2011-05-22T09:29:14.51</time>
<name>6811</name>
<sym>Dot</sym>
</trkpt>
<trkpt lat="39.891280" lon="-8.442698">
<ele>333.0</ele>
<desc>Speed 14.7 km/h Distance 30.33 km</desc>
<time>2011-05-22T09:29:15.51</time>
<name>6812</name>
<sym>Dot</sym>
</trkpt>
<trkpt lat="39.891237" lon="-8.442695">
<ele>331.5</ele>
<desc>Speed 14.6 km/h Distance 30.33 km</desc>
<time>2011-05-22T09:29:16.51</time>
<name>6813</name>
<sym>Dot</sym>
</trkpt>
<trkpt lat="39.891195" lon="-8.442695">
<ele>330.5</ele>
<desc>Speed 14.5 km/h Distance 30.34 km</desc>
<time>2011-05-22T09:29:17.51</time>
<name>6814</name>
<sym>Dot</sym>
</trkpt>
<trkpt lat="39.891158" lon="-8.442697">
<ele>330.0</ele>
<desc>Speed 14.4 km/h Distance 30.34 km</desc>
<time>2011-05-22T09:29:18.51</time>
<name>6815</name>
<sym>Dot</sym>
</trkpt>
<trkpt lat="39.891127" lon="-8.442693">
<ele>330.0</ele>
<desc>Speed 11.7 km/h Distance 30.34 km</desc>
<time>2011-05-22T09:29:19.51</time>
<name>6816</name>
<sym>Dot</sym>
</trkpt>
<trkpt lat="39.891085" lon="-8.442688">
<ele>330.0</ele>
<desc>Speed 14.4 km/h Distance 30.35 km</desc>
<time>2011-05-22T09:29:20.51</time>
<name>6817</name>
<sym>Dot</sym>
</trkpt>
<trkpt lat="39.891043" lon="-8.442685">
<ele>329.5</ele>
<desc>Speed 14.8 km/h Distance 30.35 km</desc>
<time>2011-05-22T09:29:21.51</time>
<name>6818</name>
<sym>Dot</sym>
</trkpt>
<trkpt lat="39.891007" lon="-8.442685">
<ele>329.0</ele>
<desc>Speed 13.1 km/h Distance 30.36 km</desc>
<time>2011-05-22T09:29:22.51</time>
<name>6819</name>
<sym>Dot</sym>
</trkpt>
<trkpt lat="39.890967" lon="-8.442688">
<ele>328.0</ele>
<desc>Speed 14.9 km/h Distance 30.36 km</desc>
<time>2011-05-22T09:29:23.51</time>
<name>6820</name>
<sym>Dot</sym>
</trkpt>
<trkpt lat="39.890928" lon="-8.442685">
<ele>325.5</ele>
<desc>Speed 15.6 km/h Distance 30.37 km</desc>
<time>2011-05-22T09:29:24.51</time>
<name>6821</name>
<sym>Dot</sym>
</trkpt>
<trkpt lat="39.890887" lon="-8.442692">
<ele>324.5</ele>
<desc>Speed 16.1 km/h Distance 30.37 km</desc>
<time>2011-05-22T09:29:25.51</time>
<name>6822</name>
<sym>Dot</sym>
</trkpt>
<trkpt lat="39.890847" lon="-8.442698">
<ele>323.0</ele>
<desc>Speed 16.6 km/h Distance 30.38 km</desc>
<time>2011-05-22T09:29:26.51</time>
<name>6823</name>
<sym>Dot</sym>
</trkpt>
<trkpt lat="39.890803" lon="-8.442702">
<ele>321.5</ele>
<desc>Speed 16.6 km/h Distance 30.38 km</desc>
<time>2011-05-22T09:29:27.51</time>
<name>6824</name>
<sym>Dot</sym>
</trkpt>
<trkpt lat="39.890760" lon="-8.442712">
<ele>320.5</ele>
<desc>Speed 16.7 km/h Distance 30.39 km</desc>
<time>2011-05-22T09:29:28.51</time>
<name>6825</name>
<sym>Dot</sym>
</trkpt>
<trkpt lat="39.890717" lon="-8.442723">
<ele>320.0</ele>
<desc>Speed 16.7 km/h Distance 30.39 km</desc>
<time>2011-05-22T09:29:29.51</time>
<name>6826</name>
<sym>Dot</sym>
</trkpt>
<trkpt lat="39.890675" lon="-8.442733">
<ele>320.0</ele>
<desc>Speed 16.6 km/h Distance 30.39 km</desc>
<time>2011-05-22T09:29:30.51</time>
<name>6827</name>
<sym>Dot</sym>
</trkpt>
<trkpt lat="39.890633" lon="-8.442732">
<ele>317.5</ele>
<desc>Speed 16.7 km/h Distance 30.40 km</desc>
<time>2011-05-22T09:29:31.51</time>
<name>6828</name>
<sym>Dot</sym>
</trkpt>
<trkpt lat="39.890590" lon="-8.442740">
<ele>317.0</ele>
<desc>Speed 16.7 km/h Distance 30.40 km</desc>
<time>2011-05-22T09:29:32.51</time>
<name>6829</name>
<sym>Dot</sym>
</trkpt>
<trkpt lat="39.890547" lon="-8.442743">
<ele>316.5</ele>
<desc>Speed 16.7 km/h Distance 30.41 km</desc>
<time>2011-05-22T09:29:33.51</time>
<name>6830</name>
<sym>Dot</sym>
</trkpt>
<trkpt lat="39.890502" lon="-8.442747">
<ele>316.5</ele>
<desc>Speed 17.0 km/h Distance 30.41 km</desc>
<time>2011-05-22T09:29:34.51</time>
<name>6831</name>
<sym>Dot</sym>
</trkpt>
<trkpt lat="39.890458" lon="-8.442755">
<ele>316.0</ele>
<desc>Speed 16.6 km/h Distance 30.42 km</desc>
<time>2011-05-22T09:29:35.51</time>
<name>6832</name>
<sym>Dot</sym>
</trkpt>
<trkpt lat="39.890417" lon="-8.442762">
<ele>315.5</ele>
<desc>Speed 16.3 km/h Distance 30.42 km</desc>
<time>2011-05-22T09:29:36.51</time>
<name>6833</name>
<sym>Dot</sym>
</trkpt>
<trkpt lat="39.890372" lon="-8.442767">
<ele>314.5</ele>
<desc>Speed 17.0 km/h Distance 30.43 km</desc>
<time>2011-05-22T09:29:37.51</time>
<name>6834</name>
<sym>Dot</sym>
</trkpt>
<trkpt lat="39.890333" lon="-8.442772">
<ele>314.0</ele>
<desc>Speed 15.7 km/h Distance 30.43 km</desc>
<time>2011-05-22T09:29:38.51</time>
<name>6835</name>
<sym>Dot</sym>
</trkpt>
<trkpt lat="39.890287" lon="-8.442778">
<ele>314.0</ele>
<desc>Speed 17.7 km/h Distance 30.44 km</desc>
<time>2011-05-22T09:29:39.51</time>
<name>6836</name>
<sym>Dot</sym>
</trkpt>
<trkpt lat="39.890240" lon="-8.442785">
<ele>313.5</ele>
<desc>Speed 18.3 km/h Distance 30.44 km</desc>
<time>2011-05-22T09:29:40.51</time>
<name>6837</name>
<sym>Dot</sym>
</trkpt>
<trkpt lat="39.890192" lon="-8.442788">
<ele>313.5</ele>
<desc>Speed 18.7 km/h Distance 30.45 km</desc>
<time>2011-05-22T09:29:41.51</time>
<name>6838</name>
<sym>Dot</sym>
</trkpt>
<trkpt lat="39.890145" lon="-8.442792">
<ele>314.0</ele>
<desc>Speed 18.1 km/h Distance 30.45 km</desc>
<time>2011-05-22T09:29:42.51</time>
<name>6839</name>
<sym>Dot</sym>
</trkpt>
<trkpt lat="39.890090" lon="-8.442795">
<ele>313.0</ele>
<desc>Speed 21.1 km/h Distance 30.46 km</desc>
<time>2011-05-22T09:29:43.51</time>
<name>6840</name>
<sym>Dot</sym>
</trkpt>
<trkpt lat="39.890033" lon="-8.442793">
<ele>312.0</ele>
<desc>Speed 22.3 km/h Distance 30.47 km</desc>
<time>2011-05-22T09:29:44.51</time>
<name>6841</name>
<sym>Dot</sym>
</trkpt>
<trkpt lat="39.889978" lon="-8.442792">
<ele>311.5</ele>
<desc>Speed 21.0 km/h Distance 30.47 km</desc>
<time>2011-05-22T09:29:45.51</time>
<name>6842</name>
<sym>Dot</sym>
</trkpt>
<trkpt lat="39.889922" lon="-8.442790">
<ele>310.5</ele>
<desc>Speed 22.8 km/h Distance 30.48 km</desc>
<time>2011-05-22T09:29:46.51</time>
<name>6843</name>
<sym>Dot</sym>
</trkpt>
<trkpt lat="39.889865" lon="-8.442783">
<ele>310.0</ele>
<desc>Speed 22.4 km/h Distance 30.49 km</desc>
<time>2011-05-22T09:29:47.51</time>
<name>6844</name>
<sym>Dot</sym>
</trkpt>
<trkpt lat="39.889805" lon="-8.442772">
<ele>309.0</ele>
<desc>Speed 24.4 km/h Distance 30.49 km</desc>
<time>2011-05-22T09:29:48.51</time>
<name>6845</name>
<sym>Dot</sym>
</trkpt>
<trkpt lat="39.889743" lon="-8.442757">
<ele>307.5</ele>
<desc>Speed 25.1 km/h Distance 30.50 km</desc>
<time>2011-05-22T09:29:49.51</time>
<name>6846</name>
<sym>Dot</sym>
</trkpt>
<trkpt lat="39.889682" lon="-8.442742">
<ele>306.5</ele>
<desc>Speed 25.8 km/h Distance 30.51 km</desc>
<time>2011-05-22T09:29:50.51</time>
<name>6847</name>
<sym>Dot</sym>
</trkpt>
<trkpt lat="39.889617" lon="-8.442730">
<ele>305.5</ele>
<desc>Speed 26.4 km/h Distance 30.51 km</desc>
<time>2011-05-22T09:29:51.51</time>
<name>6848</name>
<sym>Dot</sym>
</trkpt>
<trkpt lat="39.889550" lon="-8.442715">
<ele>304.5</ele>
<desc>Speed 27.1 km/h Distance 30.52 km</desc>
<time>2011-05-22T09:29:52.51</time>
<name>6849</name>
<sym>Dot</sym>
</trkpt>
<trkpt lat="39.889478" lon="-8.442697">
<ele>303.5</ele>
<desc>Speed 28.9 km/h Distance 30.53 km</desc>
<time>2011-05-22T09:29:53.51</time>
<name>6850</name>
<sym>Dot</sym>
</trkpt>
<trkpt lat="39.889405" lon="-8.442677">
<ele>302.5</ele>
<desc>Speed 29.9 km/h Distance 30.54 km</desc>
<time>2011-05-22T09:29:54.51</time>
<name>6851</name>
<sym>Dot</sym>
</trkpt>
<trkpt lat="39.889328" lon="-8.442660">
<ele>301.0</ele>
<desc>Speed 31.1 km/h Distance 30.55 km</desc>
<time>2011-05-22T09:29:55.51</time>
<name>6852</name>
<sym>Dot</sym>
</trkpt>
<trkpt lat="39.889248" lon="-8.442640">
<ele>299.5</ele>
<desc>Speed 32.3 km/h Distance 30.55 km</desc>
<time>2011-05-22T09:29:56.51</time>
<name>6853</name>
<sym>Dot</sym>
</trkpt>
<trkpt lat="39.889167" lon="-8.442618">
<ele>298.5</ele>
<desc>Speed 33.4 km/h Distance 30.56 km</desc>
<time>2011-05-22T09:29:57.51</time>
<name>6854</name>
<sym>Dot</sym>
</trkpt>
<trkpt lat="39.889083" lon="-8.442598">
<ele>297.5</ele>
<desc>Speed 33.9 km/h Distance 30.57 km</desc>
<time>2011-05-22T09:29:58.51</time>
<name>6855</name>
<sym>Dot</sym>
</trkpt>
<trkpt lat="39.888998" lon="-8.442580">
<ele>296.5</ele>
<desc>Speed 34.3 km/h Distance 30.58 km</desc>
<time>2011-05-22T09:29:59.51</time>
<name>6856</name>
<sym>Dot</sym>
</trkpt>
<trkpt lat="39.888912" lon="-8.442558">
<ele>295.5</ele>
<desc>Speed 35.2 km/h Distance 30.59 km</desc>
<time>2011-05-22T09:30:00.50</time>
<name>6857</name>
<sym>Dot</sym>
</trkpt>
<trkpt lat="39.888822" lon="-8.442538">
<ele>294.5</ele>
<desc>Speed 35.9 km/h Distance 30.60 km</desc>
<time>2011-05-22T09:30:01.50</time>
<name>6858</name>
<sym>Dot</sym>
</trkpt>
<trkpt lat="39.888732" lon="-8.442520">
<ele>294.0</ele>
<desc>Speed 36.5 km/h Distance 30.61 km</desc>
<time>2011-05-22T09:30:02.50</time>
<name>6859</name>
<sym>Dot</sym>
</trkpt>
<trkpt lat="39.888640" lon="-8.442500">
<ele>293.0</ele>
<desc>Speed 37.1 km/h Distance 30.62 km</desc>
<time>2011-05-22T09:30:03.50</time>
<name>6860</name>
<sym>Dot</sym>
</trkpt>
<trkpt lat="39.888547" lon="-8.442480">
<ele>292.0</ele>
<desc>Speed 37.4 km/h Distance 30.63 km</desc>
<time>2011-05-22T09:30:04.50</time>
<name>6861</name>
<sym>Dot</sym>
</trkpt>
<trkpt lat="39.888452" lon="-8.442460">
<ele>290.5</ele>
<desc>Speed 38.2 km/h Distance 30.64 km</desc>
<time>2011-05-22T09:30:05.50</time>
<name>6862</name>
<sym>Dot</sym>
</trkpt>
<trkpt lat="39.888353" lon="-8.442430">
<ele>289.5</ele>
<desc>Speed 39.6 km/h Distance 30.66 km</desc>
<time>2011-05-22T09:30:06.50</time>
<name>6863</name>
<sym>Dot</sym>
</trkpt>
<trkpt lat="39.888255" lon="-8.442403">
<ele>289.0</ele>
<desc>Speed 40.2 km/h Distance 30.67 km</desc>
<time>2011-05-22T09:30:07.50</time>
<name>6864</name>
<sym>Dot</sym>
</trkpt>
<trkpt lat="39.888153" lon="-8.442383">
<ele>288.0</ele>
<desc>Speed 40.6 km/h Distance 30.68 km</desc>
<time>2011-05-22T09:30:08.50</time>
<name>6865</name>
<sym>Dot</sym>
</trkpt>
<trkpt lat="39.888052" lon="-8.442363">
<ele>287.0</ele>
<desc>Speed 41.0 km/h Distance 30.69 km</desc>
<time>2011-05-22T09:30:09.50</time>
<name>6866</name>
<sym>Dot</sym>
</trkpt>
<trkpt lat="39.887950" lon="-8.442342">
<ele>285.5</ele>
<desc>Speed 41.5 km/h Distance 30.70 km</desc>
<time>2011-05-22T09:30:10.50</time>
<name>6867</name>
<sym>Dot</sym>
</trkpt>
<trkpt lat="39.887847" lon="-8.442317">
<ele>284.5</ele>
<desc>Speed 41.3 km/h Distance 30.71 km</desc>
<time>2011-05-22T09:30:11.50</time>
<name>6868</name>
<sym>Dot</sym>
</trkpt>
<trkpt lat="39.887743" lon="-8.442293">
<ele>283.5</ele>
<desc>Speed 41.8 km/h Distance 30.73 km</desc>
<time>2011-05-22T09:30:12.50</time>
<name>6869</name>
<sym>Dot</sym>
</trkpt>
<trkpt lat="39.887640" lon="-8.442273">
<ele>282.5</ele>
<desc>Speed 41.5 km/h Distance 30.74 km</desc>
<time>2011-05-22T09:30:13.50</time>
<name>6870</name>
<sym>Dot</sym>
</trkpt>
<trkpt lat="39.887535" lon="-8.442255">
<ele>281.0</ele>
<desc>Speed 41.9 km/h Distance 30.75 km</desc>
<time>2011-05-22T09:30:14.50</time>
<name>6871</name>
<sym>Dot</sym>
</trkpt>
<trkpt lat="39.887430" lon="-8.442232">
<ele>280.0</ele>
<desc>Speed 42.4 km/h Distance 30.76 km</desc>
<time>2011-05-22T09:30:15.50</time>
<name>6872</name>
<sym>Dot</sym>
</trkpt>
<trkpt lat="39.887327" lon="-8.442208">
<ele>278.5</ele>
<desc>Speed 42.2 km/h Distance 30.77 km</desc>
<time>2011-05-22T09:30:16.50</time>
<name>6873</name>
<sym>Dot</sym>
</trkpt>
<trkpt lat="39.887222" lon="-8.442187">
<ele>277.5</ele>
<desc>Speed 42.1 km/h Distance 30.78 km</desc>
<time>2011-05-22T09:30:17.50</time>
<name>6874</name>
<sym>Dot</sym>
</trkpt>
<trkpt lat="39.887117" lon="-8.442173">
<ele>277.0</ele>
<desc>Speed 42.4 km/h Distance 30.80 km</desc>
<time>2011-05-22T09:30:18.50</time>
<name>6875</name>
<sym>Dot</sym>
</trkpt>
<trkpt lat="39.887010" lon="-8.442172">
<ele>275.5</ele>
<desc>Speed 42.4 km/h Distance 30.81 km</desc>
<time>2011-05-22T09:30:19.50</time>
<name>6876</name>
<sym>Dot</sym>
</trkpt>
<trkpt lat="39.886903" lon="-8.442178">
<ele>274.5</ele>
<desc>Speed 42.5 km/h Distance 30.82 km</desc>
<time>2011-05-22T09:30:20.50</time>
<name>6877</name>
<sym>Dot</sym>
</trkpt>
<trkpt lat="39.886798" lon="-8.442195">
<ele>274.0</ele>
<desc>Speed 42.4 km/h Distance 30.83 km</desc>
<time>2011-05-22T09:30:21.50</time>
<name>6878</name>
<sym>Dot</sym>
</trkpt>
<trkpt lat="39.886697" lon="-8.442232">
<ele>273.0</ele>
<desc>Speed 42.6 km/h Distance 30.84 km</desc>
<time>2011-05-22T09:30:22.50</time>
<name>6879</name>
<sym>Dot</sym>
</trkpt>
<trkpt lat="39.886598" lon="-8.442287">
<ele>272.0</ele>
<desc>Speed 42.6 km/h Distance 30.85 km</desc>
<time>2011-05-22T09:30:23.50</time>
<name>6880</name>
<sym>Dot</sym>
</trkpt>
<trkpt lat="39.886507" lon="-8.442357">
<ele>271.0</ele>
<desc>Speed 42.7 km/h Distance 30.87 km</desc>
<time>2011-05-22T09:30:24.50</time>
<name>6881</name>
<sym>Dot</sym>
</trkpt>
<trkpt lat="39.886417" lon="-8.442435">
<ele>270.0</ele>
<desc>Speed 43.1 km/h Distance 30.88 km</desc>
<time>2011-05-22T09:30:25.50</time>
<name>6882</name>
<sym>Dot</sym>
</trkpt>
<trkpt lat="39.886330" lon="-8.442517">
<ele>269.0</ele>
<desc>Speed 43.2 km/h Distance 30.89 km</desc>
<time>2011-05-22T09:30:26.50</time>
<name>6883</name>
<sym>Dot</sym>
</trkpt>
<trkpt lat="39.886233" lon="-8.442583">
<ele>268.0</ele>
<desc>Speed 43.2 km/h Distance 30.90 km</desc>
<time>2011-05-22T09:30:27.50</time>
<name>6884</name>
<sym>Dot</sym>
</trkpt>
<trkpt lat="39.886130" lon="-8.442625">
<ele>267.0</ele>
<desc>Speed 43.5 km/h Distance 30.91 km</desc>
<time>2011-05-22T09:30:28.50</time>
<name>6885</name>
<sym>Dot</sym>
</trkpt>
<trkpt lat="39.886022" lon="-8.442648">
<ele>266.0</ele>
<desc>Speed 43.6 km/h Distance 30.93 km</desc>
<time>2011-05-22T09:30:29.50</time>
<name>6886</name>
<sym>Dot</sym>
</trkpt>
<trkpt lat="39.885912" lon="-8.442655">
<ele>265.0</ele>
<desc>Speed 44.3 km/h Distance 30.94 km</desc>
<time>2011-05-22T09:30:30.50</time>
<name>6887</name>
<sym>Dot</sym>
</trkpt>
<trkpt lat="39.885800" lon="-8.442650">
<ele>264.0</ele>
<desc>Speed 44.5 km/h Distance 30.95 km</desc>
<time>2011-05-22T09:30:31.50</time>
<name>6888</name>
<sym>Dot</sym>
</trkpt>
<trkpt lat="39.885687" lon="-8.442648">
<ele>263.0</ele>
<desc>Speed 44.9 km/h Distance 30.96 km</desc>
<time>2011-05-22T09:30:32.50</time>
<name>6889</name>
<sym>Dot</sym>
</trkpt>
<trkpt lat="39.885572" lon="-8.442660">
<ele>262.0</ele>
<desc>Speed 46.1 km/h Distance 30.98 km</desc>
<time>2011-05-22T09:30:33.50</time>
<name>6890</name>
<sym>Dot</sym>
</trkpt>
<trkpt lat="39.885458" lon="-8.442695">
<ele>260.5</ele>
<desc>Speed 46.5 km/h Distance 30.99 km</desc>
<time>2011-05-22T09:30:34.50</time>
<name>6891</name>
<sym>Dot</sym>
</trkpt>
<trkpt lat="39.885347" lon="-8.442742">
<ele>260.5</ele>
<desc>Speed 46.6 km/h Distance 31.00 km</desc>
<time>2011-05-22T09:30:35.50</time>
<name>6892</name>
<sym>Dot</sym>
</trkpt>
<trkpt lat="39.885237" lon="-8.442797">
<ele>259.5</ele>
<desc>Speed 46.9 km/h Distance 31.02 km</desc>
<time>2011-05-22T09:30:36.50</time>
<name>6893</name>
<sym>Dot</sym>
</trkpt>
<trkpt lat="39.885125" lon="-8.442837">
<ele>258.5</ele>
<desc>Speed 46.4 km/h Distance 31.03 km</desc>
<time>2011-05-22T09:30:37.50</time>
<name>6894</name>
<sym>Dot</sym>
</trkpt>
<trkpt lat="39.885015" lon="-8.442837">
<ele>258.5</ele>
<desc>Speed 44.3 km/h Distance 31.04 km</desc>
<time>2011-05-22T09:30:38.50</time>
<name>6895</name>
<sym>Dot</sym>
</trkpt>
<trkpt lat="39.884905" lon="-8.442803">
<ele>258.5</ele>
<desc>Speed 45.5 km/h Distance 31.05 km</desc>
<time>2011-05-22T09:30:39.50</time>
<name>6896</name>
<sym>Dot</sym>
</trkpt>
<trkpt lat="39.884810" lon="-8.442742">
<ele>258.0</ele>
<desc>Speed 42.3 km/h Distance 31.07 km</desc>
<time>2011-05-22T09:30:40.50</time>
<name>6897</name>
<sym>Dot</sym>
</trkpt>
<trkpt lat="39.884722" lon="-8.442670">
<ele>257.5</ele>
<desc>Speed 41.8 km/h Distance 31.08 km</desc>
<time>2011-05-22T09:30:41.50</time>
<name>6898</name>
<sym>Dot</sym>
</trkpt>
<trkpt lat="39.884643" lon="-8.442590">
<ele>257.5</ele>
<desc>Speed 40.1 km/h Distance 31.09 km</desc>
<time>2011-05-22T09:30:42.50</time>
<name>6899</name>
<sym>Dot</sym>
</trkpt>
<trkpt lat="39.884568" lon="-8.442512">
<ele>257.5</ele>
<desc>Speed 38.3 km/h Distance 31.10 km</desc>
<time>2011-05-22T09:30:43.50</time>
<name>6900</name>
<sym>Dot</sym>
</trkpt>
<trkpt lat="39.884497" lon="-8.442442">
<ele>257.5</ele>
<desc>Speed 36.0 km/h Distance 31.11 km</desc>
<time>2011-05-22T09:30:44.50</time>
<name>6901</name>
<sym>Dot</sym>
</trkpt>
<trkpt lat="39.884427" lon="-8.442378">
<ele>257.5</ele>
<desc>Speed 34.2 km/h Distance 31.12 km</desc>
<time>2011-05-22T09:30:45.50</time>
<name>6902</name>
<sym>Dot</sym>
</trkpt>
<trkpt lat="39.884358" lon="-8.442323">
<ele>257.0</ele>
<desc>Speed 32.5 km/h Distance 31.13 km</desc>
<time>2011-05-22T09:30:46.50</time>
<name>6903</name>
<sym>Dot</sym>
</trkpt>
<trkpt lat="39.884290" lon="-8.442283">
<ele>257.5</ele>
<desc>Speed 30.3 km/h Distance 31.14 km</desc>
<time>2011-05-22T09:30:47.50</time>
<name>6904</name>
<sym>Dot</sym>
</trkpt>
<trkpt lat="39.884222" lon="-8.442262">
<ele>257.5</ele>
<desc>Speed 27.8 km/h Distance 31.14 km</desc>
<time>2011-05-22T09:30:48.50</time>
<name>6905</name>
<sym>Dot</sym>
</trkpt>
<trkpt lat="39.884160" lon="-8.442257">
<ele>257.5</ele>
<desc>Speed 25.2 km/h Distance 31.15 km</desc>
<time>2011-05-22T09:30:49.50</time>
<name>6906</name>
<sym>Dot</sym>
</trkpt>
<trkpt lat="39.884102" lon="-8.442265">
<ele>258.0</ele>
<desc>Speed 22.9 km/h Distance 31.16 km</desc>
<time>2011-05-22T09:30:50.50</time>
<name>6907</name>
<sym>Dot</sym>
</trkpt>
<trkpt lat="39.884050" lon="-8.442275">
<ele>258.5</ele>
<desc>Speed 21.0 km/h Distance 31.16 km</desc>
<time>2011-05-22T09:30:51.50</time>
<name>6908</name>
<sym>Dot</sym>
</trkpt>
<trkpt lat="39.884003" lon="-8.442287">
<ele>259.0</ele>
<desc>Speed 18.9 km/h Distance 31.17 km</desc>
<time>2011-05-22T09:30:52.50</time>
<name>6909</name>
<sym>Dot</sym>
</trkpt>
<trkpt lat="39.883962" lon="-8.442302">
<ele>259.0</ele>
<desc>Speed 17.2 km/h Distance 31.17 km</desc>
<time>2011-05-22T09:30:53.50</time>
<name>6910</name>
<sym>Dot</sym>
</trkpt>
<trkpt lat="39.883922" lon="-8.442312">
<ele>259.5</ele>
<desc>Speed 16.3 km/h Distance 31.18 km</desc>
<time>2011-05-22T09:30:54.50</time>
<name>6911</name>
<sym>Dot</sym>
</trkpt>
<trkpt lat="39.883882" lon="-8.442322">
<ele>259.5</ele>
<desc>Speed 15.7 km/h Distance 31.18 km</desc>
<time>2011-05-22T09:30:55.50</time>
<name>6912</name>
<sym>Dot</sym>
</trkpt>
<trkpt lat="39.883845" lon="-8.442330">
<ele>260.0</ele>
<desc>Speed 14.6 km/h Distance 31.19 km</desc>
<time>2011-05-22T09:30:56.50</time>
<name>6913</name>
<sym>Dot</sym>
</trkpt>
<trkpt lat="39.883812" lon="-8.442335">
<ele>260.5</ele>
<desc>Speed 13.8 km/h Distance 31.19 km</desc>
<time>2011-05-22T09:30:57.50</time>
<name>6914</name>
<sym>Dot</sym>
</trkpt>
<trkpt lat="39.883778" lon="-8.442340">
<ele>260.5</ele>
<desc>Speed 13.1 km/h Distance 31.19 km</desc>
<time>2011-05-22T09:30:58.50</time>
<name>6915</name>
<sym>Dot</sym>
</trkpt>
<trkpt lat="39.883748" lon="-8.442343">
<ele>260.5</ele>
<desc>Speed 12.4 km/h Distance 31.20 km</desc>
<time>2011-05-22T09:30:59.50</time>
<name>6916</name>
<sym>Dot</sym>
</trkpt>
<trkpt lat="39.883717" lon="-8.442347">
<ele>261.0</ele>
<desc>Speed 12.5 km/h Distance 31.20 km</desc>
<time>2011-05-22T09:31:00.49</time>
<name>6917</name>
<sym>Dot</sym>
</trkpt>
<trkpt lat="39.883685" lon="-8.442350">
<ele>261.0</ele>
<desc>Speed 12.6 km/h Distance 31.20 km</desc>
<time>2011-05-22T09:31:01.49</time>
<name>6918</name>
<sym>Dot</sym>
</trkpt>
<trkpt lat="39.883653" lon="-8.442348">
<ele>261.0</ele>
<desc>Speed 12.7 km/h Distance 31.21 km</desc>
<time>2011-05-22T09:31:02.49</time>
<name>6919</name>
<sym>Dot</sym>
</trkpt>
<trkpt lat="39.883623" lon="-8.442347">
<ele>261.5</ele>
<desc>Speed 12.4 km/h Distance 31.21 km</desc>
<time>2011-05-22T09:31:03.49</time>
<name>6920</name>
<sym>Dot</sym>
</trkpt>
<trkpt lat="39.883593" lon="-8.442343">
<ele>261.5</ele>
<desc>Speed 12.4 km/h Distance 31.21 km</desc>
<time>2011-05-22T09:31:04.49</time>
<name>6921</name>
<sym>Dot</sym>
</trkpt>
<trkpt lat="39.883563" lon="-8.442340">
<ele>261.5</ele>
<desc>Speed 12.3 km/h Distance 31.22 km</desc>
<time>2011-05-22T09:31:05.49</time>
<name>6922</name>
<sym>Dot</sym>
</trkpt>
<trkpt lat="39.883533" lon="-8.442337">
<ele>261.0</ele>
<desc>Speed 12.3 km/h Distance 31.22 km</desc>
<time>2011-05-22T09:31:06.49</time>
<name>6923</name>
<sym>Dot</sym>
</trkpt>
<trkpt lat="39.883502" lon="-8.442333">
<ele>261.0</ele>
<desc>Speed 12.5 km/h Distance 31.22 km</desc>
<time>2011-05-22T09:31:07.49</time>
<name>6924</name>
<sym>Dot</sym>
</trkpt>
<trkpt lat="39.883472" lon="-8.442328">
<ele>261.5</ele>
<desc>Speed 12.6 km/h Distance 31.23 km</desc>
<time>2011-05-22T09:31:08.49</time>
<name>6925</name>
<sym>Dot</sym>
</trkpt>
<trkpt lat="39.883440" lon="-8.442320">
<ele>261.5</ele>
<desc>Speed 12.9 km/h Distance 31.23 km</desc>
<time>2011-05-22T09:31:09.49</time>
<name>6926</name>
<sym>Dot</sym>
</trkpt>
<trkpt lat="39.883410" lon="-8.442313">
<ele>261.5</ele>
<desc>Speed 12.3 km/h Distance 31.24 km</desc>
<time>2011-05-22T09:31:10.49</time>
<name>6927</name>
<sym>Dot</sym>
</trkpt>
<trkpt lat="39.883380" lon="-8.442308">
<ele>261.5</ele>
<desc>Speed 11.8 km/h Distance 31.24 km</desc>
<time>2011-05-22T09:31:11.49</time>
<name>6928</name>
<sym>Dot</sym>
</trkpt>
<trkpt lat="39.883353" lon="-8.442303">
<ele>261.5</ele>
<desc>Speed 10.9 km/h Distance 31.24 km</desc>
<time>2011-05-22T09:31:12.49</time>
<name>6929</name>
<sym>Dot</sym>
</trkpt>
<trkpt lat="39.883328" lon="-8.442298">
<ele>261.5</ele>
<desc>Speed 10.6 km/h Distance 31.24 km</desc>
<time>2011-05-22T09:31:13.49</time>
<name>6930</name>
<sym>Dot</sym>
</trkpt>
<trkpt lat="39.883300" lon="-8.442293">
<ele>262.0</ele>
<desc>Speed 11.5 km/h Distance 31.25 km</desc>
<time>2011-05-22T09:31:14.49</time>
<name>6931</name>
<sym>Dot</sym>
</trkpt>
<trkpt lat="39.883272" lon="-8.442287">
<ele>262.0</ele>
<desc>Speed 11.6 km/h Distance 31.25 km</desc>
<time>2011-05-22T09:31:15.49</time>
<name>6932</name>
<sym>Dot</sym>
</trkpt>
<trkpt lat="39.883245" lon="-8.442278">
<ele>262.5</ele>
<desc>Speed 10.9 km/h Distance 31.25 km</desc>
<time>2011-05-22T09:31:16.49</time>
<name>6933</name>
<sym>Dot</sym>
</trkpt>
<trkpt lat="39.883220" lon="-8.442275">
<ele>262.5</ele>
<desc>Speed 10.4 km/h Distance 31.26 km</desc>
<time>2011-05-22T09:31:17.49</time>
<name>6934</name>
<sym>Dot</sym>
</trkpt>
<trkpt lat="39.883195" lon="-8.442268">
<ele>263.0</ele>
<desc>Speed 10.2 km/h Distance 31.26 km</desc>
<time>2011-05-22T09:31:18.49</time>
<name>6935</name>
<sym>Dot</sym>
</trkpt>
<trkpt lat="39.883168" lon="-8.442260">
<ele>262.5</ele>
<desc>Speed 11.1 km/h Distance 31.26 km</desc>
<time>2011-05-22T09:31:19.49</time>
<name>6936</name>
<sym>Dot</sym>
</trkpt>
<trkpt lat="39.883152" lon="-8.442253">
<ele>263.5</ele>
<desc>Speed 7.3 km/h Distance 31.26 km</desc>
<time>2011-05-22T09:31:20.49</time>
<name>6937</name>
<sym>Dot</sym>
</trkpt>
<trkpt lat="39.883130" lon="-8.442242">
<ele>263.0</ele>
<desc>Speed 9.2 km/h Distance 31.27 km</desc>
<time>2011-05-22T09:31:21.49</time>
<name>6938</name>
<sym>Dot</sym>
</trkpt>
<trkpt lat="39.883110" lon="-8.442227">
<ele>262.0</ele>
<desc>Speed 9.4 km/h Distance 31.27 km</desc>
<time>2011-05-22T09:31:22.49</time>
<name>6939</name>
<sym>Dot</sym>
</trkpt>
<trkpt lat="39.883090" lon="-8.442222">
<ele>261.0</ele>
<desc>Speed 8.2 km/h Distance 31.27 km</desc>
<time>2011-05-22T09:31:23.49</time>
<name>6940</name>
<sym>Dot</sym>
</trkpt>
<trkpt lat="39.883072" lon="-8.442217">
<ele>261.0</ele>
<desc>Speed 7.9 km/h Distance 31.27 km</desc>
<time>2011-05-22T09:31:24.49</time>
<name>6941</name>
<sym>Dot</sym>
</trkpt>
<trkpt lat="39.883050" lon="-8.442212">
<ele>261.5</ele>
<desc>Speed 8.8 km/h Distance 31.28 km</desc>
<time>2011-05-22T09:31:25.49</time>
<name>6942</name>
<sym>Dot</sym>
</trkpt>
<trkpt lat="39.883032" lon="-8.442205">
<ele>262.5</ele>
<desc>Speed 7.5 km/h Distance 31.28 km</desc>
<time>2011-05-22T09:31:26.49</time>
<name>6943</name>
<sym>Dot</sym>
</trkpt>
<trkpt lat="39.883017" lon="-8.442202">
<ele>263.0</ele>
<desc>Speed 6.0 km/h Distance 31.28 km</desc>
<time>2011-05-22T09:31:27.49</time>
<name>6944</name>
<sym>Dot</sym>
</trkpt>
<trkpt lat="39.883003" lon="-8.442200">
<ele>264.5</ele>
<desc>Speed 5.2 km/h Distance 31.28 km</desc>
<time>2011-05-22T09:31:28.49</time>
<name>6945</name>
<sym>Dot</sym>
</trkpt>
<trkpt lat="39.882985" lon="-8.442197">
<ele>265.0</ele>
<desc>Speed 6.7 km/h Distance 31.28 km</desc>
<time>2011-05-22T09:31:29.49</time>
<name>6946</name>
<sym>Dot</sym>
</trkpt>
<trkpt lat="39.882965" lon="-8.442190">
<ele>265.5</ele>
<desc>Speed 8.1 km/h Distance 31.29 km</desc>
<time>2011-05-22T09:31:30.49</time>
<name>6947</name>
<sym>Dot</sym>
</trkpt>
<trkpt lat="39.882945" lon="-8.442187">
<ele>265.5</ele>
<desc>Speed 7.9 km/h Distance 31.29 km</desc>
<time>2011-05-22T09:31:31.49</time>
<name>6948</name>
<sym>Dot</sym>
</trkpt>
<trkpt lat="39.882925" lon="-8.442180">
<ele>265.5</ele>
<desc>Speed 8.4 km/h Distance 31.29 km</desc>
<time>2011-05-22T09:31:32.49</time>
<name>6949</name>
<sym>Dot</sym>
</trkpt>
<trkpt lat="39.882905" lon="-8.442168">
<ele>265.5</ele>
<desc>Speed 8.5 km/h Distance 31.29 km</desc>
<time>2011-05-22T09:31:33.49</time>
<name>6950</name>
<sym>Dot</sym>
</trkpt>
<trkpt lat="39.882885" lon="-8.442158">
<ele>266.0</ele>
<desc>Speed 8.5 km/h Distance 31.30 km</desc>
<time>2011-05-22T09:31:34.49</time>
<name>6951</name>
<sym>Dot</sym>
</trkpt>
<trkpt lat="39.882863" lon="-8.442148">
<ele>266.5</ele>
<desc>Speed 8.9 km/h Distance 31.30 km</desc>
<time>2011-05-22T09:31:35.49</time>
<name>6952</name>
<sym>Dot</sym>
</trkpt>
<trkpt lat="39.882840" lon="-8.442138">
<ele>266.0</ele>
<desc>Speed 9.7 km/h Distance 31.30 km</desc>
<time>2011-05-22T09:31:36.49</time>
<name>6953</name>
<sym>Dot</sym>
</trkpt>
<trkpt lat="39.882817" lon="-8.442127">
<ele>266.0</ele>
<desc>Speed 9.8 km/h Distance 31.30 km</desc>
<time>2011-05-22T09:31:37.49</time>
<name>6954</name>
<sym>Dot</sym>
</trkpt>
<trkpt lat="39.882795" lon="-8.442115">
<ele>266.5</ele>
<desc>Speed 9.7 km/h Distance 31.31 km</desc>
<time>2011-05-22T09:31:38.49</time>
<name>6955</name>
<sym>Dot</sym>
</trkpt>
<trkpt lat="39.882772" lon="-8.442102">
<ele>266.5</ele>
<desc>Speed 9.7 km/h Distance 31.31 km</desc>
<time>2011-05-22T09:31:39.49</time>
<name>6956</name>
<sym>Dot</sym>
</trkpt>
<trkpt lat="39.882750" lon="-8.442087">
<ele>266.5</ele>
<desc>Speed 10.2 km/h Distance 31.31 km</desc>
<time>2011-05-22T09:31:40.49</time>
<name>6957</name>
<sym>Dot</sym>
</trkpt>
<trkpt lat="39.882728" lon="-8.442072">
<ele>266.5</ele>
<desc>Speed 9.6 km/h Distance 31.31 km</desc>
<time>2011-05-22T09:31:41.49</time>
<name>6958</name>
<sym>Dot</sym>
</trkpt>
<trkpt lat="39.882708" lon="-8.442053">
<ele>266.5</ele>
<desc>Speed 9.5 km/h Distance 31.32 km</desc>
<time>2011-05-22T09:31:42.49</time>
<name>6959</name>
<sym>Dot</sym>
</trkpt>
<trkpt lat="39.882692" lon="-8.442033">
<ele>267.0</ele>
<desc>Speed 9.0 km/h Distance 31.32 km</desc>
<time>2011-05-22T09:31:43.49</time>
<name>6960</name>
<sym>Dot</sym>
</trkpt>
<trkpt lat="39.882673" lon="-8.442020">
<ele>267.5</ele>
<desc>Speed 8.2 km/h Distance 31.32 km</desc>
<time>2011-05-22T09:31:44.49</time>
<name>6961</name>
<sym>Dot</sym>
</trkpt>
<trkpt lat="39.882655" lon="-8.442007">
<ele>267.5</ele>
<desc>Speed 8.6 km/h Distance 31.32 km</desc>
<time>2011-05-22T09:31:45.49</time>
<name>6962</name>
<sym>Dot</sym>
</trkpt>
<trkpt lat="39.882637" lon="-8.441993">
<ele>267.5</ele>
<desc>Speed 8.5 km/h Distance 31.33 km</desc>
<time>2011-05-22T09:31:46.49</time>
<name>6963</name>
<sym>Dot</sym>
</trkpt>
<trkpt lat="39.882618" lon="-8.441977">
<ele>267.5</ele>
<desc>Speed 8.7 km/h Distance 31.33 km</desc>
<time>2011-05-22T09:31:47.49</time>
<name>6964</name>
<sym>Dot</sym>
</trkpt>
<trkpt lat="39.882602" lon="-8.441960">
<ele>268.0</ele>
<desc>Speed 8.6 km/h Distance 31.33 km</desc>
<time>2011-05-22T09:31:48.49</time>
<name>6965</name>
<sym>Dot</sym>
</trkpt>
<trkpt lat="39.882585" lon="-8.441943">
<ele>268.5</ele>
<desc>Speed 8.5 km/h Distance 31.33 km</desc>
<time>2011-05-22T09:31:49.49</time>
<name>6966</name>
<sym>Dot</sym>
</trkpt>
<trkpt lat="39.882570" lon="-8.441923">
<ele>268.5</ele>
<desc>Speed 8.4 km/h Distance 31.34 km</desc>
<time>2011-05-22T09:31:50.49</time>
<name>6967</name>
<sym>Dot</sym>
</trkpt>
<trkpt lat="39.882557" lon="-8.441903">
<ele>269.0</ele>
<desc>Speed 8.4 km/h Distance 31.34 km</desc>
<time>2011-05-22T09:31:51.49</time>
<name>6968</name>
<sym>Dot</sym>
</trkpt>
<trkpt lat="39.882543" lon="-8.441883">
<ele>269.5</ele>
<desc>Speed 8.2 km/h Distance 31.34 km</desc>
<time>2011-05-22T09:31:52.49</time>
<name>6969</name>
<sym>Dot</sym>
</trkpt>
<trkpt lat="39.882528" lon="-8.441863">
<ele>269.5</ele>
<desc>Speed 8.5 km/h Distance 31.34 km</desc>
<time>2011-05-22T09:31:53.49</time>
<name>6970</name>
<sym>Dot</sym>
</trkpt>
<trkpt lat="39.882515" lon="-8.441842">
<ele>270.0</ele>
<desc>Speed 8.6 km/h Distance 31.35 km</desc>
<time>2011-05-22T09:31:54.49</time>
<name>6971</name>
<sym>Dot</sym>
</trkpt>
<trkpt lat="39.882500" lon="-8.441822">
<ele>270.0</ele>
<desc>Speed 8.8 km/h Distance 31.35 km</desc>
<time>2011-05-22T09:31:55.49</time>
<name>6972</name>
<sym>Dot</sym>
</trkpt>
<trkpt lat="39.882487" lon="-8.441798">
<ele>270.5</ele>
<desc>Speed 8.8 km/h Distance 31.35 km</desc>
<time>2011-05-22T09:31:56.49</time>
<name>6973</name>
<sym>Dot</sym>
</trkpt>
<trkpt lat="39.882473" lon="-8.441777">
<ele>270.5</ele>
<desc>Speed 8.4 km/h Distance 31.35 km</desc>
<time>2011-05-22T09:31:57.49</time>
<name>6974</name>
<sym>Dot</sym>
</trkpt>
<trkpt lat="39.882462" lon="-8.441755">
<ele>270.5</ele>
<desc>Speed 8.3 km/h Distance 31.35 km</desc>
<time>2011-05-22T09:31:58.49</time>
<name>6975</name>
<sym>Dot</sym>
</trkpt>
<trkpt lat="39.882447" lon="-8.441737">
<ele>271.0</ele>
<desc>Speed 8.0 km/h Distance 31.36 km</desc>
<time>2011-05-22T09:31:59.49</time>
<name>6976</name>
<sym>Dot</sym>
</trkpt>
<trkpt lat="39.882435" lon="-8.441720">
<ele>271.5</ele>
<desc>Speed 7.4 km/h Distance 31.36 km</desc>
<time>2011-05-22T09:32:00.48</time>
<name>6977</name>
<sym>Dot</sym>
</trkpt>
<trkpt lat="39.882423" lon="-8.441700">
<ele>271.5</ele>
<desc>Speed 7.2 km/h Distance 31.36 km</desc>
<time>2011-05-22T09:32:01.48</time>
<name>6978</name>
<sym>Dot</sym>
</trkpt>
<trkpt lat="39.882413" lon="-8.441680">
<ele>271.5</ele>
<desc>Speed 7.3 km/h Distance 31.36 km</desc>
<time>2011-05-22T09:32:02.48</time>
<name>6979</name>
<sym>Dot</sym>
</trkpt>
<trkpt lat="39.882402" lon="-8.441662">
<ele>272.0</ele>
<desc>Speed 7.3 km/h Distance 31.37 km</desc>
<time>2011-05-22T09:32:03.48</time>
<name>6980</name>
<sym>Dot</sym>
</trkpt>
<trkpt lat="39.882390" lon="-8.441643">
<ele>272.0</ele>
<desc>Speed 7.2 km/h Distance 31.37 km</desc>
<time>2011-05-22T09:32:04.48</time>
<name>6981</name>
<sym>Dot</sym>
</trkpt>
<trkpt lat="39.882375" lon="-8.441625">
<ele>272.5</ele>
<desc>Speed 7.9 km/h Distance 31.37 km</desc>
<time>2011-05-22T09:32:05.48</time>
<name>6982</name>
<sym>Dot</sym>
</trkpt>
<trkpt lat="39.882362" lon="-8.441605">
<ele>272.0</ele>
<desc>Speed 8.1 km/h Distance 31.37 km</desc>
<time>2011-05-22T09:32:06.48</time>
<name>6983</name>
<sym>Dot</sym>
</trkpt>
<trkpt lat="39.882345" lon="-8.441590">
<ele>273.0</ele>
<desc>Speed 8.0 km/h Distance 31.37 km</desc>
<time>2011-05-22T09:32:07.48</time>
<name>6984</name>
<sym>Dot</sym>
</trkpt>
<trkpt lat="39.882330" lon="-8.441573">
<ele>273.5</ele>
<desc>Speed 8.0 km/h Distance 31.38 km</desc>
<time>2011-05-22T09:32:08.48</time>
<name>6985</name>
<sym>Dot</sym>
</trkpt>
<trkpt lat="39.882317" lon="-8.441555">
<ele>274.0</ele>
<desc>Speed 7.7 km/h Distance 31.38 km</desc>
<time>2011-05-22T09:32:09.48</time>
<name>6986</name>
<sym>Dot</sym>
</trkpt>
<trkpt lat="39.882300" lon="-8.441540">
<ele>274.5</ele>
<desc>Speed 7.8 km/h Distance 31.38 km</desc>
<time>2011-05-22T09:32:10.48</time>
<name>6987</name>
<sym>Dot</sym>
</trkpt>
<trkpt lat="39.882287" lon="-8.441522">
<ele>274.5</ele>
<desc>Speed 7.7 km/h Distance 31.38 km</desc>
<time>2011-05-22T09:32:11.48</time>
<name>6988</name>
<sym>Dot</sym>
</trkpt>
<trkpt lat="39.882277" lon="-8.441503">
<ele>275.0</ele>
<desc>Speed 7.2 km/h Distance 31.38 km</desc>
<time>2011-05-22T09:32:12.48</time>
<name>6989</name>
<sym>Dot</sym>
</trkpt>
<trkpt lat="39.882265" lon="-8.441483">
<ele>275.0</ele>
<desc>Speed 7.5 km/h Distance 31.39 km</desc>
<time>2011-05-22T09:32:13.48</time>
<name>6990</name>
<sym>Dot</sym>
</trkpt>
<trkpt lat="39.882250" lon="-8.441470">
<ele>275.5</ele>
<desc>Speed 7.3 km/h Distance 31.39 km</desc>
<time>2011-05-22T09:32:14.48</time>
<name>6991</name>
<sym>Dot</sym>
</trkpt>
<trkpt lat="39.882235" lon="-8.441455">
<ele>276.0</ele>
<desc>Speed 7.4 km/h Distance 31.39 km</desc>
<time>2011-05-22T09:32:15.48</time>
<name>6992</name>
<sym>Dot</sym>
</trkpt>
<trkpt lat="39.882222" lon="-8.441438">
<ele>276.5</ele>
<desc>Speed 7.6 km/h Distance 31.39 km</desc>
<time>2011-05-22T09:32:16.48</time>
<name>6993</name>
<sym>Dot</sym>
</trkpt>
<trkpt lat="39.882207" lon="-8.441425">
<ele>277.5</ele>
<desc>Speed 7.5 km/h Distance 31.40 km</desc>
<time>2011-05-22T09:32:17.48</time>
<name>6994</name>
<sym>Dot</sym>
</trkpt>
<trkpt lat="39.882192" lon="-8.441410">
<ele>278.0</ele>
<desc>Speed 7.3 km/h Distance 31.40 km</desc>
<time>2011-05-22T09:32:18.48</time>
<name>6995</name>
<sym>Dot</sym>
</trkpt>
<trkpt lat="39.882178" lon="-8.441395">
<ele>279.0</ele>
<desc>Speed 6.9 km/h Distance 31.40 km</desc>
<time>2011-05-22T09:32:19.48</time>
<name>6996</name>
<sym>Dot</sym>
</trkpt>
<trkpt lat="39.882165" lon="-8.441382">
<ele>279.5</ele>
<desc>Speed 7.5 km/h Distance 31.40 km</desc>
<time>2011-05-22T09:32:20.48</time>
<name>6997</name>
<sym>Dot</sym>
</trkpt>
<trkpt lat="39.882150" lon="-8.441367">
<ele>279.5</ele>
<desc>Speed 7.5 km/h Distance 31.40 km</desc>
<time>2011-05-22T09:32:21.48</time>
<name>6998</name>
<sym>Dot</sym>
</trkpt>
<trkpt lat="39.882138" lon="-8.441353">
<ele>280.0</ele>
<desc>Speed 6.3 km/h Distance 31.40 km</desc>
<time>2011-05-22T09:32:22.48</time>
<name>6999</name>
<sym>Dot</sym>
</trkpt>
<trkpt lat="39.882122" lon="-8.441340">
<ele>280.5</ele>
<desc>Speed 7.3 km/h Distance 31.41 km</desc>
<time>2011-05-22T09:32:23.48</time>
<name>7000</name>
<sym>Dot</sym>
</trkpt>
<trkpt lat="39.882107" lon="-8.441327">
<ele>281.0</ele>
<desc>Speed 7.2 km/h Distance 31.41 km</desc>
<time>2011-05-22T09:32:24.48</time>
<name>7001</name>
<sym>Dot</sym>
</trkpt>
<trkpt lat="39.882092" lon="-8.441313">
<ele>281.0</ele>
<desc>Speed 7.3 km/h Distance 31.41 km</desc>
<time>2011-05-22T09:32:25.48</time>
<name>7002</name>
<sym>Dot</sym>
</trkpt>
<trkpt lat="39.882075" lon="-8.441300">
<ele>281.0</ele>
<desc>Speed 7.5 km/h Distance 31.41 km</desc>
<time>2011-05-22T09:32:26.48</time>
<name>7003</name>
<sym>Dot</sym>
</trkpt>
<trkpt lat="39.882058" lon="-8.441287">
<ele>281.0</ele>
<desc>Speed 8.0 km/h Distance 31.42 km</desc>
<time>2011-05-22T09:32:27.48</time>
<name>7004</name>
<sym>Dot</sym>
</trkpt>
<trkpt lat="39.882042" lon="-8.441275">
<ele>281.5</ele>
<desc>Speed 7.8 km/h Distance 31.42 km</desc>
<time>2011-05-22T09:32:28.48</time>
<name>7005</name>
<sym>Dot</sym>
</trkpt>
<trkpt lat="39.882025" lon="-8.441262">
<ele>282.0</ele>
<desc>Speed 7.7 km/h Distance 31.42 km</desc>
<time>2011-05-22T09:32:29.48</time>
<name>7006</name>
<sym>Dot</sym>
</trkpt>
<trkpt lat="39.882008" lon="-8.441252">
<ele>282.5</ele>
<desc>Speed 7.1 km/h Distance 31.42 km</desc>
<time>2011-05-22T09:32:30.48</time>
<name>7007</name>
<sym>Dot</sym>
</trkpt>
<trkpt lat="39.881993" lon="-8.441242">
<ele>282.5</ele>
<desc>Speed 6.3 km/h Distance 31.42 km</desc>
<time>2011-05-22T09:32:31.48</time>
<name>7008</name>
<sym>Dot</sym>
</trkpt>
<trkpt lat="39.881978" lon="-8.441232">
<ele>283.0</ele>
<desc>Speed 7.0 km/h Distance 31.43 km</desc>
<time>2011-05-22T09:32:32.48</time>
<name>7009</name>
<sym>Dot</sym>
</trkpt>
<trkpt lat="39.881963" lon="-8.441222">
<ele>283.5</ele>
<desc>Speed 6.4 km/h Distance 31.43 km</desc>
<time>2011-05-22T09:32:33.48</time>
<name>7010</name>
<sym>Dot</sym>
</trkpt>
<trkpt lat="39.881950" lon="-8.441208">
<ele>283.5</ele>
<desc>Speed 7.0 km/h Distance 31.43 km</desc>
<time>2011-05-22T09:32:34.48</time>
<name>7011</name>
<sym>Dot</sym>
</trkpt>
<trkpt lat="39.881933" lon="-8.441197">
<ele>284.0</ele>
<desc>Speed 7.0 km/h Distance 31.43 km</desc>
<time>2011-05-22T09:32:35.48</time>
<name>7012</name>
<sym>Dot</sym>
</trkpt>
<trkpt lat="39.881918" lon="-8.441187">
<ele>284.5</ele>
<desc>Speed 6.3 km/h Distance 31.43 km</desc>
<time>2011-05-22T09:32:36.48</time>
<name>7013</name>
<sym>Dot</sym>
</trkpt>
<trkpt lat="39.881905" lon="-8.441178">
<ele>285.0</ele>
<desc>Speed 5.7 km/h Distance 31.44 km</desc>
<time>2011-05-22T09:32:37.48</time>
<name>7014</name>
<sym>Dot</sym>
</trkpt>
<trkpt lat="39.881892" lon="-8.441170">
<ele>285.0</ele>
<desc>Speed 5.6 km/h Distance 31.44 km</desc>
<time>2011-05-22T09:32:38.48</time>
<name>7015</name>
<sym>Dot</sym>
</trkpt>
<trkpt lat="39.881878" lon="-8.441160">
<ele>285.5</ele>
<desc>Speed 6.3 km/h Distance 31.44 km</desc>
<time>2011-05-22T09:32:39.48</time>
<name>7016</name>
<sym>Dot</sym>
</trkpt>
<trkpt lat="39.881863" lon="-8.441148">
<ele>286.0</ele>
<desc>Speed 6.6 km/h Distance 31.44 km</desc>
<time>2011-05-22T09:32:40.48</time>
<name>7017</name>
<sym>Dot</sym>
</trkpt>
<trkpt lat="39.881848" lon="-8.441137">
<ele>286.5</ele>
<desc>Speed 6.6 km/h Distance 31.44 km</desc>
<time>2011-05-22T09:32:41.48</time>
<name>7018</name>
<sym>Dot</sym>
</trkpt>
<trkpt lat="39.881833" lon="-8.441123">
<ele>286.5</ele>
<desc>Speed 7.1 km/h Distance 31.44 km</desc>
<time>2011-05-22T09:32:42.48</time>
<name>7019</name>
<sym>Dot</sym>
</trkpt>
<trkpt lat="39.881817" lon="-8.441110">
<ele>287.0</ele>
<desc>Speed 7.0 km/h Distance 31.45 km</desc>
<time>2011-05-22T09:32:43.48</time>
<name>7020</name>
<sym>Dot</sym>
</trkpt>
<trkpt lat="39.881800" lon="-8.441100">
<ele>288.0</ele>
<desc>Speed 7.5 km/h Distance 31.45 km</desc>
<time>2011-05-22T09:32:44.48</time>
<name>7021</name>
<sym>Dot</sym>
</trkpt>
<trkpt lat="39.881782" lon="-8.441087">
<ele>288.5</ele>
<desc>Speed 7.9 km/h Distance 31.45 km</desc>
<time>2011-05-22T09:32:45.48</time>
<name>7022</name>
<sym>Dot</sym>
</trkpt>
<trkpt lat="39.881762" lon="-8.441077">
<ele>288.5</ele>
<desc>Speed 7.8 km/h Distance 31.45 km</desc>
<time>2011-05-22T09:32:46.48</time>
<name>7023</name>
<sym>Dot</sym>
</trkpt>
<trkpt lat="39.881745" lon="-8.441062">
<ele>289.0</ele>
<desc>Speed 7.3 km/h Distance 31.46 km</desc>
<time>2011-05-22T09:32:47.48</time>
<name>7024</name>
<sym>Dot</sym>
</trkpt>
<trkpt lat="39.881732" lon="-8.441050">
<ele>290.0</ele>
<desc>Speed 6.3 km/h Distance 31.46 km</desc>
<time>2011-05-22T09:32:48.48</time>
<name>7025</name>
<sym>Dot</sym>
</trkpt>
<trkpt lat="39.881717" lon="-8.441038">
<ele>290.5</ele>
<desc>Speed 7.2 km/h Distance 31.46 km</desc>
<time>2011-05-22T09:32:49.48</time>
<name>7026</name>
<sym>Dot</sym>
</trkpt>
<trkpt lat="39.881700" lon="-8.441028">
<ele>291.0</ele>
<desc>Speed 6.7 km/h Distance 31.46 km</desc>
<time>2011-05-22T09:32:50.48</time>
<name>7027</name>
<sym>Dot</sym>
</trkpt>
<trkpt lat="39.881685" lon="-8.441020">
<ele>291.5</ele>
<desc>Speed 6.2 km/h Distance 31.46 km</desc>
<time>2011-05-22T09:32:51.48</time>
<name>7028</name>
<sym>Dot</sym>
</trkpt>
<trkpt lat="39.881670" lon="-8.441010">
<ele>291.5</ele>
<desc>Speed 6.8 km/h Distance 31.46 km</desc>
<time>2011-05-22T09:32:52.48</time>
<name>7029</name>
<sym>Dot</sym>
</trkpt>
<trkpt lat="39.881653" lon="-8.441000">
<ele>292.0</ele>
<desc>Speed 6.8 km/h Distance 31.47 km</desc>
<time>2011-05-22T09:32:53.48</time>
<name>7030</name>
<sym>Dot</sym>
</trkpt>
<trkpt lat="39.881638" lon="-8.440990">
<ele>292.0</ele>
<desc>Speed 6.6 km/h Distance 31.47 km</desc>
<time>2011-05-22T09:32:54.48</time>
<name>7031</name>
<sym>Dot</sym>
</trkpt>
<trkpt lat="39.881623" lon="-8.440983">
<ele>292.0</ele>
<desc>Speed 6.6 km/h Distance 31.47 km</desc>
<time>2011-05-22T09:32:55.48</time>
<name>7032</name>
<sym>Dot</sym>
</trkpt>
<trkpt lat="39.881605" lon="-8.440977">
<ele>291.5</ele>
<desc>Speed 7.3 km/h Distance 31.47 km</desc>
<time>2011-05-22T09:32:56.48</time>
<name>7033</name>
<sym>Dot</sym>
</trkpt>
<trkpt lat="39.881590" lon="-8.440968">
<ele>292.0</ele>
<desc>Speed 6.6 km/h Distance 31.47 km</desc>
<time>2011-05-22T09:32:57.48</time>
<name>7034</name>
<sym>Dot</sym>
</trkpt>
<trkpt lat="39.881573" lon="-8.440960">
<ele>292.0</ele>
<desc>Speed 6.8 km/h Distance 31.48 km</desc>
<time>2011-05-22T09:32:58.48</time>
<name>7035</name>
<sym>Dot</sym>
</trkpt>
<trkpt lat="39.881558" lon="-8.440952">
<ele>292.5</ele>
<desc>Speed 6.1 km/h Distance 31.48 km</desc>
<time>2011-05-22T09:32:59.48</time>
<name>7036</name>
<sym>Dot</sym>
</trkpt>
<trkpt lat="39.881542" lon="-8.440945">
<ele>292.5</ele>
<desc>Speed 6.6 km/h Distance 31.48 km</desc>
<time>2011-05-22T09:33:00.47</time>
<name>7037</name>
<sym>Dot</sym>
</trkpt>
<trkpt lat="39.881528" lon="-8.440937">
<ele>292.5</ele>
<desc>Speed 6.1 km/h Distance 31.48 km</desc>
<time>2011-05-22T09:33:01.47</time>
<name>7038</name>
<sym>Dot</sym>
</trkpt>
<trkpt lat="39.881512" lon="-8.440930">
<ele>292.5</ele>
<desc>Speed 6.8 km/h Distance 31.48 km</desc>
<time>2011-05-22T09:33:02.47</time>
<name>7039</name>
<sym>Dot</sym>
</trkpt>
<trkpt lat="39.881495" lon="-8.440928">
<ele>292.5</ele>
<desc>Speed 7.2 km/h Distance 31.49 km</desc>
<time>2011-05-22T09:33:03.47</time>
<name>7040</name>
<sym>Dot</sym>
</trkpt>
<trkpt lat="39.881477" lon="-8.440925">
<ele>292.0</ele>
<desc>Speed 7.6 km/h Distance 31.49 km</desc>
<time>2011-05-22T09:33:04.47</time>
<name>7041</name>
<sym>Dot</sym>
</trkpt>
<trkpt lat="39.881457" lon="-8.440922">
<ele>291.5</ele>
<desc>Speed 7.9 km/h Distance 31.49 km</desc>
<time>2011-05-22T09:33:05.47</time>
<name>7042</name>
<sym>Dot</sym>
</trkpt>
<trkpt lat="39.881438" lon="-8.440920">
<ele>291.0</ele>
<desc>Speed 7.5 km/h Distance 31.49 km</desc>
<time>2011-05-22T09:33:06.47</time>
<name>7043</name>
<sym>Dot</sym>
</trkpt>
<trkpt lat="39.881420" lon="-8.440917">
<ele>290.5</ele>
<desc>Speed 7.7 km/h Distance 31.49 km</desc>
<time>2011-05-22T09:33:07.47</time>
<name>7044</name>
<sym>Dot</sym>
</trkpt>
<trkpt lat="39.881403" lon="-8.440912">
<ele>290.0</ele>
<desc>Speed 7.7 km/h Distance 31.50 km</desc>
<time>2011-05-22T09:33:08.47</time>
<name>7045</name>
<sym>Dot</sym>
</trkpt>
<trkpt lat="39.881383" lon="-8.440912">
<ele>290.0</ele>
<desc>Speed 7.5 km/h Distance 31.50 km</desc>
<time>2011-05-22T09:33:09.47</time>
<name>7046</name>
<sym>Dot</sym>
</trkpt>
<trkpt lat="39.881365" lon="-8.440910">
<ele>289.5</ele>
<desc>Speed 7.5 km/h Distance 31.50 km</desc>
<time>2011-05-22T09:33:10.47</time>
<name>7047</name>
<sym>Dot</sym>
</trkpt>
<trkpt lat="39.881347" lon="-8.440908">
<ele>289.0</ele>
<desc>Speed 7.6 km/h Distance 31.50 km</desc>
<time>2011-05-22T09:33:11.47</time>
<name>7048</name>
<sym>Dot</sym>
</trkpt>
<trkpt lat="39.881327" lon="-8.440910">
<ele>289.0</ele>
<desc>Speed 8.1 km/h Distance 31.50 km</desc>
<time>2011-05-22T09:33:12.47</time>
<name>7049</name>
<sym>Dot</sym>
</trkpt>
<trkpt lat="39.881307" lon="-8.440912">
<ele>288.5</ele>
<desc>Speed 8.1 km/h Distance 31.51 km</desc>
<time>2011-05-22T09:33:13.47</time>
<name>7050</name>
<sym>Dot</sym>
</trkpt>
<trkpt lat="39.881287" lon="-8.440915">
<ele>288.5</ele>
<desc>Speed 8.1 km/h Distance 31.51 km</desc>
<time>2011-05-22T09:33:14.47</time>
<name>7051</name>
<sym>Dot</sym>
</trkpt>
<trkpt lat="39.881267" lon="-8.440918">
<ele>288.0</ele>
<desc>Speed 8.2 km/h Distance 31.51 km</desc>
<time>2011-05-22T09:33:15.47</time>
<name>7052</name>
<sym>Dot</sym>
</trkpt>
<trkpt lat="39.881247" lon="-8.440925">
<ele>288.0</ele>
<desc>Speed 8.6 km/h Distance 31.51 km</desc>
<time>2011-05-22T09:33:16.47</time>
<name>7053</name>
<sym>Dot</sym>
</trkpt>
<trkpt lat="39.881227" lon="-8.440932">
<ele>287.5</ele>
<desc>Speed 8.5 km/h Distance 31.52 km</desc>
<time>2011-05-22T09:33:17.47</time>
<name>7054</name>
<sym>Dot</sym>
</trkpt>
<trkpt lat="39.881207" lon="-8.440938">
<ele>287.5</ele>
<desc>Speed 8.9 km/h Distance 31.52 km</desc>
<time>2011-05-22T09:33:18.47</time>
<name>7055</name>
<sym>Dot</sym>
</trkpt>
<trkpt lat="39.881185" lon="-8.440943">
<ele>287.5</ele>
<desc>Speed 8.7 km/h Distance 31.52 km</desc>
<time>2011-05-22T09:33:19.47</time>
<name>7056</name>
<sym>Dot</sym>
</trkpt>
<trkpt lat="39.881167" lon="-8.440948">
<ele>288.0</ele>
<desc>Speed 8.1 km/h Distance 31.52 km</desc>
<time>2011-05-22T09:33:20.47</time>
<name>7057</name>
<sym>Dot</sym>
</trkpt>
<trkpt lat="39.881148" lon="-8.440952">
<ele>288.5</ele>
<desc>Speed 7.7 km/h Distance 31.52 km</desc>
<time>2011-05-22T09:33:21.47</time>
<name>7058</name>
<sym>Dot</sym>
</trkpt>
<trkpt lat="39.881128" lon="-8.440958">
<ele>289.0</ele>
<desc>Speed 7.8 km/h Distance 31.53 km</desc>
<time>2011-05-22T09:33:22.47</time>
<name>7059</name>
<sym>Dot</sym>
</trkpt>
<trkpt lat="39.881108" lon="-8.440967">
<ele>288.5</ele>
<desc>Speed 8.6 km/h Distance 31.53 km</desc>
<time>2011-05-22T09:33:23.47</time>
<name>7060</name>
<sym>Dot</sym>
</trkpt>
<trkpt lat="39.881090" lon="-8.440978">
<ele>289.0</ele>
<desc>Speed 8.3 km/h Distance 31.53 km</desc>
<time>2011-05-22T09:33:24.47</time>
<name>7061</name>
<sym>Dot</sym>
</trkpt>
<trkpt lat="39.881070" lon="-8.440987">
<ele>289.0</ele>
<desc>Speed 8.4 km/h Distance 31.53 km</desc>
<time>2011-05-22T09:33:25.47</time>
<name>7062</name>
<sym>Dot</sym>
</trkpt>
<trkpt lat="39.881053" lon="-8.440995">
<ele>289.5</ele>
<desc>Speed 7.5 km/h Distance 31.54 km</desc>
<time>2011-05-22T09:33:26.47</time>
<name>7063</name>
<sym>Dot</sym>
</trkpt>
<trkpt lat="39.881035" lon="-8.441000">
<ele>290.0</ele>
<desc>Speed 7.5 km/h Distance 31.54 km</desc>
<time>2011-05-22T09:33:27.47</time>
<name>7064</name>
<sym>Dot</sym>
</trkpt>
<trkpt lat="39.881015" lon="-8.441008">
<ele>290.5</ele>
<desc>Speed 8.4 km/h Distance 31.54 km</desc>
<time>2011-05-22T09:33:28.47</time>
<name>7065</name>
<sym>Dot</sym>
</trkpt>
<trkpt lat="39.880993" lon="-8.441017">
<ele>290.5</ele>
<desc>Speed 8.9 km/h Distance 31.54 km</desc>
<time>2011-05-22T09:33:29.47</time>
<name>7066</name>
<sym>Dot</sym>
</trkpt>
<trkpt lat="39.880973" lon="-8.441022">
<ele>291.0</ele>
<desc>Speed 7.8 km/h Distance 31.55 km</desc>
<time>2011-05-22T09:33:30.47</time>
<name>7067</name>
<sym>Dot</sym>
</trkpt>
<trkpt lat="39.880952" lon="-8.441030">
<ele>291.0</ele>
<desc>Speed 9.3 km/h Distance 31.55 km</desc>
<time>2011-05-22T09:33:31.47</time>
<name>7068</name>
<sym>Dot</sym>
</trkpt>
<trkpt lat="39.880927" lon="-8.441038">
<ele>291.0</ele>
<desc>Speed 9.9 km/h Distance 31.55 km</desc>
<time>2011-05-22T09:33:32.47</time>
<name>7069</name>
<sym>Dot</sym>
</trkpt>
<trkpt lat="39.880900" lon="-8.441047">
<ele>290.5</ele>
<desc>Speed 10.8 km/h Distance 31.55 km</desc>
<time>2011-05-22T09:33:33.47</time>
<name>7070</name>
<sym>Dot</sym>
</trkpt>
<trkpt lat="39.880873" lon="-8.441057">
<ele>290.5</ele>
<desc>Speed 10.8 km/h Distance 31.56 km</desc>
<time>2011-05-22T09:33:34.47</time>
<name>7071</name>
<sym>Dot</sym>
</trkpt>
<trkpt lat="39.880847" lon="-8.441063">
<ele>290.5</ele>
<desc>Speed 10.7 km/h Distance 31.56 km</desc>
<time>2011-05-22T09:33:35.47</time>
<name>7072</name>
<sym>Dot</sym>
</trkpt>
<trkpt lat="39.880820" lon="-8.441073">
<ele>290.5</ele>
<desc>Speed 11.1 km/h Distance 31.56 km</desc>
<time>2011-05-22T09:33:36.47</time>
<name>7073</name>
<sym>Dot</sym>
</trkpt>
<trkpt lat="39.880792" lon="-8.441080">
<ele>290.0</ele>
<desc>Speed 11.4 km/h Distance 31.57 km</desc>
<time>2011-05-22T09:33:37.47</time>
<name>7074</name>
<sym>Dot</sym>
</trkpt>
<trkpt lat="39.880762" lon="-8.441088">
<ele>290.0</ele>
<desc>Speed 11.6 km/h Distance 31.57 km</desc>
<time>2011-05-22T09:33:38.47</time>
<name>7075</name>
<sym>Dot</sym>
</trkpt>
<trkpt lat="39.880738" lon="-8.441092">
<ele>290.0</ele>
<desc>Speed 9.3 km/h Distance 31.57 km</desc>
<time>2011-05-22T09:33:39.47</time>
<name>7076</name>
<sym>Dot</sym>
</trkpt>
<trkpt lat="39.880713" lon="-8.441097">
<ele>289.5</ele>
<desc>Speed 10.0 km/h Distance 31.57 km</desc>
<time>2011-05-22T09:33:40.47</time>
<name>7077</name>
<sym>Dot</sym>
</trkpt>
<trkpt lat="39.880688" lon="-8.441100">
<ele>289.5</ele>
<desc>Speed 9.3 km/h Distance 31.58 km</desc>
<time>2011-05-22T09:33:41.47</time>
<name>7078</name>
<sym>Dot</sym>
</trkpt>
<trkpt lat="39.880667" lon="-8.441102">
<ele>289.0</ele>
<desc>Speed 9.0 km/h Distance 31.58 km</desc>
<time>2011-05-22T09:33:42.47</time>
<name>7079</name>
<sym>Dot</sym>
</trkpt>
<trkpt lat="39.880643" lon="-8.441103">
<ele>289.0</ele>
<desc>Speed 8.9 km/h Distance 31.58 km</desc>
<time>2011-05-22T09:33:43.47</time>
<name>7080</name>
<sym>Dot</sym>
</trkpt>
<trkpt lat="39.880623" lon="-8.441107">
<ele>289.0</ele>
<desc>Speed 8.0 km/h Distance 31.58 km</desc>
<time>2011-05-22T09:33:44.47</time>
<name>7081</name>
<sym>Dot</sym>
</trkpt>
<trkpt lat="39.880603" lon="-8.441108">
<ele>289.0</ele>
<desc>Speed 7.8 km/h Distance 31.59 km</desc>
<time>2011-05-22T09:33:45.47</time>
<name>7082</name>
<sym>Dot</sym>
</trkpt>
<trkpt lat="39.880583" lon="-8.441110">
<ele>288.5</ele>
<desc>Speed 7.8 km/h Distance 31.59 km</desc>
<time>2011-05-22T09:33:46.47</time>
<name>7083</name>
<sym>Dot</sym>
</trkpt>
<trkpt lat="39.880563" lon="-8.441110">
<ele>288.5</ele>
<desc>Speed 7.8 km/h Distance 31.59 km</desc>
<time>2011-05-22T09:33:47.47</time>
<name>7084</name>
<sym>Dot</sym>
</trkpt>
<trkpt lat="39.880542" lon="-8.441110">
<ele>288.5</ele>
<desc>Speed 8.8 km/h Distance 31.59 km</desc>
<time>2011-05-22T09:33:48.47</time>
<name>7085</name>
<sym>Dot</sym>
</trkpt>
<trkpt lat="39.880518" lon="-8.441110">
<ele>288.5</ele>
<desc>Speed 9.2 km/h Distance 31.60 km</desc>
<time>2011-05-22T09:33:49.47</time>
<name>7086</name>
<sym>Dot</sym>
</trkpt>
<trkpt lat="39.880492" lon="-8.441113">
<ele>288.5</ele>
<desc>Speed 9.9 km/h Distance 31.60 km</desc>
<time>2011-05-22T09:33:50.47</time>
<name>7087</name>
<sym>Dot</sym>
</trkpt>
<trkpt lat="39.880467" lon="-8.441113">
<ele>288.5</ele>
<desc>Speed 9.6 km/h Distance 31.60 km</desc>
<time>2011-05-22T09:33:51.47</time>
<name>7088</name>
<sym>Dot</sym>
</trkpt>
<trkpt lat="39.880440" lon="-8.441115">
<ele>288.0</ele>
<desc>Speed 10.2 km/h Distance 31.61 km</desc>
<time>2011-05-22T09:33:52.47</time>
<name>7089</name>
<sym>Dot</sym>
</trkpt>
<trkpt lat="39.880413" lon="-8.441117">
<ele>287.5</ele>
<desc>Speed 10.2 km/h Distance 31.61 km</desc>
<time>2011-05-22T09:33:53.47</time>
<name>7090</name>
<sym>Dot</sym>
</trkpt>
<trkpt lat="39.880387" lon="-8.441118">
<ele>287.5</ele>
<desc>Speed 10.1 km/h Distance 31.61 km</desc>
<time>2011-05-22T09:33:54.47</time>
<name>7091</name>
<sym>Dot</sym>
</trkpt>
<trkpt lat="39.880362" lon="-8.441118">
<ele>287.0</ele>
<desc>Speed 9.9 km/h Distance 31.61 km</desc>
<time>2011-05-22T09:33:55.47</time>
<name>7092</name>
<sym>Dot</sym>
</trkpt>
<trkpt lat="39.880335" lon="-8.441118">
<ele>286.5</ele>
<desc>Speed 10.1 km/h Distance 31.62 km</desc>
<time>2011-05-22T09:33:56.47</time>
<name>7093</name>
<sym>Dot</sym>
</trkpt>
<trkpt lat="39.880308" lon="-8.441118">
<ele>286.0</ele>
<desc>Speed 10.2 km/h Distance 31.62 km</desc>
<time>2011-05-22T09:33:57.47</time>
<name>7094</name>
<sym>Dot</sym>
</trkpt>
<trkpt lat="39.880282" lon="-8.441118">
<ele>286.0</ele>
<desc>Speed 10.4 km/h Distance 31.62 km</desc>
<time>2011-05-22T09:33:58.47</time>
<name>7095</name>
<sym>Dot</sym>
</trkpt>
<trkpt lat="39.880253" lon="-8.441118">
<ele>285.5</ele>
<desc>Speed 10.2 km/h Distance 31.63 km</desc>
<time>2011-05-22T09:33:59.47</time>
<name>7096</name>
<sym>Dot</sym>
</trkpt>
<trkpt lat="39.880227" lon="-8.441117">
<ele>285.5</ele>
<desc>Speed 10.0 km/h Distance 31.63 km</desc>
<time>2011-05-22T09:34:00.46</time>
<name>7097</name>
<sym>Dot</sym>
</trkpt>
<trkpt lat="39.880202" lon="-8.441118">
<ele>285.0</ele>
<desc>Speed 9.7 km/h Distance 31.63 km</desc>
<time>2011-05-22T09:34:01.46</time>
<name>7098</name>
<sym>Dot</sym>
</trkpt>
<trkpt lat="39.880177" lon="-8.441122">
<ele>285.0</ele>
<desc>Speed 9.3 km/h Distance 31.63 km</desc>
<time>2011-05-22T09:34:02.46</time>
<name>7099</name>
<sym>Dot</sym>
</trkpt>
<trkpt lat="39.880153" lon="-8.441123">
<ele>285.0</ele>
<desc>Speed 9.0 km/h Distance 31.64 km</desc>
<time>2011-05-22T09:34:03.46</time>
<name>7100</name>
<sym>Dot</sym>
</trkpt>
<trkpt lat="39.880130" lon="-8.441125">
<ele>285.0</ele>
<desc>Speed 9.1 km/h Distance 31.64 km</desc>
<time>2011-05-22T09:34:04.46</time>
<name>7101</name>
<sym>Dot</sym>
</trkpt>
<trkpt lat="39.880107" lon="-8.441128">
<ele>285.0</ele>
<desc>Speed 8.9 km/h Distance 31.64 km</desc>
<time>2011-05-22T09:34:05.46</time>
<name>7102</name>
<sym>Dot</sym>
</trkpt>
<trkpt lat="39.880085" lon="-8.441132">
<ele>285.0</ele>
<desc>Speed 8.9 km/h Distance 31.65 km</desc>
<time>2011-05-22T09:34:06.46</time>
<name>7103</name>
<sym>Dot</sym>
</trkpt>
<trkpt lat="39.880063" lon="-8.441137">
<ele>285.0</ele>
<desc>Speed 8.4 km/h Distance 31.65 km</desc>
<time>2011-05-22T09:34:07.46</time>
<name>7104</name>
<sym>Dot</sym>
</trkpt>
<trkpt lat="39.880043" lon="-8.441143">
<ele>285.0</ele>
<desc>Speed 8.3 km/h Distance 31.65 km</desc>
<time>2011-05-22T09:34:08.46</time>
<name>7105</name>
<sym>Dot</sym>
</trkpt>
<trkpt lat="39.880022" lon="-8.441152">
<ele>285.0</ele>
<desc>Speed 8.6 km/h Distance 31.65 km</desc>
<time>2011-05-22T09:34:09.46</time>
<name>7106</name>
<sym>Dot</sym>
</trkpt>
<trkpt lat="39.880000" lon="-8.441157">
<ele>285.5</ele>
<desc>Speed 8.6 km/h Distance 31.65 km</desc>
<time>2011-05-22T09:34:10.46</time>
<name>7107</name>
<sym>Dot</sym>
</trkpt>
<trkpt lat="39.879978" lon="-8.441158">
<ele>285.5</ele>
<desc>Speed 8.7 km/h Distance 31.66 km</desc>
<time>2011-05-22T09:34:11.46</time>
<name>7108</name>
<sym>Dot</sym>
</trkpt>
<trkpt lat="39.879955" lon="-8.441160">
<ele>285.5</ele>
<desc>Speed 8.9 km/h Distance 31.66 km</desc>
<time>2011-05-22T09:34:12.46</time>
<name>7109</name>
<sym>Dot</sym>
</trkpt>
<trkpt lat="39.879932" lon="-8.441163">
<ele>285.5</ele>
<desc>Speed 9.0 km/h Distance 31.66 km</desc>
<time>2011-05-22T09:34:13.46</time>
<name>7110</name>
<sym>Dot</sym>
</trkpt>
<trkpt lat="39.879910" lon="-8.441168">
<ele>285.5</ele>
<desc>Speed 9.0 km/h Distance 31.66 km</desc>
<time>2011-05-22T09:34:14.46</time>
<name>7111</name>
<sym>Dot</sym>
</trkpt>
<trkpt lat="39.879887" lon="-8.441173">
<ele>285.5</ele>
<desc>Speed 9.0 km/h Distance 31.67 km</desc>
<time>2011-05-22T09:34:15.46</time>
<name>7112</name>
<sym>Dot</sym>
</trkpt>
<trkpt lat="39.879865" lon="-8.441178">
<ele>285.5</ele>
<desc>Speed 8.6 km/h Distance 31.67 km</desc>
<time>2011-05-22T09:34:16.46</time>
<name>7113</name>
<sym>Dot</sym>
</trkpt>
<trkpt lat="39.879843" lon="-8.441185">
<ele>285.5</ele>
<desc>Speed 8.7 km/h Distance 31.67 km</desc>
<time>2011-05-22T09:34:17.46</time>
<name>7114</name>
<sym>Dot</sym>
</trkpt>
<trkpt lat="39.879822" lon="-8.441190">
<ele>285.5</ele>
<desc>Speed 8.6 km/h Distance 31.67 km</desc>
<time>2011-05-22T09:34:18.46</time>
<name>7115</name>
<sym>Dot</sym>
</trkpt>
<trkpt lat="39.879800" lon="-8.441195">
<ele>285.0</ele>
<desc>Speed 8.1 km/h Distance 31.68 km</desc>
<time>2011-05-22T09:34:19.46</time>
<name>7116</name>
<sym>Dot</sym>
</trkpt>
<trkpt lat="39.879780" lon="-8.441200">
<ele>285.0</ele>
<desc>Speed 7.9 km/h Distance 31.68 km</desc>
<time>2011-05-22T09:34:20.46</time>
<name>7117</name>
<sym>Dot</sym>
</trkpt>
<trkpt lat="39.879762" lon="-8.441207">
<ele>285.5</ele>
<desc>Speed 7.4 km/h Distance 31.68 km</desc>
<time>2011-05-22T09:34:21.46</time>
<name>7118</name>
<sym>Dot</sym>
</trkpt>
<trkpt lat="39.879742" lon="-8.441213">
<ele>285.5</ele>
<desc>Speed 8.6 km/h Distance 31.68 km</desc>
<time>2011-05-22T09:34:22.46</time>
<name>7119</name>
<sym>Dot</sym>
</trkpt>
<trkpt lat="39.879720" lon="-8.441217">
<ele>285.5</ele>
<desc>Speed 8.1 km/h Distance 31.69 km</desc>
<time>2011-05-22T09:34:23.46</time>
<name>7120</name>
<sym>Dot</sym>
</trkpt>
<trkpt lat="39.879700" lon="-8.441220">
<ele>285.5</ele>
<desc>Speed 8.0 km/h Distance 31.69 km</desc>
<time>2011-05-22T09:34:24.46</time>
<name>7121</name>
<sym>Dot</sym>
</trkpt>
<trkpt lat="39.879680" lon="-8.441225">
<ele>285.5</ele>
<desc>Speed 7.9 km/h Distance 31.69 km</desc>
<time>2011-05-22T09:34:25.46</time>
<name>7122</name>
<sym>Dot</sym>
</trkpt>
<trkpt lat="39.879660" lon="-8.441232">
<ele>286.0</ele>
<desc>Speed 8.0 km/h Distance 31.69 km</desc>
<time>2011-05-22T09:34:26.46</time>
<name>7123</name>
<sym>Dot</sym>
</trkpt>
<trkpt lat="39.879642" lon="-8.441242">
<ele>286.0</ele>
<desc>Speed 7.9 km/h Distance 31.70 km</desc>
<time>2011-05-22T09:34:27.46</time>
<name>7124</name>
<sym>Dot</sym>
</trkpt>
<trkpt lat="39.879622" lon="-8.441248">
<ele>286.0</ele>
<desc>Speed 8.1 km/h Distance 31.70 km</desc>
<time>2011-05-22T09:34:28.46</time>
<name>7125</name>
<sym>Dot</sym>
</trkpt>
<trkpt lat="39.879602" lon="-8.441257">
<ele>286.0</ele>
<desc>Speed 8.2 km/h Distance 31.70 km</desc>
<time>2011-05-22T09:34:29.46</time>
<name>7126</name>
<sym>Dot</sym>
</trkpt>
<trkpt lat="39.879582" lon="-8.441267">
<ele>286.0</ele>
<desc>Speed 8.3 km/h Distance 31.70 km</desc>
<time>2011-05-22T09:34:30.46</time>
<name>7127</name>
<sym>Dot</sym>
</trkpt>
<trkpt lat="39.879562" lon="-8.441275">
<ele>286.0</ele>
<desc>Speed 7.7 km/h Distance 31.70 km</desc>
<time>2011-05-22T09:34:31.46</time>
<name>7128</name>
<sym>Dot</sym>
</trkpt>
<trkpt lat="39.879545" lon="-8.441280">
<ele>286.5</ele>
<desc>Speed 6.6 km/h Distance 31.71 km</desc>
<time>2011-05-22T09:34:32.46</time>
<name>7129</name>
<sym>Dot</sym>
</trkpt>
<trkpt lat="39.879528" lon="-8.441285">
<ele>287.0</ele>
<desc>Speed 7.1 km/h Distance 31.71 km</desc>
<time>2011-05-22T09:34:33.46</time>
<name>7130</name>
<sym>Dot</sym>
</trkpt>
<trkpt lat="39.879512" lon="-8.441293">
<ele>287.0</ele>
<desc>Speed 7.0 km/h Distance 31.71 km</desc>
<time>2011-05-22T09:34:34.46</time>
<name>7131</name>
<sym>Dot</sym>
</trkpt>
<trkpt lat="39.879493" lon="-8.441298">
<ele>287.0</ele>
<desc>Speed 6.9 km/h Distance 31.71 km</desc>
<time>2011-05-22T09:34:35.46</time>
<name>7132</name>
<sym>Dot</sym>
</trkpt>
<trkpt lat="39.879478" lon="-8.441305">
<ele>287.5</ele>
<desc>Speed 6.3 km/h Distance 31.71 km</desc>
<time>2011-05-22T09:34:36.46</time>
<name>7133</name>
<sym>Dot</sym>
</trkpt>
<trkpt lat="39.879462" lon="-8.441310">
<ele>287.5</ele>
<desc>Speed 6.6 km/h Distance 31.72 km</desc>
<time>2011-05-22T09:34:37.46</time>
<name>7134</name>
<sym>Dot</sym>
</trkpt>
<trkpt lat="39.879447" lon="-8.441317">
<ele>287.5</ele>
<desc>Speed 6.3 km/h Distance 31.72 km</desc>
<time>2011-05-22T09:34:38.46</time>
<name>7135</name>
<sym>Dot</sym>
</trkpt>
<trkpt lat="39.879432" lon="-8.441320">
<ele>288.0</ele>
<desc>Speed 5.7 km/h Distance 31.72 km</desc>
<time>2011-05-22T09:34:39.46</time>
<name>7136</name>
<sym>Dot</sym>
</trkpt>
<trkpt lat="39.879418" lon="-8.441325">
<ele>288.0</ele>
<desc>Speed 5.5 km/h Distance 31.72 km</desc>
<time>2011-05-22T09:34:40.46</time>
<name>7137</name>
<sym>Dot</sym>
</trkpt>
<trkpt lat="39.879403" lon="-8.441330">
<ele>288.0</ele>
<desc>Speed 5.7 km/h Distance 31.72 km</desc>
<time>2011-05-22T09:34:41.46</time>
<name>7138</name>
<sym>Dot</sym>
</trkpt>
<trkpt lat="39.879390" lon="-8.441332">
<ele>288.0</ele>
<desc>Speed 5.7 km/h Distance 31.72 km</desc>
<time>2011-05-22T09:34:42.46</time>
<name>7139</name>
<sym>Dot</sym>
</trkpt>
<trkpt lat="39.879377" lon="-8.441335">
<ele>288.0</ele>
<desc>Speed 5.5 km/h Distance 31.73 km</desc>
<time>2011-05-22T09:34:43.46</time>
<name>7140</name>
<sym>Dot</sym>
</trkpt>
<trkpt lat="39.879362" lon="-8.441338">
<ele>288.0</ele>
<desc>Speed 5.3 km/h Distance 31.73 km</desc>
<time>2011-05-22T09:34:44.46</time>
<name>7141</name>
<sym>Dot</sym>
</trkpt>
<trkpt lat="39.879348" lon="-8.441343">
<ele>288.0</ele>
<desc>Speed 5.5 km/h Distance 31.73 km</desc>
<time>2011-05-22T09:34:45.46</time>
<name>7142</name>
<sym>Dot</sym>
</trkpt>
<trkpt lat="39.879335" lon="-8.441348">
<ele>288.0</ele>
<desc>Speed 5.6 km/h Distance 31.73 km</desc>
<time>2011-05-22T09:34:46.46</time>
<name>7143</name>
<sym>Dot</sym>
</trkpt>
<trkpt lat="39.879320" lon="-8.441352">
<ele>288.5</ele>
<desc>Speed 5.8 km/h Distance 31.73 km</desc>
<time>2011-05-22T09:34:47.46</time>
<name>7144</name>
<sym>Dot</sym>
</trkpt>
<trkpt lat="39.879305" lon="-8.441353">
<ele>288.5</ele>
<desc>Speed 5.9 km/h Distance 31.73 km</desc>
<time>2011-05-22T09:34:48.46</time>
<name>7145</name>
<sym>Dot</sym>
</trkpt>
<trkpt lat="39.879290" lon="-8.441355">
<ele>288.5</ele>
<desc>Speed 5.8 km/h Distance 31.74 km</desc>
<time>2011-05-22T09:34:49.46</time>
<name>7146</name>
<sym>Dot</sym>
</trkpt>
<trkpt lat="39.879273" lon="-8.441357">
<ele>288.5</ele>
<desc>Speed 6.5 km/h Distance 31.74 km</desc>
<time>2011-05-22T09:34:50.46</time>
<name>7147</name>
<sym>Dot</sym>
</trkpt>
<trkpt lat="39.879257" lon="-8.441355">
<ele>288.5</ele>
<desc>Speed 6.7 km/h Distance 31.74 km</desc>
<time>2011-05-22T09:34:51.46</time>
<name>7148</name>
<sym>Dot</sym>
</trkpt>
<trkpt lat="39.879238" lon="-8.441355">
<ele>288.5</ele>
<desc>Speed 7.2 km/h Distance 31.74 km</desc>
<time>2011-05-22T09:34:52.46</time>
<name>7149</name>
<sym>Dot</sym>
</trkpt>
<trkpt lat="39.879220" lon="-8.441355">
<ele>288.5</ele>
<desc>Speed 7.2 km/h Distance 31.74 km</desc>
<time>2011-05-22T09:34:53.46</time>
<name>7150</name>
<sym>Dot</sym>
</trkpt>
<trkpt lat="39.879202" lon="-8.441358">
<ele>289.0</ele>
<desc>Speed 7.3 km/h Distance 31.75 km</desc>
<time>2011-05-22T09:34:54.46</time>
<name>7151</name>
<sym>Dot</sym>
</trkpt>
<trkpt lat="39.879183" lon="-8.441362">
<ele>289.0</ele>
<desc>Speed 7.0 km/h Distance 31.75 km</desc>
<time>2011-05-22T09:34:55.46</time>
<name>7152</name>
<sym>Dot</sym>
</trkpt>
<trkpt lat="39.879165" lon="-8.441362">
<ele>289.0</ele>
<desc>Speed 6.9 km/h Distance 31.75 km</desc>
<time>2011-05-22T09:34:56.46</time>
<name>7153</name>
<sym>Dot</sym>
</trkpt>
<trkpt lat="39.879147" lon="-8.441358">
<ele>289.0</ele>
<desc>Speed 7.3 km/h Distance 31.75 km</desc>
<time>2011-05-22T09:34:57.46</time>
<name>7154</name>
<sym>Dot</sym>
</trkpt>
<trkpt lat="39.879128" lon="-8.441355">
<ele>289.0</ele>
<desc>Speed 7.2 km/h Distance 31.75 km</desc>
<time>2011-05-22T09:34:58.46</time>
<name>7155</name>
<sym>Dot</sym>
</trkpt>
<trkpt lat="39.879110" lon="-8.441350">
<ele>289.0</ele>
<desc>Speed 7.7 km/h Distance 31.76 km</desc>
<time>2011-05-22T09:34:59.46</time>
<name>7156</name>
<sym>Dot</sym>
</trkpt>
<trkpt lat="39.879092" lon="-8.441345">
<ele>289.5</ele>
<desc>Speed 7.5 km/h Distance 31.76 km</desc>
<time>2011-05-22T09:35:00.45</time>
<name>7157</name>
<sym>Dot</sym>
</trkpt>
<trkpt lat="39.879075" lon="-8.441340">
<ele>289.5</ele>
<desc>Speed 6.8 km/h Distance 31.76 km</desc>
<time>2011-05-22T09:35:01.45</time>
<name>7158</name>
<sym>Dot</sym>
</trkpt>
<trkpt lat="39.879057" lon="-8.441333">
<ele>289.5</ele>
<desc>Speed 7.6 km/h Distance 31.76 km</desc>
<time>2011-05-22T09:35:02.45</time>
<name>7159</name>
<sym>Dot</sym>
</trkpt>
<trkpt lat="39.879042" lon="-8.441320">
<ele>289.5</ele>
<desc>Speed 7.6 km/h Distance 31.76 km</desc>
<time>2011-05-22T09:35:03.45</time>
<name>7160</name>
<sym>Dot</sym>
</trkpt>
<trkpt lat="39.879025" lon="-8.441305">
<ele>290.0</ele>
<desc>Speed 7.7 km/h Distance 31.77 km</desc>
<time>2011-05-22T09:35:04.45</time>
<name>7161</name>
<sym>Dot</sym>
</trkpt>
<trkpt lat="39.879005" lon="-8.441293">
<ele>290.5</ele>
<desc>Speed 9.4 km/h Distance 31.77 km</desc>
<time>2011-05-22T09:35:05.45</time>
<name>7162</name>
<sym>Dot</sym>
</trkpt>
<trkpt lat="39.878982" lon="-8.441282">
<ele>290.5</ele>
<desc>Speed 9.8 km/h Distance 31.77 km</desc>
<time>2011-05-22T09:35:06.45</time>
<name>7163</name>
<sym>Dot</sym>
</trkpt>
<trkpt lat="39.878958" lon="-8.441272">
<ele>290.5</ele>
<desc>Speed 9.5 km/h Distance 31.77 km</desc>
<time>2011-05-22T09:35:07.45</time>
<name>7164</name>
<sym>Dot</sym>
</trkpt>
<trkpt lat="39.878938" lon="-8.441258">
<ele>291.0</ele>
<desc>Speed 9.3 km/h Distance 31.78 km</desc>
<time>2011-05-22T09:35:08.45</time>
<name>7165</name>
<sym>Dot</sym>
</trkpt>
<trkpt lat="39.878917" lon="-8.441247">
<ele>291.5</ele>
<desc>Speed 9.5 km/h Distance 31.78 km</desc>
<time>2011-05-22T09:35:09.45</time>
<name>7166</name>
<sym>Dot</sym>
</trkpt>
<trkpt lat="39.878895" lon="-8.441235">
<ele>292.0</ele>
<desc>Speed 9.4 km/h Distance 31.78 km</desc>
<time>2011-05-22T09:35:10.45</time>
<name>7167</name>
<sym>Dot</sym>
</trkpt>
<trkpt lat="39.878875" lon="-8.441222">
<ele>291.5</ele>
<desc>Speed 9.2 km/h Distance 31.78 km</desc>
<time>2011-05-22T09:35:11.45</time>
<name>7168</name>
<sym>Dot</sym>
</trkpt>
<trkpt lat="39.878855" lon="-8.441207">
<ele>291.5</ele>
<desc>Speed 9.1 km/h Distance 31.79 km</desc>
<time>2011-05-22T09:35:12.45</time>
<name>7169</name>
<sym>Dot</sym>
</trkpt>
<trkpt lat="39.878833" lon="-8.441193">
<ele>291.5</ele>
<desc>Speed 9.3 km/h Distance 31.79 km</desc>
<time>2011-05-22T09:35:13.45</time>
<name>7170</name>
<sym>Dot</sym>
</trkpt>
<trkpt lat="39.878812" lon="-8.441178">
<ele>291.5</ele>
<desc>Speed 9.8 km/h Distance 31.79 km</desc>
<time>2011-05-22T09:35:14.45</time>
<name>7171</name>
<sym>Dot</sym>
</trkpt>
<trkpt lat="39.878790" lon="-8.441165">
<ele>291.0</ele>
<desc>Speed 9.7 km/h Distance 31.80 km</desc>
<time>2011-05-22T09:35:15.45</time>
<name>7172</name>
<sym>Dot</sym>
</trkpt>
<trkpt lat="39.878770" lon="-8.441148">
<ele>291.0</ele>
<desc>Speed 9.7 km/h Distance 31.80 km</desc>
<time>2011-05-22T09:35:16.45</time>
<name>7173</name>
<sym>Dot</sym>
</trkpt>
<trkpt lat="39.878750" lon="-8.441130">
<ele>291.0</ele>
<desc>Speed 9.7 km/h Distance 31.80 km</desc>
<time>2011-05-22T09:35:17.45</time>
<name>7174</name>
<sym>Dot</sym>
</trkpt>
<trkpt lat="39.878732" lon="-8.441108">
<ele>291.0</ele>
<desc>Speed 10.0 km/h Distance 31.80 km</desc>
<time>2011-05-22T09:35:18.45</time>
<name>7175</name>
<sym>Dot</sym>
</trkpt>
<trkpt lat="39.878710" lon="-8.441090">
<ele>291.0</ele>
<desc>Speed 9.9 km/h Distance 31.81 km</desc>
<time>2011-05-22T09:35:19.45</time>
<name>7176</name>
<sym>Dot</sym>
</trkpt>
<trkpt lat="39.878688" lon="-8.441073">
<ele>291.5</ele>
<desc>Speed 10.2 km/h Distance 31.81 km</desc>
<time>2011-05-22T09:35:20.45</time>
<name>7177</name>
<sym>Dot</sym>
</trkpt>
<trkpt lat="39.878667" lon="-8.441058">
<ele>291.5</ele>
<desc>Speed 10.0 km/h Distance 31.81 km</desc>
<time>2011-05-22T09:35:21.45</time>
<name>7178</name>
<sym>Dot</sym>
</trkpt>
<trkpt lat="39.878640" lon="-8.441047">
<ele>292.5</ele>
<desc>Speed 11.2 km/h Distance 31.81 km</desc>
<time>2011-05-22T09:35:22.45</time>
<name>7179</name>
<sym>Dot</sym>
</trkpt>
<trkpt lat="39.878612" lon="-8.441033">
<ele>293.5</ele>
<desc>Speed 12.1 km/h Distance 31.82 km</desc>
<time>2011-05-22T09:35:23.45</time>
<name>7180</name>
<sym>Dot</sym>
</trkpt>
<trkpt lat="39.878582" lon="-8.441020">
<ele>294.5</ele>
<desc>Speed 12.5 km/h Distance 31.82 km</desc>
<time>2011-05-22T09:35:24.45</time>
<name>7181</name>
<sym>Dot</sym>
</trkpt>
<trkpt lat="39.878550" lon="-8.441010">
<ele>295.5</ele>
<desc>Speed 13.0 km/h Distance 31.83 km</desc>
<time>2011-05-22T09:35:25.45</time>
<name>7182</name>
<sym>Dot</sym>
</trkpt>
<trkpt lat="39.878518" lon="-8.440998">
<ele>296.0</ele>
<desc>Speed 13.0 km/h Distance 31.83 km</desc>
<time>2011-05-22T09:35:26.45</time>
<name>7183</name>
<sym>Dot</sym>
</trkpt>
<trkpt lat="39.878488" lon="-8.440988">
<ele>296.0</ele>
<desc>Speed 12.9 km/h Distance 31.83 km</desc>
<time>2011-05-22T09:35:27.45</time>
<name>7184</name>
<sym>Dot</sym>
</trkpt>
<trkpt lat="39.878457" lon="-8.440980">
<ele>296.5</ele>
<desc>Speed 12.9 km/h Distance 31.84 km</desc>
<time>2011-05-22T09:35:28.45</time>
<name>7185</name>
<sym>Dot</sym>
</trkpt>
<trkpt lat="39.878423" lon="-8.440975">
<ele>296.5</ele>
<desc>Speed 13.2 km/h Distance 31.84 km</desc>
<time>2011-05-22T09:35:29.45</time>
<name>7186</name>
<sym>Dot</sym>
</trkpt>
<trkpt lat="39.878390" lon="-8.440975">
<ele>296.0</ele>
<desc>Speed 13.2 km/h Distance 31.84 km</desc>
<time>2011-05-22T09:35:30.45</time>
<name>7187</name>
<sym>Dot</sym>
</trkpt>
<trkpt lat="39.878357" lon="-8.440975">
<ele>296.0</ele>
<desc>Speed 13.7 km/h Distance 31.85 km</desc>
<time>2011-05-22T09:35:31.45</time>
<name>7188</name>
<sym>Dot</sym>
</trkpt>
<trkpt lat="39.878323" lon="-8.440973">
<ele>296.0</ele>
<desc>Speed 13.4 km/h Distance 31.85 km</desc>
<time>2011-05-22T09:35:32.45</time>
<name>7189</name>
<sym>Dot</sym>
</trkpt>
<trkpt lat="39.878290" lon="-8.440973">
<ele>295.5</ele>
<desc>Speed 13.3 km/h Distance 31.85 km</desc>
<time>2011-05-22T09:35:33.45</time>
<name>7190</name>
<sym>Dot</sym>
</trkpt>
<trkpt lat="39.878258" lon="-8.440978">
<ele>295.5</ele>
<desc>Speed 13.0 km/h Distance 31.86 km</desc>
<time>2011-05-22T09:35:34.45</time>
<name>7191</name>
<sym>Dot</sym>
</trkpt>
<trkpt lat="39.878227" lon="-8.440987">
<ele>295.0</ele>
<desc>Speed 13.0 km/h Distance 31.86 km</desc>
<time>2011-05-22T09:35:35.45</time>
<name>7192</name>
<sym>Dot</sym>
</trkpt>
<trkpt lat="39.878195" lon="-8.440995">
<ele>294.5</ele>
<desc>Speed 13.2 km/h Distance 31.87 km</desc>
<time>2011-05-22T09:35:36.45</time>
<name>7193</name>
<sym>Dot</sym>
</trkpt>
<trkpt lat="39.878163" lon="-8.441005">
<ele>294.0</ele>
<desc>Speed 13.2 km/h Distance 31.87 km</desc>
<time>2011-05-22T09:35:37.45</time>
<name>7194</name>
<sym>Dot</sym>
</trkpt>
<trkpt lat="39.878133" lon="-8.441013">
<ele>293.5</ele>
<desc>Speed 13.0 km/h Distance 31.87 km</desc>
<time>2011-05-22T09:35:38.45</time>
<name>7195</name>
<sym>Dot</sym>
</trkpt>
<trkpt lat="39.878102" lon="-8.441027">
<ele>293.0</ele>
<desc>Speed 13.1 km/h Distance 31.88 km</desc>
<time>2011-05-22T09:35:39.45</time>
<name>7196</name>
<sym>Dot</sym>
</trkpt>
<trkpt lat="39.878072" lon="-8.441037">
<ele>293.0</ele>
<desc>Speed 12.7 km/h Distance 31.88 km</desc>
<time>2011-05-22T09:35:40.45</time>
<name>7197</name>
<sym>Dot</sym>
</trkpt>
<trkpt lat="39.878045" lon="-8.441038">
<ele>294.5</ele>
<desc>Speed 10.6 km/h Distance 31.88 km</desc>
<time>2011-05-22T09:35:41.45</time>
<name>7198</name>
<sym>Dot</sym>
</trkpt>
<trkpt lat="39.878017" lon="-8.441047">
<ele>294.5</ele>
<desc>Speed 12.0 km/h Distance 31.89 km</desc>
<time>2011-05-22T09:35:42.45</time>
<name>7199</name>
<sym>Dot</sym>
</trkpt>
<trkpt lat="39.877988" lon="-8.441058">
<ele>294.5</ele>
<desc>Speed 11.9 km/h Distance 31.89 km</desc>
<time>2011-05-22T09:35:43.45</time>
<name>7200</name>
<sym>Dot</sym>
</trkpt>
<trkpt lat="39.877963" lon="-8.441073">
<ele>294.0</ele>
<desc>Speed 11.3 km/h Distance 31.89 km</desc>
<time>2011-05-22T09:35:44.45</time>
<name>7201</name>
<sym>Dot</sym>
</trkpt>
<trkpt lat="39.877940" lon="-8.441090">
<ele>294.0</ele>
<desc>Speed 10.9 km/h Distance 31.90 km</desc>
<time>2011-05-22T09:35:45.45</time>
<name>7202</name>
<sym>Dot</sym>
</trkpt>
<trkpt lat="39.877917" lon="-8.441102">
<ele>293.5</ele>
<desc>Speed 10.4 km/h Distance 31.90 km</desc>
<time>2011-05-22T09:35:46.45</time>
<name>7203</name>
<sym>Dot</sym>
</trkpt>
<trkpt lat="39.877893" lon="-8.441110">
<ele>293.0</ele>
<desc>Speed 10.2 km/h Distance 31.90 km</desc>
<time>2011-05-22T09:35:47.45</time>
<name>7204</name>
<sym>Dot</sym>
</trkpt>
<trkpt lat="39.877870" lon="-8.441115">
<ele>292.5</ele>
<desc>Speed 9.8 km/h Distance 31.90 km</desc>
<time>2011-05-22T09:35:48.45</time>
<name>7205</name>
<sym>Dot</sym>
</trkpt>
<trkpt lat="39.877847" lon="-8.441113">
<ele>292.5</ele>
<desc>Speed 9.6 km/h Distance 31.91 km</desc>
<time>2011-05-22T09:35:49.45</time>
<name>7206</name>
<sym>Dot</sym>
</trkpt>
<trkpt lat="39.877823" lon="-8.441112">
<ele>292.0</ele>
<desc>Speed 9.8 km/h Distance 31.91 km</desc>
<time>2011-05-22T09:35:50.45</time>
<name>7207</name>
<sym>Dot</sym>
</trkpt>
<trkpt lat="39.877798" lon="-8.441110">
<ele>292.0</ele>
<desc>Speed 9.9 km/h Distance 31.91 km</desc>
<time>2011-05-22T09:35:51.45</time>
<name>7208</name>
<sym>Dot</sym>
</trkpt>
<trkpt lat="39.877772" lon="-8.441113">
<ele>292.0</ele>
<desc>Speed 10.8 km/h Distance 31.91 km</desc>
<time>2011-05-22T09:35:52.45</time>
<name>7209</name>
<sym>Dot</sym>
</trkpt>
<trkpt lat="39.877745" lon="-8.441123">
<ele>291.5</ele>
<desc>Speed 11.6 km/h Distance 31.92 km</desc>
<time>2011-05-22T09:35:53.45</time>
<name>7210</name>
<sym>Dot</sym>
</trkpt>
<trkpt lat="39.877717" lon="-8.441135">
<ele>291.0</ele>
<desc>Speed 12.0 km/h Distance 31.92 km</desc>
<time>2011-05-22T09:35:54.45</time>
<name>7211</name>
<sym>Dot</sym>
</trkpt>
<trkpt lat="39.877687" lon="-8.441147">
<ele>290.5</ele>
<desc>Speed 12.6 km/h Distance 31.92 km</desc>
<time>2011-05-22T09:35:55.45</time>
<name>7212</name>
<sym>Dot</sym>
</trkpt>
<trkpt lat="39.877655" lon="-8.441153">
<ele>290.5</ele>
<desc>Speed 12.8 km/h Distance 31.93 km</desc>
<time>2011-05-22T09:35:56.45</time>
<name>7213</name>
<sym>Dot</sym>
</trkpt>
<trkpt lat="39.877623" lon="-8.441158">
<ele>290.5</ele>
<desc>Speed 13.0 km/h Distance 31.93 km</desc>
<time>2011-05-22T09:35:57.45</time>
<name>7214</name>
<sym>Dot</sym>
</trkpt>
<trkpt lat="39.877590" lon="-8.441162">
<ele>290.5</ele>
<desc>Speed 13.5 km/h Distance 31.93 km</desc>
<time>2011-05-22T09:35:58.45</time>
<name>7215</name>
<sym>Dot</sym>
</trkpt>
<trkpt lat="39.877557" lon="-8.441168">
<ele>290.0</ele>
<desc>Speed 13.8 km/h Distance 31.94 km</desc>
<time>2011-05-22T09:35:59.45</time>
<name>7216</name>
<sym>Dot</sym>
</trkpt>
<trkpt lat="39.877522" lon="-8.441175">
<ele>289.5</ele>
<desc>Speed 14.0 km/h Distance 31.94 km</desc>
<time>2011-05-22T09:36:00.44</time>
<name>7217</name>
<sym>Dot</sym>
</trkpt>
<trkpt lat="39.877487" lon="-8.441178">
<ele>289.5</ele>
<desc>Speed 14.3 km/h Distance 31.95 km</desc>
<time>2011-05-22T09:36:01.44</time>
<name>7218</name>
<sym>Dot</sym>
</trkpt>
<trkpt lat="39.877450" lon="-8.441182">
<ele>289.5</ele>
<desc>Speed 14.7 km/h Distance 31.95 km</desc>
<time>2011-05-22T09:36:02.44</time>
<name>7219</name>
<sym>Dot</sym>
</trkpt>
<trkpt lat="39.877413" lon="-8.441188">
<ele>289.0</ele>
<desc>Speed 14.9 km/h Distance 31.95 km</desc>
<time>2011-05-22T09:36:03.44</time>
<name>7220</name>
<sym>Dot</sym>
</trkpt>
<trkpt lat="39.877377" lon="-8.441198">
<ele>288.5</ele>
<desc>Speed 14.9 km/h Distance 31.96 km</desc>
<time>2011-05-22T09:36:04.44</time>
<name>7221</name>
<sym>Dot</sym>
</trkpt>
<trkpt lat="39.877340" lon="-8.441207">
<ele>288.0</ele>
<desc>Speed 14.8 km/h Distance 31.96 km</desc>
<time>2011-05-22T09:36:05.44</time>
<name>7222</name>
<sym>Dot</sym>
</trkpt>
<trkpt lat="39.877305" lon="-8.441215">
<ele>287.5</ele>
<desc>Speed 14.7 km/h Distance 31.97 km</desc>
<time>2011-05-22T09:36:06.44</time>
<name>7223</name>
<sym>Dot</sym>
</trkpt>
<trkpt lat="39.877267" lon="-8.441220">
<ele>287.5</ele>
<desc>Speed 15.2 km/h Distance 31.97 km</desc>
<time>2011-05-22T09:36:07.44</time>
<name>7224</name>
<sym>Dot</sym>
</trkpt>
<trkpt lat="39.877228" lon="-8.441225">
<ele>287.5</ele>
<desc>Speed 15.2 km/h Distance 31.98 km</desc>
<time>2011-05-22T09:36:08.44</time>
<name>7225</name>
<sym>Dot</sym>
</trkpt>
<trkpt lat="39.877193" lon="-8.441228">
<ele>287.0</ele>
<desc>Speed 14.4 km/h Distance 31.98 km</desc>
<time>2011-05-22T09:36:09.44</time>
<name>7226</name>
<sym>Dot</sym>
</trkpt>
<trkpt lat="39.877157" lon="-8.441233">
<ele>287.0</ele>
<desc>Speed 14.5 km/h Distance 31.98 km</desc>
<time>2011-05-22T09:36:10.44</time>
<name>7227</name>
<sym>Dot</sym>
</trkpt>
<trkpt lat="39.877122" lon="-8.441238">
<ele>286.5</ele>
<desc>Speed 14.2 km/h Distance 31.99 km</desc>
<time>2011-05-22T09:36:11.44</time>
<name>7228</name>
<sym>Dot</sym>
</trkpt>
<trkpt lat="39.877085" lon="-8.441243">
<ele>286.5</ele>
<desc>Speed 14.2 km/h Distance 31.99 km</desc>
<time>2011-05-22T09:36:12.44</time>
<name>7229</name>
<sym>Dot</sym>
</trkpt>
<trkpt lat="39.877050" lon="-8.441248">
<ele>286.5</ele>
<desc>Speed 14.4 km/h Distance 32.00 km</desc>
<time>2011-05-22T09:36:13.44</time>
<name>7230</name>
<sym>Dot</sym>
</trkpt>
<trkpt lat="39.877017" lon="-8.441252">
<ele>287.0</ele>
<desc>Speed 13.4 km/h Distance 32.00 km</desc>
<time>2011-05-22T09:36:14.44</time>
<name>7231</name>
<sym>Dot</sym>
</trkpt>
<trkpt lat="39.876982" lon="-8.441255">
<ele>286.5</ele>
<desc>Speed 14.0 km/h Distance 32.00 km</desc>
<time>2011-05-22T09:36:15.44</time>
<name>7232</name>
<sym>Dot</sym>
</trkpt>
<trkpt lat="39.876950" lon="-8.441260">
<ele>287.0</ele>
<desc>Speed 13.2 km/h Distance 32.01 km</desc>
<time>2011-05-22T09:36:16.44</time>
<name>7233</name>
<sym>Dot</sym>
</trkpt>
<trkpt lat="39.876915" lon="-8.441267">
<ele>287.0</ele>
<desc>Speed 14.2 km/h Distance 32.01 km</desc>
<time>2011-05-22T09:36:17.44</time>
<name>7234</name>
<sym>Dot</sym>
</trkpt>
<trkpt lat="39.876880" lon="-8.441273">
<ele>287.0</ele>
<desc>Speed 14.0 km/h Distance 32.01 km</desc>
<time>2011-05-22T09:36:18.44</time>
<name>7235</name>
<sym>Dot</sym>
</trkpt>
<trkpt lat="39.876845" lon="-8.441283">
<ele>286.5</ele>
<desc>Speed 14.2 km/h Distance 32.02 km</desc>
<time>2011-05-22T09:36:19.44</time>
<name>7236</name>
<sym>Dot</sym>
</trkpt>
<trkpt lat="39.876810" lon="-8.441292">
<ele>286.0</ele>
<desc>Speed 14.2 km/h Distance 32.02 km</desc>
<time>2011-05-22T09:36:20.44</time>
<name>7237</name>
<sym>Dot</sym>
</trkpt>
<trkpt lat="39.876775" lon="-8.441298">
<ele>285.5</ele>
<desc>Speed 13.4 km/h Distance 32.03 km</desc>
<time>2011-05-22T09:36:21.44</time>
<name>7238</name>
<sym>Dot</sym>
</trkpt>
<trkpt lat="39.876740" lon="-8.441303">
<ele>285.5</ele>
<desc>Speed 14.4 km/h Distance 32.03 km</desc>
<time>2011-05-22T09:36:22.44</time>
<name>7239</name>
<sym>Dot</sym>
</trkpt>
<trkpt lat="39.876703" lon="-8.441308">
<ele>285.5</ele>
<desc>Speed 14.4 km/h Distance 32.03 km</desc>
<time>2011-05-22T09:36:23.44</time>
<name>7240</name>
<sym>Dot</sym>
</trkpt>
<trkpt lat="39.876668" lon="-8.441315">
<ele>285.0</ele>
<desc>Speed 14.5 km/h Distance 32.04 km</desc>
<time>2011-05-22T09:36:24.44</time>
<name>7241</name>
<sym>Dot</sym>
</trkpt>
<trkpt lat="39.876632" lon="-8.441318">
<ele>285.0</ele>
<desc>Speed 14.4 km/h Distance 32.04 km</desc>
<time>2011-05-22T09:36:25.44</time>
<name>7242</name>
<sym>Dot</sym>
</trkpt>
<trkpt lat="39.876597" lon="-8.441322">
<ele>285.0</ele>
<desc>Speed 14.1 km/h Distance 32.05 km</desc>
<time>2011-05-22T09:36:26.44</time>
<name>7243</name>
<sym>Dot</sym>
</trkpt>
<trkpt lat="39.876563" lon="-8.441327">
<ele>285.0</ele>
<desc>Speed 13.5 km/h Distance 32.05 km</desc>
<time>2011-05-22T09:36:27.44</time>
<name>7244</name>
<sym>Dot</sym>
</trkpt>
<trkpt lat="39.876530" lon="-8.441332">
<ele>285.5</ele>
<desc>Speed 13.4 km/h Distance 32.05 km</desc>
<time>2011-05-22T09:36:28.44</time>
<name>7245</name>
<sym>Dot</sym>
</trkpt>
<trkpt lat="39.876495" lon="-8.441333">
<ele>285.5</ele>
<desc>Speed 13.9 km/h Distance 32.06 km</desc>
<time>2011-05-22T09:36:29.44</time>
<name>7246</name>
<sym>Dot</sym>
</trkpt>
<trkpt lat="39.876460" lon="-8.441338">
<ele>286.0</ele>
<desc>Speed 14.1 km/h Distance 32.06 km</desc>
<time>2011-05-22T09:36:30.44</time>
<name>7247</name>
<sym>Dot</sym>
</trkpt>
<trkpt lat="39.876427" lon="-8.441343">
<ele>286.0</ele>
<desc>Speed 13.8 km/h Distance 32.07 km</desc>
<time>2011-05-22T09:36:31.44</time>
<name>7248</name>
<sym>Dot</sym>
</trkpt>
<trkpt lat="39.876392" lon="-8.441350">
<ele>286.0</ele>
<desc>Speed 14.1 km/h Distance 32.07 km</desc>
<time>2011-05-22T09:36:32.44</time>
<name>7249</name>
<sym>Dot</sym>
</trkpt>
<trkpt lat="39.876357" lon="-8.441355">
<ele>285.5</ele>
<desc>Speed 14.1 km/h Distance 32.07 km</desc>
<time>2011-05-22T09:36:33.44</time>
<name>7250</name>
<sym>Dot</sym>
</trkpt>
<trkpt lat="39.876320" lon="-8.441360">
<ele>285.5</ele>
<desc>Speed 14.2 km/h Distance 32.08 km</desc>
<time>2011-05-22T09:36:34.44</time>
<name>7251</name>
<sym>Dot</sym>
</trkpt>
<trkpt lat="39.876285" lon="-8.441365">
<ele>285.5</ele>
<desc>Speed 14.0 km/h Distance 32.08 km</desc>
<time>2011-05-22T09:36:35.44</time>
<name>7252</name>
<sym>Dot</sym>
</trkpt>
<trkpt lat="39.876252" lon="-8.441370">
<ele>285.5</ele>
<desc>Speed 13.8 km/h Distance 32.09 km</desc>
<time>2011-05-22T09:36:36.44</time>
<name>7253</name>
<sym>Dot</sym>
</trkpt>
<trkpt lat="39.876218" lon="-8.441373">
<ele>285.5</ele>
<desc>Speed 13.6 km/h Distance 32.09 km</desc>
<time>2011-05-22T09:36:37.44</time>
<name>7254</name>
<sym>Dot</sym>
</trkpt>
<trkpt lat="39.876185" lon="-8.441380">
<ele>285.0</ele>
<desc>Speed 14.0 km/h Distance 32.09 km</desc>
<time>2011-05-22T09:36:38.44</time>
<name>7255</name>
<sym>Dot</sym>
</trkpt>
<trkpt lat="39.876150" lon="-8.441383">
<ele>285.0</ele>
<desc>Speed 13.9 km/h Distance 32.10 km</desc>
<time>2011-05-22T09:36:39.44</time>
<name>7256</name>
<sym>Dot</sym>
</trkpt>
<trkpt lat="39.876117" lon="-8.441388">
<ele>285.5</ele>
<desc>Speed 13.3 km/h Distance 32.10 km</desc>
<time>2011-05-22T09:36:40.44</time>
<name>7257</name>
<sym>Dot</sym>
</trkpt>
<trkpt lat="39.876083" lon="-8.441392">
<ele>285.5</ele>
<desc>Speed 13.7 km/h Distance 32.10 km</desc>
<time>2011-05-22T09:36:41.44</time>
<name>7258</name>
<sym>Dot</sym>
</trkpt>
<trkpt lat="39.876048" lon="-8.441395">
<ele>285.5</ele>
<desc>Speed 14.1 km/h Distance 32.11 km</desc>
<time>2011-05-22T09:36:42.44</time>
<name>7259</name>
<sym>Dot</sym>
</trkpt>
<trkpt lat="39.876013" lon="-8.441397">
<ele>285.5</ele>
<desc>Speed 14.0 km/h Distance 32.11 km</desc>
<time>2011-05-22T09:36:43.44</time>
<name>7260</name>
<sym>Dot</sym>
</trkpt>
<trkpt lat="39.875980" lon="-8.441400">
<ele>286.0</ele>
<desc>Speed 13.5 km/h Distance 32.12 km</desc>
<time>2011-05-22T09:36:44.44</time>
<name>7261</name>
<sym>Dot</sym>
</trkpt>
<trkpt lat="39.875945" lon="-8.441403">
<ele>286.0</ele>
<desc>Speed 14.1 km/h Distance 32.12 km</desc>
<time>2011-05-22T09:36:45.44</time>
<name>7262</name>
<sym>Dot</sym>
</trkpt>
<trkpt lat="39.875908" lon="-8.441408">
<ele>286.0</ele>
<desc>Speed 14.3 km/h Distance 32.12 km</desc>
<time>2011-05-22T09:36:46.44</time>
<name>7263</name>
<sym>Dot</sym>
</trkpt>
<trkpt lat="39.875875" lon="-8.441413">
<ele>286.5</ele>
<desc>Speed 13.8 km/h Distance 32.13 km</desc>
<time>2011-05-22T09:36:47.44</time>
<name>7264</name>
<sym>Dot</sym>
</trkpt>
<trkpt lat="39.875843" lon="-8.441420">
<ele>286.5</ele>
<desc>Speed 13.1 km/h Distance 32.13 km</desc>
<time>2011-05-22T09:36:48.44</time>
<name>7265</name>
<sym>Dot</sym>
</trkpt>
<trkpt lat="39.875813" lon="-8.441427">
<ele>287.0</ele>
<desc>Speed 12.3 km/h Distance 32.13 km</desc>
<time>2011-05-22T09:36:49.44</time>
<name>7266</name>
<sym>Dot</sym>
</trkpt>
<trkpt lat="39.875782" lon="-8.441430">
<ele>287.5</ele>
<desc>Speed 12.7 km/h Distance 32.14 km</desc>
<time>2011-05-22T09:36:50.44</time>
<name>7267</name>
<sym>Dot</sym>
</trkpt>
<trkpt lat="39.875750" lon="-8.441432">
<ele>287.5</ele>
<desc>Speed 12.6 km/h Distance 32.14 km</desc>
<time>2011-05-22T09:36:51.44</time>
<name>7268</name>
<sym>Dot</sym>
</trkpt>
<trkpt lat="39.875718" lon="-8.441433">
<ele>288.0</ele>
<desc>Speed 12.9 km/h Distance 32.14 km</desc>
<time>2011-05-22T09:36:52.44</time>
<name>7269</name>
<sym>Dot</sym>
</trkpt>
<trkpt lat="39.875687" lon="-8.441437">
<ele>288.0</ele>
<desc>Speed 12.8 km/h Distance 32.15 km</desc>
<time>2011-05-22T09:36:53.44</time>
<name>7270</name>
<sym>Dot</sym>
</trkpt>
<trkpt lat="39.875655" lon="-8.441443">
<ele>287.5</ele>
<desc>Speed 13.0 km/h Distance 32.15 km</desc>
<time>2011-05-22T09:36:54.44</time>
<name>7271</name>
<sym>Dot</sym>
</trkpt>
<trkpt lat="39.875620" lon="-8.441447">
<ele>287.5</ele>
<desc>Speed 13.5 km/h Distance 32.16 km</desc>
<time>2011-05-22T09:36:55.44</time>
<name>7272</name>
<sym>Dot</sym>
</trkpt>
<trkpt lat="39.875587" lon="-8.441453">
<ele>286.5</ele>
<desc>Speed 13.7 km/h Distance 32.16 km</desc>
<time>2011-05-22T09:36:56.44</time>
<name>7273</name>
<sym>Dot</sym>
</trkpt>
<trkpt lat="39.875553" lon="-8.441462">
<ele>285.5</ele>
<desc>Speed 13.6 km/h Distance 32.16 km</desc>
<time>2011-05-22T09:36:57.44</time>
<name>7274</name>
<sym>Dot</sym>
</trkpt>
<trkpt lat="39.875517" lon="-8.441470">
<ele>285.0</ele>
<desc>Speed 14.7 km/h Distance 32.17 km</desc>
<time>2011-05-22T09:36:58.44</time>
<name>7275</name>
<sym>Dot</sym>
</trkpt>
<trkpt lat="39.875482" lon="-8.441482">
<ele>283.5</ele>
<desc>Speed 14.1 km/h Distance 32.17 km</desc>
<time>2011-05-22T09:36:59.44</time>
<name>7276</name>
<sym>Dot</sym>
</trkpt>
<trkpt lat="39.875450" lon="-8.441485">
<ele>284.0</ele>
<desc>Speed 12.7 km/h Distance 32.18 km</desc>
<time>2011-05-22T09:37:00.43</time>
<name>7277</name>
<sym>Dot</sym>
</trkpt>
<trkpt lat="39.875423" lon="-8.441487">
<ele>284.5</ele>
<desc>Speed 11.3 km/h Distance 32.18 km</desc>
<time>2011-05-22T09:37:01.43</time>
<name>7278</name>
<sym>Dot</sym>
</trkpt>
<trkpt lat="39.875392" lon="-8.441492">
<ele>285.0</ele>
<desc>Speed 12.1 km/h Distance 32.18 km</desc>
<time>2011-05-22T09:37:02.43</time>
<name>7279</name>
<sym>Dot</sym>
</trkpt>
<trkpt lat="39.875362" lon="-8.441495">
<ele>286.0</ele>
<desc>Speed 12.2 km/h Distance 32.18 km</desc>
<time>2011-05-22T09:37:03.43</time>
<name>7280</name>
<sym>Dot</sym>
</trkpt>
<trkpt lat="39.875340" lon="-8.441510">
<ele>287.5</ele>
<desc>Speed 9.8 km/h Distance 32.19 km</desc>
<time>2011-05-22T09:37:04.43</time>
<name>7281</name>
<sym>Dot</sym>
</trkpt>
<trkpt lat="39.875318" lon="-8.441523">
<ele>288.5</ele>
<desc>Speed 9.6 km/h Distance 32.19 km</desc>
<time>2011-05-22T09:37:05.43</time>
<name>7282</name>
<sym>Dot</sym>
</trkpt>
<trkpt lat="39.875292" lon="-8.441538">
<ele>289.0</ele>
<desc>Speed 11.6 km/h Distance 32.19 km</desc>
<time>2011-05-22T09:37:06.43</time>
<name>7283</name>
<sym>Dot</sym>
</trkpt>
<trkpt lat="39.875265" lon="-8.441553">
<ele>289.5</ele>
<desc>Speed 11.6 km/h Distance 32.20 km</desc>
<time>2011-05-22T09:37:07.43</time>
<name>7284</name>
<sym>Dot</sym>
</trkpt>
<trkpt lat="39.875237" lon="-8.441567">
<ele>289.5</ele>
<desc>Speed 11.5 km/h Distance 32.20 km</desc>
<time>2011-05-22T09:37:08.43</time>
<name>7285</name>
<sym>Dot</sym>
</trkpt>
<trkpt lat="39.875212" lon="-8.441578">
<ele>290.0</ele>
<desc>Speed 11.1 km/h Distance 32.20 km</desc>
<time>2011-05-22T09:37:09.43</time>
<name>7286</name>
<sym>Dot</sym>
</trkpt>
<trkpt lat="39.875185" lon="-8.441588">
<ele>290.5</ele>
<desc>Speed 10.9 km/h Distance 32.21 km</desc>
<time>2011-05-22T09:37:10.43</time>
<name>7287</name>
<sym>Dot</sym>
</trkpt>
<trkpt lat="39.875162" lon="-8.441597">
<ele>291.0</ele>
<desc>Speed 10.2 km/h Distance 32.21 km</desc>
<time>2011-05-22T09:37:11.43</time>
<name>7288</name>
<sym>Dot</sym>
</trkpt>
<trkpt lat="39.875137" lon="-8.441608">
<ele>291.5</ele>
<desc>Speed 10.2 km/h Distance 32.21 km</desc>
<time>2011-05-22T09:37:12.43</time>
<name>7289</name>
<sym>Dot</sym>
</trkpt>
<trkpt lat="39.875113" lon="-8.441620">
<ele>291.5</ele>
<desc>Speed 10.1 km/h Distance 32.21 km</desc>
<time>2011-05-22T09:37:13.43</time>
<name>7290</name>
<sym>Dot</sym>
</trkpt>
<trkpt lat="39.875092" lon="-8.441630">
<ele>291.5</ele>
<desc>Speed 9.6 km/h Distance 32.22 km</desc>
<time>2011-05-22T09:37:14.43</time>
<name>7291</name>
<sym>Dot</sym>
</trkpt>
<trkpt lat="39.875070" lon="-8.441640">
<ele>292.0</ele>
<desc>Speed 9.1 km/h Distance 32.22 km</desc>
<time>2011-05-22T09:37:15.43</time>
<name>7292</name>
<sym>Dot</sym>
</trkpt>
<trkpt lat="39.875047" lon="-8.441653">
<ele>292.0</ele>
<desc>Speed 9.9 km/h Distance 32.22 km</desc>
<time>2011-05-22T09:37:16.43</time>
<name>7293</name>
<sym>Dot</sym>
</trkpt>
<trkpt lat="39.875025" lon="-8.441668">
<ele>292.5</ele>
<desc>Speed 9.9 km/h Distance 32.23 km</desc>
<time>2011-05-22T09:37:17.43</time>
<name>7294</name>
<sym>Dot</sym>
</trkpt>
<trkpt lat="39.875003" lon="-8.441682">
<ele>292.5</ele>
<desc>Speed 10.5 km/h Distance 32.23 km</desc>
<time>2011-05-22T09:37:18.43</time>
<name>7295</name>
<sym>Dot</sym>
</trkpt>
<trkpt lat="39.874980" lon="-8.441697">
<ele>292.5</ele>
<desc>Speed 10.4 km/h Distance 32.23 km</desc>
<time>2011-05-22T09:37:19.43</time>
<name>7296</name>
<sym>Dot</sym>
</trkpt>
<trkpt lat="39.874957" lon="-8.441713">
<ele>292.5</ele>
<desc>Speed 10.2 km/h Distance 32.23 km</desc>
<time>2011-05-22T09:37:20.43</time>
<name>7297</name>
<sym>Dot</sym>
</trkpt>
<trkpt lat="39.874938" lon="-8.441732">
<ele>293.0</ele>
<desc>Speed 9.9 km/h Distance 32.24 km</desc>
<time>2011-05-22T09:37:21.43</time>
<name>7298</name>
<sym>Dot</sym>
</trkpt>
<trkpt lat="39.874917" lon="-8.441745">
<ele>293.0</ele>
<desc>Speed 9.9 km/h Distance 32.24 km</desc>
<time>2011-05-22T09:37:22.43</time>
<name>7299</name>
<sym>Dot</sym>
</trkpt>
<trkpt lat="39.874895" lon="-8.441755">
<ele>293.0</ele>
<desc>Speed 9.5 km/h Distance 32.24 km</desc>
<time>2011-05-22T09:37:23.43</time>
<name>7300</name>
<sym>Dot</sym>
</trkpt>
<trkpt lat="39.874872" lon="-8.441762">
<ele>293.0</ele>
<desc>Speed 9.9 km/h Distance 32.24 km</desc>
<time>2011-05-22T09:37:24.43</time>
<name>7301</name>
<sym>Dot</sym>
</trkpt>
<trkpt lat="39.874848" lon="-8.441772">
<ele>293.0</ele>
<desc>Speed 10.0 km/h Distance 32.25 km</desc>
<time>2011-05-22T09:37:25.43</time>
<name>7302</name>
<sym>Dot</sym>
</trkpt>
<trkpt lat="39.874825" lon="-8.441783">
<ele>293.0</ele>
<desc>Speed 10.2 km/h Distance 32.25 km</desc>
<time>2011-05-22T09:37:26.43</time>
<name>7303</name>
<sym>Dot</sym>
</trkpt>
<trkpt lat="39.874802" lon="-8.441798">
<ele>293.0</ele>
<desc>Speed 10.2 km/h Distance 32.25 km</desc>
<time>2011-05-22T09:37:27.43</time>
<name>7304</name>
<sym>Dot</sym>
</trkpt>
<trkpt lat="39.874780" lon="-8.441813">
<ele>293.0</ele>
<desc>Speed 10.1 km/h Distance 32.26 km</desc>
<time>2011-05-22T09:37:28.43</time>
<name>7305</name>
<sym>Dot</sym>
</trkpt>
<trkpt lat="39.874758" lon="-8.441828">
<ele>293.0</ele>
<desc>Speed 10.0 km/h Distance 32.26 km</desc>
<time>2011-05-22T09:37:29.43</time>
<name>7306</name>
<sym>Dot</sym>
</trkpt>
<trkpt lat="39.874737" lon="-8.441843">
<ele>293.5</ele>
<desc>Speed 9.9 km/h Distance 32.26 km</desc>
<time>2011-05-22T09:37:30.43</time>
<name>7307</name>
<sym>Dot</sym>
</trkpt>
<trkpt lat="39.874713" lon="-8.441858">
<ele>293.5</ele>
<desc>Speed 10.2 km/h Distance 32.26 km</desc>
<time>2011-05-22T09:37:31.43</time>
<name>7308</name>
<sym>Dot</sym>
</trkpt>
<trkpt lat="39.874690" lon="-8.441868">
<ele>293.0</ele>
<desc>Speed 9.9 km/h Distance 32.27 km</desc>
<time>2011-05-22T09:37:32.43</time>
<name>7309</name>
<sym>Dot</sym>
</trkpt>
<trkpt lat="39.874667" lon="-8.441882">
<ele>293.5</ele>
<desc>Speed 9.8 km/h Distance 32.27 km</desc>
<time>2011-05-22T09:37:33.43</time>
<name>7310</name>
<sym>Dot</sym>
</trkpt>
<trkpt lat="39.874643" lon="-8.441898">
<ele>293.5</ele>
<desc>Speed 10.0 km/h Distance 32.27 km</desc>
<time>2011-05-22T09:37:34.43</time>
<name>7311</name>
<sym>Dot</sym>
</trkpt>
<trkpt lat="39.874620" lon="-8.441912">
<ele>293.0</ele>
<desc>Speed 10.3 km/h Distance 32.28 km</desc>
<time>2011-05-22T09:37:35.43</time>
<name>7312</name>
<sym>Dot</sym>
</trkpt>
<trkpt lat="39.874597" lon="-8.441925">
<ele>293.0</ele>
<desc>Speed 10.4 km/h Distance 32.28 km</desc>
<time>2011-05-22T09:37:36.43</time>
<name>7313</name>
<sym>Dot</sym>
</trkpt>
<trkpt lat="39.874572" lon="-8.441938">
<ele>293.0</ele>
<desc>Speed 10.2 km/h Distance 32.28 km</desc>
<time>2011-05-22T09:37:37.43</time>
<name>7314</name>
<sym>Dot</sym>
</trkpt>
<trkpt lat="39.874548" lon="-8.441952">
<ele>293.0</ele>
<desc>Speed 10.2 km/h Distance 32.28 km</desc>
<time>2011-05-22T09:37:38.43</time>
<name>7315</name>
<sym>Dot</sym>
</trkpt>
<trkpt lat="39.874527" lon="-8.441965">
<ele>293.0</ele>
<desc>Speed 10.1 km/h Distance 32.29 km</desc>
<time>2011-05-22T09:37:39.43</time>
<name>7316</name>
<sym>Dot</sym>
</trkpt>
<trkpt lat="39.874503" lon="-8.441977">
<ele>293.5</ele>
<desc>Speed 9.6 km/h Distance 32.29 km</desc>
<time>2011-05-22T09:37:40.43</time>
<name>7317</name>
<sym>Dot</sym>
</trkpt>
<trkpt lat="39.874482" lon="-8.441987">
<ele>293.5</ele>
<desc>Speed 9.8 km/h Distance 32.29 km</desc>
<time>2011-05-22T09:37:41.43</time>
<name>7318</name>
<sym>Dot</sym>
</trkpt>
<trkpt lat="39.874458" lon="-8.442000">
<ele>293.0</ele>
<desc>Speed 10.1 km/h Distance 32.29 km</desc>
<time>2011-05-22T09:37:42.43</time>
<name>7319</name>
<sym>Dot</sym>
</trkpt>
<trkpt lat="39.874438" lon="-8.442018">
<ele>293.5</ele>
<desc>Speed 10.2 km/h Distance 32.30 km</desc>
<time>2011-05-22T09:37:43.43</time>
<name>7320</name>
<sym>Dot</sym>
</trkpt>
<trkpt lat="39.874415" lon="-8.442033">
<ele>293.5</ele>
<desc>Speed 10.3 km/h Distance 32.30 km</desc>
<time>2011-05-22T09:37:44.43</time>
<name>7321</name>
<sym>Dot</sym>
</trkpt>
<trkpt lat="39.874390" lon="-8.442047">
<ele>293.5</ele>
<desc>Speed 10.8 km/h Distance 32.30 km</desc>
<time>2011-05-22T09:37:45.43</time>
<name>7322</name>
<sym>Dot</sym>
</trkpt>
<trkpt lat="39.874365" lon="-8.442063">
<ele>293.5</ele>
<desc>Speed 11.3 km/h Distance 32.31 km</desc>
<time>2011-05-22T09:37:46.43</time>
<name>7323</name>
<sym>Dot</sym>
</trkpt>
<trkpt lat="39.874338" lon="-8.442080">
<ele>293.5</ele>
<desc>Speed 11.6 km/h Distance 32.31 km</desc>
<time>2011-05-22T09:37:47.43</time>
<name>7324</name>
<sym>Dot</sym>
</trkpt>
<trkpt lat="39.874312" lon="-8.442098">
<ele>293.5</ele>
<desc>Speed 12.0 km/h Distance 32.31 km</desc>
<time>2011-05-22T09:37:48.43</time>
<name>7325</name>
<sym>Dot</sym>
</trkpt>
<trkpt lat="39.874285" lon="-8.442117">
<ele>293.5</ele>
<desc>Speed 11.9 km/h Distance 32.32 km</desc>
<time>2011-05-22T09:37:49.43</time>
<name>7326</name>
<sym>Dot</sym>
</trkpt>
<trkpt lat="39.874258" lon="-8.442133">
<ele>293.5</ele>
<desc>Speed 11.7 km/h Distance 32.32 km</desc>
<time>2011-05-22T09:37:50.43</time>
<name>7327</name>
<sym>Dot</sym>
</trkpt>
<trkpt lat="39.874233" lon="-8.442153">
<ele>293.0</ele>
<desc>Speed 11.7 km/h Distance 32.32 km</desc>
<time>2011-05-22T09:37:51.43</time>
<name>7328</name>
<sym>Dot</sym>
</trkpt>
<trkpt lat="39.874207" lon="-8.442170">
<ele>293.0</ele>
<desc>Speed 11.6 km/h Distance 32.33 km</desc>
<time>2011-05-22T09:37:52.43</time>
<name>7329</name>
<sym>Dot</sym>
</trkpt>
<trkpt lat="39.874180" lon="-8.442187">
<ele>293.0</ele>
<desc>Speed 11.3 km/h Distance 32.33 km</desc>
<time>2011-05-22T09:37:53.43</time>
<name>7330</name>
<sym>Dot</sym>
</trkpt>
<trkpt lat="39.874155" lon="-8.442200">
<ele>293.0</ele>
<desc>Speed 11.1 km/h Distance 32.33 km</desc>
<time>2011-05-22T09:37:54.43</time>
<name>7331</name>
<sym>Dot</sym>
</trkpt>
<trkpt lat="39.874130" lon="-8.442217">
<ele>293.0</ele>
<desc>Speed 10.6 km/h Distance 32.34 km</desc>
<time>2011-05-22T09:37:55.43</time>
<name>7332</name>
<sym>Dot</sym>
</trkpt>
<trkpt lat="39.874107" lon="-8.442235">
<ele>293.0</ele>
<desc>Speed 10.8 km/h Distance 32.34 km</desc>
<time>2011-05-22T09:37:56.43</time>
<name>7333</name>
<sym>Dot</sym>
</trkpt>
<trkpt lat="39.874083" lon="-8.442253">
<ele>292.5</ele>
<desc>Speed 10.9 km/h Distance 32.34 km</desc>
<time>2011-05-22T09:37:57.43</time>
<name>7334</name>
<sym>Dot</sym>
</trkpt>
<trkpt lat="39.874060" lon="-8.442272">
<ele>292.5</ele>
<desc>Speed 11.0 km/h Distance 32.34 km</desc>
<time>2011-05-22T09:37:58.43</time>
<name>7335</name>
<sym>Dot</sym>
</trkpt>
<trkpt lat="39.874035" lon="-8.442288">
<ele>292.5</ele>
<desc>Speed 11.1 km/h Distance 32.35 km</desc>
<time>2011-05-22T09:37:59.43</time>
<name>7336</name>
<sym>Dot</sym>
</trkpt>
<trkpt lat="39.874010" lon="-8.442308">
<ele>292.5</ele>
<desc>Speed 11.4 km/h Distance 32.35 km</desc>
<time>2011-05-22T09:38:00.42</time>
<name>7337</name>
<sym>Dot</sym>
</trkpt>
<trkpt lat="39.873987" lon="-8.442327">
<ele>292.5</ele>
<desc>Speed 11.3 km/h Distance 32.35 km</desc>
<time>2011-05-22T09:38:01.42</time>
<name>7338</name>
<sym>Dot</sym>
</trkpt>
<trkpt lat="39.873963" lon="-8.442347">
<ele>292.5</ele>
<desc>Speed 11.2 km/h Distance 32.36 km</desc>
<time>2011-05-22T09:38:02.42</time>
<name>7339</name>
<sym>Dot</sym>
</trkpt>
<trkpt lat="39.873938" lon="-8.442367">
<ele>292.5</ele>
<desc>Speed 11.0 km/h Distance 32.36 km</desc>
<time>2011-05-22T09:38:03.42</time>
<name>7340</name>
<sym>Dot</sym>
</trkpt>
<trkpt lat="39.873917" lon="-8.442388">
<ele>292.5</ele>
<desc>Speed 11.3 km/h Distance 32.36 km</desc>
<time>2011-05-22T09:38:04.42</time>
<name>7341</name>
<sym>Dot</sym>
</trkpt>
<trkpt lat="39.873892" lon="-8.442412">
<ele>292.5</ele>
<desc>Speed 11.4 km/h Distance 32.37 km</desc>
<time>2011-05-22T09:38:05.42</time>
<name>7342</name>
<sym>Dot</sym>
</trkpt>
<trkpt lat="39.873868" lon="-8.442435">
<ele>293.0</ele>
<desc>Speed 11.7 km/h Distance 32.37 km</desc>
<time>2011-05-22T09:38:06.42</time>
<name>7343</name>
<sym>Dot</sym>
</trkpt>
<trkpt lat="39.873845" lon="-8.442460">
<ele>292.5</ele>
<desc>Speed 12.0 km/h Distance 32.37 km</desc>
<time>2011-05-22T09:38:07.42</time>
<name>7344</name>
<sym>Dot</sym>
</trkpt>
<trkpt lat="39.873823" lon="-8.442490">
<ele>292.5</ele>
<desc>Speed 12.2 km/h Distance 32.38 km</desc>
<time>2011-05-22T09:38:08.42</time>
<name>7345</name>
<sym>Dot</sym>
</trkpt>
<trkpt lat="39.873803" lon="-8.442522">
<ele>292.5</ele>
<desc>Speed 12.8 km/h Distance 32.38 km</desc>
<time>2011-05-22T09:38:09.42</time>
<name>7346</name>
<sym>Dot</sym>
</trkpt>
<trkpt lat="39.873783" lon="-8.442558">
<ele>292.5</ele>
<desc>Speed 13.4 km/h Distance 32.38 km</desc>
<time>2011-05-22T09:38:10.42</time>
<name>7347</name>
<sym>Dot</sym>
</trkpt>
<trkpt lat="39.873763" lon="-8.442595">
<ele>292.5</ele>
<desc>Speed 14.2 km/h Distance 32.39 km</desc>
<time>2011-05-22T09:38:11.42</time>
<name>7348</name>
<sym>Dot</sym>
</trkpt>
<trkpt lat="39.873742" lon="-8.442635">
<ele>292.5</ele>
<desc>Speed 14.7 km/h Distance 32.39 km</desc>
<time>2011-05-22T09:38:12.42</time>
<name>7349</name>
<sym>Dot</sym>
</trkpt>
<trkpt lat="39.873722" lon="-8.442675">
<ele>292.0</ele>
<desc>Speed 14.8 km/h Distance 32.40 km</desc>
<time>2011-05-22T09:38:13.42</time>
<name>7350</name>
<sym>Dot</sym>
</trkpt>
<trkpt lat="39.873702" lon="-8.442713">
<ele>292.0</ele>
<desc>Speed 14.3 km/h Distance 32.40 km</desc>
<time>2011-05-22T09:38:14.42</time>
<name>7351</name>
<sym>Dot</sym>
</trkpt>
<trkpt lat="39.873683" lon="-8.442753">
<ele>292.0</ele>
<desc>Speed 13.7 km/h Distance 32.40 km</desc>
<time>2011-05-22T09:38:15.42</time>
<name>7352</name>
<sym>Dot</sym>
</trkpt>
<trkpt lat="39.873668" lon="-8.442793">
<ele>292.0</ele>
<desc>Speed 13.3 km/h Distance 32.41 km</desc>
<time>2011-05-22T09:38:16.42</time>
<name>7353</name>
<sym>Dot</sym>
</trkpt>
<trkpt lat="39.873653" lon="-8.442830">
<ele>292.0</ele>
<desc>Speed 12.7 km/h Distance 32.41 km</desc>
<time>2011-05-22T09:38:17.42</time>
<name>7354</name>
<sym>Dot</sym>
</trkpt>
<trkpt lat="39.873640" lon="-8.442863">
<ele>292.0</ele>
<desc>Speed 11.9 km/h Distance 32.42 km</desc>
<time>2011-05-22T09:38:18.42</time>
<name>7355</name>
<sym>Dot</sym>
</trkpt>
<trkpt lat="39.873628" lon="-8.442898">
<ele>292.0</ele>
<desc>Speed 11.2 km/h Distance 32.42 km</desc>
<time>2011-05-22T09:38:19.42</time>
<name>7356</name>
<sym>Dot</sym>
</trkpt>
<trkpt lat="39.873620" lon="-8.442930">
<ele>292.0</ele>
<desc>Speed 10.4 km/h Distance 32.42 km</desc>
<time>2011-05-22T09:38:20.42</time>
<name>7357</name>
<sym>Dot</sym>
</trkpt>
<trkpt lat="39.873612" lon="-8.442958">
<ele>292.0</ele>
<desc>Speed 9.4 km/h Distance 32.42 km</desc>
<time>2011-05-22T09:38:21.42</time>
<name>7358</name>
<sym>Dot</sym>
</trkpt>
<trkpt lat="39.873608" lon="-8.442987">
<ele>292.0</ele>
<desc>Speed 8.6 km/h Distance 32.43 km</desc>
<time>2011-05-22T09:38:22.42</time>
<name>7359</name>
<sym>Dot</sym>
</trkpt>
<trkpt lat="39.873605" lon="-8.443017">
<ele>292.0</ele>
<desc>Speed 9.1 km/h Distance 32.43 km</desc>
<time>2011-05-22T09:38:23.42</time>
<name>7360</name>
<sym>Dot</sym>
</trkpt>
<trkpt lat="39.873600" lon="-8.443045">
<ele>292.0</ele>
<desc>Speed 8.9 km/h Distance 32.43 km</desc>
<time>2011-05-22T09:38:24.42</time>
<name>7361</name>
<sym>Dot</sym>
</trkpt>
<trkpt lat="39.873592" lon="-8.443072">
<ele>292.0</ele>
<desc>Speed 8.8 km/h Distance 32.43 km</desc>
<time>2011-05-22T09:38:25.42</time>
<name>7362</name>
<sym>Dot</sym>
</trkpt>
<trkpt lat="39.873582" lon="-8.443102">
<ele>292.5</ele>
<desc>Speed 9.6 km/h Distance 32.44 km</desc>
<time>2011-05-22T09:38:26.42</time>
<name>7363</name>
<sym>Dot</sym>
</trkpt>
<trkpt lat="39.873572" lon="-8.443125">
<ele>293.0</ele>
<desc>Speed 8.4 km/h Distance 32.44 km</desc>
<time>2011-05-22T09:38:27.42</time>
<name>7364</name>
<sym>Dot</sym>
</trkpt>
<trkpt lat="39.873563" lon="-8.443153">
<ele>293.5</ele>
<desc>Speed 9.0 km/h Distance 32.44 km</desc>
<time>2011-05-22T09:38:28.42</time>
<name>7365</name>
<sym>Dot</sym>
</trkpt>
<trkpt lat="39.873555" lon="-8.443180">
<ele>294.0</ele>
<desc>Speed 9.1 km/h Distance 32.44 km</desc>
<time>2011-05-22T09:38:29.42</time>
<name>7366</name>
<sym>Dot</sym>
</trkpt>
<trkpt lat="39.873545" lon="-8.443208">
<ele>294.0</ele>
<desc>Speed 9.2 km/h Distance 32.45 km</desc>
<time>2011-05-22T09:38:30.42</time>
<name>7367</name>
<sym>Dot</sym>
</trkpt>
<trkpt lat="39.873535" lon="-8.443237">
<ele>294.0</ele>
<desc>Speed 9.5 km/h Distance 32.45 km</desc>
<time>2011-05-22T09:38:31.42</time>
<name>7368</name>
<sym>Dot</sym>
</trkpt>
<trkpt lat="39.873525" lon="-8.443267">
<ele>294.5</ele>
<desc>Speed 9.6 km/h Distance 32.45 km</desc>
<time>2011-05-22T09:38:32.42</time>
<name>7369</name>
<sym>Dot</sym>
</trkpt>
<trkpt lat="39.873517" lon="-8.443295">
<ele>294.5</ele>
<desc>Speed 9.8 km/h Distance 32.45 km</desc>
<time>2011-05-22T09:38:33.42</time>
<name>7370</name>
<sym>Dot</sym>
</trkpt>
<trkpt lat="39.873508" lon="-8.443325">
<ele>295.0</ele>
<desc>Speed 9.9 km/h Distance 32.46 km</desc>
<time>2011-05-22T09:38:34.42</time>
<name>7371</name>
<sym>Dot</sym>
</trkpt>
<trkpt lat="39.873502" lon="-8.443355">
<ele>295.0</ele>
<desc>Speed 9.7 km/h Distance 32.46 km</desc>
<time>2011-05-22T09:38:35.42</time>
<name>7372</name>
<sym>Dot</sym>
</trkpt>
<trkpt lat="39.873492" lon="-8.443385">
<ele>295.5</ele>
<desc>Speed 10.0 km/h Distance 32.46 km</desc>
<time>2011-05-22T09:38:36.42</time>
<name>7373</name>
<sym>Dot</sym>
</trkpt>
<trkpt lat="39.873482" lon="-8.443415">
<ele>295.5</ele>
<desc>Speed 10.1 km/h Distance 32.47 km</desc>
<time>2011-05-22T09:38:37.42</time>
<name>7374</name>
<sym>Dot</sym>
</trkpt>
<trkpt lat="39.873472" lon="-8.443445">
<ele>296.0</ele>
<desc>Speed 10.0 km/h Distance 32.47 km</desc>
<time>2011-05-22T09:38:38.42</time>
<name>7375</name>
<sym>Dot</sym>
</trkpt>
<trkpt lat="39.873460" lon="-8.443475">
<ele>296.0</ele>
<desc>Speed 9.9 km/h Distance 32.47 km</desc>
<time>2011-05-22T09:38:39.42</time>
<name>7376</name>
<sym>Dot</sym>
</trkpt>
<trkpt lat="39.873448" lon="-8.443503">
<ele>296.0</ele>
<desc>Speed 9.5 km/h Distance 32.47 km</desc>
<time>2011-05-22T09:38:40.42</time>
<name>7377</name>
<sym>Dot</sym>
</trkpt>
<trkpt lat="39.873437" lon="-8.443528">
<ele>296.0</ele>
<desc>Speed 9.0 km/h Distance 32.48 km</desc>
<time>2011-05-22T09:38:41.42</time>
<name>7378</name>
<sym>Dot</sym>
</trkpt>
<trkpt lat="39.873425" lon="-8.443555">
<ele>296.0</ele>
<desc>Speed 8.8 km/h Distance 32.48 km</desc>
<time>2011-05-22T09:38:42.42</time>
<name>7379</name>
<sym>Dot</sym>
</trkpt>
<trkpt lat="39.873415" lon="-8.443580">
<ele>296.0</ele>
<desc>Speed 8.5 km/h Distance 32.48 km</desc>
<time>2011-05-22T09:38:43.42</time>
<name>7380</name>
<sym>Dot</sym>
</trkpt>
<trkpt lat="39.873402" lon="-8.443603">
<ele>296.0</ele>
<desc>Speed 8.5 km/h Distance 32.48 km</desc>
<time>2011-05-22T09:38:44.42</time>
<name>7381</name>
<sym>Dot</sym>
</trkpt>
<trkpt lat="39.873388" lon="-8.443627">
<ele>296.0</ele>
<desc>Speed 8.7 km/h Distance 32.49 km</desc>
<time>2011-05-22T09:38:45.42</time>
<name>7382</name>
<sym>Dot</sym>
</trkpt>
<trkpt lat="39.873375" lon="-8.443650">
<ele>296.0</ele>
<desc>Speed 8.5 km/h Distance 32.49 km</desc>
<time>2011-05-22T09:38:46.42</time>
<name>7383</name>
<sym>Dot</sym>
</trkpt>
<trkpt lat="39.873362" lon="-8.443675">
<ele>296.0</ele>
<desc>Speed 8.5 km/h Distance 32.49 km</desc>
<time>2011-05-22T09:38:47.42</time>
<name>7384</name>
<sym>Dot</sym>
</trkpt>
<trkpt lat="39.873348" lon="-8.443695">
<ele>295.5</ele>
<desc>Speed 8.0 km/h Distance 32.49 km</desc>
<time>2011-05-22T09:38:48.42</time>
<name>7385</name>
<sym>Dot</sym>
</trkpt>
<trkpt lat="39.873333" lon="-8.443713">
<ele>295.5</ele>
<desc>Speed 8.1 km/h Distance 32.50 km</desc>
<time>2011-05-22T09:38:49.42</time>
<name>7386</name>
<sym>Dot</sym>
</trkpt>
<trkpt lat="39.873317" lon="-8.443730">
<ele>296.0</ele>
<desc>Speed 8.2 km/h Distance 32.50 km</desc>
<time>2011-05-22T09:38:50.42</time>
<name>7387</name>
<sym>Dot</sym>
</trkpt>
<trkpt lat="39.873300" lon="-8.443747">
<ele>296.0</ele>
<desc>Speed 8.4 km/h Distance 32.50 km</desc>
<time>2011-05-22T09:38:51.42</time>
<name>7388</name>
<sym>Dot</sym>
</trkpt>
<trkpt lat="39.873283" lon="-8.443763">
<ele>296.0</ele>
<desc>Speed 8.5 km/h Distance 32.50 km</desc>
<time>2011-05-22T09:38:52.42</time>
<name>7389</name>
<sym>Dot</sym>
</trkpt>
<trkpt lat="39.873265" lon="-8.443777">
<ele>296.0</ele>
<desc>Speed 8.3 km/h Distance 32.51 km</desc>
<time>2011-05-22T09:38:53.42</time>
<name>7390</name>
<sym>Dot</sym>
</trkpt>
<trkpt lat="39.873245" lon="-8.443788">
<ele>296.5</ele>
<desc>Speed 8.3 km/h Distance 32.51 km</desc>
<time>2011-05-22T09:38:54.42</time>
<name>7391</name>
<sym>Dot</sym>
</trkpt>
<trkpt lat="39.873227" lon="-8.443802">
<ele>296.5</ele>
<desc>Speed 8.5 km/h Distance 32.51 km</desc>
<time>2011-05-22T09:38:55.42</time>
<name>7392</name>
<sym>Dot</sym>
</trkpt>
<trkpt lat="39.873208" lon="-8.443812">
<ele>296.5</ele>
<desc>Speed 7.5 km/h Distance 32.51 km</desc>
<time>2011-05-22T09:38:56.42</time>
<name>7393</name>
<sym>Dot</sym>
</trkpt>
<trkpt lat="39.873190" lon="-8.443822">
<ele>296.5</ele>
<desc>Speed 8.2 km/h Distance 32.51 km</desc>
<time>2011-05-22T09:38:57.42</time>
<name>7394</name>
<sym>Dot</sym>
</trkpt>
<trkpt lat="39.873175" lon="-8.443828">
<ele>297.0</ele>
<desc>Speed 6.1 km/h Distance 32.52 km</desc>
<time>2011-05-22T09:38:58.42</time>
<name>7395</name>
<sym>Dot</sym>
</trkpt>
<trkpt lat="39.873155" lon="-8.443833">
<ele>297.0</ele>
<desc>Speed 8.4 km/h Distance 32.52 km</desc>
<time>2011-05-22T09:38:59.42</time>
<name>7396</name>
<sym>Dot</sym>
</trkpt>
<trkpt lat="39.873135" lon="-8.443843">
<ele>297.0</ele>
<desc>Speed 8.2 km/h Distance 32.52 km</desc>
<time>2011-05-22T09:39:00.41</time>
<name>7397</name>
<sym>Dot</sym>
</trkpt>
<trkpt lat="39.873115" lon="-8.443850">
<ele>297.0</ele>
<desc>Speed 8.3 km/h Distance 32.52 km</desc>
<time>2011-05-22T09:39:01.41</time>
<name>7398</name>
<sym>Dot</sym>
</trkpt>
<trkpt lat="39.873093" lon="-8.443855">
<ele>297.0</ele>
<desc>Speed 8.9 km/h Distance 32.53 km</desc>
<time>2011-05-22T09:39:02.41</time>
<name>7399</name>
<sym>Dot</sym>
</trkpt>
<trkpt lat="39.873070" lon="-8.443858">
<ele>297.0</ele>
<desc>Speed 8.8 km/h Distance 32.53 km</desc>
<time>2011-05-22T09:39:03.41</time>
<name>7400</name>
<sym>Dot</sym>
</trkpt>
<trkpt lat="39.873048" lon="-8.443862">
<ele>297.5</ele>
<desc>Speed 8.4 km/h Distance 32.53 km</desc>
<time>2011-05-22T09:39:04.41</time>
<name>7401</name>
<sym>Dot</sym>
</trkpt>
<trkpt lat="39.873028" lon="-8.443865">
<ele>297.5</ele>
<desc>Speed 8.0 km/h Distance 32.53 km</desc>
<time>2011-05-22T09:39:05.41</time>
<name>7402</name>
<sym>Dot</sym>
</trkpt>
<trkpt lat="39.873008" lon="-8.443868">
<ele>298.0</ele>
<desc>Speed 7.8 km/h Distance 32.54 km</desc>
<time>2011-05-22T09:39:06.41</time>
<name>7403</name>
<sym>Dot</sym>
</trkpt>
<trkpt lat="39.872985" lon="-8.443868">
<ele>298.0</ele>
<desc>Speed 9.5 km/h Distance 32.54 km</desc>
<time>2011-05-22T09:39:07.41</time>
<name>7404</name>
<sym>Dot</sym>
</trkpt>
<trkpt lat="39.872960" lon="-8.443867">
<ele>298.5</ele>
<desc>Speed 9.4 km/h Distance 32.54 km</desc>
<time>2011-05-22T09:39:08.41</time>
<name>7405</name>
<sym>Dot</sym>
</trkpt>
<trkpt lat="39.872937" lon="-8.443863">
<ele>298.5</ele>
<desc>Speed 9.4 km/h Distance 32.54 km</desc>
<time>2011-05-22T09:39:09.41</time>
<name>7406</name>
<sym>Dot</sym>
</trkpt>
<trkpt lat="39.872913" lon="-8.443863">
<ele>298.5</ele>
<desc>Speed 9.7 km/h Distance 32.55 km</desc>
<time>2011-05-22T09:39:10.41</time>
<name>7407</name>
<sym>Dot</sym>
</trkpt>
<trkpt lat="39.872890" lon="-8.443862">
<ele>299.0</ele>
<desc>Speed 8.9 km/h Distance 32.55 km</desc>
<time>2011-05-22T09:39:11.41</time>
<name>7408</name>
<sym>Dot</sym>
</trkpt>
<trkpt lat="39.872867" lon="-8.443862">
<ele>299.0</ele>
<desc>Speed 9.0 km/h Distance 32.55 km</desc>
<time>2011-05-22T09:39:12.41</time>
<name>7409</name>
<sym>Dot</sym>
</trkpt>
<trkpt lat="39.872845" lon="-8.443862">
<ele>299.5</ele>
<desc>Speed 8.9 km/h Distance 32.55 km</desc>
<time>2011-05-22T09:39:13.41</time>
<name>7410</name>
<sym>Dot</sym>
</trkpt>
<trkpt lat="39.872822" lon="-8.443857">
<ele>300.0</ele>
<desc>Speed 9.0 km/h Distance 32.56 km</desc>
<time>2011-05-22T09:39:14.41</time>
<name>7411</name>
<sym>Dot</sym>
</trkpt>
<trkpt lat="39.872800" lon="-8.443852">
<ele>300.0</ele>
<desc>Speed 9.0 km/h Distance 32.56 km</desc>
<time>2011-05-22T09:39:15.41</time>
<name>7412</name>
<sym>Dot</sym>
</trkpt>
<trkpt lat="39.872778" lon="-8.443852">
<ele>300.5</ele>
<desc>Speed 8.6 km/h Distance 32.56 km</desc>
<time>2011-05-22T09:39:16.41</time>
<name>7413</name>
<sym>Dot</sym>
</trkpt>
<trkpt lat="39.872757" lon="-8.443855">
<ele>300.5</ele>
<desc>Speed 9.1 km/h Distance 32.56 km</desc>
<time>2011-05-22T09:39:17.41</time>
<name>7414</name>
<sym>Dot</sym>
</trkpt>
<trkpt lat="39.872733" lon="-8.443858">
<ele>301.0</ele>
<desc>Speed 9.5 km/h Distance 32.57 km</desc>
<time>2011-05-22T09:39:18.41</time>
<name>7415</name>
<sym>Dot</sym>
</trkpt>
<trkpt lat="39.872710" lon="-8.443860">
<ele>301.0</ele>
<desc>Speed 9.5 km/h Distance 32.57 km</desc>
<time>2011-05-22T09:39:19.41</time>
<name>7416</name>
<sym>Dot</sym>
</trkpt>
<trkpt lat="39.872685" lon="-8.443860">
<ele>301.5</ele>
<desc>Speed 9.9 km/h Distance 32.57 km</desc>
<time>2011-05-22T09:39:20.41</time>
<name>7417</name>
<sym>Dot</sym>
</trkpt>
<trkpt lat="39.872660" lon="-8.443857">
<ele>301.5</ele>
<desc>Speed 9.9 km/h Distance 32.57 km</desc>
<time>2011-05-22T09:39:21.41</time>
<name>7418</name>
<sym>Dot</sym>
</trkpt>
<trkpt lat="39.872635" lon="-8.443857">
<ele>302.0</ele>
<desc>Speed 9.9 km/h Distance 32.58 km</desc>
<time>2011-05-22T09:39:22.41</time>
<name>7419</name>
<sym>Dot</sym>
</trkpt>
<trkpt lat="39.872612" lon="-8.443855">
<ele>302.5</ele>
<desc>Speed 9.7 km/h Distance 32.58 km</desc>
<time>2011-05-22T09:39:23.41</time>
<name>7420</name>
<sym>Dot</sym>
</trkpt>
<trkpt lat="39.872585" lon="-8.443857">
<ele>302.5</ele>
<desc>Speed 9.9 km/h Distance 32.58 km</desc>
<time>2011-05-22T09:39:24.41</time>
<name>7421</name>
<sym>Dot</sym>
</trkpt>
<trkpt lat="39.872562" lon="-8.443855">
<ele>302.5</ele>
<desc>Speed 9.6 km/h Distance 32.59 km</desc>
<time>2011-05-22T09:39:25.41</time>
<name>7422</name>
<sym>Dot</sym>
</trkpt>
<trkpt lat="39.872537" lon="-8.443852">
<ele>303.0</ele>
<desc>Speed 9.9 km/h Distance 32.59 km</desc>
<time>2011-05-22T09:39:26.41</time>
<name>7423</name>
<sym>Dot</sym>
</trkpt>
<trkpt lat="39.872512" lon="-8.443850">
<ele>302.5</ele>
<desc>Speed 9.8 km/h Distance 32.59 km</desc>
<time>2011-05-22T09:39:27.41</time>
<name>7424</name>
<sym>Dot</sym>
</trkpt>
<trkpt lat="39.872487" lon="-8.443850">
<ele>303.0</ele>
<desc>Speed 9.4 km/h Distance 32.59 km</desc>
<time>2011-05-22T09:39:28.41</time>
<name>7425</name>
<sym>Dot</sym>
</trkpt>
<trkpt lat="39.872462" lon="-8.443850">
<ele>303.0</ele>
<desc>Speed 9.7 km/h Distance 32.60 km</desc>
<time>2011-05-22T09:39:29.41</time>
<name>7426</name>
<sym>Dot</sym>
</trkpt>
<trkpt lat="39.872438" lon="-8.443848">
<ele>302.5</ele>
<desc>Speed 9.5 km/h Distance 32.60 km</desc>
<time>2011-05-22T09:39:30.41</time>
<name>7427</name>
<sym>Dot</sym>
</trkpt>
<trkpt lat="39.872413" lon="-8.443847">
<ele>303.0</ele>
<desc>Speed 9.6 km/h Distance 32.60 km</desc>
<time>2011-05-22T09:39:31.41</time>
<name>7428</name>
<sym>Dot</sym>
</trkpt>
<trkpt lat="39.872388" lon="-8.443843">
<ele>303.0</ele>
<desc>Speed 9.5 km/h Distance 32.60 km</desc>
<time>2011-05-22T09:39:32.41</time>
<name>7429</name>
<sym>Dot</sym>
</trkpt>
<trkpt lat="39.872363" lon="-8.443843">
<ele>303.0</ele>
<desc>Speed 9.7 km/h Distance 32.61 km</desc>
<time>2011-05-22T09:39:33.41</time>
<name>7430</name>
<sym>Dot</sym>
</trkpt>
<trkpt lat="39.872338" lon="-8.443843">
<ele>303.0</ele>
<desc>Speed 9.5 km/h Distance 32.61 km</desc>
<time>2011-05-22T09:39:34.41</time>
<name>7431</name>
<sym>Dot</sym>
</trkpt>
<trkpt lat="39.872315" lon="-8.443837">
<ele>303.0</ele>
<desc>Speed 9.6 km/h Distance 32.61 km</desc>
<time>2011-05-22T09:39:35.41</time>
<name>7432</name>
<sym>Dot</sym>
</trkpt>
<trkpt lat="39.872290" lon="-8.443832">
<ele>303.5</ele>
<desc>Speed 9.9 km/h Distance 32.62 km</desc>
<time>2011-05-22T09:39:36.41</time>
<name>7433</name>
<sym>Dot</sym>
</trkpt>
<trkpt lat="39.872263" lon="-8.443830">
<ele>303.5</ele>
<desc>Speed 10.1 km/h Distance 32.62 km</desc>
<time>2011-05-22T09:39:37.41</time>
<name>7434</name>
<sym>Dot</sym>
</trkpt>
<trkpt lat="39.872237" lon="-8.443828">
<ele>303.5</ele>
<desc>Speed 10.7 km/h Distance 32.62 km</desc>
<time>2011-05-22T09:39:38.41</time>
<name>7435</name>
<sym>Dot</sym>
</trkpt>
<trkpt lat="39.872210" lon="-8.443828">
<ele>304.0</ele>
<desc>Speed 10.4 km/h Distance 32.62 km</desc>
<time>2011-05-22T09:39:39.41</time>
<name>7436</name>
<sym>Dot</sym>
</trkpt>
<trkpt lat="39.872183" lon="-8.443827">
<ele>304.0</ele>
<desc>Speed 10.0 km/h Distance 32.63 km</desc>
<time>2011-05-22T09:39:40.41</time>
<name>7437</name>
<sym>Dot</sym>
</trkpt>
<trkpt lat="39.872158" lon="-8.443827">
<ele>304.0</ele>
<desc>Speed 10.2 km/h Distance 32.63 km</desc>
<time>2011-05-22T09:39:41.41</time>
<name>7438</name>
<sym>Dot</sym>
</trkpt>
<trkpt lat="39.872132" lon="-8.443828">
<ele>304.0</ele>
<desc>Speed 10.6 km/h Distance 32.63 km</desc>
<time>2011-05-22T09:39:42.41</time>
<name>7439</name>
<sym>Dot</sym>
</trkpt>
<trkpt lat="39.872105" lon="-8.443828">
<ele>304.0</ele>
<desc>Speed 10.6 km/h Distance 32.64 km</desc>
<time>2011-05-22T09:39:43.41</time>
<name>7440</name>
<sym>Dot</sym>
</trkpt>
<trkpt lat="39.872077" lon="-8.443828">
<ele>304.0</ele>
<desc>Speed 10.8 km/h Distance 32.64 km</desc>
<time>2011-05-22T09:39:44.41</time>
<name>7441</name>
<sym>Dot</sym>
</trkpt>
<trkpt lat="39.872050" lon="-8.443830">
<ele>304.0</ele>
<desc>Speed 10.8 km/h Distance 32.64 km</desc>
<time>2011-05-22T09:39:45.41</time>
<name>7442</name>
<sym>Dot</sym>
</trkpt>
<trkpt lat="39.872022" lon="-8.443830">
<ele>304.0</ele>
<desc>Speed 10.8 km/h Distance 32.65 km</desc>
<time>2011-05-22T09:39:46.41</time>
<name>7443</name>
<sym>Dot</sym>
</trkpt>
<trkpt lat="39.871995" lon="-8.443832">
<ele>304.0</ele>
<desc>Speed 10.7 km/h Distance 32.65 km</desc>
<time>2011-05-22T09:39:47.41</time>
<name>7444</name>
<sym>Dot</sym>
</trkpt>
<trkpt lat="39.871968" lon="-8.443835">
<ele>304.0</ele>
<desc>Speed 10.5 km/h Distance 32.65 km</desc>
<time>2011-05-22T09:39:48.41</time>
<name>7445</name>
<sym>Dot</sym>
</trkpt>
<trkpt lat="39.871943" lon="-8.443838">
<ele>304.0</ele>
<desc>Speed 10.0 km/h Distance 32.65 km</desc>
<time>2011-05-22T09:39:49.41</time>
<name>7446</name>
<sym>Dot</sym>
</trkpt>
<trkpt lat="39.871918" lon="-8.443840">
<ele>303.5</ele>
<desc>Speed 10.0 km/h Distance 32.66 km</desc>
<time>2011-05-22T09:39:50.41</time>
<name>7447</name>
<sym>Dot</sym>
</trkpt>
<trkpt lat="39.871895" lon="-8.443842">
<ele>303.5</ele>
<desc>Speed 9.3 km/h Distance 32.66 km</desc>
<time>2011-05-22T09:39:51.41</time>
<name>7448</name>
<sym>Dot</sym>
</trkpt>
<trkpt lat="39.871873" lon="-8.443842">
<ele>303.5</ele>
<desc>Speed 8.2 km/h Distance 32.66 km</desc>
<time>2011-05-22T09:39:52.41</time>
<name>7449</name>
<sym>Dot</sym>
</trkpt>
<trkpt lat="39.871852" lon="-8.443847">
<ele>303.5</ele>
<desc>Speed 8.1 km/h Distance 32.66 km</desc>
<time>2011-05-22T09:39:53.41</time>
<name>7450</name>
<sym>Dot</sym>
</trkpt>
<trkpt lat="39.871830" lon="-8.443853">
<ele>303.5</ele>
<desc>Speed 8.7 km/h Distance 32.67 km</desc>
<time>2011-05-22T09:39:54.41</time>
<name>7451</name>
<sym>Dot</sym>
</trkpt>
<trkpt lat="39.871810" lon="-8.443862">
<ele>303.5</ele>
<desc>Speed 8.3 km/h Distance 32.67 km</desc>
<time>2011-05-22T09:39:55.41</time>
<name>7452</name>
<sym>Dot</sym>
</trkpt>
<trkpt lat="39.871790" lon="-8.443868">
<ele>303.5</ele>
<desc>Speed 7.7 km/h Distance 32.67 km</desc>
<time>2011-05-22T09:39:56.41</time>
<name>7453</name>
<sym>Dot</sym>
</trkpt>
<trkpt lat="39.871773" lon="-8.443873">
<ele>303.5</ele>
<desc>Speed 7.0 km/h Distance 32.67 km</desc>
<time>2011-05-22T09:39:57.41</time>
<name>7454</name>
<sym>Dot</sym>
</trkpt>
<trkpt lat="39.871753" lon="-8.443878">
<ele>303.5</ele>
<desc>Speed 7.6 km/h Distance 32.68 km</desc>
<time>2011-05-22T09:39:58.41</time>
<name>7455</name>
<sym>Dot</sym>
</trkpt>
<trkpt lat="39.871738" lon="-8.443887">
<ele>304.0</ele>
<desc>Speed 6.9 km/h Distance 32.68 km</desc>
<time>2011-05-22T09:39:59.41</time>
<name>7456</name>
<sym>Dot</sym>
</trkpt>
<trkpt lat="39.871722" lon="-8.443897">
<ele>304.0</ele>
<desc>Speed 7.2 km/h Distance 32.68 km</desc>
<time>2011-05-22T09:40:00.40</time>
<name>7457</name>
<sym>Dot</sym>
</trkpt>
<trkpt lat="39.871705" lon="-8.443905">
<ele>304.5</ele>
<desc>Speed 6.8 km/h Distance 32.68 km</desc>
<time>2011-05-22T09:40:01.40</time>
<name>7458</name>
<sym>Dot</sym>
</trkpt>
<trkpt lat="39.871688" lon="-8.443908">
<ele>304.5</ele>
<desc>Speed 6.5 km/h Distance 32.68 km</desc>
<time>2011-05-22T09:40:02.40</time>
<name>7459</name>
<sym>Dot</sym>
</trkpt>
<trkpt lat="39.871672" lon="-8.443913">
<ele>305.0</ele>
<desc>Speed 6.7 km/h Distance 32.69 km</desc>
<time>2011-05-22T09:40:03.40</time>
<name>7460</name>
<sym>Dot</sym>
</trkpt>
<trkpt lat="39.871655" lon="-8.443920">
<ele>305.0</ele>
<desc>Speed 6.7 km/h Distance 32.69 km</desc>
<time>2011-05-22T09:40:04.40</time>
<name>7461</name>
<sym>Dot</sym>
</trkpt>
<trkpt lat="39.871642" lon="-8.443932">
<ele>305.0</ele>
<desc>Speed 6.7 km/h Distance 32.69 km</desc>
<time>2011-05-22T09:40:05.40</time>
<name>7462</name>
<sym>Dot</sym>
</trkpt>
<trkpt lat="39.871628" lon="-8.443945">
<ele>305.0</ele>
<desc>Speed 6.1 km/h Distance 32.69 km</desc>
<time>2011-05-22T09:40:06.40</time>
<name>7463</name>
<sym>Dot</sym>
</trkpt>
<trkpt lat="39.871618" lon="-8.443950">
<ele>305.0</ele>
<desc>Speed 4.6 km/h Distance 32.69 km</desc>
<time>2011-05-22T09:40:07.40</time>
<name>7464</name>
<sym>Dot</sym>
</trkpt>
<trkpt lat="39.871610" lon="-8.443950">
<ele>305.0</ele>
<desc>Speed 3.2 km/h Distance 32.69 km</desc>
<time>2011-05-22T09:40:08.40</time>
<name>7465</name>
<sym>Dot</sym>
</trkpt>
<trkpt lat="39.871597" lon="-8.443918">
<ele>304.5</ele>
<desc>Speed 1.5 km/h Distance 32.70 km</desc>
<time>2011-05-22T09:41:51.40</time>
<name>7466</name>
<sym>Dot</sym>
</trkpt>
<trkpt lat="39.871600" lon="-8.443912">
<ele>304.5</ele>
<desc>Speed 1.8 km/h Distance 32.70 km</desc>
<time>2011-05-22T09:41:52.40</time>
<name>7467</name>
<sym>Dot</sym>
</trkpt>
<trkpt lat="39.871605" lon="-8.443905">
<ele>304.5</ele>
<desc>Speed 2.3 km/h Distance 32.70 km</desc>
<time>2011-05-22T09:41:53.40</time>
<name>7468</name>
<sym>Dot</sym>
</trkpt>
<trkpt lat="39.871608" lon="-8.443903">
<ele>304.5</ele>
<desc>Speed 1.4 km/h Distance 32.70 km</desc>
<time>2011-05-22T09:41:54.40</time>
<name>7469</name>
<sym>Dot</sym>
</trkpt>
<trkpt lat="39.871612" lon="-8.443898">
<ele>304.5</ele>
<desc>Speed 2.2 km/h Distance 32.70 km</desc>
<time>2011-05-22T09:41:55.40</time>
<name>7470</name>
<sym>Dot</sym>
</trkpt>
<trkpt lat="39.871612" lon="-8.443880">
<ele>306.0</ele>
<desc>Speed 1.3 km/h Distance 32.70 km</desc>
<time>2011-05-22T09:43:43.40</time>
<name>7471</name>
<sym>Dot</sym>
</trkpt>
<trkpt lat="39.871605" lon="-8.443890">
<ele>306.0</ele>
<desc>Speed 4.3 km/h Distance 32.70 km</desc>
<time>2011-05-22T09:43:44.40</time>
<name>7472</name>
<sym>Dot</sym>
</trkpt>
<trkpt lat="39.871593" lon="-8.443900">
<ele>306.0</ele>
<desc>Speed 5.4 km/h Distance 32.70 km</desc>
<time>2011-05-22T09:43:45.40</time>
<name>7473</name>
<sym>Dot</sym>
</trkpt>
<trkpt lat="39.871580" lon="-8.443908">
<ele>306.0</ele>
<desc>Speed 5.7 km/h Distance 32.70 km</desc>
<time>2011-05-22T09:43:46.40</time>
<name>7474</name>
<sym>Dot</sym>
</trkpt>
<trkpt lat="39.871567" lon="-8.443918">
<ele>306.0</ele>
<desc>Speed 6.2 km/h Distance 32.71 km</desc>
<time>2011-05-22T09:43:47.40</time>
<name>7475</name>
<sym>Dot</sym>
</trkpt>
<trkpt lat="39.871550" lon="-8.443928">
<ele>306.0</ele>
<desc>Speed 7.6 km/h Distance 32.71 km</desc>
<time>2011-05-22T09:43:48.40</time>
<name>7476</name>
<sym>Dot</sym>
</trkpt>
<trkpt lat="39.871528" lon="-8.443938">
<ele>306.0</ele>
<desc>Speed 8.7 km/h Distance 32.71 km</desc>
<time>2011-05-22T09:43:49.40</time>
<name>7477</name>
<sym>Dot</sym>
</trkpt>
<trkpt lat="39.871507" lon="-8.443950">
<ele>306.5</ele>
<desc>Speed 9.5 km/h Distance 32.71 km</desc>
<time>2011-05-22T09:43:50.40</time>
<name>7478</name>
<sym>Dot</sym>
</trkpt>
<trkpt lat="39.871483" lon="-8.443967">
<ele>306.5</ele>
<desc>Speed 11.0 km/h Distance 32.72 km</desc>
<time>2011-05-22T09:43:51.40</time>
<name>7479</name>
<sym>Dot</sym>
</trkpt>
<trkpt lat="39.871460" lon="-8.443983">
<ele>306.5</ele>
<desc>Speed 11.1 km/h Distance 32.72 km</desc>
<time>2011-05-22T09:43:52.40</time>
<name>7480</name>
<sym>Dot</sym>
</trkpt>
<trkpt lat="39.871437" lon="-8.444000">
<ele>306.5</ele>
<desc>Speed 10.7 km/h Distance 32.72 km</desc>
<time>2011-05-22T09:43:53.40</time>
<name>7481</name>
<sym>Dot</sym>
</trkpt>
<trkpt lat="39.871413" lon="-8.444015">
<ele>307.0</ele>
<desc>Speed 9.9 km/h Distance 32.73 km</desc>
<time>2011-05-22T09:43:54.40</time>
<name>7482</name>
<sym>Dot</sym>
</trkpt>
<trkpt lat="39.871390" lon="-8.444028">
<ele>307.0</ele>
<desc>Speed 10.2 km/h Distance 32.73 km</desc>
<time>2011-05-22T09:43:55.40</time>
<name>7483</name>
<sym>Dot</sym>
</trkpt>
<trkpt lat="39.871365" lon="-8.444038">
<ele>307.5</ele>
<desc>Speed 10.4 km/h Distance 32.73 km</desc>
<time>2011-05-22T09:43:56.40</time>
<name>7484</name>
<sym>Dot</sym>
</trkpt>
<trkpt lat="39.871342" lon="-8.444050">
<ele>308.0</ele>
<desc>Speed 10.4 km/h Distance 32.73 km</desc>
<time>2011-05-22T09:43:57.40</time>
<name>7485</name>
<sym>Dot</sym>
</trkpt>
<trkpt lat="39.871317" lon="-8.444065">
<ele>308.0</ele>
<desc>Speed 10.8 km/h Distance 32.74 km</desc>
<time>2011-05-22T09:43:58.40</time>
<name>7486</name>
<sym>Dot</sym>
</trkpt>
<trkpt lat="39.871290" lon="-8.444085">
<ele>308.0</ele>
<desc>Speed 11.8 km/h Distance 32.74 km</desc>
<time>2011-05-22T09:43:59.40</time>
<name>7487</name>
<sym>Dot</sym>
</trkpt>
<trkpt lat="39.871263" lon="-8.444107">
<ele>307.5</ele>
<desc>Speed 12.4 km/h Distance 32.74 km</desc>
<time>2011-05-22T09:44:00.39</time>
<name>7488</name>
<sym>Dot</sym>
</trkpt>
<trkpt lat="39.871238" lon="-8.444125">
<ele>307.5</ele>
<desc>Speed 11.6 km/h Distance 32.75 km</desc>
<time>2011-05-22T09:44:01.39</time>
<name>7489</name>
<sym>Dot</sym>
</trkpt>
<trkpt lat="39.871210" lon="-8.444138">
<ele>307.5</ele>
<desc>Speed 12.1 km/h Distance 32.75 km</desc>
<time>2011-05-22T09:44:02.39</time>
<name>7490</name>
<sym>Dot</sym>
</trkpt>
<trkpt lat="39.871180" lon="-8.444150">
<ele>308.0</ele>
<desc>Speed 12.3 km/h Distance 32.75 km</desc>
<time>2011-05-22T09:44:03.39</time>
<name>7491</name>
<sym>Dot</sym>
</trkpt>
<trkpt lat="39.871148" lon="-8.444162">
<ele>307.5</ele>
<desc>Speed 12.9 km/h Distance 32.76 km</desc>
<time>2011-05-22T09:44:04.39</time>
<name>7492</name>
<sym>Dot</sym>
</trkpt>
<trkpt lat="39.871117" lon="-8.444173">
<ele>307.5</ele>
<desc>Speed 13.1 km/h Distance 32.76 km</desc>
<time>2011-05-22T09:44:05.39</time>
<name>7493</name>
<sym>Dot</sym>
</trkpt>
<trkpt lat="39.871085" lon="-8.444177">
<ele>307.5</ele>
<desc>Speed 13.0 km/h Distance 32.76 km</desc>
<time>2011-05-22T09:44:06.39</time>
<name>7494</name>
<sym>Dot</sym>
</trkpt>
<trkpt lat="39.871053" lon="-8.444172">
<ele>308.0</ele>
<desc>Speed 12.8 km/h Distance 32.77 km</desc>
<time>2011-05-22T09:44:07.39</time>
<name>7495</name>
<sym>Dot</sym>
</trkpt>
<trkpt lat="39.871023" lon="-8.444173">
<ele>308.0</ele>
<desc>Speed 11.7 km/h Distance 32.77 km</desc>
<time>2011-05-22T09:44:08.39</time>
<name>7496</name>
<sym>Dot</sym>
</trkpt>
<trkpt lat="39.871000" lon="-8.444175">
<ele>308.0</ele>
<desc>Speed 9.6 km/h Distance 32.77 km</desc>
<time>2011-05-22T09:44:09.39</time>
<name>7497</name>
<sym>Dot</sym>
</trkpt>
<trkpt lat="39.870983" lon="-8.444177">
<ele>308.0</ele>
<desc>Speed 6.2 km/h Distance 32.78 km</desc>
<time>2011-05-22T09:44:10.39</time>
<name>7498</name>
<sym>Dot</sym>
</trkpt>
<trkpt lat="39.870975" lon="-8.444180">
<ele>307.5</ele>
<desc>Speed 3.7 km/h Distance 32.78 km</desc>
<time>2011-05-22T09:44:11.39</time>
<name>7499</name>
<sym>Dot</sym>
</trkpt>
<trkpt lat="39.870968" lon="-8.444182">
<ele>307.5</ele>
<desc>Speed 2.0 km/h Distance 32.78 km</desc>
<time>2011-05-22T09:44:12.39</time>
<name>7500</name>
<sym>Dot</sym>
</trkpt>
<trkpt lat="39.870967" lon="-8.444187">
<ele>307.5</ele>
<desc>Speed 1.1 km/h Distance 32.78 km</desc>
<time>2011-05-22T09:44:13.39</time>
<name>7501</name>
<sym>Dot</sym>
</trkpt>
<trkpt lat="39.870962" lon="-8.444192">
<ele>307.0</ele>
<desc>Speed 2.4 km/h Distance 32.78 km</desc>
<time>2011-05-22T09:44:14.39</time>
<name>7502</name>
<sym>Dot</sym>
</trkpt>
<trkpt lat="39.870957" lon="-8.444195">
<ele>306.5</ele>
<desc>Speed 1.8 km/h Distance 32.78 km</desc>
<time>2011-05-22T09:44:15.39</time>
<name>7503</name>
<sym>Dot</sym>
</trkpt>
<trkpt lat="39.870955" lon="-8.444205">
<ele>305.5</ele>
<desc>Speed 1.3 km/h Distance 32.78 km</desc>
<time>2011-05-22T09:44:22.39</time>
<name>7504</name>
<sym>Dot</sym>
</trkpt>
<trkpt lat="39.870950" lon="-8.444207">
<ele>305.5</ele>
<desc>Speed 2.1 km/h Distance 32.78 km</desc>
<time>2011-05-22T09:44:23.39</time>
<name>7505</name>
<sym>Dot</sym>
</trkpt>
<trkpt lat="39.870943" lon="-8.444210">
<ele>305.5</ele>
<desc>Speed 2.3 km/h Distance 32.78 km</desc>
<time>2011-05-22T09:44:24.39</time>
<name>7506</name>
<sym>Dot</sym>
</trkpt>
<trkpt lat="39.870927" lon="-8.444223">
<ele>304.5</ele>
<desc>Speed 1.2 km/h Distance 32.78 km</desc>
<time>2011-05-22T09:45:23.42</time>
<name>7507</name>
<sym>Dot</sym>
</trkpt>
<trkpt lat="39.870920" lon="-8.444232">
<ele>304.5</ele>
<desc>Speed 1.1 km/h Distance 32.79 km</desc>
<time>2011-05-22T09:45:40.42</time>
<name>7508</name>
<sym>Dot</sym>
</trkpt>
<trkpt lat="39.870917" lon="-8.444235">
<ele>304.5</ele>
<desc>Speed 1.2 km/h Distance 32.79 km</desc>
<time>2011-05-22T09:45:41.42</time>
<name>7509</name>
<sym>Dot</sym>
</trkpt>
<trkpt lat="39.870917" lon="-8.444243">
<ele>304.0</ele>
<desc>Speed 2.2 km/h Distance 32.79 km</desc>
<time>2011-05-22T09:45:42.42</time>
<name>7510</name>
<sym>Dot</sym>
</trkpt>
<trkpt lat="39.870918" lon="-8.444253">
<ele>304.0</ele>
<desc>Speed 2.8 km/h Distance 32.79 km</desc>
<time>2011-05-22T09:45:43.42</time>
<name>7511</name>
<sym>Dot</sym>
</trkpt>
<trkpt lat="39.870925" lon="-8.444260">
<ele>304.0</ele>
<desc>Speed 3.1 km/h Distance 32.79 km</desc>
<time>2011-05-22T09:45:44.42</time>
<name>7512</name>
<sym>Dot</sym>
</trkpt>
<trkpt lat="39.870927" lon="-8.444267">
<ele>304.0</ele>
<desc>Speed 2.3 km/h Distance 32.79 km</desc>
<time>2011-05-22T09:45:45.42</time>
<name>7513</name>
<sym>Dot</sym>
</trkpt>
<trkpt lat="39.870928" lon="-8.444275">
<ele>304.5</ele>
<desc>Speed 1.4 km/h Distance 32.79 km</desc>
<time>2011-05-22T09:45:46.42</time>
<name>7514</name>
<sym>Dot</sym>
</trkpt>
<trkpt lat="39.870923" lon="-8.444282">
<ele>304.5</ele>
<desc>Speed 1.4 km/h Distance 32.79 km</desc>
<time>2011-05-22T09:45:48.42</time>
<name>7515</name>
<sym>Dot</sym>
</trkpt>
<trkpt lat="39.870922" lon="-8.444288">
<ele>304.5</ele>
<desc>Speed 1.2 km/h Distance 32.79 km</desc>
<time>2011-05-22T09:45:49.42</time>
<name>7516</name>
<sym>Dot</sym>
</trkpt>
<trkpt lat="39.870912" lon="-8.444303">
<ele>306.5</ele>
<desc>Speed 1.1 km/h Distance 32.79 km</desc>
<time>2011-05-22T09:46:03.42</time>
<name>7517</name>
<sym>Dot</sym>
</trkpt>
<trkpt lat="39.870903" lon="-8.444260">
<ele>305.0</ele>
<desc>Speed 1.3 km/h Distance 32.80 km</desc>
<time>2011-05-22T09:55:06.91</time>
<name>7518</name>
<sym>Dot</sym>
</trkpt>
<trkpt lat="39.870898" lon="-8.444248">
<ele>305.0</ele>
<desc>Speed 4.0 km/h Distance 32.80 km</desc>
<time>2011-05-22T09:55:07.91</time>
<name>7519</name>
<sym>Dot</sym>
</trkpt>
<trkpt lat="39.870898" lon="-8.444243">
<ele>305.0</ele>
<desc>Speed 1.3 km/h Distance 32.80 km</desc>
<time>2011-05-22T09:55:31.91</time>
<name>7520</name>
<sym>Dot</sym>
</trkpt>
<trkpt lat="39.870898" lon="-8.444235">
<ele>308.0</ele>
<desc>Speed 1.7 km/h Distance 32.80 km</desc>
<time>2011-05-22T09:55:54.89</time>
<name>7521</name>
<sym>Dot</sym>
</trkpt>
<trkpt lat="39.870888" lon="-8.444235">
<ele>309.0</ele>
<desc>Speed 4.1 km/h Distance 32.80 km</desc>
<time>2011-05-22T09:55:55.89</time>
<name>7522</name>
<sym>Dot</sym>
</trkpt>
<trkpt lat="39.870877" lon="-8.444237">
<ele>310.0</ele>
<desc>Speed 4.6 km/h Distance 32.80 km</desc>
<time>2011-05-22T09:55:56.89</time>
<name>7523</name>
<sym>Dot</sym>
</trkpt>
<trkpt lat="39.870857" lon="-8.444240">
<ele>310.5</ele>
<desc>Speed 8.9 km/h Distance 32.80 km</desc>
<time>2011-05-22T09:55:57.89</time>
<name>7524</name>
<sym>Dot</sym>
</trkpt>
<trkpt lat="39.870833" lon="-8.444243">
<ele>310.5</ele>
<desc>Speed 9.6 km/h Distance 32.81 km</desc>
<time>2011-05-22T09:55:58.88</time>
<name>7525</name>
<sym>Dot</sym>
</trkpt>
<trkpt lat="39.870808" lon="-8.444248">
<ele>310.5</ele>
<desc>Speed 10.5 km/h Distance 32.81 km</desc>
<time>2011-05-22T09:55:59.88</time>
<name>7526</name>
<sym>Dot</sym>
</trkpt>
<trkpt lat="39.870780" lon="-8.444252">
<ele>311.0</ele>
<desc>Speed 11.5 km/h Distance 32.81 km</desc>
<time>2011-05-22T09:56:00.87</time>
<name>7527</name>
<sym>Dot</sym>
</trkpt>
<trkpt lat="39.870748" lon="-8.444253">
<ele>310.5</ele>
<desc>Speed 12.6 km/h Distance 32.82 km</desc>
<time>2011-05-22T09:56:01.87</time>
<name>7528</name>
<sym>Dot</sym>
</trkpt>
<trkpt lat="39.870715" lon="-8.444257">
<ele>310.5</ele>
<desc>Speed 13.8 km/h Distance 32.82 km</desc>
<time>2011-05-22T09:56:02.86</time>
<name>7529</name>
<sym>Dot</sym>
</trkpt>
<trkpt lat="39.870678" lon="-8.444258">
<ele>310.5</ele>
<desc>Speed 14.5 km/h Distance 32.82 km</desc>
<time>2011-05-22T09:56:03.85</time>
<name>7530</name>
<sym>Dot</sym>
</trkpt>
<trkpt lat="39.870642" lon="-8.444260">
<ele>310.5</ele>
<desc>Speed 15.4 km/h Distance 32.83 km</desc>
<time>2011-05-22T09:56:04.85</time>
<name>7531</name>
<sym>Dot</sym>
</trkpt>
<trkpt lat="39.870602" lon="-8.444260">
<ele>310.5</ele>
<desc>Speed 15.7 km/h Distance 32.83 km</desc>
<time>2011-05-22T09:56:05.85</time>
<name>7532</name>
<sym>Dot</sym>
</trkpt>
<trkpt lat="39.870562" lon="-8.444260">
<ele>310.5</ele>
<desc>Speed 16.6 km/h Distance 32.84 km</desc>
<time>2011-05-22T09:56:06.84</time>
<name>7533</name>
<sym>Dot</sym>
</trkpt>
<trkpt lat="39.870520" lon="-8.444263">
<ele>310.0</ele>
<desc>Speed 16.9 km/h Distance 32.84 km</desc>
<time>2011-05-22T09:56:07.83</time>
<name>7534</name>
<sym>Dot</sym>
</trkpt>
<trkpt lat="39.870480" lon="-8.444263">
<ele>310.0</ele>
<desc>Speed 16.4 km/h Distance 32.85 km</desc>
<time>2011-05-22T09:56:08.82</time>
<name>7535</name>
<sym>Dot</sym>
</trkpt>
<trkpt lat="39.870440" lon="-8.444258">
<ele>310.0</ele>
<desc>Speed 16.5 km/h Distance 32.85 km</desc>
<time>2011-05-22T09:56:09.82</time>
<name>7536</name>
<sym>Dot</sym>
</trkpt>
<trkpt lat="39.870398" lon="-8.444257">
<ele>309.5</ele>
<desc>Speed 16.6 km/h Distance 32.85 km</desc>
<time>2011-05-22T09:56:10.82</time>
<name>7537</name>
<sym>Dot</sym>
</trkpt>
<trkpt lat="39.870357" lon="-8.444257">
<ele>309.5</ele>
<desc>Speed 16.5 km/h Distance 32.86 km</desc>
<time>2011-05-22T09:56:11.82</time>
<name>7538</name>
<sym>Dot</sym>
</trkpt>
<trkpt lat="39.870317" lon="-8.444255">
<ele>309.0</ele>
<desc>Speed 16.4 km/h Distance 32.86 km</desc>
<time>2011-05-22T09:56:12.81</time>
<name>7539</name>
<sym>Dot</sym>
</trkpt>
<trkpt lat="39.870277" lon="-8.444252">
<ele>309.0</ele>
<desc>Speed 16.3 km/h Distance 32.87 km</desc>
<time>2011-05-22T09:56:13.81</time>
<name>7540</name>
<sym>Dot</sym>
</trkpt>
<trkpt lat="39.870235" lon="-8.444248">
<ele>308.5</ele>
<desc>Speed 16.6 km/h Distance 32.87 km</desc>
<time>2011-05-22T09:56:14.81</time>
<name>7541</name>
<sym>Dot</sym>
</trkpt>
<trkpt lat="39.870195" lon="-8.444242">
<ele>308.5</ele>
<desc>Speed 16.1 km/h Distance 32.88 km</desc>
<time>2011-05-22T09:56:15.81</time>
<name>7542</name>
<sym>Dot</sym>
</trkpt>
<trkpt lat="39.870157" lon="-8.444235">
<ele>308.0</ele>
<desc>Speed 16.0 km/h Distance 32.88 km</desc>
<time>2011-05-22T09:56:16.81</time>
<name>7543</name>
<sym>Dot</sym>
</trkpt>
<trkpt lat="39.870117" lon="-8.444228">
<ele>308.0</ele>
<desc>Speed 15.9 km/h Distance 32.89 km</desc>
<time>2011-05-22T09:56:17.81</time>
<name>7544</name>
<sym>Dot</sym>
</trkpt>
<trkpt lat="39.870077" lon="-8.444220">
<ele>307.5</ele>
<desc>Speed 15.6 km/h Distance 32.89 km</desc>
<time>2011-05-22T09:56:18.80</time>
<name>7545</name>
<sym>Dot</sym>
</trkpt>
<trkpt lat="39.870038" lon="-8.444212">
<ele>307.5</ele>
<desc>Speed 15.5 km/h Distance 32.89 km</desc>
<time>2011-05-22T09:56:19.80</time>
<name>7546</name>
<sym>Dot</sym>
</trkpt>
<trkpt lat="39.870000" lon="-8.444203">
<ele>307.5</ele>
<desc>Speed 15.6 km/h Distance 32.90 km</desc>
<time>2011-05-22T09:56:20.79</time>
<name>7547</name>
<sym>Dot</sym>
</trkpt>
<trkpt lat="39.869960" lon="-8.444197">
<ele>306.5</ele>
<desc>Speed 16.1 km/h Distance 32.90 km</desc>
<time>2011-05-22T09:56:21.79</time>
<name>7548</name>
<sym>Dot</sym>
</trkpt>
<trkpt lat="39.869920" lon="-8.444190">
<ele>306.0</ele>
<desc>Speed 15.9 km/h Distance 32.91 km</desc>
<time>2011-05-22T09:56:22.79</time>
<name>7549</name>
<sym>Dot</sym>
</trkpt>
<trkpt lat="39.869880" lon="-8.444182">
<ele>305.5</ele>
<desc>Speed 16.5 km/h Distance 32.91 km</desc>
<time>2011-05-22T09:56:23.79</time>
<name>7550</name>
<sym>Dot</sym>
</trkpt>
<trkpt lat="39.869840" lon="-8.444173">
<ele>305.0</ele>
<desc>Speed 16.1 km/h Distance 32.92 km</desc>
<time>2011-05-22T09:56:24.78</time>
<name>7551</name>
<sym>Dot</sym>
</trkpt>
<trkpt lat="39.869802" lon="-8.444162">
<ele>304.5</ele>
<desc>Speed 16.1 km/h Distance 32.92 km</desc>
<time>2011-05-22T09:56:25.78</time>
<name>7552</name>
<sym>Dot</sym>
</trkpt>
<trkpt lat="39.869763" lon="-8.444152">
<ele>304.0</ele>
<desc>Speed 16.0 km/h Distance 32.93 km</desc>
<time>2011-05-22T09:56:26.78</time>
<name>7553</name>
<sym>Dot</sym>
</trkpt>
<trkpt lat="39.869725" lon="-8.444142">
<ele>304.0</ele>
<desc>Speed 15.5 km/h Distance 32.93 km</desc>
<time>2011-05-22T09:56:27.78</time>
<name>7554</name>
<sym>Dot</sym>
</trkpt>
<trkpt lat="39.869688" lon="-8.444132">
<ele>303.5</ele>
<desc>Speed 15.2 km/h Distance 32.93 km</desc>
<time>2011-05-22T09:56:28.78</time>
<name>7555</name>
<sym>Dot</sym>
</trkpt>
<trkpt lat="39.869652" lon="-8.444123">
<ele>303.5</ele>
<desc>Speed 15.0 km/h Distance 32.94 km</desc>
<time>2011-05-22T09:56:29.78</time>
<name>7556</name>
<sym>Dot</sym>
</trkpt>
<trkpt lat="39.869617" lon="-8.444115">
<ele>303.0</ele>
<desc>Speed 14.2 km/h Distance 32.94 km</desc>
<time>2011-05-22T09:56:30.77</time>
<name>7557</name>
<sym>Dot</sym>
</trkpt>
<trkpt lat="39.869583" lon="-8.444107">
<ele>303.0</ele>
<desc>Speed 13.9 km/h Distance 32.95 km</desc>
<time>2011-05-22T09:56:31.77</time>
<name>7558</name>
<sym>Dot</sym>
</trkpt>
<trkpt lat="39.869550" lon="-8.444098">
<ele>303.0</ele>
<desc>Speed 13.6 km/h Distance 32.95 km</desc>
<time>2011-05-22T09:56:32.76</time>
<name>7559</name>
<sym>Dot</sym>
</trkpt>
<trkpt lat="39.869517" lon="-8.444090">
<ele>302.5</ele>
<desc>Speed 14.2 km/h Distance 32.95 km</desc>
<time>2011-05-22T09:56:33.76</time>
<name>7560</name>
<sym>Dot</sym>
</trkpt>
<trkpt lat="39.869482" lon="-8.444083">
<ele>303.0</ele>
<desc>Speed 14.4 km/h Distance 32.96 km</desc>
<time>2011-05-22T09:56:34.76</time>
<name>7561</name>
<sym>Dot</sym>
</trkpt>
<trkpt lat="39.869443" lon="-8.444075">
<ele>302.5</ele>
<desc>Speed 15.4 km/h Distance 32.96 km</desc>
<time>2011-05-22T09:56:35.76</time>
<name>7562</name>
<sym>Dot</sym>
</trkpt>
<trkpt lat="39.869403" lon="-8.444072">
<ele>302.5</ele>
<desc>Speed 15.9 km/h Distance 32.97 km</desc>
<time>2011-05-22T09:56:36.76</time>
<name>7563</name>
<sym>Dot</sym>
</trkpt>
<trkpt lat="39.869363" lon="-8.444067">
<ele>302.0</ele>
<desc>Speed 16.2 km/h Distance 32.97 km</desc>
<time>2011-05-22T09:56:37.76</time>
<name>7564</name>
<sym>Dot</sym>
</trkpt>
<trkpt lat="39.869322" lon="-8.444062">
<ele>302.0</ele>
<desc>Speed 15.9 km/h Distance 32.98 km</desc>
<time>2011-05-22T09:56:38.75</time>
<name>7565</name>
<sym>Dot</sym>
</trkpt>
<trkpt lat="39.869283" lon="-8.444058">
<ele>301.5</ele>
<desc>Speed 15.8 km/h Distance 32.98 km</desc>
<time>2011-05-22T09:56:39.75</time>
<name>7566</name>
<sym>Dot</sym>
</trkpt>
<trkpt lat="39.869243" lon="-8.444058">
<ele>301.5</ele>
<desc>Speed 16.1 km/h Distance 32.98 km</desc>
<time>2011-05-22T09:56:40.74</time>
<name>7567</name>
<sym>Dot</sym>
</trkpt>
<trkpt lat="39.869202" lon="-8.444060">
<ele>301.0</ele>
<desc>Speed 16.5 km/h Distance 32.99 km</desc>
<time>2011-05-22T09:56:41.74</time>
<name>7568</name>
<sym>Dot</sym>
</trkpt>
<trkpt lat="39.869158" lon="-8.444062">
<ele>301.0</ele>
<desc>Speed 17.4 km/h Distance 32.99 km</desc>
<time>2011-05-22T09:56:42.73</time>
<name>7569</name>
<sym>Dot</sym>
</trkpt>
<trkpt lat="39.869113" lon="-8.444070">
<ele>300.5</ele>
<desc>Speed 18.3 km/h Distance 33.00 km</desc>
<time>2011-05-22T09:56:43.73</time>
<name>7570</name>
<sym>Dot</sym>
</trkpt>
<trkpt lat="39.869067" lon="-8.444080">
<ele>300.5</ele>
<desc>Speed 19.0 km/h Distance 33.00 km</desc>
<time>2011-05-22T09:56:44.73</time>
<name>7571</name>
<sym>Dot</sym>
</trkpt>
<trkpt lat="39.869018" lon="-8.444090">
<ele>300.0</ele>
<desc>Speed 19.9 km/h Distance 33.01 km</desc>
<time>2011-05-22T09:56:45.72</time>
<name>7572</name>
<sym>Dot</sym>
</trkpt>
<trkpt lat="39.868968" lon="-8.444100">
<ele>300.0</ele>
<desc>Speed 20.3 km/h Distance 33.02 km</desc>
<time>2011-05-22T09:56:46.72</time>
<name>7573</name>
<sym>Dot</sym>
</trkpt>
<trkpt lat="39.868918" lon="-8.444112">
<ele>300.0</ele>
<desc>Speed 20.5 km/h Distance 33.02 km</desc>
<time>2011-05-22T09:56:47.72</time>
<name>7574</name>
<sym>Dot</sym>
</trkpt>
<trkpt lat="39.868868" lon="-8.444127">
<ele>299.5</ele>
<desc>Speed 20.6 km/h Distance 33.03 km</desc>
<time>2011-05-22T09:56:48.72</time>
<name>7575</name>
<sym>Dot</sym>
</trkpt>
<trkpt lat="39.868818" lon="-8.444142">
<ele>300.0</ele>
<desc>Speed 20.8 km/h Distance 33.03 km</desc>
<time>2011-05-22T09:56:49.72</time>
<name>7576</name>
<sym>Dot</sym>
</trkpt>
<trkpt lat="39.868767" lon="-8.444158">
<ele>300.5</ele>
<desc>Speed 21.2 km/h Distance 33.04 km</desc>
<time>2011-05-22T09:56:50.71</time>
<name>7577</name>
<sym>Dot</sym>
</trkpt>
<trkpt lat="39.868713" lon="-8.444175">
<ele>300.5</ele>
<desc>Speed 21.6 km/h Distance 33.04 km</desc>
<time>2011-05-22T09:56:51.71</time>
<name>7578</name>
<sym>Dot</sym>
</trkpt>
<trkpt lat="39.868662" lon="-8.444192">
<ele>300.5</ele>
<desc>Speed 21.6 km/h Distance 33.05 km</desc>
<time>2011-05-22T09:56:52.71</time>
<name>7579</name>
<sym>Dot</sym>
</trkpt>
<trkpt lat="39.868608" lon="-8.444208">
<ele>300.5</ele>
<desc>Speed 21.6 km/h Distance 33.06 km</desc>
<time>2011-05-22T09:56:53.71</time>
<name>7580</name>
<sym>Dot</sym>
</trkpt>
<trkpt lat="39.868557" lon="-8.444227">
<ele>300.5</ele>
<desc>Speed 21.7 km/h Distance 33.06 km</desc>
<time>2011-05-22T09:56:54.71</time>
<name>7581</name>
<sym>Dot</sym>
</trkpt>
<trkpt lat="39.868503" lon="-8.444243">
<ele>300.5</ele>
<desc>Speed 22.1 km/h Distance 33.07 km</desc>
<time>2011-05-22T09:56:55.70</time>
<name>7582</name>
<sym>Dot</sym>
</trkpt>
<trkpt lat="39.868448" lon="-8.444262">
<ele>300.5</ele>
<desc>Speed 22.5 km/h Distance 33.07 km</desc>
<time>2011-05-22T09:56:56.70</time>
<name>7583</name>
<sym>Dot</sym>
</trkpt>
<trkpt lat="39.868393" lon="-8.444278">
<ele>300.5</ele>
<desc>Speed 23.0 km/h Distance 33.08 km</desc>
<time>2011-05-22T09:56:57.70</time>
<name>7584</name>
<sym>Dot</sym>
</trkpt>
<trkpt lat="39.868335" lon="-8.444295">
<ele>300.5</ele>
<desc>Speed 23.9 km/h Distance 33.09 km</desc>
<time>2011-05-22T09:56:58.70</time>
<name>7585</name>
<sym>Dot</sym>
</trkpt>
<trkpt lat="39.868278" lon="-8.444313">
<ele>300.5</ele>
<desc>Speed 23.8 km/h Distance 33.09 km</desc>
<time>2011-05-22T09:56:59.70</time>
<name>7586</name>
<sym>Dot</sym>
</trkpt>
<trkpt lat="39.868220" lon="-8.444332">
<ele>300.5</ele>
<desc>Speed 24.3 km/h Distance 33.10 km</desc>
<time>2011-05-22T09:57:00.69</time>
<name>7587</name>
<sym>Dot</sym>
</trkpt>
<trkpt lat="39.868160" lon="-8.444348">
<ele>300.0</ele>
<desc>Speed 24.3 km/h Distance 33.11 km</desc>
<time>2011-05-22T09:57:01.68</time>
<name>7588</name>
<sym>Dot</sym>
</trkpt>
<trkpt lat="39.868102" lon="-8.444368">
<ele>300.0</ele>
<desc>Speed 24.5 km/h Distance 33.11 km</desc>
<time>2011-05-22T09:57:02.68</time>
<name>7589</name>
<sym>Dot</sym>
</trkpt>
<trkpt lat="39.868043" lon="-8.444388">
<ele>299.5</ele>
<desc>Speed 23.9 km/h Distance 33.12 km</desc>
<time>2011-05-22T09:57:03.68</time>
<name>7590</name>
<sym>Dot</sym>
</trkpt>
<trkpt lat="39.867987" lon="-8.444407">
<ele>299.5</ele>
<desc>Speed 23.8 km/h Distance 33.13 km</desc>
<time>2011-05-22T09:57:04.67</time>
<name>7591</name>
<sym>Dot</sym>
</trkpt>
<trkpt lat="39.867928" lon="-8.444425">
<ele>299.5</ele>
<desc>Speed 23.8 km/h Distance 33.13 km</desc>
<time>2011-05-22T09:57:05.67</time>
<name>7592</name>
<sym>Dot</sym>
</trkpt>
<trkpt lat="39.867870" lon="-8.444442">
<ele>299.0</ele>
<desc>Speed 23.9 km/h Distance 33.14 km</desc>
<time>2011-05-22T09:57:06.67</time>
<name>7593</name>
<sym>Dot</sym>
</trkpt>
<trkpt lat="39.867813" lon="-8.444458">
<ele>299.5</ele>
<desc>Speed 24.0 km/h Distance 33.15 km</desc>
<time>2011-05-22T09:57:07.67</time>
<name>7594</name>
<sym>Dot</sym>
</trkpt>
<trkpt lat="39.867753" lon="-8.444472">
<ele>299.5</ele>
<desc>Speed 24.4 km/h Distance 33.15 km</desc>
<time>2011-05-22T09:57:08.67</time>
<name>7595</name>
<sym>Dot</sym>
</trkpt>
<trkpt lat="39.867692" lon="-8.444487">
<ele>300.0</ele>
<desc>Speed 25.0 km/h Distance 33.16 km</desc>
<time>2011-05-22T09:57:09.66</time>
<name>7596</name>
<sym>Dot</sym>
</trkpt>
<trkpt lat="39.867630" lon="-8.444503">
<ele>300.5</ele>
<desc>Speed 25.3 km/h Distance 33.17 km</desc>
<time>2011-05-22T09:57:10.66</time>
<name>7597</name>
<sym>Dot</sym>
</trkpt>
<trkpt lat="39.867568" lon="-8.444522">
<ele>300.5</ele>
<desc>Speed 25.7 km/h Distance 33.18 km</desc>
<time>2011-05-22T09:57:11.65</time>
<name>7598</name>
<sym>Dot</sym>
</trkpt>
<trkpt lat="39.867505" lon="-8.444532">
<ele>301.5</ele>
<desc>Speed 25.6 km/h Distance 33.18 km</desc>
<time>2011-05-22T09:57:12.65</time>
<name>7599</name>
<sym>Dot</sym>
</trkpt>
<trkpt lat="39.867443" lon="-8.444542">
<ele>302.5</ele>
<desc>Speed 25.3 km/h Distance 33.19 km</desc>
<time>2011-05-22T09:57:13.64</time>
<name>7600</name>
<sym>Dot</sym>
</trkpt>
<trkpt lat="39.867382" lon="-8.444550">
<ele>304.0</ele>
<desc>Speed 24.6 km/h Distance 33.20 km</desc>
<time>2011-05-22T09:57:14.64</time>
<name>7601</name>
<sym>Dot</sym>
</trkpt>
<trkpt lat="39.867323" lon="-8.444558">
<ele>304.5</ele>
<desc>Speed 24.2 km/h Distance 33.20 km</desc>
<time>2011-05-22T09:57:15.63</time>
<name>7602</name>
<sym>Dot</sym>
</trkpt>
<trkpt lat="39.867265" lon="-8.444575">
<ele>304.5</ele>
<desc>Speed 23.9 km/h Distance 33.21 km</desc>
<time>2011-05-22T09:57:16.63</time>
<name>7603</name>
<sym>Dot</sym>
</trkpt>
<trkpt lat="39.867208" lon="-8.444592">
<ele>304.5</ele>
<desc>Speed 23.4 km/h Distance 33.22 km</desc>
<time>2011-05-22T09:57:17.62</time>
<name>7604</name>
<sym>Dot</sym>
</trkpt>
<trkpt lat="39.867152" lon="-8.444605">
<ele>305.0</ele>
<desc>Speed 23.1 km/h Distance 33.22 km</desc>
<time>2011-05-22T09:57:18.62</time>
<name>7605</name>
<sym>Dot</sym>
</trkpt>
<trkpt lat="39.867095" lon="-8.444623">
<ele>305.0</ele>
<desc>Speed 23.6 km/h Distance 33.23 km</desc>
<time>2011-05-22T09:57:19.62</time>
<name>7606</name>
<sym>Dot</sym>
</trkpt>
<trkpt lat="39.867038" lon="-8.444643">
<ele>305.0</ele>
<desc>Speed 23.8 km/h Distance 33.24 km</desc>
<time>2011-05-22T09:57:20.62</time>
<name>7607</name>
<sym>Dot</sym>
</trkpt>
<trkpt lat="39.866982" lon="-8.444665">
<ele>305.0</ele>
<desc>Speed 23.9 km/h Distance 33.24 km</desc>
<time>2011-05-22T09:57:21.61</time>
<name>7608</name>
<sym>Dot</sym>
</trkpt>
<trkpt lat="39.866925" lon="-8.444687">
<ele>304.5</ele>
<desc>Speed 23.7 km/h Distance 33.25 km</desc>
<time>2011-05-22T09:57:22.60</time>
<name>7609</name>
<sym>Dot</sym>
</trkpt>
<trkpt lat="39.866868" lon="-8.444707">
<ele>305.0</ele>
<desc>Speed 23.5 km/h Distance 33.25 km</desc>
<time>2011-05-22T09:57:23.60</time>
<name>7610</name>
<sym>Dot</sym>
</trkpt>
<trkpt lat="39.866812" lon="-8.444728">
<ele>305.0</ele>
<desc>Speed 23.6 km/h Distance 33.26 km</desc>
<time>2011-05-22T09:57:24.60</time>
<name>7611</name>
<sym>Dot</sym>
</trkpt>
<trkpt lat="39.866757" lon="-8.444753">
<ele>305.0</ele>
<desc>Speed 23.5 km/h Distance 33.27 km</desc>
<time>2011-05-22T09:57:25.59</time>
<name>7612</name>
<sym>Dot</sym>
</trkpt>
<trkpt lat="39.866703" lon="-8.444782">
<ele>305.0</ele>
<desc>Speed 23.3 km/h Distance 33.27 km</desc>
<time>2011-05-22T09:57:26.59</time>
<name>7613</name>
<sym>Dot</sym>
</trkpt>
<trkpt lat="39.866650" lon="-8.444812">
<ele>304.5</ele>
<desc>Speed 23.2 km/h Distance 33.28 km</desc>
<time>2011-05-22T09:57:27.58</time>
<name>7614</name>
<sym>Dot</sym>
</trkpt>
<trkpt lat="39.866598" lon="-8.444842">
<ele>304.5</ele>
<desc>Speed 22.8 km/h Distance 33.29 km</desc>
<time>2011-05-22T09:57:28.58</time>
<name>7615</name>
<sym>Dot</sym>
</trkpt>
<trkpt lat="39.866550" lon="-8.444875">
<ele>304.5</ele>
<desc>Speed 22.3 km/h Distance 33.29 km</desc>
<time>2011-05-22T09:57:29.58</time>
<name>7616</name>
<sym>Dot</sym>
</trkpt>
<trkpt lat="39.866502" lon="-8.444908">
<ele>304.0</ele>
<desc>Speed 21.9 km/h Distance 33.30 km</desc>
<time>2011-05-22T09:57:30.57</time>
<name>7617</name>
<sym>Dot</sym>
</trkpt>
<trkpt lat="39.866455" lon="-8.444942">
<ele>304.0</ele>
<desc>Speed 21.3 km/h Distance 33.31 km</desc>
<time>2011-05-22T09:57:31.57</time>
<name>7618</name>
<sym>Dot</sym>
</trkpt>
<trkpt lat="39.866410" lon="-8.444977">
<ele>304.0</ele>
<desc>Speed 21.0 km/h Distance 33.31 km</desc>
<time>2011-05-22T09:57:32.56</time>
<name>7619</name>
<sym>Dot</sym>
</trkpt>
<trkpt lat="39.866368" lon="-8.445013">
<ele>304.0</ele>
<desc>Speed 19.7 km/h Distance 33.32 km</desc>
<time>2011-05-22T09:57:33.56</time>
<name>7620</name>
<sym>Dot</sym>
</trkpt>
<trkpt lat="39.866327" lon="-8.445050">
<ele>303.5</ele>
<desc>Speed 20.1 km/h Distance 33.32 km</desc>
<time>2011-05-22T09:57:34.56</time>
<name>7621</name>
<sym>Dot</sym>
</trkpt>
<trkpt lat="39.866287" lon="-8.445088">
<ele>303.5</ele>
<desc>Speed 19.8 km/h Distance 33.33 km</desc>
<time>2011-05-22T09:57:35.56</time>
<name>7622</name>
<sym>Dot</sym>
</trkpt>
<trkpt lat="39.866247" lon="-8.445125">
<ele>303.5</ele>
<desc>Speed 19.5 km/h Distance 33.33 km</desc>
<time>2011-05-22T09:57:36.55</time>
<name>7623</name>
<sym>Dot</sym>
</trkpt>
<trkpt lat="39.866210" lon="-8.445163">
<ele>303.5</ele>
<desc>Speed 19.5 km/h Distance 33.34 km</desc>
<time>2011-05-22T09:57:37.55</time>
<name>7624</name>
<sym>Dot</sym>
</trkpt>
<trkpt lat="39.866175" lon="-8.445205">
<ele>303.5</ele>
<desc>Speed 18.9 km/h Distance 33.34 km</desc>
<time>2011-05-22T09:57:38.55</time>
<name>7625</name>
<sym>Dot</sym>
</trkpt>
<trkpt lat="39.866140" lon="-8.445245">
<ele>304.0</ele>
<desc>Speed 18.3 km/h Distance 33.35 km</desc>
<time>2011-05-22T09:57:39.54</time>
<name>7626</name>
<sym>Dot</sym>
</trkpt>
<trkpt lat="39.866108" lon="-8.445288">
<ele>304.0</ele>
<desc>Speed 18.5 km/h Distance 33.35 km</desc>
<time>2011-05-22T09:57:40.54</time>
<name>7627</name>
<sym>Dot</sym>
</trkpt>
<trkpt lat="39.866077" lon="-8.445332">
<ele>304.0</ele>
<desc>Speed 18.1 km/h Distance 33.36 km</desc>
<time>2011-05-22T09:57:41.54</time>
<name>7628</name>
<sym>Dot</sym>
</trkpt>
<trkpt lat="39.866047" lon="-8.445373">
<ele>304.0</ele>
<desc>Speed 17.4 km/h Distance 33.36 km</desc>
<time>2011-05-22T09:57:42.53</time>
<name>7629</name>
<sym>Dot</sym>
</trkpt>
<trkpt lat="39.866020" lon="-8.445417">
<ele>303.5</ele>
<desc>Speed 17.4 km/h Distance 33.37 km</desc>
<time>2011-05-22T09:57:43.53</time>
<name>7630</name>
<sym>Dot</sym>
</trkpt>
<trkpt lat="39.865992" lon="-8.445463">
<ele>303.0</ele>
<desc>Speed 17.5 km/h Distance 33.37 km</desc>
<time>2011-05-22T09:57:44.53</time>
<name>7631</name>
<sym>Dot</sym>
</trkpt>
<trkpt lat="39.865967" lon="-8.445508">
<ele>303.0</ele>
<desc>Speed 17.3 km/h Distance 33.38 km</desc>
<time>2011-05-22T09:57:45.53</time>
<name>7632</name>
<sym>Dot</sym>
</trkpt>
<trkpt lat="39.865942" lon="-8.445555">
<ele>303.0</ele>
<desc>Speed 17.2 km/h Distance 33.38 km</desc>
<time>2011-05-22T09:57:46.53</time>
<name>7633</name>
<sym>Dot</sym>
</trkpt>
<trkpt lat="39.865917" lon="-8.445602">
<ele>303.0</ele>
<desc>Speed 17.1 km/h Distance 33.39 km</desc>
<time>2011-05-22T09:57:47.52</time>
<name>7634</name>
<sym>Dot</sym>
</trkpt>
<trkpt lat="39.865893" lon="-8.445648">
<ele>303.0</ele>
<desc>Speed 17.2 km/h Distance 33.39 km</desc>
<time>2011-05-22T09:57:48.51</time>
<name>7635</name>
<sym>Dot</sym>
</trkpt>
<trkpt lat="39.865870" lon="-8.445695">
<ele>302.5</ele>
<desc>Speed 16.5 km/h Distance 33.40 km</desc>
<time>2011-05-22T09:57:49.51</time>
<name>7636</name>
<sym>Dot</sym>
</trkpt>
<trkpt lat="39.865850" lon="-8.445740">
<ele>303.0</ele>
<desc>Speed 16.3 km/h Distance 33.40 km</desc>
<time>2011-05-22T09:57:50.50</time>
<name>7637</name>
<sym>Dot</sym>
</trkpt>
<trkpt lat="39.865830" lon="-8.445785">
<ele>303.0</ele>
<desc>Speed 16.1 km/h Distance 33.41 km</desc>
<time>2011-05-22T09:57:51.50</time>
<name>7638</name>
<sym>Dot</sym>
</trkpt>
<trkpt lat="39.865810" lon="-8.445832">
<ele>303.0</ele>
<desc>Speed 15.8 km/h Distance 33.41 km</desc>
<time>2011-05-22T09:57:52.50</time>
<name>7639</name>
<sym>Dot</sym>
</trkpt>
<trkpt lat="39.865793" lon="-8.445875">
<ele>303.0</ele>
<desc>Speed 15.2 km/h Distance 33.42 km</desc>
<time>2011-05-22T09:57:53.49</time>
<name>7640</name>
<sym>Dot</sym>
</trkpt>
<trkpt lat="39.865777" lon="-8.445918">
<ele>303.0</ele>
<desc>Speed 14.9 km/h Distance 33.42 km</desc>
<time>2011-05-22T09:57:54.49</time>
<name>7641</name>
<sym>Dot</sym>
</trkpt>
<trkpt lat="39.865760" lon="-8.445962">
<ele>303.0</ele>
<desc>Speed 14.4 km/h Distance 33.42 km</desc>
<time>2011-05-22T09:57:55.49</time>
<name>7642</name>
<sym>Dot</sym>
</trkpt>
<trkpt lat="39.865743" lon="-8.446003">
<ele>303.0</ele>
<desc>Speed 14.2 km/h Distance 33.43 km</desc>
<time>2011-05-22T09:57:56.48</time>
<name>7643</name>
<sym>Dot</sym>
</trkpt>
<trkpt lat="39.865728" lon="-8.446045">
<ele>303.0</ele>
<desc>Speed 14.2 km/h Distance 33.43 km</desc>
<time>2011-05-22T09:57:57.48</time>
<name>7644</name>
<sym>Dot</sym>
</trkpt>
<trkpt lat="39.865713" lon="-8.446087">
<ele>303.0</ele>
<desc>Speed 14.0 km/h Distance 33.44 km</desc>
<time>2011-05-22T09:57:58.48</time>
<name>7645</name>
<sym>Dot</sym>
</trkpt>
<trkpt lat="39.865698" lon="-8.446128">
<ele>303.0</ele>
<desc>Speed 13.7 km/h Distance 33.44 km</desc>
<time>2011-05-22T09:57:59.47</time>
<name>7646</name>
<sym>Dot</sym>
</trkpt>
<trkpt lat="39.865683" lon="-8.446170">
<ele>303.0</ele>
<desc>Speed 13.9 km/h Distance 33.44 km</desc>
<time>2011-05-22T09:58:00.47</time>
<name>7647</name>
<sym>Dot</sym>
</trkpt>
<trkpt lat="39.865667" lon="-8.446212">
<ele>303.0</ele>
<desc>Speed 14.1 km/h Distance 33.45 km</desc>
<time>2011-05-22T09:58:01.47</time>
<name>7648</name>
<sym>Dot</sym>
</trkpt>
<trkpt lat="39.865652" lon="-8.446252">
<ele>303.0</ele>
<desc>Speed 13.7 km/h Distance 33.45 km</desc>
<time>2011-05-22T09:58:02.47</time>
<name>7649</name>
<sym>Dot</sym>
</trkpt>
<trkpt lat="39.865638" lon="-8.446292">
<ele>303.0</ele>
<desc>Speed 13.1 km/h Distance 33.46 km</desc>
<time>2011-05-22T09:58:03.46</time>
<name>7650</name>
<sym>Dot</sym>
</trkpt>
<trkpt lat="39.865627" lon="-8.446328">
<ele>303.0</ele>
<desc>Speed 12.1 km/h Distance 33.46 km</desc>
<time>2011-05-22T09:58:04.46</time>
<name>7651</name>
<sym>Dot</sym>
</trkpt>
<trkpt lat="39.865615" lon="-8.446363">
<ele>303.0</ele>
<desc>Speed 11.4 km/h Distance 33.46 km</desc>
<time>2011-05-22T09:58:05.45</time>
<name>7652</name>
<sym>Dot</sym>
</trkpt>
<trkpt lat="39.865605" lon="-8.446397">
<ele>303.0</ele>
<desc>Speed 10.8 km/h Distance 33.46 km</desc>
<time>2011-05-22T09:58:06.45</time>
<name>7653</name>
<sym>Dot</sym>
</trkpt>
<trkpt lat="39.865595" lon="-8.446430">
<ele>303.0</ele>
<desc>Speed 10.8 km/h Distance 33.47 km</desc>
<time>2011-05-22T09:58:07.45</time>
<name>7654</name>
<sym>Dot</sym>
</trkpt>
<trkpt lat="39.865585" lon="-8.446463">
<ele>303.0</ele>
<desc>Speed 11.0 km/h Distance 33.47 km</desc>
<time>2011-05-22T09:58:08.45</time>
<name>7655</name>
<sym>Dot</sym>
</trkpt>
<trkpt lat="39.865573" lon="-8.446497">
<ele>303.0</ele>
<desc>Speed 10.7 km/h Distance 33.47 km</desc>
<time>2011-05-22T09:58:09.45</time>
<name>7656</name>
<sym>Dot</sym>
</trkpt>
<trkpt lat="39.865563" lon="-8.446525">
<ele>303.5</ele>
<desc>Speed 9.7 km/h Distance 33.48 km</desc>
<time>2011-05-22T09:58:10.44</time>
<name>7657</name>
<sym>Dot</sym>
</trkpt>
<trkpt lat="39.865553" lon="-8.446552">
<ele>303.5</ele>
<desc>Speed 8.9 km/h Distance 33.48 km</desc>
<time>2011-05-22T09:58:11.44</time>
<name>7658</name>
<sym>Dot</sym>
</trkpt>
<trkpt lat="39.865547" lon="-8.446573">
<ele>303.5</ele>
<desc>Speed 7.4 km/h Distance 33.48 km</desc>
<time>2011-05-22T09:58:12.44</time>
<name>7659</name>
<sym>Dot</sym>
</trkpt>
<trkpt lat="39.865540" lon="-8.446595">
<ele>303.5</ele>
<desc>Speed 7.0 km/h Distance 33.48 km</desc>
<time>2011-05-22T09:58:13.44</time>
<name>7660</name>
<sym>Dot</sym>
</trkpt>
<trkpt lat="39.865533" lon="-8.446615">
<ele>304.0</ele>
<desc>Speed 6.8 km/h Distance 33.49 km</desc>
<time>2011-05-22T09:58:14.43</time>
<name>7661</name>
<sym>Dot</sym>
</trkpt>
<trkpt lat="39.865525" lon="-8.446637">
<ele>304.0</ele>
<desc>Speed 7.1 km/h Distance 33.49 km</desc>
<time>2011-05-22T09:58:15.43</time>
<name>7662</name>
<sym>Dot</sym>
</trkpt>
<trkpt lat="39.865515" lon="-8.446662">
<ele>304.5</ele>
<desc>Speed 8.4 km/h Distance 33.49 km</desc>
<time>2011-05-22T09:58:16.42</time>
<name>7663</name>
<sym>Dot</sym>
</trkpt>
<trkpt lat="39.865500" lon="-8.446688">
<ele>304.5</ele>
<desc>Speed 10.3 km/h Distance 33.49 km</desc>
<time>2011-05-22T09:58:17.42</time>
<name>7664</name>
<sym>Dot</sym>
</trkpt>
<trkpt lat="39.865485" lon="-8.446720">
<ele>304.5</ele>
<desc>Speed 11.4 km/h Distance 33.50 km</desc>
<time>2011-05-22T09:58:18.42</time>
<name>7665</name>
<sym>Dot</sym>
</trkpt>
<trkpt lat="39.865472" lon="-8.446755">
<ele>304.5</ele>
<desc>Speed 11.7 km/h Distance 33.50 km</desc>
<time>2011-05-22T09:58:19.42</time>
<name>7666</name>
<sym>Dot</sym>
</trkpt>
<trkpt lat="39.865460" lon="-8.446790">
<ele>304.5</ele>
<desc>Speed 11.7 km/h Distance 33.50 km</desc>
<time>2011-05-22T09:58:20.42</time>
<name>7667</name>
<sym>Dot</sym>
</trkpt>
<trkpt lat="39.865448" lon="-8.446825">
<ele>305.0</ele>
<desc>Speed 11.7 km/h Distance 33.51 km</desc>
<time>2011-05-22T09:58:21.42</time>
<name>7668</name>
<sym>Dot</sym>
</trkpt>
<trkpt lat="39.865437" lon="-8.446858">
<ele>305.0</ele>
<desc>Speed 11.0 km/h Distance 33.51 km</desc>
<time>2011-05-22T09:58:22.41</time>
<name>7669</name>
<sym>Dot</sym>
</trkpt>
<trkpt lat="39.865423" lon="-8.446888">
<ele>305.0</ele>
<desc>Speed 10.3 km/h Distance 33.51 km</desc>
<time>2011-05-22T09:58:23.41</time>
<name>7670</name>
<sym>Dot</sym>
</trkpt>
<trkpt lat="39.865412" lon="-8.446917">
<ele>305.5</ele>
<desc>Speed 9.9 km/h Distance 33.51 km</desc>
<time>2011-05-22T09:58:24.41</time>
<name>7671</name>
<sym>Dot</sym>
</trkpt>
<trkpt lat="39.865400" lon="-8.446945">
<ele>305.5</ele>
<desc>Speed 9.4 km/h Distance 33.52 km</desc>
<time>2011-05-22T09:58:25.41</time>
<name>7672</name>
<sym>Dot</sym>
</trkpt>
<trkpt lat="39.865387" lon="-8.446972">
<ele>306.0</ele>
<desc>Speed 9.7 km/h Distance 33.52 km</desc>
<time>2011-05-22T09:58:26.41</time>
<name>7673</name>
<sym>Dot</sym>
</trkpt>
<trkpt lat="39.865373" lon="-8.446997">
<ele>306.0</ele>
<desc>Speed 9.6 km/h Distance 33.52 km</desc>
<time>2011-05-22T09:58:27.41</time>
<name>7674</name>
<sym>Dot</sym>
</trkpt>
<trkpt lat="39.865358" lon="-8.447023">
<ele>306.0</ele>
<desc>Speed 9.8 km/h Distance 33.53 km</desc>
<time>2011-05-22T09:58:28.41</time>
<name>7675</name>
<sym>Dot</sym>
</trkpt>
<trkpt lat="39.865343" lon="-8.447048">
<ele>306.0</ele>
<desc>Speed 9.8 km/h Distance 33.53 km</desc>
<time>2011-05-22T09:58:29.41</time>
<name>7676</name>
<sym>Dot</sym>
</trkpt>
<trkpt lat="39.865330" lon="-8.447072">
<ele>306.0</ele>
<desc>Speed 9.2 km/h Distance 33.53 km</desc>
<time>2011-05-22T09:58:30.41</time>
<name>7677</name>
<sym>Dot</sym>
</trkpt>
<trkpt lat="39.865317" lon="-8.447095">
<ele>306.0</ele>
<desc>Speed 8.6 km/h Distance 33.53 km</desc>
<time>2011-05-22T09:58:31.41</time>
<name>7678</name>
<sym>Dot</sym>
</trkpt>
<trkpt lat="39.865302" lon="-8.447118">
<ele>306.0</ele>
<desc>Speed 9.1 km/h Distance 33.54 km</desc>
<time>2011-05-22T09:58:32.40</time>
<name>7679</name>
<sym>Dot</sym>
</trkpt>
<trkpt lat="39.865288" lon="-8.447143">
<ele>306.0</ele>
<desc>Speed 9.3 km/h Distance 33.54 km</desc>
<time>2011-05-22T09:58:33.40</time>
<name>7680</name>
<sym>Dot</sym>
</trkpt>
<trkpt lat="39.865273" lon="-8.447167">
<ele>306.0</ele>
<desc>Speed 9.5 km/h Distance 33.54 km</desc>
<time>2011-05-22T09:58:34.40</time>
<name>7681</name>
<sym>Dot</sym>
</trkpt>
<trkpt lat="39.865257" lon="-8.447190">
<ele>306.0</ele>
<desc>Speed 9.3 km/h Distance 33.54 km</desc>
<time>2011-05-22T09:58:35.40</time>
<name>7682</name>
<sym>Dot</sym>
</trkpt>
<trkpt lat="39.865242" lon="-8.447213">
<ele>306.0</ele>
<desc>Speed 9.5 km/h Distance 33.55 km</desc>
<time>2011-05-22T09:58:36.39</time>
<name>7683</name>
<sym>Dot</sym>
</trkpt>
<trkpt lat="39.865225" lon="-8.447237">
<ele>306.0</ele>
<desc>Speed 9.1 km/h Distance 33.55 km</desc>
<time>2011-05-22T09:58:37.39</time>
<name>7684</name>
<sym>Dot</sym>
</trkpt>
<trkpt lat="39.865208" lon="-8.447258">
<ele>306.5</ele>
<desc>Speed 9.5 km/h Distance 33.55 km</desc>
<time>2011-05-22T09:58:38.39</time>
<name>7685</name>
<sym>Dot</sym>
</trkpt>
<trkpt lat="39.865190" lon="-8.447278">
<ele>306.5</ele>
<desc>Speed 9.8 km/h Distance 33.55 km</desc>
<time>2011-05-22T09:58:39.39</time>
<name>7686</name>
<sym>Dot</sym>
</trkpt>
<trkpt lat="39.865168" lon="-8.447298">
<ele>306.5</ele>
<desc>Speed 10.5 km/h Distance 33.56 km</desc>
<time>2011-05-22T09:58:40.39</time>
<name>7687</name>
<sym>Dot</sym>
</trkpt>
<trkpt lat="39.865147" lon="-8.447318">
<ele>307.0</ele>
<desc>Speed 10.7 km/h Distance 33.56 km</desc>
<time>2011-05-22T09:58:41.38</time>
<name>7688</name>
<sym>Dot</sym>
</trkpt>
<trkpt lat="39.865127" lon="-8.447338">
<ele>307.0</ele>
<desc>Speed 10.0 km/h Distance 33.56 km</desc>
<time>2011-05-22T09:58:42.37</time>
<name>7689</name>
<sym>Dot</sym>
</trkpt>
<trkpt lat="39.865107" lon="-8.447358">
<ele>307.5</ele>
<desc>Speed 9.8 km/h Distance 33.57 km</desc>
<time>2011-05-22T09:58:43.37</time>
<name>7690</name>
<sym>Dot</sym>
</trkpt>
<trkpt lat="39.865088" lon="-8.447378">
<ele>307.5</ele>
<desc>Speed 9.9 km/h Distance 33.57 km</desc>
<time>2011-05-22T09:58:44.37</time>
<name>7691</name>
<sym>Dot</sym>
</trkpt>
<trkpt lat="39.865068" lon="-8.447398">
<ele>307.5</ele>
<desc>Speed 9.8 km/h Distance 33.57 km</desc>
<time>2011-05-22T09:58:45.36</time>
<name>7692</name>
<sym>Dot</sym>
</trkpt>
<trkpt lat="39.865048" lon="-8.447417">
<ele>307.5</ele>
<desc>Speed 10.0 km/h Distance 33.57 km</desc>
<time>2011-05-22T09:58:46.36</time>
<name>7693</name>
<sym>Dot</sym>
</trkpt>
<trkpt lat="39.865028" lon="-8.447437">
<ele>307.5</ele>
<desc>Speed 10.0 km/h Distance 33.58 km</desc>
<time>2011-05-22T09:58:47.36</time>
<name>7694</name>
<sym>Dot</sym>
</trkpt>
<trkpt lat="39.865008" lon="-8.447457">
<ele>307.5</ele>
<desc>Speed 9.9 km/h Distance 33.58 km</desc>
<time>2011-05-22T09:58:48.36</time>
<name>7695</name>
<sym>Dot</sym>
</trkpt>
<trkpt lat="39.864988" lon="-8.447477">
<ele>307.5</ele>
<desc>Speed 10.0 km/h Distance 33.58 km</desc>
<time>2011-05-22T09:58:49.36</time>
<name>7696</name>
<sym>Dot</sym>
</trkpt>
<trkpt lat="39.864970" lon="-8.447497">
<ele>307.5</ele>
<desc>Speed 9.7 km/h Distance 33.58 km</desc>
<time>2011-05-22T09:58:50.35</time>
<name>7697</name>
<sym>Dot</sym>
</trkpt>
<trkpt lat="39.864950" lon="-8.447515">
<ele>307.5</ele>
<desc>Speed 9.8 km/h Distance 33.59 km</desc>
<time>2011-05-22T09:58:51.35</time>
<name>7698</name>
<sym>Dot</sym>
</trkpt>
<trkpt lat="39.864930" lon="-8.447533">
<ele>307.5</ele>
<desc>Speed 9.6 km/h Distance 33.59 km</desc>
<time>2011-05-22T09:58:52.34</time>
<name>7699</name>
<sym>Dot</sym>
</trkpt>
<trkpt lat="39.864912" lon="-8.447553">
<ele>308.0</ele>
<desc>Speed 9.7 km/h Distance 33.59 km</desc>
<time>2011-05-22T09:58:53.34</time>
<name>7700</name>
<sym>Dot</sym>
</trkpt>
<trkpt lat="39.864893" lon="-8.447573">
<ele>308.0</ele>
<desc>Speed 9.7 km/h Distance 33.60 km</desc>
<time>2011-05-22T09:58:54.34</time>
<name>7701</name>
<sym>Dot</sym>
</trkpt>
<trkpt lat="39.864873" lon="-8.447593">
<ele>308.0</ele>
<desc>Speed 9.7 km/h Distance 33.60 km</desc>
<time>2011-05-22T09:58:55.33</time>
<name>7702</name>
<sym>Dot</sym>
</trkpt>
<trkpt lat="39.864855" lon="-8.447612">
<ele>308.0</ele>
<desc>Speed 9.5 km/h Distance 33.60 km</desc>
<time>2011-05-22T09:58:56.32</time>
<name>7703</name>
<sym>Dot</sym>
</trkpt>
<trkpt lat="39.864835" lon="-8.447630">
<ele>308.5</ele>
<desc>Speed 9.8 km/h Distance 33.60 km</desc>
<time>2011-05-22T09:58:57.32</time>
<name>7704</name>
<sym>Dot</sym>
</trkpt>
<trkpt lat="39.864815" lon="-8.447648">
<ele>308.5</ele>
<desc>Speed 9.6 km/h Distance 33.61 km</desc>
<time>2011-05-22T09:58:58.32</time>
<name>7705</name>
<sym>Dot</sym>
</trkpt>
<trkpt lat="39.864797" lon="-8.447667">
<ele>308.5</ele>
<desc>Speed 9.5 km/h Distance 33.61 km</desc>
<time>2011-05-22T09:58:59.32</time>
<name>7706</name>
<sym>Dot</sym>
</trkpt>
<trkpt lat="39.864777" lon="-8.447683">
<ele>309.0</ele>
<desc>Speed 9.6 km/h Distance 33.61 km</desc>
<time>2011-05-22T09:59:00.32</time>
<name>7707</name>
<sym>Dot</sym>
</trkpt>
<trkpt lat="39.864758" lon="-8.447702">
<ele>309.0</ele>
<desc>Speed 9.2 km/h Distance 33.61 km</desc>
<time>2011-05-22T09:59:01.31</time>
<name>7708</name>
<sym>Dot</sym>
</trkpt>
<trkpt lat="39.864740" lon="-8.447720">
<ele>309.5</ele>
<desc>Speed 9.2 km/h Distance 33.62 km</desc>
<time>2011-05-22T09:59:02.31</time>
<name>7709</name>
<sym>Dot</sym>
</trkpt>
<trkpt lat="39.864722" lon="-8.447735">
<ele>309.5</ele>
<desc>Speed 8.6 km/h Distance 33.62 km</desc>
<time>2011-05-22T09:59:03.31</time>
<name>7710</name>
<sym>Dot</sym>
</trkpt>
<trkpt lat="39.864705" lon="-8.447750">
<ele>310.0</ele>
<desc>Speed 8.3 km/h Distance 33.62 km</desc>
<time>2011-05-22T09:59:04.30</time>
<name>7711</name>
<sym>Dot</sym>
</trkpt>
<trkpt lat="39.864690" lon="-8.447768">
<ele>310.5</ele>
<desc>Speed 8.5 km/h Distance 33.62 km</desc>
<time>2011-05-22T09:59:05.29</time>
<name>7712</name>
<sym>Dot</sym>
</trkpt>
<trkpt lat="39.864670" lon="-8.447785">
<ele>311.0</ele>
<desc>Speed 9.3 km/h Distance 33.63 km</desc>
<time>2011-05-22T09:59:06.28</time>
<name>7713</name>
<sym>Dot</sym>
</trkpt>
<trkpt lat="39.864652" lon="-8.447802">
<ele>311.5</ele>
<desc>Speed 9.1 km/h Distance 33.63 km</desc>
<time>2011-05-22T09:59:07.28</time>
<name>7714</name>
<sym>Dot</sym>
</trkpt>
<trkpt lat="39.864633" lon="-8.447820">
<ele>311.5</ele>
<desc>Speed 9.3 km/h Distance 33.63 km</desc>
<time>2011-05-22T09:59:08.28</time>
<name>7715</name>
<sym>Dot</sym>
</trkpt>
<trkpt lat="39.864615" lon="-8.447837">
<ele>312.0</ele>
<desc>Speed 9.5 km/h Distance 33.63 km</desc>
<time>2011-05-22T09:59:09.27</time>
<name>7716</name>
<sym>Dot</sym>
</trkpt>
<trkpt lat="39.864595" lon="-8.447855">
<ele>312.0</ele>
<desc>Speed 9.8 km/h Distance 33.64 km</desc>
<time>2011-05-22T09:59:10.27</time>
<name>7717</name>
<sym>Dot</sym>
</trkpt>
<trkpt lat="39.864575" lon="-8.447872">
<ele>312.5</ele>
<desc>Speed 9.2 km/h Distance 33.64 km</desc>
<time>2011-05-22T09:59:11.26</time>
<name>7718</name>
<sym>Dot</sym>
</trkpt>
<trkpt lat="39.864558" lon="-8.447890">
<ele>313.0</ele>
<desc>Speed 9.3 km/h Distance 33.64 km</desc>
<time>2011-05-22T09:59:12.26</time>
<name>7719</name>
<sym>Dot</sym>
</trkpt>
<trkpt lat="39.864540" lon="-8.447910">
<ele>313.5</ele>
<desc>Speed 9.2 km/h Distance 33.64 km</desc>
<time>2011-05-22T09:59:13.26</time>
<name>7720</name>
<sym>Dot</sym>
</trkpt>
<trkpt lat="39.864520" lon="-8.447925">
<ele>313.5</ele>
<desc>Speed 9.3 km/h Distance 33.65 km</desc>
<time>2011-05-22T09:59:14.26</time>
<name>7721</name>
<sym>Dot</sym>
</trkpt>
<trkpt lat="39.864500" lon="-8.447943">
<ele>314.0</ele>
<desc>Speed 9.8 km/h Distance 33.65 km</desc>
<time>2011-05-22T09:59:15.27</time>
<name>7722</name>
<sym>Dot</sym>
</trkpt>
<trkpt lat="39.864482" lon="-8.447963">
<ele>314.0</ele>
<desc>Speed 9.4 km/h Distance 33.65 km</desc>
<time>2011-05-22T09:59:16.25</time>
<name>7723</name>
<sym>Dot</sym>
</trkpt>
<trkpt lat="39.864462" lon="-8.447980">
<ele>314.5</ele>
<desc>Speed 9.6 km/h Distance 33.65 km</desc>
<time>2011-05-22T09:59:17.25</time>
<name>7724</name>
<sym>Dot</sym>
</trkpt>
<trkpt lat="39.864443" lon="-8.447998">
<ele>314.5</ele>
<desc>Speed 9.2 km/h Distance 33.66 km</desc>
<time>2011-05-22T09:59:18.25</time>
<name>7725</name>
<sym>Dot</sym>
</trkpt>
<trkpt lat="39.864425" lon="-8.448018">
<ele>315.0</ele>
<desc>Speed 9.5 km/h Distance 33.66 km</desc>
<time>2011-05-22T09:59:19.25</time>
<name>7726</name>
<sym>Dot</sym>
</trkpt>
<trkpt lat="39.864407" lon="-8.448037">
<ele>315.0</ele>
<desc>Speed 9.5 km/h Distance 33.66 km</desc>
<time>2011-05-22T09:59:20.25</time>
<name>7727</name>
<sym>Dot</sym>
</trkpt>
<trkpt lat="39.864388" lon="-8.448053">
<ele>315.5</ele>
<desc>Speed 9.4 km/h Distance 33.67 km</desc>
<time>2011-05-22T09:59:21.24</time>
<name>7728</name>
<sym>Dot</sym>
</trkpt>
<trkpt lat="39.864368" lon="-8.448070">
<ele>315.5</ele>
<desc>Speed 9.6 km/h Distance 33.67 km</desc>
<time>2011-05-22T09:59:22.24</time>
<name>7729</name>
<sym>Dot</sym>
</trkpt>
<trkpt lat="39.864347" lon="-8.448085">
<ele>316.0</ele>
<desc>Speed 9.4 km/h Distance 33.67 km</desc>
<time>2011-05-22T09:59:23.23</time>
<name>7730</name>
<sym>Dot</sym>
</trkpt>
<trkpt lat="39.864327" lon="-8.448103">
<ele>316.0</ele>
<desc>Speed 10.2 km/h Distance 33.67 km</desc>
<time>2011-05-22T09:59:24.23</time>
<name>7731</name>
<sym>Dot</sym>
</trkpt>
<trkpt lat="39.864307" lon="-8.448125">
<ele>316.0</ele>
<desc>Speed 10.4 km/h Distance 33.68 km</desc>
<time>2011-05-22T09:59:25.23</time>
<name>7732</name>
<sym>Dot</sym>
</trkpt>
<trkpt lat="39.864285" lon="-8.448145">
<ele>316.0</ele>
<desc>Speed 10.5 km/h Distance 33.68 km</desc>
<time>2011-05-22T09:59:26.23</time>
<name>7733</name>
<sym>Dot</sym>
</trkpt>
<trkpt lat="39.864265" lon="-8.448165">
<ele>316.5</ele>
<desc>Speed 10.5 km/h Distance 33.68 km</desc>
<time>2011-05-22T09:59:27.23</time>
<name>7734</name>
<sym>Dot</sym>
</trkpt>
<trkpt lat="39.864243" lon="-8.448183">
<ele>316.5</ele>
<desc>Speed 10.2 km/h Distance 33.68 km</desc>
<time>2011-05-22T09:59:28.23</time>
<name>7735</name>
<sym>Dot</sym>
</trkpt>
<trkpt lat="39.864222" lon="-8.448202">
<ele>317.0</ele>
<desc>Speed 10.5 km/h Distance 33.69 km</desc>
<time>2011-05-22T09:59:29.23</time>
<name>7736</name>
<sym>Dot</sym>
</trkpt>
<trkpt lat="39.864200" lon="-8.448223">
<ele>317.0</ele>
<desc>Speed 10.8 km/h Distance 33.69 km</desc>
<time>2011-05-22T09:59:30.22</time>
<name>7737</name>
<sym>Dot</sym>
</trkpt>
<trkpt lat="39.864178" lon="-8.448245">
<ele>317.0</ele>
<desc>Speed 10.9 km/h Distance 33.69 km</desc>
<time>2011-05-22T09:59:31.22</time>
<name>7738</name>
<sym>Dot</sym>
</trkpt>
<trkpt lat="39.864157" lon="-8.448267">
<ele>317.5</ele>
<desc>Speed 10.9 km/h Distance 33.70 km</desc>
<time>2011-05-22T09:59:32.20</time>
<name>7739</name>
<sym>Dot</sym>
</trkpt>
<trkpt lat="39.864135" lon="-8.448288">
<ele>317.5</ele>
<desc>Speed 11.3 km/h Distance 33.70 km</desc>
<time>2011-05-22T09:59:33.20</time>
<name>7740</name>
<sym>Dot</sym>
</trkpt>
<trkpt lat="39.864112" lon="-8.448310">
<ele>317.5</ele>
<desc>Speed 11.3 km/h Distance 33.70 km</desc>
<time>2011-05-22T09:59:34.20</time>
<name>7741</name>
<sym>Dot</sym>
</trkpt>
<trkpt lat="39.864088" lon="-8.448332">
<ele>317.5</ele>
<desc>Speed 11.1 km/h Distance 33.71 km</desc>
<time>2011-05-22T09:59:35.20</time>
<name>7742</name>
<sym>Dot</sym>
</trkpt>
<trkpt lat="39.864067" lon="-8.448353">
<ele>318.0</ele>
<desc>Speed 11.3 km/h Distance 33.71 km</desc>
<time>2011-05-22T09:59:36.20</time>
<name>7743</name>
<sym>Dot</sym>
</trkpt>
<trkpt lat="39.864043" lon="-8.448375">
<ele>318.0</ele>
<desc>Speed 11.6 km/h Distance 33.71 km</desc>
<time>2011-05-22T09:59:37.20</time>
<name>7744</name>
<sym>Dot</sym>
</trkpt>
<trkpt lat="39.864020" lon="-8.448398">
<ele>318.0</ele>
<desc>Speed 11.7 km/h Distance 33.72 km</desc>
<time>2011-05-22T09:59:38.19</time>
<name>7745</name>
<sym>Dot</sym>
</trkpt>
<trkpt lat="39.863997" lon="-8.448423">
<ele>318.0</ele>
<desc>Speed 11.9 km/h Distance 33.72 km</desc>
<time>2011-05-22T09:59:39.19</time>
<name>7746</name>
<sym>Dot</sym>
</trkpt>
<trkpt lat="39.863973" lon="-8.448448">
<ele>318.0</ele>
<desc>Speed 12.0 km/h Distance 33.72 km</desc>
<time>2011-05-22T09:59:40.19</time>
<name>7747</name>
<sym>Dot</sym>
</trkpt>
<trkpt lat="39.863950" lon="-8.448473">
<ele>318.0</ele>
<desc>Speed 12.0 km/h Distance 33.73 km</desc>
<time>2011-05-22T09:59:41.19</time>
<name>7748</name>
<sym>Dot</sym>
</trkpt>
<trkpt lat="39.863927" lon="-8.448497">
<ele>318.5</ele>
<desc>Speed 11.8 km/h Distance 33.73 km</desc>
<time>2011-05-22T09:59:42.19</time>
<name>7749</name>
<sym>Dot</sym>
</trkpt>
<trkpt lat="39.863902" lon="-8.448520">
<ele>318.5</ele>
<desc>Speed 12.0 km/h Distance 33.73 km</desc>
<time>2011-05-22T09:59:43.19</time>
<name>7750</name>
<sym>Dot</sym>
</trkpt>
<trkpt lat="39.863877" lon="-8.448543">
<ele>318.5</ele>
<desc>Speed 12.4 km/h Distance 33.74 km</desc>
<time>2011-05-22T09:59:44.19</time>
<name>7751</name>
<sym>Dot</sym>
</trkpt>
<trkpt lat="39.863850" lon="-8.448568">
<ele>318.5</ele>
<desc>Speed 12.7 km/h Distance 33.74 km</desc>
<time>2011-05-22T09:59:45.18</time>
<name>7752</name>
<sym>Dot</sym>
</trkpt>
<trkpt lat="39.863823" lon="-8.448595">
<ele>318.5</ele>
<desc>Speed 13.1 km/h Distance 33.74 km</desc>
<time>2011-05-22T09:59:46.18</time>
<name>7753</name>
<sym>Dot</sym>
</trkpt>
<trkpt lat="39.863797" lon="-8.448620">
<ele>318.5</ele>
<desc>Speed 13.4 km/h Distance 33.75 km</desc>
<time>2011-05-22T09:59:47.17</time>
<name>7754</name>
<sym>Dot</sym>
</trkpt>
<trkpt lat="39.863770" lon="-8.448645">
<ele>318.5</ele>
<desc>Speed 13.2 km/h Distance 33.75 km</desc>
<time>2011-05-22T09:59:48.16</time>
<name>7755</name>
<sym>Dot</sym>
</trkpt>
<trkpt lat="39.863742" lon="-8.448672">
<ele>318.5</ele>
<desc>Speed 13.5 km/h Distance 33.75 km</desc>
<time>2011-05-22T09:59:49.16</time>
<name>7756</name>
<sym>Dot</sym>
</trkpt>
<trkpt lat="39.863717" lon="-8.448700">
<ele>318.5</ele>
<desc>Speed 13.6 km/h Distance 33.76 km</desc>
<time>2011-05-22T09:59:50.16</time>
<name>7757</name>
<sym>Dot</sym>
</trkpt>
<trkpt lat="39.863690" lon="-8.448730">
<ele>318.0</ele>
<desc>Speed 13.9 km/h Distance 33.76 km</desc>
<time>2011-05-22T09:59:51.16</time>
<name>7758</name>
<sym>Dot</sym>
</trkpt>
<trkpt lat="39.863662" lon="-8.448757">
<ele>318.0</ele>
<desc>Speed 14.0 km/h Distance 33.77 km</desc>
<time>2011-05-22T09:59:52.16</time>
<name>7759</name>
<sym>Dot</sym>
</trkpt>
<trkpt lat="39.863635" lon="-8.448785">
<ele>318.5</ele>
<desc>Speed 13.8 km/h Distance 33.77 km</desc>
<time>2011-05-22T09:59:53.15</time>
<name>7760</name>
<sym>Dot</sym>
</trkpt>
<trkpt lat="39.863607" lon="-8.448813">
<ele>318.0</ele>
<desc>Speed 13.9 km/h Distance 33.77 km</desc>
<time>2011-05-22T09:59:54.15</time>
<name>7761</name>
<sym>Dot</sym>
</trkpt>
<trkpt lat="39.863578" lon="-8.448842">
<ele>318.0</ele>
<desc>Speed 14.0 km/h Distance 33.78 km</desc>
<time>2011-05-22T09:59:55.14</time>
<name>7762</name>
<sym>Dot</sym>
</trkpt>
<trkpt lat="39.863548" lon="-8.448868">
<ele>318.0</ele>
<desc>Speed 14.4 km/h Distance 33.78 km</desc>
<time>2011-05-22T09:59:56.14</time>
<name>7763</name>
<sym>Dot</sym>
</trkpt>
<trkpt lat="39.863522" lon="-8.448897">
<ele>318.5</ele>
<desc>Speed 13.5 km/h Distance 33.79 km</desc>
<time>2011-05-22T09:59:57.14</time>
<name>7764</name>
<sym>Dot</sym>
</trkpt>
<trkpt lat="39.863493" lon="-8.448923">
<ele>318.5</ele>
<desc>Speed 13.7 km/h Distance 33.79 km</desc>
<time>2011-05-22T09:59:58.14</time>
<name>7765</name>
<sym>Dot</sym>
</trkpt>
<trkpt lat="39.863465" lon="-8.448950">
<ele>318.0</ele>
<desc>Speed 13.8 km/h Distance 33.79 km</desc>
<time>2011-05-22T09:59:59.14</time>
<name>7766</name>
<sym>Dot</sym>
</trkpt>
<trkpt lat="39.863437" lon="-8.448977">
<ele>318.0</ele>
<desc>Speed 13.8 km/h Distance 33.80 km</desc>
<time>2011-05-22T10:00:00.13</time>
<name>7767</name>
<sym>Dot</sym>
</trkpt>
<trkpt lat="39.863408" lon="-8.449005">
<ele>318.0</ele>
<desc>Speed 14.0 km/h Distance 33.80 km</desc>
<time>2011-05-22T10:00:01.13</time>
<name>7768</name>
<sym>Dot</sym>
</trkpt>
<trkpt lat="39.863380" lon="-8.449033">
<ele>318.0</ele>
<desc>Speed 14.0 km/h Distance 33.81 km</desc>
<time>2011-05-22T10:00:02.13</time>
<name>7769</name>
<sym>Dot</sym>
</trkpt>
<trkpt lat="39.863350" lon="-8.449062">
<ele>318.0</ele>
<desc>Speed 14.9 km/h Distance 33.81 km</desc>
<time>2011-05-22T10:00:03.12</time>
<name>7770</name>
<sym>Dot</sym>
</trkpt>
<trkpt lat="39.863318" lon="-8.449090">
<ele>318.0</ele>
<desc>Speed 15.2 km/h Distance 33.81 km</desc>
<time>2011-05-22T10:00:04.12</time>
<name>7771</name>
<sym>Dot</sym>
</trkpt>
<trkpt lat="39.863288" lon="-8.449120">
<ele>318.5</ele>
<desc>Speed 15.2 km/h Distance 33.82 km</desc>
<time>2011-05-22T10:00:05.12</time>
<name>7772</name>
<sym>Dot</sym>
</trkpt>
<trkpt lat="39.863258" lon="-8.449150">
<ele>318.0</ele>
<desc>Speed 15.0 km/h Distance 33.82 km</desc>
<time>2011-05-22T10:00:06.12</time>
<name>7773</name>
<sym>Dot</sym>
</trkpt>
<trkpt lat="39.863228" lon="-8.449178">
<ele>318.5</ele>
<desc>Speed 15.0 km/h Distance 33.83 km</desc>
<time>2011-05-22T10:00:07.11</time>
<name>7774</name>
<sym>Dot</sym>
</trkpt>
<trkpt lat="39.863198" lon="-8.449208">
<ele>318.5</ele>
<desc>Speed 14.9 km/h Distance 33.83 km</desc>
<time>2011-05-22T10:00:08.11</time>
<name>7775</name>
<sym>Dot</sym>
</trkpt>
<trkpt lat="39.863168" lon="-8.449237">
<ele>318.0</ele>
<desc>Speed 14.7 km/h Distance 33.83 km</desc>
<time>2011-05-22T10:00:09.11</time>
<name>7776</name>
<sym>Dot</sym>
</trkpt>
<trkpt lat="39.863140" lon="-8.449265">
<ele>318.5</ele>
<desc>Speed 14.3 km/h Distance 33.84 km</desc>
<time>2011-05-22T10:00:10.11</time>
<name>7777</name>
<sym>Dot</sym>
</trkpt>
<trkpt lat="39.863113" lon="-8.449293">
<ele>318.5</ele>
<desc>Speed 13.6 km/h Distance 33.84 km</desc>
<time>2011-05-22T10:00:11.10</time>
<name>7778</name>
<sym>Dot</sym>
</trkpt>
<trkpt lat="39.863085" lon="-8.449323">
<ele>319.0</ele>
<desc>Speed 14.1 km/h Distance 33.85 km</desc>
<time>2011-05-22T10:00:12.10</time>
<name>7779</name>
<sym>Dot</sym>
</trkpt>
<trkpt lat="39.863057" lon="-8.449353">
<ele>319.0</ele>
<desc>Speed 14.5 km/h Distance 33.85 km</desc>
<time>2011-05-22T10:00:13.10</time>
<name>7780</name>
<sym>Dot</sym>
</trkpt>
<trkpt lat="39.863027" lon="-8.449383">
<ele>319.0</ele>
<desc>Speed 14.7 km/h Distance 33.85 km</desc>
<time>2011-05-22T10:00:14.09</time>
<name>7781</name>
<sym>Dot</sym>
</trkpt>
<trkpt lat="39.863000" lon="-8.449413">
<ele>319.5</ele>
<desc>Speed 14.0 km/h Distance 33.86 km</desc>
<time>2011-05-22T10:00:15.09</time>
<name>7782</name>
<sym>Dot</sym>
</trkpt>
<trkpt lat="39.862972" lon="-8.449443">
<ele>319.0</ele>
<desc>Speed 14.9 km/h Distance 33.86 km</desc>
<time>2011-05-22T10:00:16.09</time>
<name>7783</name>
<sym>Dot</sym>
</trkpt>
<trkpt lat="39.862940" lon="-8.449473">
<ele>319.0</ele>
<desc>Speed 14.9 km/h Distance 33.87 km</desc>
<time>2011-05-22T10:00:17.09</time>
<name>7784</name>
<sym>Dot</sym>
</trkpt>
<trkpt lat="39.862910" lon="-8.449502">
<ele>319.0</ele>
<desc>Speed 14.7 km/h Distance 33.87 km</desc>
<time>2011-05-22T10:00:18.08</time>
<name>7785</name>
<sym>Dot</sym>
</trkpt>
<trkpt lat="39.862880" lon="-8.449530">
<ele>318.5</ele>
<desc>Speed 14.7 km/h Distance 33.88 km</desc>
<time>2011-05-22T10:00:19.07</time>
<name>7786</name>
<sym>Dot</sym>
</trkpt>
<trkpt lat="39.862848" lon="-8.449560">
<ele>318.5</ele>
<desc>Speed 14.9 km/h Distance 33.88 km</desc>
<time>2011-05-22T10:00:20.07</time>
<name>7787</name>
<sym>Dot</sym>
</trkpt>
<trkpt lat="39.862820" lon="-8.449587">
<ele>318.5</ele>
<desc>Speed 14.4 km/h Distance 33.88 km</desc>
<time>2011-05-22T10:00:21.07</time>
<name>7788</name>
<sym>Dot</sym>
</trkpt>
<trkpt lat="39.862788" lon="-8.449617">
<ele>318.5</ele>
<desc>Speed 14.9 km/h Distance 33.89 km</desc>
<time>2011-05-22T10:00:22.07</time>
<name>7789</name>
<sym>Dot</sym>
</trkpt>
<trkpt lat="39.862758" lon="-8.449645">
<ele>319.0</ele>
<desc>Speed 14.9 km/h Distance 33.89 km</desc>
<time>2011-05-22T10:00:23.06</time>
<name>7790</name>
<sym>Dot</sym>
</trkpt>
<trkpt lat="39.862727" lon="-8.449673">
<ele>319.0</ele>
<desc>Speed 15.1 km/h Distance 33.90 km</desc>
<time>2011-05-22T10:00:24.06</time>
<name>7791</name>
<sym>Dot</sym>
</trkpt>
<trkpt lat="39.862697" lon="-8.449703">
<ele>318.5</ele>
<desc>Speed 14.7 km/h Distance 33.90 km</desc>
<time>2011-05-22T10:00:25.06</time>
<name>7792</name>
<sym>Dot</sym>
</trkpt>
<trkpt lat="39.862667" lon="-8.449730">
<ele>318.5</ele>
<desc>Speed 14.4 km/h Distance 33.90 km</desc>
<time>2011-05-22T10:00:26.06</time>
<name>7793</name>
<sym>Dot</sym>
</trkpt>
<trkpt lat="39.862637" lon="-8.449760">
<ele>318.5</ele>
<desc>Speed 14.5 km/h Distance 33.91 km</desc>
<time>2011-05-22T10:00:27.06</time>
<name>7794</name>
<sym>Dot</sym>
</trkpt>
<trkpt lat="39.862608" lon="-8.449790">
<ele>318.5</ele>
<desc>Speed 14.4 km/h Distance 33.91 km</desc>
<time>2011-05-22T10:00:28.06</time>
<name>7795</name>
<sym>Dot</sym>
</trkpt>
<trkpt lat="39.862578" lon="-8.449818">
<ele>318.5</ele>
<desc>Speed 14.4 km/h Distance 33.92 km</desc>
<time>2011-05-22T10:00:29.06</time>
<name>7796</name>
<sym>Dot</sym>
</trkpt>
<trkpt lat="39.862550" lon="-8.449848">
<ele>318.0</ele>
<desc>Speed 14.3 km/h Distance 33.92 km</desc>
<time>2011-05-22T10:00:30.06</time>
<name>7797</name>
<sym>Dot</sym>
</trkpt>
<trkpt lat="39.862522" lon="-8.449880">
<ele>318.0</ele>
<desc>Speed 14.7 km/h Distance 33.93 km</desc>
<time>2011-05-22T10:00:31.06</time>
<name>7798</name>
<sym>Dot</sym>
</trkpt>
<trkpt lat="39.862492" lon="-8.449910">
<ele>318.0</ele>
<desc>Speed 15.2 km/h Distance 33.93 km</desc>
<time>2011-05-22T10:00:32.05</time>
<name>7799</name>
<sym>Dot</sym>
</trkpt>
<trkpt lat="39.862460" lon="-8.449942">
<ele>318.0</ele>
<desc>Speed 15.2 km/h Distance 33.93 km</desc>
<time>2011-05-22T10:00:33.04</time>
<name>7800</name>
<sym>Dot</sym>
</trkpt>
<trkpt lat="39.862432" lon="-8.449973">
<ele>318.5</ele>
<desc>Speed 14.7 km/h Distance 33.94 km</desc>
<time>2011-05-22T10:00:34.03</time>
<name>7801</name>
<sym>Dot</sym>
</trkpt>
<trkpt lat="39.862400" lon="-8.450003">
<ele>319.0</ele>
<desc>Speed 14.7 km/h Distance 33.94 km</desc>
<time>2011-05-22T10:00:35.03</time>
<name>7802</name>
<sym>Dot</sym>
</trkpt>
<trkpt lat="39.862372" lon="-8.450037">
<ele>319.0</ele>
<desc>Speed 14.7 km/h Distance 33.95 km</desc>
<time>2011-05-22T10:00:36.03</time>
<name>7803</name>
<sym>Dot</sym>
</trkpt>
<trkpt lat="39.862342" lon="-8.450067">
<ele>319.5</ele>
<desc>Speed 14.6 km/h Distance 33.95 km</desc>
<time>2011-05-22T10:00:37.02</time>
<name>7804</name>
<sym>Dot</sym>
</trkpt>
<trkpt lat="39.862313" lon="-8.450097">
<ele>319.5</ele>
<desc>Speed 14.6 km/h Distance 33.95 km</desc>
<time>2011-05-22T10:00:38.02</time>
<name>7805</name>
<sym>Dot</sym>
</trkpt>
<trkpt lat="39.862285" lon="-8.450128">
<ele>319.5</ele>
<desc>Speed 14.4 km/h Distance 33.96 km</desc>
<time>2011-05-22T10:00:39.02</time>
<name>7806</name>
<sym>Dot</sym>
</trkpt>
<trkpt lat="39.862257" lon="-8.450158">
<ele>319.5</ele>
<desc>Speed 14.3 km/h Distance 33.96 km</desc>
<time>2011-05-22T10:00:40.02</time>
<name>7807</name>
<sym>Dot</sym>
</trkpt>
<trkpt lat="39.862227" lon="-8.450185">
<ele>319.5</ele>
<desc>Speed 14.1 km/h Distance 33.97 km</desc>
<time>2011-05-22T10:00:41.01</time>
<name>7808</name>
<sym>Dot</sym>
</trkpt>
<trkpt lat="39.862200" lon="-8.450213">
<ele>320.0</ele>
<desc>Speed 13.7 km/h Distance 33.97 km</desc>
<time>2011-05-22T10:00:42.00</time>
<name>7809</name>
<sym>Dot</sym>
</trkpt>
<trkpt lat="39.862172" lon="-8.450242">
<ele>319.5</ele>
<desc>Speed 13.9 km/h Distance 33.98 km</desc>
<time>2011-05-22T10:00:43.00</time>
<name>7810</name>
<sym>Dot</sym>
</trkpt>
<trkpt lat="39.862143" lon="-8.450268">
<ele>319.5</ele>
<desc>Speed 14.0 km/h Distance 33.98 km</desc>
<time>2011-05-22T10:00:43.99</time>
<name>7811</name>
<sym>Dot</sym>
</trkpt>
<trkpt lat="39.862115" lon="-8.450295">
<ele>320.0</ele>
<desc>Speed 13.9 km/h Distance 33.98 km</desc>
<time>2011-05-22T10:00:44.98</time>
<name>7812</name>
<sym>Dot</sym>
</trkpt>
<trkpt lat="39.862087" lon="-8.450318">
<ele>320.0</ele>
<desc>Speed 13.3 km/h Distance 33.99 km</desc>
<time>2011-05-22T10:00:45.98</time>
<name>7813</name>
<sym>Dot</sym>
</trkpt>
<trkpt lat="39.862053" lon="-8.450340">
<ele>320.0</ele>
<desc>Speed 14.6 km/h Distance 33.99 km</desc>
<time>2011-05-22T10:00:46.97</time>
<name>7814</name>
<sym>Dot</sym>
</trkpt>
<trkpt lat="39.862018" lon="-8.450360">
<ele>320.0</ele>
<desc>Speed 15.3 km/h Distance 33.99 km</desc>
<time>2011-05-22T10:00:47.98</time>
<name>7815</name>
<sym>Dot</sym>
</trkpt>
<trkpt lat="39.861982" lon="-8.450375">
<ele>320.0</ele>
<desc>Speed 15.3 km/h Distance 34.00 km</desc>
<time>2011-05-22T10:00:48.97</time>
<name>7816</name>
<sym>Dot</sym>
</trkpt>
<trkpt lat="39.861942" lon="-8.450387">
<ele>320.5</ele>
<desc>Speed 16.3 km/h Distance 34.00 km</desc>
<time>2011-05-22T10:00:49.97</time>
<name>7817</name>
<sym>Dot</sym>
</trkpt>
<trkpt lat="39.861900" lon="-8.450398">
<ele>320.5</ele>
<desc>Speed 16.6 km/h Distance 34.01 km</desc>
<time>2011-05-22T10:00:50.96</time>
<name>7818</name>
<sym>Dot</sym>
</trkpt>
<trkpt lat="39.861858" lon="-8.450408">
<ele>321.0</ele>
<desc>Speed 17.1 km/h Distance 34.01 km</desc>
<time>2011-05-22T10:00:51.95</time>
<name>7819</name>
<sym>Dot</sym>
</trkpt>
<trkpt lat="39.861813" lon="-8.450417">
<ele>321.0</ele>
<desc>Speed 17.8 km/h Distance 34.02 km</desc>
<time>2011-05-22T10:00:52.94</time>
<name>7820</name>
<sym>Dot</sym>
</trkpt>
<trkpt lat="39.861768" lon="-8.450422">
<ele>321.5</ele>
<desc>Speed 18.1 km/h Distance 34.02 km</desc>
<time>2011-05-22T10:00:53.94</time>
<name>7821</name>
<sym>Dot</sym>
</trkpt>
<trkpt lat="39.861722" lon="-8.450423">
<ele>322.5</ele>
<desc>Speed 18.4 km/h Distance 34.03 km</desc>
<time>2011-05-22T10:00:54.93</time>
<name>7822</name>
<sym>Dot</sym>
</trkpt>
<trkpt lat="39.861678" lon="-8.450423">
<ele>323.0</ele>
<desc>Speed 17.9 km/h Distance 34.03 km</desc>
<time>2011-05-22T10:00:55.93</time>
<name>7823</name>
<sym>Dot</sym>
</trkpt>
<trkpt lat="39.861628" lon="-8.450420">
<ele>325.0</ele>
<desc>Speed 19.7 km/h Distance 34.04 km</desc>
<time>2011-05-22T10:00:56.92</time>
<name>7824</name>
<sym>Dot</sym>
</trkpt>
<trkpt lat="39.861577" lon="-8.450412">
<ele>326.0</ele>
<desc>Speed 20.9 km/h Distance 34.04 km</desc>
<time>2011-05-22T10:00:57.92</time>
<name>7825</name>
<sym>Dot</sym>
</trkpt>
<trkpt lat="39.861527" lon="-8.450398">
<ele>328.0</ele>
<desc>Speed 20.5 km/h Distance 34.05 km</desc>
<time>2011-05-22T10:00:58.91</time>
<name>7826</name>
<sym>Dot</sym>
</trkpt>
<trkpt lat="39.861493" lon="-8.450392">
<ele>328.0</ele>
<desc>Speed 13.7 km/h Distance 34.05 km</desc>
<time>2011-05-22T10:00:59.92</time>
<name>7827</name>
<sym>Dot</sym>
</trkpt>
<trkpt lat="39.861460" lon="-8.450370">
<ele>328.0</ele>
<desc>Speed 14.7 km/h Distance 34.06 km</desc>
<time>2011-05-22T10:01:00.91</time>
<name>7828</name>
<sym>Dot</sym>
</trkpt>
<trkpt lat="39.861423" lon="-8.450353">
<ele>328.0</ele>
<desc>Speed 15.6 km/h Distance 34.06 km</desc>
<time>2011-05-22T10:01:01.90</time>
<name>7829</name>
<sym>Dot</sym>
</trkpt>
<trkpt lat="39.861400" lon="-8.450333">
<ele>328.5</ele>
<desc>Speed 11.2 km/h Distance 34.07 km</desc>
<time>2011-05-22T10:01:02.90</time>
<name>7830</name>
<sym>Dot</sym>
</trkpt>
<trkpt lat="39.861293" lon="-8.450255">
<ele>328.5</ele>
<desc>Speed 25.1 km/h Distance 34.08 km</desc>
<time>2011-05-22T10:01:04.89</time>
<name>7831</name>
<sym>Dot</sym>
</trkpt>
<trkpt lat="39.861240" lon="-8.450208">
<ele>328.5</ele>
<desc>Speed 25.7 km/h Distance 34.09 km</desc>
<time>2011-05-22T10:01:05.89</time>
<name>7832</name>
<sym>Dot</sym>
</trkpt>
<trkpt lat="39.861187" lon="-8.450158">
<ele>328.0</ele>
<desc>Speed 26.4 km/h Distance 34.09 km</desc>
<time>2011-05-22T10:01:06.88</time>
<name>7833</name>
<sym>Dot</sym>
</trkpt>
<trkpt lat="39.861132" lon="-8.450107">
<ele>328.0</ele>
<desc>Speed 26.7 km/h Distance 34.10 km</desc>
<time>2011-05-22T10:01:07.88</time>
<name>7834</name>
<sym>Dot</sym>
</trkpt>
<trkpt lat="39.861075" lon="-8.450055">
<ele>327.5</ele>
<desc>Speed 27.3 km/h Distance 34.11 km</desc>
<time>2011-05-22T10:01:08.86</time>
<name>7835</name>
<sym>Dot</sym>
</trkpt>
<trkpt lat="39.861017" lon="-8.450002">
<ele>327.5</ele>
<desc>Speed 27.6 km/h Distance 34.12 km</desc>
<time>2011-05-22T10:01:09.86</time>
<name>7836</name>
<sym>Dot</sym>
</trkpt>
<trkpt lat="39.860958" lon="-8.449948">
<ele>327.0</ele>
<desc>Speed 28.0 km/h Distance 34.12 km</desc>
<time>2011-05-22T10:01:10.86</time>
<name>7837</name>
<sym>Dot</sym>
</trkpt>
<trkpt lat="39.860897" lon="-8.449898">
<ele>328.0</ele>
<desc>Speed 28.3 km/h Distance 34.13 km</desc>
<time>2011-05-22T10:01:11.85</time>
<name>7838</name>
<sym>Dot</sym>
</trkpt>
<trkpt lat="39.860833" lon="-8.449843">
<ele>327.5</ele>
<desc>Speed 29.0 km/h Distance 34.14 km</desc>
<time>2011-05-22T10:01:12.84</time>
<name>7839</name>
<sym>Dot</sym>
</trkpt>
<trkpt lat="39.860770" lon="-8.449785">
<ele>327.0</ele>
<desc>Speed 29.7 km/h Distance 34.15 km</desc>
<time>2011-05-22T10:01:13.84</time>
<name>7840</name>
<sym>Dot</sym>
</trkpt>
<trkpt lat="39.860707" lon="-8.449727">
<ele>326.0</ele>
<desc>Speed 29.8 km/h Distance 34.16 km</desc>
<time>2011-05-22T10:01:14.83</time>
<name>7841</name>
<sym>Dot</sym>
</trkpt>
<trkpt lat="39.860642" lon="-8.449672">
<ele>324.5</ele>
<desc>Speed 30.0 km/h Distance 34.17 km</desc>
<time>2011-05-22T10:01:15.83</time>
<name>7842</name>
<sym>Dot</sym>
</trkpt>
<trkpt lat="39.860578" lon="-8.449617">
<ele>324.0</ele>
<desc>Speed 29.9 km/h Distance 34.18 km</desc>
<time>2011-05-22T10:01:16.84</time>
<name>7843</name>
<sym>Dot</sym>
</trkpt>
<trkpt lat="39.860517" lon="-8.449558">
<ele>323.5</ele>
<desc>Speed 30.0 km/h Distance 34.18 km</desc>
<time>2011-05-22T10:01:17.83</time>
<name>7844</name>
<sym>Dot</sym>
</trkpt>
<trkpt lat="39.860453" lon="-8.449502">
<ele>321.5</ele>
<desc>Speed 29.3 km/h Distance 34.19 km</desc>
<time>2011-05-22T10:01:18.83</time>
<name>7845</name>
<sym>Dot</sym>
</trkpt>
<trkpt lat="39.860388" lon="-8.449445">
<ele>320.0</ele>
<desc>Speed 30.5 km/h Distance 34.20 km</desc>
<time>2011-05-22T10:01:19.83</time>
<name>7846</name>
<sym>Dot</sym>
</trkpt>
<trkpt lat="39.860320" lon="-8.449388">
<ele>319.0</ele>
<desc>Speed 31.2 km/h Distance 34.21 km</desc>
<time>2011-05-22T10:01:20.82</time>
<name>7847</name>
<sym>Dot</sym>
</trkpt>
<trkpt lat="39.860252" lon="-8.449330">
<ele>319.0</ele>
<desc>Speed 32.0 km/h Distance 34.22 km</desc>
<time>2011-05-22T10:01:21.82</time>
<name>7848</name>
<sym>Dot</sym>
</trkpt>
<trkpt lat="39.860182" lon="-8.449273">
<ele>318.0</ele>
<desc>Speed 32.0 km/h Distance 34.23 km</desc>
<time>2011-05-22T10:01:22.82</time>
<name>7849</name>
<sym>Dot</sym>
</trkpt>
<trkpt lat="39.860107" lon="-8.449222">
<ele>318.0</ele>
<desc>Speed 32.5 km/h Distance 34.24 km</desc>
<time>2011-05-22T10:01:23.81</time>
<name>7850</name>
<sym>Dot</sym>
</trkpt>
<trkpt lat="39.860030" lon="-8.449177">
<ele>317.5</ele>
<desc>Speed 32.9 km/h Distance 34.25 km</desc>
<time>2011-05-22T10:01:24.80</time>
<name>7851</name>
<sym>Dot</sym>
</trkpt>
<trkpt lat="39.859953" lon="-8.449137">
<ele>317.0</ele>
<desc>Speed 32.1 km/h Distance 34.26 km</desc>
<time>2011-05-22T10:01:25.80</time>
<name>7852</name>
<sym>Dot</sym>
</trkpt>
<trkpt lat="39.859873" lon="-8.449102">
<ele>317.0</ele>
<desc>Speed 32.6 km/h Distance 34.27 km</desc>
<time>2011-05-22T10:01:26.80</time>
<name>7853</name>
<sym>Dot</sym>
</trkpt>
<trkpt lat="39.859792" lon="-8.449075">
<ele>317.5</ele>
<desc>Speed 32.9 km/h Distance 34.28 km</desc>
<time>2011-05-22T10:01:27.79</time>
<name>7854</name>
<sym>Dot</sym>
</trkpt>
<trkpt lat="39.859710" lon="-8.449057">
<ele>317.0</ele>
<desc>Speed 33.0 km/h Distance 34.28 km</desc>
<time>2011-05-22T10:01:28.79</time>
<name>7855</name>
<sym>Dot</sym>
</trkpt>
<trkpt lat="39.859630" lon="-8.449053">
<ele>318.0</ele>
<desc>Speed 31.6 km/h Distance 34.29 km</desc>
<time>2011-05-22T10:01:29.80</time>
<name>7856</name>
<sym>Dot</sym>
</trkpt>
<trkpt lat="39.859543" lon="-8.449050">
<ele>317.5</ele>
<desc>Speed 34.1 km/h Distance 34.30 km</desc>
<time>2011-05-22T10:01:30.80</time>
<name>7857</name>
<sym>Dot</sym>
</trkpt>
<trkpt lat="39.859455" lon="-8.449050">
<ele>316.5</ele>
<desc>Speed 34.5 km/h Distance 34.31 km</desc>
<time>2011-05-22T10:01:31.78</time>
<name>7858</name>
<sym>Dot</sym>
</trkpt>
<trkpt lat="39.859367" lon="-8.449057">
<ele>316.0</ele>
<desc>Speed 34.6 km/h Distance 34.32 km</desc>
<time>2011-05-22T10:01:32.79</time>
<name>7859</name>
<sym>Dot</sym>
</trkpt>
<trkpt lat="39.859280" lon="-8.449070">
<ele>316.0</ele>
<desc>Speed 34.6 km/h Distance 34.33 km</desc>
<time>2011-05-22T10:01:33.78</time>
<name>7860</name>
<sym>Dot</sym>
</trkpt>
<trkpt lat="39.859193" lon="-8.449072">
<ele>315.5</ele>
<desc>Speed 34.1 km/h Distance 34.34 km</desc>
<time>2011-05-22T10:01:34.77</time>
<name>7861</name>
<sym>Dot</sym>
</trkpt>
<trkpt lat="39.859107" lon="-8.449082">
<ele>315.5</ele>
<desc>Speed 33.4 km/h Distance 34.35 km</desc>
<time>2011-05-22T10:01:35.77</time>
<name>7862</name>
<sym>Dot</sym>
</trkpt>
<trkpt lat="39.859015" lon="-8.449120">
<ele>314.5</ele>
<desc>Speed 38.3 km/h Distance 34.36 km</desc>
<time>2011-05-22T10:01:36.75</time>
<name>7863</name>
<sym>Dot</sym>
</trkpt>
<trkpt lat="39.858928" lon="-8.449165">
<ele>314.5</ele>
<desc>Speed 36.0 km/h Distance 34.37 km</desc>
<time>2011-05-22T10:01:37.74</time>
<name>7864</name>
<sym>Dot</sym>
</trkpt>
<trkpt lat="39.858843" lon="-8.449210">
<ele>314.5</ele>
<desc>Speed 36.4 km/h Distance 34.38 km</desc>
<time>2011-05-22T10:01:38.74</time>
<name>7865</name>
<sym>Dot</sym>
</trkpt>
<trkpt lat="39.858757" lon="-8.449255">
<ele>314.0</ele>
<desc>Speed 36.6 km/h Distance 34.39 km</desc>
<time>2011-05-22T10:01:39.73</time>
<name>7866</name>
<sym>Dot</sym>
</trkpt>
<trkpt lat="39.858673" lon="-8.449303">
<ele>313.5</ele>
<desc>Speed 36.2 km/h Distance 34.40 km</desc>
<time>2011-05-22T10:01:40.73</time>
<name>7867</name>
<sym>Dot</sym>
</trkpt>
<trkpt lat="39.858590" lon="-8.449352">
<ele>313.0</ele>
<desc>Speed 36.5 km/h Distance 34.41 km</desc>
<time>2011-05-22T10:01:41.73</time>
<name>7868</name>
<sym>Dot</sym>
</trkpt>
<trkpt lat="39.858508" lon="-8.449400">
<ele>312.5</ele>
<desc>Speed 36.0 km/h Distance 34.42 km</desc>
<time>2011-05-22T10:01:42.72</time>
<name>7869</name>
<sym>Dot</sym>
</trkpt>
<trkpt lat="39.858427" lon="-8.449447">
<ele>312.0</ele>
<desc>Speed 35.2 km/h Distance 34.43 km</desc>
<time>2011-05-22T10:01:43.72</time>
<name>7870</name>
<sym>Dot</sym>
</trkpt>
<trkpt lat="39.858345" lon="-8.449492">
<ele>312.0</ele>
<desc>Speed 35.9 km/h Distance 34.44 km</desc>
<time>2011-05-22T10:01:44.72</time>
<name>7871</name>
<sym>Dot</sym>
</trkpt>
<trkpt lat="39.858265" lon="-8.449542">
<ele>312.0</ele>
<desc>Speed 35.3 km/h Distance 34.45 km</desc>
<time>2011-05-22T10:01:45.71</time>
<name>7872</name>
<sym>Dot</sym>
</trkpt>
<trkpt lat="39.858187" lon="-8.449587">
<ele>311.5</ele>
<desc>Speed 34.4 km/h Distance 34.46 km</desc>
<time>2011-05-22T10:01:46.71</time>
<name>7873</name>
<sym>Dot</sym>
</trkpt>
<trkpt lat="39.858107" lon="-8.449632">
<ele>311.0</ele>
<desc>Speed 34.1 km/h Distance 34.47 km</desc>
<time>2011-05-22T10:01:47.71</time>
<name>7874</name>
<sym>Dot</sym>
</trkpt>
<trkpt lat="39.858030" lon="-8.449673">
<ele>311.0</ele>
<desc>Speed 32.9 km/h Distance 34.48 km</desc>
<time>2011-05-22T10:01:48.70</time>
<name>7875</name>
<sym>Dot</sym>
</trkpt>
<trkpt lat="39.857957" lon="-8.449717">
<ele>311.0</ele>
<desc>Speed 32.1 km/h Distance 34.49 km</desc>
<time>2011-05-22T10:01:49.70</time>
<name>7876</name>
<sym>Dot</sym>
</trkpt>
<trkpt lat="39.857887" lon="-8.449762">
<ele>311.0</ele>
<desc>Speed 30.7 km/h Distance 34.50 km</desc>
<time>2011-05-22T10:01:50.70</time>
<name>7877</name>
<sym>Dot</sym>
</trkpt>
<trkpt lat="39.857818" lon="-8.449803">
<ele>310.5</ele>
<desc>Speed 30.0 km/h Distance 34.51 km</desc>
<time>2011-05-22T10:01:51.70</time>
<name>7878</name>
<sym>Dot</sym>
</trkpt>
<trkpt lat="39.857753" lon="-8.449845">
<ele>310.5</ele>
<desc>Speed 28.5 km/h Distance 34.52 km</desc>
<time>2011-05-22T10:01:52.69</time>
<name>7879</name>
<sym>Dot</sym>
</trkpt>
<trkpt lat="39.857690" lon="-8.449885">
<ele>310.0</ele>
<desc>Speed 27.8 km/h Distance 34.52 km</desc>
<time>2011-05-22T10:01:53.69</time>
<name>7880</name>
<sym>Dot</sym>
</trkpt>
<trkpt lat="39.857628" lon="-8.449925">
<ele>310.0</ele>
<desc>Speed 26.6 km/h Distance 34.53 km</desc>
<time>2011-05-22T10:01:54.69</time>
<name>7881</name>
<sym>Dot</sym>
</trkpt>
<trkpt lat="39.857572" lon="-8.449960">
<ele>310.0</ele>
<desc>Speed 25.2 km/h Distance 34.54 km</desc>
<time>2011-05-22T10:01:55.69</time>
<name>7882</name>
<sym>Dot</sym>
</trkpt>
<trkpt lat="39.857515" lon="-8.449990">
<ele>310.0</ele>
<desc>Speed 24.1 km/h Distance 34.55 km</desc>
<time>2011-05-22T10:01:56.68</time>
<name>7883</name>
<sym>Dot</sym>
</trkpt>
<trkpt lat="39.857458" lon="-8.450015">
<ele>310.0</ele>
<desc>Speed 23.3 km/h Distance 34.55 km</desc>
<time>2011-05-22T10:01:57.68</time>
<name>7884</name>
<sym>Dot</sym>
</trkpt>
<trkpt lat="39.857403" lon="-8.450033">
<ele>310.0</ele>
<desc>Speed 22.6 km/h Distance 34.56 km</desc>
<time>2011-05-22T10:01:58.67</time>
<name>7885</name>
<sym>Dot</sym>
</trkpt>
<trkpt lat="39.857348" lon="-8.450050">
<ele>310.0</ele>
<desc>Speed 22.1 km/h Distance 34.57 km</desc>
<time>2011-05-22T10:01:59.67</time>
<name>7886</name>
<sym>Dot</sym>
</trkpt>
<trkpt lat="39.857297" lon="-8.450062">
<ele>310.0</ele>
<desc>Speed 20.9 km/h Distance 34.57 km</desc>
<time>2011-05-22T10:02:00.66</time>
<name>7887</name>
<sym>Dot</sym>
</trkpt>
<trkpt lat="39.857245" lon="-8.450067">
<ele>310.0</ele>
<desc>Speed 20.6 km/h Distance 34.58 km</desc>
<time>2011-05-22T10:02:01.66</time>
<name>7888</name>
<sym>Dot</sym>
</trkpt>
<trkpt lat="39.857193" lon="-8.450072">
<ele>309.5</ele>
<desc>Speed 20.3 km/h Distance 34.58 km</desc>
<time>2011-05-22T10:02:02.66</time>
<name>7889</name>
<sym>Dot</sym>
</trkpt>
<trkpt lat="39.857143" lon="-8.450077">
<ele>309.5</ele>
<desc>Speed 20.0 km/h Distance 34.59 km</desc>
<time>2011-05-22T10:02:03.66</time>
<name>7890</name>
<sym>Dot</sym>
</trkpt>
<trkpt lat="39.857093" lon="-8.450078">
<ele>309.5</ele>
<desc>Speed 19.7 km/h Distance 34.59 km</desc>
<time>2011-05-22T10:02:04.66</time>
<name>7891</name>
<sym>Dot</sym>
</trkpt>
<trkpt lat="39.857045" lon="-8.450073">
<ele>309.5</ele>
<desc>Speed 19.5 km/h Distance 34.60 km</desc>
<time>2011-05-22T10:02:05.65</time>
<name>7892</name>
<sym>Dot</sym>
</trkpt>
<trkpt lat="39.856997" lon="-8.450062">
<ele>309.5</ele>
<desc>Speed 19.4 km/h Distance 34.60 km</desc>
<time>2011-05-22T10:02:06.65</time>
<name>7893</name>
<sym>Dot</sym>
</trkpt>
<trkpt lat="39.856948" lon="-8.450048">
<ele>309.5</ele>
<desc>Speed 19.8 km/h Distance 34.61 km</desc>
<time>2011-05-22T10:02:07.65</time>
<name>7894</name>
<sym>Dot</sym>
</trkpt>
<trkpt lat="39.856902" lon="-8.450032">
<ele>310.0</ele>
<desc>Speed 19.4 km/h Distance 34.62 km</desc>
<time>2011-05-22T10:02:08.64</time>
<name>7895</name>
<sym>Dot</sym>
</trkpt>
<trkpt lat="39.856857" lon="-8.450013">
<ele>310.0</ele>
<desc>Speed 18.7 km/h Distance 34.62 km</desc>
<time>2011-05-22T10:02:09.64</time>
<name>7896</name>
<sym>Dot</sym>
</trkpt>
<trkpt lat="39.856815" lon="-8.449993">
<ele>311.0</ele>
<desc>Speed 18.0 km/h Distance 34.63 km</desc>
<time>2011-05-22T10:02:10.63</time>
<name>7897</name>
<sym>Dot</sym>
</trkpt>
<trkpt lat="39.856775" lon="-8.449972">
<ele>311.5</ele>
<desc>Speed 17.2 km/h Distance 34.63 km</desc>
<time>2011-05-22T10:02:11.63</time>
<name>7898</name>
<sym>Dot</sym>
</trkpt>
<trkpt lat="39.856735" lon="-8.449953">
<ele>312.5</ele>
<desc>Speed 16.7 km/h Distance 34.64 km</desc>
<time>2011-05-22T10:02:12.63</time>
<name>7899</name>
<sym>Dot</sym>
</trkpt>
<trkpt lat="39.856697" lon="-8.449935">
<ele>313.5</ele>
<desc>Speed 16.2 km/h Distance 34.64 km</desc>
<time>2011-05-22T10:02:13.63</time>
<name>7900</name>
<sym>Dot</sym>
</trkpt>
<trkpt lat="39.856662" lon="-8.449913">
<ele>313.5</ele>
<desc>Speed 15.6 km/h Distance 34.64 km</desc>
<time>2011-05-22T10:02:14.63</time>
<name>7901</name>
<sym>Dot</sym>
</trkpt>
<trkpt lat="39.856627" lon="-8.449892">
<ele>314.0</ele>
<desc>Speed 15.3 km/h Distance 34.65 km</desc>
<time>2011-05-22T10:02:15.63</time>
<name>7902</name>
<sym>Dot</sym>
</trkpt>
<trkpt lat="39.856595" lon="-8.449870">
<ele>314.0</ele>
<desc>Speed 14.8 km/h Distance 34.65 km</desc>
<time>2011-05-22T10:02:16.63</time>
<name>7903</name>
<sym>Dot</sym>
</trkpt>
<trkpt lat="39.856563" lon="-8.449850">
<ele>314.0</ele>
<desc>Speed 14.7 km/h Distance 34.66 km</desc>
<time>2011-05-22T10:02:17.63</time>
<name>7904</name>
<sym>Dot</sym>
</trkpt>
<trkpt lat="39.856532" lon="-8.449828">
<ele>314.0</ele>
<desc>Speed 14.3 km/h Distance 34.66 km</desc>
<time>2011-05-22T10:02:18.62</time>
<name>7905</name>
<sym>Dot</sym>
</trkpt>
<trkpt lat="39.856502" lon="-8.449805">
<ele>314.0</ele>
<desc>Speed 13.9 km/h Distance 34.66 km</desc>
<time>2011-05-22T10:02:19.62</time>
<name>7906</name>
<sym>Dot</sym>
</trkpt>
<trkpt lat="39.856475" lon="-8.449785">
<ele>314.5</ele>
<desc>Speed 13.2 km/h Distance 34.67 km</desc>
<time>2011-05-22T10:02:20.62</time>
<name>7907</name>
<sym>Dot</sym>
</trkpt>
<trkpt lat="39.856448" lon="-8.449767">
<ele>315.0</ele>
<desc>Speed 12.1 km/h Distance 34.67 km</desc>
<time>2011-05-22T10:02:21.61</time>
<name>7908</name>
<sym>Dot</sym>
</trkpt>
<trkpt lat="39.856423" lon="-8.449748">
<ele>316.0</ele>
<desc>Speed 11.3 km/h Distance 34.67 km</desc>
<time>2011-05-22T10:02:22.61</time>
<name>7909</name>
<sym>Dot</sym>
</trkpt>
<trkpt lat="39.856397" lon="-8.449733">
<ele>316.5</ele>
<desc>Speed 12.0 km/h Distance 34.68 km</desc>
<time>2011-05-22T10:02:23.60</time>
<name>7910</name>
<sym>Dot</sym>
</trkpt>
<trkpt lat="39.856382" lon="-8.449718">
<ele>316.5</ele>
<desc>Speed 6.9 km/h Distance 34.68 km</desc>
<time>2011-05-22T10:02:24.60</time>
<name>7911</name>
<sym>Dot</sym>
</trkpt>
<trkpt lat="39.856358" lon="-8.449705">
<ele>316.5</ele>
<desc>Speed 9.9 km/h Distance 34.68 km</desc>
<time>2011-05-22T10:02:25.59</time>
<name>7912</name>
<sym>Dot</sym>
</trkpt>
<trkpt lat="39.856335" lon="-8.449692">
<ele>316.5</ele>
<desc>Speed 10.2 km/h Distance 34.68 km</desc>
<time>2011-05-22T10:02:26.59</time>
<name>7913</name>
<sym>Dot</sym>
</trkpt>
<trkpt lat="39.856313" lon="-8.449668">
<ele>318.0</ele>
<desc>Speed 10.8 km/h Distance 34.69 km</desc>
<time>2011-05-22T10:02:27.59</time>
<name>7914</name>
<sym>Dot</sym>
</trkpt>
<trkpt lat="39.856288" lon="-8.449645">
<ele>318.5</ele>
<desc>Speed 13.2 km/h Distance 34.69 km</desc>
<time>2011-05-22T10:02:28.58</time>
<name>7915</name>
<sym>Dot</sym>
</trkpt>
<trkpt lat="39.856258" lon="-8.449623">
<ele>319.5</ele>
<desc>Speed 13.2 km/h Distance 34.70 km</desc>
<time>2011-05-22T10:02:29.58</time>
<name>7916</name>
<sym>Dot</sym>
</trkpt>
<trkpt lat="39.856228" lon="-8.449603">
<ele>321.5</ele>
<desc>Speed 13.3 km/h Distance 34.70 km</desc>
<time>2011-05-22T10:02:30.58</time>
<name>7917</name>
<sym>Dot</sym>
</trkpt>
<trkpt lat="39.856198" lon="-8.449585">
<ele>322.5</ele>
<desc>Speed 13.7 km/h Distance 34.70 km</desc>
<time>2011-05-22T10:02:31.57</time>
<name>7918</name>
<sym>Dot</sym>
</trkpt>
<trkpt lat="39.856162" lon="-8.449568">
<ele>324.5</ele>
<desc>Speed 14.9 km/h Distance 34.71 km</desc>
<time>2011-05-22T10:02:32.57</time>
<name>7919</name>
<sym>Dot</sym>
</trkpt>
<trkpt lat="39.856122" lon="-8.449555">
<ele>324.5</ele>
<desc>Speed 16.7 km/h Distance 34.71 km</desc>
<time>2011-05-22T10:02:33.57</time>
<name>7920</name>
<sym>Dot</sym>
</trkpt>
<trkpt lat="39.856080" lon="-8.449538">
<ele>324.5</ele>
<desc>Speed 17.1 km/h Distance 34.72 km</desc>
<time>2011-05-22T10:02:34.57</time>
<name>7921</name>
<sym>Dot</sym>
</trkpt>
<trkpt lat="39.856038" lon="-8.449523">
<ele>324.0</ele>
<desc>Speed 17.0 km/h Distance 34.72 km</desc>
<time>2011-05-22T10:02:35.56</time>
<name>7922</name>
<sym>Dot</sym>
</trkpt>
<trkpt lat="39.856003" lon="-8.449498">
<ele>324.0</ele>
<desc>Speed 15.4 km/h Distance 34.73 km</desc>
<time>2011-05-22T10:02:36.56</time>
<name>7923</name>
<sym>Dot</sym>
</trkpt>
<trkpt lat="39.855967" lon="-8.449480">
<ele>325.0</ele>
<desc>Speed 15.4 km/h Distance 34.73 km</desc>
<time>2011-05-22T10:02:37.56</time>
<name>7924</name>
<sym>Dot</sym>
</trkpt>
<trkpt lat="39.855928" lon="-8.449462">
<ele>326.0</ele>
<desc>Speed 16.1 km/h Distance 34.73 km</desc>
<time>2011-05-22T10:02:38.55</time>
<name>7925</name>
<sym>Dot</sym>
</trkpt>
<trkpt lat="39.855888" lon="-8.449445">
<ele>327.0</ele>
<desc>Speed 16.1 km/h Distance 34.74 km</desc>
<time>2011-05-22T10:02:39.55</time>
<name>7926</name>
<sym>Dot</sym>
</trkpt>
<trkpt lat="39.855848" lon="-8.449432">
<ele>328.5</ele>
<desc>Speed 16.2 km/h Distance 34.74 km</desc>
<time>2011-05-22T10:02:40.55</time>
<name>7927</name>
<sym>Dot</sym>
</trkpt>
<trkpt lat="39.855808" lon="-8.449417">
<ele>330.0</ele>
<desc>Speed 16.2 km/h Distance 34.75 km</desc>
<time>2011-05-22T10:02:41.54</time>
<name>7928</name>
<sym>Dot</sym>
</trkpt>
<trkpt lat="39.855768" lon="-8.449405">
<ele>330.5</ele>
<desc>Speed 16.1 km/h Distance 34.75 km</desc>
<time>2011-05-22T10:02:42.53</time>
<name>7929</name>
<sym>Dot</sym>
</trkpt>
<trkpt lat="39.855728" lon="-8.449397">
<ele>330.5</ele>
<desc>Speed 16.5 km/h Distance 34.76 km</desc>
<time>2011-05-22T10:02:43.53</time>
<name>7930</name>
<sym>Dot</sym>
</trkpt>
<trkpt lat="39.855683" lon="-8.449388">
<ele>330.5</ele>
<desc>Speed 16.9 km/h Distance 34.76 km</desc>
<time>2011-05-22T10:02:44.52</time>
<name>7931</name>
<sym>Dot</sym>
</trkpt>
<trkpt lat="39.855640" lon="-8.449382">
<ele>330.5</ele>
<desc>Speed 17.7 km/h Distance 34.77 km</desc>
<time>2011-05-22T10:02:45.52</time>
<name>7932</name>
<sym>Dot</sym>
</trkpt>
<trkpt lat="39.855593" lon="-8.449377">
<ele>331.0</ele>
<desc>Speed 17.9 km/h Distance 34.77 km</desc>
<time>2011-05-22T10:02:46.52</time>
<name>7933</name>
<sym>Dot</sym>
</trkpt>
<trkpt lat="39.855548" lon="-8.449373">
<ele>331.0</ele>
<desc>Speed 17.9 km/h Distance 34.78 km</desc>
<time>2011-05-22T10:02:47.52</time>
<name>7934</name>
<sym>Dot</sym>
</trkpt>
<trkpt lat="39.855502" lon="-8.449373">
<ele>330.5</ele>
<desc>Speed 18.4 km/h Distance 34.78 km</desc>
<time>2011-05-22T10:02:48.51</time>
<name>7935</name>
<sym>Dot</sym>
</trkpt>
<trkpt lat="39.855453" lon="-8.449377">
<ele>330.0</ele>
<desc>Speed 19.3 km/h Distance 34.79 km</desc>
<time>2011-05-22T10:02:49.51</time>
<name>7936</name>
<sym>Dot</sym>
</trkpt>
<trkpt lat="39.855402" lon="-8.449382">
<ele>329.5</ele>
<desc>Speed 19.9 km/h Distance 34.79 km</desc>
<time>2011-05-22T10:02:50.51</time>
<name>7937</name>
<sym>Dot</sym>
</trkpt>
<trkpt lat="39.855348" lon="-8.449388">
<ele>329.0</ele>
<desc>Speed 20.9 km/h Distance 34.80 km</desc>
<time>2011-05-22T10:02:51.50</time>
<name>7938</name>
<sym>Dot</sym>
</trkpt>
<trkpt lat="39.855293" lon="-8.449400">
<ele>328.5</ele>
<desc>Speed 21.9 km/h Distance 34.81 km</desc>
<time>2011-05-22T10:02:52.50</time>
<name>7939</name>
<sym>Dot</sym>
</trkpt>
<trkpt lat="39.855238" lon="-8.449410">
<ele>329.0</ele>
<desc>Speed 22.4 km/h Distance 34.81 km</desc>
<time>2011-05-22T10:02:53.49</time>
<name>7940</name>
<sym>Dot</sym>
</trkpt>
<trkpt lat="39.855180" lon="-8.449422">
<ele>329.0</ele>
<desc>Speed 23.4 km/h Distance 34.82 km</desc>
<time>2011-05-22T10:02:54.49</time>
<name>7941</name>
<sym>Dot</sym>
</trkpt>
<trkpt lat="39.855123" lon="-8.449433">
<ele>329.0</ele>
<desc>Speed 22.4 km/h Distance 34.83 km</desc>
<time>2011-05-22T10:02:55.49</time>
<name>7942</name>
<sym>Dot</sym>
</trkpt>
<trkpt lat="39.855067" lon="-8.449447">
<ele>330.0</ele>
<desc>Speed 23.1 km/h Distance 34.83 km</desc>
<time>2011-05-22T10:02:56.48</time>
<name>7943</name>
<sym>Dot</sym>
</trkpt>
<trkpt lat="39.855003" lon="-8.449453">
<ele>331.5</ele>
<desc>Speed 24.7 km/h Distance 34.84 km</desc>
<time>2011-05-22T10:02:57.48</time>
<name>7944</name>
<sym>Dot</sym>
</trkpt>
<trkpt lat="39.854940" lon="-8.449467">
<ele>332.0</ele>
<desc>Speed 25.5 km/h Distance 34.85 km</desc>
<time>2011-05-22T10:02:58.47</time>
<name>7945</name>
<sym>Dot</sym>
</trkpt>
<trkpt lat="39.854877" lon="-8.449483">
<ele>332.5</ele>
<desc>Speed 25.5 km/h Distance 34.85 km</desc>
<time>2011-05-22T10:02:59.47</time>
<name>7946</name>
<sym>Dot</sym>
</trkpt>
<trkpt lat="39.854815" lon="-8.449498">
<ele>333.0</ele>
<desc>Speed 24.5 km/h Distance 34.86 km</desc>
<time>2011-05-22T10:03:00.47</time>
<name>7947</name>
<sym>Dot</sym>
</trkpt>
<trkpt lat="39.854753" lon="-8.449512">
<ele>333.0</ele>
<desc>Speed 24.8 km/h Distance 34.87 km</desc>
<time>2011-05-22T10:03:01.46</time>
<name>7948</name>
<sym>Dot</sym>
</trkpt>
<trkpt lat="39.854685" lon="-8.449527">
<ele>333.0</ele>
<desc>Speed 27.3 km/h Distance 34.87 km</desc>
<time>2011-05-22T10:03:02.45</time>
<name>7949</name>
<sym>Dot</sym>
</trkpt>
<trkpt lat="39.854618" lon="-8.449542">
<ele>332.5</ele>
<desc>Speed 26.4 km/h Distance 34.88 km</desc>
<time>2011-05-22T10:03:03.45</time>
<name>7950</name>
<sym>Dot</sym>
</trkpt>
<trkpt lat="39.854552" lon="-8.449557">
<ele>332.0</ele>
<desc>Speed 26.9 km/h Distance 34.89 km</desc>
<time>2011-05-22T10:03:04.45</time>
<name>7951</name>
<sym>Dot</sym>
</trkpt>
<trkpt lat="39.854485" lon="-8.449573">
<ele>331.5</ele>
<desc>Speed 26.2 km/h Distance 34.90 km</desc>
<time>2011-05-22T10:03:05.45</time>
<name>7952</name>
<sym>Dot</sym>
</trkpt>
<trkpt lat="39.854420" lon="-8.449587">
<ele>331.0</ele>
<desc>Speed 26.6 km/h Distance 34.90 km</desc>
<time>2011-05-22T10:03:06.44</time>
<name>7953</name>
<sym>Dot</sym>
</trkpt>
<trkpt lat="39.854353" lon="-8.449600">
<ele>331.0</ele>
<desc>Speed 26.9 km/h Distance 34.91 km</desc>
<time>2011-05-22T10:03:07.44</time>
<name>7954</name>
<sym>Dot</sym>
</trkpt>
<trkpt lat="39.854288" lon="-8.449617">
<ele>332.0</ele>
<desc>Speed 26.4 km/h Distance 34.92 km</desc>
<time>2011-05-22T10:03:08.44</time>
<name>7955</name>
<sym>Dot</sym>
</trkpt>
<trkpt lat="39.854222" lon="-8.449635">
<ele>333.0</ele>
<desc>Speed 27.8 km/h Distance 34.93 km</desc>
<time>2011-05-22T10:03:09.44</time>
<name>7956</name>
<sym>Dot</sym>
</trkpt>
<trkpt lat="39.854153" lon="-8.449655">
<ele>333.5</ele>
<desc>Speed 28.2 km/h Distance 34.94 km</desc>
<time>2011-05-22T10:03:10.43</time>
<name>7957</name>
<sym>Dot</sym>
</trkpt>
<trkpt lat="39.854077" lon="-8.449662">
<ele>333.5</ele>
<desc>Speed 30.8 km/h Distance 34.94 km</desc>
<time>2011-05-22T10:03:11.43</time>
<name>7958</name>
<sym>Dot</sym>
</trkpt>
<trkpt lat="39.854008" lon="-8.449670">
<ele>335.0</ele>
<desc>Speed 27.9 km/h Distance 34.95 km</desc>
<time>2011-05-22T10:03:12.42</time>
<name>7959</name>
<sym>Dot</sym>
</trkpt>
<trkpt lat="39.853938" lon="-8.449682">
<ele>336.0</ele>
<desc>Speed 28.4 km/h Distance 34.96 km</desc>
<time>2011-05-22T10:03:13.42</time>
<name>7960</name>
<sym>Dot</sym>
</trkpt>
<trkpt lat="39.853868" lon="-8.449697">
<ele>336.5</ele>
<desc>Speed 29.4 km/h Distance 34.97 km</desc>
<time>2011-05-22T10:03:14.42</time>
<name>7961</name>
<sym>Dot</sym>
</trkpt>
<trkpt lat="39.853738" lon="-8.449727">
<ele>335.0</ele>
<desc>Speed 31.8 km/h Distance 34.98 km</desc>
<time>2011-05-22T10:03:16.41</time>
<name>7962</name>
<sym>Dot</sym>
</trkpt>
<trkpt lat="39.853663" lon="-8.449742">
<ele>334.0</ele>
<desc>Speed 30.0 km/h Distance 34.99 km</desc>
<time>2011-05-22T10:03:17.41</time>
<name>7963</name>
<sym>Dot</sym>
</trkpt>
<trkpt lat="39.853585" lon="-8.449753">
<ele>333.0</ele>
<desc>Speed 31.5 km/h Distance 35.00 km</desc>
<time>2011-05-22T10:03:18.41</time>
<name>7964</name>
<sym>Dot</sym>
</trkpt>
<trkpt lat="39.853505" lon="-8.449762">
<ele>332.5</ele>
<desc>Speed 31.7 km/h Distance 35.01 km</desc>
<time>2011-05-22T10:03:19.41</time>
<name>7965</name>
<sym>Dot</sym>
</trkpt>
<trkpt lat="39.853425" lon="-8.449767">
<ele>332.0</ele>
<desc>Speed 31.8 km/h Distance 35.02 km</desc>
<time>2011-05-22T10:03:20.40</time>
<name>7966</name>
<sym>Dot</sym>
</trkpt>
<trkpt lat="39.853347" lon="-8.449762">
<ele>331.0</ele>
<desc>Speed 30.7 km/h Distance 35.03 km</desc>
<time>2011-05-22T10:03:21.40</time>
<name>7967</name>
<sym>Dot</sym>
</trkpt>
<trkpt lat="39.853263" lon="-8.449733">
<ele>330.5</ele>
<desc>Speed 34.2 km/h Distance 35.04 km</desc>
<time>2011-05-22T10:03:22.39</time>
<name>7968</name>
<sym>Dot</sym>
</trkpt>
<trkpt lat="39.853187" lon="-8.449703">
<ele>331.0</ele>
<desc>Speed 31.8 km/h Distance 35.04 km</desc>
<time>2011-05-22T10:03:23.39</time>
<name>7969</name>
<sym>Dot</sym>
</trkpt>
<trkpt lat="39.853103" lon="-8.449667">
<ele>330.5</ele>
<desc>Speed 34.7 km/h Distance 35.05 km</desc>
<time>2011-05-22T10:03:24.39</time>
<name>7970</name>
<sym>Dot</sym>
</trkpt>
<trkpt lat="39.853028" lon="-8.449618">
<ele>330.0</ele>
<desc>Speed 33.8 km/h Distance 35.06 km</desc>
<time>2011-05-22T10:03:25.39</time>
<name>7971</name>
<sym>Dot</sym>
</trkpt>
<trkpt lat="39.852957" lon="-8.449562">
<ele>329.5</ele>
<desc>Speed 33.9 km/h Distance 35.07 km</desc>
<time>2011-05-22T10:03:26.38</time>
<name>7972</name>
<sym>Dot</sym>
</trkpt>
<trkpt lat="39.852882" lon="-8.449503">
<ele>329.0</ele>
<desc>Speed 34.9 km/h Distance 35.08 km</desc>
<time>2011-05-22T10:03:27.37</time>
<name>7973</name>
<sym>Dot</sym>
</trkpt>
<trkpt lat="39.852813" lon="-8.449435">
<ele>328.5</ele>
<desc>Speed 34.6 km/h Distance 35.09 km</desc>
<time>2011-05-22T10:03:28.37</time>
<name>7974</name>
<sym>Dot</sym>
</trkpt>
<trkpt lat="39.852750" lon="-8.449363">
<ele>328.5</ele>
<desc>Speed 33.4 km/h Distance 35.10 km</desc>
<time>2011-05-22T10:03:29.37</time>
<name>7975</name>
<sym>Dot</sym>
</trkpt>
<trkpt lat="39.852677" lon="-8.449293">
<ele>327.0</ele>
<desc>Speed 36.2 km/h Distance 35.11 km</desc>
<time>2011-05-22T10:03:30.37</time>
<name>7976</name>
<sym>Dot</sym>
</trkpt>
<trkpt lat="39.852603" lon="-8.449223">
<ele>326.0</ele>
<desc>Speed 36.4 km/h Distance 35.12 km</desc>
<time>2011-05-22T10:03:31.35</time>
<name>7977</name>
<sym>Dot</sym>
</trkpt>
<trkpt lat="39.852528" lon="-8.449152">
<ele>325.0</ele>
<desc>Speed 36.8 km/h Distance 35.13 km</desc>
<time>2011-05-22T10:03:32.35</time>
<name>7978</name>
<sym>Dot</sym>
</trkpt>
<trkpt lat="39.852457" lon="-8.449077">
<ele>324.0</ele>
<desc>Speed 37.1 km/h Distance 35.14 km</desc>
<time>2011-05-22T10:03:33.34</time>
<name>7979</name>
<sym>Dot</sym>
</trkpt>
<trkpt lat="39.852385" lon="-8.449007">
<ele>322.5</ele>
<desc>Speed 36.4 km/h Distance 35.15 km</desc>
<time>2011-05-22T10:03:34.34</time>
<name>7980</name>
<sym>Dot</sym>
</trkpt>
<trkpt lat="39.852315" lon="-8.448937">
<ele>321.5</ele>
<desc>Speed 35.2 km/h Distance 35.16 km</desc>
<time>2011-05-22T10:03:35.33</time>
<name>7981</name>
<sym>Dot</sym>
</trkpt>
<trkpt lat="39.852262" lon="-8.448865">
<ele>322.5</ele>
<desc>Speed 30.2 km/h Distance 35.17 km</desc>
<time>2011-05-22T10:03:36.32</time>
<name>7982</name>
<sym>Dot</sym>
</trkpt>
<trkpt lat="39.852197" lon="-8.448792">
<ele>321.0</ele>
<desc>Speed 34.3 km/h Distance 35.18 km</desc>
<time>2011-05-22T10:03:37.32</time>
<name>7983</name>
<sym>Dot</sym>
</trkpt>
<trkpt lat="39.852125" lon="-8.448725">
<ele>319.0</ele>
<desc>Speed 34.6 km/h Distance 35.19 km</desc>
<time>2011-05-22T10:03:38.31</time>
<name>7984</name>
<sym>Dot</sym>
</trkpt>
<trkpt lat="39.852055" lon="-8.448657">
<ele>318.0</ele>
<desc>Speed 34.6 km/h Distance 35.20 km</desc>
<time>2011-05-22T10:03:39.31</time>
<name>7985</name>
<sym>Dot</sym>
</trkpt>
<trkpt lat="39.851985" lon="-8.448590">
<ele>316.5</ele>
<desc>Speed 34.8 km/h Distance 35.21 km</desc>
<time>2011-05-22T10:03:40.31</time>
<name>7986</name>
<sym>Dot</sym>
</trkpt>
<trkpt lat="39.851915" lon="-8.448528">
<ele>315.0</ele>
<desc>Speed 34.4 km/h Distance 35.22 km</desc>
<time>2011-05-22T10:03:41.32</time>
<name>7987</name>
<sym>Dot</sym>
</trkpt>
<trkpt lat="39.851843" lon="-8.448473">
<ele>313.0</ele>
<desc>Speed 33.8 km/h Distance 35.23 km</desc>
<time>2011-05-22T10:03:42.31</time>
<name>7988</name>
<sym>Dot</sym>
</trkpt>
<trkpt lat="39.851770" lon="-8.448417">
<ele>312.0</ele>
<desc>Speed 33.9 km/h Distance 35.24 km</desc>
<time>2011-05-22T10:03:43.31</time>
<name>7989</name>
<sym>Dot</sym>
</trkpt>
<trkpt lat="39.851695" lon="-8.448357">
<ele>311.0</ele>
<desc>Speed 34.6 km/h Distance 35.25 km</desc>
<time>2011-05-22T10:03:44.30</time>
<name>7990</name>
<sym>Dot</sym>
</trkpt>
<trkpt lat="39.851620" lon="-8.448298">
<ele>310.0</ele>
<desc>Speed 34.8 km/h Distance 35.26 km</desc>
<time>2011-05-22T10:03:45.30</time>
<name>7991</name>
<sym>Dot</sym>
</trkpt>
<trkpt lat="39.851542" lon="-8.448242">
<ele>308.0</ele>
<desc>Speed 35.3 km/h Distance 35.27 km</desc>
<time>2011-05-22T10:03:46.29</time>
<name>7992</name>
<sym>Dot</sym>
</trkpt>
<trkpt lat="39.851460" lon="-8.448182">
<ele>306.5</ele>
<desc>Speed 36.5 km/h Distance 35.28 km</desc>
<time>2011-05-22T10:03:47.29</time>
<name>7993</name>
<sym>Dot</sym>
</trkpt>
<trkpt lat="39.851380" lon="-8.448120">
<ele>305.0</ele>
<desc>Speed 37.4 km/h Distance 35.29 km</desc>
<time>2011-05-22T10:03:48.28</time>
<name>7994</name>
<sym>Dot</sym>
</trkpt>
<trkpt lat="39.851298" lon="-8.448062">
<ele>304.0</ele>
<desc>Speed 37.3 km/h Distance 35.30 km</desc>
<time>2011-05-22T10:03:49.27</time>
<name>7995</name>
<sym>Dot</sym>
</trkpt>
<trkpt lat="39.851215" lon="-8.448003">
<ele>302.5</ele>
<desc>Speed 38.0 km/h Distance 35.31 km</desc>
<time>2011-05-22T10:03:50.27</time>
<name>7996</name>
<sym>Dot</sym>
</trkpt>
<trkpt lat="39.851132" lon="-8.447942">
<ele>303.0</ele>
<desc>Speed 38.8 km/h Distance 35.32 km</desc>
<time>2011-05-22T10:03:51.27</time>
<name>7997</name>
<sym>Dot</sym>
</trkpt>
<trkpt lat="39.851042" lon="-8.447877">
<ele>301.5</ele>
<desc>Speed 40.8 km/h Distance 35.33 km</desc>
<time>2011-05-22T10:03:52.26</time>
<name>7998</name>
<sym>Dot</sym>
</trkpt>
<trkpt lat="39.850953" lon="-8.447812">
<ele>300.5</ele>
<desc>Speed 41.0 km/h Distance 35.34 km</desc>
<time>2011-05-22T10:03:53.25</time>
<name>7999</name>
<sym>Dot</sym>
</trkpt>
<trkpt lat="39.850865" lon="-8.447752">
<ele>299.5</ele>
<desc>Speed 40.0 km/h Distance 35.35 km</desc>
<time>2011-05-22T10:03:54.26</time>
<name>8000</name>
<sym>Dot</sym>
</trkpt>
<trkpt lat="39.850775" lon="-8.447693">
<ele>298.0</ele>
<desc>Speed 39.6 km/h Distance 35.36 km</desc>
<time>2011-05-22T10:03:55.24</time>
<name>8001</name>
<sym>Dot</sym>
</trkpt>
<trkpt lat="39.850685" lon="-8.447635">
<ele>296.5</ele>
<desc>Speed 39.9 km/h Distance 35.38 km</desc>
<time>2011-05-22T10:03:56.24</time>
<name>8002</name>
<sym>Dot</sym>
</trkpt>
<trkpt lat="39.850595" lon="-8.447573">
<ele>295.0</ele>
<desc>Speed 40.1 km/h Distance 35.39 km</desc>
<time>2011-05-22T10:03:57.24</time>
<name>8003</name>
<sym>Dot</sym>
</trkpt>
<trkpt lat="39.850502" lon="-8.447513">
<ele>293.5</ele>
<desc>Speed 40.7 km/h Distance 35.40 km</desc>
<time>2011-05-22T10:03:58.23</time>
<name>8004</name>
<sym>Dot</sym>
</trkpt>
<trkpt lat="39.850410" lon="-8.447450">
<ele>292.5</ele>
<desc>Speed 41.0 km/h Distance 35.41 km</desc>
<time>2011-05-22T10:03:59.23</time>
<name>8005</name>
<sym>Dot</sym>
</trkpt>
<trkpt lat="39.850318" lon="-8.447383">
<ele>291.0</ele>
<desc>Speed 41.4 km/h Distance 35.42 km</desc>
<time>2011-05-22T10:04:00.23</time>
<name>8006</name>
<sym>Dot</sym>
</trkpt>
<trkpt lat="39.850225" lon="-8.447318">
<ele>289.5</ele>
<desc>Speed 41.6 km/h Distance 35.43 km</desc>
<time>2011-05-22T10:04:01.22</time>
<name>8007</name>
<sym>Dot</sym>
</trkpt>
<trkpt lat="39.850132" lon="-8.447253">
<ele>287.5</ele>
<desc>Speed 42.1 km/h Distance 35.45 km</desc>
<time>2011-05-22T10:04:02.22</time>
<name>8008</name>
<sym>Dot</sym>
</trkpt>
<trkpt lat="39.850037" lon="-8.447188">
<ele>285.5</ele>
<desc>Speed 42.4 km/h Distance 35.46 km</desc>
<time>2011-05-22T10:04:03.22</time>
<name>8009</name>
<sym>Dot</sym>
</trkpt>
<trkpt lat="39.849940" lon="-8.447123">
<ele>284.0</ele>
<desc>Speed 42.5 km/h Distance 35.47 km</desc>
<time>2011-05-22T10:04:04.21</time>
<name>8010</name>
<sym>Dot</sym>
</trkpt>
<trkpt lat="39.849845" lon="-8.447057">
<ele>282.5</ele>
<desc>Speed 42.5 km/h Distance 35.48 km</desc>
<time>2011-05-22T10:04:05.20</time>
<name>8011</name>
<sym>Dot</sym>
</trkpt>
<trkpt lat="39.849750" lon="-8.446992">
<ele>281.0</ele>
<desc>Speed 42.5 km/h Distance 35.49 km</desc>
<time>2011-05-22T10:04:06.20</time>
<name>8012</name>
<sym>Dot</sym>
</trkpt>
<trkpt lat="39.849655" lon="-8.446927">
<ele>279.5</ele>
<desc>Speed 42.5 km/h Distance 35.51 km</desc>
<time>2011-05-22T10:04:07.19</time>
<name>8013</name>
<sym>Dot</sym>
</trkpt>
<trkpt lat="39.849558" lon="-8.446867">
<ele>278.0</ele>
<desc>Speed 42.5 km/h Distance 35.52 km</desc>
<time>2011-05-22T10:04:08.19</time>
<name>8014</name>
<sym>Dot</sym>
</trkpt>
<trkpt lat="39.849465" lon="-8.446800">
<ele>276.5</ele>
<desc>Speed 42.1 km/h Distance 35.53 km</desc>
<time>2011-05-22T10:04:09.19</time>
<name>8015</name>
<sym>Dot</sym>
</trkpt>
<trkpt lat="39.849373" lon="-8.446735">
<ele>275.0</ele>
<desc>Speed 41.5 km/h Distance 35.54 km</desc>
<time>2011-05-22T10:04:10.18</time>
<name>8016</name>
<sym>Dot</sym>
</trkpt>
<trkpt lat="39.849282" lon="-8.446670">
<ele>274.0</ele>
<desc>Speed 41.4 km/h Distance 35.55 km</desc>
<time>2011-05-22T10:04:11.18</time>
<name>8017</name>
<sym>Dot</sym>
</trkpt>
<trkpt lat="39.849190" lon="-8.446602">
<ele>273.0</ele>
<desc>Speed 41.5 km/h Distance 35.56 km</desc>
<time>2011-05-22T10:04:12.18</time>
<name>8018</name>
<sym>Dot</sym>
</trkpt>
<trkpt lat="39.849098" lon="-8.446538">
<ele>271.5</ele>
<desc>Speed 41.8 km/h Distance 35.58 km</desc>
<time>2011-05-22T10:04:13.18</time>
<name>8019</name>
<sym>Dot</sym>
</trkpt>
<trkpt lat="39.849005" lon="-8.446472">
<ele>270.5</ele>
<desc>Speed 41.9 km/h Distance 35.59 km</desc>
<time>2011-05-22T10:04:14.17</time>
<name>8020</name>
<sym>Dot</sym>
</trkpt>
<trkpt lat="39.848912" lon="-8.446407">
<ele>269.0</ele>
<desc>Speed 41.9 km/h Distance 35.60 km</desc>
<time>2011-05-22T10:04:15.18</time>
<name>8021</name>
<sym>Dot</sym>
</trkpt>
<trkpt lat="39.848817" lon="-8.446343">
<ele>268.0</ele>
<desc>Speed 42.3 km/h Distance 35.61 km</desc>
<time>2011-05-22T10:04:16.17</time>
<name>8022</name>
<sym>Dot</sym>
</trkpt>
<trkpt lat="39.848723" lon="-8.446282">
<ele>267.0</ele>
<desc>Speed 41.8 km/h Distance 35.62 km</desc>
<time>2011-05-22T10:04:17.17</time>
<name>8023</name>
<sym>Dot</sym>
</trkpt>
<trkpt lat="39.848630" lon="-8.446222">
<ele>265.5</ele>
<desc>Speed 41.3 km/h Distance 35.63 km</desc>
<time>2011-05-22T10:04:18.15</time>
<name>8024</name>
<sym>Dot</sym>
</trkpt>
<trkpt lat="39.848535" lon="-8.446165">
<ele>264.5</ele>
<desc>Speed 41.5 km/h Distance 35.65 km</desc>
<time>2011-05-22T10:04:19.15</time>
<name>8025</name>
<sym>Dot</sym>
</trkpt>
<trkpt lat="39.848438" lon="-8.446110">
<ele>263.0</ele>
<desc>Speed 41.9 km/h Distance 35.66 km</desc>
<time>2011-05-22T10:04:20.16</time>
<name>8026</name>
<sym>Dot</sym>
</trkpt>
<trkpt lat="39.848340" lon="-8.446057">
<ele>262.0</ele>
<desc>Speed 42.4 km/h Distance 35.67 km</desc>
<time>2011-05-22T10:04:21.15</time>
<name>8027</name>
<sym>Dot</sym>
</trkpt>
<trkpt lat="39.848240" lon="-8.446007">
<ele>260.5</ele>
<desc>Speed 42.7 km/h Distance 35.68 km</desc>
<time>2011-05-22T10:04:22.15</time>
<name>8028</name>
<sym>Dot</sym>
</trkpt>
<trkpt lat="39.848140" lon="-8.445955">
<ele>259.5</ele>
<desc>Speed 43.2 km/h Distance 35.69 km</desc>
<time>2011-05-22T10:04:23.15</time>
<name>8029</name>
<sym>Dot</sym>
</trkpt>
<trkpt lat="39.848037" lon="-8.445905">
<ele>258.0</ele>
<desc>Speed 43.7 km/h Distance 35.71 km</desc>
<time>2011-05-22T10:04:24.14</time>
<name>8030</name>
<sym>Dot</sym>
</trkpt>
<trkpt lat="39.847935" lon="-8.445855">
<ele>256.5</ele>
<desc>Speed 43.8 km/h Distance 35.72 km</desc>
<time>2011-05-22T10:04:25.14</time>
<name>8031</name>
<sym>Dot</sym>
</trkpt>
<trkpt lat="39.847832" lon="-8.445803">
<ele>255.5</ele>
<desc>Speed 43.9 km/h Distance 35.73 km</desc>
<time>2011-05-22T10:04:26.14</time>
<name>8032</name>
<sym>Dot</sym>
</trkpt>
<trkpt lat="39.847730" lon="-8.445750">
<ele>254.5</ele>
<desc>Speed 43.7 km/h Distance 35.74 km</desc>
<time>2011-05-22T10:04:27.12</time>
<name>8033</name>
<sym>Dot</sym>
</trkpt>
<trkpt lat="39.847628" lon="-8.445693">
<ele>254.5</ele>
<desc>Speed 44.6 km/h Distance 35.75 km</desc>
<time>2011-05-22T10:04:28.12</time>
<name>8034</name>
<sym>Dot</sym>
</trkpt>
<trkpt lat="39.847525" lon="-8.445635">
<ele>253.5</ele>
<desc>Speed 44.8 km/h Distance 35.77 km</desc>
<time>2011-05-22T10:04:29.11</time>
<name>8035</name>
<sym>Dot</sym>
</trkpt>
<trkpt lat="39.847422" lon="-8.445572">
<ele>252.0</ele>
<desc>Speed 45.4 km/h Distance 35.78 km</desc>
<time>2011-05-22T10:04:30.11</time>
<name>8036</name>
<sym>Dot</sym>
</trkpt>
<trkpt lat="39.847317" lon="-8.445507">
<ele>251.0</ele>
<desc>Speed 46.0 km/h Distance 35.79 km</desc>
<time>2011-05-22T10:04:31.10</time>
<name>8037</name>
<sym>Dot</sym>
</trkpt>
<trkpt lat="39.847213" lon="-8.445438">
<ele>250.0</ele>
<desc>Speed 46.3 km/h Distance 35.81 km</desc>
<time>2011-05-22T10:04:32.09</time>
<name>8038</name>
<sym>Dot</sym>
</trkpt>
<trkpt lat="39.847112" lon="-8.445365">
<ele>249.0</ele>
<desc>Speed 46.1 km/h Distance 35.82 km</desc>
<time>2011-05-22T10:04:33.09</time>
<name>8039</name>
<sym>Dot</sym>
</trkpt>
<trkpt lat="39.847012" lon="-8.445290">
<ele>248.0</ele>
<desc>Speed 45.6 km/h Distance 35.83 km</desc>
<time>2011-05-22T10:04:34.08</time>
<name>8040</name>
<sym>Dot</sym>
</trkpt>
<trkpt lat="39.846915" lon="-8.445220">
<ele>247.5</ele>
<desc>Speed 44.6 km/h Distance 35.84 km</desc>
<time>2011-05-22T10:04:35.08</time>
<name>8041</name>
<sym>Dot</sym>
</trkpt>
<trkpt lat="39.846820" lon="-8.445152">
<ele>247.5</ele>
<desc>Speed 43.0 km/h Distance 35.86 km</desc>
<time>2011-05-22T10:04:36.08</time>
<name>8042</name>
<sym>Dot</sym>
</trkpt>
<trkpt lat="39.846732" lon="-8.445088">
<ele>247.5</ele>
<desc>Speed 40.4 km/h Distance 35.87 km</desc>
<time>2011-05-22T10:04:37.07</time>
<name>8043</name>
<sym>Dot</sym>
</trkpt>
<trkpt lat="39.846648" lon="-8.445028">
<ele>247.5</ele>
<desc>Speed 37.9 km/h Distance 35.88 km</desc>
<time>2011-05-22T10:04:38.07</time>
<name>8044</name>
<sym>Dot</sym>
</trkpt>
<trkpt lat="39.846572" lon="-8.444975">
<ele>248.0</ele>
<desc>Speed 34.6 km/h Distance 35.89 km</desc>
<time>2011-05-22T10:04:39.07</time>
<name>8045</name>
<sym>Dot</sym>
</trkpt>
<trkpt lat="39.846505" lon="-8.444928">
<ele>248.0</ele>
<desc>Speed 30.3 km/h Distance 35.90 km</desc>
<time>2011-05-22T10:04:40.07</time>
<name>8046</name>
<sym>Dot</sym>
</trkpt>
<trkpt lat="39.846445" lon="-8.444890">
<ele>248.5</ele>
<desc>Speed 26.8 km/h Distance 35.90 km</desc>
<time>2011-05-22T10:04:41.06</time>
<name>8047</name>
<sym>Dot</sym>
</trkpt>
<trkpt lat="39.846388" lon="-8.444860">
<ele>249.0</ele>
<desc>Speed 24.3 km/h Distance 35.91 km</desc>
<time>2011-05-22T10:04:42.06</time>
<name>8048</name>
<sym>Dot</sym>
</trkpt>
<trkpt lat="39.846338" lon="-8.444837">
<ele>249.5</ele>
<desc>Speed 21.6 km/h Distance 35.92 km</desc>
<time>2011-05-22T10:04:43.06</time>
<name>8049</name>
<sym>Dot</sym>
</trkpt>
<trkpt lat="39.846290" lon="-8.444820">
<ele>249.5</ele>
<desc>Speed 19.9 km/h Distance 35.92 km</desc>
<time>2011-05-22T10:04:44.06</time>
<name>8050</name>
<sym>Dot</sym>
</trkpt>
<trkpt lat="39.846247" lon="-8.444805">
<ele>250.0</ele>
<desc>Speed 18.1 km/h Distance 35.93 km</desc>
<time>2011-05-22T10:04:45.06</time>
<name>8051</name>
<sym>Dot</sym>
</trkpt>
<trkpt lat="39.846205" lon="-8.444793">
<ele>250.0</ele>
<desc>Speed 16.5 km/h Distance 35.93 km</desc>
<time>2011-05-22T10:04:46.05</time>
<name>8052</name>
<sym>Dot</sym>
</trkpt>
<trkpt lat="39.846168" lon="-8.444783">
<ele>250.5</ele>
<desc>Speed 14.9 km/h Distance 35.94 km</desc>
<time>2011-05-22T10:04:47.05</time>
<name>8053</name>
<sym>Dot</sym>
</trkpt>
<trkpt lat="39.846137" lon="-8.444777">
<ele>250.5</ele>
<desc>Speed 13.3 km/h Distance 35.94 km</desc>
<time>2011-05-22T10:04:48.05</time>
<name>8054</name>
<sym>Dot</sym>
</trkpt>
<trkpt lat="39.846107" lon="-8.444772">
<ele>251.0</ele>
<desc>Speed 11.7 km/h Distance 35.94 km</desc>
<time>2011-05-22T10:04:49.05</time>
<name>8055</name>
<sym>Dot</sym>
</trkpt>
<trkpt lat="39.846082" lon="-8.444765">
<ele>251.0</ele>
<desc>Speed 10.5 km/h Distance 35.95 km</desc>
<time>2011-05-22T10:04:50.05</time>
<name>8056</name>
<sym>Dot</sym>
</trkpt>
<trkpt lat="39.846060" lon="-8.444762">
<ele>251.0</ele>
<desc>Speed 8.8 km/h Distance 35.95 km</desc>
<time>2011-05-22T10:04:51.05</time>
<name>8057</name>
<sym>Dot</sym>
</trkpt>
<trkpt lat="39.846042" lon="-8.444760">
<ele>251.5</ele>
<desc>Speed 7.8 km/h Distance 35.95 km</desc>
<time>2011-05-22T10:04:52.04</time>
<name>8058</name>
<sym>Dot</sym>
</trkpt>
<trkpt lat="39.846025" lon="-8.444758">
<ele>252.0</ele>
<desc>Speed 6.6 km/h Distance 35.95 km</desc>
<time>2011-05-22T10:04:53.04</time>
<name>8059</name>
<sym>Dot</sym>
</trkpt>
<trkpt lat="39.846010" lon="-8.444757">
<ele>252.0</ele>
<desc>Speed 6.0 km/h Distance 35.95 km</desc>
<time>2011-05-22T10:04:54.03</time>
<name>8060</name>
<sym>Dot</sym>
</trkpt>
<trkpt lat="39.845998" lon="-8.444757">
<ele>252.0</ele>
<desc>Speed 5.4 km/h Distance 35.95 km</desc>
<time>2011-05-22T10:04:55.03</time>
<name>8061</name>
<sym>Dot</sym>
</trkpt>
<trkpt lat="39.845985" lon="-8.444753">
<ele>252.0</ele>
<desc>Speed 5.4 km/h Distance 35.96 km</desc>
<time>2011-05-22T10:04:56.03</time>
<name>8062</name>
<sym>Dot</sym>
</trkpt>
<trkpt lat="39.845978" lon="-8.444742">
<ele>252.5</ele>
<desc>Speed 4.6 km/h Distance 35.96 km</desc>
<time>2011-05-22T10:04:57.02</time>
<name>8063</name>
<sym>Dot</sym>
</trkpt>
<trkpt lat="39.845982" lon="-8.444728">
<ele>253.5</ele>
<desc>Speed 3.9 km/h Distance 35.96 km</desc>
<time>2011-05-22T10:04:58.02</time>
<name>8064</name>
<sym>Dot</sym>
</trkpt>
<trkpt lat="39.845993" lon="-8.444722">
<ele>255.0</ele>
<desc>Speed 5.0 km/h Distance 35.96 km</desc>
<time>2011-05-22T10:04:59.02</time>
<name>8065</name>
<sym>Dot</sym>
</trkpt>
<trkpt lat="39.846010" lon="-8.444715">
<ele>255.0</ele>
<desc>Speed 7.1 km/h Distance 35.96 km</desc>
<time>2011-05-22T10:05:00.01</time>
<name>8066</name>
<sym>Dot</sym>
</trkpt>
<trkpt lat="39.846028" lon="-8.444715">
<ele>254.5</ele>
<desc>Speed 7.2 km/h Distance 35.96 km</desc>
<time>2011-05-22T10:05:01.01</time>
<name>8067</name>
<sym>Dot</sym>
</trkpt>
<trkpt lat="39.846042" lon="-8.444715">
<ele>254.5</ele>
<desc>Speed 5.3 km/h Distance 35.97 km</desc>
<time>2011-05-22T10:05:02.01</time>
<name>8068</name>
<sym>Dot</sym>
</trkpt>
<trkpt lat="39.846055" lon="-8.444713">
<ele>254.0</ele>
<desc>Speed 5.0 km/h Distance 35.97 km</desc>
<time>2011-05-22T10:05:03.00</time>
<name>8069</name>
<sym>Dot</sym>
</trkpt>
<trkpt lat="39.846073" lon="-8.444713">
<ele>254.0</ele>
<desc>Speed 7.1 km/h Distance 35.97 km</desc>
<time>2011-05-22T10:05:03.99</time>
<name>8070</name>
<sym>Dot</sym>
</trkpt>
<trkpt lat="39.846097" lon="-8.444713">
<ele>254.0</ele>
<desc>Speed 9.5 km/h Distance 35.97 km</desc>
<time>2011-05-22T10:05:04.99</time>
<name>8071</name>
<sym>Dot</sym>
</trkpt>
<trkpt lat="39.846127" lon="-8.444717">
<ele>254.0</ele>
<desc>Speed 11.6 km/h Distance 35.97 km</desc>
<time>2011-05-22T10:05:05.98</time>
<name>8072</name>
<sym>Dot</sym>
</trkpt>
<trkpt lat="39.846158" lon="-8.444727">
<ele>254.0</ele>
<desc>Speed 13.3 km/h Distance 35.98 km</desc>
<time>2011-05-22T10:05:06.98</time>
<name>8073</name>
<sym>Dot</sym>
</trkpt>
<trkpt lat="39.846195" lon="-8.444738">
<ele>253.5</ele>
<desc>Speed 14.8 km/h Distance 35.98 km</desc>
<time>2011-05-22T10:05:07.97</time>
<name>8074</name>
<sym>Dot</sym>
</trkpt>
<trkpt lat="39.846237" lon="-8.444755">
<ele>253.0</ele>
<desc>Speed 16.9 km/h Distance 35.99 km</desc>
<time>2011-05-22T10:05:08.97</time>
<name>8075</name>
<sym>Dot</sym>
</trkpt>
<trkpt lat="39.846280" lon="-8.444775">
<ele>252.5</ele>
<desc>Speed 18.6 km/h Distance 35.99 km</desc>
<time>2011-05-22T10:05:09.97</time>
<name>8076</name>
<sym>Dot</sym>
</trkpt>
<trkpt lat="39.846328" lon="-8.444798">
<ele>252.0</ele>
<desc>Speed 20.4 km/h Distance 36.00 km</desc>
<time>2011-05-22T10:05:10.96</time>
<name>8077</name>
<sym>Dot</sym>
</trkpt>
<trkpt lat="39.846380" lon="-8.444828">
<ele>251.0</ele>
<desc>Speed 22.3 km/h Distance 36.00 km</desc>
<time>2011-05-22T10:05:11.96</time>
<name>8078</name>
<sym>Dot</sym>
</trkpt>
<trkpt lat="39.846437" lon="-8.444862">
<ele>250.5</ele>
<desc>Speed 24.5 km/h Distance 36.01 km</desc>
<time>2011-05-22T10:05:12.96</time>
<name>8079</name>
<sym>Dot</sym>
</trkpt>
<trkpt lat="39.846497" lon="-8.444900">
<ele>249.5</ele>
<desc>Speed 26.6 km/h Distance 36.02 km</desc>
<time>2011-05-22T10:05:13.95</time>
<name>8080</name>
<sym>Dot</sym>
</trkpt>
<trkpt lat="39.846558" lon="-8.444943">
<ele>249.0</ele>
<desc>Speed 28.2 km/h Distance 36.03 km</desc>
<time>2011-05-22T10:05:14.95</time>
<name>8081</name>
<sym>Dot</sym>
</trkpt>
<trkpt lat="39.846625" lon="-8.444990">
<ele>248.0</ele>
<desc>Speed 30.1 km/h Distance 36.04 km</desc>
<time>2011-05-22T10:05:15.94</time>
<name>8082</name>
<sym>Dot</sym>
</trkpt>
<trkpt lat="39.846695" lon="-8.445035">
<ele>247.5</ele>
<desc>Speed 31.3 km/h Distance 36.04 km</desc>
<time>2011-05-22T10:05:16.94</time>
<name>8083</name>
<sym>Dot</sym>
</trkpt>
<trkpt lat="39.846767" lon="-8.445083">
<ele>247.0</ele>
<desc>Speed 31.7 km/h Distance 36.05 km</desc>
<time>2011-05-22T10:05:17.94</time>
<name>8084</name>
<sym>Dot</sym>
</trkpt>
<trkpt lat="39.846837" lon="-8.445132">
<ele>247.0</ele>
<desc>Speed 31.8 km/h Distance 36.06 km</desc>
<time>2011-05-22T10:05:18.94</time>
<name>8085</name>
<sym>Dot</sym>
</trkpt>
<trkpt lat="39.846905" lon="-8.445180">
<ele>247.0</ele>
<desc>Speed 31.1 km/h Distance 36.07 km</desc>
<time>2011-05-22T10:05:19.94</time>
<name>8086</name>
<sym>Dot</sym>
</trkpt>
<trkpt lat="39.846972" lon="-8.445227">
<ele>247.5</ele>
<desc>Speed 30.0 km/h Distance 36.08 km</desc>
<time>2011-05-22T10:05:20.93</time>
<name>8087</name>
<sym>Dot</sym>
</trkpt>
<trkpt lat="39.847028" lon="-8.445263">
<ele>247.5</ele>
<desc>Speed 25.6 km/h Distance 36.09 km</desc>
<time>2011-05-22T10:05:21.93</time>
<name>8088</name>
<sym>Dot</sym>
</trkpt>
<trkpt lat="39.847077" lon="-8.445293">
<ele>247.0</ele>
<desc>Speed 20.8 km/h Distance 36.09 km</desc>
<time>2011-05-22T10:05:22.93</time>
<name>8089</name>
<sym>Dot</sym>
</trkpt>
<trkpt lat="39.847110" lon="-8.445317">
<ele>247.5</ele>
<desc>Speed 14.9 km/h Distance 36.10 km</desc>
<time>2011-05-22T10:05:23.92</time>
<name>8090</name>
<sym>Dot</sym>
</trkpt>
<trkpt lat="39.847137" lon="-8.445337">
<ele>247.5</ele>
<desc>Speed 12.8 km/h Distance 36.10 km</desc>
<time>2011-05-22T10:05:24.92</time>
<name>8091</name>
<sym>Dot</sym>
</trkpt>
<trkpt lat="39.847160" lon="-8.445360">
<ele>247.5</ele>
<desc>Speed 11.0 km/h Distance 36.10 km</desc>
<time>2011-05-22T10:05:25.92</time>
<name>8092</name>
<sym>Dot</sym>
</trkpt>
<trkpt lat="39.847177" lon="-8.445383">
<ele>247.5</ele>
<desc>Speed 10.0 km/h Distance 36.11 km</desc>
<time>2011-05-22T10:05:26.93</time>
<name>8093</name>
<sym>Dot</sym>
</trkpt>
<trkpt lat="39.847187" lon="-8.445413">
<ele>247.5</ele>
<desc>Speed 10.2 km/h Distance 36.11 km</desc>
<time>2011-05-22T10:05:27.93</time>
<name>8094</name>
<sym>Dot</sym>
</trkpt>
<trkpt lat="39.847193" lon="-8.445448">
<ele>248.0</ele>
<desc>Speed 11.1 km/h Distance 36.11 km</desc>
<time>2011-05-22T10:05:28.93</time>
<name>8095</name>
<sym>Dot</sym>
</trkpt>
<trkpt lat="39.847195" lon="-8.445488">
<ele>247.5</ele>
<desc>Speed 12.3 km/h Distance 36.11 km</desc>
<time>2011-05-22T10:05:29.93</time>
<name>8096</name>
<sym>Dot</sym>
</trkpt>
<trkpt lat="39.847192" lon="-8.445532">
<ele>247.5</ele>
<desc>Speed 13.4 km/h Distance 36.12 km</desc>
<time>2011-05-22T10:05:30.92</time>
<name>8097</name>
<sym>Dot</sym>
</trkpt>
<trkpt lat="39.847180" lon="-8.445577">
<ele>247.5</ele>
<desc>Speed 14.2 km/h Distance 36.12 km</desc>
<time>2011-05-22T10:05:31.92</time>
<name>8098</name>
<sym>Dot</sym>
</trkpt>
<trkpt lat="39.847165" lon="-8.445623">
<ele>247.0</ele>
<desc>Speed 15.7 km/h Distance 36.13 km</desc>
<time>2011-05-22T10:05:32.91</time>
<name>8099</name>
<sym>Dot</sym>
</trkpt>
<trkpt lat="39.847147" lon="-8.445673">
<ele>246.5</ele>
<desc>Speed 17.3 km/h Distance 36.13 km</desc>
<time>2011-05-22T10:05:33.90</time>
<name>8100</name>
<sym>Dot</sym>
</trkpt>
<trkpt lat="39.847125" lon="-8.445727">
<ele>246.5</ele>
<desc>Speed 18.5 km/h Distance 36.14 km</desc>
<time>2011-05-22T10:05:34.90</time>
<name>8101</name>
<sym>Dot</sym>
</trkpt>
<trkpt lat="39.847102" lon="-8.445783">
<ele>246.0</ele>
<desc>Speed 19.7 km/h Distance 36.14 km</desc>
<time>2011-05-22T10:05:35.88</time>
<name>8102</name>
<sym>Dot</sym>
</trkpt>
<trkpt lat="39.847078" lon="-8.445843">
<ele>246.0</ele>
<desc>Speed 20.6 km/h Distance 36.15 km</desc>
<time>2011-05-22T10:05:36.88</time>
<name>8103</name>
<sym>Dot</sym>
</trkpt>
<trkpt lat="39.847052" lon="-8.445905">
<ele>245.5</ele>
<desc>Speed 21.5 km/h Distance 36.15 km</desc>
<time>2011-05-22T10:05:37.88</time>
<name>8104</name>
<sym>Dot</sym>
</trkpt>
<trkpt lat="39.847027" lon="-8.445967">
<ele>245.5</ele>
<desc>Speed 21.5 km/h Distance 36.16 km</desc>
<time>2011-05-22T10:05:38.88</time>
<name>8105</name>
<sym>Dot</sym>
</trkpt>
<trkpt lat="39.846998" lon="-8.446028">
<ele>245.0</ele>
<desc>Speed 21.7 km/h Distance 36.17 km</desc>
<time>2011-05-22T10:05:39.87</time>
<name>8106</name>
<sym>Dot</sym>
</trkpt>
<trkpt lat="39.846970" lon="-8.446090">
<ele>244.5</ele>
<desc>Speed 22.3 km/h Distance 36.17 km</desc>
<time>2011-05-22T10:05:40.87</time>
<name>8107</name>
<sym>Dot</sym>
</trkpt>
<trkpt lat="39.846940" lon="-8.446153">
<ele>244.0</ele>
<desc>Speed 22.5 km/h Distance 36.18 km</desc>
<time>2011-05-22T10:05:41.87</time>
<name>8108</name>
<sym>Dot</sym>
</trkpt>
<trkpt lat="39.846910" lon="-8.446215">
<ele>244.0</ele>
<desc>Speed 22.8 km/h Distance 36.18 km</desc>
<time>2011-05-22T10:05:42.87</time>
<name>8109</name>
<sym>Dot</sym>
</trkpt>
<trkpt lat="39.846878" lon="-8.446278">
<ele>243.5</ele>
<desc>Speed 23.1 km/h Distance 36.19 km</desc>
<time>2011-05-22T10:05:43.86</time>
<name>8110</name>
<sym>Dot</sym>
</trkpt>
<trkpt lat="39.846845" lon="-8.446342">
<ele>243.5</ele>
<desc>Speed 23.2 km/h Distance 36.20 km</desc>
<time>2011-05-22T10:05:44.85</time>
<name>8111</name>
<sym>Dot</sym>
</trkpt>
<trkpt lat="39.846810" lon="-8.446402">
<ele>243.0</ele>
<desc>Speed 23.3 km/h Distance 36.20 km</desc>
<time>2011-05-22T10:05:45.85</time>
<name>8112</name>
<sym>Dot</sym>
</trkpt>
<trkpt lat="39.846773" lon="-8.446460">
<ele>242.5</ele>
<desc>Speed 23.4 km/h Distance 36.21 km</desc>
<time>2011-05-22T10:05:46.85</time>
<name>8113</name>
<sym>Dot</sym>
</trkpt>
<trkpt lat="39.846732" lon="-8.446515">
<ele>242.5</ele>
<desc>Speed 23.5 km/h Distance 36.22 km</desc>
<time>2011-05-22T10:05:47.84</time>
<name>8114</name>
<sym>Dot</sym>
</trkpt>
<trkpt lat="39.846690" lon="-8.446568">
<ele>242.0</ele>
<desc>Speed 23.3 km/h Distance 36.22 km</desc>
<time>2011-05-22T10:05:48.84</time>
<name>8115</name>
<sym>Dot</sym>
</trkpt>
<trkpt lat="39.846647" lon="-8.446620">
<ele>242.5</ele>
<desc>Speed 23.4 km/h Distance 36.23 km</desc>
<time>2011-05-22T10:05:49.84</time>
<name>8116</name>
<sym>Dot</sym>
</trkpt>
<trkpt lat="39.846598" lon="-8.446667">
<ele>242.0</ele>
<desc>Speed 23.5 km/h Distance 36.24 km</desc>
<time>2011-05-22T10:05:50.83</time>
<name>8117</name>
<sym>Dot</sym>
</trkpt>
<trkpt lat="39.846552" lon="-8.446710">
<ele>242.0</ele>
<desc>Speed 23.4 km/h Distance 36.24 km</desc>
<time>2011-05-22T10:05:51.84</time>
<name>8118</name>
<sym>Dot</sym>
</trkpt>
<trkpt lat="39.846502" lon="-8.446753">
<ele>242.0</ele>
<desc>Speed 24.0 km/h Distance 36.25 km</desc>
<time>2011-05-22T10:05:52.83</time>
<name>8119</name>
<sym>Dot</sym>
</trkpt>
<trkpt lat="39.846450" lon="-8.446795">
<ele>241.5</ele>
<desc>Speed 24.4 km/h Distance 36.26 km</desc>
<time>2011-05-22T10:05:53.83</time>
<name>8120</name>
<sym>Dot</sym>
</trkpt>
<trkpt lat="39.846397" lon="-8.446835">
<ele>241.5</ele>
<desc>Speed 24.6 km/h Distance 36.26 km</desc>
<time>2011-05-22T10:05:54.82</time>
<name>8121</name>
<sym>Dot</sym>
</trkpt>
<trkpt lat="39.846343" lon="-8.446875">
<ele>241.0</ele>
<desc>Speed 24.9 km/h Distance 36.27 km</desc>
<time>2011-05-22T10:05:55.82</time>
<name>8122</name>
<sym>Dot</sym>
</trkpt>
<trkpt lat="39.846288" lon="-8.446913">
<ele>241.5</ele>
<desc>Speed 25.0 km/h Distance 36.28 km</desc>
<time>2011-05-22T10:05:56.81</time>
<name>8123</name>
<sym>Dot</sym>
</trkpt>
<trkpt lat="39.846232" lon="-8.446948">
<ele>241.5</ele>
<desc>Speed 25.2 km/h Distance 36.28 km</desc>
<time>2011-05-22T10:05:57.80</time>
<name>8124</name>
<sym>Dot</sym>
</trkpt>
<trkpt lat="39.846175" lon="-8.446987">
<ele>241.0</ele>
<desc>Speed 25.1 km/h Distance 36.29 km</desc>
<time>2011-05-22T10:05:58.80</time>
<name>8125</name>
<sym>Dot</sym>
</trkpt>
<trkpt lat="39.846120" lon="-8.447023">
<ele>241.0</ele>
<desc>Speed 24.8 km/h Distance 36.30 km</desc>
<time>2011-05-22T10:05:59.80</time>
<name>8126</name>
<sym>Dot</sym>
</trkpt>
<trkpt lat="39.846065" lon="-8.447060">
<ele>240.5</ele>
<desc>Speed 24.8 km/h Distance 36.31 km</desc>
<time>2011-05-22T10:06:00.80</time>
<name>8127</name>
<sym>Dot</sym>
</trkpt>
<trkpt lat="39.846010" lon="-8.447095">
<ele>240.5</ele>
<desc>Speed 24.6 km/h Distance 36.31 km</desc>
<time>2011-05-22T10:06:01.79</time>
<name>8128</name>
<sym>Dot</sym>
</trkpt>
<trkpt lat="39.845955" lon="-8.447130">
<ele>240.5</ele>
<desc>Speed 24.6 km/h Distance 36.32 km</desc>
<time>2011-05-22T10:06:02.79</time>
<name>8129</name>
<sym>Dot</sym>
</trkpt>
<trkpt lat="39.845902" lon="-8.447167">
<ele>240.5</ele>
<desc>Speed 24.7 km/h Distance 36.33 km</desc>
<time>2011-05-22T10:06:03.79</time>
<name>8130</name>
<sym>Dot</sym>
</trkpt>
<trkpt lat="39.845847" lon="-8.447207">
<ele>240.5</ele>
<desc>Speed 24.8 km/h Distance 36.33 km</desc>
<time>2011-05-22T10:06:04.78</time>
<name>8131</name>
<sym>Dot</sym>
</trkpt>
<trkpt lat="39.845793" lon="-8.447245">
<ele>240.5</ele>
<desc>Speed 24.8 km/h Distance 36.34 km</desc>
<time>2011-05-22T10:06:05.78</time>
<name>8132</name>
<sym>Dot</sym>
</trkpt>
<trkpt lat="39.845738" lon="-8.447285">
<ele>240.5</ele>
<desc>Speed 24.8 km/h Distance 36.35 km</desc>
<time>2011-05-22T10:06:06.77</time>
<name>8133</name>
<sym>Dot</sym>
</trkpt>
<trkpt lat="39.845687" lon="-8.447330">
<ele>240.5</ele>
<desc>Speed 25.0 km/h Distance 36.35 km</desc>
<time>2011-05-22T10:06:07.76</time>
<name>8134</name>
<sym>Dot</sym>
</trkpt>
<trkpt lat="39.845635" lon="-8.447378">
<ele>240.5</ele>
<desc>Speed 25.5 km/h Distance 36.36 km</desc>
<time>2011-05-22T10:06:08.76</time>
<name>8135</name>
<sym>Dot</sym>
</trkpt>
<trkpt lat="39.845582" lon="-8.447425">
<ele>240.5</ele>
<desc>Speed 25.7 km/h Distance 36.37 km</desc>
<time>2011-05-22T10:06:09.75</time>
<name>8136</name>
<sym>Dot</sym>
</trkpt>
<trkpt lat="39.845528" lon="-8.447473">
<ele>240.5</ele>
<desc>Speed 26.0 km/h Distance 36.37 km</desc>
<time>2011-05-22T10:06:10.75</time>
<name>8137</name>
<sym>Dot</sym>
</trkpt>
<trkpt lat="39.845475" lon="-8.447523">
<ele>240.5</ele>
<desc>Speed 26.1 km/h Distance 36.38 km</desc>
<time>2011-05-22T10:06:11.74</time>
<name>8138</name>
<sym>Dot</sym>
</trkpt>
<trkpt lat="39.845423" lon="-8.447575">
<ele>240.5</ele>
<desc>Speed 26.4 km/h Distance 36.39 km</desc>
<time>2011-05-22T10:06:12.74</time>
<name>8139</name>
<sym>Dot</sym>
</trkpt>
<trkpt lat="39.845370" lon="-8.447627">
<ele>240.5</ele>
<desc>Speed 26.4 km/h Distance 36.40 km</desc>
<time>2011-05-22T10:06:13.74</time>
<name>8140</name>
<sym>Dot</sym>
</trkpt>
<trkpt lat="39.845317" lon="-8.447680">
<ele>240.5</ele>
<desc>Speed 26.6 km/h Distance 36.40 km</desc>
<time>2011-05-22T10:06:14.74</time>
<name>8141</name>
<sym>Dot</sym>
</trkpt>
<trkpt lat="39.845265" lon="-8.447733">
<ele>240.5</ele>
<desc>Speed 26.9 km/h Distance 36.41 km</desc>
<time>2011-05-22T10:06:15.74</time>
<name>8142</name>
<sym>Dot</sym>
</trkpt>
<trkpt lat="39.845212" lon="-8.447788">
<ele>240.5</ele>
<desc>Speed 27.0 km/h Distance 36.42 km</desc>
<time>2011-05-22T10:06:16.74</time>
<name>8143</name>
<sym>Dot</sym>
</trkpt>
<trkpt lat="39.845158" lon="-8.447843">
<ele>240.5</ele>
<desc>Speed 27.5 km/h Distance 36.43 km</desc>
<time>2011-05-22T10:06:17.73</time>
<name>8144</name>
<sym>Dot</sym>
</trkpt>
<trkpt lat="39.845105" lon="-8.447900">
<ele>240.5</ele>
<desc>Speed 27.6 km/h Distance 36.43 km</desc>
<time>2011-05-22T10:06:18.73</time>
<name>8145</name>
<sym>Dot</sym>
</trkpt>
<trkpt lat="39.845050" lon="-8.447957">
<ele>240.5</ele>
<desc>Speed 28.0 km/h Distance 36.44 km</desc>
<time>2011-05-22T10:06:19.73</time>
<name>8146</name>
<sym>Dot</sym>
</trkpt>
<trkpt lat="39.844993" lon="-8.448013">
<ele>240.5</ele>
<desc>Speed 28.3 km/h Distance 36.45 km</desc>
<time>2011-05-22T10:06:20.72</time>
<name>8147</name>
<sym>Dot</sym>
</trkpt>
<trkpt lat="39.844937" lon="-8.448070">
<ele>240.5</ele>
<desc>Speed 28.6 km/h Distance 36.46 km</desc>
<time>2011-05-22T10:06:21.72</time>
<name>8148</name>
<sym>Dot</sym>
</trkpt>
<trkpt lat="39.844880" lon="-8.448128">
<ele>240.0</ele>
<desc>Speed 29.2 km/h Distance 36.47 km</desc>
<time>2011-05-22T10:06:22.72</time>
<name>8149</name>
<sym>Dot</sym>
</trkpt>
<trkpt lat="39.844822" lon="-8.448185">
<ele>240.0</ele>
<desc>Speed 29.5 km/h Distance 36.47 km</desc>
<time>2011-05-22T10:06:23.72</time>
<name>8150</name>
<sym>Dot</sym>
</trkpt>
<trkpt lat="39.844762" lon="-8.448245">
<ele>240.0</ele>
<desc>Speed 29.8 km/h Distance 36.48 km</desc>
<time>2011-05-22T10:06:24.71</time>
<name>8151</name>
<sym>Dot</sym>
</trkpt>
<trkpt lat="39.844703" lon="-8.448305">
<ele>239.5</ele>
<desc>Speed 30.2 km/h Distance 36.49 km</desc>
<time>2011-05-22T10:06:25.71</time>
<name>8152</name>
<sym>Dot</sym>
</trkpt>
<trkpt lat="39.844643" lon="-8.448367">
<ele>239.5</ele>
<desc>Speed 30.3 km/h Distance 36.50 km</desc>
<time>2011-05-22T10:06:26.70</time>
<name>8153</name>
<sym>Dot</sym>
</trkpt>
<trkpt lat="39.844583" lon="-8.448427">
<ele>239.5</ele>
<desc>Speed 30.6 km/h Distance 36.51 km</desc>
<time>2011-05-22T10:06:27.70</time>
<name>8154</name>
<sym>Dot</sym>
</trkpt>
<trkpt lat="39.844523" lon="-8.448488">
<ele>239.5</ele>
<desc>Speed 30.9 km/h Distance 36.52 km</desc>
<time>2011-05-22T10:06:28.69</time>
<name>8155</name>
<sym>Dot</sym>
</trkpt>
<trkpt lat="39.844462" lon="-8.448550">
<ele>239.0</ele>
<desc>Speed 31.1 km/h Distance 36.53 km</desc>
<time>2011-05-22T10:06:29.69</time>
<name>8156</name>
<sym>Dot</sym>
</trkpt>
<trkpt lat="39.844398" lon="-8.448613">
<ele>239.0</ele>
<desc>Speed 31.7 km/h Distance 36.53 km</desc>
<time>2011-05-22T10:06:30.68</time>
<name>8157</name>
<sym>Dot</sym>
</trkpt>
<trkpt lat="39.844337" lon="-8.448678">
<ele>239.0</ele>
<desc>Speed 32.0 km/h Distance 36.54 km</desc>
<time>2011-05-22T10:06:31.68</time>
<name>8158</name>
<sym>Dot</sym>
</trkpt>
<trkpt lat="39.844273" lon="-8.448743">
<ele>238.5</ele>
<desc>Speed 32.5 km/h Distance 36.55 km</desc>
<time>2011-05-22T10:06:32.67</time>
<name>8159</name>
<sym>Dot</sym>
</trkpt>
<trkpt lat="39.844208" lon="-8.448807">
<ele>238.5</ele>
<desc>Speed 32.5 km/h Distance 36.56 km</desc>
<time>2011-05-22T10:06:33.67</time>
<name>8160</name>
<sym>Dot</sym>
</trkpt>
<trkpt lat="39.844143" lon="-8.448872">
<ele>238.0</ele>
<desc>Speed 32.9 km/h Distance 36.57 km</desc>
<time>2011-05-22T10:06:34.67</time>
<name>8161</name>
<sym>Dot</sym>
</trkpt>
<trkpt lat="39.844078" lon="-8.448937">
<ele>238.0</ele>
<desc>Speed 33.0 km/h Distance 36.58 km</desc>
<time>2011-05-22T10:06:35.67</time>
<name>8162</name>
<sym>Dot</sym>
</trkpt>
<trkpt lat="39.844013" lon="-8.449003">
<ele>238.0</ele>
<desc>Speed 33.2 km/h Distance 36.59 km</desc>
<time>2011-05-22T10:06:36.66</time>
<name>8163</name>
<sym>Dot</sym>
</trkpt>
<trkpt lat="39.843947" lon="-8.449068">
<ele>237.5</ele>
<desc>Speed 33.2 km/h Distance 36.60 km</desc>
<time>2011-05-22T10:06:37.66</time>
<name>8164</name>
<sym>Dot</sym>
</trkpt>
<trkpt lat="39.843882" lon="-8.449137">
<ele>237.5</ele>
<desc>Speed 33.3 km/h Distance 36.61 km</desc>
<time>2011-05-22T10:06:38.66</time>
<name>8165</name>
<sym>Dot</sym>
</trkpt>
<trkpt lat="39.843817" lon="-8.449202">
<ele>237.0</ele>
<desc>Speed 33.2 km/h Distance 36.62 km</desc>
<time>2011-05-22T10:06:39.66</time>
<name>8166</name>
<sym>Dot</sym>
</trkpt>
<trkpt lat="39.843748" lon="-8.449265">
<ele>237.0</ele>
<desc>Speed 33.2 km/h Distance 36.63 km</desc>
<time>2011-05-22T10:06:40.65</time>
<name>8167</name>
<sym>Dot</sym>
</trkpt>
<trkpt lat="39.843683" lon="-8.449330">
<ele>237.0</ele>
<desc>Speed 32.9 km/h Distance 36.63 km</desc>
<time>2011-05-22T10:06:41.65</time>
<name>8168</name>
<sym>Dot</sym>
</trkpt>
<trkpt lat="39.843618" lon="-8.449395">
<ele>236.5</ele>
<desc>Speed 32.9 km/h Distance 36.64 km</desc>
<time>2011-05-22T10:06:42.65</time>
<name>8169</name>
<sym>Dot</sym>
</trkpt>
<trkpt lat="39.843555" lon="-8.449462">
<ele>236.5</ele>
<desc>Speed 33.0 km/h Distance 36.65 km</desc>
<time>2011-05-22T10:06:43.65</time>
<name>8170</name>
<sym>Dot</sym>
</trkpt>
<trkpt lat="39.843488" lon="-8.449528">
<ele>236.0</ele>
<desc>Speed 33.2 km/h Distance 36.66 km</desc>
<time>2011-05-22T10:06:44.64</time>
<name>8171</name>
<sym>Dot</sym>
</trkpt>
<trkpt lat="39.843422" lon="-8.449593">
<ele>236.0</ele>
<desc>Speed 33.4 km/h Distance 36.67 km</desc>
<time>2011-05-22T10:06:45.64</time>
<name>8172</name>
<sym>Dot</sym>
</trkpt>
<trkpt lat="39.843355" lon="-8.449657">
<ele>235.5</ele>
<desc>Speed 33.3 km/h Distance 36.68 km</desc>
<time>2011-05-22T10:06:46.64</time>
<name>8173</name>
<sym>Dot</sym>
</trkpt>
<trkpt lat="39.843290" lon="-8.449722">
<ele>235.5</ele>
<desc>Speed 33.4 km/h Distance 36.69 km</desc>
<time>2011-05-22T10:06:47.64</time>
<name>8174</name>
<sym>Dot</sym>
</trkpt>
<trkpt lat="39.843223" lon="-8.449788">
<ele>235.5</ele>
<desc>Speed 33.5 km/h Distance 36.70 km</desc>
<time>2011-05-22T10:06:48.63</time>
<name>8175</name>
<sym>Dot</sym>
</trkpt>
<trkpt lat="39.843157" lon="-8.449855">
<ele>235.0</ele>
<desc>Speed 33.7 km/h Distance 36.71 km</desc>
<time>2011-05-22T10:06:49.63</time>
<name>8176</name>
<sym>Dot</sym>
</trkpt>
<trkpt lat="39.843092" lon="-8.449923">
<ele>235.0</ele>
<desc>Speed 33.7 km/h Distance 36.72 km</desc>
<time>2011-05-22T10:06:50.63</time>
<name>8177</name>
<sym>Dot</sym>
</trkpt>
<trkpt lat="39.843025" lon="-8.449990">
<ele>235.0</ele>
<desc>Speed 33.7 km/h Distance 36.73 km</desc>
<time>2011-05-22T10:06:51.63</time>
<name>8178</name>
<sym>Dot</sym>
</trkpt>
<trkpt lat="39.842960" lon="-8.450057">
<ele>235.0</ele>
<desc>Speed 33.6 km/h Distance 36.74 km</desc>
<time>2011-05-22T10:06:52.62</time>
<name>8179</name>
<sym>Dot</sym>
</trkpt>
<trkpt lat="39.842893" lon="-8.450123">
<ele>235.0</ele>
<desc>Speed 33.3 km/h Distance 36.75 km</desc>
<time>2011-05-22T10:06:53.62</time>
<name>8180</name>
<sym>Dot</sym>
</trkpt>
<trkpt lat="39.842827" lon="-8.450188">
<ele>234.5</ele>
<desc>Speed 33.5 km/h Distance 36.75 km</desc>
<time>2011-05-22T10:06:54.62</time>
<name>8181</name>
<sym>Dot</sym>
</trkpt>
<trkpt lat="39.842760" lon="-8.450253">
<ele>234.5</ele>
<desc>Speed 33.4 km/h Distance 36.76 km</desc>
<time>2011-05-22T10:06:55.62</time>
<name>8182</name>
<sym>Dot</sym>
</trkpt>
<trkpt lat="39.842695" lon="-8.450320">
<ele>234.5</ele>
<desc>Speed 33.4 km/h Distance 36.77 km</desc>
<time>2011-05-22T10:06:56.61</time>
<name>8183</name>
<sym>Dot</sym>
</trkpt>
<trkpt lat="39.842628" lon="-8.450385">
<ele>234.0</ele>
<desc>Speed 33.5 km/h Distance 36.78 km</desc>
<time>2011-05-22T10:06:57.61</time>
<name>8184</name>
<sym>Dot</sym>
</trkpt>
<trkpt lat="39.842562" lon="-8.450452">
<ele>234.0</ele>
<desc>Speed 33.4 km/h Distance 36.79 km</desc>
<time>2011-05-22T10:06:58.61</time>
<name>8185</name>
<sym>Dot</sym>
</trkpt>
<trkpt lat="39.842497" lon="-8.450517">
<ele>233.5</ele>
<desc>Speed 33.1 km/h Distance 36.80 km</desc>
<time>2011-05-22T10:06:59.61</time>
<name>8186</name>
<sym>Dot</sym>
</trkpt>
<trkpt lat="39.842432" lon="-8.450582">
<ele>233.5</ele>
<desc>Speed 32.9 km/h Distance 36.81 km</desc>
<time>2011-05-22T10:07:00.60</time>
<name>8187</name>
<sym>Dot</sym>
</trkpt>
<trkpt lat="39.842368" lon="-8.450647">
<ele>233.5</ele>
<desc>Speed 32.6 km/h Distance 36.82 km</desc>
<time>2011-05-22T10:07:01.60</time>
<name>8188</name>
<sym>Dot</sym>
</trkpt>
<trkpt lat="39.842303" lon="-8.450712">
<ele>233.5</ele>
<desc>Speed 32.5 km/h Distance 36.83 km</desc>
<time>2011-05-22T10:07:02.59</time>
<name>8189</name>
<sym>Dot</sym>
</trkpt>
<trkpt lat="39.842242" lon="-8.450777">
<ele>233.5</ele>
<desc>Speed 32.1 km/h Distance 36.84 km</desc>
<time>2011-05-22T10:07:03.59</time>
<name>8190</name>
<sym>Dot</sym>
</trkpt>
<trkpt lat="39.842178" lon="-8.450842">
<ele>233.5</ele>
<desc>Speed 32.0 km/h Distance 36.85 km</desc>
<time>2011-05-22T10:07:04.58</time>
<name>8191</name>
<sym>Dot</sym>
</trkpt>
<trkpt lat="39.842117" lon="-8.450903">
<ele>233.0</ele>
<desc>Speed 31.6 km/h Distance 36.85 km</desc>
<time>2011-05-22T10:07:05.58</time>
<name>8192</name>
<sym>Dot</sym>
</trkpt>
<trkpt lat="39.842055" lon="-8.450967">
<ele>233.0</ele>
<desc>Speed 31.4 km/h Distance 36.86 km</desc>
<time>2011-05-22T10:07:06.57</time>
<name>8193</name>
<sym>Dot</sym>
</trkpt>
<trkpt lat="39.841995" lon="-8.451030">
<ele>233.0</ele>
<desc>Speed 31.2 km/h Distance 36.87 km</desc>
<time>2011-05-22T10:07:07.57</time>
<name>8194</name>
<sym>Dot</sym>
</trkpt>
<trkpt lat="39.841933" lon="-8.451092">
<ele>232.5</ele>
<desc>Speed 31.0 km/h Distance 36.88 km</desc>
<time>2011-05-22T10:07:08.56</time>
<name>8195</name>
<sym>Dot</sym>
</trkpt>
<trkpt lat="39.841873" lon="-8.451152">
<ele>233.0</ele>
<desc>Speed 30.5 km/h Distance 36.89 km</desc>
<time>2011-05-22T10:07:09.55</time>
<name>8196</name>
<sym>Dot</sym>
</trkpt>
<trkpt lat="39.841815" lon="-8.451213">
<ele>233.0</ele>
<desc>Speed 30.2 km/h Distance 36.90 km</desc>
<time>2011-05-22T10:07:10.55</time>
<name>8197</name>
<sym>Dot</sym>
</trkpt>
<trkpt lat="39.841755" lon="-8.451273">
<ele>233.0</ele>
<desc>Speed 30.1 km/h Distance 36.91 km</desc>
<time>2011-05-22T10:07:11.55</time>
<name>8198</name>
<sym>Dot</sym>
</trkpt>
<trkpt lat="39.841697" lon="-8.451332">
<ele>233.0</ele>
<desc>Speed 29.9 km/h Distance 36.91 km</desc>
<time>2011-05-22T10:07:12.54</time>
<name>8199</name>
<sym>Dot</sym>
</trkpt>
<trkpt lat="39.841638" lon="-8.451390">
<ele>233.0</ele>
<desc>Speed 29.4 km/h Distance 36.92 km</desc>
<time>2011-05-22T10:07:13.54</time>
<name>8200</name>
<sym>Dot</sym>
</trkpt>
<trkpt lat="39.841582" lon="-8.451445">
<ele>233.5</ele>
<desc>Speed 28.7 km/h Distance 36.93 km</desc>
<time>2011-05-22T10:07:14.53</time>
<name>8201</name>
<sym>Dot</sym>
</trkpt>
<trkpt lat="39.841527" lon="-8.451502">
<ele>233.5</ele>
<desc>Speed 28.2 km/h Distance 36.94 km</desc>
<time>2011-05-22T10:07:15.53</time>
<name>8202</name>
<sym>Dot</sym>
</trkpt>
<trkpt lat="39.841472" lon="-8.451557">
<ele>233.5</ele>
<desc>Speed 27.8 km/h Distance 36.95 km</desc>
<time>2011-05-22T10:07:16.52</time>
<name>8203</name>
<sym>Dot</sym>
</trkpt>
<trkpt lat="39.841418" lon="-8.451612">
<ele>233.5</ele>
<desc>Speed 27.3 km/h Distance 36.95 km</desc>
<time>2011-05-22T10:07:17.52</time>
<name>8204</name>
<sym>Dot</sym>
</trkpt>
<trkpt lat="39.841365" lon="-8.451663">
<ele>233.5</ele>
<desc>Speed 26.7 km/h Distance 36.96 km</desc>
<time>2011-05-22T10:07:18.52</time>
<name>8205</name>
<sym>Dot</sym>
</trkpt>
<trkpt lat="39.841313" lon="-8.451717">
<ele>233.5</ele>
<desc>Speed 26.6 km/h Distance 36.97 km</desc>
<time>2011-05-22T10:07:19.52</time>
<name>8206</name>
<sym>Dot</sym>
</trkpt>
<trkpt lat="39.841262" lon="-8.451768">
<ele>233.5</ele>
<desc>Speed 26.2 km/h Distance 36.98 km</desc>
<time>2011-05-22T10:07:20.51</time>
<name>8207</name>
<sym>Dot</sym>
</trkpt>
<trkpt lat="39.841210" lon="-8.451820">
<ele>234.0</ele>
<desc>Speed 26.0 km/h Distance 36.98 km</desc>
<time>2011-05-22T10:07:21.51</time>
<name>8208</name>
<sym>Dot</sym>
</trkpt>
<trkpt lat="39.841160" lon="-8.451870">
<ele>234.0</ele>
<desc>Speed 25.7 km/h Distance 36.99 km</desc>
<time>2011-05-22T10:07:22.51</time>
<name>8209</name>
<sym>Dot</sym>
</trkpt>
<trkpt lat="39.841110" lon="-8.451922">
<ele>234.0</ele>
<desc>Speed 25.4 km/h Distance 37.00 km</desc>
<time>2011-05-22T10:07:23.51</time>
<name>8210</name>
<sym>Dot</sym>
</trkpt>
<trkpt lat="39.841062" lon="-8.451972">
<ele>234.0</ele>
<desc>Speed 25.1 km/h Distance 37.00 km</desc>
<time>2011-05-22T10:07:24.51</time>
<name>8211</name>
<sym>Dot</sym>
</trkpt>
<trkpt lat="39.841012" lon="-8.452022">
<ele>234.0</ele>
<desc>Speed 24.8 km/h Distance 37.01 km</desc>
<time>2011-05-22T10:07:25.50</time>
<name>8212</name>
<sym>Dot</sym>
</trkpt>
<trkpt lat="39.840963" lon="-8.452070">
<ele>234.0</ele>
<desc>Speed 24.6 km/h Distance 37.02 km</desc>
<time>2011-05-22T10:07:26.49</time>
<name>8213</name>
<sym>Dot</sym>
</trkpt>
<trkpt lat="39.840917" lon="-8.452118">
<ele>234.0</ele>
<desc>Speed 24.2 km/h Distance 37.02 km</desc>
<time>2011-05-22T10:07:27.49</time>
<name>8214</name>
<sym>Dot</sym>
</trkpt>
<trkpt lat="39.840868" lon="-8.452165">
<ele>234.5</ele>
<desc>Speed 23.9 km/h Distance 37.03 km</desc>
<time>2011-05-22T10:07:28.49</time>
<name>8215</name>
<sym>Dot</sym>
</trkpt>
<trkpt lat="39.840822" lon="-8.452212">
<ele>234.5</ele>
<desc>Speed 23.8 km/h Distance 37.04 km</desc>
<time>2011-05-22T10:07:29.50</time>
<name>8216</name>
<sym>Dot</sym>
</trkpt>
<trkpt lat="39.840775" lon="-8.452260">
<ele>234.5</ele>
<desc>Speed 24.0 km/h Distance 37.04 km</desc>
<time>2011-05-22T10:07:30.48</time>
<name>8217</name>
<sym>Dot</sym>
</trkpt>
<trkpt lat="39.840728" lon="-8.452308">
<ele>234.5</ele>
<desc>Speed 24.1 km/h Distance 37.05 km</desc>
<time>2011-05-22T10:07:31.48</time>
<name>8218</name>
<sym>Dot</sym>
</trkpt>
<trkpt lat="39.840680" lon="-8.452355">
<ele>234.5</ele>
<desc>Speed 24.2 km/h Distance 37.06 km</desc>
<time>2011-05-22T10:07:32.48</time>
<name>8219</name>
<sym>Dot</sym>
</trkpt>
<trkpt lat="39.840632" lon="-8.452403">
<ele>234.5</ele>
<desc>Speed 24.3 km/h Distance 37.06 km</desc>
<time>2011-05-22T10:07:33.48</time>
<name>8220</name>
<sym>Dot</sym>
</trkpt>
<trkpt lat="39.840583" lon="-8.452450">
<ele>234.5</ele>
<desc>Speed 24.5 km/h Distance 37.07 km</desc>
<time>2011-05-22T10:07:34.48</time>
<name>8221</name>
<sym>Dot</sym>
</trkpt>
<trkpt lat="39.840533" lon="-8.452500">
<ele>234.5</ele>
<desc>Speed 24.8 km/h Distance 37.08 km</desc>
<time>2011-05-22T10:07:35.47</time>
<name>8222</name>
<sym>Dot</sym>
</trkpt>
<trkpt lat="39.840485" lon="-8.452548">
<ele>234.5</ele>
<desc>Speed 24.7 km/h Distance 37.08 km</desc>
<time>2011-05-22T10:07:36.47</time>
<name>8223</name>
<sym>Dot</sym>
</trkpt>
<trkpt lat="39.840437" lon="-8.452597">
<ele>235.0</ele>
<desc>Speed 24.6 km/h Distance 37.09 km</desc>
<time>2011-05-22T10:07:37.47</time>
<name>8224</name>
<sym>Dot</sym>
</trkpt>
<trkpt lat="39.840388" lon="-8.452645">
<ele>235.0</ele>
<desc>Speed 24.8 km/h Distance 37.10 km</desc>
<time>2011-05-22T10:07:38.47</time>
<name>8225</name>
<sym>Dot</sym>
</trkpt>
<trkpt lat="39.840340" lon="-8.452695">
<ele>235.0</ele>
<desc>Speed 24.6 km/h Distance 37.10 km</desc>
<time>2011-05-22T10:07:39.47</time>
<name>8226</name>
<sym>Dot</sym>
</trkpt>
<trkpt lat="39.840292" lon="-8.452743">
<ele>235.0</ele>
<desc>Speed 24.4 km/h Distance 37.11 km</desc>
<time>2011-05-22T10:07:40.46</time>
<name>8227</name>
<sym>Dot</sym>
</trkpt>
<trkpt lat="39.840245" lon="-8.452792">
<ele>235.0</ele>
<desc>Speed 24.3 km/h Distance 37.12 km</desc>
<time>2011-05-22T10:07:41.46</time>
<name>8228</name>
<sym>Dot</sym>
</trkpt>
<trkpt lat="39.840197" lon="-8.452840">
<ele>235.0</ele>
<desc>Speed 24.2 km/h Distance 37.13 km</desc>
<time>2011-05-22T10:07:42.46</time>
<name>8229</name>
<sym>Dot</sym>
</trkpt>
<trkpt lat="39.840150" lon="-8.452887">
<ele>235.0</ele>
<desc>Speed 23.9 km/h Distance 37.13 km</desc>
<time>2011-05-22T10:07:43.46</time>
<name>8230</name>
<sym>Dot</sym>
</trkpt>
<trkpt lat="39.840105" lon="-8.452935">
<ele>235.0</ele>
<desc>Speed 23.7 km/h Distance 37.14 km</desc>
<time>2011-05-22T10:07:44.46</time>
<name>8231</name>
<sym>Dot</sym>
</trkpt>
<trkpt lat="39.840058" lon="-8.452983">
<ele>235.0</ele>
<desc>Speed 23.7 km/h Distance 37.14 km</desc>
<time>2011-05-22T10:07:45.45</time>
<name>8232</name>
<sym>Dot</sym>
</trkpt>
<trkpt lat="39.840012" lon="-8.453032">
<ele>235.0</ele>
<desc>Speed 23.7 km/h Distance 37.15 km</desc>
<time>2011-05-22T10:07:46.45</time>
<name>8233</name>
<sym>Dot</sym>
</trkpt>
<trkpt lat="39.839965" lon="-8.453078">
<ele>235.0</ele>
<desc>Speed 23.9 km/h Distance 37.16 km</desc>
<time>2011-05-22T10:07:47.45</time>
<name>8234</name>
<sym>Dot</sym>
</trkpt>
<trkpt lat="39.839918" lon="-8.453125">
<ele>235.0</ele>
<desc>Speed 23.7 km/h Distance 37.16 km</desc>
<time>2011-05-22T10:07:48.45</time>
<name>8235</name>
<sym>Dot</sym>
</trkpt>
<trkpt lat="39.839873" lon="-8.453172">
<ele>235.0</ele>
<desc>Speed 23.5 km/h Distance 37.17 km</desc>
<time>2011-05-22T10:07:49.45</time>
<name>8236</name>
<sym>Dot</sym>
</trkpt>
<trkpt lat="39.839827" lon="-8.453218">
<ele>235.0</ele>
<desc>Speed 23.4 km/h Distance 37.18 km</desc>
<time>2011-05-22T10:07:50.44</time>
<name>8237</name>
<sym>Dot</sym>
</trkpt>
<trkpt lat="39.839782" lon="-8.453267">
<ele>235.0</ele>
<desc>Speed 23.6 km/h Distance 37.18 km</desc>
<time>2011-05-22T10:07:51.44</time>
<name>8238</name>
<sym>Dot</sym>
</trkpt>
<trkpt lat="39.839735" lon="-8.453313">
<ele>235.0</ele>
<desc>Speed 23.3 km/h Distance 37.19 km</desc>
<time>2011-05-22T10:07:52.44</time>
<name>8239</name>
<sym>Dot</sym>
</trkpt>
<trkpt lat="39.839690" lon="-8.453360">
<ele>235.0</ele>
<desc>Speed 23.4 km/h Distance 37.20 km</desc>
<time>2011-05-22T10:07:53.43</time>
<name>8240</name>
<sym>Dot</sym>
</trkpt>
<trkpt lat="39.839643" lon="-8.453408">
<ele>234.5</ele>
<desc>Speed 23.5 km/h Distance 37.20 km</desc>
<time>2011-05-22T10:07:54.43</time>
<name>8241</name>
<sym>Dot</sym>
</trkpt>
<trkpt lat="39.839598" lon="-8.453455">
<ele>235.0</ele>
<desc>Speed 23.5 km/h Distance 37.21 km</desc>
<time>2011-05-22T10:07:55.42</time>
<name>8242</name>
<sym>Dot</sym>
</trkpt>
<trkpt lat="39.839552" lon="-8.453502">
<ele>235.0</ele>
<desc>Speed 23.7 km/h Distance 37.22 km</desc>
<time>2011-05-22T10:07:56.42</time>
<name>8243</name>
<sym>Dot</sym>
</trkpt>
<trkpt lat="39.839503" lon="-8.453548">
<ele>235.0</ele>
<desc>Speed 24.2 km/h Distance 37.22 km</desc>
<time>2011-05-22T10:07:57.42</time>
<name>8244</name>
<sym>Dot</sym>
</trkpt>
<trkpt lat="39.839455" lon="-8.453597">
<ele>235.0</ele>
<desc>Speed 24.4 km/h Distance 37.23 km</desc>
<time>2011-05-22T10:07:58.42</time>
<name>8245</name>
<sym>Dot</sym>
</trkpt>
<trkpt lat="39.839407" lon="-8.453645">
<ele>235.0</ele>
<desc>Speed 24.6 km/h Distance 37.24 km</desc>
<time>2011-05-22T10:07:59.42</time>
<name>8246</name>
<sym>Dot</sym>
</trkpt>
<trkpt lat="39.839358" lon="-8.453693">
<ele>234.5</ele>
<desc>Speed 24.7 km/h Distance 37.24 km</desc>
<time>2011-05-22T10:08:00.41</time>
<name>8247</name>
<sym>Dot</sym>
</trkpt>
<trkpt lat="39.839310" lon="-8.453742">
<ele>234.5</ele>
<desc>Speed 24.8 km/h Distance 37.25 km</desc>
<time>2011-05-22T10:08:01.41</time>
<name>8248</name>
<sym>Dot</sym>
</trkpt>
<trkpt lat="39.839260" lon="-8.453792">
<ele>234.0</ele>
<desc>Speed 25.0 km/h Distance 37.26 km</desc>
<time>2011-05-22T10:08:02.40</time>
<name>8249</name>
<sym>Dot</sym>
</trkpt>
<trkpt lat="39.839212" lon="-8.453842">
<ele>233.5</ele>
<desc>Speed 25.0 km/h Distance 37.26 km</desc>
<time>2011-05-22T10:08:03.40</time>
<name>8250</name>
<sym>Dot</sym>
</trkpt>
<trkpt lat="39.839165" lon="-8.453895">
<ele>233.5</ele>
<desc>Speed 25.0 km/h Distance 37.27 km</desc>
<time>2011-05-22T10:08:04.40</time>
<name>8251</name>
<sym>Dot</sym>
</trkpt>
<trkpt lat="39.839117" lon="-8.453947">
<ele>233.5</ele>
<desc>Speed 25.1 km/h Distance 37.28 km</desc>
<time>2011-05-22T10:08:05.39</time>
<name>8252</name>
<sym>Dot</sym>
</trkpt>
<trkpt lat="39.839070" lon="-8.454000">
<ele>233.5</ele>
<desc>Speed 25.4 km/h Distance 37.28 km</desc>
<time>2011-05-22T10:08:06.39</time>
<name>8253</name>
<sym>Dot</sym>
</trkpt>
<trkpt lat="39.839022" lon="-8.454053">
<ele>233.5</ele>
<desc>Speed 25.6 km/h Distance 37.29 km</desc>
<time>2011-05-22T10:08:07.39</time>
<name>8254</name>
<sym>Dot</sym>
</trkpt>
<trkpt lat="39.838973" lon="-8.454108">
<ele>233.5</ele>
<desc>Speed 25.5 km/h Distance 37.30 km</desc>
<time>2011-05-22T10:08:08.39</time>
<name>8255</name>
<sym>Dot</sym>
</trkpt>
<trkpt lat="39.838925" lon="-8.454162">
<ele>233.5</ele>
<desc>Speed 25.4 km/h Distance 37.31 km</desc>
<time>2011-05-22T10:08:09.38</time>
<name>8256</name>
<sym>Dot</sym>
</trkpt>
<trkpt lat="39.838878" lon="-8.454217">
<ele>233.5</ele>
<desc>Speed 25.6 km/h Distance 37.31 km</desc>
<time>2011-05-22T10:08:10.37</time>
<name>8257</name>
<sym>Dot</sym>
</trkpt>
<trkpt lat="39.838828" lon="-8.454272">
<ele>233.0</ele>
<desc>Speed 26.1 km/h Distance 37.32 km</desc>
<time>2011-05-22T10:08:11.37</time>
<name>8258</name>
<sym>Dot</sym>
</trkpt>
<trkpt lat="39.838778" lon="-8.454330">
<ele>233.0</ele>
<desc>Speed 26.7 km/h Distance 37.33 km</desc>
<time>2011-05-22T10:08:12.37</time>
<name>8259</name>
<sym>Dot</sym>
</trkpt>
<trkpt lat="39.838728" lon="-8.454390">
<ele>232.5</ele>
<desc>Speed 27.2 km/h Distance 37.34 km</desc>
<time>2011-05-22T10:08:13.36</time>
<name>8260</name>
<sym>Dot</sym>
</trkpt>
<trkpt lat="39.838678" lon="-8.454452">
<ele>232.5</ele>
<desc>Speed 27.5 km/h Distance 37.34 km</desc>
<time>2011-05-22T10:08:14.36</time>
<name>8261</name>
<sym>Dot</sym>
</trkpt>
<trkpt lat="39.838630" lon="-8.454513">
<ele>232.5</ele>
<desc>Speed 27.5 km/h Distance 37.35 km</desc>
<time>2011-05-22T10:08:15.36</time>
<name>8262</name>
<sym>Dot</sym>
</trkpt>
<trkpt lat="39.838580" lon="-8.454575">
<ele>232.0</ele>
<desc>Speed 27.6 km/h Distance 37.36 km</desc>
<time>2011-05-22T10:08:16.36</time>
<name>8263</name>
<sym>Dot</sym>
</trkpt>
<trkpt lat="39.838532" lon="-8.454638">
<ele>232.0</ele>
<desc>Speed 27.6 km/h Distance 37.37 km</desc>
<time>2011-05-22T10:08:17.35</time>
<name>8264</name>
<sym>Dot</sym>
</trkpt>
<trkpt lat="39.838482" lon="-8.454700">
<ele>232.0</ele>
<desc>Speed 27.6 km/h Distance 37.37 km</desc>
<time>2011-05-22T10:08:18.35</time>
<name>8265</name>
<sym>Dot</sym>
</trkpt>
<trkpt lat="39.838432" lon="-8.454762">
<ele>232.0</ele>
<desc>Speed 27.5 km/h Distance 37.38 km</desc>
<time>2011-05-22T10:08:19.35</time>
<name>8266</name>
<sym>Dot</sym>
</trkpt>
<trkpt lat="39.838383" lon="-8.454823">
<ele>232.0</ele>
<desc>Speed 27.3 km/h Distance 37.39 km</desc>
<time>2011-05-22T10:08:20.35</time>
<name>8267</name>
<sym>Dot</sym>
</trkpt>
<trkpt lat="39.838333" lon="-8.454883">
<ele>232.0</ele>
<desc>Speed 27.2 km/h Distance 37.40 km</desc>
<time>2011-05-22T10:08:21.34</time>
<name>8268</name>
<sym>Dot</sym>
</trkpt>
<trkpt lat="39.838285" lon="-8.454945">
<ele>232.0</ele>
<desc>Speed 27.3 km/h Distance 37.40 km</desc>
<time>2011-05-22T10:08:22.34</time>
<name>8269</name>
<sym>Dot</sym>
</trkpt>
<trkpt lat="39.838237" lon="-8.455007">
<ele>232.0</ele>
<desc>Speed 27.5 km/h Distance 37.41 km</desc>
<time>2011-05-22T10:08:23.33</time>
<name>8270</name>
<sym>Dot</sym>
</trkpt>
<trkpt lat="39.838187" lon="-8.455070">
<ele>232.0</ele>
<desc>Speed 27.7 km/h Distance 37.42 km</desc>
<time>2011-05-22T10:08:24.33</time>
<name>8271</name>
<sym>Dot</sym>
</trkpt>
<trkpt lat="39.838138" lon="-8.455133">
<ele>232.0</ele>
<desc>Speed 27.7 km/h Distance 37.43 km</desc>
<time>2011-05-22T10:08:25.32</time>
<name>8272</name>
<sym>Dot</sym>
</trkpt>
<trkpt lat="39.838090" lon="-8.455198">
<ele>232.0</ele>
<desc>Speed 27.8 km/h Distance 37.43 km</desc>
<time>2011-05-22T10:08:26.32</time>
<name>8273</name>
<sym>Dot</sym>
</trkpt>
<trkpt lat="39.838040" lon="-8.455262">
<ele>231.5</ele>
<desc>Speed 27.8 km/h Distance 37.44 km</desc>
<time>2011-05-22T10:08:27.32</time>
<name>8274</name>
<sym>Dot</sym>
</trkpt>
<trkpt lat="39.837992" lon="-8.455325">
<ele>231.5</ele>
<desc>Speed 28.1 km/h Distance 37.45 km</desc>
<time>2011-05-22T10:08:28.32</time>
<name>8275</name>
<sym>Dot</sym>
</trkpt>
<trkpt lat="39.837942" lon="-8.455390">
<ele>231.5</ele>
<desc>Speed 28.2 km/h Distance 37.46 km</desc>
<time>2011-05-22T10:08:29.32</time>
<name>8276</name>
<sym>Dot</sym>
</trkpt>
<trkpt lat="39.837892" lon="-8.455453">
<ele>231.5</ele>
<desc>Speed 27.9 km/h Distance 37.47 km</desc>
<time>2011-05-22T10:08:30.31</time>
<name>8277</name>
<sym>Dot</sym>
</trkpt>
<trkpt lat="39.837843" lon="-8.455517">
<ele>231.0</ele>
<desc>Speed 27.5 km/h Distance 37.47 km</desc>
<time>2011-05-22T10:08:31.31</time>
<name>8278</name>
<sym>Dot</sym>
</trkpt>
<trkpt lat="39.837797" lon="-8.455580">
<ele>231.0</ele>
<desc>Speed 27.1 km/h Distance 37.48 km</desc>
<time>2011-05-22T10:08:32.31</time>
<name>8279</name>
<sym>Dot</sym>
</trkpt>
<trkpt lat="39.837750" lon="-8.455642">
<ele>231.0</ele>
<desc>Speed 26.7 km/h Distance 37.49 km</desc>
<time>2011-05-22T10:08:33.30</time>
<name>8280</name>
<sym>Dot</sym>
</trkpt>
<trkpt lat="39.837705" lon="-8.455703">
<ele>231.0</ele>
<desc>Speed 26.4 km/h Distance 37.50 km</desc>
<time>2011-05-22T10:08:34.30</time>
<name>8281</name>
<sym>Dot</sym>
</trkpt>
<trkpt lat="39.837657" lon="-8.455763">
<ele>231.0</ele>
<desc>Speed 26.8 km/h Distance 37.50 km</desc>
<time>2011-05-22T10:08:35.30</time>
<name>8282</name>
<sym>Dot</sym>
</trkpt>
<trkpt lat="39.837607" lon="-8.455825">
<ele>230.5</ele>
<desc>Speed 27.0 km/h Distance 37.51 km</desc>
<time>2011-05-22T10:08:36.30</time>
<name>8283</name>
<sym>Dot</sym>
</trkpt>
<trkpt lat="39.837558" lon="-8.455888">
<ele>230.5</ele>
<desc>Speed 27.7 km/h Distance 37.52 km</desc>
<time>2011-05-22T10:08:37.29</time>
<name>8284</name>
<sym>Dot</sym>
</trkpt>
<trkpt lat="39.837510" lon="-8.455952">
<ele>230.5</ele>
<desc>Speed 28.1 km/h Distance 37.53 km</desc>
<time>2011-05-22T10:08:38.29</time>
<name>8285</name>
<sym>Dot</sym>
</trkpt>
<trkpt lat="39.837458" lon="-8.456018">
<ele>230.0</ele>
<desc>Speed 28.7 km/h Distance 37.53 km</desc>
<time>2011-05-22T10:08:39.29</time>
<name>8286</name>
<sym>Dot</sym>
</trkpt>
<trkpt lat="39.837408" lon="-8.456083">
<ele>230.0</ele>
<desc>Speed 28.7 km/h Distance 37.54 km</desc>
<time>2011-05-22T10:08:40.29</time>
<name>8287</name>
<sym>Dot</sym>
</trkpt>
<trkpt lat="39.837358" lon="-8.456148">
<ele>230.0</ele>
<desc>Speed 28.8 km/h Distance 37.55 km</desc>
<time>2011-05-22T10:08:41.28</time>
<name>8288</name>
<sym>Dot</sym>
</trkpt>
<trkpt lat="39.837305" lon="-8.456210">
<ele>230.0</ele>
<desc>Speed 28.7 km/h Distance 37.56 km</desc>
<time>2011-05-22T10:08:42.28</time>
<name>8289</name>
<sym>Dot</sym>
</trkpt>
<trkpt lat="39.837253" lon="-8.456273">
<ele>230.0</ele>
<desc>Speed 28.4 km/h Distance 37.57 km</desc>
<time>2011-05-22T10:08:43.28</time>
<name>8290</name>
<sym>Dot</sym>
</trkpt>
<trkpt lat="39.837205" lon="-8.456337">
<ele>230.0</ele>
<desc>Speed 28.3 km/h Distance 37.57 km</desc>
<time>2011-05-22T10:08:44.28</time>
<name>8291</name>
<sym>Dot</sym>
</trkpt>
<trkpt lat="39.837155" lon="-8.456403">
<ele>230.0</ele>
<desc>Speed 28.4 km/h Distance 37.58 km</desc>
<time>2011-05-22T10:08:45.27</time>
<name>8292</name>
<sym>Dot</sym>
</trkpt>
<trkpt lat="39.837105" lon="-8.456468">
<ele>230.0</ele>
<desc>Speed 28.7 km/h Distance 37.59 km</desc>
<time>2011-05-22T10:08:46.27</time>
<name>8293</name>
<sym>Dot</sym>
</trkpt>
<trkpt lat="39.837053" lon="-8.456532">
<ele>230.0</ele>
<desc>Speed 29.0 km/h Distance 37.60 km</desc>
<time>2011-05-22T10:08:47.27</time>
<name>8294</name>
<sym>Dot</sym>
</trkpt>
<trkpt lat="39.837002" lon="-8.456597">
<ele>230.0</ele>
<desc>Speed 29.2 km/h Distance 37.60 km</desc>
<time>2011-05-22T10:08:48.27</time>
<name>8295</name>
<sym>Dot</sym>
</trkpt>
<trkpt lat="39.836950" lon="-8.456662">
<ele>230.0</ele>
<desc>Speed 29.2 km/h Distance 37.61 km</desc>
<time>2011-05-22T10:08:49.26</time>
<name>8296</name>
<sym>Dot</sym>
</trkpt>
<trkpt lat="39.836898" lon="-8.456728">
<ele>230.0</ele>
<desc>Speed 29.2 km/h Distance 37.62 km</desc>
<time>2011-05-22T10:08:50.26</time>
<name>8297</name>
<sym>Dot</sym>
</trkpt>
<trkpt lat="39.836847" lon="-8.456795">
<ele>230.0</ele>
<desc>Speed 29.2 km/h Distance 37.63 km</desc>
<time>2011-05-22T10:08:51.26</time>
<name>8298</name>
<sym>Dot</sym>
</trkpt>
<trkpt lat="39.836797" lon="-8.456862">
<ele>230.0</ele>
<desc>Speed 29.1 km/h Distance 37.64 km</desc>
<time>2011-05-22T10:08:52.26</time>
<name>8299</name>
<sym>Dot</sym>
</trkpt>
<trkpt lat="39.836745" lon="-8.456928">
<ele>230.0</ele>
<desc>Speed 28.7 km/h Distance 37.65 km</desc>
<time>2011-05-22T10:08:53.25</time>
<name>8300</name>
<sym>Dot</sym>
</trkpt>
<trkpt lat="39.836695" lon="-8.456993">
<ele>230.0</ele>
<desc>Speed 28.7 km/h Distance 37.65 km</desc>
<time>2011-05-22T10:08:54.25</time>
<name>8301</name>
<sym>Dot</sym>
</trkpt>
<trkpt lat="39.836645" lon="-8.457060">
<ele>229.5</ele>
<desc>Speed 28.7 km/h Distance 37.66 km</desc>
<time>2011-05-22T10:08:55.24</time>
<name>8302</name>
<sym>Dot</sym>
</trkpt>
<trkpt lat="39.836595" lon="-8.457125">
<ele>229.5</ele>
<desc>Speed 28.5 km/h Distance 37.67 km</desc>
<time>2011-05-22T10:08:56.24</time>
<name>8303</name>
<sym>Dot</sym>
</trkpt>
<trkpt lat="39.836543" lon="-8.457190">
<ele>229.5</ele>
<desc>Speed 28.2 km/h Distance 37.68 km</desc>
<time>2011-05-22T10:08:57.23</time>
<name>8304</name>
<sym>Dot</sym>
</trkpt>
<trkpt lat="39.836495" lon="-8.457253">
<ele>229.5</ele>
<desc>Speed 27.9 km/h Distance 37.68 km</desc>
<time>2011-05-22T10:08:58.22</time>
<name>8305</name>
<sym>Dot</sym>
</trkpt>
<trkpt lat="39.836445" lon="-8.457317">
<ele>229.5</ele>
<desc>Speed 27.9 km/h Distance 37.69 km</desc>
<time>2011-05-22T10:08:59.22</time>
<name>8306</name>
<sym>Dot</sym>
</trkpt>
<trkpt lat="39.836397" lon="-8.457380">
<ele>229.5</ele>
<desc>Speed 27.9 km/h Distance 37.70 km</desc>
<time>2011-05-22T10:09:00.22</time>
<name>8307</name>
<sym>Dot</sym>
</trkpt>
<trkpt lat="39.836347" lon="-8.457445">
<ele>229.5</ele>
<desc>Speed 27.9 km/h Distance 37.71 km</desc>
<time>2011-05-22T10:09:01.21</time>
<name>8308</name>
<sym>Dot</sym>
</trkpt>
<trkpt lat="39.836298" lon="-8.457508">
<ele>229.5</ele>
<desc>Speed 27.8 km/h Distance 37.72 km</desc>
<time>2011-05-22T10:09:02.21</time>
<name>8309</name>
<sym>Dot</sym>
</trkpt>
<trkpt lat="39.836250" lon="-8.457572">
<ele>229.5</ele>
<desc>Speed 27.6 km/h Distance 37.72 km</desc>
<time>2011-05-22T10:09:03.21</time>
<name>8310</name>
<sym>Dot</sym>
</trkpt>
<trkpt lat="39.836202" lon="-8.457635">
<ele>229.5</ele>
<desc>Speed 27.5 km/h Distance 37.73 km</desc>
<time>2011-05-22T10:09:04.21</time>
<name>8311</name>
<sym>Dot</sym>
</trkpt>
<trkpt lat="39.836153" lon="-8.457698">
<ele>229.0</ele>
<desc>Speed 27.5 km/h Distance 37.74 km</desc>
<time>2011-05-22T10:09:05.20</time>
<name>8312</name>
<sym>Dot</sym>
</trkpt>
<trkpt lat="39.836105" lon="-8.457762">
<ele>229.0</ele>
<desc>Speed 27.6 km/h Distance 37.75 km</desc>
<time>2011-05-22T10:09:06.19</time>
<name>8313</name>
<sym>Dot</sym>
</trkpt>
<trkpt lat="39.836057" lon="-8.457827">
<ele>229.0</ele>
<desc>Speed 27.7 km/h Distance 37.75 km</desc>
<time>2011-05-22T10:09:07.19</time>
<name>8314</name>
<sym>Dot</sym>
</trkpt>
<trkpt lat="39.836008" lon="-8.457890">
<ele>229.0</ele>
<desc>Speed 27.8 km/h Distance 37.76 km</desc>
<time>2011-05-22T10:09:08.19</time>
<name>8315</name>
<sym>Dot</sym>
</trkpt>
<trkpt lat="39.835960" lon="-8.457955">
<ele>229.0</ele>
<desc>Speed 27.8 km/h Distance 37.77 km</desc>
<time>2011-05-22T10:09:09.18</time>
<name>8316</name>
<sym>Dot</sym>
</trkpt>
<trkpt lat="39.835912" lon="-8.458020">
<ele>229.0</ele>
<desc>Speed 27.8 km/h Distance 37.78 km</desc>
<time>2011-05-22T10:09:10.18</time>
<name>8317</name>
<sym>Dot</sym>
</trkpt>
<trkpt lat="39.835863" lon="-8.458083">
<ele>229.0</ele>
<desc>Speed 27.9 km/h Distance 37.78 km</desc>
<time>2011-05-22T10:09:11.17</time>
<name>8318</name>
<sym>Dot</sym>
</trkpt>
<trkpt lat="39.835813" lon="-8.458148">
<ele>228.5</ele>
<desc>Speed 27.9 km/h Distance 37.79 km</desc>
<time>2011-05-22T10:09:12.17</time>
<name>8319</name>
<sym>Dot</sym>
</trkpt>
<trkpt lat="39.835763" lon="-8.458212">
<ele>228.5</ele>
<desc>Speed 28.0 km/h Distance 37.80 km</desc>
<time>2011-05-22T10:09:13.16</time>
<name>8320</name>
<sym>Dot</sym>
</trkpt>
<trkpt lat="39.835715" lon="-8.458277">
<ele>228.5</ele>
<desc>Speed 27.9 km/h Distance 37.81 km</desc>
<time>2011-05-22T10:09:14.15</time>
<name>8321</name>
<sym>Dot</sym>
</trkpt>
<trkpt lat="39.835665" lon="-8.458340">
<ele>228.5</ele>
<desc>Speed 28.1 km/h Distance 37.82 km</desc>
<time>2011-05-22T10:09:15.15</time>
<name>8322</name>
<sym>Dot</sym>
</trkpt>
<trkpt lat="39.835615" lon="-8.458403">
<ele>228.5</ele>
<desc>Speed 28.2 km/h Distance 37.82 km</desc>
<time>2011-05-22T10:09:16.15</time>
<name>8323</name>
<sym>Dot</sym>
</trkpt>
<trkpt lat="39.835563" lon="-8.458467">
<ele>228.5</ele>
<desc>Speed 28.2 km/h Distance 37.83 km</desc>
<time>2011-05-22T10:09:17.14</time>
<name>8324</name>
<sym>Dot</sym>
</trkpt>
<trkpt lat="39.835513" lon="-8.458532">
<ele>228.5</ele>
<desc>Speed 28.3 km/h Distance 37.84 km</desc>
<time>2011-05-22T10:09:18.14</time>
<name>8325</name>
<sym>Dot</sym>
</trkpt>
<trkpt lat="39.835463" lon="-8.458593">
<ele>228.0</ele>
<desc>Speed 27.5 km/h Distance 37.85 km</desc>
<time>2011-05-22T10:09:19.14</time>
<name>8326</name>
<sym>Dot</sym>
</trkpt>
<trkpt lat="39.835413" lon="-8.458655">
<ele>228.0</ele>
<desc>Speed 28.0 km/h Distance 37.85 km</desc>
<time>2011-05-22T10:09:20.14</time>
<name>8327</name>
<sym>Dot</sym>
</trkpt>
<trkpt lat="39.835363" lon="-8.458720">
<ele>228.0</ele>
<desc>Speed 28.4 km/h Distance 37.86 km</desc>
<time>2011-05-22T10:09:21.13</time>
<name>8328</name>
<sym>Dot</sym>
</trkpt>
<trkpt lat="39.835312" lon="-8.458783">
<ele>228.0</ele>
<desc>Speed 28.5 km/h Distance 37.87 km</desc>
<time>2011-05-22T10:09:22.13</time>
<name>8329</name>
<sym>Dot</sym>
</trkpt>
<trkpt lat="39.835258" lon="-8.458845">
<ele>228.0</ele>
<desc>Speed 28.5 km/h Distance 37.88 km</desc>
<time>2011-05-22T10:09:23.12</time>
<name>8330</name>
<sym>Dot</sym>
</trkpt>
<trkpt lat="39.835207" lon="-8.458907">
<ele>228.0</ele>
<desc>Speed 28.5 km/h Distance 37.89 km</desc>
<time>2011-05-22T10:09:24.12</time>
<name>8331</name>
<sym>Dot</sym>
</trkpt>
<trkpt lat="39.835153" lon="-8.458970">
<ele>227.5</ele>
<desc>Speed 28.5 km/h Distance 37.89 km</desc>
<time>2011-05-22T10:09:25.11</time>
<name>8332</name>
<sym>Dot</sym>
</trkpt>
<trkpt lat="39.835100" lon="-8.459030">
<ele>227.5</ele>
<desc>Speed 28.4 km/h Distance 37.90 km</desc>
<time>2011-05-22T10:09:26.11</time>
<name>8333</name>
<sym>Dot</sym>
</trkpt>
<trkpt lat="39.835047" lon="-8.459092">
<ele>227.5</ele>
<desc>Speed 28.4 km/h Distance 37.91 km</desc>
<time>2011-05-22T10:09:27.10</time>
<name>8334</name>
<sym>Dot</sym>
</trkpt>
<trkpt lat="39.834995" lon="-8.459150">
<ele>227.5</ele>
<desc>Speed 28.1 km/h Distance 37.92 km</desc>
<time>2011-05-22T10:09:28.10</time>
<name>8335</name>
<sym>Dot</sym>
</trkpt>
<trkpt lat="39.834942" lon="-8.459208">
<ele>227.5</ele>
<desc>Speed 28.0 km/h Distance 37.93 km</desc>
<time>2011-05-22T10:09:29.10</time>
<name>8336</name>
<sym>Dot</sym>
</trkpt>
<trkpt lat="39.834888" lon="-8.459267">
<ele>227.5</ele>
<desc>Speed 27.9 km/h Distance 37.93 km</desc>
<time>2011-05-22T10:09:30.09</time>
<name>8337</name>
<sym>Dot</sym>
</trkpt>
<trkpt lat="39.834833" lon="-8.459322">
<ele>227.0</ele>
<desc>Speed 27.5 km/h Distance 37.94 km</desc>
<time>2011-05-22T10:09:31.09</time>
<name>8338</name>
<sym>Dot</sym>
</trkpt>
<trkpt lat="39.834780" lon="-8.459377">
<ele>227.0</ele>
<desc>Speed 27.3 km/h Distance 37.95 km</desc>
<time>2011-05-22T10:09:32.09</time>
<name>8339</name>
<sym>Dot</sym>
</trkpt>
<trkpt lat="39.834727" lon="-8.459432">
<ele>227.0</ele>
<desc>Speed 27.3 km/h Distance 37.96 km</desc>
<time>2011-05-22T10:09:33.08</time>
<name>8340</name>
<sym>Dot</sym>
</trkpt>
<trkpt lat="39.834672" lon="-8.459485">
<ele>227.0</ele>
<desc>Speed 27.3 km/h Distance 37.96 km</desc>
<time>2011-05-22T10:09:34.07</time>
<name>8341</name>
<sym>Dot</sym>
</trkpt>
<trkpt lat="39.834617" lon="-8.459538">
<ele>227.0</ele>
<desc>Speed 27.4 km/h Distance 37.97 km</desc>
<time>2011-05-22T10:09:35.07</time>
<name>8342</name>
<sym>Dot</sym>
</trkpt>
<trkpt lat="39.834562" lon="-8.459590">
<ele>226.5</ele>
<desc>Speed 27.2 km/h Distance 37.98 km</desc>
<time>2011-05-22T10:09:36.07</time>
<name>8343</name>
<sym>Dot</sym>
</trkpt>
<trkpt lat="39.834508" lon="-8.459642">
<ele>226.5</ele>
<desc>Speed 26.9 km/h Distance 37.99 km</desc>
<time>2011-05-22T10:09:37.06</time>
<name>8344</name>
<sym>Dot</sym>
</trkpt>
<trkpt lat="39.834453" lon="-8.459693">
<ele>226.5</ele>
<desc>Speed 26.9 km/h Distance 37.99 km</desc>
<time>2011-05-22T10:09:38.05</time>
<name>8345</name>
<sym>Dot</sym>
</trkpt>
<trkpt lat="39.834400" lon="-8.459742">
<ele>226.0</ele>
<desc>Speed 26.6 km/h Distance 38.00 km</desc>
<time>2011-05-22T10:09:39.05</time>
<name>8346</name>
<sym>Dot</sym>
</trkpt>
<trkpt lat="39.834345" lon="-8.459792">
<ele>225.5</ele>
<desc>Speed 26.8 km/h Distance 38.01 km</desc>
<time>2011-05-22T10:09:40.05</time>
<name>8347</name>
<sym>Dot</sym>
</trkpt>
<trkpt lat="39.834288" lon="-8.459840">
<ele>225.5</ele>
<desc>Speed 27.3 km/h Distance 38.02 km</desc>
<time>2011-05-22T10:09:41.05</time>
<name>8348</name>
<sym>Dot</sym>
</trkpt>
<trkpt lat="39.834230" lon="-8.459892">
<ele>225.0</ele>
<desc>Speed 28.2 km/h Distance 38.02 km</desc>
<time>2011-05-22T10:09:42.04</time>
<name>8349</name>
<sym>Dot</sym>
</trkpt>
<trkpt lat="39.834173" lon="-8.459943">
<ele>225.0</ele>
<desc>Speed 28.4 km/h Distance 38.03 km</desc>
<time>2011-05-22T10:09:43.04</time>
<name>8350</name>
<sym>Dot</sym>
</trkpt>
<trkpt lat="39.834117" lon="-8.459995">
<ele>225.0</ele>
<desc>Speed 28.0 km/h Distance 38.04 km</desc>
<time>2011-05-22T10:09:44.04</time>
<name>8351</name>
<sym>Dot</sym>
</trkpt>
<trkpt lat="39.834058" lon="-8.460047">
<ele>225.0</ele>
<desc>Speed 28.4 km/h Distance 38.05 km</desc>
<time>2011-05-22T10:09:45.04</time>
<name>8352</name>
<sym>Dot</sym>
</trkpt>
<trkpt lat="39.833998" lon="-8.460100">
<ele>225.0</ele>
<desc>Speed 28.9 km/h Distance 38.05 km</desc>
<time>2011-05-22T10:09:46.03</time>
<name>8353</name>
<sym>Dot</sym>
</trkpt>
<trkpt lat="39.833938" lon="-8.460150">
<ele>225.0</ele>
<desc>Speed 28.9 km/h Distance 38.06 km</desc>
<time>2011-05-22T10:09:47.03</time>
<name>8354</name>
<sym>Dot</sym>
</trkpt>
<trkpt lat="39.833878" lon="-8.460200">
<ele>224.5</ele>
<desc>Speed 28.9 km/h Distance 38.07 km</desc>
<time>2011-05-22T10:09:48.03</time>
<name>8355</name>
<sym>Dot</sym>
</trkpt>
<trkpt lat="39.833818" lon="-8.460252">
<ele>224.5</ele>
<desc>Speed 28.7 km/h Distance 38.08 km</desc>
<time>2011-05-22T10:09:49.03</time>
<name>8356</name>
<sym>Dot</sym>
</trkpt>
<trkpt lat="39.833758" lon="-8.460303">
<ele>224.5</ele>
<desc>Speed 28.9 km/h Distance 38.09 km</desc>
<time>2011-05-22T10:09:50.02</time>
<name>8357</name>
<sym>Dot</sym>
</trkpt>
<trkpt lat="39.833698" lon="-8.460355">
<ele>224.5</ele>
<desc>Speed 29.0 km/h Distance 38.09 km</desc>
<time>2011-05-22T10:09:51.02</time>
<name>8358</name>
<sym>Dot</sym>
</trkpt>
<trkpt lat="39.833640" lon="-8.460408">
<ele>224.0</ele>
<desc>Speed 28.8 km/h Distance 38.10 km</desc>
<time>2011-05-22T10:09:52.02</time>
<name>8359</name>
<sym>Dot</sym>
</trkpt>
<trkpt lat="39.833580" lon="-8.460460">
<ele>224.0</ele>
<desc>Speed 28.9 km/h Distance 38.11 km</desc>
<time>2011-05-22T10:09:53.02</time>
<name>8360</name>
<sym>Dot</sym>
</trkpt>
<trkpt lat="39.833520" lon="-8.460512">
<ele>223.5</ele>
<desc>Speed 28.9 km/h Distance 38.12 km</desc>
<time>2011-05-22T10:09:54.01</time>
<name>8361</name>
<sym>Dot</sym>
</trkpt>
<trkpt lat="39.833460" lon="-8.460563">
<ele>223.5</ele>
<desc>Speed 29.3 km/h Distance 38.13 km</desc>
<time>2011-05-22T10:09:55.01</time>
<name>8362</name>
<sym>Dot</sym>
</trkpt>
<trkpt lat="39.833398" lon="-8.460618">
<ele>223.5</ele>
<desc>Speed 29.8 km/h Distance 38.13 km</desc>
<time>2011-05-22T10:09:56.00</time>
<name>8363</name>
<sym>Dot</sym>
</trkpt>
<trkpt lat="39.833337" lon="-8.460672">
<ele>223.5</ele>
<desc>Speed 29.7 km/h Distance 38.14 km</desc>
<time>2011-05-22T10:09:57.00</time>
<name>8364</name>
<sym>Dot</sym>
</trkpt>
<trkpt lat="39.833277" lon="-8.460725">
<ele>223.5</ele>
<desc>Speed 29.4 km/h Distance 38.15 km</desc>
<time>2011-05-22T10:09:57.99</time>
<name>8365</name>
<sym>Dot</sym>
</trkpt>
<trkpt lat="39.833215" lon="-8.460778">
<ele>223.0</ele>
<desc>Speed 29.3 km/h Distance 38.16 km</desc>
<time>2011-05-22T10:09:58.98</time>
<name>8366</name>
<sym>Dot</sym>
</trkpt>
<trkpt lat="39.833155" lon="-8.460830">
<ele>222.5</ele>
<desc>Speed 29.2 km/h Distance 38.17 km</desc>
<time>2011-05-22T10:09:59.98</time>
<name>8367</name>
<sym>Dot</sym>
</trkpt>
<trkpt lat="39.833095" lon="-8.460882">
<ele>222.0</ele>
<desc>Speed 28.9 km/h Distance 38.18 km</desc>
<time>2011-05-22T10:10:00.98</time>
<name>8368</name>
<sym>Dot</sym>
</trkpt>
<trkpt lat="39.833035" lon="-8.460933">
<ele>222.0</ele>
<desc>Speed 28.8 km/h Distance 38.18 km</desc>
<time>2011-05-22T10:10:01.97</time>
<name>8369</name>
<sym>Dot</sym>
</trkpt>
<trkpt lat="39.832975" lon="-8.460983">
<ele>221.5</ele>
<desc>Speed 29.1 km/h Distance 38.19 km</desc>
<time>2011-05-22T10:10:02.97</time>
<name>8370</name>
<sym>Dot</sym>
</trkpt>
<trkpt lat="39.832913" lon="-8.461035">
<ele>221.5</ele>
<desc>Speed 28.9 km/h Distance 38.20 km</desc>
<time>2011-05-22T10:10:03.96</time>
<name>8371</name>
<sym>Dot</sym>
</trkpt>
<trkpt lat="39.832855" lon="-8.461088">
<ele>221.0</ele>
<desc>Speed 29.0 km/h Distance 38.21 km</desc>
<time>2011-05-22T10:10:04.96</time>
<name>8372</name>
<sym>Dot</sym>
</trkpt>
<trkpt lat="39.832793" lon="-8.461142">
<ele>220.5</ele>
<desc>Speed 29.4 km/h Distance 38.22 km</desc>
<time>2011-05-22T10:10:05.95</time>
<name>8373</name>
<sym>Dot</sym>
</trkpt>
<trkpt lat="39.832733" lon="-8.461195">
<ele>220.0</ele>
<desc>Speed 29.3 km/h Distance 38.22 km</desc>
<time>2011-05-22T10:10:06.94</time>
<name>8374</name>
<sym>Dot</sym>
</trkpt>
<trkpt lat="39.832672" lon="-8.461248">
<ele>220.0</ele>
<desc>Speed 29.6 km/h Distance 38.23 km</desc>
<time>2011-05-22T10:10:07.94</time>
<name>8375</name>
<sym>Dot</sym>
</trkpt>
<trkpt lat="39.832607" lon="-8.461297">
<ele>219.5</ele>
<desc>Speed 30.1 km/h Distance 38.24 km</desc>
<time>2011-05-22T10:10:08.94</time>
<name>8376</name>
<sym>Dot</sym>
</trkpt>
<trkpt lat="39.832545" lon="-8.461350">
<ele>219.5</ele>
<desc>Speed 29.8 km/h Distance 38.25 km</desc>
<time>2011-05-22T10:10:09.93</time>
<name>8377</name>
<sym>Dot</sym>
</trkpt>
<trkpt lat="39.832482" lon="-8.461403">
<ele>219.0</ele>
<desc>Speed 30.1 km/h Distance 38.26 km</desc>
<time>2011-05-22T10:10:10.93</time>
<name>8378</name>
<sym>Dot</sym>
</trkpt>
<trkpt lat="39.832420" lon="-8.461455">
<ele>219.0</ele>
<desc>Speed 30.0 km/h Distance 38.27 km</desc>
<time>2011-05-22T10:10:11.93</time>
<name>8379</name>
<sym>Dot</sym>
</trkpt>
<trkpt lat="39.832358" lon="-8.461508">
<ele>219.0</ele>
<desc>Speed 30.0 km/h Distance 38.27 km</desc>
<time>2011-05-22T10:10:12.93</time>
<name>8380</name>
<sym>Dot</sym>
</trkpt>
<trkpt lat="39.832297" lon="-8.461562">
<ele>219.0</ele>
<desc>Speed 29.7 km/h Distance 38.28 km</desc>
<time>2011-05-22T10:10:13.92</time>
<name>8381</name>
<sym>Dot</sym>
</trkpt>
<trkpt lat="39.832235" lon="-8.461615">
<ele>218.5</ele>
<desc>Speed 29.6 km/h Distance 38.29 km</desc>
<time>2011-05-22T10:10:14.92</time>
<name>8382</name>
<sym>Dot</sym>
</trkpt>
<trkpt lat="39.832175" lon="-8.461667">
<ele>218.5</ele>
<desc>Speed 29.3 km/h Distance 38.30 km</desc>
<time>2011-05-22T10:10:15.92</time>
<name>8383</name>
<sym>Dot</sym>
</trkpt>
<trkpt lat="39.832115" lon="-8.461718">
<ele>218.5</ele>
<desc>Speed 29.0 km/h Distance 38.31 km</desc>
<time>2011-05-22T10:10:16.92</time>
<name>8384</name>
<sym>Dot</sym>
</trkpt>
<trkpt lat="39.832055" lon="-8.461772">
<ele>218.5</ele>
<desc>Speed 29.0 km/h Distance 38.31 km</desc>
<time>2011-05-22T10:10:17.91</time>
<name>8385</name>
<sym>Dot</sym>
</trkpt>
<trkpt lat="39.831995" lon="-8.461823">
<ele>218.0</ele>
<desc>Speed 29.2 km/h Distance 38.32 km</desc>
<time>2011-05-22T10:10:18.91</time>
<name>8386</name>
<sym>Dot</sym>
</trkpt>
<trkpt lat="39.831935" lon="-8.461877">
<ele>218.0</ele>
<desc>Speed 29.2 km/h Distance 38.33 km</desc>
<time>2011-05-22T10:10:19.91</time>
<name>8387</name>
<sym>Dot</sym>
</trkpt>
<trkpt lat="39.831875" lon="-8.461928">
<ele>218.0</ele>
<desc>Speed 29.1 km/h Distance 38.34 km</desc>
<time>2011-05-22T10:10:20.91</time>
<name>8388</name>
<sym>Dot</sym>
</trkpt>
<trkpt lat="39.831815" lon="-8.461980">
<ele>218.0</ele>
<desc>Speed 29.1 km/h Distance 38.35 km</desc>
<time>2011-05-22T10:10:21.90</time>
<name>8389</name>
<sym>Dot</sym>
</trkpt>
<trkpt lat="39.831755" lon="-8.462033">
<ele>217.5</ele>
<desc>Speed 29.2 km/h Distance 38.35 km</desc>
<time>2011-05-22T10:10:22.90</time>
<name>8390</name>
<sym>Dot</sym>
</trkpt>
<trkpt lat="39.831695" lon="-8.462087">
<ele>217.5</ele>
<desc>Speed 28.7 km/h Distance 38.36 km</desc>
<time>2011-05-22T10:10:23.90</time>
<name>8391</name>
<sym>Dot</sym>
</trkpt>
<trkpt lat="39.831637" lon="-8.462138">
<ele>217.0</ele>
<desc>Speed 28.8 km/h Distance 38.37 km</desc>
<time>2011-05-22T10:10:24.90</time>
<name>8392</name>
<sym>Dot</sym>
</trkpt>
<trkpt lat="39.831577" lon="-8.462188">
<ele>217.0</ele>
<desc>Speed 28.6 km/h Distance 38.38 km</desc>
<time>2011-05-22T10:10:25.89</time>
<name>8393</name>
<sym>Dot</sym>
</trkpt>
<trkpt lat="39.831517" lon="-8.462237">
<ele>217.0</ele>
<desc>Speed 28.5 km/h Distance 38.39 km</desc>
<time>2011-05-22T10:10:26.89</time>
<name>8394</name>
<sym>Dot</sym>
</trkpt>
<trkpt lat="39.831458" lon="-8.462288">
<ele>217.0</ele>
<desc>Speed 28.4 km/h Distance 38.39 km</desc>
<time>2011-05-22T10:10:27.89</time>
<name>8395</name>
<sym>Dot</sym>
</trkpt>
<trkpt lat="39.831398" lon="-8.462338">
<ele>216.5</ele>
<desc>Speed 28.3 km/h Distance 38.40 km</desc>
<time>2011-05-22T10:10:28.90</time>
<name>8396</name>
<sym>Dot</sym>
</trkpt>
<trkpt lat="39.831340" lon="-8.462392">
<ele>216.5</ele>
<desc>Speed 28.7 km/h Distance 38.41 km</desc>
<time>2011-05-22T10:10:29.88</time>
<name>8397</name>
<sym>Dot</sym>
</trkpt>
<trkpt lat="39.831280" lon="-8.462445">
<ele>216.0</ele>
<desc>Speed 28.7 km/h Distance 38.42 km</desc>
<time>2011-05-22T10:10:30.87</time>
<name>8398</name>
<sym>Dot</sym>
</trkpt>
<trkpt lat="39.831222" lon="-8.462498">
<ele>215.5</ele>
<desc>Speed 29.0 km/h Distance 38.43 km</desc>
<time>2011-05-22T10:10:31.87</time>
<name>8399</name>
<sym>Dot</sym>
</trkpt>
<trkpt lat="39.831160" lon="-8.462548">
<ele>215.5</ele>
<desc>Speed 29.0 km/h Distance 38.43 km</desc>
<time>2011-05-22T10:10:32.87</time>
<name>8400</name>
<sym>Dot</sym>
</trkpt>
<trkpt lat="39.831100" lon="-8.462602">
<ele>215.5</ele>
<desc>Speed 29.1 km/h Distance 38.44 km</desc>
<time>2011-05-22T10:10:33.86</time>
<name>8401</name>
<sym>Dot</sym>
</trkpt>
<trkpt lat="39.831040" lon="-8.462655">
<ele>215.5</ele>
<desc>Speed 29.2 km/h Distance 38.45 km</desc>
<time>2011-05-22T10:10:34.85</time>
<name>8402</name>
<sym>Dot</sym>
</trkpt>
<trkpt lat="39.830980" lon="-8.462707">
<ele>215.5</ele>
<desc>Speed 28.9 km/h Distance 38.46 km</desc>
<time>2011-05-22T10:10:35.85</time>
<name>8403</name>
<sym>Dot</sym>
</trkpt>
<trkpt lat="39.830920" lon="-8.462760">
<ele>215.0</ele>
<desc>Speed 29.0 km/h Distance 38.47 km</desc>
<time>2011-05-22T10:10:36.85</time>
<name>8404</name>
<sym>Dot</sym>
</trkpt>
<trkpt lat="39.830860" lon="-8.462810">
<ele>215.0</ele>
<desc>Speed 28.7 km/h Distance 38.47 km</desc>
<time>2011-05-22T10:10:37.85</time>
<name>8405</name>
<sym>Dot</sym>
</trkpt>
<trkpt lat="39.830800" lon="-8.462860">
<ele>214.5</ele>
<desc>Speed 28.4 km/h Distance 38.48 km</desc>
<time>2011-05-22T10:10:38.84</time>
<name>8406</name>
<sym>Dot</sym>
</trkpt>
<trkpt lat="39.830742" lon="-8.462912">
<ele>214.5</ele>
<desc>Speed 28.3 km/h Distance 38.49 km</desc>
<time>2011-05-22T10:10:39.84</time>
<name>8407</name>
<sym>Dot</sym>
</trkpt>
<trkpt lat="39.830683" lon="-8.462960">
<ele>214.0</ele>
<desc>Speed 28.1 km/h Distance 38.50 km</desc>
<time>2011-05-22T10:10:40.83</time>
<name>8408</name>
<sym>Dot</sym>
</trkpt>
<trkpt lat="39.830625" lon="-8.463010">
<ele>214.0</ele>
<desc>Speed 27.8 km/h Distance 38.51 km</desc>
<time>2011-05-22T10:10:41.83</time>
<name>8409</name>
<sym>Dot</sym>
</trkpt>
<trkpt lat="39.830567" lon="-8.463062">
<ele>214.0</ele>
<desc>Speed 28.2 km/h Distance 38.51 km</desc>
<time>2011-05-22T10:10:42.82</time>
<name>8410</name>
<sym>Dot</sym>
</trkpt>
<trkpt lat="39.830510" lon="-8.463113">
<ele>213.5</ele>
<desc>Speed 28.2 km/h Distance 38.52 km</desc>
<time>2011-05-22T10:10:43.82</time>
<name>8411</name>
<sym>Dot</sym>
</trkpt>
<trkpt lat="39.830450" lon="-8.463162">
<ele>213.5</ele>
<desc>Speed 27.9 km/h Distance 38.53 km</desc>
<time>2011-05-22T10:10:44.82</time>
<name>8412</name>
<sym>Dot</sym>
</trkpt>
<trkpt lat="39.830392" lon="-8.463208">
<ele>213.5</ele>
<desc>Speed 27.5 km/h Distance 38.54 km</desc>
<time>2011-05-22T10:10:45.82</time>
<name>8413</name>
<sym>Dot</sym>
</trkpt>
<trkpt lat="39.830333" lon="-8.463257">
<ele>213.5</ele>
<desc>Speed 27.7 km/h Distance 38.54 km</desc>
<time>2011-05-22T10:10:46.81</time>
<name>8414</name>
<sym>Dot</sym>
</trkpt>
<trkpt lat="39.830277" lon="-8.463305">
<ele>213.5</ele>
<desc>Speed 27.1 km/h Distance 38.55 km</desc>
<time>2011-05-22T10:10:47.81</time>
<name>8415</name>
<sym>Dot</sym>
</trkpt>
<trkpt lat="39.830220" lon="-8.463353">
<ele>213.5</ele>
<desc>Speed 27.4 km/h Distance 38.56 km</desc>
<time>2011-05-22T10:10:48.81</time>
<name>8416</name>
<sym>Dot</sym>
</trkpt>
<trkpt lat="39.830162" lon="-8.463405">
<ele>213.5</ele>
<desc>Speed 28.2 km/h Distance 38.57 km</desc>
<time>2011-05-22T10:10:49.81</time>
<name>8417</name>
<sym>Dot</sym>
</trkpt>
<trkpt lat="39.830102" lon="-8.463457">
<ele>213.5</ele>
<desc>Speed 28.4 km/h Distance 38.57 km</desc>
<time>2011-05-22T10:10:50.80</time>
<name>8418</name>
<sym>Dot</sym>
</trkpt>
<trkpt lat="39.830043" lon="-8.463507">
<ele>213.5</ele>
<desc>Speed 28.7 km/h Distance 38.58 km</desc>
<time>2011-05-22T10:10:51.80</time>
<name>8419</name>
<sym>Dot</sym>
</trkpt>
<trkpt lat="39.829983" lon="-8.463560">
<ele>213.5</ele>
<desc>Speed 28.7 km/h Distance 38.59 km</desc>
<time>2011-05-22T10:10:52.80</time>
<name>8420</name>
<sym>Dot</sym>
</trkpt>
<trkpt lat="39.829925" lon="-8.463613">
<ele>213.5</ele>
<desc>Speed 28.8 km/h Distance 38.60 km</desc>
<time>2011-05-22T10:10:53.80</time>
<name>8421</name>
<sym>Dot</sym>
</trkpt>
<trkpt lat="39.829865" lon="-8.463668">
<ele>213.5</ele>
<desc>Speed 28.9 km/h Distance 38.61 km</desc>
<time>2011-05-22T10:10:54.79</time>
<name>8422</name>
<sym>Dot</sym>
</trkpt>
<trkpt lat="39.829807" lon="-8.463722">
<ele>213.0</ele>
<desc>Speed 28.9 km/h Distance 38.61 km</desc>
<time>2011-05-22T10:10:55.79</time>
<name>8423</name>
<sym>Dot</sym>
</trkpt>
<trkpt lat="39.829748" lon="-8.463773">
<ele>213.0</ele>
<desc>Speed 28.5 km/h Distance 38.62 km</desc>
<time>2011-05-22T10:10:56.78</time>
<name>8424</name>
<sym>Dot</sym>
</trkpt>
<trkpt lat="39.829688" lon="-8.463825">
<ele>212.5</ele>
<desc>Speed 28.4 km/h Distance 38.63 km</desc>
<time>2011-05-22T10:10:57.78</time>
<name>8425</name>
<sym>Dot</sym>
</trkpt>
<trkpt lat="39.829630" lon="-8.463877">
<ele>212.5</ele>
<desc>Speed 28.4 km/h Distance 38.64 km</desc>
<time>2011-05-22T10:10:58.77</time>
<name>8426</name>
<sym>Dot</sym>
</trkpt>
<trkpt lat="39.829573" lon="-8.463932">
<ele>212.5</ele>
<desc>Speed 28.4 km/h Distance 38.65 km</desc>
<time>2011-05-22T10:10:59.77</time>
<name>8427</name>
<sym>Dot</sym>
</trkpt>
<trkpt lat="39.829517" lon="-8.463990">
<ele>212.5</ele>
<desc>Speed 28.8 km/h Distance 38.65 km</desc>
<time>2011-05-22T10:11:00.77</time>
<name>8428</name>
<sym>Dot</sym>
</trkpt>
<trkpt lat="39.829462" lon="-8.464053">
<ele>212.0</ele>
<desc>Speed 29.4 km/h Distance 38.66 km</desc>
<time>2011-05-22T10:11:01.77</time>
<name>8429</name>
<sym>Dot</sym>
</trkpt>
<trkpt lat="39.829407" lon="-8.464118">
<ele>212.0</ele>
<desc>Speed 29.9 km/h Distance 38.67 km</desc>
<time>2011-05-22T10:11:02.76</time>
<name>8430</name>
<sym>Dot</sym>
</trkpt>
<trkpt lat="39.829350" lon="-8.464183">
<ele>212.0</ele>
<desc>Speed 30.2 km/h Distance 38.68 km</desc>
<time>2011-05-22T10:11:03.75</time>
<name>8431</name>
<sym>Dot</sym>
</trkpt>
<trkpt lat="39.829295" lon="-8.464252">
<ele>211.5</ele>
<desc>Speed 30.5 km/h Distance 38.69 km</desc>
<time>2011-05-22T10:11:04.75</time>
<name>8432</name>
<sym>Dot</sym>
</trkpt>
<trkpt lat="39.829242" lon="-8.464322">
<ele>211.5</ele>
<desc>Speed 30.8 km/h Distance 38.70 km</desc>
<time>2011-05-22T10:11:05.75</time>
<name>8433</name>
<sym>Dot</sym>
</trkpt>
<trkpt lat="39.829190" lon="-8.464398">
<ele>211.5</ele>
<desc>Speed 31.0 km/h Distance 38.70 km</desc>
<time>2011-05-22T10:11:06.74</time>
<name>8434</name>
<sym>Dot</sym>
</trkpt>
<trkpt lat="39.829140" lon="-8.464475">
<ele>211.5</ele>
<desc>Speed 31.1 km/h Distance 38.71 km</desc>
<time>2011-05-22T10:11:07.74</time>
<name>8435</name>
<sym>Dot</sym>
</trkpt>
<trkpt lat="39.829092" lon="-8.464553">
<ele>211.5</ele>
<desc>Speed 31.2 km/h Distance 38.72 km</desc>
<time>2011-05-22T10:11:08.74</time>
<name>8436</name>
<sym>Dot</sym>
</trkpt>
<trkpt lat="39.829045" lon="-8.464637">
<ele>211.5</ele>
<desc>Speed 31.4 km/h Distance 38.73 km</desc>
<time>2011-05-22T10:11:09.73</time>
<name>8437</name>
<sym>Dot</sym>
</trkpt>
<trkpt lat="39.829000" lon="-8.464720">
<ele>211.5</ele>
<desc>Speed 31.4 km/h Distance 38.74 km</desc>
<time>2011-05-22T10:11:10.73</time>
<name>8438</name>
<sym>Dot</sym>
</trkpt>
<trkpt lat="39.828957" lon="-8.464805">
<ele>211.0</ele>
<desc>Speed 31.3 km/h Distance 38.75 km</desc>
<time>2011-05-22T10:11:11.73</time>
<name>8439</name>
<sym>Dot</sym>
</trkpt>
<trkpt lat="39.828915" lon="-8.464890">
<ele>211.0</ele>
<desc>Speed 31.2 km/h Distance 38.76 km</desc>
<time>2011-05-22T10:11:12.73</time>
<name>8440</name>
<sym>Dot</sym>
</trkpt>
<trkpt lat="39.828877" lon="-8.464978">
<ele>210.5</ele>
<desc>Speed 31.3 km/h Distance 38.77 km</desc>
<time>2011-05-22T10:11:13.72</time>
<name>8441</name>
<sym>Dot</sym>
</trkpt>
<trkpt lat="39.828837" lon="-8.465067">
<ele>210.0</ele>
<desc>Speed 31.2 km/h Distance 38.77 km</desc>
<time>2011-05-22T10:11:14.72</time>
<name>8442</name>
<sym>Dot</sym>
</trkpt>
<trkpt lat="39.828798" lon="-8.465155">
<ele>210.0</ele>
<desc>Speed 31.2 km/h Distance 38.78 km</desc>
<time>2011-05-22T10:11:15.72</time>
<name>8443</name>
<sym>Dot</sym>
</trkpt>
<trkpt lat="39.828760" lon="-8.465243">
<ele>210.0</ele>
<desc>Speed 31.4 km/h Distance 38.79 km</desc>
<time>2011-05-22T10:11:16.71</time>
<name>8444</name>
<sym>Dot</sym>
</trkpt>
<trkpt lat="39.828720" lon="-8.465332">
<ele>210.0</ele>
<desc>Speed 31.1 km/h Distance 38.80 km</desc>
<time>2011-05-22T10:11:17.71</time>
<name>8445</name>
<sym>Dot</sym>
</trkpt>
<trkpt lat="39.828683" lon="-8.465418">
<ele>209.5</ele>
<desc>Speed 30.7 km/h Distance 38.81 km</desc>
<time>2011-05-22T10:11:18.70</time>
<name>8446</name>
<sym>Dot</sym>
</trkpt>
<trkpt lat="39.828645" lon="-8.465505">
<ele>209.5</ele>
<desc>Speed 31.0 km/h Distance 38.82 km</desc>
<time>2011-05-22T10:11:19.70</time>
<name>8447</name>
<sym>Dot</sym>
</trkpt>
<trkpt lat="39.828605" lon="-8.465593">
<ele>209.5</ele>
<desc>Speed 31.0 km/h Distance 38.83 km</desc>
<time>2011-05-22T10:11:20.70</time>
<name>8448</name>
<sym>Dot</sym>
</trkpt>
<trkpt lat="39.828567" lon="-8.465680">
<ele>209.0</ele>
<desc>Speed 30.6 km/h Distance 38.83 km</desc>
<time>2011-05-22T10:11:21.69</time>
<name>8449</name>
<sym>Dot</sym>
</trkpt>
<trkpt lat="39.828532" lon="-8.465767">
<ele>209.0</ele>
<desc>Speed 30.5 km/h Distance 38.84 km</desc>
<time>2011-05-22T10:11:22.69</time>
<name>8450</name>
<sym>Dot</sym>
</trkpt>
<trkpt lat="39.828493" lon="-8.465852">
<ele>209.0</ele>
<desc>Speed 30.3 km/h Distance 38.85 km</desc>
<time>2011-05-22T10:11:23.69</time>
<name>8451</name>
<sym>Dot</sym>
</trkpt>
<trkpt lat="39.828457" lon="-8.465937">
<ele>208.5</ele>
<desc>Speed 30.1 km/h Distance 38.86 km</desc>
<time>2011-05-22T10:11:24.68</time>
<name>8452</name>
<sym>Dot</sym>
</trkpt>
<trkpt lat="39.828420" lon="-8.466022">
<ele>208.5</ele>
<desc>Speed 29.7 km/h Distance 38.87 km</desc>
<time>2011-05-22T10:11:25.68</time>
<name>8453</name>
<sym>Dot</sym>
</trkpt>
<trkpt lat="39.828383" lon="-8.466105">
<ele>208.5</ele>
<desc>Speed 29.3 km/h Distance 38.88 km</desc>
<time>2011-05-22T10:11:26.68</time>
<name>8454</name>
<sym>Dot</sym>
</trkpt>
<trkpt lat="39.828345" lon="-8.466187">
<ele>208.5</ele>
<desc>Speed 29.1 km/h Distance 38.88 km</desc>
<time>2011-05-22T10:11:27.67</time>
<name>8455</name>
<sym>Dot</sym>
</trkpt>
<trkpt lat="39.828307" lon="-8.466267">
<ele>208.5</ele>
<desc>Speed 29.1 km/h Distance 38.89 km</desc>
<time>2011-05-22T10:11:28.67</time>
<name>8456</name>
<sym>Dot</sym>
</trkpt>
<trkpt lat="39.828268" lon="-8.466347">
<ele>208.5</ele>
<desc>Speed 29.0 km/h Distance 38.90 km</desc>
<time>2011-05-22T10:11:29.66</time>
<name>8457</name>
<sym>Dot</sym>
</trkpt>
<trkpt lat="39.828227" lon="-8.466423">
<ele>208.5</ele>
<desc>Speed 28.8 km/h Distance 38.91 km</desc>
<time>2011-05-22T10:11:30.65</time>
<name>8458</name>
<sym>Dot</sym>
</trkpt>
<trkpt lat="39.828182" lon="-8.466498">
<ele>208.5</ele>
<desc>Speed 29.1 km/h Distance 38.92 km</desc>
<time>2011-05-22T10:11:31.65</time>
<name>8459</name>
<sym>Dot</sym>
</trkpt>
<trkpt lat="39.828135" lon="-8.466575">
<ele>208.5</ele>
<desc>Speed 29.9 km/h Distance 38.93 km</desc>
<time>2011-05-22T10:11:32.64</time>
<name>8460</name>
<sym>Dot</sym>
</trkpt>
<trkpt lat="39.828087" lon="-8.466648">
<ele>208.5</ele>
<desc>Speed 29.8 km/h Distance 38.93 km</desc>
<time>2011-05-22T10:11:33.64</time>
<name>8461</name>
<sym>Dot</sym>
</trkpt>
<trkpt lat="39.828035" lon="-8.466715">
<ele>208.5</ele>
<desc>Speed 29.2 km/h Distance 38.94 km</desc>
<time>2011-05-22T10:11:34.63</time>
<name>8462</name>
<sym>Dot</sym>
</trkpt>
<trkpt lat="39.827980" lon="-8.466778">
<ele>208.0</ele>
<desc>Speed 29.3 km/h Distance 38.95 km</desc>
<time>2011-05-22T10:11:35.63</time>
<name>8463</name>
<sym>Dot</sym>
</trkpt>
<trkpt lat="39.827927" lon="-8.466845">
<ele>208.0</ele>
<desc>Speed 29.8 km/h Distance 38.96 km</desc>
<time>2011-05-22T10:11:36.62</time>
<name>8464</name>
<sym>Dot</sym>
</trkpt>
<trkpt lat="39.827872" lon="-8.466910">
<ele>208.0</ele>
<desc>Speed 29.6 km/h Distance 38.97 km</desc>
<time>2011-05-22T10:11:37.62</time>
<name>8465</name>
<sym>Dot</sym>
</trkpt>
<trkpt lat="39.827815" lon="-8.466970">
<ele>208.0</ele>
<desc>Speed 29.1 km/h Distance 38.97 km</desc>
<time>2011-05-22T10:11:38.61</time>
<name>8466</name>
<sym>Dot</sym>
</trkpt>
<trkpt lat="39.827757" lon="-8.467027">
<ele>208.0</ele>
<desc>Speed 28.9 km/h Distance 38.98 km</desc>
<time>2011-05-22T10:11:39.60</time>
<name>8467</name>
<sym>Dot</sym>
</trkpt>
<trkpt lat="39.827700" lon="-8.467082">
<ele>208.0</ele>
<desc>Speed 28.7 km/h Distance 38.99 km</desc>
<time>2011-05-22T10:11:40.60</time>
<name>8468</name>
<sym>Dot</sym>
</trkpt>
<trkpt lat="39.827643" lon="-8.467138">
<ele>207.5</ele>
<desc>Speed 28.7 km/h Distance 39.00 km</desc>
<time>2011-05-22T10:11:41.60</time>
<name>8469</name>
<sym>Dot</sym>
</trkpt>
<trkpt lat="39.827585" lon="-8.467192">
<ele>207.5</ele>
<desc>Speed 28.4 km/h Distance 39.01 km</desc>
<time>2011-05-22T10:11:42.59</time>
<name>8470</name>
<sym>Dot</sym>
</trkpt>
<trkpt lat="39.827527" lon="-8.467242">
<ele>207.0</ele>
<desc>Speed 27.9 km/h Distance 39.01 km</desc>
<time>2011-05-22T10:11:43.58</time>
<name>8471</name>
<sym>Dot</sym>
</trkpt>
<trkpt lat="39.827473" lon="-8.467297">
<ele>207.0</ele>
<desc>Speed 27.5 km/h Distance 39.02 km</desc>
<time>2011-05-22T10:11:44.58</time>
<name>8472</name>
<sym>Dot</sym>
</trkpt>
<trkpt lat="39.827418" lon="-8.467355">
<ele>207.0</ele>
<desc>Speed 28.2 km/h Distance 39.03 km</desc>
<time>2011-05-22T10:11:45.58</time>
<name>8473</name>
<sym>Dot</sym>
</trkpt>
<trkpt lat="39.827362" lon="-8.467410">
<ele>207.0</ele>
<desc>Speed 28.6 km/h Distance 39.04 km</desc>
<time>2011-05-22T10:11:46.57</time>
<name>8474</name>
<sym>Dot</sym>
</trkpt>
<trkpt lat="39.827303" lon="-8.467467">
<ele>207.0</ele>
<desc>Speed 28.7 km/h Distance 39.05 km</desc>
<time>2011-05-22T10:11:47.57</time>
<name>8475</name>
<sym>Dot</sym>
</trkpt>
<trkpt lat="39.827245" lon="-8.467520">
<ele>207.0</ele>
<desc>Speed 28.7 km/h Distance 39.05 km</desc>
<time>2011-05-22T10:11:48.56</time>
<name>8476</name>
<sym>Dot</sym>
</trkpt>
<trkpt lat="39.827188" lon="-8.467573">
<ele>206.5</ele>
<desc>Speed 28.3 km/h Distance 39.06 km</desc>
<time>2011-05-22T10:11:49.56</time>
<name>8477</name>
<sym>Dot</sym>
</trkpt>
<trkpt lat="39.827132" lon="-8.467627">
<ele>206.5</ele>
<desc>Speed 28.0 km/h Distance 39.07 km</desc>
<time>2011-05-22T10:11:50.56</time>
<name>8478</name>
<sym>Dot</sym>
</trkpt>
<trkpt lat="39.827077" lon="-8.467680">
<ele>206.5</ele>
<desc>Speed 27.8 km/h Distance 39.08 km</desc>
<time>2011-05-22T10:11:51.56</time>
<name>8479</name>
<sym>Dot</sym>
</trkpt>
<trkpt lat="39.827020" lon="-8.467732">
<ele>206.5</ele>
<desc>Speed 27.9 km/h Distance 39.08 km</desc>
<time>2011-05-22T10:11:52.55</time>
<name>8480</name>
<sym>Dot</sym>
</trkpt>
<trkpt lat="39.826962" lon="-8.467785">
<ele>206.5</ele>
<desc>Speed 28.4 km/h Distance 39.09 km</desc>
<time>2011-05-22T10:11:53.55</time>
<name>8481</name>
<sym>Dot</sym>
</trkpt>
<trkpt lat="39.826905" lon="-8.467838">
<ele>206.5</ele>
<desc>Speed 28.3 km/h Distance 39.10 km</desc>
<time>2011-05-22T10:11:54.54</time>
<name>8482</name>
<sym>Dot</sym>
</trkpt>
<trkpt lat="39.826848" lon="-8.467893">
<ele>206.5</ele>
<desc>Speed 28.6 km/h Distance 39.11 km</desc>
<time>2011-05-22T10:11:55.54</time>
<name>8483</name>
<sym>Dot</sym>
</trkpt>
<trkpt lat="39.826790" lon="-8.467948">
<ele>206.5</ele>
<desc>Speed 28.8 km/h Distance 39.12 km</desc>
<time>2011-05-22T10:11:56.53</time>
<name>8484</name>
<sym>Dot</sym>
</trkpt>
<trkpt lat="39.826732" lon="-8.468003">
<ele>206.5</ele>
<desc>Speed 28.9 km/h Distance 39.12 km</desc>
<time>2011-05-22T10:11:57.53</time>
<name>8485</name>
<sym>Dot</sym>
</trkpt>
<trkpt lat="39.826673" lon="-8.468057">
<ele>206.5</ele>
<desc>Speed 29.0 km/h Distance 39.13 km</desc>
<time>2011-05-22T10:11:58.52</time>
<name>8486</name>
<sym>Dot</sym>
</trkpt>
<trkpt lat="39.826613" lon="-8.468112">
<ele>206.5</ele>
<desc>Speed 29.4 km/h Distance 39.14 km</desc>
<time>2011-05-22T10:11:59.52</time>
<name>8487</name>
<sym>Dot</sym>
</trkpt>
<trkpt lat="39.826555" lon="-8.468168">
<ele>206.5</ele>
<desc>Speed 29.3 km/h Distance 39.15 km</desc>
<time>2011-05-22T10:12:00.52</time>
<name>8488</name>
<sym>Dot</sym>
</trkpt>
<trkpt lat="39.826498" lon="-8.468225">
<ele>206.5</ele>
<desc>Speed 29.1 km/h Distance 39.16 km</desc>
<time>2011-05-22T10:12:01.52</time>
<name>8489</name>
<sym>Dot</sym>
</trkpt>
<trkpt lat="39.826440" lon="-8.468280">
<ele>206.5</ele>
<desc>Speed 28.8 km/h Distance 39.16 km</desc>
<time>2011-05-22T10:12:02.51</time>
<name>8490</name>
<sym>Dot</sym>
</trkpt>
<trkpt lat="39.826383" lon="-8.468333">
<ele>206.5</ele>
<desc>Speed 28.6 km/h Distance 39.17 km</desc>
<time>2011-05-22T10:12:03.51</time>
<name>8491</name>
<sym>Dot</sym>
</trkpt>
<trkpt lat="39.826327" lon="-8.468390">
<ele>206.0</ele>
<desc>Speed 28.4 km/h Distance 39.18 km</desc>
<time>2011-05-22T10:12:04.50</time>
<name>8492</name>
<sym>Dot</sym>
</trkpt>
<trkpt lat="39.826270" lon="-8.468443">
<ele>206.0</ele>
<desc>Speed 28.2 km/h Distance 39.19 km</desc>
<time>2011-05-22T10:12:05.50</time>
<name>8493</name>
<sym>Dot</sym>
</trkpt>
<trkpt lat="39.826213" lon="-8.468497">
<ele>206.0</ele>
<desc>Speed 28.0 km/h Distance 39.20 km</desc>
<time>2011-05-22T10:12:06.49</time>
<name>8494</name>
<sym>Dot</sym>
</trkpt>
<trkpt lat="39.826158" lon="-8.468550">
<ele>205.5</ele>
<desc>Speed 27.8 km/h Distance 39.20 km</desc>
<time>2011-05-22T10:12:07.49</time>
<name>8495</name>
<sym>Dot</sym>
</trkpt>
<trkpt lat="39.826103" lon="-8.468605">
<ele>205.5</ele>
<desc>Speed 27.5 km/h Distance 39.21 km</desc>
<time>2011-05-22T10:12:08.48</time>
<name>8496</name>
<sym>Dot</sym>
</trkpt>
<trkpt lat="39.826050" lon="-8.468657">
<ele>205.5</ele>
<desc>Speed 27.2 km/h Distance 39.22 km</desc>
<time>2011-05-22T10:12:09.48</time>
<name>8497</name>
<sym>Dot</sym>
</trkpt>
<trkpt lat="39.825995" lon="-8.468708">
<ele>205.0</ele>
<desc>Speed 27.1 km/h Distance 39.23 km</desc>
<time>2011-05-22T10:12:10.47</time>
<name>8498</name>
<sym>Dot</sym>
</trkpt>
<trkpt lat="39.825940" lon="-8.468760">
<ele>205.0</ele>
<desc>Speed 27.3 km/h Distance 39.23 km</desc>
<time>2011-05-22T10:12:11.47</time>
<name>8499</name>
<sym>Dot</sym>
</trkpt>
<trkpt lat="39.825885" lon="-8.468812">
<ele>204.5</ele>
<desc>Speed 27.3 km/h Distance 39.24 km</desc>
<time>2011-05-22T10:12:12.46</time>
<name>8500</name>
<sym>Dot</sym>
</trkpt>
<trkpt lat="39.825830" lon="-8.468863">
<ele>204.5</ele>
<desc>Speed 27.1 km/h Distance 39.25 km</desc>
<time>2011-05-22T10:12:13.45</time>
<name>8501</name>
<sym>Dot</sym>
</trkpt>
<trkpt lat="39.825775" lon="-8.468913">
<ele>204.5</ele>
<desc>Speed 27.1 km/h Distance 39.26 km</desc>
<time>2011-05-22T10:12:14.45</time>
<name>8502</name>
<sym>Dot</sym>
</trkpt>
<trkpt lat="39.825722" lon="-8.468963">
<ele>204.5</ele>
<desc>Speed 26.9 km/h Distance 39.26 km</desc>
<time>2011-05-22T10:12:15.44</time>
<name>8503</name>
<sym>Dot</sym>
</trkpt>
<trkpt lat="39.825668" lon="-8.469017">
<ele>204.0</ele>
<desc>Speed 26.6 km/h Distance 39.27 km</desc>
<time>2011-05-22T10:12:16.44</time>
<name>8504</name>
<sym>Dot</sym>
</trkpt>
<trkpt lat="39.825615" lon="-8.469065">
<ele>204.0</ele>
<desc>Speed 26.2 km/h Distance 39.28 km</desc>
<time>2011-05-22T10:12:17.44</time>
<name>8505</name>
<sym>Dot</sym>
</trkpt>
<trkpt lat="39.825562" lon="-8.469115">
<ele>204.0</ele>
<desc>Speed 26.3 km/h Distance 39.29 km</desc>
<time>2011-05-22T10:12:18.43</time>
<name>8506</name>
<sym>Dot</sym>
</trkpt>
<trkpt lat="39.825508" lon="-8.469165">
<ele>203.5</ele>
<desc>Speed 26.6 km/h Distance 39.29 km</desc>
<time>2011-05-22T10:12:19.43</time>
<name>8507</name>
<sym>Dot</sym>
</trkpt>
<trkpt lat="39.825455" lon="-8.469215">
<ele>203.5</ele>
<desc>Speed 26.5 km/h Distance 39.30 km</desc>
<time>2011-05-22T10:12:20.42</time>
<name>8508</name>
<sym>Dot</sym>
</trkpt>
<trkpt lat="39.825403" lon="-8.469267">
<ele>203.0</ele>
<desc>Speed 26.4 km/h Distance 39.31 km</desc>
<time>2011-05-22T10:12:21.42</time>
<name>8509</name>
<sym>Dot</sym>
</trkpt>
<trkpt lat="39.825350" lon="-8.469318">
<ele>203.0</ele>
<desc>Speed 26.5 km/h Distance 39.31 km</desc>
<time>2011-05-22T10:12:22.42</time>
<name>8510</name>
<sym>Dot</sym>
</trkpt>
<trkpt lat="39.825297" lon="-8.469370">
<ele>203.0</ele>
<desc>Speed 26.7 km/h Distance 39.32 km</desc>
<time>2011-05-22T10:12:23.41</time>
<name>8511</name>
<sym>Dot</sym>
</trkpt>
<trkpt lat="39.825243" lon="-8.469422">
<ele>202.5</ele>
<desc>Speed 27.1 km/h Distance 39.33 km</desc>
<time>2011-05-22T10:12:24.41</time>
<name>8512</name>
<sym>Dot</sym>
</trkpt>
<trkpt lat="39.825188" lon="-8.469475">
<ele>202.0</ele>
<desc>Speed 27.3 km/h Distance 39.34 km</desc>
<time>2011-05-22T10:12:25.40</time>
<name>8513</name>
<sym>Dot</sym>
</trkpt>
<trkpt lat="39.825133" lon="-8.469527">
<ele>202.0</ele>
<desc>Speed 27.3 km/h Distance 39.34 km</desc>
<time>2011-05-22T10:12:26.40</time>
<name>8514</name>
<sym>Dot</sym>
</trkpt>
<trkpt lat="39.825078" lon="-8.469578">
<ele>202.0</ele>
<desc>Speed 27.3 km/h Distance 39.35 km</desc>
<time>2011-05-22T10:12:27.40</time>
<name>8515</name>
<sym>Dot</sym>
</trkpt>
<trkpt lat="39.825025" lon="-8.469630">
<ele>201.5</ele>
<desc>Speed 27.1 km/h Distance 39.36 km</desc>
<time>2011-05-22T10:12:28.41</time>
<name>8516</name>
<sym>Dot</sym>
</trkpt>
<trkpt lat="39.824970" lon="-8.469680">
<ele>201.5</ele>
<desc>Speed 26.9 km/h Distance 39.37 km</desc>
<time>2011-05-22T10:12:29.39</time>
<name>8517</name>
<sym>Dot</sym>
</trkpt>
<trkpt lat="39.824915" lon="-8.469730">
<ele>201.0</ele>
<desc>Speed 27.1 km/h Distance 39.37 km</desc>
<time>2011-05-22T10:12:30.39</time>
<name>8518</name>
<sym>Dot</sym>
</trkpt>
<trkpt lat="39.824858" lon="-8.469778">
<ele>201.0</ele>
<desc>Speed 27.5 km/h Distance 39.38 km</desc>
<time>2011-05-22T10:12:31.39</time>
<name>8519</name>
<sym>Dot</sym>
</trkpt>
<trkpt lat="39.824802" lon="-8.469830">
<ele>200.5</ele>
<desc>Speed 27.8 km/h Distance 39.39 km</desc>
<time>2011-05-22T10:12:32.39</time>
<name>8520</name>
<sym>Dot</sym>
</trkpt>
<trkpt lat="39.824745" lon="-8.469883">
<ele>200.5</ele>
<desc>Speed 27.8 km/h Distance 39.40 km</desc>
<time>2011-05-22T10:12:33.39</time>
<name>8521</name>
<sym>Dot</sym>
</trkpt>
<trkpt lat="39.824690" lon="-8.469937">
<ele>200.5</ele>
<desc>Speed 28.1 km/h Distance 39.41 km</desc>
<time>2011-05-22T10:12:34.38</time>
<name>8522</name>
<sym>Dot</sym>
</trkpt>
<trkpt lat="39.824632" lon="-8.469990">
<ele>200.0</ele>
<desc>Speed 28.2 km/h Distance 39.41 km</desc>
<time>2011-05-22T10:12:35.38</time>
<name>8523</name>
<sym>Dot</sym>
</trkpt>
<trkpt lat="39.824575" lon="-8.470043">
<ele>200.0</ele>
<desc>Speed 28.2 km/h Distance 39.42 km</desc>
<time>2011-05-22T10:12:36.37</time>
<name>8524</name>
<sym>Dot</sym>
</trkpt>
<trkpt lat="39.824520" lon="-8.470097">
<ele>200.0</ele>
<desc>Speed 28.3 km/h Distance 39.43 km</desc>
<time>2011-05-22T10:12:37.37</time>
<name>8525</name>
<sym>Dot</sym>
</trkpt>
<trkpt lat="39.824463" lon="-8.470153">
<ele>199.5</ele>
<desc>Speed 28.7 km/h Distance 39.44 km</desc>
<time>2011-05-22T10:12:38.36</time>
<name>8526</name>
<sym>Dot</sym>
</trkpt>
<trkpt lat="39.824407" lon="-8.470210">
<ele>199.5</ele>
<desc>Speed 28.4 km/h Distance 39.44 km</desc>
<time>2011-05-22T10:12:39.36</time>
<name>8527</name>
<sym>Dot</sym>
</trkpt>
<trkpt lat="39.824350" lon="-8.470265">
<ele>199.0</ele>
<desc>Speed 28.6 km/h Distance 39.45 km</desc>
<time>2011-05-22T10:12:40.36</time>
<name>8528</name>
<sym>Dot</sym>
</trkpt>
<trkpt lat="39.824292" lon="-8.470320">
<ele>199.0</ele>
<desc>Speed 29.0 km/h Distance 39.46 km</desc>
<time>2011-05-22T10:12:41.36</time>
<name>8529</name>
<sym>Dot</sym>
</trkpt>
<trkpt lat="39.824235" lon="-8.470380">
<ele>199.0</ele>
<desc>Speed 29.3 km/h Distance 39.47 km</desc>
<time>2011-05-22T10:12:42.35</time>
<name>8530</name>
<sym>Dot</sym>
</trkpt>
<trkpt lat="39.824178" lon="-8.470440">
<ele>198.5</ele>
<desc>Speed 29.3 km/h Distance 39.48 km</desc>
<time>2011-05-22T10:12:43.34</time>
<name>8531</name>
<sym>Dot</sym>
</trkpt>
<trkpt lat="39.824125" lon="-8.470507">
<ele>198.0</ele>
<desc>Speed 29.8 km/h Distance 39.48 km</desc>
<time>2011-05-22T10:12:44.34</time>
<name>8532</name>
<sym>Dot</sym>
</trkpt>
<trkpt lat="39.824070" lon="-8.470572">
<ele>198.0</ele>
<desc>Speed 30.1 km/h Distance 39.49 km</desc>
<time>2011-05-22T10:12:45.34</time>
<name>8533</name>
<sym>Dot</sym>
</trkpt>
<trkpt lat="39.824013" lon="-8.470637">
<ele>197.5</ele>
<desc>Speed 30.3 km/h Distance 39.50 km</desc>
<time>2011-05-22T10:12:46.33</time>
<name>8534</name>
<sym>Dot</sym>
</trkpt>
<trkpt lat="39.823960" lon="-8.470705">
<ele>197.5</ele>
<desc>Speed 30.3 km/h Distance 39.51 km</desc>
<time>2011-05-22T10:12:47.33</time>
<name>8535</name>
<sym>Dot</sym>
</trkpt>
<trkpt lat="39.823905" lon="-8.470773">
<ele>197.0</ele>
<desc>Speed 30.5 km/h Distance 39.52 km</desc>
<time>2011-05-22T10:12:48.33</time>
<name>8536</name>
<sym>Dot</sym>
</trkpt>
<trkpt lat="39.823850" lon="-8.470845">
<ele>197.0</ele>
<desc>Speed 30.9 km/h Distance 39.53 km</desc>
<time>2011-05-22T10:12:49.33</time>
<name>8537</name>
<sym>Dot</sym>
</trkpt>
<trkpt lat="39.823798" lon="-8.470918">
<ele>196.5</ele>
<desc>Speed 31.1 km/h Distance 39.54 km</desc>
<time>2011-05-22T10:12:50.32</time>
<name>8538</name>
<sym>Dot</sym>
</trkpt>
<trkpt lat="39.823745" lon="-8.470995">
<ele>196.5</ele>
<desc>Speed 31.5 km/h Distance 39.54 km</desc>
<time>2011-05-22T10:12:51.32</time>
<name>8539</name>
<sym>Dot</sym>
</trkpt>
<trkpt lat="39.823693" lon="-8.471070">
<ele>196.0</ele>
<desc>Speed 31.5 km/h Distance 39.55 km</desc>
<time>2011-05-22T10:12:52.32</time>
<name>8540</name>
<sym>Dot</sym>
</trkpt>
<trkpt lat="39.823642" lon="-8.471148">
<ele>196.0</ele>
<desc>Speed 31.6 km/h Distance 39.56 km</desc>
<time>2011-05-22T10:12:53.31</time>
<name>8541</name>
<sym>Dot</sym>
</trkpt>
<trkpt lat="39.823595" lon="-8.471232">
<ele>195.5</ele>
<desc>Speed 31.7 km/h Distance 39.57 km</desc>
<time>2011-05-22T10:12:54.31</time>
<name>8542</name>
<sym>Dot</sym>
</trkpt>
<trkpt lat="39.823548" lon="-8.471313">
<ele>195.0</ele>
<desc>Speed 31.5 km/h Distance 39.58 km</desc>
<time>2011-05-22T10:12:55.31</time>
<name>8543</name>
<sym>Dot</sym>
</trkpt>
<trkpt lat="39.823503" lon="-8.471397">
<ele>195.0</ele>
<desc>Speed 31.6 km/h Distance 39.59 km</desc>
<time>2011-05-22T10:12:56.30</time>
<name>8544</name>
<sym>Dot</sym>
</trkpt>
<trkpt lat="39.823458" lon="-8.471480">
<ele>195.0</ele>
<desc>Speed 31.5 km/h Distance 39.60 km</desc>
<time>2011-05-22T10:12:57.29</time>
<name>8545</name>
<sym>Dot</sym>
</trkpt>
<trkpt lat="39.823415" lon="-8.471563">
<ele>195.0</ele>
<desc>Speed 30.7 km/h Distance 39.61 km</desc>
<time>2011-05-22T10:12:58.29</time>
<name>8546</name>
<sym>Dot</sym>
</trkpt>
<trkpt lat="39.823377" lon="-8.471647">
<ele>195.0</ele>
<desc>Speed 30.2 km/h Distance 39.61 km</desc>
<time>2011-05-22T10:12:59.29</time>
<name>8547</name>
<sym>Dot</sym>
</trkpt>
<trkpt lat="39.823338" lon="-8.471733">
<ele>195.0</ele>
<desc>Speed 30.6 km/h Distance 39.62 km</desc>
<time>2011-05-22T10:13:00.29</time>
<name>8548</name>
<sym>Dot</sym>
</trkpt>
<trkpt lat="39.823300" lon="-8.471818">
<ele>195.5</ele>
<desc>Speed 30.2 km/h Distance 39.63 km</desc>
<time>2011-05-22T10:13:01.29</time>
<name>8549</name>
<sym>Dot</sym>
</trkpt>
<trkpt lat="39.823267" lon="-8.471900">
<ele>195.5</ele>
<desc>Speed 28.9 km/h Distance 39.64 km</desc>
<time>2011-05-22T10:13:02.28</time>
<name>8550</name>
<sym>Dot</sym>
</trkpt>
<trkpt lat="39.823233" lon="-8.471980">
<ele>195.5</ele>
<desc>Speed 28.4 km/h Distance 39.65 km</desc>
<time>2011-05-22T10:13:03.28</time>
<name>8551</name>
<sym>Dot</sym>
</trkpt>
<trkpt lat="39.823200" lon="-8.472063">
<ele>195.5</ele>
<desc>Speed 28.7 km/h Distance 39.65 km</desc>
<time>2011-05-22T10:13:04.27</time>
<name>8552</name>
<sym>Dot</sym>
</trkpt>
<trkpt lat="39.823170" lon="-8.472145">
<ele>195.5</ele>
<desc>Speed 28.2 km/h Distance 39.66 km</desc>
<time>2011-05-22T10:13:05.26</time>
<name>8553</name>
<sym>Dot</sym>
</trkpt>
<trkpt lat="39.823143" lon="-8.472228">
<ele>195.5</ele>
<desc>Speed 27.8 km/h Distance 39.67 km</desc>
<time>2011-05-22T10:13:06.26</time>
<name>8554</name>
<sym>Dot</sym>
</trkpt>
<trkpt lat="39.823117" lon="-8.472310">
<ele>196.0</ele>
<desc>Speed 27.4 km/h Distance 39.68 km</desc>
<time>2011-05-22T10:13:07.26</time>
<name>8555</name>
<sym>Dot</sym>
</trkpt>
<trkpt lat="39.823092" lon="-8.472392">
<ele>195.5</ele>
<desc>Speed 27.0 km/h Distance 39.68 km</desc>
<time>2011-05-22T10:13:08.25</time>
<name>8556</name>
<sym>Dot</sym>
</trkpt>
<trkpt lat="39.823067" lon="-8.472473">
<ele>196.0</ele>
<desc>Speed 27.1 km/h Distance 39.69 km</desc>
<time>2011-05-22T10:13:09.24</time>
<name>8557</name>
<sym>Dot</sym>
</trkpt>
<trkpt lat="39.823043" lon="-8.472555">
<ele>196.0</ele>
<desc>Speed 26.8 km/h Distance 39.70 km</desc>
<time>2011-05-22T10:13:10.24</time>
<name>8558</name>
<sym>Dot</sym>
</trkpt>
<trkpt lat="39.823022" lon="-8.472637">
<ele>196.0</ele>
<desc>Speed 26.7 km/h Distance 39.71 km</desc>
<time>2011-05-22T10:13:11.23</time>
<name>8559</name>
<sym>Dot</sym>
</trkpt>
<trkpt lat="39.823002" lon="-8.472718">
<ele>196.0</ele>
<desc>Speed 26.6 km/h Distance 39.71 km</desc>
<time>2011-05-22T10:13:12.23</time>
<name>8560</name>
<sym>Dot</sym>
</trkpt>
<trkpt lat="39.822982" lon="-8.472800">
<ele>196.0</ele>
<desc>Speed 26.0 km/h Distance 39.72 km</desc>
<time>2011-05-22T10:13:13.22</time>
<name>8561</name>
<sym>Dot</sym>
</trkpt>
<trkpt lat="39.822963" lon="-8.472878">
<ele>196.0</ele>
<desc>Speed 25.6 km/h Distance 39.73 km</desc>
<time>2011-05-22T10:13:14.21</time>
<name>8562</name>
<sym>Dot</sym>
</trkpt>
<trkpt lat="39.822947" lon="-8.472957">
<ele>196.0</ele>
<desc>Speed 25.1 km/h Distance 39.74 km</desc>
<time>2011-05-22T10:13:15.20</time>
<name>8563</name>
<sym>Dot</sym>
</trkpt>
<trkpt lat="39.822928" lon="-8.473035">
<ele>196.0</ele>
<desc>Speed 24.8 km/h Distance 39.74 km</desc>
<time>2011-05-22T10:13:16.20</time>
<name>8564</name>
<sym>Dot</sym>
</trkpt>
<trkpt lat="39.822913" lon="-8.473112">
<ele>196.0</ele>
<desc>Speed 24.4 km/h Distance 39.75 km</desc>
<time>2011-05-22T10:13:17.20</time>
<name>8565</name>
<sym>Dot</sym>
</trkpt>
<trkpt lat="39.822902" lon="-8.473190">
<ele>195.5</ele>
<desc>Speed 24.3 km/h Distance 39.76 km</desc>
<time>2011-05-22T10:13:18.20</time>
<name>8566</name>
<sym>Dot</sym>
</trkpt>
<trkpt lat="39.822893" lon="-8.473267">
<ele>195.5</ele>
<desc>Speed 24.1 km/h Distance 39.76 km</desc>
<time>2011-05-22T10:13:19.20</time>
<name>8567</name>
<sym>Dot</sym>
</trkpt>
<trkpt lat="39.822887" lon="-8.473343">
<ele>195.5</ele>
<desc>Speed 23.3 km/h Distance 39.77 km</desc>
<time>2011-05-22T10:13:20.20</time>
<name>8568</name>
<sym>Dot</sym>
</trkpt>
<trkpt lat="39.822882" lon="-8.473422">
<ele>195.5</ele>
<desc>Speed 24.1 km/h Distance 39.78 km</desc>
<time>2011-05-22T10:13:21.19</time>
<name>8569</name>
<sym>Dot</sym>
</trkpt>
<trkpt lat="39.822875" lon="-8.473500">
<ele>195.5</ele>
<desc>Speed 24.1 km/h Distance 39.78 km</desc>
<time>2011-05-22T10:13:22.19</time>
<name>8570</name>
<sym>Dot</sym>
</trkpt>
<trkpt lat="39.822867" lon="-8.473577">
<ele>195.5</ele>
<desc>Speed 23.9 km/h Distance 39.79 km</desc>
<time>2011-05-22T10:13:23.19</time>
<name>8571</name>
<sym>Dot</sym>
</trkpt>
<trkpt lat="39.822858" lon="-8.473653">
<ele>195.0</ele>
<desc>Speed 23.5 km/h Distance 39.80 km</desc>
<time>2011-05-22T10:13:24.17</time>
<name>8572</name>
<sym>Dot</sym>
</trkpt>
<trkpt lat="39.822852" lon="-8.473727">
<ele>194.5</ele>
<desc>Speed 23.0 km/h Distance 39.80 km</desc>
<time>2011-05-22T10:13:25.17</time>
<name>8573</name>
<sym>Dot</sym>
</trkpt>
<trkpt lat="39.822847" lon="-8.473798">
<ele>194.5</ele>
<desc>Speed 22.0 km/h Distance 39.81 km</desc>
<time>2011-05-22T10:13:26.17</time>
<name>8574</name>
<sym>Dot</sym>
</trkpt>
<trkpt lat="39.822845" lon="-8.473867">
<ele>194.0</ele>
<desc>Speed 21.3 km/h Distance 39.81 km</desc>
<time>2011-05-22T10:13:27.17</time>
<name>8575</name>
<sym>Dot</sym>
</trkpt>
<trkpt lat="39.822842" lon="-8.473932">
<ele>193.5</ele>
<desc>Speed 20.1 km/h Distance 39.82 km</desc>
<time>2011-05-22T10:13:28.17</time>
<name>8576</name>
<sym>Dot</sym>
</trkpt>
<trkpt lat="39.822833" lon="-8.473993">
<ele>193.5</ele>
<desc>Speed 19.2 km/h Distance 39.83 km</desc>
<time>2011-05-22T10:13:29.16</time>
<name>8577</name>
<sym>Dot</sym>
</trkpt>
<trkpt lat="39.822823" lon="-8.474052">
<ele>193.5</ele>
<desc>Speed 18.2 km/h Distance 39.83 km</desc>
<time>2011-05-22T10:13:30.15</time>
<name>8578</name>
<sym>Dot</sym>
</trkpt>
<trkpt lat="39.822818" lon="-8.474123">
<ele>193.0</ele>
<desc>Speed 22.5 km/h Distance 39.84 km</desc>
<time>2011-05-22T10:13:31.15</time>
<name>8579</name>
<sym>Dot</sym>
</trkpt>
<trkpt lat="39.822815" lon="-8.474180">
<ele>193.0</ele>
<desc>Speed 18.2 km/h Distance 39.84 km</desc>
<time>2011-05-22T10:13:32.15</time>
<name>8580</name>
<sym>Dot</sym>
</trkpt>
<trkpt lat="39.822812" lon="-8.474237">
<ele>193.0</ele>
<desc>Speed 17.1 km/h Distance 39.85 km</desc>
<time>2011-05-22T10:13:33.14</time>
<name>8581</name>
<sym>Dot</sym>
</trkpt>
<trkpt lat="39.822810" lon="-8.474292">
<ele>193.0</ele>
<desc>Speed 17.1 km/h Distance 39.85 km</desc>
<time>2011-05-22T10:13:34.14</time>
<name>8582</name>
<sym>Dot</sym>
</trkpt>
<trkpt lat="39.822805" lon="-8.474345">
<ele>193.0</ele>
<desc>Speed 16.7 km/h Distance 39.86 km</desc>
<time>2011-05-22T10:13:35.13</time>
<name>8583</name>
<sym>Dot</sym>
</trkpt>
<trkpt lat="39.822800" lon="-8.474395">
<ele>193.0</ele>
<desc>Speed 16.1 km/h Distance 39.86 km</desc>
<time>2011-05-22T10:13:36.12</time>
<name>8584</name>
<sym>Dot</sym>
</trkpt>
<trkpt lat="39.822795" lon="-8.474445">
<ele>193.0</ele>
<desc>Speed 15.8 km/h Distance 39.86 km</desc>
<time>2011-05-22T10:13:37.13</time>
<name>8585</name>
<sym>Dot</sym>
</trkpt>
<trkpt lat="39.822788" lon="-8.474495">
<ele>193.0</ele>
<desc>Speed 15.3 km/h Distance 39.87 km</desc>
<time>2011-05-22T10:13:38.11</time>
<name>8586</name>
<sym>Dot</sym>
</trkpt>
<trkpt lat="39.822787" lon="-8.474542">
<ele>193.0</ele>
<desc>Speed 15.0 km/h Distance 39.87 km</desc>
<time>2011-05-22T10:13:39.11</time>
<name>8587</name>
<sym>Dot</sym>
</trkpt>
<trkpt lat="39.822783" lon="-8.474590">
<ele>193.0</ele>
<desc>Speed 15.2 km/h Distance 39.88 km</desc>
<time>2011-05-22T10:13:40.11</time>
<name>8588</name>
<sym>Dot</sym>
</trkpt>
<trkpt lat="39.822778" lon="-8.474637">
<ele>193.0</ele>
<desc>Speed 15.6 km/h Distance 39.88 km</desc>
<time>2011-05-22T10:13:41.10</time>
<name>8589</name>
<sym>Dot</sym>
</trkpt>
<trkpt lat="39.822770" lon="-8.474687">
<ele>193.5</ele>
<desc>Speed 16.1 km/h Distance 39.89 km</desc>
<time>2011-05-22T10:13:42.09</time>
<name>8590</name>
<sym>Dot</sym>
</trkpt>
<trkpt lat="39.822767" lon="-8.474737">
<ele>193.5</ele>
<desc>Speed 16.3 km/h Distance 39.89 km</desc>
<time>2011-05-22T10:13:43.09</time>
<name>8591</name>
<sym>Dot</sym>
</trkpt>
<trkpt lat="39.822767" lon="-8.474790">
<ele>194.0</ele>
<desc>Speed 16.1 km/h Distance 39.89 km</desc>
<time>2011-05-22T10:13:44.09</time>
<name>8592</name>
<sym>Dot</sym>
</trkpt>
<trkpt lat="39.822763" lon="-8.474842">
<ele>194.0</ele>
<desc>Speed 16.4 km/h Distance 39.90 km</desc>
<time>2011-05-22T10:13:45.08</time>
<name>8593</name>
<sym>Dot</sym>
</trkpt>
<trkpt lat="39.822758" lon="-8.474895">
<ele>194.0</ele>
<desc>Speed 16.8 km/h Distance 39.90 km</desc>
<time>2011-05-22T10:13:46.08</time>
<name>8594</name>
<sym>Dot</sym>
</trkpt>
<trkpt lat="39.822752" lon="-8.474947">
<ele>194.0</ele>
<desc>Speed 16.7 km/h Distance 39.91 km</desc>
<time>2011-05-22T10:13:47.07</time>
<name>8595</name>
<sym>Dot</sym>
</trkpt>
<trkpt lat="39.822750" lon="-8.475002">
<ele>193.5</ele>
<desc>Speed 17.0 km/h Distance 39.91 km</desc>
<time>2011-05-22T10:13:48.08</time>
<name>8596</name>
<sym>Dot</sym>
</trkpt>
<trkpt lat="39.822748" lon="-8.475053">
<ele>193.0</ele>
<desc>Speed 16.5 km/h Distance 39.92 km</desc>
<time>2011-05-22T10:13:49.07</time>
<name>8597</name>
<sym>Dot</sym>
</trkpt>
<trkpt lat="39.822743" lon="-8.475105">
<ele>193.0</ele>
<desc>Speed 16.7 km/h Distance 39.92 km</desc>
<time>2011-05-22T10:13:50.07</time>
<name>8598</name>
<sym>Dot</sym>
</trkpt>
<trkpt lat="39.822735" lon="-8.475160">
<ele>192.5</ele>
<desc>Speed 17.0 km/h Distance 39.93 km</desc>
<time>2011-05-22T10:13:51.06</time>
<name>8599</name>
<sym>Dot</sym>
</trkpt>
<trkpt lat="39.822725" lon="-8.475213">
<ele>192.5</ele>
<desc>Speed 17.1 km/h Distance 39.93 km</desc>
<time>2011-05-22T10:13:52.06</time>
<name>8600</name>
<sym>Dot</sym>
</trkpt>
<trkpt lat="39.822717" lon="-8.475267">
<ele>193.0</ele>
<desc>Speed 17.1 km/h Distance 39.94 km</desc>
<time>2011-05-22T10:13:53.06</time>
<name>8601</name>
<sym>Dot</sym>
</trkpt>
<trkpt lat="39.822712" lon="-8.475322">
<ele>193.0</ele>
<desc>Speed 17.1 km/h Distance 39.94 km</desc>
<time>2011-05-22T10:13:54.05</time>
<name>8602</name>
<sym>Dot</sym>
</trkpt>
<trkpt lat="39.822710" lon="-8.475377">
<ele>193.0</ele>
<desc>Speed 17.3 km/h Distance 39.94 km</desc>
<time>2011-05-22T10:13:55.05</time>
<name>8603</name>
<sym>Dot</sym>
</trkpt>
<trkpt lat="39.822708" lon="-8.475435">
<ele>193.5</ele>
<desc>Speed 18.1 km/h Distance 39.95 km</desc>
<time>2011-05-22T10:13:56.04</time>
<name>8604</name>
<sym>Dot</sym>
</trkpt>
<trkpt lat="39.822702" lon="-8.475495">
<ele>193.5</ele>
<desc>Speed 18.5 km/h Distance 39.96 km</desc>
<time>2011-05-22T10:13:57.04</time>
<name>8605</name>
<sym>Dot</sym>
</trkpt>
<trkpt lat="39.822692" lon="-8.475553">
<ele>193.0</ele>
<desc>Speed 18.8 km/h Distance 39.96 km</desc>
<time>2011-05-22T10:13:58.03</time>
<name>8606</name>
<sym>Dot</sym>
</trkpt>
<trkpt lat="39.822672" lon="-8.475610">
<ele>193.0</ele>
<desc>Speed 19.2 km/h Distance 39.97 km</desc>
<time>2011-05-22T10:13:59.03</time>
<name>8607</name>
<sym>Dot</sym>
</trkpt>
<trkpt lat="39.822653" lon="-8.475663">
<ele>193.0</ele>
<desc>Speed 18.8 km/h Distance 39.97 km</desc>
<time>2011-05-22T10:14:00.03</time>
<name>8608</name>
<sym>Dot</sym>
</trkpt>
<trkpt lat="39.822635" lon="-8.475717">
<ele>192.5</ele>
<desc>Speed 17.9 km/h Distance 39.98 km</desc>
<time>2011-05-22T10:14:01.03</time>
<name>8609</name>
<sym>Dot</sym>
</trkpt>
<trkpt lat="39.822612" lon="-8.475768">
<ele>192.0</ele>
<desc>Speed 18.7 km/h Distance 39.98 km</desc>
<time>2011-05-22T10:14:02.02</time>
<name>8610</name>
<sym>Dot</sym>
</trkpt>
<trkpt lat="39.822595" lon="-8.475823">
<ele>192.5</ele>
<desc>Speed 18.4 km/h Distance 39.99 km</desc>
<time>2011-05-22T10:14:03.01</time>
<name>8611</name>
<sym>Dot</sym>
</trkpt>
<trkpt lat="39.822580" lon="-8.475877">
<ele>192.0</ele>
<desc>Speed 17.3 km/h Distance 39.99 km</desc>
<time>2011-05-22T10:14:04.01</time>
<name>8612</name>
<sym>Dot</sym>
</trkpt>
<trkpt lat="39.822557" lon="-8.475923">
<ele>192.5</ele>
<desc>Speed 17.4 km/h Distance 40.00 km</desc>
<time>2011-05-22T10:14:05.00</time>
<name>8613</name>
<sym>Dot</sym>
</trkpt>
<trkpt lat="39.822523" lon="-8.475962">
<ele>192.0</ele>
<desc>Speed 18.1 km/h Distance 40.00 km</desc>
<time>2011-05-22T10:14:06.00</time>
<name>8614</name>
<sym>Dot</sym>
</trkpt>
<trkpt lat="39.822485" lon="-8.475993">
<ele>192.0</ele>
<desc>Speed 18.1 km/h Distance 40.01 km</desc>
<time>2011-05-22T10:14:06.99</time>
<name>8615</name>
<sym>Dot</sym>
</trkpt>
<trkpt lat="39.822442" lon="-8.476008">
<ele>192.0</ele>
<desc>Speed 18.3 km/h Distance 40.01 km</desc>
<time>2011-05-22T10:14:07.99</time>
<name>8616</name>
<sym>Dot</sym>
</trkpt>
<trkpt lat="39.822402" lon="-8.476008">
<ele>192.0</ele>
<desc>Speed 16.7 km/h Distance 40.01 km</desc>
<time>2011-05-22T10:14:08.99</time>
<name>8617</name>
<sym>Dot</sym>
</trkpt>
<trkpt lat="39.822357" lon="-8.475998">
<ele>192.0</ele>
<desc>Speed 18.1 km/h Distance 40.02 km</desc>
<time>2011-05-22T10:14:09.98</time>
<name>8618</name>
<sym>Dot</sym>
</trkpt>
<trkpt lat="39.822308" lon="-8.475993">
<ele>193.0</ele>
<desc>Speed 19.8 km/h Distance 40.03 km</desc>
<time>2011-05-22T10:14:10.98</time>
<name>8619</name>
<sym>Dot</sym>
</trkpt>
<trkpt lat="39.822258" lon="-8.475993">
<ele>193.0</ele>
<desc>Speed 20.5 km/h Distance 40.03 km</desc>
<time>2011-05-22T10:14:11.98</time>
<name>8620</name>
<sym>Dot</sym>
</trkpt>
<trkpt lat="39.822205" lon="-8.475990">
<ele>193.5</ele>
<desc>Speed 21.5 km/h Distance 40.04 km</desc>
<time>2011-05-22T10:14:12.97</time>
<name>8621</name>
<sym>Dot</sym>
</trkpt>
<trkpt lat="39.822150" lon="-8.475977">
<ele>193.5</ele>
<desc>Speed 22.7 km/h Distance 40.04 km</desc>
<time>2011-05-22T10:14:13.97</time>
<name>8622</name>
<sym>Dot</sym>
</trkpt>
<trkpt lat="39.822093" lon="-8.475958">
<ele>193.5</ele>
<desc>Speed 23.4 km/h Distance 40.05 km</desc>
<time>2011-05-22T10:14:14.97</time>
<name>8623</name>
<sym>Dot</sym>
</trkpt>
<trkpt lat="39.822037" lon="-8.475937">
<ele>193.5</ele>
<desc>Speed 23.9 km/h Distance 40.06 km</desc>
<time>2011-05-22T10:14:15.96</time>
<name>8624</name>
<sym>Dot</sym>
</trkpt>
<trkpt lat="39.821982" lon="-8.475912">
<ele>193.5</ele>
<desc>Speed 23.9 km/h Distance 40.06 km</desc>
<time>2011-05-22T10:14:16.96</time>
<name>8625</name>
<sym>Dot</sym>
</trkpt>
<trkpt lat="39.821925" lon="-8.475883">
<ele>193.0</ele>
<desc>Speed 24.2 km/h Distance 40.07 km</desc>
<time>2011-05-22T10:14:17.95</time>
<name>8626</name>
<sym>Dot</sym>
</trkpt>
<trkpt lat="39.821868" lon="-8.475858">
<ele>193.5</ele>
<desc>Speed 24.2 km/h Distance 40.08 km</desc>
<time>2011-05-22T10:14:18.94</time>
<name>8627</name>
<sym>Dot</sym>
</trkpt>
<trkpt lat="39.821815" lon="-8.475833">
<ele>193.0</ele>
<desc>Speed 23.1 km/h Distance 40.08 km</desc>
<time>2011-05-22T10:14:19.94</time>
<name>8628</name>
<sym>Dot</sym>
</trkpt>
<trkpt lat="39.821763" lon="-8.475805">
<ele>193.5</ele>
<desc>Speed 22.3 km/h Distance 40.09 km</desc>
<time>2011-05-22T10:14:20.94</time>
<name>8629</name>
<sym>Dot</sym>
</trkpt>
<trkpt lat="39.821712" lon="-8.475773">
<ele>193.0</ele>
<desc>Speed 23.7 km/h Distance 40.09 km</desc>
<time>2011-05-22T10:14:21.94</time>
<name>8630</name>
<sym>Dot</sym>
</trkpt>
<trkpt lat="39.821657" lon="-8.475743">
<ele>193.0</ele>
<desc>Speed 24.1 km/h Distance 40.10 km</desc>
<time>2011-05-22T10:14:22.93</time>
<name>8631</name>
<sym>Dot</sym>
</trkpt>
<trkpt lat="39.821603" lon="-8.475708">
<ele>193.0</ele>
<desc>Speed 23.7 km/h Distance 40.11 km</desc>
<time>2011-05-22T10:14:23.93</time>
<name>8632</name>
<sym>Dot</sym>
</trkpt>
<trkpt lat="39.821553" lon="-8.475673">
<ele>193.0</ele>
<desc>Speed 23.3 km/h Distance 40.11 km</desc>
<time>2011-05-22T10:14:24.92</time>
<name>8633</name>
<sym>Dot</sym>
</trkpt>
<trkpt lat="39.821500" lon="-8.475638">
<ele>193.0</ele>
<desc>Speed 23.5 km/h Distance 40.12 km</desc>
<time>2011-05-22T10:14:25.93</time>
<name>8634</name>
<sym>Dot</sym>
</trkpt>
<trkpt lat="39.821448" lon="-8.475605">
<ele>193.0</ele>
<desc>Speed 23.4 km/h Distance 40.13 km</desc>
<time>2011-05-22T10:14:26.92</time>
<name>8635</name>
<sym>Dot</sym>
</trkpt>
<trkpt lat="39.821397" lon="-8.475573">
<ele>193.0</ele>
<desc>Speed 23.5 km/h Distance 40.13 km</desc>
<time>2011-05-22T10:14:27.92</time>
<name>8636</name>
<sym>Dot</sym>
</trkpt>
<trkpt lat="39.821343" lon="-8.475542">
<ele>193.0</ele>
<desc>Speed 23.4 km/h Distance 40.14 km</desc>
<time>2011-05-22T10:14:28.91</time>
<name>8637</name>
<sym>Dot</sym>
</trkpt>
<trkpt lat="39.821287" lon="-8.475517">
<ele>193.0</ele>
<desc>Speed 24.2 km/h Distance 40.15 km</desc>
<time>2011-05-22T10:14:29.91</time>
<name>8638</name>
<sym>Dot</sym>
</trkpt>
<trkpt lat="39.821228" lon="-8.475490">
<ele>193.0</ele>
<desc>Speed 24.6 km/h Distance 40.15 km</desc>
<time>2011-05-22T10:14:30.91</time>
<name>8639</name>
<sym>Dot</sym>
</trkpt>
<trkpt lat="39.821172" lon="-8.475462">
<ele>192.5</ele>
<desc>Speed 25.0 km/h Distance 40.16 km</desc>
<time>2011-05-22T10:14:31.90</time>
<name>8640</name>
<sym>Dot</sym>
</trkpt>
<trkpt lat="39.821115" lon="-8.475430">
<ele>192.5</ele>
<desc>Speed 25.3 km/h Distance 40.17 km</desc>
<time>2011-05-22T10:14:32.90</time>
<name>8641</name>
<sym>Dot</sym>
</trkpt>
<trkpt lat="39.821055" lon="-8.475397">
<ele>192.5</ele>
<desc>Speed 26.0 km/h Distance 40.17 km</desc>
<time>2011-05-22T10:14:33.90</time>
<name>8642</name>
<sym>Dot</sym>
</trkpt>
<trkpt lat="39.820995" lon="-8.475365">
<ele>192.0</ele>
<desc>Speed 26.2 km/h Distance 40.18 km</desc>
<time>2011-05-22T10:14:34.90</time>
<name>8643</name>
<sym>Dot</sym>
</trkpt>
<trkpt lat="39.820935" lon="-8.475333">
<ele>192.0</ele>
<desc>Speed 26.4 km/h Distance 40.19 km</desc>
<time>2011-05-22T10:14:35.89</time>
<name>8644</name>
<sym>Dot</sym>
</trkpt>
<trkpt lat="39.820878" lon="-8.475303">
<ele>192.0</ele>
<desc>Speed 25.1 km/h Distance 40.20 km</desc>
<time>2011-05-22T10:14:36.89</time>
<name>8645</name>
<sym>Dot</sym>
</trkpt>
<trkpt lat="39.820818" lon="-8.475273">
<ele>192.0</ele>
<desc>Speed 25.9 km/h Distance 40.20 km</desc>
<time>2011-05-22T10:14:37.89</time>
<name>8646</name>
<sym>Dot</sym>
</trkpt>
<trkpt lat="39.820760" lon="-8.475242">
<ele>191.5</ele>
<desc>Speed 25.7 km/h Distance 40.21 km</desc>
<time>2011-05-22T10:14:38.89</time>
<name>8647</name>
<sym>Dot</sym>
</trkpt>
<trkpt lat="39.820702" lon="-8.475208">
<ele>192.0</ele>
<desc>Speed 25.2 km/h Distance 40.22 km</desc>
<time>2011-05-22T10:14:39.88</time>
<name>8648</name>
<sym>Dot</sym>
</trkpt>
<trkpt lat="39.820648" lon="-8.475172">
<ele>191.5</ele>
<desc>Speed 24.7 km/h Distance 40.22 km</desc>
<time>2011-05-22T10:14:40.88</time>
<name>8649</name>
<sym>Dot</sym>
</trkpt>
<trkpt lat="39.820592" lon="-8.475138">
<ele>191.5</ele>
<desc>Speed 24.6 km/h Distance 40.23 km</desc>
<time>2011-05-22T10:14:41.88</time>
<name>8650</name>
<sym>Dot</sym>
</trkpt>
<trkpt lat="39.820537" lon="-8.475108">
<ele>191.5</ele>
<desc>Speed 24.0 km/h Distance 40.24 km</desc>
<time>2011-05-22T10:14:42.88</time>
<name>8651</name>
<sym>Dot</sym>
</trkpt>
<trkpt lat="39.820483" lon="-8.475078">
<ele>191.5</ele>
<desc>Speed 23.8 km/h Distance 40.24 km</desc>
<time>2011-05-22T10:14:44.11</time>
<name>8652</name>
<sym>Dot</sym>
</trkpt>
<trkpt lat="39.820428" lon="-8.475048">
<ele>191.5</ele>
<desc>Speed 23.6 km/h Distance 40.25 km</desc>
<time>2011-05-22T10:14:44.87</time>
<name>8653</name>
<sym>Dot</sym>
</trkpt>
<trkpt lat="39.820375" lon="-8.475017">
<ele>191.5</ele>
<desc>Speed 23.4 km/h Distance 40.26 km</desc>
<time>2011-05-22T10:14:45.87</time>
<name>8654</name>
<sym>Dot</sym>
</trkpt>
<trkpt lat="39.820322" lon="-8.474990">
<ele>191.5</ele>
<desc>Speed 23.2 km/h Distance 40.26 km</desc>
<time>2011-05-22T10:14:46.86</time>
<name>8655</name>
<sym>Dot</sym>
</trkpt>
<trkpt lat="39.820268" lon="-8.474965">
<ele>191.5</ele>
<desc>Speed 22.7 km/h Distance 40.27 km</desc>
<time>2011-05-22T10:14:47.86</time>
<name>8656</name>
<sym>Dot</sym>
</trkpt>
<trkpt lat="39.820217" lon="-8.474938">
<ele>190.5</ele>
<desc>Speed 22.4 km/h Distance 40.28 km</desc>
<time>2011-05-22T10:14:48.85</time>
<name>8657</name>
<sym>Dot</sym>
</trkpt>
<trkpt lat="39.820163" lon="-8.474912">
<ele>190.5</ele>
<desc>Speed 22.6 km/h Distance 40.28 km</desc>
<time>2011-05-22T10:14:49.86</time>
<name>8658</name>
<sym>Dot</sym>
</trkpt>
<trkpt lat="39.820112" lon="-8.474887">
<ele>190.5</ele>
<desc>Speed 22.3 km/h Distance 40.29 km</desc>
<time>2011-05-22T10:14:50.85</time>
<name>8659</name>
<sym>Dot</sym>
</trkpt>
<trkpt lat="39.820062" lon="-8.474863">
<ele>190.5</ele>
<desc>Speed 21.9 km/h Distance 40.29 km</desc>
<time>2011-05-22T10:14:51.85</time>
<name>8660</name>
<sym>Dot</sym>
</trkpt>
<trkpt lat="39.820010" lon="-8.474838">
<ele>190.5</ele>
<desc>Speed 21.7 km/h Distance 40.30 km</desc>
<time>2011-05-22T10:14:52.85</time>
<name>8661</name>
<sym>Dot</sym>
</trkpt>
<trkpt lat="39.819960" lon="-8.474815">
<ele>190.0</ele>
<desc>Speed 21.6 km/h Distance 40.31 km</desc>
<time>2011-05-22T10:14:53.84</time>
<name>8662</name>
<sym>Dot</sym>
</trkpt>
<trkpt lat="39.819910" lon="-8.474792">
<ele>190.0</ele>
<desc>Speed 21.5 km/h Distance 40.31 km</desc>
<time>2011-05-22T10:14:54.84</time>
<name>8663</name>
<sym>Dot</sym>
</trkpt>
<trkpt lat="39.819862" lon="-8.474768">
<ele>190.0</ele>
<desc>Speed 20.9 km/h Distance 40.32 km</desc>
<time>2011-05-22T10:14:55.83</time>
<name>8664</name>
<sym>Dot</sym>
</trkpt>
<trkpt lat="39.819813" lon="-8.474747">
<ele>190.0</ele>
<desc>Speed 20.7 km/h Distance 40.32 km</desc>
<time>2011-05-22T10:14:56.83</time>
<name>8665</name>
<sym>Dot</sym>
</trkpt>
<trkpt lat="39.819765" lon="-8.474723">
<ele>189.5</ele>
<desc>Speed 20.7 km/h Distance 40.33 km</desc>
<time>2011-05-22T10:14:57.83</time>
<name>8666</name>
<sym>Dot</sym>
</trkpt>
<trkpt lat="39.819717" lon="-8.474702">
<ele>189.5</ele>
<desc>Speed 20.8 km/h Distance 40.34 km</desc>
<time>2011-05-22T10:14:58.82</time>
<name>8667</name>
<sym>Dot</sym>
</trkpt>
<trkpt lat="39.819668" lon="-8.474680">
<ele>189.5</ele>
<desc>Speed 20.3 km/h Distance 40.34 km</desc>
<time>2011-05-22T10:14:59.81</time>
<name>8668</name>
<sym>Dot</sym>
</trkpt>
<trkpt lat="39.819622" lon="-8.474658">
<ele>189.5</ele>
<desc>Speed 20.3 km/h Distance 40.35 km</desc>
<time>2011-05-22T10:15:00.81</time>
<name>8669</name>
<sym>Dot</sym>
</trkpt>
<trkpt lat="39.819575" lon="-8.474635">
<ele>189.5</ele>
<desc>Speed 20.3 km/h Distance 40.35 km</desc>
<time>2011-05-22T10:15:01.81</time>
<name>8670</name>
<sym>Dot</sym>
</trkpt>
<trkpt lat="39.819528" lon="-8.474615">
<ele>189.5</ele>
<desc>Speed 19.5 km/h Distance 40.36 km</desc>
<time>2011-05-22T10:15:02.81</time>
<name>8671</name>
<sym>Dot</sym>
</trkpt>
<trkpt lat="39.819483" lon="-8.474595">
<ele>189.5</ele>
<desc>Speed 19.4 km/h Distance 40.36 km</desc>
<time>2011-05-22T10:15:03.81</time>
<name>8672</name>
<sym>Dot</sym>
</trkpt>
<trkpt lat="39.819437" lon="-8.474572">
<ele>189.5</ele>
<desc>Speed 20.2 km/h Distance 40.37 km</desc>
<time>2011-05-22T10:15:04.80</time>
<name>8673</name>
<sym>Dot</sym>
</trkpt>
<trkpt lat="39.819388" lon="-8.474550">
<ele>189.5</ele>
<desc>Speed 20.8 km/h Distance 40.37 km</desc>
<time>2011-05-22T10:15:05.80</time>
<name>8674</name>
<sym>Dot</sym>
</trkpt>
<trkpt lat="39.819340" lon="-8.474530">
<ele>189.5</ele>
<desc>Speed 20.6 km/h Distance 40.38 km</desc>
<time>2011-05-22T10:15:06.80</time>
<name>8675</name>
<sym>Dot</sym>
</trkpt>
<trkpt lat="39.819290" lon="-8.474508">
<ele>189.5</ele>
<desc>Speed 21.5 km/h Distance 40.39 km</desc>
<time>2011-05-22T10:15:07.80</time>
<name>8676</name>
<sym>Dot</sym>
</trkpt>
<trkpt lat="39.819240" lon="-8.474487">
<ele>189.5</ele>
<desc>Speed 21.6 km/h Distance 40.39 km</desc>
<time>2011-05-22T10:15:08.80</time>
<name>8677</name>
<sym>Dot</sym>
</trkpt>
<trkpt lat="39.819190" lon="-8.474462">
<ele>189.5</ele>
<desc>Speed 21.6 km/h Distance 40.40 km</desc>
<time>2011-05-22T10:15:09.80</time>
<name>8678</name>
<sym>Dot</sym>
</trkpt>
<trkpt lat="39.819140" lon="-8.474438">
<ele>189.0</ele>
<desc>Speed 21.5 km/h Distance 40.40 km</desc>
<time>2011-05-22T10:15:10.79</time>
<name>8679</name>
<sym>Dot</sym>
</trkpt>
<trkpt lat="39.819092" lon="-8.474415">
<ele>189.5</ele>
<desc>Speed 21.0 km/h Distance 40.41 km</desc>
<time>2011-05-22T10:15:11.79</time>
<name>8680</name>
<sym>Dot</sym>
</trkpt>
<trkpt lat="39.819042" lon="-8.474392">
<ele>189.0</ele>
<desc>Speed 21.2 km/h Distance 40.41 km</desc>
<time>2011-05-22T10:15:12.79</time>
<name>8681</name>
<sym>Dot</sym>
</trkpt>
<trkpt lat="39.818993" lon="-8.474367">
<ele>189.0</ele>
<desc>Speed 21.5 km/h Distance 40.42 km</desc>
<time>2011-05-22T10:15:13.79</time>
<name>8682</name>
<sym>Dot</sym>
</trkpt>
<trkpt lat="39.818945" lon="-8.474342">
<ele>189.0</ele>
<desc>Speed 21.4 km/h Distance 40.43 km</desc>
<time>2011-05-22T10:15:14.79</time>
<name>8683</name>
<sym>Dot</sym>
</trkpt>
<trkpt lat="39.818893" lon="-8.474318">
<ele>189.0</ele>
<desc>Speed 21.8 km/h Distance 40.43 km</desc>
<time>2011-05-22T10:15:15.79</time>
<name>8684</name>
<sym>Dot</sym>
</trkpt>
<trkpt lat="39.818842" lon="-8.474297">
<ele>189.5</ele>
<desc>Speed 22.1 km/h Distance 40.44 km</desc>
<time>2011-05-22T10:15:16.78</time>
<name>8685</name>
<sym>Dot</sym>
</trkpt>
<trkpt lat="39.818788" lon="-8.474277">
<ele>189.0</ele>
<desc>Speed 22.4 km/h Distance 40.44 km</desc>
<time>2011-05-22T10:15:17.78</time>
<name>8686</name>
<sym>Dot</sym>
</trkpt>
<trkpt lat="39.818735" lon="-8.474257">
<ele>189.5</ele>
<desc>Speed 22.4 km/h Distance 40.45 km</desc>
<time>2011-05-22T10:15:18.78</time>
<name>8687</name>
<sym>Dot</sym>
</trkpt>
<trkpt lat="39.818683" lon="-8.474233">
<ele>189.5</ele>
<desc>Speed 22.4 km/h Distance 40.46 km</desc>
<time>2011-05-22T10:15:19.78</time>
<name>8688</name>
<sym>Dot</sym>
</trkpt>
<trkpt lat="39.818632" lon="-8.474208">
<ele>189.5</ele>
<desc>Speed 22.2 km/h Distance 40.46 km</desc>
<time>2011-05-22T10:15:20.78</time>
<name>8689</name>
<sym>Dot</sym>
</trkpt>
<trkpt lat="39.818580" lon="-8.474183">
<ele>189.5</ele>
<desc>Speed 22.2 km/h Distance 40.47 km</desc>
<time>2011-05-22T10:15:21.77</time>
<name>8690</name>
<sym>Dot</sym>
</trkpt>
<trkpt lat="39.818530" lon="-8.474160">
<ele>190.0</ele>
<desc>Speed 21.5 km/h Distance 40.48 km</desc>
<time>2011-05-22T10:15:22.77</time>
<name>8691</name>
<sym>Dot</sym>
</trkpt>
<trkpt lat="39.818480" lon="-8.474137">
<ele>189.5</ele>
<desc>Speed 21.6 km/h Distance 40.48 km</desc>
<time>2011-05-22T10:15:23.76</time>
<name>8692</name>
<sym>Dot</sym>
</trkpt>
<trkpt lat="39.818427" lon="-8.474112">
<ele>189.5</ele>
<desc>Speed 22.4 km/h Distance 40.49 km</desc>
<time>2011-05-22T10:15:24.76</time>
<name>8693</name>
<sym>Dot</sym>
</trkpt>
<trkpt lat="39.818373" lon="-8.474088">
<ele>189.0</ele>
<desc>Speed 23.0 km/h Distance 40.49 km</desc>
<time>2011-05-22T10:15:25.75</time>
<name>8694</name>
<sym>Dot</sym>
</trkpt>
<trkpt lat="39.818318" lon="-8.474067">
<ele>189.0</ele>
<desc>Speed 23.0 km/h Distance 40.50 km</desc>
<time>2011-05-22T10:15:26.74</time>
<name>8695</name>
<sym>Dot</sym>
</trkpt>
<trkpt lat="39.818265" lon="-8.474045">
<ele>189.0</ele>
<desc>Speed 23.1 km/h Distance 40.51 km</desc>
<time>2011-05-22T10:15:27.74</time>
<name>8696</name>
<sym>Dot</sym>
</trkpt>
<trkpt lat="39.818210" lon="-8.474022">
<ele>188.5</ele>
<desc>Speed 23.3 km/h Distance 40.51 km</desc>
<time>2011-05-22T10:15:28.73</time>
<name>8697</name>
<sym>Dot</sym>
</trkpt>
<trkpt lat="39.818157" lon="-8.473997">
<ele>188.5</ele>
<desc>Speed 23.2 km/h Distance 40.52 km</desc>
<time>2011-05-22T10:15:29.73</time>
<name>8698</name>
<sym>Dot</sym>
</trkpt>
<trkpt lat="39.818103" lon="-8.473972">
<ele>188.5</ele>
<desc>Speed 23.1 km/h Distance 40.53 km</desc>
<time>2011-05-22T10:15:30.72</time>
<name>8699</name>
<sym>Dot</sym>
</trkpt>
<trkpt lat="39.818050" lon="-8.473945">
<ele>188.5</ele>
<desc>Speed 23.1 km/h Distance 40.53 km</desc>
<time>2011-05-22T10:15:31.72</time>
<name>8700</name>
<sym>Dot</sym>
</trkpt>
<trkpt lat="39.817997" lon="-8.473920">
<ele>188.5</ele>
<desc>Speed 23.0 km/h Distance 40.54 km</desc>
<time>2011-05-22T10:15:32.71</time>
<name>8701</name>
<sym>Dot</sym>
</trkpt>
<trkpt lat="39.817943" lon="-8.473898">
<ele>188.5</ele>
<desc>Speed 22.9 km/h Distance 40.54 km</desc>
<time>2011-05-22T10:15:33.71</time>
<name>8702</name>
<sym>Dot</sym>
</trkpt>
<trkpt lat="39.817888" lon="-8.473873">
<ele>188.5</ele>
<desc>Speed 23.2 km/h Distance 40.55 km</desc>
<time>2011-05-22T10:15:34.71</time>
<name>8703</name>
<sym>Dot</sym>
</trkpt>
<trkpt lat="39.817833" lon="-8.473850">
<ele>188.5</ele>
<desc>Speed 23.3 km/h Distance 40.56 km</desc>
<time>2011-05-22T10:15:35.70</time>
<name>8704</name>
<sym>Dot</sym>
</trkpt>
<trkpt lat="39.817780" lon="-8.473827">
<ele>188.5</ele>
<desc>Speed 23.1 km/h Distance 40.56 km</desc>
<time>2011-05-22T10:15:36.70</time>
<name>8705</name>
<sym>Dot</sym>
</trkpt>
<trkpt lat="39.817725" lon="-8.473802">
<ele>188.5</ele>
<desc>Speed 23.4 km/h Distance 40.57 km</desc>
<time>2011-05-22T10:15:37.70</time>
<name>8706</name>
<sym>Dot</sym>
</trkpt>
<trkpt lat="39.817670" lon="-8.473777">
<ele>188.5</ele>
<desc>Speed 23.5 km/h Distance 40.58 km</desc>
<time>2011-05-22T10:15:38.70</time>
<name>8707</name>
<sym>Dot</sym>
</trkpt>
<trkpt lat="39.817615" lon="-8.473753">
<ele>188.5</ele>
<desc>Speed 23.4 km/h Distance 40.58 km</desc>
<time>2011-05-22T10:15:39.70</time>
<name>8708</name>
<sym>Dot</sym>
</trkpt>
<trkpt lat="39.817560" lon="-8.473728">
<ele>188.5</ele>
<desc>Speed 23.5 km/h Distance 40.59 km</desc>
<time>2011-05-22T10:15:40.69</time>
<name>8709</name>
<sym>Dot</sym>
</trkpt>
<trkpt lat="39.817505" lon="-8.473703">
<ele>188.0</ele>
<desc>Speed 23.5 km/h Distance 40.60 km</desc>
<time>2011-05-22T10:15:41.69</time>
<name>8710</name>
<sym>Dot</sym>
</trkpt>
<trkpt lat="39.817450" lon="-8.473678">
<ele>188.0</ele>
<desc>Speed 23.7 km/h Distance 40.60 km</desc>
<time>2011-05-22T10:15:42.68</time>
<name>8711</name>
<sym>Dot</sym>
</trkpt>
<trkpt lat="39.817393" lon="-8.473653">
<ele>188.0</ele>
<desc>Speed 23.8 km/h Distance 40.61 km</desc>
<time>2011-05-22T10:15:43.68</time>
<name>8712</name>
<sym>Dot</sym>
</trkpt>
<trkpt lat="39.817338" lon="-8.473628">
<ele>188.0</ele>
<desc>Speed 23.7 km/h Distance 40.62 km</desc>
<time>2011-05-22T10:15:44.67</time>
<name>8713</name>
<sym>Dot</sym>
</trkpt>
<trkpt lat="39.817283" lon="-8.473602">
<ele>188.0</ele>
<desc>Speed 23.9 km/h Distance 40.62 km</desc>
<time>2011-05-22T10:15:45.67</time>
<name>8714</name>
<sym>Dot</sym>
</trkpt>
<trkpt lat="39.817227" lon="-8.473575">
<ele>188.0</ele>
<desc>Speed 24.2 km/h Distance 40.63 km</desc>
<time>2011-05-22T10:15:46.67</time>
<name>8715</name>
<sym>Dot</sym>
</trkpt>
<trkpt lat="39.817170" lon="-8.473548">
<ele>188.0</ele>
<desc>Speed 24.4 km/h Distance 40.64 km</desc>
<time>2011-05-22T10:15:47.67</time>
<name>8716</name>
<sym>Dot</sym>
</trkpt>
<trkpt lat="39.817113" lon="-8.473520">
<ele>188.0</ele>
<desc>Speed 24.3 km/h Distance 40.64 km</desc>
<time>2011-05-22T10:15:48.67</time>
<name>8717</name>
<sym>Dot</sym>
</trkpt>
<trkpt lat="39.817055" lon="-8.473492">
<ele>188.0</ele>
<desc>Speed 24.8 km/h Distance 40.65 km</desc>
<time>2011-05-22T10:15:49.66</time>
<name>8718</name>
<sym>Dot</sym>
</trkpt>
<trkpt lat="39.816998" lon="-8.473465">
<ele>188.0</ele>
<desc>Speed 24.5 km/h Distance 40.66 km</desc>
<time>2011-05-22T10:15:50.66</time>
<name>8719</name>
<sym>Dot</sym>
</trkpt>
<trkpt lat="39.816938" lon="-8.473438">
<ele>188.0</ele>
<desc>Speed 25.0 km/h Distance 40.66 km</desc>
<time>2011-05-22T10:15:51.66</time>
<name>8720</name>
<sym>Dot</sym>
</trkpt>
<trkpt lat="39.816878" lon="-8.473412">
<ele>188.5</ele>
<desc>Speed 25.4 km/h Distance 40.67 km</desc>
<time>2011-05-22T10:15:52.66</time>
<name>8721</name>
<sym>Dot</sym>
</trkpt>
<trkpt lat="39.816818" lon="-8.473385">
<ele>188.5</ele>
<desc>Speed 25.4 km/h Distance 40.68 km</desc>
<time>2011-05-22T10:15:53.65</time>
<name>8722</name>
<sym>Dot</sym>
</trkpt>
<trkpt lat="39.816758" lon="-8.473360">
<ele>188.5</ele>
<desc>Speed 25.5 km/h Distance 40.68 km</desc>
<time>2011-05-22T10:15:54.65</time>
<name>8723</name>
<sym>Dot</sym>
</trkpt>
<trkpt lat="39.816698" lon="-8.473332">
<ele>188.0</ele>
<desc>Speed 25.7 km/h Distance 40.69 km</desc>
<time>2011-05-22T10:15:55.65</time>
<name>8724</name>
<sym>Dot</sym>
</trkpt>
<trkpt lat="39.816638" lon="-8.473303">
<ele>188.0</ele>
<desc>Speed 25.5 km/h Distance 40.70 km</desc>
<time>2011-05-22T10:15:56.65</time>
<name>8725</name>
<sym>Dot</sym>
</trkpt>
<trkpt lat="39.816578" lon="-8.473275">
<ele>188.0</ele>
<desc>Speed 25.5 km/h Distance 40.71 km</desc>
<time>2011-05-22T10:15:57.64</time>
<name>8726</name>
<sym>Dot</sym>
</trkpt>
<trkpt lat="39.816518" lon="-8.473247">
<ele>188.0</ele>
<desc>Speed 25.7 km/h Distance 40.71 km</desc>
<time>2011-05-22T10:15:58.64</time>
<name>8727</name>
<sym>Dot</sym>
</trkpt>
<trkpt lat="39.816458" lon="-8.473218">
<ele>188.0</ele>
<desc>Speed 25.6 km/h Distance 40.72 km</desc>
<time>2011-05-22T10:15:59.64</time>
<name>8728</name>
<sym>Dot</sym>
</trkpt>
<trkpt lat="39.816397" lon="-8.473190">
<ele>187.5</ele>
<desc>Speed 25.7 km/h Distance 40.73 km</desc>
<time>2011-05-22T10:16:00.64</time>
<name>8729</name>
<sym>Dot</sym>
</trkpt>
<trkpt lat="39.816337" lon="-8.473163">
<ele>187.5</ele>
<desc>Speed 25.6 km/h Distance 40.73 km</desc>
<time>2011-05-22T10:16:01.64</time>
<name>8730</name>
<sym>Dot</sym>
</trkpt>
<trkpt lat="39.816275" lon="-8.473140">
<ele>187.5</ele>
<desc>Speed 25.7 km/h Distance 40.74 km</desc>
<time>2011-05-22T10:16:02.63</time>
<name>8731</name>
<sym>Dot</sym>
</trkpt>
<trkpt lat="39.816213" lon="-8.473118">
<ele>187.5</ele>
<desc>Speed 26.0 km/h Distance 40.75 km</desc>
<time>2011-05-22T10:16:03.63</time>
<name>8732</name>
<sym>Dot</sym>
</trkpt>
<trkpt lat="39.816152" lon="-8.473090">
<ele>187.5</ele>
<desc>Speed 26.0 km/h Distance 40.76 km</desc>
<time>2011-05-22T10:16:04.63</time>
<name>8733</name>
<sym>Dot</sym>
</trkpt>
<trkpt lat="39.816093" lon="-8.473058">
<ele>187.5</ele>
<desc>Speed 25.5 km/h Distance 40.76 km</desc>
<time>2011-05-22T10:16:05.63</time>
<name>8734</name>
<sym>Dot</sym>
</trkpt>
<trkpt lat="39.816037" lon="-8.473030">
<ele>187.5</ele>
<desc>Speed 24.8 km/h Distance 40.77 km</desc>
<time>2011-05-22T10:16:06.62</time>
<name>8735</name>
<sym>Dot</sym>
</trkpt>
<trkpt lat="39.815978" lon="-8.473003">
<ele>187.5</ele>
<desc>Speed 24.7 km/h Distance 40.78 km</desc>
<time>2011-05-22T10:16:07.62</time>
<name>8736</name>
<sym>Dot</sym>
</trkpt>
<trkpt lat="39.815922" lon="-8.472977">
<ele>187.5</ele>
<desc>Speed 24.4 km/h Distance 40.78 km</desc>
<time>2011-05-22T10:16:08.62</time>
<name>8737</name>
<sym>Dot</sym>
</trkpt>
<trkpt lat="39.815865" lon="-8.472952">
<ele>187.0</ele>
<desc>Speed 23.9 km/h Distance 40.79 km</desc>
<time>2011-05-22T10:16:09.62</time>
<name>8738</name>
<sym>Dot</sym>
</trkpt>
<trkpt lat="39.815808" lon="-8.472927">
<ele>187.0</ele>
<desc>Speed 24.2 km/h Distance 40.80 km</desc>
<time>2011-05-22T10:16:10.61</time>
<name>8739</name>
<sym>Dot</sym>
</trkpt>
<trkpt lat="39.815750" lon="-8.472902">
<ele>187.0</ele>
<desc>Speed 24.8 km/h Distance 40.80 km</desc>
<time>2011-05-22T10:16:11.61</time>
<name>8740</name>
<sym>Dot</sym>
</trkpt>
<trkpt lat="39.815690" lon="-8.472875">
<ele>187.0</ele>
<desc>Speed 25.4 km/h Distance 40.81 km</desc>
<time>2011-05-22T10:16:12.61</time>
<name>8741</name>
<sym>Dot</sym>
</trkpt>
<trkpt lat="39.815630" lon="-8.472848">
<ele>187.0</ele>
<desc>Speed 25.8 km/h Distance 40.82 km</desc>
<time>2011-05-22T10:16:13.60</time>
<name>8742</name>
<sym>Dot</sym>
</trkpt>
<trkpt lat="39.815568" lon="-8.472820">
<ele>187.0</ele>
<desc>Speed 26.1 km/h Distance 40.82 km</desc>
<time>2011-05-22T10:16:14.60</time>
<name>8743</name>
<sym>Dot</sym>
</trkpt>
<trkpt lat="39.815507" lon="-8.472793">
<ele>187.0</ele>
<desc>Speed 26.4 km/h Distance 40.83 km</desc>
<time>2011-05-22T10:16:15.59</time>
<name>8744</name>
<sym>Dot</sym>
</trkpt>
<trkpt lat="39.815445" lon="-8.472763">
<ele>187.0</ele>
<desc>Speed 26.2 km/h Distance 40.84 km</desc>
<time>2011-05-22T10:16:16.58</time>
<name>8745</name>
<sym>Dot</sym>
</trkpt>
<trkpt lat="39.815383" lon="-8.472737">
<ele>186.5</ele>
<desc>Speed 26.3 km/h Distance 40.85 km</desc>
<time>2011-05-22T10:16:17.58</time>
<name>8746</name>
<sym>Dot</sym>
</trkpt>
<trkpt lat="39.815323" lon="-8.472708">
<ele>186.5</ele>
<desc>Speed 26.1 km/h Distance 40.85 km</desc>
<time>2011-05-22T10:16:18.58</time>
<name>8747</name>
<sym>Dot</sym>
</trkpt>
<trkpt lat="39.815263" lon="-8.472682">
<ele>186.5</ele>
<desc>Speed 26.0 km/h Distance 40.86 km</desc>
<time>2011-05-22T10:16:19.57</time>
<name>8748</name>
<sym>Dot</sym>
</trkpt>
<trkpt lat="39.815202" lon="-8.472652">
<ele>186.5</ele>
<desc>Speed 25.9 km/h Distance 40.87 km</desc>
<time>2011-05-22T10:16:20.57</time>
<name>8749</name>
<sym>Dot</sym>
</trkpt>
<trkpt lat="39.815142" lon="-8.472623">
<ele>186.5</ele>
<desc>Speed 25.8 km/h Distance 40.87 km</desc>
<time>2011-05-22T10:16:21.57</time>
<name>8750</name>
<sym>Dot</sym>
</trkpt>
<trkpt lat="39.815083" lon="-8.472597">
<ele>186.5</ele>
<desc>Speed 25.0 km/h Distance 40.88 km</desc>
<time>2011-05-22T10:16:22.57</time>
<name>8751</name>
<sym>Dot</sym>
</trkpt>
<trkpt lat="39.815028" lon="-8.472567">
<ele>187.0</ele>
<desc>Speed 24.6 km/h Distance 40.89 km</desc>
<time>2011-05-22T10:16:23.56</time>
<name>8752</name>
<sym>Dot</sym>
</trkpt>
<trkpt lat="39.814973" lon="-8.472537">
<ele>187.0</ele>
<desc>Speed 23.8 km/h Distance 40.89 km</desc>
<time>2011-05-22T10:16:24.56</time>
<name>8753</name>
<sym>Dot</sym>
</trkpt>
<trkpt lat="39.814920" lon="-8.472508">
<ele>187.0</ele>
<desc>Speed 23.3 km/h Distance 40.90 km</desc>
<time>2011-05-22T10:16:25.56</time>
<name>8754</name>
<sym>Dot</sym>
</trkpt>
<trkpt lat="39.814868" lon="-8.472483">
<ele>187.0</ele>
<desc>Speed 22.8 km/h Distance 40.91 km</desc>
<time>2011-05-22T10:16:26.56</time>
<name>8755</name>
<sym>Dot</sym>
</trkpt>
<trkpt lat="39.814815" lon="-8.472460">
<ele>187.0</ele>
<desc>Speed 22.3 km/h Distance 40.91 km</desc>
<time>2011-05-22T10:16:27.56</time>
<name>8756</name>
<sym>Dot</sym>
</trkpt>
<trkpt lat="39.814762" lon="-8.472435">
<ele>187.0</ele>
<desc>Speed 22.8 km/h Distance 40.92 km</desc>
<time>2011-05-22T10:16:28.55</time>
<name>8757</name>
<sym>Dot</sym>
</trkpt>
<trkpt lat="39.814707" lon="-8.472410">
<ele>187.0</ele>
<desc>Speed 23.4 km/h Distance 40.93 km</desc>
<time>2011-05-22T10:16:29.54</time>
<name>8758</name>
<sym>Dot</sym>
</trkpt>
<trkpt lat="39.814652" lon="-8.472387">
<ele>187.0</ele>
<desc>Speed 23.6 km/h Distance 40.93 km</desc>
<time>2011-05-22T10:16:30.54</time>
<name>8759</name>
<sym>Dot</sym>
</trkpt>
<trkpt lat="39.814597" lon="-8.472360">
<ele>187.5</ele>
<desc>Speed 24.0 km/h Distance 40.94 km</desc>
<time>2011-05-22T10:16:31.54</time>
<name>8760</name>
<sym>Dot</sym>
</trkpt>
<trkpt lat="39.814538" lon="-8.472335">
<ele>187.0</ele>
<desc>Speed 24.5 km/h Distance 40.95 km</desc>
<time>2011-05-22T10:16:32.53</time>
<name>8761</name>
<sym>Dot</sym>
</trkpt>
<trkpt lat="39.814482" lon="-8.472308">
<ele>187.0</ele>
<desc>Speed 24.8 km/h Distance 40.95 km</desc>
<time>2011-05-22T10:16:33.53</time>
<name>8762</name>
<sym>Dot</sym>
</trkpt>
<trkpt lat="39.814422" lon="-8.472283">
<ele>187.0</ele>
<desc>Speed 25.0 km/h Distance 40.96 km</desc>
<time>2011-05-22T10:16:34.52</time>
<name>8763</name>
<sym>Dot</sym>
</trkpt>
<trkpt lat="39.814363" lon="-8.472258">
<ele>187.0</ele>
<desc>Speed 24.8 km/h Distance 40.97 km</desc>
<time>2011-05-22T10:16:35.52</time>
<name>8764</name>
<sym>Dot</sym>
</trkpt>
<trkpt lat="39.814305" lon="-8.472233">
<ele>187.0</ele>
<desc>Speed 24.8 km/h Distance 40.97 km</desc>
<time>2011-05-22T10:16:36.51</time>
<name>8765</name>
<sym>Dot</sym>
</trkpt>
<trkpt lat="39.814247" lon="-8.472207">
<ele>187.0</ele>
<desc>Speed 24.9 km/h Distance 40.98 km</desc>
<time>2011-05-22T10:16:37.51</time>
<name>8766</name>
<sym>Dot</sym>
</trkpt>
<trkpt lat="39.814187" lon="-8.472182">
<ele>187.0</ele>
<desc>Speed 25.1 km/h Distance 40.99 km</desc>
<time>2011-05-22T10:16:38.51</time>
<name>8767</name>
<sym>Dot</sym>
</trkpt>
<trkpt lat="39.814128" lon="-8.472155">
<ele>187.0</ele>
<desc>Speed 25.1 km/h Distance 40.99 km</desc>
<time>2011-05-22T10:16:39.51</time>
<name>8768</name>
<sym>Dot</sym>
</trkpt>
<trkpt lat="39.814070" lon="-8.472128">
<ele>186.5</ele>
<desc>Speed 24.8 km/h Distance 41.00 km</desc>
<time>2011-05-22T10:16:40.50</time>
<name>8769</name>
<sym>Dot</sym>
</trkpt>
<trkpt lat="39.814012" lon="-8.472102">
<ele>187.0</ele>
<desc>Speed 24.6 km/h Distance 41.01 km</desc>
<time>2011-05-22T10:16:41.50</time>
<name>8770</name>
<sym>Dot</sym>
</trkpt>
<trkpt lat="39.813957" lon="-8.472075">
<ele>187.0</ele>
<desc>Speed 24.2 km/h Distance 41.01 km</desc>
<time>2011-05-22T10:16:42.49</time>
<name>8771</name>
<sym>Dot</sym>
</trkpt>
<trkpt lat="39.813900" lon="-8.472048">
<ele>187.0</ele>
<desc>Speed 23.9 km/h Distance 41.02 km</desc>
<time>2011-05-22T10:16:43.49</time>
<name>8772</name>
<sym>Dot</sym>
</trkpt>
<trkpt lat="39.813845" lon="-8.472022">
<ele>187.5</ele>
<desc>Speed 23.6 km/h Distance 41.03 km</desc>
<time>2011-05-22T10:16:44.48</time>
<name>8773</name>
<sym>Dot</sym>
</trkpt>
<trkpt lat="39.813788" lon="-8.471998">
<ele>187.5</ele>
<desc>Speed 24.0 km/h Distance 41.03 km</desc>
<time>2011-05-22T10:16:45.48</time>
<name>8774</name>
<sym>Dot</sym>
</trkpt>
<trkpt lat="39.813732" lon="-8.471977">
<ele>187.5</ele>
<desc>Speed 24.1 km/h Distance 41.04 km</desc>
<time>2011-05-22T10:16:46.48</time>
<name>8775</name>
<sym>Dot</sym>
</trkpt>
<trkpt lat="39.813675" lon="-8.471952">
<ele>187.5</ele>
<desc>Speed 24.0 km/h Distance 41.05 km</desc>
<time>2011-05-22T10:16:47.48</time>
<name>8776</name>
<sym>Dot</sym>
</trkpt>
<trkpt lat="39.813618" lon="-8.471925">
<ele>187.5</ele>
<desc>Speed 24.2 km/h Distance 41.05 km</desc>
<time>2011-05-22T10:16:48.48</time>
<name>8777</name>
<sym>Dot</sym>
</trkpt>
<trkpt lat="39.813562" lon="-8.471898">
<ele>187.0</ele>
<desc>Speed 24.3 km/h Distance 41.06 km</desc>
<time>2011-05-22T10:16:49.47</time>
<name>8778</name>
<sym>Dot</sym>
</trkpt>
<trkpt lat="39.813505" lon="-8.471870">
<ele>187.0</ele>
<desc>Speed 24.3 km/h Distance 41.07 km</desc>
<time>2011-05-22T10:16:50.47</time>
<name>8779</name>
<sym>Dot</sym>
</trkpt>
<trkpt lat="39.813450" lon="-8.471840">
<ele>187.0</ele>
<desc>Speed 24.4 km/h Distance 41.07 km</desc>
<time>2011-05-22T10:16:51.47</time>
<name>8780</name>
<sym>Dot</sym>
</trkpt>
<trkpt lat="39.813393" lon="-8.471808">
<ele>187.0</ele>
<desc>Speed 24.6 km/h Distance 41.08 km</desc>
<time>2011-05-22T10:16:52.47</time>
<name>8781</name>
<sym>Dot</sym>
</trkpt>
<trkpt lat="39.813337" lon="-8.471778">
<ele>186.5</ele>
<desc>Speed 24.7 km/h Distance 41.09 km</desc>
<time>2011-05-22T10:16:53.47</time>
<name>8782</name>
<sym>Dot</sym>
</trkpt>
<trkpt lat="39.813280" lon="-8.471747">
<ele>186.5</ele>
<desc>Speed 24.7 km/h Distance 41.10 km</desc>
<time>2011-05-22T10:16:54.46</time>
<name>8783</name>
<sym>Dot</sym>
</trkpt>
<trkpt lat="39.813225" lon="-8.471715">
<ele>186.5</ele>
<desc>Speed 24.7 km/h Distance 41.10 km</desc>
<time>2011-05-22T10:16:55.46</time>
<name>8784</name>
<sym>Dot</sym>
</trkpt>
<trkpt lat="39.813170" lon="-8.471682">
<ele>186.0</ele>
<desc>Speed 24.5 km/h Distance 41.11 km</desc>
<time>2011-05-22T10:16:56.46</time>
<name>8785</name>
<sym>Dot</sym>
</trkpt>
<trkpt lat="39.813115" lon="-8.471647">
<ele>186.0</ele>
<desc>Speed 24.3 km/h Distance 41.12 km</desc>
<time>2011-05-22T10:16:57.46</time>
<name>8786</name>
<sym>Dot</sym>
</trkpt>
<trkpt lat="39.813062" lon="-8.471613">
<ele>186.0</ele>
<desc>Speed 24.2 km/h Distance 41.12 km</desc>
<time>2011-05-22T10:16:58.46</time>
<name>8787</name>
<sym>Dot</sym>
</trkpt>
<trkpt lat="39.813008" lon="-8.471578">
<ele>186.0</ele>
<desc>Speed 24.0 km/h Distance 41.13 km</desc>
<time>2011-05-22T10:16:59.45</time>
<name>8788</name>
<sym>Dot</sym>
</trkpt>
<trkpt lat="39.812955" lon="-8.471542">
<ele>186.0</ele>
<desc>Speed 23.9 km/h Distance 41.14 km</desc>
<time>2011-05-22T10:17:00.44</time>
<name>8789</name>
<sym>Dot</sym>
</trkpt>
<trkpt lat="39.812903" lon="-8.471507">
<ele>186.0</ele>
<desc>Speed 23.9 km/h Distance 41.14 km</desc>
<time>2011-05-22T10:17:01.44</time>
<name>8790</name>
<sym>Dot</sym>
</trkpt>
<trkpt lat="39.812852" lon="-8.471472">
<ele>186.0</ele>
<desc>Speed 23.8 km/h Distance 41.15 km</desc>
<time>2011-05-22T10:17:02.44</time>
<name>8791</name>
<sym>Dot</sym>
</trkpt>
<trkpt lat="39.812798" lon="-8.471437">
<ele>186.0</ele>
<desc>Speed 23.9 km/h Distance 41.16 km</desc>
<time>2011-05-22T10:17:03.44</time>
<name>8792</name>
<sym>Dot</sym>
</trkpt>
<trkpt lat="39.812747" lon="-8.471403">
<ele>186.5</ele>
<desc>Speed 23.9 km/h Distance 41.16 km</desc>
<time>2011-05-22T10:17:04.43</time>
<name>8793</name>
<sym>Dot</sym>
</trkpt>
<trkpt lat="39.812693" lon="-8.471368">
<ele>186.0</ele>
<desc>Speed 23.7 km/h Distance 41.17 km</desc>
<time>2011-05-22T10:17:05.43</time>
<name>8794</name>
<sym>Dot</sym>
</trkpt>
<trkpt lat="39.812643" lon="-8.471333">
<ele>186.5</ele>
<desc>Speed 23.3 km/h Distance 41.17 km</desc>
<time>2011-05-22T10:17:06.43</time>
<name>8795</name>
<sym>Dot</sym>
</trkpt>
<trkpt lat="39.812593" lon="-8.471297">
<ele>186.5</ele>
<desc>Speed 23.3 km/h Distance 41.18 km</desc>
<time>2011-05-22T10:17:07.43</time>
<name>8796</name>
<sym>Dot</sym>
</trkpt>
<trkpt lat="39.812542" lon="-8.471263">
<ele>186.5</ele>
<desc>Speed 23.3 km/h Distance 41.19 km</desc>
<time>2011-05-22T10:17:08.43</time>
<name>8797</name>
<sym>Dot</sym>
</trkpt>
<trkpt lat="39.812490" lon="-8.471232">
<ele>186.0</ele>
<desc>Speed 23.4 km/h Distance 41.19 km</desc>
<time>2011-05-22T10:17:09.42</time>
<name>8798</name>
<sym>Dot</sym>
</trkpt>
<trkpt lat="39.812438" lon="-8.471197">
<ele>186.0</ele>
<desc>Speed 23.7 km/h Distance 41.20 km</desc>
<time>2011-05-22T10:17:10.42</time>
<name>8799</name>
<sym>Dot</sym>
</trkpt>
<trkpt lat="39.812387" lon="-8.471160">
<ele>186.0</ele>
<desc>Speed 23.8 km/h Distance 41.21 km</desc>
<time>2011-05-22T10:17:11.42</time>
<name>8800</name>
<sym>Dot</sym>
</trkpt>
<trkpt lat="39.812333" lon="-8.471123">
<ele>186.0</ele>
<desc>Speed 23.9 km/h Distance 41.21 km</desc>
<time>2011-05-22T10:17:12.42</time>
<name>8801</name>
<sym>Dot</sym>
</trkpt>
<trkpt lat="39.812280" lon="-8.471088">
<ele>186.0</ele>
<desc>Speed 24.2 km/h Distance 41.22 km</desc>
<time>2011-05-22T10:17:13.42</time>
<name>8802</name>
<sym>Dot</sym>
</trkpt>
<trkpt lat="39.812227" lon="-8.471053">
<ele>186.0</ele>
<desc>Speed 24.2 km/h Distance 41.23 km</desc>
<time>2011-05-22T10:17:14.41</time>
<name>8803</name>
<sym>Dot</sym>
</trkpt>
<trkpt lat="39.812173" lon="-8.471017">
<ele>185.5</ele>
<desc>Speed 24.2 km/h Distance 41.23 km</desc>
<time>2011-05-22T10:17:15.41</time>
<name>8804</name>
<sym>Dot</sym>
</trkpt>
<trkpt lat="39.812122" lon="-8.470982">
<ele>185.5</ele>
<desc>Speed 24.1 km/h Distance 41.24 km</desc>
<time>2011-05-22T10:17:16.40</time>
<name>8805</name>
<sym>Dot</sym>
</trkpt>
<trkpt lat="39.812067" lon="-8.470947">
<ele>185.5</ele>
<desc>Speed 24.2 km/h Distance 41.25 km</desc>
<time>2011-05-22T10:17:17.40</time>
<name>8806</name>
<sym>Dot</sym>
</trkpt>
<trkpt lat="39.812013" lon="-8.470910">
<ele>185.5</ele>
<desc>Speed 24.5 km/h Distance 41.25 km</desc>
<time>2011-05-22T10:17:18.40</time>
<name>8807</name>
<sym>Dot</sym>
</trkpt>
<trkpt lat="39.811960" lon="-8.470873">
<ele>185.5</ele>
<desc>Speed 24.7 km/h Distance 41.26 km</desc>
<time>2011-05-22T10:17:19.39</time>
<name>8808</name>
<sym>Dot</sym>
</trkpt>
<trkpt lat="39.811905" lon="-8.470837">
<ele>185.5</ele>
<desc>Speed 24.6 km/h Distance 41.27 km</desc>
<time>2011-05-22T10:17:20.39</time>
<name>8809</name>
<sym>Dot</sym>
</trkpt>
<trkpt lat="39.811853" lon="-8.470798">
<ele>185.5</ele>
<desc>Speed 24.2 km/h Distance 41.27 km</desc>
<time>2011-05-22T10:17:21.39</time>
<name>8810</name>
<sym>Dot</sym>
</trkpt>
<trkpt lat="39.811800" lon="-8.470760">
<ele>185.5</ele>
<desc>Speed 24.3 km/h Distance 41.28 km</desc>
<time>2011-05-22T10:17:22.38</time>
<name>8811</name>
<sym>Dot</sym>
</trkpt>
<trkpt lat="39.811748" lon="-8.470722">
<ele>185.5</ele>
<desc>Speed 24.0 km/h Distance 41.29 km</desc>
<time>2011-05-22T10:17:23.38</time>
<name>8812</name>
<sym>Dot</sym>
</trkpt>
<trkpt lat="39.811698" lon="-8.470683">
<ele>185.5</ele>
<desc>Speed 23.7 km/h Distance 41.29 km</desc>
<time>2011-05-22T10:17:24.37</time>
<name>8813</name>
<sym>Dot</sym>
</trkpt>
<trkpt lat="39.811647" lon="-8.470645">
<ele>185.5</ele>
<desc>Speed 23.5 km/h Distance 41.30 km</desc>
<time>2011-05-22T10:17:25.37</time>
<name>8814</name>
<sym>Dot</sym>
</trkpt>
<trkpt lat="39.811597" lon="-8.470608">
<ele>185.5</ele>
<desc>Speed 23.2 km/h Distance 41.31 km</desc>
<time>2011-05-22T10:17:26.37</time>
<name>8815</name>
<sym>Dot</sym>
</trkpt>
<trkpt lat="39.811547" lon="-8.470572">
<ele>185.5</ele>
<desc>Speed 22.9 km/h Distance 41.31 km</desc>
<time>2011-05-22T10:17:27.37</time>
<name>8816</name>
<sym>Dot</sym>
</trkpt>
<trkpt lat="39.811500" lon="-8.470533">
<ele>185.5</ele>
<desc>Speed 22.7 km/h Distance 41.32 km</desc>
<time>2011-05-22T10:17:28.36</time>
<name>8817</name>
<sym>Dot</sym>
</trkpt>
<trkpt lat="39.811453" lon="-8.470495">
<ele>185.5</ele>
<desc>Speed 22.5 km/h Distance 41.33 km</desc>
<time>2011-05-22T10:17:29.35</time>
<name>8818</name>
<sym>Dot</sym>
</trkpt>
<trkpt lat="39.811407" lon="-8.470457">
<ele>185.5</ele>
<desc>Speed 22.1 km/h Distance 41.33 km</desc>
<time>2011-05-22T10:17:30.35</time>
<name>8819</name>
<sym>Dot</sym>
</trkpt>
<trkpt lat="39.811360" lon="-8.470422">
<ele>185.5</ele>
<desc>Speed 21.8 km/h Distance 41.34 km</desc>
<time>2011-05-22T10:17:31.35</time>
<name>8820</name>
<sym>Dot</sym>
</trkpt>
<trkpt lat="39.811313" lon="-8.470385">
<ele>185.5</ele>
<desc>Speed 21.3 km/h Distance 41.34 km</desc>
<time>2011-05-22T10:17:32.35</time>
<name>8821</name>
<sym>Dot</sym>
</trkpt>
<trkpt lat="39.811268" lon="-8.470350">
<ele>185.5</ele>
<desc>Speed 21.1 km/h Distance 41.35 km</desc>
<time>2011-05-22T10:17:33.35</time>
<name>8822</name>
<sym>Dot</sym>
</trkpt>
<trkpt lat="39.811225" lon="-8.470318">
<ele>185.5</ele>
<desc>Speed 20.5 km/h Distance 41.35 km</desc>
<time>2011-05-22T10:17:34.34</time>
<name>8823</name>
<sym>Dot</sym>
</trkpt>
<trkpt lat="39.811182" lon="-8.470288">
<ele>185.5</ele>
<desc>Speed 19.9 km/h Distance 41.36 km</desc>
<time>2011-05-22T10:17:35.34</time>
<name>8824</name>
<sym>Dot</sym>
</trkpt>
<trkpt lat="39.811138" lon="-8.470257">
<ele>185.5</ele>
<desc>Speed 19.8 km/h Distance 41.37 km</desc>
<time>2011-05-22T10:17:36.33</time>
<name>8825</name>
<sym>Dot</sym>
</trkpt>
<trkpt lat="39.811097" lon="-8.470222">
<ele>185.5</ele>
<desc>Speed 19.9 km/h Distance 41.37 km</desc>
<time>2011-05-22T10:17:37.33</time>
<name>8826</name>
<sym>Dot</sym>
</trkpt>
<trkpt lat="39.811055" lon="-8.470187">
<ele>185.5</ele>
<desc>Speed 20.1 km/h Distance 41.38 km</desc>
<time>2011-05-22T10:17:38.33</time>
<name>8827</name>
<sym>Dot</sym>
</trkpt>
<trkpt lat="39.811012" lon="-8.470153">
<ele>185.5</ele>
<desc>Speed 20.3 km/h Distance 41.38 km</desc>
<time>2011-05-22T10:17:39.33</time>
<name>8828</name>
<sym>Dot</sym>
</trkpt>
<trkpt lat="39.810968" lon="-8.470123">
<ele>185.5</ele>
<desc>Speed 19.8 km/h Distance 41.39 km</desc>
<time>2011-05-22T10:17:40.32</time>
<name>8829</name>
<sym>Dot</sym>
</trkpt>
<trkpt lat="39.810925" lon="-8.470093">
<ele>185.5</ele>
<desc>Speed 19.4 km/h Distance 41.39 km</desc>
<time>2011-05-22T10:17:41.32</time>
<name>8830</name>
<sym>Dot</sym>
</trkpt>
<trkpt lat="39.810883" lon="-8.470065">
<ele>185.5</ele>
<desc>Speed 19.2 km/h Distance 41.40 km</desc>
<time>2011-05-22T10:17:42.32</time>
<name>8831</name>
<sym>Dot</sym>
</trkpt>
<trkpt lat="39.810842" lon="-8.470040">
<ele>185.5</ele>
<desc>Speed 18.5 km/h Distance 41.40 km</desc>
<time>2011-05-22T10:17:43.32</time>
<name>8832</name>
<sym>Dot</sym>
</trkpt>
<trkpt lat="39.810798" lon="-8.470017">
<ele>185.0</ele>
<desc>Speed 18.5 km/h Distance 41.41 km</desc>
<time>2011-05-22T10:17:44.32</time>
<name>8833</name>
<sym>Dot</sym>
</trkpt>
<trkpt lat="39.810757" lon="-8.469997">
<ele>185.0</ele>
<desc>Speed 18.1 km/h Distance 41.41 km</desc>
<time>2011-05-22T10:17:45.32</time>
<name>8834</name>
<sym>Dot</sym>
</trkpt>
<trkpt lat="39.810722" lon="-8.469982">
<ele>185.0</ele>
<desc>Speed 15.2 km/h Distance 41.42 km</desc>
<time>2011-05-22T10:17:46.31</time>
<name>8835</name>
<sym>Dot</sym>
</trkpt>
<trkpt lat="39.810693" lon="-8.469972">
<ele>185.0</ele>
<desc>Speed 11.9 km/h Distance 41.42 km</desc>
<time>2011-05-22T10:17:47.31</time>
<name>8836</name>
<sym>Dot</sym>
</trkpt>
<trkpt lat="39.810675" lon="-8.469963">
<ele>184.5</ele>
<desc>Speed 8.1 km/h Distance 41.42 km</desc>
<time>2011-05-22T10:17:48.31</time>
<name>8837</name>
<sym>Dot</sym>
</trkpt>
<trkpt lat="39.810665" lon="-8.469957">
<ele>185.0</ele>
<desc>Speed 4.4 km/h Distance 41.42 km</desc>
<time>2011-05-22T10:17:49.30</time>
<name>8838</name>
<sym>Dot</sym>
</trkpt>
<trkpt lat="39.810662" lon="-8.469952">
<ele>185.0</ele>
<desc>Speed 2.0 km/h Distance 41.43 km</desc>
<time>2011-05-22T10:17:50.30</time>
<name>8839</name>
<sym>Dot</sym>
</trkpt>
<trkpt lat="39.810658" lon="-8.469948">
<ele>185.0</ele>
<desc>Speed 1.1 km/h Distance 41.43 km</desc>
<time>2011-05-22T10:17:55.29</time>
<name>8840</name>
<sym>Dot</sym>
</trkpt>
<trkpt lat="39.810655" lon="-8.469947">
<ele>185.5</ele>
<desc>Speed 1.2 km/h Distance 41.43 km</desc>
<time>2011-05-22T10:17:56.28</time>
<name>8841</name>
<sym>Dot</sym>
</trkpt>
<trkpt lat="39.810652" lon="-8.469945">
<ele>185.5</ele>
<desc>Speed 1.7 km/h Distance 41.43 km</desc>
<time>2011-05-22T10:17:57.28</time>
<name>8842</name>
<sym>Dot</sym>
</trkpt>
<trkpt lat="39.810647" lon="-8.469945">
<ele>185.5</ele>
<desc>Speed 2.4 km/h Distance 41.43 km</desc>
<time>2011-05-22T10:17:58.28</time>
<name>8843</name>
<sym>Dot</sym>
</trkpt>
<trkpt lat="39.810642" lon="-8.469943">
<ele>185.5</ele>
<desc>Speed 1.8 km/h Distance 41.43 km</desc>
<time>2011-05-22T10:17:59.28</time>
<name>8844</name>
<sym>Dot</sym>
</trkpt>
<trkpt lat="39.810640" lon="-8.469942">
<ele>185.5</ele>
<desc>Speed 1.2 km/h Distance 41.43 km</desc>
<time>2011-05-22T10:18:00.28</time>
<name>8845</name>
<sym>Dot</sym>
</trkpt>
<trkpt lat="39.810635" lon="-8.469942">
<ele>184.5</ele>
<desc>Speed 1.8 km/h Distance 41.43 km</desc>
<time>2011-05-22T10:18:10.27</time>
<name>8846</name>
<sym>Dot</sym>
</trkpt>
<trkpt lat="39.810632" lon="-8.469940">
<ele>183.0</ele>
<desc>Speed 1.7 km/h Distance 41.43 km</desc>
<time>2011-05-22T10:18:40.27</time>
<name>8847</name>
<sym>Dot</sym>
</trkpt>
<trkpt lat="39.810628" lon="-8.469935">
<ele>182.5</ele>
<desc>Speed 2.2 km/h Distance 41.43 km</desc>
<time>2011-05-22T10:18:41.27</time>
<name>8848</name>
<sym>Dot</sym>
</trkpt>
<trkpt lat="39.810623" lon="-8.469928">
<ele>182.5</ele>
<desc>Speed 3.3 km/h Distance 41.43 km</desc>
<time>2011-05-22T10:18:42.27</time>
<name>8849</name>
<sym>Dot</sym>
</trkpt>
<trkpt lat="39.810617" lon="-8.469923">
<ele>182.5</ele>
<desc>Speed 3.3 km/h Distance 41.43 km</desc>
<time>2011-05-22T10:18:43.26</time>
<name>8850</name>
<sym>Dot</sym>
</trkpt>
<trkpt lat="39.810610" lon="-8.469918">
<ele>183.0</ele>
<desc>Speed 3.3 km/h Distance 41.43 km</desc>
<time>2011-05-22T10:18:44.26</time>
<name>8851</name>
<sym>Dot</sym>
</trkpt>
<trkpt lat="39.810605" lon="-8.469917">
<ele>183.5</ele>
<desc>Speed 2.4 km/h Distance 41.43 km</desc>
<time>2011-05-22T10:18:45.25</time>
<name>8852</name>
<sym>Dot</sym>
</trkpt>
<trkpt lat="39.810600" lon="-8.469915">
<ele>183.5</ele>
<desc>Speed 2.4 km/h Distance 41.43 km</desc>
<time>2011-05-22T10:18:46.25</time>
<name>8853</name>
<sym>Dot</sym>
</trkpt>
<trkpt lat="39.810597" lon="-8.469915">
<ele>184.0</ele>
<desc>Speed 2.0 km/h Distance 41.43 km</desc>
<time>2011-05-22T10:18:47.24</time>
<name>8854</name>
<sym>Dot</sym>
</trkpt>
<trkpt lat="39.810595" lon="-8.469920">
<ele>184.0</ele>
<desc>Speed 1.3 km/h Distance 41.43 km</desc>
<time>2011-05-22T10:18:48.23</time>
<name>8855</name>
<sym>Dot</sym>
</trkpt>
<trkpt lat="39.810593" lon="-8.469917">
<ele>184.0</ele>
<desc>Speed 1.4 km/h Distance 41.43 km</desc>
<time>2011-05-22T10:18:58.23</time>
<name>8856</name>
<sym>Dot</sym>
</trkpt>
<trkpt lat="39.810603" lon="-8.469915">
<ele>184.0</ele>
<desc>Speed 1.2 km/h Distance 41.44 km</desc>
<time>2011-05-22T10:19:07.23</time>
<name>8857</name>
<sym>Dot</sym>
</trkpt>
<trkpt lat="39.810600" lon="-8.469910">
<ele>184.0</ele>
<desc>Speed 1.4 km/h Distance 41.44 km</desc>
<time>2011-05-22T10:19:08.23</time>
<name>8858</name>
<sym>Dot</sym>
</trkpt>
<trkpt lat="39.810598" lon="-8.469910">
<ele>184.0</ele>
<desc>Speed 1.2 km/h Distance 41.44 km</desc>
<time>2011-05-22T10:19:09.22</time>
<name>8859</name>
<sym>Dot</sym>
</trkpt>
<trkpt lat="39.810598" lon="-8.469912">
<ele>184.5</ele>
<desc>Speed 1.3 km/h Distance 41.44 km</desc>
<time>2011-05-22T10:19:11.22</time>
<name>8860</name>
<sym>Dot</sym>
</trkpt>
<trkpt lat="39.810602" lon="-8.469913">
<ele>184.0</ele>
<desc>Speed 1.1 km/h Distance 41.44 km</desc>
<time>2011-05-22T10:19:12.22</time>
<name>8861</name>
<sym>Dot</sym>
</trkpt>
<trkpt lat="39.810600" lon="-8.469917">
<ele>184.5</ele>
<desc>Speed 1.4 km/h Distance 41.44 km</desc>
<time>2011-05-22T10:19:13.22</time>
<name>8862</name>
<sym>Dot</sym>
</trkpt>
<trkpt lat="39.810603" lon="-8.469922">
<ele>184.0</ele>
<desc>Speed 2.1 km/h Distance 41.44 km</desc>
<time>2011-05-22T10:19:14.21</time>
<name>8863</name>
<sym>Dot</sym>
</trkpt>
<trkpt lat="39.810607" lon="-8.469927">
<ele>183.5</ele>
<desc>Speed 1.2 km/h Distance 41.44 km</desc>
<time>2011-05-22T10:19:15.21</time>
<name>8864</name>
<sym>Dot</sym>
</trkpt>
<trkpt lat="39.810608" lon="-8.469930">
<ele>183.5</ele>
<desc>Speed 1.4 km/h Distance 41.44 km</desc>
<time>2011-05-22T10:19:16.20</time>
<name>8865</name>
<sym>Dot</sym>
</trkpt>
<trkpt lat="39.810613" lon="-8.469925">
<ele>183.0</ele>
<desc>Speed 1.7 km/h Distance 41.44 km</desc>
<time>2011-05-22T10:19:23.20</time>
<name>8866</name>
<sym>Dot</sym>
</trkpt>
<trkpt lat="39.810610" lon="-8.469927">
<ele>182.5</ele>
<desc>Speed 1.4 km/h Distance 41.44 km</desc>
<time>2011-05-22T10:19:25.20</time>
<name>8867</name>
<sym>Dot</sym>
</trkpt>
<trkpt lat="39.810598" lon="-8.469925">
<ele>182.5</ele>
<desc>Speed 4.9 km/h Distance 41.44 km</desc>
<time>2011-05-22T10:19:26.19</time>
<name>8868</name>
<sym>Dot</sym>
</trkpt>
<trkpt lat="39.810610" lon="-8.469928">
<ele>183.0</ele>
<desc>Speed 4.6 km/h Distance 41.44 km</desc>
<time>2011-05-22T10:19:27.20</time>
<name>8869</name>
<sym>Dot</sym>
</trkpt>
<trkpt lat="39.810613" lon="-8.469932">
<ele>183.5</ele>
<desc>Speed 1.9 km/h Distance 41.44 km</desc>
<time>2011-05-22T10:19:28.19</time>
<name>8870</name>
<sym>Dot</sym>
</trkpt>
<trkpt lat="39.810625" lon="-8.469940">
<ele>182.5</ele>
<desc>Speed 1.1 km/h Distance 41.44 km</desc>
<time>2011-05-22T10:20:06.18</time>
<name>8871</name>
<sym>Dot</sym>
</trkpt>
<trkpt lat="39.810630" lon="-8.469942">
<ele>182.5</ele>
<desc>Speed 1.5 km/h Distance 41.44 km</desc>
<time>2011-05-22T10:20:07.17</time>
<name>8872</name>
<sym>Dot</sym>
</trkpt>
<trkpt lat="39.810635" lon="-8.469945">
<ele>182.5</ele>
<desc>Speed 1.1 km/h Distance 41.45 km</desc>
<time>2011-05-22T10:20:08.17</time>
<name>8873</name>
<sym>Dot</sym>
</trkpt>
<trkpt lat="39.810690" lon="-8.469973">
<ele>179.0</ele>
<desc>Speed 2.2 km/h Distance 41.45 km</desc>
<time>2011-05-22T10:21:43.16</time>
<name>8874</name>
<sym>Dot</sym>
</trkpt>
<trkpt lat="39.810700" lon="-8.469962">
<ele>181.5</ele>
<desc>Speed 1.7 km/h Distance 41.45 km</desc>
<time>2011-05-22T10:21:47.16</time>
<name>8875</name>
<sym>Dot</sym>
</trkpt>
<trkpt lat="39.810710" lon="-8.469933">
<ele>184.0</ele>
<desc>Speed 1.4 km/h Distance 41.46 km</desc>
<time>2011-05-22T10:22:09.15</time>
<name>8876</name>
<sym>Dot</sym>
</trkpt>
<trkpt lat="39.810710" lon="-8.469940">
<ele>184.0</ele>
<desc>Speed 1.5 km/h Distance 41.46 km</desc>
<time>2011-05-22T10:22:10.15</time>
<name>8877</name>
<sym>Dot</sym>
</trkpt>
<trkpt lat="39.810727" lon="-8.469995">
<ele>184.5</ele>
<desc>Speed 7.3 km/h Distance 41.46 km</desc>
<time>2011-05-22T10:22:14.14</time>
<name>8878</name>
<sym>Dot</sym>
</trkpt>
<trkpt lat="39.810727" lon="-8.469985">
<ele>184.5</ele>
<desc>Speed 3.9 km/h Distance 41.46 km</desc>
<time>2011-05-22T10:22:15.13</time>
<name>8879</name>
<sym>Dot</sym>
</trkpt>
<trkpt lat="39.810723" lon="-8.469973">
<ele>182.0</ele>
<desc>Speed 5.3 km/h Distance 41.46 km</desc>
<time>2011-05-22T10:23:55.12</time>
<name>8880</name>
<sym>Dot</sym>
</trkpt>
<trkpt lat="39.810710" lon="-8.469967">
<ele>182.5</ele>
<desc>Speed 2.8 km/h Distance 41.47 km</desc>
<time>2011-05-22T10:23:57.11</time>
<name>8881</name>
<sym>Dot</sym>
</trkpt>
<trkpt lat="39.810698" lon="-8.469965">
<ele>182.5</ele>
<desc>Speed 2.0 km/h Distance 41.47 km</desc>
<time>2011-05-22T10:23:58.11</time>
<name>8882</name>
<sym>Dot</sym>
</trkpt>
<trkpt lat="39.810703" lon="-8.469937">
<ele>185.0</ele>
<desc>Speed 4.1 km/h Distance 41.47 km</desc>
<time>2011-05-22T10:24:08.10</time>
<name>8883</name>
<sym>Dot</sym>
</trkpt>
<trkpt lat="39.810677" lon="-8.469928">
<ele>179.5</ele>
<desc>Speed 1.2 km/h Distance 41.47 km</desc>
<time>2011-05-22T10:24:28.10</time>
<name>8884</name>
<sym>Dot</sym>
</trkpt>
<trkpt lat="39.810683" lon="-8.469928">
<ele>179.0</ele>
<desc>Speed 1.2 km/h Distance 41.47 km</desc>
<time>2011-05-22T10:24:32.10</time>
<name>8885</name>
<sym>Dot</sym>
</trkpt>
<trkpt lat="39.810687" lon="-8.469930">
<ele>178.0</ele>
<desc>Speed 1.8 km/h Distance 41.47 km</desc>
<time>2011-05-22T10:24:41.10</time>
<name>8886</name>
<sym>Dot</sym>
</trkpt>
<trkpt lat="39.810685" lon="-8.469928">
<ele>177.5</ele>
<desc>Speed 1.3 km/h Distance 41.47 km</desc>
<time>2011-05-22T10:24:45.09</time>
<name>8887</name>
<sym>Dot</sym>
</trkpt>
<trkpt lat="39.810682" lon="-8.469923">
<ele>177.0</ele>
<desc>Speed 1.2 km/h Distance 41.47 km</desc>
<time>2011-05-22T10:25:04.08</time>
<name>8888</name>
<sym>Dot</sym>
</trkpt>
<trkpt lat="39.810660" lon="-8.469922">
<ele>177.0</ele>
<desc>Speed 1.4 km/h Distance 41.48 km</desc>
<time>2011-05-22T10:25:09.07</time>
<name>8889</name>
<sym>Dot</sym>
</trkpt>
<trkpt lat="39.810662" lon="-8.469920">
<ele>177.5</ele>
<desc>Speed 1.8 km/h Distance 41.48 km</desc>
<time>2011-05-22T10:25:13.07</time>
<name>8890</name>
<sym>Dot</sym>
</trkpt>
<trkpt lat="39.810657" lon="-8.469922">
<ele>176.5</ele>
<desc>Speed 4.4 km/h Distance 41.48 km</desc>
<time>2011-05-22T10:25:18.07</time>
<name>8891</name>
<sym>Dot</sym>
</trkpt>
<trkpt lat="39.810652" lon="-8.469922">
<ele>176.0</ele>
<desc>Speed 1.8 km/h Distance 41.48 km</desc>
<time>2011-05-22T10:25:20.06</time>
<name>8892</name>
<sym>Dot</sym>
</trkpt>
<trkpt lat="39.810693" lon="-8.469913">
<ele>181.5</ele>
<desc>Speed 1.5 km/h Distance 41.48 km</desc>
<time>2011-05-22T10:25:52.05</time>
<name>8893</name>
<sym>Dot</sym>
</trkpt>
<trkpt lat="39.810713" lon="-8.469907">
<ele>184.5</ele>
<desc>Speed 1.3 km/h Distance 41.48 km</desc>
<time>2011-05-22T10:26:12.05</time>
<name>8894</name>
<sym>Dot</sym>
</trkpt>
<trkpt lat="39.810715" lon="-8.469912">
<ele>184.0</ele>
<desc>Speed 1.6 km/h Distance 41.49 km</desc>
<time>2011-05-22T10:26:13.04</time>
<name>8895</name>
<sym>Dot</sym>
</trkpt>
<trkpt lat="39.810718" lon="-8.469918">
<ele>184.0</ele>
<desc>Speed 3.1 km/h Distance 41.49 km</desc>
<time>2011-05-22T10:26:15.04</time>
<name>8896</name>
<sym>Dot</sym>
</trkpt>
<trkpt lat="39.810715" lon="-8.469902">
<ele>184.5</ele>
<desc>Speed 3.3 km/h Distance 41.49 km</desc>
<time>2011-05-22T10:26:18.03</time>
<name>8897</name>
<sym>Dot</sym>
</trkpt>
<trkpt lat="39.810712" lon="-8.469897">
<ele>184.0</ele>
<desc>Speed 1.9 km/h Distance 41.49 km</desc>
<time>2011-05-22T10:26:19.02</time>
<name>8898</name>
<sym>Dot</sym>
</trkpt>
<trkpt lat="39.810735" lon="-8.469952">
<ele>187.5</ele>
<desc>Speed 2.0 km/h Distance 41.49 km</desc>
<time>2011-05-22T10:26:38.02</time>
<name>8899</name>
<sym>Dot</sym>
</trkpt>
<trkpt lat="39.810745" lon="-8.469953">
<ele>188.5</ele>
<desc>Speed 1.8 km/h Distance 41.49 km</desc>
<time>2011-05-22T10:26:46.01</time>
<name>8900</name>
<sym>Dot</sym>
</trkpt>
<trkpt lat="39.810763" lon="-8.469957">
<ele>188.5</ele>
<desc>Speed 1.8 km/h Distance 41.50 km</desc>
<time>2011-05-22T10:26:50.01</time>
<name>8901</name>
<sym>Dot</sym>
</trkpt>
<trkpt lat="39.810638" lon="-8.469945">
<ele>183.0</ele>
<desc>Speed 2.4 km/h Distance 41.51 km</desc>
<time>2011-05-22T10:26:55.00</time>
<name>8902</name>
<sym>Dot</sym>
</trkpt>
<trkpt lat="39.810625" lon="-8.469940">
<ele>182.0</ele>
<desc>Speed 1.8 km/h Distance 41.51 km</desc>
<time>2011-05-22T10:26:55.99</time>
<name>8903</name>
<sym>Dot</sym>
</trkpt>
<trkpt lat="39.810617" lon="-8.469937">
<ele>181.5</ele>
<desc>Speed 2.1 km/h Distance 41.51 km</desc>
<time>2011-05-22T10:26:56.99</time>
<name>8904</name>
<sym>Dot</sym>
</trkpt>
<trkpt lat="39.810803" lon="-8.469945">
<ele>181.0</ele>
<desc>Speed 4.6 km/h Distance 41.53 km</desc>
<time>2011-05-22T10:27:01.98</time>
<name>8905</name>
<sym>Dot</sym>
</trkpt>
<trkpt lat="39.810813" lon="-8.469947">
<ele>181.0</ele>
<desc>Speed 5.1 km/h Distance 41.53 km</desc>
<time>2011-05-22T10:27:02.98</time>
<name>8906</name>
<sym>Dot</sym>
</trkpt>
<trkpt lat="39.810818" lon="-8.469948">
<ele>181.0</ele>
<desc>Speed 2.5 km/h Distance 41.54 km</desc>
<time>2011-05-22T10:27:03.98</time>
<name>8907</name>
<sym>Dot</sym>
</trkpt>
<trkpt lat="39.810823" lon="-8.469950">
<ele>180.5</ele>
<desc>Speed 2.5 km/h Distance 41.54 km</desc>
<time>2011-05-22T10:27:04.97</time>
<name>8908</name>
<sym>Dot</sym>
</trkpt>
<trkpt lat="39.810842" lon="-8.469960">
<ele>180.5</ele>
<desc>Speed 2.8 km/h Distance 41.54 km</desc>
<time>2011-05-22T10:27:13.96</time>
<name>8909</name>
<sym>Dot</sym>
</trkpt>
<trkpt lat="39.810852" lon="-8.469960">
<ele>180.5</ele>
<desc>Speed 1.8 km/h Distance 41.54 km</desc>
<time>2011-05-22T10:27:14.96</time>
<name>8910</name>
<sym>Dot</sym>
</trkpt>
<trkpt lat="39.810857" lon="-8.469960">
<ele>180.0</ele>
<desc>Speed 1.3 km/h Distance 41.54 km</desc>
<time>2011-05-22T10:27:15.95</time>
<name>8911</name>
<sym>Dot</sym>
</trkpt>
<trkpt lat="39.810843" lon="-8.469965">
<ele>179.0</ele>
<desc>Speed 1.9 km/h Distance 41.54 km</desc>
<time>2011-05-22T10:27:21.94</time>
<name>8912</name>
<sym>Dot</sym>
</trkpt>
<trkpt lat="39.810832" lon="-8.469958">
<ele>180.0</ele>
<desc>Speed 1.5 km/h Distance 41.54 km</desc>
<time>2011-05-22T10:27:23.94</time>
<name>8913</name>
<sym>Dot</sym>
</trkpt>
<trkpt lat="39.810837" lon="-8.469962">
<ele>180.0</ele>
<desc>Speed 3.6 km/h Distance 41.54 km</desc>
<time>2011-05-22T10:27:25.94</time>
<name>8914</name>
<sym>Dot</sym>
</trkpt>
<trkpt lat="39.810842" lon="-8.469958">
<ele>180.0</ele>
<desc>Speed 2.4 km/h Distance 41.54 km</desc>
<time>2011-05-22T10:27:28.92</time>
<name>8915</name>
<sym>Dot</sym>
</trkpt>
<trkpt lat="39.810845" lon="-8.469958">
<ele>180.0</ele>
<desc>Speed 1.1 km/h Distance 41.54 km</desc>
<time>2011-05-22T10:27:29.92</time>
<name>8916</name>
<sym>Dot</sym>
</trkpt>
<trkpt lat="39.810828" lon="-8.469957">
<ele>179.0</ele>
<desc>Speed 4.9 km/h Distance 41.55 km</desc>
<time>2011-05-22T10:27:34.92</time>
<name>8917</name>
<sym>Dot</sym>
</trkpt>
<trkpt lat="39.810813" lon="-8.469958">
<ele>178.5</ele>
<desc>Speed 3.8 km/h Distance 41.55 km</desc>
<time>2011-05-22T10:27:36.92</time>
<name>8918</name>
<sym>Dot</sym>
</trkpt>
<trkpt lat="39.810807" lon="-8.469957">
<ele>179.0</ele>
<desc>Speed 1.2 km/h Distance 41.55 km</desc>
<time>2011-05-22T10:27:37.91</time>
<name>8919</name>
<sym>Dot</sym>
</trkpt>
<trkpt lat="39.810797" lon="-8.469952">
<ele>178.5</ele>
<desc>Speed 1.8 km/h Distance 41.55 km</desc>
<time>2011-05-22T10:27:38.91</time>
<name>8920</name>
<sym>Dot</sym>
</trkpt>
<trkpt lat="39.810793" lon="-8.469958">
<ele>178.5</ele>
<desc>Speed 2.5 km/h Distance 41.55 km</desc>
<time>2011-05-22T10:27:39.90</time>
<name>8921</name>
<sym>Dot</sym>
</trkpt>
<trkpt lat="39.810793" lon="-8.469965">
<ele>178.5</ele>
<desc>Speed 2.5 km/h Distance 41.55 km</desc>
<time>2011-05-22T10:27:40.90</time>
<name>8922</name>
<sym>Dot</sym>
</trkpt>
<trkpt lat="39.810787" lon="-8.469970">
<ele>178.5</ele>
<desc>Speed 2.5 km/h Distance 41.55 km</desc>
<time>2011-05-22T10:27:41.89</time>
<name>8923</name>
<sym>Dot</sym>
</trkpt>
<trkpt lat="39.810780" lon="-8.469967">
<ele>178.5</ele>
<desc>Speed 1.8 km/h Distance 41.55 km</desc>
<time>2011-05-22T10:27:42.89</time>
<name>8924</name>
<sym>Dot</sym>
</trkpt>
<trkpt lat="39.810773" lon="-8.469973">
<ele>178.0</ele>
<desc>Speed 2.3 km/h Distance 41.55 km</desc>
<time>2011-05-22T10:27:43.88</time>
<name>8925</name>
<sym>Dot</sym>
</trkpt>
<trkpt lat="39.810765" lon="-8.469980">
<ele>178.0</ele>
<desc>Speed 2.3 km/h Distance 41.55 km</desc>
<time>2011-05-22T10:27:44.88</time>
<name>8926</name>
<sym>Dot</sym>
</trkpt>
<trkpt lat="39.810758" lon="-8.469973">
<ele>178.0</ele>
<desc>Speed 4.6 km/h Distance 41.56 km</desc>
<time>2011-05-22T10:27:45.88</time>
<name>8927</name>
<sym>Dot</sym>
</trkpt>
<trkpt lat="39.810743" lon="-8.469978">
<ele>178.0</ele>
<desc>Speed 2.7 km/h Distance 41.56 km</desc>
<time>2011-05-22T10:27:46.88</time>
<name>8928</name>
<sym>Dot</sym>
</trkpt>
<trkpt lat="39.810738" lon="-8.469992">
<ele>178.5</ele>
<desc>Speed 1.3 km/h Distance 41.56 km</desc>
<time>2011-05-22T10:27:47.87</time>
<name>8929</name>
<sym>Dot</sym>
</trkpt>
<trkpt lat="39.810737" lon="-8.469987">
<ele>178.5</ele>
<desc>Speed 2.5 km/h Distance 41.56 km</desc>
<time>2011-05-22T10:27:48.87</time>
<name>8930</name>
<sym>Dot</sym>
</trkpt>
<trkpt lat="39.810727" lon="-8.469978">
<ele>178.5</ele>
<desc>Speed 3.1 km/h Distance 41.56 km</desc>
<time>2011-05-22T10:27:49.87</time>
<name>8931</name>
<sym>Dot</sym>
</trkpt>
<trkpt lat="39.810720" lon="-8.469968">
<ele>178.5</ele>
<desc>Speed 3.1 km/h Distance 41.56 km</desc>
<time>2011-05-22T10:27:50.87</time>
<name>8932</name>
<sym>Dot</sym>
</trkpt>
<trkpt lat="39.810698" lon="-8.469967">
<ele>178.5</ele>
<desc>Speed 2.2 km/h Distance 41.56 km</desc>
<time>2011-05-22T10:27:51.87</time>
<name>8933</name>
<sym>Dot</sym>
</trkpt>
<trkpt lat="39.810703" lon="-8.469980">
<ele>178.5</ele>
<desc>Speed 2.2 km/h Distance 41.57 km</desc>
<time>2011-05-22T10:27:52.86</time>
<name>8934</name>
<sym>Dot</sym>
</trkpt>
<trkpt lat="39.810700" lon="-8.469980">
<ele>178.5</ele>
<desc>Speed 2.2 km/h Distance 41.57 km</desc>
<time>2011-05-22T10:27:53.86</time>
<name>8935</name>
<sym>Dot</sym>
</trkpt>
<trkpt lat="39.810697" lon="-8.469995">
<ele>179.5</ele>
<desc>Speed 2.2 km/h Distance 41.57 km</desc>
<time>2011-05-22T10:27:54.85</time>
<name>8936</name>
<sym>Dot</sym>
</trkpt>
<trkpt lat="39.810692" lon="-8.470002">
<ele>179.5</ele>
<desc>Speed 3.7 km/h Distance 41.57 km</desc>
<time>2011-05-22T10:27:55.85</time>
<name>8937</name>
<sym>Dot</sym>
</trkpt>
<trkpt lat="39.810693" lon="-8.470008">
<ele>180.0</ele>
<desc>Speed 3.7 km/h Distance 41.57 km</desc>
<time>2011-05-22T10:27:56.84</time>
<name>8938</name>
<sym>Dot</sym>
</trkpt>
<trkpt lat="39.810688" lon="-8.470010">
<ele>180.0</ele>
<desc>Speed 3.7 km/h Distance 41.57 km</desc>
<time>2011-05-22T10:27:57.83</time>
<name>8939</name>
<sym>Dot</sym>
</trkpt>
<trkpt lat="39.810683" lon="-8.470012">
<ele>180.0</ele>
<desc>Speed 3.7 km/h Distance 41.57 km</desc>
<time>2011-05-22T10:27:58.83</time>
<name>8940</name>
<sym>Dot</sym>
</trkpt>
<trkpt lat="39.810678" lon="-8.470007">
<ele>180.0</ele>
<desc>Speed 3.7 km/h Distance 41.57 km</desc>
<time>2011-05-22T10:27:59.82</time>
<name>8941</name>
<sym>Dot</sym>
</trkpt>
<trkpt lat="39.810672" lon="-8.469995">
<ele>180.5</ele>
<desc>Speed 3.7 km/h Distance 41.57 km</desc>
<time>2011-05-22T10:28:00.81</time>
<name>8942</name>
<sym>Dot</sym>
</trkpt>
<trkpt lat="39.810668" lon="-8.469992">
<ele>180.5</ele>
<desc>Speed 3.7 km/h Distance 41.57 km</desc>
<time>2011-05-22T10:28:01.80</time>
<name>8943</name>
<sym>Dot</sym>
</trkpt>
<trkpt lat="39.810667" lon="-8.469990">
<ele>180.5</ele>
<desc>Speed 3.7 km/h Distance 41.57 km</desc>
<time>2011-05-22T10:28:02.80</time>
<name>8944</name>
<sym>Dot</sym>
</trkpt>
<trkpt lat="39.810667" lon="-8.469988">
<ele>180.5</ele>
<desc>Speed 3.7 km/h Distance 41.57 km</desc>
<time>2011-05-22T10:28:03.80</time>
<name>8945</name>
<sym>Dot</sym>
</trkpt>
<trkpt lat="39.810682" lon="-8.470003">
<ele>180.5</ele>
<desc>Speed 3.7 km/h Distance 41.57 km</desc>
<time>2011-05-22T10:28:04.79</time>
<name>8946</name>
<sym>Dot</sym>
</trkpt>
<trkpt lat="39.810688" lon="-8.470012">
<ele>180.5</ele>
<desc>Speed 3.7 km/h Distance 41.58 km</desc>
<time>2011-05-22T10:28:05.77</time>
<name>8947</name>
<sym>Dot</sym>
</trkpt>
<trkpt lat="39.810692" lon="-8.470015">
<ele>180.5</ele>
<desc>Speed 3.7 km/h Distance 41.58 km</desc>
<time>2011-05-22T10:28:06.77</time>
<name>8948</name>
<sym>Dot</sym>
</trkpt>
<trkpt lat="39.810585" lon="-8.469913">
<ele>181.0</ele>
<desc>Speed 3.7 km/h Distance 41.59 km</desc>
<time>2011-05-22T10:28:15.37</time>
<name>8949</name>
<sym>Dot</sym>
</trkpt>
<trkpt lat="39.810575" lon="-8.469910">
<ele>181.0</ele>
<desc>Speed 3.7 km/h Distance 41.59 km</desc>
<time>2011-05-22T10:28:16.36</time>
<name>8950</name>
<sym>Dot</sym>
</trkpt>
<trkpt lat="39.810635" lon="-8.470487">
<ele>180.5</ele>
<desc>Speed 3.7 km/h Distance 41.64 km</desc>
<time>2011-05-22T10:28:49.36</time>
<name>8951</name>
<sym>Dot</sym>
</trkpt>
<trkpt lat="39.810807" lon="-8.470242">
<ele>180.0</ele>
<desc>Speed 3.7 km/h Distance 41.67 km</desc>
<time>2011-05-22T10:28:53.36</time>
<name>8952</name>
<sym>Dot</sym>
</trkpt>
<trkpt lat="39.810877" lon="-8.470192">
<ele>180.0</ele>
<desc>Speed 3.7 km/h Distance 41.68 km</desc>
<time>2011-05-22T10:28:56.37</time>
<name>8953</name>
<sym>Dot</sym>
</trkpt>
<trkpt lat="39.810860" lon="-8.470192">
<ele>180.0</ele>
<desc>Speed 3.7 km/h Distance 41.68 km</desc>
<time>2011-05-22T10:28:57.36</time>
<name>8954</name>
<sym>Dot</sym>
</trkpt>
<trkpt lat="39.810858" lon="-8.470198">
<ele>180.0</ele>
<desc>Speed 3.7 km/h Distance 41.68 km</desc>
<time>2011-05-22T10:28:58.36</time>
<name>8955</name>
<sym>Dot</sym>
</trkpt>
<trkpt lat="39.810858" lon="-8.470200">
<ele>180.0</ele>
<desc>Speed 3.7 km/h Distance 41.68 km</desc>
<time>2011-05-22T10:28:59.36</time>
<name>8956</name>
<sym>Dot</sym>
</trkpt>
<trkpt lat="39.810852" lon="-8.470187">
<ele>180.0</ele>
<desc>Speed 3.7 km/h Distance 41.68 km</desc>
<time>2011-05-22T10:29:00.35</time>
<name>8957</name>
<sym>Dot</sym>
</trkpt>
<trkpt lat="39.810852" lon="-8.470177">
<ele>180.0</ele>
<desc>Speed 3.7 km/h Distance 41.68 km</desc>
<time>2011-05-22T10:29:01.35</time>
<name>8958</name>
<sym>Dot</sym>
</trkpt>
<trkpt lat="39.810730" lon="-8.470118">
<ele>179.5</ele>
<desc>Speed 2.2 km/h Distance 41.70 km</desc>
<time>2011-05-22T10:29:04.37</time>
<name>8959</name>
<sym>Dot</sym>
</trkpt>
<trkpt lat="39.810697" lon="-8.470012">
<ele>179.5</ele>
<desc>Speed 1.4 km/h Distance 41.71 km</desc>
<time>2011-05-22T10:29:14.37</time>
<name>8960</name>
<sym>Dot</sym>
</trkpt>
<trkpt lat="39.810645" lon="-8.469910">
<ele>181.5</ele>
<desc>Speed 6.7 km/h Distance 41.72 km</desc>
<time>2011-05-22T10:29:19.37</time>
<name>8961</name>
<sym>Dot</sym>
</trkpt>
<trkpt lat="39.810623" lon="-8.469928">
<ele>183.5</ele>
<desc>Speed 1.4 km/h Distance 41.72 km</desc>
<time>2011-05-22T10:29:42.36</time>
<name>8962</name>
<sym>Dot</sym>
</trkpt>
<trkpt lat="39.810610" lon="-8.469933">
<ele>182.0</ele>
<desc>Speed 2.0 km/h Distance 41.72 km</desc>
<time>2011-05-22T10:30:12.36</time>
<name>8963</name>
<sym>Dot</sym>
</trkpt>
<trkpt lat="39.810603" lon="-8.469922">
<ele>183.0</ele>
<desc>Speed 4.4 km/h Distance 41.72 km</desc>
<time>2011-05-22T10:30:13.35</time>
<name>8964</name>
<sym>Dot</sym>
</trkpt>
<trkpt lat="39.810597" lon="-8.469905">
<ele>184.0</ele>
<desc>Speed 6.1 km/h Distance 41.73 km</desc>
<time>2011-05-22T10:30:14.35</time>
<name>8965</name>
<sym>Dot</sym>
</trkpt>
<trkpt lat="39.810587" lon="-8.469882">
<ele>184.5</ele>
<desc>Speed 8.0 km/h Distance 41.73 km</desc>
<time>2011-05-22T10:30:15.34</time>
<name>8966</name>
<sym>Dot</sym>
</trkpt>
<trkpt lat="39.810572" lon="-8.469862">
<ele>184.5</ele>
<desc>Speed 8.2 km/h Distance 41.73 km</desc>
<time>2011-05-22T10:30:16.34</time>
<name>8967</name>
<sym>Dot</sym>
</trkpt>
<trkpt lat="39.810562" lon="-8.469843">
<ele>184.5</ele>
<desc>Speed 7.2 km/h Distance 41.73 km</desc>
<time>2011-05-22T10:30:17.34</time>
<name>8968</name>
<sym>Dot</sym>
</trkpt>
<trkpt lat="39.810548" lon="-8.469823">
<ele>184.5</ele>
<desc>Speed 7.4 km/h Distance 41.73 km</desc>
<time>2011-05-22T10:30:18.34</time>
<name>8969</name>
<sym>Dot</sym>
</trkpt>
<trkpt lat="39.810533" lon="-8.469810">
<ele>185.5</ele>
<desc>Speed 7.1 km/h Distance 41.74 km</desc>
<time>2011-05-22T10:30:19.34</time>
<name>8970</name>
<sym>Dot</sym>
</trkpt>
<trkpt lat="39.810523" lon="-8.469798">
<ele>186.0</ele>
<desc>Speed 5.5 km/h Distance 41.74 km</desc>
<time>2011-05-22T10:30:20.34</time>
<name>8971</name>
<sym>Dot</sym>
</trkpt>
<trkpt lat="39.810512" lon="-8.469787">
<ele>186.5</ele>
<desc>Speed 5.3 km/h Distance 41.74 km</desc>
<time>2011-05-22T10:30:21.34</time>
<name>8972</name>
<sym>Dot</sym>
</trkpt>
<trkpt lat="39.810497" lon="-8.469778">
<ele>187.0</ele>
<desc>Speed 6.5 km/h Distance 41.74 km</desc>
<time>2011-05-22T10:30:22.34</time>
<name>8973</name>
<sym>Dot</sym>
</trkpt>
<trkpt lat="39.810482" lon="-8.469765">
<ele>187.5</ele>
<desc>Speed 7.2 km/h Distance 41.74 km</desc>
<time>2011-05-22T10:30:23.33</time>
<name>8974</name>
<sym>Dot</sym>
</trkpt>
<trkpt lat="39.810465" lon="-8.469750">
<ele>188.0</ele>
<desc>Speed 8.1 km/h Distance 41.75 km</desc>
<time>2011-05-22T10:30:24.33</time>
<name>8975</name>
<sym>Dot</sym>
</trkpt>
<trkpt lat="39.810445" lon="-8.469733">
<ele>188.5</ele>
<desc>Speed 9.4 km/h Distance 41.75 km</desc>
<time>2011-05-22T10:30:25.33</time>
<name>8976</name>
<sym>Dot</sym>
</trkpt>
<trkpt lat="39.810422" lon="-8.469717">
<ele>188.5</ele>
<desc>Speed 10.6 km/h Distance 41.75 km</desc>
<time>2011-05-22T10:30:26.32</time>
<name>8977</name>
<sym>Dot</sym>
</trkpt>
<trkpt lat="39.810398" lon="-8.469698">
<ele>189.0</ele>
<desc>Speed 10.9 km/h Distance 41.75 km</desc>
<time>2011-05-22T10:30:27.32</time>
<name>8978</name>
<sym>Dot</sym>
</trkpt>
<trkpt lat="39.810373" lon="-8.469673">
<ele>189.5</ele>
<desc>Speed 12.7 km/h Distance 41.76 km</desc>
<time>2011-05-22T10:30:28.32</time>
<name>8979</name>
<sym>Dot</sym>
</trkpt>
<trkpt lat="39.810352" lon="-8.469652">
<ele>190.0</ele>
<desc>Speed 11.1 km/h Distance 41.76 km</desc>
<time>2011-05-22T10:30:29.32</time>
<name>8980</name>
<sym>Dot</sym>
</trkpt>
<trkpt lat="39.810327" lon="-8.469633">
<ele>190.5</ele>
<desc>Speed 11.1 km/h Distance 41.76 km</desc>
<time>2011-05-22T10:30:30.30</time>
<name>8981</name>
<sym>Dot</sym>
</trkpt>
<trkpt lat="39.810300" lon="-8.469618">
<ele>190.5</ele>
<desc>Speed 11.4 km/h Distance 41.77 km</desc>
<time>2011-05-22T10:30:31.29</time>
<name>8982</name>
<sym>Dot</sym>
</trkpt>
<trkpt lat="39.810273" lon="-8.469605">
<ele>190.0</ele>
<desc>Speed 11.6 km/h Distance 41.77 km</desc>
<time>2011-05-22T10:30:32.29</time>
<name>8983</name>
<sym>Dot</sym>
</trkpt>
<trkpt lat="39.810247" lon="-8.469590">
<ele>190.0</ele>
<desc>Speed 11.4 km/h Distance 41.77 km</desc>
<time>2011-05-22T10:30:33.28</time>
<name>8984</name>
<sym>Dot</sym>
</trkpt>
<trkpt lat="39.810222" lon="-8.469570">
<ele>190.0</ele>
<desc>Speed 11.4 km/h Distance 41.78 km</desc>
<time>2011-05-22T10:30:34.28</time>
<name>8985</name>
<sym>Dot</sym>
</trkpt>
<trkpt lat="39.810198" lon="-8.469548">
<ele>190.0</ele>
<desc>Speed 11.2 km/h Distance 41.78 km</desc>
<time>2011-05-22T10:30:35.27</time>
<name>8986</name>
<sym>Dot</sym>
</trkpt>
<trkpt lat="39.810173" lon="-8.469530">
<ele>190.0</ele>
<desc>Speed 10.7 km/h Distance 41.78 km</desc>
<time>2011-05-22T10:30:36.27</time>
<name>8987</name>
<sym>Dot</sym>
</trkpt>
<trkpt lat="39.810147" lon="-8.469512">
<ele>190.0</ele>
<desc>Speed 11.7 km/h Distance 41.79 km</desc>
<time>2011-05-22T10:30:37.27</time>
<name>8988</name>
<sym>Dot</sym>
</trkpt>
<trkpt lat="39.810118" lon="-8.469493">
<ele>190.0</ele>
<desc>Speed 12.6 km/h Distance 41.79 km</desc>
<time>2011-05-22T10:30:38.26</time>
<name>8989</name>
<sym>Dot</sym>
</trkpt>
<trkpt lat="39.810087" lon="-8.469475">
<ele>190.0</ele>
<desc>Speed 13.5 km/h Distance 41.79 km</desc>
<time>2011-05-22T10:30:39.26</time>
<name>8990</name>
<sym>Dot</sym>
</trkpt>
<trkpt lat="39.810055" lon="-8.469457">
<ele>190.0</ele>
<desc>Speed 13.8 km/h Distance 41.80 km</desc>
<time>2011-05-22T10:30:40.25</time>
<name>8991</name>
<sym>Dot</sym>
</trkpt>
<trkpt lat="39.810020" lon="-8.469438">
<ele>190.0</ele>
<desc>Speed 14.5 km/h Distance 41.80 km</desc>
<time>2011-05-22T10:30:41.25</time>
<name>8992</name>
<sym>Dot</sym>
</trkpt>
<trkpt lat="39.809983" lon="-8.469420">
<ele>190.0</ele>
<desc>Speed 14.9 km/h Distance 41.81 km</desc>
<time>2011-05-22T10:30:42.25</time>
<name>8993</name>
<sym>Dot</sym>
</trkpt>
<trkpt lat="39.809947" lon="-8.469402">
<ele>190.0</ele>
<desc>Speed 15.5 km/h Distance 41.81 km</desc>
<time>2011-05-22T10:30:43.25</time>
<name>8994</name>
<sym>Dot</sym>
</trkpt>
<trkpt lat="39.809908" lon="-8.469383">
<ele>190.0</ele>
<desc>Speed 15.8 km/h Distance 41.82 km</desc>
<time>2011-05-22T10:30:44.26</time>
<name>8995</name>
<sym>Dot</sym>
</trkpt>
<trkpt lat="39.809870" lon="-8.469365">
<ele>190.0</ele>
<desc>Speed 16.1 km/h Distance 41.82 km</desc>
<time>2011-05-22T10:30:45.24</time>
<name>8996</name>
<sym>Dot</sym>
</trkpt>
<trkpt lat="39.809830" lon="-8.469347">
<ele>190.0</ele>
<desc>Speed 16.1 km/h Distance 41.82 km</desc>
<time>2011-05-22T10:30:46.24</time>
<name>8997</name>
<sym>Dot</sym>
</trkpt>
<trkpt lat="39.809793" lon="-8.469328">
<ele>189.5</ele>
<desc>Speed 16.0 km/h Distance 41.83 km</desc>
<time>2011-05-22T10:30:47.24</time>
<name>8998</name>
<sym>Dot</sym>
</trkpt>
<trkpt lat="39.809755" lon="-8.469313">
<ele>189.5</ele>
<desc>Speed 15.6 km/h Distance 41.83 km</desc>
<time>2011-05-22T10:30:48.24</time>
<name>8999</name>
<sym>Dot</sym>
</trkpt>
<trkpt lat="39.809718" lon="-8.469298">
<ele>189.5</ele>
<desc>Speed 15.2 km/h Distance 41.84 km</desc>
<time>2011-05-22T10:30:49.24</time>
<name>9000</name>
<sym>Dot</sym>
</trkpt>
<trkpt lat="39.809682" lon="-8.469282">
<ele>189.5</ele>
<desc>Speed 15.3 km/h Distance 41.84 km</desc>
<time>2011-05-22T10:30:50.24</time>
<name>9001</name>
<sym>Dot</sym>
</trkpt>
<trkpt lat="39.809643" lon="-8.469265">
<ele>189.5</ele>
<desc>Speed 16.1 km/h Distance 41.85 km</desc>
<time>2011-05-22T10:30:51.24</time>
<name>9002</name>
<sym>Dot</sym>
</trkpt>
<trkpt lat="39.809602" lon="-8.469248">
<ele>189.5</ele>
<desc>Speed 17.1 km/h Distance 41.85 km</desc>
<time>2011-05-22T10:30:52.23</time>
<name>9003</name>
<sym>Dot</sym>
</trkpt>
<trkpt lat="39.809558" lon="-8.469232">
<ele>189.5</ele>
<desc>Speed 17.9 km/h Distance 41.86 km</desc>
<time>2011-05-22T10:30:53.23</time>
<name>9004</name>
<sym>Dot</sym>
</trkpt>
<trkpt lat="39.809513" lon="-8.469215">
<ele>189.5</ele>
<desc>Speed 18.6 km/h Distance 41.86 km</desc>
<time>2011-05-22T10:30:54.23</time>
<name>9005</name>
<sym>Dot</sym>
</trkpt>
<trkpt lat="39.809468" lon="-8.469197">
<ele>189.5</ele>
<desc>Speed 19.2 km/h Distance 41.87 km</desc>
<time>2011-05-22T10:30:55.23</time>
<name>9006</name>
<sym>Dot</sym>
</trkpt>
<trkpt lat="39.809420" lon="-8.469178">
<ele>189.5</ele>
<desc>Speed 19.5 km/h Distance 41.87 km</desc>
<time>2011-05-22T10:30:56.23</time>
<name>9007</name>
<sym>Dot</sym>
</trkpt>
<trkpt lat="39.809373" lon="-8.469158">
<ele>189.0</ele>
<desc>Speed 20.1 km/h Distance 41.88 km</desc>
<time>2011-05-22T10:30:57.23</time>
<name>9008</name>
<sym>Dot</sym>
</trkpt>
<trkpt lat="39.809323" lon="-8.469140">
<ele>189.0</ele>
<desc>Speed 20.6 km/h Distance 41.88 km</desc>
<time>2011-05-22T10:30:58.22</time>
<name>9009</name>
<sym>Dot</sym>
</trkpt>
<trkpt lat="39.809273" lon="-8.469122">
<ele>189.0</ele>
<desc>Speed 20.7 km/h Distance 41.89 km</desc>
<time>2011-05-22T10:30:59.22</time>
<name>9010</name>
<sym>Dot</sym>
</trkpt>
<trkpt lat="39.809222" lon="-8.469100">
<ele>188.5</ele>
<desc>Speed 21.5 km/h Distance 41.90 km</desc>
<time>2011-05-22T10:31:00.22</time>
<name>9011</name>
<sym>Dot</sym>
</trkpt>
<trkpt lat="39.809172" lon="-8.469080">
<ele>189.0</ele>
<desc>Speed 21.2 km/h Distance 41.90 km</desc>
<time>2011-05-22T10:31:01.21</time>
<name>9012</name>
<sym>Dot</sym>
</trkpt>
<trkpt lat="39.809122" lon="-8.469058">
<ele>189.0</ele>
<desc>Speed 21.0 km/h Distance 41.91 km</desc>
<time>2011-05-22T10:31:02.21</time>
<name>9013</name>
<sym>Dot</sym>
</trkpt>
<trkpt lat="39.809070" lon="-8.469040">
<ele>188.5</ele>
<desc>Speed 21.3 km/h Distance 41.91 km</desc>
<time>2011-05-22T10:31:03.20</time>
<name>9014</name>
<sym>Dot</sym>
</trkpt>
<trkpt lat="39.809020" lon="-8.469020">
<ele>188.5</ele>
<desc>Speed 20.9 km/h Distance 41.92 km</desc>
<time>2011-05-22T10:31:04.19</time>
<name>9015</name>
<sym>Dot</sym>
</trkpt>
<trkpt lat="39.808972" lon="-8.468997">
<ele>188.5</ele>
<desc>Speed 20.8 km/h Distance 41.93 km</desc>
<time>2011-05-22T10:31:05.19</time>
<name>9016</name>
<sym>Dot</sym>
</trkpt>
<trkpt lat="39.808923" lon="-8.468975">
<ele>188.5</ele>
<desc>Speed 20.2 km/h Distance 41.93 km</desc>
<time>2011-05-22T10:31:06.19</time>
<name>9017</name>
<sym>Dot</sym>
</trkpt>
<trkpt lat="39.808877" lon="-8.468953">
<ele>188.5</ele>
<desc>Speed 20.0 km/h Distance 41.94 km</desc>
<time>2011-05-22T10:31:07.19</time>
<name>9018</name>
<sym>Dot</sym>
</trkpt>
<trkpt lat="39.808828" lon="-8.468935">
<ele>188.0</ele>
<desc>Speed 20.1 km/h Distance 41.94 km</desc>
<time>2011-05-22T10:31:08.18</time>
<name>9019</name>
<sym>Dot</sym>
</trkpt>
<trkpt lat="39.808778" lon="-8.468915">
<ele>188.0</ele>
<desc>Speed 20.4 km/h Distance 41.95 km</desc>
<time>2011-05-22T10:31:09.18</time>
<name>9020</name>
<sym>Dot</sym>
</trkpt>
<trkpt lat="39.808733" lon="-8.468893">
<ele>188.0</ele>
<desc>Speed 19.7 km/h Distance 41.95 km</desc>
<time>2011-05-22T10:31:10.17</time>
<name>9021</name>
<sym>Dot</sym>
</trkpt>
<trkpt lat="39.808683" lon="-8.468875">
<ele>188.0</ele>
<desc>Speed 20.6 km/h Distance 41.96 km</desc>
<time>2011-05-22T10:31:11.17</time>
<name>9022</name>
<sym>Dot</sym>
</trkpt>
<trkpt lat="39.808633" lon="-8.468855">
<ele>188.0</ele>
<desc>Speed 21.4 km/h Distance 41.96 km</desc>
<time>2011-05-22T10:31:12.17</time>
<name>9023</name>
<sym>Dot</sym>
</trkpt>
<trkpt lat="39.808582" lon="-8.468830">
<ele>187.5</ele>
<desc>Speed 21.9 km/h Distance 41.97 km</desc>
<time>2011-05-22T10:31:13.16</time>
<name>9024</name>
<sym>Dot</sym>
</trkpt>
<trkpt lat="39.808530" lon="-8.468805">
<ele>187.5</ele>
<desc>Speed 21.9 km/h Distance 41.98 km</desc>
<time>2011-05-22T10:31:14.16</time>
<name>9025</name>
<sym>Dot</sym>
</trkpt>
<trkpt lat="39.808478" lon="-8.468778">
<ele>188.0</ele>
<desc>Speed 22.2 km/h Distance 41.98 km</desc>
<time>2011-05-22T10:31:15.16</time>
<name>9026</name>
<sym>Dot</sym>
</trkpt>
<trkpt lat="39.808425" lon="-8.468753">
<ele>188.0</ele>
<desc>Speed 22.7 km/h Distance 41.99 km</desc>
<time>2011-05-22T10:31:16.16</time>
<name>9027</name>
<sym>Dot</sym>
</trkpt>
<trkpt lat="39.808372" lon="-8.468728">
<ele>188.0</ele>
<desc>Speed 22.8 km/h Distance 42.00 km</desc>
<time>2011-05-22T10:31:17.16</time>
<name>9028</name>
<sym>Dot</sym>
</trkpt>
<trkpt lat="39.808317" lon="-8.468702">
<ele>188.0</ele>
<desc>Speed 23.0 km/h Distance 42.00 km</desc>
<time>2011-05-22T10:31:18.15</time>
<name>9029</name>
<sym>Dot</sym>
</trkpt>
<trkpt lat="39.808263" lon="-8.468673">
<ele>187.5</ele>
<desc>Speed 23.1 km/h Distance 42.01 km</desc>
<time>2011-05-22T10:31:19.15</time>
<name>9030</name>
<sym>Dot</sym>
</trkpt>
<trkpt lat="39.808208" lon="-8.468645">
<ele>187.5</ele>
<desc>Speed 23.3 km/h Distance 42.02 km</desc>
<time>2011-05-22T10:31:20.15</time>
<name>9031</name>
<sym>Dot</sym>
</trkpt>
<trkpt lat="39.808155" lon="-8.468618">
<ele>187.5</ele>
<desc>Speed 23.3 km/h Distance 42.02 km</desc>
<time>2011-05-22T10:31:21.14</time>
<name>9032</name>
<sym>Dot</sym>
</trkpt>
<trkpt lat="39.808100" lon="-8.468592">
<ele>187.5</ele>
<desc>Speed 23.3 km/h Distance 42.03 km</desc>
<time>2011-05-22T10:31:22.14</time>
<name>9033</name>
<sym>Dot</sym>
</trkpt>
<trkpt lat="39.808045" lon="-8.468563">
<ele>187.5</ele>
<desc>Speed 23.4 km/h Distance 42.03 km</desc>
<time>2011-05-22T10:31:23.13</time>
<name>9034</name>
<sym>Dot</sym>
</trkpt>
<trkpt lat="39.807990" lon="-8.468537">
<ele>187.5</ele>
<desc>Speed 23.3 km/h Distance 42.04 km</desc>
<time>2011-05-22T10:31:24.13</time>
<name>9035</name>
<sym>Dot</sym>
</trkpt>
<trkpt lat="39.807935" lon="-8.468510">
<ele>187.0</ele>
<desc>Speed 23.6 km/h Distance 42.05 km</desc>
<time>2011-05-22T10:31:25.13</time>
<name>9036</name>
<sym>Dot</sym>
</trkpt>
<trkpt lat="39.807878" lon="-8.468483">
<ele>187.5</ele>
<desc>Speed 24.0 km/h Distance 42.05 km</desc>
<time>2011-05-22T10:31:26.13</time>
<name>9037</name>
<sym>Dot</sym>
</trkpt>
<trkpt lat="39.807822" lon="-8.468457">
<ele>187.5</ele>
<desc>Speed 24.3 km/h Distance 42.06 km</desc>
<time>2011-05-22T10:31:27.13</time>
<name>9038</name>
<sym>Dot</sym>
</trkpt>
<trkpt lat="39.807763" lon="-8.468430">
<ele>188.0</ele>
<desc>Speed 24.3 km/h Distance 42.07 km</desc>
<time>2011-05-22T10:31:28.12</time>
<name>9039</name>
<sym>Dot</sym>
</trkpt>
<trkpt lat="39.807707" lon="-8.468403">
<ele>188.0</ele>
<desc>Speed 24.4 km/h Distance 42.07 km</desc>
<time>2011-05-22T10:31:29.12</time>
<name>9040</name>
<sym>Dot</sym>
</trkpt>
<trkpt lat="39.807650" lon="-8.468377">
<ele>188.0</ele>
<desc>Speed 24.5 km/h Distance 42.08 km</desc>
<time>2011-05-22T10:31:30.12</time>
<name>9041</name>
<sym>Dot</sym>
</trkpt>
<trkpt lat="39.807592" lon="-8.468348">
<ele>188.0</ele>
<desc>Speed 24.5 km/h Distance 42.09 km</desc>
<time>2011-05-22T10:31:31.11</time>
<name>9042</name>
<sym>Dot</sym>
</trkpt>
<trkpt lat="39.807535" lon="-8.468318">
<ele>188.0</ele>
<desc>Speed 24.8 km/h Distance 42.10 km</desc>
<time>2011-05-22T10:31:32.12</time>
<name>9043</name>
<sym>Dot</sym>
</trkpt>
<trkpt lat="39.807477" lon="-8.468290">
<ele>188.5</ele>
<desc>Speed 25.3 km/h Distance 42.10 km</desc>
<time>2011-05-22T10:31:33.10</time>
<name>9044</name>
<sym>Dot</sym>
</trkpt>
<trkpt lat="39.807420" lon="-8.468258">
<ele>188.5</ele>
<desc>Speed 24.7 km/h Distance 42.11 km</desc>
<time>2011-05-22T10:31:34.10</time>
<name>9045</name>
<sym>Dot</sym>
</trkpt>
<trkpt lat="39.807367" lon="-8.468227">
<ele>188.5</ele>
<desc>Speed 23.6 km/h Distance 42.12 km</desc>
<time>2011-05-22T10:31:35.10</time>
<name>9046</name>
<sym>Dot</sym>
</trkpt>
<trkpt lat="39.807310" lon="-8.468198">
<ele>189.0</ele>
<desc>Speed 24.3 km/h Distance 42.12 km</desc>
<time>2011-05-22T10:31:36.10</time>
<name>9047</name>
<sym>Dot</sym>
</trkpt>
<trkpt lat="39.807252" lon="-8.468170">
<ele>188.5</ele>
<desc>Speed 25.0 km/h Distance 42.13 km</desc>
<time>2011-05-22T10:31:37.10</time>
<name>9048</name>
<sym>Dot</sym>
</trkpt>
<trkpt lat="39.807193" lon="-8.468140">
<ele>188.5</ele>
<desc>Speed 24.8 km/h Distance 42.14 km</desc>
<time>2011-05-22T10:31:38.09</time>
<name>9049</name>
<sym>Dot</sym>
</trkpt>
<trkpt lat="39.807135" lon="-8.468107">
<ele>188.5</ele>
<desc>Speed 25.3 km/h Distance 42.14 km</desc>
<time>2011-05-22T10:31:39.09</time>
<name>9050</name>
<sym>Dot</sym>
</trkpt>
<trkpt lat="39.807075" lon="-8.468078">
<ele>188.5</ele>
<desc>Speed 25.6 km/h Distance 42.15 km</desc>
<time>2011-05-22T10:31:40.09</time>
<name>9051</name>
<sym>Dot</sym>
</trkpt>
<trkpt lat="39.807015" lon="-8.468052">
<ele>188.0</ele>
<desc>Speed 25.4 km/h Distance 42.16 km</desc>
<time>2011-05-22T10:31:41.09</time>
<name>9052</name>
<sym>Dot</sym>
</trkpt>
<trkpt lat="39.806955" lon="-8.468027">
<ele>188.0</ele>
<desc>Speed 25.4 km/h Distance 42.16 km</desc>
<time>2011-05-22T10:31:42.09</time>
<name>9053</name>
<sym>Dot</sym>
</trkpt>
<trkpt lat="39.806897" lon="-8.468000">
<ele>188.5</ele>
<desc>Speed 24.6 km/h Distance 42.17 km</desc>
<time>2011-05-22T10:31:43.09</time>
<name>9054</name>
<sym>Dot</sym>
</trkpt>
<trkpt lat="39.806838" lon="-8.467977">
<ele>188.5</ele>
<desc>Speed 24.8 km/h Distance 42.18 km</desc>
<time>2011-05-22T10:31:44.08</time>
<name>9055</name>
<sym>Dot</sym>
</trkpt>
<trkpt lat="39.806778" lon="-8.467952">
<ele>188.5</ele>
<desc>Speed 25.1 km/h Distance 42.19 km</desc>
<time>2011-05-22T10:31:45.08</time>
<name>9056</name>
<sym>Dot</sym>
</trkpt>
<trkpt lat="39.806718" lon="-8.467928">
<ele>188.5</ele>
<desc>Speed 25.1 km/h Distance 42.19 km</desc>
<time>2011-05-22T10:31:46.08</time>
<name>9057</name>
<sym>Dot</sym>
</trkpt>
<trkpt lat="39.806658" lon="-8.467903">
<ele>189.0</ele>
<desc>Speed 24.7 km/h Distance 42.20 km</desc>
<time>2011-05-22T10:31:47.07</time>
<name>9058</name>
<sym>Dot</sym>
</trkpt>
<trkpt lat="39.806600" lon="-8.467878">
<ele>188.5</ele>
<desc>Speed 24.4 km/h Distance 42.21 km</desc>
<time>2011-05-22T10:31:48.07</time>
<name>9059</name>
<sym>Dot</sym>
</trkpt>
<trkpt lat="39.806542" lon="-8.467855">
<ele>188.5</ele>
<desc>Speed 24.7 km/h Distance 42.21 km</desc>
<time>2011-05-22T10:31:49.07</time>
<name>9060</name>
<sym>Dot</sym>
</trkpt>
<trkpt lat="39.806480" lon="-8.467832">
<ele>188.5</ele>
<desc>Speed 25.1 km/h Distance 42.22 km</desc>
<time>2011-05-22T10:31:50.07</time>
<name>9061</name>
<sym>Dot</sym>
</trkpt>
<trkpt lat="39.806420" lon="-8.467807">
<ele>188.5</ele>
<desc>Speed 25.5 km/h Distance 42.23 km</desc>
<time>2011-05-22T10:31:51.06</time>
<name>9062</name>
<sym>Dot</sym>
</trkpt>
<trkpt lat="39.806360" lon="-8.467782">
<ele>188.5</ele>
<desc>Speed 25.2 km/h Distance 42.23 km</desc>
<time>2011-05-22T10:31:52.06</time>
<name>9063</name>
<sym>Dot</sym>
</trkpt>
<trkpt lat="39.806300" lon="-8.467758">
<ele>188.5</ele>
<desc>Speed 25.2 km/h Distance 42.24 km</desc>
<time>2011-05-22T10:31:53.05</time>
<name>9064</name>
<sym>Dot</sym>
</trkpt>
<trkpt lat="39.806238" lon="-8.467733">
<ele>188.5</ele>
<desc>Speed 25.3 km/h Distance 42.25 km</desc>
<time>2011-05-22T10:31:54.05</time>
<name>9065</name>
<sym>Dot</sym>
</trkpt>
<trkpt lat="39.806178" lon="-8.467708">
<ele>188.5</ele>
<desc>Speed 25.4 km/h Distance 42.26 km</desc>
<time>2011-05-22T10:31:55.04</time>
<name>9066</name>
<sym>Dot</sym>
</trkpt>
<trkpt lat="39.806118" lon="-8.467685">
<ele>188.5</ele>
<desc>Speed 25.3 km/h Distance 42.26 km</desc>
<time>2011-05-22T10:31:56.04</time>
<name>9067</name>
<sym>Dot</sym>
</trkpt>
<trkpt lat="39.806057" lon="-8.467662">
<ele>188.5</ele>
<desc>Speed 25.5 km/h Distance 42.27 km</desc>
<time>2011-05-22T10:31:57.04</time>
<name>9068</name>
<sym>Dot</sym>
</trkpt>
<trkpt lat="39.805997" lon="-8.467637">
<ele>188.5</ele>
<desc>Speed 25.4 km/h Distance 42.28 km</desc>
<time>2011-05-22T10:31:58.03</time>
<name>9069</name>
<sym>Dot</sym>
</trkpt>
<trkpt lat="39.805935" lon="-8.467612">
<ele>188.5</ele>
<desc>Speed 25.5 km/h Distance 42.28 km</desc>
<time>2011-05-22T10:31:59.03</time>
<name>9070</name>
<sym>Dot</sym>
</trkpt>
<trkpt lat="39.805875" lon="-8.467588">
<ele>188.5</ele>
<desc>Speed 25.5 km/h Distance 42.29 km</desc>
<time>2011-05-22T10:32:00.02</time>
<name>9071</name>
<sym>Dot</sym>
</trkpt>
<trkpt lat="39.805813" lon="-8.467563">
<ele>188.5</ele>
<desc>Speed 25.5 km/h Distance 42.30 km</desc>
<time>2011-05-22T10:32:01.01</time>
<name>9072</name>
<sym>Dot</sym>
</trkpt>
<trkpt lat="39.805753" lon="-8.467537">
<ele>188.5</ele>
<desc>Speed 25.8 km/h Distance 42.30 km</desc>
<time>2011-05-22T10:32:02.01</time>
<name>9073</name>
<sym>Dot</sym>
</trkpt>
<trkpt lat="39.805693" lon="-8.467508">
<ele>188.5</ele>
<desc>Speed 25.7 km/h Distance 42.31 km</desc>
<time>2011-05-22T10:32:03.01</time>
<name>9074</name>
<sym>Dot</sym>
</trkpt>
<trkpt lat="39.805633" lon="-8.467475">
<ele>188.5</ele>
<desc>Speed 26.0 km/h Distance 42.32 km</desc>
<time>2011-05-22T10:32:04.00</time>
<name>9075</name>
<sym>Dot</sym>
</trkpt>
<trkpt lat="39.805573" lon="-8.467443">
<ele>188.5</ele>
<desc>Speed 26.2 km/h Distance 42.33 km</desc>
<time>2011-05-22T10:32:05.00</time>
<name>9076</name>
<sym>Dot</sym>
</trkpt>
<trkpt lat="39.805513" lon="-8.467408">
<ele>188.5</ele>
<desc>Speed 26.4 km/h Distance 42.33 km</desc>
<time>2011-05-22T10:32:06.00</time>
<name>9077</name>
<sym>Dot</sym>
</trkpt>
<trkpt lat="39.805453" lon="-8.467372">
<ele>188.5</ele>
<desc>Speed 26.7 km/h Distance 42.34 km</desc>
<time>2011-05-22T10:32:07.00</time>
<name>9078</name>
<sym>Dot</sym>
</trkpt>
<trkpt lat="39.805395" lon="-8.467333">
<ele>188.5</ele>
<desc>Speed 26.3 km/h Distance 42.35 km</desc>
<time>2011-05-22T10:32:07.99</time>
<name>9079</name>
<sym>Dot</sym>
</trkpt>
<trkpt lat="39.805335" lon="-8.467298">
<ele>188.5</ele>
<desc>Speed 26.4 km/h Distance 42.36 km</desc>
<time>2011-05-22T10:32:08.99</time>
<name>9080</name>
<sym>Dot</sym>
</trkpt>
<trkpt lat="39.805275" lon="-8.467262">
<ele>188.5</ele>
<desc>Speed 26.4 km/h Distance 42.36 km</desc>
<time>2011-05-22T10:32:09.99</time>
<name>9081</name>
<sym>Dot</sym>
</trkpt>
<trkpt lat="39.805217" lon="-8.467223">
<ele>188.5</ele>
<desc>Speed 26.3 km/h Distance 42.37 km</desc>
<time>2011-05-22T10:32:10.99</time>
<name>9082</name>
<sym>Dot</sym>
</trkpt>
<trkpt lat="39.805158" lon="-8.467185">
<ele>188.5</ele>
<desc>Speed 26.3 km/h Distance 42.38 km</desc>
<time>2011-05-22T10:32:11.98</time>
<name>9083</name>
<sym>Dot</sym>
</trkpt>
<trkpt lat="39.805100" lon="-8.467147">
<ele>188.5</ele>
<desc>Speed 26.3 km/h Distance 42.38 km</desc>
<time>2011-05-22T10:32:12.98</time>
<name>9084</name>
<sym>Dot</sym>
</trkpt>
<trkpt lat="39.805043" lon="-8.467107">
<ele>189.0</ele>
<desc>Speed 25.9 km/h Distance 42.39 km</desc>
<time>2011-05-22T10:32:13.97</time>
<name>9085</name>
<sym>Dot</sym>
</trkpt>
<trkpt lat="39.804988" lon="-8.467068">
<ele>189.0</ele>
<desc>Speed 25.2 km/h Distance 42.40 km</desc>
<time>2011-05-22T10:32:14.97</time>
<name>9086</name>
<sym>Dot</sym>
</trkpt>
<trkpt lat="39.804930" lon="-8.467037">
<ele>189.5</ele>
<desc>Speed 24.8 km/h Distance 42.41 km</desc>
<time>2011-05-22T10:32:15.97</time>
<name>9087</name>
<sym>Dot</sym>
</trkpt>
<trkpt lat="39.804875" lon="-8.467002">
<ele>189.5</ele>
<desc>Speed 24.5 km/h Distance 42.41 km</desc>
<time>2011-05-22T10:32:16.96</time>
<name>9088</name>
<sym>Dot</sym>
</trkpt>
<trkpt lat="39.804822" lon="-8.466968">
<ele>190.0</ele>
<desc>Speed 24.3 km/h Distance 42.42 km</desc>
<time>2011-05-22T10:32:17.96</time>
<name>9089</name>
<sym>Dot</sym>
</trkpt>
<trkpt lat="39.804767" lon="-8.466937">
<ele>190.0</ele>
<desc>Speed 23.9 km/h Distance 42.43 km</desc>
<time>2011-05-22T10:32:18.96</time>
<name>9090</name>
<sym>Dot</sym>
</trkpt>
<trkpt lat="39.804715" lon="-8.466903">
<ele>190.5</ele>
<desc>Speed 23.6 km/h Distance 42.43 km</desc>
<time>2011-05-22T10:32:19.96</time>
<name>9091</name>
<sym>Dot</sym>
</trkpt>
<trkpt lat="39.804662" lon="-8.466870">
<ele>190.5</ele>
<desc>Speed 23.3 km/h Distance 42.44 km</desc>
<time>2011-05-22T10:32:20.95</time>
<name>9092</name>
<sym>Dot</sym>
</trkpt>
<trkpt lat="39.804612" lon="-8.466838">
<ele>190.5</ele>
<desc>Speed 22.6 km/h Distance 42.45 km</desc>
<time>2011-05-22T10:32:21.94</time>
<name>9093</name>
<sym>Dot</sym>
</trkpt>
<trkpt lat="39.804560" lon="-8.466810">
<ele>190.5</ele>
<desc>Speed 22.5 km/h Distance 42.45 km</desc>
<time>2011-05-22T10:32:22.94</time>
<name>9094</name>
<sym>Dot</sym>
</trkpt>
<trkpt lat="39.804508" lon="-8.466783">
<ele>190.5</ele>
<desc>Speed 22.5 km/h Distance 42.46 km</desc>
<time>2011-05-22T10:32:23.93</time>
<name>9095</name>
<sym>Dot</sym>
</trkpt>
<trkpt lat="39.804457" lon="-8.466758">
<ele>190.5</ele>
<desc>Speed 22.4 km/h Distance 42.46 km</desc>
<time>2011-05-22T10:32:24.93</time>
<name>9096</name>
<sym>Dot</sym>
</trkpt>
<trkpt lat="39.804405" lon="-8.466732">
<ele>190.5</ele>
<desc>Speed 22.2 km/h Distance 42.47 km</desc>
<time>2011-05-22T10:32:25.93</time>
<name>9097</name>
<sym>Dot</sym>
</trkpt>
<trkpt lat="39.804353" lon="-8.466708">
<ele>190.5</ele>
<desc>Speed 22.0 km/h Distance 42.48 km</desc>
<time>2011-05-22T10:32:26.92</time>
<name>9098</name>
<sym>Dot</sym>
</trkpt>
<trkpt lat="39.804302" lon="-8.466687">
<ele>190.5</ele>
<desc>Speed 21.9 km/h Distance 42.48 km</desc>
<time>2011-05-22T10:32:27.92</time>
<name>9099</name>
<sym>Dot</sym>
</trkpt>
<trkpt lat="39.804248" lon="-8.466665">
<ele>190.5</ele>
<desc>Speed 22.2 km/h Distance 42.49 km</desc>
<time>2011-05-22T10:32:28.91</time>
<name>9100</name>
<sym>Dot</sym>
</trkpt>
<trkpt lat="39.804197" lon="-8.466647">
<ele>190.5</ele>
<desc>Speed 22.1 km/h Distance 42.49 km</desc>
<time>2011-05-22T10:32:29.91</time>
<name>9101</name>
<sym>Dot</sym>
</trkpt>
<trkpt lat="39.804143" lon="-8.466628">
<ele>190.5</ele>
<desc>Speed 22.3 km/h Distance 42.50 km</desc>
<time>2011-05-22T10:32:30.91</time>
<name>9102</name>
<sym>Dot</sym>
</trkpt>
<trkpt lat="39.804088" lon="-8.466610">
<ele>190.0</ele>
<desc>Speed 22.6 km/h Distance 42.51 km</desc>
<time>2011-05-22T10:32:31.91</time>
<name>9103</name>
<sym>Dot</sym>
</trkpt>
<trkpt lat="39.804033" lon="-8.466592">
<ele>190.0</ele>
<desc>Speed 22.7 km/h Distance 42.51 km</desc>
<time>2011-05-22T10:32:32.90</time>
<name>9104</name>
<sym>Dot</sym>
</trkpt>
<trkpt lat="39.803980" lon="-8.466578">
<ele>190.0</ele>
<desc>Speed 22.6 km/h Distance 42.52 km</desc>
<time>2011-05-22T10:32:33.90</time>
<name>9105</name>
<sym>Dot</sym>
</trkpt>
<trkpt lat="39.803923" lon="-8.466565">
<ele>190.0</ele>
<desc>Speed 22.8 km/h Distance 42.53 km</desc>
<time>2011-05-22T10:32:34.90</time>
<name>9106</name>
<sym>Dot</sym>
</trkpt>
<trkpt lat="39.803868" lon="-8.466550">
<ele>189.5</ele>
<desc>Speed 22.6 km/h Distance 42.53 km</desc>
<time>2011-05-22T10:32:35.90</time>
<name>9107</name>
<sym>Dot</sym>
</trkpt>
<trkpt lat="39.803813" lon="-8.466537">
<ele>189.5</ele>
<desc>Speed 22.5 km/h Distance 42.54 km</desc>
<time>2011-05-22T10:32:36.90</time>
<name>9108</name>
<sym>Dot</sym>
</trkpt>
<trkpt lat="39.803758" lon="-8.466525">
<ele>189.5</ele>
<desc>Speed 22.8 km/h Distance 42.54 km</desc>
<time>2011-05-22T10:32:37.89</time>
<name>9109</name>
<sym>Dot</sym>
</trkpt>
<trkpt lat="39.803702" lon="-8.466515">
<ele>189.5</ele>
<desc>Speed 22.6 km/h Distance 42.55 km</desc>
<time>2011-05-22T10:32:38.89</time>
<name>9110</name>
<sym>Dot</sym>
</trkpt>
<trkpt lat="39.803647" lon="-8.466503">
<ele>189.5</ele>
<desc>Speed 22.5 km/h Distance 42.56 km</desc>
<time>2011-05-22T10:32:39.89</time>
<name>9111</name>
<sym>Dot</sym>
</trkpt>
<trkpt lat="39.803592" lon="-8.466492">
<ele>189.0</ele>
<desc>Speed 22.6 km/h Distance 42.56 km</desc>
<time>2011-05-22T10:32:40.89</time>
<name>9112</name>
<sym>Dot</sym>
</trkpt>
<trkpt lat="39.803537" lon="-8.466480">
<ele>189.0</ele>
<desc>Speed 22.4 km/h Distance 42.57 km</desc>
<time>2011-05-22T10:32:41.88</time>
<name>9113</name>
<sym>Dot</sym>
</trkpt>
<trkpt lat="39.803482" lon="-8.466470">
<ele>189.0</ele>
<desc>Speed 22.7 km/h Distance 42.58 km</desc>
<time>2011-05-22T10:32:42.88</time>
<name>9114</name>
<sym>Dot</sym>
</trkpt>
<trkpt lat="39.803425" lon="-8.466458">
<ele>188.5</ele>
<desc>Speed 23.3 km/h Distance 42.58 km</desc>
<time>2011-05-22T10:32:43.88</time>
<name>9115</name>
<sym>Dot</sym>
</trkpt>
<trkpt lat="39.803367" lon="-8.466447">
<ele>188.5</ele>
<desc>Speed 23.3 km/h Distance 42.59 km</desc>
<time>2011-05-22T10:32:44.88</time>
<name>9116</name>
<sym>Dot</sym>
</trkpt>
<trkpt lat="39.803310" lon="-8.466435">
<ele>188.5</ele>
<desc>Speed 23.3 km/h Distance 42.59 km</desc>
<time>2011-05-22T10:32:45.87</time>
<name>9117</name>
<sym>Dot</sym>
</trkpt>
<trkpt lat="39.803253" lon="-8.466423">
<ele>188.0</ele>
<desc>Speed 23.4 km/h Distance 42.60 km</desc>
<time>2011-05-22T10:32:46.87</time>
<name>9118</name>
<sym>Dot</sym>
</trkpt>
<trkpt lat="39.803195" lon="-8.466410">
<ele>187.5</ele>
<desc>Speed 23.8 km/h Distance 42.61 km</desc>
<time>2011-05-22T10:32:47.87</time>
<name>9119</name>
<sym>Dot</sym>
</trkpt>
<trkpt lat="39.803135" lon="-8.466397">
<ele>187.0</ele>
<desc>Speed 24.5 km/h Distance 42.61 km</desc>
<time>2011-05-22T10:32:48.87</time>
<name>9120</name>
<sym>Dot</sym>
</trkpt>
<trkpt lat="39.803077" lon="-8.466383">
<ele>186.5</ele>
<desc>Speed 24.0 km/h Distance 42.62 km</desc>
<time>2011-05-22T10:32:49.86</time>
<name>9121</name>
<sym>Dot</sym>
</trkpt>
<trkpt lat="39.803018" lon="-8.466372">
<ele>186.5</ele>
<desc>Speed 24.2 km/h Distance 42.63 km</desc>
<time>2011-05-22T10:32:50.85</time>
<name>9122</name>
<sym>Dot</sym>
</trkpt>
<trkpt lat="39.802958" lon="-8.466360">
<ele>186.0</ele>
<desc>Speed 24.3 km/h Distance 42.63 km</desc>
<time>2011-05-22T10:32:51.85</time>
<name>9123</name>
<sym>Dot</sym>
</trkpt>
<trkpt lat="39.802898" lon="-8.466347">
<ele>185.5</ele>
<desc>Speed 24.8 km/h Distance 42.64 km</desc>
<time>2011-05-22T10:32:52.85</time>
<name>9124</name>
<sym>Dot</sym>
</trkpt>
<trkpt lat="39.802838" lon="-8.466335">
<ele>185.5</ele>
<desc>Speed 24.6 km/h Distance 42.65 km</desc>
<time>2011-05-22T10:32:53.85</time>
<name>9125</name>
<sym>Dot</sym>
</trkpt>
<trkpt lat="39.802777" lon="-8.466323">
<ele>185.5</ele>
<desc>Speed 25.0 km/h Distance 42.65 km</desc>
<time>2011-05-22T10:32:54.84</time>
<name>9126</name>
<sym>Dot</sym>
</trkpt>
<trkpt lat="39.802715" lon="-8.466312">
<ele>185.5</ele>
<desc>Speed 25.2 km/h Distance 42.66 km</desc>
<time>2011-05-22T10:32:55.84</time>
<name>9127</name>
<sym>Dot</sym>
</trkpt>
<trkpt lat="39.802653" lon="-8.466300">
<ele>185.0</ele>
<desc>Speed 25.5 km/h Distance 42.67 km</desc>
<time>2011-05-22T10:32:56.84</time>
<name>9128</name>
<sym>Dot</sym>
</trkpt>
<trkpt lat="39.802590" lon="-8.466288">
<ele>185.0</ele>
<desc>Speed 25.5 km/h Distance 42.68 km</desc>
<time>2011-05-22T10:32:57.84</time>
<name>9129</name>
<sym>Dot</sym>
</trkpt>
<trkpt lat="39.802528" lon="-8.466275">
<ele>184.5</ele>
<desc>Speed 25.9 km/h Distance 42.68 km</desc>
<time>2011-05-22T10:32:58.83</time>
<name>9130</name>
<sym>Dot</sym>
</trkpt>
<trkpt lat="39.802463" lon="-8.466262">
<ele>184.5</ele>
<desc>Speed 26.1 km/h Distance 42.69 km</desc>
<time>2011-05-22T10:32:59.83</time>
<name>9131</name>
<sym>Dot</sym>
</trkpt>
<trkpt lat="39.802400" lon="-8.466248">
<ele>184.0</ele>
<desc>Speed 26.4 km/h Distance 42.70 km</desc>
<time>2011-05-22T10:33:00.82</time>
<name>9132</name>
<sym>Dot</sym>
</trkpt>
<trkpt lat="39.802335" lon="-8.466237">
<ele>184.0</ele>
<desc>Speed 26.5 km/h Distance 42.70 km</desc>
<time>2011-05-22T10:33:01.82</time>
<name>9133</name>
<sym>Dot</sym>
</trkpt>
<trkpt lat="39.802270" lon="-8.466223">
<ele>183.5</ele>
<desc>Speed 26.6 km/h Distance 42.71 km</desc>
<time>2011-05-22T10:33:02.81</time>
<name>9134</name>
<sym>Dot</sym>
</trkpt>
<trkpt lat="39.802205" lon="-8.466210">
<ele>183.5</ele>
<desc>Speed 26.6 km/h Distance 42.72 km</desc>
<time>2011-05-22T10:33:03.81</time>
<name>9135</name>
<sym>Dot</sym>
</trkpt>
<trkpt lat="39.802138" lon="-8.466198">
<ele>183.5</ele>
<desc>Speed 27.0 km/h Distance 42.73 km</desc>
<time>2011-05-22T10:33:04.81</time>
<name>9136</name>
<sym>Dot</sym>
</trkpt>
<trkpt lat="39.802073" lon="-8.466187">
<ele>183.5</ele>
<desc>Speed 27.3 km/h Distance 42.73 km</desc>
<time>2011-05-22T10:33:05.81</time>
<name>9137</name>
<sym>Dot</sym>
</trkpt>
<trkpt lat="39.802003" lon="-8.466175">
<ele>183.5</ele>
<desc>Speed 27.9 km/h Distance 42.74 km</desc>
<time>2011-05-22T10:33:06.80</time>
<name>9138</name>
<sym>Dot</sym>
</trkpt>
<trkpt lat="39.801935" lon="-8.466162">
<ele>183.5</ele>
<desc>Speed 27.9 km/h Distance 42.75 km</desc>
<time>2011-05-22T10:33:07.80</time>
<name>9139</name>
<sym>Dot</sym>
</trkpt>
<trkpt lat="39.801867" lon="-8.466148">
<ele>183.5</ele>
<desc>Speed 28.2 km/h Distance 42.76 km</desc>
<time>2011-05-22T10:33:08.80</time>
<name>9140</name>
<sym>Dot</sym>
</trkpt>
<trkpt lat="39.801797" lon="-8.466137">
<ele>183.0</ele>
<desc>Speed 28.4 km/h Distance 42.77 km</desc>
<time>2011-05-22T10:33:09.80</time>
<name>9141</name>
<sym>Dot</sym>
</trkpt>
<trkpt lat="39.801727" lon="-8.466122">
<ele>183.0</ele>
<desc>Speed 28.5 km/h Distance 42.77 km</desc>
<time>2011-05-22T10:33:10.79</time>
<name>9142</name>
<sym>Dot</sym>
</trkpt>
<trkpt lat="39.801657" lon="-8.466110">
<ele>183.0</ele>
<desc>Speed 28.7 km/h Distance 42.78 km</desc>
<time>2011-05-22T10:33:11.79</time>
<name>9143</name>
<sym>Dot</sym>
</trkpt>
<trkpt lat="39.801587" lon="-8.466097">
<ele>183.5</ele>
<desc>Speed 28.7 km/h Distance 42.79 km</desc>
<time>2011-05-22T10:33:12.79</time>
<name>9144</name>
<sym>Dot</sym>
</trkpt>
<trkpt lat="39.801515" lon="-8.466083">
<ele>183.5</ele>
<desc>Speed 29.0 km/h Distance 42.80 km</desc>
<time>2011-05-22T10:33:13.79</time>
<name>9145</name>
<sym>Dot</sym>
</trkpt>
<trkpt lat="39.801443" lon="-8.466072">
<ele>184.0</ele>
<desc>Speed 29.2 km/h Distance 42.80 km</desc>
<time>2011-05-22T10:33:14.78</time>
<name>9146</name>
<sym>Dot</sym>
</trkpt>
<trkpt lat="39.801372" lon="-8.466062">
<ele>184.0</ele>
<desc>Speed 28.9 km/h Distance 42.81 km</desc>
<time>2011-05-22T10:33:15.78</time>
<name>9147</name>
<sym>Dot</sym>
</trkpt>
<trkpt lat="39.801298" lon="-8.466048">
<ele>184.0</ele>
<desc>Speed 29.6 km/h Distance 42.82 km</desc>
<time>2011-05-22T10:33:16.77</time>
<name>9148</name>
<sym>Dot</sym>
</trkpt>
<trkpt lat="39.801228" lon="-8.466038">
<ele>184.0</ele>
<desc>Speed 29.0 km/h Distance 42.83 km</desc>
<time>2011-05-22T10:33:17.76</time>
<name>9149</name>
<sym>Dot</sym>
</trkpt>
<trkpt lat="39.801157" lon="-8.466027">
<ele>184.5</ele>
<desc>Speed 28.4 km/h Distance 42.84 km</desc>
<time>2011-05-22T10:33:18.76</time>
<name>9150</name>
<sym>Dot</sym>
</trkpt>
<trkpt lat="39.801087" lon="-8.466018">
<ele>184.0</ele>
<desc>Speed 28.8 km/h Distance 42.84 km</desc>
<time>2011-05-22T10:33:19.76</time>
<name>9151</name>
<sym>Dot</sym>
</trkpt>
<trkpt lat="39.801018" lon="-8.466010">
<ele>184.5</ele>
<desc>Speed 27.9 km/h Distance 42.85 km</desc>
<time>2011-05-22T10:33:20.76</time>
<name>9152</name>
<sym>Dot</sym>
</trkpt>
<trkpt lat="39.800948" lon="-8.466000">
<ele>184.5</ele>
<desc>Speed 27.8 km/h Distance 42.86 km</desc>
<time>2011-05-22T10:33:21.75</time>
<name>9153</name>
<sym>Dot</sym>
</trkpt>
<trkpt lat="39.800882" lon="-8.465988">
<ele>184.5</ele>
<desc>Speed 27.5 km/h Distance 42.87 km</desc>
<time>2011-05-22T10:33:22.75</time>
<name>9154</name>
<sym>Dot</sym>
</trkpt>
<trkpt lat="39.800813" lon="-8.465978">
<ele>184.5</ele>
<desc>Speed 27.4 km/h Distance 42.88 km</desc>
<time>2011-05-22T10:33:23.75</time>
<name>9155</name>
<sym>Dot</sym>
</trkpt>
<trkpt lat="39.800747" lon="-8.465973">
<ele>184.5</ele>
<desc>Speed 26.9 km/h Distance 42.88 km</desc>
<time>2011-05-22T10:33:24.75</time>
<name>9156</name>
<sym>Dot</sym>
</trkpt>
<trkpt lat="39.800680" lon="-8.465968">
<ele>184.5</ele>
<desc>Speed 26.9 km/h Distance 42.89 km</desc>
<time>2011-05-22T10:33:25.74</time>
<name>9157</name>
<sym>Dot</sym>
</trkpt>
<trkpt lat="39.800615" lon="-8.465963">
<ele>184.0</ele>
<desc>Speed 26.9 km/h Distance 42.90 km</desc>
<time>2011-05-22T10:33:26.74</time>
<name>9158</name>
<sym>Dot</sym>
</trkpt>
<trkpt lat="39.800548" lon="-8.465958">
<ele>184.0</ele>
<desc>Speed 26.8 km/h Distance 42.90 km</desc>
<time>2011-05-22T10:33:27.74</time>
<name>9159</name>
<sym>Dot</sym>
</trkpt>
<trkpt lat="39.800483" lon="-8.465953">
<ele>184.0</ele>
<desc>Speed 26.8 km/h Distance 42.91 km</desc>
<time>2011-05-22T10:33:28.74</time>
<name>9160</name>
<sym>Dot</sym>
</trkpt>
<trkpt lat="39.800417" lon="-8.465950">
<ele>184.0</ele>
<desc>Speed 26.9 km/h Distance 42.92 km</desc>
<time>2011-05-22T10:33:29.73</time>
<name>9161</name>
<sym>Dot</sym>
</trkpt>
<trkpt lat="39.800352" lon="-8.465943">
<ele>184.0</ele>
<desc>Speed 26.4 km/h Distance 42.93 km</desc>
<time>2011-05-22T10:33:30.72</time>
<name>9162</name>
<sym>Dot</sym>
</trkpt>
<trkpt lat="39.800287" lon="-8.465935">
<ele>184.0</ele>
<desc>Speed 26.4 km/h Distance 42.93 km</desc>
<time>2011-05-22T10:33:31.73</time>
<name>9163</name>
<sym>Dot</sym>
</trkpt>
<trkpt lat="39.800222" lon="-8.465930">
<ele>183.5</ele>
<desc>Speed 26.8 km/h Distance 42.94 km</desc>
<time>2011-05-22T10:33:32.72</time>
<name>9164</name>
<sym>Dot</sym>
</trkpt>
<trkpt lat="39.800153" lon="-8.465927">
<ele>183.5</ele>
<desc>Speed 27.3 km/h Distance 42.95 km</desc>
<time>2011-05-22T10:33:33.71</time>
<name>9165</name>
<sym>Dot</sym>
</trkpt>
<trkpt lat="39.800085" lon="-8.465922">
<ele>183.0</ele>
<desc>Speed 27.9 km/h Distance 42.96 km</desc>
<time>2011-05-22T10:33:34.71</time>
<name>9166</name>
<sym>Dot</sym>
</trkpt>
<trkpt lat="39.800015" lon="-8.465918">
<ele>183.0</ele>
<desc>Speed 28.2 km/h Distance 42.96 km</desc>
<time>2011-05-22T10:33:35.71</time>
<name>9167</name>
<sym>Dot</sym>
</trkpt>
<trkpt lat="39.799943" lon="-8.465915">
<ele>182.5</ele>
<desc>Speed 29.0 km/h Distance 42.97 km</desc>
<time>2011-05-22T10:33:36.71</time>
<name>9168</name>
<sym>Dot</sym>
</trkpt>
<trkpt lat="39.799872" lon="-8.465918">
<ele>182.0</ele>
<desc>Speed 29.6 km/h Distance 42.98 km</desc>
<time>2011-05-22T10:33:37.70</time>
<name>9169</name>
<sym>Dot</sym>
</trkpt>
<trkpt lat="39.799798" lon="-8.465928">
<ele>182.0</ele>
<desc>Speed 29.8 km/h Distance 42.99 km</desc>
<time>2011-05-22T10:33:38.70</time>
<name>9170</name>
<sym>Dot</sym>
</trkpt>
<trkpt lat="39.799723" lon="-8.465952">
<ele>182.0</ele>
<desc>Speed 31.4 km/h Distance 43.00 km</desc>
<time>2011-05-22T10:33:39.70</time>
<name>9171</name>
<sym>Dot</sym>
</trkpt>
<trkpt lat="39.799645" lon="-8.465978">
<ele>181.5</ele>
<desc>Speed 32.6 km/h Distance 43.01 km</desc>
<time>2011-05-22T10:33:40.70</time>
<name>9172</name>
<sym>Dot</sym>
</trkpt>
<trkpt lat="39.799565" lon="-8.466012">
<ele>181.5</ele>
<desc>Speed 33.8 km/h Distance 43.02 km</desc>
<time>2011-05-22T10:33:41.69</time>
<name>9173</name>
<sym>Dot</sym>
</trkpt>
<trkpt lat="39.799483" lon="-8.466048">
<ele>181.0</ele>
<desc>Speed 34.7 km/h Distance 43.03 km</desc>
<time>2011-05-22T10:33:42.69</time>
<name>9174</name>
<sym>Dot</sym>
</trkpt>
<trkpt lat="39.799400" lon="-8.466087">
<ele>180.5</ele>
<desc>Speed 35.3 km/h Distance 43.03 km</desc>
<time>2011-05-22T10:33:43.69</time>
<name>9175</name>
<sym>Dot</sym>
</trkpt>
<trkpt lat="39.799312" lon="-8.466120">
<ele>180.0</ele>
<desc>Speed 37.4 km/h Distance 43.05 km</desc>
<time>2011-05-22T10:33:44.68</time>
<name>9176</name>
<sym>Dot</sym>
</trkpt>
<trkpt lat="39.799225" lon="-8.466157">
<ele>179.5</ele>
<desc>Speed 36.8 km/h Distance 43.06 km</desc>
<time>2011-05-22T10:33:45.68</time>
<name>9177</name>
<sym>Dot</sym>
</trkpt>
<trkpt lat="39.799138" lon="-8.466197">
<ele>179.0</ele>
<desc>Speed 36.9 km/h Distance 43.07 km</desc>
<time>2011-05-22T10:33:46.68</time>
<name>9178</name>
<sym>Dot</sym>
</trkpt>
<trkpt lat="39.799053" lon="-8.466238">
<ele>179.0</ele>
<desc>Speed 36.6 km/h Distance 43.08 km</desc>
<time>2011-05-22T10:33:47.67</time>
<name>9179</name>
<sym>Dot</sym>
</trkpt>
<trkpt lat="39.798970" lon="-8.466283">
<ele>178.5</ele>
<desc>Speed 36.1 km/h Distance 43.09 km</desc>
<time>2011-05-22T10:33:48.67</time>
<name>9180</name>
<sym>Dot</sym>
</trkpt>
<trkpt lat="39.798887" lon="-8.466323">
<ele>178.5</ele>
<desc>Speed 36.3 km/h Distance 43.10 km</desc>
<time>2011-05-22T10:33:49.67</time>
<name>9181</name>
<sym>Dot</sym>
</trkpt>
<trkpt lat="39.798803" lon="-8.466363">
<ele>178.5</ele>
<desc>Speed 35.5 km/h Distance 43.11 km</desc>
<time>2011-05-22T10:33:50.66</time>
<name>9182</name>
<sym>Dot</sym>
</trkpt>
<trkpt lat="39.798722" lon="-8.466402">
<ele>178.5</ele>
<desc>Speed 34.7 km/h Distance 43.12 km</desc>
<time>2011-05-22T10:33:51.66</time>
<name>9183</name>
<sym>Dot</sym>
</trkpt>
<trkpt lat="39.798642" lon="-8.466437">
<ele>178.5</ele>
<desc>Speed 34.3 km/h Distance 43.12 km</desc>
<time>2011-05-22T10:33:52.66</time>
<name>9184</name>
<sym>Dot</sym>
</trkpt>
<trkpt lat="39.798563" lon="-8.466475">
<ele>178.5</ele>
<desc>Speed 33.2 km/h Distance 43.13 km</desc>
<time>2011-05-22T10:33:53.65</time>
<name>9185</name>
<sym>Dot</sym>
</trkpt>
<trkpt lat="39.798488" lon="-8.466515">
<ele>178.5</ele>
<desc>Speed 32.5 km/h Distance 43.14 km</desc>
<time>2011-05-22T10:33:54.65</time>
<name>9186</name>
<sym>Dot</sym>
</trkpt>
<trkpt lat="39.798415" lon="-8.466552">
<ele>178.5</ele>
<desc>Speed 32.1 km/h Distance 43.15 km</desc>
<time>2011-05-22T10:33:55.65</time>
<name>9187</name>
<sym>Dot</sym>
</trkpt>
<trkpt lat="39.798340" lon="-8.466588">
<ele>178.5</ele>
<desc>Speed 31.9 km/h Distance 43.16 km</desc>
<time>2011-05-22T10:33:56.64</time>
<name>9188</name>
<sym>Dot</sym>
</trkpt>
<trkpt lat="39.798268" lon="-8.466625">
<ele>178.5</ele>
<desc>Speed 31.1 km/h Distance 43.17 km</desc>
<time>2011-05-22T10:33:57.64</time>
<name>9189</name>
<sym>Dot</sym>
</trkpt>
<trkpt lat="39.798197" lon="-8.466658">
<ele>178.5</ele>
<desc>Speed 30.6 km/h Distance 43.18 km</desc>
<time>2011-05-22T10:33:58.64</time>
<name>9190</name>
<sym>Dot</sym>
</trkpt>
<trkpt lat="39.798127" lon="-8.466688">
<ele>179.0</ele>
<desc>Speed 29.9 km/h Distance 43.19 km</desc>
<time>2011-05-22T10:33:59.64</time>
<name>9191</name>
<sym>Dot</sym>
</trkpt>
<trkpt lat="39.798057" lon="-8.466715">
<ele>179.0</ele>
<desc>Speed 29.7 km/h Distance 43.19 km</desc>
<time>2011-05-22T10:34:00.63</time>
<name>9192</name>
<sym>Dot</sym>
</trkpt>
<trkpt lat="39.797985" lon="-8.466732">
<ele>179.5</ele>
<desc>Speed 29.3 km/h Distance 43.20 km</desc>
<time>2011-05-22T10:34:01.63</time>
<name>9193</name>
<sym>Dot</sym>
</trkpt>
<trkpt lat="39.797913" lon="-8.466738">
<ele>180.0</ele>
<desc>Speed 28.9 km/h Distance 43.21 km</desc>
<time>2011-05-22T10:34:02.63</time>
<name>9194</name>
<sym>Dot</sym>
</trkpt>
<trkpt lat="39.797842" lon="-8.466737">
<ele>180.0</ele>
<desc>Speed 28.9 km/h Distance 43.22 km</desc>
<time>2011-05-22T10:34:03.62</time>
<name>9195</name>
<sym>Dot</sym>
</trkpt>
<trkpt lat="39.797770" lon="-8.466730">
<ele>180.0</ele>
<desc>Speed 28.8 km/h Distance 43.23 km</desc>
<time>2011-05-22T10:34:04.62</time>
<name>9196</name>
<sym>Dot</sym>
</trkpt>
<trkpt lat="39.797700" lon="-8.466717">
<ele>180.0</ele>
<desc>Speed 29.0 km/h Distance 43.23 km</desc>
<time>2011-05-22T10:34:05.62</time>
<name>9197</name>
<sym>Dot</sym>
</trkpt>
<trkpt lat="39.797630" lon="-8.466697">
<ele>180.0</ele>
<desc>Speed 29.1 km/h Distance 43.24 km</desc>
<time>2011-05-22T10:34:06.62</time>
<name>9198</name>
<sym>Dot</sym>
</trkpt>
<trkpt lat="39.797563" lon="-8.466670">
<ele>180.0</ele>
<desc>Speed 28.7 km/h Distance 43.25 km</desc>
<time>2011-05-22T10:34:07.62</time>
<name>9199</name>
<sym>Dot</sym>
</trkpt>
<trkpt lat="39.797495" lon="-8.466642">
<ele>181.0</ele>
<desc>Speed 28.9 km/h Distance 43.26 km</desc>
<time>2011-05-22T10:34:08.61</time>
<name>9200</name>
<sym>Dot</sym>
</trkpt>
<trkpt lat="39.797430" lon="-8.466613">
<ele>182.0</ele>
<desc>Speed 28.7 km/h Distance 43.27 km</desc>
<time>2011-05-22T10:34:09.61</time>
<name>9201</name>
<sym>Dot</sym>
</trkpt>
<trkpt lat="39.797362" lon="-8.466583">
<ele>182.5</ele>
<desc>Speed 29.3 km/h Distance 43.27 km</desc>
<time>2011-05-22T10:34:10.61</time>
<name>9202</name>
<sym>Dot</sym>
</trkpt>
<trkpt lat="39.797293" lon="-8.466552">
<ele>183.0</ele>
<desc>Speed 30.2 km/h Distance 43.28 km</desc>
<time>2011-05-22T10:34:11.60</time>
<name>9203</name>
<sym>Dot</sym>
</trkpt>
<trkpt lat="39.797223" lon="-8.466522">
<ele>183.5</ele>
<desc>Speed 30.2 km/h Distance 43.29 km</desc>
<time>2011-05-22T10:34:12.60</time>
<name>9204</name>
<sym>Dot</sym>
</trkpt>
<trkpt lat="39.797157" lon="-8.466492">
<ele>183.5</ele>
<desc>Speed 28.9 km/h Distance 43.30 km</desc>
<time>2011-05-22T10:34:13.60</time>
<name>9205</name>
<sym>Dot</sym>
</trkpt>
<trkpt lat="39.797090" lon="-8.466458">
<ele>183.5</ele>
<desc>Speed 29.3 km/h Distance 43.31 km</desc>
<time>2011-05-22T10:34:14.59</time>
<name>9206</name>
<sym>Dot</sym>
</trkpt>
<trkpt lat="39.797025" lon="-8.466430">
<ele>183.5</ele>
<desc>Speed 28.7 km/h Distance 43.31 km</desc>
<time>2011-05-22T10:34:15.59</time>
<name>9207</name>
<sym>Dot</sym>
</trkpt>
<trkpt lat="39.796962" lon="-8.466400">
<ele>184.0</ele>
<desc>Speed 28.0 km/h Distance 43.32 km</desc>
<time>2011-05-22T10:34:16.59</time>
<name>9208</name>
<sym>Dot</sym>
</trkpt>
<trkpt lat="39.796898" lon="-8.466373">
<ele>184.0</ele>
<desc>Speed 27.7 km/h Distance 43.33 km</desc>
<time>2011-05-22T10:34:17.59</time>
<name>9209</name>
<sym>Dot</sym>
</trkpt>
<trkpt lat="39.796835" lon="-8.466345">
<ele>183.5</ele>
<desc>Speed 27.8 km/h Distance 43.34 km</desc>
<time>2011-05-22T10:34:18.57</time>
<name>9210</name>
<sym>Dot</sym>
</trkpt>
<trkpt lat="39.796768" lon="-8.466323">
<ele>185.0</ele>
<desc>Speed 28.4 km/h Distance 43.34 km</desc>
<time>2011-05-22T10:34:19.57</time>
<name>9211</name>
<sym>Dot</sym>
</trkpt>
<trkpt lat="39.796702" lon="-8.466298">
<ele>185.0</ele>
<desc>Speed 28.2 km/h Distance 43.35 km</desc>
<time>2011-05-22T10:34:20.57</time>
<name>9212</name>
<sym>Dot</sym>
</trkpt>
<trkpt lat="39.796637" lon="-8.466275">
<ele>184.5</ele>
<desc>Speed 27.9 km/h Distance 43.36 km</desc>
<time>2011-05-22T10:34:21.58</time>
<name>9213</name>
<sym>Dot</sym>
</trkpt>
<trkpt lat="39.796568" lon="-8.466255">
<ele>184.0</ele>
<desc>Speed 28.3 km/h Distance 43.37 km</desc>
<time>2011-05-22T10:34:22.57</time>
<name>9214</name>
<sym>Dot</sym>
</trkpt>
<trkpt lat="39.796502" lon="-8.466240">
<ele>183.5</ele>
<desc>Speed 27.9 km/h Distance 43.37 km</desc>
<time>2011-05-22T10:34:23.56</time>
<name>9215</name>
<sym>Dot</sym>
</trkpt>
<trkpt lat="39.796433" lon="-8.466228">
<ele>183.5</ele>
<desc>Speed 28.1 km/h Distance 43.38 km</desc>
<time>2011-05-22T10:34:24.56</time>
<name>9216</name>
<sym>Dot</sym>
</trkpt>
<trkpt lat="39.796363" lon="-8.466220">
<ele>183.5</ele>
<desc>Speed 28.4 km/h Distance 43.39 km</desc>
<time>2011-05-22T10:34:25.56</time>
<name>9217</name>
<sym>Dot</sym>
</trkpt>
<trkpt lat="39.796292" lon="-8.466215">
<ele>183.5</ele>
<desc>Speed 28.7 km/h Distance 43.40 km</desc>
<time>2011-05-22T10:34:26.55</time>
<name>9218</name>
<sym>Dot</sym>
</trkpt>
<trkpt lat="39.796220" lon="-8.466213">
<ele>183.5</ele>
<desc>Speed 28.7 km/h Distance 43.41 km</desc>
<time>2011-05-22T10:34:27.55</time>
<name>9219</name>
<sym>Dot</sym>
</trkpt>
<trkpt lat="39.796150" lon="-8.466215">
<ele>183.0</ele>
<desc>Speed 29.1 km/h Distance 43.41 km</desc>
<time>2011-05-22T10:34:28.55</time>
<name>9220</name>
<sym>Dot</sym>
</trkpt>
<trkpt lat="39.796078" lon="-8.466218">
<ele>183.0</ele>
<desc>Speed 29.1 km/h Distance 43.42 km</desc>
<time>2011-05-22T10:34:29.55</time>
<name>9221</name>
<sym>Dot</sym>
</trkpt>
<trkpt lat="39.796007" lon="-8.466223">
<ele>182.5</ele>
<desc>Speed 29.2 km/h Distance 43.43 km</desc>
<time>2011-05-22T10:34:30.54</time>
<name>9222</name>
<sym>Dot</sym>
</trkpt>
<trkpt lat="39.795935" lon="-8.466230">
<ele>182.5</ele>
<desc>Speed 29.0 km/h Distance 43.44 km</desc>
<time>2011-05-22T10:34:31.54</time>
<name>9223</name>
<sym>Dot</sym>
</trkpt>
<trkpt lat="39.795863" lon="-8.466240">
<ele>182.5</ele>
<desc>Speed 29.2 km/h Distance 43.44 km</desc>
<time>2011-05-22T10:34:32.54</time>
<name>9224</name>
<sym>Dot</sym>
</trkpt>
<trkpt lat="39.795790" lon="-8.466243">
<ele>182.0</ele>
<desc>Speed 29.7 km/h Distance 43.45 km</desc>
<time>2011-05-22T10:34:33.53</time>
<name>9225</name>
<sym>Dot</sym>
</trkpt>
<trkpt lat="39.795718" lon="-8.466247">
<ele>181.5</ele>
<desc>Speed 29.1 km/h Distance 43.46 km</desc>
<time>2011-05-22T10:34:34.52</time>
<name>9226</name>
<sym>Dot</sym>
</trkpt>
<trkpt lat="39.795648" lon="-8.466252">
<ele>181.5</ele>
<desc>Speed 28.7 km/h Distance 43.47 km</desc>
<time>2011-05-22T10:34:35.52</time>
<name>9227</name>
<sym>Dot</sym>
</trkpt>
<trkpt lat="39.795578" lon="-8.466258">
<ele>181.0</ele>
<desc>Speed 28.9 km/h Distance 43.48 km</desc>
<time>2011-05-22T10:34:36.52</time>
<name>9228</name>
<sym>Dot</sym>
</trkpt>
<trkpt lat="39.795507" lon="-8.466262">
<ele>180.5</ele>
<desc>Speed 29.4 km/h Distance 43.48 km</desc>
<time>2011-05-22T10:34:37.51</time>
<name>9229</name>
<sym>Dot</sym>
</trkpt>
<trkpt lat="39.795435" lon="-8.466267">
<ele>180.0</ele>
<desc>Speed 29.1 km/h Distance 43.49 km</desc>
<time>2011-05-22T10:34:38.51</time>
<name>9230</name>
<sym>Dot</sym>
</trkpt>
<trkpt lat="39.795363" lon="-8.466277">
<ele>179.5</ele>
<desc>Speed 29.1 km/h Distance 43.50 km</desc>
<time>2011-05-22T10:34:39.51</time>
<name>9231</name>
<sym>Dot</sym>
</trkpt>
<trkpt lat="39.795293" lon="-8.466287">
<ele>179.5</ele>
<desc>Speed 29.0 km/h Distance 43.51 km</desc>
<time>2011-05-22T10:34:40.51</time>
<name>9232</name>
<sym>Dot</sym>
</trkpt>
<trkpt lat="39.795222" lon="-8.466295">
<ele>179.0</ele>
<desc>Speed 29.3 km/h Distance 43.52 km</desc>
<time>2011-05-22T10:34:41.50</time>
<name>9233</name>
<sym>Dot</sym>
</trkpt>
<trkpt lat="39.795150" lon="-8.466303">
<ele>178.5</ele>
<desc>Speed 29.0 km/h Distance 43.52 km</desc>
<time>2011-05-22T10:34:42.50</time>
<name>9234</name>
<sym>Dot</sym>
</trkpt>
<trkpt lat="39.795078" lon="-8.466315">
<ele>178.0</ele>
<desc>Speed 29.0 km/h Distance 43.53 km</desc>
<time>2011-05-22T10:34:43.50</time>
<name>9235</name>
<sym>Dot</sym>
</trkpt>
<trkpt lat="39.795007" lon="-8.466325">
<ele>178.0</ele>
<desc>Speed 29.3 km/h Distance 43.54 km</desc>
<time>2011-05-22T10:34:44.50</time>
<name>9236</name>
<sym>Dot</sym>
</trkpt>
<trkpt lat="39.794935" lon="-8.466330">
<ele>177.5</ele>
<desc>Speed 29.3 km/h Distance 43.55 km</desc>
<time>2011-05-22T10:34:45.49</time>
<name>9237</name>
<sym>Dot</sym>
</trkpt>
<trkpt lat="39.794862" lon="-8.466335">
<ele>177.0</ele>
<desc>Speed 29.0 km/h Distance 43.56 km</desc>
<time>2011-05-22T10:34:46.49</time>
<name>9238</name>
<sym>Dot</sym>
</trkpt>
<trkpt lat="39.794792" lon="-8.466340">
<ele>177.0</ele>
<desc>Speed 28.4 km/h Distance 43.56 km</desc>
<time>2011-05-22T10:34:47.49</time>
<name>9239</name>
<sym>Dot</sym>
</trkpt>
<trkpt lat="39.794725" lon="-8.466345">
<ele>177.0</ele>
<desc>Speed 28.1 km/h Distance 43.57 km</desc>
<time>2011-05-22T10:34:48.49</time>
<name>9240</name>
<sym>Dot</sym>
</trkpt>
<trkpt lat="39.794655" lon="-8.466352">
<ele>176.5</ele>
<desc>Speed 28.2 km/h Distance 43.58 km</desc>
<time>2011-05-22T10:34:49.48</time>
<name>9241</name>
<sym>Dot</sym>
</trkpt>
<trkpt lat="39.794588" lon="-8.466358">
<ele>176.5</ele>
<desc>Speed 27.4 km/h Distance 43.59 km</desc>
<time>2011-05-22T10:34:50.48</time>
<name>9242</name>
<sym>Dot</sym>
</trkpt>
<trkpt lat="39.794522" lon="-8.466367">
<ele>176.5</ele>
<desc>Speed 27.5 km/h Distance 43.59 km</desc>
<time>2011-05-22T10:34:51.48</time>
<name>9243</name>
<sym>Dot</sym>
</trkpt>
<trkpt lat="39.794453" lon="-8.466373">
<ele>176.0</ele>
<desc>Speed 27.8 km/h Distance 43.60 km</desc>
<time>2011-05-22T10:34:52.47</time>
<name>9244</name>
<sym>Dot</sym>
</trkpt>
<trkpt lat="39.794385" lon="-8.466380">
<ele>176.0</ele>
<desc>Speed 27.5 km/h Distance 43.61 km</desc>
<time>2011-05-22T10:34:53.47</time>
<name>9245</name>
<sym>Dot</sym>
</trkpt>
<trkpt lat="39.794317" lon="-8.466387">
<ele>176.0</ele>
<desc>Speed 27.3 km/h Distance 43.62 km</desc>
<time>2011-05-22T10:34:54.47</time>
<name>9246</name>
<sym>Dot</sym>
</trkpt>
<trkpt lat="39.794250" lon="-8.466393">
<ele>176.0</ele>
<desc>Speed 27.3 km/h Distance 43.62 km</desc>
<time>2011-05-22T10:34:55.47</time>
<name>9247</name>
<sym>Dot</sym>
</trkpt>
<trkpt lat="39.794183" lon="-8.466398">
<ele>176.0</ele>
<desc>Speed 27.0 km/h Distance 43.63 km</desc>
<time>2011-05-22T10:34:56.46</time>
<name>9248</name>
<sym>Dot</sym>
</trkpt>
<trkpt lat="39.794117" lon="-8.466403">
<ele>176.0</ele>
<desc>Speed 26.5 km/h Distance 43.64 km</desc>
<time>2011-05-22T10:34:57.46</time>
<name>9249</name>
<sym>Dot</sym>
</trkpt>
<trkpt lat="39.794050" lon="-8.466405">
<ele>176.0</ele>
<desc>Speed 26.9 km/h Distance 43.65 km</desc>
<time>2011-05-22T10:34:58.45</time>
<name>9250</name>
<sym>Dot</sym>
</trkpt>
<trkpt lat="39.793987" lon="-8.466412">
<ele>176.5</ele>
<desc>Speed 25.5 km/h Distance 43.65 km</desc>
<time>2011-05-22T10:34:59.45</time>
<name>9251</name>
<sym>Dot</sym>
</trkpt>
<trkpt lat="39.793923" lon="-8.466420">
<ele>176.5</ele>
<desc>Speed 25.7 km/h Distance 43.66 km</desc>
<time>2011-05-22T10:35:00.44</time>
<name>9252</name>
<sym>Dot</sym>
</trkpt>
<trkpt lat="39.793860" lon="-8.466425">
<ele>176.5</ele>
<desc>Speed 25.3 km/h Distance 43.67 km</desc>
<time>2011-05-22T10:35:01.44</time>
<name>9253</name>
<sym>Dot</sym>
</trkpt>
<trkpt lat="39.793798" lon="-8.466432">
<ele>176.5</ele>
<desc>Speed 25.3 km/h Distance 43.68 km</desc>
<time>2011-05-22T10:35:02.44</time>
<name>9254</name>
<sym>Dot</sym>
</trkpt>
<trkpt lat="39.793735" lon="-8.466437">
<ele>176.5</ele>
<desc>Speed 25.0 km/h Distance 43.68 km</desc>
<time>2011-05-22T10:35:03.44</time>
<name>9255</name>
<sym>Dot</sym>
</trkpt>
<trkpt lat="39.793673" lon="-8.466440">
<ele>176.5</ele>
<desc>Speed 25.2 km/h Distance 43.69 km</desc>
<time>2011-05-22T10:35:04.44</time>
<name>9256</name>
<sym>Dot</sym>
</trkpt>
<trkpt lat="39.793612" lon="-8.466447">
<ele>176.5</ele>
<desc>Speed 25.1 km/h Distance 43.70 km</desc>
<time>2011-05-22T10:35:05.43</time>
<name>9257</name>
<sym>Dot</sym>
</trkpt>
<trkpt lat="39.793550" lon="-8.466452">
<ele>176.5</ele>
<desc>Speed 25.1 km/h Distance 43.70 km</desc>
<time>2011-05-22T10:35:06.43</time>
<name>9258</name>
<sym>Dot</sym>
</trkpt>
<trkpt lat="39.793488" lon="-8.466457">
<ele>176.5</ele>
<desc>Speed 24.7 km/h Distance 43.71 km</desc>
<time>2011-05-22T10:35:07.43</time>
<name>9259</name>
<sym>Dot</sym>
</trkpt>
<trkpt lat="39.793428" lon="-8.466462">
<ele>176.5</ele>
<desc>Speed 24.6 km/h Distance 43.72 km</desc>
<time>2011-05-22T10:35:08.42</time>
<name>9260</name>
<sym>Dot</sym>
</trkpt>
<trkpt lat="39.793368" lon="-8.466468">
<ele>176.5</ele>
<desc>Speed 24.5 km/h Distance 43.72 km</desc>
<time>2011-05-22T10:35:09.42</time>
<name>9261</name>
<sym>Dot</sym>
</trkpt>
<trkpt lat="39.793308" lon="-8.466470">
<ele>176.5</ele>
<desc>Speed 24.6 km/h Distance 43.73 km</desc>
<time>2011-05-22T10:35:10.41</time>
<name>9262</name>
<sym>Dot</sym>
</trkpt>
<trkpt lat="39.793250" lon="-8.466472">
<ele>177.0</ele>
<desc>Speed 23.9 km/h Distance 43.74 km</desc>
<time>2011-05-22T10:35:11.41</time>
<name>9263</name>
<sym>Dot</sym>
</trkpt>
<trkpt lat="39.793190" lon="-8.466472">
<ele>177.5</ele>
<desc>Speed 24.1 km/h Distance 43.74 km</desc>
<time>2011-05-22T10:35:12.41</time>
<name>9264</name>
<sym>Dot</sym>
</trkpt>
<trkpt lat="39.793132" lon="-8.466468">
<ele>178.0</ele>
<desc>Speed 24.0 km/h Distance 43.75 km</desc>
<time>2011-05-22T10:35:13.40</time>
<name>9265</name>
<sym>Dot</sym>
</trkpt>
<trkpt lat="39.793073" lon="-8.466458">
<ele>178.0</ele>
<desc>Speed 23.7 km/h Distance 43.76 km</desc>
<time>2011-05-22T10:35:14.40</time>
<name>9266</name>
<sym>Dot</sym>
</trkpt>
<trkpt lat="39.793017" lon="-8.466443">
<ele>178.0</ele>
<desc>Speed 23.3 km/h Distance 43.76 km</desc>
<time>2011-05-22T10:35:15.39</time>
<name>9267</name>
<sym>Dot</sym>
</trkpt>
<trkpt lat="39.792963" lon="-8.466425">
<ele>178.0</ele>
<desc>Speed 23.0 km/h Distance 43.77 km</desc>
<time>2011-05-22T10:35:16.39</time>
<name>9268</name>
<sym>Dot</sym>
</trkpt>
<trkpt lat="39.792912" lon="-8.466403">
<ele>178.5</ele>
<desc>Speed 22.5 km/h Distance 43.77 km</desc>
<time>2011-05-22T10:35:17.39</time>
<name>9269</name>
<sym>Dot</sym>
</trkpt>
<trkpt lat="39.792860" lon="-8.466375">
<ele>178.5</ele>
<desc>Speed 22.9 km/h Distance 43.78 km</desc>
<time>2011-05-22T10:35:18.39</time>
<name>9270</name>
<sym>Dot</sym>
</trkpt>
<trkpt lat="39.792810" lon="-8.466345">
<ele>178.5</ele>
<desc>Speed 22.5 km/h Distance 43.79 km</desc>
<time>2011-05-22T10:35:19.39</time>
<name>9271</name>
<sym>Dot</sym>
</trkpt>
<trkpt lat="39.792763" lon="-8.466312">
<ele>178.5</ele>
<desc>Speed 22.3 km/h Distance 43.79 km</desc>
<time>2011-05-22T10:35:20.38</time>
<name>9272</name>
<sym>Dot</sym>
</trkpt>
<trkpt lat="39.792717" lon="-8.466273">
<ele>178.0</ele>
<desc>Speed 22.8 km/h Distance 43.80 km</desc>
<time>2011-05-22T10:35:21.38</time>
<name>9273</name>
<sym>Dot</sym>
</trkpt>
<trkpt lat="39.792670" lon="-8.466235">
<ele>178.0</ele>
<desc>Speed 22.7 km/h Distance 43.81 km</desc>
<time>2011-05-22T10:35:22.37</time>
<name>9274</name>
<sym>Dot</sym>
</trkpt>
<trkpt lat="39.792623" lon="-8.466195">
<ele>178.5</ele>
<desc>Speed 22.7 km/h Distance 43.81 km</desc>
<time>2011-05-22T10:35:23.37</time>
<name>9275</name>
<sym>Dot</sym>
</trkpt>
<trkpt lat="39.792578" lon="-8.466155">
<ele>178.5</ele>
<desc>Speed 22.4 km/h Distance 43.82 km</desc>
<time>2011-05-22T10:35:24.37</time>
<name>9276</name>
<sym>Dot</sym>
</trkpt>
<trkpt lat="39.792533" lon="-8.466113">
<ele>179.0</ele>
<desc>Speed 23.0 km/h Distance 43.82 km</desc>
<time>2011-05-22T10:35:25.37</time>
<name>9277</name>
<sym>Dot</sym>
</trkpt>
<trkpt lat="39.792490" lon="-8.466072">
<ele>179.0</ele>
<desc>Speed 22.1 km/h Distance 43.83 km</desc>
<time>2011-05-22T10:35:26.36</time>
<name>9278</name>
<sym>Dot</sym>
</trkpt>
<trkpt lat="39.792447" lon="-8.466032">
<ele>179.0</ele>
<desc>Speed 21.8 km/h Distance 43.84 km</desc>
<time>2011-05-22T10:35:27.36</time>
<name>9279</name>
<sym>Dot</sym>
</trkpt>
<trkpt lat="39.792405" lon="-8.465993">
<ele>179.5</ele>
<desc>Speed 21.1 km/h Distance 43.84 km</desc>
<time>2011-05-22T10:35:28.35</time>
<name>9280</name>
<sym>Dot</sym>
</trkpt>
<trkpt lat="39.792358" lon="-8.465957">
<ele>179.5</ele>
<desc>Speed 22.2 km/h Distance 43.85 km</desc>
<time>2011-05-22T10:35:29.35</time>
<name>9281</name>
<sym>Dot</sym>
</trkpt>
<trkpt lat="39.792312" lon="-8.465920">
<ele>180.5</ele>
<desc>Speed 22.5 km/h Distance 43.85 km</desc>
<time>2011-05-22T10:35:30.35</time>
<name>9282</name>
<sym>Dot</sym>
</trkpt>
<trkpt lat="39.792262" lon="-8.465887">
<ele>181.5</ele>
<desc>Speed 22.7 km/h Distance 43.86 km</desc>
<time>2011-05-22T10:35:31.36</time>
<name>9283</name>
<sym>Dot</sym>
</trkpt>
<trkpt lat="39.792210" lon="-8.465860">
<ele>182.5</ele>
<desc>Speed 23.3 km/h Distance 43.87 km</desc>
<time>2011-05-22T10:35:32.35</time>
<name>9284</name>
<sym>Dot</sym>
</trkpt>
<trkpt lat="39.792153" lon="-8.465835">
<ele>183.5</ele>
<desc>Speed 24.2 km/h Distance 43.87 km</desc>
<time>2011-05-22T10:35:33.34</time>
<name>9285</name>
<sym>Dot</sym>
</trkpt>
<trkpt lat="39.792097" lon="-8.465812">
<ele>184.0</ele>
<desc>Speed 24.4 km/h Distance 43.88 km</desc>
<time>2011-05-22T10:35:34.34</time>
<name>9286</name>
<sym>Dot</sym>
</trkpt>
<trkpt lat="39.792037" lon="-8.465790">
<ele>184.5</ele>
<desc>Speed 25.4 km/h Distance 43.89 km</desc>
<time>2011-05-22T10:35:35.33</time>
<name>9287</name>
<sym>Dot</sym>
</trkpt>
<trkpt lat="39.791977" lon="-8.465772">
<ele>185.0</ele>
<desc>Speed 25.4 km/h Distance 43.89 km</desc>
<time>2011-05-22T10:35:36.33</time>
<name>9288</name>
<sym>Dot</sym>
</trkpt>
<trkpt lat="39.791915" lon="-8.465752">
<ele>185.0</ele>
<desc>Speed 25.9 km/h Distance 43.90 km</desc>
<time>2011-05-22T10:35:37.34</time>
<name>9289</name>
<sym>Dot</sym>
</trkpt>
<trkpt lat="39.791852" lon="-8.465733">
<ele>185.0</ele>
<desc>Speed 26.0 km/h Distance 43.91 km</desc>
<time>2011-05-22T10:35:38.33</time>
<name>9290</name>
<sym>Dot</sym>
</trkpt>
<trkpt lat="39.791785" lon="-8.465715">
<ele>184.5</ele>
<desc>Speed 27.0 km/h Distance 43.92 km</desc>
<time>2011-05-22T10:35:39.33</time>
<name>9291</name>
<sym>Dot</sym>
</trkpt>
<trkpt lat="39.791722" lon="-8.465695">
<ele>184.0</ele>
<desc>Speed 26.4 km/h Distance 43.92 km</desc>
<time>2011-05-22T10:35:40.32</time>
<name>9292</name>
<sym>Dot</sym>
</trkpt>
<trkpt lat="39.791658" lon="-8.465672">
<ele>184.0</ele>
<desc>Speed 26.4 km/h Distance 43.93 km</desc>
<time>2011-05-22T10:35:41.31</time>
<name>9293</name>
<sym>Dot</sym>
</trkpt>
<trkpt lat="39.791595" lon="-8.465648">
<ele>184.0</ele>
<desc>Speed 26.4 km/h Distance 43.94 km</desc>
<time>2011-05-22T10:35:42.31</time>
<name>9294</name>
<sym>Dot</sym>
</trkpt>
<trkpt lat="39.791532" lon="-8.465623">
<ele>183.5</ele>
<desc>Speed 26.6 km/h Distance 43.94 km</desc>
<time>2011-05-22T10:35:43.31</time>
<name>9295</name>
<sym>Dot</sym>
</trkpt>
<trkpt lat="39.791470" lon="-8.465597">
<ele>183.5</ele>
<desc>Speed 26.6 km/h Distance 43.95 km</desc>
<time>2011-05-22T10:35:44.30</time>
<name>9296</name>
<sym>Dot</sym>
</trkpt>
<trkpt lat="39.791407" lon="-8.465573">
<ele>183.5</ele>
<desc>Speed 26.6 km/h Distance 43.96 km</desc>
<time>2011-05-22T10:35:45.29</time>
<name>9297</name>
<sym>Dot</sym>
</trkpt>
<trkpt lat="39.791343" lon="-8.465547">
<ele>183.5</ele>
<desc>Speed 26.8 km/h Distance 43.97 km</desc>
<time>2011-05-22T10:35:46.29</time>
<name>9298</name>
<sym>Dot</sym>
</trkpt>
<trkpt lat="39.791280" lon="-8.465517">
<ele>183.0</ele>
<desc>Speed 27.3 km/h Distance 43.97 km</desc>
<time>2011-05-22T10:35:47.29</time>
<name>9299</name>
<sym>Dot</sym>
</trkpt>
<trkpt lat="39.791217" lon="-8.465488">
<ele>183.0</ele>
<desc>Speed 27.5 km/h Distance 43.98 km</desc>
<time>2011-05-22T10:35:48.29</time>
<name>9300</name>
<sym>Dot</sym>
</trkpt>
<trkpt lat="39.791152" lon="-8.465458">
<ele>182.5</ele>
<desc>Speed 27.7 km/h Distance 43.99 km</desc>
<time>2011-05-22T10:35:49.28</time>
<name>9301</name>
<sym>Dot</sym>
</trkpt>
<trkpt lat="39.791087" lon="-8.465430">
<ele>183.0</ele>
<desc>Speed 27.8 km/h Distance 44.00 km</desc>
<time>2011-05-22T10:35:50.28</time>
<name>9302</name>
<sym>Dot</sym>
</trkpt>
<trkpt lat="39.791020" lon="-8.465403">
<ele>183.0</ele>
<desc>Speed 28.0 km/h Distance 44.00 km</desc>
<time>2011-05-22T10:35:51.28</time>
<name>9303</name>
<sym>Dot</sym>
</trkpt>
<trkpt lat="39.790955" lon="-8.465377">
<ele>183.0</ele>
<desc>Speed 27.8 km/h Distance 44.01 km</desc>
<time>2011-05-22T10:35:52.28</time>
<name>9304</name>
<sym>Dot</sym>
</trkpt>
<trkpt lat="39.790888" lon="-8.465352">
<ele>183.0</ele>
<desc>Speed 27.7 km/h Distance 44.02 km</desc>
<time>2011-05-22T10:35:53.27</time>
<name>9305</name>
<sym>Dot</sym>
</trkpt>
<trkpt lat="39.790822" lon="-8.465325">
<ele>183.0</ele>
<desc>Speed 28.0 km/h Distance 44.03 km</desc>
<time>2011-05-22T10:35:54.27</time>
<name>9306</name>
<sym>Dot</sym>
</trkpt>
<trkpt lat="39.790755" lon="-8.465297">
<ele>183.0</ele>
<desc>Speed 28.4 km/h Distance 44.04 km</desc>
<time>2011-05-22T10:35:55.26</time>
<name>9307</name>
<sym>Dot</sym>
</trkpt>
<trkpt lat="39.790690" lon="-8.465268">
<ele>183.0</ele>
<desc>Speed 28.2 km/h Distance 44.04 km</desc>
<time>2011-05-22T10:35:56.26</time>
<name>9308</name>
<sym>Dot</sym>
</trkpt>
<trkpt lat="39.790622" lon="-8.465240">
<ele>182.5</ele>
<desc>Speed 28.6 km/h Distance 44.05 km</desc>
<time>2011-05-22T10:35:57.25</time>
<name>9309</name>
<sym>Dot</sym>
</trkpt>
<trkpt lat="39.790555" lon="-8.465217">
<ele>182.0</ele>
<desc>Speed 28.7 km/h Distance 44.06 km</desc>
<time>2011-05-22T10:35:58.25</time>
<name>9310</name>
<sym>Dot</sym>
</trkpt>
<trkpt lat="39.790485" lon="-8.465195">
<ele>181.5</ele>
<desc>Speed 28.9 km/h Distance 44.07 km</desc>
<time>2011-05-22T10:35:59.25</time>
<name>9311</name>
<sym>Dot</sym>
</trkpt>
<trkpt lat="39.790415" lon="-8.465177">
<ele>181.0</ele>
<desc>Speed 29.4 km/h Distance 44.07 km</desc>
<time>2011-05-22T10:36:00.25</time>
<name>9312</name>
<sym>Dot</sym>
</trkpt>
<trkpt lat="39.790342" lon="-8.465160">
<ele>180.5</ele>
<desc>Speed 29.6 km/h Distance 44.08 km</desc>
<time>2011-05-22T10:36:01.24</time>
<name>9313</name>
<sym>Dot</sym>
</trkpt>
<trkpt lat="39.790272" lon="-8.465147">
<ele>180.0</ele>
<desc>Speed 29.0 km/h Distance 44.09 km</desc>
<time>2011-05-22T10:36:02.23</time>
<name>9314</name>
<sym>Dot</sym>
</trkpt>
<trkpt lat="39.790202" lon="-8.465133">
<ele>179.5</ele>
<desc>Speed 28.9 km/h Distance 44.10 km</desc>
<time>2011-05-22T10:36:03.23</time>
<name>9315</name>
<sym>Dot</sym>
</trkpt>
<trkpt lat="39.790130" lon="-8.465120">
<ele>179.5</ele>
<desc>Speed 28.9 km/h Distance 44.11 km</desc>
<time>2011-05-22T10:36:04.23</time>
<name>9316</name>
<sym>Dot</sym>
</trkpt>
<trkpt lat="39.790060" lon="-8.465108">
<ele>179.5</ele>
<desc>Speed 29.0 km/h Distance 44.11 km</desc>
<time>2011-05-22T10:36:05.22</time>
<name>9317</name>
<sym>Dot</sym>
</trkpt>
<trkpt lat="39.789988" lon="-8.465100">
<ele>179.5</ele>
<desc>Speed 28.8 km/h Distance 44.12 km</desc>
<time>2011-05-22T10:36:06.22</time>
<name>9318</name>
<sym>Dot</sym>
</trkpt>
<trkpt lat="39.789917" lon="-8.465090">
<ele>179.5</ele>
<desc>Speed 29.3 km/h Distance 44.13 km</desc>
<time>2011-05-22T10:36:07.22</time>
<name>9319</name>
<sym>Dot</sym>
</trkpt>
<trkpt lat="39.789845" lon="-8.465080">
<ele>180.0</ele>
<desc>Speed 29.3 km/h Distance 44.14 km</desc>
<time>2011-05-22T10:36:08.22</time>
<name>9320</name>
<sym>Dot</sym>
</trkpt>
<trkpt lat="39.789773" lon="-8.465068">
<ele>180.0</ele>
<desc>Speed 29.2 km/h Distance 44.15 km</desc>
<time>2011-05-22T10:36:09.21</time>
<name>9321</name>
<sym>Dot</sym>
</trkpt>
<trkpt lat="39.789700" lon="-8.465058">
<ele>180.0</ele>
<desc>Speed 29.8 km/h Distance 44.15 km</desc>
<time>2011-05-22T10:36:10.21</time>
<name>9322</name>
<sym>Dot</sym>
</trkpt>
<trkpt lat="39.789627" lon="-8.465045">
<ele>180.0</ele>
<desc>Speed 29.9 km/h Distance 44.16 km</desc>
<time>2011-05-22T10:36:11.21</time>
<name>9323</name>
<sym>Dot</sym>
</trkpt>
<trkpt lat="39.789550" lon="-8.465033">
<ele>179.5</ele>
<desc>Speed 31.1 km/h Distance 44.17 km</desc>
<time>2011-05-22T10:36:12.20</time>
<name>9324</name>
<sym>Dot</sym>
</trkpt>
<trkpt lat="39.789477" lon="-8.465023">
<ele>179.5</ele>
<desc>Speed 30.0 km/h Distance 44.18 km</desc>
<time>2011-05-22T10:36:13.20</time>
<name>9325</name>
<sym>Dot</sym>
</trkpt>
<trkpt lat="39.789405" lon="-8.465012">
<ele>179.5</ele>
<desc>Speed 30.0 km/h Distance 44.19 km</desc>
<time>2011-05-22T10:36:14.20</time>
<name>9326</name>
<sym>Dot</sym>
</trkpt>
<trkpt lat="39.789332" lon="-8.465007">
<ele>179.5</ele>
<desc>Speed 29.6 km/h Distance 44.20 km</desc>
<time>2011-05-22T10:36:15.20</time>
<name>9327</name>
<sym>Dot</sym>
</trkpt>
<trkpt lat="39.789262" lon="-8.465005">
<ele>180.0</ele>
<desc>Speed 28.7 km/h Distance 44.20 km</desc>
<time>2011-05-22T10:36:16.19</time>
<name>9328</name>
<sym>Dot</sym>
</trkpt>
<trkpt lat="39.789192" lon="-8.465007">
<ele>180.0</ele>
<desc>Speed 28.5 km/h Distance 44.21 km</desc>
<time>2011-05-22T10:36:17.19</time>
<name>9329</name>
<sym>Dot</sym>
</trkpt>
<trkpt lat="39.789122" lon="-8.465012">
<ele>179.5</ele>
<desc>Speed 28.7 km/h Distance 44.22 km</desc>
<time>2011-05-22T10:36:18.19</time>
<name>9330</name>
<sym>Dot</sym>
</trkpt>
<trkpt lat="39.789052" lon="-8.465020">
<ele>179.5</ele>
<desc>Speed 28.4 km/h Distance 44.23 km</desc>
<time>2011-05-22T10:36:19.18</time>
<name>9331</name>
<sym>Dot</sym>
</trkpt>
<trkpt lat="39.788982" lon="-8.465032">
<ele>179.5</ele>
<desc>Speed 28.4 km/h Distance 44.24 km</desc>
<time>2011-05-22T10:36:20.18</time>
<name>9332</name>
<sym>Dot</sym>
</trkpt>
<trkpt lat="39.788912" lon="-8.465040">
<ele>179.0</ele>
<desc>Speed 28.4 km/h Distance 44.24 km</desc>
<time>2011-05-22T10:36:21.18</time>
<name>9333</name>
<sym>Dot</sym>
</trkpt>
<trkpt lat="39.788842" lon="-8.465047">
<ele>179.0</ele>
<desc>Speed 27.9 km/h Distance 44.25 km</desc>
<time>2011-05-22T10:36:22.18</time>
<name>9334</name>
<sym>Dot</sym>
</trkpt>
<trkpt lat="39.788773" lon="-8.465053">
<ele>178.5</ele>
<desc>Speed 27.8 km/h Distance 44.26 km</desc>
<time>2011-05-22T10:36:23.17</time>
<name>9335</name>
<sym>Dot</sym>
</trkpt>
<trkpt lat="39.788707" lon="-8.465060">
<ele>178.0</ele>
<desc>Speed 27.0 km/h Distance 44.27 km</desc>
<time>2011-05-22T10:36:24.16</time>
<name>9336</name>
<sym>Dot</sym>
</trkpt>
<trkpt lat="39.788638" lon="-8.465067">
<ele>177.5</ele>
<desc>Speed 27.3 km/h Distance 44.27 km</desc>
<time>2011-05-22T10:36:25.16</time>
<name>9337</name>
<sym>Dot</sym>
</trkpt>
<trkpt lat="39.788573" lon="-8.465072">
<ele>177.0</ele>
<desc>Speed 26.3 km/h Distance 44.28 km</desc>
<time>2011-05-22T10:36:26.16</time>
<name>9338</name>
<sym>Dot</sym>
</trkpt>
<trkpt lat="39.788512" lon="-8.465075">
<ele>176.0</ele>
<desc>Speed 24.8 km/h Distance 44.29 km</desc>
<time>2011-05-22T10:36:27.15</time>
<name>9339</name>
<sym>Dot</sym>
</trkpt>
<trkpt lat="39.788450" lon="-8.465083">
<ele>176.5</ele>
<desc>Speed 24.9 km/h Distance 44.29 km</desc>
<time>2011-05-22T10:36:28.15</time>
<name>9340</name>
<sym>Dot</sym>
</trkpt>
<trkpt lat="39.788392" lon="-8.465085">
<ele>177.5</ele>
<desc>Speed 23.5 km/h Distance 44.30 km</desc>
<time>2011-05-22T10:36:29.15</time>
<name>9341</name>
<sym>Dot</sym>
</trkpt>
<trkpt lat="39.788332" lon="-8.465093">
<ele>177.5</ele>
<desc>Speed 24.6 km/h Distance 44.31 km</desc>
<time>2011-05-22T10:36:30.15</time>
<name>9342</name>
<sym>Dot</sym>
</trkpt>
<trkpt lat="39.788273" lon="-8.465105">
<ele>177.5</ele>
<desc>Speed 24.1 km/h Distance 44.31 km</desc>
<time>2011-05-22T10:36:31.16</time>
<name>9343</name>
<sym>Dot</sym>
</trkpt>
<trkpt lat="39.788215" lon="-8.465115">
<ele>177.5</ele>
<desc>Speed 23.7 km/h Distance 44.32 km</desc>
<time>2011-05-22T10:36:32.14</time>
<name>9344</name>
<sym>Dot</sym>
</trkpt>
<trkpt lat="39.788157" lon="-8.465125">
<ele>177.5</ele>
<desc>Speed 23.9 km/h Distance 44.33 km</desc>
<time>2011-05-22T10:36:33.14</time>
<name>9345</name>
<sym>Dot</sym>
</trkpt>
<trkpt lat="39.788098" lon="-8.465132">
<ele>177.5</ele>
<desc>Speed 24.0 km/h Distance 44.33 km</desc>
<time>2011-05-22T10:36:34.13</time>
<name>9346</name>
<sym>Dot</sym>
</trkpt>
<trkpt lat="39.788038" lon="-8.465137">
<ele>177.5</ele>
<desc>Speed 24.6 km/h Distance 44.34 km</desc>
<time>2011-05-22T10:36:35.13</time>
<name>9347</name>
<sym>Dot</sym>
</trkpt>
<trkpt lat="39.787978" lon="-8.465145">
<ele>177.5</ele>
<desc>Speed 24.2 km/h Distance 44.35 km</desc>
<time>2011-05-22T10:36:36.12</time>
<name>9348</name>
<sym>Dot</sym>
</trkpt>
<trkpt lat="39.787918" lon="-8.465152">
<ele>177.5</ele>
<desc>Speed 24.6 km/h Distance 44.35 km</desc>
<time>2011-05-22T10:36:37.12</time>
<name>9349</name>
<sym>Dot</sym>
</trkpt>
<trkpt lat="39.787858" lon="-8.465160">
<ele>177.5</ele>
<desc>Speed 24.4 km/h Distance 44.36 km</desc>
<time>2011-05-22T10:36:38.12</time>
<name>9350</name>
<sym>Dot</sym>
</trkpt>
<trkpt lat="39.787798" lon="-8.465168">
<ele>177.0</ele>
<desc>Speed 24.3 km/h Distance 44.37 km</desc>
<time>2011-05-22T10:36:39.12</time>
<name>9351</name>
<sym>Dot</sym>
</trkpt>
<trkpt lat="39.787740" lon="-8.465177">
<ele>177.0</ele>
<desc>Speed 24.1 km/h Distance 44.37 km</desc>
<time>2011-05-22T10:36:40.11</time>
<name>9352</name>
<sym>Dot</sym>
</trkpt>
<trkpt lat="39.787678" lon="-8.465182">
<ele>176.5</ele>
<desc>Speed 24.6 km/h Distance 44.38 km</desc>
<time>2011-05-22T10:36:41.11</time>
<name>9353</name>
<sym>Dot</sym>
</trkpt>
<trkpt lat="39.787620" lon="-8.465190">
<ele>176.0</ele>
<desc>Speed 24.3 km/h Distance 44.39 km</desc>
<time>2011-05-22T10:36:42.10</time>
<name>9354</name>
<sym>Dot</sym>
</trkpt>
<trkpt lat="39.787560" lon="-8.465202">
<ele>176.0</ele>
<desc>Speed 23.9 km/h Distance 44.39 km</desc>
<time>2011-05-22T10:36:43.10</time>
<name>9355</name>
<sym>Dot</sym>
</trkpt>
<trkpt lat="39.787503" lon="-8.465215">
<ele>176.0</ele>
<desc>Speed 23.8 km/h Distance 44.40 km</desc>
<time>2011-05-22T10:36:44.09</time>
<name>9356</name>
<sym>Dot</sym>
</trkpt>
<trkpt lat="39.787447" lon="-8.465227">
<ele>176.5</ele>
<desc>Speed 23.4 km/h Distance 44.41 km</desc>
<time>2011-05-22T10:36:45.09</time>
<name>9357</name>
<sym>Dot</sym>
</trkpt>
<trkpt lat="39.787390" lon="-8.465242">
<ele>176.5</ele>
<desc>Speed 23.6 km/h Distance 44.41 km</desc>
<time>2011-05-22T10:36:46.08</time>
<name>9358</name>
<sym>Dot</sym>
</trkpt>
<trkpt lat="39.787332" lon="-8.465258">
<ele>176.5</ele>
<desc>Speed 24.0 km/h Distance 44.42 km</desc>
<time>2011-05-22T10:36:47.08</time>
<name>9359</name>
<sym>Dot</sym>
</trkpt>
<trkpt lat="39.787275" lon="-8.465278">
<ele>176.5</ele>
<desc>Speed 24.1 km/h Distance 44.43 km</desc>
<time>2011-05-22T10:36:48.08</time>
<name>9360</name>
<sym>Dot</sym>
</trkpt>
<trkpt lat="39.787218" lon="-8.465300">
<ele>176.5</ele>
<desc>Speed 23.6 km/h Distance 44.43 km</desc>
<time>2011-05-22T10:36:49.07</time>
<name>9361</name>
<sym>Dot</sym>
</trkpt>
<trkpt lat="39.787162" lon="-8.465322">
<ele>176.5</ele>
<desc>Speed 23.9 km/h Distance 44.44 km</desc>
<time>2011-05-22T10:36:50.07</time>
<name>9362</name>
<sym>Dot</sym>
</trkpt>
<trkpt lat="39.787105" lon="-8.465343">
<ele>176.5</ele>
<desc>Speed 23.9 km/h Distance 44.45 km</desc>
<time>2011-05-22T10:36:51.07</time>
<name>9363</name>
<sym>Dot</sym>
</trkpt>
<trkpt lat="39.787048" lon="-8.465367">
<ele>176.5</ele>
<desc>Speed 23.9 km/h Distance 44.45 km</desc>
<time>2011-05-22T10:36:52.07</time>
<name>9364</name>
<sym>Dot</sym>
</trkpt>
<trkpt lat="39.786990" lon="-8.465388">
<ele>176.5</ele>
<desc>Speed 24.2 km/h Distance 44.46 km</desc>
<time>2011-05-22T10:36:53.06</time>
<name>9365</name>
<sym>Dot</sym>
</trkpt>
<trkpt lat="39.786932" lon="-8.465412">
<ele>176.5</ele>
<desc>Speed 24.8 km/h Distance 44.47 km</desc>
<time>2011-05-22T10:36:54.05</time>
<name>9366</name>
<sym>Dot</sym>
</trkpt>
<trkpt lat="39.786873" lon="-8.465435">
<ele>176.5</ele>
<desc>Speed 24.8 km/h Distance 44.47 km</desc>
<time>2011-05-22T10:36:55.05</time>
<name>9367</name>
<sym>Dot</sym>
</trkpt>
<trkpt lat="39.786815" lon="-8.465457">
<ele>177.0</ele>
<desc>Speed 24.9 km/h Distance 44.48 km</desc>
<time>2011-05-22T10:36:56.05</time>
<name>9368</name>
<sym>Dot</sym>
</trkpt>
<trkpt lat="39.786757" lon="-8.465480">
<ele>177.0</ele>
<desc>Speed 24.8 km/h Distance 44.49 km</desc>
<time>2011-05-22T10:36:57.05</time>
<name>9369</name>
<sym>Dot</sym>
</trkpt>
<trkpt lat="39.786695" lon="-8.465502">
<ele>176.5</ele>
<desc>Speed 25.6 km/h Distance 44.49 km</desc>
<time>2011-05-22T10:36:58.04</time>
<name>9370</name>
<sym>Dot</sym>
</trkpt>
<trkpt lat="39.786635" lon="-8.465528">
<ele>176.0</ele>
<desc>Speed 25.7 km/h Distance 44.50 km</desc>
<time>2011-05-22T10:36:59.04</time>
<name>9371</name>
<sym>Dot</sym>
</trkpt>
<trkpt lat="39.786572" lon="-8.465553">
<ele>175.5</ele>
<desc>Speed 26.4 km/h Distance 44.51 km</desc>
<time>2011-05-22T10:37:00.04</time>
<name>9372</name>
<sym>Dot</sym>
</trkpt>
<trkpt lat="39.786510" lon="-8.465575">
<ele>175.5</ele>
<desc>Speed 25.9 km/h Distance 44.52 km</desc>
<time>2011-05-22T10:37:01.04</time>
<name>9373</name>
<sym>Dot</sym>
</trkpt>
<trkpt lat="39.786448" lon="-8.465597">
<ele>175.5</ele>
<desc>Speed 25.5 km/h Distance 44.52 km</desc>
<time>2011-05-22T10:37:02.03</time>
<name>9374</name>
<sym>Dot</sym>
</trkpt>
<trkpt lat="39.786385" lon="-8.465613">
<ele>176.0</ele>
<desc>Speed 26.1 km/h Distance 44.53 km</desc>
<time>2011-05-22T10:37:03.03</time>
<name>9375</name>
<sym>Dot</sym>
</trkpt>
<trkpt lat="39.786322" lon="-8.465630">
<ele>176.5</ele>
<desc>Speed 26.4 km/h Distance 44.54 km</desc>
<time>2011-05-22T10:37:04.03</time>
<name>9376</name>
<sym>Dot</sym>
</trkpt>
<trkpt lat="39.786255" lon="-8.465643">
<ele>177.0</ele>
<desc>Speed 27.1 km/h Distance 44.54 km</desc>
<time>2011-05-22T10:37:05.03</time>
<name>9377</name>
<sym>Dot</sym>
</trkpt>
<trkpt lat="39.786190" lon="-8.465657">
<ele>177.0</ele>
<desc>Speed 27.2 km/h Distance 44.55 km</desc>
<time>2011-05-22T10:37:06.03</time>
<name>9378</name>
<sym>Dot</sym>
</trkpt>
<trkpt lat="39.786125" lon="-8.465672">
<ele>177.5</ele>
<desc>Speed 27.1 km/h Distance 44.56 km</desc>
<time>2011-05-22T10:37:07.02</time>
<name>9379</name>
<sym>Dot</sym>
</trkpt>
<trkpt lat="39.786057" lon="-8.465685">
<ele>177.5</ele>
<desc>Speed 27.4 km/h Distance 44.57 km</desc>
<time>2011-05-22T10:37:08.02</time>
<name>9380</name>
<sym>Dot</sym>
</trkpt>
<trkpt lat="39.785990" lon="-8.465700">
<ele>177.0</ele>
<desc>Speed 27.5 km/h Distance 44.57 km</desc>
<time>2011-05-22T10:37:09.02</time>
<name>9381</name>
<sym>Dot</sym>
</trkpt>
<trkpt lat="39.785923" lon="-8.465713">
<ele>177.0</ele>
<desc>Speed 27.1 km/h Distance 44.58 km</desc>
<time>2011-05-22T10:37:10.02</time>
<name>9382</name>
<sym>Dot</sym>
</trkpt>
<trkpt lat="39.785860" lon="-8.465728">
<ele>177.5</ele>
<desc>Speed 26.6 km/h Distance 44.59 km</desc>
<time>2011-05-22T10:37:11.01</time>
<name>9383</name>
<sym>Dot</sym>
</trkpt>
<trkpt lat="39.785793" lon="-8.465740">
<ele>177.5</ele>
<desc>Speed 26.9 km/h Distance 44.60 km</desc>
<time>2011-05-22T10:37:12.01</time>
<name>9384</name>
<sym>Dot</sym>
</trkpt>
<trkpt lat="39.785730" lon="-8.465752">
<ele>177.5</ele>
<desc>Speed 26.4 km/h Distance 44.60 km</desc>
<time>2011-05-22T10:37:13.01</time>
<name>9385</name>
<sym>Dot</sym>
</trkpt>
<trkpt lat="39.785665" lon="-8.465763">
<ele>178.0</ele>
<desc>Speed 26.4 km/h Distance 44.61 km</desc>
<time>2011-05-22T10:37:14.01</time>
<name>9386</name>
<sym>Dot</sym>
</trkpt>
<trkpt lat="39.785602" lon="-8.465777">
<ele>178.0</ele>
<desc>Speed 26.3 km/h Distance 44.62 km</desc>
<time>2011-05-22T10:37:15.00</time>
<name>9387</name>
<sym>Dot</sym>
</trkpt>
<trkpt lat="39.785538" lon="-8.465787">
<ele>177.5</ele>
<desc>Speed 26.1 km/h Distance 44.63 km</desc>
<time>2011-05-22T10:37:16.00</time>
<name>9388</name>
<sym>Dot</sym>
</trkpt>
<trkpt lat="39.785475" lon="-8.465802">
<ele>178.0</ele>
<desc>Speed 25.5 km/h Distance 44.63 km</desc>
<time>2011-05-22T10:37:16.99</time>
<name>9389</name>
<sym>Dot</sym>
</trkpt>
<trkpt lat="39.785413" lon="-8.465815">
<ele>177.5</ele>
<desc>Speed 25.5 km/h Distance 44.64 km</desc>
<time>2011-05-22T10:37:17.99</time>
<name>9390</name>
<sym>Dot</sym>
</trkpt>
<trkpt lat="39.785352" lon="-8.465827">
<ele>177.5</ele>
<desc>Speed 25.0 km/h Distance 44.65 km</desc>
<time>2011-05-22T10:37:18.98</time>
<name>9391</name>
<sym>Dot</sym>
</trkpt>
<trkpt lat="39.785292" lon="-8.465838">
<ele>177.5</ele>
<desc>Speed 24.2 km/h Distance 44.65 km</desc>
<time>2011-05-22T10:37:19.97</time>
<name>9392</name>
<sym>Dot</sym>
</trkpt>
<trkpt lat="39.785233" lon="-8.465852">
<ele>177.5</ele>
<desc>Speed 23.7 km/h Distance 44.66 km</desc>
<time>2011-05-22T10:37:20.97</time>
<name>9393</name>
<sym>Dot</sym>
</trkpt>
<trkpt lat="39.785177" lon="-8.465863">
<ele>177.5</ele>
<desc>Speed 23.4 km/h Distance 44.67 km</desc>
<time>2011-05-22T10:37:21.97</time>
<name>9394</name>
<sym>Dot</sym>
</trkpt>
<trkpt lat="39.785120" lon="-8.465875">
<ele>177.5</ele>
<desc>Speed 23.0 km/h Distance 44.67 km</desc>
<time>2011-05-22T10:37:22.96</time>
<name>9395</name>
<sym>Dot</sym>
</trkpt>
<trkpt lat="39.785067" lon="-8.465885">
<ele>177.0</ele>
<desc>Speed 22.1 km/h Distance 44.68 km</desc>
<time>2011-05-22T10:37:23.96</time>
<name>9396</name>
<sym>Dot</sym>
</trkpt>
<trkpt lat="39.785013" lon="-8.465895">
<ele>177.0</ele>
<desc>Speed 21.6 km/h Distance 44.68 km</desc>
<time>2011-05-22T10:37:24.96</time>
<name>9397</name>
<sym>Dot</sym>
</trkpt>
<trkpt lat="39.784962" lon="-8.465903">
<ele>176.5</ele>
<desc>Speed 20.9 km/h Distance 44.69 km</desc>
<time>2011-05-22T10:37:25.95</time>
<name>9398</name>
<sym>Dot</sym>
</trkpt>
<trkpt lat="39.784910" lon="-8.465907">
<ele>176.0</ele>
<desc>Speed 21.3 km/h Distance 44.70 km</desc>
<time>2011-05-22T10:37:26.95</time>
<name>9399</name>
<sym>Dot</sym>
</trkpt>
<trkpt lat="39.784857" lon="-8.465910">
<ele>176.0</ele>
<desc>Speed 21.3 km/h Distance 44.70 km</desc>
<time>2011-05-22T10:37:27.94</time>
<name>9400</name>
<sym>Dot</sym>
</trkpt>
<trkpt lat="39.784805" lon="-8.465912">
<ele>175.5</ele>
<desc>Speed 21.6 km/h Distance 44.71 km</desc>
<time>2011-05-22T10:37:28.94</time>
<name>9401</name>
<sym>Dot</sym>
</trkpt>
<trkpt lat="39.784750" lon="-8.465912">
<ele>175.5</ele>
<desc>Speed 22.0 km/h Distance 44.71 km</desc>
<time>2011-05-22T10:37:29.94</time>
<name>9402</name>
<sym>Dot</sym>
</trkpt>
<trkpt lat="39.784695" lon="-8.465910">
<ele>175.5</ele>
<desc>Speed 22.3 km/h Distance 44.72 km</desc>
<time>2011-05-22T10:37:30.94</time>
<name>9403</name>
<sym>Dot</sym>
</trkpt>
<trkpt lat="39.784638" lon="-8.465907">
<ele>175.5</ele>
<desc>Speed 22.9 km/h Distance 44.73 km</desc>
<time>2011-05-22T10:37:31.93</time>
<name>9404</name>
<sym>Dot</sym>
</trkpt>
<trkpt lat="39.784583" lon="-8.465903">
<ele>175.5</ele>
<desc>Speed 22.8 km/h Distance 44.73 km</desc>
<time>2011-05-22T10:37:32.92</time>
<name>9405</name>
<sym>Dot</sym>
</trkpt>
<trkpt lat="39.784525" lon="-8.465900">
<ele>175.5</ele>
<desc>Speed 23.2 km/h Distance 44.74 km</desc>
<time>2011-05-22T10:37:33.92</time>
<name>9406</name>
<sym>Dot</sym>
</trkpt>
<trkpt lat="39.784468" lon="-8.465898">
<ele>176.0</ele>
<desc>Speed 22.9 km/h Distance 44.74 km</desc>
<time>2011-05-22T10:37:34.92</time>
<name>9407</name>
<sym>Dot</sym>
</trkpt>
<trkpt lat="39.784412" lon="-8.465895">
<ele>175.5</ele>
<desc>Speed 23.3 km/h Distance 44.75 km</desc>
<time>2011-05-22T10:37:35.92</time>
<name>9408</name>
<sym>Dot</sym>
</trkpt>
<trkpt lat="39.784353" lon="-8.465890">
<ele>175.5</ele>
<desc>Speed 23.1 km/h Distance 44.76 km</desc>
<time>2011-05-22T10:37:36.92</time>
<name>9409</name>
<sym>Dot</sym>
</trkpt>
<trkpt lat="39.784295" lon="-8.465885">
<ele>175.5</ele>
<desc>Speed 23.6 km/h Distance 44.76 km</desc>
<time>2011-05-22T10:37:37.91</time>
<name>9410</name>
<sym>Dot</sym>
</trkpt>
<trkpt lat="39.784237" lon="-8.465880">
<ele>175.5</ele>
<desc>Speed 23.9 km/h Distance 44.77 km</desc>
<time>2011-05-22T10:37:38.91</time>
<name>9411</name>
<sym>Dot</sym>
</trkpt>
<trkpt lat="39.784177" lon="-8.465877">
<ele>175.5</ele>
<desc>Speed 24.2 km/h Distance 44.78 km</desc>
<time>2011-05-22T10:37:39.90</time>
<name>9412</name>
<sym>Dot</sym>
</trkpt>
<trkpt lat="39.784117" lon="-8.465872">
<ele>176.0</ele>
<desc>Speed 24.3 km/h Distance 44.78 km</desc>
<time>2011-05-22T10:37:40.90</time>
<name>9413</name>
<sym>Dot</sym>
</trkpt>
<trkpt lat="39.784057" lon="-8.465868">
<ele>176.5</ele>
<desc>Speed 24.2 km/h Distance 44.79 km</desc>
<time>2011-05-22T10:37:41.90</time>
<name>9414</name>
<sym>Dot</sym>
</trkpt>
<trkpt lat="39.783998" lon="-8.465865">
<ele>176.5</ele>
<desc>Speed 24.0 km/h Distance 44.80 km</desc>
<time>2011-05-22T10:37:42.89</time>
<name>9415</name>
<sym>Dot</sym>
</trkpt>
<trkpt lat="39.783940" lon="-8.465860">
<ele>177.0</ele>
<desc>Speed 24.2 km/h Distance 44.80 km</desc>
<time>2011-05-22T10:37:43.89</time>
<name>9416</name>
<sym>Dot</sym>
</trkpt>
<trkpt lat="39.783880" lon="-8.465855">
<ele>177.0</ele>
<desc>Speed 24.0 km/h Distance 44.81 km</desc>
<time>2011-05-22T10:37:44.89</time>
<name>9417</name>
<sym>Dot</sym>
</trkpt>
<trkpt lat="39.783820" lon="-8.465850">
<ele>177.0</ele>
<desc>Speed 24.3 km/h Distance 44.82 km</desc>
<time>2011-05-22T10:37:45.89</time>
<name>9418</name>
<sym>Dot</sym>
</trkpt>
<trkpt lat="39.783757" lon="-8.465852">
<ele>178.5</ele>
<desc>Speed 25.6 km/h Distance 44.82 km</desc>
<time>2011-05-22T10:37:46.88</time>
<name>9419</name>
<sym>Dot</sym>
</trkpt>
<trkpt lat="39.783695" lon="-8.465848">
<ele>179.0</ele>
<desc>Speed 25.1 km/h Distance 44.83 km</desc>
<time>2011-05-22T10:37:47.88</time>
<name>9420</name>
<sym>Dot</sym>
</trkpt>
<trkpt lat="39.783633" lon="-8.465845">
<ele>179.0</ele>
<desc>Speed 25.1 km/h Distance 44.84 km</desc>
<time>2011-05-22T10:37:48.88</time>
<name>9421</name>
<sym>Dot</sym>
</trkpt>
<trkpt lat="39.783570" lon="-8.465842">
<ele>179.0</ele>
<desc>Speed 25.5 km/h Distance 44.85 km</desc>
<time>2011-05-22T10:37:49.88</time>
<name>9422</name>
<sym>Dot</sym>
</trkpt>
<trkpt lat="39.783508" lon="-8.465838">
<ele>179.5</ele>
<desc>Speed 25.0 km/h Distance 44.85 km</desc>
<time>2011-05-22T10:37:50.88</time>
<name>9423</name>
<sym>Dot</sym>
</trkpt>
<trkpt lat="39.783445" lon="-8.465837">
<ele>180.0</ele>
<desc>Speed 25.7 km/h Distance 44.86 km</desc>
<time>2011-05-22T10:37:51.87</time>
<name>9424</name>
<sym>Dot</sym>
</trkpt>
<trkpt lat="39.783382" lon="-8.465835">
<ele>180.0</ele>
<desc>Speed 25.7 km/h Distance 44.87 km</desc>
<time>2011-05-22T10:37:52.87</time>
<name>9425</name>
<sym>Dot</sym>
</trkpt>
<trkpt lat="39.783318" lon="-8.465833">
<ele>180.5</ele>
<desc>Speed 25.4 km/h Distance 44.87 km</desc>
<time>2011-05-22T10:37:53.88</time>
<name>9426</name>
<sym>Dot</sym>
</trkpt>
<trkpt lat="39.783255" lon="-8.465833">
<ele>180.5</ele>
<desc>Speed 26.0 km/h Distance 44.88 km</desc>
<time>2011-05-22T10:37:54.87</time>
<name>9427</name>
<sym>Dot</sym>
</trkpt>
<trkpt lat="39.783188" lon="-8.465837">
<ele>181.0</ele>
<desc>Speed 26.5 km/h Distance 44.89 km</desc>
<time>2011-05-22T10:37:55.87</time>
<name>9428</name>
<sym>Dot</sym>
</trkpt>
<trkpt lat="39.783123" lon="-8.465840">
<ele>181.0</ele>
<desc>Speed 26.7 km/h Distance 44.89 km</desc>
<time>2011-05-22T10:37:56.87</time>
<name>9429</name>
<sym>Dot</sym>
</trkpt>
<trkpt lat="39.783058" lon="-8.465843">
<ele>181.0</ele>
<desc>Speed 26.4 km/h Distance 44.90 km</desc>
<time>2011-05-22T10:37:57.86</time>
<name>9430</name>
<sym>Dot</sym>
</trkpt>
<trkpt lat="39.782993" lon="-8.465850">
<ele>180.5</ele>
<desc>Speed 26.2 km/h Distance 44.91 km</desc>
<time>2011-05-22T10:37:58.85</time>
<name>9431</name>
<sym>Dot</sym>
</trkpt>
<trkpt lat="39.782928" lon="-8.465855">
<ele>180.5</ele>
<desc>Speed 26.5 km/h Distance 44.92 km</desc>
<time>2011-05-22T10:37:59.85</time>
<name>9432</name>
<sym>Dot</sym>
</trkpt>
<trkpt lat="39.782863" lon="-8.465860">
<ele>180.0</ele>
<desc>Speed 26.9 km/h Distance 44.92 km</desc>
<time>2011-05-22T10:38:00.85</time>
<name>9433</name>
<sym>Dot</sym>
</trkpt>
<trkpt lat="39.782797" lon="-8.465865">
<ele>179.5</ele>
<desc>Speed 26.5 km/h Distance 44.93 km</desc>
<time>2011-05-22T10:38:01.85</time>
<name>9434</name>
<sym>Dot</sym>
</trkpt>
<trkpt lat="39.782732" lon="-8.465872">
<ele>179.0</ele>
<desc>Speed 27.0 km/h Distance 44.94 km</desc>
<time>2011-05-22T10:38:02.84</time>
<name>9435</name>
<sym>Dot</sym>
</trkpt>
<trkpt lat="39.782667" lon="-8.465878">
<ele>178.5</ele>
<desc>Speed 26.3 km/h Distance 44.95 km</desc>
<time>2011-05-22T10:38:03.84</time>
<name>9436</name>
<sym>Dot</sym>
</trkpt>
<trkpt lat="39.782605" lon="-8.465885">
<ele>178.0</ele>
<desc>Speed 25.9 km/h Distance 44.95 km</desc>
<time>2011-05-22T10:38:04.84</time>
<name>9437</name>
<sym>Dot</sym>
</trkpt>
<trkpt lat="39.782540" lon="-8.465892">
<ele>177.5</ele>
<desc>Speed 26.0 km/h Distance 44.96 km</desc>
<time>2011-05-22T10:38:05.84</time>
<name>9438</name>
<sym>Dot</sym>
</trkpt>
<trkpt lat="39.782477" lon="-8.465898">
<ele>177.0</ele>
<desc>Speed 26.3 km/h Distance 44.97 km</desc>
<time>2011-05-22T10:38:06.83</time>
<name>9439</name>
<sym>Dot</sym>
</trkpt>
<trkpt lat="39.782412" lon="-8.465903">
<ele>177.0</ele>
<desc>Speed 26.1 km/h Distance 44.97 km</desc>
<time>2011-05-22T10:38:07.83</time>
<name>9440</name>
<sym>Dot</sym>
</trkpt>
<trkpt lat="39.782348" lon="-8.465908">
<ele>177.0</ele>
<desc>Speed 26.1 km/h Distance 44.98 km</desc>
<time>2011-05-22T10:38:08.83</time>
<name>9441</name>
<sym>Dot</sym>
</trkpt>
<trkpt lat="39.782283" lon="-8.465912">
<ele>176.5</ele>
<desc>Speed 26.5 km/h Distance 44.99 km</desc>
<time>2011-05-22T10:38:09.83</time>
<name>9442</name>
<sym>Dot</sym>
</trkpt>
<trkpt lat="39.782217" lon="-8.465913">
<ele>176.5</ele>
<desc>Speed 26.6 km/h Distance 45.00 km</desc>
<time>2011-05-22T10:38:10.82</time>
<name>9443</name>
<sym>Dot</sym>
</trkpt>
<trkpt lat="39.782152" lon="-8.465913">
<ele>176.0</ele>
<desc>Speed 26.6 km/h Distance 45.00 km</desc>
<time>2011-05-22T10:38:11.82</time>
<name>9444</name>
<sym>Dot</sym>
</trkpt>
<trkpt lat="39.782087" lon="-8.465913">
<ele>176.0</ele>
<desc>Speed 26.9 km/h Distance 45.01 km</desc>
<time>2011-05-22T10:38:12.82</time>
<name>9445</name>
<sym>Dot</sym>
</trkpt>
<trkpt lat="39.782018" lon="-8.465913">
<ele>175.5</ele>
<desc>Speed 27.4 km/h Distance 45.02 km</desc>
<time>2011-05-22T10:38:13.82</time>
<name>9446</name>
<sym>Dot</sym>
</trkpt>
<trkpt lat="39.781952" lon="-8.465913">
<ele>175.5</ele>
<desc>Speed 27.5 km/h Distance 45.03 km</desc>
<time>2011-05-22T10:38:14.81</time>
<name>9447</name>
<sym>Dot</sym>
</trkpt>
<trkpt lat="39.781882" lon="-8.465912">
<ele>175.0</ele>
<desc>Speed 27.7 km/h Distance 45.03 km</desc>
<time>2011-05-22T10:38:15.80</time>
<name>9448</name>
<sym>Dot</sym>
</trkpt>
<trkpt lat="39.781813" lon="-8.465912">
<ele>175.0</ele>
<desc>Speed 27.8 km/h Distance 45.04 km</desc>
<time>2011-05-22T10:38:16.80</time>
<name>9449</name>
<sym>Dot</sym>
</trkpt>
<trkpt lat="39.781745" lon="-8.465910">
<ele>175.0</ele>
<desc>Speed 27.9 km/h Distance 45.05 km</desc>
<time>2011-05-22T10:38:17.80</time>
<name>9450</name>
<sym>Dot</sym>
</trkpt>
<trkpt lat="39.781677" lon="-8.465908">
<ele>175.0</ele>
<desc>Speed 28.2 km/h Distance 45.06 km</desc>
<time>2011-05-22T10:38:18.79</time>
<name>9451</name>
<sym>Dot</sym>
</trkpt>
<trkpt lat="39.781607" lon="-8.465905">
<ele>174.5</ele>
<desc>Speed 28.3 km/h Distance 45.06 km</desc>
<time>2011-05-22T10:38:19.79</time>
<name>9452</name>
<sym>Dot</sym>
</trkpt>
<trkpt lat="39.781537" lon="-8.465903">
<ele>174.5</ele>
<desc>Speed 27.9 km/h Distance 45.07 km</desc>
<time>2011-05-22T10:38:20.79</time>
<name>9453</name>
<sym>Dot</sym>
</trkpt>
<trkpt lat="39.781470" lon="-8.465902">
<ele>174.5</ele>
<desc>Speed 27.8 km/h Distance 45.08 km</desc>
<time>2011-05-22T10:38:21.79</time>
<name>9454</name>
<sym>Dot</sym>
</trkpt>
<trkpt lat="39.781402" lon="-8.465900">
<ele>174.5</ele>
<desc>Speed 27.3 km/h Distance 45.09 km</desc>
<time>2011-05-22T10:38:22.78</time>
<name>9455</name>
<sym>Dot</sym>
</trkpt>
<trkpt lat="39.781335" lon="-8.465898">
<ele>174.5</ele>
<desc>Speed 27.3 km/h Distance 45.09 km</desc>
<time>2011-05-22T10:38:23.78</time>
<name>9456</name>
<sym>Dot</sym>
</trkpt>
<trkpt lat="39.781268" lon="-8.465898">
<ele>174.5</ele>
<desc>Speed 27.3 km/h Distance 45.10 km</desc>
<time>2011-05-22T10:38:24.78</time>
<name>9457</name>
<sym>Dot</sym>
</trkpt>
<trkpt lat="39.781203" lon="-8.465898">
<ele>174.5</ele>
<desc>Speed 26.8 km/h Distance 45.11 km</desc>
<time>2011-05-22T10:38:25.78</time>
<name>9458</name>
<sym>Dot</sym>
</trkpt>
<trkpt lat="39.781137" lon="-8.465900">
<ele>175.0</ele>
<desc>Speed 26.7 km/h Distance 45.12 km</desc>
<time>2011-05-22T10:38:26.77</time>
<name>9459</name>
<sym>Dot</sym>
</trkpt>
<trkpt lat="39.781072" lon="-8.465898">
<ele>175.0</ele>
<desc>Speed 26.5 km/h Distance 45.12 km</desc>
<time>2011-05-22T10:38:27.77</time>
<name>9460</name>
<sym>Dot</sym>
</trkpt>
<trkpt lat="39.781008" lon="-8.465897">
<ele>174.5</ele>
<desc>Speed 26.1 km/h Distance 45.13 km</desc>
<time>2011-05-22T10:38:28.76</time>
<name>9461</name>
<sym>Dot</sym>
</trkpt>
<trkpt lat="39.780945" lon="-8.465897">
<ele>174.5</ele>
<desc>Speed 25.8 km/h Distance 45.14 km</desc>
<time>2011-05-22T10:38:29.76</time>
<name>9462</name>
<sym>Dot</sym>
</trkpt>
<trkpt lat="39.780880" lon="-8.465893">
<ele>174.5</ele>
<desc>Speed 26.1 km/h Distance 45.14 km</desc>
<time>2011-05-22T10:38:30.76</time>
<name>9463</name>
<sym>Dot</sym>
</trkpt>
<trkpt lat="39.780818" lon="-8.465890">
<ele>174.5</ele>
<desc>Speed 25.3 km/h Distance 45.15 km</desc>
<time>2011-05-22T10:38:31.75</time>
<name>9464</name>
<sym>Dot</sym>
</trkpt>
<trkpt lat="39.780757" lon="-8.465887">
<ele>174.0</ele>
<desc>Speed 25.2 km/h Distance 45.16 km</desc>
<time>2011-05-22T10:38:32.75</time>
<name>9465</name>
<sym>Dot</sym>
</trkpt>
<trkpt lat="39.780697" lon="-8.465885">
<ele>173.5</ele>
<desc>Speed 24.8 km/h Distance 45.17 km</desc>
<time>2011-05-22T10:38:33.75</time>
<name>9466</name>
<sym>Dot</sym>
</trkpt>
<trkpt lat="39.780637" lon="-8.465883">
<ele>173.5</ele>
<desc>Speed 24.3 km/h Distance 45.17 km</desc>
<time>2011-05-22T10:38:34.74</time>
<name>9467</name>
<sym>Dot</sym>
</trkpt>
<trkpt lat="39.780577" lon="-8.465878">
<ele>173.0</ele>
<desc>Speed 24.5 km/h Distance 45.18 km</desc>
<time>2011-05-22T10:38:35.74</time>
<name>9468</name>
<sym>Dot</sym>
</trkpt>
<trkpt lat="39.780517" lon="-8.465875">
<ele>173.0</ele>
<desc>Speed 24.5 km/h Distance 45.19 km</desc>
<time>2011-05-22T10:38:36.74</time>
<name>9469</name>
<sym>Dot</sym>
</trkpt>
<trkpt lat="39.780457" lon="-8.465873">
<ele>172.5</ele>
<desc>Speed 24.8 km/h Distance 45.19 km</desc>
<time>2011-05-22T10:38:37.74</time>
<name>9470</name>
<sym>Dot</sym>
</trkpt>
<trkpt lat="39.780395" lon="-8.465870">
<ele>172.5</ele>
<desc>Speed 25.1 km/h Distance 45.20 km</desc>
<time>2011-05-22T10:38:38.74</time>
<name>9471</name>
<sym>Dot</sym>
</trkpt>
<trkpt lat="39.780333" lon="-8.465868">
<ele>172.5</ele>
<desc>Speed 24.9 km/h Distance 45.21 km</desc>
<time>2011-05-22T10:38:39.73</time>
<name>9472</name>
<sym>Dot</sym>
</trkpt>
<trkpt lat="39.780270" lon="-8.465865">
<ele>172.0</ele>
<desc>Speed 25.5 km/h Distance 45.21 km</desc>
<time>2011-05-22T10:38:40.73</time>
<name>9473</name>
<sym>Dot</sym>
</trkpt>
<trkpt lat="39.780208" lon="-8.465863">
<ele>172.0</ele>
<desc>Speed 25.4 km/h Distance 45.22 km</desc>
<time>2011-05-22T10:38:41.72</time>
<name>9474</name>
<sym>Dot</sym>
</trkpt>
<trkpt lat="39.780147" lon="-8.465862">
<ele>172.5</ele>
<desc>Speed 25.5 km/h Distance 45.23 km</desc>
<time>2011-05-22T10:38:42.72</time>
<name>9475</name>
<sym>Dot</sym>
</trkpt>
<trkpt lat="39.780083" lon="-8.465862">
<ele>172.5</ele>
<desc>Speed 25.5 km/h Distance 45.23 km</desc>
<time>2011-05-22T10:38:43.71</time>
<name>9476</name>
<sym>Dot</sym>
</trkpt>
<trkpt lat="39.780023" lon="-8.465858">
<ele>172.5</ele>
<desc>Speed 24.8 km/h Distance 45.24 km</desc>
<time>2011-05-22T10:38:44.70</time>
<name>9477</name>
<sym>Dot</sym>
</trkpt>
<trkpt lat="39.779963" lon="-8.465860">
<ele>173.0</ele>
<desc>Speed 24.6 km/h Distance 45.25 km</desc>
<time>2011-05-22T10:38:45.70</time>
<name>9478</name>
<sym>Dot</sym>
</trkpt>
<trkpt lat="39.779902" lon="-8.465860">
<ele>172.5</ele>
<desc>Speed 25.1 km/h Distance 45.25 km</desc>
<time>2011-05-22T10:38:46.70</time>
<name>9479</name>
<sym>Dot</sym>
</trkpt>
<trkpt lat="39.779840" lon="-8.465858">
<ele>172.5</ele>
<desc>Speed 25.0 km/h Distance 45.26 km</desc>
<time>2011-05-22T10:38:47.69</time>
<name>9480</name>
<sym>Dot</sym>
</trkpt>
<trkpt lat="39.779780" lon="-8.465855">
<ele>172.5</ele>
<desc>Speed 24.7 km/h Distance 45.27 km</desc>
<time>2011-05-22T10:38:48.69</time>
<name>9481</name>
<sym>Dot</sym>
</trkpt>
<trkpt lat="39.779717" lon="-8.465855">
<ele>173.0</ele>
<desc>Speed 25.2 km/h Distance 45.27 km</desc>
<time>2011-05-22T10:38:49.68</time>
<name>9482</name>
<sym>Dot</sym>
</trkpt>
<trkpt lat="39.779657" lon="-8.465855">
<ele>173.0</ele>
<desc>Speed 24.3 km/h Distance 45.28 km</desc>
<time>2011-05-22T10:38:50.68</time>
<name>9483</name>
<sym>Dot</sym>
</trkpt>
<trkpt lat="39.779600" lon="-8.465858">
<ele>173.0</ele>
<desc>Speed 24.0 km/h Distance 45.29 km</desc>
<time>2011-05-22T10:38:51.67</time>
<name>9484</name>
<sym>Dot</sym>
</trkpt>
<trkpt lat="39.779542" lon="-8.465862">
<ele>173.5</ele>
<desc>Speed 23.6 km/h Distance 45.29 km</desc>
<time>2011-05-22T10:38:52.67</time>
<name>9485</name>
<sym>Dot</sym>
</trkpt>
<trkpt lat="39.779483" lon="-8.465862">
<ele>174.0</ele>
<desc>Speed 24.0 km/h Distance 45.30 km</desc>
<time>2011-05-22T10:38:53.67</time>
<name>9486</name>
<sym>Dot</sym>
</trkpt>
<trkpt lat="39.779425" lon="-8.465860">
<ele>174.0</ele>
<desc>Speed 23.7 km/h Distance 45.31 km</desc>
<time>2011-05-22T10:38:54.67</time>
<name>9487</name>
<sym>Dot</sym>
</trkpt>
<trkpt lat="39.779370" lon="-8.465860">
<ele>174.0</ele>
<desc>Speed 23.1 km/h Distance 45.31 km</desc>
<time>2011-05-22T10:38:55.67</time>
<name>9488</name>
<sym>Dot</sym>
</trkpt>
<trkpt lat="39.779315" lon="-8.465858">
<ele>174.0</ele>
<desc>Speed 22.5 km/h Distance 45.32 km</desc>
<time>2011-05-22T10:38:56.66</time>
<name>9489</name>
<sym>Dot</sym>
</trkpt>
<trkpt lat="39.779258" lon="-8.465857">
<ele>174.5</ele>
<desc>Speed 23.2 km/h Distance 45.33 km</desc>
<time>2011-05-22T10:38:57.66</time>
<name>9490</name>
<sym>Dot</sym>
</trkpt>
<trkpt lat="39.779202" lon="-8.465855">
<ele>174.5</ele>
<desc>Speed 23.3 km/h Distance 45.33 km</desc>
<time>2011-05-22T10:38:58.66</time>
<name>9491</name>
<sym>Dot</sym>
</trkpt>
<trkpt lat="39.779145" lon="-8.465850">
<ele>174.5</ele>
<desc>Speed 24.0 km/h Distance 45.34 km</desc>
<time>2011-05-22T10:38:59.65</time>
<name>9492</name>
<sym>Dot</sym>
</trkpt>
<trkpt lat="39.779085" lon="-8.465843">
<ele>174.0</ele>
<desc>Speed 24.6 km/h Distance 45.34 km</desc>
<time>2011-05-22T10:39:00.65</time>
<name>9493</name>
<sym>Dot</sym>
</trkpt>
<trkpt lat="39.779025" lon="-8.465840">
<ele>174.0</ele>
<desc>Speed 25.4 km/h Distance 45.35 km</desc>
<time>2011-05-22T10:39:01.64</time>
<name>9494</name>
<sym>Dot</sym>
</trkpt>
<trkpt lat="39.778963" lon="-8.465835">
<ele>174.0</ele>
<desc>Speed 25.2 km/h Distance 45.36 km</desc>
<time>2011-05-22T10:39:02.64</time>
<name>9495</name>
<sym>Dot</sym>
</trkpt>
<trkpt lat="39.778903" lon="-8.465828">
<ele>174.0</ele>
<desc>Speed 25.2 km/h Distance 45.37 km</desc>
<time>2011-05-22T10:39:03.64</time>
<name>9496</name>
<sym>Dot</sym>
</trkpt>
<trkpt lat="39.778843" lon="-8.465818">
<ele>174.0</ele>
<desc>Speed 25.2 km/h Distance 45.37 km</desc>
<time>2011-05-22T10:39:04.64</time>
<name>9497</name>
<sym>Dot</sym>
</trkpt>
<trkpt lat="39.778783" lon="-8.465808">
<ele>174.0</ele>
<desc>Speed 25.1 km/h Distance 45.38 km</desc>
<time>2011-05-22T10:39:05.63</time>
<name>9498</name>
<sym>Dot</sym>
</trkpt>
<trkpt lat="39.778723" lon="-8.465798">
<ele>174.0</ele>
<desc>Speed 25.2 km/h Distance 45.39 km</desc>
<time>2011-05-22T10:39:06.63</time>
<name>9499</name>
<sym>Dot</sym>
</trkpt>
<trkpt lat="39.778663" lon="-8.465788">
<ele>174.0</ele>
<desc>Speed 25.7 km/h Distance 45.39 km</desc>
<time>2011-05-22T10:39:07.63</time>
<name>9500</name>
<sym>Dot</sym>
</trkpt>
<trkpt lat="39.778603" lon="-8.465777">
<ele>174.0</ele>
<desc>Speed 26.0 km/h Distance 45.40 km</desc>
<time>2011-05-22T10:39:08.63</time>
<name>9501</name>
<sym>Dot</sym>
</trkpt>
<trkpt lat="39.778540" lon="-8.465762">
<ele>174.0</ele>
<desc>Speed 25.6 km/h Distance 45.41 km</desc>
<time>2011-05-22T10:39:09.63</time>
<name>9502</name>
<sym>Dot</sym>
</trkpt>
<trkpt lat="39.778478" lon="-8.465748">
<ele>173.5</ele>
<desc>Speed 25.7 km/h Distance 45.41 km</desc>
<time>2011-05-22T10:39:10.62</time>
<name>9503</name>
<sym>Dot</sym>
</trkpt>
<trkpt lat="39.778418" lon="-8.465733">
<ele>173.5</ele>
<desc>Speed 25.1 km/h Distance 45.42 km</desc>
<time>2011-05-22T10:39:11.61</time>
<name>9504</name>
<sym>Dot</sym>
</trkpt>
<trkpt lat="39.778355" lon="-8.465720">
<ele>173.5</ele>
<desc>Speed 25.7 km/h Distance 45.43 km</desc>
<time>2011-05-22T10:39:12.61</time>
<name>9505</name>
<sym>Dot</sym>
</trkpt>
<trkpt lat="39.778293" lon="-8.465703">
<ele>174.0</ele>
<desc>Speed 25.8 km/h Distance 45.43 km</desc>
<time>2011-05-22T10:39:13.61</time>
<name>9506</name>
<sym>Dot</sym>
</trkpt>
<trkpt lat="39.778230" lon="-8.465687">
<ele>173.5</ele>
<desc>Speed 26.5 km/h Distance 45.44 km</desc>
<time>2011-05-22T10:39:14.60</time>
<name>9507</name>
<sym>Dot</sym>
</trkpt>
<trkpt lat="39.778168" lon="-8.465668">
<ele>173.5</ele>
<desc>Speed 26.2 km/h Distance 45.45 km</desc>
<time>2011-05-22T10:39:15.60</time>
<name>9508</name>
<sym>Dot</sym>
</trkpt>
<trkpt lat="39.778105" lon="-8.465652">
<ele>174.0</ele>
<desc>Speed 26.4 km/h Distance 45.46 km</desc>
<time>2011-05-22T10:39:16.60</time>
<name>9509</name>
<sym>Dot</sym>
</trkpt>
<trkpt lat="39.778042" lon="-8.465637">
<ele>174.5</ele>
<desc>Speed 26.3 km/h Distance 45.46 km</desc>
<time>2011-05-22T10:39:17.60</time>
<name>9510</name>
<sym>Dot</sym>
</trkpt>
<trkpt lat="39.777977" lon="-8.465623">
<ele>174.5</ele>
<desc>Speed 26.9 km/h Distance 45.47 km</desc>
<time>2011-05-22T10:39:18.59</time>
<name>9511</name>
<sym>Dot</sym>
</trkpt>
<trkpt lat="39.777912" lon="-8.465610">
<ele>175.0</ele>
<desc>Speed 26.9 km/h Distance 45.48 km</desc>
<time>2011-05-22T10:39:19.59</time>
<name>9512</name>
<sym>Dot</sym>
</trkpt>
<trkpt lat="39.777850" lon="-8.465598">
<ele>174.5</ele>
<desc>Speed 25.8 km/h Distance 45.48 km</desc>
<time>2011-05-22T10:39:20.58</time>
<name>9513</name>
<sym>Dot</sym>
</trkpt>
<trkpt lat="39.777788" lon="-8.465588">
<ele>174.5</ele>
<desc>Speed 25.2 km/h Distance 45.49 km</desc>
<time>2011-05-22T10:39:21.58</time>
<name>9514</name>
<sym>Dot</sym>
</trkpt>
<trkpt lat="39.777725" lon="-8.465582">
<ele>174.5</ele>
<desc>Speed 25.7 km/h Distance 45.50 km</desc>
<time>2011-05-22T10:39:22.57</time>
<name>9515</name>
<sym>Dot</sym>
</trkpt>
<trkpt lat="39.777662" lon="-8.465578">
<ele>174.5</ele>
<desc>Speed 25.6 km/h Distance 45.51 km</desc>
<time>2011-05-22T10:39:23.57</time>
<name>9516</name>
<sym>Dot</sym>
</trkpt>
<trkpt lat="39.777602" lon="-8.465578">
<ele>174.5</ele>
<desc>Speed 24.9 km/h Distance 45.51 km</desc>
<time>2011-05-22T10:39:24.57</time>
<name>9517</name>
<sym>Dot</sym>
</trkpt>
<trkpt lat="39.777540" lon="-8.465582">
<ele>174.0</ele>
<desc>Speed 24.8 km/h Distance 45.52 km</desc>
<time>2011-05-22T10:39:25.57</time>
<name>9518</name>
<sym>Dot</sym>
</trkpt>
<trkpt lat="39.777478" lon="-8.465590">
<ele>174.0</ele>
<desc>Speed 25.1 km/h Distance 45.53 km</desc>
<time>2011-05-22T10:39:26.56</time>
<name>9519</name>
<sym>Dot</sym>
</trkpt>
<trkpt lat="39.777418" lon="-8.465602">
<ele>174.0</ele>
<desc>Speed 24.8 km/h Distance 45.53 km</desc>
<time>2011-05-22T10:39:27.56</time>
<name>9520</name>
<sym>Dot</sym>
</trkpt>
<trkpt lat="39.777357" lon="-8.465615">
<ele>174.0</ele>
<desc>Speed 24.6 km/h Distance 45.54 km</desc>
<time>2011-05-22T10:39:28.56</time>
<name>9521</name>
<sym>Dot</sym>
</trkpt>
<trkpt lat="39.777297" lon="-8.465630">
<ele>174.0</ele>
<desc>Speed 24.7 km/h Distance 45.55 km</desc>
<time>2011-05-22T10:39:29.56</time>
<name>9522</name>
<sym>Dot</sym>
</trkpt>
<trkpt lat="39.777238" lon="-8.465650">
<ele>174.0</ele>
<desc>Speed 24.4 km/h Distance 45.55 km</desc>
<time>2011-05-22T10:39:30.56</time>
<name>9523</name>
<sym>Dot</sym>
</trkpt>
<trkpt lat="39.777182" lon="-8.465675">
<ele>174.0</ele>
<desc>Speed 24.1 km/h Distance 45.56 km</desc>
<time>2011-05-22T10:39:31.55</time>
<name>9524</name>
<sym>Dot</sym>
</trkpt>
<trkpt lat="39.777127" lon="-8.465702">
<ele>173.5</ele>
<desc>Speed 23.8 km/h Distance 45.57 km</desc>
<time>2011-05-22T10:39:32.55</time>
<name>9525</name>
<sym>Dot</sym>
</trkpt>
<trkpt lat="39.777072" lon="-8.465730">
<ele>173.5</ele>
<desc>Speed 24.1 km/h Distance 45.57 km</desc>
<time>2011-05-22T10:39:33.54</time>
<name>9526</name>
<sym>Dot</sym>
</trkpt>
<trkpt lat="39.777015" lon="-8.465757">
<ele>174.0</ele>
<desc>Speed 24.1 km/h Distance 45.58 km</desc>
<time>2011-05-22T10:39:34.54</time>
<name>9527</name>
<sym>Dot</sym>
</trkpt>
<trkpt lat="39.776960" lon="-8.465783">
<ele>174.0</ele>
<desc>Speed 24.3 km/h Distance 45.59 km</desc>
<time>2011-05-22T10:39:35.53</time>
<name>9528</name>
<sym>Dot</sym>
</trkpt>
<trkpt lat="39.776902" lon="-8.465812">
<ele>173.5</ele>
<desc>Speed 24.7 km/h Distance 45.59 km</desc>
<time>2011-05-22T10:39:36.53</time>
<name>9529</name>
<sym>Dot</sym>
</trkpt>
<trkpt lat="39.776847" lon="-8.465840">
<ele>173.5</ele>
<desc>Speed 24.8 km/h Distance 45.60 km</desc>
<time>2011-05-22T10:39:37.53</time>
<name>9530</name>
<sym>Dot</sym>
</trkpt>
<trkpt lat="39.776788" lon="-8.465870">
<ele>173.5</ele>
<desc>Speed 25.1 km/h Distance 45.61 km</desc>
<time>2011-05-22T10:39:38.53</time>
<name>9531</name>
<sym>Dot</sym>
</trkpt>
<trkpt lat="39.776730" lon="-8.465898">
<ele>173.5</ele>
<desc>Speed 25.7 km/h Distance 45.61 km</desc>
<time>2011-05-22T10:39:39.53</time>
<name>9532</name>
<sym>Dot</sym>
</trkpt>
<trkpt lat="39.776672" lon="-8.465927">
<ele>173.5</ele>
<desc>Speed 25.7 km/h Distance 45.62 km</desc>
<time>2011-05-22T10:39:40.52</time>
<name>9533</name>
<sym>Dot</sym>
</trkpt>
<trkpt lat="39.776612" lon="-8.465955">
<ele>174.0</ele>
<desc>Speed 25.5 km/h Distance 45.63 km</desc>
<time>2011-05-22T10:39:41.51</time>
<name>9534</name>
<sym>Dot</sym>
</trkpt>
<trkpt lat="39.776553" lon="-8.465985">
<ele>174.0</ele>
<desc>Speed 25.2 km/h Distance 45.63 km</desc>
<time>2011-05-22T10:39:42.50</time>
<name>9535</name>
<sym>Dot</sym>
</trkpt>
<trkpt lat="39.776495" lon="-8.466013">
<ele>174.0</ele>
<desc>Speed 25.4 km/h Distance 45.64 km</desc>
<time>2011-05-22T10:39:43.50</time>
<name>9536</name>
<sym>Dot</sym>
</trkpt>
<trkpt lat="39.776435" lon="-8.466038">
<ele>174.0</ele>
<desc>Speed 25.7 km/h Distance 45.65 km</desc>
<time>2011-05-22T10:39:44.49</time>
<name>9537</name>
<sym>Dot</sym>
</trkpt>
<trkpt lat="39.776373" lon="-8.466060">
<ele>174.0</ele>
<desc>Speed 26.0 km/h Distance 45.66 km</desc>
<time>2011-05-22T10:39:45.49</time>
<name>9538</name>
<sym>Dot</sym>
</trkpt>
<trkpt lat="39.776312" lon="-8.466078">
<ele>174.0</ele>
<desc>Speed 25.5 km/h Distance 45.66 km</desc>
<time>2011-05-22T10:39:46.48</time>
<name>9539</name>
<sym>Dot</sym>
</trkpt>
<trkpt lat="39.776250" lon="-8.466092">
<ele>174.0</ele>
<desc>Speed 25.5 km/h Distance 45.67 km</desc>
<time>2011-05-22T10:39:47.48</time>
<name>9540</name>
<sym>Dot</sym>
</trkpt>
<trkpt lat="39.776188" lon="-8.466102">
<ele>174.0</ele>
<desc>Speed 25.7 km/h Distance 45.68 km</desc>
<time>2011-05-22T10:39:48.47</time>
<name>9541</name>
<sym>Dot</sym>
</trkpt>
<trkpt lat="39.776125" lon="-8.466105">
<ele>174.0</ele>
<desc>Speed 25.7 km/h Distance 45.68 km</desc>
<time>2011-05-22T10:39:49.47</time>
<name>9542</name>
<sym>Dot</sym>
</trkpt>
<trkpt lat="39.776060" lon="-8.466103">
<ele>174.0</ele>
<desc>Speed 26.0 km/h Distance 45.69 km</desc>
<time>2011-05-22T10:39:50.47</time>
<name>9543</name>
<sym>Dot</sym>
</trkpt>
<trkpt lat="39.775997" lon="-8.466100">
<ele>174.0</ele>
<desc>Speed 25.7 km/h Distance 45.70 km</desc>
<time>2011-05-22T10:39:51.47</time>
<name>9544</name>
<sym>Dot</sym>
</trkpt>
<trkpt lat="39.775935" lon="-8.466095">
<ele>174.0</ele>
<desc>Speed 25.7 km/h Distance 45.70 km</desc>
<time>2011-05-22T10:39:52.46</time>
<name>9545</name>
<sym>Dot</sym>
</trkpt>
<trkpt lat="39.775872" lon="-8.466088">
<ele>174.0</ele>
<desc>Speed 25.2 km/h Distance 45.71 km</desc>
<time>2011-05-22T10:39:53.46</time>
<name>9546</name>
<sym>Dot</sym>
</trkpt>
<trkpt lat="39.775810" lon="-8.466083">
<ele>174.0</ele>
<desc>Speed 25.1 km/h Distance 45.72 km</desc>
<time>2011-05-22T10:39:54.46</time>
<name>9547</name>
<sym>Dot</sym>
</trkpt>
<trkpt lat="39.775748" lon="-8.466077">
<ele>174.0</ele>
<desc>Speed 24.8 km/h Distance 45.73 km</desc>
<time>2011-05-22T10:39:55.46</time>
<name>9548</name>
<sym>Dot</sym>
</trkpt>
<trkpt lat="39.775687" lon="-8.466070">
<ele>174.0</ele>
<desc>Speed 24.8 km/h Distance 45.73 km</desc>
<time>2011-05-22T10:39:56.45</time>
<name>9549</name>
<sym>Dot</sym>
</trkpt>
<trkpt lat="39.775623" lon="-8.466062">
<ele>173.5</ele>
<desc>Speed 25.7 km/h Distance 45.74 km</desc>
<time>2011-05-22T10:39:57.45</time>
<name>9550</name>
<sym>Dot</sym>
</trkpt>
<trkpt lat="39.775563" lon="-8.466057">
<ele>173.5</ele>
<desc>Speed 24.8 km/h Distance 45.75 km</desc>
<time>2011-05-22T10:39:58.44</time>
<name>9551</name>
<sym>Dot</sym>
</trkpt>
<trkpt lat="39.775503" lon="-8.466052">
<ele>173.0</ele>
<desc>Speed 24.7 km/h Distance 45.75 km</desc>
<time>2011-05-22T10:39:59.44</time>
<name>9552</name>
<sym>Dot</sym>
</trkpt>
<trkpt lat="39.775443" lon="-8.466047">
<ele>173.0</ele>
<desc>Speed 24.7 km/h Distance 45.76 km</desc>
<time>2011-05-22T10:40:00.44</time>
<name>9553</name>
<sym>Dot</sym>
</trkpt>
<trkpt lat="39.775383" lon="-8.466040">
<ele>173.0</ele>
<desc>Speed 24.8 km/h Distance 45.77 km</desc>
<time>2011-05-22T10:40:01.43</time>
<name>9554</name>
<sym>Dot</sym>
</trkpt>
<trkpt lat="39.775323" lon="-8.466033">
<ele>173.0</ele>
<desc>Speed 24.6 km/h Distance 45.77 km</desc>
<time>2011-05-22T10:40:02.43</time>
<name>9555</name>
<sym>Dot</sym>
</trkpt>
<trkpt lat="39.775262" lon="-8.466027">
<ele>173.0</ele>
<desc>Speed 24.7 km/h Distance 45.78 km</desc>
<time>2011-05-22T10:40:03.43</time>
<name>9556</name>
<sym>Dot</sym>
</trkpt>
<trkpt lat="39.775203" lon="-8.466020">
<ele>173.0</ele>
<desc>Speed 24.2 km/h Distance 45.79 km</desc>
<time>2011-05-22T10:40:04.43</time>
<name>9557</name>
<sym>Dot</sym>
</trkpt>
<trkpt lat="39.775147" lon="-8.466013">
<ele>173.0</ele>
<desc>Speed 23.8 km/h Distance 45.79 km</desc>
<time>2011-05-22T10:40:05.43</time>
<name>9558</name>
<sym>Dot</sym>
</trkpt>
<trkpt lat="39.775090" lon="-8.466008">
<ele>173.0</ele>
<desc>Speed 23.5 km/h Distance 45.80 km</desc>
<time>2011-05-22T10:40:06.42</time>
<name>9559</name>
<sym>Dot</sym>
</trkpt>
<trkpt lat="39.775035" lon="-8.466002">
<ele>173.0</ele>
<desc>Speed 23.1 km/h Distance 45.80 km</desc>
<time>2011-05-22T10:40:07.42</time>
<name>9560</name>
<sym>Dot</sym>
</trkpt>
<trkpt lat="39.774978" lon="-8.465997">
<ele>173.0</ele>
<desc>Speed 23.0 km/h Distance 45.81 km</desc>
<time>2011-05-22T10:40:08.42</time>
<name>9561</name>
<sym>Dot</sym>
</trkpt>
<trkpt lat="39.774925" lon="-8.465990">
<ele>173.0</ele>
<desc>Speed 22.3 km/h Distance 45.82 km</desc>
<time>2011-05-22T10:40:09.42</time>
<name>9562</name>
<sym>Dot</sym>
</trkpt>
<trkpt lat="39.774872" lon="-8.465983">
<ele>173.5</ele>
<desc>Speed 21.9 km/h Distance 45.82 km</desc>
<time>2011-05-22T10:40:10.42</time>
<name>9563</name>
<sym>Dot</sym>
</trkpt>
<trkpt lat="39.774820" lon="-8.465980">
<ele>173.5</ele>
<desc>Speed 21.3 km/h Distance 45.83 km</desc>
<time>2011-05-22T10:40:11.41</time>
<name>9564</name>
<sym>Dot</sym>
</trkpt>
<trkpt lat="39.774765" lon="-8.465977">
<ele>173.0</ele>
<desc>Speed 22.4 km/h Distance 45.84 km</desc>
<time>2011-05-22T10:40:12.41</time>
<name>9565</name>
<sym>Dot</sym>
</trkpt>
<trkpt lat="39.774710" lon="-8.465968">
<ele>172.5</ele>
<desc>Speed 22.7 km/h Distance 45.84 km</desc>
<time>2011-05-22T10:40:13.41</time>
<name>9566</name>
<sym>Dot</sym>
</trkpt>
<trkpt lat="39.774657" lon="-8.465957">
<ele>172.5</ele>
<desc>Speed 22.3 km/h Distance 45.85 km</desc>
<time>2011-05-22T10:40:14.41</time>
<name>9567</name>
<sym>Dot</sym>
</trkpt>
<trkpt lat="39.774602" lon="-8.465945">
<ele>172.5</ele>
<desc>Speed 22.5 km/h Distance 45.85 km</desc>
<time>2011-05-22T10:40:15.40</time>
<name>9568</name>
<sym>Dot</sym>
</trkpt>
<trkpt lat="39.774547" lon="-8.465932">
<ele>172.5</ele>
<desc>Speed 22.6 km/h Distance 45.86 km</desc>
<time>2011-05-22T10:40:16.40</time>
<name>9569</name>
<sym>Dot</sym>
</trkpt>
<trkpt lat="39.774493" lon="-8.465918">
<ele>172.5</ele>
<desc>Speed 22.2 km/h Distance 45.87 km</desc>
<time>2011-05-22T10:40:17.40</time>
<name>9570</name>
<sym>Dot</sym>
</trkpt>
<trkpt lat="39.774440" lon="-8.465905">
<ele>172.5</ele>
<desc>Speed 21.5 km/h Distance 45.87 km</desc>
<time>2011-05-22T10:40:18.40</time>
<name>9571</name>
<sym>Dot</sym>
</trkpt>
<trkpt lat="39.774392" lon="-8.465892">
<ele>172.5</ele>
<desc>Speed 20.3 km/h Distance 45.88 km</desc>
<time>2011-05-22T10:40:19.40</time>
<name>9572</name>
<sym>Dot</sym>
</trkpt>
<trkpt lat="39.774345" lon="-8.465875">
<ele>172.5</ele>
<desc>Speed 19.7 km/h Distance 45.88 km</desc>
<time>2011-05-22T10:40:20.39</time>
<name>9573</name>
<sym>Dot</sym>
</trkpt>
<trkpt lat="39.774300" lon="-8.465857">
<ele>173.0</ele>
<desc>Speed 19.4 km/h Distance 45.89 km</desc>
<time>2011-05-22T10:40:21.39</time>
<name>9574</name>
<sym>Dot</sym>
</trkpt>
<trkpt lat="39.774257" lon="-8.465835">
<ele>173.0</ele>
<desc>Speed 19.2 km/h Distance 45.89 km</desc>
<time>2011-05-22T10:40:22.38</time>
<name>9575</name>
<sym>Dot</sym>
</trkpt>
<trkpt lat="39.774217" lon="-8.465810">
<ele>173.5</ele>
<desc>Speed 19.1 km/h Distance 45.90 km</desc>
<time>2011-05-22T10:40:23.37</time>
<name>9576</name>
<sym>Dot</sym>
</trkpt>
<trkpt lat="39.774173" lon="-8.465788">
<ele>175.0</ele>
<desc>Speed 19.2 km/h Distance 45.90 km</desc>
<time>2011-05-22T10:40:24.37</time>
<name>9577</name>
<sym>Dot</sym>
</trkpt>
<trkpt lat="39.774130" lon="-8.465767">
<ele>176.0</ele>
<desc>Speed 19.4 km/h Distance 45.91 km</desc>
<time>2011-05-22T10:40:25.37</time>
<name>9578</name>
<sym>Dot</sym>
</trkpt>
<trkpt lat="39.774085" lon="-8.465747">
<ele>176.5</ele>
<desc>Speed 19.7 km/h Distance 45.91 km</desc>
<time>2011-05-22T10:40:26.36</time>
<name>9579</name>
<sym>Dot</sym>
</trkpt>
<trkpt lat="39.774040" lon="-8.465732">
<ele>176.5</ele>
<desc>Speed 18.9 km/h Distance 45.92 km</desc>
<time>2011-05-22T10:40:27.36</time>
<name>9580</name>
<sym>Dot</sym>
</trkpt>
<trkpt lat="39.773995" lon="-8.465722">
<ele>177.0</ele>
<desc>Speed 18.9 km/h Distance 45.92 km</desc>
<time>2011-05-22T10:40:28.36</time>
<name>9581</name>
<sym>Dot</sym>
</trkpt>
<trkpt lat="39.773950" lon="-8.465707">
<ele>177.0</ele>
<desc>Speed 18.9 km/h Distance 45.93 km</desc>
<time>2011-05-22T10:40:29.36</time>
<name>9582</name>
<sym>Dot</sym>
</trkpt>
<trkpt lat="39.773907" lon="-8.465687">
<ele>178.0</ele>
<desc>Speed 19.0 km/h Distance 45.93 km</desc>
<time>2011-05-22T10:40:30.36</time>
<name>9583</name>
<sym>Dot</sym>
</trkpt>
<trkpt lat="39.773863" lon="-8.465667">
<ele>179.0</ele>
<desc>Speed 18.8 km/h Distance 45.94 km</desc>
<time>2011-05-22T10:40:31.35</time>
<name>9584</name>
<sym>Dot</sym>
</trkpt>
<trkpt lat="39.773820" lon="-8.465645">
<ele>180.0</ele>
<desc>Speed 19.2 km/h Distance 45.94 km</desc>
<time>2011-05-22T10:40:32.35</time>
<name>9585</name>
<sym>Dot</sym>
</trkpt>
<trkpt lat="39.773777" lon="-8.465623">
<ele>181.0</ele>
<desc>Speed 19.2 km/h Distance 45.95 km</desc>
<time>2011-05-22T10:40:33.34</time>
<name>9586</name>
<sym>Dot</sym>
</trkpt>
<trkpt lat="39.773730" lon="-8.465603">
<ele>181.0</ele>
<desc>Speed 19.9 km/h Distance 45.96 km</desc>
<time>2011-05-22T10:40:34.34</time>
<name>9587</name>
<sym>Dot</sym>
</trkpt>
<trkpt lat="39.773687" lon="-8.465580">
<ele>181.0</ele>
<desc>Speed 19.4 km/h Distance 45.96 km</desc>
<time>2011-05-22T10:40:35.34</time>
<name>9588</name>
<sym>Dot</sym>
</trkpt>
<trkpt lat="39.773643" lon="-8.465553">
<ele>182.0</ele>
<desc>Speed 19.0 km/h Distance 45.97 km</desc>
<time>2011-05-22T10:40:36.33</time>
<name>9589</name>
<sym>Dot</sym>
</trkpt>
<trkpt lat="39.773598" lon="-8.465528">
<ele>182.0</ele>
<desc>Speed 19.7 km/h Distance 45.97 km</desc>
<time>2011-05-22T10:40:37.33</time>
<name>9590</name>
<sym>Dot</sym>
</trkpt>
<trkpt lat="39.773557" lon="-8.465503">
<ele>183.0</ele>
<desc>Speed 18.5 km/h Distance 45.98 km</desc>
<time>2011-05-22T10:40:38.32</time>
<name>9591</name>
<sym>Dot</sym>
</trkpt>
<trkpt lat="39.773513" lon="-8.465477">
<ele>183.0</ele>
<desc>Speed 19.5 km/h Distance 45.98 km</desc>
<time>2011-05-22T10:40:39.32</time>
<name>9592</name>
<sym>Dot</sym>
</trkpt>
<trkpt lat="39.773463" lon="-8.465447">
<ele>182.5</ele>
<desc>Speed 22.2 km/h Distance 45.99 km</desc>
<time>2011-05-22T10:40:40.32</time>
<name>9593</name>
<sym>Dot</sym>
</trkpt>
<trkpt lat="39.773413" lon="-8.465418">
<ele>182.0</ele>
<desc>Speed 21.7 km/h Distance 45.99 km</desc>
<time>2011-05-22T10:40:41.32</time>
<name>9594</name>
<sym>Dot</sym>
</trkpt>
<trkpt lat="39.773362" lon="-8.465388">
<ele>182.0</ele>
<desc>Speed 22.4 km/h Distance 46.00 km</desc>
<time>2011-05-22T10:40:42.31</time>
<name>9595</name>
<sym>Dot</sym>
</trkpt>
<trkpt lat="39.773310" lon="-8.465357">
<ele>181.0</ele>
<desc>Speed 23.6 km/h Distance 46.01 km</desc>
<time>2011-05-22T10:40:43.31</time>
<name>9596</name>
<sym>Dot</sym>
</trkpt>
<trkpt lat="39.773255" lon="-8.465327">
<ele>181.0</ele>
<desc>Speed 23.7 km/h Distance 46.01 km</desc>
<time>2011-05-22T10:40:44.31</time>
<name>9597</name>
<sym>Dot</sym>
</trkpt>
<trkpt lat="39.773198" lon="-8.465295">
<ele>180.0</ele>
<desc>Speed 24.8 km/h Distance 46.02 km</desc>
<time>2011-05-22T10:40:45.30</time>
<name>9598</name>
<sym>Dot</sym>
</trkpt>
<trkpt lat="39.773142" lon="-8.465265">
<ele>180.5</ele>
<desc>Speed 24.3 km/h Distance 46.03 km</desc>
<time>2011-05-22T10:40:46.30</time>
<name>9599</name>
<sym>Dot</sym>
</trkpt>
<trkpt lat="39.773087" lon="-8.465235">
<ele>180.5</ele>
<desc>Speed 24.2 km/h Distance 46.03 km</desc>
<time>2011-05-22T10:40:47.29</time>
<name>9600</name>
<sym>Dot</sym>
</trkpt>
<trkpt lat="39.773032" lon="-8.465203">
<ele>180.5</ele>
<desc>Speed 24.3 km/h Distance 46.04 km</desc>
<time>2011-05-22T10:40:48.28</time>
<name>9601</name>
<sym>Dot</sym>
</trkpt>
<trkpt lat="39.772977" lon="-8.465172">
<ele>180.5</ele>
<desc>Speed 24.3 km/h Distance 46.05 km</desc>
<time>2011-05-22T10:40:49.28</time>
<name>9602</name>
<sym>Dot</sym>
</trkpt>
<trkpt lat="39.772922" lon="-8.465138">
<ele>180.5</ele>
<desc>Speed 24.4 km/h Distance 46.05 km</desc>
<time>2011-05-22T10:40:50.28</time>
<name>9603</name>
<sym>Dot</sym>
</trkpt>
<trkpt lat="39.772868" lon="-8.465105">
<ele>180.5</ele>
<desc>Speed 24.0 km/h Distance 46.06 km</desc>
<time>2011-05-22T10:40:51.28</time>
<name>9604</name>
<sym>Dot</sym>
</trkpt>
<trkpt lat="39.772817" lon="-8.465072">
<ele>180.0</ele>
<desc>Speed 23.6 km/h Distance 46.07 km</desc>
<time>2011-05-22T10:40:52.27</time>
<name>9605</name>
<sym>Dot</sym>
</trkpt>
<trkpt lat="39.772767" lon="-8.465035">
<ele>179.5</ele>
<desc>Speed 23.8 km/h Distance 46.07 km</desc>
<time>2011-05-22T10:40:53.26</time>
<name>9606</name>
<sym>Dot</sym>
</trkpt>
<trkpt lat="39.772718" lon="-8.464997">
<ele>179.0</ele>
<desc>Speed 23.0 km/h Distance 46.08 km</desc>
<time>2011-05-22T10:40:54.26</time>
<name>9607</name>
<sym>Dot</sym>
</trkpt>
<trkpt lat="39.772673" lon="-8.464957">
<ele>179.0</ele>
<desc>Speed 22.8 km/h Distance 46.09 km</desc>
<time>2011-05-22T10:40:55.25</time>
<name>9608</name>
<sym>Dot</sym>
</trkpt>
<trkpt lat="39.772630" lon="-8.464910">
<ele>178.5</ele>
<desc>Speed 22.8 km/h Distance 46.09 km</desc>
<time>2011-05-22T10:40:56.25</time>
<name>9609</name>
<sym>Dot</sym>
</trkpt>
<trkpt lat="39.772585" lon="-8.464865">
<ele>178.0</ele>
<desc>Speed 23.0 km/h Distance 46.10 km</desc>
<time>2011-05-22T10:40:57.24</time>
<name>9610</name>
<sym>Dot</sym>
</trkpt>
<trkpt lat="39.772540" lon="-8.464822">
<ele>179.0</ele>
<desc>Speed 23.0 km/h Distance 46.10 km</desc>
<time>2011-05-22T10:40:58.24</time>
<name>9611</name>
<sym>Dot</sym>
</trkpt>
<trkpt lat="39.772495" lon="-8.464780">
<ele>179.0</ele>
<desc>Speed 23.0 km/h Distance 46.11 km</desc>
<time>2011-05-22T10:40:59.24</time>
<name>9612</name>
<sym>Dot</sym>
</trkpt>
<trkpt lat="39.772448" lon="-8.464737">
<ele>179.0</ele>
<desc>Speed 22.9 km/h Distance 46.12 km</desc>
<time>2011-05-22T10:41:00.24</time>
<name>9613</name>
<sym>Dot</sym>
</trkpt>
<trkpt lat="39.772403" lon="-8.464697">
<ele>179.0</ele>
<desc>Speed 22.6 km/h Distance 46.12 km</desc>
<time>2011-05-22T10:41:01.24</time>
<name>9614</name>
<sym>Dot</sym>
</trkpt>
<trkpt lat="39.772353" lon="-8.464660">
<ele>179.0</ele>
<desc>Speed 23.1 km/h Distance 46.13 km</desc>
<time>2011-05-22T10:41:02.24</time>
<name>9615</name>
<sym>Dot</sym>
</trkpt>
<trkpt lat="39.772303" lon="-8.464628">
<ele>179.0</ele>
<desc>Speed 23.3 km/h Distance 46.14 km</desc>
<time>2011-05-22T10:41:03.23</time>
<name>9616</name>
<sym>Dot</sym>
</trkpt>
<trkpt lat="39.772250" lon="-8.464595">
<ele>179.0</ele>
<desc>Speed 24.2 km/h Distance 46.14 km</desc>
<time>2011-05-22T10:41:04.23</time>
<name>9617</name>
<sym>Dot</sym>
</trkpt>
<trkpt lat="39.772197" lon="-8.464567">
<ele>179.5</ele>
<desc>Speed 23.8 km/h Distance 46.15 km</desc>
<time>2011-05-22T10:41:05.23</time>
<name>9618</name>
<sym>Dot</sym>
</trkpt>
<trkpt lat="39.772143" lon="-8.464538">
<ele>180.5</ele>
<desc>Speed 23.4 km/h Distance 46.15 km</desc>
<time>2011-05-22T10:41:06.23</time>
<name>9619</name>
<sym>Dot</sym>
</trkpt>
<trkpt lat="39.772088" lon="-8.464507">
<ele>180.5</ele>
<desc>Speed 24.2 km/h Distance 46.16 km</desc>
<time>2011-05-22T10:41:07.23</time>
<name>9620</name>
<sym>Dot</sym>
</trkpt>
<trkpt lat="39.772033" lon="-8.464473">
<ele>180.5</ele>
<desc>Speed 23.6 km/h Distance 46.17 km</desc>
<time>2011-05-22T10:41:08.23</time>
<name>9621</name>
<sym>Dot</sym>
</trkpt>
<trkpt lat="39.771980" lon="-8.464440">
<ele>180.0</ele>
<desc>Speed 23.6 km/h Distance 46.17 km</desc>
<time>2011-05-22T10:41:09.22</time>
<name>9622</name>
<sym>Dot</sym>
</trkpt>
<trkpt lat="39.771925" lon="-8.464408">
<ele>180.0</ele>
<desc>Speed 24.2 km/h Distance 46.18 km</desc>
<time>2011-05-22T10:41:10.21</time>
<name>9623</name>
<sym>Dot</sym>
</trkpt>
<trkpt lat="39.771872" lon="-8.464377">
<ele>180.0</ele>
<desc>Speed 23.9 km/h Distance 46.19 km</desc>
<time>2011-05-22T10:41:11.21</time>
<name>9624</name>
<sym>Dot</sym>
</trkpt>
<trkpt lat="39.771818" lon="-8.464347">
<ele>180.5</ele>
<desc>Speed 23.6 km/h Distance 46.19 km</desc>
<time>2011-05-22T10:41:12.21</time>
<name>9625</name>
<sym>Dot</sym>
</trkpt>
<trkpt lat="39.771765" lon="-8.464315">
<ele>180.5</ele>
<desc>Speed 23.9 km/h Distance 46.20 km</desc>
<time>2011-05-22T10:41:13.20</time>
<name>9626</name>
<sym>Dot</sym>
</trkpt>
<trkpt lat="39.771710" lon="-8.464283">
<ele>180.5</ele>
<desc>Speed 24.3 km/h Distance 46.21 km</desc>
<time>2011-05-22T10:41:14.20</time>
<name>9627</name>
<sym>Dot</sym>
</trkpt>
<trkpt lat="39.771653" lon="-8.464253">
<ele>180.0</ele>
<desc>Speed 24.7 km/h Distance 46.21 km</desc>
<time>2011-05-22T10:41:15.20</time>
<name>9628</name>
<sym>Dot</sym>
</trkpt>
<trkpt lat="39.771593" lon="-8.464223">
<ele>179.5</ele>
<desc>Speed 25.9 km/h Distance 46.22 km</desc>
<time>2011-05-22T10:41:16.19</time>
<name>9629</name>
<sym>Dot</sym>
</trkpt>
<trkpt lat="39.771530" lon="-8.464193">
<ele>179.0</ele>
<desc>Speed 27.3 km/h Distance 46.23 km</desc>
<time>2011-05-22T10:41:17.18</time>
<name>9630</name>
<sym>Dot</sym>
</trkpt>
<trkpt lat="39.771468" lon="-8.464163">
<ele>178.5</ele>
<desc>Speed 26.4 km/h Distance 46.24 km</desc>
<time>2011-05-22T10:41:18.18</time>
<name>9631</name>
<sym>Dot</sym>
</trkpt>
<trkpt lat="39.771407" lon="-8.464133">
<ele>178.5</ele>
<desc>Speed 26.6 km/h Distance 46.24 km</desc>
<time>2011-05-22T10:41:19.17</time>
<name>9632</name>
<sym>Dot</sym>
</trkpt>
<trkpt lat="39.771342" lon="-8.464105">
<ele>178.5</ele>
<desc>Speed 27.8 km/h Distance 46.25 km</desc>
<time>2011-05-22T10:41:20.17</time>
<name>9633</name>
<sym>Dot</sym>
</trkpt>
<trkpt lat="39.771275" lon="-8.464075">
<ele>178.5</ele>
<desc>Speed 28.3 km/h Distance 46.26 km</desc>
<time>2011-05-22T10:41:21.16</time>
<name>9634</name>
<sym>Dot</sym>
</trkpt>
<trkpt lat="39.771208" lon="-8.464047">
<ele>178.5</ele>
<desc>Speed 28.8 km/h Distance 46.27 km</desc>
<time>2011-05-22T10:41:22.16</time>
<name>9635</name>
<sym>Dot</sym>
</trkpt>
<trkpt lat="39.771140" lon="-8.464017">
<ele>178.0</ele>
<desc>Speed 28.9 km/h Distance 46.28 km</desc>
<time>2011-05-22T10:41:23.16</time>
<name>9636</name>
<sym>Dot</sym>
</trkpt>
<trkpt lat="39.771073" lon="-8.463987">
<ele>178.0</ele>
<desc>Speed 28.7 km/h Distance 46.28 km</desc>
<time>2011-05-22T10:41:24.16</time>
<name>9637</name>
<sym>Dot</sym>
</trkpt>
<trkpt lat="39.771008" lon="-8.463957">
<ele>178.5</ele>
<desc>Speed 28.6 km/h Distance 46.29 km</desc>
<time>2011-05-22T10:41:25.15</time>
<name>9638</name>
<sym>Dot</sym>
</trkpt>
<trkpt lat="39.770942" lon="-8.463923">
<ele>178.5</ele>
<desc>Speed 28.7 km/h Distance 46.30 km</desc>
<time>2011-05-22T10:41:26.15</time>
<name>9639</name>
<sym>Dot</sym>
</trkpt>
<trkpt lat="39.770875" lon="-8.463892">
<ele>178.5</ele>
<desc>Speed 29.4 km/h Distance 46.31 km</desc>
<time>2011-05-22T10:41:27.15</time>
<name>9640</name>
<sym>Dot</sym>
</trkpt>
<trkpt lat="39.770805" lon="-8.463858">
<ele>178.5</ele>
<desc>Speed 29.8 km/h Distance 46.31 km</desc>
<time>2011-05-22T10:41:28.16</time>
<name>9641</name>
<sym>Dot</sym>
</trkpt>
<trkpt lat="39.770737" lon="-8.463828">
<ele>178.5</ele>
<desc>Speed 29.9 km/h Distance 46.32 km</desc>
<time>2011-05-22T10:41:29.15</time>
<name>9642</name>
<sym>Dot</sym>
</trkpt>
<trkpt lat="39.770668" lon="-8.463795">
<ele>179.0</ele>
<desc>Speed 29.7 km/h Distance 46.33 km</desc>
<time>2011-05-22T10:41:30.16</time>
<name>9643</name>
<sym>Dot</sym>
</trkpt>
<trkpt lat="39.770598" lon="-8.463762">
<ele>179.0</ele>
<desc>Speed 30.0 km/h Distance 46.34 km</desc>
<time>2011-05-22T10:41:31.14</time>
<name>9644</name>
<sym>Dot</sym>
</trkpt>
<trkpt lat="39.770527" lon="-8.463728">
<ele>178.5</ele>
<desc>Speed 31.0 km/h Distance 46.35 km</desc>
<time>2011-05-22T10:41:32.14</time>
<name>9645</name>
<sym>Dot</sym>
</trkpt>
<trkpt lat="39.770457" lon="-8.463697">
<ele>178.5</ele>
<desc>Speed 29.8 km/h Distance 46.36 km</desc>
<time>2011-05-22T10:41:33.13</time>
<name>9646</name>
<sym>Dot</sym>
</trkpt>
<trkpt lat="39.770387" lon="-8.463665">
<ele>178.0</ele>
<desc>Speed 30.2 km/h Distance 46.36 km</desc>
<time>2011-05-22T10:41:34.13</time>
<name>9647</name>
<sym>Dot</sym>
</trkpt>
<trkpt lat="39.770318" lon="-8.463630">
<ele>178.0</ele>
<desc>Speed 30.3 km/h Distance 46.37 km</desc>
<time>2011-05-22T10:41:35.12</time>
<name>9648</name>
<sym>Dot</sym>
</trkpt>
<trkpt lat="39.770252" lon="-8.463598">
<ele>178.0</ele>
<desc>Speed 29.4 km/h Distance 46.38 km</desc>
<time>2011-05-22T10:41:36.11</time>
<name>9649</name>
<sym>Dot</sym>
</trkpt>
<trkpt lat="39.770185" lon="-8.463567">
<ele>178.0</ele>
<desc>Speed 28.5 km/h Distance 46.39 km</desc>
<time>2011-05-22T10:41:37.11</time>
<name>9650</name>
<sym>Dot</sym>
</trkpt>
<trkpt lat="39.770122" lon="-8.463532">
<ele>177.5</ele>
<desc>Speed 27.8 km/h Distance 46.40 km</desc>
<time>2011-05-22T10:41:38.11</time>
<name>9651</name>
<sym>Dot</sym>
</trkpt>
<trkpt lat="39.770057" lon="-8.463497">
<ele>177.0</ele>
<desc>Speed 28.2 km/h Distance 46.40 km</desc>
<time>2011-05-22T10:41:39.11</time>
<name>9652</name>
<sym>Dot</sym>
</trkpt>
<trkpt lat="39.769997" lon="-8.463467">
<ele>177.0</ele>
<desc>Speed 26.0 km/h Distance 46.41 km</desc>
<time>2011-05-22T10:41:40.11</time>
<name>9653</name>
<sym>Dot</sym>
</trkpt>
<trkpt lat="39.769938" lon="-8.463438">
<ele>177.0</ele>
<desc>Speed 25.7 km/h Distance 46.42 km</desc>
<time>2011-05-22T10:41:41.10</time>
<name>9654</name>
<sym>Dot</sym>
</trkpt>
<trkpt lat="39.769880" lon="-8.463408">
<ele>176.5</ele>
<desc>Speed 25.7 km/h Distance 46.42 km</desc>
<time>2011-05-22T10:41:42.10</time>
<name>9655</name>
<sym>Dot</sym>
</trkpt>
<trkpt lat="39.769825" lon="-8.463375">
<ele>177.0</ele>
<desc>Speed 25.1 km/h Distance 46.43 km</desc>
<time>2011-05-22T10:41:43.10</time>
<name>9656</name>
<sym>Dot</sym>
</trkpt>
<trkpt lat="39.769770" lon="-8.463340">
<ele>177.0</ele>
<desc>Speed 25.1 km/h Distance 46.44 km</desc>
<time>2011-05-22T10:41:44.09</time>
<name>9657</name>
<sym>Dot</sym>
</trkpt>
<trkpt lat="39.769713" lon="-8.463308">
<ele>177.5</ele>
<desc>Speed 25.4 km/h Distance 46.45 km</desc>
<time>2011-05-22T10:41:45.08</time>
<name>9658</name>
<sym>Dot</sym>
</trkpt>
<trkpt lat="39.769658" lon="-8.463270">
<ele>177.5</ele>
<desc>Speed 25.3 km/h Distance 46.45 km</desc>
<time>2011-05-22T10:41:46.07</time>
<name>9659</name>
<sym>Dot</sym>
</trkpt>
<trkpt lat="39.769603" lon="-8.463232">
<ele>177.0</ele>
<desc>Speed 25.5 km/h Distance 46.46 km</desc>
<time>2011-05-22T10:41:47.07</time>
<name>9660</name>
<sym>Dot</sym>
</trkpt>
<trkpt lat="39.769550" lon="-8.463197">
<ele>176.5</ele>
<desc>Speed 24.6 km/h Distance 46.47 km</desc>
<time>2011-05-22T10:41:48.07</time>
<name>9661</name>
<sym>Dot</sym>
</trkpt>
<trkpt lat="39.769493" lon="-8.463167">
<ele>176.5</ele>
<desc>Speed 25.1 km/h Distance 46.47 km</desc>
<time>2011-05-22T10:41:49.07</time>
<name>9662</name>
<sym>Dot</sym>
</trkpt>
<trkpt lat="39.769435" lon="-8.463138">
<ele>177.0</ele>
<desc>Speed 25.1 km/h Distance 46.48 km</desc>
<time>2011-05-22T10:41:50.07</time>
<name>9663</name>
<sym>Dot</sym>
</trkpt>
<trkpt lat="39.769377" lon="-8.463115">
<ele>176.5</ele>
<desc>Speed 25.6 km/h Distance 46.49 km</desc>
<time>2011-05-22T10:41:51.06</time>
<name>9664</name>
<sym>Dot</sym>
</trkpt>
<trkpt lat="39.769315" lon="-8.463098">
<ele>177.5</ele>
<desc>Speed 25.7 km/h Distance 46.49 km</desc>
<time>2011-05-22T10:41:52.06</time>
<name>9665</name>
<sym>Dot</sym>
</trkpt>
<trkpt lat="39.769252" lon="-8.463082">
<ele>178.0</ele>
<desc>Speed 26.0 km/h Distance 46.50 km</desc>
<time>2011-05-22T10:41:53.05</time>
<name>9666</name>
<sym>Dot</sym>
</trkpt>
<trkpt lat="39.769188" lon="-8.463065">
<ele>178.5</ele>
<desc>Speed 26.7 km/h Distance 46.51 km</desc>
<time>2011-05-22T10:41:54.04</time>
<name>9667</name>
<sym>Dot</sym>
</trkpt>
<trkpt lat="39.769125" lon="-8.463050">
<ele>179.0</ele>
<desc>Speed 25.7 km/h Distance 46.51 km</desc>
<time>2011-05-22T10:41:55.04</time>
<name>9668</name>
<sym>Dot</sym>
</trkpt>
<trkpt lat="39.769063" lon="-8.463035">
<ele>179.0</ele>
<desc>Speed 26.0 km/h Distance 46.52 km</desc>
<time>2011-05-22T10:41:56.05</time>
<name>9669</name>
<sym>Dot</sym>
</trkpt>
<trkpt lat="39.769002" lon="-8.463022">
<ele>179.0</ele>
<desc>Speed 25.7 km/h Distance 46.53 km</desc>
<time>2011-05-22T10:41:57.04</time>
<name>9670</name>
<sym>Dot</sym>
</trkpt>
<trkpt lat="39.768938" lon="-8.463012">
<ele>179.5</ele>
<desc>Speed 26.5 km/h Distance 46.54 km</desc>
<time>2011-05-22T10:41:58.04</time>
<name>9671</name>
<sym>Dot</sym>
</trkpt>
<trkpt lat="39.768875" lon="-8.463002">
<ele>179.5</ele>
<desc>Speed 26.0 km/h Distance 46.54 km</desc>
<time>2011-05-22T10:41:59.04</time>
<name>9672</name>
<sym>Dot</sym>
</trkpt>
<trkpt lat="39.768810" lon="-8.462995">
<ele>179.5</ele>
<desc>Speed 26.3 km/h Distance 46.55 km</desc>
<time>2011-05-22T10:42:00.04</time>
<name>9673</name>
<sym>Dot</sym>
</trkpt>
<trkpt lat="39.768747" lon="-8.462990">
<ele>179.5</ele>
<desc>Speed 25.9 km/h Distance 46.56 km</desc>
<time>2011-05-22T10:42:01.03</time>
<name>9674</name>
<sym>Dot</sym>
</trkpt>
<trkpt lat="39.768685" lon="-8.462987">
<ele>179.0</ele>
<desc>Speed 25.7 km/h Distance 46.56 km</desc>
<time>2011-05-22T10:42:02.03</time>
<name>9675</name>
<sym>Dot</sym>
</trkpt>
<trkpt lat="39.768623" lon="-8.462985">
<ele>178.5</ele>
<desc>Speed 25.6 km/h Distance 46.57 km</desc>
<time>2011-05-22T10:42:03.02</time>
<name>9676</name>
<sym>Dot</sym>
</trkpt>
<trkpt lat="39.768562" lon="-8.462985">
<ele>178.5</ele>
<desc>Speed 25.5 km/h Distance 46.58 km</desc>
<time>2011-05-22T10:42:04.02</time>
<name>9677</name>
<sym>Dot</sym>
</trkpt>
<trkpt lat="39.768500" lon="-8.462988">
<ele>178.5</ele>
<desc>Speed 25.2 km/h Distance 46.58 km</desc>
<time>2011-05-22T10:42:05.01</time>
<name>9678</name>
<sym>Dot</sym>
</trkpt>
<trkpt lat="39.768437" lon="-8.462993">
<ele>178.5</ele>
<desc>Speed 25.8 km/h Distance 46.59 km</desc>
<time>2011-05-22T10:42:06.01</time>
<name>9679</name>
<sym>Dot</sym>
</trkpt>
<trkpt lat="39.768370" lon="-8.462990">
<ele>177.5</ele>
<desc>Speed 27.8 km/h Distance 46.60 km</desc>
<time>2011-05-22T10:42:07.00</time>
<name>9680</name>
<sym>Dot</sym>
</trkpt>
<trkpt lat="39.768305" lon="-8.462990">
<ele>177.0</ele>
<desc>Speed 26.4 km/h Distance 46.61 km</desc>
<time>2011-05-22T10:42:08.00</time>
<name>9681</name>
<sym>Dot</sym>
</trkpt>
<trkpt lat="39.768242" lon="-8.462990">
<ele>177.0</ele>
<desc>Speed 25.5 km/h Distance 46.61 km</desc>
<time>2011-05-22T10:42:08.99</time>
<name>9682</name>
<sym>Dot</sym>
</trkpt>
<trkpt lat="39.768178" lon="-8.462988">
<ele>177.0</ele>
<desc>Speed 25.9 km/h Distance 46.62 km</desc>
<time>2011-05-22T10:42:09.99</time>
<name>9683</name>
<sym>Dot</sym>
</trkpt>
<trkpt lat="39.768117" lon="-8.462987">
<ele>177.0</ele>
<desc>Speed 25.5 km/h Distance 46.63 km</desc>
<time>2011-05-22T10:42:10.99</time>
<name>9684</name>
<sym>Dot</sym>
</trkpt>
<trkpt lat="39.768057" lon="-8.462983">
<ele>176.5</ele>
<desc>Speed 25.2 km/h Distance 46.63 km</desc>
<time>2011-05-22T10:42:11.99</time>
<name>9685</name>
<sym>Dot</sym>
</trkpt>
<trkpt lat="39.767995" lon="-8.462975">
<ele>176.5</ele>
<desc>Speed 25.6 km/h Distance 46.64 km</desc>
<time>2011-05-22T10:42:12.98</time>
<name>9686</name>
<sym>Dot</sym>
</trkpt>
<trkpt lat="39.767932" lon="-8.462967">
<ele>176.0</ele>
<desc>Speed 26.0 km/h Distance 46.65 km</desc>
<time>2011-05-22T10:42:13.98</time>
<name>9687</name>
<sym>Dot</sym>
</trkpt>
<trkpt lat="39.767868" lon="-8.462955">
<ele>176.0</ele>
<desc>Speed 26.1 km/h Distance 46.66 km</desc>
<time>2011-05-22T10:42:14.97</time>
<name>9688</name>
<sym>Dot</sym>
</trkpt>
<trkpt lat="39.767805" lon="-8.462942">
<ele>175.5</ele>
<desc>Speed 26.1 km/h Distance 46.66 km</desc>
<time>2011-05-22T10:42:15.97</time>
<name>9689</name>
<sym>Dot</sym>
</trkpt>
<trkpt lat="39.767742" lon="-8.462928">
<ele>175.5</ele>
<desc>Speed 26.7 km/h Distance 46.67 km</desc>
<time>2011-05-22T10:42:16.96</time>
<name>9690</name>
<sym>Dot</sym>
</trkpt>
<trkpt lat="39.767677" lon="-8.462915">
<ele>175.0</ele>
<desc>Speed 26.9 km/h Distance 46.68 km</desc>
<time>2011-05-22T10:42:17.96</time>
<name>9691</name>
<sym>Dot</sym>
</trkpt>
<trkpt lat="39.767612" lon="-8.462900">
<ele>175.0</ele>
<desc>Speed 27.0 km/h Distance 46.68 km</desc>
<time>2011-05-22T10:42:18.96</time>
<name>9692</name>
<sym>Dot</sym>
</trkpt>
<trkpt lat="39.767545" lon="-8.462883">
<ele>175.0</ele>
<desc>Speed 27.5 km/h Distance 46.69 km</desc>
<time>2011-05-22T10:42:19.96</time>
<name>9693</name>
<sym>Dot</sym>
</trkpt>
<trkpt lat="39.767480" lon="-8.462867">
<ele>175.0</ele>
<desc>Speed 26.9 km/h Distance 46.70 km</desc>
<time>2011-05-22T10:42:20.95</time>
<name>9694</name>
<sym>Dot</sym>
</trkpt>
<trkpt lat="39.767417" lon="-8.462852">
<ele>174.5</ele>
<desc>Speed 26.9 km/h Distance 46.71 km</desc>
<time>2011-05-22T10:42:21.95</time>
<name>9695</name>
<sym>Dot</sym>
</trkpt>
<trkpt lat="39.767352" lon="-8.462837">
<ele>174.0</ele>
<desc>Speed 26.5 km/h Distance 46.71 km</desc>
<time>2011-05-22T10:42:22.95</time>
<name>9696</name>
<sym>Dot</sym>
</trkpt>
<trkpt lat="39.767288" lon="-8.462823">
<ele>174.0</ele>
<desc>Speed 26.4 km/h Distance 46.72 km</desc>
<time>2011-05-22T10:42:23.95</time>
<name>9697</name>
<sym>Dot</sym>
</trkpt>
<trkpt lat="39.767227" lon="-8.462810">
<ele>174.0</ele>
<desc>Speed 26.0 km/h Distance 46.73 km</desc>
<time>2011-05-22T10:42:24.94</time>
<name>9698</name>
<sym>Dot</sym>
</trkpt>
<trkpt lat="39.767165" lon="-8.462797">
<ele>174.0</ele>
<desc>Speed 25.5 km/h Distance 46.73 km</desc>
<time>2011-05-22T10:42:25.94</time>
<name>9699</name>
<sym>Dot</sym>
</trkpt>
<trkpt lat="39.767107" lon="-8.462780">
<ele>174.0</ele>
<desc>Speed 24.7 km/h Distance 46.74 km</desc>
<time>2011-05-22T10:42:26.93</time>
<name>9700</name>
<sym>Dot</sym>
</trkpt>
<trkpt lat="39.767048" lon="-8.462765">
<ele>174.5</ele>
<desc>Speed 24.1 km/h Distance 46.75 km</desc>
<time>2011-05-22T10:42:27.93</time>
<name>9701</name>
<sym>Dot</sym>
</trkpt>
<trkpt lat="39.766993" lon="-8.462748">
<ele>174.0</ele>
<desc>Speed 23.1 km/h Distance 46.75 km</desc>
<time>2011-05-22T10:42:28.92</time>
<name>9702</name>
<sym>Dot</sym>
</trkpt>
<trkpt lat="39.766938" lon="-8.462733">
<ele>174.5</ele>
<desc>Speed 23.2 km/h Distance 46.76 km</desc>
<time>2011-05-22T10:42:29.92</time>
<name>9703</name>
<sym>Dot</sym>
</trkpt>
<trkpt lat="39.766885" lon="-8.462718">
<ele>174.5</ele>
<desc>Speed 22.2 km/h Distance 46.77 km</desc>
<time>2011-05-22T10:42:30.91</time>
<name>9704</name>
<sym>Dot</sym>
</trkpt>
<trkpt lat="39.766832" lon="-8.462702">
<ele>174.0</ele>
<desc>Speed 22.4 km/h Distance 46.77 km</desc>
<time>2011-05-22T10:42:31.91</time>
<name>9705</name>
<sym>Dot</sym>
</trkpt>
<trkpt lat="39.766780" lon="-8.462682">
<ele>174.0</ele>
<desc>Speed 21.8 km/h Distance 46.78 km</desc>
<time>2011-05-22T10:42:32.92</time>
<name>9706</name>
<sym>Dot</sym>
</trkpt>
<trkpt lat="39.766728" lon="-8.462663">
<ele>174.5</ele>
<desc>Speed 21.6 km/h Distance 46.78 km</desc>
<time>2011-05-22T10:42:33.91</time>
<name>9707</name>
<sym>Dot</sym>
</trkpt>
<trkpt lat="39.766678" lon="-8.462645">
<ele>174.0</ele>
<desc>Speed 21.8 km/h Distance 46.79 km</desc>
<time>2011-05-22T10:42:34.90</time>
<name>9708</name>
<sym>Dot</sym>
</trkpt>
<trkpt lat="39.766630" lon="-8.462627">
<ele>174.5</ele>
<desc>Speed 20.6 km/h Distance 46.80 km</desc>
<time>2011-05-22T10:42:35.90</time>
<name>9709</name>
<sym>Dot</sym>
</trkpt>
<trkpt lat="39.766580" lon="-8.462607">
<ele>175.0</ele>
<desc>Speed 21.6 km/h Distance 46.80 km</desc>
<time>2011-05-22T10:42:36.89</time>
<name>9710</name>
<sym>Dot</sym>
</trkpt>
<trkpt lat="39.766528" lon="-8.462585">
<ele>175.0</ele>
<desc>Speed 22.5 km/h Distance 46.81 km</desc>
<time>2011-05-22T10:42:37.89</time>
<name>9711</name>
<sym>Dot</sym>
</trkpt>
<trkpt lat="39.766478" lon="-8.462565">
<ele>175.5</ele>
<desc>Speed 21.2 km/h Distance 46.81 km</desc>
<time>2011-05-22T10:42:38.88</time>
<name>9712</name>
<sym>Dot</sym>
</trkpt>
<trkpt lat="39.766430" lon="-8.462548">
<ele>175.5</ele>
<desc>Speed 21.2 km/h Distance 46.82 km</desc>
<time>2011-05-22T10:42:39.88</time>
<name>9713</name>
<sym>Dot</sym>
</trkpt>
<trkpt lat="39.766380" lon="-8.462533">
<ele>176.0</ele>
<desc>Speed 21.0 km/h Distance 46.82 km</desc>
<time>2011-05-22T10:42:40.88</time>
<name>9714</name>
<sym>Dot</sym>
</trkpt>
<trkpt lat="39.766332" lon="-8.462517">
<ele>176.5</ele>
<desc>Speed 20.7 km/h Distance 46.83 km</desc>
<time>2011-05-22T10:42:41.87</time>
<name>9715</name>
<sym>Dot</sym>
</trkpt>
<trkpt lat="39.766285" lon="-8.462497">
<ele>176.5</ele>
<desc>Speed 20.1 km/h Distance 46.84 km</desc>
<time>2011-05-22T10:42:42.87</time>
<name>9716</name>
<sym>Dot</sym>
</trkpt>
<trkpt lat="39.766238" lon="-8.462480">
<ele>177.0</ele>
<desc>Speed 19.7 km/h Distance 46.84 km</desc>
<time>2011-05-22T10:42:43.87</time>
<name>9717</name>
<sym>Dot</sym>
</trkpt>
<trkpt lat="39.766192" lon="-8.462468">
<ele>177.0</ele>
<desc>Speed 19.7 km/h Distance 46.85 km</desc>
<time>2011-05-22T10:42:44.86</time>
<name>9718</name>
<sym>Dot</sym>
</trkpt>
<trkpt lat="39.766147" lon="-8.462455">
<ele>177.5</ele>
<desc>Speed 19.1 km/h Distance 46.85 km</desc>
<time>2011-05-22T10:42:45.86</time>
<name>9719</name>
<sym>Dot</sym>
</trkpt>
<trkpt lat="39.766100" lon="-8.462440">
<ele>177.5</ele>
<desc>Speed 19.3 km/h Distance 46.86 km</desc>
<time>2011-05-22T10:42:46.86</time>
<name>9720</name>
<sym>Dot</sym>
</trkpt>
<trkpt lat="39.766057" lon="-8.462425">
<ele>177.5</ele>
<desc>Speed 18.8 km/h Distance 46.86 km</desc>
<time>2011-05-22T10:42:47.86</time>
<name>9721</name>
<sym>Dot</sym>
</trkpt>
<trkpt lat="39.766013" lon="-8.462408">
<ele>177.5</ele>
<desc>Speed 18.3 km/h Distance 46.87 km</desc>
<time>2011-05-22T10:42:48.85</time>
<name>9722</name>
<sym>Dot</sym>
</trkpt>
<trkpt lat="39.765968" lon="-8.462395">
<ele>177.5</ele>
<desc>Speed 18.5 km/h Distance 46.87 km</desc>
<time>2011-05-22T10:42:49.85</time>
<name>9723</name>
<sym>Dot</sym>
</trkpt>
<trkpt lat="39.765927" lon="-8.462382">
<ele>177.5</ele>
<desc>Speed 17.9 km/h Distance 46.88 km</desc>
<time>2011-05-22T10:42:50.84</time>
<name>9724</name>
<sym>Dot</sym>
</trkpt>
<trkpt lat="39.765885" lon="-8.462367">
<ele>177.5</ele>
<desc>Speed 17.1 km/h Distance 46.88 km</desc>
<time>2011-05-22T10:42:51.84</time>
<name>9725</name>
<sym>Dot</sym>
</trkpt>
<trkpt lat="39.765845" lon="-8.462352">
<ele>178.0</ele>
<desc>Speed 17.1 km/h Distance 46.89 km</desc>
<time>2011-05-22T10:42:52.84</time>
<name>9726</name>
<sym>Dot</sym>
</trkpt>
<trkpt lat="39.765807" lon="-8.462335">
<ele>178.0</ele>
<desc>Speed 16.7 km/h Distance 46.89 km</desc>
<time>2011-05-22T10:42:53.84</time>
<name>9727</name>
<sym>Dot</sym>
</trkpt>
<trkpt lat="39.765768" lon="-8.462320">
<ele>177.5</ele>
<desc>Speed 16.5 km/h Distance 46.90 km</desc>
<time>2011-05-22T10:42:54.83</time>
<name>9728</name>
<sym>Dot</sym>
</trkpt>
<trkpt lat="39.765730" lon="-8.462305">
<ele>178.0</ele>
<desc>Speed 16.7 km/h Distance 46.90 km</desc>
<time>2011-05-22T10:42:55.84</time>
<name>9729</name>
<sym>Dot</sym>
</trkpt>
<trkpt lat="39.765692" lon="-8.462290">
<ele>178.5</ele>
<desc>Speed 16.8 km/h Distance 46.90 km</desc>
<time>2011-05-22T10:42:56.82</time>
<name>9730</name>
<sym>Dot</sym>
</trkpt>
<trkpt lat="39.765653" lon="-8.462273">
<ele>179.0</ele>
<desc>Speed 16.8 km/h Distance 46.91 km</desc>
<time>2011-05-22T10:42:57.81</time>
<name>9731</name>
<sym>Dot</sym>
</trkpt>
<trkpt lat="39.765615" lon="-8.462255">
<ele>179.5</ele>
<desc>Speed 17.2 km/h Distance 46.91 km</desc>
<time>2011-05-22T10:42:58.81</time>
<name>9732</name>
<sym>Dot</sym>
</trkpt>
<trkpt lat="39.765577" lon="-8.462230">
<ele>180.0</ele>
<desc>Speed 17.8 km/h Distance 46.92 km</desc>
<time>2011-05-22T10:42:59.81</time>
<name>9733</name>
<sym>Dot</sym>
</trkpt>
<trkpt lat="39.765538" lon="-8.462203">
<ele>181.0</ele>
<desc>Speed 18.2 km/h Distance 46.92 km</desc>
<time>2011-05-22T10:43:00.81</time>
<name>9734</name>
<sym>Dot</sym>
</trkpt>
<trkpt lat="39.765502" lon="-8.462173">
<ele>181.5</ele>
<desc>Speed 18.3 km/h Distance 46.93 km</desc>
<time>2011-05-22T10:43:01.80</time>
<name>9735</name>
<sym>Dot</sym>
</trkpt>
<trkpt lat="39.765465" lon="-8.462138">
<ele>182.5</ele>
<desc>Speed 18.5 km/h Distance 46.93 km</desc>
<time>2011-05-22T10:43:02.80</time>
<name>9736</name>
<sym>Dot</sym>
</trkpt>
<trkpt lat="39.765428" lon="-8.462103">
<ele>183.5</ele>
<desc>Speed 19.1 km/h Distance 46.94 km</desc>
<time>2011-05-22T10:43:03.80</time>
<name>9737</name>
<sym>Dot</sym>
</trkpt>
<trkpt lat="39.765392" lon="-8.462063">
<ele>184.5</ele>
<desc>Speed 19.7 km/h Distance 46.94 km</desc>
<time>2011-05-22T10:43:04.80</time>
<name>9738</name>
<sym>Dot</sym>
</trkpt>
<trkpt lat="39.765355" lon="-8.462023">
<ele>186.0</ele>
<desc>Speed 19.4 km/h Distance 46.95 km</desc>
<time>2011-05-22T10:43:05.81</time>
<name>9739</name>
<sym>Dot</sym>
</trkpt>
<trkpt lat="39.765318" lon="-8.461985">
<ele>188.0</ele>
<desc>Speed 19.6 km/h Distance 46.95 km</desc>
<time>2011-05-22T10:43:06.80</time>
<name>9740</name>
<sym>Dot</sym>
</trkpt>
<trkpt lat="39.765283" lon="-8.461940">
<ele>189.0</ele>
<desc>Speed 20.0 km/h Distance 46.96 km</desc>
<time>2011-05-22T10:43:07.79</time>
<name>9741</name>
<sym>Dot</sym>
</trkpt>
<trkpt lat="39.765250" lon="-8.461893">
<ele>189.0</ele>
<desc>Speed 20.0 km/h Distance 46.96 km</desc>
<time>2011-05-22T10:43:08.79</time>
<name>9742</name>
<sym>Dot</sym>
</trkpt>
<trkpt lat="39.765217" lon="-8.461848">
<ele>188.5</ele>
<desc>Speed 19.9 km/h Distance 46.97 km</desc>
<time>2011-05-22T10:43:09.79</time>
<name>9743</name>
<sym>Dot</sym>
</trkpt>
<trkpt lat="39.765183" lon="-8.461803">
<ele>188.5</ele>
<desc>Speed 19.6 km/h Distance 46.98 km</desc>
<time>2011-05-22T10:43:10.78</time>
<name>9744</name>
<sym>Dot</sym>
</trkpt>
<trkpt lat="39.765150" lon="-8.461760">
<ele>188.5</ele>
<desc>Speed 19.4 km/h Distance 46.98 km</desc>
<time>2011-05-22T10:43:11.79</time>
<name>9745</name>
<sym>Dot</sym>
</trkpt>
<trkpt lat="39.765118" lon="-8.461715">
<ele>188.5</ele>
<desc>Speed 19.0 km/h Distance 46.99 km</desc>
<time>2011-05-22T10:43:12.78</time>
<name>9746</name>
<sym>Dot</sym>
</trkpt>
<trkpt lat="39.765087" lon="-8.461672">
<ele>189.0</ele>
<desc>Speed 18.5 km/h Distance 46.99 km</desc>
<time>2011-05-22T10:43:13.78</time>
<name>9747</name>
<sym>Dot</sym>
</trkpt>
<trkpt lat="39.765052" lon="-8.461632">
<ele>189.0</ele>
<desc>Speed 19.3 km/h Distance 47.00 km</desc>
<time>2011-05-22T10:43:14.77</time>
<name>9748</name>
<sym>Dot</sym>
</trkpt>
<trkpt lat="39.765013" lon="-8.461595">
<ele>189.5</ele>
<desc>Speed 19.2 km/h Distance 47.00 km</desc>
<time>2011-05-22T10:43:15.76</time>
<name>9749</name>
<sym>Dot</sym>
</trkpt>
<trkpt lat="39.764973" lon="-8.461557">
<ele>189.5</ele>
<desc>Speed 20.6 km/h Distance 47.01 km</desc>
<time>2011-05-22T10:43:16.76</time>
<name>9750</name>
<sym>Dot</sym>
</trkpt>
<trkpt lat="39.764933" lon="-8.461520">
<ele>190.5</ele>
<desc>Speed 20.0 km/h Distance 47.01 km</desc>
<time>2011-05-22T10:43:17.75</time>
<name>9751</name>
<sym>Dot</sym>
</trkpt>
<trkpt lat="39.764893" lon="-8.461480">
<ele>191.5</ele>
<desc>Speed 20.5 km/h Distance 47.02 km</desc>
<time>2011-05-22T10:43:18.75</time>
<name>9752</name>
<sym>Dot</sym>
</trkpt>
<trkpt lat="39.764850" lon="-8.461440">
<ele>192.0</ele>
<desc>Speed 21.2 km/h Distance 47.02 km</desc>
<time>2011-05-22T10:43:19.74</time>
<name>9753</name>
<sym>Dot</sym>
</trkpt>
<trkpt lat="39.764812" lon="-8.461398">
<ele>193.0</ele>
<desc>Speed 21.0 km/h Distance 47.03 km</desc>
<time>2011-05-22T10:43:20.75</time>
<name>9754</name>
<sym>Dot</sym>
</trkpt>
<trkpt lat="39.764770" lon="-8.461353">
<ele>192.5</ele>
<desc>Speed 22.0 km/h Distance 47.04 km</desc>
<time>2011-05-22T10:43:21.74</time>
<name>9755</name>
<sym>Dot</sym>
</trkpt>
<trkpt lat="39.764727" lon="-8.461308">
<ele>191.5</ele>
<desc>Speed 22.6 km/h Distance 47.04 km</desc>
<time>2011-05-22T10:43:22.73</time>
<name>9756</name>
<sym>Dot</sym>
</trkpt>
<trkpt lat="39.764687" lon="-8.461262">
<ele>192.5</ele>
<desc>Speed 21.9 km/h Distance 47.05 km</desc>
<time>2011-05-22T10:43:23.72</time>
<name>9757</name>
<sym>Dot</sym>
</trkpt>
<trkpt lat="39.764648" lon="-8.461213">
<ele>193.5</ele>
<desc>Speed 21.7 km/h Distance 47.05 km</desc>
<time>2011-05-22T10:43:24.71</time>
<name>9758</name>
<sym>Dot</sym>
</trkpt>
<trkpt lat="39.764605" lon="-8.461168">
<ele>193.5</ele>
<desc>Speed 22.4 km/h Distance 47.06 km</desc>
<time>2011-05-22T10:43:25.71</time>
<name>9759</name>
<sym>Dot</sym>
</trkpt>
<trkpt lat="39.764562" lon="-8.461123">
<ele>193.0</ele>
<desc>Speed 22.6 km/h Distance 47.07 km</desc>
<time>2011-05-22T10:43:26.71</time>
<name>9760</name>
<sym>Dot</sym>
</trkpt>
<trkpt lat="39.764520" lon="-8.461078">
<ele>192.5</ele>
<desc>Speed 22.4 km/h Distance 47.07 km</desc>
<time>2011-05-22T10:43:27.70</time>
<name>9761</name>
<sym>Dot</sym>
</trkpt>
<trkpt lat="39.764477" lon="-8.461032">
<ele>192.5</ele>
<desc>Speed 22.6 km/h Distance 47.08 km</desc>
<time>2011-05-22T10:43:28.69</time>
<name>9762</name>
<sym>Dot</sym>
</trkpt>
<trkpt lat="39.764433" lon="-8.460983">
<ele>191.5</ele>
<desc>Speed 23.0 km/h Distance 47.08 km</desc>
<time>2011-05-22T10:43:29.69</time>
<name>9763</name>
<sym>Dot</sym>
</trkpt>
<trkpt lat="39.764393" lon="-8.460933">
<ele>192.5</ele>
<desc>Speed 22.5 km/h Distance 47.09 km</desc>
<time>2011-05-22T10:43:30.69</time>
<name>9764</name>
<sym>Dot</sym>
</trkpt>
<trkpt lat="39.764353" lon="-8.460888">
<ele>192.0</ele>
<desc>Speed 21.4 km/h Distance 47.10 km</desc>
<time>2011-05-22T10:43:31.69</time>
<name>9765</name>
<sym>Dot</sym>
</trkpt>
<trkpt lat="39.764307" lon="-8.460843">
<ele>191.0</ele>
<desc>Speed 22.8 km/h Distance 47.10 km</desc>
<time>2011-05-22T10:43:32.68</time>
<name>9766</name>
<sym>Dot</sym>
</trkpt>
<trkpt lat="39.764263" lon="-8.460797">
<ele>190.5</ele>
<desc>Speed 22.9 km/h Distance 47.11 km</desc>
<time>2011-05-22T10:43:33.68</time>
<name>9767</name>
<sym>Dot</sym>
</trkpt>
<trkpt lat="39.764217" lon="-8.460757">
<ele>191.0</ele>
<desc>Speed 22.4 km/h Distance 47.12 km</desc>
<time>2011-05-22T10:43:34.67</time>
<name>9768</name>
<sym>Dot</sym>
</trkpt>
<trkpt lat="39.764172" lon="-8.460712">
<ele>190.5</ele>
<desc>Speed 22.7 km/h Distance 47.12 km</desc>
<time>2011-05-22T10:43:35.67</time>
<name>9769</name>
<sym>Dot</sym>
</trkpt>
<trkpt lat="39.764130" lon="-8.460665">
<ele>190.0</ele>
<desc>Speed 22.1 km/h Distance 47.13 km</desc>
<time>2011-05-22T10:43:36.66</time>
<name>9770</name>
<sym>Dot</sym>
</trkpt>
<trkpt lat="39.764087" lon="-8.460622">
<ele>189.5</ele>
<desc>Speed 21.9 km/h Distance 47.13 km</desc>
<time>2011-05-22T10:43:37.65</time>
<name>9771</name>
<sym>Dot</sym>
</trkpt>
<trkpt lat="39.764042" lon="-8.460580">
<ele>190.0</ele>
<desc>Speed 22.1 km/h Distance 47.14 km</desc>
<time>2011-05-22T10:43:38.65</time>
<name>9772</name>
<sym>Dot</sym>
</trkpt>
<trkpt lat="39.764000" lon="-8.460535">
<ele>189.5</ele>
<desc>Speed 21.8 km/h Distance 47.15 km</desc>
<time>2011-05-22T10:43:39.64</time>
<name>9773</name>
<sym>Dot</sym>
</trkpt>
<trkpt lat="39.763958" lon="-8.460492">
<ele>189.0</ele>
<desc>Speed 21.4 km/h Distance 47.15 km</desc>
<time>2011-05-22T10:43:40.64</time>
<name>9774</name>
<sym>Dot</sym>
</trkpt>
<trkpt lat="39.763918" lon="-8.460447">
<ele>188.5</ele>
<desc>Speed 21.0 km/h Distance 47.16 km</desc>
<time>2011-05-22T10:43:41.64</time>
<name>9775</name>
<sym>Dot</sym>
</trkpt>
<trkpt lat="39.763878" lon="-8.460407">
<ele>188.0</ele>
<desc>Speed 20.6 km/h Distance 47.16 km</desc>
<time>2011-05-22T10:43:42.64</time>
<name>9776</name>
<sym>Dot</sym>
</trkpt>
<trkpt lat="39.763840" lon="-8.460367">
<ele>188.0</ele>
<desc>Speed 19.9 km/h Distance 47.17 km</desc>
<time>2011-05-22T10:43:43.63</time>
<name>9777</name>
<sym>Dot</sym>
</trkpt>
<trkpt lat="39.763803" lon="-8.460325">
<ele>187.5</ele>
<desc>Speed 19.4 km/h Distance 47.17 km</desc>
<time>2011-05-22T10:43:44.63</time>
<name>9778</name>
<sym>Dot</sym>
</trkpt>
<trkpt lat="39.763767" lon="-8.460285">
<ele>187.0</ele>
<desc>Speed 19.1 km/h Distance 47.18 km</desc>
<time>2011-05-22T10:43:45.63</time>
<name>9779</name>
<sym>Dot</sym>
</trkpt>
<trkpt lat="39.763728" lon="-8.460250">
<ele>186.5</ele>
<desc>Speed 19.1 km/h Distance 47.19 km</desc>
<time>2011-05-22T10:43:46.63</time>
<name>9780</name>
<sym>Dot</sym>
</trkpt>
<trkpt lat="39.763690" lon="-8.460213">
<ele>186.5</ele>
<desc>Speed 19.1 km/h Distance 47.19 km</desc>
<time>2011-05-22T10:43:47.63</time>
<name>9781</name>
<sym>Dot</sym>
</trkpt>
<trkpt lat="39.763650" lon="-8.460178">
<ele>186.5</ele>
<desc>Speed 19.4 km/h Distance 47.20 km</desc>
<time>2011-05-22T10:43:48.62</time>
<name>9782</name>
<sym>Dot</sym>
</trkpt>
<trkpt lat="39.763607" lon="-8.460150">
<ele>187.5</ele>
<desc>Speed 19.7 km/h Distance 47.20 km</desc>
<time>2011-05-22T10:43:49.62</time>
<name>9783</name>
<sym>Dot</sym>
</trkpt>
<trkpt lat="39.763563" lon="-8.460120">
<ele>187.5</ele>
<desc>Speed 19.6 km/h Distance 47.21 km</desc>
<time>2011-05-22T10:43:50.61</time>
<name>9784</name>
<sym>Dot</sym>
</trkpt>
<trkpt lat="39.763520" lon="-8.460092">
<ele>188.0</ele>
<desc>Speed 19.4 km/h Distance 47.21 km</desc>
<time>2011-05-22T10:43:51.60</time>
<name>9785</name>
<sym>Dot</sym>
</trkpt>
<trkpt lat="39.763473" lon="-8.460068">
<ele>188.0</ele>
<desc>Speed 20.3 km/h Distance 47.22 km</desc>
<time>2011-05-22T10:43:52.60</time>
<name>9786</name>
<sym>Dot</sym>
</trkpt>
<trkpt lat="39.763425" lon="-8.460045">
<ele>187.5</ele>
<desc>Speed 21.0 km/h Distance 47.22 km</desc>
<time>2011-05-22T10:43:53.60</time>
<name>9787</name>
<sym>Dot</sym>
</trkpt>
<trkpt lat="39.763375" lon="-8.460023">
<ele>187.0</ele>
<desc>Speed 21.5 km/h Distance 47.23 km</desc>
<time>2011-05-22T10:43:54.60</time>
<name>9788</name>
<sym>Dot</sym>
</trkpt>
<trkpt lat="39.763325" lon="-8.460005">
<ele>187.0</ele>
<desc>Speed 21.5 km/h Distance 47.24 km</desc>
<time>2011-05-22T10:43:55.59</time>
<name>9789</name>
<sym>Dot</sym>
</trkpt>
<trkpt lat="39.763275" lon="-8.459988">
<ele>186.5</ele>
<desc>Speed 21.4 km/h Distance 47.24 km</desc>
<time>2011-05-22T10:43:56.58</time>
<name>9790</name>
<sym>Dot</sym>
</trkpt>
<trkpt lat="39.763223" lon="-8.459972">
<ele>186.5</ele>
<desc>Speed 21.5 km/h Distance 47.25 km</desc>
<time>2011-05-22T10:43:57.58</time>
<name>9791</name>
<sym>Dot</sym>
</trkpt>
<trkpt lat="39.763170" lon="-8.459955">
<ele>186.5</ele>
<desc>Speed 22.1 km/h Distance 47.25 km</desc>
<time>2011-05-22T10:43:58.57</time>
<name>9792</name>
<sym>Dot</sym>
</trkpt>
<trkpt lat="39.763117" lon="-8.459940">
<ele>186.5</ele>
<desc>Speed 22.2 km/h Distance 47.26 km</desc>
<time>2011-05-22T10:43:59.56</time>
<name>9793</name>
<sym>Dot</sym>
</trkpt>
<trkpt lat="39.763063" lon="-8.459925">
<ele>186.5</ele>
<desc>Speed 22.5 km/h Distance 47.27 km</desc>
<time>2011-05-22T10:44:00.55</time>
<name>9794</name>
<sym>Dot</sym>
</trkpt>
<trkpt lat="39.763010" lon="-8.459907">
<ele>186.0</ele>
<desc>Speed 22.4 km/h Distance 47.27 km</desc>
<time>2011-05-22T10:44:01.55</time>
<name>9795</name>
<sym>Dot</sym>
</trkpt>
<trkpt lat="39.762955" lon="-8.459888">
<ele>186.0</ele>
<desc>Speed 22.6 km/h Distance 47.28 km</desc>
<time>2011-05-22T10:44:02.54</time>
<name>9796</name>
<sym>Dot</sym>
</trkpt>
<trkpt lat="39.762902" lon="-8.459870">
<ele>185.5</ele>
<desc>Speed 22.4 km/h Distance 47.28 km</desc>
<time>2011-05-22T10:44:03.53</time>
<name>9797</name>
<sym>Dot</sym>
</trkpt>
<trkpt lat="39.762850" lon="-8.459853">
<ele>185.5</ele>
<desc>Speed 22.1 km/h Distance 47.29 km</desc>
<time>2011-05-22T10:44:04.53</time>
<name>9798</name>
<sym>Dot</sym>
</trkpt>
<trkpt lat="39.762797" lon="-8.459838">
<ele>185.5</ele>
<desc>Speed 22.1 km/h Distance 47.30 km</desc>
<time>2011-05-22T10:44:05.53</time>
<name>9799</name>
<sym>Dot</sym>
</trkpt>
<trkpt lat="39.762743" lon="-8.459822">
<ele>185.0</ele>
<desc>Speed 21.9 km/h Distance 47.30 km</desc>
<time>2011-05-22T10:44:06.53</time>
<name>9800</name>
<sym>Dot</sym>
</trkpt>
<trkpt lat="39.762692" lon="-8.459803">
<ele>185.0</ele>
<desc>Speed 21.5 km/h Distance 47.31 km</desc>
<time>2011-05-22T10:44:07.53</time>
<name>9801</name>
<sym>Dot</sym>
</trkpt>
<trkpt lat="39.762643" lon="-8.459788">
<ele>185.0</ele>
<desc>Speed 20.8 km/h Distance 47.31 km</desc>
<time>2011-05-22T10:44:08.53</time>
<name>9802</name>
<sym>Dot</sym>
</trkpt>
<trkpt lat="39.762595" lon="-8.459773">
<ele>185.0</ele>
<desc>Speed 19.8 km/h Distance 47.32 km</desc>
<time>2011-05-22T10:44:09.52</time>
<name>9803</name>
<sym>Dot</sym>
</trkpt>
<trkpt lat="39.762548" lon="-8.459760">
<ele>184.5</ele>
<desc>Speed 18.9 km/h Distance 47.32 km</desc>
<time>2011-05-22T10:44:10.52</time>
<name>9804</name>
<sym>Dot</sym>
</trkpt>
<trkpt lat="39.762503" lon="-8.459748">
<ele>184.0</ele>
<desc>Speed 18.8 km/h Distance 47.33 km</desc>
<time>2011-05-22T10:44:11.52</time>
<name>9805</name>
<sym>Dot</sym>
</trkpt>
<trkpt lat="39.762458" lon="-8.459733">
<ele>183.5</ele>
<desc>Speed 18.9 km/h Distance 47.33 km</desc>
<time>2011-05-22T10:44:12.52</time>
<name>9806</name>
<sym>Dot</sym>
</trkpt>
<trkpt lat="39.762413" lon="-8.459718">
<ele>183.5</ele>
<desc>Speed 18.8 km/h Distance 47.34 km</desc>
<time>2011-05-22T10:44:13.51</time>
<name>9807</name>
<sym>Dot</sym>
</trkpt>
<trkpt lat="39.762370" lon="-8.459705">
<ele>183.0</ele>
<desc>Speed 17.9 km/h Distance 47.34 km</desc>
<time>2011-05-22T10:44:14.50</time>
<name>9808</name>
<sym>Dot</sym>
</trkpt>
<trkpt lat="39.762322" lon="-8.459695">
<ele>183.0</ele>
<desc>Speed 19.5 km/h Distance 47.35 km</desc>
<time>2011-05-22T10:44:15.50</time>
<name>9809</name>
<sym>Dot</sym>
</trkpt>
<trkpt lat="39.762278" lon="-8.459682">
<ele>182.5</ele>
<desc>Speed 18.5 km/h Distance 47.36 km</desc>
<time>2011-05-22T10:44:16.50</time>
<name>9810</name>
<sym>Dot</sym>
</trkpt>
<trkpt lat="39.762232" lon="-8.459665">
<ele>182.0</ele>
<desc>Speed 19.2 km/h Distance 47.36 km</desc>
<time>2011-05-22T10:44:17.51</time>
<name>9811</name>
<sym>Dot</sym>
</trkpt>
<trkpt lat="39.762185" lon="-8.459645">
<ele>181.5</ele>
<desc>Speed 19.5 km/h Distance 47.37 km</desc>
<time>2011-05-22T10:44:18.50</time>
<name>9812</name>
<sym>Dot</sym>
</trkpt>
<trkpt lat="39.762135" lon="-8.459622">
<ele>181.5</ele>
<desc>Speed 22.0 km/h Distance 47.37 km</desc>
<time>2011-05-22T10:44:19.50</time>
<name>9813</name>
<sym>Dot</sym>
</trkpt>
<trkpt lat="39.762088" lon="-8.459600">
<ele>183.0</ele>
<desc>Speed 19.7 km/h Distance 47.38 km</desc>
<time>2011-05-22T10:44:20.50</time>
<name>9814</name>
<sym>Dot</sym>
</trkpt>
<trkpt lat="39.762037" lon="-8.459583">
<ele>184.0</ele>
<desc>Speed 21.5 km/h Distance 47.38 km</desc>
<time>2011-05-22T10:44:21.50</time>
<name>9815</name>
<sym>Dot</sym>
</trkpt>
<trkpt lat="39.761985" lon="-8.459567">
<ele>185.0</ele>
<desc>Speed 21.7 km/h Distance 47.39 km</desc>
<time>2011-05-22T10:44:22.49</time>
<name>9816</name>
<sym>Dot</sym>
</trkpt>
<trkpt lat="39.761925" lon="-8.459548">
<ele>185.0</ele>
<desc>Speed 24.5 km/h Distance 47.40 km</desc>
<time>2011-05-22T10:44:23.48</time>
<name>9817</name>
<sym>Dot</sym>
</trkpt>
<trkpt lat="39.761870" lon="-8.459530">
<ele>185.0</ele>
<desc>Speed 22.9 km/h Distance 47.40 km</desc>
<time>2011-05-22T10:44:24.48</time>
<name>9818</name>
<sym>Dot</sym>
</trkpt>
<trkpt lat="39.761813" lon="-8.459513">
<ele>185.5</ele>
<desc>Speed 22.7 km/h Distance 47.41 km</desc>
<time>2011-05-22T10:44:25.48</time>
<name>9819</name>
<sym>Dot</sym>
</trkpt>
<trkpt lat="39.761755" lon="-8.459493">
<ele>185.5</ele>
<desc>Speed 24.4 km/h Distance 47.42 km</desc>
<time>2011-05-22T10:44:26.48</time>
<name>9820</name>
<sym>Dot</sym>
</trkpt>
<trkpt lat="39.761698" lon="-8.459475">
<ele>186.0</ele>
<desc>Speed 23.0 km/h Distance 47.42 km</desc>
<time>2011-05-22T10:44:27.47</time>
<name>9821</name>
<sym>Dot</sym>
</trkpt>
<trkpt lat="39.761645" lon="-8.459457">
<ele>186.5</ele>
<desc>Speed 22.1 km/h Distance 47.43 km</desc>
<time>2011-05-22T10:44:28.46</time>
<name>9822</name>
<sym>Dot</sym>
</trkpt>
<trkpt lat="39.761592" lon="-8.459435">
<ele>186.0</ele>
<desc>Speed 22.8 km/h Distance 47.43 km</desc>
<time>2011-05-22T10:44:29.47</time>
<name>9823</name>
<sym>Dot</sym>
</trkpt>
<trkpt lat="39.761538" lon="-8.459410">
<ele>186.0</ele>
<desc>Speed 22.4 km/h Distance 47.44 km</desc>
<time>2011-05-22T10:44:30.46</time>
<name>9824</name>
<sym>Dot</sym>
</trkpt>
<trkpt lat="39.761487" lon="-8.459380">
<ele>186.0</ele>
<desc>Speed 22.8 km/h Distance 47.45 km</desc>
<time>2011-05-22T10:44:31.45</time>
<name>9825</name>
<sym>Dot</sym>
</trkpt>
<trkpt lat="39.761435" lon="-8.459348">
<ele>186.0</ele>
<desc>Speed 23.2 km/h Distance 47.45 km</desc>
<time>2011-05-22T10:44:32.45</time>
<name>9826</name>
<sym>Dot</sym>
</trkpt>
<trkpt lat="39.761383" lon="-8.459313">
<ele>186.5</ele>
<desc>Speed 23.5 km/h Distance 47.46 km</desc>
<time>2011-05-22T10:44:33.45</time>
<name>9827</name>
<sym>Dot</sym>
</trkpt>
<trkpt lat="39.761330" lon="-8.459278">
<ele>186.0</ele>
<desc>Speed 23.9 km/h Distance 47.47 km</desc>
<time>2011-05-22T10:44:34.44</time>
<name>9828</name>
<sym>Dot</sym>
</trkpt>
<trkpt lat="39.761278" lon="-8.459240">
<ele>185.5</ele>
<desc>Speed 24.3 km/h Distance 47.47 km</desc>
<time>2011-05-22T10:44:35.44</time>
<name>9829</name>
<sym>Dot</sym>
</trkpt>
<trkpt lat="39.761223" lon="-8.459205">
<ele>185.0</ele>
<desc>Speed 24.6 km/h Distance 47.48 km</desc>
<time>2011-05-22T10:44:36.43</time>
<name>9830</name>
<sym>Dot</sym>
</trkpt>
<trkpt lat="39.761167" lon="-8.459180">
<ele>186.5</ele>
<desc>Speed 23.8 km/h Distance 47.49 km</desc>
<time>2011-05-22T10:44:37.43</time>
<name>9831</name>
<sym>Dot</sym>
</trkpt>
<trkpt lat="39.761108" lon="-8.459158">
<ele>187.0</ele>
<desc>Speed 24.6 km/h Distance 47.49 km</desc>
<time>2011-05-22T10:44:38.43</time>
<name>9832</name>
<sym>Dot</sym>
</trkpt>
<trkpt lat="39.761050" lon="-8.459145">
<ele>187.0</ele>
<desc>Speed 24.5 km/h Distance 47.50 km</desc>
<time>2011-05-22T10:44:39.43</time>
<name>9833</name>
<sym>Dot</sym>
</trkpt>
<trkpt lat="39.760990" lon="-8.459137">
<ele>187.0</ele>
<desc>Speed 24.2 km/h Distance 47.51 km</desc>
<time>2011-05-22T10:44:40.42</time>
<name>9834</name>
<sym>Dot</sym>
</trkpt>
<trkpt lat="39.760930" lon="-8.459132">
<ele>186.5</ele>
<desc>Speed 23.9 km/h Distance 47.51 km</desc>
<time>2011-05-22T10:44:41.41</time>
<name>9835</name>
<sym>Dot</sym>
</trkpt>
<trkpt lat="39.760873" lon="-8.459127">
<ele>187.0</ele>
<desc>Speed 23.4 km/h Distance 47.52 km</desc>
<time>2011-05-22T10:44:42.41</time>
<name>9836</name>
<sym>Dot</sym>
</trkpt>
<trkpt lat="39.760817" lon="-8.459123">
<ele>187.0</ele>
<desc>Speed 22.7 km/h Distance 47.53 km</desc>
<time>2011-05-22T10:44:43.41</time>
<name>9837</name>
<sym>Dot</sym>
</trkpt>
<trkpt lat="39.760762" lon="-8.459117">
<ele>187.5</ele>
<desc>Speed 22.5 km/h Distance 47.53 km</desc>
<time>2011-05-22T10:44:44.41</time>
<name>9838</name>
<sym>Dot</sym>
</trkpt>
<trkpt lat="39.760707" lon="-8.459112">
<ele>187.5</ele>
<desc>Speed 22.4 km/h Distance 47.54 km</desc>
<time>2011-05-22T10:44:45.50</time>
<name>9839</name>
<sym>Dot</sym>
</trkpt>
<trkpt lat="39.760653" lon="-8.459108">
<ele>187.5</ele>
<desc>Speed 21.4 km/h Distance 47.54 km</desc>
<time>2011-05-22T10:44:46.41</time>
<name>9840</name>
<sym>Dot</sym>
</trkpt>
<trkpt lat="39.760603" lon="-8.459102">
<ele>188.0</ele>
<desc>Speed 20.8 km/h Distance 47.55 km</desc>
<time>2011-05-22T10:44:47.41</time>
<name>9841</name>
<sym>Dot</sym>
</trkpt>
<trkpt lat="39.760558" lon="-8.459093">
<ele>188.5</ele>
<desc>Speed 18.6 km/h Distance 47.55 km</desc>
<time>2011-05-22T10:44:48.41</time>
<name>9842</name>
<sym>Dot</sym>
</trkpt>
<trkpt lat="39.760522" lon="-8.459085">
<ele>190.0</ele>
<desc>Speed 15.4 km/h Distance 47.56 km</desc>
<time>2011-05-22T10:44:49.41</time>
<name>9843</name>
<sym>Dot</sym>
</trkpt>
<trkpt lat="39.760477" lon="-8.459080">
<ele>190.0</ele>
<desc>Speed 18.3 km/h Distance 47.56 km</desc>
<time>2011-05-22T10:44:50.41</time>
<name>9844</name>
<sym>Dot</sym>
</trkpt>
<trkpt lat="39.760430" lon="-8.459077">
<ele>190.5</ele>
<desc>Speed 19.9 km/h Distance 47.57 km</desc>
<time>2011-05-22T10:44:51.41</time>
<name>9845</name>
<sym>Dot</sym>
</trkpt>
<trkpt lat="39.760378" lon="-8.459067">
<ele>189.0</ele>
<desc>Speed 21.1 km/h Distance 47.58 km</desc>
<time>2011-05-22T10:44:52.41</time>
<name>9846</name>
<sym>Dot</sym>
</trkpt>
<trkpt lat="39.760333" lon="-8.459058">
<ele>187.5</ele>
<desc>Speed 18.7 km/h Distance 47.58 km</desc>
<time>2011-05-22T10:44:53.41</time>
<name>9847</name>
<sym>Dot</sym>
</trkpt>
<trkpt lat="39.760287" lon="-8.459053">
<ele>188.0</ele>
<desc>Speed 18.9 km/h Distance 47.59 km</desc>
<time>2011-05-22T10:44:54.41</time>
<name>9848</name>
<sym>Dot</sym>
</trkpt>
<trkpt lat="39.760237" lon="-8.459052">
<ele>187.5</ele>
<desc>Speed 20.5 km/h Distance 47.59 km</desc>
<time>2011-05-22T10:44:55.41</time>
<name>9849</name>
<sym>Dot</sym>
</trkpt>
<trkpt lat="39.760192" lon="-8.459052">
<ele>187.5</ele>
<desc>Speed 19.2 km/h Distance 47.60 km</desc>
<time>2011-05-22T10:44:56.41</time>
<name>9850</name>
<sym>Dot</sym>
</trkpt>
<trkpt lat="39.760145" lon="-8.459045">
<ele>188.5</ele>
<desc>Speed 19.3 km/h Distance 47.60 km</desc>
<time>2011-05-22T10:44:57.41</time>
<name>9851</name>
<sym>Dot</sym>
</trkpt>
<trkpt lat="39.760097" lon="-8.459042">
<ele>188.5</ele>
<desc>Speed 19.2 km/h Distance 47.61 km</desc>
<time>2011-05-22T10:44:58.41</time>
<name>9852</name>
<sym>Dot</sym>
</trkpt>
<trkpt lat="39.760052" lon="-8.459042">
<ele>189.0</ele>
<desc>Speed 19.0 km/h Distance 47.61 km</desc>
<time>2011-05-22T10:44:59.41</time>
<name>9853</name>
<sym>Dot</sym>
</trkpt>
<trkpt lat="39.760012" lon="-8.459048">
<ele>189.5</ele>
<desc>Speed 16.7 km/h Distance 47.62 km</desc>
<time>2011-05-22T10:45:00.41</time>
<name>9854</name>
<sym>Dot</sym>
</trkpt>
<trkpt lat="39.759977" lon="-8.459055">
<ele>191.0</ele>
<desc>Speed 14.4 km/h Distance 47.62 km</desc>
<time>2011-05-22T10:45:01.41</time>
<name>9855</name>
<sym>Dot</sym>
</trkpt>
<trkpt lat="39.759932" lon="-8.459077">
<ele>190.0</ele>
<desc>Speed 20.1 km/h Distance 47.63 km</desc>
<time>2011-05-22T10:45:02.41</time>
<name>9856</name>
<sym>Dot</sym>
</trkpt>
<trkpt lat="39.759893" lon="-8.459112">
<ele>190.5</ele>
<desc>Speed 19.4 km/h Distance 47.63 km</desc>
<time>2011-05-22T10:45:03.41</time>
<name>9857</name>
<sym>Dot</sym>
</trkpt>
<trkpt lat="39.759857" lon="-8.459150">
<ele>190.5</ele>
<desc>Speed 19.7 km/h Distance 47.64 km</desc>
<time>2011-05-22T10:45:04.41</time>
<name>9858</name>
<sym>Dot</sym>
</trkpt>
<trkpt lat="39.759818" lon="-8.459188">
<ele>190.0</ele>
<desc>Speed 19.9 km/h Distance 47.64 km</desc>
<time>2011-05-22T10:45:05.41</time>
<name>9859</name>
<sym>Dot</sym>
</trkpt>
<trkpt lat="39.759785" lon="-8.459225">
<ele>190.0</ele>
<desc>Speed 18.1 km/h Distance 47.65 km</desc>
<time>2011-05-22T10:45:06.40</time>
<name>9860</name>
<sym>Dot</sym>
</trkpt>
<trkpt lat="39.759743" lon="-8.459267">
<ele>189.5</ele>
<desc>Speed 21.0 km/h Distance 47.65 km</desc>
<time>2011-05-22T10:45:07.40</time>
<name>9861</name>
<sym>Dot</sym>
</trkpt>
<trkpt lat="39.759700" lon="-8.459305">
<ele>188.5</ele>
<desc>Speed 21.6 km/h Distance 47.66 km</desc>
<time>2011-05-22T10:45:08.40</time>
<name>9862</name>
<sym>Dot</sym>
</trkpt>
<trkpt lat="39.759657" lon="-8.459342">
<ele>188.0</ele>
<desc>Speed 21.2 km/h Distance 47.66 km</desc>
<time>2011-05-22T10:45:09.40</time>
<name>9863</name>
<sym>Dot</sym>
</trkpt>
<trkpt lat="39.759615" lon="-8.459382">
<ele>187.5</ele>
<desc>Speed 21.5 km/h Distance 47.67 km</desc>
<time>2011-05-22T10:45:10.40</time>
<name>9864</name>
<sym>Dot</sym>
</trkpt>
<trkpt lat="39.759572" lon="-8.459422">
<ele>186.5</ele>
<desc>Speed 21.4 km/h Distance 47.68 km</desc>
<time>2011-05-22T10:45:11.40</time>
<name>9865</name>
<sym>Dot</sym>
</trkpt>
<trkpt lat="39.759530" lon="-8.459462">
<ele>186.0</ele>
<desc>Speed 20.9 km/h Distance 47.68 km</desc>
<time>2011-05-22T10:45:12.40</time>
<name>9866</name>
<sym>Dot</sym>
</trkpt>
<trkpt lat="39.759485" lon="-8.459502">
<ele>185.5</ele>
<desc>Speed 21.9 km/h Distance 47.69 km</desc>
<time>2011-05-22T10:45:13.40</time>
<name>9867</name>
<sym>Dot</sym>
</trkpt>
<trkpt lat="39.759443" lon="-8.459545">
<ele>185.5</ele>
<desc>Speed 21.8 km/h Distance 47.69 km</desc>
<time>2011-05-22T10:45:14.39</time>
<name>9868</name>
<sym>Dot</sym>
</trkpt>
<trkpt lat="39.759402" lon="-8.459588">
<ele>185.0</ele>
<desc>Speed 21.5 km/h Distance 47.70 km</desc>
<time>2011-05-22T10:45:15.39</time>
<name>9869</name>
<sym>Dot</sym>
</trkpt>
<trkpt lat="39.759360" lon="-8.459633">
<ele>185.0</ele>
<desc>Speed 21.7 km/h Distance 47.70 km</desc>
<time>2011-05-22T10:45:16.39</time>
<name>9870</name>
<sym>Dot</sym>
</trkpt>
<trkpt lat="39.759318" lon="-8.459680">
<ele>184.5</ele>
<desc>Speed 21.6 km/h Distance 47.71 km</desc>
<time>2011-05-22T10:45:17.39</time>
<name>9871</name>
<sym>Dot</sym>
</trkpt>
<trkpt lat="39.759275" lon="-8.459722">
<ele>184.0</ele>
<desc>Speed 21.3 km/h Distance 47.72 km</desc>
<time>2011-05-22T10:45:18.39</time>
<name>9872</name>
<sym>Dot</sym>
</trkpt>
<trkpt lat="39.759235" lon="-8.459765">
<ele>184.0</ele>
<desc>Speed 21.1 km/h Distance 47.72 km</desc>
<time>2011-05-22T10:45:19.39</time>
<name>9873</name>
<sym>Dot</sym>
</trkpt>
<trkpt lat="39.759193" lon="-8.459807">
<ele>183.5</ele>
<desc>Speed 20.9 km/h Distance 47.73 km</desc>
<time>2011-05-22T10:45:20.39</time>
<name>9874</name>
<sym>Dot</sym>
</trkpt>
<trkpt lat="39.759152" lon="-8.459850">
<ele>183.5</ele>
<desc>Speed 21.0 km/h Distance 47.73 km</desc>
<time>2011-05-22T10:45:21.39</time>
<name>9875</name>
<sym>Dot</sym>
</trkpt>
<trkpt lat="39.759112" lon="-8.459893">
<ele>183.0</ele>
<desc>Speed 21.0 km/h Distance 47.74 km</desc>
<time>2011-05-22T10:45:22.39</time>
<name>9876</name>
<sym>Dot</sym>
</trkpt>
<trkpt lat="39.759070" lon="-8.459938">
<ele>183.0</ele>
<desc>Speed 21.2 km/h Distance 47.75 km</desc>
<time>2011-05-22T10:45:23.39</time>
<name>9877</name>
<sym>Dot</sym>
</trkpt>
<trkpt lat="39.759028" lon="-8.459982">
<ele>183.0</ele>
<desc>Speed 21.1 km/h Distance 47.75 km</desc>
<time>2011-05-22T10:45:24.39</time>
<name>9878</name>
<sym>Dot</sym>
</trkpt>
<trkpt lat="39.758985" lon="-8.460023">
<ele>183.0</ele>
<desc>Speed 21.3 km/h Distance 47.76 km</desc>
<time>2011-05-22T10:45:25.39</time>
<name>9879</name>
<sym>Dot</sym>
</trkpt>
<trkpt lat="39.758945" lon="-8.460067">
<ele>183.0</ele>
<desc>Speed 21.2 km/h Distance 47.76 km</desc>
<time>2011-05-22T10:45:26.39</time>
<name>9880</name>
<sym>Dot</sym>
</trkpt>
<trkpt lat="39.758903" lon="-8.460113">
<ele>182.5</ele>
<desc>Speed 21.4 km/h Distance 47.77 km</desc>
<time>2011-05-22T10:45:27.39</time>
<name>9881</name>
<sym>Dot</sym>
</trkpt>
<trkpt lat="39.758863" lon="-8.460158">
<ele>182.5</ele>
<desc>Speed 21.2 km/h Distance 47.78 km</desc>
<time>2011-05-22T10:45:28.39</time>
<name>9882</name>
<sym>Dot</sym>
</trkpt>
<trkpt lat="39.758822" lon="-8.460198">
<ele>182.5</ele>
<desc>Speed 21.2 km/h Distance 47.78 km</desc>
<time>2011-05-22T10:45:29.39</time>
<name>9883</name>
<sym>Dot</sym>
</trkpt>
<trkpt lat="39.758778" lon="-8.460240">
<ele>182.5</ele>
<desc>Speed 21.2 km/h Distance 47.79 km</desc>
<time>2011-05-22T10:45:30.39</time>
<name>9884</name>
<sym>Dot</sym>
</trkpt>
<trkpt lat="39.758735" lon="-8.460282">
<ele>182.0</ele>
<desc>Speed 21.4 km/h Distance 47.79 km</desc>
<time>2011-05-22T10:45:31.39</time>
<name>9885</name>
<sym>Dot</sym>
</trkpt>
<trkpt lat="39.758695" lon="-8.460327">
<ele>181.5</ele>
<desc>Speed 21.0 km/h Distance 47.80 km</desc>
<time>2011-05-22T10:45:32.39</time>
<name>9886</name>
<sym>Dot</sym>
</trkpt>
<trkpt lat="39.758655" lon="-8.460375">
<ele>181.0</ele>
<desc>Speed 21.4 km/h Distance 47.81 km</desc>
<time>2011-05-22T10:45:33.39</time>
<name>9887</name>
<sym>Dot</sym>
</trkpt>
<trkpt lat="39.758617" lon="-8.460423">
<ele>181.0</ele>
<desc>Speed 21.4 km/h Distance 47.81 km</desc>
<time>2011-05-22T10:45:34.39</time>
<name>9888</name>
<sym>Dot</sym>
</trkpt>
<trkpt lat="39.758577" lon="-8.460472">
<ele>180.5</ele>
<desc>Speed 21.0 km/h Distance 47.82 km</desc>
<time>2011-05-22T10:45:35.39</time>
<name>9889</name>
<sym>Dot</sym>
</trkpt>
<trkpt lat="39.758540" lon="-8.460518">
<ele>180.0</ele>
<desc>Speed 20.3 km/h Distance 47.82 km</desc>
<time>2011-05-22T10:45:36.39</time>
<name>9890</name>
<sym>Dot</sym>
</trkpt>
<trkpt lat="39.758503" lon="-8.460568">
<ele>179.5</ele>
<desc>Speed 20.6 km/h Distance 47.83 km</desc>
<time>2011-05-22T10:45:37.39</time>
<name>9891</name>
<sym>Dot</sym>
</trkpt>
<trkpt lat="39.758467" lon="-8.460622">
<ele>179.0</ele>
<desc>Speed 21.0 km/h Distance 47.84 km</desc>
<time>2011-05-22T10:45:38.39</time>
<name>9892</name>
<sym>Dot</sym>
</trkpt>
<trkpt lat="39.758433" lon="-8.460675">
<ele>179.0</ele>
<desc>Speed 21.0 km/h Distance 47.84 km</desc>
<time>2011-05-22T10:45:39.39</time>
<name>9893</name>
<sym>Dot</sym>
</trkpt>
<trkpt lat="39.758398" lon="-8.460728">
<ele>178.5</ele>
<desc>Speed 21.2 km/h Distance 47.85 km</desc>
<time>2011-05-22T10:45:40.39</time>
<name>9894</name>
<sym>Dot</sym>
</trkpt>
<trkpt lat="39.758365" lon="-8.460782">
<ele>178.0</ele>
<desc>Speed 21.2 km/h Distance 47.85 km</desc>
<time>2011-05-22T10:45:41.39</time>
<name>9895</name>
<sym>Dot</sym>
</trkpt>
<trkpt lat="39.758335" lon="-8.460838">
<ele>178.0</ele>
<desc>Speed 21.0 km/h Distance 47.86 km</desc>
<time>2011-05-22T10:45:42.39</time>
<name>9896</name>
<sym>Dot</sym>
</trkpt>
<trkpt lat="39.758305" lon="-8.460897">
<ele>178.0</ele>
<desc>Speed 21.0 km/h Distance 47.87 km</desc>
<time>2011-05-22T10:45:43.39</time>
<name>9897</name>
<sym>Dot</sym>
</trkpt>
<trkpt lat="39.758273" lon="-8.460952">
<ele>177.5</ele>
<desc>Speed 20.9 km/h Distance 47.87 km</desc>
<time>2011-05-22T10:45:44.38</time>
<name>9898</name>
<sym>Dot</sym>
</trkpt>
<trkpt lat="39.758243" lon="-8.461007">
<ele>177.5</ele>
<desc>Speed 20.6 km/h Distance 47.88 km</desc>
<time>2011-05-22T10:45:45.38</time>
<name>9899</name>
<sym>Dot</sym>
</trkpt>
<trkpt lat="39.758215" lon="-8.461065">
<ele>177.5</ele>
<desc>Speed 20.7 km/h Distance 47.88 km</desc>
<time>2011-05-22T10:45:46.38</time>
<name>9900</name>
<sym>Dot</sym>
</trkpt>
<trkpt lat="39.758185" lon="-8.461122">
<ele>177.0</ele>
<desc>Speed 21.0 km/h Distance 47.89 km</desc>
<time>2011-05-22T10:45:47.38</time>
<name>9901</name>
<sym>Dot</sym>
</trkpt>
<trkpt lat="39.758153" lon="-8.461180">
<ele>177.0</ele>
<desc>Speed 21.2 km/h Distance 47.89 km</desc>
<time>2011-05-22T10:45:48.38</time>
<name>9902</name>
<sym>Dot</sym>
</trkpt>
<trkpt lat="39.758125" lon="-8.461240">
<ele>177.0</ele>
<desc>Speed 21.3 km/h Distance 47.90 km</desc>
<time>2011-05-22T10:45:49.38</time>
<name>9903</name>
<sym>Dot</sym>
</trkpt>
<trkpt lat="39.758095" lon="-8.461300">
<ele>176.5</ele>
<desc>Speed 21.2 km/h Distance 47.91 km</desc>
<time>2011-05-22T10:45:50.38</time>
<name>9904</name>
<sym>Dot</sym>
</trkpt>
<trkpt lat="39.758067" lon="-8.461360">
<ele>176.5</ele>
<desc>Speed 21.2 km/h Distance 47.91 km</desc>
<time>2011-05-22T10:45:51.38</time>
<name>9905</name>
<sym>Dot</sym>
</trkpt>
<trkpt lat="39.758038" lon="-8.461420">
<ele>176.5</ele>
<desc>Speed 21.0 km/h Distance 47.92 km</desc>
<time>2011-05-22T10:45:52.38</time>
<name>9906</name>
<sym>Dot</sym>
</trkpt>
<trkpt lat="39.758008" lon="-8.461477">
<ele>176.5</ele>
<desc>Speed 21.0 km/h Distance 47.92 km</desc>
<time>2011-05-22T10:45:53.38</time>
<name>9907</name>
<sym>Dot</sym>
</trkpt>
<trkpt lat="39.757980" lon="-8.461535">
<ele>176.0</ele>
<desc>Speed 21.2 km/h Distance 47.93 km</desc>
<time>2011-05-22T10:45:54.38</time>
<name>9908</name>
<sym>Dot</sym>
</trkpt>
<trkpt lat="39.757952" lon="-8.461595">
<ele>176.0</ele>
<desc>Speed 21.1 km/h Distance 47.94 km</desc>
<time>2011-05-22T10:45:55.38</time>
<name>9909</name>
<sym>Dot</sym>
</trkpt>
<trkpt lat="39.757923" lon="-8.461653">
<ele>176.0</ele>
<desc>Speed 21.0 km/h Distance 47.94 km</desc>
<time>2011-05-22T10:45:56.38</time>
<name>9910</name>
<sym>Dot</sym>
</trkpt>
<trkpt lat="39.757897" lon="-8.461712">
<ele>176.0</ele>
<desc>Speed 20.7 km/h Distance 47.95 km</desc>
<time>2011-05-22T10:45:57.38</time>
<name>9911</name>
<sym>Dot</sym>
</trkpt>
<trkpt lat="39.757875" lon="-8.461772">
<ele>176.0</ele>
<desc>Speed 20.1 km/h Distance 47.95 km</desc>
<time>2011-05-22T10:45:58.38</time>
<name>9912</name>
<sym>Dot</sym>
</trkpt>
<trkpt lat="39.757860" lon="-8.461833">
<ele>176.0</ele>
<desc>Speed 19.4 km/h Distance 47.96 km</desc>
<time>2011-05-22T10:45:59.38</time>
<name>9913</name>
<sym>Dot</sym>
</trkpt>
<trkpt lat="39.757852" lon="-8.461895">
<ele>176.0</ele>
<desc>Speed 19.0 km/h Distance 47.97 km</desc>
<time>2011-05-22T10:46:00.38</time>
<name>9914</name>
<sym>Dot</sym>
</trkpt>
<trkpt lat="39.757848" lon="-8.461958">
<ele>176.0</ele>
<desc>Speed 19.3 km/h Distance 47.97 km</desc>
<time>2011-05-22T10:46:01.38</time>
<name>9915</name>
<sym>Dot</sym>
</trkpt>
<trkpt lat="39.757848" lon="-8.462023">
<ele>175.5</ele>
<desc>Speed 19.7 km/h Distance 47.98 km</desc>
<time>2011-05-22T10:46:02.38</time>
<name>9916</name>
<sym>Dot</sym>
</trkpt>
<trkpt lat="39.757853" lon="-8.462088">
<ele>175.5</ele>
<desc>Speed 19.7 km/h Distance 47.98 km</desc>
<time>2011-05-22T10:46:03.38</time>
<name>9917</name>
<sym>Dot</sym>
</trkpt>
<trkpt lat="39.757860" lon="-8.462153">
<ele>175.5</ele>
<desc>Speed 20.1 km/h Distance 47.99 km</desc>
<time>2011-05-22T10:46:04.38</time>
<name>9918</name>
<sym>Dot</sym>
</trkpt>
<trkpt lat="39.757873" lon="-8.462218">
<ele>175.5</ele>
<desc>Speed 20.1 km/h Distance 47.99 km</desc>
<time>2011-05-22T10:46:05.38</time>
<name>9919</name>
<sym>Dot</sym>
</trkpt>
<trkpt lat="39.757892" lon="-8.462282">
<ele>176.0</ele>
<desc>Speed 20.1 km/h Distance 48.00 km</desc>
<time>2011-05-22T10:46:06.38</time>
<name>9920</name>
<sym>Dot</sym>
</trkpt>
<trkpt lat="39.757908" lon="-8.462343">
<ele>175.5</ele>
<desc>Speed 20.0 km/h Distance 48.00 km</desc>
<time>2011-05-22T10:46:07.38</time>
<name>9921</name>
<sym>Dot</sym>
</trkpt>
<trkpt lat="39.757925" lon="-8.462405">
<ele>176.0</ele>
<desc>Speed 19.8 km/h Distance 48.01 km</desc>
<time>2011-05-22T10:46:08.38</time>
<name>9922</name>
<sym>Dot</sym>
</trkpt>
<trkpt lat="39.757943" lon="-8.462467">
<ele>176.0</ele>
<desc>Speed 20.1 km/h Distance 48.02 km</desc>
<time>2011-05-22T10:46:09.38</time>
<name>9923</name>
<sym>Dot</sym>
</trkpt>
<trkpt lat="39.757962" lon="-8.462533">
<ele>176.5</ele>
<desc>Speed 21.0 km/h Distance 48.02 km</desc>
<time>2011-05-22T10:46:10.38</time>
<name>9924</name>
<sym>Dot</sym>
</trkpt>
<trkpt lat="39.757980" lon="-8.462597">
<ele>176.5</ele>
<desc>Speed 20.7 km/h Distance 48.03 km</desc>
<time>2011-05-22T10:46:11.38</time>
<name>9925</name>
<sym>Dot</sym>
</trkpt>
<trkpt lat="39.758000" lon="-8.462660">
<ele>177.0</ele>
<desc>Speed 20.7 km/h Distance 48.03 km</desc>
<time>2011-05-22T10:46:12.38</time>
<name>9926</name>
<sym>Dot</sym>
</trkpt>
<trkpt lat="39.758020" lon="-8.462722">
<ele>177.0</ele>
<desc>Speed 20.3 km/h Distance 48.04 km</desc>
<time>2011-05-22T10:46:13.38</time>
<name>9927</name>
<sym>Dot</sym>
</trkpt>
<trkpt lat="39.758042" lon="-8.462783">
<ele>177.5</ele>
<desc>Speed 20.3 km/h Distance 48.04 km</desc>
<time>2011-05-22T10:46:14.38</time>
<name>9928</name>
<sym>Dot</sym>
</trkpt>
<trkpt lat="39.758060" lon="-8.462845">
<ele>177.5</ele>
<desc>Speed 20.1 km/h Distance 48.05 km</desc>
<time>2011-05-22T10:46:15.38</time>
<name>9929</name>
<sym>Dot</sym>
</trkpt>
<trkpt lat="39.758078" lon="-8.462910">
<ele>177.5</ele>
<desc>Speed 20.8 km/h Distance 48.06 km</desc>
<time>2011-05-22T10:46:16.38</time>
<name>9930</name>
<sym>Dot</sym>
</trkpt>
<trkpt lat="39.758098" lon="-8.462973">
<ele>178.0</ele>
<desc>Speed 20.9 km/h Distance 48.06 km</desc>
<time>2011-05-22T10:46:17.38</time>
<name>9931</name>
<sym>Dot</sym>
</trkpt>
<trkpt lat="39.758118" lon="-8.463042">
<ele>178.0</ele>
<desc>Speed 21.8 km/h Distance 48.07 km</desc>
<time>2011-05-22T10:46:18.38</time>
<name>9932</name>
<sym>Dot</sym>
</trkpt>
<trkpt lat="39.758138" lon="-8.463108">
<ele>178.5</ele>
<desc>Speed 21.9 km/h Distance 48.07 km</desc>
<time>2011-05-22T10:46:19.38</time>
<name>9933</name>
<sym>Dot</sym>
</trkpt>
<trkpt lat="39.758158" lon="-8.463177">
<ele>178.5</ele>
<desc>Speed 21.9 km/h Distance 48.08 km</desc>
<time>2011-05-22T10:46:20.38</time>
<name>9934</name>
<sym>Dot</sym>
</trkpt>
<trkpt lat="39.758178" lon="-8.463243">
<ele>179.0</ele>
<desc>Speed 21.9 km/h Distance 48.09 km</desc>
<time>2011-05-22T10:46:21.38</time>
<name>9935</name>
<sym>Dot</sym>
</trkpt>
<trkpt lat="39.758198" lon="-8.463313">
<ele>179.5</ele>
<desc>Speed 22.4 km/h Distance 48.09 km</desc>
<time>2011-05-22T10:46:22.38</time>
<name>9936</name>
<sym>Dot</sym>
</trkpt>
<trkpt lat="39.758217" lon="-8.463385">
<ele>180.5</ele>
<desc>Speed 23.0 km/h Distance 48.10 km</desc>
<time>2011-05-22T10:46:23.38</time>
<name>9937</name>
<sym>Dot</sym>
</trkpt>
<trkpt lat="39.758238" lon="-8.463458">
<ele>181.0</ele>
<desc>Speed 23.2 km/h Distance 48.11 km</desc>
<time>2011-05-22T10:46:24.38</time>
<name>9938</name>
<sym>Dot</sym>
</trkpt>
<trkpt lat="39.758257" lon="-8.463530">
<ele>181.0</ele>
<desc>Speed 23.1 km/h Distance 48.11 km</desc>
<time>2011-05-22T10:46:25.38</time>
<name>9939</name>
<sym>Dot</sym>
</trkpt>
<trkpt lat="39.758275" lon="-8.463605">
<ele>181.5</ele>
<desc>Speed 23.4 km/h Distance 48.12 km</desc>
<time>2011-05-22T10:46:26.38</time>
<name>9940</name>
<sym>Dot</sym>
</trkpt>
<trkpt lat="39.758297" lon="-8.463680">
<ele>182.0</ele>
<desc>Speed 24.6 km/h Distance 48.13 km</desc>
<time>2011-05-22T10:46:27.38</time>
<name>9941</name>
<sym>Dot</sym>
</trkpt>
<trkpt lat="39.758317" lon="-8.463758">
<ele>182.5</ele>
<desc>Speed 25.1 km/h Distance 48.13 km</desc>
<time>2011-05-22T10:46:28.38</time>
<name>9942</name>
<sym>Dot</sym>
</trkpt>
<trkpt lat="39.758337" lon="-8.463838">
<ele>183.0</ele>
<desc>Speed 25.7 km/h Distance 48.14 km</desc>
<time>2011-05-22T10:46:29.38</time>
<name>9943</name>
<sym>Dot</sym>
</trkpt>
<trkpt lat="39.758358" lon="-8.463920">
<ele>183.5</ele>
<desc>Speed 26.0 km/h Distance 48.15 km</desc>
<time>2011-05-22T10:46:30.38</time>
<name>9944</name>
<sym>Dot</sym>
</trkpt>
<trkpt lat="39.758375" lon="-8.464000">
<ele>182.5</ele>
<desc>Speed 25.6 km/h Distance 48.16 km</desc>
<time>2011-05-22T10:46:31.38</time>
<name>9945</name>
<sym>Dot</sym>
</trkpt>
<trkpt lat="39.758410" lon="-8.464078">
<ele>182.5</ele>
<desc>Speed 27.4 km/h Distance 48.16 km</desc>
<time>2011-05-22T10:46:32.38</time>
<name>9946</name>
<sym>Dot</sym>
</trkpt>
<trkpt lat="39.758437" lon="-8.464162">
<ele>182.5</ele>
<desc>Speed 27.5 km/h Distance 48.17 km</desc>
<time>2011-05-22T10:46:33.38</time>
<name>9947</name>
<sym>Dot</sym>
</trkpt>
<trkpt lat="39.758455" lon="-8.464235">
<ele>183.0</ele>
<desc>Speed 23.7 km/h Distance 48.18 km</desc>
<time>2011-05-22T10:46:34.38</time>
<name>9948</name>
<sym>Dot</sym>
</trkpt>
<trkpt lat="39.758438" lon="-8.464433">
<ele>183.0</ele>
<desc>Speed 28.7 km/h Distance 48.19 km</desc>
<time>2011-05-22T10:46:36.38</time>
<name>9949</name>
<sym>Dot</sym>
</trkpt>
<trkpt lat="39.758420" lon="-8.464525">
<ele>183.0</ele>
<desc>Speed 29.2 km/h Distance 48.20 km</desc>
<time>2011-05-22T10:46:37.38</time>
<name>9950</name>
<sym>Dot</sym>
</trkpt>
<trkpt lat="39.758400" lon="-8.464618">
<ele>182.5</ele>
<desc>Speed 29.6 km/h Distance 48.21 km</desc>
<time>2011-05-22T10:46:38.38</time>
<name>9951</name>
<sym>Dot</sym>
</trkpt>
<trkpt lat="39.758382" lon="-8.464713">
<ele>182.5</ele>
<desc>Speed 29.8 km/h Distance 48.22 km</desc>
<time>2011-05-22T10:46:39.38</time>
<name>9952</name>
<sym>Dot</sym>
</trkpt>
<trkpt lat="39.758363" lon="-8.464807">
<ele>182.0</ele>
<desc>Speed 29.6 km/h Distance 48.23 km</desc>
<time>2011-05-22T10:46:40.38</time>
<name>9953</name>
<sym>Dot</sym>
</trkpt>
<trkpt lat="39.758343" lon="-8.464898">
<ele>181.5</ele>
<desc>Speed 29.4 km/h Distance 48.24 km</desc>
<time>2011-05-22T10:46:41.38</time>
<name>9954</name>
<sym>Dot</sym>
</trkpt>
<trkpt lat="39.758322" lon="-8.464990">
<ele>181.0</ele>
<desc>Speed 29.9 km/h Distance 48.24 km</desc>
<time>2011-05-22T10:46:42.38</time>
<name>9955</name>
<sym>Dot</sym>
</trkpt>
<trkpt lat="39.758302" lon="-8.465080">
<ele>181.0</ele>
<desc>Speed 29.4 km/h Distance 48.25 km</desc>
<time>2011-05-22T10:46:43.38</time>
<name>9956</name>
<sym>Dot</sym>
</trkpt>
<trkpt lat="39.758282" lon="-8.465173">
<ele>180.5</ele>
<desc>Speed 29.8 km/h Distance 48.26 km</desc>
<time>2011-05-22T10:46:44.38</time>
<name>9957</name>
<sym>Dot</sym>
</trkpt>
<trkpt lat="39.758260" lon="-8.465267">
<ele>180.0</ele>
<desc>Speed 30.5 km/h Distance 48.27 km</desc>
<time>2011-05-22T10:46:45.38</time>
<name>9958</name>
<sym>Dot</sym>
</trkpt>
<trkpt lat="39.758230" lon="-8.465358">
<ele>179.5</ele>
<desc>Speed 30.5 km/h Distance 48.28 km</desc>
<time>2011-05-22T10:46:46.38</time>
<name>9959</name>
<sym>Dot</sym>
</trkpt>
<trkpt lat="39.758193" lon="-8.465442">
<ele>178.5</ele>
<desc>Speed 30.3 km/h Distance 48.29 km</desc>
<time>2011-05-22T10:46:47.38</time>
<name>9960</name>
<sym>Dot</sym>
</trkpt>
<trkpt lat="39.758145" lon="-8.465517">
<ele>178.0</ele>
<desc>Speed 30.3 km/h Distance 48.29 km</desc>
<time>2011-05-22T10:46:48.38</time>
<name>9961</name>
<sym>Dot</sym>
</trkpt>
<trkpt lat="39.758085" lon="-8.465573">
<ele>177.5</ele>
<desc>Speed 29.9 km/h Distance 48.30 km</desc>
<time>2011-05-22T10:46:49.38</time>
<name>9962</name>
<sym>Dot</sym>
</trkpt>
<trkpt lat="39.758017" lon="-8.465612">
<ele>178.0</ele>
<desc>Speed 29.8 km/h Distance 48.31 km</desc>
<time>2011-05-22T10:46:50.38</time>
<name>9963</name>
<sym>Dot</sym>
</trkpt>
<trkpt lat="39.757948" lon="-8.465638">
<ele>177.5</ele>
<desc>Speed 28.9 km/h Distance 48.32 km</desc>
<time>2011-05-22T10:46:51.38</time>
<name>9964</name>
<sym>Dot</sym>
</trkpt>
<trkpt lat="39.757878" lon="-8.465665">
<ele>177.5</ele>
<desc>Speed 29.0 km/h Distance 48.33 km</desc>
<time>2011-05-22T10:46:52.38</time>
<name>9965</name>
<sym>Dot</sym>
</trkpt>
<trkpt lat="39.757808" lon="-8.465690">
<ele>177.0</ele>
<desc>Speed 29.2 km/h Distance 48.33 km</desc>
<time>2011-05-22T10:46:53.38</time>
<name>9966</name>
<sym>Dot</sym>
</trkpt>
<trkpt lat="39.757738" lon="-8.465717">
<ele>177.0</ele>
<desc>Speed 29.2 km/h Distance 48.34 km</desc>
<time>2011-05-22T10:46:54.38</time>
<name>9967</name>
<sym>Dot</sym>
</trkpt>
<trkpt lat="39.757668" lon="-8.465742">
<ele>177.0</ele>
<desc>Speed 28.7 km/h Distance 48.35 km</desc>
<time>2011-05-22T10:46:55.38</time>
<name>9968</name>
<sym>Dot</sym>
</trkpt>
<trkpt lat="39.757600" lon="-8.465765">
<ele>177.0</ele>
<desc>Speed 28.4 km/h Distance 48.36 km</desc>
<time>2011-05-22T10:46:56.38</time>
<name>9969</name>
<sym>Dot</sym>
</trkpt>
<trkpt lat="39.757533" lon="-8.465790">
<ele>176.5</ele>
<desc>Speed 28.2 km/h Distance 48.37 km</desc>
<time>2011-05-22T10:46:57.38</time>
<name>9970</name>
<sym>Dot</sym>
</trkpt>
<trkpt lat="39.757465" lon="-8.465813">
<ele>176.5</ele>
<desc>Speed 27.8 km/h Distance 48.37 km</desc>
<time>2011-05-22T10:46:58.38</time>
<name>9971</name>
<sym>Dot</sym>
</trkpt>
<trkpt lat="39.757400" lon="-8.465837">
<ele>176.0</ele>
<desc>Speed 27.5 km/h Distance 48.38 km</desc>
<time>2011-05-22T10:46:59.38</time>
<name>9972</name>
<sym>Dot</sym>
</trkpt>
<trkpt lat="39.757337" lon="-8.465860">
<ele>176.0</ele>
<desc>Speed 26.4 km/h Distance 48.39 km</desc>
<time>2011-05-22T10:47:00.38</time>
<name>9973</name>
<sym>Dot</sym>
</trkpt>
<trkpt lat="39.757270" lon="-8.465880">
<ele>175.5</ele>
<desc>Speed 27.3 km/h Distance 48.40 km</desc>
<time>2011-05-22T10:47:01.38</time>
<name>9974</name>
<sym>Dot</sym>
</trkpt>
<trkpt lat="39.757205" lon="-8.465902">
<ele>175.0</ele>
<desc>Speed 26.6 km/h Distance 48.40 km</desc>
<time>2011-05-22T10:47:02.38</time>
<name>9975</name>
<sym>Dot</sym>
</trkpt>
<trkpt lat="39.757140" lon="-8.465922">
<ele>175.0</ele>
<desc>Speed 26.6 km/h Distance 48.41 km</desc>
<time>2011-05-22T10:47:03.38</time>
<name>9976</name>
<sym>Dot</sym>
</trkpt>
<trkpt lat="39.757078" lon="-8.465943">
<ele>174.5</ele>
<desc>Speed 25.9 km/h Distance 48.42 km</desc>
<time>2011-05-22T10:47:04.38</time>
<name>9977</name>
<sym>Dot</sym>
</trkpt>
<trkpt lat="39.757017" lon="-8.465963">
<ele>174.5</ele>
<desc>Speed 25.6 km/h Distance 48.43 km</desc>
<time>2011-05-22T10:47:05.38</time>
<name>9978</name>
<sym>Dot</sym>
</trkpt>
<trkpt lat="39.756957" lon="-8.465983">
<ele>174.5</ele>
<desc>Speed 24.8 km/h Distance 48.43 km</desc>
<time>2011-05-22T10:47:06.38</time>
<name>9979</name>
<sym>Dot</sym>
</trkpt>
<trkpt lat="39.756897" lon="-8.466002">
<ele>175.0</ele>
<desc>Speed 24.7 km/h Distance 48.44 km</desc>
<time>2011-05-22T10:47:07.38</time>
<name>9980</name>
<sym>Dot</sym>
</trkpt>
<trkpt lat="39.756838" lon="-8.466020">
<ele>175.0</ele>
<desc>Speed 24.4 km/h Distance 48.45 km</desc>
<time>2011-05-22T10:47:08.38</time>
<name>9981</name>
<sym>Dot</sym>
</trkpt>
<trkpt lat="39.756777" lon="-8.466038">
<ele>174.5</ele>
<desc>Speed 25.2 km/h Distance 48.45 km</desc>
<time>2011-05-22T10:47:09.38</time>
<name>9982</name>
<sym>Dot</sym>
</trkpt>
<trkpt lat="39.756717" lon="-8.466057">
<ele>174.5</ele>
<desc>Speed 25.1 km/h Distance 48.46 km</desc>
<time>2011-05-22T10:47:10.38</time>
<name>9983</name>
<sym>Dot</sym>
</trkpt>
<trkpt lat="39.756662" lon="-8.466078">
<ele>175.0</ele>
<desc>Speed 23.0 km/h Distance 48.47 km</desc>
<time>2011-05-22T10:47:11.38</time>
<name>9984</name>
<sym>Dot</sym>
</trkpt>
<trkpt lat="39.756608" lon="-8.466097">
<ele>175.0</ele>
<desc>Speed 21.9 km/h Distance 48.47 km</desc>
<time>2011-05-22T10:47:12.38</time>
<name>9985</name>
<sym>Dot</sym>
</trkpt>
<trkpt lat="39.756558" lon="-8.466112">
<ele>175.0</ele>
<desc>Speed 20.9 km/h Distance 48.48 km</desc>
<time>2011-05-22T10:47:13.38</time>
<name>9986</name>
<sym>Dot</sym>
</trkpt>
<trkpt lat="39.756512" lon="-8.466125">
<ele>175.0</ele>
<desc>Speed 20.2 km/h Distance 48.48 km</desc>
<time>2011-05-22T10:47:14.38</time>
<name>9987</name>
<sym>Dot</sym>
</trkpt>
<trkpt lat="39.756467" lon="-8.466137">
<ele>175.0</ele>
<desc>Speed 18.7 km/h Distance 48.49 km</desc>
<time>2011-05-22T10:47:15.38</time>
<name>9988</name>
<sym>Dot</sym>
</trkpt>
<trkpt lat="39.756423" lon="-8.466143">
<ele>175.5</ele>
<desc>Speed 17.7 km/h Distance 48.49 km</desc>
<time>2011-05-22T10:47:16.38</time>
<name>9989</name>
<sym>Dot</sym>
</trkpt>
<trkpt lat="39.756380" lon="-8.466142">
<ele>175.5</ele>
<desc>Speed 17.6 km/h Distance 48.50 km</desc>
<time>2011-05-22T10:47:17.38</time>
<name>9990</name>
<sym>Dot</sym>
</trkpt>
<trkpt lat="39.756338" lon="-8.466137">
<ele>176.0</ele>
<desc>Speed 16.7 km/h Distance 48.50 km</desc>
<time>2011-05-22T10:47:18.38</time>
<name>9991</name>
<sym>Dot</sym>
</trkpt>
<trkpt lat="39.756302" lon="-8.466127">
<ele>176.5</ele>
<desc>Speed 15.8 km/h Distance 48.51 km</desc>
<time>2011-05-22T10:47:19.38</time>
<name>9992</name>
<sym>Dot</sym>
</trkpt>
<trkpt lat="39.756267" lon="-8.466110">
<ele>177.0</ele>
<desc>Speed 15.6 km/h Distance 48.51 km</desc>
<time>2011-05-22T10:47:20.38</time>
<name>9993</name>
<sym>Dot</sym>
</trkpt>
<trkpt lat="39.756233" lon="-8.466083">
<ele>177.5</ele>
<desc>Speed 15.8 km/h Distance 48.52 km</desc>
<time>2011-05-22T10:47:21.38</time>
<name>9994</name>
<sym>Dot</sym>
</trkpt>
<trkpt lat="39.756207" lon="-8.466055">
<ele>178.0</ele>
<desc>Speed 14.7 km/h Distance 48.52 km</desc>
<time>2011-05-22T10:47:22.38</time>
<name>9995</name>
<sym>Dot</sym>
</trkpt>
<trkpt lat="39.756182" lon="-8.466033">
<ele>179.0</ele>
<desc>Speed 13.0 km/h Distance 48.52 km</desc>
<time>2011-05-22T10:47:23.38</time>
<name>9996</name>
<sym>Dot</sym>
</trkpt>
<trkpt lat="39.756162" lon="-8.466008">
<ele>179.0</ele>
<desc>Speed 11.9 km/h Distance 48.53 km</desc>
<time>2011-05-22T10:47:24.38</time>
<name>9997</name>
<sym>Dot</sym>
</trkpt>
<trkpt lat="39.756147" lon="-8.465980">
<ele>179.0</ele>
<desc>Speed 11.1 km/h Distance 48.53 km</desc>
<time>2011-05-22T10:47:25.38</time>
<name>9998</name>
<sym>Dot</sym>
</trkpt>
<trkpt lat="39.756130" lon="-8.465952">
<ele>179.5</ele>
<desc>Speed 11.4 km/h Distance 48.53 km</desc>
<time>2011-05-22T10:47:26.38</time>
<name>9999</name>
<sym>Dot</sym>
</trkpt>
<trkpt lat="39.756115" lon="-8.465920">
<ele>179.5</ele>
<desc>Speed 12.0 km/h Distance 48.54 km</desc>
<time>2011-05-22T10:47:27.38</time>
<name>10000</name>
<sym>Dot</sym>
</trkpt>
<trkpt lat="39.756098" lon="-8.465888">
<ele>179.0</ele>
<desc>Speed 12.6 km/h Distance 48.54 km</desc>
<time>2011-05-22T10:47:28.38</time>
<name>10001</name>
<sym>Dot</sym>
</trkpt>
<trkpt lat="39.756082" lon="-8.465855">
<ele>179.5</ele>
<desc>Speed 12.5 km/h Distance 48.54 km</desc>
<time>2011-05-22T10:47:29.38</time>
<name>10002</name>
<sym>Dot</sym>
</trkpt>
<trkpt lat="39.756067" lon="-8.465822">
<ele>179.5</ele>
<desc>Speed 12.4 km/h Distance 48.55 km</desc>
<time>2011-05-22T10:47:30.38</time>
<name>10003</name>
<sym>Dot</sym>
</trkpt>
<trkpt lat="39.756050" lon="-8.465788">
<ele>179.5</ele>
<desc>Speed 12.6 km/h Distance 48.55 km</desc>
<time>2011-05-22T10:47:31.38</time>
<name>10004</name>
<sym>Dot</sym>
</trkpt>
<trkpt lat="39.756035" lon="-8.465753">
<ele>179.5</ele>
<desc>Speed 12.7 km/h Distance 48.55 km</desc>
<time>2011-05-22T10:47:32.38</time>
<name>10005</name>
<sym>Dot</sym>
</trkpt>
<trkpt lat="39.756023" lon="-8.465718">
<ele>179.5</ele>
<desc>Speed 12.0 km/h Distance 48.56 km</desc>
<time>2011-05-22T10:47:33.38</time>
<name>10006</name>
<sym>Dot</sym>
</trkpt>
<trkpt lat="39.756008" lon="-8.465685">
<ele>180.0</ele>
<desc>Speed 12.3 km/h Distance 48.56 km</desc>
<time>2011-05-22T10:47:34.38</time>
<name>10007</name>
<sym>Dot</sym>
</trkpt>
<trkpt lat="39.755995" lon="-8.465652">
<ele>180.0</ele>
<desc>Speed 12.4 km/h Distance 48.56 km</desc>
<time>2011-05-22T10:47:35.38</time>
<name>10008</name>
<sym>Dot</sym>
</trkpt>
<trkpt lat="39.755978" lon="-8.465620">
<ele>181.0</ele>
<desc>Speed 11.8 km/h Distance 48.57 km</desc>
<time>2011-05-22T10:47:36.38</time>
<name>10009</name>
<sym>Dot</sym>
</trkpt>
<trkpt lat="39.755962" lon="-8.465587">
<ele>181.5</ele>
<desc>Speed 12.6 km/h Distance 48.57 km</desc>
<time>2011-05-22T10:47:37.38</time>
<name>10010</name>
<sym>Dot</sym>
</trkpt>
<trkpt lat="39.755945" lon="-8.465555">
<ele>182.0</ele>
<desc>Speed 12.4 km/h Distance 48.57 km</desc>
<time>2011-05-22T10:47:38.38</time>
<name>10011</name>
<sym>Dot</sym>
</trkpt>
<trkpt lat="39.755930" lon="-8.465520">
<ele>182.0</ele>
<desc>Speed 12.5 km/h Distance 48.58 km</desc>
<time>2011-05-22T10:47:39.38</time>
<name>10012</name>
<sym>Dot</sym>
</trkpt>
<trkpt lat="39.755913" lon="-8.465488">
<ele>182.5</ele>
<desc>Speed 12.4 km/h Distance 48.58 km</desc>
<time>2011-05-22T10:47:40.38</time>
<name>10013</name>
<sym>Dot</sym>
</trkpt>
<trkpt lat="39.755898" lon="-8.465457">
<ele>182.5</ele>
<desc>Speed 12.1 km/h Distance 48.58 km</desc>
<time>2011-05-22T10:47:41.38</time>
<name>10014</name>
<sym>Dot</sym>
</trkpt>
<trkpt lat="39.755882" lon="-8.465430">
<ele>183.0</ele>
<desc>Speed 11.0 km/h Distance 48.58 km</desc>
<time>2011-05-22T10:47:42.38</time>
<name>10015</name>
<sym>Dot</sym>
</trkpt>
<trkpt lat="39.755868" lon="-8.465403">
<ele>183.0</ele>
<desc>Speed 10.1 km/h Distance 48.59 km</desc>
<time>2011-05-22T10:47:43.38</time>
<name>10016</name>
<sym>Dot</sym>
</trkpt>
<trkpt lat="39.755855" lon="-8.465380">
<ele>183.0</ele>
<desc>Speed 9.6 km/h Distance 48.59 km</desc>
<time>2011-05-22T10:47:44.38</time>
<name>10017</name>
<sym>Dot</sym>
</trkpt>
<trkpt lat="39.755840" lon="-8.465358">
<ele>183.0</ele>
<desc>Speed 9.3 km/h Distance 48.59 km</desc>
<time>2011-05-22T10:47:45.38</time>
<name>10018</name>
<sym>Dot</sym>
</trkpt>
<trkpt lat="39.755822" lon="-8.465340">
<ele>183.5</ele>
<desc>Speed 9.2 km/h Distance 48.59 km</desc>
<time>2011-05-22T10:47:46.38</time>
<name>10019</name>
<sym>Dot</sym>
</trkpt>
<trkpt lat="39.755802" lon="-8.465322">
<ele>184.0</ele>
<desc>Speed 10.2 km/h Distance 48.60 km</desc>
<time>2011-05-22T10:47:47.38</time>
<name>10020</name>
<sym>Dot</sym>
</trkpt>
<trkpt lat="39.755782" lon="-8.465305">
<ele>185.0</ele>
<desc>Speed 10.5 km/h Distance 48.60 km</desc>
<time>2011-05-22T10:47:48.38</time>
<name>10021</name>
<sym>Dot</sym>
</trkpt>
<trkpt lat="39.755760" lon="-8.465288">
<ele>185.5</ele>
<desc>Speed 10.0 km/h Distance 48.60 km</desc>
<time>2011-05-22T10:47:49.38</time>
<name>10022</name>
<sym>Dot</sym>
</trkpt>
<trkpt lat="39.755742" lon="-8.465275">
<ele>186.0</ele>
<desc>Speed 9.3 km/h Distance 48.61 km</desc>
<time>2011-05-22T10:47:50.38</time>
<name>10023</name>
<sym>Dot</sym>
</trkpt>
<trkpt lat="39.755722" lon="-8.465263">
<ele>186.5</ele>
<desc>Speed 8.9 km/h Distance 48.61 km</desc>
<time>2011-05-22T10:47:51.38</time>
<name>10024</name>
<sym>Dot</sym>
</trkpt>
<trkpt lat="39.755703" lon="-8.465252">
<ele>186.5</ele>
<desc>Speed 8.4 km/h Distance 48.61 km</desc>
<time>2011-05-22T10:47:52.38</time>
<name>10025</name>
<sym>Dot</sym>
</trkpt>
<trkpt lat="39.755685" lon="-8.465240">
<ele>187.0</ele>
<desc>Speed 8.2 km/h Distance 48.61 km</desc>
<time>2011-05-22T10:47:53.38</time>
<name>10026</name>
<sym>Dot</sym>
</trkpt>
<trkpt lat="39.755668" lon="-8.465228">
<ele>186.5</ele>
<desc>Speed 8.3 km/h Distance 48.61 km</desc>
<time>2011-05-22T10:47:54.38</time>
<name>10027</name>
<sym>Dot</sym>
</trkpt>
<trkpt lat="39.755650" lon="-8.465215">
<ele>186.5</ele>
<desc>Speed 8.8 km/h Distance 48.62 km</desc>
<time>2011-05-22T10:47:55.38</time>
<name>10028</name>
<sym>Dot</sym>
</trkpt>
<trkpt lat="39.755632" lon="-8.465202">
<ele>186.5</ele>
<desc>Speed 9.0 km/h Distance 48.62 km</desc>
<time>2011-05-22T10:47:56.38</time>
<name>10029</name>
<sym>Dot</sym>
</trkpt>
<trkpt lat="39.755612" lon="-8.465187">
<ele>186.5</ele>
<desc>Speed 9.3 km/h Distance 48.62 km</desc>
<time>2011-05-22T10:47:57.38</time>
<name>10030</name>
<sym>Dot</sym>
</trkpt>
<trkpt lat="39.755590" lon="-8.465178">
<ele>187.0</ele>
<desc>Speed 9.3 km/h Distance 48.62 km</desc>
<time>2011-05-22T10:47:58.38</time>
<name>10031</name>
<sym>Dot</sym>
</trkpt>
<trkpt lat="39.755568" lon="-8.465168">
<ele>187.5</ele>
<desc>Speed 9.3 km/h Distance 48.63 km</desc>
<time>2011-05-22T10:47:59.38</time>
<name>10032</name>
<sym>Dot</sym>
</trkpt>
<trkpt lat="39.755548" lon="-8.465160">
<ele>188.0</ele>
<desc>Speed 9.5 km/h Distance 48.63 km</desc>
<time>2011-05-22T10:48:00.38</time>
<name>10033</name>
<sym>Dot</sym>
</trkpt>
<trkpt lat="39.755533" lon="-8.465148">
<ele>188.5</ele>
<desc>Speed 7.0 km/h Distance 48.63 km</desc>
<time>2011-05-22T10:48:01.38</time>
<name>10034</name>
<sym>Dot</sym>
</trkpt>
<trkpt lat="39.755522" lon="-8.465140">
<ele>189.5</ele>
<desc>Speed 5.9 km/h Distance 48.63 km</desc>
<time>2011-05-22T10:48:02.38</time>
<name>10035</name>
<sym>Dot</sym>
</trkpt>
<trkpt lat="39.755508" lon="-8.465132">
<ele>190.0</ele>
<desc>Speed 5.9 km/h Distance 48.63 km</desc>
<time>2011-05-22T10:48:03.38</time>
<name>10036</name>
<sym>Dot</sym>
</trkpt>
<trkpt lat="39.755495" lon="-8.465125">
<ele>190.5</ele>
<desc>Speed 6.1 km/h Distance 48.64 km</desc>
<time>2011-05-22T10:48:04.38</time>
<name>10037</name>
<sym>Dot</sym>
</trkpt>
<trkpt lat="39.755478" lon="-8.465118">
<ele>191.5</ele>
<desc>Speed 7.2 km/h Distance 48.64 km</desc>
<time>2011-05-22T10:48:05.38</time>
<name>10038</name>
<sym>Dot</sym>
</trkpt>
<trkpt lat="39.755462" lon="-8.465110">
<ele>192.0</ele>
<desc>Speed 6.8 km/h Distance 48.64 km</desc>
<time>2011-05-22T10:48:06.38</time>
<name>10039</name>
<sym>Dot</sym>
</trkpt>
<trkpt lat="39.755445" lon="-8.465103">
<ele>193.0</ele>
<desc>Speed 7.4 km/h Distance 48.64 km</desc>
<time>2011-05-22T10:48:07.38</time>
<name>10040</name>
<sym>Dot</sym>
</trkpt>
<trkpt lat="39.755428" lon="-8.465093">
<ele>194.0</ele>
<desc>Speed 7.3 km/h Distance 48.64 km</desc>
<time>2011-05-22T10:48:08.38</time>
<name>10041</name>
<sym>Dot</sym>
</trkpt>
<trkpt lat="39.755413" lon="-8.465085">
<ele>195.0</ele>
<desc>Speed 7.2 km/h Distance 48.65 km</desc>
<time>2011-05-22T10:48:09.38</time>
<name>10042</name>
<sym>Dot</sym>
</trkpt>
<trkpt lat="39.755400" lon="-8.465078">
<ele>196.0</ele>
<desc>Speed 6.4 km/h Distance 48.65 km</desc>
<time>2011-05-22T10:48:10.38</time>
<name>10043</name>
<sym>Dot</sym>
</trkpt>
<trkpt lat="39.755387" lon="-8.465072">
<ele>197.5</ele>
<desc>Speed 5.7 km/h Distance 48.65 km</desc>
<time>2011-05-22T10:48:11.38</time>
<name>10044</name>
<sym>Dot</sym>
</trkpt>
<trkpt lat="39.755373" lon="-8.465065">
<ele>198.5</ele>
<desc>Speed 6.2 km/h Distance 48.65 km</desc>
<time>2011-05-22T10:48:12.38</time>
<name>10045</name>
<sym>Dot</sym>
</trkpt>
<trkpt lat="39.755363" lon="-8.465058">
<ele>199.5</ele>
<desc>Speed 4.5 km/h Distance 48.65 km</desc>
<time>2011-05-22T10:48:13.38</time>
<name>10046</name>
<sym>Dot</sym>
</trkpt>
<trkpt lat="39.755353" lon="-8.465048">
<ele>201.5</ele>
<desc>Speed 5.2 km/h Distance 48.65 km</desc>
<time>2011-05-22T10:48:14.38</time>
<name>10047</name>
<sym>Dot</sym>
</trkpt>
<trkpt lat="39.755345" lon="-8.465035">
<ele>201.5</ele>
<desc>Speed 4.8 km/h Distance 48.65 km</desc>
<time>2011-05-22T10:48:15.38</time>
<name>10048</name>
<sym>Dot</sym>
</trkpt>
<trkpt lat="39.755327" lon="-8.465025">
<ele>202.0</ele>
<desc>Speed 8.1 km/h Distance 48.66 km</desc>
<time>2011-05-22T10:48:16.38</time>
<name>10049</name>
<sym>Dot</sym>
</trkpt>
<trkpt lat="39.755317" lon="-8.465013">
<ele>202.0</ele>
<desc>Speed 5.5 km/h Distance 48.66 km</desc>
<time>2011-05-22T10:48:17.38</time>
<name>10050</name>
<sym>Dot</sym>
</trkpt>
<trkpt lat="39.755303" lon="-8.465003">
<ele>201.5</ele>
<desc>Speed 6.4 km/h Distance 48.66 km</desc>
<time>2011-05-22T10:48:18.38</time>
<name>10051</name>
<sym>Dot</sym>
</trkpt>
<trkpt lat="39.755282" lon="-8.464990">
<ele>203.5</ele>
<desc>Speed 8.9 km/h Distance 48.66 km</desc>
<time>2011-05-22T10:48:19.38</time>
<name>10052</name>
<sym>Dot</sym>
</trkpt>
<trkpt lat="39.755262" lon="-8.464978">
<ele>204.5</ele>
<desc>Speed 8.9 km/h Distance 48.66 km</desc>
<time>2011-05-22T10:48:20.38</time>
<name>10053</name>
<sym>Dot</sym>
</trkpt>
<trkpt lat="39.755243" lon="-8.464963">
<ele>204.5</ele>
<desc>Speed 8.7 km/h Distance 48.67 km</desc>
<time>2011-05-22T10:48:21.38</time>
<name>10054</name>
<sym>Dot</sym>
</trkpt>
<trkpt lat="39.755223" lon="-8.464950">
<ele>204.5</ele>
<desc>Speed 9.1 km/h Distance 48.67 km</desc>
<time>2011-05-22T10:48:22.38</time>
<name>10055</name>
<sym>Dot</sym>
</trkpt>
<trkpt lat="39.755202" lon="-8.464938">
<ele>205.5</ele>
<desc>Speed 8.8 km/h Distance 48.67 km</desc>
<time>2011-05-22T10:48:23.38</time>
<name>10056</name>
<sym>Dot</sym>
</trkpt>
<trkpt lat="39.755185" lon="-8.464928">
<ele>206.5</ele>
<desc>Speed 8.1 km/h Distance 48.67 km</desc>
<time>2011-05-22T10:48:24.38</time>
<name>10057</name>
<sym>Dot</sym>
</trkpt>
<trkpt lat="39.755167" lon="-8.464918">
<ele>207.0</ele>
<desc>Speed 7.9 km/h Distance 48.68 km</desc>
<time>2011-05-22T10:48:25.38</time>
<name>10058</name>
<sym>Dot</sym>
</trkpt>
<trkpt lat="39.755148" lon="-8.464907">
<ele>207.0</ele>
<desc>Speed 7.7 km/h Distance 48.68 km</desc>
<time>2011-05-22T10:48:26.38</time>
<name>10059</name>
<sym>Dot</sym>
</trkpt>
<trkpt lat="39.755133" lon="-8.464897">
<ele>207.5</ele>
<desc>Speed 7.1 km/h Distance 48.68 km</desc>
<time>2011-05-22T10:48:27.38</time>
<name>10060</name>
<sym>Dot</sym>
</trkpt>
<trkpt lat="39.755115" lon="-8.464888">
<ele>208.0</ele>
<desc>Speed 7.2 km/h Distance 48.68 km</desc>
<time>2011-05-22T10:48:28.38</time>
<name>10061</name>
<sym>Dot</sym>
</trkpt>
<trkpt lat="39.755100" lon="-8.464878">
<ele>208.5</ele>
<desc>Speed 6.8 km/h Distance 48.68 km</desc>
<time>2011-05-22T10:48:29.38</time>
<name>10062</name>
<sym>Dot</sym>
</trkpt>
<trkpt lat="39.755083" lon="-8.464868">
<ele>209.5</ele>
<desc>Speed 6.7 km/h Distance 48.69 km</desc>
<time>2011-05-22T10:48:30.38</time>
<name>10063</name>
<sym>Dot</sym>
</trkpt>
<trkpt lat="39.755067" lon="-8.464858">
<ele>209.5</ele>
<desc>Speed 8.1 km/h Distance 48.69 km</desc>
<time>2011-05-22T10:48:31.38</time>
<name>10064</name>
<sym>Dot</sym>
</trkpt>
<trkpt lat="39.755047" lon="-8.464848">
<ele>209.0</ele>
<desc>Speed 8.3 km/h Distance 48.69 km</desc>
<time>2011-05-22T10:48:32.38</time>
<name>10065</name>
<sym>Dot</sym>
</trkpt>
<trkpt lat="39.755027" lon="-8.464842">
<ele>209.5</ele>
<desc>Speed 8.3 km/h Distance 48.69 km</desc>
<time>2011-05-22T10:48:33.38</time>
<name>10066</name>
<sym>Dot</sym>
</trkpt>
<trkpt lat="39.755010" lon="-8.464835">
<ele>210.0</ele>
<desc>Speed 7.4 km/h Distance 48.70 km</desc>
<time>2011-05-22T10:48:34.38</time>
<name>10067</name>
<sym>Dot</sym>
</trkpt>
<trkpt lat="39.754992" lon="-8.464827">
<ele>210.0</ele>
<desc>Speed 7.7 km/h Distance 48.70 km</desc>
<time>2011-05-22T10:48:35.38</time>
<name>10068</name>
<sym>Dot</sym>
</trkpt>
<trkpt lat="39.754973" lon="-8.464818">
<ele>209.5</ele>
<desc>Speed 7.9 km/h Distance 48.70 km</desc>
<time>2011-05-22T10:48:36.38</time>
<name>10069</name>
<sym>Dot</sym>
</trkpt>
<trkpt lat="39.754957" lon="-8.464810">
<ele>209.5</ele>
<desc>Speed 7.2 km/h Distance 48.70 km</desc>
<time>2011-05-22T10:48:37.38</time>
<name>10070</name>
<sym>Dot</sym>
</trkpt>
<trkpt lat="39.754937" lon="-8.464800">
<ele>209.5</ele>
<desc>Speed 8.4 km/h Distance 48.70 km</desc>
<time>2011-05-22T10:48:38.38</time>
<name>10071</name>
<sym>Dot</sym>
</trkpt>
<trkpt lat="39.754917" lon="-8.464790">
<ele>209.5</ele>
<desc>Speed 8.5 km/h Distance 48.71 km</desc>
<time>2011-05-22T10:48:39.38</time>
<name>10072</name>
<sym>Dot</sym>
</trkpt>
<trkpt lat="39.754897" lon="-8.464778">
<ele>209.5</ele>
<desc>Speed 8.3 km/h Distance 48.71 km</desc>
<time>2011-05-22T10:48:40.38</time>
<name>10073</name>
<sym>Dot</sym>
</trkpt>
<trkpt lat="39.754877" lon="-8.464767">
<ele>211.0</ele>
<desc>Speed 8.2 km/h Distance 48.71 km</desc>
<time>2011-05-22T10:48:41.38</time>
<name>10074</name>
<sym>Dot</sym>
</trkpt>
<trkpt lat="39.754857" lon="-8.464757">
<ele>211.5</ele>
<desc>Speed 8.7 km/h Distance 48.71 km</desc>
<time>2011-05-22T10:48:42.38</time>
<name>10075</name>
<sym>Dot</sym>
</trkpt>
<trkpt lat="39.754837" lon="-8.464743">
<ele>212.5</ele>
<desc>Speed 8.6 km/h Distance 48.72 km</desc>
<time>2011-05-22T10:48:43.38</time>
<name>10076</name>
<sym>Dot</sym>
</trkpt>
<trkpt lat="39.754820" lon="-8.464728">
<ele>212.5</ele>
<desc>Speed 8.2 km/h Distance 48.72 km</desc>
<time>2011-05-22T10:48:44.38</time>
<name>10077</name>
<sym>Dot</sym>
</trkpt>
<trkpt lat="39.754803" lon="-8.464712">
<ele>213.0</ele>
<desc>Speed 8.2 km/h Distance 48.72 km</desc>
<time>2011-05-22T10:48:45.38</time>
<name>10078</name>
<sym>Dot</sym>
</trkpt>
<trkpt lat="39.754785" lon="-8.464695">
<ele>213.5</ele>
<desc>Speed 8.6 km/h Distance 48.72 km</desc>
<time>2011-05-22T10:48:46.38</time>
<name>10079</name>
<sym>Dot</sym>
</trkpt>
<trkpt lat="39.754767" lon="-8.464678">
<ele>213.5</ele>
<desc>Speed 8.6 km/h Distance 48.73 km</desc>
<time>2011-05-22T10:48:47.38</time>
<name>10080</name>
<sym>Dot</sym>
</trkpt>
<trkpt lat="39.754750" lon="-8.464662">
<ele>213.5</ele>
<desc>Speed 8.1 km/h Distance 48.73 km</desc>
<time>2011-05-22T10:48:48.38</time>
<name>10081</name>
<sym>Dot</sym>
</trkpt>
<trkpt lat="39.754735" lon="-8.464642">
<ele>214.0</ele>
<desc>Speed 8.8 km/h Distance 48.73 km</desc>
<time>2011-05-22T10:48:49.38</time>
<name>10082</name>
<sym>Dot</sym>
</trkpt>
<trkpt lat="39.754720" lon="-8.464618">
<ele>214.0</ele>
<desc>Speed 9.2 km/h Distance 48.73 km</desc>
<time>2011-05-22T10:48:50.38</time>
<name>10083</name>
<sym>Dot</sym>
</trkpt>
<trkpt lat="39.754705" lon="-8.464593">
<ele>213.5</ele>
<desc>Speed 9.4 km/h Distance 48.74 km</desc>
<time>2011-05-22T10:48:51.38</time>
<name>10084</name>
<sym>Dot</sym>
</trkpt>
<trkpt lat="39.754690" lon="-8.464572">
<ele>214.5</ele>
<desc>Speed 8.7 km/h Distance 48.74 km</desc>
<time>2011-05-22T10:48:52.38</time>
<name>10085</name>
<sym>Dot</sym>
</trkpt>
<trkpt lat="39.754675" lon="-8.464550">
<ele>215.0</ele>
<desc>Speed 8.7 km/h Distance 48.74 km</desc>
<time>2011-05-22T10:48:53.38</time>
<name>10086</name>
<sym>Dot</sym>
</trkpt>
<trkpt lat="39.754660" lon="-8.464528">
<ele>215.5</ele>
<desc>Speed 8.6 km/h Distance 48.74 km</desc>
<time>2011-05-22T10:48:54.38</time>
<name>10087</name>
<sym>Dot</sym>
</trkpt>
<trkpt lat="39.754647" lon="-8.464503">
<ele>215.5</ele>
<desc>Speed 9.4 km/h Distance 48.75 km</desc>
<time>2011-05-22T10:48:55.38</time>
<name>10088</name>
<sym>Dot</sym>
</trkpt>
<trkpt lat="39.754633" lon="-8.464475">
<ele>215.5</ele>
<desc>Speed 9.9 km/h Distance 48.75 km</desc>
<time>2011-05-22T10:48:56.38</time>
<name>10089</name>
<sym>Dot</sym>
</trkpt>
<trkpt lat="39.754622" lon="-8.464445">
<ele>215.5</ele>
<desc>Speed 10.6 km/h Distance 48.75 km</desc>
<time>2011-05-22T10:48:57.38</time>
<name>10090</name>
<sym>Dot</sym>
</trkpt>
<trkpt lat="39.754607" lon="-8.464412">
<ele>214.5</ele>
<desc>Speed 11.1 km/h Distance 48.76 km</desc>
<time>2011-05-22T10:48:58.38</time>
<name>10091</name>
<sym>Dot</sym>
</trkpt>
<trkpt lat="39.754595" lon="-8.464377">
<ele>213.5</ele>
<desc>Speed 11.7 km/h Distance 48.76 km</desc>
<time>2011-05-22T10:48:59.38</time>
<name>10092</name>
<sym>Dot</sym>
</trkpt>
<trkpt lat="39.754578" lon="-8.464345">
<ele>213.0</ele>
<desc>Speed 11.8 km/h Distance 48.76 km</desc>
<time>2011-05-22T10:49:00.38</time>
<name>10093</name>
<sym>Dot</sym>
</trkpt>
<trkpt lat="39.754558" lon="-8.464313">
<ele>212.5</ele>
<desc>Speed 12.3 km/h Distance 48.77 km</desc>
<time>2011-05-22T10:49:01.38</time>
<name>10094</name>
<sym>Dot</sym>
</trkpt>
<trkpt lat="39.754540" lon="-8.464282">
<ele>212.0</ele>
<desc>Speed 12.1 km/h Distance 48.77 km</desc>
<time>2011-05-22T10:49:02.38</time>
<name>10095</name>
<sym>Dot</sym>
</trkpt>
<trkpt lat="39.754520" lon="-8.464252">
<ele>212.0</ele>
<desc>Speed 12.2 km/h Distance 48.77 km</desc>
<time>2011-05-22T10:49:03.38</time>
<name>10096</name>
<sym>Dot</sym>
</trkpt>
<trkpt lat="39.754498" lon="-8.464227">
<ele>211.5</ele>
<desc>Speed 11.8 km/h Distance 48.78 km</desc>
<time>2011-05-22T10:49:04.38</time>
<name>10097</name>
<sym>Dot</sym>
</trkpt>
<trkpt lat="39.754475" lon="-8.464203">
<ele>212.0</ele>
<desc>Speed 11.3 km/h Distance 48.78 km</desc>
<time>2011-05-22T10:49:05.38</time>
<name>10098</name>
<sym>Dot</sym>
</trkpt>
<trkpt lat="39.754452" lon="-8.464183">
<ele>212.0</ele>
<desc>Speed 11.1 km/h Distance 48.78 km</desc>
<time>2011-05-22T10:49:06.38</time>
<name>10099</name>
<sym>Dot</sym>
</trkpt>
<trkpt lat="39.754427" lon="-8.464167">
<ele>212.0</ele>
<desc>Speed 11.1 km/h Distance 48.78 km</desc>
<time>2011-05-22T10:49:07.38</time>
<name>10100</name>
<sym>Dot</sym>
</trkpt>
<trkpt lat="39.754403" lon="-8.464152">
<ele>212.0</ele>
<desc>Speed 10.8 km/h Distance 48.79 km</desc>
<time>2011-05-22T10:49:08.38</time>
<name>10101</name>
<sym>Dot</sym>
</trkpt>
<trkpt lat="39.754378" lon="-8.464140">
<ele>212.0</ele>
<desc>Speed 10.5 km/h Distance 48.79 km</desc>
<time>2011-05-22T10:49:09.38</time>
<name>10102</name>
<sym>Dot</sym>
</trkpt>
<trkpt lat="39.754353" lon="-8.464133">
<ele>212.0</ele>
<desc>Speed 10.0 km/h Distance 48.79 km</desc>
<time>2011-05-22T10:49:10.38</time>
<name>10103</name>
<sym>Dot</sym>
</trkpt>
<trkpt lat="39.754325" lon="-8.464130">
<ele>211.5</ele>
<desc>Speed 10.9 km/h Distance 48.80 km</desc>
<time>2011-05-22T10:49:11.38</time>
<name>10104</name>
<sym>Dot</sym>
</trkpt>
<trkpt lat="39.754300" lon="-8.464130">
<ele>211.5</ele>
<desc>Speed 10.3 km/h Distance 48.80 km</desc>
<time>2011-05-22T10:49:12.38</time>
<name>10105</name>
<sym>Dot</sym>
</trkpt>
<trkpt lat="39.754277" lon="-8.464132">
<ele>211.0</ele>
<desc>Speed 9.6 km/h Distance 48.80 km</desc>
<time>2011-05-22T10:49:13.38</time>
<name>10106</name>
<sym>Dot</sym>
</trkpt>
<trkpt lat="39.754255" lon="-8.464135">
<ele>211.0</ele>
<desc>Speed 8.5 km/h Distance 48.80 km</desc>
<time>2011-05-22T10:49:14.38</time>
<name>10107</name>
<sym>Dot</sym>
</trkpt>
<trkpt lat="39.754235" lon="-8.464138">
<ele>211.0</ele>
<desc>Speed 8.1 km/h Distance 48.81 km</desc>
<time>2011-05-22T10:49:15.38</time>
<name>10108</name>
<sym>Dot</sym>
</trkpt>
<trkpt lat="39.754217" lon="-8.464143">
<ele>211.0</ele>
<desc>Speed 7.3 km/h Distance 48.81 km</desc>
<time>2011-05-22T10:49:16.38</time>
<name>10109</name>
<sym>Dot</sym>
</trkpt>
<trkpt lat="39.754202" lon="-8.464152">
<ele>211.0</ele>
<desc>Speed 6.7 km/h Distance 48.81 km</desc>
<time>2011-05-22T10:49:17.38</time>
<name>10110</name>
<sym>Dot</sym>
</trkpt>
<trkpt lat="39.754185" lon="-8.464162">
<ele>210.5</ele>
<desc>Speed 6.9 km/h Distance 48.81 km</desc>
<time>2011-05-22T10:49:18.38</time>
<name>10111</name>
<sym>Dot</sym>
</trkpt>
<trkpt lat="39.754168" lon="-8.464170">
<ele>210.5</ele>
<desc>Speed 7.4 km/h Distance 48.81 km</desc>
<time>2011-05-22T10:49:19.38</time>
<name>10112</name>
<sym>Dot</sym>
</trkpt>
<trkpt lat="39.754152" lon="-8.464178">
<ele>210.0</ele>
<desc>Speed 7.7 km/h Distance 48.82 km</desc>
<time>2011-05-22T10:49:20.38</time>
<name>10113</name>
<sym>Dot</sym>
</trkpt>
<trkpt lat="39.754132" lon="-8.464190">
<ele>209.5</ele>
<desc>Speed 8.6 km/h Distance 48.82 km</desc>
<time>2011-05-22T10:49:21.38</time>
<name>10114</name>
<sym>Dot</sym>
</trkpt>
<trkpt lat="39.754113" lon="-8.464205">
<ele>209.0</ele>
<desc>Speed 8.9 km/h Distance 48.82 km</desc>
<time>2011-05-22T10:49:22.38</time>
<name>10115</name>
<sym>Dot</sym>
</trkpt>
<trkpt lat="39.754097" lon="-8.464223">
<ele>208.5</ele>
<desc>Speed 9.0 km/h Distance 48.82 km</desc>
<time>2011-05-22T10:49:23.38</time>
<name>10116</name>
<sym>Dot</sym>
</trkpt>
<trkpt lat="39.754078" lon="-8.464243">
<ele>208.0</ele>
<desc>Speed 9.1 km/h Distance 48.83 km</desc>
<time>2011-05-22T10:49:24.38</time>
<name>10117</name>
<sym>Dot</sym>
</trkpt>
<trkpt lat="39.754063" lon="-8.464262">
<ele>208.0</ele>
<desc>Speed 8.6 km/h Distance 48.83 km</desc>
<time>2011-05-22T10:49:25.38</time>
<name>10118</name>
<sym>Dot</sym>
</trkpt>
<trkpt lat="39.754048" lon="-8.464282">
<ele>208.0</ele>
<desc>Speed 8.6 km/h Distance 48.83 km</desc>
<time>2011-05-22T10:49:26.38</time>
<name>10119</name>
<sym>Dot</sym>
</trkpt>
<trkpt lat="39.754035" lon="-8.464303">
<ele>207.5</ele>
<desc>Speed 9.1 km/h Distance 48.83 km</desc>
<time>2011-05-22T10:49:27.38</time>
<name>10120</name>
<sym>Dot</sym>
</trkpt>
<trkpt lat="39.754018" lon="-8.464325">
<ele>207.0</ele>
<desc>Speed 9.6 km/h Distance 48.84 km</desc>
<time>2011-05-22T10:49:28.38</time>
<name>10121</name>
<sym>Dot</sym>
</trkpt>
<trkpt lat="39.754002" lon="-8.464347">
<ele>206.5</ele>
<desc>Speed 9.1 km/h Distance 48.84 km</desc>
<time>2011-05-22T10:49:29.38</time>
<name>10122</name>
<sym>Dot</sym>
</trkpt>
<trkpt lat="39.753985" lon="-8.464365">
<ele>206.5</ele>
<desc>Speed 9.1 km/h Distance 48.84 km</desc>
<time>2011-05-22T10:49:30.38</time>
<name>10123</name>
<sym>Dot</sym>
</trkpt>
<trkpt lat="39.753972" lon="-8.464382">
<ele>206.0</ele>
<desc>Speed 7.8 km/h Distance 48.84 km</desc>
<time>2011-05-22T10:49:31.38</time>
<name>10124</name>
<sym>Dot</sym>
</trkpt>
<trkpt lat="39.753958" lon="-8.464397">
<ele>205.5</ele>
<desc>Speed 7.0 km/h Distance 48.85 km</desc>
<time>2011-05-22T10:49:32.38</time>
<name>10125</name>
<sym>Dot</sym>
</trkpt>
<trkpt lat="39.753943" lon="-8.464417">
<ele>205.0</ele>
<desc>Speed 7.3 km/h Distance 48.85 km</desc>
<time>2011-05-22T10:49:33.38</time>
<name>10126</name>
<sym>Dot</sym>
</trkpt>
<trkpt lat="39.753930" lon="-8.464435">
<ele>204.5</ele>
<desc>Speed 7.5 km/h Distance 48.85 km</desc>
<time>2011-05-22T10:49:34.38</time>
<name>10127</name>
<sym>Dot</sym>
</trkpt>
<trkpt lat="39.753913" lon="-8.464450">
<ele>204.5</ele>
<desc>Speed 8.0 km/h Distance 48.85 km</desc>
<time>2011-05-22T10:49:35.38</time>
<name>10128</name>
<sym>Dot</sym>
</trkpt>
<trkpt lat="39.753903" lon="-8.464472">
<ele>204.5</ele>
<desc>Speed 8.1 km/h Distance 48.85 km</desc>
<time>2011-05-22T10:49:36.38</time>
<name>10129</name>
<sym>Dot</sym>
</trkpt>
<trkpt lat="39.753890" lon="-8.464495">
<ele>204.5</ele>
<desc>Speed 8.9 km/h Distance 48.86 km</desc>
<time>2011-05-22T10:49:37.38</time>
<name>10130</name>
<sym>Dot</sym>
</trkpt>
<trkpt lat="39.753877" lon="-8.464518">
<ele>204.5</ele>
<desc>Speed 9.0 km/h Distance 48.86 km</desc>
<time>2011-05-22T10:49:38.38</time>
<name>10131</name>
<sym>Dot</sym>
</trkpt>
<trkpt lat="39.753862" lon="-8.464542">
<ele>204.0</ele>
<desc>Speed 9.3 km/h Distance 48.86 km</desc>
<time>2011-05-22T10:49:39.38</time>
<name>10132</name>
<sym>Dot</sym>
</trkpt>
<trkpt lat="39.753847" lon="-8.464565">
<ele>204.5</ele>
<desc>Speed 9.2 km/h Distance 48.86 km</desc>
<time>2011-05-22T10:49:40.38</time>
<name>10133</name>
<sym>Dot</sym>
</trkpt>
<trkpt lat="39.753828" lon="-8.464582">
<ele>204.5</ele>
<desc>Speed 8.9 km/h Distance 48.87 km</desc>
<time>2011-05-22T10:49:41.38</time>
<name>10134</name>
<sym>Dot</sym>
</trkpt>
<trkpt lat="39.753812" lon="-8.464603">
<ele>204.5</ele>
<desc>Speed 9.3 km/h Distance 48.87 km</desc>
<time>2011-05-22T10:49:42.38</time>
<name>10135</name>
<sym>Dot</sym>
</trkpt>
<trkpt lat="39.753797" lon="-8.464630">
<ele>204.0</ele>
<desc>Speed 9.7 km/h Distance 48.87 km</desc>
<time>2011-05-22T10:49:43.38</time>
<name>10136</name>
<sym>Dot</sym>
</trkpt>
<trkpt lat="39.753782" lon="-8.464655">
<ele>204.0</ele>
<desc>Speed 9.9 km/h Distance 48.88 km</desc>
<time>2011-05-22T10:49:44.38</time>
<name>10137</name>
<sym>Dot</sym>
</trkpt>
<trkpt lat="39.753767" lon="-8.464682">
<ele>204.0</ele>
<desc>Speed 10.2 km/h Distance 48.88 km</desc>
<time>2011-05-22T10:49:45.38</time>
<name>10138</name>
<sym>Dot</sym>
</trkpt>
<trkpt lat="39.753750" lon="-8.464710">
<ele>204.0</ele>
<desc>Speed 10.9 km/h Distance 48.88 km</desc>
<time>2011-05-22T10:49:46.38</time>
<name>10139</name>
<sym>Dot</sym>
</trkpt>
<trkpt lat="39.753730" lon="-8.464735">
<ele>204.0</ele>
<desc>Speed 10.7 km/h Distance 48.88 km</desc>
<time>2011-05-22T10:49:47.38</time>
<name>10140</name>
<sym>Dot</sym>
</trkpt>
<trkpt lat="39.753712" lon="-8.464758">
<ele>204.0</ele>
<desc>Speed 10.4 km/h Distance 48.89 km</desc>
<time>2011-05-22T10:49:48.38</time>
<name>10141</name>
<sym>Dot</sym>
</trkpt>
<trkpt lat="39.753693" lon="-8.464778">
<ele>204.5</ele>
<desc>Speed 9.4 km/h Distance 48.89 km</desc>
<time>2011-05-22T10:49:49.38</time>
<name>10142</name>
<sym>Dot</sym>
</trkpt>
<trkpt lat="39.753677" lon="-8.464800">
<ele>204.0</ele>
<desc>Speed 9.5 km/h Distance 48.89 km</desc>
<time>2011-05-22T10:49:50.38</time>
<name>10143</name>
<sym>Dot</sym>
</trkpt>
<trkpt lat="39.753660" lon="-8.464825">
<ele>204.0</ele>
<desc>Speed 9.7 km/h Distance 48.90 km</desc>
<time>2011-05-22T10:49:51.38</time>
<name>10144</name>
<sym>Dot</sym>
</trkpt>
<trkpt lat="39.753647" lon="-8.464845">
<ele>203.5</ele>
<desc>Speed 8.8 km/h Distance 48.90 km</desc>
<time>2011-05-22T10:49:52.38</time>
<name>10145</name>
<sym>Dot</sym>
</trkpt>
<trkpt lat="39.753633" lon="-8.464870">
<ele>203.5</ele>
<desc>Speed 9.3 km/h Distance 48.90 km</desc>
<time>2011-05-22T10:49:53.38</time>
<name>10146</name>
<sym>Dot</sym>
</trkpt>
<trkpt lat="39.753617" lon="-8.464893">
<ele>203.5</ele>
<desc>Speed 9.5 km/h Distance 48.90 km</desc>
<time>2011-05-22T10:49:54.38</time>
<name>10147</name>
<sym>Dot</sym>
</trkpt>
<trkpt lat="39.753603" lon="-8.464918">
<ele>203.5</ele>
<desc>Speed 9.4 km/h Distance 48.91 km</desc>
<time>2011-05-22T10:49:55.38</time>
<name>10148</name>
<sym>Dot</sym>
</trkpt>
<trkpt lat="39.753587" lon="-8.464938">
<ele>204.0</ele>
<desc>Speed 8.7 km/h Distance 48.91 km</desc>
<time>2011-05-22T10:49:56.38</time>
<name>10149</name>
<sym>Dot</sym>
</trkpt>
<trkpt lat="39.753573" lon="-8.464962">
<ele>204.0</ele>
<desc>Speed 9.3 km/h Distance 48.91 km</desc>
<time>2011-05-22T10:49:57.38</time>
<name>10150</name>
<sym>Dot</sym>
</trkpt>
<trkpt lat="39.753558" lon="-8.464985">
<ele>204.0</ele>
<desc>Speed 9.2 km/h Distance 48.91 km</desc>
<time>2011-05-22T10:49:58.38</time>
<name>10151</name>
<sym>Dot</sym>
</trkpt>
<trkpt lat="39.753543" lon="-8.465007">
<ele>204.0</ele>
<desc>Speed 9.2 km/h Distance 48.92 km</desc>
<time>2011-05-22T10:49:59.38</time>
<name>10152</name>
<sym>Dot</sym>
</trkpt>
<trkpt lat="39.753525" lon="-8.465028">
<ele>204.0</ele>
<desc>Speed 9.3 km/h Distance 48.92 km</desc>
<time>2011-05-22T10:50:00.38</time>
<name>10153</name>
<sym>Dot</sym>
</trkpt>
<trkpt lat="39.753510" lon="-8.465053">
<ele>204.0</ele>
<desc>Speed 9.3 km/h Distance 48.92 km</desc>
<time>2011-05-22T10:50:01.38</time>
<name>10154</name>
<sym>Dot</sym>
</trkpt>
<trkpt lat="39.753498" lon="-8.465078">
<ele>204.0</ele>
<desc>Speed 9.1 km/h Distance 48.92 km</desc>
<time>2011-05-22T10:50:02.38</time>
<name>10155</name>
<sym>Dot</sym>
</trkpt>
<trkpt lat="39.753488" lon="-8.465102">
<ele>204.5</ele>
<desc>Speed 8.6 km/h Distance 48.93 km</desc>
<time>2011-05-22T10:50:03.38</time>
<name>10156</name>
<sym>Dot</sym>
</trkpt>
<trkpt lat="39.753475" lon="-8.465125">
<ele>204.5</ele>
<desc>Speed 8.2 km/h Distance 48.93 km</desc>
<time>2011-05-22T10:50:04.38</time>
<name>10157</name>
<sym>Dot</sym>
</trkpt>
<trkpt lat="39.753463" lon="-8.465143">
<ele>204.5</ele>
<desc>Speed 7.5 km/h Distance 48.93 km</desc>
<time>2011-05-22T10:50:05.38</time>
<name>10158</name>
<sym>Dot</sym>
</trkpt>
<trkpt lat="39.753455" lon="-8.465162">
<ele>204.5</ele>
<desc>Speed 6.6 km/h Distance 48.93 km</desc>
<time>2011-05-22T10:50:06.38</time>
<name>10159</name>
<sym>Dot</sym>
</trkpt>
<trkpt lat="39.753445" lon="-8.465180">
<ele>204.5</ele>
<desc>Speed 6.0 km/h Distance 48.93 km</desc>
<time>2011-05-22T10:50:07.38</time>
<name>10160</name>
<sym>Dot</sym>
</trkpt>
<trkpt lat="39.753433" lon="-8.465193">
<ele>205.0</ele>
<desc>Speed 5.7 km/h Distance 48.94 km</desc>
<time>2011-05-22T10:50:08.38</time>
<name>10161</name>
<sym>Dot</sym>
</trkpt>
<trkpt lat="39.753423" lon="-8.465208">
<ele>205.5</ele>
<desc>Speed 5.4 km/h Distance 48.94 km</desc>
<time>2011-05-22T10:50:09.38</time>
<name>10162</name>
<sym>Dot</sym>
</trkpt>
<trkpt lat="39.753413" lon="-8.465223">
<ele>206.0</ele>
<desc>Speed 5.7 km/h Distance 48.94 km</desc>
<time>2011-05-22T10:50:10.38</time>
<name>10163</name>
<sym>Dot</sym>
</trkpt>
<trkpt lat="39.753403" lon="-8.465227">
<ele>206.0</ele>
<desc>Speed 3.9 km/h Distance 48.94 km</desc>
<time>2011-05-22T10:50:11.38</time>
<name>10164</name>
<sym>Dot</sym>
</trkpt>
<trkpt lat="39.753392" lon="-8.465247">
<ele>206.0</ele>
<desc>Speed 7.5 km/h Distance 48.94 km</desc>
<time>2011-05-22T10:50:12.38</time>
<name>10165</name>
<sym>Dot</sym>
</trkpt>
<trkpt lat="39.753380" lon="-8.465265">
<ele>206.5</ele>
<desc>Speed 6.9 km/h Distance 48.94 km</desc>
<time>2011-05-22T10:50:13.38</time>
<name>10166</name>
<sym>Dot</sym>
</trkpt>
<trkpt lat="39.753367" lon="-8.465280">
<ele>207.5</ele>
<desc>Speed 6.5 km/h Distance 48.95 km</desc>
<time>2011-05-22T10:50:14.38</time>
<name>10167</name>
<sym>Dot</sym>
</trkpt>
<trkpt lat="39.753353" lon="-8.465293">
<ele>208.5</ele>
<desc>Speed 6.4 km/h Distance 48.95 km</desc>
<time>2011-05-22T10:50:15.38</time>
<name>10168</name>
<sym>Dot</sym>
</trkpt>
<trkpt lat="39.753340" lon="-8.465307">
<ele>209.5</ele>
<desc>Speed 6.7 km/h Distance 48.95 km</desc>
<time>2011-05-22T10:50:16.38</time>
<name>10169</name>
<sym>Dot</sym>
</trkpt>
<trkpt lat="39.753325" lon="-8.465323">
<ele>209.5</ele>
<desc>Speed 7.7 km/h Distance 48.95 km</desc>
<time>2011-05-22T10:50:17.38</time>
<name>10170</name>
<sym>Dot</sym>
</trkpt>
<trkpt lat="39.753312" lon="-8.465343">
<ele>210.0</ele>
<desc>Speed 7.5 km/h Distance 48.95 km</desc>
<time>2011-05-22T10:50:18.38</time>
<name>10171</name>
<sym>Dot</sym>
</trkpt>
<trkpt lat="39.753305" lon="-8.465360">
<ele>211.5</ele>
<desc>Speed 5.5 km/h Distance 48.96 km</desc>
<time>2011-05-22T10:50:19.38</time>
<name>10172</name>
<sym>Dot</sym>
</trkpt>
<trkpt lat="39.753295" lon="-8.465380">
<ele>212.5</ele>
<desc>Speed 7.2 km/h Distance 48.96 km</desc>
<time>2011-05-22T10:50:20.38</time>
<name>10173</name>
<sym>Dot</sym>
</trkpt>
<trkpt lat="39.753282" lon="-8.465400">
<ele>212.5</ele>
<desc>Speed 8.2 km/h Distance 48.96 km</desc>
<time>2011-05-22T10:50:21.38</time>
<name>10174</name>
<sym>Dot</sym>
</trkpt>
<trkpt lat="39.753270" lon="-8.465425">
<ele>212.5</ele>
<desc>Speed 8.4 km/h Distance 48.96 km</desc>
<time>2011-05-22T10:50:22.38</time>
<name>10175</name>
<sym>Dot</sym>
</trkpt>
<trkpt lat="39.753257" lon="-8.465442">
<ele>213.0</ele>
<desc>Speed 7.3 km/h Distance 48.97 km</desc>
<time>2011-05-22T10:50:23.38</time>
<name>10176</name>
<sym>Dot</sym>
</trkpt>
<trkpt lat="39.753243" lon="-8.465458">
<ele>213.5</ele>
<desc>Speed 7.2 km/h Distance 48.97 km</desc>
<time>2011-05-22T10:50:24.38</time>
<name>10177</name>
<sym>Dot</sym>
</trkpt>
<trkpt lat="39.753232" lon="-8.465472">
<ele>213.5</ele>
<desc>Speed 6.5 km/h Distance 48.97 km</desc>
<time>2011-05-22T10:50:25.38</time>
<name>10178</name>
<sym>Dot</sym>
</trkpt>
<trkpt lat="39.753218" lon="-8.465480">
<ele>214.0</ele>
<desc>Speed 5.9 km/h Distance 48.97 km</desc>
<time>2011-05-22T10:50:26.38</time>
<name>10179</name>
<sym>Dot</sym>
</trkpt>
<trkpt lat="39.753205" lon="-8.465490">
<ele>214.5</ele>
<desc>Speed 5.9 km/h Distance 48.97 km</desc>
<time>2011-05-22T10:50:27.38</time>
<name>10180</name>
<sym>Dot</sym>
</trkpt>
<trkpt lat="39.753193" lon="-8.465503">
<ele>215.0</ele>
<desc>Speed 6.2 km/h Distance 48.97 km</desc>
<time>2011-05-22T10:50:28.38</time>
<name>10181</name>
<sym>Dot</sym>
</trkpt>
<trkpt lat="39.753180" lon="-8.465517">
<ele>215.5</ele>
<desc>Speed 6.5 km/h Distance 48.98 km</desc>
<time>2011-05-22T10:50:29.38</time>
<name>10182</name>
<sym>Dot</sym>
</trkpt>
<trkpt lat="39.753170" lon="-8.465528">
<ele>216.0</ele>
<desc>Speed 5.5 km/h Distance 48.98 km</desc>
<time>2011-05-22T10:50:30.38</time>
<name>10183</name>
<sym>Dot</sym>
</trkpt>
<trkpt lat="39.753158" lon="-8.465543">
<ele>216.0</ele>
<desc>Speed 6.3 km/h Distance 48.98 km</desc>
<time>2011-05-22T10:50:31.38</time>
<name>10184</name>
<sym>Dot</sym>
</trkpt>
<trkpt lat="39.753147" lon="-8.465555">
<ele>217.0</ele>
<desc>Speed 5.7 km/h Distance 48.98 km</desc>
<time>2011-05-22T10:50:32.38</time>
<name>10185</name>
<sym>Dot</sym>
</trkpt>
<trkpt lat="39.753133" lon="-8.465575">
<ele>217.0</ele>
<desc>Speed 6.8 km/h Distance 48.98 km</desc>
<time>2011-05-22T10:50:33.38</time>
<name>10186</name>
<sym>Dot</sym>
</trkpt>
<trkpt lat="39.753122" lon="-8.465592">
<ele>217.0</ele>
<desc>Speed 7.2 km/h Distance 48.98 km</desc>
<time>2011-05-22T10:50:34.38</time>
<name>10187</name>
<sym>Dot</sym>
</trkpt>
<trkpt lat="39.753108" lon="-8.465608">
<ele>217.0</ele>
<desc>Speed 6.6 km/h Distance 48.99 km</desc>
<time>2011-05-22T10:50:35.38</time>
<name>10188</name>
<sym>Dot</sym>
</trkpt>
<trkpt lat="39.753097" lon="-8.465623">
<ele>217.5</ele>
<desc>Speed 6.0 km/h Distance 48.99 km</desc>
<time>2011-05-22T10:50:36.38</time>
<name>10189</name>
<sym>Dot</sym>
</trkpt>
<trkpt lat="39.753085" lon="-8.465637">
<ele>218.0</ele>
<desc>Speed 6.3 km/h Distance 48.99 km</desc>
<time>2011-05-22T10:50:37.38</time>
<name>10190</name>
<sym>Dot</sym>
</trkpt>
<trkpt lat="39.753073" lon="-8.465652">
<ele>218.0</ele>
<desc>Speed 6.4 km/h Distance 48.99 km</desc>
<time>2011-05-22T10:50:38.38</time>
<name>10191</name>
<sym>Dot</sym>
</trkpt>
<trkpt lat="39.753062" lon="-8.465663">
<ele>218.5</ele>
<desc>Speed 5.8 km/h Distance 48.99 km</desc>
<time>2011-05-22T10:50:39.38</time>
<name>10192</name>
<sym>Dot</sym>
</trkpt>
<trkpt lat="39.753050" lon="-8.465678">
<ele>218.0</ele>
<desc>Speed 5.8 km/h Distance 49.00 km</desc>
<time>2011-05-22T10:50:40.38</time>
<name>10193</name>
<sym>Dot</sym>
</trkpt>
<trkpt lat="39.753038" lon="-8.465695">
<ele>218.0</ele>
<desc>Speed 5.9 km/h Distance 49.00 km</desc>
<time>2011-05-22T10:50:41.38</time>
<name>10194</name>
<sym>Dot</sym>
</trkpt>
<trkpt lat="39.753023" lon="-8.465712">
<ele>217.5</ele>
<desc>Speed 6.2 km/h Distance 49.00 km</desc>
<time>2011-05-22T10:50:42.38</time>
<name>10195</name>
<sym>Dot</sym>
</trkpt>
<trkpt lat="39.753013" lon="-8.465727">
<ele>217.5</ele>
<desc>Speed 5.9 km/h Distance 49.00 km</desc>
<time>2011-05-22T10:50:43.38</time>
<name>10196</name>
<sym>Dot</sym>
</trkpt>
<trkpt lat="39.753002" lon="-8.465743">
<ele>218.0</ele>
<desc>Speed 6.3 km/h Distance 49.00 km</desc>
<time>2011-05-22T10:50:44.38</time>
<name>10197</name>
<sym>Dot</sym>
</trkpt>
<trkpt lat="39.752992" lon="-8.465760">
<ele>218.5</ele>
<desc>Speed 6.3 km/h Distance 49.01 km</desc>
<time>2011-05-22T10:50:45.38</time>
<name>10198</name>
<sym>Dot</sym>
</trkpt>
<trkpt lat="39.752980" lon="-8.465775">
<ele>218.5</ele>
<desc>Speed 6.9 km/h Distance 49.01 km</desc>
<time>2011-05-22T10:50:46.38</time>
<name>10199</name>
<sym>Dot</sym>
</trkpt>
<trkpt lat="39.752968" lon="-8.465790">
<ele>219.0</ele>
<desc>Speed 6.4 km/h Distance 49.01 km</desc>
<time>2011-05-22T10:50:47.38</time>
<name>10200</name>
<sym>Dot</sym>
</trkpt>
<trkpt lat="39.752953" lon="-8.465803">
<ele>219.0</ele>
<desc>Speed 6.7 km/h Distance 49.01 km</desc>
<time>2011-05-22T10:50:48.38</time>
<name>10201</name>
<sym>Dot</sym>
</trkpt>
<trkpt lat="39.752940" lon="-8.465817">
<ele>219.5</ele>
<desc>Speed 6.8 km/h Distance 49.01 km</desc>
<time>2011-05-22T10:50:49.38</time>
<name>10202</name>
<sym>Dot</sym>
</trkpt>
<trkpt lat="39.752928" lon="-8.465832">
<ele>220.0</ele>
<desc>Speed 6.8 km/h Distance 49.01 km</desc>
<time>2011-05-22T10:50:50.38</time>
<name>10203</name>
<sym>Dot</sym>
</trkpt>
<trkpt lat="39.752913" lon="-8.465855">
<ele>219.5</ele>
<desc>Speed 7.2 km/h Distance 49.02 km</desc>
<time>2011-05-22T10:50:51.38</time>
<name>10204</name>
<sym>Dot</sym>
</trkpt>
<trkpt lat="39.752900" lon="-8.465882">
<ele>219.0</ele>
<desc>Speed 8.0 km/h Distance 49.02 km</desc>
<time>2011-05-22T10:50:52.38</time>
<name>10205</name>
<sym>Dot</sym>
</trkpt>
<trkpt lat="39.752885" lon="-8.465903">
<ele>219.0</ele>
<desc>Speed 7.5 km/h Distance 49.02 km</desc>
<time>2011-05-22T10:50:53.38</time>
<name>10206</name>
<sym>Dot</sym>
</trkpt>
<trkpt lat="39.752873" lon="-8.465920">
<ele>219.0</ele>
<desc>Speed 7.0 km/h Distance 49.02 km</desc>
<time>2011-05-22T10:50:54.38</time>
<name>10207</name>
<sym>Dot</sym>
</trkpt>
<trkpt lat="39.752862" lon="-8.465935">
<ele>219.5</ele>
<desc>Speed 6.7 km/h Distance 49.03 km</desc>
<time>2011-05-22T10:50:55.38</time>
<name>10208</name>
<sym>Dot</sym>
</trkpt>
<trkpt lat="39.752848" lon="-8.465957">
<ele>218.5</ele>
<desc>Speed 6.6 km/h Distance 49.03 km</desc>
<time>2011-05-22T10:50:56.38</time>
<name>10209</name>
<sym>Dot</sym>
</trkpt>
<trkpt lat="39.752835" lon="-8.465980">
<ele>218.0</ele>
<desc>Speed 6.8 km/h Distance 49.03 km</desc>
<time>2011-05-22T10:50:57.38</time>
<name>10210</name>
<sym>Dot</sym>
</trkpt>
<trkpt lat="39.752818" lon="-8.466002">
<ele>217.5</ele>
<desc>Speed 7.1 km/h Distance 49.03 km</desc>
<time>2011-05-22T10:50:58.38</time>
<name>10211</name>
<sym>Dot</sym>
</trkpt>
<trkpt lat="39.752808" lon="-8.466017">
<ele>218.0</ele>
<desc>Speed 6.2 km/h Distance 49.04 km</desc>
<time>2011-05-22T10:50:59.38</time>
<name>10212</name>
<sym>Dot</sym>
</trkpt>
<trkpt lat="39.752798" lon="-8.466035">
<ele>218.0</ele>
<desc>Speed 6.7 km/h Distance 49.04 km</desc>
<time>2011-05-22T10:51:00.38</time>
<name>10213</name>
<sym>Dot</sym>
</trkpt>
<trkpt lat="39.752788" lon="-8.466052">
<ele>218.5</ele>
<desc>Speed 6.8 km/h Distance 49.04 km</desc>
<time>2011-05-22T10:51:01.38</time>
<name>10214</name>
<sym>Dot</sym>
</trkpt>
<trkpt lat="39.752777" lon="-8.466070">
<ele>218.5</ele>
<desc>Speed 6.3 km/h Distance 49.04 km</desc>
<time>2011-05-22T10:51:02.38</time>
<name>10215</name>
<sym>Dot</sym>
</trkpt>
<trkpt lat="39.752763" lon="-8.466090">
<ele>218.0</ele>
<desc>Speed 6.6 km/h Distance 49.04 km</desc>
<time>2011-05-22T10:51:03.38</time>
<name>10216</name>
<sym>Dot</sym>
</trkpt>
<trkpt lat="39.752752" lon="-8.466110">
<ele>218.0</ele>
<desc>Speed 5.9 km/h Distance 49.05 km</desc>
<time>2011-05-22T10:51:04.38</time>
<name>10217</name>
<sym>Dot</sym>
</trkpt>
<trkpt lat="39.752742" lon="-8.466135">
<ele>217.5</ele>
<desc>Speed 6.1 km/h Distance 49.05 km</desc>
<time>2011-05-22T10:51:05.38</time>
<name>10218</name>
<sym>Dot</sym>
</trkpt>
<trkpt lat="39.752732" lon="-8.466157">
<ele>217.5</ele>
<desc>Speed 5.4 km/h Distance 49.05 km</desc>
<time>2011-05-22T10:51:06.38</time>
<name>10219</name>
<sym>Dot</sym>
</trkpt>
<trkpt lat="39.752723" lon="-8.466178">
<ele>217.5</ele>
<desc>Speed 5.9 km/h Distance 49.05 km</desc>
<time>2011-05-22T10:51:07.38</time>
<name>10220</name>
<sym>Dot</sym>
</trkpt>
<trkpt lat="39.752715" lon="-8.466203">
<ele>217.0</ele>
<desc>Speed 6.7 km/h Distance 49.05 km</desc>
<time>2011-05-22T10:51:08.38</time>
<name>10221</name>
<sym>Dot</sym>
</trkpt>
<trkpt lat="39.752710" lon="-8.466225">
<ele>217.0</ele>
<desc>Speed 6.7 km/h Distance 49.06 km</desc>
<time>2011-05-22T10:51:09.38</time>
<name>10222</name>
<sym>Dot</sym>
</trkpt>
<trkpt lat="39.752703" lon="-8.466243">
<ele>217.5</ele>
<desc>Speed 6.4 km/h Distance 49.06 km</desc>
<time>2011-05-22T10:51:10.38</time>
<name>10223</name>
<sym>Dot</sym>
</trkpt>
<trkpt lat="39.752698" lon="-8.466265">
<ele>217.5</ele>
<desc>Speed 6.7 km/h Distance 49.06 km</desc>
<time>2011-05-22T10:51:11.38</time>
<name>10224</name>
<sym>Dot</sym>
</trkpt>
<trkpt lat="39.752693" lon="-8.466282">
<ele>218.0</ele>
<desc>Speed 5.3 km/h Distance 49.06 km</desc>
<time>2011-05-22T10:51:12.38</time>
<name>10225</name>
<sym>Dot</sym>
</trkpt>
<trkpt lat="39.752690" lon="-8.466300">
<ele>219.0</ele>
<desc>Speed 5.8 km/h Distance 49.06 km</desc>
<time>2011-05-22T10:51:13.38</time>
<name>10226</name>
<sym>Dot</sym>
</trkpt>
<trkpt lat="39.752688" lon="-8.466318">
<ele>219.5</ele>
<desc>Speed 5.6 km/h Distance 49.07 km</desc>
<time>2011-05-22T10:51:14.38</time>
<name>10227</name>
<sym>Dot</sym>
</trkpt>
<trkpt lat="39.752685" lon="-8.466333">
<ele>220.0</ele>
<desc>Speed 4.8 km/h Distance 49.07 km</desc>
<time>2011-05-22T10:51:15.38</time>
<name>10228</name>
<sym>Dot</sym>
</trkpt>
<trkpt lat="39.752680" lon="-8.466352">
<ele>219.5</ele>
<desc>Speed 4.7 km/h Distance 49.07 km</desc>
<time>2011-05-22T10:51:16.38</time>
<name>10229</name>
<sym>Dot</sym>
</trkpt>
<trkpt lat="39.752675" lon="-8.466372">
<ele>219.5</ele>
<desc>Speed 5.1 km/h Distance 49.07 km</desc>
<time>2011-05-22T10:51:17.38</time>
<name>10230</name>
<sym>Dot</sym>
</trkpt>
<trkpt lat="39.752673" lon="-8.466388">
<ele>220.0</ele>
<desc>Speed 5.2 km/h Distance 49.07 km</desc>
<time>2011-05-22T10:51:18.38</time>
<name>10231</name>
<sym>Dot</sym>
</trkpt>
<trkpt lat="39.752672" lon="-8.466405">
<ele>221.0</ele>
<desc>Speed 4.8 km/h Distance 49.07 km</desc>
<time>2011-05-22T10:51:19.38</time>
<name>10232</name>
<sym>Dot</sym>
</trkpt>
<trkpt lat="39.752672" lon="-8.466427">
<ele>221.0</ele>
<desc>Speed 5.8 km/h Distance 49.07 km</desc>
<time>2011-05-22T10:51:20.38</time>
<name>10233</name>
<sym>Dot</sym>
</trkpt>
<trkpt lat="39.752673" lon="-8.466447">
<ele>221.0</ele>
<desc>Speed 6.4 km/h Distance 49.08 km</desc>
<time>2011-05-22T10:51:21.38</time>
<name>10234</name>
<sym>Dot</sym>
</trkpt>
<trkpt lat="39.752675" lon="-8.466473">
<ele>221.0</ele>
<desc>Speed 6.8 km/h Distance 49.08 km</desc>
<time>2011-05-22T10:51:22.38</time>
<name>10235</name>
<sym>Dot</sym>
</trkpt>
<trkpt lat="39.752675" lon="-8.466505">
<ele>221.0</ele>
<desc>Speed 7.2 km/h Distance 49.08 km</desc>
<time>2011-05-22T10:51:23.38</time>
<name>10236</name>
<sym>Dot</sym>
</trkpt>
<trkpt lat="39.752678" lon="-8.466528">
<ele>221.0</ele>
<desc>Speed 7.3 km/h Distance 49.08 km</desc>
<time>2011-05-22T10:51:24.38</time>
<name>10237</name>
<sym>Dot</sym>
</trkpt>
<trkpt lat="39.752682" lon="-8.466552">
<ele>221.5</ele>
<desc>Speed 7.3 km/h Distance 49.09 km</desc>
<time>2011-05-22T10:51:25.38</time>
<name>10238</name>
<sym>Dot</sym>
</trkpt>
<trkpt lat="39.752683" lon="-8.466572">
<ele>222.0</ele>
<desc>Speed 6.3 km/h Distance 49.09 km</desc>
<time>2011-05-22T10:51:26.38</time>
<name>10239</name>
<sym>Dot</sym>
</trkpt>
<trkpt lat="39.752682" lon="-8.466597">
<ele>222.0</ele>
<desc>Speed 6.0 km/h Distance 49.09 km</desc>
<time>2011-05-22T10:51:27.38</time>
<name>10240</name>
<sym>Dot</sym>
</trkpt>
<trkpt lat="39.752678" lon="-8.466620">
<ele>221.5</ele>
<desc>Speed 4.5 km/h Distance 49.09 km</desc>
<time>2011-05-22T10:51:28.38</time>
<name>10241</name>
<sym>Dot</sym>
</trkpt>
<trkpt lat="39.752677" lon="-8.466648">
<ele>221.0</ele>
<desc>Speed 5.5 km/h Distance 49.09 km</desc>
<time>2011-05-22T10:51:29.38</time>
<name>10242</name>
<sym>Dot</sym>
</trkpt>
<trkpt lat="39.752673" lon="-8.466670">
<ele>220.5</ele>
<desc>Speed 5.3 km/h Distance 49.10 km</desc>
<time>2011-05-22T10:51:30.38</time>
<name>10243</name>
<sym>Dot</sym>
</trkpt>
<trkpt lat="39.752675" lon="-8.466687">
<ele>221.0</ele>
<desc>Speed 5.0 km/h Distance 49.10 km</desc>
<time>2011-05-22T10:51:31.38</time>
<name>10244</name>
<sym>Dot</sym>
</trkpt>
<trkpt lat="39.752673" lon="-8.466708">
<ele>220.0</ele>
<desc>Speed 5.3 km/h Distance 49.10 km</desc>
<time>2011-05-22T10:51:32.38</time>
<name>10245</name>
<sym>Dot</sym>
</trkpt>
<trkpt lat="39.752678" lon="-8.466728">
<ele>220.5</ele>
<desc>Speed 4.9 km/h Distance 49.10 km</desc>
<time>2011-05-22T10:51:33.38</time>
<name>10246</name>
<sym>Dot</sym>
</trkpt>
<trkpt lat="39.752680" lon="-8.466743">
<ele>220.5</ele>
<desc>Speed 4.5 km/h Distance 49.10 km</desc>
<time>2011-05-22T10:51:34.38</time>
<name>10247</name>
<sym>Dot</sym>
</trkpt>
<trkpt lat="39.752682" lon="-8.466763">
<ele>220.5</ele>
<desc>Speed 5.0 km/h Distance 49.10 km</desc>
<time>2011-05-22T10:51:35.38</time>
<name>10248</name>
<sym>Dot</sym>
</trkpt>
<trkpt lat="39.752683" lon="-8.466787">
<ele>221.0</ele>
<desc>Speed 5.9 km/h Distance 49.11 km</desc>
<time>2011-05-22T10:51:36.38</time>
<name>10249</name>
<sym>Dot</sym>
</trkpt>
<trkpt lat="39.752685" lon="-8.466807">
<ele>221.0</ele>
<desc>Speed 4.8 km/h Distance 49.11 km</desc>
<time>2011-05-22T10:51:37.38</time>
<name>10250</name>
<sym>Dot</sym>
</trkpt>
<trkpt lat="39.752692" lon="-8.466828">
<ele>222.0</ele>
<desc>Speed 4.9 km/h Distance 49.11 km</desc>
<time>2011-05-22T10:51:38.38</time>
<name>10251</name>
<sym>Dot</sym>
</trkpt>
<trkpt lat="39.752695" lon="-8.466853">
<ele>222.5</ele>
<desc>Speed 4.9 km/h Distance 49.11 km</desc>
<time>2011-05-22T10:51:39.38</time>
<name>10252</name>
<sym>Dot</sym>
</trkpt>
<trkpt lat="39.752693" lon="-8.466868">
<ele>223.0</ele>
<desc>Speed 4.3 km/h Distance 49.11 km</desc>
<time>2011-05-22T10:51:40.38</time>
<name>10253</name>
<sym>Dot</sym>
</trkpt>
<trkpt lat="39.752697" lon="-8.466888">
<ele>223.0</ele>
<desc>Speed 5.3 km/h Distance 49.11 km</desc>
<time>2011-05-22T10:51:41.38</time>
<name>10254</name>
<sym>Dot</sym>
</trkpt>
<trkpt lat="39.752698" lon="-8.466907">
<ele>223.5</ele>
<desc>Speed 4.8 km/h Distance 49.12 km</desc>
<time>2011-05-22T10:51:42.38</time>
<name>10255</name>
<sym>Dot</sym>
</trkpt>
<trkpt lat="39.752700" lon="-8.466927">
<ele>223.5</ele>
<desc>Speed 4.5 km/h Distance 49.12 km</desc>
<time>2011-05-22T10:51:43.38</time>
<name>10256</name>
<sym>Dot</sym>
</trkpt>
<trkpt lat="39.752700" lon="-8.466942">
<ele>224.0</ele>
<desc>Speed 4.2 km/h Distance 49.12 km</desc>
<time>2011-05-22T10:51:44.38</time>
<name>10257</name>
<sym>Dot</sym>
</trkpt>
<trkpt lat="39.752697" lon="-8.466957">
<ele>225.0</ele>
<desc>Speed 3.7 km/h Distance 49.12 km</desc>
<time>2011-05-22T10:51:45.38</time>
<name>10258</name>
<sym>Dot</sym>
</trkpt>
<trkpt lat="39.752693" lon="-8.466968">
<ele>225.5</ele>
<desc>Speed 3.3 km/h Distance 49.12 km</desc>
<time>2011-05-22T10:51:46.38</time>
<name>10259</name>
<sym>Dot</sym>
</trkpt>
<trkpt lat="39.752690" lon="-8.466990">
<ele>225.5</ele>
<desc>Speed 4.3 km/h Distance 49.12 km</desc>
<time>2011-05-22T10:51:47.38</time>
<name>10260</name>
<sym>Dot</sym>
</trkpt>
<trkpt lat="39.752692" lon="-8.467013">
<ele>226.5</ele>
<desc>Speed 4.9 km/h Distance 49.13 km</desc>
<time>2011-05-22T10:51:48.38</time>
<name>10261</name>
<sym>Dot</sym>
</trkpt>
<trkpt lat="39.752695" lon="-8.467042">
<ele>226.5</ele>
<desc>Speed 5.4 km/h Distance 49.13 km</desc>
<time>2011-05-22T10:51:49.38</time>
<name>10262</name>
<sym>Dot</sym>
</trkpt>
<trkpt lat="39.752698" lon="-8.467072">
<ele>226.5</ele>
<desc>Speed 5.7 km/h Distance 49.13 km</desc>
<time>2011-05-22T10:51:50.38</time>
<name>10263</name>
<sym>Dot</sym>
</trkpt>
<trkpt lat="39.752700" lon="-8.467090">
<ele>227.0</ele>
<desc>Speed 4.9 km/h Distance 49.13 km</desc>
<time>2011-05-22T10:51:51.38</time>
<name>10264</name>
<sym>Dot</sym>
</trkpt>
<trkpt lat="39.752703" lon="-8.467110">
<ele>227.5</ele>
<desc>Speed 4.9 km/h Distance 49.13 km</desc>
<time>2011-05-22T10:51:52.38</time>
<name>10265</name>
<sym>Dot</sym>
</trkpt>
<trkpt lat="39.752705" lon="-8.467133">
<ele>228.0</ele>
<desc>Speed 5.0 km/h Distance 49.14 km</desc>
<time>2011-05-22T10:51:53.38</time>
<name>10266</name>
<sym>Dot</sym>
</trkpt>
<trkpt lat="39.752705" lon="-8.467158">
<ele>229.0</ele>
<desc>Speed 5.0 km/h Distance 49.14 km</desc>
<time>2011-05-22T10:51:54.38</time>
<name>10267</name>
<sym>Dot</sym>
</trkpt>
<trkpt lat="39.752710" lon="-8.467187">
<ele>230.0</ele>
<desc>Speed 5.0 km/h Distance 49.14 km</desc>
<time>2011-05-22T10:51:55.38</time>
<name>10268</name>
<sym>Dot</sym>
</trkpt>
<trkpt lat="39.752710" lon="-8.467207">
<ele>230.5</ele>
<desc>Speed 4.6 km/h Distance 49.14 km</desc>
<time>2011-05-22T10:51:56.38</time>
<name>10269</name>
<sym>Dot</sym>
</trkpt>
<trkpt lat="39.752710" lon="-8.467227">
<ele>231.5</ele>
<desc>Speed 5.5 km/h Distance 49.14 km</desc>
<time>2011-05-22T10:51:57.38</time>
<name>10270</name>
<sym>Dot</sym>
</trkpt>
<trkpt lat="39.752708" lon="-8.467242">
<ele>232.0</ele>
<desc>Speed 3.9 km/h Distance 49.15 km</desc>
<time>2011-05-22T10:51:58.38</time>
<name>10271</name>
<sym>Dot</sym>
</trkpt>
<trkpt lat="39.752710" lon="-8.467262">
<ele>233.0</ele>
<desc>Speed 4.8 km/h Distance 49.15 km</desc>
<time>2011-05-22T10:51:59.38</time>
<name>10272</name>
<sym>Dot</sym>
</trkpt>
<trkpt lat="39.752710" lon="-8.467285">
<ele>233.5</ele>
<desc>Speed 5.5 km/h Distance 49.15 km</desc>
<time>2011-05-22T10:52:00.38</time>
<name>10273</name>
<sym>Dot</sym>
</trkpt>
<trkpt lat="39.752712" lon="-8.467310">
<ele>234.0</ele>
<desc>Speed 5.1 km/h Distance 49.15 km</desc>
<time>2011-05-22T10:52:01.38</time>
<name>10274</name>
<sym>Dot</sym>
</trkpt>
<trkpt lat="39.752713" lon="-8.467337">
<ele>234.0</ele>
<desc>Speed 4.7 km/h Distance 49.15 km</desc>
<time>2011-05-22T10:52:02.38</time>
<name>10275</name>
<sym>Dot</sym>
</trkpt>
<trkpt lat="39.752715" lon="-8.467372">
<ele>234.0</ele>
<desc>Speed 6.7 km/h Distance 49.16 km</desc>
<time>2011-05-22T10:52:03.38</time>
<name>10276</name>
<sym>Dot</sym>
</trkpt>
<trkpt lat="39.752720" lon="-8.467410">
<ele>233.5</ele>
<desc>Speed 7.4 km/h Distance 49.16 km</desc>
<time>2011-05-22T10:52:04.38</time>
<name>10277</name>
<sym>Dot</sym>
</trkpt>
<trkpt lat="39.752727" lon="-8.467450">
<ele>233.5</ele>
<desc>Speed 8.2 km/h Distance 49.16 km</desc>
<time>2011-05-22T10:52:05.38</time>
<name>10278</name>
<sym>Dot</sym>
</trkpt>
<trkpt lat="39.752727" lon="-8.467482">
<ele>233.0</ele>
<desc>Speed 5.3 km/h Distance 49.17 km</desc>
<time>2011-05-22T10:52:06.38</time>
<name>10279</name>
<sym>Dot</sym>
</trkpt>
<trkpt lat="39.752727" lon="-8.467512">
<ele>233.0</ele>
<desc>Speed 4.5 km/h Distance 49.17 km</desc>
<time>2011-05-22T10:52:07.38</time>
<name>10280</name>
<sym>Dot</sym>
</trkpt>
<trkpt lat="39.752728" lon="-8.467535">
<ele>234.0</ele>
<desc>Speed 4.9 km/h Distance 49.17 km</desc>
<time>2011-05-22T10:52:08.38</time>
<name>10281</name>
<sym>Dot</sym>
</trkpt>
<trkpt lat="39.752732" lon="-8.467550">
<ele>235.0</ele>
<desc>Speed 5.0 km/h Distance 49.17 km</desc>
<time>2011-05-22T10:52:09.38</time>
<name>10282</name>
<sym>Dot</sym>
</trkpt>
<trkpt lat="39.752735" lon="-8.467562">
<ele>236.0</ele>
<desc>Speed 3.8 km/h Distance 49.17 km</desc>
<time>2011-05-22T10:52:10.38</time>
<name>10283</name>
<sym>Dot</sym>
</trkpt>
<trkpt lat="39.752737" lon="-8.467575">
<ele>237.0</ele>
<desc>Speed 4.0 km/h Distance 49.17 km</desc>
<time>2011-05-22T10:52:11.38</time>
<name>10284</name>
<sym>Dot</sym>
</trkpt>
<trkpt lat="39.752737" lon="-8.467588">
<ele>238.0</ele>
<desc>Speed 4.3 km/h Distance 49.18 km</desc>
<time>2011-05-22T10:52:12.38</time>
<name>10285</name>
<sym>Dot</sym>
</trkpt>
<trkpt lat="39.752740" lon="-8.467620">
<ele>238.0</ele>
<desc>Speed 6.9 km/h Distance 49.18 km</desc>
<time>2011-05-22T10:52:13.38</time>
<name>10286</name>
<sym>Dot</sym>
</trkpt>
<trkpt lat="39.752743" lon="-8.467650">
<ele>238.0</ele>
<desc>Speed 5.8 km/h Distance 49.18 km</desc>
<time>2011-05-22T10:52:14.38</time>
<name>10287</name>
<sym>Dot</sym>
</trkpt>
<trkpt lat="39.752752" lon="-8.467685">
<ele>238.0</ele>
<desc>Speed 7.2 km/h Distance 49.18 km</desc>
<time>2011-05-22T10:52:15.38</time>
<name>10288</name>
<sym>Dot</sym>
</trkpt>
<trkpt lat="39.752758" lon="-8.467718">
<ele>238.0</ele>
<desc>Speed 6.8 km/h Distance 49.19 km</desc>
<time>2011-05-22T10:52:16.38</time>
<name>10289</name>
<sym>Dot</sym>
</trkpt>
<trkpt lat="39.752765" lon="-8.467743">
<ele>238.0</ele>
<desc>Speed 6.2 km/h Distance 49.19 km</desc>
<time>2011-05-22T10:52:17.38</time>
<name>10290</name>
<sym>Dot</sym>
</trkpt>
<trkpt lat="39.752768" lon="-8.467760">
<ele>238.0</ele>
<desc>Speed 4.8 km/h Distance 49.19 km</desc>
<time>2011-05-22T10:52:18.38</time>
<name>10291</name>
<sym>Dot</sym>
</trkpt>
<trkpt lat="39.752768" lon="-8.467782">
<ele>237.5</ele>
<desc>Speed 6.2 km/h Distance 49.19 km</desc>
<time>2011-05-22T10:52:19.38</time>
<name>10292</name>
<sym>Dot</sym>
</trkpt>
<trkpt lat="39.752768" lon="-8.467802">
<ele>237.5</ele>
<desc>Speed 4.5 km/h Distance 49.19 km</desc>
<time>2011-05-22T10:52:20.38</time>
<name>10293</name>
<sym>Dot</sym>
</trkpt>
<trkpt lat="39.752768" lon="-8.467818">
<ele>238.0</ele>
<desc>Speed 4.9 km/h Distance 49.20 km</desc>
<time>2011-05-22T10:52:21.38</time>
<name>10294</name>
<sym>Dot</sym>
</trkpt>
<trkpt lat="39.752767" lon="-8.467838">
<ele>238.5</ele>
<desc>Speed 3.4 km/h Distance 49.20 km</desc>
<time>2011-05-22T10:52:22.38</time>
<name>10295</name>
<sym>Dot</sym>
</trkpt>
<trkpt lat="39.752767" lon="-8.467847">
<ele>239.5</ele>
<desc>Speed 2.7 km/h Distance 49.20 km</desc>
<time>2011-05-22T10:52:23.38</time>
<name>10296</name>
<sym>Dot</sym>
</trkpt>
<trkpt lat="39.752767" lon="-8.467862">
<ele>239.5</ele>
<desc>Speed 3.3 km/h Distance 49.20 km</desc>
<time>2011-05-22T10:52:24.38</time>
<name>10297</name>
<sym>Dot</sym>
</trkpt>
<trkpt lat="39.752772" lon="-8.467878">
<ele>240.5</ele>
<desc>Speed 4.3 km/h Distance 49.20 km</desc>
<time>2011-05-22T10:52:25.38</time>
<name>10298</name>
<sym>Dot</sym>
</trkpt>
<trkpt lat="39.752775" lon="-8.467897">
<ele>241.5</ele>
<desc>Speed 3.7 km/h Distance 49.20 km</desc>
<time>2011-05-22T10:52:26.38</time>
<name>10299</name>
<sym>Dot</sym>
</trkpt>
<trkpt lat="39.752778" lon="-8.467923">
<ele>242.0</ele>
<desc>Speed 4.3 km/h Distance 49.20 km</desc>
<time>2011-05-22T10:52:27.38</time>
<name>10300</name>
<sym>Dot</sym>
</trkpt>
<trkpt lat="39.752778" lon="-8.467942">
<ele>242.5</ele>
<desc>Speed 2.7 km/h Distance 49.21 km</desc>
<time>2011-05-22T10:52:28.38</time>
<name>10301</name>
<sym>Dot</sym>
</trkpt>
<trkpt lat="39.752780" lon="-8.467957">
<ele>243.0</ele>
<desc>Speed 2.3 km/h Distance 49.21 km</desc>
<time>2011-05-22T10:52:29.38</time>
<name>10302</name>
<sym>Dot</sym>
</trkpt>
<trkpt lat="39.752790" lon="-8.467982">
<ele>243.5</ele>
<desc>Speed 4.0 km/h Distance 49.21 km</desc>
<time>2011-05-22T10:52:30.38</time>
<name>10303</name>
<sym>Dot</sym>
</trkpt>
<trkpt lat="39.752800" lon="-8.468003">
<ele>244.0</ele>
<desc>Speed 2.9 km/h Distance 49.21 km</desc>
<time>2011-05-22T10:52:31.38</time>
<name>10304</name>
<sym>Dot</sym>
</trkpt>
<trkpt lat="39.752798" lon="-8.468013">
<ele>244.5</ele>
<desc>Speed 3.3 km/h Distance 49.21 km</desc>
<time>2011-05-22T10:52:32.38</time>
<name>10305</name>
<sym>Dot</sym>
</trkpt>
<trkpt lat="39.752800" lon="-8.468033">
<ele>244.5</ele>
<desc>Speed 3.4 km/h Distance 49.21 km</desc>
<time>2011-05-22T10:52:33.38</time>
<name>10306</name>
<sym>Dot</sym>
</trkpt>
<trkpt lat="39.752797" lon="-8.468047">
<ele>244.5</ele>
<desc>Speed 3.6 km/h Distance 49.22 km</desc>
<time>2011-05-22T10:52:34.38</time>
<name>10307</name>
<sym>Dot</sym>
</trkpt>
<trkpt lat="39.752793" lon="-8.468062">
<ele>246.0</ele>
<desc>Speed 4.4 km/h Distance 49.22 km</desc>
<time>2011-05-22T10:52:35.38</time>
<name>10308</name>
<sym>Dot</sym>
</trkpt>
<trkpt lat="39.752792" lon="-8.468073">
<ele>246.0</ele>
<desc>Speed 3.1 km/h Distance 49.22 km</desc>
<time>2011-05-22T10:52:36.38</time>
<name>10309</name>
<sym>Dot</sym>
</trkpt>
<trkpt lat="39.752787" lon="-8.468083">
<ele>246.5</ele>
<desc>Speed 3.3 km/h Distance 49.22 km</desc>
<time>2011-05-22T10:52:37.38</time>
<name>10310</name>
<sym>Dot</sym>
</trkpt>
<trkpt lat="39.752783" lon="-8.468103">
<ele>246.0</ele>
<desc>Speed 4.5 km/h Distance 49.22 km</desc>
<time>2011-05-22T10:52:38.38</time>
<name>10311</name>
<sym>Dot</sym>
</trkpt>
<trkpt lat="39.752780" lon="-8.468120">
<ele>246.5</ele>
<desc>Speed 4.8 km/h Distance 49.22 km</desc>
<time>2011-05-22T10:52:39.38</time>
<name>10312</name>
<sym>Dot</sym>
</trkpt>
<trkpt lat="39.752778" lon="-8.468140">
<ele>246.5</ele>
<desc>Speed 5.5 km/h Distance 49.22 km</desc>
<time>2011-05-22T10:52:40.38</time>
<name>10313</name>
<sym>Dot</sym>
</trkpt>
<trkpt lat="39.752773" lon="-8.468162">
<ele>246.5</ele>
<desc>Speed 5.9 km/h Distance 49.23 km</desc>
<time>2011-05-22T10:52:41.38</time>
<name>10314</name>
<sym>Dot</sym>
</trkpt>
<trkpt lat="39.752777" lon="-8.468188">
<ele>247.0</ele>
<desc>Speed 6.8 km/h Distance 49.23 km</desc>
<time>2011-05-22T10:52:42.38</time>
<name>10315</name>
<sym>Dot</sym>
</trkpt>
<trkpt lat="39.752783" lon="-8.468210">
<ele>246.5</ele>
<desc>Speed 4.9 km/h Distance 49.23 km</desc>
<time>2011-05-22T10:52:43.38</time>
<name>10316</name>
<sym>Dot</sym>
</trkpt>
<trkpt lat="39.752778" lon="-8.468232">
<ele>247.0</ele>
<desc>Speed 3.7 km/h Distance 49.23 km</desc>
<time>2011-05-22T10:52:44.38</time>
<name>10317</name>
<sym>Dot</sym>
</trkpt>
<trkpt lat="39.752777" lon="-8.468255">
<ele>247.5</ele>
<desc>Speed 3.4 km/h Distance 49.23 km</desc>
<time>2011-05-22T10:52:45.38</time>
<name>10318</name>
<sym>Dot</sym>
</trkpt>
<trkpt lat="39.752777" lon="-8.468272">
<ele>248.5</ele>
<desc>Speed 3.6 km/h Distance 49.24 km</desc>
<time>2011-05-22T10:52:46.38</time>
<name>10319</name>
<sym>Dot</sym>
</trkpt>
<trkpt lat="39.752772" lon="-8.468288">
<ele>249.0</ele>
<desc>Speed 4.0 km/h Distance 49.24 km</desc>
<time>2011-05-22T10:52:47.38</time>
<name>10320</name>
<sym>Dot</sym>
</trkpt>
<trkpt lat="39.752767" lon="-8.468307">
<ele>249.5</ele>
<desc>Speed 4.3 km/h Distance 49.24 km</desc>
<time>2011-05-22T10:52:48.38</time>
<name>10321</name>
<sym>Dot</sym>
</trkpt>
<trkpt lat="39.752762" lon="-8.468327">
<ele>250.5</ele>
<desc>Speed 5.3 km/h Distance 49.24 km</desc>
<time>2011-05-22T10:52:49.38</time>
<name>10322</name>
<sym>Dot</sym>
</trkpt>
<trkpt lat="39.752755" lon="-8.468340">
<ele>251.5</ele>
<desc>Speed 3.8 km/h Distance 49.24 km</desc>
<time>2011-05-22T10:52:50.38</time>
<name>10323</name>
<sym>Dot</sym>
</trkpt>
<trkpt lat="39.752752" lon="-8.468357">
<ele>252.5</ele>
<desc>Speed 5.3 km/h Distance 49.24 km</desc>
<time>2011-05-22T10:52:51.38</time>
<name>10324</name>
<sym>Dot</sym>
</trkpt>
<trkpt lat="39.752747" lon="-8.468377">
<ele>252.5</ele>
<desc>Speed 6.1 km/h Distance 49.25 km</desc>
<time>2011-05-22T10:52:52.38</time>
<name>10325</name>
<sym>Dot</sym>
</trkpt>
<trkpt lat="39.752743" lon="-8.468398">
<ele>253.5</ele>
<desc>Speed 5.9 km/h Distance 49.25 km</desc>
<time>2011-05-22T10:52:53.38</time>
<name>10326</name>
<sym>Dot</sym>
</trkpt>
<trkpt lat="39.752740" lon="-8.468423">
<ele>254.0</ele>
<desc>Speed 7.1 km/h Distance 49.25 km</desc>
<time>2011-05-22T10:52:54.38</time>
<name>10327</name>
<sym>Dot</sym>
</trkpt>
<trkpt lat="39.752735" lon="-8.468448">
<ele>254.5</ele>
<desc>Speed 7.4 km/h Distance 49.25 km</desc>
<time>2011-05-22T10:52:55.38</time>
<name>10328</name>
<sym>Dot</sym>
</trkpt>
<trkpt lat="39.752728" lon="-8.468470">
<ele>254.5</ele>
<desc>Speed 6.7 km/h Distance 49.25 km</desc>
<time>2011-05-22T10:52:56.38</time>
<name>10329</name>
<sym>Dot</sym>
</trkpt>
<trkpt lat="39.752723" lon="-8.468495">
<ele>254.5</ele>
<desc>Speed 6.8 km/h Distance 49.26 km</desc>
<time>2011-05-22T10:52:57.38</time>
<name>10330</name>
<sym>Dot</sym>
</trkpt>
<trkpt lat="39.752715" lon="-8.468515">
<ele>254.0</ele>
<desc>Speed 5.3 km/h Distance 49.26 km</desc>
<time>2011-05-22T10:52:58.38</time>
<name>10331</name>
<sym>Dot</sym>
</trkpt>
<trkpt lat="39.752713" lon="-8.468532">
<ele>254.0</ele>
<desc>Speed 4.8 km/h Distance 49.26 km</desc>
<time>2011-05-22T10:52:59.38</time>
<name>10332</name>
<sym>Dot</sym>
</trkpt>
<trkpt lat="39.752708" lon="-8.468547">
<ele>254.5</ele>
<desc>Speed 3.7 km/h Distance 49.26 km</desc>
<time>2011-05-22T10:53:00.38</time>
<name>10333</name>
<sym>Dot</sym>
</trkpt>
<trkpt lat="39.752707" lon="-8.468565">
<ele>254.5</ele>
<desc>Speed 4.5 km/h Distance 49.26 km</desc>
<time>2011-05-22T10:53:01.38</time>
<name>10334</name>
<sym>Dot</sym>
</trkpt>
<trkpt lat="39.752697" lon="-8.468582">
<ele>254.5</ele>
<desc>Speed 5.2 km/h Distance 49.26 km</desc>
<time>2011-05-22T10:53:02.38</time>
<name>10335</name>
<sym>Dot</sym>
</trkpt>
<trkpt lat="39.752688" lon="-8.468605">
<ele>254.5</ele>
<desc>Speed 5.4 km/h Distance 49.27 km</desc>
<time>2011-05-22T10:53:03.38</time>
<name>10336</name>
<sym>Dot</sym>
</trkpt>
<trkpt lat="39.752692" lon="-8.468633">
<ele>255.0</ele>
<desc>Speed 5.4 km/h Distance 49.27 km</desc>
<time>2011-05-22T10:53:04.38</time>
<name>10337</name>
<sym>Dot</sym>
</trkpt>
<trkpt lat="39.752687" lon="-8.468653">
<ele>254.5</ele>
<desc>Speed 5.4 km/h Distance 49.27 km</desc>
<time>2011-05-22T10:53:05.38</time>
<name>10338</name>
<sym>Dot</sym>
</trkpt>
<trkpt lat="39.752678" lon="-8.468672">
<ele>254.0</ele>
<desc>Speed 4.9 km/h Distance 49.27 km</desc>
<time>2011-05-22T10:53:06.38</time>
<name>10339</name>
<sym>Dot</sym>
</trkpt>
<trkpt lat="39.752672" lon="-8.468693">
<ele>254.0</ele>
<desc>Speed 4.9 km/h Distance 49.27 km</desc>
<time>2011-05-22T10:53:07.38</time>
<name>10340</name>
<sym>Dot</sym>
</trkpt>
<trkpt lat="39.752665" lon="-8.468707">
<ele>254.0</ele>
<desc>Speed 5.0 km/h Distance 49.28 km</desc>
<time>2011-05-22T10:53:08.38</time>
<name>10341</name>
<sym>Dot</sym>
</trkpt>
<trkpt lat="39.752658" lon="-8.468725">
<ele>254.5</ele>
<desc>Speed 5.6 km/h Distance 49.28 km</desc>
<time>2011-05-22T10:53:09.38</time>
<name>10342</name>
<sym>Dot</sym>
</trkpt>
<trkpt lat="39.752667" lon="-8.468757">
<ele>254.5</ele>
<desc>Speed 3.1 km/h Distance 49.28 km</desc>
<time>2011-05-22T10:53:10.38</time>
<name>10343</name>
<sym>Dot</sym>
</trkpt>
<trkpt lat="39.752665" lon="-8.468772">
<ele>254.5</ele>
<desc>Speed 4.4 km/h Distance 49.28 km</desc>
<time>2011-05-22T10:53:11.38</time>
<name>10344</name>
<sym>Dot</sym>
</trkpt>
<trkpt lat="39.752667" lon="-8.468783">
<ele>254.5</ele>
<desc>Speed 2.4 km/h Distance 49.28 km</desc>
<time>2011-05-22T10:53:12.38</time>
<name>10345</name>
<sym>Dot</sym>
</trkpt>
<trkpt lat="39.752667" lon="-8.468793">
<ele>255.0</ele>
<desc>Speed 2.4 km/h Distance 49.28 km</desc>
<time>2011-05-22T10:53:13.38</time>
<name>10346</name>
<sym>Dot</sym>
</trkpt>
<trkpt lat="39.752662" lon="-8.468800">
<ele>255.0</ele>
<desc>Speed 1.9 km/h Distance 49.28 km</desc>
<time>2011-05-22T10:53:14.38</time>
<name>10347</name>
<sym>Dot</sym>
</trkpt>
<trkpt lat="39.752653" lon="-8.468807">
<ele>254.5</ele>
<desc>Speed 3.9 km/h Distance 49.29 km</desc>
<time>2011-05-22T10:53:15.38</time>
<name>10348</name>
<sym>Dot</sym>
</trkpt>
<trkpt lat="39.752648" lon="-8.468813">
<ele>255.0</ele>
<desc>Speed 2.6 km/h Distance 49.29 km</desc>
<time>2011-05-22T10:53:16.38</time>
<name>10349</name>
<sym>Dot</sym>
</trkpt>
<trkpt lat="39.752647" lon="-8.468823">
<ele>256.0</ele>
<desc>Speed 2.8 km/h Distance 49.29 km</desc>
<time>2011-05-22T10:53:17.38</time>
<name>10350</name>
<sym>Dot</sym>
</trkpt>
<trkpt lat="39.752643" lon="-8.468842">
<ele>256.5</ele>
<desc>Speed 4.8 km/h Distance 49.29 km</desc>
<time>2011-05-22T10:53:18.38</time>
<name>10351</name>
<sym>Dot</sym>
</trkpt>
<trkpt lat="39.752638" lon="-8.468863">
<ele>257.5</ele>
<desc>Speed 5.0 km/h Distance 49.29 km</desc>
<time>2011-05-22T10:53:19.38</time>
<name>10352</name>
<sym>Dot</sym>
</trkpt>
<trkpt lat="39.752628" lon="-8.468880">
<ele>258.0</ele>
<desc>Speed 6.7 km/h Distance 49.29 km</desc>
<time>2011-05-22T10:53:20.38</time>
<name>10353</name>
<sym>Dot</sym>
</trkpt>
<trkpt lat="39.752620" lon="-8.468917">
<ele>257.5</ele>
<desc>Speed 10.6 km/h Distance 49.30 km</desc>
<time>2011-05-22T10:53:21.38</time>
<name>10354</name>
<sym>Dot</sym>
</trkpt>
<trkpt lat="39.752618" lon="-8.468953">
<ele>258.5</ele>
<desc>Speed 10.1 km/h Distance 49.30 km</desc>
<time>2011-05-22T10:53:22.38</time>
<name>10355</name>
<sym>Dot</sym>
</trkpt>
<trkpt lat="39.752617" lon="-8.468995">
<ele>259.5</ele>
<desc>Speed 10.5 km/h Distance 49.30 km</desc>
<time>2011-05-22T10:53:23.38</time>
<name>10356</name>
<sym>Dot</sym>
</trkpt>
<trkpt lat="39.752597" lon="-8.469030">
<ele>259.0</ele>
<desc>Speed 10.6 km/h Distance 49.31 km</desc>
<time>2011-05-22T10:53:24.38</time>
<name>10357</name>
<sym>Dot</sym>
</trkpt>
<trkpt lat="39.752582" lon="-8.469075">
<ele>259.0</ele>
<desc>Speed 10.5 km/h Distance 49.31 km</desc>
<time>2011-05-22T10:53:25.38</time>
<name>10358</name>
<sym>Dot</sym>
</trkpt>
<trkpt lat="39.752572" lon="-8.469123">
<ele>259.5</ele>
<desc>Speed 9.2 km/h Distance 49.31 km</desc>
<time>2011-05-22T10:53:26.38</time>
<name>10359</name>
<sym>Dot</sym>
</trkpt>
<trkpt lat="39.752558" lon="-8.469157">
<ele>259.5</ele>
<desc>Speed 11.7 km/h Distance 49.32 km</desc>
<time>2011-05-22T10:53:27.38</time>
<name>10360</name>
<sym>Dot</sym>
</trkpt>
<trkpt lat="39.752548" lon="-8.469193">
<ele>259.5</ele>
<desc>Speed 11.6 km/h Distance 49.32 km</desc>
<time>2011-05-22T10:53:28.38</time>
<name>10361</name>
<sym>Dot</sym>
</trkpt>
<trkpt lat="39.752538" lon="-8.469228">
<ele>259.0</ele>
<desc>Speed 10.9 km/h Distance 49.32 km</desc>
<time>2011-05-22T10:53:29.38</time>
<name>10362</name>
<sym>Dot</sym>
</trkpt>
<trkpt lat="39.752530" lon="-8.469265">
<ele>259.5</ele>
<desc>Speed 9.1 km/h Distance 49.33 km</desc>
<time>2011-05-22T10:53:30.38</time>
<name>10363</name>
<sym>Dot</sym>
</trkpt>
<trkpt lat="39.752522" lon="-8.469303">
<ele>260.0</ele>
<desc>Speed 8.9 km/h Distance 49.33 km</desc>
<time>2011-05-22T10:53:31.38</time>
<name>10364</name>
<sym>Dot</sym>
</trkpt>
<trkpt lat="39.752513" lon="-8.469353">
<ele>259.0</ele>
<desc>Speed 10.7 km/h Distance 49.34 km</desc>
<time>2011-05-22T10:53:32.38</time>
<name>10365</name>
<sym>Dot</sym>
</trkpt>
<trkpt lat="39.752500" lon="-8.469405">
<ele>258.0</ele>
<desc>Speed 10.8 km/h Distance 49.34 km</desc>
<time>2011-05-22T10:53:33.38</time>
<name>10366</name>
<sym>Dot</sym>
</trkpt>
<trkpt lat="39.752500" lon="-8.469450">
<ele>260.0</ele>
<desc>Speed 12.0 km/h Distance 49.34 km</desc>
<time>2011-05-22T10:53:34.37</time>
<name>10367</name>
<sym>Dot</sym>
</trkpt>
<trkpt lat="39.752495" lon="-8.469490">
<ele>261.0</ele>
<desc>Speed 10.8 km/h Distance 49.35 km</desc>
<time>2011-05-22T10:53:35.37</time>
<name>10368</name>
<sym>Dot</sym>
</trkpt>
<trkpt lat="39.752498" lon="-8.469533">
<ele>261.5</ele>
<desc>Speed 10.0 km/h Distance 49.35 km</desc>
<time>2011-05-22T10:53:36.37</time>
<name>10369</name>
<sym>Dot</sym>
</trkpt>
<trkpt lat="39.752502" lon="-8.469582">
<ele>261.5</ele>
<desc>Speed 10.2 km/h Distance 49.36 km</desc>
<time>2011-05-22T10:53:37.37</time>
<name>10370</name>
<sym>Dot</sym>
</trkpt>
<trkpt lat="39.752508" lon="-8.469633">
<ele>261.5</ele>
<desc>Speed 9.0 km/h Distance 49.36 km</desc>
<time>2011-05-22T10:53:38.37</time>
<name>10371</name>
<sym>Dot</sym>
</trkpt>
<trkpt lat="39.752500" lon="-8.469673">
<ele>260.0</ele>
<desc>Speed 7.2 km/h Distance 49.36 km</desc>
<time>2011-05-22T10:53:39.37</time>
<name>10372</name>
<sym>Dot</sym>
</trkpt>
<trkpt lat="39.752498" lon="-8.469715">
<ele>258.5</ele>
<desc>Speed 6.2 km/h Distance 49.37 km</desc>
<time>2011-05-22T10:53:40.37</time>
<name>10373</name>
<sym>Dot</sym>
</trkpt>
<trkpt lat="39.752507" lon="-8.469742">
<ele>259.5</ele>
<desc>Speed 4.5 km/h Distance 49.37 km</desc>
<time>2011-05-22T10:53:41.37</time>
<name>10374</name>
<sym>Dot</sym>
</trkpt>
<trkpt lat="39.752513" lon="-8.469772">
<ele>260.0</ele>
<desc>Speed 4.6 km/h Distance 49.37 km</desc>
<time>2011-05-22T10:53:42.37</time>
<name>10375</name>
<sym>Dot</sym>
</trkpt>
<trkpt lat="39.752510" lon="-8.469792">
<ele>260.5</ele>
<desc>Speed 5.4 km/h Distance 49.37 km</desc>
<time>2011-05-22T10:53:43.37</time>
<name>10376</name>
<sym>Dot</sym>
</trkpt>
<trkpt lat="39.752500" lon="-8.469815">
<ele>261.5</ele>
<desc>Speed 7.0 km/h Distance 49.38 km</desc>
<time>2011-05-22T10:53:44.37</time>
<name>10377</name>
<sym>Dot</sym>
</trkpt>
<trkpt lat="39.752500" lon="-8.469850">
<ele>263.0</ele>
<desc>Speed 7.3 km/h Distance 49.38 km</desc>
<time>2011-05-22T10:53:45.37</time>
<name>10378</name>
<sym>Dot</sym>
</trkpt>
<trkpt lat="39.752510" lon="-8.469890">
<ele>265.0</ele>
<desc>Speed 7.2 km/h Distance 49.38 km</desc>
<time>2011-05-22T10:53:46.37</time>
<name>10379</name>
<sym>Dot</sym>
</trkpt>
<trkpt lat="39.752493" lon="-8.469975">
<ele>264.5</ele>
<desc>Speed 8.1 km/h Distance 49.39 km</desc>
<time>2011-05-22T10:53:48.37</time>
<name>10380</name>
<sym>Dot</sym>
</trkpt>
<trkpt lat="39.752500" lon="-8.470003">
<ele>265.5</ele>
<desc>Speed 5.9 km/h Distance 49.39 km</desc>
<time>2011-05-22T10:53:49.37</time>
<name>10381</name>
<sym>Dot</sym>
</trkpt>
<trkpt lat="39.752493" lon="-8.470018">
<ele>266.0</ele>
<desc>Speed 4.6 km/h Distance 49.39 km</desc>
<time>2011-05-22T10:53:50.37</time>
<name>10382</name>
<sym>Dot</sym>
</trkpt>
<trkpt lat="39.752492" lon="-8.470033">
<ele>266.5</ele>
<desc>Speed 4.1 km/h Distance 49.40 km</desc>
<time>2011-05-22T10:53:51.37</time>
<name>10383</name>
<sym>Dot</sym>
</trkpt>
<trkpt lat="39.752493" lon="-8.470048">
<ele>266.0</ele>
<desc>Speed 1.8 km/h Distance 49.40 km</desc>
<time>2011-05-22T10:53:52.37</time>
<name>10384</name>
<sym>Dot</sym>
</trkpt>
<trkpt lat="39.752495" lon="-8.470060">
<ele>266.0</ele>
<desc>Speed 1.1 km/h Distance 49.40 km</desc>
<time>2011-05-22T10:53:53.37</time>
<name>10385</name>
<sym>Dot</sym>
</trkpt>
<trkpt lat="39.752483" lon="-8.470090">
<ele>265.5</ele>
<desc>Speed 2.9 km/h Distance 49.40 km</desc>
<time>2011-05-22T10:53:57.37</time>
<name>10386</name>
<sym>Dot</sym>
</trkpt>
<trkpt lat="39.752488" lon="-8.470118">
<ele>266.5</ele>
<desc>Speed 5.1 km/h Distance 49.40 km</desc>
<time>2011-05-22T10:53:58.37</time>
<name>10387</name>
<sym>Dot</sym>
</trkpt>
<trkpt lat="39.752493" lon="-8.470150">
<ele>268.0</ele>
<desc>Speed 5.1 km/h Distance 49.41 km</desc>
<time>2011-05-22T10:53:59.37</time>
<name>10388</name>
<sym>Dot</sym>
</trkpt>
<trkpt lat="39.752502" lon="-8.470185">
<ele>269.5</ele>
<desc>Speed 4.8 km/h Distance 49.41 km</desc>
<time>2011-05-22T10:54:00.37</time>
<name>10389</name>
<sym>Dot</sym>
</trkpt>
<trkpt lat="39.752490" lon="-8.470217">
<ele>269.0</ele>
<desc>Speed 6.3 km/h Distance 49.41 km</desc>
<time>2011-05-22T10:54:01.37</time>
<name>10390</name>
<sym>Dot</sym>
</trkpt>
<trkpt lat="39.752490" lon="-8.470242">
<ele>271.0</ele>
<desc>Speed 6.2 km/h Distance 49.41 km</desc>
<time>2011-05-22T10:54:02.37</time>
<name>10391</name>
<sym>Dot</sym>
</trkpt>
<trkpt lat="39.752490" lon="-8.470270">
<ele>272.0</ele>
<desc>Speed 6.0 km/h Distance 49.42 km</desc>
<time>2011-05-22T10:54:03.37</time>
<name>10392</name>
<sym>Dot</sym>
</trkpt>
<trkpt lat="39.752493" lon="-8.470302">
<ele>272.0</ele>
<desc>Speed 6.0 km/h Distance 49.42 km</desc>
<time>2011-05-22T10:54:04.37</time>
<name>10393</name>
<sym>Dot</sym>
</trkpt>
<trkpt lat="39.752490" lon="-8.470332">
<ele>272.5</ele>
<desc>Speed 8.6 km/h Distance 49.42 km</desc>
<time>2011-05-22T10:54:05.37</time>
<name>10394</name>
<sym>Dot</sym>
</trkpt>
<trkpt lat="39.752475" lon="-8.470372">
<ele>272.0</ele>
<desc>Speed 7.2 km/h Distance 49.43 km</desc>
<time>2011-05-22T10:54:06.37</time>
<name>10395</name>
<sym>Dot</sym>
</trkpt>
<trkpt lat="39.752447" lon="-8.470463">
<ele>268.5</ele>
<desc>Speed 7.2 km/h Distance 49.43 km</desc>
<time>2011-05-22T10:54:08.37</time>
<name>10396</name>
<sym>Dot</sym>
</trkpt>
<trkpt lat="39.752423" lon="-8.470540">
<ele>266.5</ele>
<desc>Speed 7.2 km/h Distance 49.44 km</desc>
<time>2011-05-22T10:54:10.37</time>
<name>10397</name>
<sym>Dot</sym>
</trkpt>
<trkpt lat="39.752412" lon="-8.470568">
<ele>266.5</ele>
<desc>Speed 5.9 km/h Distance 49.44 km</desc>
<time>2011-05-22T10:54:11.37</time>
<name>10398</name>
<sym>Dot</sym>
</trkpt>
<trkpt lat="39.752400" lon="-8.470583">
<ele>267.0</ele>
<desc>Speed 5.5 km/h Distance 49.45 km</desc>
<time>2011-05-22T10:54:12.37</time>
<name>10399</name>
<sym>Dot</sym>
</trkpt>
<trkpt lat="39.752393" lon="-8.470603">
<ele>268.0</ele>
<desc>Speed 5.5 km/h Distance 49.45 km</desc>
<time>2011-05-22T10:54:13.37</time>
<name>10400</name>
<sym>Dot</sym>
</trkpt>
<trkpt lat="39.752388" lon="-8.470625">
<ele>269.0</ele>
<desc>Speed 5.3 km/h Distance 49.45 km</desc>
<time>2011-05-22T10:54:14.37</time>
<name>10401</name>
<sym>Dot</sym>
</trkpt>
<trkpt lat="39.752385" lon="-8.470650">
<ele>269.0</ele>
<desc>Speed 6.1 km/h Distance 49.45 km</desc>
<time>2011-05-22T10:54:15.37</time>
<name>10402</name>
<sym>Dot</sym>
</trkpt>
<trkpt lat="39.752375" lon="-8.470672">
<ele>269.5</ele>
<desc>Speed 6.9 km/h Distance 49.45 km</desc>
<time>2011-05-22T10:54:16.37</time>
<name>10403</name>
<sym>Dot</sym>
</trkpt>
<trkpt lat="39.752368" lon="-8.470693">
<ele>270.0</ele>
<desc>Speed 7.0 km/h Distance 49.46 km</desc>
<time>2011-05-22T10:54:17.37</time>
<name>10404</name>
<sym>Dot</sym>
</trkpt>
<trkpt lat="39.752360" lon="-8.470717">
<ele>270.5</ele>
<desc>Speed 6.4 km/h Distance 49.46 km</desc>
<time>2011-05-22T10:54:18.37</time>
<name>10405</name>
<sym>Dot</sym>
</trkpt>
<trkpt lat="39.752348" lon="-8.470743">
<ele>270.0</ele>
<desc>Speed 7.4 km/h Distance 49.46 km</desc>
<time>2011-05-22T10:54:19.37</time>
<name>10406</name>
<sym>Dot</sym>
</trkpt>
<trkpt lat="39.752335" lon="-8.470773">
<ele>269.5</ele>
<desc>Speed 7.1 km/h Distance 49.46 km</desc>
<time>2011-05-22T10:54:20.37</time>
<name>10407</name>
<sym>Dot</sym>
</trkpt>
<trkpt lat="39.752330" lon="-8.470802">
<ele>269.0</ele>
<desc>Speed 7.9 km/h Distance 49.47 km</desc>
<time>2011-05-22T10:54:21.37</time>
<name>10408</name>
<sym>Dot</sym>
</trkpt>
<trkpt lat="39.752317" lon="-8.470833">
<ele>268.5</ele>
<desc>Speed 6.5 km/h Distance 49.47 km</desc>
<time>2011-05-22T10:54:22.37</time>
<name>10409</name>
<sym>Dot</sym>
</trkpt>
<trkpt lat="39.752315" lon="-8.470863">
<ele>269.0</ele>
<desc>Speed 6.4 km/h Distance 49.47 km</desc>
<time>2011-05-22T10:54:23.37</time>
<name>10410</name>
<sym>Dot</sym>
</trkpt>
<trkpt lat="39.752310" lon="-8.470883">
<ele>268.5</ele>
<desc>Speed 6.2 km/h Distance 49.47 km</desc>
<time>2011-05-22T10:54:24.37</time>
<name>10411</name>
<sym>Dot</sym>
</trkpt>
<trkpt lat="39.752297" lon="-8.470902">
<ele>267.5</ele>
<desc>Speed 5.6 km/h Distance 49.48 km</desc>
<time>2011-05-22T10:54:25.37</time>
<name>10412</name>
<sym>Dot</sym>
</trkpt>
<trkpt lat="39.752288" lon="-8.470915">
<ele>267.5</ele>
<desc>Speed 4.1 km/h Distance 49.48 km</desc>
<time>2011-05-22T10:54:26.37</time>
<name>10413</name>
<sym>Dot</sym>
</trkpt>
<trkpt lat="39.752275" lon="-8.470927">
<ele>267.0</ele>
<desc>Speed 3.7 km/h Distance 49.48 km</desc>
<time>2011-05-22T10:54:27.37</time>
<name>10414</name>
<sym>Dot</sym>
</trkpt>
<trkpt lat="39.752270" lon="-8.470948">
<ele>267.5</ele>
<desc>Speed 4.5 km/h Distance 49.48 km</desc>
<time>2011-05-22T10:54:28.37</time>
<name>10415</name>
<sym>Dot</sym>
</trkpt>
<trkpt lat="39.752255" lon="-8.470975">
<ele>266.5</ele>
<desc>Speed 5.0 km/h Distance 49.48 km</desc>
<time>2011-05-22T10:54:29.37</time>
<name>10416</name>
<sym>Dot</sym>
</trkpt>
<trkpt lat="39.752242" lon="-8.470998">
<ele>265.0</ele>
<desc>Speed 5.8 km/h Distance 49.49 km</desc>
<time>2011-05-22T10:54:30.37</time>
<name>10417</name>
<sym>Dot</sym>
</trkpt>
<trkpt lat="39.752238" lon="-8.471015">
<ele>266.5</ele>
<desc>Speed 4.7 km/h Distance 49.49 km</desc>
<time>2011-05-22T10:54:31.37</time>
<name>10418</name>
<sym>Dot</sym>
</trkpt>
<trkpt lat="39.752230" lon="-8.471033">
<ele>267.0</ele>
<desc>Speed 6.1 km/h Distance 49.49 km</desc>
<time>2011-05-22T10:54:32.37</time>
<name>10419</name>
<sym>Dot</sym>
</trkpt>
<trkpt lat="39.752215" lon="-8.471053">
<ele>266.5</ele>
<desc>Speed 6.7 km/h Distance 49.49 km</desc>
<time>2011-05-22T10:54:33.37</time>
<name>10420</name>
<sym>Dot</sym>
</trkpt>
<trkpt lat="39.752208" lon="-8.471075">
<ele>267.0</ele>
<desc>Speed 6.1 km/h Distance 49.49 km</desc>
<time>2011-05-22T10:54:34.37</time>
<name>10421</name>
<sym>Dot</sym>
</trkpt>
<trkpt lat="39.752203" lon="-8.471097">
<ele>267.0</ele>
<desc>Speed 5.3 km/h Distance 49.50 km</desc>
<time>2011-05-22T10:54:35.37</time>
<name>10422</name>
<sym>Dot</sym>
</trkpt>
<trkpt lat="39.752195" lon="-8.471112">
<ele>267.5</ele>
<desc>Speed 4.5 km/h Distance 49.50 km</desc>
<time>2011-05-22T10:54:36.37</time>
<name>10423</name>
<sym>Dot</sym>
</trkpt>
<trkpt lat="39.752187" lon="-8.471125">
<ele>268.0</ele>
<desc>Speed 4.4 km/h Distance 49.50 km</desc>
<time>2011-05-22T10:54:37.37</time>
<name>10424</name>
<sym>Dot</sym>
</trkpt>
<trkpt lat="39.752172" lon="-8.471135">
<ele>267.0</ele>
<desc>Speed 4.1 km/h Distance 49.50 km</desc>
<time>2011-05-22T10:54:38.37</time>
<name>10425</name>
<sym>Dot</sym>
</trkpt>
<trkpt lat="39.752150" lon="-8.471145">
<ele>265.5</ele>
<desc>Speed 4.6 km/h Distance 49.50 km</desc>
<time>2011-05-22T10:54:39.37</time>
<name>10426</name>
<sym>Dot</sym>
</trkpt>
<trkpt lat="39.752135" lon="-8.471168">
<ele>264.0</ele>
<desc>Speed 5.8 km/h Distance 49.51 km</desc>
<time>2011-05-22T10:54:40.37</time>
<name>10427</name>
<sym>Dot</sym>
</trkpt>
<trkpt lat="39.752127" lon="-8.471203">
<ele>264.0</ele>
<desc>Speed 10.0 km/h Distance 49.51 km</desc>
<time>2011-05-22T10:54:41.37</time>
<name>10428</name>
<sym>Dot</sym>
</trkpt>
<trkpt lat="39.752113" lon="-8.471237">
<ele>263.5</ele>
<desc>Speed 10.0 km/h Distance 49.51 km</desc>
<time>2011-05-22T10:54:42.37</time>
<name>10429</name>
<sym>Dot</sym>
</trkpt>
<trkpt lat="39.752103" lon="-8.471278">
<ele>263.5</ele>
<desc>Speed 11.1 km/h Distance 49.52 km</desc>
<time>2011-05-22T10:54:43.37</time>
<name>10430</name>
<sym>Dot</sym>
</trkpt>
<trkpt lat="39.752090" lon="-8.471312">
<ele>263.5</ele>
<desc>Speed 10.4 km/h Distance 49.52 km</desc>
<time>2011-05-22T10:54:44.37</time>
<name>10431</name>
<sym>Dot</sym>
</trkpt>
<trkpt lat="39.752077" lon="-8.471347">
<ele>263.5</ele>
<desc>Speed 10.8 km/h Distance 49.52 km</desc>
<time>2011-05-22T10:54:45.37</time>
<name>10432</name>
<sym>Dot</sym>
</trkpt>
<trkpt lat="39.752060" lon="-8.471385">
<ele>262.0</ele>
<desc>Speed 10.7 km/h Distance 49.53 km</desc>
<time>2011-05-22T10:54:46.37</time>
<name>10433</name>
<sym>Dot</sym>
</trkpt>
<trkpt lat="39.752053" lon="-8.471422">
<ele>262.0</ele>
<desc>Speed 10.4 km/h Distance 49.53 km</desc>
<time>2011-05-22T10:54:47.37</time>
<name>10434</name>
<sym>Dot</sym>
</trkpt>
<trkpt lat="39.752042" lon="-8.471468">
<ele>261.5</ele>
<desc>Speed 11.0 km/h Distance 49.53 km</desc>
<time>2011-05-22T10:54:48.37</time>
<name>10435</name>
<sym>Dot</sym>
</trkpt>
<trkpt lat="39.752028" lon="-8.471520">
<ele>260.5</ele>
<desc>Speed 11.4 km/h Distance 49.54 km</desc>
<time>2011-05-22T10:54:49.37</time>
<name>10436</name>
<sym>Dot</sym>
</trkpt>
<trkpt lat="39.752018" lon="-8.471552">
<ele>261.0</ele>
<desc>Speed 10.5 km/h Distance 49.54 km</desc>
<time>2011-05-22T10:54:50.37</time>
<name>10437</name>
<sym>Dot</sym>
</trkpt>
<trkpt lat="39.751995" lon="-8.471668">
<ele>258.0</ele>
<desc>Speed 11.8 km/h Distance 49.55 km</desc>
<time>2011-05-22T10:54:52.37</time>
<name>10438</name>
<sym>Dot</sym>
</trkpt>
<trkpt lat="39.751985" lon="-8.471713">
<ele>257.5</ele>
<desc>Speed 11.8 km/h Distance 49.56 km</desc>
<time>2011-05-22T10:54:53.37</time>
<name>10439</name>
<sym>Dot</sym>
</trkpt>
<trkpt lat="39.751975" lon="-8.471763">
<ele>257.0</ele>
<desc>Speed 12.7 km/h Distance 49.56 km</desc>
<time>2011-05-22T10:54:54.37</time>
<name>10440</name>
<sym>Dot</sym>
</trkpt>
<trkpt lat="39.751962" lon="-8.471808">
<ele>257.0</ele>
<desc>Speed 12.4 km/h Distance 49.56 km</desc>
<time>2011-05-22T10:54:55.37</time>
<name>10441</name>
<sym>Dot</sym>
</trkpt>
<trkpt lat="39.751952" lon="-8.471852">
<ele>256.0</ele>
<desc>Speed 11.3 km/h Distance 49.57 km</desc>
<time>2011-05-22T10:54:56.37</time>
<name>10442</name>
<sym>Dot</sym>
</trkpt>
<trkpt lat="39.751935" lon="-8.471887">
<ele>255.0</ele>
<desc>Speed 10.5 km/h Distance 49.57 km</desc>
<time>2011-05-22T10:54:57.37</time>
<name>10443</name>
<sym>Dot</sym>
</trkpt>
<trkpt lat="39.751933" lon="-8.471935">
<ele>255.0</ele>
<desc>Speed 10.3 km/h Distance 49.58 km</desc>
<time>2011-05-22T10:54:58.37</time>
<name>10444</name>
<sym>Dot</sym>
</trkpt>
<trkpt lat="39.751918" lon="-8.471968">
<ele>255.0</ele>
<desc>Speed 11.6 km/h Distance 49.58 km</desc>
<time>2011-05-22T10:54:59.37</time>
<name>10445</name>
<sym>Dot</sym>
</trkpt>
<trkpt lat="39.751913" lon="-8.472010">
<ele>255.0</ele>
<desc>Speed 11.9 km/h Distance 49.58 km</desc>
<time>2011-05-22T10:55:00.37</time>
<name>10446</name>
<sym>Dot</sym>
</trkpt>
<trkpt lat="39.751910" lon="-8.472052">
<ele>255.0</ele>
<desc>Speed 12.4 km/h Distance 49.59 km</desc>
<time>2011-05-22T10:55:01.37</time>
<name>10447</name>
<sym>Dot</sym>
</trkpt>
<trkpt lat="39.751905" lon="-8.472093">
<ele>255.5</ele>
<desc>Speed 12.3 km/h Distance 49.59 km</desc>
<time>2011-05-22T10:55:02.37</time>
<name>10448</name>
<sym>Dot</sym>
</trkpt>
<trkpt lat="39.751888" lon="-8.472125">
<ele>255.0</ele>
<desc>Speed 10.6 km/h Distance 49.59 km</desc>
<time>2011-05-22T10:55:03.37</time>
<name>10449</name>
<sym>Dot</sym>
</trkpt>
<trkpt lat="39.751857" lon="-8.472125">
<ele>255.5</ele>
<desc>Speed 12.3 km/h Distance 49.60 km</desc>
<time>2011-05-22T10:55:04.37</time>
<name>10450</name>
<sym>Dot</sym>
</trkpt>
<trkpt lat="39.751837" lon="-8.472150">
<ele>255.5</ele>
<desc>Speed 9.7 km/h Distance 49.60 km</desc>
<time>2011-05-22T10:55:05.37</time>
<name>10451</name>
<sym>Dot</sym>
</trkpt>
<trkpt lat="39.751837" lon="-8.472203">
<ele>255.0</ele>
<desc>Speed 12.3 km/h Distance 49.60 km</desc>
<time>2011-05-22T10:55:06.37</time>
<name>10452</name>
<sym>Dot</sym>
</trkpt>
<trkpt lat="39.751822" lon="-8.472235">
<ele>254.5</ele>
<desc>Speed 10.9 km/h Distance 49.61 km</desc>
<time>2011-05-22T10:55:07.37</time>
<name>10453</name>
<sym>Dot</sym>
</trkpt>
<trkpt lat="39.751807" lon="-8.472260">
<ele>255.0</ele>
<desc>Speed 9.6 km/h Distance 49.61 km</desc>
<time>2011-05-22T10:55:08.37</time>
<name>10454</name>
<sym>Dot</sym>
</trkpt>
<trkpt lat="39.751792" lon="-8.472295">
<ele>255.0</ele>
<desc>Speed 10.2 km/h Distance 49.61 km</desc>
<time>2011-05-22T10:55:09.37</time>
<name>10455</name>
<sym>Dot</sym>
</trkpt>
<trkpt lat="39.751778" lon="-8.472328">
<ele>254.5</ele>
<desc>Speed 9.6 km/h Distance 49.62 km</desc>
<time>2011-05-22T10:55:10.37</time>
<name>10456</name>
<sym>Dot</sym>
</trkpt>
<trkpt lat="39.751768" lon="-8.472353">
<ele>255.5</ele>
<desc>Speed 8.5 km/h Distance 49.62 km</desc>
<time>2011-05-22T10:55:11.37</time>
<name>10457</name>
<sym>Dot</sym>
</trkpt>
<trkpt lat="39.751753" lon="-8.472382">
<ele>255.5</ele>
<desc>Speed 10.1 km/h Distance 49.62 km</desc>
<time>2011-05-22T10:55:12.37</time>
<name>10458</name>
<sym>Dot</sym>
</trkpt>
<trkpt lat="39.751735" lon="-8.472415">
<ele>255.0</ele>
<desc>Speed 11.7 km/h Distance 49.63 km</desc>
<time>2011-05-22T10:55:13.37</time>
<name>10459</name>
<sym>Dot</sym>
</trkpt>
<trkpt lat="39.751717" lon="-8.472450">
<ele>255.0</ele>
<desc>Speed 11.5 km/h Distance 49.63 km</desc>
<time>2011-05-22T10:55:14.37</time>
<name>10460</name>
<sym>Dot</sym>
</trkpt>
<trkpt lat="39.751697" lon="-8.472482">
<ele>254.5</ele>
<desc>Speed 11.4 km/h Distance 49.63 km</desc>
<time>2011-05-22T10:55:15.37</time>
<name>10461</name>
<sym>Dot</sym>
</trkpt>
<trkpt lat="39.751685" lon="-8.472532">
<ele>253.5</ele>
<desc>Speed 12.4 km/h Distance 49.64 km</desc>
<time>2011-05-22T10:55:16.37</time>
<name>10462</name>
<sym>Dot</sym>
</trkpt>
<trkpt lat="39.751682" lon="-8.472595">
<ele>253.0</ele>
<desc>Speed 19.0 km/h Distance 49.64 km</desc>
<time>2011-05-22T10:55:17.37</time>
<name>10463</name>
<sym>Dot</sym>
</trkpt>
<trkpt lat="39.751620" lon="-8.472612">
<ele>253.0</ele>
<desc>Speed 12.0 km/h Distance 49.65 km</desc>
<time>2011-05-22T10:55:19.37</time>
<name>10464</name>
<sym>Dot</sym>
</trkpt>
<trkpt lat="39.751593" lon="-8.472632">
<ele>252.5</ele>
<desc>Speed 9.8 km/h Distance 49.65 km</desc>
<time>2011-05-22T10:55:20.37</time>
<name>10465</name>
<sym>Dot</sym>
</trkpt>
<trkpt lat="39.751585" lon="-8.472663">
<ele>253.0</ele>
<desc>Speed 8.7 km/h Distance 49.66 km</desc>
<time>2011-05-22T10:55:21.37</time>
<name>10466</name>
<sym>Dot</sym>
</trkpt>
<trkpt lat="39.751570" lon="-8.472700">
<ele>252.5</ele>
<desc>Speed 8.9 km/h Distance 49.66 km</desc>
<time>2011-05-22T10:55:22.37</time>
<name>10467</name>
<sym>Dot</sym>
</trkpt>
<trkpt lat="39.751557" lon="-8.472715">
<ele>254.0</ele>
<desc>Speed 7.3 km/h Distance 49.66 km</desc>
<time>2011-05-22T10:55:23.37</time>
<name>10468</name>
<sym>Dot</sym>
</trkpt>
<trkpt lat="39.751545" lon="-8.472735">
<ele>255.0</ele>
<desc>Speed 6.8 km/h Distance 49.66 km</desc>
<time>2011-05-22T10:55:24.37</time>
<name>10469</name>
<sym>Dot</sym>
</trkpt>
<trkpt lat="39.751527" lon="-8.472760">
<ele>255.5</ele>
<desc>Speed 9.8 km/h Distance 49.67 km</desc>
<time>2011-05-22T10:55:25.37</time>
<name>10470</name>
<sym>Dot</sym>
</trkpt>
<trkpt lat="39.751508" lon="-8.472797">
<ele>254.5</ele>
<desc>Speed 12.1 km/h Distance 49.67 km</desc>
<time>2011-05-22T10:55:26.37</time>
<name>10471</name>
<sym>Dot</sym>
</trkpt>
<trkpt lat="39.751492" lon="-8.472835">
<ele>254.5</ele>
<desc>Speed 12.0 km/h Distance 49.67 km</desc>
<time>2011-05-22T10:55:27.37</time>
<name>10472</name>
<sym>Dot</sym>
</trkpt>
<trkpt lat="39.751475" lon="-8.472863">
<ele>254.5</ele>
<desc>Speed 10.3 km/h Distance 49.68 km</desc>
<time>2011-05-22T10:55:28.37</time>
<name>10473</name>
<sym>Dot</sym>
</trkpt>
<trkpt lat="39.751457" lon="-8.472890">
<ele>255.0</ele>
<desc>Speed 10.6 km/h Distance 49.68 km</desc>
<time>2011-05-22T10:55:29.37</time>
<name>10474</name>
<sym>Dot</sym>
</trkpt>
<trkpt lat="39.751443" lon="-8.472913">
<ele>256.0</ele>
<desc>Speed 7.1 km/h Distance 49.68 km</desc>
<time>2011-05-22T10:55:30.37</time>
<name>10475</name>
<sym>Dot</sym>
</trkpt>
<trkpt lat="39.751432" lon="-8.472945">
<ele>256.5</ele>
<desc>Speed 8.7 km/h Distance 49.69 km</desc>
<time>2011-05-22T10:55:31.37</time>
<name>10476</name>
<sym>Dot</sym>
</trkpt>
<trkpt lat="39.751408" lon="-8.472972">
<ele>256.0</ele>
<desc>Speed 10.9 km/h Distance 49.69 km</desc>
<time>2011-05-22T10:55:32.37</time>
<name>10477</name>
<sym>Dot</sym>
</trkpt>
<trkpt lat="39.751387" lon="-8.472997">
<ele>256.0</ele>
<desc>Speed 10.7 km/h Distance 49.69 km</desc>
<time>2011-05-22T10:55:33.37</time>
<name>10478</name>
<sym>Dot</sym>
</trkpt>
<trkpt lat="39.751368" lon="-8.473028">
<ele>255.5</ele>
<desc>Speed 10.6 km/h Distance 49.70 km</desc>
<time>2011-05-22T10:55:34.37</time>
<name>10479</name>
<sym>Dot</sym>
</trkpt>
<trkpt lat="39.751348" lon="-8.473060">
<ele>255.0</ele>
<desc>Speed 10.5 km/h Distance 49.70 km</desc>
<time>2011-05-22T10:55:35.37</time>
<name>10480</name>
<sym>Dot</sym>
</trkpt>
<trkpt lat="39.751327" lon="-8.473098">
<ele>254.0</ele>
<desc>Speed 10.5 km/h Distance 49.70 km</desc>
<time>2011-05-22T10:55:36.37</time>
<name>10481</name>
<sym>Dot</sym>
</trkpt>
<trkpt lat="39.751312" lon="-8.473142">
<ele>253.0</ele>
<desc>Speed 9.5 km/h Distance 49.71 km</desc>
<time>2011-05-22T10:55:37.37</time>
<name>10482</name>
<sym>Dot</sym>
</trkpt>
<trkpt lat="39.751298" lon="-8.473190">
<ele>252.0</ele>
<desc>Speed 9.3 km/h Distance 49.71 km</desc>
<time>2011-05-22T10:55:38.37</time>
<name>10483</name>
<sym>Dot</sym>
</trkpt>
<trkpt lat="39.751282" lon="-8.473238">
<ele>250.5</ele>
<desc>Speed 8.8 km/h Distance 49.72 km</desc>
<time>2011-05-22T10:55:39.37</time>
<name>10484</name>
<sym>Dot</sym>
</trkpt>
<trkpt lat="39.751250" lon="-8.473320">
<ele>248.0</ele>
<desc>Speed 8.2 km/h Distance 49.72 km</desc>
<time>2011-05-22T10:55:41.37</time>
<name>10485</name>
<sym>Dot</sym>
</trkpt>
<trkpt lat="39.751232" lon="-8.473353">
<ele>247.0</ele>
<desc>Speed 8.6 km/h Distance 49.73 km</desc>
<time>2011-05-22T10:55:42.37</time>
<name>10486</name>
<sym>Dot</sym>
</trkpt>
<trkpt lat="39.751217" lon="-8.473380">
<ele>246.0</ele>
<desc>Speed 8.1 km/h Distance 49.73 km</desc>
<time>2011-05-22T10:55:43.37</time>
<name>10487</name>
<sym>Dot</sym>
</trkpt>
<trkpt lat="39.751203" lon="-8.473403">
<ele>245.0</ele>
<desc>Speed 6.1 km/h Distance 49.73 km</desc>
<time>2011-05-22T10:55:44.37</time>
<name>10488</name>
<sym>Dot</sym>
</trkpt>
<trkpt lat="39.751200" lon="-8.473428">
<ele>244.5</ele>
<desc>Speed 4.9 km/h Distance 49.74 km</desc>
<time>2011-05-22T10:55:45.37</time>
<name>10489</name>
<sym>Dot</sym>
</trkpt>
<trkpt lat="39.751192" lon="-8.473442">
<ele>243.5</ele>
<desc>Speed 3.4 km/h Distance 49.74 km</desc>
<time>2011-05-22T10:55:46.37</time>
<name>10490</name>
<sym>Dot</sym>
</trkpt>
<trkpt lat="39.751192" lon="-8.473468">
<ele>242.0</ele>
<desc>Speed 1.2 km/h Distance 49.74 km</desc>
<time>2011-05-22T10:56:01.37</time>
<name>10491</name>
<sym>Dot</sym>
</trkpt>
<trkpt lat="39.751197" lon="-8.473493">
<ele>242.5</ele>
<desc>Speed 3.5 km/h Distance 49.74 km</desc>
<time>2011-05-22T10:56:02.37</time>
<name>10492</name>
<sym>Dot</sym>
</trkpt>
<trkpt lat="39.751198" lon="-8.473518">
<ele>242.5</ele>
<desc>Speed 3.5 km/h Distance 49.74 km</desc>
<time>2011-05-22T10:56:03.37</time>
<name>10493</name>
<sym>Dot</sym>
</trkpt>
<trkpt lat="39.751163" lon="-8.473563">
<ele>241.5</ele>
<desc>Speed 7.2 km/h Distance 49.75 km</desc>
<time>2011-05-22T10:56:05.37</time>
<name>10494</name>
<sym>Dot</sym>
</trkpt>
<trkpt lat="39.751143" lon="-8.473587">
<ele>241.0</ele>
<desc>Speed 8.3 km/h Distance 49.75 km</desc>
<time>2011-05-22T10:56:06.37</time>
<name>10495</name>
<sym>Dot</sym>
</trkpt>
<trkpt lat="39.751135" lon="-8.473627">
<ele>241.0</ele>
<desc>Speed 9.8 km/h Distance 49.76 km</desc>
<time>2011-05-22T10:56:07.37</time>
<name>10496</name>
<sym>Dot</sym>
</trkpt>
<trkpt lat="39.751122" lon="-8.473667">
<ele>241.0</ele>
<desc>Speed 12.4 km/h Distance 49.76 km</desc>
<time>2011-05-22T10:56:08.37</time>
<name>10497</name>
<sym>Dot</sym>
</trkpt>
<trkpt lat="39.751103" lon="-8.473703">
<ele>240.5</ele>
<desc>Speed 13.4 km/h Distance 49.76 km</desc>
<time>2011-05-22T10:56:09.37</time>
<name>10498</name>
<sym>Dot</sym>
</trkpt>
<trkpt lat="39.751083" lon="-8.473742">
<ele>240.5</ele>
<desc>Speed 14.1 km/h Distance 49.77 km</desc>
<time>2011-05-22T10:56:10.37</time>
<name>10499</name>
<sym>Dot</sym>
</trkpt>
<trkpt lat="39.751060" lon="-8.473787">
<ele>239.5</ele>
<desc>Speed 15.6 km/h Distance 49.77 km</desc>
<time>2011-05-22T10:56:11.37</time>
<name>10500</name>
<sym>Dot</sym>
</trkpt>
<trkpt lat="39.751037" lon="-8.473835">
<ele>239.5</ele>
<desc>Speed 16.7 km/h Distance 49.78 km</desc>
<time>2011-05-22T10:56:12.37</time>
<name>10501</name>
<sym>Dot</sym>
</trkpt>
<trkpt lat="39.750990" lon="-8.473980">
<ele>236.5</ele>
<desc>Speed 17.6 km/h Distance 49.79 km</desc>
<time>2011-05-22T10:56:14.37</time>
<name>10502</name>
<sym>Dot</sym>
</trkpt>
<trkpt lat="39.750958" lon="-8.474037">
<ele>235.0</ele>
<desc>Speed 18.4 km/h Distance 49.80 km</desc>
<time>2011-05-22T10:56:15.37</time>
<name>10503</name>
<sym>Dot</sym>
</trkpt>
<trkpt lat="39.750957" lon="-8.474348">
<ele>231.5</ele>
<desc>Speed 21.2 km/h Distance 49.82 km</desc>
<time>2011-05-22T10:56:21.26</time>
<name>10504</name>
<sym>Dot</sym>
</trkpt>
<trkpt lat="39.750943" lon="-8.474532">
<ele>230.5</ele>
<desc>Speed 22.5 km/h Distance 49.84 km</desc>
<time>2011-05-22T10:56:23.26</time>
<name>10505</name>
<sym>Dot</sym>
</trkpt>
<trkpt lat="39.750940" lon="-8.474615">
<ele>229.5</ele>
<desc>Speed 22.8 km/h Distance 49.85 km</desc>
<time>2011-05-22T10:56:24.26</time>
<name>10506</name>
<sym>Dot</sym>
</trkpt>
<trkpt lat="39.750948" lon="-8.474700">
<ele>228.5</ele>
<desc>Speed 23.3 km/h Distance 49.85 km</desc>
<time>2011-05-22T10:56:25.26</time>
<name>10507</name>
<sym>Dot</sym>
</trkpt>
<trkpt lat="39.750967" lon="-8.474783">
<ele>227.5</ele>
<desc>Speed 23.6 km/h Distance 49.86 km</desc>
<time>2011-05-22T10:56:26.26</time>
<name>10508</name>
<sym>Dot</sym>
</trkpt>
<trkpt lat="39.750988" lon="-8.474867">
<ele>226.5</ele>
<desc>Speed 23.6 km/h Distance 49.87 km</desc>
<time>2011-05-22T10:56:27.26</time>
<name>10509</name>
<sym>Dot</sym>
</trkpt>
<trkpt lat="39.751008" lon="-8.474952">
<ele>226.0</ele>
<desc>Speed 23.9 km/h Distance 49.88 km</desc>
<time>2011-05-22T10:56:28.26</time>
<name>10510</name>
<sym>Dot</sym>
</trkpt>
<trkpt lat="39.751018" lon="-8.475042">
<ele>225.0</ele>
<desc>Speed 24.5 km/h Distance 49.88 km</desc>
<time>2011-05-22T10:56:29.26</time>
<name>10511</name>
<sym>Dot</sym>
</trkpt>
<trkpt lat="39.751020" lon="-8.475128">
<ele>224.5</ele>
<desc>Speed 24.9 km/h Distance 49.89 km</desc>
<time>2011-05-22T10:56:30.26</time>
<name>10512</name>
<sym>Dot</sym>
</trkpt>
<trkpt lat="39.751010" lon="-8.475215">
<ele>224.0</ele>
<desc>Speed 24.9 km/h Distance 49.90 km</desc>
<time>2011-05-22T10:56:31.26</time>
<name>10513</name>
<sym>Dot</sym>
</trkpt>
<trkpt lat="39.750993" lon="-8.475303">
<ele>223.5</ele>
<desc>Speed 25.7 km/h Distance 49.91 km</desc>
<time>2011-05-22T10:56:32.26</time>
<name>10514</name>
<sym>Dot</sym>
</trkpt>
<trkpt lat="39.750973" lon="-8.475388">
<ele>223.0</ele>
<desc>Speed 25.6 km/h Distance 49.91 km</desc>
<time>2011-05-22T10:56:33.26</time>
<name>10515</name>
<sym>Dot</sym>
</trkpt>
<trkpt lat="39.750948" lon="-8.475473">
<ele>222.5</ele>
<desc>Speed 26.0 km/h Distance 49.92 km</desc>
<time>2011-05-22T10:56:34.26</time>
<name>10516</name>
<sym>Dot</sym>
</trkpt>
<trkpt lat="39.750923" lon="-8.475562">
<ele>221.5</ele>
<desc>Speed 26.5 km/h Distance 49.93 km</desc>
<time>2011-05-22T10:56:35.26</time>
<name>10517</name>
<sym>Dot</sym>
</trkpt>
<trkpt lat="39.750898" lon="-8.475653">
<ele>221.0</ele>
<desc>Speed 26.9 km/h Distance 49.94 km</desc>
<time>2011-05-22T10:56:36.26</time>
<name>10518</name>
<sym>Dot</sym>
</trkpt>
<trkpt lat="39.750872" lon="-8.475742">
<ele>220.0</ele>
<desc>Speed 27.3 km/h Distance 49.95 km</desc>
<time>2011-05-22T10:56:37.26</time>
<name>10519</name>
<sym>Dot</sym>
</trkpt>
<trkpt lat="39.750845" lon="-8.475832">
<ele>219.5</ele>
<desc>Speed 27.8 km/h Distance 49.95 km</desc>
<time>2011-05-22T10:56:38.26</time>
<name>10520</name>
<sym>Dot</sym>
</trkpt>
<trkpt lat="39.750813" lon="-8.475918">
<ele>218.5</ele>
<desc>Speed 28.4 km/h Distance 49.96 km</desc>
<time>2011-05-22T10:56:39.26</time>
<name>10521</name>
<sym>Dot</sym>
</trkpt>
<trkpt lat="39.750783" lon="-8.476007">
<ele>218.0</ele>
<desc>Speed 28.7 km/h Distance 49.97 km</desc>
<time>2011-05-22T10:56:40.26</time>
<name>10522</name>
<sym>Dot</sym>
</trkpt>
<trkpt lat="39.750752" lon="-8.476097">
<ele>217.5</ele>
<desc>Speed 29.2 km/h Distance 49.98 km</desc>
<time>2011-05-22T10:56:41.26</time>
<name>10523</name>
<sym>Dot</sym>
</trkpt>
<trkpt lat="39.750723" lon="-8.476190">
<ele>217.0</ele>
<desc>Speed 29.7 km/h Distance 49.99 km</desc>
<time>2011-05-22T10:56:42.26</time>
<name>10524</name>
<sym>Dot</sym>
</trkpt>
<trkpt lat="39.750693" lon="-8.476282">
<ele>216.5</ele>
<desc>Speed 30.2 km/h Distance 50.00 km</desc>
<time>2011-05-22T10:56:43.26</time>
<name>10525</name>
<sym>Dot</sym>
</trkpt>
<trkpt lat="39.750660" lon="-8.476375">
<ele>216.0</ele>
<desc>Speed 31.0 km/h Distance 50.00 km</desc>
<time>2011-05-22T10:56:44.26</time>
<name>10526</name>
<sym>Dot</sym>
</trkpt>
<trkpt lat="39.750625" lon="-8.476473">
<ele>215.0</ele>
<desc>Speed 32.0 km/h Distance 50.01 km</desc>
<time>2011-05-22T10:56:45.26</time>
<name>10527</name>
<sym>Dot</sym>
</trkpt>
<trkpt lat="39.750587" lon="-8.476572">
<ele>214.5</ele>
<desc>Speed 32.9 km/h Distance 50.02 km</desc>
<time>2011-05-22T10:56:46.26</time>
<name>10528</name>
<sym>Dot</sym>
</trkpt>
<trkpt lat="39.750543" lon="-8.476667">
<ele>214.0</ele>
<desc>Speed 32.9 km/h Distance 50.03 km</desc>
<time>2011-05-22T10:56:47.26</time>
<name>10529</name>
<sym>Dot</sym>
</trkpt>
<trkpt lat="39.750495" lon="-8.476755">
<ele>213.5</ele>
<desc>Speed 33.0 km/h Distance 50.04 km</desc>
<time>2011-05-22T10:56:48.26</time>
<name>10530</name>
<sym>Dot</sym>
</trkpt>
<trkpt lat="39.750437" lon="-8.476832">
<ele>213.5</ele>
<desc>Speed 33.2 km/h Distance 50.05 km</desc>
<time>2011-05-22T10:56:49.26</time>
<name>10531</name>
<sym>Dot</sym>
</trkpt>
<trkpt lat="39.750365" lon="-8.476895">
<ele>213.0</ele>
<desc>Speed 34.3 km/h Distance 50.06 km</desc>
<time>2011-05-22T10:56:50.26</time>
<name>10532</name>
<sym>Dot</sym>
</trkpt>
<trkpt lat="39.750288" lon="-8.476953">
<ele>212.5</ele>
<desc>Speed 35.4 km/h Distance 50.07 km</desc>
<time>2011-05-22T10:56:51.26</time>
<name>10533</name>
<sym>Dot</sym>
</trkpt>
<trkpt lat="39.750208" lon="-8.477005">
<ele>212.0</ele>
<desc>Speed 35.8 km/h Distance 50.08 km</desc>
<time>2011-05-22T10:56:52.26</time>
<name>10534</name>
<sym>Dot</sym>
</trkpt>
<trkpt lat="39.750132" lon="-8.477055">
<ele>211.5</ele>
<desc>Speed 34.2 km/h Distance 50.09 km</desc>
<time>2011-05-22T10:56:53.26</time>
<name>10535</name>
<sym>Dot</sym>
</trkpt>
<trkpt lat="39.750055" lon="-8.477105">
<ele>211.5</ele>
<desc>Speed 34.2 km/h Distance 50.10 km</desc>
<time>2011-05-22T10:56:54.26</time>
<name>10536</name>
<sym>Dot</sym>
</trkpt>
<trkpt lat="39.749980" lon="-8.477150">
<ele>211.5</ele>
<desc>Speed 32.9 km/h Distance 50.11 km</desc>
<time>2011-05-22T10:56:55.26</time>
<name>10537</name>
<sym>Dot</sym>
</trkpt>
<trkpt lat="39.749908" lon="-8.477190">
<ele>211.5</ele>
<desc>Speed 31.1 km/h Distance 50.12 km</desc>
<time>2011-05-22T10:56:56.26</time>
<name>10538</name>
<sym>Dot</sym>
</trkpt>
<trkpt lat="39.749837" lon="-8.477232">
<ele>211.5</ele>
<desc>Speed 30.9 km/h Distance 50.13 km</desc>
<time>2011-05-22T10:56:57.26</time>
<name>10539</name>
<sym>Dot</sym>
</trkpt>
<trkpt lat="39.749762" lon="-8.477270">
<ele>211.5</ele>
<desc>Speed 31.2 km/h Distance 50.14 km</desc>
<time>2011-05-22T10:56:58.26</time>
<name>10540</name>
<sym>Dot</sym>
</trkpt>
<trkpt lat="39.749688" lon="-8.477307">
<ele>211.5</ele>
<desc>Speed 31.8 km/h Distance 50.14 km</desc>
<time>2011-05-22T10:56:59.26</time>
<name>10541</name>
<sym>Dot</sym>
</trkpt>
<trkpt lat="39.749610" lon="-8.477340">
<ele>211.5</ele>
<desc>Speed 32.3 km/h Distance 50.15 km</desc>
<time>2011-05-22T10:57:00.26</time>
<name>10542</name>
<sym>Dot</sym>
</trkpt>
<trkpt lat="39.749533" lon="-8.477373">
<ele>211.0</ele>
<desc>Speed 32.3 km/h Distance 50.16 km</desc>
<time>2011-05-22T10:57:01.26</time>
<name>10543</name>
<sym>Dot</sym>
</trkpt>
<trkpt lat="39.749453" lon="-8.477403">
<ele>209.5</ele>
<desc>Speed 33.6 km/h Distance 50.17 km</desc>
<time>2011-05-22T10:57:02.26</time>
<name>10544</name>
<sym>Dot</sym>
</trkpt>
<trkpt lat="39.749372" lon="-8.477437">
<ele>208.0</ele>
<desc>Speed 33.7 km/h Distance 50.18 km</desc>
<time>2011-05-22T10:57:03.26</time>
<name>10545</name>
<sym>Dot</sym>
</trkpt>
<trkpt lat="39.749290" lon="-8.477472">
<ele>207.5</ele>
<desc>Speed 33.7 km/h Distance 50.19 km</desc>
<time>2011-05-22T10:57:04.26</time>
<name>10546</name>
<sym>Dot</sym>
</trkpt>
<trkpt lat="39.749208" lon="-8.477505">
<ele>207.5</ele>
<desc>Speed 34.5 km/h Distance 50.20 km</desc>
<time>2011-05-22T10:57:05.26</time>
<name>10547</name>
<sym>Dot</sym>
</trkpt>
<trkpt lat="39.749125" lon="-8.477537">
<ele>207.5</ele>
<desc>Speed 34.6 km/h Distance 50.21 km</desc>
<time>2011-05-22T10:57:06.26</time>
<name>10548</name>
<sym>Dot</sym>
</trkpt>
<trkpt lat="39.749040" lon="-8.477567">
<ele>205.5</ele>
<desc>Speed 35.1 km/h Distance 50.22 km</desc>
<time>2011-05-22T10:57:07.26</time>
<name>10549</name>
<sym>Dot</sym>
</trkpt>
<trkpt lat="39.748958" lon="-8.477607">
<ele>205.5</ele>
<desc>Speed 35.5 km/h Distance 50.23 km</desc>
<time>2011-05-22T10:57:08.26</time>
<name>10550</name>
<sym>Dot</sym>
</trkpt>
<trkpt lat="39.748877" lon="-8.477657">
<ele>205.0</ele>
<desc>Speed 35.9 km/h Distance 50.24 km</desc>
<time>2011-05-22T10:57:09.26</time>
<name>10551</name>
<sym>Dot</sym>
</trkpt>
<trkpt lat="39.748800" lon="-8.477718">
<ele>204.5</ele>
<desc>Speed 36.2 km/h Distance 50.25 km</desc>
<time>2011-05-22T10:57:10.26</time>
<name>10552</name>
<sym>Dot</sym>
</trkpt>
<trkpt lat="39.748725" lon="-8.477790">
<ele>203.5</ele>
<desc>Speed 36.9 km/h Distance 50.26 km</desc>
<time>2011-05-22T10:57:11.26</time>
<name>10553</name>
<sym>Dot</sym>
</trkpt>
<trkpt lat="39.748650" lon="-8.477863">
<ele>203.0</ele>
<desc>Speed 37.5 km/h Distance 50.27 km</desc>
<time>2011-05-22T10:57:12.26</time>
<name>10554</name>
<sym>Dot</sym>
</trkpt>
<trkpt lat="39.748580" lon="-8.477945">
<ele>202.5</ele>
<desc>Speed 37.3 km/h Distance 50.28 km</desc>
<time>2011-05-22T10:57:13.26</time>
<name>10555</name>
<sym>Dot</sym>
</trkpt>
<trkpt lat="39.748517" lon="-8.478033">
<ele>202.5</ele>
<desc>Speed 36.8 km/h Distance 50.29 km</desc>
<time>2011-05-22T10:57:14.26</time>
<name>10556</name>
<sym>Dot</sym>
</trkpt>
<trkpt lat="39.748455" lon="-8.478122">
<ele>202.0</ele>
<desc>Speed 36.7 km/h Distance 50.30 km</desc>
<time>2011-05-22T10:57:15.26</time>
<name>10557</name>
<sym>Dot</sym>
</trkpt>
<trkpt lat="39.748395" lon="-8.478213">
<ele>201.0</ele>
<desc>Speed 37.0 km/h Distance 50.31 km</desc>
<time>2011-05-22T10:57:16.26</time>
<name>10558</name>
<sym>Dot</sym>
</trkpt>
<trkpt lat="39.748335" lon="-8.478307">
<ele>200.0</ele>
<desc>Speed 37.3 km/h Distance 50.32 km</desc>
<time>2011-05-22T10:57:17.26</time>
<name>10559</name>
<sym>Dot</sym>
</trkpt>
<trkpt lat="39.748273" lon="-8.478398">
<ele>199.5</ele>
<desc>Speed 37.2 km/h Distance 50.33 km</desc>
<time>2011-05-22T10:57:18.26</time>
<name>10560</name>
<sym>Dot</sym>
</trkpt>
<trkpt lat="39.748210" lon="-8.478488">
<ele>198.5</ele>
<desc>Speed 37.2 km/h Distance 50.34 km</desc>
<time>2011-05-22T10:57:19.26</time>
<name>10561</name>
<sym>Dot</sym>
</trkpt>
<trkpt lat="39.748147" lon="-8.478577">
<ele>197.5</ele>
<desc>Speed 37.0 km/h Distance 50.35 km</desc>
<time>2011-05-22T10:57:20.26</time>
<name>10562</name>
<sym>Dot</sym>
</trkpt>
<trkpt lat="39.748082" lon="-8.478665">
<ele>197.0</ele>
<desc>Speed 37.1 km/h Distance 50.36 km</desc>
<time>2011-05-22T10:57:21.26</time>
<name>10563</name>
<sym>Dot</sym>
</trkpt>
<trkpt lat="39.748018" lon="-8.478752">
<ele>196.5</ele>
<desc>Speed 37.1 km/h Distance 50.37 km</desc>
<time>2011-05-22T10:57:22.26</time>
<name>10564</name>
<sym>Dot</sym>
</trkpt>
<trkpt lat="39.747950" lon="-8.478835">
<ele>196.0</ele>
<desc>Speed 37.3 km/h Distance 50.38 km</desc>
<time>2011-05-22T10:57:23.26</time>
<name>10565</name>
<sym>Dot</sym>
</trkpt>
<trkpt lat="39.747880" lon="-8.478913">
<ele>195.5</ele>
<desc>Speed 37.1 km/h Distance 50.39 km</desc>
<time>2011-05-22T10:57:24.26</time>
<name>10566</name>
<sym>Dot</sym>
</trkpt>
<trkpt lat="39.747805" lon="-8.478985">
<ele>195.0</ele>
<desc>Speed 36.8 km/h Distance 50.41 km</desc>
<time>2011-05-22T10:57:25.26</time>
<name>10567</name>
<sym>Dot</sym>
</trkpt>
<trkpt lat="39.747730" lon="-8.479052">
<ele>195.0</ele>
<desc>Speed 36.6 km/h Distance 50.42 km</desc>
<time>2011-05-22T10:57:26.26</time>
<name>10568</name>
<sym>Dot</sym>
</trkpt>
<trkpt lat="39.747650" lon="-8.479113">
<ele>194.5</ele>
<desc>Speed 36.8 km/h Distance 50.43 km</desc>
<time>2011-05-22T10:57:27.26</time>
<name>10569</name>
<sym>Dot</sym>
</trkpt>
<trkpt lat="39.747572" lon="-8.479173">
<ele>194.0</ele>
<desc>Speed 36.8 km/h Distance 50.44 km</desc>
<time>2011-05-22T10:57:28.26</time>
<name>10570</name>
<sym>Dot</sym>
</trkpt>
<trkpt lat="39.747492" lon="-8.479232">
<ele>193.5</ele>
<desc>Speed 37.0 km/h Distance 50.45 km</desc>
<time>2011-05-22T10:57:29.26</time>
<name>10571</name>
<sym>Dot</sym>
</trkpt>
<trkpt lat="39.747410" lon="-8.479290">
<ele>193.5</ele>
<desc>Speed 37.1 km/h Distance 50.46 km</desc>
<time>2011-05-22T10:57:30.26</time>
<name>10572</name>
<sym>Dot</sym>
</trkpt>
<trkpt lat="39.747330" lon="-8.479347">
<ele>193.0</ele>
<desc>Speed 37.1 km/h Distance 50.47 km</desc>
<time>2011-05-22T10:57:31.26</time>
<name>10573</name>
<sym>Dot</sym>
</trkpt>
<trkpt lat="39.747250" lon="-8.479405">
<ele>193.0</ele>
<desc>Speed 36.8 km/h Distance 50.48 km</desc>
<time>2011-05-22T10:57:32.26</time>
<name>10574</name>
<sym>Dot</sym>
</trkpt>
<trkpt lat="39.747170" lon="-8.479460">
<ele>192.5</ele>
<desc>Speed 36.6 km/h Distance 50.49 km</desc>
<time>2011-05-22T10:57:33.26</time>
<name>10575</name>
<sym>Dot</sym>
</trkpt>
<trkpt lat="39.747092" lon="-8.479515">
<ele>193.0</ele>
<desc>Speed 35.9 km/h Distance 50.50 km</desc>
<time>2011-05-22T10:57:34.26</time>
<name>10576</name>
<sym>Dot</sym>
</trkpt>
<trkpt lat="39.747012" lon="-8.479570">
<ele>192.5</ele>
<desc>Speed 36.1 km/h Distance 50.51 km</desc>
<time>2011-05-22T10:57:35.26</time>
<name>10577</name>
<sym>Dot</sym>
</trkpt>
<trkpt lat="39.746932" lon="-8.479627">
<ele>192.5</ele>
<desc>Speed 36.0 km/h Distance 50.52 km</desc>
<time>2011-05-22T10:57:36.26</time>
<name>10578</name>
<sym>Dot</sym>
</trkpt>
<trkpt lat="39.746855" lon="-8.479682">
<ele>192.0</ele>
<desc>Speed 35.6 km/h Distance 50.53 km</desc>
<time>2011-05-22T10:57:37.26</time>
<name>10579</name>
<sym>Dot</sym>
</trkpt>
<trkpt lat="39.746777" lon="-8.479737">
<ele>191.5</ele>
<desc>Speed 35.0 km/h Distance 50.54 km</desc>
<time>2011-05-22T10:57:38.26</time>
<name>10580</name>
<sym>Dot</sym>
</trkpt>
<trkpt lat="39.746700" lon="-8.479790">
<ele>191.5</ele>
<desc>Speed 35.3 km/h Distance 50.55 km</desc>
<time>2011-05-22T10:57:39.26</time>
<name>10581</name>
<sym>Dot</sym>
</trkpt>
<trkpt lat="39.746622" lon="-8.479845">
<ele>191.5</ele>
<desc>Speed 35.5 km/h Distance 50.56 km</desc>
<time>2011-05-22T10:57:40.26</time>
<name>10582</name>
<sym>Dot</sym>
</trkpt>
<trkpt lat="39.746545" lon="-8.479898">
<ele>191.5</ele>
<desc>Speed 35.1 km/h Distance 50.57 km</desc>
<time>2011-05-22T10:57:41.26</time>
<name>10583</name>
<sym>Dot</sym>
</trkpt>
<trkpt lat="39.746468" lon="-8.479952">
<ele>191.5</ele>
<desc>Speed 35.1 km/h Distance 50.58 km</desc>
<time>2011-05-22T10:57:42.26</time>
<name>10584</name>
<sym>Dot</sym>
</trkpt>
<trkpt lat="39.746392" lon="-8.480007">
<ele>192.0</ele>
<desc>Speed 35.6 km/h Distance 50.59 km</desc>
<time>2011-05-22T10:57:43.26</time>
<name>10585</name>
<sym>Dot</sym>
</trkpt>
<trkpt lat="39.746315" lon="-8.480057">
<ele>192.0</ele>
<desc>Speed 34.8 km/h Distance 50.59 km</desc>
<time>2011-05-22T10:57:44.25</time>
<name>10586</name>
<sym>Dot</sym>
</trkpt>
<trkpt lat="39.746238" lon="-8.480107">
<ele>192.5</ele>
<desc>Speed 34.5 km/h Distance 50.60 km</desc>
<time>2011-05-22T10:57:45.25</time>
<name>10587</name>
<sym>Dot</sym>
</trkpt>
<trkpt lat="39.746163" lon="-8.480160">
<ele>193.0</ele>
<desc>Speed 34.1 km/h Distance 50.61 km</desc>
<time>2011-05-22T10:57:46.25</time>
<name>10588</name>
<sym>Dot</sym>
</trkpt>
<trkpt lat="39.746090" lon="-8.480213">
<ele>193.0</ele>
<desc>Speed 33.6 km/h Distance 50.62 km</desc>
<time>2011-05-22T10:57:47.25</time>
<name>10589</name>
<sym>Dot</sym>
</trkpt>
<trkpt lat="39.746020" lon="-8.480272">
<ele>193.0</ele>
<desc>Speed 33.2 km/h Distance 50.63 km</desc>
<time>2011-05-22T10:57:48.25</time>
<name>10590</name>
<sym>Dot</sym>
</trkpt>
<trkpt lat="39.745955" lon="-8.480335">
<ele>193.0</ele>
<desc>Speed 32.5 km/h Distance 50.64 km</desc>
<time>2011-05-22T10:57:49.25</time>
<name>10591</name>
<sym>Dot</sym>
</trkpt>
<trkpt lat="39.745900" lon="-8.480410">
<ele>193.0</ele>
<desc>Speed 31.7 km/h Distance 50.65 km</desc>
<time>2011-05-22T10:57:50.25</time>
<name>10592</name>
<sym>Dot</sym>
</trkpt>
<trkpt lat="39.745853" lon="-8.480492">
<ele>193.0</ele>
<desc>Speed 31.1 km/h Distance 50.66 km</desc>
<time>2011-05-22T10:57:51.25</time>
<name>10593</name>
<sym>Dot</sym>
</trkpt>
<trkpt lat="39.745813" lon="-8.480577">
<ele>192.5</ele>
<desc>Speed 30.6 km/h Distance 50.67 km</desc>
<time>2011-05-22T10:57:52.25</time>
<name>10594</name>
<sym>Dot</sym>
</trkpt>
<trkpt lat="39.745780" lon="-8.480667">
<ele>192.0</ele>
<desc>Speed 30.3 km/h Distance 50.68 km</desc>
<time>2011-05-22T10:57:53.25</time>
<name>10595</name>
<sym>Dot</sym>
</trkpt>
<trkpt lat="39.745760" lon="-8.480762">
<ele>192.0</ele>
<desc>Speed 29.7 km/h Distance 50.68 km</desc>
<time>2011-05-22T10:57:54.25</time>
<name>10596</name>
<sym>Dot</sym>
</trkpt>
<trkpt lat="39.745752" lon="-8.480858">
<ele>192.0</ele>
<desc>Speed 29.9 km/h Distance 50.69 km</desc>
<time>2011-05-22T10:57:55.25</time>
<name>10597</name>
<sym>Dot</sym>
</trkpt>
<trkpt lat="39.745752" lon="-8.480955">
<ele>192.0</ele>
<desc>Speed 29.6 km/h Distance 50.70 km</desc>
<time>2011-05-22T10:57:56.25</time>
<name>10598</name>
<sym>Dot</sym>
</trkpt>
<trkpt lat="39.745760" lon="-8.481052">
<ele>192.0</ele>
<desc>Speed 30.2 km/h Distance 50.71 km</desc>
<time>2011-05-22T10:57:57.25</time>
<name>10599</name>
<sym>Dot</sym>
</trkpt>
<trkpt lat="39.745770" lon="-8.481150">
<ele>191.5</ele>
<desc>Speed 30.3 km/h Distance 50.72 km</desc>
<time>2011-05-22T10:57:58.25</time>
<name>10600</name>
<sym>Dot</sym>
</trkpt>
<trkpt lat="39.745775" lon="-8.481250">
<ele>191.5</ele>
<desc>Speed 30.5 km/h Distance 50.73 km</desc>
<time>2011-05-22T10:57:59.25</time>
<name>10601</name>
<sym>Dot</sym>
</trkpt>
<trkpt lat="39.745780" lon="-8.481350">
<ele>191.0</ele>
<desc>Speed 31.1 km/h Distance 50.74 km</desc>
<time>2011-05-22T10:58:00.25</time>
<name>10602</name>
<sym>Dot</sym>
</trkpt>
<trkpt lat="39.745783" lon="-8.481455">
<ele>190.5</ele>
<desc>Speed 31.8 km/h Distance 50.74 km</desc>
<time>2011-05-22T10:58:01.25</time>
<name>10603</name>
<sym>Dot</sym>
</trkpt>
<trkpt lat="39.745788" lon="-8.481558">
<ele>190.5</ele>
<desc>Speed 31.6 km/h Distance 50.75 km</desc>
<time>2011-05-22T10:58:02.25</time>
<name>10604</name>
<sym>Dot</sym>
</trkpt>
<trkpt lat="39.745793" lon="-8.481660">
<ele>190.0</ele>
<desc>Speed 31.4 km/h Distance 50.76 km</desc>
<time>2011-05-22T10:58:03.25</time>
<name>10605</name>
<sym>Dot</sym>
</trkpt>
<trkpt lat="39.745802" lon="-8.481762">
<ele>190.0</ele>
<desc>Speed 31.2 km/h Distance 50.77 km</desc>
<time>2011-05-22T10:58:04.25</time>
<name>10606</name>
<sym>Dot</sym>
</trkpt>
<trkpt lat="39.745808" lon="-8.481863">
<ele>189.5</ele>
<desc>Speed 31.5 km/h Distance 50.78 km</desc>
<time>2011-05-22T10:58:05.25</time>
<name>10607</name>
<sym>Dot</sym>
</trkpt>
<trkpt lat="39.745813" lon="-8.481965">
<ele>189.0</ele>
<desc>Speed 31.0 km/h Distance 50.79 km</desc>
<time>2011-05-22T10:58:06.25</time>
<name>10608</name>
<sym>Dot</sym>
</trkpt>
<trkpt lat="39.745818" lon="-8.482063">
<ele>189.0</ele>
<desc>Speed 30.5 km/h Distance 50.80 km</desc>
<time>2011-05-22T10:58:07.25</time>
<name>10609</name>
<sym>Dot</sym>
</trkpt>
<trkpt lat="39.745823" lon="-8.482162">
<ele>188.5</ele>
<desc>Speed 30.0 km/h Distance 50.80 km</desc>
<time>2011-05-22T10:58:08.25</time>
<name>10610</name>
<sym>Dot</sym>
</trkpt>
<trkpt lat="39.745828" lon="-8.482258">
<ele>188.5</ele>
<desc>Speed 29.8 km/h Distance 50.81 km</desc>
<time>2011-05-22T10:58:09.25</time>
<name>10611</name>
<sym>Dot</sym>
</trkpt>
<trkpt lat="39.745833" lon="-8.482352">
<ele>188.5</ele>
<desc>Speed 28.9 km/h Distance 50.82 km</desc>
<time>2011-05-22T10:58:10.25</time>
<name>10612</name>
<sym>Dot</sym>
</trkpt>
<trkpt lat="39.745837" lon="-8.482442">
<ele>188.5</ele>
<desc>Speed 27.5 km/h Distance 50.83 km</desc>
<time>2011-05-22T10:58:11.25</time>
<name>10613</name>
<sym>Dot</sym>
</trkpt>
<trkpt lat="39.745842" lon="-8.482532">
<ele>188.5</ele>
<desc>Speed 27.7 km/h Distance 50.84 km</desc>
<time>2011-05-22T10:58:12.25</time>
<name>10614</name>
<sym>Dot</sym>
</trkpt>
<trkpt lat="39.745847" lon="-8.482618">
<ele>188.5</ele>
<desc>Speed 26.9 km/h Distance 50.84 km</desc>
<time>2011-05-22T10:58:13.25</time>
<name>10615</name>
<sym>Dot</sym>
</trkpt>
<trkpt lat="39.745852" lon="-8.482707">
<ele>188.0</ele>
<desc>Speed 26.9 km/h Distance 50.85 km</desc>
<time>2011-05-22T10:58:14.25</time>
<name>10616</name>
<sym>Dot</sym>
</trkpt>
<trkpt lat="39.745855" lon="-8.482792">
<ele>188.0</ele>
<desc>Speed 26.6 km/h Distance 50.86 km</desc>
<time>2011-05-22T10:58:15.25</time>
<name>10617</name>
<sym>Dot</sym>
</trkpt>
<trkpt lat="39.745860" lon="-8.482878">
<ele>188.0</ele>
<desc>Speed 26.6 km/h Distance 50.87 km</desc>
<time>2011-05-22T10:58:16.25</time>
<name>10618</name>
<sym>Dot</sym>
</trkpt>
<trkpt lat="39.745865" lon="-8.482965">
<ele>188.0</ele>
<desc>Speed 26.6 km/h Distance 50.87 km</desc>
<time>2011-05-22T10:58:17.25</time>
<name>10619</name>
<sym>Dot</sym>
</trkpt>
<trkpt lat="39.745870" lon="-8.483050">
<ele>188.0</ele>
<desc>Speed 26.4 km/h Distance 50.88 km</desc>
<time>2011-05-22T10:58:18.25</time>
<name>10620</name>
<sym>Dot</sym>
</trkpt>
<trkpt lat="39.745875" lon="-8.483135">
<ele>188.0</ele>
<desc>Speed 25.9 km/h Distance 50.89 km</desc>
<time>2011-05-22T10:58:19.25</time>
<name>10621</name>
<sym>Dot</sym>
</trkpt>
<trkpt lat="39.745877" lon="-8.483217">
<ele>187.5</ele>
<desc>Speed 25.2 km/h Distance 50.90 km</desc>
<time>2011-05-22T10:58:20.25</time>
<name>10622</name>
<sym>Dot</sym>
</trkpt>
<trkpt lat="39.745878" lon="-8.483297">
<ele>187.5</ele>
<desc>Speed 24.4 km/h Distance 50.90 km</desc>
<time>2011-05-22T10:58:21.25</time>
<name>10623</name>
<sym>Dot</sym>
</trkpt>
<trkpt lat="39.745880" lon="-8.483373">
<ele>187.5</ele>
<desc>Speed 23.7 km/h Distance 50.91 km</desc>
<time>2011-05-22T10:58:22.25</time>
<name>10624</name>
<sym>Dot</sym>
</trkpt>
<trkpt lat="39.745883" lon="-8.483447">
<ele>187.5</ele>
<desc>Speed 22.8 km/h Distance 50.92 km</desc>
<time>2011-05-22T10:58:23.25</time>
<name>10625</name>
<sym>Dot</sym>
</trkpt>
<trkpt lat="39.745888" lon="-8.483518">
<ele>187.5</ele>
<desc>Speed 22.1 km/h Distance 50.92 km</desc>
<time>2011-05-22T10:58:24.25</time>
<name>10626</name>
<sym>Dot</sym>
</trkpt>
<trkpt lat="39.745893" lon="-8.483587">
<ele>187.0</ele>
<desc>Speed 20.9 km/h Distance 50.93 km</desc>
<time>2011-05-22T10:58:25.25</time>
<name>10627</name>
<sym>Dot</sym>
</trkpt>
<trkpt lat="39.745897" lon="-8.483653">
<ele>187.0</ele>
<desc>Speed 20.0 km/h Distance 50.93 km</desc>
<time>2011-05-22T10:58:26.25</time>
<name>10628</name>
<sym>Dot</sym>
</trkpt>
<trkpt lat="39.745902" lon="-8.483717">
<ele>187.0</ele>
<desc>Speed 19.4 km/h Distance 50.94 km</desc>
<time>2011-05-22T10:58:27.25</time>
<name>10629</name>
<sym>Dot</sym>
</trkpt>
<trkpt lat="39.745908" lon="-8.483778">
<ele>187.0</ele>
<desc>Speed 18.8 km/h Distance 50.94 km</desc>
<time>2011-05-22T10:58:28.25</time>
<name>10630</name>
<sym>Dot</sym>
</trkpt>
<trkpt lat="39.745915" lon="-8.483837">
<ele>187.0</ele>
<desc>Speed 17.9 km/h Distance 50.95 km</desc>
<time>2011-05-22T10:58:29.25</time>
<name>10631</name>
<sym>Dot</sym>
</trkpt>
<trkpt lat="39.745920" lon="-8.483893">
<ele>187.0</ele>
<desc>Speed 17.7 km/h Distance 50.95 km</desc>
<time>2011-05-22T10:58:30.25</time>
<name>10632</name>
<sym>Dot</sym>
</trkpt>
<trkpt lat="39.745923" lon="-8.483952">
<ele>187.0</ele>
<desc>Speed 17.9 km/h Distance 50.96 km</desc>
<time>2011-05-22T10:58:31.25</time>
<name>10633</name>
<sym>Dot</sym>
</trkpt>
<trkpt lat="39.745928" lon="-8.484012">
<ele>187.0</ele>
<desc>Speed 18.3 km/h Distance 50.96 km</desc>
<time>2011-05-22T10:58:32.25</time>
<name>10634</name>
<sym>Dot</sym>
</trkpt>
<trkpt lat="39.745933" lon="-8.484073">
<ele>187.0</ele>
<desc>Speed 18.8 km/h Distance 50.97 km</desc>
<time>2011-05-22T10:58:33.25</time>
<name>10635</name>
<sym>Dot</sym>
</trkpt>
<trkpt lat="39.745937" lon="-8.484135">
<ele>187.0</ele>
<desc>Speed 19.2 km/h Distance 50.97 km</desc>
<time>2011-05-22T10:58:34.25</time>
<name>10636</name>
<sym>Dot</sym>
</trkpt>
<trkpt lat="39.745942" lon="-8.484195">
<ele>187.0</ele>
<desc>Speed 18.6 km/h Distance 50.98 km</desc>
<time>2011-05-22T10:58:35.25</time>
<name>10637</name>
<sym>Dot</sym>
</trkpt>
<trkpt lat="39.745943" lon="-8.484250">
<ele>187.5</ele>
<desc>Speed 16.7 km/h Distance 50.98 km</desc>
<time>2011-05-22T10:58:36.25</time>
<name>10638</name>
<sym>Dot</sym>
</trkpt>
<trkpt lat="39.745950" lon="-8.484308">
<ele>187.5</ele>
<desc>Speed 18.4 km/h Distance 50.99 km</desc>
<time>2011-05-22T10:58:37.25</time>
<name>10639</name>
<sym>Dot</sym>
</trkpt>
<trkpt lat="39.745965" lon="-8.484363">
<ele>189.5</ele>
<desc>Speed 17.8 km/h Distance 50.99 km</desc>
<time>2011-05-22T10:58:38.25</time>
<name>10640</name>
<sym>Dot</sym>
</trkpt>
<trkpt lat="39.745980" lon="-8.484428">
<ele>190.5</ele>
<desc>Speed 21.1 km/h Distance 51.00 km</desc>
<time>2011-05-22T10:58:39.25</time>
<name>10641</name>
<sym>Dot</sym>
</trkpt>
<trkpt lat="39.745990" lon="-8.484498">
<ele>191.0</ele>
<desc>Speed 22.1 km/h Distance 51.01 km</desc>
<time>2011-05-22T10:58:40.25</time>
<name>10642</name>
<sym>Dot</sym>
</trkpt>
<trkpt lat="39.746000" lon="-8.484550">
<ele>191.0</ele>
<desc>Speed 16.5 km/h Distance 51.01 km</desc>
<time>2011-05-22T10:58:41.25</time>
<name>10643</name>
<sym>Dot</sym>
</trkpt>
<trkpt lat="39.745998" lon="-8.484613">
<ele>191.5</ele>
<desc>Speed 19.6 km/h Distance 51.02 km</desc>
<time>2011-05-22T10:58:42.25</time>
<name>10644</name>
<sym>Dot</sym>
</trkpt>
<trkpt lat="39.745987" lon="-8.484675">
<ele>191.0</ele>
<desc>Speed 19.5 km/h Distance 51.02 km</desc>
<time>2011-05-22T10:58:43.25</time>
<name>10645</name>
<sym>Dot</sym>
</trkpt>
<trkpt lat="39.745970" lon="-8.484737">
<ele>190.5</ele>
<desc>Speed 19.5 km/h Distance 51.03 km</desc>
<time>2011-05-22T10:58:44.25</time>
<name>10646</name>
<sym>Dot</sym>
</trkpt>
<trkpt lat="39.745950" lon="-8.484795">
<ele>190.0</ele>
<desc>Speed 19.5 km/h Distance 51.03 km</desc>
<time>2011-05-22T10:58:45.25</time>
<name>10647</name>
<sym>Dot</sym>
</trkpt>
<trkpt lat="39.745928" lon="-8.484852">
<ele>190.0</ele>
<desc>Speed 19.4 km/h Distance 51.04 km</desc>
<time>2011-05-22T10:58:46.25</time>
<name>10648</name>
<sym>Dot</sym>
</trkpt>
<trkpt lat="39.745902" lon="-8.484907">
<ele>190.0</ele>
<desc>Speed 19.8 km/h Distance 51.04 km</desc>
<time>2011-05-22T10:58:47.25</time>
<name>10649</name>
<sym>Dot</sym>
</trkpt>
<trkpt lat="39.745872" lon="-8.484962">
<ele>190.0</ele>
<desc>Speed 20.5 km/h Distance 51.05 km</desc>
<time>2011-05-22T10:58:48.25</time>
<name>10650</name>
<sym>Dot</sym>
</trkpt>
<trkpt lat="39.745835" lon="-8.485013">
<ele>190.0</ele>
<desc>Speed 21.3 km/h Distance 51.06 km</desc>
<time>2011-05-22T10:58:49.25</time>
<name>10651</name>
<sym>Dot</sym>
</trkpt>
<trkpt lat="39.745795" lon="-8.485063">
<ele>189.5</ele>
<desc>Speed 22.3 km/h Distance 51.06 km</desc>
<time>2011-05-22T10:58:50.25</time>
<name>10652</name>
<sym>Dot</sym>
</trkpt>
<trkpt lat="39.745755" lon="-8.485113">
<ele>189.5</ele>
<desc>Speed 22.0 km/h Distance 51.07 km</desc>
<time>2011-05-22T10:58:51.25</time>
<name>10653</name>
<sym>Dot</sym>
</trkpt>
<trkpt lat="39.745713" lon="-8.485165">
<ele>189.5</ele>
<desc>Speed 22.7 km/h Distance 51.07 km</desc>
<time>2011-05-22T10:58:52.25</time>
<name>10654</name>
<sym>Dot</sym>
</trkpt>
<trkpt lat="39.745675" lon="-8.485212">
<ele>189.5</ele>
<desc>Speed 20.4 km/h Distance 51.08 km</desc>
<time>2011-05-22T10:58:53.25</time>
<name>10655</name>
<sym>Dot</sym>
</trkpt>
<trkpt lat="39.745633" lon="-8.485267">
<ele>190.5</ele>
<desc>Speed 23.7 km/h Distance 51.09 km</desc>
<time>2011-05-22T10:58:54.25</time>
<name>10656</name>
<sym>Dot</sym>
</trkpt>
<trkpt lat="39.745592" lon="-8.485322">
<ele>190.5</ele>
<desc>Speed 23.2 km/h Distance 51.09 km</desc>
<time>2011-05-22T10:58:55.25</time>
<name>10657</name>
<sym>Dot</sym>
</trkpt>
<trkpt lat="39.745550" lon="-8.485375">
<ele>190.0</ele>
<desc>Speed 23.3 km/h Distance 51.10 km</desc>
<time>2011-05-22T10:58:56.25</time>
<name>10658</name>
<sym>Dot</sym>
</trkpt>
<trkpt lat="39.745508" lon="-8.485430">
<ele>189.5</ele>
<desc>Speed 23.3 km/h Distance 51.11 km</desc>
<time>2011-05-22T10:58:57.25</time>
<name>10659</name>
<sym>Dot</sym>
</trkpt>
<trkpt lat="39.745467" lon="-8.485483">
<ele>189.0</ele>
<desc>Speed 23.5 km/h Distance 51.11 km</desc>
<time>2011-05-22T10:58:58.25</time>
<name>10660</name>
<sym>Dot</sym>
</trkpt>
<trkpt lat="39.745422" lon="-8.485535">
<ele>189.0</ele>
<desc>Speed 23.7 km/h Distance 51.12 km</desc>
<time>2011-05-22T10:58:59.25</time>
<name>10661</name>
<sym>Dot</sym>
</trkpt>
<trkpt lat="39.745377" lon="-8.485588">
<ele>188.5</ele>
<desc>Speed 24.3 km/h Distance 51.13 km</desc>
<time>2011-05-22T10:59:00.25</time>
<name>10662</name>
<sym>Dot</sym>
</trkpt>
<trkpt lat="39.745328" lon="-8.485643">
<ele>188.5</ele>
<desc>Speed 24.9 km/h Distance 51.13 km</desc>
<time>2011-05-22T10:59:01.25</time>
<name>10663</name>
<sym>Dot</sym>
</trkpt>
<trkpt lat="39.745282" lon="-8.485702">
<ele>188.5</ele>
<desc>Speed 25.3 km/h Distance 51.14 km</desc>
<time>2011-05-22T10:59:02.25</time>
<name>10664</name>
<sym>Dot</sym>
</trkpt>
<trkpt lat="39.745235" lon="-8.485762">
<ele>188.0</ele>
<desc>Speed 25.1 km/h Distance 51.15 km</desc>
<time>2011-05-22T10:59:03.25</time>
<name>10665</name>
<sym>Dot</sym>
</trkpt>
<trkpt lat="39.745188" lon="-8.485818">
<ele>188.0</ele>
<desc>Speed 25.3 km/h Distance 51.16 km</desc>
<time>2011-05-22T10:59:04.25</time>
<name>10666</name>
<sym>Dot</sym>
</trkpt>
<trkpt lat="39.745143" lon="-8.485875">
<ele>188.0</ele>
<desc>Speed 24.7 km/h Distance 51.16 km</desc>
<time>2011-05-22T10:59:05.25</time>
<name>10667</name>
<sym>Dot</sym>
</trkpt>
<trkpt lat="39.745098" lon="-8.485933">
<ele>188.0</ele>
<desc>Speed 25.1 km/h Distance 51.17 km</desc>
<time>2011-05-22T10:59:06.25</time>
<name>10668</name>
<sym>Dot</sym>
</trkpt>
<trkpt lat="39.745052" lon="-8.485990">
<ele>188.0</ele>
<desc>Speed 24.8 km/h Distance 51.18 km</desc>
<time>2011-05-22T10:59:07.25</time>
<name>10669</name>
<sym>Dot</sym>
</trkpt>
<trkpt lat="39.745003" lon="-8.486045">
<ele>188.0</ele>
<desc>Speed 25.1 km/h Distance 51.18 km</desc>
<time>2011-05-22T10:59:08.25</time>
<name>10670</name>
<sym>Dot</sym>
</trkpt>
<trkpt lat="39.744955" lon="-8.486102">
<ele>188.0</ele>
<desc>Speed 25.4 km/h Distance 51.19 km</desc>
<time>2011-05-22T10:59:09.25</time>
<name>10671</name>
<sym>Dot</sym>
</trkpt>
<trkpt lat="39.744905" lon="-8.486155">
<ele>188.0</ele>
<desc>Speed 25.6 km/h Distance 51.20 km</desc>
<time>2011-05-22T10:59:10.25</time>
<name>10672</name>
<sym>Dot</sym>
</trkpt>
<trkpt lat="39.744850" lon="-8.486207">
<ele>187.5</ele>
<desc>Speed 26.3 km/h Distance 51.21 km</desc>
<time>2011-05-22T10:59:11.25</time>
<name>10673</name>
<sym>Dot</sym>
</trkpt>
<trkpt lat="39.744795" lon="-8.486255">
<ele>188.0</ele>
<desc>Speed 26.4 km/h Distance 51.21 km</desc>
<time>2011-05-22T10:59:12.25</time>
<name>10674</name>
<sym>Dot</sym>
</trkpt>
<trkpt lat="39.744737" lon="-8.486303">
<ele>188.0</ele>
<desc>Speed 26.4 km/h Distance 51.22 km</desc>
<time>2011-05-22T10:59:13.25</time>
<name>10675</name>
<sym>Dot</sym>
</trkpt>
<trkpt lat="39.744678" lon="-8.486350">
<ele>188.0</ele>
<desc>Speed 26.8 km/h Distance 51.23 km</desc>
<time>2011-05-22T10:59:14.25</time>
<name>10676</name>
<sym>Dot</sym>
</trkpt>
<trkpt lat="39.744618" lon="-8.486392">
<ele>187.5</ele>
<desc>Speed 26.9 km/h Distance 51.24 km</desc>
<time>2011-05-22T10:59:15.25</time>
<name>10677</name>
<sym>Dot</sym>
</trkpt>
<trkpt lat="39.744557" lon="-8.486433">
<ele>187.5</ele>
<desc>Speed 27.2 km/h Distance 51.24 km</desc>
<time>2011-05-22T10:59:16.25</time>
<name>10678</name>
<sym>Dot</sym>
</trkpt>
<trkpt lat="39.744498" lon="-8.486477">
<ele>188.0</ele>
<desc>Speed 27.0 km/h Distance 51.25 km</desc>
<time>2011-05-22T10:59:17.25</time>
<name>10679</name>
<sym>Dot</sym>
</trkpt>
<trkpt lat="39.744438" lon="-8.486522">
<ele>188.5</ele>
<desc>Speed 27.5 km/h Distance 51.26 km</desc>
<time>2011-05-22T10:59:18.25</time>
<name>10680</name>
<sym>Dot</sym>
</trkpt>
<trkpt lat="39.744378" lon="-8.486568">
<ele>188.0</ele>
<desc>Speed 27.6 km/h Distance 51.27 km</desc>
<time>2011-05-22T10:59:19.25</time>
<name>10681</name>
<sym>Dot</sym>
</trkpt>
<trkpt lat="39.744318" lon="-8.486617">
<ele>188.0</ele>
<desc>Speed 27.8 km/h Distance 51.27 km</desc>
<time>2011-05-22T10:59:20.25</time>
<name>10682</name>
<sym>Dot</sym>
</trkpt>
<trkpt lat="39.744255" lon="-8.486662">
<ele>188.0</ele>
<desc>Speed 28.2 km/h Distance 51.28 km</desc>
<time>2011-05-22T10:59:21.25</time>
<name>10683</name>
<sym>Dot</sym>
</trkpt>
<trkpt lat="39.744190" lon="-8.486705">
<ele>188.0</ele>
<desc>Speed 28.8 km/h Distance 51.29 km</desc>
<time>2011-05-22T10:59:22.25</time>
<name>10684</name>
<sym>Dot</sym>
</trkpt>
<trkpt lat="39.744123" lon="-8.486747">
<ele>188.0</ele>
<desc>Speed 29.3 km/h Distance 51.30 km</desc>
<time>2011-05-22T10:59:23.25</time>
<name>10685</name>
<sym>Dot</sym>
</trkpt>
<trkpt lat="39.744057" lon="-8.486792">
<ele>188.0</ele>
<desc>Speed 29.3 km/h Distance 51.31 km</desc>
<time>2011-05-22T10:59:24.25</time>
<name>10686</name>
<sym>Dot</sym>
</trkpt>
<trkpt lat="39.743990" lon="-8.486837">
<ele>188.0</ele>
<desc>Speed 29.5 km/h Distance 51.32 km</desc>
<time>2011-05-22T10:59:25.25</time>
<name>10687</name>
<sym>Dot</sym>
</trkpt>
<trkpt lat="39.743923" lon="-8.486882">
<ele>188.0</ele>
<desc>Speed 30.2 km/h Distance 51.32 km</desc>
<time>2011-05-22T10:59:26.25</time>
<name>10688</name>
<sym>Dot</sym>
</trkpt>
<trkpt lat="39.743855" lon="-8.486927">
<ele>187.5</ele>
<desc>Speed 30.1 km/h Distance 51.33 km</desc>
<time>2011-05-22T10:59:27.25</time>
<name>10689</name>
<sym>Dot</sym>
</trkpt>
<trkpt lat="39.743787" lon="-8.486972">
<ele>187.5</ele>
<desc>Speed 30.3 km/h Distance 51.34 km</desc>
<time>2011-05-22T10:59:28.25</time>
<name>10690</name>
<sym>Dot</sym>
</trkpt>
<trkpt lat="39.743718" lon="-8.487017">
<ele>187.5</ele>
<desc>Speed 30.2 km/h Distance 51.35 km</desc>
<time>2011-05-22T10:59:29.25</time>
<name>10691</name>
<sym>Dot</sym>
</trkpt>
<trkpt lat="39.743650" lon="-8.487060">
<ele>187.5</ele>
<desc>Speed 30.2 km/h Distance 51.36 km</desc>
<time>2011-05-22T10:59:30.25</time>
<name>10692</name>
<sym>Dot</sym>
</trkpt>
<trkpt lat="39.743582" lon="-8.487107">
<ele>187.0</ele>
<desc>Speed 30.9 km/h Distance 51.37 km</desc>
<time>2011-05-22T10:59:31.25</time>
<name>10693</name>
<sym>Dot</sym>
</trkpt>
<trkpt lat="39.743512" lon="-8.487152">
<ele>187.0</ele>
<desc>Speed 31.0 km/h Distance 51.38 km</desc>
<time>2011-05-22T10:59:32.25</time>
<name>10694</name>
<sym>Dot</sym>
</trkpt>
<trkpt lat="39.743443" lon="-8.487198">
<ele>186.5</ele>
<desc>Speed 30.8 km/h Distance 51.38 km</desc>
<time>2011-05-22T10:59:33.25</time>
<name>10695</name>
<sym>Dot</sym>
</trkpt>
<trkpt lat="39.743375" lon="-8.487245">
<ele>186.5</ele>
<desc>Speed 30.7 km/h Distance 51.39 km</desc>
<time>2011-05-22T10:59:34.25</time>
<name>10696</name>
<sym>Dot</sym>
</trkpt>
<trkpt lat="39.743307" lon="-8.487292">
<ele>186.0</ele>
<desc>Speed 30.6 km/h Distance 51.40 km</desc>
<time>2011-05-22T10:59:35.25</time>
<name>10697</name>
<sym>Dot</sym>
</trkpt>
<trkpt lat="39.743238" lon="-8.487338">
<ele>186.0</ele>
<desc>Speed 30.2 km/h Distance 51.41 km</desc>
<time>2011-05-22T10:59:36.25</time>
<name>10698</name>
<sym>Dot</sym>
</trkpt>
<trkpt lat="39.743172" lon="-8.487380">
<ele>185.5</ele>
<desc>Speed 29.7 km/h Distance 51.42 km</desc>
<time>2011-05-22T10:59:37.25</time>
<name>10699</name>
<sym>Dot</sym>
</trkpt>
<trkpt lat="39.743105" lon="-8.487420">
<ele>185.0</ele>
<desc>Speed 28.9 km/h Distance 51.43 km</desc>
<time>2011-05-22T10:59:38.25</time>
<name>10700</name>
<sym>Dot</sym>
</trkpt>
<trkpt lat="39.743040" lon="-8.487460">
<ele>185.0</ele>
<desc>Speed 28.4 km/h Distance 51.43 km</desc>
<time>2011-05-22T10:59:39.25</time>
<name>10701</name>
<sym>Dot</sym>
</trkpt>
<trkpt lat="39.742973" lon="-8.487495">
<ele>184.5</ele>
<desc>Speed 27.9 km/h Distance 51.44 km</desc>
<time>2011-05-22T10:59:40.25</time>
<name>10702</name>
<sym>Dot</sym>
</trkpt>
<trkpt lat="39.742907" lon="-8.487525">
<ele>184.0</ele>
<desc>Speed 28.0 km/h Distance 51.45 km</desc>
<time>2011-05-22T10:59:41.25</time>
<name>10703</name>
<sym>Dot</sym>
</trkpt>
<trkpt lat="39.742838" lon="-8.487552">
<ele>183.5</ele>
<desc>Speed 28.1 km/h Distance 51.46 km</desc>
<time>2011-05-22T10:59:42.25</time>
<name>10704</name>
<sym>Dot</sym>
</trkpt>
<trkpt lat="39.742770" lon="-8.487577">
<ele>183.5</ele>
<desc>Speed 27.5 km/h Distance 51.47 km</desc>
<time>2011-05-22T10:59:43.25</time>
<name>10705</name>
<sym>Dot</sym>
</trkpt>
<trkpt lat="39.742702" lon="-8.487598">
<ele>183.0</ele>
<desc>Speed 27.0 km/h Distance 51.47 km</desc>
<time>2011-05-22T10:59:44.25</time>
<name>10706</name>
<sym>Dot</sym>
</trkpt>
<trkpt lat="39.742637" lon="-8.487617">
<ele>183.5</ele>
<desc>Speed 26.9 km/h Distance 51.48 km</desc>
<time>2011-05-22T10:59:45.25</time>
<name>10707</name>
<sym>Dot</sym>
</trkpt>
<trkpt lat="39.742570" lon="-8.487632">
<ele>184.0</ele>
<desc>Speed 26.6 km/h Distance 51.49 km</desc>
<time>2011-05-22T10:59:46.25</time>
<name>10708</name>
<sym>Dot</sym>
</trkpt>
<trkpt lat="39.742507" lon="-8.487640">
<ele>184.5</ele>
<desc>Speed 25.7 km/h Distance 51.50 km</desc>
<time>2011-05-22T10:59:47.25</time>
<name>10709</name>
<sym>Dot</sym>
</trkpt>
<trkpt lat="39.742452" lon="-8.487645">
<ele>185.0</ele>
<desc>Speed 22.1 km/h Distance 51.50 km</desc>
<time>2011-05-22T10:59:48.25</time>
<name>10710</name>
<sym>Dot</sym>
</trkpt>
<trkpt lat="39.742393" lon="-8.487648">
<ele>185.0</ele>
<desc>Speed 9.0 km/h Distance 51.51 km</desc>
<time>2011-05-22T10:59:50.25</time>
<name>10711</name>
<sym>Dot</sym>
</trkpt>
<trkpt lat="39.742380" lon="-8.487650">
<ele>185.5</ele>
<desc>Speed 5.9 km/h Distance 51.51 km</desc>
<time>2011-05-22T10:59:51.25</time>
<name>10712</name>
<sym>Dot</sym>
</trkpt>
<trkpt lat="39.742373" lon="-8.487648">
<ele>186.5</ele>
<desc>Speed 2.9 km/h Distance 51.51 km</desc>
<time>2011-05-22T10:59:52.25</time>
<name>10713</name>
<sym>Dot</sym>
</trkpt>
<trkpt lat="39.742368" lon="-8.487643">
<ele>186.5</ele>
<desc>Speed 2.1 km/h Distance 51.51 km</desc>
<time>2011-05-22T11:00:24.25</time>
<name>10714</name>
<sym>Dot</sym>
</trkpt>
<trkpt lat="39.742357" lon="-8.487630">
<ele>185.5</ele>
<desc>Speed 6.1 km/h Distance 51.51 km</desc>
<time>2011-05-22T11:00:26.25</time>
<name>10715</name>
<sym>Dot</sym>
</trkpt>
<trkpt lat="39.742362" lon="-8.487630">
<ele>187.0</ele>
<desc>Speed 1.1 km/h Distance 51.51 km</desc>
<time>2011-05-22T11:00:33.25</time>
<name>10716</name>
<sym>Dot</sym>
</trkpt>
<trkpt lat="39.742357" lon="-8.487623">
<ele>188.0</ele>
<desc>Speed 1.1 km/h Distance 51.51 km</desc>
<time>2011-05-22T11:00:39.25</time>
<name>10717</name>
<sym>Dot</sym>
</trkpt>
<trkpt lat="39.742355" lon="-8.487622">
<ele>188.5</ele>
<desc>Speed 1.8 km/h Distance 51.51 km</desc>
<time>2011-05-22T11:00:40.25</time>
<name>10718</name>
<sym>Dot</sym>
</trkpt>
<trkpt lat="39.742353" lon="-8.487623">
<ele>188.5</ele>
<desc>Speed 2.8 km/h Distance 51.51 km</desc>
<time>2011-05-22T11:00:41.25</time>
<name>10719</name>
<sym>Dot</sym>
</trkpt>
<trkpt lat="39.742347" lon="-8.487623">
<ele>189.5</ele>
<desc>Speed 3.5 km/h Distance 51.52 km</desc>
<time>2011-05-22T11:00:42.25</time>
<name>10720</name>
<sym>Dot</sym>
</trkpt>
<trkpt lat="39.742343" lon="-8.487627">
<ele>191.0</ele>
<desc>Speed 2.8 km/h Distance 51.52 km</desc>
<time>2011-05-22T11:00:43.25</time>
<name>10721</name>
<sym>Dot</sym>
</trkpt>
<trkpt lat="39.742342" lon="-8.487632">
<ele>192.0</ele>
<desc>Speed 2.6 km/h Distance 51.52 km</desc>
<time>2011-05-22T11:00:44.25</time>
<name>10722</name>
<sym>Dot</sym>
</trkpt>
<trkpt lat="39.742342" lon="-8.487642">
<ele>194.0</ele>
<desc>Speed 2.6 km/h Distance 51.52 km</desc>
<time>2011-05-22T11:00:45.25</time>
<name>10723</name>
<sym>Dot</sym>
</trkpt>
<trkpt lat="39.742325" lon="-8.487642">
<ele>194.0</ele>
<desc>Speed 7.1 km/h Distance 51.52 km</desc>
<time>2011-05-22T11:00:46.25</time>
<name>10724</name>
<sym>Dot</sym>
</trkpt>
<trkpt lat="39.742308" lon="-8.487640">
<ele>194.5</ele>
<desc>Speed 6.9 km/h Distance 51.52 km</desc>
<time>2011-05-22T11:00:47.25</time>
<name>10725</name>
<sym>Dot</sym>
</trkpt>
<trkpt lat="39.742287" lon="-8.487640">
<ele>195.0</ele>
<desc>Speed 8.1 km/h Distance 51.52 km</desc>
<time>2011-05-22T11:00:48.25</time>
<name>10726</name>
<sym>Dot</sym>
</trkpt>
<trkpt lat="39.742260" lon="-8.487637">
<ele>195.0</ele>
<desc>Speed 10.6 km/h Distance 51.53 km</desc>
<time>2011-05-22T11:00:49.25</time>
<name>10727</name>
<sym>Dot</sym>
</trkpt>
<trkpt lat="39.742232" lon="-8.487638">
<ele>195.5</ele>
<desc>Speed 9.7 km/h Distance 51.53 km</desc>
<time>2011-05-22T11:00:50.25</time>
<name>10728</name>
<sym>Dot</sym>
</trkpt>
<trkpt lat="39.742205" lon="-8.487640">
<ele>196.5</ele>
<desc>Speed 10.1 km/h Distance 51.53 km</desc>
<time>2011-05-22T11:00:51.25</time>
<name>10729</name>
<sym>Dot</sym>
</trkpt>
<trkpt lat="39.742175" lon="-8.487642">
<ele>197.0</ele>
<desc>Speed 10.8 km/h Distance 51.54 km</desc>
<time>2011-05-22T11:00:52.25</time>
<name>10730</name>
<sym>Dot</sym>
</trkpt>
<trkpt lat="39.742148" lon="-8.487642">
<ele>196.5</ele>
<desc>Speed 9.8 km/h Distance 51.54 km</desc>
<time>2011-05-22T11:00:53.25</time>
<name>10731</name>
<sym>Dot</sym>
</trkpt>
<trkpt lat="39.742120" lon="-8.487645">
<ele>197.0</ele>
<desc>Speed 11.1 km/h Distance 51.54 km</desc>
<time>2011-05-22T11:00:54.25</time>
<name>10732</name>
<sym>Dot</sym>
</trkpt>
<trkpt lat="39.742095" lon="-8.487648">
<ele>197.0</ele>
<desc>Speed 9.6 km/h Distance 51.54 km</desc>
<time>2011-05-22T11:00:55.25</time>
<name>10733</name>
<sym>Dot</sym>
</trkpt>
<trkpt lat="39.742068" lon="-8.487652">
<ele>197.0</ele>
<desc>Speed 10.3 km/h Distance 51.55 km</desc>
<time>2011-05-22T11:00:56.25</time>
<name>10734</name>
<sym>Dot</sym>
</trkpt>
<trkpt lat="39.742043" lon="-8.487653">
<ele>197.0</ele>
<desc>Speed 10.0 km/h Distance 51.55 km</desc>
<time>2011-05-22T11:00:57.25</time>
<name>10735</name>
<sym>Dot</sym>
</trkpt>
<trkpt lat="39.742018" lon="-8.487653">
<ele>197.0</ele>
<desc>Speed 9.8 km/h Distance 51.55 km</desc>
<time>2011-05-22T11:00:58.25</time>
<name>10736</name>
<sym>Dot</sym>
</trkpt>
<trkpt lat="39.741993" lon="-8.487658">
<ele>197.0</ele>
<desc>Speed 10.1 km/h Distance 51.56 km</desc>
<time>2011-05-22T11:00:59.25</time>
<name>10737</name>
<sym>Dot</sym>
</trkpt>
<trkpt lat="39.741965" lon="-8.487665">
<ele>197.0</ele>
<desc>Speed 11.4 km/h Distance 51.56 km</desc>
<time>2011-05-22T11:01:00.25</time>
<name>10738</name>
<sym>Dot</sym>
</trkpt>
<trkpt lat="39.741935" lon="-8.487668">
<ele>197.0</ele>
<desc>Speed 12.0 km/h Distance 51.56 km</desc>
<time>2011-05-22T11:01:01.25</time>
<name>10739</name>
<sym>Dot</sym>
</trkpt>
<trkpt lat="39.741902" lon="-8.487675">
<ele>197.0</ele>
<desc>Speed 13.3 km/h Distance 51.57 km</desc>
<time>2011-05-22T11:01:02.25</time>
<name>10740</name>
<sym>Dot</sym>
</trkpt>
<trkpt lat="39.741870" lon="-8.487685">
<ele>197.0</ele>
<desc>Speed 13.0 km/h Distance 51.57 km</desc>
<time>2011-05-22T11:01:03.25</time>
<name>10741</name>
<sym>Dot</sym>
</trkpt>
<trkpt lat="39.741835" lon="-8.487695">
<ele>197.0</ele>
<desc>Speed 14.2 km/h Distance 51.57 km</desc>
<time>2011-05-22T11:01:04.25</time>
<name>10742</name>
<sym>Dot</sym>
</trkpt>
<trkpt lat="39.741797" lon="-8.487703">
<ele>197.0</ele>
<desc>Speed 15.4 km/h Distance 51.58 km</desc>
<time>2011-05-22T11:01:05.25</time>
<name>10743</name>
<sym>Dot</sym>
</trkpt>
<trkpt lat="39.741760" lon="-8.487712">
<ele>197.5</ele>
<desc>Speed 15.0 km/h Distance 51.58 km</desc>
<time>2011-05-22T11:01:06.25</time>
<name>10744</name>
<sym>Dot</sym>
</trkpt>
<trkpt lat="39.741718" lon="-8.487718">
<ele>197.5</ele>
<desc>Speed 16.7 km/h Distance 51.59 km</desc>
<time>2011-05-22T11:01:07.25</time>
<name>10745</name>
<sym>Dot</sym>
</trkpt>
<trkpt lat="39.741677" lon="-8.487725">
<ele>197.5</ele>
<desc>Speed 17.0 km/h Distance 51.59 km</desc>
<time>2011-05-22T11:01:08.25</time>
<name>10746</name>
<sym>Dot</sym>
</trkpt>
<trkpt lat="39.741635" lon="-8.487735">
<ele>198.0</ele>
<desc>Speed 17.4 km/h Distance 51.60 km</desc>
<time>2011-05-22T11:01:09.25</time>
<name>10747</name>
<sym>Dot</sym>
</trkpt>
<trkpt lat="39.741592" lon="-8.487743">
<ele>199.0</ele>
<desc>Speed 18.0 km/h Distance 51.60 km</desc>
<time>2011-05-22T11:01:10.25</time>
<name>10748</name>
<sym>Dot</sym>
</trkpt>
<trkpt lat="39.741545" lon="-8.487757">
<ele>199.5</ele>
<desc>Speed 19.2 km/h Distance 51.61 km</desc>
<time>2011-05-22T11:01:11.25</time>
<name>10749</name>
<sym>Dot</sym>
</trkpt>
<trkpt lat="39.741500" lon="-8.487768">
<ele>200.0</ele>
<desc>Speed 19.3 km/h Distance 51.61 km</desc>
<time>2011-05-22T11:01:12.25</time>
<name>10750</name>
<sym>Dot</sym>
</trkpt>
<trkpt lat="39.741450" lon="-8.487780">
<ele>200.0</ele>
<desc>Speed 20.2 km/h Distance 51.62 km</desc>
<time>2011-05-22T11:01:13.25</time>
<name>10751</name>
<sym>Dot</sym>
</trkpt>
<trkpt lat="39.741400" lon="-8.487792">
<ele>200.5</ele>
<desc>Speed 21.4 km/h Distance 51.62 km</desc>
<time>2011-05-22T11:01:14.25</time>
<name>10752</name>
<sym>Dot</sym>
</trkpt>
<trkpt lat="39.741342" lon="-8.487805">
<ele>200.0</ele>
<desc>Speed 23.3 km/h Distance 51.63 km</desc>
<time>2011-05-22T11:01:15.25</time>
<name>10753</name>
<sym>Dot</sym>
</trkpt>
<trkpt lat="39.741285" lon="-8.487815">
<ele>199.5</ele>
<desc>Speed 22.8 km/h Distance 51.64 km</desc>
<time>2011-05-22T11:01:16.25</time>
<name>10754</name>
<sym>Dot</sym>
</trkpt>
<trkpt lat="39.741227" lon="-8.487823">
<ele>199.5</ele>
<desc>Speed 23.3 km/h Distance 51.64 km</desc>
<time>2011-05-22T11:01:17.25</time>
<name>10755</name>
<sym>Dot</sym>
</trkpt>
<trkpt lat="39.741168" lon="-8.487833">
<ele>199.0</ele>
<desc>Speed 24.2 km/h Distance 51.65 km</desc>
<time>2011-05-22T11:01:18.25</time>
<name>10756</name>
<sym>Dot</sym>
</trkpt>
<trkpt lat="39.741110" lon="-8.487847">
<ele>199.0</ele>
<desc>Speed 23.3 km/h Distance 51.66 km</desc>
<time>2011-05-22T11:01:19.25</time>
<name>10757</name>
<sym>Dot</sym>
</trkpt>
<trkpt lat="39.741048" lon="-8.487858">
<ele>198.5</ele>
<desc>Speed 25.4 km/h Distance 51.66 km</desc>
<time>2011-05-22T11:01:20.25</time>
<name>10758</name>
<sym>Dot</sym>
</trkpt>
<trkpt lat="39.740983" lon="-8.487868">
<ele>198.5</ele>
<desc>Speed 25.7 km/h Distance 51.67 km</desc>
<time>2011-05-22T11:01:21.25</time>
<name>10759</name>
<sym>Dot</sym>
</trkpt>
<trkpt lat="39.740918" lon="-8.487878">
<ele>198.0</ele>
<desc>Speed 26.2 km/h Distance 51.68 km</desc>
<time>2011-05-22T11:01:22.25</time>
<name>10760</name>
<sym>Dot</sym>
</trkpt>
<trkpt lat="39.740853" lon="-8.487888">
<ele>198.0</ele>
<desc>Speed 26.0 km/h Distance 51.68 km</desc>
<time>2011-05-22T11:01:23.25</time>
<name>10761</name>
<sym>Dot</sym>
</trkpt>
<trkpt lat="39.740788" lon="-8.487900">
<ele>197.5</ele>
<desc>Speed 26.3 km/h Distance 51.69 km</desc>
<time>2011-05-22T11:01:24.25</time>
<name>10762</name>
<sym>Dot</sym>
</trkpt>
<trkpt lat="39.740723" lon="-8.487912">
<ele>197.5</ele>
<desc>Speed 26.4 km/h Distance 51.70 km</desc>
<time>2011-05-22T11:01:25.25</time>
<name>10763</name>
<sym>Dot</sym>
</trkpt>
<trkpt lat="39.740657" lon="-8.487923">
<ele>197.5</ele>
<desc>Speed 26.7 km/h Distance 51.71 km</desc>
<time>2011-05-22T11:01:26.25</time>
<name>10764</name>
<sym>Dot</sym>
</trkpt>
<trkpt lat="39.740592" lon="-8.487937">
<ele>197.0</ele>
<desc>Speed 26.5 km/h Distance 51.71 km</desc>
<time>2011-05-22T11:01:27.25</time>
<name>10765</name>
<sym>Dot</sym>
</trkpt>
<trkpt lat="39.740525" lon="-8.487950">
<ele>197.0</ele>
<desc>Speed 27.5 km/h Distance 51.72 km</desc>
<time>2011-05-22T11:01:28.25</time>
<name>10766</name>
<sym>Dot</sym>
</trkpt>
<trkpt lat="39.740458" lon="-8.487963">
<ele>197.0</ele>
<desc>Speed 27.3 km/h Distance 51.73 km</desc>
<time>2011-05-22T11:01:29.25</time>
<name>10767</name>
<sym>Dot</sym>
</trkpt>
<trkpt lat="39.740390" lon="-8.487977">
<ele>197.0</ele>
<desc>Speed 27.7 km/h Distance 51.74 km</desc>
<time>2011-05-22T11:01:30.25</time>
<name>10768</name>
<sym>Dot</sym>
</trkpt>
<trkpt lat="39.740320" lon="-8.487988">
<ele>197.0</ele>
<desc>Speed 28.2 km/h Distance 51.74 km</desc>
<time>2011-05-22T11:01:31.25</time>
<name>10769</name>
<sym>Dot</sym>
</trkpt>
<trkpt lat="39.740250" lon="-8.488002">
<ele>196.5</ele>
<desc>Speed 28.7 km/h Distance 51.75 km</desc>
<time>2011-05-22T11:01:32.25</time>
<name>10770</name>
<sym>Dot</sym>
</trkpt>
<trkpt lat="39.740178" lon="-8.488013">
<ele>196.0</ele>
<desc>Speed 29.2 km/h Distance 51.76 km</desc>
<time>2011-05-22T11:01:33.25</time>
<name>10771</name>
<sym>Dot</sym>
</trkpt>
<trkpt lat="39.740110" lon="-8.488028">
<ele>196.0</ele>
<desc>Speed 28.3 km/h Distance 51.77 km</desc>
<time>2011-05-22T11:01:34.25</time>
<name>10772</name>
<sym>Dot</sym>
</trkpt>
<trkpt lat="39.740040" lon="-8.488042">
<ele>196.0</ele>
<desc>Speed 28.7 km/h Distance 51.78 km</desc>
<time>2011-05-22T11:01:35.25</time>
<name>10773</name>
<sym>Dot</sym>
</trkpt>
<trkpt lat="39.739968" lon="-8.488057">
<ele>195.5</ele>
<desc>Speed 29.4 km/h Distance 51.78 km</desc>
<time>2011-05-22T11:01:36.25</time>
<name>10774</name>
<sym>Dot</sym>
</trkpt>
<trkpt lat="39.739895" lon="-8.488072">
<ele>195.0</ele>
<desc>Speed 29.6 km/h Distance 51.79 km</desc>
<time>2011-05-22T11:01:37.25</time>
<name>10775</name>
<sym>Dot</sym>
</trkpt>
<trkpt lat="39.739820" lon="-8.488085">
<ele>195.0</ele>
<desc>Speed 29.8 km/h Distance 51.80 km</desc>
<time>2011-05-22T11:01:38.25</time>
<name>10776</name>
<sym>Dot</sym>
</trkpt>
<trkpt lat="39.739747" lon="-8.488100">
<ele>194.5</ele>
<desc>Speed 29.9 km/h Distance 51.81 km</desc>
<time>2011-05-22T11:01:39.25</time>
<name>10777</name>
<sym>Dot</sym>
</trkpt>
<trkpt lat="39.739672" lon="-8.488117">
<ele>194.5</ele>
<desc>Speed 29.9 km/h Distance 51.82 km</desc>
<time>2011-05-22T11:01:40.25</time>
<name>10778</name>
<sym>Dot</sym>
</trkpt>
<trkpt lat="39.739597" lon="-8.488130">
<ele>194.0</ele>
<desc>Speed 30.7 km/h Distance 51.83 km</desc>
<time>2011-05-22T11:01:41.25</time>
<name>10779</name>
<sym>Dot</sym>
</trkpt>
<trkpt lat="39.739522" lon="-8.488145">
<ele>194.0</ele>
<desc>Speed 30.8 km/h Distance 51.83 km</desc>
<time>2011-05-22T11:01:42.25</time>
<name>10780</name>
<sym>Dot</sym>
</trkpt>
<trkpt lat="39.739445" lon="-8.488158">
<ele>193.5</ele>
<desc>Speed 31.2 km/h Distance 51.84 km</desc>
<time>2011-05-22T11:01:43.25</time>
<name>10781</name>
<sym>Dot</sym>
</trkpt>
<trkpt lat="39.739367" lon="-8.488173">
<ele>193.5</ele>
<desc>Speed 31.6 km/h Distance 51.85 km</desc>
<time>2011-05-22T11:01:44.25</time>
<name>10782</name>
<sym>Dot</sym>
</trkpt>
<trkpt lat="39.739290" lon="-8.488188">
<ele>193.0</ele>
<desc>Speed 31.3 km/h Distance 51.86 km</desc>
<time>2011-05-22T11:01:45.25</time>
<name>10783</name>
<sym>Dot</sym>
</trkpt>
<trkpt lat="39.739208" lon="-8.488205">
<ele>193.0</ele>
<desc>Speed 32.1 km/h Distance 51.87 km</desc>
<time>2011-05-22T11:01:46.25</time>
<name>10784</name>
<sym>Dot</sym>
</trkpt>
<trkpt lat="39.739130" lon="-8.488222">
<ele>192.5</ele>
<desc>Speed 32.3 km/h Distance 51.88 km</desc>
<time>2011-05-22T11:01:47.25</time>
<name>10785</name>
<sym>Dot</sym>
</trkpt>
<trkpt lat="39.739050" lon="-8.488237">
<ele>192.5</ele>
<desc>Speed 32.4 km/h Distance 51.89 km</desc>
<time>2011-05-22T11:01:48.25</time>
<name>10786</name>
<sym>Dot</sym>
</trkpt>
<trkpt lat="39.738972" lon="-8.488255">
<ele>192.5</ele>
<desc>Speed 32.4 km/h Distance 51.90 km</desc>
<time>2011-05-22T11:01:49.25</time>
<name>10787</name>
<sym>Dot</sym>
</trkpt>
<trkpt lat="39.738893" lon="-8.488280">
<ele>192.0</ele>
<desc>Speed 32.4 km/h Distance 51.91 km</desc>
<time>2011-05-22T11:01:50.25</time>
<name>10788</name>
<sym>Dot</sym>
</trkpt>
<trkpt lat="39.738815" lon="-8.488312">
<ele>192.0</ele>
<desc>Speed 32.1 km/h Distance 51.91 km</desc>
<time>2011-05-22T11:01:51.25</time>
<name>10789</name>
<sym>Dot</sym>
</trkpt>
<trkpt lat="39.738742" lon="-8.488350">
<ele>192.0</ele>
<desc>Speed 32.0 km/h Distance 51.92 km</desc>
<time>2011-05-22T11:01:52.25</time>
<name>10790</name>
<sym>Dot</sym>
</trkpt>
<trkpt lat="39.738670" lon="-8.488388">
<ele>192.5</ele>
<desc>Speed 31.0 km/h Distance 51.93 km</desc>
<time>2011-05-22T11:01:53.25</time>
<name>10791</name>
<sym>Dot</sym>
</trkpt>
<trkpt lat="39.738597" lon="-8.488423">
<ele>193.0</ele>
<desc>Speed 31.4 km/h Distance 51.94 km</desc>
<time>2011-05-22T11:01:54.25</time>
<name>10792</name>
<sym>Dot</sym>
</trkpt>
<trkpt lat="39.738528" lon="-8.488468">
<ele>193.0</ele>
<desc>Speed 30.8 km/h Distance 51.95 km</desc>
<time>2011-05-22T11:01:55.25</time>
<name>10793</name>
<sym>Dot</sym>
</trkpt>
<trkpt lat="39.738460" lon="-8.488518">
<ele>193.0</ele>
<desc>Speed 31.0 km/h Distance 51.96 km</desc>
<time>2011-05-22T11:01:56.25</time>
<name>10794</name>
<sym>Dot</sym>
</trkpt>
<trkpt lat="39.738397" lon="-8.488570">
<ele>192.5</ele>
<desc>Speed 30.6 km/h Distance 51.97 km</desc>
<time>2011-05-22T11:01:57.25</time>
<name>10795</name>
<sym>Dot</sym>
</trkpt>
<trkpt lat="39.738333" lon="-8.488625">
<ele>192.5</ele>
<desc>Speed 29.9 km/h Distance 51.97 km</desc>
<time>2011-05-22T11:01:58.25</time>
<name>10796</name>
<sym>Dot</sym>
</trkpt>
<trkpt lat="39.738272" lon="-8.488678">
<ele>192.5</ele>
<desc>Speed 30.0 km/h Distance 51.98 km</desc>
<time>2011-05-22T11:01:59.25</time>
<name>10797</name>
<sym>Dot</sym>
</trkpt>
<trkpt lat="39.738210" lon="-8.488733">
<ele>192.5</ele>
<desc>Speed 30.1 km/h Distance 51.99 km</desc>
<time>2011-05-22T11:02:00.25</time>
<name>10798</name>
<sym>Dot</sym>
</trkpt>
<trkpt lat="39.738148" lon="-8.488788">
<ele>192.0</ele>
<desc>Speed 30.2 km/h Distance 52.00 km</desc>
<time>2011-05-22T11:02:01.25</time>
<name>10799</name>
<sym>Dot</sym>
</trkpt>
<trkpt lat="39.738085" lon="-8.488842">
<ele>192.0</ele>
<desc>Speed 30.1 km/h Distance 52.01 km</desc>
<time>2011-05-22T11:02:02.25</time>
<name>10800</name>
<sym>Dot</sym>
</trkpt>
<trkpt lat="39.738023" lon="-8.488900">
<ele>191.5</ele>
<desc>Speed 30.2 km/h Distance 52.02 km</desc>
<time>2011-05-22T11:02:03.25</time>
<name>10801</name>
<sym>Dot</sym>
</trkpt>
<trkpt lat="39.737960" lon="-8.488957">
<ele>191.0</ele>
<desc>Speed 30.2 km/h Distance 52.02 km</desc>
<time>2011-05-22T11:02:04.25</time>
<name>10802</name>
<sym>Dot</sym>
</trkpt>
<trkpt lat="39.737897" lon="-8.489010">
<ele>190.5</ele>
<desc>Speed 30.2 km/h Distance 52.03 km</desc>
<time>2011-05-22T11:02:05.25</time>
<name>10803</name>
<sym>Dot</sym>
</trkpt>
<trkpt lat="39.737832" lon="-8.489062">
<ele>190.5</ele>
<desc>Speed 30.4 km/h Distance 52.04 km</desc>
<time>2011-05-22T11:02:06.25</time>
<name>10804</name>
<sym>Dot</sym>
</trkpt>
<trkpt lat="39.737768" lon="-8.489115">
<ele>190.0</ele>
<desc>Speed 30.4 km/h Distance 52.05 km</desc>
<time>2011-05-22T11:02:07.25</time>
<name>10805</name>
<sym>Dot</sym>
</trkpt>
<trkpt lat="39.737705" lon="-8.489170">
<ele>189.5</ele>
<desc>Speed 30.6 km/h Distance 52.06 km</desc>
<time>2011-05-22T11:02:08.25</time>
<name>10806</name>
<sym>Dot</sym>
</trkpt>
<trkpt lat="39.737642" lon="-8.489223">
<ele>189.0</ele>
<desc>Speed 30.2 km/h Distance 52.07 km</desc>
<time>2011-05-22T11:02:09.25</time>
<name>10807</name>
<sym>Dot</sym>
</trkpt>
<trkpt lat="39.737578" lon="-8.489275">
<ele>188.5</ele>
<desc>Speed 29.9 km/h Distance 52.08 km</desc>
<time>2011-05-22T11:02:10.25</time>
<name>10808</name>
<sym>Dot</sym>
</trkpt>
<trkpt lat="39.737517" lon="-8.489327">
<ele>188.5</ele>
<desc>Speed 29.6 km/h Distance 52.08 km</desc>
<time>2011-05-22T11:02:11.25</time>
<name>10809</name>
<sym>Dot</sym>
</trkpt>
<trkpt lat="39.737455" lon="-8.489380">
<ele>188.0</ele>
<desc>Speed 29.7 km/h Distance 52.09 km</desc>
<time>2011-05-22T11:02:12.25</time>
<name>10810</name>
<sym>Dot</sym>
</trkpt>
<trkpt lat="39.737393" lon="-8.489433">
<ele>188.0</ele>
<desc>Speed 29.7 km/h Distance 52.10 km</desc>
<time>2011-05-22T11:02:13.25</time>
<name>10811</name>
<sym>Dot</sym>
</trkpt>
<trkpt lat="39.737328" lon="-8.489482">
<ele>187.5</ele>
<desc>Speed 29.8 km/h Distance 52.11 km</desc>
<time>2011-05-22T11:02:14.25</time>
<name>10812</name>
<sym>Dot</sym>
</trkpt>
<trkpt lat="39.737263" lon="-8.489533">
<ele>187.0</ele>
<desc>Speed 29.6 km/h Distance 52.12 km</desc>
<time>2011-05-22T11:02:15.25</time>
<name>10813</name>
<sym>Dot</sym>
</trkpt>
<trkpt lat="39.737200" lon="-8.489585">
<ele>187.0</ele>
<desc>Speed 29.4 km/h Distance 52.13 km</desc>
<time>2011-05-22T11:02:16.25</time>
<name>10814</name>
<sym>Dot</sym>
</trkpt>
<trkpt lat="39.737137" lon="-8.489637">
<ele>186.0</ele>
<desc>Speed 29.3 km/h Distance 52.13 km</desc>
<time>2011-05-22T11:02:17.25</time>
<name>10815</name>
<sym>Dot</sym>
</trkpt>
<trkpt lat="39.737078" lon="-8.489688">
<ele>186.0</ele>
<desc>Speed 28.4 km/h Distance 52.14 km</desc>
<time>2011-05-22T11:02:18.25</time>
<name>10816</name>
<sym>Dot</sym>
</trkpt>
<trkpt lat="39.737020" lon="-8.489743">
<ele>185.5</ele>
<desc>Speed 28.8 km/h Distance 52.15 km</desc>
<time>2011-05-22T11:02:19.25</time>
<name>10817</name>
<sym>Dot</sym>
</trkpt>
<trkpt lat="39.736963" lon="-8.489802">
<ele>185.5</ele>
<desc>Speed 28.4 km/h Distance 52.16 km</desc>
<time>2011-05-22T11:02:20.25</time>
<name>10818</name>
<sym>Dot</sym>
</trkpt>
<trkpt lat="39.736913" lon="-8.489862">
<ele>185.5</ele>
<desc>Speed 27.2 km/h Distance 52.17 km</desc>
<time>2011-05-22T11:02:21.25</time>
<name>10819</name>
<sym>Dot</sym>
</trkpt>
<trkpt lat="39.736867" lon="-8.489928">
<ele>185.0</ele>
<desc>Speed 27.2 km/h Distance 52.17 km</desc>
<time>2011-05-22T11:02:22.25</time>
<name>10820</name>
<sym>Dot</sym>
</trkpt>
<trkpt lat="39.736820" lon="-8.489998">
<ele>184.0</ele>
<desc>Speed 26.7 km/h Distance 52.18 km</desc>
<time>2011-05-22T11:02:23.25</time>
<name>10821</name>
<sym>Dot</sym>
</trkpt>
<trkpt lat="39.736778" lon="-8.490067">
<ele>183.5</ele>
<desc>Speed 26.0 km/h Distance 52.19 km</desc>
<time>2011-05-22T11:02:24.25</time>
<name>10822</name>
<sym>Dot</sym>
</trkpt>
<trkpt lat="39.736737" lon="-8.490137">
<ele>183.0</ele>
<desc>Speed 26.1 km/h Distance 52.20 km</desc>
<time>2011-05-22T11:02:25.25</time>
<name>10823</name>
<sym>Dot</sym>
</trkpt>
<trkpt lat="39.736695" lon="-8.490207">
<ele>182.5</ele>
<desc>Speed 26.4 km/h Distance 52.20 km</desc>
<time>2011-05-22T11:02:26.25</time>
<name>10824</name>
<sym>Dot</sym>
</trkpt>
<trkpt lat="39.736652" lon="-8.490278">
<ele>181.5</ele>
<desc>Speed 27.1 km/h Distance 52.21 km</desc>
<time>2011-05-22T11:02:27.25</time>
<name>10825</name>
<sym>Dot</sym>
</trkpt>
<trkpt lat="39.736607" lon="-8.490348">
<ele>181.0</ele>
<desc>Speed 27.3 km/h Distance 52.22 km</desc>
<time>2011-05-22T11:02:28.25</time>
<name>10826</name>
<sym>Dot</sym>
</trkpt>
<trkpt lat="39.736562" lon="-8.490418">
<ele>181.0</ele>
<desc>Speed 27.5 km/h Distance 52.23 km</desc>
<time>2011-05-22T11:02:29.25</time>
<name>10827</name>
<sym>Dot</sym>
</trkpt>
<trkpt lat="39.736518" lon="-8.490490">
<ele>180.5</ele>
<desc>Speed 27.9 km/h Distance 52.23 km</desc>
<time>2011-05-22T11:02:30.25</time>
<name>10828</name>
<sym>Dot</sym>
</trkpt>
<trkpt lat="39.736473" lon="-8.490563">
<ele>180.0</ele>
<desc>Speed 28.2 km/h Distance 52.24 km</desc>
<time>2011-05-22T11:02:31.25</time>
<name>10829</name>
<sym>Dot</sym>
</trkpt>
<trkpt lat="39.736428" lon="-8.490637">
<ele>179.5</ele>
<desc>Speed 28.5 km/h Distance 52.25 km</desc>
<time>2011-05-22T11:02:32.25</time>
<name>10830</name>
<sym>Dot</sym>
</trkpt>
<trkpt lat="39.736382" lon="-8.490710">
<ele>179.0</ele>
<desc>Speed 28.4 km/h Distance 52.26 km</desc>
<time>2011-05-22T11:02:33.25</time>
<name>10831</name>
<sym>Dot</sym>
</trkpt>
<trkpt lat="39.736335" lon="-8.490785">
<ele>179.0</ele>
<desc>Speed 29.0 km/h Distance 52.27 km</desc>
<time>2011-05-22T11:02:34.25</time>
<name>10832</name>
<sym>Dot</sym>
</trkpt>
<trkpt lat="39.736288" lon="-8.490858">
<ele>178.5</ele>
<desc>Speed 29.3 km/h Distance 52.28 km</desc>
<time>2011-05-22T11:02:35.25</time>
<name>10833</name>
<sym>Dot</sym>
</trkpt>
<trkpt lat="39.736242" lon="-8.490933">
<ele>178.5</ele>
<desc>Speed 29.3 km/h Distance 52.28 km</desc>
<time>2011-05-22T11:02:36.25</time>
<name>10834</name>
<sym>Dot</sym>
</trkpt>
<trkpt lat="39.736195" lon="-8.491008">
<ele>178.0</ele>
<desc>Speed 29.3 km/h Distance 52.29 km</desc>
<time>2011-05-22T11:02:37.25</time>
<name>10835</name>
<sym>Dot</sym>
</trkpt>
<trkpt lat="39.736148" lon="-8.491082">
<ele>178.0</ele>
<desc>Speed 29.3 km/h Distance 52.30 km</desc>
<time>2011-05-22T11:02:38.25</time>
<name>10836</name>
<sym>Dot</sym>
</trkpt>
<trkpt lat="39.736103" lon="-8.491158">
<ele>177.5</ele>
<desc>Speed 29.2 km/h Distance 52.31 km</desc>
<time>2011-05-22T11:02:39.25</time>
<name>10837</name>
<sym>Dot</sym>
</trkpt>
<trkpt lat="39.736058" lon="-8.491233">
<ele>177.5</ele>
<desc>Speed 29.0 km/h Distance 52.32 km</desc>
<time>2011-05-22T11:02:40.25</time>
<name>10838</name>
<sym>Dot</sym>
</trkpt>
<trkpt lat="39.736013" lon="-8.491308">
<ele>177.0</ele>
<desc>Speed 29.0 km/h Distance 52.32 km</desc>
<time>2011-05-22T11:02:41.24</time>
<name>10839</name>
<sym>Dot</sym>
</trkpt>
<trkpt lat="39.735968" lon="-8.491385">
<ele>177.0</ele>
<desc>Speed 28.9 km/h Distance 52.33 km</desc>
<time>2011-05-22T11:02:42.24</time>
<name>10840</name>
<sym>Dot</sym>
</trkpt>
<trkpt lat="39.735925" lon="-8.491460">
<ele>176.5</ele>
<desc>Speed 28.6 km/h Distance 52.34 km</desc>
<time>2011-05-22T11:02:43.24</time>
<name>10841</name>
<sym>Dot</sym>
</trkpt>
<trkpt lat="39.735882" lon="-8.491535">
<ele>176.5</ele>
<desc>Speed 28.7 km/h Distance 52.35 km</desc>
<time>2011-05-22T11:02:44.24</time>
<name>10842</name>
<sym>Dot</sym>
</trkpt>
<trkpt lat="39.735837" lon="-8.491610">
<ele>176.0</ele>
<desc>Speed 28.8 km/h Distance 52.36 km</desc>
<time>2011-05-22T11:02:45.24</time>
<name>10843</name>
<sym>Dot</sym>
</trkpt>
<trkpt lat="39.735790" lon="-8.491685">
<ele>176.0</ele>
<desc>Speed 29.0 km/h Distance 52.37 km</desc>
<time>2011-05-22T11:02:46.25</time>
<name>10844</name>
<sym>Dot</sym>
</trkpt>
<trkpt lat="39.735743" lon="-8.491760">
<ele>175.5</ele>
<desc>Speed 28.9 km/h Distance 52.37 km</desc>
<time>2011-05-22T11:02:47.25</time>
<name>10845</name>
<sym>Dot</sym>
</trkpt>
<trkpt lat="39.735695" lon="-8.491833">
<ele>175.5</ele>
<desc>Speed 28.8 km/h Distance 52.38 km</desc>
<time>2011-05-22T11:02:48.25</time>
<name>10846</name>
<sym>Dot</sym>
</trkpt>
<trkpt lat="39.735643" lon="-8.491898">
<ele>175.0</ele>
<desc>Speed 28.4 km/h Distance 52.39 km</desc>
<time>2011-05-22T11:02:49.25</time>
<name>10847</name>
<sym>Dot</sym>
</trkpt>
<trkpt lat="39.735590" lon="-8.491958">
<ele>175.0</ele>
<desc>Speed 28.2 km/h Distance 52.40 km</desc>
<time>2011-05-22T11:02:50.25</time>
<name>10848</name>
<sym>Dot</sym>
</trkpt>
<trkpt lat="39.735532" lon="-8.492008">
<ele>175.0</ele>
<desc>Speed 28.1 km/h Distance 52.41 km</desc>
<time>2011-05-22T11:02:51.25</time>
<name>10849</name>
<sym>Dot</sym>
</trkpt>
<trkpt lat="39.735467" lon="-8.492048">
<ele>175.0</ele>
<desc>Speed 28.0 km/h Distance 52.41 km</desc>
<time>2011-05-22T11:02:52.25</time>
<name>10850</name>
<sym>Dot</sym>
</trkpt>
<trkpt lat="39.735395" lon="-8.492075">
<ele>174.5</ele>
<desc>Speed 29.4 km/h Distance 52.42 km</desc>
<time>2011-05-22T11:02:53.25</time>
<name>10851</name>
<sym>Dot</sym>
</trkpt>
<trkpt lat="39.735323" lon="-8.492097">
<ele>174.0</ele>
<desc>Speed 29.4 km/h Distance 52.43 km</desc>
<time>2011-05-22T11:02:54.25</time>
<name>10852</name>
<sym>Dot</sym>
</trkpt>
<trkpt lat="39.735250" lon="-8.492113">
<ele>174.0</ele>
<desc>Speed 29.6 km/h Distance 52.44 km</desc>
<time>2011-05-22T11:02:55.25</time>
<name>10853</name>
<sym>Dot</sym>
</trkpt>
<trkpt lat="39.735173" lon="-8.492128">
<ele>174.0</ele>
<desc>Speed 30.6 km/h Distance 52.45 km</desc>
<time>2011-05-22T11:02:56.25</time>
<name>10854</name>
<sym>Dot</sym>
</trkpt>
<trkpt lat="39.735100" lon="-8.492142">
<ele>174.0</ele>
<desc>Speed 29.7 km/h Distance 52.45 km</desc>
<time>2011-05-22T11:02:57.25</time>
<name>10855</name>
<sym>Dot</sym>
</trkpt>
<trkpt lat="39.735025" lon="-8.492155">
<ele>174.5</ele>
<desc>Speed 30.2 km/h Distance 52.46 km</desc>
<time>2011-05-22T11:02:58.25</time>
<name>10856</name>
<sym>Dot</sym>
</trkpt>
<trkpt lat="39.734957" lon="-8.492157">
<ele>174.5</ele>
<desc>Speed 27.3 km/h Distance 52.47 km</desc>
<time>2011-05-22T11:02:59.25</time>
<name>10857</name>
<sym>Dot</sym>
</trkpt>
<trkpt lat="39.734888" lon="-8.492173">
<ele>176.5</ele>
<desc>Speed 27.5 km/h Distance 52.48 km</desc>
<time>2011-05-22T11:03:00.25</time>
<name>10858</name>
<sym>Dot</sym>
</trkpt>
<trkpt lat="39.734817" lon="-8.492192">
<ele>178.0</ele>
<desc>Speed 28.5 km/h Distance 52.49 km</desc>
<time>2011-05-22T11:03:01.25</time>
<name>10859</name>
<sym>Dot</sym>
</trkpt>
<trkpt lat="39.734738" lon="-8.492205">
<ele>179.0</ele>
<desc>Speed 31.3 km/h Distance 52.50 km</desc>
<time>2011-05-22T11:03:02.25</time>
<name>10860</name>
<sym>Dot</sym>
</trkpt>
<trkpt lat="39.734648" lon="-8.492233">
<ele>177.5</ele>
<desc>Speed 36.6 km/h Distance 52.51 km</desc>
<time>2011-05-22T11:03:03.25</time>
<name>10861</name>
<sym>Dot</sym>
</trkpt>
<trkpt lat="39.734562" lon="-8.492252">
<ele>176.5</ele>
<desc>Speed 35.0 km/h Distance 52.52 km</desc>
<time>2011-05-22T11:03:04.25</time>
<name>10862</name>
<sym>Dot</sym>
</trkpt>
<trkpt lat="39.734493" lon="-8.492290">
<ele>176.5</ele>
<desc>Speed 29.8 km/h Distance 52.52 km</desc>
<time>2011-05-22T11:03:05.25</time>
<name>10863</name>
<sym>Dot</sym>
</trkpt>
<trkpt lat="39.734423" lon="-8.492328">
<ele>176.5</ele>
<desc>Speed 29.4 km/h Distance 52.53 km</desc>
<time>2011-05-22T11:03:06.25</time>
<name>10864</name>
<sym>Dot</sym>
</trkpt>
<trkpt lat="39.734355" lon="-8.492367">
<ele>176.5</ele>
<desc>Speed 29.1 km/h Distance 52.54 km</desc>
<time>2011-05-22T11:03:07.25</time>
<name>10865</name>
<sym>Dot</sym>
</trkpt>
<trkpt lat="39.734287" lon="-8.492407">
<ele>176.0</ele>
<desc>Speed 29.2 km/h Distance 52.55 km</desc>
<time>2011-05-22T11:03:08.25</time>
<name>10866</name>
<sym>Dot</sym>
</trkpt>
<trkpt lat="39.734222" lon="-8.492447">
<ele>176.0</ele>
<desc>Speed 28.7 km/h Distance 52.56 km</desc>
<time>2011-05-22T11:03:09.25</time>
<name>10867</name>
<sym>Dot</sym>
</trkpt>
<trkpt lat="39.734153" lon="-8.492485">
<ele>175.5</ele>
<desc>Speed 28.8 km/h Distance 52.57 km</desc>
<time>2011-05-22T11:03:10.25</time>
<name>10868</name>
<sym>Dot</sym>
</trkpt>
<trkpt lat="39.734087" lon="-8.492525">
<ele>175.5</ele>
<desc>Speed 29.2 km/h Distance 52.57 km</desc>
<time>2011-05-22T11:03:11.25</time>
<name>10869</name>
<sym>Dot</sym>
</trkpt>
<trkpt lat="39.734018" lon="-8.492565">
<ele>175.0</ele>
<desc>Speed 29.3 km/h Distance 52.58 km</desc>
<time>2011-05-22T11:03:12.25</time>
<name>10870</name>
<sym>Dot</sym>
</trkpt>
<trkpt lat="39.733950" lon="-8.492603">
<ele>175.0</ele>
<desc>Speed 29.6 km/h Distance 52.59 km</desc>
<time>2011-05-22T11:03:13.25</time>
<name>10871</name>
<sym>Dot</sym>
</trkpt>
<trkpt lat="39.733880" lon="-8.492643">
<ele>174.5</ele>
<desc>Speed 30.0 km/h Distance 52.60 km</desc>
<time>2011-05-22T11:03:14.25</time>
<name>10872</name>
<sym>Dot</sym>
</trkpt>
<trkpt lat="39.733808" lon="-8.492683">
<ele>174.0</ele>
<desc>Speed 30.5 km/h Distance 52.61 km</desc>
<time>2011-05-22T11:03:15.25</time>
<name>10873</name>
<sym>Dot</sym>
</trkpt>
<trkpt lat="39.733738" lon="-8.492722">
<ele>174.0</ele>
<desc>Speed 30.6 km/h Distance 52.62 km</desc>
<time>2011-05-22T11:03:16.25</time>
<name>10874</name>
<sym>Dot</sym>
</trkpt>
<trkpt lat="39.733667" lon="-8.492758">
<ele>174.0</ele>
<desc>Speed 30.7 km/h Distance 52.62 km</desc>
<time>2011-05-22T11:03:17.25</time>
<name>10875</name>
<sym>Dot</sym>
</trkpt>
<trkpt lat="39.733597" lon="-8.492795">
<ele>174.0</ele>
<desc>Speed 30.4 km/h Distance 52.63 km</desc>
<time>2011-05-22T11:03:18.25</time>
<name>10876</name>
<sym>Dot</sym>
</trkpt>
<trkpt lat="39.733525" lon="-8.492832">
<ele>174.0</ele>
<desc>Speed 30.9 km/h Distance 52.64 km</desc>
<time>2011-05-22T11:03:19.25</time>
<name>10877</name>
<sym>Dot</sym>
</trkpt>
<trkpt lat="39.733455" lon="-8.492872">
<ele>173.5</ele>
<desc>Speed 30.1 km/h Distance 52.65 km</desc>
<time>2011-05-22T11:03:20.25</time>
<name>10878</name>
<sym>Dot</sym>
</trkpt>
<trkpt lat="39.733385" lon="-8.492912">
<ele>173.5</ele>
<desc>Speed 30.5 km/h Distance 52.66 km</desc>
<time>2011-05-22T11:03:21.25</time>
<name>10879</name>
<sym>Dot</sym>
</trkpt>
<trkpt lat="39.733317" lon="-8.492953">
<ele>173.0</ele>
<desc>Speed 30.6 km/h Distance 52.67 km</desc>
<time>2011-05-22T11:03:22.25</time>
<name>10880</name>
<sym>Dot</sym>
</trkpt>
<trkpt lat="39.733247" lon="-8.492995">
<ele>173.0</ele>
<desc>Speed 30.5 km/h Distance 52.68 km</desc>
<time>2011-05-22T11:03:23.25</time>
<name>10881</name>
<sym>Dot</sym>
</trkpt>
<trkpt lat="39.733177" lon="-8.493035">
<ele>172.5</ele>
<desc>Speed 30.5 km/h Distance 52.68 km</desc>
<time>2011-05-22T11:03:24.25</time>
<name>10882</name>
<sym>Dot</sym>
</trkpt>
<trkpt lat="39.733107" lon="-8.493072">
<ele>172.5</ele>
<desc>Speed 30.6 km/h Distance 52.69 km</desc>
<time>2011-05-22T11:03:25.25</time>
<name>10883</name>
<sym>Dot</sym>
</trkpt>
<trkpt lat="39.733037" lon="-8.493110">
<ele>172.5</ele>
<desc>Speed 30.3 km/h Distance 52.70 km</desc>
<time>2011-05-22T11:03:26.25</time>
<name>10884</name>
<sym>Dot</sym>
</trkpt>
<trkpt lat="39.732968" lon="-8.493148">
<ele>172.5</ele>
<desc>Speed 29.9 km/h Distance 52.71 km</desc>
<time>2011-05-22T11:03:27.25</time>
<name>10885</name>
<sym>Dot</sym>
</trkpt>
<trkpt lat="39.732900" lon="-8.493188">
<ele>172.5</ele>
<desc>Speed 29.7 km/h Distance 52.72 km</desc>
<time>2011-05-22T11:03:28.25</time>
<name>10886</name>
<sym>Dot</sym>
</trkpt>
<trkpt lat="39.732833" lon="-8.493230">
<ele>172.5</ele>
<desc>Speed 29.6 km/h Distance 52.73 km</desc>
<time>2011-05-22T11:03:29.25</time>
<name>10887</name>
<sym>Dot</sym>
</trkpt>
<trkpt lat="39.732772" lon="-8.493273">
<ele>172.5</ele>
<desc>Speed 29.2 km/h Distance 52.73 km</desc>
<time>2011-05-22T11:03:30.25</time>
<name>10888</name>
<sym>Dot</sym>
</trkpt>
<trkpt lat="39.732705" lon="-8.493312">
<ele>172.5</ele>
<desc>Speed 28.9 km/h Distance 52.74 km</desc>
<time>2011-05-22T11:03:31.25</time>
<name>10889</name>
<sym>Dot</sym>
</trkpt>
<trkpt lat="39.732640" lon="-8.493347">
<ele>172.5</ele>
<desc>Speed 27.9 km/h Distance 52.75 km</desc>
<time>2011-05-22T11:03:32.25</time>
<name>10890</name>
<sym>Dot</sym>
</trkpt>
<trkpt lat="39.732582" lon="-8.493385">
<ele>172.5</ele>
<desc>Speed 26.5 km/h Distance 52.76 km</desc>
<time>2011-05-22T11:03:33.25</time>
<name>10891</name>
<sym>Dot</sym>
</trkpt>
<trkpt lat="39.732525" lon="-8.493422">
<ele>172.5</ele>
<desc>Speed 26.0 km/h Distance 52.76 km</desc>
<time>2011-05-22T11:03:34.25</time>
<name>10892</name>
<sym>Dot</sym>
</trkpt>
<trkpt lat="39.732467" lon="-8.493453">
<ele>172.5</ele>
<desc>Speed 24.8 km/h Distance 52.77 km</desc>
<time>2011-05-22T11:03:35.25</time>
<name>10893</name>
<sym>Dot</sym>
</trkpt>
<trkpt lat="39.732412" lon="-8.493487">
<ele>172.5</ele>
<desc>Speed 24.8 km/h Distance 52.78 km</desc>
<time>2011-05-22T11:03:36.25</time>
<name>10894</name>
<sym>Dot</sym>
</trkpt>
<trkpt lat="39.732360" lon="-8.493523">
<ele>172.5</ele>
<desc>Speed 23.2 km/h Distance 52.78 km</desc>
<time>2011-05-22T11:03:37.25</time>
<name>10895</name>
<sym>Dot</sym>
</trkpt>
<trkpt lat="39.732320" lon="-8.493543">
<ele>172.5</ele>
<desc>Speed 17.7 km/h Distance 52.79 km</desc>
<time>2011-05-22T11:03:38.25</time>
<name>10896</name>
<sym>Dot</sym>
</trkpt>
<trkpt lat="39.732272" lon="-8.493570">
<ele>173.0</ele>
<desc>Speed 20.7 km/h Distance 52.79 km</desc>
<time>2011-05-22T11:03:39.25</time>
<name>10897</name>
<sym>Dot</sym>
</trkpt>
<trkpt lat="39.732222" lon="-8.493600">
<ele>173.0</ele>
<desc>Speed 22.4 km/h Distance 52.80 km</desc>
<time>2011-05-22T11:03:40.25</time>
<name>10898</name>
<sym>Dot</sym>
</trkpt>
<trkpt lat="39.732168" lon="-8.493632">
<ele>173.0</ele>
<desc>Speed 23.7 km/h Distance 52.81 km</desc>
<time>2011-05-22T11:03:41.25</time>
<name>10899</name>
<sym>Dot</sym>
</trkpt>
<trkpt lat="39.732122" lon="-8.493655">
<ele>173.0</ele>
<desc>Speed 20.5 km/h Distance 52.81 km</desc>
<time>2011-05-22T11:03:42.25</time>
<name>10900</name>
<sym>Dot</sym>
</trkpt>
<trkpt lat="39.732067" lon="-8.493688">
<ele>173.0</ele>
<desc>Speed 24.2 km/h Distance 52.82 km</desc>
<time>2011-05-22T11:03:43.25</time>
<name>10901</name>
<sym>Dot</sym>
</trkpt>
<trkpt lat="39.732012" lon="-8.493717">
<ele>173.0</ele>
<desc>Speed 23.4 km/h Distance 52.83 km</desc>
<time>2011-05-22T11:03:44.25</time>
<name>10902</name>
<sym>Dot</sym>
</trkpt>
<trkpt lat="39.731957" lon="-8.493748">
<ele>173.5</ele>
<desc>Speed 23.7 km/h Distance 52.83 km</desc>
<time>2011-05-22T11:03:45.25</time>
<name>10903</name>
<sym>Dot</sym>
</trkpt>
<trkpt lat="39.731900" lon="-8.493775">
<ele>173.5</ele>
<desc>Speed 24.0 km/h Distance 52.84 km</desc>
<time>2011-05-22T11:03:46.25</time>
<name>10904</name>
<sym>Dot</sym>
</trkpt>
<trkpt lat="39.731843" lon="-8.493807">
<ele>173.0</ele>
<desc>Speed 24.4 km/h Distance 52.85 km</desc>
<time>2011-05-22T11:03:47.25</time>
<name>10905</name>
<sym>Dot</sym>
</trkpt>
<trkpt lat="39.731792" lon="-8.493840">
<ele>173.5</ele>
<desc>Speed 22.8 km/h Distance 52.85 km</desc>
<time>2011-05-22T11:03:48.25</time>
<name>10906</name>
<sym>Dot</sym>
</trkpt>
<trkpt lat="39.731747" lon="-8.493875">
<ele>173.5</ele>
<desc>Speed 21.0 km/h Distance 52.86 km</desc>
<time>2011-05-22T11:03:49.25</time>
<name>10907</name>
<sym>Dot</sym>
</trkpt>
<trkpt lat="39.731695" lon="-8.493910">
<ele>173.5</ele>
<desc>Speed 23.6 km/h Distance 52.87 km</desc>
<time>2011-05-22T11:03:50.25</time>
<name>10908</name>
<sym>Dot</sym>
</trkpt>
<trkpt lat="39.731643" lon="-8.493947">
<ele>174.0</ele>
<desc>Speed 23.9 km/h Distance 52.87 km</desc>
<time>2011-05-22T11:03:51.25</time>
<name>10909</name>
<sym>Dot</sym>
</trkpt>
<trkpt lat="39.731587" lon="-8.493963">
<ele>174.0</ele>
<desc>Speed 23.2 km/h Distance 52.88 km</desc>
<time>2011-05-22T11:03:52.25</time>
<name>10910</name>
<sym>Dot</sym>
</trkpt>
<trkpt lat="39.731535" lon="-8.493988">
<ele>175.0</ele>
<desc>Speed 22.1 km/h Distance 52.88 km</desc>
<time>2011-05-22T11:03:53.25</time>
<name>10911</name>
<sym>Dot</sym>
</trkpt>
<trkpt lat="39.731482" lon="-8.494020">
<ele>175.0</ele>
<desc>Speed 24.3 km/h Distance 52.89 km</desc>
<time>2011-05-22T11:03:54.25</time>
<name>10912</name>
<sym>Dot</sym>
</trkpt>
<trkpt lat="39.731428" lon="-8.494052">
<ele>175.0</ele>
<desc>Speed 23.6 km/h Distance 52.90 km</desc>
<time>2011-05-22T11:03:55.25</time>
<name>10913</name>
<sym>Dot</sym>
</trkpt>
<trkpt lat="39.731378" lon="-8.494077">
<ele>176.0</ele>
<desc>Speed 22.1 km/h Distance 52.90 km</desc>
<time>2011-05-22T11:03:56.25</time>
<name>10914</name>
<sym>Dot</sym>
</trkpt>
<trkpt lat="39.731332" lon="-8.494103">
<ele>176.0</ele>
<desc>Speed 20.7 km/h Distance 52.91 km</desc>
<time>2011-05-22T11:03:57.25</time>
<name>10915</name>
<sym>Dot</sym>
</trkpt>
<trkpt lat="39.731282" lon="-8.494137">
<ele>176.0</ele>
<desc>Speed 22.4 km/h Distance 52.92 km</desc>
<time>2011-05-22T11:03:58.25</time>
<name>10916</name>
<sym>Dot</sym>
</trkpt>
<trkpt lat="39.731232" lon="-8.494165">
<ele>176.0</ele>
<desc>Speed 22.3 km/h Distance 52.92 km</desc>
<time>2011-05-22T11:03:59.25</time>
<name>10917</name>
<sym>Dot</sym>
</trkpt>
<trkpt lat="39.731180" lon="-8.494193">
<ele>176.0</ele>
<desc>Speed 22.5 km/h Distance 52.93 km</desc>
<time>2011-05-22T11:04:00.25</time>
<name>10918</name>
<sym>Dot</sym>
</trkpt>
<trkpt lat="39.731127" lon="-8.494222">
<ele>176.0</ele>
<desc>Speed 22.8 km/h Distance 52.93 km</desc>
<time>2011-05-22T11:04:01.25</time>
<name>10919</name>
<sym>Dot</sym>
</trkpt>
<trkpt lat="39.731073" lon="-8.494250">
<ele>176.0</ele>
<desc>Speed 22.5 km/h Distance 52.94 km</desc>
<time>2011-05-22T11:04:02.25</time>
<name>10920</name>
<sym>Dot</sym>
</trkpt>
<trkpt lat="39.731022" lon="-8.494278">
<ele>176.0</ele>
<desc>Speed 22.5 km/h Distance 52.95 km</desc>
<time>2011-05-22T11:04:03.25</time>
<name>10921</name>
<sym>Dot</sym>
</trkpt>
<trkpt lat="39.730970" lon="-8.494307">
<ele>176.0</ele>
<desc>Speed 22.5 km/h Distance 52.95 km</desc>
<time>2011-05-22T11:04:04.25</time>
<name>10922</name>
<sym>Dot</sym>
</trkpt>
<trkpt lat="39.730918" lon="-8.494338">
<ele>175.5</ele>
<desc>Speed 22.4 km/h Distance 52.96 km</desc>
<time>2011-05-22T11:04:05.25</time>
<name>10923</name>
<sym>Dot</sym>
</trkpt>
<trkpt lat="39.730867" lon="-8.494367">
<ele>175.5</ele>
<desc>Speed 22.1 km/h Distance 52.97 km</desc>
<time>2011-05-22T11:04:06.25</time>
<name>10924</name>
<sym>Dot</sym>
</trkpt>
<trkpt lat="39.730815" lon="-8.494392">
<ele>175.5</ele>
<desc>Speed 21.7 km/h Distance 52.97 km</desc>
<time>2011-05-22T11:04:07.25</time>
<name>10925</name>
<sym>Dot</sym>
</trkpt>
<trkpt lat="39.730765" lon="-8.494420">
<ele>175.5</ele>
<desc>Speed 21.5 km/h Distance 52.98 km</desc>
<time>2011-05-22T11:04:08.25</time>
<name>10926</name>
<sym>Dot</sym>
</trkpt>
<trkpt lat="39.730717" lon="-8.494448">
<ele>175.5</ele>
<desc>Speed 21.2 km/h Distance 52.98 km</desc>
<time>2011-05-22T11:04:09.25</time>
<name>10927</name>
<sym>Dot</sym>
</trkpt>
<trkpt lat="39.730670" lon="-8.494478">
<ele>175.5</ele>
<desc>Speed 20.6 km/h Distance 52.99 km</desc>
<time>2011-05-22T11:04:10.25</time>
<name>10928</name>
<sym>Dot</sym>
</trkpt>
<trkpt lat="39.730625" lon="-8.494508">
<ele>175.5</ele>
<desc>Speed 20.1 km/h Distance 53.00 km</desc>
<time>2011-05-22T11:04:11.25</time>
<name>10929</name>
<sym>Dot</sym>
</trkpt>
<trkpt lat="39.730580" lon="-8.494542">
<ele>175.0</ele>
<desc>Speed 20.1 km/h Distance 53.00 km</desc>
<time>2011-05-22T11:04:12.25</time>
<name>10930</name>
<sym>Dot</sym>
</trkpt>
<trkpt lat="39.730535" lon="-8.494573">
<ele>174.5</ele>
<desc>Speed 19.7 km/h Distance 53.01 km</desc>
<time>2011-05-22T11:04:13.25</time>
<name>10931</name>
<sym>Dot</sym>
</trkpt>
<trkpt lat="39.730488" lon="-8.494602">
<ele>174.5</ele>
<desc>Speed 20.0 km/h Distance 53.01 km</desc>
<time>2011-05-22T11:04:14.25</time>
<name>10932</name>
<sym>Dot</sym>
</trkpt>
<trkpt lat="39.730442" lon="-8.494630">
<ele>174.5</ele>
<desc>Speed 19.8 km/h Distance 53.02 km</desc>
<time>2011-05-22T11:04:15.25</time>
<name>10933</name>
<sym>Dot</sym>
</trkpt>
<trkpt lat="39.730397" lon="-8.494660">
<ele>174.0</ele>
<desc>Speed 19.5 km/h Distance 53.02 km</desc>
<time>2011-05-22T11:04:16.25</time>
<name>10934</name>
<sym>Dot</sym>
</trkpt>
<trkpt lat="39.730352" lon="-8.494688">
<ele>174.0</ele>
<desc>Speed 19.5 km/h Distance 53.03 km</desc>
<time>2011-05-22T11:04:17.25</time>
<name>10935</name>
<sym>Dot</sym>
</trkpt>
<trkpt lat="39.730305" lon="-8.494715">
<ele>173.5</ele>
<desc>Speed 19.4 km/h Distance 53.03 km</desc>
<time>2011-05-22T11:04:18.25</time>
<name>10936</name>
<sym>Dot</sym>
</trkpt>
<trkpt lat="39.730263" lon="-8.494742">
<ele>173.5</ele>
<desc>Speed 18.5 km/h Distance 53.04 km</desc>
<time>2011-05-22T11:04:19.25</time>
<name>10937</name>
<sym>Dot</sym>
</trkpt>
<trkpt lat="39.730222" lon="-8.494768">
<ele>173.5</ele>
<desc>Speed 18.0 km/h Distance 53.05 km</desc>
<time>2011-05-22T11:04:20.25</time>
<name>10938</name>
<sym>Dot</sym>
</trkpt>
<trkpt lat="39.730182" lon="-8.494795">
<ele>173.5</ele>
<desc>Speed 18.0 km/h Distance 53.05 km</desc>
<time>2011-05-22T11:04:21.25</time>
<name>10939</name>
<sym>Dot</sym>
</trkpt>
<trkpt lat="39.730147" lon="-8.494815">
<ele>174.0</ele>
<desc>Speed 15.7 km/h Distance 53.05 km</desc>
<time>2011-05-22T11:04:22.25</time>
<name>10940</name>
<sym>Dot</sym>
</trkpt>
<trkpt lat="39.730113" lon="-8.494837">
<ele>175.0</ele>
<desc>Speed 14.7 km/h Distance 53.06 km</desc>
<time>2011-05-22T11:04:23.25</time>
<name>10941</name>
<sym>Dot</sym>
</trkpt>
<trkpt lat="39.730082" lon="-8.494857">
<ele>175.5</ele>
<desc>Speed 14.3 km/h Distance 53.06 km</desc>
<time>2011-05-22T11:04:24.25</time>
<name>10942</name>
<sym>Dot</sym>
</trkpt>
<trkpt lat="39.730048" lon="-8.494878">
<ele>175.5</ele>
<desc>Speed 15.2 km/h Distance 53.07 km</desc>
<time>2011-05-22T11:04:25.25</time>
<name>10943</name>
<sym>Dot</sym>
</trkpt>
<trkpt lat="39.730017" lon="-8.494900">
<ele>175.5</ele>
<desc>Speed 14.7 km/h Distance 53.07 km</desc>
<time>2011-05-22T11:04:26.25</time>
<name>10944</name>
<sym>Dot</sym>
</trkpt>
<trkpt lat="39.729985" lon="-8.494918">
<ele>175.5</ele>
<desc>Speed 14.1 km/h Distance 53.07 km</desc>
<time>2011-05-22T11:04:27.25</time>
<name>10945</name>
<sym>Dot</sym>
</trkpt>
<trkpt lat="39.729953" lon="-8.494937">
<ele>175.5</ele>
<desc>Speed 13.4 km/h Distance 53.08 km</desc>
<time>2011-05-22T11:04:28.25</time>
<name>10946</name>
<sym>Dot</sym>
</trkpt>
<trkpt lat="39.729923" lon="-8.494955">
<ele>175.5</ele>
<desc>Speed 12.9 km/h Distance 53.08 km</desc>
<time>2011-05-22T11:04:29.25</time>
<name>10947</name>
<sym>Dot</sym>
</trkpt>
<trkpt lat="39.729895" lon="-8.494973">
<ele>175.5</ele>
<desc>Speed 12.8 km/h Distance 53.09 km</desc>
<time>2011-05-22T11:04:30.25</time>
<name>10948</name>
<sym>Dot</sym>
</trkpt>
<trkpt lat="39.729868" lon="-8.494990">
<ele>175.5</ele>
<desc>Speed 12.0 km/h Distance 53.09 km</desc>
<time>2011-05-22T11:04:31.25</time>
<name>10949</name>
<sym>Dot</sym>
</trkpt>
<trkpt lat="39.729842" lon="-8.495007">
<ele>175.0</ele>
<desc>Speed 11.6 km/h Distance 53.09 km</desc>
<time>2011-05-22T11:04:32.25</time>
<name>10950</name>
<sym>Dot</sym>
</trkpt>
<trkpt lat="39.729817" lon="-8.495020">
<ele>175.5</ele>
<desc>Speed 10.4 km/h Distance 53.10 km</desc>
<time>2011-05-22T11:04:33.25</time>
<name>10951</name>
<sym>Dot</sym>
</trkpt>
<trkpt lat="39.729810" lon="-8.495028">
<ele>175.0</ele>
<desc>Speed 3.6 km/h Distance 53.10 km</desc>
<time>2011-05-22T11:04:34.25</time>
<name>10952</name>
<sym>Dot</sym>
</trkpt>
<trkpt lat="39.729798" lon="-8.495035">
<ele>177.0</ele>
<desc>Speed 4.8 km/h Distance 53.10 km</desc>
<time>2011-05-22T11:04:35.25</time>
<name>10953</name>
<sym>Dot</sym>
</trkpt>
<trkpt lat="39.729778" lon="-8.495047">
<ele>177.5</ele>
<desc>Speed 9.1 km/h Distance 53.10 km</desc>
<time>2011-05-22T11:04:36.25</time>
<name>10954</name>
<sym>Dot</sym>
</trkpt>
<trkpt lat="39.729762" lon="-8.495058">
<ele>178.5</ele>
<desc>Speed 7.2 km/h Distance 53.10 km</desc>
<time>2011-05-22T11:04:37.25</time>
<name>10955</name>
<sym>Dot</sym>
</trkpt>
<trkpt lat="39.729747" lon="-8.495070">
<ele>180.0</ele>
<desc>Speed 6.7 km/h Distance 53.10 km</desc>
<time>2011-05-22T11:04:38.25</time>
<name>10956</name>
<sym>Dot</sym>
</trkpt>
<trkpt lat="39.729733" lon="-8.495078">
<ele>181.5</ele>
<desc>Speed 5.7 km/h Distance 53.11 km</desc>
<time>2011-05-22T11:04:39.25</time>
<name>10957</name>
<sym>Dot</sym>
</trkpt>
<trkpt lat="39.729718" lon="-8.495085">
<ele>183.5</ele>
<desc>Speed 5.3 km/h Distance 53.11 km</desc>
<time>2011-05-22T11:04:40.25</time>
<name>10958</name>
<sym>Dot</sym>
</trkpt>
<trkpt lat="39.729705" lon="-8.495090">
<ele>185.0</ele>
<desc>Speed 5.3 km/h Distance 53.11 km</desc>
<time>2011-05-22T11:04:41.25</time>
<name>10959</name>
<sym>Dot</sym>
</trkpt>
<trkpt lat="39.729692" lon="-8.495093">
<ele>187.0</ele>
<desc>Speed 5.1 km/h Distance 53.11 km</desc>
<time>2011-05-22T11:04:42.25</time>
<name>10960</name>
<sym>Dot</sym>
</trkpt>
<trkpt lat="39.729677" lon="-8.495100">
<ele>188.0</ele>
<desc>Speed 6.2 km/h Distance 53.11 km</desc>
<time>2011-05-22T11:04:43.25</time>
<name>10961</name>
<sym>Dot</sym>
</trkpt>
<trkpt lat="39.729660" lon="-8.495110">
<ele>189.5</ele>
<desc>Speed 6.7 km/h Distance 53.11 km</desc>
<time>2011-05-22T11:04:44.25</time>
<name>10962</name>
<sym>Dot</sym>
</trkpt>
<trkpt lat="39.729633" lon="-8.495118">
<ele>189.0</ele>
<desc>Speed 10.7 km/h Distance 53.12 km</desc>
<time>2011-05-22T11:04:45.25</time>
<name>10963</name>
<sym>Dot</sym>
</trkpt>
<trkpt lat="39.729612" lon="-8.495130">
<ele>189.5</ele>
<desc>Speed 9.3 km/h Distance 53.12 km</desc>
<time>2011-05-22T11:04:46.25</time>
<name>10964</name>
<sym>Dot</sym>
</trkpt>
<trkpt lat="39.729588" lon="-8.495143">
<ele>190.0</ele>
<desc>Speed 9.9 km/h Distance 53.12 km</desc>
<time>2011-05-22T11:04:47.25</time>
<name>10965</name>
<sym>Dot</sym>
</trkpt>
<trkpt lat="39.729565" lon="-8.495157">
<ele>190.0</ele>
<desc>Speed 9.9 km/h Distance 53.13 km</desc>
<time>2011-05-22T11:04:48.25</time>
<name>10966</name>
<sym>Dot</sym>
</trkpt>
<trkpt lat="39.729537" lon="-8.495172">
<ele>190.0</ele>
<desc>Speed 11.1 km/h Distance 53.13 km</desc>
<time>2011-05-22T11:04:49.25</time>
<name>10967</name>
<sym>Dot</sym>
</trkpt>
<trkpt lat="39.729513" lon="-8.495187">
<ele>190.5</ele>
<desc>Speed 9.8 km/h Distance 53.13 km</desc>
<time>2011-05-22T11:04:50.25</time>
<name>10968</name>
<sym>Dot</sym>
</trkpt>
<trkpt lat="39.729488" lon="-8.495200">
<ele>190.0</ele>
<desc>Speed 10.5 km/h Distance 53.14 km</desc>
<time>2011-05-22T11:04:51.25</time>
<name>10969</name>
<sym>Dot</sym>
</trkpt>
<trkpt lat="39.729470" lon="-8.495205">
<ele>191.0</ele>
<desc>Speed 6.8 km/h Distance 53.14 km</desc>
<time>2011-05-22T11:04:52.25</time>
<name>10970</name>
<sym>Dot</sym>
</trkpt>
<trkpt lat="39.729445" lon="-8.495220">
<ele>191.0</ele>
<desc>Speed 10.5 km/h Distance 53.14 km</desc>
<time>2011-05-22T11:04:53.25</time>
<name>10971</name>
<sym>Dot</sym>
</trkpt>
<trkpt lat="39.729430" lon="-8.495230">
<ele>192.5</ele>
<desc>Speed 6.5 km/h Distance 53.14 km</desc>
<time>2011-05-22T11:04:54.25</time>
<name>10972</name>
<sym>Dot</sym>
</trkpt>
<trkpt lat="39.729410" lon="-8.495242">
<ele>193.5</ele>
<desc>Speed 8.5 km/h Distance 53.14 km</desc>
<time>2011-05-22T11:04:55.25</time>
<name>10973</name>
<sym>Dot</sym>
</trkpt>
<trkpt lat="39.729388" lon="-8.495248">
<ele>194.5</ele>
<desc>Speed 8.7 km/h Distance 53.15 km</desc>
<time>2011-05-22T11:04:56.25</time>
<name>10974</name>
<sym>Dot</sym>
</trkpt>
<trkpt lat="39.729365" lon="-8.495263">
<ele>195.0</ele>
<desc>Speed 10.6 km/h Distance 53.15 km</desc>
<time>2011-05-22T11:04:57.25</time>
<name>10975</name>
<sym>Dot</sym>
</trkpt>
<trkpt lat="39.729338" lon="-8.495278">
<ele>195.0</ele>
<desc>Speed 11.1 km/h Distance 53.15 km</desc>
<time>2011-05-22T11:04:58.25</time>
<name>10976</name>
<sym>Dot</sym>
</trkpt>
<trkpt lat="39.729313" lon="-8.495293">
<ele>195.0</ele>
<desc>Speed 10.2 km/h Distance 53.16 km</desc>
<time>2011-05-22T11:04:59.25</time>
<name>10977</name>
<sym>Dot</sym>
</trkpt>
<trkpt lat="39.729290" lon="-8.495308">
<ele>195.0</ele>
<desc>Speed 9.8 km/h Distance 53.16 km</desc>
<time>2011-05-22T11:05:00.25</time>
<name>10978</name>
<sym>Dot</sym>
</trkpt>
<trkpt lat="39.729267" lon="-8.495323">
<ele>194.5</ele>
<desc>Speed 10.3 km/h Distance 53.16 km</desc>
<time>2011-05-22T11:05:01.25</time>
<name>10979</name>
<sym>Dot</sym>
</trkpt>
<trkpt lat="39.729245" lon="-8.495338">
<ele>194.5</ele>
<desc>Speed 9.8 km/h Distance 53.16 km</desc>
<time>2011-05-22T11:05:02.25</time>
<name>10980</name>
<sym>Dot</sym>
</trkpt>
<trkpt lat="39.729222" lon="-8.495352">
<ele>195.0</ele>
<desc>Speed 9.3 km/h Distance 53.17 km</desc>
<time>2011-05-22T11:05:03.25</time>
<name>10981</name>
<sym>Dot</sym>
</trkpt>
<trkpt lat="39.729200" lon="-8.495362">
<ele>195.5</ele>
<desc>Speed 9.6 km/h Distance 53.17 km</desc>
<time>2011-05-22T11:05:04.25</time>
<name>10982</name>
<sym>Dot</sym>
</trkpt>
<trkpt lat="39.729177" lon="-8.495373">
<ele>195.5</ele>
<desc>Speed 9.5 km/h Distance 53.17 km</desc>
<time>2011-05-22T11:05:05.25</time>
<name>10983</name>
<sym>Dot</sym>
</trkpt>
<trkpt lat="39.729153" lon="-8.495387">
<ele>195.5</ele>
<desc>Speed 9.7 km/h Distance 53.18 km</desc>
<time>2011-05-22T11:05:06.25</time>
<name>10984</name>
<sym>Dot</sym>
</trkpt>
<trkpt lat="39.729132" lon="-8.495400">
<ele>196.0</ele>
<desc>Speed 9.1 km/h Distance 53.18 km</desc>
<time>2011-05-22T11:05:07.25</time>
<name>10985</name>
<sym>Dot</sym>
</trkpt>
<trkpt lat="39.729110" lon="-8.495413">
<ele>196.0</ele>
<desc>Speed 9.5 km/h Distance 53.18 km</desc>
<time>2011-05-22T11:05:08.25</time>
<name>10986</name>
<sym>Dot</sym>
</trkpt>
<trkpt lat="39.729087" lon="-8.495423">
<ele>196.5</ele>
<desc>Speed 9.8 km/h Distance 53.18 km</desc>
<time>2011-05-22T11:05:09.25</time>
<name>10987</name>
<sym>Dot</sym>
</trkpt>
<trkpt lat="39.729063" lon="-8.495437">
<ele>197.0</ele>
<desc>Speed 10.2 km/h Distance 53.19 km</desc>
<time>2011-05-22T11:05:10.25</time>
<name>10988</name>
<sym>Dot</sym>
</trkpt>
<trkpt lat="39.729042" lon="-8.495447">
<ele>197.0</ele>
<desc>Speed 9.1 km/h Distance 53.19 km</desc>
<time>2011-05-22T11:05:11.25</time>
<name>10989</name>
<sym>Dot</sym>
</trkpt>
<trkpt lat="39.729018" lon="-8.495458">
<ele>197.5</ele>
<desc>Speed 9.1 km/h Distance 53.19 km</desc>
<time>2011-05-22T11:05:12.25</time>
<name>10990</name>
<sym>Dot</sym>
</trkpt>
<trkpt lat="39.729002" lon="-8.495472">
<ele>198.0</ele>
<desc>Speed 8.0 km/h Distance 53.19 km</desc>
<time>2011-05-22T11:05:13.25</time>
<name>10991</name>
<sym>Dot</sym>
</trkpt>
<trkpt lat="39.728980" lon="-8.495485">
<ele>198.0</ele>
<desc>Speed 9.1 km/h Distance 53.20 km</desc>
<time>2011-05-22T11:05:14.25</time>
<name>10992</name>
<sym>Dot</sym>
</trkpt>
<trkpt lat="39.728958" lon="-8.495498">
<ele>198.0</ele>
<desc>Speed 8.8 km/h Distance 53.20 km</desc>
<time>2011-05-22T11:05:15.25</time>
<name>10993</name>
<sym>Dot</sym>
</trkpt>
<trkpt lat="39.728937" lon="-8.495510">
<ele>198.0</ele>
<desc>Speed 9.4 km/h Distance 53.20 km</desc>
<time>2011-05-22T11:05:16.25</time>
<name>10994</name>
<sym>Dot</sym>
</trkpt>
<trkpt lat="39.728915" lon="-8.495518">
<ele>198.5</ele>
<desc>Speed 8.8 km/h Distance 53.20 km</desc>
<time>2011-05-22T11:05:17.25</time>
<name>10995</name>
<sym>Dot</sym>
</trkpt>
<trkpt lat="39.728900" lon="-8.495527">
<ele>200.0</ele>
<desc>Speed 6.6 km/h Distance 53.21 km</desc>
<time>2011-05-22T11:05:18.25</time>
<name>10996</name>
<sym>Dot</sym>
</trkpt>
<trkpt lat="39.728883" lon="-8.495538">
<ele>201.0</ele>
<desc>Speed 7.4 km/h Distance 53.21 km</desc>
<time>2011-05-22T11:05:19.25</time>
<name>10997</name>
<sym>Dot</sym>
</trkpt>
<trkpt lat="39.728867" lon="-8.495553">
<ele>202.0</ele>
<desc>Speed 7.9 km/h Distance 53.21 km</desc>
<time>2011-05-22T11:05:20.25</time>
<name>10998</name>
<sym>Dot</sym>
</trkpt>
<trkpt lat="39.728842" lon="-8.495568">
<ele>202.0</ele>
<desc>Speed 10.8 km/h Distance 53.21 km</desc>
<time>2011-05-22T11:05:21.25</time>
<name>10999</name>
<sym>Dot</sym>
</trkpt>
<trkpt lat="39.728815" lon="-8.495585">
<ele>202.0</ele>
<desc>Speed 11.1 km/h Distance 53.22 km</desc>
<time>2011-05-22T11:05:22.25</time>
<name>11000</name>
<sym>Dot</sym>
</trkpt>
<trkpt lat="39.728788" lon="-8.495598">
<ele>201.5</ele>
<desc>Speed 11.1 km/h Distance 53.22 km</desc>
<time>2011-05-22T11:05:23.25</time>
<name>11001</name>
<sym>Dot</sym>
</trkpt>
<trkpt lat="39.728760" lon="-8.495613">
<ele>201.5</ele>
<desc>Speed 11.2 km/h Distance 53.22 km</desc>
<time>2011-05-22T11:05:24.25</time>
<name>11002</name>
<sym>Dot</sym>
</trkpt>
<trkpt lat="39.728735" lon="-8.495628">
<ele>201.5</ele>
<desc>Speed 10.5 km/h Distance 53.23 km</desc>
<time>2011-05-22T11:05:25.25</time>
<name>11003</name>
<sym>Dot</sym>
</trkpt>
<trkpt lat="39.728710" lon="-8.495640">
<ele>201.5</ele>
<desc>Speed 10.0 km/h Distance 53.23 km</desc>
<time>2011-05-22T11:05:26.25</time>
<name>11004</name>
<sym>Dot</sym>
</trkpt>
<trkpt lat="39.728688" lon="-8.495653">
<ele>201.5</ele>
<desc>Speed 9.0 km/h Distance 53.23 km</desc>
<time>2011-05-22T11:05:27.25</time>
<name>11005</name>
<sym>Dot</sym>
</trkpt>
<trkpt lat="39.728667" lon="-8.495667">
<ele>201.5</ele>
<desc>Speed 8.9 km/h Distance 53.24 km</desc>
<time>2011-05-22T11:05:28.25</time>
<name>11006</name>
<sym>Dot</sym>
</trkpt>
<trkpt lat="39.728647" lon="-8.495678">
<ele>201.5</ele>
<desc>Speed 8.2 km/h Distance 53.24 km</desc>
<time>2011-05-22T11:05:29.25</time>
<name>11007</name>
<sym>Dot</sym>
</trkpt>
<trkpt lat="39.728627" lon="-8.495692">
<ele>201.5</ele>
<desc>Speed 8.1 km/h Distance 53.24 km</desc>
<time>2011-05-22T11:05:30.25</time>
<name>11008</name>
<sym>Dot</sym>
</trkpt>
<trkpt lat="39.728607" lon="-8.495703">
<ele>201.5</ele>
<desc>Speed 8.1 km/h Distance 53.24 km</desc>
<time>2011-05-22T11:05:31.25</time>
<name>11009</name>
<sym>Dot</sym>
</trkpt>
<trkpt lat="39.728588" lon="-8.495717">
<ele>201.5</ele>
<desc>Speed 8.2 km/h Distance 53.24 km</desc>
<time>2011-05-22T11:05:32.25</time>
<name>11010</name>
<sym>Dot</sym>
</trkpt>
<trkpt lat="39.728568" lon="-8.495735">
<ele>201.5</ele>
<desc>Speed 9.3 km/h Distance 53.25 km</desc>
<time>2011-05-22T11:05:33.25</time>
<name>11011</name>
<sym>Dot</sym>
</trkpt>
<trkpt lat="39.728545" lon="-8.495748">
<ele>202.0</ele>
<desc>Speed 9.3 km/h Distance 53.25 km</desc>
<time>2011-05-22T11:05:34.25</time>
<name>11012</name>
<sym>Dot</sym>
</trkpt>
<trkpt lat="39.728523" lon="-8.495767">
<ele>202.5</ele>
<desc>Speed 9.7 km/h Distance 53.25 km</desc>
<time>2011-05-22T11:05:35.25</time>
<name>11013</name>
<sym>Dot</sym>
</trkpt>
<trkpt lat="39.728503" lon="-8.495787">
<ele>202.0</ele>
<desc>Speed 10.0 km/h Distance 53.26 km</desc>
<time>2011-05-22T11:05:36.25</time>
<name>11014</name>
<sym>Dot</sym>
</trkpt>
<trkpt lat="39.728482" lon="-8.495807">
<ele>202.0</ele>
<desc>Speed 9.5 km/h Distance 53.26 km</desc>
<time>2011-05-22T11:05:37.25</time>
<name>11015</name>
<sym>Dot</sym>
</trkpt>
<trkpt lat="39.728462" lon="-8.495828">
<ele>202.0</ele>
<desc>Speed 9.5 km/h Distance 53.26 km</desc>
<time>2011-05-22T11:05:38.25</time>
<name>11016</name>
<sym>Dot</sym>
</trkpt>
<trkpt lat="39.728445" lon="-8.495850">
<ele>202.0</ele>
<desc>Speed 9.2 km/h Distance 53.26 km</desc>
<time>2011-05-22T11:05:39.25</time>
<name>11017</name>
<sym>Dot</sym>
</trkpt>
<trkpt lat="39.728428" lon="-8.495870">
<ele>202.0</ele>
<desc>Speed 8.5 km/h Distance 53.27 km</desc>
<time>2011-05-22T11:05:40.25</time>
<name>11018</name>
<sym>Dot</sym>
</trkpt>
<trkpt lat="39.728413" lon="-8.495892">
<ele>202.0</ele>
<desc>Speed 8.4 km/h Distance 53.27 km</desc>
<time>2011-05-22T11:05:41.25</time>
<name>11019</name>
<sym>Dot</sym>
</trkpt>
<trkpt lat="39.728400" lon="-8.495915">
<ele>202.0</ele>
<desc>Speed 8.4 km/h Distance 53.27 km</desc>
<time>2011-05-22T11:05:42.25</time>
<name>11020</name>
<sym>Dot</sym>
</trkpt>
<trkpt lat="39.728387" lon="-8.495938">
<ele>202.0</ele>
<desc>Speed 8.6 km/h Distance 53.27 km</desc>
<time>2011-05-22T11:05:43.25</time>
<name>11021</name>
<sym>Dot</sym>
</trkpt>
<trkpt lat="39.728373" lon="-8.495963">
<ele>202.0</ele>
<desc>Speed 8.6 km/h Distance 53.28 km</desc>
<time>2011-05-22T11:05:44.25</time>
<name>11022</name>
<sym>Dot</sym>
</trkpt>
<trkpt lat="39.728362" lon="-8.495988">
<ele>202.0</ele>
<desc>Speed 8.7 km/h Distance 53.28 km</desc>
<time>2011-05-22T11:05:45.25</time>
<name>11023</name>
<sym>Dot</sym>
</trkpt>
<trkpt lat="39.728350" lon="-8.496013">
<ele>202.0</ele>
<desc>Speed 8.6 km/h Distance 53.28 km</desc>
<time>2011-05-22T11:05:46.25</time>
<name>11024</name>
<sym>Dot</sym>
</trkpt>
<trkpt lat="39.728340" lon="-8.496040">
<ele>202.0</ele>
<desc>Speed 8.5 km/h Distance 53.28 km</desc>
<time>2011-05-22T11:05:47.25</time>
<name>11025</name>
<sym>Dot</sym>
</trkpt>
<trkpt lat="39.728330" lon="-8.496067">
<ele>202.0</ele>
<desc>Speed 8.5 km/h Distance 53.29 km</desc>
<time>2011-05-22T11:05:48.25</time>
<name>11026</name>
<sym>Dot</sym>
</trkpt>
<trkpt lat="39.728322" lon="-8.496093">
<ele>202.0</ele>
<desc>Speed 8.5 km/h Distance 53.29 km</desc>
<time>2011-05-22T11:05:49.25</time>
<name>11027</name>
<sym>Dot</sym>
</trkpt>
<trkpt lat="39.728310" lon="-8.496117">
<ele>202.0</ele>
<desc>Speed 8.1 km/h Distance 53.29 km</desc>
<time>2011-05-22T11:05:50.25</time>
<name>11028</name>
<sym>Dot</sym>
</trkpt>
<trkpt lat="39.728300" lon="-8.496140">
<ele>202.0</ele>
<desc>Speed 7.7 km/h Distance 53.29 km</desc>
<time>2011-05-22T11:05:51.25</time>
<name>11029</name>
<sym>Dot</sym>
</trkpt>
<trkpt lat="39.728290" lon="-8.496163">
<ele>202.0</ele>
<desc>Speed 7.8 km/h Distance 53.30 km</desc>
<time>2011-05-22T11:05:52.25</time>
<name>11030</name>
<sym>Dot</sym>
</trkpt>
<trkpt lat="39.728280" lon="-8.496185">
<ele>202.5</ele>
<desc>Speed 7.4 km/h Distance 53.30 km</desc>
<time>2011-05-22T11:05:53.25</time>
<name>11031</name>
<sym>Dot</sym>
</trkpt>
<trkpt lat="39.728268" lon="-8.496205">
<ele>202.5</ele>
<desc>Speed 7.5 km/h Distance 53.30 km</desc>
<time>2011-05-22T11:05:54.25</time>
<name>11032</name>
<sym>Dot</sym>
</trkpt>
<trkpt lat="39.728257" lon="-8.496228">
<ele>202.5</ele>
<desc>Speed 8.0 km/h Distance 53.30 km</desc>
<time>2011-05-22T11:05:55.25</time>
<name>11033</name>
<sym>Dot</sym>
</trkpt>
<trkpt lat="39.728247" lon="-8.496252">
<ele>202.5</ele>
<desc>Speed 7.8 km/h Distance 53.31 km</desc>
<time>2011-05-22T11:05:56.25</time>
<name>11034</name>
<sym>Dot</sym>
</trkpt>
<trkpt lat="39.728238" lon="-8.496275">
<ele>203.0</ele>
<desc>Speed 7.5 km/h Distance 53.31 km</desc>
<time>2011-05-22T11:05:57.25</time>
<name>11035</name>
<sym>Dot</sym>
</trkpt>
<trkpt lat="39.728230" lon="-8.496298">
<ele>203.5</ele>
<desc>Speed 7.6 km/h Distance 53.31 km</desc>
<time>2011-05-22T11:05:58.25</time>
<name>11036</name>
<sym>Dot</sym>
</trkpt>
<trkpt lat="39.728220" lon="-8.496323">
<ele>203.5</ele>
<desc>Speed 8.1 km/h Distance 53.31 km</desc>
<time>2011-05-22T11:05:59.25</time>
<name>11037</name>
<sym>Dot</sym>
</trkpt>
<trkpt lat="39.728208" lon="-8.496352">
<ele>203.5</ele>
<desc>Speed 8.6 km/h Distance 53.32 km</desc>
<time>2011-05-22T11:06:00.25</time>
<name>11038</name>
<sym>Dot</sym>
</trkpt>
<trkpt lat="39.728198" lon="-8.496377">
<ele>203.5</ele>
<desc>Speed 8.2 km/h Distance 53.32 km</desc>
<time>2011-05-22T11:06:01.25</time>
<name>11039</name>
<sym>Dot</sym>
</trkpt>
<trkpt lat="39.728188" lon="-8.496403">
<ele>203.5</ele>
<desc>Speed 8.0 km/h Distance 53.32 km</desc>
<time>2011-05-22T11:06:02.25</time>
<name>11040</name>
<sym>Dot</sym>
</trkpt>
<trkpt lat="39.728182" lon="-8.496428">
<ele>203.5</ele>
<desc>Speed 7.9 km/h Distance 53.32 km</desc>
<time>2011-05-22T11:06:03.25</time>
<name>11041</name>
<sym>Dot</sym>
</trkpt>
<trkpt lat="39.728170" lon="-8.496452">
<ele>203.5</ele>
<desc>Speed 8.1 km/h Distance 53.32 km</desc>
<time>2011-05-22T11:06:04.25</time>
<name>11042</name>
<sym>Dot</sym>
</trkpt>
<trkpt lat="39.728160" lon="-8.496473">
<ele>204.0</ele>
<desc>Speed 7.5 km/h Distance 53.33 km</desc>
<time>2011-05-22T11:06:05.25</time>
<name>11043</name>
<sym>Dot</sym>
</trkpt>
<trkpt lat="39.728150" lon="-8.496495">
<ele>204.5</ele>
<desc>Speed 7.3 km/h Distance 53.33 km</desc>
<time>2011-05-22T11:06:06.25</time>
<name>11044</name>
<sym>Dot</sym>
</trkpt>
<trkpt lat="39.728140" lon="-8.496518">
<ele>204.5</ele>
<desc>Speed 8.1 km/h Distance 53.33 km</desc>
<time>2011-05-22T11:06:07.25</time>
<name>11045</name>
<sym>Dot</sym>
</trkpt>
<trkpt lat="39.728130" lon="-8.496538">
<ele>205.0</ele>
<desc>Speed 7.4 km/h Distance 53.33 km</desc>
<time>2011-05-22T11:06:08.25</time>
<name>11046</name>
<sym>Dot</sym>
</trkpt>
<trkpt lat="39.728122" lon="-8.496560">
<ele>205.0</ele>
<desc>Speed 7.0 km/h Distance 53.34 km</desc>
<time>2011-05-22T11:06:09.25</time>
<name>11047</name>
<sym>Dot</sym>
</trkpt>
<trkpt lat="39.728112" lon="-8.496583">
<ele>205.0</ele>
<desc>Speed 7.5 km/h Distance 53.34 km</desc>
<time>2011-05-22T11:06:10.25</time>
<name>11048</name>
<sym>Dot</sym>
</trkpt>
<trkpt lat="39.728102" lon="-8.496605">
<ele>205.0</ele>
<desc>Speed 7.6 km/h Distance 53.34 km</desc>
<time>2011-05-22T11:06:11.25</time>
<name>11049</name>
<sym>Dot</sym>
</trkpt>
<trkpt lat="39.728092" lon="-8.496628">
<ele>205.0</ele>
<desc>Speed 7.2 km/h Distance 53.34 km</desc>
<time>2011-05-22T11:06:12.25</time>
<name>11050</name>
<sym>Dot</sym>
</trkpt>
<trkpt lat="39.728080" lon="-8.496648">
<ele>205.5</ele>
<desc>Speed 7.2 km/h Distance 53.34 km</desc>
<time>2011-05-22T11:06:13.25</time>
<name>11051</name>
<sym>Dot</sym>
</trkpt>
<trkpt lat="39.728072" lon="-8.496673">
<ele>205.5</ele>
<desc>Speed 7.5 km/h Distance 53.35 km</desc>
<time>2011-05-22T11:06:14.25</time>
<name>11052</name>
<sym>Dot</sym>
</trkpt>
<trkpt lat="39.728062" lon="-8.496693">
<ele>206.0</ele>
<desc>Speed 7.3 km/h Distance 53.35 km</desc>
<time>2011-05-22T11:06:15.25</time>
<name>11053</name>
<sym>Dot</sym>
</trkpt>
<trkpt lat="39.728048" lon="-8.496717">
<ele>206.0</ele>
<desc>Speed 8.1 km/h Distance 53.35 km</desc>
<time>2011-05-22T11:06:16.25</time>
<name>11054</name>
<sym>Dot</sym>
</trkpt>
<trkpt lat="39.728037" lon="-8.496742">
<ele>206.0</ele>
<desc>Speed 8.1 km/h Distance 53.35 km</desc>
<time>2011-05-22T11:06:17.25</time>
<name>11055</name>
<sym>Dot</sym>
</trkpt>
<trkpt lat="39.728023" lon="-8.496763">
<ele>206.0</ele>
<desc>Speed 7.7 km/h Distance 53.36 km</desc>
<time>2011-05-22T11:06:18.25</time>
<name>11056</name>
<sym>Dot</sym>
</trkpt>
<trkpt lat="39.728010" lon="-8.496785">
<ele>206.0</ele>
<desc>Speed 8.2 km/h Distance 53.36 km</desc>
<time>2011-05-22T11:06:19.25</time>
<name>11057</name>
<sym>Dot</sym>
</trkpt>
<trkpt lat="39.727997" lon="-8.496807">
<ele>206.0</ele>
<desc>Speed 8.0 km/h Distance 53.36 km</desc>
<time>2011-05-22T11:06:20.25</time>
<name>11058</name>
<sym>Dot</sym>
</trkpt>
<trkpt lat="39.727983" lon="-8.496825">
<ele>206.0</ele>
<desc>Speed 7.6 km/h Distance 53.36 km</desc>
<time>2011-05-22T11:06:21.25</time>
<name>11059</name>
<sym>Dot</sym>
</trkpt>
<trkpt lat="39.727968" lon="-8.496845">
<ele>206.0</ele>
<desc>Speed 7.6 km/h Distance 53.37 km</desc>
<time>2011-05-22T11:06:22.25</time>
<name>11060</name>
<sym>Dot</sym>
</trkpt>
<trkpt lat="39.727955" lon="-8.496863">
<ele>206.0</ele>
<desc>Speed 7.5 km/h Distance 53.37 km</desc>
<time>2011-05-22T11:06:23.25</time>
<name>11061</name>
<sym>Dot</sym>
</trkpt>
<trkpt lat="39.727942" lon="-8.496882">
<ele>206.0</ele>
<desc>Speed 7.2 km/h Distance 53.37 km</desc>
<time>2011-05-22T11:06:24.25</time>
<name>11062</name>
<sym>Dot</sym>
</trkpt>
<trkpt lat="39.727927" lon="-8.496897">
<ele>206.0</ele>
<desc>Speed 7.8 km/h Distance 53.37 km</desc>
<time>2011-05-22T11:06:25.25</time>
<name>11063</name>
<sym>Dot</sym>
</trkpt>
<trkpt lat="39.727910" lon="-8.496913">
<ele>206.5</ele>
<desc>Speed 7.8 km/h Distance 53.37 km</desc>
<time>2011-05-22T11:06:26.25</time>
<name>11064</name>
<sym>Dot</sym>
</trkpt>
<trkpt lat="39.727893" lon="-8.496930">
<ele>206.5</ele>
<desc>Speed 7.8 km/h Distance 53.38 km</desc>
<time>2011-05-22T11:06:27.25</time>
<name>11065</name>
<sym>Dot</sym>
</trkpt>
<trkpt lat="39.727878" lon="-8.496945">
<ele>206.5</ele>
<desc>Speed 7.0 km/h Distance 53.38 km</desc>
<time>2011-05-22T11:06:28.25</time>
<name>11066</name>
<sym>Dot</sym>
</trkpt>
<trkpt lat="39.727863" lon="-8.496960">
<ele>207.0</ele>
<desc>Speed 7.3 km/h Distance 53.38 km</desc>
<time>2011-05-22T11:06:29.25</time>
<name>11067</name>
<sym>Dot</sym>
</trkpt>
<trkpt lat="39.727848" lon="-8.496977">
<ele>207.0</ele>
<desc>Speed 7.5 km/h Distance 53.38 km</desc>
<time>2011-05-22T11:06:30.25</time>
<name>11068</name>
<sym>Dot</sym>
</trkpt>
<trkpt lat="39.727833" lon="-8.496993">
<ele>207.0</ele>
<desc>Speed 7.5 km/h Distance 53.39 km</desc>
<time>2011-05-22T11:06:31.25</time>
<name>11069</name>
<sym>Dot</sym>
</trkpt>
<trkpt lat="39.727818" lon="-8.497008">
<ele>207.0</ele>
<desc>Speed 6.9 km/h Distance 53.39 km</desc>
<time>2011-05-22T11:06:32.25</time>
<name>11070</name>
<sym>Dot</sym>
</trkpt>
<trkpt lat="39.727803" lon="-8.497018">
<ele>207.5</ele>
<desc>Speed 6.7 km/h Distance 53.39 km</desc>
<time>2011-05-22T11:06:33.25</time>
<name>11071</name>
<sym>Dot</sym>
</trkpt>
<trkpt lat="39.727787" lon="-8.497027">
<ele>208.0</ele>
<desc>Speed 7.0 km/h Distance 53.39 km</desc>
<time>2011-05-22T11:06:34.25</time>
<name>11072</name>
<sym>Dot</sym>
</trkpt>
<trkpt lat="39.727768" lon="-8.497035">
<ele>208.0</ele>
<desc>Speed 7.3 km/h Distance 53.39 km</desc>
<time>2011-05-22T11:06:35.25</time>
<name>11073</name>
<sym>Dot</sym>
</trkpt>
<trkpt lat="39.727750" lon="-8.497043">
<ele>208.5</ele>
<desc>Speed 8.1 km/h Distance 53.40 km</desc>
<time>2011-05-22T11:06:36.25</time>
<name>11074</name>
<sym>Dot</sym>
</trkpt>
<trkpt lat="39.727732" lon="-8.497055">
<ele>209.0</ele>
<desc>Speed 7.7 km/h Distance 53.40 km</desc>
<time>2011-05-22T11:06:37.25</time>
<name>11075</name>
<sym>Dot</sym>
</trkpt>
<trkpt lat="39.727710" lon="-8.497070">
<ele>209.0</ele>
<desc>Speed 9.1 km/h Distance 53.40 km</desc>
<time>2011-05-22T11:06:38.25</time>
<name>11076</name>
<sym>Dot</sym>
</trkpt>
<trkpt lat="39.727682" lon="-8.497083">
<ele>208.5</ele>
<desc>Speed 12.0 km/h Distance 53.40 km</desc>
<time>2011-05-22T11:06:39.25</time>
<name>11077</name>
<sym>Dot</sym>
</trkpt>
<trkpt lat="39.727653" lon="-8.497098">
<ele>210.0</ele>
<desc>Speed 11.3 km/h Distance 53.41 km</desc>
<time>2011-05-22T11:06:40.25</time>
<name>11078</name>
<sym>Dot</sym>
</trkpt>
<trkpt lat="39.727627" lon="-8.497118">
<ele>210.5</ele>
<desc>Speed 12.5 km/h Distance 53.41 km</desc>
<time>2011-05-22T11:06:41.25</time>
<name>11079</name>
<sym>Dot</sym>
</trkpt>
<trkpt lat="39.727590" lon="-8.497140">
<ele>210.5</ele>
<desc>Speed 15.8 km/h Distance 53.42 km</desc>
<time>2011-05-22T11:06:42.25</time>
<name>11080</name>
<sym>Dot</sym>
</trkpt>
<trkpt lat="39.727488" lon="-8.497200">
<ele>208.0</ele>
<desc>Speed 21.4 km/h Distance 53.43 km</desc>
<time>2011-05-22T11:06:44.25</time>
<name>11081</name>
<sym>Dot</sym>
</trkpt>
<trkpt lat="39.727437" lon="-8.497233">
<ele>207.5</ele>
<desc>Speed 22.9 km/h Distance 53.43 km</desc>
<time>2011-05-22T11:06:45.25</time>
<name>11082</name>
<sym>Dot</sym>
</trkpt>
<trkpt lat="39.727382" lon="-8.497267">
<ele>207.0</ele>
<desc>Speed 24.2 km/h Distance 53.44 km</desc>
<time>2011-05-22T11:06:46.25</time>
<name>11083</name>
<sym>Dot</sym>
</trkpt>
<trkpt lat="39.727322" lon="-8.497303">
<ele>206.5</ele>
<desc>Speed 25.6 km/h Distance 53.45 km</desc>
<time>2011-05-22T11:06:47.25</time>
<name>11084</name>
<sym>Dot</sym>
</trkpt>
<trkpt lat="39.727260" lon="-8.497342">
<ele>206.0</ele>
<desc>Speed 26.6 km/h Distance 53.46 km</desc>
<time>2011-05-22T11:06:48.25</time>
<name>11085</name>
<sym>Dot</sym>
</trkpt>
<trkpt lat="39.727200" lon="-8.497392">
<ele>205.5</ele>
<desc>Speed 28.6 km/h Distance 53.46 km</desc>
<time>2011-05-22T11:06:49.25</time>
<name>11086</name>
<sym>Dot</sym>
</trkpt>
<trkpt lat="39.727145" lon="-8.497463">
<ele>204.5</ele>
<desc>Speed 30.7 km/h Distance 53.47 km</desc>
<time>2011-05-22T11:06:50.25</time>
<name>11087</name>
<sym>Dot</sym>
</trkpt>
<trkpt lat="39.727097" lon="-8.497548">
<ele>204.0</ele>
<desc>Speed 32.1 km/h Distance 53.48 km</desc>
<time>2011-05-22T11:06:51.25</time>
<name>11088</name>
<sym>Dot</sym>
</trkpt>
<trkpt lat="39.727057" lon="-8.497645">
<ele>203.5</ele>
<desc>Speed 33.0 km/h Distance 53.49 km</desc>
<time>2011-05-22T11:06:52.25</time>
<name>11089</name>
<sym>Dot</sym>
</trkpt>
<trkpt lat="39.727022" lon="-8.497750">
<ele>203.0</ele>
<desc>Speed 34.4 km/h Distance 53.50 km</desc>
<time>2011-05-22T11:06:53.25</time>
<name>11090</name>
<sym>Dot</sym>
</trkpt>
<trkpt lat="39.726988" lon="-8.497857">
<ele>202.5</ele>
<desc>Speed 35.0 km/h Distance 53.51 km</desc>
<time>2011-05-22T11:06:54.25</time>
<name>11091</name>
<sym>Dot</sym>
</trkpt>
<trkpt lat="39.726957" lon="-8.497968">
<ele>202.0</ele>
<desc>Speed 35.6 km/h Distance 53.52 km</desc>
<time>2011-05-22T11:06:55.25</time>
<name>11092</name>
<sym>Dot</sym>
</trkpt>
<trkpt lat="39.726923" lon="-8.498078">
<ele>201.0</ele>
<desc>Speed 36.2 km/h Distance 53.53 km</desc>
<time>2011-05-22T11:06:56.25</time>
<name>11093</name>
<sym>Dot</sym>
</trkpt>
<trkpt lat="39.726890" lon="-8.498190">
<ele>200.5</ele>
<desc>Speed 36.2 km/h Distance 53.54 km</desc>
<time>2011-05-22T11:06:57.25</time>
<name>11094</name>
<sym>Dot</sym>
</trkpt>
<trkpt lat="39.726857" lon="-8.498305">
<ele>200.0</ele>
<desc>Speed 36.7 km/h Distance 53.55 km</desc>
<time>2011-05-22T11:06:58.25</time>
<name>11095</name>
<sym>Dot</sym>
</trkpt>
<trkpt lat="39.726822" lon="-8.498418">
<ele>199.5</ele>
<desc>Speed 37.1 km/h Distance 53.56 km</desc>
<time>2011-05-22T11:06:59.25</time>
<name>11096</name>
<sym>Dot</sym>
</trkpt>
<trkpt lat="39.726785" lon="-8.498532">
<ele>199.0</ele>
<desc>Speed 37.1 km/h Distance 53.57 km</desc>
<time>2011-05-22T11:07:00.25</time>
<name>11097</name>
<sym>Dot</sym>
</trkpt>
<trkpt lat="39.726752" lon="-8.498645">
<ele>198.5</ele>
<desc>Speed 36.9 km/h Distance 53.58 km</desc>
<time>2011-05-22T11:07:01.25</time>
<name>11098</name>
<sym>Dot</sym>
</trkpt>
<trkpt lat="39.726718" lon="-8.498758">
<ele>198.0</ele>
<desc>Speed 36.8 km/h Distance 53.59 km</desc>
<time>2011-05-22T11:07:02.25</time>
<name>11099</name>
<sym>Dot</sym>
</trkpt>
<trkpt lat="39.726683" lon="-8.498872">
<ele>197.0</ele>
<desc>Speed 37.0 km/h Distance 53.60 km</desc>
<time>2011-05-22T11:07:03.25</time>
<name>11100</name>
<sym>Dot</sym>
</trkpt>
<trkpt lat="39.726647" lon="-8.498983">
<ele>196.5</ele>
<desc>Speed 36.9 km/h Distance 53.61 km</desc>
<time>2011-05-22T11:07:04.25</time>
<name>11101</name>
<sym>Dot</sym>
</trkpt>
<trkpt lat="39.726610" lon="-8.499097">
<ele>196.0</ele>
<desc>Speed 37.1 km/h Distance 53.62 km</desc>
<time>2011-05-22T11:07:05.25</time>
<name>11102</name>
<sym>Dot</sym>
</trkpt>
<trkpt lat="39.726575" lon="-8.499212">
<ele>195.5</ele>
<desc>Speed 37.5 km/h Distance 53.64 km</desc>
<time>2011-05-22T11:07:06.25</time>
<name>11103</name>
<sym>Dot</sym>
</trkpt>
<trkpt lat="39.726533" lon="-8.499338">
<ele>194.0</ele>
<desc>Speed 38.0 km/h Distance 53.65 km</desc>
<time>2011-05-22T11:07:07.25</time>
<name>11104</name>
<sym>Dot</sym>
</trkpt>
<trkpt lat="39.726497" lon="-8.499455">
<ele>193.5</ele>
<desc>Speed 38.3 km/h Distance 53.66 km</desc>
<time>2011-05-22T11:07:08.25</time>
<name>11105</name>
<sym>Dot</sym>
</trkpt>
<trkpt lat="39.726465" lon="-8.499572">
<ele>193.0</ele>
<desc>Speed 37.5 km/h Distance 53.67 km</desc>
<time>2011-05-22T11:07:09.25</time>
<name>11106</name>
<sym>Dot</sym>
</trkpt>
<trkpt lat="39.726432" lon="-8.499685">
<ele>192.5</ele>
<desc>Speed 36.6 km/h Distance 53.68 km</desc>
<time>2011-05-22T11:07:10.25</time>
<name>11107</name>
<sym>Dot</sym>
</trkpt>
<trkpt lat="39.726390" lon="-8.499797">
<ele>191.0</ele>
<desc>Speed 35.6 km/h Distance 53.69 km</desc>
<time>2011-05-22T11:07:11.25</time>
<name>11108</name>
<sym>Dot</sym>
</trkpt>
<trkpt lat="39.726352" lon="-8.499907">
<ele>190.0</ele>
<desc>Speed 34.7 km/h Distance 53.70 km</desc>
<time>2011-05-22T11:07:12.25</time>
<name>11109</name>
<sym>Dot</sym>
</trkpt>
<trkpt lat="39.726318" lon="-8.500010">
<ele>189.5</ele>
<desc>Speed 34.0 km/h Distance 53.71 km</desc>
<time>2011-05-22T11:07:13.25</time>
<name>11110</name>
<sym>Dot</sym>
</trkpt>
<trkpt lat="39.726287" lon="-8.500112">
<ele>189.0</ele>
<desc>Speed 33.6 km/h Distance 53.72 km</desc>
<time>2011-05-22T11:07:14.25</time>
<name>11111</name>
<sym>Dot</sym>
</trkpt>
<trkpt lat="39.726258" lon="-8.500213">
<ele>188.5</ele>
<desc>Speed 32.9 km/h Distance 53.73 km</desc>
<time>2011-05-22T11:07:15.25</time>
<name>11112</name>
<sym>Dot</sym>
</trkpt>
<trkpt lat="39.726232" lon="-8.500313">
<ele>188.0</ele>
<desc>Speed 32.5 km/h Distance 53.74 km</desc>
<time>2011-05-22T11:07:16.25</time>
<name>11113</name>
<sym>Dot</sym>
</trkpt>
<trkpt lat="39.726207" lon="-8.500415">
<ele>187.5</ele>
<desc>Speed 32.1 km/h Distance 53.75 km</desc>
<time>2011-05-22T11:07:17.25</time>
<name>11114</name>
<sym>Dot</sym>
</trkpt>
<trkpt lat="39.726177" lon="-8.500518">
<ele>187.0</ele>
<desc>Speed 32.3 km/h Distance 53.76 km</desc>
<time>2011-05-22T11:07:18.25</time>
<name>11115</name>
<sym>Dot</sym>
</trkpt>
<trkpt lat="39.726152" lon="-8.500618">
<ele>186.5</ele>
<desc>Speed 32.0 km/h Distance 53.76 km</desc>
<time>2011-05-22T11:07:19.25</time>
<name>11116</name>
<sym>Dot</sym>
</trkpt>
<trkpt lat="39.726125" lon="-8.500718">
<ele>186.0</ele>
<desc>Speed 31.9 km/h Distance 53.77 km</desc>
<time>2011-05-22T11:07:20.25</time>
<name>11117</name>
<sym>Dot</sym>
</trkpt>
<trkpt lat="39.726095" lon="-8.500817">
<ele>185.5</ele>
<desc>Speed 30.5 km/h Distance 53.78 km</desc>
<time>2011-05-22T11:07:21.25</time>
<name>11118</name>
<sym>Dot</sym>
</trkpt>
<trkpt lat="39.726067" lon="-8.500905">
<ele>184.5</ele>
<desc>Speed 27.3 km/h Distance 53.79 km</desc>
<time>2011-05-22T11:07:22.25</time>
<name>11119</name>
<sym>Dot</sym>
</trkpt>
<trkpt lat="39.726038" lon="-8.500990">
<ele>184.0</ele>
<desc>Speed 26.6 km/h Distance 53.80 km</desc>
<time>2011-05-22T11:07:23.25</time>
<name>11120</name>
<sym>Dot</sym>
</trkpt>
<trkpt lat="39.726013" lon="-8.501073">
<ele>183.0</ele>
<desc>Speed 26.0 km/h Distance 53.81 km</desc>
<time>2011-05-22T11:07:24.25</time>
<name>11121</name>
<sym>Dot</sym>
</trkpt>
<trkpt lat="39.725990" lon="-8.501152">
<ele>183.0</ele>
<desc>Speed 24.9 km/h Distance 53.81 km</desc>
<time>2011-05-22T11:07:25.25</time>
<name>11122</name>
<sym>Dot</sym>
</trkpt>
<trkpt lat="39.725970" lon="-8.501228">
<ele>182.5</ele>
<desc>Speed 24.3 km/h Distance 53.82 km</desc>
<time>2011-05-22T11:07:26.25</time>
<name>11123</name>
<sym>Dot</sym>
</trkpt>
<trkpt lat="39.725948" lon="-8.501303">
<ele>182.5</ele>
<desc>Speed 23.9 km/h Distance 53.83 km</desc>
<time>2011-05-22T11:07:27.25</time>
<name>11124</name>
<sym>Dot</sym>
</trkpt>
<trkpt lat="39.725925" lon="-8.501378">
<ele>182.0</ele>
<desc>Speed 23.6 km/h Distance 53.83 km</desc>
<time>2011-05-22T11:07:28.25</time>
<name>11125</name>
<sym>Dot</sym>
</trkpt>
<trkpt lat="39.725903" lon="-8.501453">
<ele>182.0</ele>
<desc>Speed 23.5 km/h Distance 53.84 km</desc>
<time>2011-05-22T11:07:29.25</time>
<name>11126</name>
<sym>Dot</sym>
</trkpt>
<trkpt lat="39.725882" lon="-8.501525">
<ele>181.5</ele>
<desc>Speed 22.8 km/h Distance 53.85 km</desc>
<time>2011-05-22T11:07:30.25</time>
<name>11127</name>
<sym>Dot</sym>
</trkpt>
<trkpt lat="39.725862" lon="-8.501597">
<ele>181.0</ele>
<desc>Speed 22.3 km/h Distance 53.85 km</desc>
<time>2011-05-22T11:07:31.25</time>
<name>11128</name>
<sym>Dot</sym>
</trkpt>
<trkpt lat="39.725840" lon="-8.501665">
<ele>180.5</ele>
<desc>Speed 21.5 km/h Distance 53.86 km</desc>
<time>2011-05-22T11:07:32.25</time>
<name>11129</name>
<sym>Dot</sym>
</trkpt>
<trkpt lat="39.725820" lon="-8.501728">
<ele>180.0</ele>
<desc>Speed 20.8 km/h Distance 53.87 km</desc>
<time>2011-05-22T11:07:33.25</time>
<name>11130</name>
<sym>Dot</sym>
</trkpt>
<trkpt lat="39.725798" lon="-8.501790">
<ele>180.0</ele>
<desc>Speed 20.3 km/h Distance 53.87 km</desc>
<time>2011-05-22T11:07:34.25</time>
<name>11131</name>
<sym>Dot</sym>
</trkpt>
<trkpt lat="39.725780" lon="-8.501853">
<ele>180.0</ele>
<desc>Speed 20.1 km/h Distance 53.88 km</desc>
<time>2011-05-22T11:07:35.25</time>
<name>11132</name>
<sym>Dot</sym>
</trkpt>
<trkpt lat="39.725763" lon="-8.501917">
<ele>179.5</ele>
<desc>Speed 20.0 km/h Distance 53.88 km</desc>
<time>2011-05-22T11:07:36.25</time>
<name>11133</name>
<sym>Dot</sym>
</trkpt>
<trkpt lat="39.725748" lon="-8.501982">
<ele>179.0</ele>
<desc>Speed 20.3 km/h Distance 53.89 km</desc>
<time>2011-05-22T11:07:37.25</time>
<name>11134</name>
<sym>Dot</sym>
</trkpt>
<trkpt lat="39.725730" lon="-8.502047">
<ele>179.0</ele>
<desc>Speed 20.6 km/h Distance 53.90 km</desc>
<time>2011-05-22T11:07:38.25</time>
<name>11135</name>
<sym>Dot</sym>
</trkpt>
<trkpt lat="39.725710" lon="-8.502112">
<ele>178.5</ele>
<desc>Speed 20.6 km/h Distance 53.90 km</desc>
<time>2011-05-22T11:07:39.25</time>
<name>11136</name>
<sym>Dot</sym>
</trkpt>
<trkpt lat="39.725692" lon="-8.502177">
<ele>178.5</ele>
<desc>Speed 20.4 km/h Distance 53.91 km</desc>
<time>2011-05-22T11:07:40.25</time>
<name>11137</name>
<sym>Dot</sym>
</trkpt>
<trkpt lat="39.725673" lon="-8.502240">
<ele>178.5</ele>
<desc>Speed 20.6 km/h Distance 53.91 km</desc>
<time>2011-05-22T11:07:41.25</time>
<name>11138</name>
<sym>Dot</sym>
</trkpt>
<trkpt lat="39.725653" lon="-8.502303">
<ele>178.0</ele>
<desc>Speed 20.8 km/h Distance 53.92 km</desc>
<time>2011-05-22T11:07:42.25</time>
<name>11139</name>
<sym>Dot</sym>
</trkpt>
<trkpt lat="39.725633" lon="-8.502370">
<ele>178.0</ele>
<desc>Speed 21.1 km/h Distance 53.93 km</desc>
<time>2011-05-22T11:07:43.25</time>
<name>11140</name>
<sym>Dot</sym>
</trkpt>
<trkpt lat="39.725617" lon="-8.502437">
<ele>178.0</ele>
<desc>Speed 21.4 km/h Distance 53.93 km</desc>
<time>2011-05-22T11:07:44.25</time>
<name>11141</name>
<sym>Dot</sym>
</trkpt>
<trkpt lat="39.725598" lon="-8.502503">
<ele>178.0</ele>
<desc>Speed 21.6 km/h Distance 53.94 km</desc>
<time>2011-05-22T11:07:45.25</time>
<name>11142</name>
<sym>Dot</sym>
</trkpt>
<trkpt lat="39.725580" lon="-8.502570">
<ele>178.0</ele>
<desc>Speed 21.4 km/h Distance 53.94 km</desc>
<time>2011-05-22T11:07:46.25</time>
<name>11143</name>
<sym>Dot</sym>
</trkpt>
<trkpt lat="39.725562" lon="-8.502637">
<ele>178.0</ele>
<desc>Speed 21.9 km/h Distance 53.95 km</desc>
<time>2011-05-22T11:07:47.25</time>
<name>11144</name>
<sym>Dot</sym>
</trkpt>
<trkpt lat="39.725542" lon="-8.502705">
<ele>178.0</ele>
<desc>Speed 21.9 km/h Distance 53.96 km</desc>
<time>2011-05-22T11:07:48.25</time>
<name>11145</name>
<sym>Dot</sym>
</trkpt>
<trkpt lat="39.725523" lon="-8.502773">
<ele>178.0</ele>
<desc>Speed 21.9 km/h Distance 53.96 km</desc>
<time>2011-05-22T11:07:49.25</time>
<name>11146</name>
<sym>Dot</sym>
</trkpt>
<trkpt lat="39.725505" lon="-8.502840">
<ele>178.0</ele>
<desc>Speed 21.6 km/h Distance 53.97 km</desc>
<time>2011-05-22T11:07:50.25</time>
<name>11147</name>
<sym>Dot</sym>
</trkpt>
<trkpt lat="39.725487" lon="-8.502907">
<ele>178.0</ele>
<desc>Speed 21.4 km/h Distance 53.97 km</desc>
<time>2011-05-22T11:07:51.25</time>
<name>11148</name>
<sym>Dot</sym>
</trkpt>
<trkpt lat="39.725470" lon="-8.502972">
<ele>178.0</ele>
<desc>Speed 21.0 km/h Distance 53.98 km</desc>
<time>2011-05-22T11:07:52.25</time>
<name>11149</name>
<sym>Dot</sym>
</trkpt>
<trkpt lat="39.725453" lon="-8.503037">
<ele>178.0</ele>
<desc>Speed 20.6 km/h Distance 53.99 km</desc>
<time>2011-05-22T11:07:53.25</time>
<name>11150</name>
<sym>Dot</sym>
</trkpt>
<trkpt lat="39.725437" lon="-8.503098">
<ele>178.0</ele>
<desc>Speed 20.0 km/h Distance 53.99 km</desc>
<time>2011-05-22T11:07:54.25</time>
<name>11151</name>
<sym>Dot</sym>
</trkpt>
<trkpt lat="39.725422" lon="-8.503160">
<ele>178.0</ele>
<desc>Speed 19.4 km/h Distance 54.00 km</desc>
<time>2011-05-22T11:07:55.25</time>
<name>11152</name>
<sym>Dot</sym>
</trkpt>
<trkpt lat="39.725405" lon="-8.503218">
<ele>178.0</ele>
<desc>Speed 19.0 km/h Distance 54.00 km</desc>
<time>2011-05-22T11:07:56.25</time>
<name>11153</name>
<sym>Dot</sym>
</trkpt>
<trkpt lat="39.725390" lon="-8.503275">
<ele>178.0</ele>
<desc>Speed 18.5 km/h Distance 54.01 km</desc>
<time>2011-05-22T11:07:57.25</time>
<name>11154</name>
<sym>Dot</sym>
</trkpt>
<trkpt lat="39.725373" lon="-8.503337">
<ele>177.5</ele>
<desc>Speed 19.4 km/h Distance 54.01 km</desc>
<time>2011-05-22T11:07:58.25</time>
<name>11155</name>
<sym>Dot</sym>
</trkpt>
<trkpt lat="39.725357" lon="-8.503395">
<ele>177.5</ele>
<desc>Speed 19.2 km/h Distance 54.02 km</desc>
<time>2011-05-22T11:07:59.25</time>
<name>11156</name>
<sym>Dot</sym>
</trkpt>
<trkpt lat="39.725342" lon="-8.503455">
<ele>177.5</ele>
<desc>Speed 19.1 km/h Distance 54.02 km</desc>
<time>2011-05-22T11:08:00.25</time>
<name>11157</name>
<sym>Dot</sym>
</trkpt>
<trkpt lat="39.725325" lon="-8.503512">
<ele>177.5</ele>
<desc>Speed 18.8 km/h Distance 54.03 km</desc>
<time>2011-05-22T11:08:01.25</time>
<name>11158</name>
<sym>Dot</sym>
</trkpt>
<trkpt lat="39.725308" lon="-8.503568">
<ele>177.5</ele>
<desc>Speed 18.3 km/h Distance 54.03 km</desc>
<time>2011-05-22T11:08:02.25</time>
<name>11159</name>
<sym>Dot</sym>
</trkpt>
<trkpt lat="39.725292" lon="-8.503625">
<ele>177.5</ele>
<desc>Speed 18.3 km/h Distance 54.04 km</desc>
<time>2011-05-22T11:08:03.25</time>
<name>11160</name>
<sym>Dot</sym>
</trkpt>
<trkpt lat="39.725277" lon="-8.503682">
<ele>177.5</ele>
<desc>Speed 18.3 km/h Distance 54.04 km</desc>
<time>2011-05-22T11:08:04.25</time>
<name>11161</name>
<sym>Dot</sym>
</trkpt>
<trkpt lat="39.725262" lon="-8.503738">
<ele>177.5</ele>
<desc>Speed 18.3 km/h Distance 54.05 km</desc>
<time>2011-05-22T11:08:05.25</time>
<name>11162</name>
<sym>Dot</sym>
</trkpt>
<trkpt lat="39.725247" lon="-8.503795">
<ele>177.5</ele>
<desc>Speed 18.0 km/h Distance 54.05 km</desc>
<time>2011-05-22T11:08:06.25</time>
<name>11163</name>
<sym>Dot</sym>
</trkpt>
<trkpt lat="39.725232" lon="-8.503850">
<ele>177.5</ele>
<desc>Speed 18.1 km/h Distance 54.06 km</desc>
<time>2011-05-22T11:08:07.25</time>
<name>11164</name>
<sym>Dot</sym>
</trkpt>
<trkpt lat="39.725217" lon="-8.503905">
<ele>177.0</ele>
<desc>Speed 17.8 km/h Distance 54.06 km</desc>
<time>2011-05-22T11:08:08.25</time>
<name>11165</name>
<sym>Dot</sym>
</trkpt>
<trkpt lat="39.725202" lon="-8.503960">
<ele>177.0</ele>
<desc>Speed 17.9 km/h Distance 54.07 km</desc>
<time>2011-05-22T11:08:09.25</time>
<name>11166</name>
<sym>Dot</sym>
</trkpt>
<trkpt lat="39.725188" lon="-8.504015">
<ele>177.0</ele>
<desc>Speed 17.6 km/h Distance 54.07 km</desc>
<time>2011-05-22T11:08:10.25</time>
<name>11167</name>
<sym>Dot</sym>
</trkpt>
<trkpt lat="39.725177" lon="-8.504070">
<ele>177.0</ele>
<desc>Speed 17.6 km/h Distance 54.08 km</desc>
<time>2011-05-22T11:08:11.25</time>
<name>11168</name>
<sym>Dot</sym>
</trkpt>
<trkpt lat="39.725162" lon="-8.504125">
<ele>177.0</ele>
<desc>Speed 17.7 km/h Distance 54.08 km</desc>
<time>2011-05-22T11:08:12.25</time>
<name>11169</name>
<sym>Dot</sym>
</trkpt>
<trkpt lat="39.725147" lon="-8.504180">
<ele>177.5</ele>
<desc>Speed 17.6 km/h Distance 54.09 km</desc>
<time>2011-05-22T11:08:13.25</time>
<name>11170</name>
<sym>Dot</sym>
</trkpt>
<trkpt lat="39.725135" lon="-8.504235">
<ele>177.0</ele>
<desc>Speed 17.8 km/h Distance 54.09 km</desc>
<time>2011-05-22T11:08:14.25</time>
<name>11171</name>
<sym>Dot</sym>
</trkpt>
<trkpt lat="39.725122" lon="-8.504293">
<ele>177.0</ele>
<desc>Speed 18.4 km/h Distance 54.10 km</desc>
<time>2011-05-22T11:08:15.25</time>
<name>11172</name>
<sym>Dot</sym>
</trkpt>
<trkpt lat="39.725112" lon="-8.504352">
<ele>177.0</ele>
<desc>Speed 18.3 km/h Distance 54.10 km</desc>
<time>2011-05-22T11:08:16.25</time>
<name>11173</name>
<sym>Dot</sym>
</trkpt>
<trkpt lat="39.725103" lon="-8.504408">
<ele>177.0</ele>
<desc>Speed 17.6 km/h Distance 54.11 km</desc>
<time>2011-05-22T11:08:17.25</time>
<name>11174</name>
<sym>Dot</sym>
</trkpt>
<trkpt lat="39.725103" lon="-8.504465">
<ele>178.5</ele>
<desc>Speed 17.4 km/h Distance 54.11 km</desc>
<time>2011-05-22T11:08:18.25</time>
<name>11175</name>
<sym>Dot</sym>
</trkpt>
<trkpt lat="39.725103" lon="-8.504522">
<ele>179.0</ele>
<desc>Speed 17.1 km/h Distance 54.12 km</desc>
<time>2011-05-22T11:08:19.25</time>
<name>11176</name>
<sym>Dot</sym>
</trkpt>
<trkpt lat="39.725105" lon="-8.504577">
<ele>180.0</ele>
<desc>Speed 16.7 km/h Distance 54.12 km</desc>
<time>2011-05-22T11:08:20.25</time>
<name>11177</name>
<sym>Dot</sym>
</trkpt>
<trkpt lat="39.725107" lon="-8.504628">
<ele>180.5</ele>
<desc>Speed 15.8 km/h Distance 54.13 km</desc>
<time>2011-05-22T11:08:21.25</time>
<name>11178</name>
<sym>Dot</sym>
</trkpt>
<trkpt lat="39.725108" lon="-8.504682">
<ele>180.5</ele>
<desc>Speed 16.1 km/h Distance 54.13 km</desc>
<time>2011-05-22T11:08:22.25</time>
<name>11179</name>
<sym>Dot</sym>
</trkpt>
<trkpt lat="39.725113" lon="-8.504738">
<ele>181.0</ele>
<desc>Speed 17.4 km/h Distance 54.14 km</desc>
<time>2011-05-22T11:08:23.25</time>
<name>11180</name>
<sym>Dot</sym>
</trkpt>
<trkpt lat="39.725118" lon="-8.504795">
<ele>181.0</ele>
<desc>Speed 17.5 km/h Distance 54.14 km</desc>
<time>2011-05-22T11:08:24.25</time>
<name>11181</name>
<sym>Dot</sym>
</trkpt>
<trkpt lat="39.725125" lon="-8.504850">
<ele>181.0</ele>
<desc>Speed 17.0 km/h Distance 54.15 km</desc>
<time>2011-05-22T11:08:25.25</time>
<name>11182</name>
<sym>Dot</sym>
</trkpt>
<trkpt lat="39.725130" lon="-8.504905">
<ele>181.0</ele>
<desc>Speed 16.7 km/h Distance 54.15 km</desc>
<time>2011-05-22T11:08:26.25</time>
<name>11183</name>
<sym>Dot</sym>
</trkpt>
<trkpt lat="39.725135" lon="-8.504960">
<ele>181.0</ele>
<desc>Speed 16.8 km/h Distance 54.16 km</desc>
<time>2011-05-22T11:08:27.25</time>
<name>11184</name>
<sym>Dot</sym>
</trkpt>
<trkpt lat="39.725145" lon="-8.505015">
<ele>181.0</ele>
<desc>Speed 17.3 km/h Distance 54.16 km</desc>
<time>2011-05-22T11:08:28.25</time>
<name>11185</name>
<sym>Dot</sym>
</trkpt>
<trkpt lat="39.725153" lon="-8.505070">
<ele>181.5</ele>
<desc>Speed 17.1 km/h Distance 54.17 km</desc>
<time>2011-05-22T11:08:29.25</time>
<name>11186</name>
<sym>Dot</sym>
</trkpt>
<trkpt lat="39.725158" lon="-8.505125">
<ele>182.0</ele>
<desc>Speed 16.8 km/h Distance 54.17 km</desc>
<time>2011-05-22T11:08:30.25</time>
<name>11187</name>
<sym>Dot</sym>
</trkpt>
<trkpt lat="39.725163" lon="-8.505178">
<ele>182.5</ele>
<desc>Speed 16.7 km/h Distance 54.18 km</desc>
<time>2011-05-22T11:08:31.25</time>
<name>11188</name>
<sym>Dot</sym>
</trkpt>
<trkpt lat="39.725168" lon="-8.505233">
<ele>183.0</ele>
<desc>Speed 16.7 km/h Distance 54.18 km</desc>
<time>2011-05-22T11:08:32.25</time>
<name>11189</name>
<sym>Dot</sym>
</trkpt>
<trkpt lat="39.725172" lon="-8.505288">
<ele>183.5</ele>
<desc>Speed 16.7 km/h Distance 54.19 km</desc>
<time>2011-05-22T11:08:33.25</time>
<name>11190</name>
<sym>Dot</sym>
</trkpt>
<trkpt lat="39.725180" lon="-8.505345">
<ele>184.0</ele>
<desc>Speed 17.6 km/h Distance 54.19 km</desc>
<time>2011-05-22T11:08:34.25</time>
<name>11191</name>
<sym>Dot</sym>
</trkpt>
<trkpt lat="39.725190" lon="-8.505403">
<ele>186.0</ele>
<desc>Speed 18.1 km/h Distance 54.20 km</desc>
<time>2011-05-22T11:08:35.25</time>
<name>11192</name>
<sym>Dot</sym>
</trkpt>
<trkpt lat="39.725165" lon="-8.505440">
<ele>184.5</ele>
<desc>Speed 14.6 km/h Distance 54.20 km</desc>
<time>2011-05-22T11:08:36.25</time>
<name>11193</name>
<sym>Dot</sym>
</trkpt>
<trkpt lat="39.725157" lon="-8.505497">
<ele>183.5</ele>
<desc>Speed 17.2 km/h Distance 54.20 km</desc>
<time>2011-05-22T11:08:37.25</time>
<name>11194</name>
<sym>Dot</sym>
</trkpt>
<trkpt lat="39.725163" lon="-8.505543">
<ele>184.0</ele>
<desc>Speed 14.6 km/h Distance 54.21 km</desc>
<time>2011-05-22T11:08:38.25</time>
<name>11195</name>
<sym>Dot</sym>
</trkpt>
<trkpt lat="39.725163" lon="-8.505598">
<ele>186.0</ele>
<desc>Speed 16.6 km/h Distance 54.21 km</desc>
<time>2011-05-22T11:08:39.25</time>
<name>11196</name>
<sym>Dot</sym>
</trkpt>
<trkpt lat="39.725160" lon="-8.505648">
<ele>187.0</ele>
<desc>Speed 15.6 km/h Distance 54.22 km</desc>
<time>2011-05-22T11:08:40.25</time>
<name>11197</name>
<sym>Dot</sym>
</trkpt>
<trkpt lat="39.725152" lon="-8.505703">
<ele>187.5</ele>
<desc>Speed 17.0 km/h Distance 54.22 km</desc>
<time>2011-05-22T11:08:41.25</time>
<name>11198</name>
<sym>Dot</sym>
</trkpt>
<trkpt lat="39.725130" lon="-8.505733">
<ele>188.5</ele>
<desc>Speed 12.5 km/h Distance 54.23 km</desc>
<time>2011-05-22T11:08:42.25</time>
<name>11199</name>
<sym>Dot</sym>
</trkpt>
<trkpt lat="39.725118" lon="-8.505780">
<ele>189.5</ele>
<desc>Speed 14.9 km/h Distance 54.23 km</desc>
<time>2011-05-22T11:08:43.25</time>
<name>11200</name>
<sym>Dot</sym>
</trkpt>
<trkpt lat="39.725110" lon="-8.505842">
<ele>189.5</ele>
<desc>Speed 19.4 km/h Distance 54.24 km</desc>
<time>2011-05-22T11:08:44.25</time>
<name>11201</name>
<sym>Dot</sym>
</trkpt>
<trkpt lat="39.725098" lon="-8.505907">
<ele>190.0</ele>
<desc>Speed 20.0 km/h Distance 54.24 km</desc>
<time>2011-05-22T11:08:45.25</time>
<name>11202</name>
<sym>Dot</sym>
</trkpt>
<trkpt lat="39.725085" lon="-8.505973">
<ele>189.5</ele>
<desc>Speed 20.7 km/h Distance 54.25 km</desc>
<time>2011-05-22T11:08:46.25</time>
<name>11203</name>
<sym>Dot</sym>
</trkpt>
<trkpt lat="39.725072" lon="-8.506043">
<ele>189.0</ele>
<desc>Speed 21.4 km/h Distance 54.25 km</desc>
<time>2011-05-22T11:08:47.25</time>
<name>11204</name>
<sym>Dot</sym>
</trkpt>
<trkpt lat="39.725057" lon="-8.506115">
<ele>188.5</ele>
<desc>Speed 22.6 km/h Distance 54.26 km</desc>
<time>2011-05-22T11:08:48.25</time>
<name>11205</name>
<sym>Dot</sym>
</trkpt>
<trkpt lat="39.725042" lon="-8.506195">
<ele>188.0</ele>
<desc>Speed 23.7 km/h Distance 54.27 km</desc>
<time>2011-05-22T11:08:49.25</time>
<name>11206</name>
<sym>Dot</sym>
</trkpt>
<trkpt lat="39.725027" lon="-8.506272">
<ele>188.5</ele>
<desc>Speed 23.1 km/h Distance 54.27 km</desc>
<time>2011-05-22T11:08:50.25</time>
<name>11207</name>
<sym>Dot</sym>
</trkpt>
<trkpt lat="39.725013" lon="-8.506350">
<ele>188.0</ele>
<desc>Speed 23.3 km/h Distance 54.28 km</desc>
<time>2011-05-22T11:08:51.25</time>
<name>11208</name>
<sym>Dot</sym>
</trkpt>
<trkpt lat="39.725000" lon="-8.506430">
<ele>187.5</ele>
<desc>Speed 23.5 km/h Distance 54.29 km</desc>
<time>2011-05-22T11:08:52.25</time>
<name>11209</name>
<sym>Dot</sym>
</trkpt>
<trkpt lat="39.724983" lon="-8.506503">
<ele>188.0</ele>
<desc>Speed 23.3 km/h Distance 54.29 km</desc>
<time>2011-05-22T11:08:53.25</time>
<name>11210</name>
<sym>Dot</sym>
</trkpt>
<trkpt lat="39.724980" lon="-8.506570">
<ele>187.5</ele>
<desc>Speed 18.9 km/h Distance 54.30 km</desc>
<time>2011-05-22T11:08:54.25</time>
<name>11211</name>
<sym>Dot</sym>
</trkpt>
<trkpt lat="39.724978" lon="-8.506648">
<ele>189.0</ele>
<desc>Speed 23.3 km/h Distance 54.31 km</desc>
<time>2011-05-22T11:08:55.25</time>
<name>11212</name>
<sym>Dot</sym>
</trkpt>
<trkpt lat="39.724993" lon="-8.506735">
<ele>189.0</ele>
<desc>Speed 26.6 km/h Distance 54.31 km</desc>
<time>2011-05-22T11:08:56.25</time>
<name>11213</name>
<sym>Dot</sym>
</trkpt>
<trkpt lat="39.725027" lon="-8.506817">
<ele>188.5</ele>
<desc>Speed 27.9 km/h Distance 54.32 km</desc>
<time>2011-05-22T11:08:57.25</time>
<name>11214</name>
<sym>Dot</sym>
</trkpt>
<trkpt lat="39.725060" lon="-8.506900">
<ele>188.5</ele>
<desc>Speed 28.2 km/h Distance 54.33 km</desc>
<time>2011-05-22T11:08:58.25</time>
<name>11215</name>
<sym>Dot</sym>
</trkpt>
<trkpt lat="39.725098" lon="-8.506980">
<ele>188.5</ele>
<desc>Speed 28.2 km/h Distance 54.34 km</desc>
<time>2011-05-22T11:08:59.25</time>
<name>11216</name>
<sym>Dot</sym>
</trkpt>
<trkpt lat="39.725143" lon="-8.507055">
<ele>188.0</ele>
<desc>Speed 28.9 km/h Distance 54.35 km</desc>
<time>2011-05-22T11:09:00.25</time>
<name>11217</name>
<sym>Dot</sym>
</trkpt>
<trkpt lat="39.725188" lon="-8.507132">
<ele>188.0</ele>
<desc>Speed 29.3 km/h Distance 54.35 km</desc>
<time>2011-05-22T11:09:01.25</time>
<name>11218</name>
<sym>Dot</sym>
</trkpt>
<trkpt lat="39.725232" lon="-8.507200">
<ele>188.0</ele>
<desc>Speed 26.5 km/h Distance 54.36 km</desc>
<time>2011-05-22T11:09:02.25</time>
<name>11219</name>
<sym>Dot</sym>
</trkpt>
<trkpt lat="39.725273" lon="-8.507280">
<ele>189.0</ele>
<desc>Speed 29.2 km/h Distance 54.37 km</desc>
<time>2011-05-22T11:09:03.25</time>
<name>11220</name>
<sym>Dot</sym>
</trkpt>
<trkpt lat="39.725322" lon="-8.507358">
<ele>188.5</ele>
<desc>Speed 30.2 km/h Distance 54.38 km</desc>
<time>2011-05-22T11:09:04.25</time>
<name>11221</name>
<sym>Dot</sym>
</trkpt>
<trkpt lat="39.725372" lon="-8.507440">
<ele>188.5</ele>
<desc>Speed 30.7 km/h Distance 54.39 km</desc>
<time>2011-05-22T11:09:05.25</time>
<name>11222</name>
<sym>Dot</sym>
</trkpt>
<trkpt lat="39.725412" lon="-8.507527">
<ele>190.0</ele>
<desc>Speed 30.1 km/h Distance 54.40 km</desc>
<time>2011-05-22T11:09:06.25</time>
<name>11223</name>
<sym>Dot</sym>
</trkpt>
<trkpt lat="39.725453" lon="-8.507615">
<ele>191.5</ele>
<desc>Speed 30.6 km/h Distance 54.41 km</desc>
<time>2011-05-22T11:09:07.25</time>
<name>11224</name>
<sym>Dot</sym>
</trkpt>
<trkpt lat="39.725493" lon="-8.507698">
<ele>192.0</ele>
<desc>Speed 30.5 km/h Distance 54.41 km</desc>
<time>2011-05-22T11:09:08.25</time>
<name>11225</name>
<sym>Dot</sym>
</trkpt>
<trkpt lat="39.725507" lon="-8.507797">
<ele>192.5</ele>
<desc>Speed 30.7 km/h Distance 54.42 km</desc>
<time>2011-05-22T11:09:09.25</time>
<name>11226</name>
<sym>Dot</sym>
</trkpt>
<trkpt lat="39.725513" lon="-8.507897">
<ele>192.0</ele>
<desc>Speed 30.8 km/h Distance 54.43 km</desc>
<time>2011-05-22T11:09:10.25</time>
<name>11227</name>
<sym>Dot</sym>
</trkpt>
<trkpt lat="39.725502" lon="-8.508003">
<ele>193.0</ele>
<desc>Speed 32.1 km/h Distance 54.44 km</desc>
<time>2011-05-22T11:09:11.25</time>
<name>11228</name>
<sym>Dot</sym>
</trkpt>
<trkpt lat="39.725452" lon="-8.508088">
<ele>194.5</ele>
<desc>Speed 31.2 km/h Distance 54.45 km</desc>
<time>2011-05-22T11:09:12.25</time>
<name>11229</name>
<sym>Dot</sym>
</trkpt>
<trkpt lat="39.725397" lon="-8.508167">
<ele>194.5</ele>
<desc>Speed 31.1 km/h Distance 54.46 km</desc>
<time>2011-05-22T11:09:13.25</time>
<name>11230</name>
<sym>Dot</sym>
</trkpt>
<trkpt lat="39.725333" lon="-8.508232">
<ele>194.0</ele>
<desc>Speed 31.0 km/h Distance 54.47 km</desc>
<time>2011-05-22T11:09:14.25</time>
<name>11231</name>
<sym>Dot</sym>
</trkpt>
<trkpt lat="39.725265" lon="-8.508280">
<ele>193.5</ele>
<desc>Speed 31.1 km/h Distance 54.48 km</desc>
<time>2011-05-22T11:09:15.25</time>
<name>11232</name>
<sym>Dot</sym>
</trkpt>
<trkpt lat="39.725195" lon="-8.508323">
<ele>193.0</ele>
<desc>Speed 31.5 km/h Distance 54.48 km</desc>
<time>2011-05-22T11:09:16.25</time>
<name>11233</name>
<sym>Dot</sym>
</trkpt>
<trkpt lat="39.725125" lon="-8.508368">
<ele>192.5</ele>
<desc>Speed 31.4 km/h Distance 54.49 km</desc>
<time>2011-05-22T11:09:17.25</time>
<name>11234</name>
<sym>Dot</sym>
</trkpt>
<trkpt lat="39.725055" lon="-8.508410">
<ele>192.0</ele>
<desc>Speed 30.7 km/h Distance 54.50 km</desc>
<time>2011-05-22T11:09:18.25</time>
<name>11235</name>
<sym>Dot</sym>
</trkpt>
<trkpt lat="39.724985" lon="-8.508453">
<ele>191.5</ele>
<desc>Speed 30.9 km/h Distance 54.51 km</desc>
<time>2011-05-22T11:09:19.25</time>
<name>11236</name>
<sym>Dot</sym>
</trkpt>
<trkpt lat="39.724912" lon="-8.508498">
<ele>192.0</ele>
<desc>Speed 32.3 km/h Distance 54.52 km</desc>
<time>2011-05-22T11:09:20.25</time>
<name>11237</name>
<sym>Dot</sym>
</trkpt>
<trkpt lat="39.724840" lon="-8.508543">
<ele>191.5</ele>
<desc>Speed 31.2 km/h Distance 54.53 km</desc>
<time>2011-05-22T11:09:21.25</time>
<name>11238</name>
<sym>Dot</sym>
</trkpt>
<trkpt lat="39.724773" lon="-8.508592">
<ele>191.0</ele>
<desc>Speed 30.4 km/h Distance 54.54 km</desc>
<time>2011-05-22T11:09:22.25</time>
<name>11239</name>
<sym>Dot</sym>
</trkpt>
<trkpt lat="39.724712" lon="-8.508645">
<ele>190.0</ele>
<desc>Speed 29.4 km/h Distance 54.55 km</desc>
<time>2011-05-22T11:09:23.25</time>
<name>11240</name>
<sym>Dot</sym>
</trkpt>
<trkpt lat="39.724653" lon="-8.508708">
<ele>189.5</ele>
<desc>Speed 30.2 km/h Distance 54.55 km</desc>
<time>2011-05-22T11:09:24.25</time>
<name>11241</name>
<sym>Dot</sym>
</trkpt>
<trkpt lat="39.724605" lon="-8.508782">
<ele>188.5</ele>
<desc>Speed 29.5 km/h Distance 54.56 km</desc>
<time>2011-05-22T11:09:25.25</time>
<name>11242</name>
<sym>Dot</sym>
</trkpt>
<trkpt lat="39.724567" lon="-8.508860">
<ele>188.0</ele>
<desc>Speed 28.6 km/h Distance 54.57 km</desc>
<time>2011-05-22T11:09:26.25</time>
<name>11243</name>
<sym>Dot</sym>
</trkpt>
<trkpt lat="39.724535" lon="-8.508938">
<ele>187.0</ele>
<desc>Speed 27.9 km/h Distance 54.58 km</desc>
<time>2011-05-22T11:09:27.25</time>
<name>11244</name>
<sym>Dot</sym>
</trkpt>
<trkpt lat="39.724507" lon="-8.509018">
<ele>186.0</ele>
<desc>Speed 27.3 km/h Distance 54.59 km</desc>
<time>2011-05-22T11:09:28.25</time>
<name>11245</name>
<sym>Dot</sym>
</trkpt>
<trkpt lat="39.724480" lon="-8.509100">
<ele>185.0</ele>
<desc>Speed 27.3 km/h Distance 54.59 km</desc>
<time>2011-05-22T11:09:29.25</time>
<name>11246</name>
<sym>Dot</sym>
</trkpt>
<trkpt lat="39.724452" lon="-8.509180">
<ele>183.5</ele>
<desc>Speed 26.9 km/h Distance 54.60 km</desc>
<time>2011-05-22T11:09:30.25</time>
<name>11247</name>
<sym>Dot</sym>
</trkpt>
<trkpt lat="39.724423" lon="-8.509255">
<ele>183.0</ele>
<desc>Speed 26.2 km/h Distance 54.61 km</desc>
<time>2011-05-22T11:09:31.25</time>
<name>11248</name>
<sym>Dot</sym>
</trkpt>
<trkpt lat="39.724397" lon="-8.509332">
<ele>182.5</ele>
<desc>Speed 26.0 km/h Distance 54.61 km</desc>
<time>2011-05-22T11:09:32.25</time>
<name>11249</name>
<sym>Dot</sym>
</trkpt>
<trkpt lat="39.724372" lon="-8.509408">
<ele>182.0</ele>
<desc>Speed 25.4 km/h Distance 54.62 km</desc>
<time>2011-05-22T11:09:33.25</time>
<name>11250</name>
<sym>Dot</sym>
</trkpt>
<trkpt lat="39.724350" lon="-8.509482">
<ele>181.0</ele>
<desc>Speed 24.3 km/h Distance 54.63 km</desc>
<time>2011-05-22T11:09:34.25</time>
<name>11251</name>
<sym>Dot</sym>
</trkpt>
<trkpt lat="39.724328" lon="-8.509550">
<ele>180.5</ele>
<desc>Speed 23.2 km/h Distance 54.63 km</desc>
<time>2011-05-22T11:09:35.25</time>
<name>11252</name>
<sym>Dot</sym>
</trkpt>
<trkpt lat="39.724305" lon="-8.509618">
<ele>180.0</ele>
<desc>Speed 22.4 km/h Distance 54.64 km</desc>
<time>2011-05-22T11:09:36.25</time>
<name>11253</name>
<sym>Dot</sym>
</trkpt>
<trkpt lat="39.724283" lon="-8.509683">
<ele>179.5</ele>
<desc>Speed 21.9 km/h Distance 54.65 km</desc>
<time>2011-05-22T11:09:37.25</time>
<name>11254</name>
<sym>Dot</sym>
</trkpt>
<trkpt lat="39.724262" lon="-8.509748">
<ele>178.5</ele>
<desc>Speed 21.5 km/h Distance 54.65 km</desc>
<time>2011-05-22T11:09:38.25</time>
<name>11255</name>
<sym>Dot</sym>
</trkpt>
<trkpt lat="39.724242" lon="-8.509810">
<ele>178.0</ele>
<desc>Speed 21.0 km/h Distance 54.66 km</desc>
<time>2011-05-22T11:09:39.25</time>
<name>11256</name>
<sym>Dot</sym>
</trkpt>
<trkpt lat="39.724220" lon="-8.509873">
<ele>177.5</ele>
<desc>Speed 21.0 km/h Distance 54.67 km</desc>
<time>2011-05-22T11:09:40.25</time>
<name>11257</name>
<sym>Dot</sym>
</trkpt>
<trkpt lat="39.724200" lon="-8.509935">
<ele>177.5</ele>
<desc>Speed 20.5 km/h Distance 54.67 km</desc>
<time>2011-05-22T11:09:41.25</time>
<name>11258</name>
<sym>Dot</sym>
</trkpt>
<trkpt lat="39.724178" lon="-8.509995">
<ele>177.0</ele>
<desc>Speed 20.3 km/h Distance 54.68 km</desc>
<time>2011-05-22T11:09:42.25</time>
<name>11259</name>
<sym>Dot</sym>
</trkpt>
<trkpt lat="39.724157" lon="-8.510055">
<ele>176.5</ele>
<desc>Speed 20.4 km/h Distance 54.68 km</desc>
<time>2011-05-22T11:09:43.25</time>
<name>11260</name>
<sym>Dot</sym>
</trkpt>
<trkpt lat="39.724135" lon="-8.510117">
<ele>176.5</ele>
<desc>Speed 20.7 km/h Distance 54.69 km</desc>
<time>2011-05-22T11:09:44.25</time>
<name>11261</name>
<sym>Dot</sym>
</trkpt>
<trkpt lat="39.724115" lon="-8.510180">
<ele>176.5</ele>
<desc>Speed 21.0 km/h Distance 54.69 km</desc>
<time>2011-05-22T11:09:45.25</time>
<name>11262</name>
<sym>Dot</sym>
</trkpt>
<trkpt lat="39.724093" lon="-8.510242">
<ele>176.0</ele>
<desc>Speed 21.1 km/h Distance 54.70 km</desc>
<time>2011-05-22T11:09:46.25</time>
<name>11263</name>
<sym>Dot</sym>
</trkpt>
<trkpt lat="39.724072" lon="-8.510307">
<ele>176.0</ele>
<desc>Speed 21.4 km/h Distance 54.71 km</desc>
<time>2011-05-22T11:09:47.25</time>
<name>11264</name>
<sym>Dot</sym>
</trkpt>
<trkpt lat="39.724050" lon="-8.510370">
<ele>175.5</ele>
<desc>Speed 21.2 km/h Distance 54.71 km</desc>
<time>2011-05-22T11:09:48.25</time>
<name>11265</name>
<sym>Dot</sym>
</trkpt>
<trkpt lat="39.724027" lon="-8.510433">
<ele>175.5</ele>
<desc>Speed 21.4 km/h Distance 54.72 km</desc>
<time>2011-05-22T11:09:49.25</time>
<name>11266</name>
<sym>Dot</sym>
</trkpt>
<trkpt lat="39.724003" lon="-8.510498">
<ele>175.0</ele>
<desc>Speed 21.9 km/h Distance 54.72 km</desc>
<time>2011-05-22T11:09:50.25</time>
<name>11267</name>
<sym>Dot</sym>
</trkpt>
<trkpt lat="39.723980" lon="-8.510565">
<ele>175.0</ele>
<desc>Speed 22.1 km/h Distance 54.73 km</desc>
<time>2011-05-22T11:09:51.25</time>
<name>11268</name>
<sym>Dot</sym>
</trkpt>
<trkpt lat="39.723957" lon="-8.510630">
<ele>174.5</ele>
<desc>Speed 21.9 km/h Distance 54.74 km</desc>
<time>2011-05-22T11:09:52.25</time>
<name>11269</name>
<sym>Dot</sym>
</trkpt>
<trkpt lat="39.723933" lon="-8.510693">
<ele>174.5</ele>
<desc>Speed 21.7 km/h Distance 54.74 km</desc>
<time>2011-05-22T11:09:53.25</time>
<name>11270</name>
<sym>Dot</sym>
</trkpt>
<trkpt lat="39.723912" lon="-8.510757">
<ele>174.5</ele>
<desc>Speed 21.1 km/h Distance 54.75 km</desc>
<time>2011-05-22T11:09:54.25</time>
<name>11271</name>
<sym>Dot</sym>
</trkpt>
<trkpt lat="39.723890" lon="-8.510818">
<ele>174.0</ele>
<desc>Speed 20.7 km/h Distance 54.75 km</desc>
<time>2011-05-22T11:09:55.25</time>
<name>11272</name>
<sym>Dot</sym>
</trkpt>
<trkpt lat="39.723868" lon="-8.510877">
<ele>174.0</ele>
<desc>Speed 20.3 km/h Distance 54.76 km</desc>
<time>2011-05-22T11:09:56.25</time>
<name>11273</name>
<sym>Dot</sym>
</trkpt>
<trkpt lat="39.723848" lon="-8.510937">
<ele>174.0</ele>
<desc>Speed 19.8 km/h Distance 54.77 km</desc>
<time>2011-05-22T11:09:57.25</time>
<name>11274</name>
<sym>Dot</sym>
</trkpt>
<trkpt lat="39.723828" lon="-8.510995">
<ele>173.5</ele>
<desc>Speed 19.6 km/h Distance 54.77 km</desc>
<time>2011-05-22T11:09:58.25</time>
<name>11275</name>
<sym>Dot</sym>
</trkpt>
<trkpt lat="39.723808" lon="-8.511052">
<ele>173.5</ele>
<desc>Speed 19.4 km/h Distance 54.78 km</desc>
<time>2011-05-22T11:09:59.25</time>
<name>11276</name>
<sym>Dot</sym>
</trkpt>
<trkpt lat="39.723787" lon="-8.511110">
<ele>173.5</ele>
<desc>Speed 19.5 km/h Distance 54.78 km</desc>
<time>2011-05-22T11:10:00.25</time>
<name>11277</name>
<sym>Dot</sym>
</trkpt>
<trkpt lat="39.723767" lon="-8.511168">
<ele>173.0</ele>
<desc>Speed 19.4 km/h Distance 54.79 km</desc>
<time>2011-05-22T11:10:01.25</time>
<name>11278</name>
<sym>Dot</sym>
</trkpt>
<trkpt lat="39.723748" lon="-8.511225">
<ele>173.0</ele>
<desc>Speed 19.4 km/h Distance 54.79 km</desc>
<time>2011-05-22T11:10:02.25</time>
<name>11279</name>
<sym>Dot</sym>
</trkpt>
<trkpt lat="39.723728" lon="-8.511283">
<ele>173.0</ele>
<desc>Speed 19.5 km/h Distance 54.80 km</desc>
<time>2011-05-22T11:10:03.25</time>
<name>11280</name>
<sym>Dot</sym>
</trkpt>
<trkpt lat="39.723708" lon="-8.511340">
<ele>173.0</ele>
<desc>Speed 19.4 km/h Distance 54.80 km</desc>
<time>2011-05-22T11:10:04.25</time>
<name>11281</name>
<sym>Dot</sym>
</trkpt>
<trkpt lat="39.723688" lon="-8.511397">
<ele>173.0</ele>
<desc>Speed 19.3 km/h Distance 54.81 km</desc>
<time>2011-05-22T11:10:05.25</time>
<name>11282</name>
<sym>Dot</sym>
</trkpt>
<trkpt lat="39.723668" lon="-8.511453">
<ele>173.0</ele>
<desc>Speed 18.8 km/h Distance 54.81 km</desc>
<time>2011-05-22T11:10:06.25</time>
<name>11283</name>
<sym>Dot</sym>
</trkpt>
<trkpt lat="39.723648" lon="-8.511512">
<ele>172.5</ele>
<desc>Speed 19.3 km/h Distance 54.82 km</desc>
<time>2011-05-22T11:10:07.25</time>
<name>11284</name>
<sym>Dot</sym>
</trkpt>
<trkpt lat="39.723627" lon="-8.511563">
<ele>172.5</ele>
<desc>Speed 18.7 km/h Distance 54.82 km</desc>
<time>2011-05-22T11:10:08.25</time>
<name>11285</name>
<sym>Dot</sym>
</trkpt>
<trkpt lat="39.723607" lon="-8.511618">
<ele>172.5</ele>
<desc>Speed 18.4 km/h Distance 54.83 km</desc>
<time>2011-05-22T11:10:09.25</time>
<name>11286</name>
<sym>Dot</sym>
</trkpt>
<trkpt lat="39.723587" lon="-8.511675">
<ele>172.5</ele>
<desc>Speed 19.2 km/h Distance 54.83 km</desc>
<time>2011-05-22T11:10:10.25</time>
<name>11287</name>
<sym>Dot</sym>
</trkpt>
<trkpt lat="39.723568" lon="-8.511732">
<ele>172.0</ele>
<desc>Speed 19.0 km/h Distance 54.84 km</desc>
<time>2011-05-22T11:10:11.25</time>
<name>11288</name>
<sym>Dot</sym>
</trkpt>
<trkpt lat="39.723548" lon="-8.511787">
<ele>172.0</ele>
<desc>Speed 18.7 km/h Distance 54.85 km</desc>
<time>2011-05-22T11:10:12.25</time>
<name>11289</name>
<sym>Dot</sym>
</trkpt>
<trkpt lat="39.723527" lon="-8.511840">
<ele>172.0</ele>
<desc>Speed 18.6 km/h Distance 54.85 km</desc>
<time>2011-05-22T11:10:13.25</time>
<name>11290</name>
<sym>Dot</sym>
</trkpt>
<trkpt lat="39.723507" lon="-8.511895">
<ele>171.5</ele>
<desc>Speed 18.8 km/h Distance 54.86 km</desc>
<time>2011-05-22T11:10:14.25</time>
<name>11291</name>
<sym>Dot</sym>
</trkpt>
<trkpt lat="39.723487" lon="-8.511950">
<ele>171.5</ele>
<desc>Speed 19.1 km/h Distance 54.86 km</desc>
<time>2011-05-22T11:10:15.25</time>
<name>11292</name>
<sym>Dot</sym>
</trkpt>
<trkpt lat="39.723467" lon="-8.512007">
<ele>171.5</ele>
<desc>Speed 19.1 km/h Distance 54.87 km</desc>
<time>2011-05-22T11:10:16.25</time>
<name>11293</name>
<sym>Dot</sym>
</trkpt>
<trkpt lat="39.723448" lon="-8.512067">
<ele>171.0</ele>
<desc>Speed 19.4 km/h Distance 54.87 km</desc>
<time>2011-05-22T11:10:17.25</time>
<name>11294</name>
<sym>Dot</sym>
</trkpt>
<trkpt lat="39.723430" lon="-8.512125">
<ele>170.5</ele>
<desc>Speed 19.9 km/h Distance 54.88 km</desc>
<time>2011-05-22T11:10:18.25</time>
<name>11295</name>
<sym>Dot</sym>
</trkpt>
<trkpt lat="39.723408" lon="-8.512183">
<ele>170.5</ele>
<desc>Speed 20.1 km/h Distance 54.88 km</desc>
<time>2011-05-22T11:10:19.25</time>
<name>11296</name>
<sym>Dot</sym>
</trkpt>
<trkpt lat="39.723385" lon="-8.512243">
<ele>170.0</ele>
<desc>Speed 20.6 km/h Distance 54.89 km</desc>
<time>2011-05-22T11:10:20.25</time>
<name>11297</name>
<sym>Dot</sym>
</trkpt>
<trkpt lat="39.723363" lon="-8.512303">
<ele>170.5</ele>
<desc>Speed 20.5 km/h Distance 54.89 km</desc>
<time>2011-05-22T11:10:21.25</time>
<name>11298</name>
<sym>Dot</sym>
</trkpt>
<trkpt lat="39.723340" lon="-8.512363">
<ele>170.5</ele>
<desc>Speed 20.7 km/h Distance 54.90 km</desc>
<time>2011-05-22T11:10:22.25</time>
<name>11299</name>
<sym>Dot</sym>
</trkpt>
<trkpt lat="39.723313" lon="-8.512420">
<ele>170.0</ele>
<desc>Speed 20.7 km/h Distance 54.91 km</desc>
<time>2011-05-22T11:10:23.25</time>
<name>11300</name>
<sym>Dot</sym>
</trkpt>
<trkpt lat="39.723287" lon="-8.512473">
<ele>170.0</ele>
<desc>Speed 20.2 km/h Distance 54.91 km</desc>
<time>2011-05-22T11:10:24.25</time>
<name>11301</name>
<sym>Dot</sym>
</trkpt>
<trkpt lat="39.723263" lon="-8.512532">
<ele>169.5</ele>
<desc>Speed 20.5 km/h Distance 54.92 km</desc>
<time>2011-05-22T11:10:25.25</time>
<name>11302</name>
<sym>Dot</sym>
</trkpt>
<trkpt lat="39.723243" lon="-8.512592">
<ele>169.0</ele>
<desc>Speed 19.7 km/h Distance 54.92 km</desc>
<time>2011-05-22T11:10:26.25</time>
<name>11303</name>
<sym>Dot</sym>
</trkpt>
<trkpt lat="39.723232" lon="-8.512648">
<ele>169.5</ele>
<desc>Speed 18.1 km/h Distance 54.93 km</desc>
<time>2011-05-22T11:10:27.25</time>
<name>11304</name>
<sym>Dot</sym>
</trkpt>
<trkpt lat="39.723210" lon="-8.512698">
<ele>169.0</ele>
<desc>Speed 18.0 km/h Distance 54.93 km</desc>
<time>2011-05-22T11:10:28.25</time>
<name>11305</name>
<sym>Dot</sym>
</trkpt>
<trkpt lat="39.723190" lon="-8.512750">
<ele>168.5</ele>
<desc>Speed 17.6 km/h Distance 54.94 km</desc>
<time>2011-05-22T11:10:29.25</time>
<name>11306</name>
<sym>Dot</sym>
</trkpt>
<trkpt lat="39.723170" lon="-8.512798">
<ele>168.5</ele>
<desc>Speed 16.7 km/h Distance 54.94 km</desc>
<time>2011-05-22T11:10:30.25</time>
<name>11307</name>
<sym>Dot</sym>
</trkpt>
<trkpt lat="39.723150" lon="-8.512840">
<ele>169.0</ele>
<desc>Speed 15.5 km/h Distance 54.95 km</desc>
<time>2011-05-22T11:10:31.25</time>
<name>11308</name>
<sym>Dot</sym>
</trkpt>
<trkpt lat="39.723127" lon="-8.512888">
<ele>169.0</ele>
<desc>Speed 17.2 km/h Distance 54.95 km</desc>
<time>2011-05-22T11:10:32.25</time>
<name>11309</name>
<sym>Dot</sym>
</trkpt>
<trkpt lat="39.723102" lon="-8.512933">
<ele>169.0</ele>
<desc>Speed 17.5 km/h Distance 54.96 km</desc>
<time>2011-05-22T11:10:33.25</time>
<name>11310</name>
<sym>Dot</sym>
</trkpt>
<trkpt lat="39.723077" lon="-8.512977">
<ele>169.0</ele>
<desc>Speed 16.5 km/h Distance 54.96 km</desc>
<time>2011-05-22T11:10:34.25</time>
<name>11311</name>
<sym>Dot</sym>
</trkpt>
<trkpt lat="39.723058" lon="-8.513038">
<ele>171.0</ele>
<desc>Speed 11.3 km/h Distance 54.97 km</desc>
<time>2011-05-22T11:10:36.25</time>
<name>11312</name>
<sym>Dot</sym>
</trkpt>
<trkpt lat="39.723047" lon="-8.513063">
<ele>173.0</ele>
<desc>Speed 9.5 km/h Distance 54.97 km</desc>
<time>2011-05-22T11:10:37.25</time>
<name>11313</name>
<sym>Dot</sym>
</trkpt>
<trkpt lat="39.723022" lon="-8.513095">
<ele>173.0</ele>
<desc>Speed 14.3 km/h Distance 54.97 km</desc>
<time>2011-05-22T11:10:38.25</time>
<name>11314</name>
<sym>Dot</sym>
</trkpt>
<trkpt lat="39.723000" lon="-8.513120">
<ele>173.5</ele>
<desc>Speed 11.5 km/h Distance 54.98 km</desc>
<time>2011-05-22T11:10:39.25</time>
<name>11315</name>
<sym>Dot</sym>
</trkpt>
<trkpt lat="39.722988" lon="-8.513140">
<ele>175.5</ele>
<desc>Speed 6.0 km/h Distance 54.98 km</desc>
<time>2011-05-22T11:10:41.25</time>
<name>11316</name>
<sym>Dot</sym>
</trkpt>
<trkpt lat="39.722937" lon="-8.513183">
<ele>175.5</ele>
<desc>Speed 11.4 km/h Distance 54.98 km</desc>
<time>2011-05-22T11:10:43.25</time>
<name>11317</name>
<sym>Dot</sym>
</trkpt>
<trkpt lat="39.722908" lon="-8.513207">
<ele>175.5</ele>
<desc>Speed 13.4 km/h Distance 54.99 km</desc>
<time>2011-05-22T11:10:44.25</time>
<name>11318</name>
<sym>Dot</sym>
</trkpt>
<trkpt lat="39.722882" lon="-8.513233">
<ele>175.5</ele>
<desc>Speed 13.0 km/h Distance 54.99 km</desc>
<time>2011-05-22T11:10:45.25</time>
<name>11319</name>
<sym>Dot</sym>
</trkpt>
<trkpt lat="39.722855" lon="-8.513260">
<ele>175.5</ele>
<desc>Speed 13.4 km/h Distance 55.00 km</desc>
<time>2011-05-22T11:10:46.25</time>
<name>11320</name>
<sym>Dot</sym>
</trkpt>
<trkpt lat="39.722828" lon="-8.513287">
<ele>175.5</ele>
<desc>Speed 13.2 km/h Distance 55.00 km</desc>
<time>2011-05-22T11:10:47.25</time>
<name>11321</name>
<sym>Dot</sym>
</trkpt>
<trkpt lat="39.722798" lon="-8.513310">
<ele>175.5</ele>
<desc>Speed 13.7 km/h Distance 55.00 km</desc>
<time>2011-05-22T11:10:48.25</time>
<name>11322</name>
<sym>Dot</sym>
</trkpt>
<trkpt lat="39.722770" lon="-8.513332">
<ele>175.5</ele>
<desc>Speed 12.5 km/h Distance 55.01 km</desc>
<time>2011-05-22T11:10:49.25</time>
<name>11323</name>
<sym>Dot</sym>
</trkpt>
<trkpt lat="39.722745" lon="-8.513353">
<ele>176.0</ele>
<desc>Speed 11.5 km/h Distance 55.01 km</desc>
<time>2011-05-22T11:10:50.25</time>
<name>11324</name>
<sym>Dot</sym>
</trkpt>
<trkpt lat="39.722715" lon="-8.513372">
<ele>176.5</ele>
<desc>Speed 12.6 km/h Distance 55.01 km</desc>
<time>2011-05-22T11:10:51.25</time>
<name>11325</name>
<sym>Dot</sym>
</trkpt>
<trkpt lat="39.722685" lon="-8.513390">
<ele>177.0</ele>
<desc>Speed 13.2 km/h Distance 55.02 km</desc>
<time>2011-05-22T11:10:52.25</time>
<name>11326</name>
<sym>Dot</sym>
</trkpt>
<trkpt lat="39.722657" lon="-8.513413">
<ele>177.5</ele>
<desc>Speed 13.7 km/h Distance 55.02 km</desc>
<time>2011-05-22T11:10:53.25</time>
<name>11327</name>
<sym>Dot</sym>
</trkpt>
<trkpt lat="39.722627" lon="-8.513437">
<ele>177.5</ele>
<desc>Speed 13.7 km/h Distance 55.03 km</desc>
<time>2011-05-22T11:10:54.25</time>
<name>11328</name>
<sym>Dot</sym>
</trkpt>
<trkpt lat="39.722602" lon="-8.513460">
<ele>179.0</ele>
<desc>Speed 11.3 km/h Distance 55.03 km</desc>
<time>2011-05-22T11:10:55.25</time>
<name>11329</name>
<sym>Dot</sym>
</trkpt>
<trkpt lat="39.722573" lon="-8.513487">
<ele>179.5</ele>
<desc>Speed 13.5 km/h Distance 55.03 km</desc>
<time>2011-05-22T11:10:56.25</time>
<name>11330</name>
<sym>Dot</sym>
</trkpt>
<trkpt lat="39.722538" lon="-8.513517">
<ele>179.5</ele>
<desc>Speed 16.1 km/h Distance 55.04 km</desc>
<time>2011-05-22T11:10:57.25</time>
<name>11331</name>
<sym>Dot</sym>
</trkpt>
<trkpt lat="39.722507" lon="-8.513545">
<ele>180.0</ele>
<desc>Speed 15.3 km/h Distance 55.04 km</desc>
<time>2011-05-22T11:10:58.25</time>
<name>11332</name>
<sym>Dot</sym>
</trkpt>
<trkpt lat="39.722475" lon="-8.513573">
<ele>180.0</ele>
<desc>Speed 15.5 km/h Distance 55.05 km</desc>
<time>2011-05-22T11:10:59.25</time>
<name>11333</name>
<sym>Dot</sym>
</trkpt>
<trkpt lat="39.722442" lon="-8.513602">
<ele>180.0</ele>
<desc>Speed 15.2 km/h Distance 55.05 km</desc>
<time>2011-05-22T11:11:00.25</time>
<name>11334</name>
<sym>Dot</sym>
</trkpt>
<trkpt lat="39.722408" lon="-8.513625">
<ele>180.0</ele>
<desc>Speed 14.6 km/h Distance 55.05 km</desc>
<time>2011-05-22T11:11:01.25</time>
<name>11335</name>
<sym>Dot</sym>
</trkpt>
<trkpt lat="39.722380" lon="-8.513650">
<ele>180.0</ele>
<desc>Speed 13.5 km/h Distance 55.06 km</desc>
<time>2011-05-22T11:11:02.25</time>
<name>11336</name>
<sym>Dot</sym>
</trkpt>
<trkpt lat="39.722350" lon="-8.513675">
<ele>180.0</ele>
<desc>Speed 14.1 km/h Distance 55.06 km</desc>
<time>2011-05-22T11:11:03.25</time>
<name>11337</name>
<sym>Dot</sym>
</trkpt>
<trkpt lat="39.722320" lon="-8.513705">
<ele>180.0</ele>
<desc>Speed 14.9 km/h Distance 55.07 km</desc>
<time>2011-05-22T11:11:04.25</time>
<name>11338</name>
<sym>Dot</sym>
</trkpt>
<trkpt lat="39.722290" lon="-8.513737">
<ele>180.0</ele>
<desc>Speed 15.3 km/h Distance 55.07 km</desc>
<time>2011-05-22T11:11:05.25</time>
<name>11339</name>
<sym>Dot</sym>
</trkpt>
<trkpt lat="39.722260" lon="-8.513772">
<ele>180.0</ele>
<desc>Speed 16.1 km/h Distance 55.08 km</desc>
<time>2011-05-22T11:11:06.25</time>
<name>11340</name>
<sym>Dot</sym>
</trkpt>
<trkpt lat="39.722228" lon="-8.513808">
<ele>180.0</ele>
<desc>Speed 16.5 km/h Distance 55.08 km</desc>
<time>2011-05-22T11:11:07.25</time>
<name>11341</name>
<sym>Dot</sym>
</trkpt>
<trkpt lat="39.722197" lon="-8.513847">
<ele>180.0</ele>
<desc>Speed 16.8 km/h Distance 55.08 km</desc>
<time>2011-05-22T11:11:08.25</time>
<name>11342</name>
<sym>Dot</sym>
</trkpt>
<trkpt lat="39.722167" lon="-8.513888">
<ele>180.0</ele>
<desc>Speed 17.2 km/h Distance 55.09 km</desc>
<time>2011-05-22T11:11:09.25</time>
<name>11343</name>
<sym>Dot</sym>
</trkpt>
<trkpt lat="39.722135" lon="-8.513933">
<ele>179.5</ele>
<desc>Speed 17.3 km/h Distance 55.09 km</desc>
<time>2011-05-22T11:11:10.25</time>
<name>11344</name>
<sym>Dot</sym>
</trkpt>
<trkpt lat="39.722108" lon="-8.513980">
<ele>179.5</ele>
<desc>Speed 17.3 km/h Distance 55.10 km</desc>
<time>2011-05-22T11:11:11.25</time>
<name>11345</name>
<sym>Dot</sym>
</trkpt>
<trkpt lat="39.722083" lon="-8.514028">
<ele>179.5</ele>
<desc>Speed 17.6 km/h Distance 55.10 km</desc>
<time>2011-05-22T11:11:12.25</time>
<name>11346</name>
<sym>Dot</sym>
</trkpt>
<trkpt lat="39.722058" lon="-8.514082">
<ele>179.0</ele>
<desc>Speed 17.9 km/h Distance 55.11 km</desc>
<time>2011-05-22T11:11:13.25</time>
<name>11347</name>
<sym>Dot</sym>
</trkpt>
<trkpt lat="39.722035" lon="-8.514132">
<ele>179.0</ele>
<desc>Speed 17.7 km/h Distance 55.12 km</desc>
<time>2011-05-22T11:11:14.25</time>
<name>11348</name>
<sym>Dot</sym>
</trkpt>
<trkpt lat="39.722013" lon="-8.514185">
<ele>179.0</ele>
<desc>Speed 17.5 km/h Distance 55.12 km</desc>
<time>2011-05-22T11:11:15.25</time>
<name>11349</name>
<sym>Dot</sym>
</trkpt>
<trkpt lat="39.721990" lon="-8.514238">
<ele>178.5</ele>
<desc>Speed 17.4 km/h Distance 55.13 km</desc>
<time>2011-05-22T11:11:16.25</time>
<name>11350</name>
<sym>Dot</sym>
</trkpt>
<trkpt lat="39.721967" lon="-8.514290">
<ele>177.5</ele>
<desc>Speed 16.4 km/h Distance 55.13 km</desc>
<time>2011-05-22T11:11:17.25</time>
<name>11351</name>
<sym>Dot</sym>
</trkpt>
<trkpt lat="39.721945" lon="-8.514340">
<ele>177.5</ele>
<desc>Speed 16.1 km/h Distance 55.14 km</desc>
<time>2011-05-22T11:11:18.25</time>
<name>11352</name>
<sym>Dot</sym>
</trkpt>
<trkpt lat="39.721927" lon="-8.514393">
<ele>177.0</ele>
<desc>Speed 16.5 km/h Distance 55.14 km</desc>
<time>2011-05-22T11:11:19.25</time>
<name>11353</name>
<sym>Dot</sym>
</trkpt>
<trkpt lat="39.721907" lon="-8.514443">
<ele>177.0</ele>
<desc>Speed 16.2 km/h Distance 55.15 km</desc>
<time>2011-05-22T11:11:20.25</time>
<name>11354</name>
<sym>Dot</sym>
</trkpt>
<trkpt lat="39.721883" lon="-8.514488">
<ele>177.0</ele>
<desc>Speed 16.1 km/h Distance 55.15 km</desc>
<time>2011-05-22T11:11:21.25</time>
<name>11355</name>
<sym>Dot</sym>
</trkpt>
<trkpt lat="39.721863" lon="-8.514535">
<ele>177.5</ele>
<desc>Speed 16.5 km/h Distance 55.15 km</desc>
<time>2011-05-22T11:11:22.25</time>
<name>11356</name>
<sym>Dot</sym>
</trkpt>
<trkpt lat="39.721842" lon="-8.514578">
<ele>178.0</ele>
<desc>Speed 16.2 km/h Distance 55.16 km</desc>
<time>2011-05-22T11:11:23.25</time>
<name>11357</name>
<sym>Dot</sym>
</trkpt>
<trkpt lat="39.721822" lon="-8.514628">
<ele>178.0</ele>
<desc>Speed 17.0 km/h Distance 55.16 km</desc>
<time>2011-05-22T11:11:24.25</time>
<name>11358</name>
<sym>Dot</sym>
</trkpt>
<trkpt lat="39.721802" lon="-8.514682">
<ele>178.0</ele>
<desc>Speed 17.7 km/h Distance 55.17 km</desc>
<time>2011-05-22T11:11:25.25</time>
<name>11359</name>
<sym>Dot</sym>
</trkpt>
<trkpt lat="39.721782" lon="-8.514733">
<ele>178.0</ele>
<desc>Speed 17.9 km/h Distance 55.17 km</desc>
<time>2011-05-22T11:11:26.25</time>
<name>11360</name>
<sym>Dot</sym>
</trkpt>
<trkpt lat="39.721762" lon="-8.514785">
<ele>178.0</ele>
<desc>Speed 17.4 km/h Distance 55.18 km</desc>
<time>2011-05-22T11:11:27.25</time>
<name>11361</name>
<sym>Dot</sym>
</trkpt>
<trkpt lat="39.721742" lon="-8.514837">
<ele>178.0</ele>
<desc>Speed 17.6 km/h Distance 55.18 km</desc>
<time>2011-05-22T11:11:28.25</time>
<name>11362</name>
<sym>Dot</sym>
</trkpt>
<trkpt lat="39.721722" lon="-8.514885">
<ele>178.0</ele>
<desc>Speed 17.0 km/h Distance 55.19 km</desc>
<time>2011-05-22T11:11:29.25</time>
<name>11363</name>
<sym>Dot</sym>
</trkpt>
<trkpt lat="39.721698" lon="-8.514928">
<ele>178.0</ele>
<desc>Speed 15.6 km/h Distance 55.19 km</desc>
<time>2011-05-22T11:11:30.25</time>
<name>11364</name>
<sym>Dot</sym>
</trkpt>
<trkpt lat="39.721682" lon="-8.514975">
<ele>178.5</ele>
<desc>Speed 15.8 km/h Distance 55.20 km</desc>
<time>2011-05-22T11:11:31.25</time>
<name>11365</name>
<sym>Dot</sym>
</trkpt>
<trkpt lat="39.721665" lon="-8.515023">
<ele>178.0</ele>
<desc>Speed 15.5 km/h Distance 55.20 km</desc>
<time>2011-05-22T11:11:32.25</time>
<name>11366</name>
<sym>Dot</sym>
</trkpt>
<trkpt lat="39.721650" lon="-8.515070">
<ele>178.0</ele>
<desc>Speed 14.9 km/h Distance 55.21 km</desc>
<time>2011-05-22T11:11:33.25</time>
<name>11367</name>
<sym>Dot</sym>
</trkpt>
<trkpt lat="39.721630" lon="-8.515113">
<ele>178.0</ele>
<desc>Speed 14.4 km/h Distance 55.21 km</desc>
<time>2011-05-22T11:11:34.25</time>
<name>11368</name>
<sym>Dot</sym>
</trkpt>
<trkpt lat="39.721610" lon="-8.515160">
<ele>177.5</ele>
<desc>Speed 15.3 km/h Distance 55.22 km</desc>
<time>2011-05-22T11:11:35.25</time>
<name>11369</name>
<sym>Dot</sym>
</trkpt>
<trkpt lat="39.721588" lon="-8.515207">
<ele>177.5</ele>
<desc>Speed 16.1 km/h Distance 55.22 km</desc>
<time>2011-05-22T11:11:36.25</time>
<name>11370</name>
<sym>Dot</sym>
</trkpt>
<trkpt lat="39.721563" lon="-8.515257">
<ele>177.0</ele>
<desc>Speed 16.7 km/h Distance 55.23 km</desc>
<time>2011-05-22T11:11:37.25</time>
<name>11371</name>
<sym>Dot</sym>
</trkpt>
<trkpt lat="39.721540" lon="-8.515305">
<ele>177.0</ele>
<desc>Speed 16.9 km/h Distance 55.23 km</desc>
<time>2011-05-22T11:11:38.25</time>
<name>11372</name>
<sym>Dot</sym>
</trkpt>
<trkpt lat="39.721520" lon="-8.515357">
<ele>176.5</ele>
<desc>Speed 17.0 km/h Distance 55.23 km</desc>
<time>2011-05-22T11:11:39.25</time>
<name>11373</name>
<sym>Dot</sym>
</trkpt>
<trkpt lat="39.721500" lon="-8.515405">
<ele>176.5</ele>
<desc>Speed 16.4 km/h Distance 55.24 km</desc>
<time>2011-05-22T11:11:40.25</time>
<name>11374</name>
<sym>Dot</sym>
</trkpt>
<trkpt lat="39.721483" lon="-8.515453">
<ele>176.0</ele>
<desc>Speed 15.8 km/h Distance 55.24 km</desc>
<time>2011-05-22T11:11:41.25</time>
<name>11375</name>
<sym>Dot</sym>
</trkpt>
<trkpt lat="39.721465" lon="-8.515498">
<ele>176.0</ele>
<desc>Speed 15.0 km/h Distance 55.25 km</desc>
<time>2011-05-22T11:11:42.25</time>
<name>11376</name>
<sym>Dot</sym>
</trkpt>
<trkpt lat="39.721448" lon="-8.515540">
<ele>176.0</ele>
<desc>Speed 14.4 km/h Distance 55.25 km</desc>
<time>2011-05-22T11:11:43.25</time>
<name>11377</name>
<sym>Dot</sym>
</trkpt>
<trkpt lat="39.721432" lon="-8.515583">
<ele>176.0</ele>
<desc>Speed 13.8 km/h Distance 55.26 km</desc>
<time>2011-05-22T11:11:44.25</time>
<name>11378</name>
<sym>Dot</sym>
</trkpt>
<trkpt lat="39.721415" lon="-8.515623">
<ele>176.0</ele>
<desc>Speed 13.6 km/h Distance 55.26 km</desc>
<time>2011-05-22T11:11:45.25</time>
<name>11379</name>
<sym>Dot</sym>
</trkpt>
<trkpt lat="39.721400" lon="-8.515663">
<ele>176.5</ele>
<desc>Speed 13.3 km/h Distance 55.26 km</desc>
<time>2011-05-22T11:11:46.25</time>
<name>11380</name>
<sym>Dot</sym>
</trkpt>
<trkpt lat="39.721385" lon="-8.515703">
<ele>176.5</ele>
<desc>Speed 13.5 km/h Distance 55.27 km</desc>
<time>2011-05-22T11:11:47.25</time>
<name>11381</name>
<sym>Dot</sym>
</trkpt>
<trkpt lat="39.721370" lon="-8.515743">
<ele>176.5</ele>
<desc>Speed 13.4 km/h Distance 55.27 km</desc>
<time>2011-05-22T11:11:48.25</time>
<name>11382</name>
<sym>Dot</sym>
</trkpt>
<trkpt lat="39.721353" lon="-8.515782">
<ele>176.5</ele>
<desc>Speed 13.2 km/h Distance 55.28 km</desc>
<time>2011-05-22T11:11:49.25</time>
<name>11383</name>
<sym>Dot</sym>
</trkpt>
<trkpt lat="39.721338" lon="-8.515818">
<ele>176.5</ele>
<desc>Speed 12.9 km/h Distance 55.28 km</desc>
<time>2011-05-22T11:11:50.25</time>
<name>11384</name>
<sym>Dot</sym>
</trkpt>
<trkpt lat="39.721323" lon="-8.515855">
<ele>176.5</ele>
<desc>Speed 12.3 km/h Distance 55.28 km</desc>
<time>2011-05-22T11:11:51.25</time>
<name>11385</name>
<sym>Dot</sym>
</trkpt>
<trkpt lat="39.721308" lon="-8.515892">
<ele>176.5</ele>
<desc>Speed 12.5 km/h Distance 55.29 km</desc>
<time>2011-05-22T11:11:52.25</time>
<name>11386</name>
<sym>Dot</sym>
</trkpt>
<trkpt lat="39.721292" lon="-8.515923">
<ele>177.0</ele>
<desc>Speed 11.7 km/h Distance 55.29 km</desc>
<time>2011-05-22T11:11:53.25</time>
<name>11387</name>
<sym>Dot</sym>
</trkpt>
<trkpt lat="39.721275" lon="-8.515958">
<ele>177.0</ele>
<desc>Speed 12.3 km/h Distance 55.29 km</desc>
<time>2011-05-22T11:11:54.25</time>
<name>11388</name>
<sym>Dot</sym>
</trkpt>
<trkpt lat="39.721260" lon="-8.515995">
<ele>177.0</ele>
<desc>Speed 13.0 km/h Distance 55.30 km</desc>
<time>2011-05-22T11:11:55.25</time>
<name>11389</name>
<sym>Dot</sym>
</trkpt>
<trkpt lat="39.721247" lon="-8.516035">
<ele>177.0</ele>
<desc>Speed 13.1 km/h Distance 55.30 km</desc>
<time>2011-05-22T11:11:56.25</time>
<name>11390</name>
<sym>Dot</sym>
</trkpt>
<trkpt lat="39.721230" lon="-8.516073">
<ele>177.0</ele>
<desc>Speed 13.1 km/h Distance 55.30 km</desc>
<time>2011-05-22T11:11:57.25</time>
<name>11391</name>
<sym>Dot</sym>
</trkpt>
<trkpt lat="39.721210" lon="-8.516107">
<ele>177.5</ele>
<desc>Speed 12.6 km/h Distance 55.31 km</desc>
<time>2011-05-22T11:11:58.25</time>
<name>11392</name>
<sym>Dot</sym>
</trkpt>
<trkpt lat="39.721192" lon="-8.516138">
<ele>177.5</ele>
<desc>Speed 12.2 km/h Distance 55.31 km</desc>
<time>2011-05-22T11:11:59.25</time>
<name>11393</name>
<sym>Dot</sym>
</trkpt>
<trkpt lat="39.721175" lon="-8.516177">
<ele>177.5</ele>
<desc>Speed 13.2 km/h Distance 55.32 km</desc>
<time>2011-05-22T11:12:00.25</time>
<name>11394</name>
<sym>Dot</sym>
</trkpt>
<trkpt lat="39.721158" lon="-8.516215">
<ele>177.5</ele>
<desc>Speed 13.1 km/h Distance 55.32 km</desc>
<time>2011-05-22T11:12:01.25</time>
<name>11395</name>
<sym>Dot</sym>
</trkpt>
<trkpt lat="39.721142" lon="-8.516250">
<ele>177.5</ele>
<desc>Speed 12.6 km/h Distance 55.32 km</desc>
<time>2011-05-22T11:12:02.25</time>
<name>11396</name>
<sym>Dot</sym>
</trkpt>
<trkpt lat="39.721127" lon="-8.516285">
<ele>177.5</ele>
<desc>Speed 12.4 km/h Distance 55.33 km</desc>
<time>2011-05-22T11:12:03.25</time>
<name>11397</name>
<sym>Dot</sym>
</trkpt>
<trkpt lat="39.721108" lon="-8.516315">
<ele>177.5</ele>
<desc>Speed 11.6 km/h Distance 55.33 km</desc>
<time>2011-05-22T11:12:04.25</time>
<name>11398</name>
<sym>Dot</sym>
</trkpt>
<trkpt lat="39.721090" lon="-8.516347">
<ele>177.5</ele>
<desc>Speed 11.7 km/h Distance 55.33 km</desc>
<time>2011-05-22T11:12:05.25</time>
<name>11399</name>
<sym>Dot</sym>
</trkpt>
<trkpt lat="39.721070" lon="-8.516373">
<ele>177.5</ele>
<desc>Speed 11.7 km/h Distance 55.34 km</desc>
<time>2011-05-22T11:12:06.25</time>
<name>11400</name>
<sym>Dot</sym>
</trkpt>
<trkpt lat="39.721050" lon="-8.516395">
<ele>177.5</ele>
<desc>Speed 10.8 km/h Distance 55.34 km</desc>
<time>2011-05-22T11:12:07.25</time>
<name>11401</name>
<sym>Dot</sym>
</trkpt>
<trkpt lat="39.721028" lon="-8.516415">
<ele>178.0</ele>
<desc>Speed 10.8 km/h Distance 55.34 km</desc>
<time>2011-05-22T11:12:08.25</time>
<name>11402</name>
<sym>Dot</sym>
</trkpt>
<trkpt lat="39.721005" lon="-8.516433">
<ele>178.0</ele>
<desc>Speed 11.4 km/h Distance 55.34 km</desc>
<time>2011-05-22T11:12:09.25</time>
<name>11403</name>
<sym>Dot</sym>
</trkpt>
<trkpt lat="39.720978" lon="-8.516450">
<ele>178.5</ele>
<desc>Speed 11.8 km/h Distance 55.35 km</desc>
<time>2011-05-22T11:12:10.25</time>
<name>11404</name>
<sym>Dot</sym>
</trkpt>
<trkpt lat="39.720957" lon="-8.516463">
<ele>179.5</ele>
<desc>Speed 9.8 km/h Distance 55.35 km</desc>
<time>2011-05-22T11:12:11.25</time>
<name>11405</name>
<sym>Dot</sym>
</trkpt>
<trkpt lat="39.720947" lon="-8.516482">
<ele>179.5</ele>
<desc>Speed 6.9 km/h Distance 55.35 km</desc>
<time>2011-05-22T11:12:12.25</time>
<name>11406</name>
<sym>Dot</sym>
</trkpt>
<trkpt lat="39.720920" lon="-8.516503">
<ele>180.0</ele>
<desc>Speed 12.6 km/h Distance 55.36 km</desc>
<time>2011-05-22T11:12:13.25</time>
<name>11407</name>
<sym>Dot</sym>
</trkpt>
<trkpt lat="39.720898" lon="-8.516522">
<ele>181.0</ele>
<desc>Speed 10.7 km/h Distance 55.36 km</desc>
<time>2011-05-22T11:12:14.25</time>
<name>11408</name>
<sym>Dot</sym>
</trkpt>
<trkpt lat="39.720870" lon="-8.516540">
<ele>181.0</ele>
<desc>Speed 12.5 km/h Distance 55.36 km</desc>
<time>2011-05-22T11:12:15.25</time>
<name>11409</name>
<sym>Dot</sym>
</trkpt>
<trkpt lat="39.720842" lon="-8.516555">
<ele>181.5</ele>
<desc>Speed 12.5 km/h Distance 55.37 km</desc>
<time>2011-05-22T11:12:16.25</time>
<name>11410</name>
<sym>Dot</sym>
</trkpt>
<trkpt lat="39.720820" lon="-8.516567">
<ele>183.5</ele>
<desc>Speed 9.7 km/h Distance 55.37 km</desc>
<time>2011-05-22T11:12:17.25</time>
<name>11411</name>
<sym>Dot</sym>
</trkpt>
<trkpt lat="39.720797" lon="-8.516580">
<ele>185.0</ele>
<desc>Speed 9.8 km/h Distance 55.37 km</desc>
<time>2011-05-22T11:12:18.25</time>
<name>11412</name>
<sym>Dot</sym>
</trkpt>
<trkpt lat="39.720768" lon="-8.516597">
<ele>185.5</ele>
<desc>Speed 12.2 km/h Distance 55.37 km</desc>
<time>2011-05-22T11:12:19.25</time>
<name>11413</name>
<sym>Dot</sym>
</trkpt>
<trkpt lat="39.720742" lon="-8.516613">
<ele>186.5</ele>
<desc>Speed 11.8 km/h Distance 55.38 km</desc>
<time>2011-05-22T11:12:20.25</time>
<name>11414</name>
<sym>Dot</sym>
</trkpt>
<trkpt lat="39.720708" lon="-8.516630">
<ele>187.0</ele>
<desc>Speed 13.6 km/h Distance 55.38 km</desc>
<time>2011-05-22T11:12:21.25</time>
<name>11415</name>
<sym>Dot</sym>
</trkpt>
<trkpt lat="39.720677" lon="-8.516648">
<ele>188.0</ele>
<desc>Speed 13.7 km/h Distance 55.39 km</desc>
<time>2011-05-22T11:12:22.25</time>
<name>11416</name>
<sym>Dot</sym>
</trkpt>
<trkpt lat="39.720643" lon="-8.516670">
<ele>188.0</ele>
<desc>Speed 14.2 km/h Distance 55.39 km</desc>
<time>2011-05-22T11:12:23.25</time>
<name>11417</name>
<sym>Dot</sym>
</trkpt>
<trkpt lat="39.720612" lon="-8.516692">
<ele>188.0</ele>
<desc>Speed 14.3 km/h Distance 55.39 km</desc>
<time>2011-05-22T11:12:24.25</time>
<name>11418</name>
<sym>Dot</sym>
</trkpt>
<trkpt lat="39.720578" lon="-8.516712">
<ele>188.0</ele>
<desc>Speed 14.7 km/h Distance 55.40 km</desc>
<time>2011-05-22T11:12:25.25</time>
<name>11419</name>
<sym>Dot</sym>
</trkpt>
<trkpt lat="39.720545" lon="-8.516733">
<ele>188.5</ele>
<desc>Speed 14.0 km/h Distance 55.40 km</desc>
<time>2011-05-22T11:12:26.25</time>
<name>11420</name>
<sym>Dot</sym>
</trkpt>
<trkpt lat="39.720517" lon="-8.516750">
<ele>189.5</ele>
<desc>Speed 12.6 km/h Distance 55.41 km</desc>
<time>2011-05-22T11:12:27.25</time>
<name>11421</name>
<sym>Dot</sym>
</trkpt>
<trkpt lat="39.720488" lon="-8.516765">
<ele>190.5</ele>
<desc>Speed 12.0 km/h Distance 55.41 km</desc>
<time>2011-05-22T11:12:28.25</time>
<name>11422</name>
<sym>Dot</sym>
</trkpt>
<trkpt lat="39.720460" lon="-8.516782">
<ele>191.5</ele>
<desc>Speed 12.3 km/h Distance 55.41 km</desc>
<time>2011-05-22T11:12:29.25</time>
<name>11423</name>
<sym>Dot</sym>
</trkpt>
<trkpt lat="39.720425" lon="-8.516802">
<ele>192.0</ele>
<desc>Speed 14.9 km/h Distance 55.42 km</desc>
<time>2011-05-22T11:12:30.25</time>
<name>11424</name>
<sym>Dot</sym>
</trkpt>
<trkpt lat="39.720390" lon="-8.516823">
<ele>192.0</ele>
<desc>Speed 15.4 km/h Distance 55.42 km</desc>
<time>2011-05-22T11:12:31.25</time>
<name>11425</name>
<sym>Dot</sym>
</trkpt>
<trkpt lat="39.720353" lon="-8.516847">
<ele>191.5</ele>
<desc>Speed 15.4 km/h Distance 55.43 km</desc>
<time>2011-05-22T11:12:32.25</time>
<name>11426</name>
<sym>Dot</sym>
</trkpt>
<trkpt lat="39.720318" lon="-8.516870">
<ele>191.5</ele>
<desc>Speed 15.4 km/h Distance 55.43 km</desc>
<time>2011-05-22T11:12:33.25</time>
<name>11427</name>
<sym>Dot</sym>
</trkpt>
<trkpt lat="39.720285" lon="-8.516897">
<ele>191.5</ele>
<desc>Speed 14.9 km/h Distance 55.43 km</desc>
<time>2011-05-22T11:12:34.25</time>
<name>11428</name>
<sym>Dot</sym>
</trkpt>
<trkpt lat="39.720253" lon="-8.516922">
<ele>191.5</ele>
<desc>Speed 14.6 km/h Distance 55.44 km</desc>
<time>2011-05-22T11:12:35.25</time>
<name>11429</name>
<sym>Dot</sym>
</trkpt>
<trkpt lat="39.720223" lon="-8.516948">
<ele>191.0</ele>
<desc>Speed 14.4 km/h Distance 55.44 km</desc>
<time>2011-05-22T11:12:36.25</time>
<name>11430</name>
<sym>Dot</sym>
</trkpt>
<trkpt lat="39.720192" lon="-8.516975">
<ele>191.0</ele>
<desc>Speed 14.7 km/h Distance 55.45 km</desc>
<time>2011-05-22T11:12:37.25</time>
<name>11431</name>
<sym>Dot</sym>
</trkpt>
<trkpt lat="39.720163" lon="-8.517005">
<ele>190.5</ele>
<desc>Speed 14.7 km/h Distance 55.45 km</desc>
<time>2011-05-22T11:12:38.25</time>
<name>11432</name>
<sym>Dot</sym>
</trkpt>
<trkpt lat="39.720135" lon="-8.517042">
<ele>190.5</ele>
<desc>Speed 15.1 km/h Distance 55.46 km</desc>
<time>2011-05-22T11:12:39.25</time>
<name>11433</name>
<sym>Dot</sym>
</trkpt>
<trkpt lat="39.720110" lon="-8.517080">
<ele>190.0</ele>
<desc>Speed 15.3 km/h Distance 55.46 km</desc>
<time>2011-05-22T11:12:40.25</time>
<name>11434</name>
<sym>Dot</sym>
</trkpt>
<trkpt lat="39.720087" lon="-8.517122">
<ele>190.0</ele>
<desc>Speed 15.1 km/h Distance 55.46 km</desc>
<time>2011-05-22T11:12:41.25</time>
<name>11435</name>
<sym>Dot</sym>
</trkpt>
<trkpt lat="39.720065" lon="-8.517163">
<ele>189.5</ele>
<desc>Speed 15.2 km/h Distance 55.47 km</desc>
<time>2011-05-22T11:12:42.25</time>
<name>11436</name>
<sym>Dot</sym>
</trkpt>
<trkpt lat="39.720043" lon="-8.517208">
<ele>189.5</ele>
<desc>Speed 15.5 km/h Distance 55.47 km</desc>
<time>2011-05-22T11:12:43.25</time>
<name>11437</name>
<sym>Dot</sym>
</trkpt>
<trkpt lat="39.720025" lon="-8.517253">
<ele>189.5</ele>
<desc>Speed 15.2 km/h Distance 55.48 km</desc>
<time>2011-05-22T11:12:44.25</time>
<name>11438</name>
<sym>Dot</sym>
</trkpt>
<trkpt lat="39.720007" lon="-8.517297">
<ele>189.0</ele>
<desc>Speed 15.2 km/h Distance 55.48 km</desc>
<time>2011-05-22T11:12:45.25</time>
<name>11439</name>
<sym>Dot</sym>
</trkpt>
<trkpt lat="39.719990" lon="-8.517340">
<ele>189.0</ele>
<desc>Speed 15.0 km/h Distance 55.49 km</desc>
<time>2011-05-22T11:12:46.25</time>
<name>11440</name>
<sym>Dot</sym>
</trkpt>
<trkpt lat="39.719973" lon="-8.517383">
<ele>189.0</ele>
<desc>Speed 14.9 km/h Distance 55.49 km</desc>
<time>2011-05-22T11:12:47.25</time>
<name>11441</name>
<sym>Dot</sym>
</trkpt>
<trkpt lat="39.719957" lon="-8.517427">
<ele>189.0</ele>
<desc>Speed 14.7 km/h Distance 55.49 km</desc>
<time>2011-05-22T11:12:48.25</time>
<name>11442</name>
<sym>Dot</sym>
</trkpt>
<trkpt lat="39.719940" lon="-8.517470">
<ele>189.0</ele>
<desc>Speed 14.7 km/h Distance 55.50 km</desc>
<time>2011-05-22T11:12:49.25</time>
<name>11443</name>
<sym>Dot</sym>
</trkpt>
<trkpt lat="39.719923" lon="-8.517512">
<ele>189.0</ele>
<desc>Speed 14.6 km/h Distance 55.50 km</desc>
<time>2011-05-22T11:12:50.25</time>
<name>11444</name>
<sym>Dot</sym>
</trkpt>
<trkpt lat="39.719907" lon="-8.517555">
<ele>189.0</ele>
<desc>Speed 14.5 km/h Distance 55.51 km</desc>
<time>2011-05-22T11:12:51.25</time>
<name>11445</name>
<sym>Dot</sym>
</trkpt>
<trkpt lat="39.719892" lon="-8.517597">
<ele>189.0</ele>
<desc>Speed 14.4 km/h Distance 55.51 km</desc>
<time>2011-05-22T11:12:52.25</time>
<name>11446</name>
<sym>Dot</sym>
</trkpt>
<trkpt lat="39.719877" lon="-8.517640">
<ele>189.0</ele>
<desc>Speed 14.4 km/h Distance 55.51 km</desc>
<time>2011-05-22T11:12:53.25</time>
<name>11447</name>
<sym>Dot</sym>
</trkpt>
<trkpt lat="39.719860" lon="-8.517682">
<ele>189.0</ele>
<desc>Speed 14.3 km/h Distance 55.52 km</desc>
<time>2011-05-22T11:12:54.25</time>
<name>11448</name>
<sym>Dot</sym>
</trkpt>
<trkpt lat="39.719843" lon="-8.517723">
<ele>188.5</ele>
<desc>Speed 14.4 km/h Distance 55.52 km</desc>
<time>2011-05-22T11:12:55.25</time>
<name>11449</name>
<sym>Dot</sym>
</trkpt>
<trkpt lat="39.719825" lon="-8.517765">
<ele>188.5</ele>
<desc>Speed 14.2 km/h Distance 55.53 km</desc>
<time>2011-05-22T11:12:56.25</time>
<name>11450</name>
<sym>Dot</sym>
</trkpt>
<trkpt lat="39.719808" lon="-8.517805">
<ele>188.5</ele>
<desc>Speed 14.0 km/h Distance 55.53 km</desc>
<time>2011-05-22T11:12:57.25</time>
<name>11451</name>
<sym>Dot</sym>
</trkpt>
<trkpt lat="39.719792" lon="-8.517843">
<ele>188.5</ele>
<desc>Speed 13.5 km/h Distance 55.53 km</desc>
<time>2011-05-22T11:12:58.25</time>
<name>11452</name>
<sym>Dot</sym>
</trkpt>
<trkpt lat="39.719772" lon="-8.517880">
<ele>188.0</ele>
<desc>Speed 13.5 km/h Distance 55.54 km</desc>
<time>2011-05-22T11:12:59.25</time>
<name>11453</name>
<sym>Dot</sym>
</trkpt>
<trkpt lat="39.719752" lon="-8.517917">
<ele>188.0</ele>
<desc>Speed 13.6 km/h Distance 55.54 km</desc>
<time>2011-05-22T11:13:00.25</time>
<name>11454</name>
<sym>Dot</sym>
</trkpt>
<trkpt lat="39.719730" lon="-8.517953">
<ele>188.0</ele>
<desc>Speed 14.0 km/h Distance 55.55 km</desc>
<time>2011-05-22T11:13:01.25</time>
<name>11455</name>
<sym>Dot</sym>
</trkpt>
<trkpt lat="39.719708" lon="-8.517990">
<ele>188.0</ele>
<desc>Speed 14.1 km/h Distance 55.55 km</desc>
<time>2011-05-22T11:13:02.25</time>
<name>11456</name>
<sym>Dot</sym>
</trkpt>
<trkpt lat="39.719683" lon="-8.518025">
<ele>188.0</ele>
<desc>Speed 14.4 km/h Distance 55.55 km</desc>
<time>2011-05-22T11:13:03.25</time>
<name>11457</name>
<sym>Dot</sym>
</trkpt>
<trkpt lat="39.719657" lon="-8.518057">
<ele>187.5</ele>
<desc>Speed 14.7 km/h Distance 55.56 km</desc>
<time>2011-05-22T11:13:04.25</time>
<name>11458</name>
<sym>Dot</sym>
</trkpt>
<trkpt lat="39.719627" lon="-8.518083">
<ele>187.5</ele>
<desc>Speed 14.4 km/h Distance 55.56 km</desc>
<time>2011-05-22T11:13:05.25</time>
<name>11459</name>
<sym>Dot</sym>
</trkpt>
<trkpt lat="39.719597" lon="-8.518110">
<ele>187.5</ele>
<desc>Speed 14.4 km/h Distance 55.57 km</desc>
<time>2011-05-22T11:13:06.25</time>
<name>11460</name>
<sym>Dot</sym>
</trkpt>
<trkpt lat="39.719565" lon="-8.518133">
<ele>187.5</ele>
<desc>Speed 14.3 km/h Distance 55.57 km</desc>
<time>2011-05-22T11:13:07.25</time>
<name>11461</name>
<sym>Dot</sym>
</trkpt>
<trkpt lat="39.719532" lon="-8.518152">
<ele>187.5</ele>
<desc>Speed 14.4 km/h Distance 55.57 km</desc>
<time>2011-05-22T11:13:08.25</time>
<name>11462</name>
<sym>Dot</sym>
</trkpt>
<trkpt lat="39.719498" lon="-8.518170">
<ele>187.0</ele>
<desc>Speed 14.7 km/h Distance 55.58 km</desc>
<time>2011-05-22T11:13:09.25</time>
<name>11463</name>
<sym>Dot</sym>
</trkpt>
<trkpt lat="39.719463" lon="-8.518188">
<ele>187.0</ele>
<desc>Speed 14.5 km/h Distance 55.58 km</desc>
<time>2011-05-22T11:13:10.25</time>
<name>11464</name>
<sym>Dot</sym>
</trkpt>
<trkpt lat="39.719428" lon="-8.518207">
<ele>186.5</ele>
<desc>Speed 14.6 km/h Distance 55.59 km</desc>
<time>2011-05-22T11:13:11.25</time>
<name>11465</name>
<sym>Dot</sym>
</trkpt>
<trkpt lat="39.719390" lon="-8.518225">
<ele>186.0</ele>
<desc>Speed 15.3 km/h Distance 55.59 km</desc>
<time>2011-05-22T11:13:12.25</time>
<name>11466</name>
<sym>Dot</sym>
</trkpt>
<trkpt lat="39.719353" lon="-8.518243">
<ele>186.0</ele>
<desc>Speed 15.2 km/h Distance 55.60 km</desc>
<time>2011-05-22T11:13:13.25</time>
<name>11467</name>
<sym>Dot</sym>
</trkpt>
<trkpt lat="39.719315" lon="-8.518258">
<ele>186.0</ele>
<desc>Speed 15.8 km/h Distance 55.60 km</desc>
<time>2011-05-22T11:13:14.25</time>
<name>11468</name>
<sym>Dot</sym>
</trkpt>
<trkpt lat="39.719277" lon="-8.518272">
<ele>186.5</ele>
<desc>Speed 15.6 km/h Distance 55.60 km</desc>
<time>2011-05-22T11:13:15.25</time>
<name>11469</name>
<sym>Dot</sym>
</trkpt>
<trkpt lat="39.719238" lon="-8.518285">
<ele>187.0</ele>
<desc>Speed 15.7 km/h Distance 55.61 km</desc>
<time>2011-05-22T11:13:16.25</time>
<name>11470</name>
<sym>Dot</sym>
</trkpt>
<trkpt lat="39.719198" lon="-8.518303">
<ele>186.5</ele>
<desc>Speed 16.4 km/h Distance 55.61 km</desc>
<time>2011-05-22T11:13:17.25</time>
<name>11471</name>
<sym>Dot</sym>
</trkpt>
<trkpt lat="39.719157" lon="-8.518322">
<ele>186.5</ele>
<desc>Speed 16.6 km/h Distance 55.62 km</desc>
<time>2011-05-22T11:13:18.25</time>
<name>11472</name>
<sym>Dot</sym>
</trkpt>
<trkpt lat="39.719118" lon="-8.518338">
<ele>186.5</ele>
<desc>Speed 16.7 km/h Distance 55.62 km</desc>
<time>2011-05-22T11:13:19.25</time>
<name>11473</name>
<sym>Dot</sym>
</trkpt>
<trkpt lat="39.719077" lon="-8.518352">
<ele>186.5</ele>
<desc>Speed 17.0 km/h Distance 55.63 km</desc>
<time>2011-05-22T11:13:20.25</time>
<name>11474</name>
<sym>Dot</sym>
</trkpt>
<trkpt lat="39.719032" lon="-8.518367">
<ele>186.5</ele>
<desc>Speed 17.3 km/h Distance 55.63 km</desc>
<time>2011-05-22T11:13:21.25</time>
<name>11475</name>
<sym>Dot</sym>
</trkpt>
<trkpt lat="39.718988" lon="-8.518383">
<ele>186.5</ele>
<desc>Speed 17.6 km/h Distance 55.64 km</desc>
<time>2011-05-22T11:13:22.25</time>
<name>11476</name>
<sym>Dot</sym>
</trkpt>
<trkpt lat="39.718947" lon="-8.518403">
<ele>186.5</ele>
<desc>Speed 17.7 km/h Distance 55.64 km</desc>
<time>2011-05-22T11:13:23.25</time>
<name>11477</name>
<sym>Dot</sym>
</trkpt>
<trkpt lat="39.718903" lon="-8.518423">
<ele>186.5</ele>
<desc>Speed 18.0 km/h Distance 55.65 km</desc>
<time>2011-05-22T11:13:24.25</time>
<name>11478</name>
<sym>Dot</sym>
</trkpt>
<trkpt lat="39.718858" lon="-8.518440">
<ele>187.0</ele>
<desc>Speed 18.8 km/h Distance 55.65 km</desc>
<time>2011-05-22T11:13:25.25</time>
<name>11479</name>
<sym>Dot</sym>
</trkpt>
<trkpt lat="39.718815" lon="-8.518457">
<ele>187.0</ele>
<desc>Speed 17.5 km/h Distance 55.66 km</desc>
<time>2011-05-22T11:13:26.25</time>
<name>11480</name>
<sym>Dot</sym>
</trkpt>
<trkpt lat="39.718770" lon="-8.518477">
<ele>187.0</ele>
<desc>Speed 18.3 km/h Distance 55.66 km</desc>
<time>2011-05-22T11:13:27.25</time>
<name>11481</name>
<sym>Dot</sym>
</trkpt>
<trkpt lat="39.718725" lon="-8.518500">
<ele>186.5</ele>
<desc>Speed 18.7 km/h Distance 55.67 km</desc>
<time>2011-05-22T11:13:28.25</time>
<name>11482</name>
<sym>Dot</sym>
</trkpt>
<trkpt lat="39.718683" lon="-8.518523">
<ele>186.5</ele>
<desc>Speed 18.3 km/h Distance 55.67 km</desc>
<time>2011-05-22T11:13:29.25</time>
<name>11483</name>
<sym>Dot</sym>
</trkpt>
<trkpt lat="39.718640" lon="-8.518543">
<ele>186.5</ele>
<desc>Speed 18.2 km/h Distance 55.68 km</desc>
<time>2011-05-22T11:13:30.25</time>
<name>11484</name>
<sym>Dot</sym>
</trkpt>
<trkpt lat="39.718598" lon="-8.518563">
<ele>186.5</ele>
<desc>Speed 17.9 km/h Distance 55.68 km</desc>
<time>2011-05-22T11:13:31.25</time>
<name>11485</name>
<sym>Dot</sym>
</trkpt>
<trkpt lat="39.718557" lon="-8.518582">
<ele>187.0</ele>
<desc>Speed 17.8 km/h Distance 55.69 km</desc>
<time>2011-05-22T11:13:32.25</time>
<name>11486</name>
<sym>Dot</sym>
</trkpt>
<trkpt lat="39.718515" lon="-8.518598">
<ele>187.5</ele>
<desc>Speed 17.1 km/h Distance 55.69 km</desc>
<time>2011-05-22T11:13:33.25</time>
<name>11487</name>
<sym>Dot</sym>
</trkpt>
<trkpt lat="39.718477" lon="-8.518613">
<ele>187.5</ele>
<desc>Speed 16.1 km/h Distance 55.70 km</desc>
<time>2011-05-22T11:13:34.25</time>
<name>11488</name>
<sym>Dot</sym>
</trkpt>
<trkpt lat="39.718440" lon="-8.518627">
<ele>188.0</ele>
<desc>Speed 15.6 km/h Distance 55.70 km</desc>
<time>2011-05-22T11:13:35.25</time>
<name>11489</name>
<sym>Dot</sym>
</trkpt>
<trkpt lat="39.718403" lon="-8.518643">
<ele>188.0</ele>
<desc>Speed 15.0 km/h Distance 55.71 km</desc>
<time>2011-05-22T11:13:36.25</time>
<name>11490</name>
<sym>Dot</sym>
</trkpt>
<trkpt lat="39.718367" lon="-8.518660">
<ele>188.0</ele>
<desc>Speed 14.7 km/h Distance 55.71 km</desc>
<time>2011-05-22T11:13:37.25</time>
<name>11491</name>
<sym>Dot</sym>
</trkpt>
<trkpt lat="39.718337" lon="-8.518672">
<ele>188.0</ele>
<desc>Speed 11.8 km/h Distance 55.71 km</desc>
<time>2011-05-22T11:13:38.25</time>
<name>11492</name>
<sym>Dot</sym>
</trkpt>
<trkpt lat="39.718310" lon="-8.518683">
<ele>188.0</ele>
<desc>Speed 10.2 km/h Distance 55.72 km</desc>
<time>2011-05-22T11:13:39.25</time>
<name>11493</name>
<sym>Dot</sym>
</trkpt>
<trkpt lat="39.718287" lon="-8.518693">
<ele>188.0</ele>
<desc>Speed 9.6 km/h Distance 55.72 km</desc>
<time>2011-05-22T11:13:40.25</time>
<name>11494</name>
<sym>Dot</sym>
</trkpt>
<trkpt lat="39.718262" lon="-8.518700">
<ele>188.0</ele>
<desc>Speed 9.9 km/h Distance 55.72 km</desc>
<time>2011-05-22T11:13:41.25</time>
<name>11495</name>
<sym>Dot</sym>
</trkpt>
<trkpt lat="39.718253" lon="-8.518703">
<ele>188.0</ele>
<desc>Speed 2.9 km/h Distance 55.72 km</desc>
<time>2011-05-22T11:13:42.25</time>
<name>11496</name>
<sym>Dot</sym>
</trkpt>
<trkpt lat="39.718237" lon="-8.518708">
<ele>189.0</ele>
<desc>Speed 6.8 km/h Distance 55.73 km</desc>
<time>2011-05-22T11:13:43.25</time>
<name>11497</name>
<sym>Dot</sym>
</trkpt>
<trkpt lat="39.718215" lon="-8.518715">
<ele>189.5</ele>
<desc>Speed 9.0 km/h Distance 55.73 km</desc>
<time>2011-05-22T11:13:44.25</time>
<name>11498</name>
<sym>Dot</sym>
</trkpt>
<trkpt lat="39.718198" lon="-8.518722">
<ele>191.0</ele>
<desc>Speed 6.4 km/h Distance 55.73 km</desc>
<time>2011-05-22T11:13:45.25</time>
<name>11499</name>
<sym>Dot</sym>
</trkpt>
<trkpt lat="39.718172" lon="-8.518730">
<ele>191.0</ele>
<desc>Speed 10.5 km/h Distance 55.73 km</desc>
<time>2011-05-22T11:13:46.25</time>
<name>11500</name>
<sym>Dot</sym>
</trkpt>
<trkpt lat="39.718147" lon="-8.518737">
<ele>191.5</ele>
<desc>Speed 10.4 km/h Distance 55.74 km</desc>
<time>2011-05-22T11:13:47.25</time>
<name>11501</name>
<sym>Dot</sym>
</trkpt>
<trkpt lat="39.718117" lon="-8.518745">
<ele>192.0</ele>
<desc>Speed 12.4 km/h Distance 55.74 km</desc>
<time>2011-05-22T11:13:48.25</time>
<name>11502</name>
<sym>Dot</sym>
</trkpt>
<trkpt lat="39.718085" lon="-8.518753">
<ele>192.0</ele>
<desc>Speed 12.4 km/h Distance 55.74 km</desc>
<time>2011-05-22T11:13:49.25</time>
<name>11503</name>
<sym>Dot</sym>
</trkpt>
<trkpt lat="39.718053" lon="-8.518755">
<ele>192.5</ele>
<desc>Speed 12.5 km/h Distance 55.75 km</desc>
<time>2011-05-22T11:13:50.25</time>
<name>11504</name>
<sym>Dot</sym>
</trkpt>
<trkpt lat="39.718023" lon="-8.518758">
<ele>193.5</ele>
<desc>Speed 11.7 km/h Distance 55.75 km</desc>
<time>2011-05-22T11:13:51.25</time>
<name>11505</name>
<sym>Dot</sym>
</trkpt>
<trkpt lat="39.717988" lon="-8.518765">
<ele>193.0</ele>
<desc>Speed 14.4 km/h Distance 55.75 km</desc>
<time>2011-05-22T11:13:52.25</time>
<name>11506</name>
<sym>Dot</sym>
</trkpt>
<trkpt lat="39.717948" lon="-8.518770">
<ele>193.0</ele>
<desc>Speed 15.5 km/h Distance 55.76 km</desc>
<time>2011-05-22T11:13:53.25</time>
<name>11507</name>
<sym>Dot</sym>
</trkpt>
<trkpt lat="39.717908" lon="-8.518775">
<ele>193.0</ele>
<desc>Speed 15.4 km/h Distance 55.76 km</desc>
<time>2011-05-22T11:13:54.25</time>
<name>11508</name>
<sym>Dot</sym>
</trkpt>
<trkpt lat="39.717868" lon="-8.518777">
<ele>193.0</ele>
<desc>Speed 15.9 km/h Distance 55.77 km</desc>
<time>2011-05-22T11:13:55.25</time>
<name>11509</name>
<sym>Dot</sym>
</trkpt>
<trkpt lat="39.717827" lon="-8.518777">
<ele>193.0</ele>
<desc>Speed 16.5 km/h Distance 55.77 km</desc>
<time>2011-05-22T11:13:56.25</time>
<name>11510</name>
<sym>Dot</sym>
</trkpt>
<trkpt lat="39.717783" lon="-8.518775">
<ele>193.0</ele>
<desc>Speed 16.7 km/h Distance 55.78 km</desc>
<time>2011-05-22T11:13:57.25</time>
<name>11511</name>
<sym>Dot</sym>
</trkpt>
<trkpt lat="39.717742" lon="-8.518772">
<ele>193.5</ele>
<desc>Speed 16.7 km/h Distance 55.78 km</desc>
<time>2011-05-22T11:13:58.25</time>
<name>11512</name>
<sym>Dot</sym>
</trkpt>
<trkpt lat="39.717700" lon="-8.518770">
<ele>193.5</ele>
<desc>Speed 16.7 km/h Distance 55.79 km</desc>
<time>2011-05-22T11:13:59.25</time>
<name>11513</name>
<sym>Dot</sym>
</trkpt>
<trkpt lat="39.717660" lon="-8.518768">
<ele>194.0</ele>
<desc>Speed 16.3 km/h Distance 55.79 km</desc>
<time>2011-05-22T11:14:00.25</time>
<name>11514</name>
<sym>Dot</sym>
</trkpt>
<trkpt lat="39.717622" lon="-8.518765">
<ele>195.0</ele>
<desc>Speed 15.1 km/h Distance 55.79 km</desc>
<time>2011-05-22T11:14:01.25</time>
<name>11515</name>
<sym>Dot</sym>
</trkpt>
<trkpt lat="39.717580" lon="-8.518765">
<ele>195.5</ele>
<desc>Speed 16.6 km/h Distance 55.80 km</desc>
<time>2011-05-22T11:14:02.25</time>
<name>11516</name>
<sym>Dot</sym>
</trkpt>
<trkpt lat="39.717540" lon="-8.518763">
<ele>196.0</ele>
<desc>Speed 16.3 km/h Distance 55.80 km</desc>
<time>2011-05-22T11:14:03.25</time>
<name>11517</name>
<sym>Dot</sym>
</trkpt>
<trkpt lat="39.717500" lon="-8.518763">
<ele>196.5</ele>
<desc>Speed 16.2 km/h Distance 55.81 km</desc>
<time>2011-05-22T11:14:04.25</time>
<name>11518</name>
<sym>Dot</sym>
</trkpt>
<trkpt lat="39.717458" lon="-8.518765">
<ele>197.0</ele>
<desc>Speed 15.8 km/h Distance 55.81 km</desc>
<time>2011-05-22T11:14:05.25</time>
<name>11519</name>
<sym>Dot</sym>
</trkpt>
<trkpt lat="39.717420" lon="-8.518768">
<ele>197.5</ele>
<desc>Speed 15.4 km/h Distance 55.82 km</desc>
<time>2011-05-22T11:14:06.25</time>
<name>11520</name>
<sym>Dot</sym>
</trkpt>
<trkpt lat="39.717383" lon="-8.518768">
<ele>198.0</ele>
<desc>Speed 14.4 km/h Distance 55.82 km</desc>
<time>2011-05-22T11:14:07.25</time>
<name>11521</name>
<sym>Dot</sym>
</trkpt>
<trkpt lat="39.717350" lon="-8.518768">
<ele>198.5</ele>
<desc>Speed 13.5 km/h Distance 55.83 km</desc>
<time>2011-05-22T11:14:08.25</time>
<name>11522</name>
<sym>Dot</sym>
</trkpt>
<trkpt lat="39.717317" lon="-8.518770">
<ele>199.0</ele>
<desc>Speed 13.8 km/h Distance 55.83 km</desc>
<time>2011-05-22T11:14:09.25</time>
<name>11523</name>
<sym>Dot</sym>
</trkpt>
<trkpt lat="39.717282" lon="-8.518773">
<ele>199.5</ele>
<desc>Speed 14.1 km/h Distance 55.83 km</desc>
<time>2011-05-22T11:14:10.25</time>
<name>11524</name>
<sym>Dot</sym>
</trkpt>
<trkpt lat="39.717247" lon="-8.518777">
<ele>199.5</ele>
<desc>Speed 14.0 km/h Distance 55.84 km</desc>
<time>2011-05-22T11:14:11.25</time>
<name>11525</name>
<sym>Dot</sym>
</trkpt>
<trkpt lat="39.717213" lon="-8.518782">
<ele>199.5</ele>
<desc>Speed 13.5 km/h Distance 55.84 km</desc>
<time>2011-05-22T11:14:12.25</time>
<name>11526</name>
<sym>Dot</sym>
</trkpt>
<trkpt lat="39.717180" lon="-8.518792">
<ele>199.5</ele>
<desc>Speed 13.2 km/h Distance 55.84 km</desc>
<time>2011-05-22T11:14:13.25</time>
<name>11527</name>
<sym>Dot</sym>
</trkpt>
<trkpt lat="39.717152" lon="-8.518803">
<ele>200.0</ele>
<desc>Speed 11.7 km/h Distance 55.85 km</desc>
<time>2011-05-22T11:14:14.25</time>
<name>11528</name>
<sym>Dot</sym>
</trkpt>
<trkpt lat="39.717118" lon="-8.518818">
<ele>199.5</ele>
<desc>Speed 12.4 km/h Distance 55.85 km</desc>
<time>2011-05-22T11:14:15.25</time>
<name>11529</name>
<sym>Dot</sym>
</trkpt>
<trkpt lat="39.717087" lon="-8.518833">
<ele>198.5</ele>
<desc>Speed 11.8 km/h Distance 55.86 km</desc>
<time>2011-05-22T11:14:16.25</time>
<name>11530</name>
<sym>Dot</sym>
</trkpt>
<trkpt lat="39.717062" lon="-8.518850">
<ele>199.0</ele>
<desc>Speed 11.7 km/h Distance 55.86 km</desc>
<time>2011-05-22T11:14:17.25</time>
<name>11531</name>
<sym>Dot</sym>
</trkpt>
<trkpt lat="39.717035" lon="-8.518868">
<ele>199.5</ele>
<desc>Speed 11.4 km/h Distance 55.86 km</desc>
<time>2011-05-22T11:14:18.25</time>
<name>11532</name>
<sym>Dot</sym>
</trkpt>
<trkpt lat="39.717018" lon="-8.518887">
<ele>201.0</ele>
<desc>Speed 9.2 km/h Distance 55.86 km</desc>
<time>2011-05-22T11:14:19.25</time>
<name>11533</name>
<sym>Dot</sym>
</trkpt>
<trkpt lat="39.716992" lon="-8.518910">
<ele>201.0</ele>
<desc>Speed 12.7 km/h Distance 55.87 km</desc>
<time>2011-05-22T11:14:20.25</time>
<name>11534</name>
<sym>Dot</sym>
</trkpt>
<trkpt lat="39.716965" lon="-8.518935">
<ele>201.0</ele>
<desc>Speed 13.2 km/h Distance 55.87 km</desc>
<time>2011-05-22T11:14:21.25</time>
<name>11535</name>
<sym>Dot</sym>
</trkpt>
<trkpt lat="39.716938" lon="-8.518963">
<ele>201.0</ele>
<desc>Speed 13.2 km/h Distance 55.88 km</desc>
<time>2011-05-22T11:14:22.25</time>
<name>11536</name>
<sym>Dot</sym>
</trkpt>
<trkpt lat="39.716913" lon="-8.518992">
<ele>200.0</ele>
<desc>Speed 13.2 km/h Distance 55.88 km</desc>
<time>2011-05-22T11:14:23.25</time>
<name>11537</name>
<sym>Dot</sym>
</trkpt>
<trkpt lat="39.716890" lon="-8.519018">
<ele>199.5</ele>
<desc>Speed 12.8 km/h Distance 55.88 km</desc>
<time>2011-05-22T11:14:24.25</time>
<name>11538</name>
<sym>Dot</sym>
</trkpt>
<trkpt lat="39.716867" lon="-8.519043">
<ele>199.5</ele>
<desc>Speed 12.3 km/h Distance 55.89 km</desc>
<time>2011-05-22T11:14:25.25</time>
<name>11539</name>
<sym>Dot</sym>
</trkpt>
<trkpt lat="39.716847" lon="-8.519068">
<ele>199.0</ele>
<desc>Speed 11.2 km/h Distance 55.89 km</desc>
<time>2011-05-22T11:14:26.25</time>
<name>11540</name>
<sym>Dot</sym>
</trkpt>
<trkpt lat="39.716823" lon="-8.519095">
<ele>199.0</ele>
<desc>Speed 12.2 km/h Distance 55.89 km</desc>
<time>2011-05-22T11:14:27.25</time>
<name>11541</name>
<sym>Dot</sym>
</trkpt>
<trkpt lat="39.716802" lon="-8.519120">
<ele>199.0</ele>
<desc>Speed 12.0 km/h Distance 55.90 km</desc>
<time>2011-05-22T11:14:28.25</time>
<name>11542</name>
<sym>Dot</sym>
</trkpt>
<trkpt lat="39.716780" lon="-8.519148">
<ele>198.5</ele>
<desc>Speed 12.6 km/h Distance 55.90 km</desc>
<time>2011-05-22T11:14:29.25</time>
<name>11543</name>
<sym>Dot</sym>
</trkpt>
<trkpt lat="39.716777" lon="-8.519170">
<ele>198.5</ele>
<desc>Speed 7.0 km/h Distance 55.90 km</desc>
<time>2011-05-22T11:14:30.25</time>
<name>11544</name>
<sym>Dot</sym>
</trkpt>
<trkpt lat="39.716762" lon="-8.519193">
<ele>200.0</ele>
<desc>Speed 9.0 km/h Distance 55.90 km</desc>
<time>2011-05-22T11:14:31.25</time>
<name>11545</name>
<sym>Dot</sym>
</trkpt>
<trkpt lat="39.716737" lon="-8.519225">
<ele>200.0</ele>
<desc>Speed 14.1 km/h Distance 55.91 km</desc>
<time>2011-05-22T11:14:32.25</time>
<name>11546</name>
<sym>Dot</sym>
</trkpt>
<trkpt lat="39.716712" lon="-8.519253">
<ele>200.0</ele>
<desc>Speed 13.4 km/h Distance 55.91 km</desc>
<time>2011-05-22T11:14:33.25</time>
<name>11547</name>
<sym>Dot</sym>
</trkpt>
<trkpt lat="39.716687" lon="-8.519280">
<ele>200.0</ele>
<desc>Speed 13.2 km/h Distance 55.91 km</desc>
<time>2011-05-22T11:14:34.25</time>
<name>11548</name>
<sym>Dot</sym>
</trkpt>
<trkpt lat="39.716665" lon="-8.519313">
<ele>200.0</ele>
<desc>Speed 13.6 km/h Distance 55.92 km</desc>
<time>2011-05-22T11:14:35.25</time>
<name>11549</name>
<sym>Dot</sym>
</trkpt>
<trkpt lat="39.716642" lon="-8.519347">
<ele>200.0</ele>
<desc>Speed 13.7 km/h Distance 55.92 km</desc>
<time>2011-05-22T11:14:36.25</time>
<name>11550</name>
<sym>Dot</sym>
</trkpt>
<trkpt lat="39.716618" lon="-8.519382">
<ele>199.5</ele>
<desc>Speed 13.7 km/h Distance 55.93 km</desc>
<time>2011-05-22T11:14:37.25</time>
<name>11551</name>
<sym>Dot</sym>
</trkpt>
<trkpt lat="39.716597" lon="-8.519417">
<ele>199.5</ele>
<desc>Speed 13.7 km/h Distance 55.93 km</desc>
<time>2011-05-22T11:14:38.25</time>
<name>11552</name>
<sym>Dot</sym>
</trkpt>
<trkpt lat="39.716572" lon="-8.519447">
<ele>199.5</ele>
<desc>Speed 13.3 km/h Distance 55.93 km</desc>
<time>2011-05-22T11:14:39.25</time>
<name>11553</name>
<sym>Dot</sym>
</trkpt>
<trkpt lat="39.716550" lon="-8.519478">
<ele>199.5</ele>
<desc>Speed 12.9 km/h Distance 55.94 km</desc>
<time>2011-05-22T11:14:40.25</time>
<name>11554</name>
<sym>Dot</sym>
</trkpt>
<trkpt lat="39.716528" lon="-8.519508">
<ele>199.0</ele>
<desc>Speed 12.4 km/h Distance 55.94 km</desc>
<time>2011-05-22T11:14:41.25</time>
<name>11555</name>
<sym>Dot</sym>
</trkpt>
<trkpt lat="39.716510" lon="-8.519537">
<ele>199.0</ele>
<desc>Speed 11.5 km/h Distance 55.94 km</desc>
<time>2011-05-22T11:14:42.25</time>
<name>11556</name>
<sym>Dot</sym>
</trkpt>
<trkpt lat="39.716492" lon="-8.519565">
<ele>199.0</ele>
<desc>Speed 10.9 km/h Distance 55.95 km</desc>
<time>2011-05-22T11:14:43.25</time>
<name>11557</name>
<sym>Dot</sym>
</trkpt>
<trkpt lat="39.716475" lon="-8.519593">
<ele>198.5</ele>
<desc>Speed 10.8 km/h Distance 55.95 km</desc>
<time>2011-05-22T11:14:44.25</time>
<name>11558</name>
<sym>Dot</sym>
</trkpt>
<trkpt lat="39.716458" lon="-8.519620">
<ele>198.5</ele>
<desc>Speed 10.3 km/h Distance 55.95 km</desc>
<time>2011-05-22T11:14:45.25</time>
<name>11559</name>
<sym>Dot</sym>
</trkpt>
<trkpt lat="39.716442" lon="-8.519645">
<ele>198.5</ele>
<desc>Speed 10.4 km/h Distance 55.96 km</desc>
<time>2011-05-22T11:14:46.25</time>
<name>11560</name>
<sym>Dot</sym>
</trkpt>
<trkpt lat="39.716423" lon="-8.519663">
<ele>198.5</ele>
<desc>Speed 9.0 km/h Distance 55.96 km</desc>
<time>2011-05-22T11:14:47.25</time>
<name>11561</name>
<sym>Dot</sym>
</trkpt>
<trkpt lat="39.716407" lon="-8.519682">
<ele>199.0</ele>
<desc>Speed 8.8 km/h Distance 55.96 km</desc>
<time>2011-05-22T11:14:49.33</time>
<name>11562</name>
<sym>Dot</sym>
</trkpt>
<trkpt lat="39.716390" lon="-8.519703">
<ele>199.0</ele>
<desc>Speed 9.2 km/h Distance 55.96 km</desc>
<time>2011-05-22T11:14:50.25</time>
<name>11563</name>
<sym>Dot</sym>
</trkpt>
<trkpt lat="39.716375" lon="-8.519727">
<ele>199.0</ele>
<desc>Speed 9.3 km/h Distance 55.97 km</desc>
<time>2011-05-22T11:14:51.25</time>
<name>11564</name>
<sym>Dot</sym>
</trkpt>
<trkpt lat="39.716360" lon="-8.519750">
<ele>198.5</ele>
<desc>Speed 9.3 km/h Distance 55.97 km</desc>
<time>2011-05-22T11:14:52.25</time>
<name>11565</name>
<sym>Dot</sym>
</trkpt>
<trkpt lat="39.716345" lon="-8.519777">
<ele>198.5</ele>
<desc>Speed 9.7 km/h Distance 55.97 km</desc>
<time>2011-05-22T11:14:53.25</time>
<name>11566</name>
<sym>Dot</sym>
</trkpt>
<trkpt lat="39.716330" lon="-8.519805">
<ele>198.5</ele>
<desc>Speed 9.7 km/h Distance 55.97 km</desc>
<time>2011-05-22T11:14:54.25</time>
<name>11567</name>
<sym>Dot</sym>
</trkpt>
<trkpt lat="39.716315" lon="-8.519828">
<ele>198.5</ele>
<desc>Speed 9.3 km/h Distance 55.98 km</desc>
<time>2011-05-22T11:14:55.25</time>
<name>11568</name>
<sym>Dot</sym>
</trkpt>
<trkpt lat="39.716298" lon="-8.519852">
<ele>198.5</ele>
<desc>Speed 9.0 km/h Distance 55.98 km</desc>
<time>2011-05-22T11:14:56.25</time>
<name>11569</name>
<sym>Dot</sym>
</trkpt>
<trkpt lat="39.716282" lon="-8.519883">
<ele>197.5</ele>
<desc>Speed 9.0 km/h Distance 55.98 km</desc>
<time>2011-05-22T11:14:57.25</time>
<name>11570</name>
<sym>Dot</sym>
</trkpt>
<trkpt lat="39.716267" lon="-8.519912">
<ele>196.5</ele>
<desc>Speed 8.3 km/h Distance 55.99 km</desc>
<time>2011-05-22T11:14:58.25</time>
<name>11571</name>
<sym>Dot</sym>
</trkpt>
<trkpt lat="39.716250" lon="-8.519935">
<ele>196.0</ele>
<desc>Speed 8.2 km/h Distance 55.99 km</desc>
<time>2011-05-22T11:14:59.25</time>
<name>11572</name>
<sym>Dot</sym>
</trkpt>
<trkpt lat="39.716232" lon="-8.519957">
<ele>195.0</ele>
<desc>Speed 7.8 km/h Distance 55.99 km</desc>
<time>2011-05-22T11:15:00.25</time>
<name>11573</name>
<sym>Dot</sym>
</trkpt>
<trkpt lat="39.716215" lon="-8.519980">
<ele>194.0</ele>
<desc>Speed 7.5 km/h Distance 55.99 km</desc>
<time>2011-05-22T11:15:01.25</time>
<name>11574</name>
<sym>Dot</sym>
</trkpt>
<trkpt lat="39.716197" lon="-8.520007">
<ele>193.5</ele>
<desc>Speed 8.4 km/h Distance 56.00 km</desc>
<time>2011-05-22T11:15:02.25</time>
<name>11575</name>
<sym>Dot</sym>
</trkpt>
<trkpt lat="39.716178" lon="-8.520032">
<ele>192.5</ele>
<desc>Speed 8.4 km/h Distance 56.00 km</desc>
<time>2011-05-22T11:15:03.25</time>
<name>11576</name>
<sym>Dot</sym>
</trkpt>
<trkpt lat="39.716162" lon="-8.520057">
<ele>192.0</ele>
<desc>Speed 7.9 km/h Distance 56.00 km</desc>
<time>2011-05-22T11:15:04.25</time>
<name>11577</name>
<sym>Dot</sym>
</trkpt>
<trkpt lat="39.716148" lon="-8.520075">
<ele>192.0</ele>
<desc>Speed 7.7 km/h Distance 56.01 km</desc>
<time>2011-05-22T11:15:05.25</time>
<name>11578</name>
<sym>Dot</sym>
</trkpt>
<trkpt lat="39.716135" lon="-8.520100">
<ele>192.0</ele>
<desc>Speed 9.0 km/h Distance 56.01 km</desc>
<time>2011-05-22T11:15:06.25</time>
<name>11579</name>
<sym>Dot</sym>
</trkpt>
<trkpt lat="39.716117" lon="-8.520123">
<ele>192.0</ele>
<desc>Speed 9.4 km/h Distance 56.01 km</desc>
<time>2011-05-22T11:15:07.25</time>
<name>11580</name>
<sym>Dot</sym>
</trkpt>
<trkpt lat="39.716098" lon="-8.520147">
<ele>192.0</ele>
<desc>Speed 9.4 km/h Distance 56.01 km</desc>
<time>2011-05-22T11:15:08.25</time>
<name>11581</name>
<sym>Dot</sym>
</trkpt>
<trkpt lat="39.716080" lon="-8.520172">
<ele>192.5</ele>
<desc>Speed 9.2 km/h Distance 56.02 km</desc>
<time>2011-05-22T11:15:09.25</time>
<name>11582</name>
<sym>Dot</sym>
</trkpt>
<trkpt lat="39.716060" lon="-8.520197">
<ele>192.5</ele>
<desc>Speed 9.9 km/h Distance 56.02 km</desc>
<time>2011-05-22T11:15:10.25</time>
<name>11583</name>
<sym>Dot</sym>
</trkpt>
<trkpt lat="39.716040" lon="-8.520218">
<ele>193.0</ele>
<desc>Speed 9.3 km/h Distance 56.02 km</desc>
<time>2011-05-22T11:15:11.25</time>
<name>11584</name>
<sym>Dot</sym>
</trkpt>
<trkpt lat="39.716020" lon="-8.520243">
<ele>193.0</ele>
<desc>Speed 10.3 km/h Distance 56.03 km</desc>
<time>2011-05-22T11:15:12.25</time>
<name>11585</name>
<sym>Dot</sym>
</trkpt>
<trkpt lat="39.716002" lon="-8.520270">
<ele>193.0</ele>
<desc>Speed 9.9 km/h Distance 56.03 km</desc>
<time>2011-05-22T11:15:13.25</time>
<name>11586</name>
<sym>Dot</sym>
</trkpt>
<trkpt lat="39.715985" lon="-8.520297">
<ele>193.0</ele>
<desc>Speed 10.8 km/h Distance 56.03 km</desc>
<time>2011-05-22T11:15:14.25</time>
<name>11587</name>
<sym>Dot</sym>
</trkpt>
<trkpt lat="39.715965" lon="-8.520325">
<ele>193.0</ele>
<desc>Speed 11.5 km/h Distance 56.04 km</desc>
<time>2011-05-22T11:15:15.25</time>
<name>11588</name>
<sym>Dot</sym>
</trkpt>
<trkpt lat="39.715943" lon="-8.520353">
<ele>193.0</ele>
<desc>Speed 12.0 km/h Distance 56.04 km</desc>
<time>2011-05-22T11:15:16.25</time>
<name>11589</name>
<sym>Dot</sym>
</trkpt>
<trkpt lat="39.715920" lon="-8.520380">
<ele>193.0</ele>
<desc>Speed 12.1 km/h Distance 56.04 km</desc>
<time>2011-05-22T11:15:17.25</time>
<name>11590</name>
<sym>Dot</sym>
</trkpt>
<trkpt lat="39.715897" lon="-8.520403">
<ele>193.5</ele>
<desc>Speed 11.6 km/h Distance 56.05 km</desc>
<time>2011-05-22T11:15:18.25</time>
<name>11591</name>
<sym>Dot</sym>
</trkpt>
<trkpt lat="39.715873" lon="-8.520430">
<ele>193.5</ele>
<desc>Speed 11.8 km/h Distance 56.05 km</desc>
<time>2011-05-22T11:15:19.25</time>
<name>11592</name>
<sym>Dot</sym>
</trkpt>
<trkpt lat="39.715853" lon="-8.520458">
<ele>194.0</ele>
<desc>Speed 11.9 km/h Distance 56.05 km</desc>
<time>2011-05-22T11:15:20.25</time>
<name>11593</name>
<sym>Dot</sym>
</trkpt>
<trkpt lat="39.715833" lon="-8.520487">
<ele>193.5</ele>
<desc>Speed 11.7 km/h Distance 56.06 km</desc>
<time>2011-05-22T11:15:21.25</time>
<name>11594</name>
<sym>Dot</sym>
</trkpt>
<trkpt lat="39.715813" lon="-8.520517">
<ele>194.0</ele>
<desc>Speed 12.2 km/h Distance 56.06 km</desc>
<time>2011-05-22T11:15:22.25</time>
<name>11595</name>
<sym>Dot</sym>
</trkpt>
<trkpt lat="39.715795" lon="-8.520548">
<ele>194.0</ele>
<desc>Speed 12.3 km/h Distance 56.06 km</desc>
<time>2011-05-22T11:15:23.25</time>
<name>11596</name>
<sym>Dot</sym>
</trkpt>
<trkpt lat="39.715775" lon="-8.520577">
<ele>194.0</ele>
<desc>Speed 11.8 km/h Distance 56.07 km</desc>
<time>2011-05-22T11:15:24.25</time>
<name>11597</name>
<sym>Dot</sym>
</trkpt>
<trkpt lat="39.715755" lon="-8.520605">
<ele>193.5</ele>
<desc>Speed 11.6 km/h Distance 56.07 km</desc>
<time>2011-05-22T11:15:25.25</time>
<name>11598</name>
<sym>Dot</sym>
</trkpt>
<trkpt lat="39.715737" lon="-8.520637">
<ele>193.0</ele>
<desc>Speed 11.7 km/h Distance 56.07 km</desc>
<time>2011-05-22T11:15:26.25</time>
<name>11599</name>
<sym>Dot</sym>
</trkpt>
<trkpt lat="39.715718" lon="-8.520668">
<ele>192.5</ele>
<desc>Speed 11.8 km/h Distance 56.08 km</desc>
<time>2011-05-22T11:15:27.25</time>
<name>11600</name>
<sym>Dot</sym>
</trkpt>
<trkpt lat="39.715698" lon="-8.520697">
<ele>192.5</ele>
<desc>Speed 11.8 km/h Distance 56.08 km</desc>
<time>2011-05-22T11:15:28.25</time>
<name>11601</name>
<sym>Dot</sym>
</trkpt>
<trkpt lat="39.715677" lon="-8.520725">
<ele>192.5</ele>
<desc>Speed 12.3 km/h Distance 56.08 km</desc>
<time>2011-05-22T11:15:29.25</time>
<name>11602</name>
<sym>Dot</sym>
</trkpt>
<trkpt lat="39.715657" lon="-8.520757">
<ele>192.5</ele>
<desc>Speed 12.6 km/h Distance 56.09 km</desc>
<time>2011-05-22T11:15:30.25</time>
<name>11603</name>
<sym>Dot</sym>
</trkpt>
<trkpt lat="39.715637" lon="-8.520788">
<ele>192.5</ele>
<desc>Speed 12.8 km/h Distance 56.09 km</desc>
<time>2011-05-22T11:15:31.25</time>
<name>11604</name>
<sym>Dot</sym>
</trkpt>
<trkpt lat="39.715615" lon="-8.520820">
<ele>192.5</ele>
<desc>Speed 12.9 km/h Distance 56.09 km</desc>
<time>2011-05-22T11:15:32.25</time>
<name>11605</name>
<sym>Dot</sym>
</trkpt>
<trkpt lat="39.715595" lon="-8.520853">
<ele>192.0</ele>
<desc>Speed 12.8 km/h Distance 56.10 km</desc>
<time>2011-05-22T11:15:33.25</time>
<name>11606</name>
<sym>Dot</sym>
</trkpt>
<trkpt lat="39.715575" lon="-8.520885">
<ele>192.0</ele>
<desc>Speed 13.0 km/h Distance 56.10 km</desc>
<time>2011-05-22T11:15:34.25</time>
<name>11607</name>
<sym>Dot</sym>
</trkpt>
<trkpt lat="39.715557" lon="-8.520922">
<ele>192.0</ele>
<desc>Speed 13.2 km/h Distance 56.10 km</desc>
<time>2011-05-22T11:15:35.25</time>
<name>11608</name>
<sym>Dot</sym>
</trkpt>
<trkpt lat="39.715537" lon="-8.520957">
<ele>192.0</ele>
<desc>Speed 13.0 km/h Distance 56.11 km</desc>
<time>2011-05-22T11:15:36.25</time>
<name>11609</name>
<sym>Dot</sym>
</trkpt>
<trkpt lat="39.715517" lon="-8.520992">
<ele>192.0</ele>
<desc>Speed 12.7 km/h Distance 56.11 km</desc>
<time>2011-05-22T11:15:37.25</time>
<name>11610</name>
<sym>Dot</sym>
</trkpt>
<trkpt lat="39.715500" lon="-8.521027">
<ele>192.0</ele>
<desc>Speed 12.9 km/h Distance 56.11 km</desc>
<time>2011-05-22T11:15:38.25</time>
<name>11611</name>
<sym>Dot</sym>
</trkpt>
<trkpt lat="39.715480" lon="-8.521058">
<ele>192.0</ele>
<desc>Speed 12.4 km/h Distance 56.12 km</desc>
<time>2011-05-22T11:15:39.25</time>
<name>11612</name>
<sym>Dot</sym>
</trkpt>
<trkpt lat="39.715457" lon="-8.521092">
<ele>192.0</ele>
<desc>Speed 13.1 km/h Distance 56.12 km</desc>
<time>2011-05-22T11:15:40.25</time>
<name>11613</name>
<sym>Dot</sym>
</trkpt>
<trkpt lat="39.715437" lon="-8.521130">
<ele>191.5</ele>
<desc>Speed 13.6 km/h Distance 56.13 km</desc>
<time>2011-05-22T11:15:41.25</time>
<name>11614</name>
<sym>Dot</sym>
</trkpt>
<trkpt lat="39.715412" lon="-8.521162">
<ele>192.0</ele>
<desc>Speed 13.5 km/h Distance 56.13 km</desc>
<time>2011-05-22T11:15:42.25</time>
<name>11615</name>
<sym>Dot</sym>
</trkpt>
<trkpt lat="39.715392" lon="-8.521202">
<ele>192.0</ele>
<desc>Speed 14.7 km/h Distance 56.13 km</desc>
<time>2011-05-22T11:15:43.25</time>
<name>11616</name>
<sym>Dot</sym>
</trkpt>
<trkpt lat="39.715368" lon="-8.521240">
<ele>192.0</ele>
<desc>Speed 14.9 km/h Distance 56.14 km</desc>
<time>2011-05-22T11:15:44.25</time>
<name>11617</name>
<sym>Dot</sym>
</trkpt>
<trkpt lat="39.715345" lon="-8.521280">
<ele>192.0</ele>
<desc>Speed 15.1 km/h Distance 56.14 km</desc>
<time>2011-05-22T11:15:45.25</time>
<name>11618</name>
<sym>Dot</sym>
</trkpt>
<trkpt lat="39.715320" lon="-8.521322">
<ele>192.0</ele>
<desc>Speed 15.1 km/h Distance 56.15 km</desc>
<time>2011-05-22T11:15:46.25</time>
<name>11619</name>
<sym>Dot</sym>
</trkpt>
<trkpt lat="39.715298" lon="-8.521362">
<ele>192.0</ele>
<desc>Speed 15.1 km/h Distance 56.15 km</desc>
<time>2011-05-22T11:15:47.25</time>
<name>11620</name>
<sym>Dot</sym>
</trkpt>
<trkpt lat="39.715275" lon="-8.521402">
<ele>191.5</ele>
<desc>Speed 15.3 km/h Distance 56.16 km</desc>
<time>2011-05-22T11:15:48.25</time>
<name>11621</name>
<sym>Dot</sym>
</trkpt>
<trkpt lat="39.715255" lon="-8.521445">
<ele>191.5</ele>
<desc>Speed 15.6 km/h Distance 56.16 km</desc>
<time>2011-05-22T11:15:49.25</time>
<name>11622</name>
<sym>Dot</sym>
</trkpt>
<trkpt lat="39.715230" lon="-8.521483">
<ele>191.5</ele>
<desc>Speed 15.4 km/h Distance 56.16 km</desc>
<time>2011-05-22T11:15:50.25</time>
<name>11623</name>
<sym>Dot</sym>
</trkpt>
<trkpt lat="39.715207" lon="-8.521523">
<ele>191.5</ele>
<desc>Speed 15.2 km/h Distance 56.17 km</desc>
<time>2011-05-22T11:15:51.25</time>
<name>11624</name>
<sym>Dot</sym>
</trkpt>
<trkpt lat="39.715182" lon="-8.521565">
<ele>191.0</ele>
<desc>Speed 15.1 km/h Distance 56.17 km</desc>
<time>2011-05-22T11:15:52.25</time>
<name>11625</name>
<sym>Dot</sym>
</trkpt>
<trkpt lat="39.715157" lon="-8.521600">
<ele>191.0</ele>
<desc>Speed 14.0 km/h Distance 56.18 km</desc>
<time>2011-05-22T11:15:53.25</time>
<name>11626</name>
<sym>Dot</sym>
</trkpt>
<trkpt lat="39.715133" lon="-8.521637">
<ele>191.0</ele>
<desc>Speed 14.3 km/h Distance 56.18 km</desc>
<time>2011-05-22T11:15:54.25</time>
<name>11627</name>
<sym>Dot</sym>
</trkpt>
<trkpt lat="39.715112" lon="-8.521673">
<ele>190.5</ele>
<desc>Speed 13.9 km/h Distance 56.19 km</desc>
<time>2011-05-22T11:15:55.25</time>
<name>11628</name>
<sym>Dot</sym>
</trkpt>
<trkpt lat="39.715092" lon="-8.521710">
<ele>190.5</ele>
<desc>Speed 13.4 km/h Distance 56.19 km</desc>
<time>2011-05-22T11:15:56.25</time>
<name>11629</name>
<sym>Dot</sym>
</trkpt>
<trkpt lat="39.715072" lon="-8.521748">
<ele>190.0</ele>
<desc>Speed 14.0 km/h Distance 56.19 km</desc>
<time>2011-05-22T11:15:57.25</time>
<name>11630</name>
<sym>Dot</sym>
</trkpt>
<trkpt lat="39.715048" lon="-8.521785">
<ele>190.0</ele>
<desc>Speed 14.0 km/h Distance 56.20 km</desc>
<time>2011-05-22T11:15:58.25</time>
<name>11631</name>
<sym>Dot</sym>
</trkpt>
<trkpt lat="39.715027" lon="-8.521823">
<ele>189.5</ele>
<desc>Speed 14.1 km/h Distance 56.20 km</desc>
<time>2011-05-22T11:15:59.25</time>
<name>11632</name>
<sym>Dot</sym>
</trkpt>
<trkpt lat="39.715007" lon="-8.521863">
<ele>189.5</ele>
<desc>Speed 13.1 km/h Distance 56.21 km</desc>
<time>2011-05-22T11:16:00.25</time>
<name>11633</name>
<sym>Dot</sym>
</trkpt>
<trkpt lat="39.714987" lon="-8.521902">
<ele>189.5</ele>
<desc>Speed 12.7 km/h Distance 56.21 km</desc>
<time>2011-05-22T11:16:01.25</time>
<name>11634</name>
<sym>Dot</sym>
</trkpt>
<trkpt lat="39.714970" lon="-8.521933">
<ele>189.0</ele>
<desc>Speed 11.8 km/h Distance 56.21 km</desc>
<time>2011-05-22T11:16:02.25</time>
<name>11635</name>
<sym>Dot</sym>
</trkpt>
<trkpt lat="39.714952" lon="-8.521963">
<ele>189.0</ele>
<desc>Speed 11.7 km/h Distance 56.22 km</desc>
<time>2011-05-22T11:16:03.25</time>
<name>11636</name>
<sym>Dot</sym>
</trkpt>
<trkpt lat="39.714930" lon="-8.521997">
<ele>189.0</ele>
<desc>Speed 11.7 km/h Distance 56.22 km</desc>
<time>2011-05-22T11:16:04.25</time>
<name>11637</name>
<sym>Dot</sym>
</trkpt>
<trkpt lat="39.714913" lon="-8.522030">
<ele>188.5</ele>
<desc>Speed 11.7 km/h Distance 56.22 km</desc>
<time>2011-05-22T11:16:05.25</time>
<name>11638</name>
<sym>Dot</sym>
</trkpt>
<trkpt lat="39.714895" lon="-8.522062">
<ele>188.5</ele>
<desc>Speed 11.7 km/h Distance 56.23 km</desc>
<time>2011-05-22T11:16:06.25</time>
<name>11639</name>
<sym>Dot</sym>
</trkpt>
<trkpt lat="39.714875" lon="-8.522095">
<ele>188.5</ele>
<desc>Speed 12.1 km/h Distance 56.23 km</desc>
<time>2011-05-22T11:16:07.25</time>
<name>11640</name>
<sym>Dot</sym>
</trkpt>
<trkpt lat="39.714857" lon="-8.522127">
<ele>188.0</ele>
<desc>Speed 11.9 km/h Distance 56.23 km</desc>
<time>2011-05-22T11:16:08.25</time>
<name>11641</name>
<sym>Dot</sym>
</trkpt>
<trkpt lat="39.714838" lon="-8.522162">
<ele>188.0</ele>
<desc>Speed 11.7 km/h Distance 56.24 km</desc>
<time>2011-05-22T11:16:09.25</time>
<name>11642</name>
<sym>Dot</sym>
</trkpt>
<trkpt lat="39.714822" lon="-8.522198">
<ele>188.0</ele>
<desc>Speed 11.9 km/h Distance 56.24 km</desc>
<time>2011-05-22T11:16:10.25</time>
<name>11643</name>
<sym>Dot</sym>
</trkpt>
<trkpt lat="39.714803" lon="-8.522232">
<ele>188.0</ele>
<desc>Speed 12.1 km/h Distance 56.24 km</desc>
<time>2011-05-22T11:16:11.25</time>
<name>11644</name>
<sym>Dot</sym>
</trkpt>
<trkpt lat="39.714787" lon="-8.522265">
<ele>188.0</ele>
<desc>Speed 12.0 km/h Distance 56.25 km</desc>
<time>2011-05-22T11:16:12.25</time>
<name>11645</name>
<sym>Dot</sym>
</trkpt>
<trkpt lat="39.714775" lon="-8.522305">
<ele>188.0</ele>
<desc>Speed 12.8 km/h Distance 56.25 km</desc>
<time>2011-05-22T11:16:13.25</time>
<name>11646</name>
<sym>Dot</sym>
</trkpt>
<trkpt lat="39.714757" lon="-8.522340">
<ele>188.5</ele>
<desc>Speed 12.2 km/h Distance 56.25 km</desc>
<time>2011-05-22T11:16:14.25</time>
<name>11647</name>
<sym>Dot</sym>
</trkpt>
<trkpt lat="39.714742" lon="-8.522378">
<ele>188.5</ele>
<desc>Speed 13.0 km/h Distance 56.26 km</desc>
<time>2011-05-22T11:16:15.25</time>
<name>11648</name>
<sym>Dot</sym>
</trkpt>
<trkpt lat="39.714727" lon="-8.522420">
<ele>188.0</ele>
<desc>Speed 13.0 km/h Distance 56.26 km</desc>
<time>2011-05-22T11:16:16.25</time>
<name>11649</name>
<sym>Dot</sym>
</trkpt>
<trkpt lat="39.714713" lon="-8.522462">
<ele>187.5</ele>
<desc>Speed 13.1 km/h Distance 56.27 km</desc>
<time>2011-05-22T11:16:17.25</time>
<name>11650</name>
<sym>Dot</sym>
</trkpt>
<trkpt lat="39.714700" lon="-8.522503">
<ele>187.5</ele>
<desc>Speed 13.1 km/h Distance 56.27 km</desc>
<time>2011-05-22T11:16:18.25</time>
<name>11651</name>
<sym>Dot</sym>
</trkpt>
<trkpt lat="39.714685" lon="-8.522545">
<ele>187.0</ele>
<desc>Speed 12.9 km/h Distance 56.27 km</desc>
<time>2011-05-22T11:16:19.25</time>
<name>11652</name>
<sym>Dot</sym>
</trkpt>
<trkpt lat="39.714672" lon="-8.522587">
<ele>187.0</ele>
<desc>Speed 12.9 km/h Distance 56.28 km</desc>
<time>2011-05-22T11:16:20.25</time>
<name>11653</name>
<sym>Dot</sym>
</trkpt>
<trkpt lat="39.714660" lon="-8.522630">
<ele>186.5</ele>
<desc>Speed 13.1 km/h Distance 56.28 km</desc>
<time>2011-05-22T11:16:21.25</time>
<name>11654</name>
<sym>Dot</sym>
</trkpt>
<trkpt lat="39.714648" lon="-8.522672">
<ele>186.5</ele>
<desc>Speed 13.0 km/h Distance 56.29 km</desc>
<time>2011-05-22T11:16:22.25</time>
<name>11655</name>
<sym>Dot</sym>
</trkpt>
<trkpt lat="39.714637" lon="-8.522713">
<ele>186.5</ele>
<desc>Speed 12.9 km/h Distance 56.29 km</desc>
<time>2011-05-22T11:16:23.25</time>
<name>11656</name>
<sym>Dot</sym>
</trkpt>
<trkpt lat="39.714627" lon="-8.522755">
<ele>186.5</ele>
<desc>Speed 12.7 km/h Distance 56.29 km</desc>
<time>2011-05-22T11:16:24.25</time>
<name>11657</name>
<sym>Dot</sym>
</trkpt>
<trkpt lat="39.714617" lon="-8.522797">
<ele>186.0</ele>
<desc>Speed 12.6 km/h Distance 56.30 km</desc>
<time>2011-05-22T11:16:25.25</time>
<name>11658</name>
<sym>Dot</sym>
</trkpt>
<trkpt lat="39.714605" lon="-8.522837">
<ele>186.0</ele>
<desc>Speed 12.6 km/h Distance 56.30 km</desc>
<time>2011-05-22T11:16:26.25</time>
<name>11659</name>
<sym>Dot</sym>
</trkpt>
<trkpt lat="39.714593" lon="-8.522878">
<ele>185.5</ele>
<desc>Speed 12.8 km/h Distance 56.30 km</desc>
<time>2011-05-22T11:16:27.25</time>
<name>11660</name>
<sym>Dot</sym>
</trkpt>
<trkpt lat="39.714582" lon="-8.522920">
<ele>185.5</ele>
<desc>Speed 13.0 km/h Distance 56.31 km</desc>
<time>2011-05-22T11:16:28.25</time>
<name>11661</name>
<sym>Dot</sym>
</trkpt>
<trkpt lat="39.714570" lon="-8.522960">
<ele>185.0</ele>
<desc>Speed 12.8 km/h Distance 56.31 km</desc>
<time>2011-05-22T11:16:29.25</time>
<name>11662</name>
<sym>Dot</sym>
</trkpt>
<trkpt lat="39.714560" lon="-8.523002">
<ele>185.0</ele>
<desc>Speed 12.9 km/h Distance 56.32 km</desc>
<time>2011-05-22T11:16:30.25</time>
<name>11663</name>
<sym>Dot</sym>
</trkpt>
<trkpt lat="39.714550" lon="-8.523043">
<ele>185.0</ele>
<desc>Speed 13.1 km/h Distance 56.32 km</desc>
<time>2011-05-22T11:16:31.25</time>
<name>11664</name>
<sym>Dot</sym>
</trkpt>
<trkpt lat="39.714537" lon="-8.523083">
<ele>185.0</ele>
<desc>Speed 13.2 km/h Distance 56.32 km</desc>
<time>2011-05-22T11:16:32.25</time>
<name>11665</name>
<sym>Dot</sym>
</trkpt>
<trkpt lat="39.714527" lon="-8.523125">
<ele>185.0</ele>
<desc>Speed 13.0 km/h Distance 56.33 km</desc>
<time>2011-05-22T11:16:33.25</time>
<name>11666</name>
<sym>Dot</sym>
</trkpt>
<trkpt lat="39.714517" lon="-8.523167">
<ele>184.5</ele>
<desc>Speed 12.9 km/h Distance 56.33 km</desc>
<time>2011-05-22T11:16:34.25</time>
<name>11667</name>
<sym>Dot</sym>
</trkpt>
<trkpt lat="39.714508" lon="-8.523208">
<ele>184.5</ele>
<desc>Speed 12.7 km/h Distance 56.33 km</desc>
<time>2011-05-22T11:16:35.25</time>
<name>11668</name>
<sym>Dot</sym>
</trkpt>
<trkpt lat="39.714500" lon="-8.523248">
<ele>184.5</ele>
<desc>Speed 12.3 km/h Distance 56.34 km</desc>
<time>2011-05-22T11:16:36.25</time>
<name>11669</name>
<sym>Dot</sym>
</trkpt>
<trkpt lat="39.714492" lon="-8.523285">
<ele>184.5</ele>
<desc>Speed 12.0 km/h Distance 56.34 km</desc>
<time>2011-05-22T11:16:37.25</time>
<name>11670</name>
<sym>Dot</sym>
</trkpt>
<trkpt lat="39.714483" lon="-8.523325">
<ele>184.0</ele>
<desc>Speed 12.2 km/h Distance 56.34 km</desc>
<time>2011-05-22T11:16:38.25</time>
<name>11671</name>
<sym>Dot</sym>
</trkpt>
<trkpt lat="39.714477" lon="-8.523365">
<ele>184.0</ele>
<desc>Speed 12.2 km/h Distance 56.35 km</desc>
<time>2011-05-22T11:16:39.25</time>
<name>11672</name>
<sym>Dot</sym>
</trkpt>
<trkpt lat="39.714468" lon="-8.523405">
<ele>184.0</ele>
<desc>Speed 12.6 km/h Distance 56.35 km</desc>
<time>2011-05-22T11:16:40.25</time>
<name>11673</name>
<sym>Dot</sym>
</trkpt>
<trkpt lat="39.714457" lon="-8.523443">
<ele>184.5</ele>
<desc>Speed 12.5 km/h Distance 56.36 km</desc>
<time>2011-05-22T11:16:41.25</time>
<name>11674</name>
<sym>Dot</sym>
</trkpt>
<trkpt lat="39.714448" lon="-8.523483">
<ele>184.5</ele>
<desc>Speed 12.5 km/h Distance 56.36 km</desc>
<time>2011-05-22T11:16:42.25</time>
<name>11675</name>
<sym>Dot</sym>
</trkpt>
<trkpt lat="39.714442" lon="-8.523525">
<ele>184.5</ele>
<desc>Speed 13.1 km/h Distance 56.36 km</desc>
<time>2011-05-22T11:16:43.25</time>
<name>11676</name>
<sym>Dot</sym>
</trkpt>
<trkpt lat="39.714435" lon="-8.523568">
<ele>184.5</ele>
<desc>Speed 13.5 km/h Distance 56.37 km</desc>
<time>2011-05-22T11:16:44.25</time>
<name>11677</name>
<sym>Dot</sym>
</trkpt>
<trkpt lat="39.714430" lon="-8.523613">
<ele>184.5</ele>
<desc>Speed 13.8 km/h Distance 56.37 km</desc>
<time>2011-05-22T11:16:45.25</time>
<name>11678</name>
<sym>Dot</sym>
</trkpt>
<trkpt lat="39.714423" lon="-8.523657">
<ele>184.5</ele>
<desc>Speed 13.5 km/h Distance 56.37 km</desc>
<time>2011-05-22T11:16:46.25</time>
<name>11679</name>
<sym>Dot</sym>
</trkpt>
<trkpt lat="39.714418" lon="-8.523700">
<ele>184.5</ele>
<desc>Speed 13.2 km/h Distance 56.38 km</desc>
<time>2011-05-22T11:16:47.25</time>
<name>11680</name>
<sym>Dot</sym>
</trkpt>
<trkpt lat="39.714412" lon="-8.523742">
<ele>184.5</ele>
<desc>Speed 13.0 km/h Distance 56.38 km</desc>
<time>2011-05-22T11:16:48.25</time>
<name>11681</name>
<sym>Dot</sym>
</trkpt>
<trkpt lat="39.714405" lon="-8.523780">
<ele>185.0</ele>
<desc>Speed 12.2 km/h Distance 56.38 km</desc>
<time>2011-05-22T11:16:49.25</time>
<name>11682</name>
<sym>Dot</sym>
</trkpt>
<trkpt lat="39.714400" lon="-8.523822">
<ele>185.5</ele>
<desc>Speed 12.7 km/h Distance 56.39 km</desc>
<time>2011-05-22T11:16:50.25</time>
<name>11683</name>
<sym>Dot</sym>
</trkpt>
<trkpt lat="39.714395" lon="-8.523863">
<ele>185.5</ele>
<desc>Speed 13.4 km/h Distance 56.39 km</desc>
<time>2011-05-22T11:16:51.25</time>
<name>11684</name>
<sym>Dot</sym>
</trkpt>
<trkpt lat="39.714388" lon="-8.523905">
<ele>185.5</ele>
<desc>Speed 13.0 km/h Distance 56.40 km</desc>
<time>2011-05-22T11:16:52.25</time>
<name>11685</name>
<sym>Dot</sym>
</trkpt>
<trkpt lat="39.714382" lon="-8.523947">
<ele>186.0</ele>
<desc>Speed 12.9 km/h Distance 56.40 km</desc>
<time>2011-05-22T11:16:53.25</time>
<name>11686</name>
<sym>Dot</sym>
</trkpt>
<trkpt lat="39.714375" lon="-8.523988">
<ele>186.0</ele>
<desc>Speed 13.3 km/h Distance 56.40 km</desc>
<time>2011-05-22T11:16:54.25</time>
<name>11687</name>
<sym>Dot</sym>
</trkpt>
<trkpt lat="39.714370" lon="-8.524032">
<ele>186.5</ele>
<desc>Speed 13.3 km/h Distance 56.41 km</desc>
<time>2011-05-22T11:16:55.25</time>
<name>11688</name>
<sym>Dot</sym>
</trkpt>
<trkpt lat="39.714365" lon="-8.524073">
<ele>186.5</ele>
<desc>Speed 13.1 km/h Distance 56.41 km</desc>
<time>2011-05-22T11:16:56.25</time>
<name>11689</name>
<sym>Dot</sym>
</trkpt>
<trkpt lat="39.714358" lon="-8.524115">
<ele>186.5</ele>
<desc>Speed 12.9 km/h Distance 56.41 km</desc>
<time>2011-05-22T11:16:57.25</time>
<name>11690</name>
<sym>Dot</sym>
</trkpt>
<trkpt lat="39.714352" lon="-8.524157">
<ele>186.5</ele>
<desc>Speed 12.8 km/h Distance 56.42 km</desc>
<time>2011-05-22T11:16:58.25</time>
<name>11691</name>
<sym>Dot</sym>
</trkpt>
<trkpt lat="39.714342" lon="-8.524197">
<ele>187.0</ele>
<desc>Speed 13.0 km/h Distance 56.42 km</desc>
<time>2011-05-22T11:16:59.25</time>
<name>11692</name>
<sym>Dot</sym>
</trkpt>
<trkpt lat="39.714332" lon="-8.524238">
<ele>187.0</ele>
<desc>Speed 13.5 km/h Distance 56.42 km</desc>
<time>2011-05-22T11:17:00.25</time>
<name>11693</name>
<sym>Dot</sym>
</trkpt>
<trkpt lat="39.714322" lon="-8.524280">
<ele>187.0</ele>
<desc>Speed 13.4 km/h Distance 56.43 km</desc>
<time>2011-05-22T11:17:01.25</time>
<name>11694</name>
<sym>Dot</sym>
</trkpt>
<trkpt lat="39.714308" lon="-8.524322">
<ele>187.0</ele>
<desc>Speed 13.5 km/h Distance 56.43 km</desc>
<time>2011-05-22T11:17:02.25</time>
<name>11695</name>
<sym>Dot</sym>
</trkpt>
<trkpt lat="39.714293" lon="-8.524363">
<ele>187.0</ele>
<desc>Speed 14.3 km/h Distance 56.44 km</desc>
<time>2011-05-22T11:17:03.25</time>
<name>11696</name>
<sym>Dot</sym>
</trkpt>
<trkpt lat="39.714277" lon="-8.524407">
<ele>187.0</ele>
<desc>Speed 14.9 km/h Distance 56.44 km</desc>
<time>2011-05-22T11:17:04.25</time>
<name>11697</name>
<sym>Dot</sym>
</trkpt>
<trkpt lat="39.714260" lon="-8.524452">
<ele>187.0</ele>
<desc>Speed 15.2 km/h Distance 56.44 km</desc>
<time>2011-05-22T11:17:05.25</time>
<name>11698</name>
<sym>Dot</sym>
</trkpt>
<trkpt lat="39.714242" lon="-8.524497">
<ele>187.0</ele>
<desc>Speed 15.3 km/h Distance 56.45 km</desc>
<time>2011-05-22T11:17:06.25</time>
<name>11699</name>
<sym>Dot</sym>
</trkpt>
<trkpt lat="39.714225" lon="-8.524542">
<ele>187.0</ele>
<desc>Speed 15.2 km/h Distance 56.45 km</desc>
<time>2011-05-22T11:17:07.25</time>
<name>11700</name>
<sym>Dot</sym>
</trkpt>
<trkpt lat="39.714205" lon="-8.524585">
<ele>187.0</ele>
<desc>Speed 15.2 km/h Distance 56.46 km</desc>
<time>2011-05-22T11:17:08.25</time>
<name>11701</name>
<sym>Dot</sym>
</trkpt>
<trkpt lat="39.714187" lon="-8.524628">
<ele>186.5</ele>
<desc>Speed 14.9 km/h Distance 56.46 km</desc>
<time>2011-05-22T11:17:09.25</time>
<name>11702</name>
<sym>Dot</sym>
</trkpt>
<trkpt lat="39.714167" lon="-8.524668">
<ele>186.5</ele>
<desc>Speed 14.4 km/h Distance 56.47 km</desc>
<time>2011-05-22T11:17:10.25</time>
<name>11703</name>
<sym>Dot</sym>
</trkpt>
<trkpt lat="39.714150" lon="-8.524708">
<ele>186.5</ele>
<desc>Speed 14.0 km/h Distance 56.47 km</desc>
<time>2011-05-22T11:17:11.25</time>
<name>11704</name>
<sym>Dot</sym>
</trkpt>
<trkpt lat="39.714132" lon="-8.524750">
<ele>186.5</ele>
<desc>Speed 14.3 km/h Distance 56.47 km</desc>
<time>2011-05-22T11:17:12.25</time>
<name>11705</name>
<sym>Dot</sym>
</trkpt>
<trkpt lat="39.714113" lon="-8.524788">
<ele>186.5</ele>
<desc>Speed 14.0 km/h Distance 56.48 km</desc>
<time>2011-05-22T11:17:13.25</time>
<name>11706</name>
<sym>Dot</sym>
</trkpt>
<trkpt lat="39.714095" lon="-8.524825">
<ele>186.5</ele>
<desc>Speed 13.3 km/h Distance 56.48 km</desc>
<time>2011-05-22T11:17:14.25</time>
<name>11707</name>
<sym>Dot</sym>
</trkpt>
<trkpt lat="39.714077" lon="-8.524862">
<ele>186.5</ele>
<desc>Speed 13.2 km/h Distance 56.49 km</desc>
<time>2011-05-22T11:17:15.25</time>
<name>11708</name>
<sym>Dot</sym>
</trkpt>
<trkpt lat="39.714060" lon="-8.524900">
<ele>186.5</ele>
<desc>Speed 13.8 km/h Distance 56.49 km</desc>
<time>2011-05-22T11:17:16.25</time>
<name>11709</name>
<sym>Dot</sym>
</trkpt>
<trkpt lat="39.714042" lon="-8.524938">
<ele>186.5</ele>
<desc>Speed 14.0 km/h Distance 56.49 km</desc>
<time>2011-05-22T11:17:17.25</time>
<name>11710</name>
<sym>Dot</sym>
</trkpt>
<trkpt lat="39.714022" lon="-8.524978">
<ele>186.5</ele>
<desc>Speed 14.2 km/h Distance 56.50 km</desc>
<time>2011-05-22T11:17:18.25</time>
<name>11711</name>
<sym>Dot</sym>
</trkpt>
<trkpt lat="39.714003" lon="-8.525018">
<ele>186.5</ele>
<desc>Speed 14.3 km/h Distance 56.50 km</desc>
<time>2011-05-22T11:17:19.25</time>
<name>11712</name>
<sym>Dot</sym>
</trkpt>
<trkpt lat="39.713985" lon="-8.525058">
<ele>187.0</ele>
<desc>Speed 14.5 km/h Distance 56.51 km</desc>
<time>2011-05-22T11:17:20.25</time>
<name>11713</name>
<sym>Dot</sym>
</trkpt>
<trkpt lat="39.713968" lon="-8.525102">
<ele>186.5</ele>
<desc>Speed 14.9 km/h Distance 56.51 km</desc>
<time>2011-05-22T11:17:21.25</time>
<name>11714</name>
<sym>Dot</sym>
</trkpt>
<trkpt lat="39.713948" lon="-8.525145">
<ele>187.0</ele>
<desc>Speed 15.4 km/h Distance 56.51 km</desc>
<time>2011-05-22T11:17:22.25</time>
<name>11715</name>
<sym>Dot</sym>
</trkpt>
<trkpt lat="39.713932" lon="-8.525187">
<ele>186.5</ele>
<desc>Speed 14.3 km/h Distance 56.52 km</desc>
<time>2011-05-22T11:17:23.25</time>
<name>11716</name>
<sym>Dot</sym>
</trkpt>
<trkpt lat="39.713915" lon="-8.525225">
<ele>186.5</ele>
<desc>Speed 13.5 km/h Distance 56.52 km</desc>
<time>2011-05-22T11:17:24.25</time>
<name>11717</name>
<sym>Dot</sym>
</trkpt>
<trkpt lat="39.713898" lon="-8.525265">
<ele>186.5</ele>
<desc>Speed 13.6 km/h Distance 56.53 km</desc>
<time>2011-05-22T11:17:25.25</time>
<name>11718</name>
<sym>Dot</sym>
</trkpt>
<trkpt lat="39.713880" lon="-8.525305">
<ele>186.5</ele>
<desc>Speed 14.3 km/h Distance 56.53 km</desc>
<time>2011-05-22T11:17:26.25</time>
<name>11719</name>
<sym>Dot</sym>
</trkpt>
<trkpt lat="39.713860" lon="-8.525347">
<ele>186.5</ele>
<desc>Speed 14.5 km/h Distance 56.53 km</desc>
<time>2011-05-22T11:17:27.25</time>
<name>11720</name>
<sym>Dot</sym>
</trkpt>
<trkpt lat="39.713842" lon="-8.525390">
<ele>186.5</ele>
<desc>Speed 15.2 km/h Distance 56.54 km</desc>
<time>2011-05-22T11:17:28.25</time>
<name>11721</name>
<sym>Dot</sym>
</trkpt>
<trkpt lat="39.713825" lon="-8.525433">
<ele>187.0</ele>
<desc>Speed 14.9 km/h Distance 56.54 km</desc>
<time>2011-05-22T11:17:29.25</time>
<name>11722</name>
<sym>Dot</sym>
</trkpt>
<trkpt lat="39.713805" lon="-8.525478">
<ele>187.0</ele>
<desc>Speed 15.8 km/h Distance 56.55 km</desc>
<time>2011-05-22T11:17:30.25</time>
<name>11723</name>
<sym>Dot</sym>
</trkpt>
<trkpt lat="39.713785" lon="-8.525527">
<ele>187.0</ele>
<desc>Speed 16.7 km/h Distance 56.55 km</desc>
<time>2011-05-22T11:17:31.25</time>
<name>11724</name>
<sym>Dot</sym>
</trkpt>
<trkpt lat="39.713767" lon="-8.525577">
<ele>186.5</ele>
<desc>Speed 17.0 km/h Distance 56.56 km</desc>
<time>2011-05-22T11:17:32.25</time>
<name>11725</name>
<sym>Dot</sym>
</trkpt>
<trkpt lat="39.713748" lon="-8.525628">
<ele>186.5</ele>
<desc>Speed 17.0 km/h Distance 56.56 km</desc>
<time>2011-05-22T11:17:33.25</time>
<name>11726</name>
<sym>Dot</sym>
</trkpt>
<trkpt lat="39.713732" lon="-8.525678">
<ele>186.5</ele>
<desc>Speed 16.5 km/h Distance 56.57 km</desc>
<time>2011-05-22T11:17:34.25</time>
<name>11727</name>
<sym>Dot</sym>
</trkpt>
<trkpt lat="39.713717" lon="-8.525730">
<ele>186.5</ele>
<desc>Speed 17.1 km/h Distance 56.57 km</desc>
<time>2011-05-22T11:17:35.25</time>
<name>11728</name>
<sym>Dot</sym>
</trkpt>
<trkpt lat="39.713700" lon="-8.525783">
<ele>186.5</ele>
<desc>Speed 17.4 km/h Distance 56.57 km</desc>
<time>2011-05-22T11:17:36.25</time>
<name>11729</name>
<sym>Dot</sym>
</trkpt>
<trkpt lat="39.713687" lon="-8.525838">
<ele>186.5</ele>
<desc>Speed 17.9 km/h Distance 56.58 km</desc>
<time>2011-05-22T11:17:37.25</time>
<name>11730</name>
<sym>Dot</sym>
</trkpt>
<trkpt lat="39.713678" lon="-8.525890">
<ele>187.0</ele>
<desc>Speed 16.3 km/h Distance 56.58 km</desc>
<time>2011-05-22T11:17:38.25</time>
<name>11731</name>
<sym>Dot</sym>
</trkpt>
<trkpt lat="39.713668" lon="-8.525942">
<ele>187.5</ele>
<desc>Speed 16.1 km/h Distance 56.59 km</desc>
<time>2011-05-22T11:17:39.25</time>
<name>11732</name>
<sym>Dot</sym>
</trkpt>
<trkpt lat="39.713658" lon="-8.525992">
<ele>187.5</ele>
<desc>Speed 16.3 km/h Distance 56.59 km</desc>
<time>2011-05-22T11:17:40.25</time>
<name>11733</name>
<sym>Dot</sym>
</trkpt>
<trkpt lat="39.713648" lon="-8.526043">
<ele>187.5</ele>
<desc>Speed 16.2 km/h Distance 56.60 km</desc>
<time>2011-05-22T11:17:41.25</time>
<name>11734</name>
<sym>Dot</sym>
</trkpt>
<trkpt lat="39.713638" lon="-8.526095">
<ele>187.5</ele>
<desc>Speed 16.1 km/h Distance 56.60 km</desc>
<time>2011-05-22T11:17:42.25</time>
<name>11735</name>
<sym>Dot</sym>
</trkpt>
<trkpt lat="39.713627" lon="-8.526145">
<ele>187.5</ele>
<desc>Speed 16.1 km/h Distance 56.61 km</desc>
<time>2011-05-22T11:17:43.25</time>
<name>11736</name>
<sym>Dot</sym>
</trkpt>
<trkpt lat="39.713617" lon="-8.526197">
<ele>187.5</ele>
<desc>Speed 16.1 km/h Distance 56.61 km</desc>
<time>2011-05-22T11:17:44.25</time>
<name>11737</name>
<sym>Dot</sym>
</trkpt>
<trkpt lat="39.713605" lon="-8.526248">
<ele>187.5</ele>
<desc>Speed 16.7 km/h Distance 56.62 km</desc>
<time>2011-05-22T11:17:45.25</time>
<name>11738</name>
<sym>Dot</sym>
</trkpt>
<trkpt lat="39.713597" lon="-8.526302">
<ele>187.5</ele>
<desc>Speed 16.5 km/h Distance 56.62 km</desc>
<time>2011-05-22T11:17:46.25</time>
<name>11739</name>
<sym>Dot</sym>
</trkpt>
<trkpt lat="39.713588" lon="-8.526353">
<ele>187.0</ele>
<desc>Speed 16.1 km/h Distance 56.63 km</desc>
<time>2011-05-22T11:17:47.25</time>
<name>11740</name>
<sym>Dot</sym>
</trkpt>
<trkpt lat="39.713578" lon="-8.526405">
<ele>187.0</ele>
<desc>Speed 16.5 km/h Distance 56.63 km</desc>
<time>2011-05-22T11:17:48.25</time>
<name>11741</name>
<sym>Dot</sym>
</trkpt>
<trkpt lat="39.713570" lon="-8.526458">
<ele>187.0</ele>
<desc>Speed 16.5 km/h Distance 56.63 km</desc>
<time>2011-05-22T11:17:49.25</time>
<name>11742</name>
<sym>Dot</sym>
</trkpt>
<trkpt lat="39.713562" lon="-8.526512">
<ele>187.0</ele>
<desc>Speed 16.4 km/h Distance 56.64 km</desc>
<time>2011-05-22T11:17:50.25</time>
<name>11743</name>
<sym>Dot</sym>
</trkpt>
<trkpt lat="39.713550" lon="-8.526562">
<ele>187.0</ele>
<desc>Speed 16.2 km/h Distance 56.64 km</desc>
<time>2011-05-22T11:17:51.25</time>
<name>11744</name>
<sym>Dot</sym>
</trkpt>
<trkpt lat="39.713538" lon="-8.526613">
<ele>187.0</ele>
<desc>Speed 16.3 km/h Distance 56.65 km</desc>
<time>2011-05-22T11:17:52.25</time>
<name>11745</name>
<sym>Dot</sym>
</trkpt>
<trkpt lat="39.713527" lon="-8.526665">
<ele>187.0</ele>
<desc>Speed 16.5 km/h Distance 56.65 km</desc>
<time>2011-05-22T11:17:53.25</time>
<name>11746</name>
<sym>Dot</sym>
</trkpt>
<trkpt lat="39.713513" lon="-8.526717">
<ele>187.0</ele>
<desc>Speed 16.6 km/h Distance 56.66 km</desc>
<time>2011-05-22T11:17:54.25</time>
<name>11747</name>
<sym>Dot</sym>
</trkpt>
<trkpt lat="39.713498" lon="-8.526767">
<ele>187.0</ele>
<desc>Speed 16.5 km/h Distance 56.66 km</desc>
<time>2011-05-22T11:17:55.25</time>
<name>11748</name>
<sym>Dot</sym>
</trkpt>
<trkpt lat="39.713483" lon="-8.526817">
<ele>187.0</ele>
<desc>Speed 16.7 km/h Distance 56.67 km</desc>
<time>2011-05-22T11:17:56.25</time>
<name>11749</name>
<sym>Dot</sym>
</trkpt>
<trkpt lat="39.713468" lon="-8.526863">
<ele>187.5</ele>
<desc>Speed 16.2 km/h Distance 56.67 km</desc>
<time>2011-05-22T11:17:57.25</time>
<name>11750</name>
<sym>Dot</sym>
</trkpt>
<trkpt lat="39.713452" lon="-8.526912">
<ele>187.5</ele>
<desc>Speed 16.3 km/h Distance 56.68 km</desc>
<time>2011-05-22T11:17:58.25</time>
<name>11751</name>
<sym>Dot</sym>
</trkpt>
<trkpt lat="39.713432" lon="-8.526957">
<ele>187.5</ele>
<desc>Speed 16.1 km/h Distance 56.68 km</desc>
<time>2011-05-22T11:17:59.25</time>
<name>11752</name>
<sym>Dot</sym>
</trkpt>
<trkpt lat="39.713412" lon="-8.527002">
<ele>187.5</ele>
<desc>Speed 16.2 km/h Distance 56.68 km</desc>
<time>2011-05-22T11:18:00.25</time>
<name>11753</name>
<sym>Dot</sym>
</trkpt>
<trkpt lat="39.713392" lon="-8.527047">
<ele>188.0</ele>
<desc>Speed 16.0 km/h Distance 56.69 km</desc>
<time>2011-05-22T11:18:01.25</time>
<name>11754</name>
<sym>Dot</sym>
</trkpt>
<trkpt lat="39.713372" lon="-8.527090">
<ele>188.0</ele>
<desc>Speed 15.8 km/h Distance 56.69 km</desc>
<time>2011-05-22T11:18:02.25</time>
<name>11755</name>
<sym>Dot</sym>
</trkpt>
<trkpt lat="39.713352" lon="-8.527133">
<ele>188.0</ele>
<desc>Speed 15.7 km/h Distance 56.70 km</desc>
<time>2011-05-22T11:18:03.25</time>
<name>11756</name>
<sym>Dot</sym>
</trkpt>
<trkpt lat="39.713332" lon="-8.527177">
<ele>188.0</ele>
<desc>Speed 15.8 km/h Distance 56.70 km</desc>
<time>2011-05-22T11:18:04.25</time>
<name>11757</name>
<sym>Dot</sym>
</trkpt>
<trkpt lat="39.713312" lon="-8.527220">
<ele>188.0</ele>
<desc>Speed 15.8 km/h Distance 56.71 km</desc>
<time>2011-05-22T11:18:05.25</time>
<name>11758</name>
<sym>Dot</sym>
</trkpt>
<trkpt lat="39.713288" lon="-8.527260">
<ele>188.0</ele>
<desc>Speed 15.6 km/h Distance 56.71 km</desc>
<time>2011-05-22T11:18:06.25</time>
<name>11759</name>
<sym>Dot</sym>
</trkpt>
<trkpt lat="39.713268" lon="-8.527300">
<ele>188.5</ele>
<desc>Speed 14.8 km/h Distance 56.71 km</desc>
<time>2011-05-22T11:18:07.25</time>
<name>11760</name>
<sym>Dot</sym>
</trkpt>
<trkpt lat="39.713248" lon="-8.527338">
<ele>188.5</ele>
<desc>Speed 14.2 km/h Distance 56.72 km</desc>
<time>2011-05-22T11:18:08.25</time>
<name>11761</name>
<sym>Dot</sym>
</trkpt>
<trkpt lat="39.713232" lon="-8.527375">
<ele>189.0</ele>
<desc>Speed 13.2 km/h Distance 56.72 km</desc>
<time>2011-05-22T11:18:09.25</time>
<name>11762</name>
<sym>Dot</sym>
</trkpt>
<trkpt lat="39.713215" lon="-8.527410">
<ele>189.0</ele>
<desc>Speed 12.9 km/h Distance 56.73 km</desc>
<time>2011-05-22T11:18:10.25</time>
<name>11763</name>
<sym>Dot</sym>
</trkpt>
<trkpt lat="39.713198" lon="-8.527447">
<ele>189.0</ele>
<desc>Speed 13.1 km/h Distance 56.73 km</desc>
<time>2011-05-22T11:18:11.25</time>
<name>11764</name>
<sym>Dot</sym>
</trkpt>
<trkpt lat="39.713182" lon="-8.527480">
<ele>189.0</ele>
<desc>Speed 12.4 km/h Distance 56.73 km</desc>
<time>2011-05-22T11:18:12.25</time>
<name>11765</name>
<sym>Dot</sym>
</trkpt>
<trkpt lat="39.713163" lon="-8.527513">
<ele>189.0</ele>
<desc>Speed 12.4 km/h Distance 56.74 km</desc>
<time>2011-05-22T11:18:13.25</time>
<name>11766</name>
<sym>Dot</sym>
</trkpt>
<trkpt lat="39.713143" lon="-8.527545">
<ele>189.0</ele>
<desc>Speed 12.5 km/h Distance 56.74 km</desc>
<time>2011-05-22T11:18:14.25</time>
<name>11767</name>
<sym>Dot</sym>
</trkpt>
<trkpt lat="39.713125" lon="-8.527575">
<ele>189.5</ele>
<desc>Speed 11.7 km/h Distance 56.74 km</desc>
<time>2011-05-22T11:18:15.25</time>
<name>11768</name>
<sym>Dot</sym>
</trkpt>
<trkpt lat="39.713108" lon="-8.527605">
<ele>189.5</ele>
<desc>Speed 11.7 km/h Distance 56.75 km</desc>
<time>2011-05-22T11:18:16.25</time>
<name>11769</name>
<sym>Dot</sym>
</trkpt>
<trkpt lat="39.713090" lon="-8.527638">
<ele>189.5</ele>
<desc>Speed 12.2 km/h Distance 56.75 km</desc>
<time>2011-05-22T11:18:17.25</time>
<name>11770</name>
<sym>Dot</sym>
</trkpt>
<trkpt lat="39.713073" lon="-8.527670">
<ele>190.0</ele>
<desc>Speed 12.3 km/h Distance 56.75 km</desc>
<time>2011-05-22T11:18:18.25</time>
<name>11771</name>
<sym>Dot</sym>
</trkpt>
<trkpt lat="39.713055" lon="-8.527705">
<ele>190.0</ele>
<desc>Speed 12.6 km/h Distance 56.76 km</desc>
<time>2011-05-22T11:18:19.25</time>
<name>11772</name>
<sym>Dot</sym>
</trkpt>
<trkpt lat="39.713038" lon="-8.527740">
<ele>190.0</ele>
<desc>Speed 12.8 km/h Distance 56.76 km</desc>
<time>2011-05-22T11:18:20.25</time>
<name>11773</name>
<sym>Dot</sym>
</trkpt>
<trkpt lat="39.713018" lon="-8.527775">
<ele>190.5</ele>
<desc>Speed 13.2 km/h Distance 56.76 km</desc>
<time>2011-05-22T11:18:21.25</time>
<name>11774</name>
<sym>Dot</sym>
</trkpt>
<trkpt lat="39.712998" lon="-8.527812">
<ele>190.5</ele>
<desc>Speed 13.8 km/h Distance 56.77 km</desc>
<time>2011-05-22T11:18:22.25</time>
<name>11775</name>
<sym>Dot</sym>
</trkpt>
<trkpt lat="39.712978" lon="-8.527848">
<ele>190.5</ele>
<desc>Speed 13.9 km/h Distance 56.77 km</desc>
<time>2011-05-22T11:18:23.25</time>
<name>11776</name>
<sym>Dot</sym>
</trkpt>
<trkpt lat="39.712957" lon="-8.527887">
<ele>190.5</ele>
<desc>Speed 13.9 km/h Distance 56.78 km</desc>
<time>2011-05-22T11:18:24.25</time>
<name>11777</name>
<sym>Dot</sym>
</trkpt>
<trkpt lat="39.712938" lon="-8.527923">
<ele>190.5</ele>
<desc>Speed 13.7 km/h Distance 56.78 km</desc>
<time>2011-05-22T11:18:25.25</time>
<name>11778</name>
<sym>Dot</sym>
</trkpt>
<trkpt lat="39.712918" lon="-8.527960">
<ele>190.5</ele>
<desc>Speed 13.7 km/h Distance 56.78 km</desc>
<time>2011-05-22T11:18:26.25</time>
<name>11779</name>
<sym>Dot</sym>
</trkpt>
<trkpt lat="39.712900" lon="-8.527995">
<ele>190.5</ele>
<desc>Speed 12.9 km/h Distance 56.79 km</desc>
<time>2011-05-22T11:18:27.25</time>
<name>11780</name>
<sym>Dot</sym>
</trkpt>
<trkpt lat="39.712883" lon="-8.528025">
<ele>190.5</ele>
<desc>Speed 11.7 km/h Distance 56.79 km</desc>
<time>2011-05-22T11:18:28.25</time>
<name>11781</name>
<sym>Dot</sym>
</trkpt>
<trkpt lat="39.712867" lon="-8.528055">
<ele>190.5</ele>
<desc>Speed 11.4 km/h Distance 56.79 km</desc>
<time>2011-05-22T11:18:29.25</time>
<name>11782</name>
<sym>Dot</sym>
</trkpt>
<trkpt lat="39.712852" lon="-8.528085">
<ele>190.5</ele>
<desc>Speed 10.7 km/h Distance 56.80 km</desc>
<time>2011-05-22T11:18:30.25</time>
<name>11783</name>
<sym>Dot</sym>
</trkpt>
<trkpt lat="39.712838" lon="-8.528113">
<ele>190.5</ele>
<desc>Speed 10.5 km/h Distance 56.80 km</desc>
<time>2011-05-22T11:18:31.25</time>
<name>11784</name>
<sym>Dot</sym>
</trkpt>
<trkpt lat="39.712822" lon="-8.528142">
<ele>191.0</ele>
<desc>Speed 10.7 km/h Distance 56.80 km</desc>
<time>2011-05-22T11:18:32.25</time>
<name>11785</name>
<sym>Dot</sym>
</trkpt>
<trkpt lat="39.712802" lon="-8.528168">
<ele>191.0</ele>
<desc>Speed 11.5 km/h Distance 56.81 km</desc>
<time>2011-05-22T11:18:33.25</time>
<name>11786</name>
<sym>Dot</sym>
</trkpt>
<trkpt lat="39.712787" lon="-8.528202">
<ele>191.5</ele>
<desc>Speed 12.3 km/h Distance 56.81 km</desc>
<time>2011-05-22T11:18:34.25</time>
<name>11787</name>
<sym>Dot</sym>
</trkpt>
<trkpt lat="39.712770" lon="-8.528242">
<ele>191.5</ele>
<desc>Speed 13.9 km/h Distance 56.81 km</desc>
<time>2011-05-22T11:18:35.25</time>
<name>11788</name>
<sym>Dot</sym>
</trkpt>
<trkpt lat="39.712748" lon="-8.528275">
<ele>191.5</ele>
<desc>Speed 13.4 km/h Distance 56.82 km</desc>
<time>2011-05-22T11:18:36.25</time>
<name>11789</name>
<sym>Dot</sym>
</trkpt>
<trkpt lat="39.712730" lon="-8.528315">
<ele>191.5</ele>
<desc>Speed 14.6 km/h Distance 56.82 km</desc>
<time>2011-05-22T11:18:37.25</time>
<name>11790</name>
<sym>Dot</sym>
</trkpt>
<trkpt lat="39.712712" lon="-8.528355">
<ele>191.5</ele>
<desc>Speed 14.7 km/h Distance 56.82 km</desc>
<time>2011-05-22T11:18:38.25</time>
<name>11791</name>
<sym>Dot</sym>
</trkpt>
<trkpt lat="39.712690" lon="-8.528393">
<ele>191.5</ele>
<desc>Speed 14.6 km/h Distance 56.83 km</desc>
<time>2011-05-22T11:18:39.25</time>
<name>11792</name>
<sym>Dot</sym>
</trkpt>
<trkpt lat="39.712668" lon="-8.528432">
<ele>191.5</ele>
<desc>Speed 14.4 km/h Distance 56.83 km</desc>
<time>2011-05-22T11:18:40.25</time>
<name>11793</name>
<sym>Dot</sym>
</trkpt>
<trkpt lat="39.712648" lon="-8.528470">
<ele>191.5</ele>
<desc>Speed 14.3 km/h Distance 56.84 km</desc>
<time>2011-05-22T11:18:41.25</time>
<name>11794</name>
<sym>Dot</sym>
</trkpt>
<trkpt lat="39.712628" lon="-8.528510">
<ele>191.5</ele>
<desc>Speed 14.4 km/h Distance 56.84 km</desc>
<time>2011-05-22T11:18:42.25</time>
<name>11795</name>
<sym>Dot</sym>
</trkpt>
<trkpt lat="39.712607" lon="-8.528548">
<ele>191.5</ele>
<desc>Speed 14.7 km/h Distance 56.84 km</desc>
<time>2011-05-22T11:18:43.25</time>
<name>11796</name>
<sym>Dot</sym>
</trkpt>
<trkpt lat="39.712582" lon="-8.528585">
<ele>191.5</ele>
<desc>Speed 15.0 km/h Distance 56.85 km</desc>
<time>2011-05-22T11:18:44.25</time>
<name>11797</name>
<sym>Dot</sym>
</trkpt>
<trkpt lat="39.712557" lon="-8.528625">
<ele>191.5</ele>
<desc>Speed 15.4 km/h Distance 56.85 km</desc>
<time>2011-05-22T11:18:45.25</time>
<name>11798</name>
<sym>Dot</sym>
</trkpt>
<trkpt lat="39.712532" lon="-8.528665">
<ele>191.0</ele>
<desc>Speed 15.9 km/h Distance 56.86 km</desc>
<time>2011-05-22T11:18:46.25</time>
<name>11799</name>
<sym>Dot</sym>
</trkpt>
<trkpt lat="39.712505" lon="-8.528703">
<ele>191.0</ele>
<desc>Speed 15.3 km/h Distance 56.86 km</desc>
<time>2011-05-22T11:18:47.25</time>
<name>11800</name>
<sym>Dot</sym>
</trkpt>
<trkpt lat="39.712478" lon="-8.528742">
<ele>190.5</ele>
<desc>Speed 15.6 km/h Distance 56.87 km</desc>
<time>2011-05-22T11:18:48.25</time>
<name>11801</name>
<sym>Dot</sym>
</trkpt>
<trkpt lat="39.712450" lon="-8.528782">
<ele>190.5</ele>
<desc>Speed 16.0 km/h Distance 56.87 km</desc>
<time>2011-05-22T11:18:49.25</time>
<name>11802</name>
<sym>Dot</sym>
</trkpt>
<trkpt lat="39.712420" lon="-8.528820">
<ele>190.0</ele>
<desc>Speed 16.4 km/h Distance 56.88 km</desc>
<time>2011-05-22T11:18:50.25</time>
<name>11803</name>
<sym>Dot</sym>
</trkpt>
<trkpt lat="39.712390" lon="-8.528862">
<ele>190.0</ele>
<desc>Speed 16.9 km/h Distance 56.88 km</desc>
<time>2011-05-22T11:18:51.25</time>
<name>11804</name>
<sym>Dot</sym>
</trkpt>
<trkpt lat="39.712360" lon="-8.528902">
<ele>190.0</ele>
<desc>Speed 17.3 km/h Distance 56.89 km</desc>
<time>2011-05-22T11:18:52.25</time>
<name>11805</name>
<sym>Dot</sym>
</trkpt>
<trkpt lat="39.712328" lon="-8.528943">
<ele>189.5</ele>
<desc>Speed 17.7 km/h Distance 56.89 km</desc>
<time>2011-05-22T11:18:53.25</time>
<name>11806</name>
<sym>Dot</sym>
</trkpt>
<trkpt lat="39.712298" lon="-8.528988">
<ele>189.5</ele>
<desc>Speed 18.0 km/h Distance 56.90 km</desc>
<time>2011-05-22T11:18:54.25</time>
<name>11807</name>
<sym>Dot</sym>
</trkpt>
<trkpt lat="39.712265" lon="-8.529033">
<ele>189.0</ele>
<desc>Speed 18.8 km/h Distance 56.90 km</desc>
<time>2011-05-22T11:18:55.25</time>
<name>11808</name>
<sym>Dot</sym>
</trkpt>
<trkpt lat="39.712235" lon="-8.529080">
<ele>189.0</ele>
<desc>Speed 18.8 km/h Distance 56.91 km</desc>
<time>2011-05-22T11:18:56.25</time>
<name>11809</name>
<sym>Dot</sym>
</trkpt>
<trkpt lat="39.712203" lon="-8.529130">
<ele>188.5</ele>
<desc>Speed 19.4 km/h Distance 56.91 km</desc>
<time>2011-05-22T11:18:57.25</time>
<name>11810</name>
<sym>Dot</sym>
</trkpt>
<trkpt lat="39.712173" lon="-8.529183">
<ele>188.5</ele>
<desc>Speed 19.9 km/h Distance 56.92 km</desc>
<time>2011-05-22T11:18:58.25</time>
<name>11811</name>
<sym>Dot</sym>
</trkpt>
<trkpt lat="39.712145" lon="-8.529238">
<ele>188.0</ele>
<desc>Speed 20.4 km/h Distance 56.92 km</desc>
<time>2011-05-22T11:18:59.25</time>
<name>11812</name>
<sym>Dot</sym>
</trkpt>
<trkpt lat="39.712117" lon="-8.529295">
<ele>188.0</ele>
<desc>Speed 20.4 km/h Distance 56.93 km</desc>
<time>2011-05-22T11:19:00.25</time>
<name>11813</name>
<sym>Dot</sym>
</trkpt>
<trkpt lat="39.712087" lon="-8.529352">
<ele>188.0</ele>
<desc>Speed 20.8 km/h Distance 56.93 km</desc>
<time>2011-05-22T11:19:01.25</time>
<name>11814</name>
<sym>Dot</sym>
</trkpt>
<trkpt lat="39.712060" lon="-8.529412">
<ele>188.0</ele>
<desc>Speed 21.5 km/h Distance 56.94 km</desc>
<time>2011-05-22T11:19:02.25</time>
<name>11815</name>
<sym>Dot</sym>
</trkpt>
<trkpt lat="39.712033" lon="-8.529473">
<ele>187.5</ele>
<desc>Speed 21.7 km/h Distance 56.95 km</desc>
<time>2011-05-22T11:19:03.25</time>
<name>11816</name>
<sym>Dot</sym>
</trkpt>
<trkpt lat="39.712008" lon="-8.529537">
<ele>187.0</ele>
<desc>Speed 21.5 km/h Distance 56.95 km</desc>
<time>2011-05-22T11:19:04.25</time>
<name>11817</name>
<sym>Dot</sym>
</trkpt>
<trkpt lat="39.711982" lon="-8.529598">
<ele>187.0</ele>
<desc>Speed 21.6 km/h Distance 56.96 km</desc>
<time>2011-05-22T11:19:05.25</time>
<name>11818</name>
<sym>Dot</sym>
</trkpt>
<trkpt lat="39.711957" lon="-8.529658">
<ele>186.5</ele>
<desc>Speed 21.0 km/h Distance 56.96 km</desc>
<time>2011-05-22T11:19:06.25</time>
<name>11819</name>
<sym>Dot</sym>
</trkpt>
<trkpt lat="39.711932" lon="-8.529718">
<ele>186.5</ele>
<desc>Speed 20.9 km/h Distance 56.97 km</desc>
<time>2011-05-22T11:19:07.25</time>
<name>11820</name>
<sym>Dot</sym>
</trkpt>
<trkpt lat="39.711910" lon="-8.529782">
<ele>186.5</ele>
<desc>Speed 21.0 km/h Distance 56.98 km</desc>
<time>2011-05-22T11:19:08.25</time>
<name>11821</name>
<sym>Dot</sym>
</trkpt>
<trkpt lat="39.711892" lon="-8.529845">
<ele>186.0</ele>
<desc>Speed 21.1 km/h Distance 56.98 km</desc>
<time>2011-05-22T11:19:09.25</time>
<name>11822</name>
<sym>Dot</sym>
</trkpt>
<trkpt lat="39.711870" lon="-8.529908">
<ele>186.0</ele>
<desc>Speed 21.0 km/h Distance 56.99 km</desc>
<time>2011-05-22T11:19:10.25</time>
<name>11823</name>
<sym>Dot</sym>
</trkpt>
<trkpt lat="39.711847" lon="-8.529970">
<ele>186.0</ele>
<desc>Speed 21.0 km/h Distance 56.99 km</desc>
<time>2011-05-22T11:19:11.25</time>
<name>11824</name>
<sym>Dot</sym>
</trkpt>
<trkpt lat="39.711823" lon="-8.530030">
<ele>186.0</ele>
<desc>Speed 20.6 km/h Distance 57.00 km</desc>
<time>2011-05-22T11:19:12.25</time>
<name>11825</name>
<sym>Dot</sym>
</trkpt>
<trkpt lat="39.711802" lon="-8.530090">
<ele>185.5</ele>
<desc>Speed 20.4 km/h Distance 57.01 km</desc>
<time>2011-05-22T11:19:13.25</time>
<name>11826</name>
<sym>Dot</sym>
</trkpt>
<trkpt lat="39.711782" lon="-8.530152">
<ele>185.5</ele>
<desc>Speed 20.6 km/h Distance 57.01 km</desc>
<time>2011-05-22T11:19:14.25</time>
<name>11827</name>
<sym>Dot</sym>
</trkpt>
<trkpt lat="39.711755" lon="-8.530207">
<ele>186.0</ele>
<desc>Speed 20.3 km/h Distance 57.02 km</desc>
<time>2011-05-22T11:19:15.25</time>
<name>11828</name>
<sym>Dot</sym>
</trkpt>
<trkpt lat="39.711718" lon="-8.530258">
<ele>186.0</ele>
<desc>Speed 21.4 km/h Distance 57.02 km</desc>
<time>2011-05-22T11:19:16.25</time>
<name>11829</name>
<sym>Dot</sym>
</trkpt>
<trkpt lat="39.711675" lon="-8.530302">
<ele>186.0</ele>
<desc>Speed 21.3 km/h Distance 57.03 km</desc>
<time>2011-05-22T11:19:17.25</time>
<name>11830</name>
<sym>Dot</sym>
</trkpt>
<trkpt lat="39.711630" lon="-8.530335">
<ele>186.0</ele>
<desc>Speed 21.0 km/h Distance 57.03 km</desc>
<time>2011-05-22T11:19:18.25</time>
<name>11831</name>
<sym>Dot</sym>
</trkpt>
<trkpt lat="39.711578" lon="-8.530358">
<ele>186.0</ele>
<desc>Speed 21.6 km/h Distance 57.04 km</desc>
<time>2011-05-22T11:19:19.25</time>
<name>11832</name>
<sym>Dot</sym>
</trkpt>
<trkpt lat="39.711523" lon="-8.530372">
<ele>187.0</ele>
<desc>Speed 22.4 km/h Distance 57.05 km</desc>
<time>2011-05-22T11:19:20.25</time>
<name>11833</name>
<sym>Dot</sym>
</trkpt>
<trkpt lat="39.711468" lon="-8.530380">
<ele>188.0</ele>
<desc>Speed 22.6 km/h Distance 57.05 km</desc>
<time>2011-05-22T11:19:21.25</time>
<name>11834</name>
<sym>Dot</sym>
</trkpt>
<trkpt lat="39.711413" lon="-8.530382">
<ele>187.0</ele>
<desc>Speed 21.5 km/h Distance 57.06 km</desc>
<time>2011-05-22T11:19:22.25</time>
<name>11835</name>
<sym>Dot</sym>
</trkpt>
<trkpt lat="39.711358" lon="-8.530387">
<ele>187.5</ele>
<desc>Speed 22.5 km/h Distance 57.07 km</desc>
<time>2011-05-22T11:19:23.25</time>
<name>11836</name>
<sym>Dot</sym>
</trkpt>
<trkpt lat="39.711298" lon="-8.530393">
<ele>188.0</ele>
<desc>Speed 23.5 km/h Distance 57.07 km</desc>
<time>2011-05-22T11:19:24.25</time>
<name>11837</name>
<sym>Dot</sym>
</trkpt>
<trkpt lat="39.711242" lon="-8.530400">
<ele>189.0</ele>
<desc>Speed 22.4 km/h Distance 57.08 km</desc>
<time>2011-05-22T11:19:25.25</time>
<name>11838</name>
<sym>Dot</sym>
</trkpt>
<trkpt lat="39.711185" lon="-8.530407">
<ele>189.0</ele>
<desc>Speed 22.4 km/h Distance 57.08 km</desc>
<time>2011-05-22T11:19:26.25</time>
<name>11839</name>
<sym>Dot</sym>
</trkpt>
<trkpt lat="39.711127" lon="-8.530413">
<ele>189.5</ele>
<desc>Speed 23.0 km/h Distance 57.09 km</desc>
<time>2011-05-22T11:19:27.25</time>
<name>11840</name>
<sym>Dot</sym>
</trkpt>
<trkpt lat="39.711065" lon="-8.530432">
<ele>189.5</ele>
<desc>Speed 25.1 km/h Distance 57.10 km</desc>
<time>2011-05-22T11:19:28.25</time>
<name>11841</name>
<sym>Dot</sym>
</trkpt>
<trkpt lat="39.711008" lon="-8.530450">
<ele>189.5</ele>
<desc>Speed 23.7 km/h Distance 57.10 km</desc>
<time>2011-05-22T11:19:29.25</time>
<name>11842</name>
<sym>Dot</sym>
</trkpt>
<trkpt lat="39.710952" lon="-8.530478">
<ele>189.5</ele>
<desc>Speed 24.1 km/h Distance 57.11 km</desc>
<time>2011-05-22T11:19:30.25</time>
<name>11843</name>
<sym>Dot</sym>
</trkpt>
<trkpt lat="39.710897" lon="-8.530512">
<ele>189.5</ele>
<desc>Speed 24.0 km/h Distance 57.12 km</desc>
<time>2011-05-22T11:19:31.25</time>
<name>11844</name>
<sym>Dot</sym>
</trkpt>
<trkpt lat="39.710845" lon="-8.530547">
<ele>189.5</ele>
<desc>Speed 23.8 km/h Distance 57.12 km</desc>
<time>2011-05-22T11:19:32.25</time>
<name>11845</name>
<sym>Dot</sym>
</trkpt>
<trkpt lat="39.710795" lon="-8.530587">
<ele>189.5</ele>
<desc>Speed 23.3 km/h Distance 57.13 km</desc>
<time>2011-05-22T11:19:33.25</time>
<name>11846</name>
<sym>Dot</sym>
</trkpt>
<trkpt lat="39.710748" lon="-8.530630">
<ele>189.5</ele>
<desc>Speed 23.2 km/h Distance 57.14 km</desc>
<time>2011-05-22T11:19:34.25</time>
<name>11847</name>
<sym>Dot</sym>
</trkpt>
<trkpt lat="39.710703" lon="-8.530673">
<ele>189.5</ele>
<desc>Speed 22.9 km/h Distance 57.14 km</desc>
<time>2011-05-22T11:19:35.25</time>
<name>11848</name>
<sym>Dot</sym>
</trkpt>
<trkpt lat="39.710657" lon="-8.530718">
<ele>189.5</ele>
<desc>Speed 22.9 km/h Distance 57.15 km</desc>
<time>2011-05-22T11:19:36.25</time>
<name>11849</name>
<sym>Dot</sym>
</trkpt>
<trkpt lat="39.710612" lon="-8.530763">
<ele>189.0</ele>
<desc>Speed 22.7 km/h Distance 57.16 km</desc>
<time>2011-05-22T11:19:37.25</time>
<name>11850</name>
<sym>Dot</sym>
</trkpt>
<trkpt lat="39.710568" lon="-8.530805">
<ele>189.0</ele>
<desc>Speed 22.3 km/h Distance 57.16 km</desc>
<time>2011-05-22T11:19:38.25</time>
<name>11851</name>
<sym>Dot</sym>
</trkpt>
<trkpt lat="39.710523" lon="-8.530850">
<ele>189.0</ele>
<desc>Speed 22.8 km/h Distance 57.17 km</desc>
<time>2011-05-22T11:19:39.25</time>
<name>11852</name>
<sym>Dot</sym>
</trkpt>
<trkpt lat="39.710477" lon="-8.530892">
<ele>189.0</ele>
<desc>Speed 22.3 km/h Distance 57.18 km</desc>
<time>2011-05-22T11:19:40.25</time>
<name>11853</name>
<sym>Dot</sym>
</trkpt>
<trkpt lat="39.710433" lon="-8.530935">
<ele>188.5</ele>
<desc>Speed 22.5 km/h Distance 57.18 km</desc>
<time>2011-05-22T11:19:41.25</time>
<name>11854</name>
<sym>Dot</sym>
</trkpt>
<trkpt lat="39.710388" lon="-8.530977">
<ele>188.5</ele>
<desc>Speed 22.2 km/h Distance 57.19 km</desc>
<time>2011-05-22T11:19:42.25</time>
<name>11855</name>
<sym>Dot</sym>
</trkpt>
<trkpt lat="39.710342" lon="-8.531015">
<ele>188.5</ele>
<desc>Speed 22.0 km/h Distance 57.19 km</desc>
<time>2011-05-22T11:19:43.25</time>
<name>11856</name>
<sym>Dot</sym>
</trkpt>
<trkpt lat="39.710297" lon="-8.531058">
<ele>188.5</ele>
<desc>Speed 22.4 km/h Distance 57.20 km</desc>
<time>2011-05-22T11:19:44.25</time>
<name>11857</name>
<sym>Dot</sym>
</trkpt>
<trkpt lat="39.710253" lon="-8.531102">
<ele>188.5</ele>
<desc>Speed 22.2 km/h Distance 57.21 km</desc>
<time>2011-05-22T11:19:45.25</time>
<name>11858</name>
<sym>Dot</sym>
</trkpt>
<trkpt lat="39.710210" lon="-8.531145">
<ele>188.5</ele>
<desc>Speed 21.9 km/h Distance 57.21 km</desc>
<time>2011-05-22T11:19:46.25</time>
<name>11859</name>
<sym>Dot</sym>
</trkpt>
<trkpt lat="39.710167" lon="-8.531182">
<ele>188.5</ele>
<desc>Speed 21.1 km/h Distance 57.22 km</desc>
<time>2011-05-22T11:19:47.25</time>
<name>11860</name>
<sym>Dot</sym>
</trkpt>
<trkpt lat="39.710125" lon="-8.531222">
<ele>188.5</ele>
<desc>Speed 20.9 km/h Distance 57.22 km</desc>
<time>2011-05-22T11:19:48.25</time>
<name>11861</name>
<sym>Dot</sym>
</trkpt>
<trkpt lat="39.710085" lon="-8.531263">
<ele>188.0</ele>
<desc>Speed 20.6 km/h Distance 57.23 km</desc>
<time>2011-05-22T11:19:49.25</time>
<name>11862</name>
<sym>Dot</sym>
</trkpt>
<trkpt lat="39.710045" lon="-8.531302">
<ele>188.0</ele>
<desc>Speed 20.3 km/h Distance 57.24 km</desc>
<time>2011-05-22T11:19:50.25</time>
<name>11863</name>
<sym>Dot</sym>
</trkpt>
<trkpt lat="39.710008" lon="-8.531340">
<ele>188.0</ele>
<desc>Speed 19.7 km/h Distance 57.24 km</desc>
<time>2011-05-22T11:19:51.25</time>
<name>11864</name>
<sym>Dot</sym>
</trkpt>
<trkpt lat="39.709968" lon="-8.531378">
<ele>188.0</ele>
<desc>Speed 20.1 km/h Distance 57.25 km</desc>
<time>2011-05-22T11:19:52.25</time>
<name>11865</name>
<sym>Dot</sym>
</trkpt>
<trkpt lat="39.709928" lon="-8.531417">
<ele>187.5</ele>
<desc>Speed 19.9 km/h Distance 57.25 km</desc>
<time>2011-05-22T11:19:53.25</time>
<name>11866</name>
<sym>Dot</sym>
</trkpt>
<trkpt lat="39.709890" lon="-8.531452">
<ele>187.5</ele>
<desc>Speed 19.4 km/h Distance 57.26 km</desc>
<time>2011-05-22T11:19:54.25</time>
<name>11867</name>
<sym>Dot</sym>
</trkpt>
<trkpt lat="39.709852" lon="-8.531483">
<ele>187.5</ele>
<desc>Speed 18.3 km/h Distance 57.26 km</desc>
<time>2011-05-22T11:19:55.25</time>
<name>11868</name>
<sym>Dot</sym>
</trkpt>
<trkpt lat="39.709817" lon="-8.531517">
<ele>187.5</ele>
<desc>Speed 17.9 km/h Distance 57.27 km</desc>
<time>2011-05-22T11:19:56.25</time>
<name>11869</name>
<sym>Dot</sym>
</trkpt>
<trkpt lat="39.709783" lon="-8.531553">
<ele>187.5</ele>
<desc>Speed 17.9 km/h Distance 57.27 km</desc>
<time>2011-05-22T11:19:57.25</time>
<name>11870</name>
<sym>Dot</sym>
</trkpt>
<trkpt lat="39.709748" lon="-8.531587">
<ele>187.5</ele>
<desc>Speed 17.7 km/h Distance 57.28 km</desc>
<time>2011-05-22T11:19:58.25</time>
<name>11871</name>
<sym>Dot</sym>
</trkpt>
<trkpt lat="39.709717" lon="-8.531618">
<ele>187.5</ele>
<desc>Speed 16.5 km/h Distance 57.28 km</desc>
<time>2011-05-22T11:19:59.25</time>
<name>11872</name>
<sym>Dot</sym>
</trkpt>
<trkpt lat="39.709683" lon="-8.531647">
<ele>187.5</ele>
<desc>Speed 15.8 km/h Distance 57.29 km</desc>
<time>2011-05-22T11:20:00.25</time>
<name>11873</name>
<sym>Dot</sym>
</trkpt>
<trkpt lat="39.709655" lon="-8.531672">
<ele>188.0</ele>
<desc>Speed 14.5 km/h Distance 57.29 km</desc>
<time>2011-05-22T11:20:01.25</time>
<name>11874</name>
<sym>Dot</sym>
</trkpt>
<trkpt lat="39.709627" lon="-8.531698">
<ele>187.5</ele>
<desc>Speed 13.9 km/h Distance 57.29 km</desc>
<time>2011-05-22T11:20:02.25</time>
<name>11875</name>
<sym>Dot</sym>
</trkpt>
<trkpt lat="39.709602" lon="-8.531725">
<ele>187.5</ele>
<desc>Speed 13.5 km/h Distance 57.30 km</desc>
<time>2011-05-22T11:20:03.25</time>
<name>11876</name>
<sym>Dot</sym>
</trkpt>
<trkpt lat="39.709573" lon="-8.531752">
<ele>188.0</ele>
<desc>Speed 13.8 km/h Distance 57.30 km</desc>
<time>2011-05-22T11:20:04.25</time>
<name>11877</name>
<sym>Dot</sym>
</trkpt>
<trkpt lat="39.709547" lon="-8.531777">
<ele>188.0</ele>
<desc>Speed 13.3 km/h Distance 57.30 km</desc>
<time>2011-05-22T11:20:05.25</time>
<name>11878</name>
<sym>Dot</sym>
</trkpt>
<trkpt lat="39.709518" lon="-8.531800">
<ele>188.0</ele>
<desc>Speed 13.6 km/h Distance 57.31 km</desc>
<time>2011-05-22T11:20:06.25</time>
<name>11879</name>
<sym>Dot</sym>
</trkpt>
<trkpt lat="39.709488" lon="-8.531825">
<ele>188.5</ele>
<desc>Speed 14.1 km/h Distance 57.31 km</desc>
<time>2011-05-22T11:20:07.25</time>
<name>11880</name>
<sym>Dot</sym>
</trkpt>
<trkpt lat="39.709458" lon="-8.531850">
<ele>188.5</ele>
<desc>Speed 14.4 km/h Distance 57.32 km</desc>
<time>2011-05-22T11:20:08.25</time>
<name>11881</name>
<sym>Dot</sym>
</trkpt>
<trkpt lat="39.709425" lon="-8.531872">
<ele>188.5</ele>
<desc>Speed 15.2 km/h Distance 57.32 km</desc>
<time>2011-05-22T11:20:09.25</time>
<name>11882</name>
<sym>Dot</sym>
</trkpt>
<trkpt lat="39.709388" lon="-8.531893">
<ele>188.5</ele>
<desc>Speed 16.1 km/h Distance 57.32 km</desc>
<time>2011-05-22T11:20:10.25</time>
<name>11883</name>
<sym>Dot</sym>
</trkpt>
<trkpt lat="39.709350" lon="-8.531912">
<ele>189.0</ele>
<desc>Speed 16.4 km/h Distance 57.33 km</desc>
<time>2011-05-22T11:20:11.25</time>
<name>11884</name>
<sym>Dot</sym>
</trkpt>
<trkpt lat="39.709312" lon="-8.531928">
<ele>189.0</ele>
<desc>Speed 16.4 km/h Distance 57.33 km</desc>
<time>2011-05-22T11:20:12.25</time>
<name>11885</name>
<sym>Dot</sym>
</trkpt>
<trkpt lat="39.709273" lon="-8.531942">
<ele>189.0</ele>
<desc>Speed 16.1 km/h Distance 57.34 km</desc>
<time>2011-05-22T11:20:13.25</time>
<name>11886</name>
<sym>Dot</sym>
</trkpt>
<trkpt lat="39.709235" lon="-8.531955">
<ele>189.5</ele>
<desc>Speed 15.5 km/h Distance 57.34 km</desc>
<time>2011-05-22T11:20:14.25</time>
<name>11887</name>
<sym>Dot</sym>
</trkpt>
<trkpt lat="39.709198" lon="-8.531967">
<ele>190.5</ele>
<desc>Speed 15.2 km/h Distance 57.35 km</desc>
<time>2011-05-22T11:20:15.25</time>
<name>11888</name>
<sym>Dot</sym>
</trkpt>
<trkpt lat="39.709165" lon="-8.531973">
<ele>191.5</ele>
<desc>Speed 13.9 km/h Distance 57.35 km</desc>
<time>2011-05-22T11:20:16.25</time>
<name>11889</name>
<sym>Dot</sym>
</trkpt>
<trkpt lat="39.709133" lon="-8.531982">
<ele>192.0</ele>
<desc>Speed 12.9 km/h Distance 57.35 km</desc>
<time>2011-05-22T11:20:17.25</time>
<name>11890</name>
<sym>Dot</sym>
</trkpt>
<trkpt lat="39.709115" lon="-8.531980">
<ele>194.0</ele>
<desc>Speed 8.2 km/h Distance 57.36 km</desc>
<time>2011-05-22T11:20:18.25</time>
<name>11891</name>
<sym>Dot</sym>
</trkpt>
<trkpt lat="39.709087" lon="-8.531987">
<ele>193.5</ele>
<desc>Speed 11.6 km/h Distance 57.36 km</desc>
<time>2011-05-22T11:20:19.25</time>
<name>11892</name>
<sym>Dot</sym>
</trkpt>
<trkpt lat="39.709067" lon="-8.531988">
<ele>193.0</ele>
<desc>Speed 8.2 km/h Distance 57.36 km</desc>
<time>2011-05-22T11:20:20.25</time>
<name>11893</name>
<sym>Dot</sym>
</trkpt>
<trkpt lat="39.709042" lon="-8.531993">
<ele>193.0</ele>
<desc>Speed 9.9 km/h Distance 57.36 km</desc>
<time>2011-05-22T11:20:21.25</time>
<name>11894</name>
<sym>Dot</sym>
</trkpt>
<trkpt lat="39.709017" lon="-8.531998">
<ele>193.5</ele>
<desc>Speed 10.4 km/h Distance 57.37 km</desc>
<time>2011-05-22T11:20:22.25</time>
<name>11895</name>
<sym>Dot</sym>
</trkpt>
<trkpt lat="39.708992" lon="-8.532002">
<ele>194.0</ele>
<desc>Speed 9.9 km/h Distance 57.37 km</desc>
<time>2011-05-22T11:20:23.25</time>
<name>11896</name>
<sym>Dot</sym>
</trkpt>
<trkpt lat="39.708972" lon="-8.532005">
<ele>194.5</ele>
<desc>Speed 8.1 km/h Distance 57.37 km</desc>
<time>2011-05-22T11:20:24.25</time>
<name>11897</name>
<sym>Dot</sym>
</trkpt>
<trkpt lat="39.708953" lon="-8.532008">
<ele>194.5</ele>
<desc>Speed 7.9 km/h Distance 57.37 km</desc>
<time>2011-05-22T11:20:25.25</time>
<name>11898</name>
<sym>Dot</sym>
</trkpt>
<trkpt lat="39.708933" lon="-8.532008">
<ele>195.0</ele>
<desc>Speed 8.1 km/h Distance 57.38 km</desc>
<time>2011-05-22T11:20:26.25</time>
<name>11899</name>
<sym>Dot</sym>
</trkpt>
<trkpt lat="39.708913" lon="-8.532012">
<ele>195.5</ele>
<desc>Speed 8.0 km/h Distance 57.38 km</desc>
<time>2011-05-22T11:20:27.25</time>
<name>11900</name>
<sym>Dot</sym>
</trkpt>
<trkpt lat="39.708895" lon="-8.532015">
<ele>196.0</ele>
<desc>Speed 7.4 km/h Distance 57.38 km</desc>
<time>2011-05-22T11:20:28.25</time>
<name>11901</name>
<sym>Dot</sym>
</trkpt>
<trkpt lat="39.708878" lon="-8.532015">
<ele>196.5</ele>
<desc>Speed 7.1 km/h Distance 57.38 km</desc>
<time>2011-05-22T11:20:29.25</time>
<name>11902</name>
<sym>Dot</sym>
</trkpt>
<trkpt lat="39.708862" lon="-8.532017">
<ele>197.0</ele>
<desc>Speed 6.8 km/h Distance 57.38 km</desc>
<time>2011-05-22T11:20:30.25</time>
<name>11903</name>
<sym>Dot</sym>
</trkpt>
<trkpt lat="39.708847" lon="-8.532017">
<ele>197.5</ele>
<desc>Speed 6.2 km/h Distance 57.39 km</desc>
<time>2011-05-22T11:20:31.25</time>
<name>11904</name>
<sym>Dot</sym>
</trkpt>
<trkpt lat="39.708830" lon="-8.532022">
<ele>197.5</ele>
<desc>Speed 6.8 km/h Distance 57.39 km</desc>
<time>2011-05-22T11:20:32.25</time>
<name>11905</name>
<sym>Dot</sym>
</trkpt>
<trkpt lat="39.708815" lon="-8.532025">
<ele>198.0</ele>
<desc>Speed 6.4 km/h Distance 57.39 km</desc>
<time>2011-05-22T11:20:33.25</time>
<name>11906</name>
<sym>Dot</sym>
</trkpt>
<trkpt lat="39.708797" lon="-8.532028">
<ele>198.5</ele>
<desc>Speed 7.5 km/h Distance 57.39 km</desc>
<time>2011-05-22T11:20:34.25</time>
<name>11907</name>
<sym>Dot</sym>
</trkpt>
<trkpt lat="39.708778" lon="-8.532033">
<ele>199.0</ele>
<desc>Speed 6.8 km/h Distance 57.39 km</desc>
<time>2011-05-22T11:20:35.25</time>
<name>11908</name>
<sym>Dot</sym>
</trkpt>
<trkpt lat="39.708762" lon="-8.532037">
<ele>199.0</ele>
<desc>Speed 7.0 km/h Distance 57.40 km</desc>
<time>2011-05-22T11:20:36.25</time>
<name>11909</name>
<sym>Dot</sym>
</trkpt>
<trkpt lat="39.708743" lon="-8.532040">
<ele>199.0</ele>
<desc>Speed 7.5 km/h Distance 57.40 km</desc>
<time>2011-05-22T11:20:37.25</time>
<name>11910</name>
<sym>Dot</sym>
</trkpt>
<trkpt lat="39.708725" lon="-8.532045">
<ele>199.5</ele>
<desc>Speed 7.5 km/h Distance 57.40 km</desc>
<time>2011-05-22T11:20:38.25</time>
<name>11911</name>
<sym>Dot</sym>
</trkpt>
<trkpt lat="39.708707" lon="-8.532050">
<ele>199.5</ele>
<desc>Speed 7.7 km/h Distance 57.40 km</desc>
<time>2011-05-22T11:20:39.25</time>
<name>11912</name>
<sym>Dot</sym>
</trkpt>
<trkpt lat="39.708688" lon="-8.532055">
<ele>199.5</ele>
<desc>Speed 8.0 km/h Distance 57.40 km</desc>
<time>2011-05-22T11:20:40.25</time>
<name>11913</name>
<sym>Dot</sym>
</trkpt>
<trkpt lat="39.708668" lon="-8.532058">
<ele>200.0</ele>
<desc>Speed 8.1 km/h Distance 57.41 km</desc>
<time>2011-05-22T11:20:41.25</time>
<name>11914</name>
<sym>Dot</sym>
</trkpt>
<trkpt lat="39.708652" lon="-8.532060">
<ele>200.5</ele>
<desc>Speed 7.1 km/h Distance 57.41 km</desc>
<time>2011-05-22T11:20:42.25</time>
<name>11915</name>
<sym>Dot</sym>
</trkpt>
<trkpt lat="39.708632" lon="-8.532063">
<ele>201.5</ele>
<desc>Speed 7.4 km/h Distance 57.41 km</desc>
<time>2011-05-22T11:20:43.25</time>
<name>11916</name>
<sym>Dot</sym>
</trkpt>
<trkpt lat="39.708617" lon="-8.532067">
<ele>202.0</ele>
<desc>Speed 6.4 km/h Distance 57.41 km</desc>
<time>2011-05-22T11:20:44.25</time>
<name>11917</name>
<sym>Dot</sym>
</trkpt>
<trkpt lat="39.708602" lon="-8.532073">
<ele>202.5</ele>
<desc>Speed 6.4 km/h Distance 57.41 km</desc>
<time>2011-05-22T11:20:45.25</time>
<name>11918</name>
<sym>Dot</sym>
</trkpt>
<trkpt lat="39.708585" lon="-8.532080">
<ele>203.0</ele>
<desc>Speed 7.2 km/h Distance 57.42 km</desc>
<time>2011-05-22T11:20:46.25</time>
<name>11919</name>
<sym>Dot</sym>
</trkpt>
<trkpt lat="39.708568" lon="-8.532087">
<ele>203.5</ele>
<desc>Speed 6.7 km/h Distance 57.42 km</desc>
<time>2011-05-22T11:20:47.25</time>
<name>11920</name>
<sym>Dot</sym>
</trkpt>
<trkpt lat="39.708552" lon="-8.532093">
<ele>204.0</ele>
<desc>Speed 6.7 km/h Distance 57.42 km</desc>
<time>2011-05-22T11:20:48.25</time>
<name>11921</name>
<sym>Dot</sym>
</trkpt>
<trkpt lat="39.708533" lon="-8.532098">
<ele>205.0</ele>
<desc>Speed 7.7 km/h Distance 57.42 km</desc>
<time>2011-05-22T11:20:49.25</time>
<name>11922</name>
<sym>Dot</sym>
</trkpt>
<trkpt lat="39.708517" lon="-8.532107">
<ele>205.5</ele>
<desc>Speed 6.6 km/h Distance 57.42 km</desc>
<time>2011-05-22T11:20:50.25</time>
<name>11923</name>
<sym>Dot</sym>
</trkpt>
<trkpt lat="39.708500" lon="-8.532115">
<ele>206.0</ele>
<desc>Speed 6.7 km/h Distance 57.43 km</desc>
<time>2011-05-22T11:20:51.25</time>
<name>11924</name>
<sym>Dot</sym>
</trkpt>
<trkpt lat="39.708483" lon="-8.532122">
<ele>206.5</ele>
<desc>Speed 7.1 km/h Distance 57.43 km</desc>
<time>2011-05-22T11:20:52.25</time>
<name>11925</name>
<sym>Dot</sym>
</trkpt>
<trkpt lat="39.708467" lon="-8.532133">
<ele>207.0</ele>
<desc>Speed 7.8 km/h Distance 57.43 km</desc>
<time>2011-05-22T11:20:53.25</time>
<name>11926</name>
<sym>Dot</sym>
</trkpt>
<trkpt lat="39.708447" lon="-8.532148">
<ele>207.0</ele>
<desc>Speed 8.9 km/h Distance 57.43 km</desc>
<time>2011-05-22T11:20:54.25</time>
<name>11927</name>
<sym>Dot</sym>
</trkpt>
<trkpt lat="39.708427" lon="-8.532162">
<ele>207.0</ele>
<desc>Speed 8.8 km/h Distance 57.43 km</desc>
<time>2011-05-22T11:20:55.25</time>
<name>11928</name>
<sym>Dot</sym>
</trkpt>
<trkpt lat="39.708412" lon="-8.532178">
<ele>207.0</ele>
<desc>Speed 8.2 km/h Distance 57.44 km</desc>
<time>2011-05-22T11:20:56.25</time>
<name>11929</name>
<sym>Dot</sym>
</trkpt>
<trkpt lat="39.708395" lon="-8.532190">
<ele>207.5</ele>
<desc>Speed 7.6 km/h Distance 57.44 km</desc>
<time>2011-05-22T11:20:57.25</time>
<name>11930</name>
<sym>Dot</sym>
</trkpt>
<trkpt lat="39.708380" lon="-8.532203">
<ele>207.5</ele>
<desc>Speed 7.3 km/h Distance 57.44 km</desc>
<time>2011-05-22T11:20:58.25</time>
<name>11931</name>
<sym>Dot</sym>
</trkpt>
<trkpt lat="39.708365" lon="-8.532218">
<ele>207.0</ele>
<desc>Speed 7.6 km/h Distance 57.44 km</desc>
<time>2011-05-22T11:20:59.25</time>
<name>11932</name>
<sym>Dot</sym>
</trkpt>
<trkpt lat="39.708352" lon="-8.532232">
<ele>207.0</ele>
<desc>Speed 7.2 km/h Distance 57.44 km</desc>
<time>2011-05-22T11:21:00.25</time>
<name>11933</name>
<sym>Dot</sym>
</trkpt>
<trkpt lat="39.708338" lon="-8.532250">
<ele>207.0</ele>
<desc>Speed 8.0 km/h Distance 57.45 km</desc>
<time>2011-05-22T11:21:01.25</time>
<name>11934</name>
<sym>Dot</sym>
</trkpt>
<trkpt lat="39.708323" lon="-8.532268">
<ele>206.5</ele>
<desc>Speed 7.8 km/h Distance 57.45 km</desc>
<time>2011-05-22T11:21:02.25</time>
<name>11935</name>
<sym>Dot</sym>
</trkpt>
<trkpt lat="39.708312" lon="-8.532285">
<ele>206.5</ele>
<desc>Speed 7.5 km/h Distance 57.45 km</desc>
<time>2011-05-22T11:21:03.25</time>
<name>11936</name>
<sym>Dot</sym>
</trkpt>
<trkpt lat="39.708297" lon="-8.532302">
<ele>206.5</ele>
<desc>Speed 7.8 km/h Distance 57.45 km</desc>
<time>2011-05-22T11:21:04.25</time>
<name>11937</name>
<sym>Dot</sym>
</trkpt>
<trkpt lat="39.708283" lon="-8.532322">
<ele>206.0</ele>
<desc>Speed 7.7 km/h Distance 57.46 km</desc>
<time>2011-05-22T11:21:05.25</time>
<name>11938</name>
<sym>Dot</sym>
</trkpt>
<trkpt lat="39.708268" lon="-8.532342">
<ele>205.5</ele>
<desc>Speed 7.5 km/h Distance 57.46 km</desc>
<time>2011-05-22T11:21:06.25</time>
<name>11939</name>
<sym>Dot</sym>
</trkpt>
<trkpt lat="39.708258" lon="-8.532362">
<ele>205.5</ele>
<desc>Speed 7.1 km/h Distance 57.46 km</desc>
<time>2011-05-22T11:21:07.25</time>
<name>11940</name>
<sym>Dot</sym>
</trkpt>
<trkpt lat="39.708252" lon="-8.532380">
<ele>206.0</ele>
<desc>Speed 6.2 km/h Distance 57.46 km</desc>
<time>2011-05-22T11:21:08.25</time>
<name>11941</name>
<sym>Dot</sym>
</trkpt>
<trkpt lat="39.708242" lon="-8.532400">
<ele>206.0</ele>
<desc>Speed 7.2 km/h Distance 57.46 km</desc>
<time>2011-05-22T11:21:09.25</time>
<name>11942</name>
<sym>Dot</sym>
</trkpt>
<trkpt lat="39.708232" lon="-8.532420">
<ele>206.0</ele>
<desc>Speed 7.2 km/h Distance 57.47 km</desc>
<time>2011-05-22T11:21:10.25</time>
<name>11943</name>
<sym>Dot</sym>
</trkpt>
<trkpt lat="39.708222" lon="-8.532440">
<ele>206.5</ele>
<desc>Speed 7.3 km/h Distance 57.47 km</desc>
<time>2011-05-22T11:21:11.25</time>
<name>11944</name>
<sym>Dot</sym>
</trkpt>
<trkpt lat="39.708213" lon="-8.532463">
<ele>206.5</ele>
<desc>Speed 7.8 km/h Distance 57.47 km</desc>
<time>2011-05-22T11:21:12.25</time>
<name>11945</name>
<sym>Dot</sym>
</trkpt>
<trkpt lat="39.708203" lon="-8.532487">
<ele>206.0</ele>
<desc>Speed 8.1 km/h Distance 57.47 km</desc>
<time>2011-05-22T11:21:13.25</time>
<name>11946</name>
<sym>Dot</sym>
</trkpt>
<trkpt lat="39.708197" lon="-8.532510">
<ele>206.0</ele>
<desc>Speed 8.0 km/h Distance 57.47 km</desc>
<time>2011-05-22T11:21:14.25</time>
<name>11947</name>
<sym>Dot</sym>
</trkpt>
<trkpt lat="39.708190" lon="-8.532530">
<ele>206.0</ele>
<desc>Speed 6.8 km/h Distance 57.48 km</desc>
<time>2011-05-22T11:21:15.25</time>
<name>11948</name>
<sym>Dot</sym>
</trkpt>
<trkpt lat="39.708185" lon="-8.532553">
<ele>206.0</ele>
<desc>Speed 7.1 km/h Distance 57.48 km</desc>
<time>2011-05-22T11:21:16.25</time>
<name>11949</name>
<sym>Dot</sym>
</trkpt>
<trkpt lat="39.708180" lon="-8.532577">
<ele>206.0</ele>
<desc>Speed 7.0 km/h Distance 57.48 km</desc>
<time>2011-05-22T11:21:17.25</time>
<name>11950</name>
<sym>Dot</sym>
</trkpt>
<trkpt lat="39.708173" lon="-8.532600">
<ele>205.5</ele>
<desc>Speed 6.1 km/h Distance 57.48 km</desc>
<time>2011-05-22T11:21:18.25</time>
<name>11951</name>
<sym>Dot</sym>
</trkpt>
<trkpt lat="39.708165" lon="-8.532623">
<ele>205.0</ele>
<desc>Speed 6.3 km/h Distance 57.48 km</desc>
<time>2011-05-22T11:21:19.25</time>
<name>11952</name>
<sym>Dot</sym>
</trkpt>
<trkpt lat="39.708160" lon="-8.532643">
<ele>205.5</ele>
<desc>Speed 6.1 km/h Distance 57.49 km</desc>
<time>2011-05-22T11:21:20.25</time>
<name>11953</name>
<sym>Dot</sym>
</trkpt>
<trkpt lat="39.708155" lon="-8.532663">
<ele>205.5</ele>
<desc>Speed 6.0 km/h Distance 57.49 km</desc>
<time>2011-05-22T11:21:21.25</time>
<name>11954</name>
<sym>Dot</sym>
</trkpt>
<trkpt lat="39.708152" lon="-8.532682">
<ele>205.5</ele>
<desc>Speed 5.8 km/h Distance 57.49 km</desc>
<time>2011-05-22T11:21:22.25</time>
<name>11955</name>
<sym>Dot</sym>
</trkpt>
<trkpt lat="39.708145" lon="-8.532700">
<ele>206.0</ele>
<desc>Speed 6.3 km/h Distance 57.49 km</desc>
<time>2011-05-22T11:21:23.25</time>
<name>11956</name>
<sym>Dot</sym>
</trkpt>
<trkpt lat="39.708142" lon="-8.532723">
<ele>206.0</ele>
<desc>Speed 6.6 km/h Distance 57.49 km</desc>
<time>2011-05-22T11:21:24.25</time>
<name>11957</name>
<sym>Dot</sym>
</trkpt>
<trkpt lat="39.708138" lon="-8.532747">
<ele>206.0</ele>
<desc>Speed 6.7 km/h Distance 57.50 km</desc>
<time>2011-05-22T11:21:25.25</time>
<name>11958</name>
<sym>Dot</sym>
</trkpt>
<trkpt lat="39.708137" lon="-8.532770">
<ele>205.5</ele>
<desc>Speed 6.7 km/h Distance 57.50 km</desc>
<time>2011-05-22T11:21:26.25</time>
<name>11959</name>
<sym>Dot</sym>
</trkpt>
<trkpt lat="39.708130" lon="-8.532793">
<ele>205.5</ele>
<desc>Speed 6.2 km/h Distance 57.50 km</desc>
<time>2011-05-22T11:21:27.25</time>
<name>11960</name>
<sym>Dot</sym>
</trkpt>
<trkpt lat="39.708125" lon="-8.532813">
<ele>205.5</ele>
<desc>Speed 6.4 km/h Distance 57.50 km</desc>
<time>2011-05-22T11:21:28.25</time>
<name>11961</name>
<sym>Dot</sym>
</trkpt>
<trkpt lat="39.708122" lon="-8.532835">
<ele>206.0</ele>
<desc>Speed 6.5 km/h Distance 57.50 km</desc>
<time>2011-05-22T11:21:29.25</time>
<name>11962</name>
<sym>Dot</sym>
</trkpt>
<trkpt lat="39.708113" lon="-8.532860">
<ele>205.5</ele>
<desc>Speed 6.7 km/h Distance 57.51 km</desc>
<time>2011-05-22T11:21:30.25</time>
<name>11963</name>
<sym>Dot</sym>
</trkpt>
<trkpt lat="39.708107" lon="-8.532885">
<ele>205.5</ele>
<desc>Speed 6.4 km/h Distance 57.51 km</desc>
<time>2011-05-22T11:21:31.25</time>
<name>11964</name>
<sym>Dot</sym>
</trkpt>
<trkpt lat="39.708102" lon="-8.532908">
<ele>205.0</ele>
<desc>Speed 6.3 km/h Distance 57.51 km</desc>
<time>2011-05-22T11:21:32.25</time>
<name>11965</name>
<sym>Dot</sym>
</trkpt>
<trkpt lat="39.708097" lon="-8.532932">
<ele>205.0</ele>
<desc>Speed 6.7 km/h Distance 57.51 km</desc>
<time>2011-05-22T11:21:33.25</time>
<name>11966</name>
<sym>Dot</sym>
</trkpt>
<trkpt lat="39.708090" lon="-8.532952">
<ele>205.5</ele>
<desc>Speed 6.0 km/h Distance 57.51 km</desc>
<time>2011-05-22T11:21:34.25</time>
<name>11967</name>
<sym>Dot</sym>
</trkpt>
<trkpt lat="39.708088" lon="-8.532972">
<ele>205.5</ele>
<desc>Speed 5.8 km/h Distance 57.52 km</desc>
<time>2011-05-22T11:21:35.25</time>
<name>11968</name>
<sym>Dot</sym>
</trkpt>
<trkpt lat="39.708087" lon="-8.532992">
<ele>206.0</ele>
<desc>Speed 5.5 km/h Distance 57.52 km</desc>
<time>2011-05-22T11:21:36.25</time>
<name>11969</name>
<sym>Dot</sym>
</trkpt>
<trkpt lat="39.708085" lon="-8.533010">
<ele>206.0</ele>
<desc>Speed 5.7 km/h Distance 57.52 km</desc>
<time>2011-05-22T11:21:37.25</time>
<name>11970</name>
<sym>Dot</sym>
</trkpt>
<trkpt lat="39.708080" lon="-8.533028">
<ele>206.0</ele>
<desc>Speed 5.8 km/h Distance 57.52 km</desc>
<time>2011-05-22T11:21:38.25</time>
<name>11971</name>
<sym>Dot</sym>
</trkpt>
<trkpt lat="39.708077" lon="-8.533048">
<ele>206.5</ele>
<desc>Speed 5.7 km/h Distance 57.52 km</desc>
<time>2011-05-22T11:21:39.25</time>
<name>11972</name>
<sym>Dot</sym>
</trkpt>
<trkpt lat="39.708075" lon="-8.533068">
<ele>206.5</ele>
<desc>Speed 5.5 km/h Distance 57.52 km</desc>
<time>2011-05-22T11:21:40.25</time>
<name>11973</name>
<sym>Dot</sym>
</trkpt>
<trkpt lat="39.708072" lon="-8.533088">
<ele>206.5</ele>
<desc>Speed 6.3 km/h Distance 57.53 km</desc>
<time>2011-05-22T11:21:41.25</time>
<name>11974</name>
<sym>Dot</sym>
</trkpt>
<trkpt lat="39.708068" lon="-8.533112">
<ele>206.5</ele>
<desc>Speed 6.4 km/h Distance 57.53 km</desc>
<time>2011-05-22T11:21:42.25</time>
<name>11975</name>
<sym>Dot</sym>
</trkpt>
<trkpt lat="39.708065" lon="-8.533133">
<ele>207.0</ele>
<desc>Speed 6.3 km/h Distance 57.53 km</desc>
<time>2011-05-22T11:21:43.25</time>
<name>11976</name>
<sym>Dot</sym>
</trkpt>
<trkpt lat="39.708062" lon="-8.533153">
<ele>207.0</ele>
<desc>Speed 6.0 km/h Distance 57.53 km</desc>
<time>2011-05-22T11:21:44.25</time>
<name>11977</name>
<sym>Dot</sym>
</trkpt>
<trkpt lat="39.708057" lon="-8.533173">
<ele>206.5</ele>
<desc>Speed 6.1 km/h Distance 57.53 km</desc>
<time>2011-05-22T11:21:45.25</time>
<name>11978</name>
<sym>Dot</sym>
</trkpt>
<trkpt lat="39.708053" lon="-8.533195">
<ele>207.0</ele>
<desc>Speed 6.7 km/h Distance 57.54 km</desc>
<time>2011-05-22T11:21:46.25</time>
<name>11979</name>
<sym>Dot</sym>
</trkpt>
<trkpt lat="39.708047" lon="-8.533223">
<ele>208.0</ele>
<desc>Speed 8.9 km/h Distance 57.54 km</desc>
<time>2011-05-22T11:21:47.25</time>
<name>11980</name>
<sym>Dot</sym>
</trkpt>
<trkpt lat="39.708040" lon="-8.533253">
<ele>207.5</ele>
<desc>Speed 8.6 km/h Distance 57.54 km</desc>
<time>2011-05-22T11:21:48.25</time>
<name>11981</name>
<sym>Dot</sym>
</trkpt>
<trkpt lat="39.708037" lon="-8.533277">
<ele>207.5</ele>
<desc>Speed 6.6 km/h Distance 57.54 km</desc>
<time>2011-05-22T11:21:49.25</time>
<name>11982</name>
<sym>Dot</sym>
</trkpt>
<trkpt lat="39.708035" lon="-8.533292">
<ele>207.5</ele>
<desc>Speed 4.4 km/h Distance 57.54 km</desc>
<time>2011-05-22T11:21:50.25</time>
<name>11983</name>
<sym>Dot</sym>
</trkpt>
<trkpt lat="39.708032" lon="-8.533305">
<ele>207.5</ele>
<desc>Speed 3.6 km/h Distance 57.55 km</desc>
<time>2011-05-22T11:21:51.25</time>
<name>11984</name>
<sym>Dot</sym>
</trkpt>
<trkpt lat="39.708028" lon="-8.533320">
<ele>207.5</ele>
<desc>Speed 4.1 km/h Distance 57.55 km</desc>
<time>2011-05-22T11:21:52.25</time>
<name>11985</name>
<sym>Dot</sym>
</trkpt>
<trkpt lat="39.708025" lon="-8.533333">
<ele>208.0</ele>
<desc>Speed 4.0 km/h Distance 57.55 km</desc>
<time>2011-05-22T11:21:53.25</time>
<name>11986</name>
<sym>Dot</sym>
</trkpt>
<trkpt lat="39.708020" lon="-8.533348">
<ele>208.0</ele>
<desc>Speed 4.9 km/h Distance 57.55 km</desc>
<time>2011-05-22T11:21:54.25</time>
<name>11987</name>
<sym>Dot</sym>
</trkpt>
<trkpt lat="39.708015" lon="-8.533365">
<ele>208.0</ele>
<desc>Speed 5.0 km/h Distance 57.55 km</desc>
<time>2011-05-22T11:21:55.25</time>
<name>11988</name>
<sym>Dot</sym>
</trkpt>
<trkpt lat="39.708008" lon="-8.533383">
<ele>208.0</ele>
<desc>Speed 5.3 km/h Distance 57.55 km</desc>
<time>2011-05-22T11:21:56.25</time>
<name>11989</name>
<sym>Dot</sym>
</trkpt>
<trkpt lat="39.708003" lon="-8.533400">
<ele>208.5</ele>
<desc>Speed 5.4 km/h Distance 57.55 km</desc>
<time>2011-05-22T11:21:57.25</time>
<name>11990</name>
<sym>Dot</sym>
</trkpt>
<trkpt lat="39.707998" lon="-8.533420">
<ele>208.5</ele>
<desc>Speed 6.0 km/h Distance 57.56 km</desc>
<time>2011-05-22T11:21:58.25</time>
<name>11991</name>
<sym>Dot</sym>
</trkpt>
<trkpt lat="39.707990" lon="-8.533438">
<ele>208.5</ele>
<desc>Speed 5.5 km/h Distance 57.56 km</desc>
<time>2011-05-22T11:21:59.25</time>
<name>11992</name>
<sym>Dot</sym>
</trkpt>
<trkpt lat="39.707987" lon="-8.533457">
<ele>208.5</ele>
<desc>Speed 4.9 km/h Distance 57.56 km</desc>
<time>2011-05-22T11:22:00.25</time>
<name>11993</name>
<sym>Dot</sym>
</trkpt>
<trkpt lat="39.707983" lon="-8.533473">
<ele>208.5</ele>
<desc>Speed 4.6 km/h Distance 57.56 km</desc>
<time>2011-05-22T11:22:01.25</time>
<name>11994</name>
<sym>Dot</sym>
</trkpt>
<trkpt lat="39.707975" lon="-8.533495">
<ele>208.5</ele>
<desc>Speed 6.1 km/h Distance 57.56 km</desc>
<time>2011-05-22T11:22:02.25</time>
<name>11995</name>
<sym>Dot</sym>
</trkpt>
<trkpt lat="39.707965" lon="-8.533517">
<ele>208.5</ele>
<desc>Speed 6.4 km/h Distance 57.57 km</desc>
<time>2011-05-22T11:22:03.25</time>
<name>11996</name>
<sym>Dot</sym>
</trkpt>
<trkpt lat="39.707958" lon="-8.533538">
<ele>209.0</ele>
<desc>Speed 7.4 km/h Distance 57.57 km</desc>
<time>2011-05-22T11:22:04.25</time>
<name>11997</name>
<sym>Dot</sym>
</trkpt>
<trkpt lat="39.707948" lon="-8.533565">
<ele>209.5</ele>
<desc>Speed 8.5 km/h Distance 57.57 km</desc>
<time>2011-05-22T11:22:05.25</time>
<name>11998</name>
<sym>Dot</sym>
</trkpt>
<trkpt lat="39.707935" lon="-8.533595">
<ele>209.5</ele>
<desc>Speed 9.2 km/h Distance 57.57 km</desc>
<time>2011-05-22T11:22:06.25</time>
<name>11999</name>
<sym>Dot</sym>
</trkpt>
<trkpt lat="39.707925" lon="-8.533625">
<ele>209.5</ele>
<desc>Speed 9.9 km/h Distance 57.58 km</desc>
<time>2011-05-22T11:22:07.25</time>
<name>12000</name>
<sym>Dot</sym>
</trkpt>
<trkpt lat="39.707912" lon="-8.533653">
<ele>210.0</ele>
<desc>Speed 10.0 km/h Distance 57.58 km</desc>
<time>2011-05-22T11:22:08.25</time>
<name>12001</name>
<sym>Dot</sym>
</trkpt>
<trkpt lat="39.707897" lon="-8.533682">
<ele>210.0</ele>
<desc>Speed 10.1 km/h Distance 57.58 km</desc>
<time>2011-05-22T11:22:09.25</time>
<name>12002</name>
<sym>Dot</sym>
</trkpt>
<trkpt lat="39.707893" lon="-8.533700">
<ele>210.0</ele>
<desc>Speed 5.8 km/h Distance 57.58 km</desc>
<time>2011-05-22T11:22:10.25</time>
<name>12003</name>
<sym>Dot</sym>
</trkpt>
<trkpt lat="39.707877" lon="-8.533720">
<ele>211.0</ele>
<desc>Speed 8.9 km/h Distance 57.59 km</desc>
<time>2011-05-22T11:22:11.25</time>
<name>12004</name>
<sym>Dot</sym>
</trkpt>
<trkpt lat="39.707863" lon="-8.533740">
<ele>212.5</ele>
<desc>Speed 7.5 km/h Distance 57.59 km</desc>
<time>2011-05-22T11:22:12.25</time>
<name>12005</name>
<sym>Dot</sym>
</trkpt>
<trkpt lat="39.707843" lon="-8.533758">
<ele>213.5</ele>
<desc>Speed 9.7 km/h Distance 57.59 km</desc>
<time>2011-05-22T11:22:13.25</time>
<name>12006</name>
<sym>Dot</sym>
</trkpt>
<trkpt lat="39.707827" lon="-8.533773">
<ele>215.5</ele>
<desc>Speed 8.1 km/h Distance 57.59 km</desc>
<time>2011-05-22T11:22:14.25</time>
<name>12007</name>
<sym>Dot</sym>
</trkpt>
<trkpt lat="39.707808" lon="-8.533790">
<ele>217.0</ele>
<desc>Speed 8.7 km/h Distance 57.60 km</desc>
<time>2011-05-22T11:22:15.25</time>
<name>12008</name>
<sym>Dot</sym>
</trkpt>
<trkpt lat="39.707797" lon="-8.533820">
<ele>218.5</ele>
<desc>Speed 9.6 km/h Distance 57.60 km</desc>
<time>2011-05-22T11:22:16.25</time>
<name>12009</name>
<sym>Dot</sym>
</trkpt>
<trkpt lat="39.707775" lon="-8.533832">
<ele>220.0</ele>
<desc>Speed 10.0 km/h Distance 57.60 km</desc>
<time>2011-05-22T11:22:17.25</time>
<name>12010</name>
<sym>Dot</sym>
</trkpt>
<trkpt lat="39.707747" lon="-8.533845">
<ele>221.0</ele>
<desc>Speed 11.9 km/h Distance 57.60 km</desc>
<time>2011-05-22T11:22:18.25</time>
<name>12011</name>
<sym>Dot</sym>
</trkpt>
<trkpt lat="39.707725" lon="-8.533865">
<ele>223.0</ele>
<desc>Speed 10.6 km/h Distance 57.61 km</desc>
<time>2011-05-22T11:22:19.25</time>
<name>12012</name>
<sym>Dot</sym>
</trkpt>
<trkpt lat="39.707702" lon="-8.533878">
<ele>224.5</ele>
<desc>Speed 10.8 km/h Distance 57.61 km</desc>
<time>2011-05-22T11:22:20.25</time>
<name>12013</name>
<sym>Dot</sym>
</trkpt>
<trkpt lat="39.707677" lon="-8.533898">
<ele>226.0</ele>
<desc>Speed 11.6 km/h Distance 57.61 km</desc>
<time>2011-05-22T11:22:21.25</time>
<name>12014</name>
<sym>Dot</sym>
</trkpt>
<trkpt lat="39.707658" lon="-8.533912">
<ele>225.5</ele>
<desc>Speed 8.1 km/h Distance 57.62 km</desc>
<time>2011-05-22T11:22:22.25</time>
<name>12015</name>
<sym>Dot</sym>
</trkpt>
<trkpt lat="39.707638" lon="-8.533932">
<ele>227.0</ele>
<desc>Speed 9.5 km/h Distance 57.62 km</desc>
<time>2011-05-22T11:22:23.25</time>
<name>12016</name>
<sym>Dot</sym>
</trkpt>
<trkpt lat="39.707623" lon="-8.533952">
<ele>229.0</ele>
<desc>Speed 8.5 km/h Distance 57.62 km</desc>
<time>2011-05-22T11:22:24.25</time>
<name>12017</name>
<sym>Dot</sym>
</trkpt>
<trkpt lat="39.707597" lon="-8.533977">
<ele>229.5</ele>
<desc>Speed 13.1 km/h Distance 57.62 km</desc>
<time>2011-05-22T11:22:25.25</time>
<name>12018</name>
<sym>Dot</sym>
</trkpt>
<trkpt lat="39.707570" lon="-8.534000">
<ele>230.0</ele>
<desc>Speed 12.7 km/h Distance 57.63 km</desc>
<time>2011-05-22T11:22:26.25</time>
<name>12019</name>
<sym>Dot</sym>
</trkpt>
<trkpt lat="39.707540" lon="-8.534017">
<ele>230.0</ele>
<desc>Speed 12.9 km/h Distance 57.63 km</desc>
<time>2011-05-22T11:22:27.25</time>
<name>12020</name>
<sym>Dot</sym>
</trkpt>
<trkpt lat="39.707510" lon="-8.534035">
<ele>231.0</ele>
<desc>Speed 12.5 km/h Distance 57.64 km</desc>
<time>2011-05-22T11:22:28.25</time>
<name>12021</name>
<sym>Dot</sym>
</trkpt>
<trkpt lat="39.707478" lon="-8.534052">
<ele>232.0</ele>
<desc>Speed 13.6 km/h Distance 57.64 km</desc>
<time>2011-05-22T11:22:29.25</time>
<name>12022</name>
<sym>Dot</sym>
</trkpt>
<trkpt lat="39.707443" lon="-8.534068">
<ele>232.5</ele>
<desc>Speed 15.2 km/h Distance 57.64 km</desc>
<time>2011-05-22T11:22:30.25</time>
<name>12023</name>
<sym>Dot</sym>
</trkpt>
<trkpt lat="39.707408" lon="-8.534080">
<ele>233.0</ele>
<desc>Speed 13.8 km/h Distance 57.65 km</desc>
<time>2011-05-22T11:22:31.25</time>
<name>12024</name>
<sym>Dot</sym>
</trkpt>
<trkpt lat="39.707377" lon="-8.534090">
<ele>233.0</ele>
<desc>Speed 13.5 km/h Distance 57.65 km</desc>
<time>2011-05-22T11:22:32.25</time>
<name>12025</name>
<sym>Dot</sym>
</trkpt>
<trkpt lat="39.707342" lon="-8.534100">
<ele>234.0</ele>
<desc>Speed 14.0 km/h Distance 57.65 km</desc>
<time>2011-05-22T11:22:33.25</time>
<name>12026</name>
<sym>Dot</sym>
</trkpt>
<trkpt lat="39.707305" lon="-8.534108">
<ele>234.5</ele>
<desc>Speed 14.5 km/h Distance 57.66 km</desc>
<time>2011-05-22T11:22:34.25</time>
<name>12027</name>
<sym>Dot</sym>
</trkpt>
<trkpt lat="39.707282" lon="-8.534115">
<ele>234.5</ele>
<desc>Speed 9.0 km/h Distance 57.66 km</desc>
<time>2011-05-22T11:22:35.25</time>
<name>12028</name>
<sym>Dot</sym>
</trkpt>
<trkpt lat="39.707253" lon="-8.534118">
<ele>234.0</ele>
<desc>Speed 10.0 km/h Distance 57.66 km</desc>
<time>2011-05-22T11:22:36.25</time>
<name>12029</name>
<sym>Dot</sym>
</trkpt>
<trkpt lat="39.707227" lon="-8.534122">
<ele>233.5</ele>
<desc>Speed 9.1 km/h Distance 57.67 km</desc>
<time>2011-05-22T11:22:37.25</time>
<name>12030</name>
<sym>Dot</sym>
</trkpt>
<trkpt lat="39.707192" lon="-8.534135">
<ele>234.5</ele>
<desc>Speed 15.0 km/h Distance 57.67 km</desc>
<time>2011-05-22T11:22:38.25</time>
<name>12031</name>
<sym>Dot</sym>
</trkpt>
<trkpt lat="39.707157" lon="-8.534147">
<ele>235.5</ele>
<desc>Speed 13.9 km/h Distance 57.68 km</desc>
<time>2011-05-22T11:22:39.25</time>
<name>12032</name>
<sym>Dot</sym>
</trkpt>
<trkpt lat="39.707128" lon="-8.534155">
<ele>236.5</ele>
<desc>Speed 10.8 km/h Distance 57.68 km</desc>
<time>2011-05-22T11:22:40.25</time>
<name>12033</name>
<sym>Dot</sym>
</trkpt>
<trkpt lat="39.707100" lon="-8.534162">
<ele>236.5</ele>
<desc>Speed 10.8 km/h Distance 57.68 km</desc>
<time>2011-05-22T11:22:41.25</time>
<name>12034</name>
<sym>Dot</sym>
</trkpt>
<trkpt lat="39.707085" lon="-8.534165">
<ele>237.0</ele>
<desc>Speed 5.2 km/h Distance 57.68 km</desc>
<time>2011-05-22T11:22:42.25</time>
<name>12035</name>
<sym>Dot</sym>
</trkpt>
<trkpt lat="39.707055" lon="-8.534168">
<ele>237.5</ele>
<desc>Speed 10.5 km/h Distance 57.69 km</desc>
<time>2011-05-22T11:22:43.25</time>
<name>12036</name>
<sym>Dot</sym>
</trkpt>
<trkpt lat="39.707032" lon="-8.534170">
<ele>238.0</ele>
<desc>Speed 7.8 km/h Distance 57.69 km</desc>
<time>2011-05-22T11:22:44.25</time>
<name>12037</name>
<sym>Dot</sym>
</trkpt>
<trkpt lat="39.707010" lon="-8.534172">
<ele>238.5</ele>
<desc>Speed 9.1 km/h Distance 57.69 km</desc>
<time>2011-05-22T11:22:45.25</time>
<name>12038</name>
<sym>Dot</sym>
</trkpt>
<trkpt lat="39.706993" lon="-8.534170">
<ele>240.0</ele>
<desc>Speed 6.1 km/h Distance 57.69 km</desc>
<time>2011-05-22T11:22:46.25</time>
<name>12039</name>
<sym>Dot</sym>
</trkpt>
<trkpt lat="39.706978" lon="-8.534170">
<ele>241.0</ele>
<desc>Speed 6.2 km/h Distance 57.70 km</desc>
<time>2011-05-22T11:22:47.25</time>
<name>12040</name>
<sym>Dot</sym>
</trkpt>
<trkpt lat="39.706955" lon="-8.534172">
<ele>241.0</ele>
<desc>Speed 9.1 km/h Distance 57.70 km</desc>
<time>2011-05-22T11:22:48.25</time>
<name>12041</name>
<sym>Dot</sym>
</trkpt>
<trkpt lat="39.706933" lon="-8.534175">
<ele>240.5</ele>
<desc>Speed 9.1 km/h Distance 57.70 km</desc>
<time>2011-05-22T11:22:49.25</time>
<name>12042</name>
<sym>Dot</sym>
</trkpt>
<trkpt lat="39.706912" lon="-8.534178">
<ele>240.5</ele>
<desc>Speed 8.8 km/h Distance 57.70 km</desc>
<time>2011-05-22T11:22:50.25</time>
<name>12043</name>
<sym>Dot</sym>
</trkpt>
<trkpt lat="39.706895" lon="-8.534175">
<ele>241.0</ele>
<desc>Speed 7.0 km/h Distance 57.71 km</desc>
<time>2011-05-22T11:22:51.25</time>
<name>12044</name>
<sym>Dot</sym>
</trkpt>
<trkpt lat="39.706877" lon="-8.534175">
<ele>241.0</ele>
<desc>Speed 7.5 km/h Distance 57.71 km</desc>
<time>2011-05-22T11:22:52.25</time>
<name>12045</name>
<sym>Dot</sym>
</trkpt>
<trkpt lat="39.706857" lon="-8.534172">
<ele>241.0</ele>
<desc>Speed 8.1 km/h Distance 57.71 km</desc>
<time>2011-05-22T11:22:53.25</time>
<name>12046</name>
<sym>Dot</sym>
</trkpt>
<trkpt lat="39.706833" lon="-8.534170">
<ele>240.5</ele>
<desc>Speed 9.0 km/h Distance 57.71 km</desc>
<time>2011-05-22T11:22:54.25</time>
<name>12047</name>
<sym>Dot</sym>
</trkpt>
<trkpt lat="39.706817" lon="-8.534172">
<ele>240.0</ele>
<desc>Speed 7.2 km/h Distance 57.71 km</desc>
<time>2011-05-22T11:22:55.25</time>
<name>12048</name>
<sym>Dot</sym>
</trkpt>
<trkpt lat="39.706798" lon="-8.534175">
<ele>240.0</ele>
<desc>Speed 7.5 km/h Distance 57.72 km</desc>
<time>2011-05-22T11:22:56.25</time>
<name>12049</name>
<sym>Dot</sym>
</trkpt>
<trkpt lat="39.706777" lon="-8.534180">
<ele>240.0</ele>
<desc>Speed 8.1 km/h Distance 57.72 km</desc>
<time>2011-05-22T11:22:57.25</time>
<name>12050</name>
<sym>Dot</sym>
</trkpt>
<trkpt lat="39.706753" lon="-8.534180">
<ele>239.5</ele>
<desc>Speed 7.5 km/h Distance 57.72 km</desc>
<time>2011-05-22T11:22:58.25</time>
<name>12051</name>
<sym>Dot</sym>
</trkpt>
<trkpt lat="39.706737" lon="-8.534178">
<ele>240.0</ele>
<desc>Speed 7.1 km/h Distance 57.72 km</desc>
<time>2011-05-22T11:22:59.25</time>
<name>12052</name>
<sym>Dot</sym>
</trkpt>
<trkpt lat="39.706722" lon="-8.534178">
<ele>240.0</ele>
<desc>Speed 6.2 km/h Distance 57.72 km</desc>
<time>2011-05-22T11:23:00.25</time>
<name>12053</name>
<sym>Dot</sym>
</trkpt>
<trkpt lat="39.706712" lon="-8.534185">
<ele>240.0</ele>
<desc>Speed 4.3 km/h Distance 57.73 km</desc>
<time>2011-05-22T11:23:01.25</time>
<name>12054</name>
<sym>Dot</sym>
</trkpt>
<trkpt lat="39.706700" lon="-8.534198">
<ele>240.0</ele>
<desc>Speed 4.9 km/h Distance 57.73 km</desc>
<time>2011-05-22T11:23:02.25</time>
<name>12055</name>
<sym>Dot</sym>
</trkpt>
<trkpt lat="39.706688" lon="-8.534208">
<ele>239.5</ele>
<desc>Speed 5.6 km/h Distance 57.73 km</desc>
<time>2011-05-22T11:23:03.25</time>
<name>12056</name>
<sym>Dot</sym>
</trkpt>
<trkpt lat="39.706677" lon="-8.534218">
<ele>239.5</ele>
<desc>Speed 4.9 km/h Distance 57.73 km</desc>
<time>2011-05-22T11:23:04.25</time>
<name>12057</name>
<sym>Dot</sym>
</trkpt>
<trkpt lat="39.706668" lon="-8.534228">
<ele>239.0</ele>
<desc>Speed 3.9 km/h Distance 57.73 km</desc>
<time>2011-05-22T11:23:05.25</time>
<name>12058</name>
<sym>Dot</sym>
</trkpt>
<trkpt lat="39.706660" lon="-8.534235">
<ele>238.5</ele>
<desc>Speed 2.4 km/h Distance 57.73 km</desc>
<time>2011-05-22T11:23:06.25</time>
<name>12059</name>
<sym>Dot</sym>
</trkpt>
<trkpt lat="39.706655" lon="-8.534240">
<ele>238.0</ele>
<desc>Speed 1.4 km/h Distance 57.73 km</desc>
<time>2011-05-22T11:23:07.25</time>
<name>12060</name>
<sym>Dot</sym>
</trkpt>
<trkpt lat="39.706652" lon="-8.534242">
<ele>238.0</ele>
<desc>Speed 1.8 km/h Distance 57.73 km</desc>
<time>2011-05-22T11:23:08.25</time>
<name>12061</name>
<sym>Dot</sym>
</trkpt>
<trkpt lat="39.706642" lon="-8.534240">
<ele>238.0</ele>
<desc>Speed 3.1 km/h Distance 57.74 km</desc>
<time>2011-05-22T11:23:09.25</time>
<name>12062</name>
<sym>Dot</sym>
</trkpt>
<trkpt lat="39.706633" lon="-8.534245">
<ele>238.0</ele>
<desc>Speed 4.0 km/h Distance 57.74 km</desc>
<time>2011-05-22T11:23:10.25</time>
<name>12063</name>
<sym>Dot</sym>
</trkpt>
<trkpt lat="39.706623" lon="-8.534255">
<ele>238.0</ele>
<desc>Speed 5.7 km/h Distance 57.74 km</desc>
<time>2011-05-22T11:23:11.25</time>
<name>12064</name>
<sym>Dot</sym>
</trkpt>
<trkpt lat="39.706602" lon="-8.534268">
<ele>237.5</ele>
<desc>Speed 8.3 km/h Distance 57.74 km</desc>
<time>2011-05-22T11:23:12.25</time>
<name>12065</name>
<sym>Dot</sym>
</trkpt>
<trkpt lat="39.706577" lon="-8.534280">
<ele>237.0</ele>
<desc>Speed 11.1 km/h Distance 57.74 km</desc>
<time>2011-05-22T11:23:13.25</time>
<name>12066</name>
<sym>Dot</sym>
</trkpt>
<trkpt lat="39.706543" lon="-8.534287">
<ele>236.0</ele>
<desc>Speed 13.5 km/h Distance 57.75 km</desc>
<time>2011-05-22T11:23:14.25</time>
<name>12067</name>
<sym>Dot</sym>
</trkpt>
<trkpt lat="39.706505" lon="-8.534300">
<ele>235.5</ele>
<desc>Speed 16.1 km/h Distance 57.75 km</desc>
<time>2011-05-22T11:23:15.25</time>
<name>12068</name>
<sym>Dot</sym>
</trkpt>
<trkpt lat="39.706468" lon="-8.534325">
<ele>235.0</ele>
<desc>Speed 17.0 km/h Distance 57.76 km</desc>
<time>2011-05-22T11:23:16.25</time>
<name>12069</name>
<sym>Dot</sym>
</trkpt>
<trkpt lat="39.706433" lon="-8.534365">
<ele>234.5</ele>
<desc>Speed 18.9 km/h Distance 57.76 km</desc>
<time>2011-05-22T11:23:17.25</time>
<name>12070</name>
<sym>Dot</sym>
</trkpt>
<trkpt lat="39.706398" lon="-8.534417">
<ele>234.0</ele>
<desc>Speed 20.8 km/h Distance 57.77 km</desc>
<time>2011-05-22T11:23:18.25</time>
<name>12071</name>
<sym>Dot</sym>
</trkpt>
<trkpt lat="39.706360" lon="-8.534475">
<ele>233.0</ele>
<desc>Speed 22.1 km/h Distance 57.77 km</desc>
<time>2011-05-22T11:23:19.25</time>
<name>12072</name>
<sym>Dot</sym>
</trkpt>
<trkpt lat="39.706322" lon="-8.534537">
<ele>232.0</ele>
<desc>Speed 22.2 km/h Distance 57.78 km</desc>
<time>2011-05-22T11:23:20.25</time>
<name>12073</name>
<sym>Dot</sym>
</trkpt>
<trkpt lat="39.706290" lon="-8.534588">
<ele>231.5</ele>
<desc>Speed 19.1 km/h Distance 57.79 km</desc>
<time>2011-05-22T11:23:21.25</time>
<name>12074</name>
<sym>Dot</sym>
</trkpt>
<trkpt lat="39.706263" lon="-8.534630">
<ele>230.5</ele>
<desc>Speed 15.1 km/h Distance 57.79 km</desc>
<time>2011-05-22T11:23:22.25</time>
<name>12075</name>
<sym>Dot</sym>
</trkpt>
<trkpt lat="39.706250" lon="-8.534660">
<ele>228.5</ele>
<desc>Speed 9.9 km/h Distance 57.79 km</desc>
<time>2011-05-22T11:23:23.25</time>
<name>12076</name>
<sym>Dot</sym>
</trkpt>
<trkpt lat="39.706237" lon="-8.534683">
<ele>229.0</ele>
<desc>Speed 7.7 km/h Distance 57.80 km</desc>
<time>2011-05-22T11:23:24.25</time>
<name>12077</name>
<sym>Dot</sym>
</trkpt>
<trkpt lat="39.706227" lon="-8.534712">
<ele>228.5</ele>
<desc>Speed 8.3 km/h Distance 57.80 km</desc>
<time>2011-05-22T11:23:25.25</time>
<name>12078</name>
<sym>Dot</sym>
</trkpt>
<trkpt lat="39.706215" lon="-8.534737">
<ele>228.0</ele>
<desc>Speed 7.8 km/h Distance 57.80 km</desc>
<time>2011-05-22T11:23:26.25</time>
<name>12079</name>
<sym>Dot</sym>
</trkpt>
<trkpt lat="39.706202" lon="-8.534760">
<ele>227.5</ele>
<desc>Speed 7.4 km/h Distance 57.80 km</desc>
<time>2011-05-22T11:23:27.25</time>
<name>12080</name>
<sym>Dot</sym>
</trkpt>
<trkpt lat="39.706193" lon="-8.534783">
<ele>228.0</ele>
<desc>Speed 6.2 km/h Distance 57.81 km</desc>
<time>2011-05-22T11:23:28.25</time>
<name>12081</name>
<sym>Dot</sym>
</trkpt>
<trkpt lat="39.706187" lon="-8.534797">
<ele>228.0</ele>
<desc>Speed 4.7 km/h Distance 57.81 km</desc>
<time>2011-05-22T11:23:29.25</time>
<name>12082</name>
<sym>Dot</sym>
</trkpt>
<trkpt lat="39.706180" lon="-8.534810">
<ele>228.5</ele>
<desc>Speed 4.1 km/h Distance 57.81 km</desc>
<time>2011-05-22T11:23:30.25</time>
<name>12083</name>
<sym>Dot</sym>
</trkpt>
<trkpt lat="39.706168" lon="-8.534820">
<ele>228.5</ele>
<desc>Speed 4.9 km/h Distance 57.81 km</desc>
<time>2011-05-22T11:23:31.25</time>
<name>12084</name>
<sym>Dot</sym>
</trkpt>
<trkpt lat="39.706162" lon="-8.534828">
<ele>228.5</ele>
<desc>Speed 3.3 km/h Distance 57.81 km</desc>
<time>2011-05-22T11:23:32.25</time>
<name>12085</name>
<sym>Dot</sym>
</trkpt>
<trkpt lat="39.706153" lon="-8.534835">
<ele>228.0</ele>
<desc>Speed 2.6 km/h Distance 57.81 km</desc>
<time>2011-05-22T11:23:33.25</time>
<name>12086</name>
<sym>Dot</sym>
</trkpt>
<trkpt lat="39.706148" lon="-8.534842">
<ele>228.0</ele>
<desc>Speed 1.6 km/h Distance 57.81 km</desc>
<time>2011-05-22T11:23:34.25</time>
<name>12087</name>
<sym>Dot</sym>
</trkpt>
<trkpt lat="39.706143" lon="-8.534845">
<ele>228.0</ele>
<desc>Speed 1.3 km/h Distance 57.81 km</desc>
<time>2011-05-22T11:23:35.25</time>
<name>12088</name>
<sym>Dot</sym>
</trkpt>
<trkpt lat="39.706133" lon="-8.534852">
<ele>227.5</ele>
<desc>Speed 2.4 km/h Distance 57.82 km</desc>
<time>2011-05-22T11:23:36.25</time>
<name>12089</name>
<sym>Dot</sym>
</trkpt>
<trkpt lat="39.706127" lon="-8.534858">
<ele>227.5</ele>
<desc>Speed 1.8 km/h Distance 57.82 km</desc>
<time>2011-05-22T11:23:37.25</time>
<name>12090</name>
<sym>Dot</sym>
</trkpt>
<trkpt lat="39.706118" lon="-8.534868">
<ele>227.0</ele>
<desc>Speed 2.4 km/h Distance 57.82 km</desc>
<time>2011-05-22T11:23:38.25</time>
<name>12091</name>
<sym>Dot</sym>
</trkpt>
<trkpt lat="39.706110" lon="-8.534873">
<ele>226.5</ele>
<desc>Speed 1.7 km/h Distance 57.82 km</desc>
<time>2011-05-22T11:23:39.25</time>
<name>12092</name>
<sym>Dot</sym>
</trkpt>
<trkpt lat="39.706077" lon="-8.534892">
<ele>222.0</ele>
<desc>Speed 1.1 km/h Distance 57.82 km</desc>
<time>2011-05-22T11:23:45.25</time>
<name>12093</name>
<sym>Dot</sym>
</trkpt>
<trkpt lat="39.706078" lon="-8.534887">
<ele>221.0</ele>
<desc>Speed 2.9 km/h Distance 57.82 km</desc>
<time>2011-05-22T11:23:46.25</time>
<name>12094</name>
<sym>Dot</sym>
</trkpt>
<trkpt lat="39.706080" lon="-8.534880">
<ele>220.5</ele>
<desc>Speed 3.3 km/h Distance 57.82 km</desc>
<time>2011-05-22T11:23:47.25</time>
<name>12095</name>
<sym>Dot</sym>
</trkpt>
<trkpt lat="39.706080" lon="-8.534877">
<ele>219.5</ele>
<desc>Speed 2.9 km/h Distance 57.82 km</desc>
<time>2011-05-22T11:23:48.25</time>
<name>12096</name>
<sym>Dot</sym>
</trkpt>
<trkpt lat="39.706078" lon="-8.534873">
<ele>219.0</ele>
<desc>Speed 2.4 km/h Distance 57.82 km</desc>
<time>2011-05-22T11:23:49.25</time>
<name>12097</name>
<sym>Dot</sym>
</trkpt>
<trkpt lat="39.706075" lon="-8.534870">
<ele>219.5</ele>
<desc>Speed 1.8 km/h Distance 57.82 km</desc>
<time>2011-05-22T11:23:50.25</time>
<name>12098</name>
<sym>Dot</sym>
</trkpt>
<trkpt lat="39.706073" lon="-8.534877">
<ele>219.5</ele>
<desc>Speed 1.3 km/h Distance 57.83 km</desc>
<time>2011-05-22T11:23:51.25</time>
<name>12099</name>
<sym>Dot</sym>
</trkpt>
<trkpt lat="39.706053" lon="-8.534910">
<ele>217.5</ele>
<desc>Speed 1.5 km/h Distance 57.83 km</desc>
<time>2011-05-22T11:24:02.25</time>
<name>12100</name>
<sym>Dot</sym>
</trkpt>
<trkpt lat="39.706012" lon="-8.534990">
<ele>210.5</ele>
<desc>Speed 5.9 km/h Distance 57.84 km</desc>
<time>2011-05-22T11:25:13.38</time>
<name>12101</name>
<sym>Dot</sym>
</trkpt>
<trkpt lat="39.706003" lon="-8.534998">
<ele>211.0</ele>
<desc>Speed 2.4 km/h Distance 57.84 km</desc>
<time>2011-05-22T11:25:15.30</time>
<name>12102</name>
<sym>Dot</sym>
</trkpt>
<trkpt lat="39.705995" lon="-8.535003">
<ele>211.5</ele>
<desc>Speed 2.0 km/h Distance 57.84 km</desc>
<time>2011-05-22T11:25:16.30</time>
<name>12103</name>
<sym>Dot</sym>
</trkpt>
<trkpt lat="39.705990" lon="-8.535005">
<ele>212.0</ele>
<desc>Speed 1.2 km/h Distance 57.84 km</desc>
<time>2011-05-22T11:25:17.30</time>
<name>12104</name>
<sym>Dot</sym>
</trkpt>
<trkpt lat="39.705987" lon="-8.534985">
<ele>213.0</ele>
<desc>Speed 7.4 km/h Distance 57.84 km</desc>
<time>2011-05-22T11:25:18.86</time>
<name>12105</name>
<sym>Dot</sym>
</trkpt>
<trkpt lat="39.705985" lon="-8.534997">
<ele>214.5</ele>
<desc>Speed 3.8 km/h Distance 57.84 km</desc>
<time>2011-05-22T11:25:19.74</time>
<name>12106</name>
<sym>Dot</sym>
</trkpt>
<trkpt lat="39.705988" lon="-8.535020">
<ele>211.0</ele>
<desc>Speed 1.2 km/h Distance 57.84 km</desc>
<time>2011-05-22T11:25:38.08</time>
<name>12107</name>
<sym>Dot</sym>
</trkpt>
<trkpt lat="39.705992" lon="-8.535022">
<ele>210.0</ele>
<desc>Speed 1.3 km/h Distance 57.84 km</desc>
<time>2011-05-22T11:25:38.99</time>
<name>12108</name>
<sym>Dot</sym>
</trkpt>
<trkpt lat="39.705997" lon="-8.535017">
<ele>209.5</ele>
<desc>Speed 2.8 km/h Distance 57.85 km</desc>
<time>2011-05-22T11:25:39.99</time>
<name>12109</name>
<sym>Dot</sym>
</trkpt>
<trkpt lat="39.706003" lon="-8.535028">
<ele>207.0</ele>
<desc>Speed 1.3 km/h Distance 57.85 km</desc>
<time>2011-05-22T11:25:47.97</time>
<name>12110</name>
<sym>Dot</sym>
</trkpt>
<trkpt lat="39.706005" lon="-8.535048">
<ele>204.5</ele>
<desc>Speed 2.0 km/h Distance 57.85 km</desc>
<time>2011-05-22T11:26:54.04</time>
<name>12111</name>
<sym>Dot</sym>
</trkpt>
<trkpt lat="39.706003" lon="-8.535047">
<ele>204.5</ele>
<desc>Speed 1.1 km/h Distance 57.85 km</desc>
<time>2011-05-22T11:26:54.96</time>
<name>12112</name>
<sym>Dot</sym>
</trkpt>
<trkpt lat="39.706010" lon="-8.535045">
<ele>203.5</ele>
<desc>Speed 1.3 km/h Distance 57.85 km</desc>
<time>2011-05-22T11:27:23.96</time>
<name>12113</name>
<sym>Dot</sym>
</trkpt>
<trkpt lat="39.705998" lon="-8.535055">
<ele>203.0</ele>
<desc>Speed 1.3 km/h Distance 57.85 km</desc>
<time>2011-05-22T11:34:16.91</time>
<name>12114</name>
<sym>Dot</sym>
</trkpt>
<trkpt lat="39.705998" lon="-8.535048">
<ele>203.0</ele>
<desc>Speed 2.2 km/h Distance 57.85 km</desc>
<time>2011-05-22T11:34:17.91</time>
<name>12115</name>
<sym>Dot</sym>
</trkpt>
<trkpt lat="39.705987" lon="-8.535053">
<ele>205.5</ele>
<desc>Speed 1.5 km/h Distance 57.85 km</desc>
<time>2011-05-22T11:34:50.90</time>
<name>12116</name>
<sym>Dot</sym>
</trkpt>
<trkpt lat="39.705985" lon="-8.535058">
<ele>205.5</ele>
<desc>Speed 2.0 km/h Distance 57.85 km</desc>
<time>2011-05-22T11:34:51.90</time>
<name>12117</name>
<sym>Dot</sym>
</trkpt>
<trkpt lat="39.705980" lon="-8.535062">
<ele>206.0</ele>
<desc>Speed 1.6 km/h Distance 57.85 km</desc>
<time>2011-05-22T11:34:52.89</time>
<name>12118</name>
<sym>Dot</sym>
</trkpt>
<trkpt lat="39.705977" lon="-8.535067">
<ele>206.0</ele>
<desc>Speed 2.3 km/h Distance 57.85 km</desc>
<time>2011-05-22T11:34:56.88</time>
<name>12119</name>
<sym>Dot</sym>
</trkpt>
<trkpt lat="39.705972" lon="-8.535073">
<ele>206.5</ele>
<desc>Speed 3.4 km/h Distance 57.86 km</desc>
<time>2011-05-22T11:34:57.88</time>
<name>12120</name>
<sym>Dot</sym>
</trkpt>
<trkpt lat="39.705970" lon="-8.535075">
<ele>206.5</ele>
<desc>Speed 1.3 km/h Distance 57.86 km</desc>
<time>2011-05-22T11:34:58.88</time>
<name>12121</name>
<sym>Dot</sym>
</trkpt>
<trkpt lat="39.705972" lon="-8.535078">
<ele>206.0</ele>
<desc>Speed 2.8 km/h Distance 57.86 km</desc>
<time>2011-05-22T11:35:04.88</time>
<name>12122</name>
<sym>Dot</sym>
</trkpt>
<trkpt lat="39.705967" lon="-8.535082">
<ele>206.0</ele>
<desc>Speed 2.3 km/h Distance 57.86 km</desc>
<time>2011-05-22T11:35:05.88</time>
<name>12123</name>
<sym>Dot</sym>
</trkpt>
<trkpt lat="39.705963" lon="-8.535088">
<ele>206.0</ele>
<desc>Speed 3.1 km/h Distance 57.86 km</desc>
<time>2011-05-22T11:35:06.88</time>
<name>12124</name>
<sym>Dot</sym>
</trkpt>
<trkpt lat="39.705958" lon="-8.535097">
<ele>206.0</ele>
<desc>Speed 3.3 km/h Distance 57.86 km</desc>
<time>2011-05-22T11:35:07.88</time>
<name>12125</name>
<sym>Dot</sym>
</trkpt>
<trkpt lat="39.705955" lon="-8.535107">
<ele>206.0</ele>
<desc>Speed 3.8 km/h Distance 57.86 km</desc>
<time>2011-05-22T11:35:08.87</time>
<name>12126</name>
<sym>Dot</sym>
</trkpt>
<trkpt lat="39.705952" lon="-8.535113">
<ele>206.0</ele>
<desc>Speed 2.8 km/h Distance 57.86 km</desc>
<time>2011-05-22T11:35:09.87</time>
<name>12127</name>
<sym>Dot</sym>
</trkpt>
<trkpt lat="39.705952" lon="-8.535120">
<ele>206.5</ele>
<desc>Speed 2.2 km/h Distance 57.86 km</desc>
<time>2011-05-22T11:35:10.87</time>
<name>12128</name>
<sym>Dot</sym>
</trkpt>
<trkpt lat="39.705952" lon="-8.535128">
<ele>206.5</ele>
<desc>Speed 2.4 km/h Distance 57.86 km</desc>
<time>2011-05-22T11:35:11.87</time>
<name>12129</name>
<sym>Dot</sym>
</trkpt>
<trkpt lat="39.705948" lon="-8.535135">
<ele>206.5</ele>
<desc>Speed 2.7 km/h Distance 57.86 km</desc>
<time>2011-05-22T11:35:12.87</time>
<name>12130</name>
<sym>Dot</sym>
</trkpt>
<trkpt lat="39.705942" lon="-8.535138">
<ele>206.5</ele>
<desc>Speed 2.6 km/h Distance 57.86 km</desc>
<time>2011-05-22T11:35:13.86</time>
<name>12131</name>
<sym>Dot</sym>
</trkpt>
<trkpt lat="39.705935" lon="-8.535140">
<ele>207.0</ele>
<desc>Speed 2.9 km/h Distance 57.86 km</desc>
<time>2011-05-22T11:35:14.86</time>
<name>12132</name>
<sym>Dot</sym>
</trkpt>
<trkpt lat="39.705927" lon="-8.535143">
<ele>207.5</ele>
<desc>Speed 3.4 km/h Distance 57.86 km</desc>
<time>2011-05-22T11:35:15.86</time>
<name>12133</name>
<sym>Dot</sym>
</trkpt>
<trkpt lat="39.705922" lon="-8.535152">
<ele>207.5</ele>
<desc>Speed 3.3 km/h Distance 57.87 km</desc>
<time>2011-05-22T11:35:16.86</time>
<name>12134</name>
<sym>Dot</sym>
</trkpt>
<trkpt lat="39.705920" lon="-8.535160">
<ele>207.5</ele>
<desc>Speed 2.8 km/h Distance 57.87 km</desc>
<time>2011-05-22T11:35:17.86</time>
<name>12135</name>
<sym>Dot</sym>
</trkpt>
<trkpt lat="39.705917" lon="-8.535167">
<ele>207.5</ele>
<desc>Speed 2.5 km/h Distance 57.87 km</desc>
<time>2011-05-22T11:35:18.86</time>
<name>12136</name>
<sym>Dot</sym>
</trkpt>
<trkpt lat="39.705912" lon="-8.535177">
<ele>208.0</ele>
<desc>Speed 4.0 km/h Distance 57.87 km</desc>
<time>2011-05-22T11:35:19.86</time>
<name>12137</name>
<sym>Dot</sym>
</trkpt>
<trkpt lat="39.705903" lon="-8.535188">
<ele>207.5</ele>
<desc>Speed 5.0 km/h Distance 57.87 km</desc>
<time>2011-05-22T11:35:20.85</time>
<name>12138</name>
<sym>Dot</sym>
</trkpt>
<trkpt lat="39.705892" lon="-8.535202">
<ele>208.0</ele>
<desc>Speed 5.7 km/h Distance 57.87 km</desc>
<time>2011-05-22T11:35:21.85</time>
<name>12139</name>
<sym>Dot</sym>
</trkpt>
<trkpt lat="39.705882" lon="-8.535215">
<ele>208.0</ele>
<desc>Speed 5.8 km/h Distance 57.87 km</desc>
<time>2011-05-22T11:35:22.84</time>
<name>12140</name>
<sym>Dot</sym>
</trkpt>
<trkpt lat="39.705873" lon="-8.535232">
<ele>208.0</ele>
<desc>Speed 6.3 km/h Distance 57.87 km</desc>
<time>2011-05-22T11:35:23.84</time>
<name>12141</name>
<sym>Dot</sym>
</trkpt>
<trkpt lat="39.705862" lon="-8.535248">
<ele>208.0</ele>
<desc>Speed 6.8 km/h Distance 57.88 km</desc>
<time>2011-05-22T11:35:24.83</time>
<name>12142</name>
<sym>Dot</sym>
</trkpt>
<trkpt lat="39.705848" lon="-8.535268">
<ele>208.0</ele>
<desc>Speed 7.8 km/h Distance 57.88 km</desc>
<time>2011-05-22T11:35:25.83</time>
<name>12143</name>
<sym>Dot</sym>
</trkpt>
<trkpt lat="39.705830" lon="-8.535290">
<ele>208.0</ele>
<desc>Speed 9.0 km/h Distance 57.88 km</desc>
<time>2011-05-22T11:35:26.83</time>
<name>12144</name>
<sym>Dot</sym>
</trkpt>
<trkpt lat="39.705810" lon="-8.535310">
<ele>208.5</ele>
<desc>Speed 9.7 km/h Distance 57.88 km</desc>
<time>2011-05-22T11:35:27.83</time>
<name>12145</name>
<sym>Dot</sym>
</trkpt>
<trkpt lat="39.705788" lon="-8.535330">
<ele>209.0</ele>
<desc>Speed 10.0 km/h Distance 57.89 km</desc>
<time>2011-05-22T11:35:28.83</time>
<name>12146</name>
<sym>Dot</sym>
</trkpt>
<trkpt lat="39.705768" lon="-8.535353">
<ele>209.0</ele>
<desc>Speed 10.5 km/h Distance 57.89 km</desc>
<time>2011-05-22T11:35:29.82</time>
<name>12147</name>
<sym>Dot</sym>
</trkpt>
<trkpt lat="39.705748" lon="-8.535377">
<ele>209.0</ele>
<desc>Speed 10.0 km/h Distance 57.89 km</desc>
<time>2011-05-22T11:35:30.82</time>
<name>12148</name>
<sym>Dot</sym>
</trkpt>
<trkpt lat="39.705727" lon="-8.535398">
<ele>209.0</ele>
<desc>Speed 10.2 km/h Distance 57.90 km</desc>
<time>2011-05-22T11:35:31.81</time>
<name>12149</name>
<sym>Dot</sym>
</trkpt>
<trkpt lat="39.705705" lon="-8.535418">
<ele>209.0</ele>
<desc>Speed 10.6 km/h Distance 57.90 km</desc>
<time>2011-05-22T11:35:32.82</time>
<name>12150</name>
<sym>Dot</sym>
</trkpt>
<trkpt lat="39.705683" lon="-8.535438">
<ele>209.0</ele>
<desc>Speed 10.7 km/h Distance 57.90 km</desc>
<time>2011-05-22T11:35:33.80</time>
<name>12151</name>
<sym>Dot</sym>
</trkpt>
<trkpt lat="39.705660" lon="-8.535458">
<ele>209.0</ele>
<desc>Speed 11.0 km/h Distance 57.90 km</desc>
<time>2011-05-22T11:35:34.80</time>
<name>12152</name>
<sym>Dot</sym>
</trkpt>
<trkpt lat="39.705637" lon="-8.535478">
<ele>208.5</ele>
<desc>Speed 11.1 km/h Distance 57.91 km</desc>
<time>2011-05-22T11:35:35.80</time>
<name>12153</name>
<sym>Dot</sym>
</trkpt>
<trkpt lat="39.705613" lon="-8.535502">
<ele>208.0</ele>
<desc>Speed 11.9 km/h Distance 57.91 km</desc>
<time>2011-05-22T11:35:36.80</time>
<name>12154</name>
<sym>Dot</sym>
</trkpt>
<trkpt lat="39.705590" lon="-8.535527">
<ele>208.0</ele>
<desc>Speed 12.0 km/h Distance 57.91 km</desc>
<time>2011-05-22T11:35:37.80</time>
<name>12155</name>
<sym>Dot</sym>
</trkpt>
<trkpt lat="39.705570" lon="-8.535550">
<ele>207.5</ele>
<desc>Speed 10.5 km/h Distance 57.92 km</desc>
<time>2011-05-22T11:35:38.80</time>
<name>12156</name>
<sym>Dot</sym>
</trkpt>
<trkpt lat="39.705552" lon="-8.535578">
<ele>207.0</ele>
<desc>Speed 11.1 km/h Distance 57.92 km</desc>
<time>2011-05-22T11:35:39.79</time>
<name>12157</name>
<sym>Dot</sym>
</trkpt>
<trkpt lat="39.705538" lon="-8.535610">
<ele>206.5</ele>
<desc>Speed 10.9 km/h Distance 57.92 km</desc>
<time>2011-05-22T11:35:40.80</time>
<name>12158</name>
<sym>Dot</sym>
</trkpt>
<trkpt lat="39.705528" lon="-8.535645">
<ele>206.5</ele>
<desc>Speed 11.3 km/h Distance 57.93 km</desc>
<time>2011-05-22T11:35:41.79</time>
<name>12159</name>
<sym>Dot</sym>
</trkpt>
<trkpt lat="39.705522" lon="-8.535688">
<ele>206.0</ele>
<desc>Speed 13.3 km/h Distance 57.93 km</desc>
<time>2011-05-22T11:35:42.78</time>
<name>12160</name>
<sym>Dot</sym>
</trkpt>
<trkpt lat="39.705518" lon="-8.535733">
<ele>205.5</ele>
<desc>Speed 13.5 km/h Distance 57.93 km</desc>
<time>2011-05-22T11:35:43.78</time>
<name>12161</name>
<sym>Dot</sym>
</trkpt>
<trkpt lat="39.705515" lon="-8.535782">
<ele>205.0</ele>
<desc>Speed 14.5 km/h Distance 57.94 km</desc>
<time>2011-05-22T11:35:44.78</time>
<name>12162</name>
<sym>Dot</sym>
</trkpt>
<trkpt lat="39.705510" lon="-8.535832">
<ele>204.5</ele>
<desc>Speed 15.2 km/h Distance 57.94 km</desc>
<time>2011-05-22T11:35:45.78</time>
<name>12163</name>
<sym>Dot</sym>
</trkpt>
<trkpt lat="39.705500" lon="-8.535887">
<ele>204.0</ele>
<desc>Speed 17.5 km/h Distance 57.95 km</desc>
<time>2011-05-22T11:35:46.78</time>
<name>12164</name>
<sym>Dot</sym>
</trkpt>
<trkpt lat="39.705490" lon="-8.535950">
<ele>203.0</ele>
<desc>Speed 19.3 km/h Distance 57.95 km</desc>
<time>2011-05-22T11:35:47.77</time>
<name>12165</name>
<sym>Dot</sym>
</trkpt>
<trkpt lat="39.705477" lon="-8.536008">
<ele>202.5</ele>
<desc>Speed 18.5 km/h Distance 57.96 km</desc>
<time>2011-05-22T11:35:48.77</time>
<name>12166</name>
<sym>Dot</sym>
</trkpt>
<trkpt lat="39.705463" lon="-8.536070">
<ele>203.0</ele>
<desc>Speed 19.4 km/h Distance 57.96 km</desc>
<time>2011-05-22T11:35:49.77</time>
<name>12167</name>
<sym>Dot</sym>
</trkpt>
<trkpt lat="39.705447" lon="-8.536128">
<ele>202.0</ele>
<desc>Speed 18.7 km/h Distance 57.97 km</desc>
<time>2011-05-22T11:35:50.76</time>
<name>12168</name>
<sym>Dot</sym>
</trkpt>
<trkpt lat="39.705430" lon="-8.536185">
<ele>201.5</ele>
<desc>Speed 18.4 km/h Distance 57.97 km</desc>
<time>2011-05-22T11:35:51.76</time>
<name>12169</name>
<sym>Dot</sym>
</trkpt>
<trkpt lat="39.705417" lon="-8.536240">
<ele>200.5</ele>
<desc>Speed 17.3 km/h Distance 57.98 km</desc>
<time>2011-05-22T11:35:52.75</time>
<name>12170</name>
<sym>Dot</sym>
</trkpt>
<trkpt lat="39.705405" lon="-8.536292">
<ele>200.0</ele>
<desc>Speed 16.1 km/h Distance 57.98 km</desc>
<time>2011-05-22T11:35:53.75</time>
<name>12171</name>
<sym>Dot</sym>
</trkpt>
<trkpt lat="39.705397" lon="-8.536338">
<ele>199.0</ele>
<desc>Speed 14.9 km/h Distance 57.99 km</desc>
<time>2011-05-22T11:35:54.75</time>
<name>12172</name>
<sym>Dot</sym>
</trkpt>
<trkpt lat="39.705390" lon="-8.536382">
<ele>198.5</ele>
<desc>Speed 12.7 km/h Distance 57.99 km</desc>
<time>2011-05-22T11:35:55.74</time>
<name>12173</name>
<sym>Dot</sym>
</trkpt>
<trkpt lat="39.705380" lon="-8.536425">
<ele>198.5</ele>
<desc>Speed 13.7 km/h Distance 58.00 km</desc>
<time>2011-05-22T11:35:56.74</time>
<name>12174</name>
<sym>Dot</sym>
</trkpt>
<trkpt lat="39.705370" lon="-8.536472">
<ele>197.5</ele>
<desc>Speed 14.4 km/h Distance 58.00 km</desc>
<time>2011-05-22T11:35:57.73</time>
<name>12175</name>
<sym>Dot</sym>
</trkpt>
<trkpt lat="39.705360" lon="-8.536513">
<ele>197.5</ele>
<desc>Speed 13.4 km/h Distance 58.00 km</desc>
<time>2011-05-22T11:35:58.73</time>
<name>12176</name>
<sym>Dot</sym>
</trkpt>
<trkpt lat="39.705352" lon="-8.536550">
<ele>197.5</ele>
<desc>Speed 11.7 km/h Distance 58.01 km</desc>
<time>2011-05-22T11:35:59.73</time>
<name>12177</name>
<sym>Dot</sym>
</trkpt>
<trkpt lat="39.705345" lon="-8.536593">
<ele>197.5</ele>
<desc>Speed 13.1 km/h Distance 58.01 km</desc>
<time>2011-05-22T11:36:00.72</time>
<name>12178</name>
<sym>Dot</sym>
</trkpt>
<trkpt lat="39.705337" lon="-8.536637">
<ele>197.5</ele>
<desc>Speed 14.0 km/h Distance 58.02 km</desc>
<time>2011-05-22T11:36:01.72</time>
<name>12179</name>
<sym>Dot</sym>
</trkpt>
<trkpt lat="39.705323" lon="-8.536682">
<ele>197.5</ele>
<desc>Speed 14.4 km/h Distance 58.02 km</desc>
<time>2011-05-22T11:36:02.72</time>
<name>12180</name>
<sym>Dot</sym>
</trkpt>
<trkpt lat="39.705303" lon="-8.536723">
<ele>197.5</ele>
<desc>Speed 15.3 km/h Distance 58.02 km</desc>
<time>2011-05-22T11:36:03.71</time>
<name>12181</name>
<sym>Dot</sym>
</trkpt>
<trkpt lat="39.705277" lon="-8.536765">
<ele>197.5</ele>
<desc>Speed 16.2 km/h Distance 58.03 km</desc>
<time>2011-05-22T11:36:04.71</time>
<name>12182</name>
<sym>Dot</sym>
</trkpt>
<trkpt lat="39.705245" lon="-8.536807">
<ele>197.5</ele>
<desc>Speed 17.1 km/h Distance 58.03 km</desc>
<time>2011-05-22T11:36:05.71</time>
<name>12183</name>
<sym>Dot</sym>
</trkpt>
<trkpt lat="39.705210" lon="-8.536847">
<ele>197.5</ele>
<desc>Speed 18.3 km/h Distance 58.04 km</desc>
<time>2011-05-22T11:36:06.71</time>
<name>12184</name>
<sym>Dot</sym>
</trkpt>
<trkpt lat="39.705172" lon="-8.536888">
<ele>197.5</ele>
<desc>Speed 19.4 km/h Distance 58.04 km</desc>
<time>2011-05-22T11:36:07.71</time>
<name>12185</name>
<sym>Dot</sym>
</trkpt>
<trkpt lat="39.705135" lon="-8.536935">
<ele>197.5</ele>
<desc>Speed 20.6 km/h Distance 58.05 km</desc>
<time>2011-05-22T11:36:08.71</time>
<name>12186</name>
<sym>Dot</sym>
</trkpt>
<trkpt lat="39.705095" lon="-8.536985">
<ele>197.0</ele>
<desc>Speed 21.9 km/h Distance 58.06 km</desc>
<time>2011-05-22T11:36:09.70</time>
<name>12187</name>
<sym>Dot</sym>
</trkpt>
<trkpt lat="39.705055" lon="-8.537038">
<ele>197.0</ele>
<desc>Speed 22.7 km/h Distance 58.06 km</desc>
<time>2011-05-22T11:36:10.71</time>
<name>12188</name>
<sym>Dot</sym>
</trkpt>
<trkpt lat="39.705012" lon="-8.537088">
<ele>196.5</ele>
<desc>Speed 23.0 km/h Distance 58.07 km</desc>
<time>2011-05-22T11:36:11.70</time>
<name>12189</name>
<sym>Dot</sym>
</trkpt>
<trkpt lat="39.704967" lon="-8.537142">
<ele>196.0</ele>
<desc>Speed 23.7 km/h Distance 58.08 km</desc>
<time>2011-05-22T11:36:12.69</time>
<name>12190</name>
<sym>Dot</sym>
</trkpt>
<trkpt lat="39.704920" lon="-8.537193">
<ele>195.5</ele>
<desc>Speed 24.2 km/h Distance 58.08 km</desc>
<time>2011-05-22T11:36:13.69</time>
<name>12191</name>
<sym>Dot</sym>
</trkpt>
<trkpt lat="39.704873" lon="-8.537245">
<ele>195.5</ele>
<desc>Speed 24.8 km/h Distance 58.09 km</desc>
<time>2011-05-22T11:36:14.68</time>
<name>12192</name>
<sym>Dot</sym>
</trkpt>
<trkpt lat="39.704823" lon="-8.537300">
<ele>195.0</ele>
<desc>Speed 25.5 km/h Distance 58.10 km</desc>
<time>2011-05-22T11:36:15.67</time>
<name>12193</name>
<sym>Dot</sym>
</trkpt>
<trkpt lat="39.704773" lon="-8.537353">
<ele>195.0</ele>
<desc>Speed 25.7 km/h Distance 58.10 km</desc>
<time>2011-05-22T11:36:16.67</time>
<name>12194</name>
<sym>Dot</sym>
</trkpt>
<trkpt lat="39.704722" lon="-8.537407">
<ele>195.0</ele>
<desc>Speed 25.9 km/h Distance 58.11 km</desc>
<time>2011-05-22T11:36:17.67</time>
<name>12195</name>
<sym>Dot</sym>
</trkpt>
<trkpt lat="39.704672" lon="-8.537458">
<ele>194.5</ele>
<desc>Speed 25.8 km/h Distance 58.12 km</desc>
<time>2011-05-22T11:36:18.66</time>
<name>12196</name>
<sym>Dot</sym>
</trkpt>
<trkpt lat="39.704620" lon="-8.537510">
<ele>194.5</ele>
<desc>Speed 25.7 km/h Distance 58.13 km</desc>
<time>2011-05-22T11:36:19.66</time>
<name>12197</name>
<sym>Dot</sym>
</trkpt>
<trkpt lat="39.704568" lon="-8.537562">
<ele>194.0</ele>
<desc>Speed 25.8 km/h Distance 58.13 km</desc>
<time>2011-05-22T11:36:20.65</time>
<name>12198</name>
<sym>Dot</sym>
</trkpt>
<trkpt lat="39.704518" lon="-8.537617">
<ele>194.0</ele>
<desc>Speed 25.5 km/h Distance 58.14 km</desc>
<time>2011-05-22T11:36:21.65</time>
<name>12199</name>
<sym>Dot</sym>
</trkpt>
<trkpt lat="39.704470" lon="-8.537673">
<ele>193.5</ele>
<desc>Speed 25.7 km/h Distance 58.15 km</desc>
<time>2011-05-22T11:36:22.64</time>
<name>12200</name>
<sym>Dot</sym>
</trkpt>
<trkpt lat="39.704423" lon="-8.537733">
<ele>193.5</ele>
<desc>Speed 25.5 km/h Distance 58.15 km</desc>
<time>2011-05-22T11:36:23.64</time>
<name>12201</name>
<sym>Dot</sym>
</trkpt>
<trkpt lat="39.704383" lon="-8.537797">
<ele>193.5</ele>
<desc>Speed 25.0 km/h Distance 58.16 km</desc>
<time>2011-05-22T11:36:24.64</time>
<name>12202</name>
<sym>Dot</sym>
</trkpt>
<trkpt lat="39.704348" lon="-8.537860">
<ele>193.5</ele>
<desc>Speed 24.2 km/h Distance 58.17 km</desc>
<time>2011-05-22T11:36:25.64</time>
<name>12203</name>
<sym>Dot</sym>
</trkpt>
<trkpt lat="39.704318" lon="-8.537925">
<ele>193.5</ele>
<desc>Speed 22.9 km/h Distance 58.17 km</desc>
<time>2011-05-22T11:36:26.63</time>
<name>12204</name>
<sym>Dot</sym>
</trkpt>
<trkpt lat="39.704295" lon="-8.537990">
<ele>193.5</ele>
<desc>Speed 22.2 km/h Distance 58.18 km</desc>
<time>2011-05-22T11:36:27.63</time>
<name>12205</name>
<sym>Dot</sym>
</trkpt>
<trkpt lat="39.704272" lon="-8.538053">
<ele>193.5</ele>
<desc>Speed 21.6 km/h Distance 58.19 km</desc>
<time>2011-05-22T11:36:28.62</time>
<name>12206</name>
<sym>Dot</sym>
</trkpt>
<trkpt lat="39.704248" lon="-8.538113">
<ele>193.5</ele>
<desc>Speed 20.8 km/h Distance 58.19 km</desc>
<time>2011-05-22T11:36:29.62</time>
<name>12207</name>
<sym>Dot</sym>
</trkpt>
<trkpt lat="39.704227" lon="-8.538172">
<ele>193.5</ele>
<desc>Speed 19.7 km/h Distance 58.20 km</desc>
<time>2011-05-22T11:36:30.61</time>
<name>12208</name>
<sym>Dot</sym>
</trkpt>
<trkpt lat="39.704208" lon="-8.538225">
<ele>193.5</ele>
<desc>Speed 18.4 km/h Distance 58.20 km</desc>
<time>2011-05-22T11:36:31.61</time>
<name>12209</name>
<sym>Dot</sym>
</trkpt>
<trkpt lat="39.704188" lon="-8.538280">
<ele>193.0</ele>
<desc>Speed 18.3 km/h Distance 58.21 km</desc>
<time>2011-05-22T11:36:32.61</time>
<name>12210</name>
<sym>Dot</sym>
</trkpt>
<trkpt lat="39.704173" lon="-8.538333">
<ele>193.0</ele>
<desc>Speed 17.8 km/h Distance 58.21 km</desc>
<time>2011-05-22T11:36:33.60</time>
<name>12211</name>
<sym>Dot</sym>
</trkpt>
<trkpt lat="39.704160" lon="-8.538387">
<ele>193.0</ele>
<desc>Speed 17.2 km/h Distance 58.22 km</desc>
<time>2011-05-22T11:36:34.60</time>
<name>12212</name>
<sym>Dot</sym>
</trkpt>
<trkpt lat="39.704145" lon="-8.538440">
<ele>193.0</ele>
<desc>Speed 17.3 km/h Distance 58.22 km</desc>
<time>2011-05-22T11:36:35.59</time>
<name>12213</name>
<sym>Dot</sym>
</trkpt>
<trkpt lat="39.704128" lon="-8.538493">
<ele>193.0</ele>
<desc>Speed 17.6 km/h Distance 58.23 km</desc>
<time>2011-05-22T11:36:36.59</time>
<name>12214</name>
<sym>Dot</sym>
</trkpt>
<trkpt lat="39.704112" lon="-8.538548">
<ele>193.5</ele>
<desc>Speed 18.5 km/h Distance 58.23 km</desc>
<time>2011-05-22T11:36:37.58</time>
<name>12215</name>
<sym>Dot</sym>
</trkpt>
<trkpt lat="39.704092" lon="-8.538608">
<ele>193.5</ele>
<desc>Speed 19.9 km/h Distance 58.24 km</desc>
<time>2011-05-22T11:36:38.58</time>
<name>12216</name>
<sym>Dot</sym>
</trkpt>
<trkpt lat="39.704072" lon="-8.538668">
<ele>193.5</ele>
<desc>Speed 20.2 km/h Distance 58.24 km</desc>
<time>2011-05-22T11:36:39.58</time>
<name>12217</name>
<sym>Dot</sym>
</trkpt>
<trkpt lat="39.704052" lon="-8.538730">
<ele>193.5</ele>
<desc>Speed 20.6 km/h Distance 58.25 km</desc>
<time>2011-05-22T11:36:40.57</time>
<name>12218</name>
<sym>Dot</sym>
</trkpt>
<trkpt lat="39.704032" lon="-8.538792">
<ele>193.5</ele>
<desc>Speed 20.4 km/h Distance 58.26 km</desc>
<time>2011-05-22T11:36:41.57</time>
<name>12219</name>
<sym>Dot</sym>
</trkpt>
<trkpt lat="39.704010" lon="-8.538850">
<ele>193.5</ele>
<desc>Speed 20.0 km/h Distance 58.26 km</desc>
<time>2011-05-22T11:36:42.57</time>
<name>12220</name>
<sym>Dot</sym>
</trkpt>
<trkpt lat="39.703990" lon="-8.538908">
<ele>193.0</ele>
<desc>Speed 19.6 km/h Distance 58.27 km</desc>
<time>2011-05-22T11:36:43.57</time>
<name>12221</name>
<sym>Dot</sym>
</trkpt>
<trkpt lat="39.703970" lon="-8.538965">
<ele>193.0</ele>
<desc>Speed 19.2 km/h Distance 58.27 km</desc>
<time>2011-05-22T11:36:44.56</time>
<name>12222</name>
<sym>Dot</sym>
</trkpt>
<trkpt lat="39.703948" lon="-8.539020">
<ele>193.0</ele>
<desc>Speed 18.7 km/h Distance 58.28 km</desc>
<time>2011-05-22T11:36:45.55</time>
<name>12223</name>
<sym>Dot</sym>
</trkpt>
<trkpt lat="39.703928" lon="-8.539073">
<ele>193.0</ele>
<desc>Speed 18.5 km/h Distance 58.28 km</desc>
<time>2011-05-22T11:36:46.55</time>
<name>12224</name>
<sym>Dot</sym>
</trkpt>
<trkpt lat="39.703907" lon="-8.539125">
<ele>193.0</ele>
<desc>Speed 18.0 km/h Distance 58.29 km</desc>
<time>2011-05-22T11:36:47.55</time>
<name>12225</name>
<sym>Dot</sym>
</trkpt>
<trkpt lat="39.703883" lon="-8.539175">
<ele>193.0</ele>
<desc>Speed 17.9 km/h Distance 58.29 km</desc>
<time>2011-05-22T11:36:48.55</time>
<name>12226</name>
<sym>Dot</sym>
</trkpt>
<trkpt lat="39.703860" lon="-8.539225">
<ele>193.0</ele>
<desc>Speed 17.8 km/h Distance 58.30 km</desc>
<time>2011-05-22T11:36:49.54</time>
<name>12227</name>
<sym>Dot</sym>
</trkpt>
<trkpt lat="39.703832" lon="-8.539272">
<ele>193.0</ele>
<desc>Speed 18.2 km/h Distance 58.30 km</desc>
<time>2011-05-22T11:36:50.53</time>
<name>12228</name>
<sym>Dot</sym>
</trkpt>
<trkpt lat="39.703802" lon="-8.539315">
<ele>192.5</ele>
<desc>Speed 18.3 km/h Distance 58.31 km</desc>
<time>2011-05-22T11:36:51.53</time>
<name>12229</name>
<sym>Dot</sym>
</trkpt>
<trkpt lat="39.703765" lon="-8.539355">
<ele>193.0</ele>
<desc>Speed 18.7 km/h Distance 58.31 km</desc>
<time>2011-05-22T11:36:52.53</time>
<name>12230</name>
<sym>Dot</sym>
</trkpt>
<trkpt lat="39.703728" lon="-8.539395">
<ele>193.0</ele>
<desc>Speed 19.2 km/h Distance 58.32 km</desc>
<time>2011-05-22T11:36:53.52</time>
<name>12231</name>
<sym>Dot</sym>
</trkpt>
<trkpt lat="39.703692" lon="-8.539433">
<ele>193.0</ele>
<desc>Speed 19.3 km/h Distance 58.32 km</desc>
<time>2011-05-22T11:36:54.52</time>
<name>12232</name>
<sym>Dot</sym>
</trkpt>
<trkpt lat="39.703652" lon="-8.539470">
<ele>193.0</ele>
<desc>Speed 19.4 km/h Distance 58.33 km</desc>
<time>2011-05-22T11:36:55.51</time>
<name>12233</name>
<sym>Dot</sym>
</trkpt>
<trkpt lat="39.703608" lon="-8.539502">
<ele>193.5</ele>
<desc>Speed 19.7 km/h Distance 58.33 km</desc>
<time>2011-05-22T11:36:56.51</time>
<name>12234</name>
<sym>Dot</sym>
</trkpt>
<trkpt lat="39.703567" lon="-8.539533">
<ele>193.5</ele>
<desc>Speed 19.6 km/h Distance 58.34 km</desc>
<time>2011-05-22T11:36:57.51</time>
<name>12235</name>
<sym>Dot</sym>
</trkpt>
<trkpt lat="39.703525" lon="-8.539563">
<ele>193.5</ele>
<desc>Speed 18.8 km/h Distance 58.34 km</desc>
<time>2011-05-22T11:36:58.50</time>
<name>12236</name>
<sym>Dot</sym>
</trkpt>
<trkpt lat="39.703487" lon="-8.539592">
<ele>193.5</ele>
<desc>Speed 17.9 km/h Distance 58.35 km</desc>
<time>2011-05-22T11:36:59.50</time>
<name>12237</name>
<sym>Dot</sym>
</trkpt>
<trkpt lat="39.703448" lon="-8.539620">
<ele>193.5</ele>
<desc>Speed 17.1 km/h Distance 58.35 km</desc>
<time>2011-05-22T11:37:00.50</time>
<name>12238</name>
<sym>Dot</sym>
</trkpt>
<trkpt lat="39.703413" lon="-8.539647">
<ele>193.5</ele>
<desc>Speed 16.7 km/h Distance 58.36 km</desc>
<time>2011-05-22T11:37:01.49</time>
<name>12239</name>
<sym>Dot</sym>
</trkpt>
<trkpt lat="39.703375" lon="-8.539675">
<ele>193.5</ele>
<desc>Speed 17.2 km/h Distance 58.36 km</desc>
<time>2011-05-22T11:37:02.49</time>
<name>12240</name>
<sym>Dot</sym>
</trkpt>
<trkpt lat="39.703337" lon="-8.539703">
<ele>193.5</ele>
<desc>Speed 17.9 km/h Distance 58.37 km</desc>
<time>2011-05-22T11:37:03.49</time>
<name>12241</name>
<sym>Dot</sym>
</trkpt>
<trkpt lat="39.703295" lon="-8.539732">
<ele>193.5</ele>
<desc>Speed 18.3 km/h Distance 58.37 km</desc>
<time>2011-05-22T11:37:04.49</time>
<name>12242</name>
<sym>Dot</sym>
</trkpt>
<trkpt lat="39.703253" lon="-8.539758">
<ele>193.5</ele>
<desc>Speed 18.6 km/h Distance 58.38 km</desc>
<time>2011-05-22T11:37:05.48</time>
<name>12243</name>
<sym>Dot</sym>
</trkpt>
<trkpt lat="39.703212" lon="-8.539787">
<ele>193.5</ele>
<desc>Speed 18.6 km/h Distance 58.38 km</desc>
<time>2011-05-22T11:37:06.48</time>
<name>12244</name>
<sym>Dot</sym>
</trkpt>
<trkpt lat="39.703172" lon="-8.539813">
<ele>193.5</ele>
<desc>Speed 18.4 km/h Distance 58.39 km</desc>
<time>2011-05-22T11:37:07.47</time>
<name>12245</name>
<sym>Dot</sym>
</trkpt>
<trkpt lat="39.703132" lon="-8.539842">
<ele>193.5</ele>
<desc>Speed 17.9 km/h Distance 58.39 km</desc>
<time>2011-05-22T11:37:08.47</time>
<name>12246</name>
<sym>Dot</sym>
</trkpt>
<trkpt lat="39.703093" lon="-8.539868">
<ele>193.5</ele>
<desc>Speed 17.8 km/h Distance 58.40 km</desc>
<time>2011-05-22T11:37:09.46</time>
<name>12247</name>
<sym>Dot</sym>
</trkpt>
<trkpt lat="39.703055" lon="-8.539898">
<ele>194.0</ele>
<desc>Speed 17.6 km/h Distance 58.40 km</desc>
<time>2011-05-22T11:37:10.46</time>
<name>12248</name>
<sym>Dot</sym>
</trkpt>
<trkpt lat="39.703018" lon="-8.539930">
<ele>194.0</ele>
<desc>Speed 17.7 km/h Distance 58.41 km</desc>
<time>2011-05-22T11:37:11.45</time>
<name>12249</name>
<sym>Dot</sym>
</trkpt>
<trkpt lat="39.702982" lon="-8.539963">
<ele>194.0</ele>
<desc>Speed 17.9 km/h Distance 58.41 km</desc>
<time>2011-05-22T11:37:12.45</time>
<name>12250</name>
<sym>Dot</sym>
</trkpt>
<trkpt lat="39.702945" lon="-8.539998">
<ele>194.5</ele>
<desc>Speed 17.9 km/h Distance 58.42 km</desc>
<time>2011-05-22T11:37:13.44</time>
<name>12251</name>
<sym>Dot</sym>
</trkpt>
<trkpt lat="39.702910" lon="-8.540033">
<ele>194.5</ele>
<desc>Speed 17.8 km/h Distance 58.42 km</desc>
<time>2011-05-22T11:37:14.43</time>
<name>12252</name>
<sym>Dot</sym>
</trkpt>
<trkpt lat="39.702877" lon="-8.540070">
<ele>195.0</ele>
<desc>Speed 17.3 km/h Distance 58.43 km</desc>
<time>2011-05-22T11:37:15.43</time>
<name>12253</name>
<sym>Dot</sym>
</trkpt>
<trkpt lat="39.702845" lon="-8.540107">
<ele>195.5</ele>
<desc>Speed 16.7 km/h Distance 58.43 km</desc>
<time>2011-05-22T11:37:16.43</time>
<name>12254</name>
<sym>Dot</sym>
</trkpt>
<trkpt lat="39.702817" lon="-8.540145">
<ele>195.5</ele>
<desc>Speed 17.0 km/h Distance 58.44 km</desc>
<time>2011-05-22T11:37:17.42</time>
<name>12255</name>
<sym>Dot</sym>
</trkpt>
<trkpt lat="39.702788" lon="-8.540187">
<ele>196.0</ele>
<desc>Speed 17.0 km/h Distance 58.44 km</desc>
<time>2011-05-22T11:37:18.42</time>
<name>12256</name>
<sym>Dot</sym>
</trkpt>
<trkpt lat="39.702762" lon="-8.540232">
<ele>196.0</ele>
<desc>Speed 17.0 km/h Distance 58.45 km</desc>
<time>2011-05-22T11:37:19.41</time>
<name>12257</name>
<sym>Dot</sym>
</trkpt>
<trkpt lat="39.702737" lon="-8.540278">
<ele>196.0</ele>
<desc>Speed 17.4 km/h Distance 58.45 km</desc>
<time>2011-05-22T11:37:20.41</time>
<name>12258</name>
<sym>Dot</sym>
</trkpt>
<trkpt lat="39.702715" lon="-8.540330">
<ele>196.0</ele>
<desc>Speed 18.3 km/h Distance 58.46 km</desc>
<time>2011-05-22T11:37:21.41</time>
<name>12259</name>
<sym>Dot</sym>
</trkpt>
<trkpt lat="39.702693" lon="-8.540383">
<ele>196.0</ele>
<desc>Speed 18.7 km/h Distance 58.46 km</desc>
<time>2011-05-22T11:37:22.40</time>
<name>12260</name>
<sym>Dot</sym>
</trkpt>
<trkpt lat="39.702672" lon="-8.540438">
<ele>195.5</ele>
<desc>Speed 18.8 km/h Distance 58.47 km</desc>
<time>2011-05-22T11:37:23.40</time>
<name>12261</name>
<sym>Dot</sym>
</trkpt>
<trkpt lat="39.702652" lon="-8.540497">
<ele>195.5</ele>
<desc>Speed 19.2 km/h Distance 58.47 km</desc>
<time>2011-05-22T11:37:24.39</time>
<name>12262</name>
<sym>Dot</sym>
</trkpt>
<trkpt lat="39.702635" lon="-8.540555">
<ele>195.5</ele>
<desc>Speed 19.2 km/h Distance 58.48 km</desc>
<time>2011-05-22T11:37:25.39</time>
<name>12263</name>
<sym>Dot</sym>
</trkpt>
<trkpt lat="39.702618" lon="-8.540615">
<ele>195.5</ele>
<desc>Speed 19.7 km/h Distance 58.48 km</desc>
<time>2011-05-22T11:37:26.38</time>
<name>12264</name>
<sym>Dot</sym>
</trkpt>
<trkpt lat="39.702602" lon="-8.540677">
<ele>195.5</ele>
<desc>Speed 19.9 km/h Distance 58.49 km</desc>
<time>2011-05-22T11:37:27.39</time>
<name>12265</name>
<sym>Dot</sym>
</trkpt>
<trkpt lat="39.702583" lon="-8.540738">
<ele>195.5</ele>
<desc>Speed 20.3 km/h Distance 58.50 km</desc>
<time>2011-05-22T11:37:28.38</time>
<name>12266</name>
<sym>Dot</sym>
</trkpt>
<trkpt lat="39.702567" lon="-8.540802">
<ele>195.0</ele>
<desc>Speed 20.5 km/h Distance 58.50 km</desc>
<time>2011-05-22T11:37:29.37</time>
<name>12267</name>
<sym>Dot</sym>
</trkpt>
<trkpt lat="39.702553" lon="-8.540867">
<ele>195.0</ele>
<desc>Speed 20.7 km/h Distance 58.51 km</desc>
<time>2011-05-22T11:37:30.37</time>
<name>12268</name>
<sym>Dot</sym>
</trkpt>
<trkpt lat="39.702538" lon="-8.540930">
<ele>195.0</ele>
<desc>Speed 20.8 km/h Distance 58.51 km</desc>
<time>2011-05-22T11:37:31.37</time>
<name>12269</name>
<sym>Dot</sym>
</trkpt>
<trkpt lat="39.702522" lon="-8.540997">
<ele>195.0</ele>
<desc>Speed 21.4 km/h Distance 58.52 km</desc>
<time>2011-05-22T11:37:32.38</time>
<name>12270</name>
<sym>Dot</sym>
</trkpt>
<trkpt lat="39.702508" lon="-8.541065">
<ele>194.5</ele>
<desc>Speed 21.7 km/h Distance 58.53 km</desc>
<time>2011-05-22T11:37:33.37</time>
<name>12271</name>
<sym>Dot</sym>
</trkpt>
<trkpt lat="39.702493" lon="-8.541135">
<ele>194.5</ele>
<desc>Speed 22.2 km/h Distance 58.53 km</desc>
<time>2011-05-22T11:37:34.37</time>
<name>12272</name>
<sym>Dot</sym>
</trkpt>
<trkpt lat="39.702478" lon="-8.541207">
<ele>194.0</ele>
<desc>Speed 22.2 km/h Distance 58.54 km</desc>
<time>2011-05-22T11:37:35.37</time>
<name>12273</name>
<sym>Dot</sym>
</trkpt>
<trkpt lat="39.702462" lon="-8.541275">
<ele>194.0</ele>
<desc>Speed 22.0 km/h Distance 58.54 km</desc>
<time>2011-05-22T11:37:36.37</time>
<name>12274</name>
<sym>Dot</sym>
</trkpt>
<trkpt lat="39.702443" lon="-8.541342">
<ele>194.5</ele>
<desc>Speed 21.9 km/h Distance 58.55 km</desc>
<time>2011-05-22T11:37:37.36</time>
<name>12275</name>
<sym>Dot</sym>
</trkpt>
<trkpt lat="39.702425" lon="-8.541407">
<ele>194.5</ele>
<desc>Speed 21.2 km/h Distance 58.56 km</desc>
<time>2011-05-22T11:37:38.35</time>
<name>12276</name>
<sym>Dot</sym>
</trkpt>
<trkpt lat="39.702403" lon="-8.541468">
<ele>194.5</ele>
<desc>Speed 20.6 km/h Distance 58.56 km</desc>
<time>2011-05-22T11:37:39.35</time>
<name>12277</name>
<sym>Dot</sym>
</trkpt>
<trkpt lat="39.702385" lon="-8.541530">
<ele>195.0</ele>
<desc>Speed 20.3 km/h Distance 58.57 km</desc>
<time>2011-05-22T11:37:40.35</time>
<name>12278</name>
<sym>Dot</sym>
</trkpt>
<trkpt lat="39.702367" lon="-8.541592">
<ele>195.0</ele>
<desc>Speed 20.1 km/h Distance 58.57 km</desc>
<time>2011-05-22T11:37:41.34</time>
<name>12279</name>
<sym>Dot</sym>
</trkpt>
<trkpt lat="39.702345" lon="-8.541650">
<ele>195.0</ele>
<desc>Speed 19.9 km/h Distance 58.58 km</desc>
<time>2011-05-22T11:37:42.33</time>
<name>12280</name>
<sym>Dot</sym>
</trkpt>
<trkpt lat="39.702322" lon="-8.541707">
<ele>195.0</ele>
<desc>Speed 20.0 km/h Distance 58.58 km</desc>
<time>2011-05-22T11:37:43.33</time>
<name>12281</name>
<sym>Dot</sym>
</trkpt>
<trkpt lat="39.702297" lon="-8.541763">
<ele>195.0</ele>
<desc>Speed 19.8 km/h Distance 58.59 km</desc>
<time>2011-05-22T11:37:44.33</time>
<name>12282</name>
<sym>Dot</sym>
</trkpt>
<trkpt lat="39.702272" lon="-8.541818">
<ele>195.5</ele>
<desc>Speed 19.4 km/h Distance 58.60 km</desc>
<time>2011-05-22T11:37:45.32</time>
<name>12283</name>
<sym>Dot</sym>
</trkpt>
<trkpt lat="39.702248" lon="-8.541873">
<ele>195.5</ele>
<desc>Speed 19.5 km/h Distance 58.60 km</desc>
<time>2011-05-22T11:37:46.32</time>
<name>12284</name>
<sym>Dot</sym>
</trkpt>
<trkpt lat="39.702223" lon="-8.541928">
<ele>195.5</ele>
<desc>Speed 19.6 km/h Distance 58.61 km</desc>
<time>2011-05-22T11:37:47.31</time>
<name>12285</name>
<sym>Dot</sym>
</trkpt>
<trkpt lat="39.702198" lon="-8.541982">
<ele>195.5</ele>
<desc>Speed 18.9 km/h Distance 58.61 km</desc>
<time>2011-05-22T11:37:48.31</time>
<name>12286</name>
<sym>Dot</sym>
</trkpt>
<trkpt lat="39.702172" lon="-8.542033">
<ele>195.5</ele>
<desc>Speed 19.1 km/h Distance 58.62 km</desc>
<time>2011-05-22T11:37:49.31</time>
<name>12287</name>
<sym>Dot</sym>
</trkpt>
<trkpt lat="39.702145" lon="-8.542085">
<ele>195.5</ele>
<desc>Speed 19.1 km/h Distance 58.62 km</desc>
<time>2011-05-22T11:37:50.30</time>
<name>12288</name>
<sym>Dot</sym>
</trkpt>
<trkpt lat="39.702117" lon="-8.542137">
<ele>195.5</ele>
<desc>Speed 19.7 km/h Distance 58.63 km</desc>
<time>2011-05-22T11:37:51.30</time>
<name>12289</name>
<sym>Dot</sym>
</trkpt>
<trkpt lat="39.702088" lon="-8.542190">
<ele>195.5</ele>
<desc>Speed 20.0 km/h Distance 58.63 km</desc>
<time>2011-05-22T11:37:52.30</time>
<name>12290</name>
<sym>Dot</sym>
</trkpt>
<trkpt lat="39.702060" lon="-8.542245">
<ele>195.0</ele>
<desc>Speed 20.6 km/h Distance 58.64 km</desc>
<time>2011-05-22T11:37:53.30</time>
<name>12291</name>
<sym>Dot</sym>
</trkpt>
<trkpt lat="39.702028" lon="-8.542302">
<ele>195.0</ele>
<desc>Speed 21.2 km/h Distance 58.64 km</desc>
<time>2011-05-22T11:37:54.29</time>
<name>12292</name>
<sym>Dot</sym>
</trkpt>
<trkpt lat="39.701997" lon="-8.542358">
<ele>195.0</ele>
<desc>Speed 21.5 km/h Distance 58.65 km</desc>
<time>2011-05-22T11:37:55.29</time>
<name>12293</name>
<sym>Dot</sym>
</trkpt>
<trkpt lat="39.701963" lon="-8.542413">
<ele>195.0</ele>
<desc>Speed 21.9 km/h Distance 58.66 km</desc>
<time>2011-05-22T11:37:56.29</time>
<name>12294</name>
<sym>Dot</sym>
</trkpt>
<trkpt lat="39.701927" lon="-8.542468">
<ele>195.0</ele>
<desc>Speed 22.1 km/h Distance 58.66 km</desc>
<time>2011-05-22T11:37:57.29</time>
<name>12295</name>
<sym>Dot</sym>
</trkpt>
<trkpt lat="39.701890" lon="-8.542523">
<ele>194.5</ele>
<desc>Speed 22.2 km/h Distance 58.67 km</desc>
<time>2011-05-22T11:37:58.29</time>
<name>12296</name>
<sym>Dot</sym>
</trkpt>
<trkpt lat="39.701853" lon="-8.542577">
<ele>194.5</ele>
<desc>Speed 22.5 km/h Distance 58.68 km</desc>
<time>2011-05-22T11:37:59.28</time>
<name>12297</name>
<sym>Dot</sym>
</trkpt>
<trkpt lat="39.701815" lon="-8.542632">
<ele>194.5</ele>
<desc>Speed 22.9 km/h Distance 58.68 km</desc>
<time>2011-05-22T11:38:00.28</time>
<name>12298</name>
<sym>Dot</sym>
</trkpt>
<trkpt lat="39.701773" lon="-8.542687">
<ele>194.0</ele>
<desc>Speed 23.7 km/h Distance 58.69 km</desc>
<time>2011-05-22T11:38:01.28</time>
<name>12299</name>
<sym>Dot</sym>
</trkpt>
<trkpt lat="39.701730" lon="-8.542743">
<ele>194.0</ele>
<desc>Speed 24.5 km/h Distance 58.69 km</desc>
<time>2011-05-22T11:38:02.28</time>
<name>12300</name>
<sym>Dot</sym>
</trkpt>
<trkpt lat="39.701685" lon="-8.542800">
<ele>194.0</ele>
<desc>Speed 25.1 km/h Distance 58.70 km</desc>
<time>2011-05-22T11:38:03.27</time>
<name>12301</name>
<sym>Dot</sym>
</trkpt>
<trkpt lat="39.701638" lon="-8.542858">
<ele>194.0</ele>
<desc>Speed 25.7 km/h Distance 58.71 km</desc>
<time>2011-05-22T11:38:04.26</time>
<name>12302</name>
<sym>Dot</sym>
</trkpt>
<trkpt lat="39.701592" lon="-8.542917">
<ele>193.5</ele>
<desc>Speed 26.0 km/h Distance 58.72 km</desc>
<time>2011-05-22T11:38:05.26</time>
<name>12303</name>
<sym>Dot</sym>
</trkpt>
<trkpt lat="39.701545" lon="-8.542975">
<ele>193.0</ele>
<desc>Speed 26.1 km/h Distance 58.72 km</desc>
<time>2011-05-22T11:38:06.26</time>
<name>12304</name>
<sym>Dot</sym>
</trkpt>
<trkpt lat="39.701497" lon="-8.543033">
<ele>193.0</ele>
<desc>Speed 26.3 km/h Distance 58.73 km</desc>
<time>2011-05-22T11:38:07.25</time>
<name>12305</name>
<sym>Dot</sym>
</trkpt>
<trkpt lat="39.701450" lon="-8.543095">
<ele>193.0</ele>
<desc>Speed 26.6 km/h Distance 58.74 km</desc>
<time>2011-05-22T11:38:08.25</time>
<name>12306</name>
<sym>Dot</sym>
</trkpt>
<trkpt lat="39.701402" lon="-8.543157">
<ele>192.5</ele>
<desc>Speed 26.9 km/h Distance 58.75 km</desc>
<time>2011-05-22T11:38:09.25</time>
<name>12307</name>
<sym>Dot</sym>
</trkpt>
<trkpt lat="39.701352" lon="-8.543215">
<ele>192.5</ele>
<desc>Speed 27.3 km/h Distance 58.75 km</desc>
<time>2011-05-22T11:38:10.24</time>
<name>12308</name>
<sym>Dot</sym>
</trkpt>
<trkpt lat="39.701300" lon="-8.543273">
<ele>192.0</ele>
<desc>Speed 27.2 km/h Distance 58.76 km</desc>
<time>2011-05-22T11:38:11.23</time>
<name>12309</name>
<sym>Dot</sym>
</trkpt>
<trkpt lat="39.701253" lon="-8.543335">
<ele>192.0</ele>
<desc>Speed 26.9 km/h Distance 58.77 km</desc>
<time>2011-05-22T11:38:12.23</time>
<name>12310</name>
<sym>Dot</sym>
</trkpt>
<trkpt lat="39.701210" lon="-8.543398">
<ele>192.0</ele>
<desc>Speed 26.4 km/h Distance 58.78 km</desc>
<time>2011-05-22T11:38:13.23</time>
<name>12311</name>
<sym>Dot</sym>
</trkpt>
<trkpt lat="39.701172" lon="-8.543467">
<ele>192.0</ele>
<desc>Speed 25.6 km/h Distance 58.78 km</desc>
<time>2011-05-22T11:38:14.23</time>
<name>12312</name>
<sym>Dot</sym>
</trkpt>
<trkpt lat="39.701138" lon="-8.543537">
<ele>192.0</ele>
<desc>Speed 25.2 km/h Distance 58.79 km</desc>
<time>2011-05-22T11:38:15.22</time>
<name>12313</name>
<sym>Dot</sym>
</trkpt>
<trkpt lat="39.701108" lon="-8.543607">
<ele>192.0</ele>
<desc>Speed 24.8 km/h Distance 58.80 km</desc>
<time>2011-05-22T11:38:16.22</time>
<name>12314</name>
<sym>Dot</sym>
</trkpt>
<trkpt lat="39.701083" lon="-8.543677">
<ele>192.0</ele>
<desc>Speed 24.1 km/h Distance 58.80 km</desc>
<time>2011-05-22T11:38:17.22</time>
<name>12315</name>
<sym>Dot</sym>
</trkpt>
<trkpt lat="39.701057" lon="-8.543748">
<ele>192.0</ele>
<desc>Speed 24.0 km/h Distance 58.81 km</desc>
<time>2011-05-22T11:38:18.22</time>
<name>12316</name>
<sym>Dot</sym>
</trkpt>
<trkpt lat="39.701035" lon="-8.543818">
<ele>192.0</ele>
<desc>Speed 23.7 km/h Distance 58.82 km</desc>
<time>2011-05-22T11:38:19.21</time>
<name>12317</name>
<sym>Dot</sym>
</trkpt>
<trkpt lat="39.701017" lon="-8.543890">
<ele>192.0</ele>
<desc>Speed 23.3 km/h Distance 58.82 km</desc>
<time>2011-05-22T11:38:20.21</time>
<name>12318</name>
<sym>Dot</sym>
</trkpt>
<trkpt lat="39.700995" lon="-8.543962">
<ele>192.0</ele>
<desc>Speed 23.3 km/h Distance 58.83 km</desc>
<time>2011-05-22T11:38:21.21</time>
<name>12319</name>
<sym>Dot</sym>
</trkpt>
<trkpt lat="39.700975" lon="-8.544032">
<ele>192.0</ele>
<desc>Speed 23.4 km/h Distance 58.84 km</desc>
<time>2011-05-22T11:38:22.21</time>
<name>12320</name>
<sym>Dot</sym>
</trkpt>
<trkpt lat="39.700957" lon="-8.544105">
<ele>192.0</ele>
<desc>Speed 23.7 km/h Distance 58.84 km</desc>
<time>2011-05-22T11:38:23.20</time>
<name>12321</name>
<sym>Dot</sym>
</trkpt>
<trkpt lat="39.700937" lon="-8.544178">
<ele>191.5</ele>
<desc>Speed 24.2 km/h Distance 58.85 km</desc>
<time>2011-05-22T11:38:24.19</time>
<name>12322</name>
<sym>Dot</sym>
</trkpt>
<trkpt lat="39.700915" lon="-8.544252">
<ele>191.5</ele>
<desc>Speed 24.4 km/h Distance 58.86 km</desc>
<time>2011-05-22T11:38:25.19</time>
<name>12323</name>
<sym>Dot</sym>
</trkpt>
<trkpt lat="39.700892" lon="-8.544327">
<ele>191.5</ele>
<desc>Speed 25.0 km/h Distance 58.86 km</desc>
<time>2011-05-22T11:38:26.19</time>
<name>12324</name>
<sym>Dot</sym>
</trkpt>
<trkpt lat="39.700868" lon="-8.544403">
<ele>191.5</ele>
<desc>Speed 25.2 km/h Distance 58.87 km</desc>
<time>2011-05-22T11:38:27.18</time>
<name>12325</name>
<sym>Dot</sym>
</trkpt>
<trkpt lat="39.700847" lon="-8.544480">
<ele>191.5</ele>
<desc>Speed 25.1 km/h Distance 58.88 km</desc>
<time>2011-05-22T11:38:28.18</time>
<name>12326</name>
<sym>Dot</sym>
</trkpt>
<trkpt lat="39.700825" lon="-8.544557">
<ele>191.5</ele>
<desc>Speed 25.3 km/h Distance 58.88 km</desc>
<time>2011-05-22T11:38:29.18</time>
<name>12327</name>
<sym>Dot</sym>
</trkpt>
<trkpt lat="39.700802" lon="-8.544632">
<ele>191.5</ele>
<desc>Speed 25.2 km/h Distance 58.89 km</desc>
<time>2011-05-22T11:38:30.17</time>
<name>12328</name>
<sym>Dot</sym>
</trkpt>
<trkpt lat="39.700777" lon="-8.544707">
<ele>191.0</ele>
<desc>Speed 25.2 km/h Distance 58.90 km</desc>
<time>2011-05-22T11:38:31.16</time>
<name>12329</name>
<sym>Dot</sym>
</trkpt>
<trkpt lat="39.700750" lon="-8.544780">
<ele>191.0</ele>
<desc>Speed 25.1 km/h Distance 58.90 km</desc>
<time>2011-05-22T11:38:32.16</time>
<name>12330</name>
<sym>Dot</sym>
</trkpt>
<trkpt lat="39.700722" lon="-8.544855">
<ele>191.0</ele>
<desc>Speed 25.5 km/h Distance 58.91 km</desc>
<time>2011-05-22T11:38:33.15</time>
<name>12331</name>
<sym>Dot</sym>
</trkpt>
<trkpt lat="39.700692" lon="-8.544927">
<ele>191.0</ele>
<desc>Speed 25.5 km/h Distance 58.92 km</desc>
<time>2011-05-22T11:38:34.15</time>
<name>12332</name>
<sym>Dot</sym>
</trkpt>
<trkpt lat="39.700655" lon="-8.544995">
<ele>190.5</ele>
<desc>Speed 25.5 km/h Distance 58.93 km</desc>
<time>2011-05-22T11:38:35.14</time>
<name>12333</name>
<sym>Dot</sym>
</trkpt>
<trkpt lat="39.700617" lon="-8.545062">
<ele>190.5</ele>
<desc>Speed 25.7 km/h Distance 58.93 km</desc>
<time>2011-05-22T11:38:36.14</time>
<name>12334</name>
<sym>Dot</sym>
</trkpt>
<trkpt lat="39.700577" lon="-8.545127">
<ele>190.5</ele>
<desc>Speed 25.7 km/h Distance 58.94 km</desc>
<time>2011-05-22T11:38:37.14</time>
<name>12335</name>
<sym>Dot</sym>
</trkpt>
<trkpt lat="39.700533" lon="-8.545187">
<ele>190.0</ele>
<desc>Speed 25.7 km/h Distance 58.95 km</desc>
<time>2011-05-22T11:38:38.13</time>
<name>12336</name>
<sym>Dot</sym>
</trkpt>
<trkpt lat="39.700490" lon="-8.545247">
<ele>190.0</ele>
<desc>Speed 25.5 km/h Distance 58.95 km</desc>
<time>2011-05-22T11:38:39.13</time>
<name>12337</name>
<sym>Dot</sym>
</trkpt>
<trkpt lat="39.700445" lon="-8.545305">
<ele>190.0</ele>
<desc>Speed 25.5 km/h Distance 58.96 km</desc>
<time>2011-05-22T11:38:40.13</time>
<name>12338</name>
<sym>Dot</sym>
</trkpt>
<trkpt lat="39.700400" lon="-8.545363">
<ele>190.0</ele>
<desc>Speed 25.1 km/h Distance 58.97 km</desc>
<time>2011-05-22T11:38:41.13</time>
<name>12339</name>
<sym>Dot</sym>
</trkpt>
<trkpt lat="39.700357" lon="-8.545420">
<ele>190.0</ele>
<desc>Speed 25.1 km/h Distance 58.98 km</desc>
<time>2011-05-22T11:38:42.12</time>
<name>12340</name>
<sym>Dot</sym>
</trkpt>
<trkpt lat="39.700312" lon="-8.545477">
<ele>190.0</ele>
<desc>Speed 25.0 km/h Distance 58.98 km</desc>
<time>2011-05-22T11:38:43.12</time>
<name>12341</name>
<sym>Dot</sym>
</trkpt>
<trkpt lat="39.700267" lon="-8.545533">
<ele>190.0</ele>
<desc>Speed 24.8 km/h Distance 58.99 km</desc>
<time>2011-05-22T11:38:44.12</time>
<name>12342</name>
<sym>Dot</sym>
</trkpt>
<trkpt lat="39.700222" lon="-8.545588">
<ele>190.0</ele>
<desc>Speed 24.8 km/h Distance 59.00 km</desc>
<time>2011-05-22T11:38:45.12</time>
<name>12343</name>
<sym>Dot</sym>
</trkpt>
<trkpt lat="39.700177" lon="-8.545642">
<ele>190.0</ele>
<desc>Speed 24.6 km/h Distance 59.00 km</desc>
<time>2011-05-22T11:38:46.11</time>
<name>12344</name>
<sym>Dot</sym>
</trkpt>
<trkpt lat="39.700132" lon="-8.545697">
<ele>189.5</ele>
<desc>Speed 24.7 km/h Distance 59.01 km</desc>
<time>2011-05-22T11:38:47.10</time>
<name>12345</name>
<sym>Dot</sym>
</trkpt>
<trkpt lat="39.700085" lon="-8.545748">
<ele>189.5</ele>
<desc>Speed 24.7 km/h Distance 59.02 km</desc>
<time>2011-05-22T11:38:48.09</time>
<name>12346</name>
<sym>Dot</sym>
</trkpt>
<trkpt lat="39.700040" lon="-8.545805">
<ele>189.5</ele>
<desc>Speed 24.9 km/h Distance 59.02 km</desc>
<time>2011-05-22T11:38:49.09</time>
<name>12347</name>
<sym>Dot</sym>
</trkpt>
<trkpt lat="39.699995" lon="-8.545860">
<ele>189.5</ele>
<desc>Speed 24.6 km/h Distance 59.03 km</desc>
<time>2011-05-22T11:38:50.08</time>
<name>12348</name>
<sym>Dot</sym>
</trkpt>
<trkpt lat="39.699952" lon="-8.545915">
<ele>190.0</ele>
<desc>Speed 24.6 km/h Distance 59.04 km</desc>
<time>2011-05-22T11:38:51.08</time>
<name>12349</name>
<sym>Dot</sym>
</trkpt>
<trkpt lat="39.699908" lon="-8.545972">
<ele>190.0</ele>
<desc>Speed 24.5 km/h Distance 59.04 km</desc>
<time>2011-05-22T11:38:52.08</time>
<name>12350</name>
<sym>Dot</sym>
</trkpt>
<trkpt lat="39.699870" lon="-8.546030">
<ele>190.0</ele>
<desc>Speed 23.8 km/h Distance 59.05 km</desc>
<time>2011-05-22T11:38:53.08</time>
<name>12351</name>
<sym>Dot</sym>
</trkpt>
<trkpt lat="39.699835" lon="-8.546093">
<ele>189.5</ele>
<desc>Speed 23.7 km/h Distance 59.06 km</desc>
<time>2011-05-22T11:38:54.07</time>
<name>12352</name>
<sym>Dot</sym>
</trkpt>
<trkpt lat="39.699803" lon="-8.546157">
<ele>189.5</ele>
<desc>Speed 23.5 km/h Distance 59.06 km</desc>
<time>2011-05-22T11:38:55.06</time>
<name>12353</name>
<sym>Dot</sym>
</trkpt>
<trkpt lat="39.699773" lon="-8.546222">
<ele>190.0</ele>
<desc>Speed 23.3 km/h Distance 59.07 km</desc>
<time>2011-05-22T11:38:56.05</time>
<name>12354</name>
<sym>Dot</sym>
</trkpt>
<trkpt lat="39.699745" lon="-8.546287">
<ele>189.5</ele>
<desc>Speed 23.2 km/h Distance 59.08 km</desc>
<time>2011-05-22T11:38:57.05</time>
<name>12355</name>
<sym>Dot</sym>
</trkpt>
<trkpt lat="39.699718" lon="-8.546352">
<ele>190.0</ele>
<desc>Speed 22.8 km/h Distance 59.08 km</desc>
<time>2011-05-22T11:38:58.04</time>
<name>12356</name>
<sym>Dot</sym>
</trkpt>
<trkpt lat="39.699693" lon="-8.546415">
<ele>190.0</ele>
<desc>Speed 22.2 km/h Distance 59.09 km</desc>
<time>2011-05-22T11:38:59.04</time>
<name>12357</name>
<sym>Dot</sym>
</trkpt>
<trkpt lat="39.699668" lon="-8.546480">
<ele>190.0</ele>
<desc>Speed 22.4 km/h Distance 59.10 km</desc>
<time>2011-05-22T11:39:00.04</time>
<name>12358</name>
<sym>Dot</sym>
</trkpt>
<trkpt lat="39.699645" lon="-8.546547">
<ele>190.5</ele>
<desc>Speed 22.7 km/h Distance 59.10 km</desc>
<time>2011-05-22T11:39:01.04</time>
<name>12359</name>
<sym>Dot</sym>
</trkpt>
<trkpt lat="39.699622" lon="-8.546613">
<ele>190.5</ele>
<desc>Speed 22.6 km/h Distance 59.11 km</desc>
<time>2011-05-22T11:39:02.03</time>
<name>12360</name>
<sym>Dot</sym>
</trkpt>
<trkpt lat="39.699600" lon="-8.546682">
<ele>191.0</ele>
<desc>Speed 22.7 km/h Distance 59.11 km</desc>
<time>2011-05-22T11:39:03.03</time>
<name>12361</name>
<sym>Dot</sym>
</trkpt>
<trkpt lat="39.699578" lon="-8.546748">
<ele>191.0</ele>
<desc>Speed 22.4 km/h Distance 59.12 km</desc>
<time>2011-05-22T11:39:04.03</time>
<name>12362</name>
<sym>Dot</sym>
</trkpt>
<trkpt lat="39.699557" lon="-8.546815">
<ele>191.0</ele>
<desc>Speed 22.3 km/h Distance 59.13 km</desc>
<time>2011-05-22T11:39:05.03</time>
<name>12363</name>
<sym>Dot</sym>
</trkpt>
<trkpt lat="39.699535" lon="-8.546880">
<ele>191.5</ele>
<desc>Speed 22.2 km/h Distance 59.13 km</desc>
<time>2011-05-22T11:39:06.02</time>
<name>12364</name>
<sym>Dot</sym>
</trkpt>
<trkpt lat="39.699513" lon="-8.546947">
<ele>191.5</ele>
<desc>Speed 22.2 km/h Distance 59.14 km</desc>
<time>2011-05-22T11:39:07.02</time>
<name>12365</name>
<sym>Dot</sym>
</trkpt>
<trkpt lat="39.699493" lon="-8.547012">
<ele>191.5</ele>
<desc>Speed 21.9 km/h Distance 59.15 km</desc>
<time>2011-05-22T11:39:08.01</time>
<name>12366</name>
<sym>Dot</sym>
</trkpt>
<trkpt lat="39.699475" lon="-8.547077">
<ele>192.0</ele>
<desc>Speed 21.6 km/h Distance 59.15 km</desc>
<time>2011-05-22T11:39:09.01</time>
<name>12367</name>
<sym>Dot</sym>
</trkpt>
<trkpt lat="39.699453" lon="-8.547142">
<ele>192.0</ele>
<desc>Speed 22.0 km/h Distance 59.16 km</desc>
<time>2011-05-22T11:39:10.00</time>
<name>12368</name>
<sym>Dot</sym>
</trkpt>
<trkpt lat="39.699433" lon="-8.547208">
<ele>192.0</ele>
<desc>Speed 21.9 km/h Distance 59.16 km</desc>
<time>2011-05-22T11:39:11.00</time>
<name>12369</name>
<sym>Dot</sym>
</trkpt>
<trkpt lat="39.699412" lon="-8.547272">
<ele>192.5</ele>
<desc>Speed 21.4 km/h Distance 59.17 km</desc>
<time>2011-05-22T11:39:12.00</time>
<name>12370</name>
<sym>Dot</sym>
</trkpt>
<trkpt lat="39.699392" lon="-8.547333">
<ele>192.5</ele>
<desc>Speed 20.9 km/h Distance 59.17 km</desc>
<time>2011-05-22T11:39:13.00</time>
<name>12371</name>
<sym>Dot</sym>
</trkpt>
<trkpt lat="39.699373" lon="-8.547392">
<ele>192.5</ele>
<desc>Speed 19.8 km/h Distance 59.18 km</desc>
<time>2011-05-22T11:39:14.00</time>
<name>12372</name>
<sym>Dot</sym>
</trkpt>
<trkpt lat="39.699353" lon="-8.547450">
<ele>193.0</ele>
<desc>Speed 19.5 km/h Distance 59.19 km</desc>
<time>2011-05-22T11:39:14.99</time>
<name>12373</name>
<sym>Dot</sym>
</trkpt>
<trkpt lat="39.699335" lon="-8.547507">
<ele>193.0</ele>
<desc>Speed 19.2 km/h Distance 59.19 km</desc>
<time>2011-05-22T11:39:15.98</time>
<name>12374</name>
<sym>Dot</sym>
</trkpt>
<trkpt lat="39.699315" lon="-8.547562">
<ele>193.0</ele>
<desc>Speed 18.8 km/h Distance 59.20 km</desc>
<time>2011-05-22T11:39:16.98</time>
<name>12375</name>
<sym>Dot</sym>
</trkpt>
<trkpt lat="39.699298" lon="-8.547617">
<ele>193.0</ele>
<desc>Speed 18.4 km/h Distance 59.20 km</desc>
<time>2011-05-22T11:39:17.97</time>
<name>12376</name>
<sym>Dot</sym>
</trkpt>
<trkpt lat="39.699280" lon="-8.547668">
<ele>193.5</ele>
<desc>Speed 17.7 km/h Distance 59.21 km</desc>
<time>2011-05-22T11:39:18.96</time>
<name>12377</name>
<sym>Dot</sym>
</trkpt>
<trkpt lat="39.699262" lon="-8.547718">
<ele>193.5</ele>
<desc>Speed 17.3 km/h Distance 59.21 km</desc>
<time>2011-05-22T11:39:19.95</time>
<name>12378</name>
<sym>Dot</sym>
</trkpt>
<trkpt lat="39.699245" lon="-8.547767">
<ele>194.0</ele>
<desc>Speed 16.5 km/h Distance 59.22 km</desc>
<time>2011-05-22T11:39:20.94</time>
<name>12379</name>
<sym>Dot</sym>
</trkpt>
<trkpt lat="39.699232" lon="-8.547815">
<ele>194.0</ele>
<desc>Speed 15.8 km/h Distance 59.22 km</desc>
<time>2011-05-22T11:39:21.94</time>
<name>12380</name>
<sym>Dot</sym>
</trkpt>
<trkpt lat="39.699223" lon="-8.547863">
<ele>194.5</ele>
<desc>Speed 15.2 km/h Distance 59.22 km</desc>
<time>2011-05-22T11:39:22.93</time>
<name>12381</name>
<sym>Dot</sym>
</trkpt>
<trkpt lat="39.699217" lon="-8.547910">
<ele>194.5</ele>
<desc>Speed 14.7 km/h Distance 59.23 km</desc>
<time>2011-05-22T11:39:23.93</time>
<name>12382</name>
<sym>Dot</sym>
</trkpt>
<trkpt lat="39.699210" lon="-8.547957">
<ele>195.0</ele>
<desc>Speed 14.7 km/h Distance 59.23 km</desc>
<time>2011-05-22T11:39:24.93</time>
<name>12383</name>
<sym>Dot</sym>
</trkpt>
<trkpt lat="39.699205" lon="-8.548002">
<ele>195.0</ele>
<desc>Speed 14.4 km/h Distance 59.24 km</desc>
<time>2011-05-22T11:39:25.93</time>
<name>12384</name>
<sym>Dot</sym>
</trkpt>
<trkpt lat="39.699200" lon="-8.548047">
<ele>195.5</ele>
<desc>Speed 14.0 km/h Distance 59.24 km</desc>
<time>2011-05-22T11:39:26.92</time>
<name>12385</name>
<sym>Dot</sym>
</trkpt>
<trkpt lat="39.699200" lon="-8.548093">
<ele>195.5</ele>
<desc>Speed 14.3 km/h Distance 59.24 km</desc>
<time>2011-05-22T11:39:27.92</time>
<name>12386</name>
<sym>Dot</sym>
</trkpt>
<trkpt lat="39.699202" lon="-8.548140">
<ele>195.5</ele>
<desc>Speed 14.4 km/h Distance 59.25 km</desc>
<time>2011-05-22T11:39:28.92</time>
<name>12387</name>
<sym>Dot</sym>
</trkpt>
<trkpt lat="39.699203" lon="-8.548185">
<ele>195.5</ele>
<desc>Speed 14.2 km/h Distance 59.25 km</desc>
<time>2011-05-22T11:39:29.91</time>
<name>12388</name>
<sym>Dot</sym>
</trkpt>
<trkpt lat="39.699205" lon="-8.548230">
<ele>195.5</ele>
<desc>Speed 13.8 km/h Distance 59.26 km</desc>
<time>2011-05-22T11:39:30.90</time>
<name>12389</name>
<sym>Dot</sym>
</trkpt>
<trkpt lat="39.699205" lon="-8.548272">
<ele>195.5</ele>
<desc>Speed 13.2 km/h Distance 59.26 km</desc>
<time>2011-05-22T11:39:31.90</time>
<name>12390</name>
<sym>Dot</sym>
</trkpt>
<trkpt lat="39.699208" lon="-8.548313">
<ele>195.0</ele>
<desc>Speed 13.0 km/h Distance 59.26 km</desc>
<time>2011-05-22T11:39:32.89</time>
<name>12391</name>
<sym>Dot</sym>
</trkpt>
<trkpt lat="39.699210" lon="-8.548357">
<ele>195.0</ele>
<desc>Speed 13.3 km/h Distance 59.27 km</desc>
<time>2011-05-22T11:39:33.89</time>
<name>12392</name>
<sym>Dot</sym>
</trkpt>
<trkpt lat="39.699210" lon="-8.548400">
<ele>195.0</ele>
<desc>Speed 13.5 km/h Distance 59.27 km</desc>
<time>2011-05-22T11:39:34.88</time>
<name>12393</name>
<sym>Dot</sym>
</trkpt>
<trkpt lat="39.699212" lon="-8.548445">
<ele>195.0</ele>
<desc>Speed 13.6 km/h Distance 59.27 km</desc>
<time>2011-05-22T11:39:35.88</time>
<name>12394</name>
<sym>Dot</sym>
</trkpt>
<trkpt lat="39.699217" lon="-8.548492">
<ele>195.0</ele>
<desc>Speed 14.4 km/h Distance 59.28 km</desc>
<time>2011-05-22T11:39:36.87</time>
<name>12395</name>
<sym>Dot</sym>
</trkpt>
<trkpt lat="39.699222" lon="-8.548542">
<ele>195.0</ele>
<desc>Speed 15.7 km/h Distance 59.28 km</desc>
<time>2011-05-22T11:39:37.87</time>
<name>12396</name>
<sym>Dot</sym>
</trkpt>
<trkpt lat="39.699227" lon="-8.548595">
<ele>195.0</ele>
<desc>Speed 16.9 km/h Distance 59.29 km</desc>
<time>2011-05-22T11:39:38.87</time>
<name>12397</name>
<sym>Dot</sym>
</trkpt>
<trkpt lat="39.699232" lon="-8.548653">
<ele>195.0</ele>
<desc>Speed 17.9 km/h Distance 59.29 km</desc>
<time>2011-05-22T11:39:39.86</time>
<name>12398</name>
<sym>Dot</sym>
</trkpt>
<trkpt lat="39.699235" lon="-8.548713">
<ele>194.5</ele>
<desc>Speed 18.9 km/h Distance 59.30 km</desc>
<time>2011-05-22T11:39:40.85</time>
<name>12399</name>
<sym>Dot</sym>
</trkpt>
<trkpt lat="39.699235" lon="-8.548777">
<ele>194.5</ele>
<desc>Speed 19.6 km/h Distance 59.30 km</desc>
<time>2011-05-22T11:39:41.85</time>
<name>12400</name>
<sym>Dot</sym>
</trkpt>
<trkpt lat="39.699237" lon="-8.548843">
<ele>194.5</ele>
<desc>Speed 20.3 km/h Distance 59.31 km</desc>
<time>2011-05-22T11:39:42.85</time>
<name>12401</name>
<sym>Dot</sym>
</trkpt>
<trkpt lat="39.699235" lon="-8.548910">
<ele>194.5</ele>
<desc>Speed 20.7 km/h Distance 59.31 km</desc>
<time>2011-05-22T11:39:43.84</time>
<name>12402</name>
<sym>Dot</sym>
</trkpt>
<trkpt lat="39.699233" lon="-8.548978">
<ele>194.5</ele>
<desc>Speed 21.1 km/h Distance 59.32 km</desc>
<time>2011-05-22T11:39:44.84</time>
<name>12403</name>
<sym>Dot</sym>
</trkpt>
<trkpt lat="39.699230" lon="-8.549047">
<ele>194.0</ele>
<desc>Speed 21.2 km/h Distance 59.33 km</desc>
<time>2011-05-22T11:39:45.84</time>
<name>12404</name>
<sym>Dot</sym>
</trkpt>
<trkpt lat="39.699230" lon="-8.549117">
<ele>194.0</ele>
<desc>Speed 21.5 km/h Distance 59.33 km</desc>
<time>2011-05-22T11:39:46.84</time>
<name>12405</name>
<sym>Dot</sym>
</trkpt>
<trkpt lat="39.699228" lon="-8.549188">
<ele>194.0</ele>
<desc>Speed 22.0 km/h Distance 59.34 km</desc>
<time>2011-05-22T11:39:47.83</time>
<name>12406</name>
<sym>Dot</sym>
</trkpt>
<trkpt lat="39.699228" lon="-8.549262">
<ele>193.5</ele>
<desc>Speed 22.4 km/h Distance 59.34 km</desc>
<time>2011-05-22T11:39:48.82</time>
<name>12407</name>
<sym>Dot</sym>
</trkpt>
<trkpt lat="39.699228" lon="-8.549335">
<ele>194.0</ele>
<desc>Speed 22.7 km/h Distance 59.35 km</desc>
<time>2011-05-22T11:39:49.81</time>
<name>12408</name>
<sym>Dot</sym>
</trkpt>
<trkpt lat="39.699228" lon="-8.549408">
<ele>194.0</ele>
<desc>Speed 22.9 km/h Distance 59.36 km</desc>
<time>2011-05-22T11:39:50.81</time>
<name>12409</name>
<sym>Dot</sym>
</trkpt>
<trkpt lat="39.699228" lon="-8.549483">
<ele>193.5</ele>
<desc>Speed 22.9 km/h Distance 59.36 km</desc>
<time>2011-05-22T11:39:51.80</time>
<name>12410</name>
<sym>Dot</sym>
</trkpt>
<trkpt lat="39.699228" lon="-8.549558">
<ele>193.5</ele>
<desc>Speed 23.2 km/h Distance 59.37 km</desc>
<time>2011-05-22T11:39:52.80</time>
<name>12411</name>
<sym>Dot</sym>
</trkpt>
<trkpt lat="39.699227" lon="-8.549633">
<ele>193.5</ele>
<desc>Speed 23.0 km/h Distance 59.38 km</desc>
<time>2011-05-22T11:39:53.80</time>
<name>12412</name>
<sym>Dot</sym>
</trkpt>
<trkpt lat="39.699222" lon="-8.549707">
<ele>193.5</ele>
<desc>Speed 23.0 km/h Distance 59.38 km</desc>
<time>2011-05-22T11:39:54.80</time>
<name>12413</name>
<sym>Dot</sym>
</trkpt>
<trkpt lat="39.699217" lon="-8.549780">
<ele>194.0</ele>
<desc>Speed 22.9 km/h Distance 59.39 km</desc>
<time>2011-05-22T11:39:55.79</time>
<name>12414</name>
<sym>Dot</sym>
</trkpt>
<trkpt lat="39.699215" lon="-8.549853">
<ele>194.0</ele>
<desc>Speed 22.2 km/h Distance 59.40 km</desc>
<time>2011-05-22T11:39:56.79</time>
<name>12415</name>
<sym>Dot</sym>
</trkpt>
<trkpt lat="39.699213" lon="-8.549923">
<ele>194.0</ele>
<desc>Speed 21.6 km/h Distance 59.40 km</desc>
<time>2011-05-22T11:39:57.78</time>
<name>12416</name>
<sym>Dot</sym>
</trkpt>
<trkpt lat="39.699213" lon="-8.549990">
<ele>194.0</ele>
<desc>Speed 21.1 km/h Distance 59.41 km</desc>
<time>2011-05-22T11:39:58.78</time>
<name>12417</name>
<sym>Dot</sym>
</trkpt>
<trkpt lat="39.699212" lon="-8.550057">
<ele>194.5</ele>
<desc>Speed 20.3 km/h Distance 59.41 km</desc>
<time>2011-05-22T11:39:59.77</time>
<name>12418</name>
<sym>Dot</sym>
</trkpt>
<trkpt lat="39.699213" lon="-8.550120">
<ele>194.5</ele>
<desc>Speed 19.6 km/h Distance 59.42 km</desc>
<time>2011-05-22T11:40:00.77</time>
<name>12419</name>
<sym>Dot</sym>
</trkpt>
<trkpt lat="39.699212" lon="-8.550183">
<ele>194.5</ele>
<desc>Speed 19.7 km/h Distance 59.42 km</desc>
<time>2011-05-22T11:40:01.77</time>
<name>12420</name>
<sym>Dot</sym>
</trkpt>
<trkpt lat="39.699213" lon="-8.550247">
<ele>195.0</ele>
<desc>Speed 19.7 km/h Distance 59.43 km</desc>
<time>2011-05-22T11:40:02.77</time>
<name>12421</name>
<sym>Dot</sym>
</trkpt>
<trkpt lat="39.699215" lon="-8.550310">
<ele>195.0</ele>
<desc>Speed 19.4 km/h Distance 59.43 km</desc>
<time>2011-05-22T11:40:03.76</time>
<name>12422</name>
<sym>Dot</sym>
</trkpt>
<trkpt lat="39.699218" lon="-8.550370">
<ele>195.0</ele>
<desc>Speed 18.9 km/h Distance 59.44 km</desc>
<time>2011-05-22T11:40:04.76</time>
<name>12423</name>
<sym>Dot</sym>
</trkpt>
<trkpt lat="39.699228" lon="-8.550427">
<ele>194.0</ele>
<desc>Speed 18.0 km/h Distance 59.44 km</desc>
<time>2011-05-22T11:40:05.76</time>
<name>12424</name>
<sym>Dot</sym>
</trkpt>
<trkpt lat="39.699237" lon="-8.550483">
<ele>194.0</ele>
<desc>Speed 17.4 km/h Distance 59.45 km</desc>
<time>2011-05-22T11:40:06.76</time>
<name>12425</name>
<sym>Dot</sym>
</trkpt>
<trkpt lat="39.699242" lon="-8.550540">
<ele>194.0</ele>
<desc>Speed 17.7 km/h Distance 59.45 km</desc>
<time>2011-05-22T11:40:07.76</time>
<name>12426</name>
<sym>Dot</sym>
</trkpt>
<trkpt lat="39.699247" lon="-8.550598">
<ele>194.0</ele>
<desc>Speed 18.3 km/h Distance 59.46 km</desc>
<time>2011-05-22T11:40:08.75</time>
<name>12427</name>
<sym>Dot</sym>
</trkpt>
<trkpt lat="39.699250" lon="-8.550658">
<ele>194.5</ele>
<desc>Speed 18.5 km/h Distance 59.46 km</desc>
<time>2011-05-22T11:40:09.75</time>
<name>12428</name>
<sym>Dot</sym>
</trkpt>
<trkpt lat="39.699257" lon="-8.550717">
<ele>194.5</ele>
<desc>Speed 18.3 km/h Distance 59.47 km</desc>
<time>2011-05-22T11:40:10.75</time>
<name>12429</name>
<sym>Dot</sym>
</trkpt>
<trkpt lat="39.699263" lon="-8.550777">
<ele>194.5</ele>
<desc>Speed 18.7 km/h Distance 59.47 km</desc>
<time>2011-05-22T11:40:11.75</time>
<name>12430</name>
<sym>Dot</sym>
</trkpt>
<trkpt lat="39.699273" lon="-8.550835">
<ele>195.0</ele>
<desc>Speed 18.5 km/h Distance 59.48 km</desc>
<time>2011-05-22T11:40:12.74</time>
<name>12431</name>
<sym>Dot</sym>
</trkpt>
<trkpt lat="39.699283" lon="-8.550895">
<ele>195.0</ele>
<desc>Speed 18.9 km/h Distance 59.48 km</desc>
<time>2011-05-22T11:40:13.74</time>
<name>12432</name>
<sym>Dot</sym>
</trkpt>
<trkpt lat="39.699293" lon="-8.550955">
<ele>195.0</ele>
<desc>Speed 18.6 km/h Distance 59.49 km</desc>
<time>2011-05-22T11:40:14.74</time>
<name>12433</name>
<sym>Dot</sym>
</trkpt>
<trkpt lat="39.699302" lon="-8.551012">
<ele>195.0</ele>
<desc>Speed 17.9 km/h Distance 59.50 km</desc>
<time>2011-05-22T11:40:15.74</time>
<name>12434</name>
<sym>Dot</sym>
</trkpt>
<trkpt lat="39.699313" lon="-8.551067">
<ele>195.5</ele>
<desc>Speed 17.6 km/h Distance 59.50 km</desc>
<time>2011-05-22T11:40:16.73</time>
<name>12435</name>
<sym>Dot</sym>
</trkpt>
<trkpt lat="39.699322" lon="-8.551122">
<ele>195.5</ele>
<desc>Speed 17.2 km/h Distance 59.50 km</desc>
<time>2011-05-22T11:40:17.73</time>
<name>12436</name>
<sym>Dot</sym>
</trkpt>
<trkpt lat="39.699330" lon="-8.551175">
<ele>196.0</ele>
<desc>Speed 16.9 km/h Distance 59.51 km</desc>
<time>2011-05-22T11:40:18.73</time>
<name>12437</name>
<sym>Dot</sym>
</trkpt>
<trkpt lat="39.699340" lon="-8.551227">
<ele>196.0</ele>
<desc>Speed 16.3 km/h Distance 59.51 km</desc>
<time>2011-05-22T11:40:19.73</time>
<name>12438</name>
<sym>Dot</sym>
</trkpt>
<trkpt lat="39.699348" lon="-8.551273">
<ele>196.5</ele>
<desc>Speed 14.8 km/h Distance 59.52 km</desc>
<time>2011-05-22T11:40:20.73</time>
<name>12439</name>
<sym>Dot</sym>
</trkpt>
<trkpt lat="39.699355" lon="-8.551313">
<ele>197.0</ele>
<desc>Speed 12.9 km/h Distance 59.52 km</desc>
<time>2011-05-22T11:40:21.72</time>
<name>12440</name>
<sym>Dot</sym>
</trkpt>
<trkpt lat="39.699362" lon="-8.551348">
<ele>197.0</ele>
<desc>Speed 11.4 km/h Distance 59.52 km</desc>
<time>2011-05-22T11:40:22.71</time>
<name>12441</name>
<sym>Dot</sym>
</trkpt>
<trkpt lat="39.699367" lon="-8.551382">
<ele>197.5</ele>
<desc>Speed 10.0 km/h Distance 59.53 km</desc>
<time>2011-05-22T11:40:23.71</time>
<name>12442</name>
<sym>Dot</sym>
</trkpt>
<trkpt lat="39.699372" lon="-8.551412">
<ele>197.5</ele>
<desc>Speed 9.6 km/h Distance 59.53 km</desc>
<time>2011-05-22T11:40:24.71</time>
<name>12443</name>
<sym>Dot</sym>
</trkpt>
<trkpt lat="39.699377" lon="-8.551442">
<ele>197.5</ele>
<desc>Speed 9.5 km/h Distance 59.53 km</desc>
<time>2011-05-22T11:40:25.71</time>
<name>12444</name>
<sym>Dot</sym>
</trkpt>
<trkpt lat="39.699380" lon="-8.551472">
<ele>197.5</ele>
<desc>Speed 9.5 km/h Distance 59.54 km</desc>
<time>2011-05-22T11:40:26.71</time>
<name>12445</name>
<sym>Dot</sym>
</trkpt>
<trkpt lat="39.699387" lon="-8.551502">
<ele>198.0</ele>
<desc>Speed 9.8 km/h Distance 59.54 km</desc>
<time>2011-05-22T11:40:27.71</time>
<name>12446</name>
<sym>Dot</sym>
</trkpt>
<trkpt lat="39.699393" lon="-8.551535">
<ele>198.0</ele>
<desc>Speed 10.3 km/h Distance 59.54 km</desc>
<time>2011-05-22T11:40:28.71</time>
<name>12447</name>
<sym>Dot</sym>
</trkpt>
<trkpt lat="39.699400" lon="-8.551568">
<ele>198.0</ele>
<desc>Speed 10.7 km/h Distance 59.54 km</desc>
<time>2011-05-22T11:40:29.70</time>
<name>12448</name>
<sym>Dot</sym>
</trkpt>
<trkpt lat="39.699407" lon="-8.551602">
<ele>198.5</ele>
<desc>Speed 10.5 km/h Distance 59.55 km</desc>
<time>2011-05-22T11:40:30.70</time>
<name>12449</name>
<sym>Dot</sym>
</trkpt>
<trkpt lat="39.699412" lon="-8.551632">
<ele>198.5</ele>
<desc>Speed 9.9 km/h Distance 59.55 km</desc>
<time>2011-05-22T11:40:31.70</time>
<name>12450</name>
<sym>Dot</sym>
</trkpt>
<trkpt lat="39.699418" lon="-8.551663">
<ele>198.5</ele>
<desc>Speed 9.8 km/h Distance 59.55 km</desc>
<time>2011-05-22T11:40:32.69</time>
<name>12451</name>
<sym>Dot</sym>
</trkpt>
<trkpt lat="39.699425" lon="-8.551695">
<ele>198.5</ele>
<desc>Speed 10.4 km/h Distance 59.56 km</desc>
<time>2011-05-22T11:40:33.69</time>
<name>12452</name>
<sym>Dot</sym>
</trkpt>
<trkpt lat="39.699433" lon="-8.551728">
<ele>198.5</ele>
<desc>Speed 10.7 km/h Distance 59.56 km</desc>
<time>2011-05-22T11:40:34.69</time>
<name>12453</name>
<sym>Dot</sym>
</trkpt>
<trkpt lat="39.699443" lon="-8.551760">
<ele>198.5</ele>
<desc>Speed 10.8 km/h Distance 59.56 km</desc>
<time>2011-05-22T11:40:35.68</time>
<name>12454</name>
<sym>Dot</sym>
</trkpt>
<trkpt lat="39.699455" lon="-8.551792">
<ele>198.5</ele>
<desc>Speed 10.5 km/h Distance 59.56 km</desc>
<time>2011-05-22T11:40:36.68</time>
<name>12455</name>
<sym>Dot</sym>
</trkpt>
<trkpt lat="39.699462" lon="-8.551823">
<ele>198.5</ele>
<desc>Speed 10.4 km/h Distance 59.57 km</desc>
<time>2011-05-22T11:40:37.67</time>
<name>12456</name>
<sym>Dot</sym>
</trkpt>
<trkpt lat="39.699468" lon="-8.551855">
<ele>199.0</ele>
<desc>Speed 10.0 km/h Distance 59.57 km</desc>
<time>2011-05-22T11:40:38.67</time>
<name>12457</name>
<sym>Dot</sym>
</trkpt>
<trkpt lat="39.699475" lon="-8.551887">
<ele>199.0</ele>
<desc>Speed 10.5 km/h Distance 59.57 km</desc>
<time>2011-05-22T11:40:39.67</time>
<name>12458</name>
<sym>Dot</sym>
</trkpt>
<trkpt lat="39.699487" lon="-8.551918">
<ele>199.0</ele>
<desc>Speed 10.7 km/h Distance 59.58 km</desc>
<time>2011-05-22T11:40:40.67</time>
<name>12459</name>
<sym>Dot</sym>
</trkpt>
<trkpt lat="39.699498" lon="-8.551953">
<ele>199.0</ele>
<desc>Speed 11.7 km/h Distance 59.58 km</desc>
<time>2011-05-22T11:40:41.67</time>
<name>12460</name>
<sym>Dot</sym>
</trkpt>
<trkpt lat="39.699512" lon="-8.551988">
<ele>199.0</ele>
<desc>Speed 12.4 km/h Distance 59.58 km</desc>
<time>2011-05-22T11:40:42.67</time>
<name>12461</name>
<sym>Dot</sym>
</trkpt>
<trkpt lat="39.699528" lon="-8.552027">
<ele>199.0</ele>
<desc>Speed 13.5 km/h Distance 59.59 km</desc>
<time>2011-05-22T11:40:43.67</time>
<name>12462</name>
<sym>Dot</sym>
</trkpt>
<trkpt lat="39.699548" lon="-8.552067">
<ele>198.5</ele>
<desc>Speed 14.7 km/h Distance 59.59 km</desc>
<time>2011-05-22T11:40:44.67</time>
<name>12463</name>
<sym>Dot</sym>
</trkpt>
<trkpt lat="39.699568" lon="-8.552110">
<ele>198.5</ele>
<desc>Speed 15.6 km/h Distance 59.59 km</desc>
<time>2011-05-22T11:40:45.66</time>
<name>12464</name>
<sym>Dot</sym>
</trkpt>
<trkpt lat="39.699588" lon="-8.552158">
<ele>198.5</ele>
<desc>Speed 16.9 km/h Distance 59.60 km</desc>
<time>2011-05-22T11:40:46.66</time>
<name>12465</name>
<sym>Dot</sym>
</trkpt>
<trkpt lat="39.699610" lon="-8.552210">
<ele>198.0</ele>
<desc>Speed 18.1 km/h Distance 59.60 km</desc>
<time>2011-05-22T11:40:47.65</time>
<name>12466</name>
<sym>Dot</sym>
</trkpt>
<trkpt lat="39.699632" lon="-8.552265">
<ele>198.0</ele>
<desc>Speed 19.2 km/h Distance 59.61 km</desc>
<time>2011-05-22T11:40:48.65</time>
<name>12467</name>
<sym>Dot</sym>
</trkpt>
<trkpt lat="39.699655" lon="-8.552323">
<ele>197.5</ele>
<desc>Speed 20.3 km/h Distance 59.62 km</desc>
<time>2011-05-22T11:40:49.65</time>
<name>12468</name>
<sym>Dot</sym>
</trkpt>
<trkpt lat="39.699682" lon="-8.552385">
<ele>197.5</ele>
<desc>Speed 21.3 km/h Distance 59.62 km</desc>
<time>2011-05-22T11:40:50.64</time>
<name>12469</name>
<sym>Dot</sym>
</trkpt>
<trkpt lat="39.699708" lon="-8.552447">
<ele>197.0</ele>
<desc>Speed 22.1 km/h Distance 59.63 km</desc>
<time>2011-05-22T11:40:51.64</time>
<name>12470</name>
<sym>Dot</sym>
</trkpt>
<trkpt lat="39.699735" lon="-8.552510">
<ele>197.0</ele>
<desc>Speed 22.5 km/h Distance 59.63 km</desc>
<time>2011-05-22T11:40:52.64</time>
<name>12471</name>
<sym>Dot</sym>
</trkpt>
<trkpt lat="39.699762" lon="-8.552575">
<ele>197.0</ele>
<desc>Speed 22.8 km/h Distance 59.64 km</desc>
<time>2011-05-22T11:40:53.64</time>
<name>12472</name>
<sym>Dot</sym>
</trkpt>
<trkpt lat="39.699788" lon="-8.552642">
<ele>197.0</ele>
<desc>Speed 22.5 km/h Distance 59.65 km</desc>
<time>2011-05-22T11:40:54.63</time>
<name>12473</name>
<sym>Dot</sym>
</trkpt>
<trkpt lat="39.699812" lon="-8.552707">
<ele>197.0</ele>
<desc>Speed 22.1 km/h Distance 59.65 km</desc>
<time>2011-05-22T11:40:55.63</time>
<name>12474</name>
<sym>Dot</sym>
</trkpt>
<trkpt lat="39.699832" lon="-8.552770">
<ele>197.0</ele>
<desc>Speed 21.6 km/h Distance 59.66 km</desc>
<time>2011-05-22T11:40:56.63</time>
<name>12475</name>
<sym>Dot</sym>
</trkpt>
<trkpt lat="39.699850" lon="-8.552835">
<ele>197.0</ele>
<desc>Speed 21.2 km/h Distance 59.66 km</desc>
<time>2011-05-22T11:40:57.63</time>
<name>12476</name>
<sym>Dot</sym>
</trkpt>
<trkpt lat="39.699867" lon="-8.552900">
<ele>197.0</ele>
<desc>Speed 21.0 km/h Distance 59.67 km</desc>
<time>2011-05-22T11:40:58.62</time>
<name>12477</name>
<sym>Dot</sym>
</trkpt>
<trkpt lat="39.699880" lon="-8.552965">
<ele>197.0</ele>
<desc>Speed 20.7 km/h Distance 59.68 km</desc>
<time>2011-05-22T11:40:59.62</time>
<name>12478</name>
<sym>Dot</sym>
</trkpt>
<trkpt lat="39.699890" lon="-8.553030">
<ele>197.0</ele>
<desc>Speed 20.4 km/h Distance 59.68 km</desc>
<time>2011-05-22T11:41:00.62</time>
<name>12479</name>
<sym>Dot</sym>
</trkpt>
<trkpt lat="39.699895" lon="-8.553093">
<ele>197.0</ele>
<desc>Speed 19.5 km/h Distance 59.69 km</desc>
<time>2011-05-22T11:41:01.62</time>
<name>12480</name>
<sym>Dot</sym>
</trkpt>
<trkpt lat="39.699900" lon="-8.553155">
<ele>197.0</ele>
<desc>Speed 19.2 km/h Distance 59.69 km</desc>
<time>2011-05-22T11:41:02.61</time>
<name>12481</name>
<sym>Dot</sym>
</trkpt>
<trkpt lat="39.699902" lon="-8.553215">
<ele>197.0</ele>
<desc>Speed 18.5 km/h Distance 59.70 km</desc>
<time>2011-05-22T11:41:03.60</time>
<name>12482</name>
<sym>Dot</sym>
</trkpt>
<trkpt lat="39.699902" lon="-8.553275">
<ele>197.5</ele>
<desc>Speed 18.3 km/h Distance 59.70 km</desc>
<time>2011-05-22T11:41:04.60</time>
<name>12483</name>
<sym>Dot</sym>
</trkpt>
<trkpt lat="39.699900" lon="-8.553333">
<ele>197.5</ele>
<desc>Speed 17.9 km/h Distance 59.71 km</desc>
<time>2011-05-22T11:41:05.59</time>
<name>12484</name>
<sym>Dot</sym>
</trkpt>
<trkpt lat="39.699898" lon="-8.553390">
<ele>197.5</ele>
<desc>Speed 17.4 km/h Distance 59.71 km</desc>
<time>2011-05-22T11:41:06.59</time>
<name>12485</name>
<sym>Dot</sym>
</trkpt>
<trkpt lat="39.699893" lon="-8.553443">
<ele>197.5</ele>
<desc>Speed 16.8 km/h Distance 59.72 km</desc>
<time>2011-05-22T11:41:07.58</time>
<name>12486</name>
<sym>Dot</sym>
</trkpt>
<trkpt lat="39.699887" lon="-8.553497">
<ele>197.5</ele>
<desc>Speed 16.5 km/h Distance 59.72 km</desc>
<time>2011-05-22T11:41:08.58</time>
<name>12487</name>
<sym>Dot</sym>
</trkpt>
<trkpt lat="39.699880" lon="-8.553547">
<ele>197.5</ele>
<desc>Speed 15.7 km/h Distance 59.73 km</desc>
<time>2011-05-22T11:41:09.58</time>
<name>12488</name>
<sym>Dot</sym>
</trkpt>
<trkpt lat="39.699870" lon="-8.553592">
<ele>198.0</ele>
<desc>Speed 14.5 km/h Distance 59.73 km</desc>
<time>2011-05-22T11:41:10.58</time>
<name>12489</name>
<sym>Dot</sym>
</trkpt>
<trkpt lat="39.699860" lon="-8.553635">
<ele>198.5</ele>
<desc>Speed 13.8 km/h Distance 59.73 km</desc>
<time>2011-05-22T11:41:11.58</time>
<name>12490</name>
<sym>Dot</sym>
</trkpt>
<trkpt lat="39.699853" lon="-8.553678">
<ele>198.5</ele>
<desc>Speed 13.6 km/h Distance 59.74 km</desc>
<time>2011-05-22T11:41:12.57</time>
<name>12491</name>
<sym>Dot</sym>
</trkpt>
<trkpt lat="39.699848" lon="-8.553720">
<ele>198.5</ele>
<desc>Speed 12.9 km/h Distance 59.74 km</desc>
<time>2011-05-22T11:41:13.57</time>
<name>12492</name>
<sym>Dot</sym>
</trkpt>
<trkpt lat="39.699840" lon="-8.553753">
<ele>199.5</ele>
<desc>Speed 11.0 km/h Distance 59.74 km</desc>
<time>2011-05-22T11:41:14.57</time>
<name>12493</name>
<sym>Dot</sym>
</trkpt>
<trkpt lat="39.699833" lon="-8.553785">
<ele>199.5</ele>
<desc>Speed 10.1 km/h Distance 59.75 km</desc>
<time>2011-05-22T11:41:15.57</time>
<name>12494</name>
<sym>Dot</sym>
</trkpt>
<trkpt lat="39.699828" lon="-8.553803">
<ele>200.0</ele>
<desc>Speed 5.9 km/h Distance 59.75 km</desc>
<time>2011-05-22T11:41:16.57</time>
<name>12495</name>
<sym>Dot</sym>
</trkpt>
<trkpt lat="39.699825" lon="-8.553820">
<ele>200.5</ele>
<desc>Speed 5.3 km/h Distance 59.75 km</desc>
<time>2011-05-22T11:41:17.57</time>
<name>12496</name>
<sym>Dot</sym>
</trkpt>
<trkpt lat="39.699818" lon="-8.553835">
<ele>201.0</ele>
<desc>Speed 5.0 km/h Distance 59.75 km</desc>
<time>2011-05-22T11:41:18.57</time>
<name>12497</name>
<sym>Dot</sym>
</trkpt>
<trkpt lat="39.699812" lon="-8.553850">
<ele>201.0</ele>
<desc>Speed 5.3 km/h Distance 59.75 km</desc>
<time>2011-05-22T11:41:19.57</time>
<name>12498</name>
<sym>Dot</sym>
</trkpt>
<trkpt lat="39.699807" lon="-8.553863">
<ele>201.0</ele>
<desc>Speed 5.1 km/h Distance 59.75 km</desc>
<time>2011-05-22T11:41:20.57</time>
<name>12499</name>
<sym>Dot</sym>
</trkpt>
<trkpt lat="39.699800" lon="-8.553883">
<ele>202.0</ele>
<desc>Speed 6.4 km/h Distance 59.76 km</desc>
<time>2011-05-22T11:41:21.56</time>
<name>12500</name>
<sym>Dot</sym>
</trkpt>
<trkpt lat="39.699798" lon="-8.553903">
<ele>202.5</ele>
<desc>Speed 5.8 km/h Distance 59.76 km</desc>
<time>2011-05-22T11:41:22.56</time>
<name>12501</name>
<sym>Dot</sym>
</trkpt>
<trkpt lat="39.699797" lon="-8.553922">
<ele>203.0</ele>
<desc>Speed 6.0 km/h Distance 59.76 km</desc>
<time>2011-05-22T11:41:23.55</time>
<name>12502</name>
<sym>Dot</sym>
</trkpt>
<trkpt lat="39.699793" lon="-8.553947">
<ele>203.5</ele>
<desc>Speed 7.3 km/h Distance 59.76 km</desc>
<time>2011-05-22T11:41:24.54</time>
<name>12503</name>
<sym>Dot</sym>
</trkpt>
<trkpt lat="39.699790" lon="-8.553972">
<ele>203.5</ele>
<desc>Speed 8.0 km/h Distance 59.76 km</desc>
<time>2011-05-22T11:41:25.53</time>
<name>12504</name>
<sym>Dot</sym>
</trkpt>
<trkpt lat="39.699788" lon="-8.554000">
<ele>203.5</ele>
<desc>Speed 9.0 km/h Distance 59.77 km</desc>
<time>2011-05-22T11:41:26.53</time>
<name>12505</name>
<sym>Dot</sym>
</trkpt>
<trkpt lat="39.699783" lon="-8.554032">
<ele>203.5</ele>
<desc>Speed 9.7 km/h Distance 59.77 km</desc>
<time>2011-05-22T11:41:27.53</time>
<name>12506</name>
<sym>Dot</sym>
</trkpt>
<trkpt lat="39.699780" lon="-8.554063">
<ele>204.0</ele>
<desc>Speed 9.6 km/h Distance 59.77 km</desc>
<time>2011-05-22T11:41:28.53</time>
<name>12507</name>
<sym>Dot</sym>
</trkpt>
<trkpt lat="39.699772" lon="-8.554097">
<ele>205.0</ele>
<desc>Speed 10.7 km/h Distance 59.77 km</desc>
<time>2011-05-22T11:41:29.53</time>
<name>12508</name>
<sym>Dot</sym>
</trkpt>
<trkpt lat="39.699768" lon="-8.554135">
<ele>204.5</ele>
<desc>Speed 11.8 km/h Distance 59.78 km</desc>
<time>2011-05-22T11:41:30.53</time>
<name>12509</name>
<sym>Dot</sym>
</trkpt>
<trkpt lat="39.699762" lon="-8.554172">
<ele>204.5</ele>
<desc>Speed 11.4 km/h Distance 59.78 km</desc>
<time>2011-05-22T11:41:31.53</time>
<name>12510</name>
<sym>Dot</sym>
</trkpt>
<trkpt lat="39.699758" lon="-8.554208">
<ele>204.5</ele>
<desc>Speed 11.3 km/h Distance 59.78 km</desc>
<time>2011-05-22T11:41:32.52</time>
<name>12511</name>
<sym>Dot</sym>
</trkpt>
<trkpt lat="39.699748" lon="-8.554240">
<ele>206.0</ele>
<desc>Speed 10.1 km/h Distance 59.79 km</desc>
<time>2011-05-22T11:41:33.51</time>
<name>12512</name>
<sym>Dot</sym>
</trkpt>
<trkpt lat="39.699735" lon="-8.554275">
<ele>208.0</ele>
<desc>Speed 11.2 km/h Distance 59.79 km</desc>
<time>2011-05-22T11:41:34.51</time>
<name>12513</name>
<sym>Dot</sym>
</trkpt>
<trkpt lat="39.699733" lon="-8.554313">
<ele>208.0</ele>
<desc>Speed 12.0 km/h Distance 59.79 km</desc>
<time>2011-05-22T11:41:35.51</time>
<name>12514</name>
<sym>Dot</sym>
</trkpt>
<trkpt lat="39.699727" lon="-8.554350">
<ele>208.0</ele>
<desc>Speed 11.3 km/h Distance 59.80 km</desc>
<time>2011-05-22T11:41:36.51</time>
<name>12515</name>
<sym>Dot</sym>
</trkpt>
<trkpt lat="39.699725" lon="-8.554387">
<ele>208.5</ele>
<desc>Speed 10.8 km/h Distance 59.80 km</desc>
<time>2011-05-22T11:41:37.51</time>
<name>12516</name>
<sym>Dot</sym>
</trkpt>
<trkpt lat="39.699718" lon="-8.554422">
<ele>209.0</ele>
<desc>Speed 10.8 km/h Distance 59.80 km</desc>
<time>2011-05-22T11:41:38.50</time>
<name>12517</name>
<sym>Dot</sym>
</trkpt>
<trkpt lat="39.699708" lon="-8.554455">
<ele>210.0</ele>
<desc>Speed 10.8 km/h Distance 59.81 km</desc>
<time>2011-05-22T11:41:39.50</time>
<name>12518</name>
<sym>Dot</sym>
</trkpt>
<trkpt lat="39.699703" lon="-8.554490">
<ele>210.0</ele>
<desc>Speed 10.9 km/h Distance 59.81 km</desc>
<time>2011-05-22T11:41:40.50</time>
<name>12519</name>
<sym>Dot</sym>
</trkpt>
<trkpt lat="39.699702" lon="-8.554532">
<ele>210.0</ele>
<desc>Speed 12.6 km/h Distance 59.81 km</desc>
<time>2011-05-22T11:41:41.50</time>
<name>12520</name>
<sym>Dot</sym>
</trkpt>
<trkpt lat="39.699698" lon="-8.554575">
<ele>210.0</ele>
<desc>Speed 12.7 km/h Distance 59.82 km</desc>
<time>2011-05-22T11:41:42.49</time>
<name>12521</name>
<sym>Dot</sym>
</trkpt>
<trkpt lat="39.699690" lon="-8.554612">
<ele>211.0</ele>
<desc>Speed 11.4 km/h Distance 59.82 km</desc>
<time>2011-05-22T11:41:43.49</time>
<name>12522</name>
<sym>Dot</sym>
</trkpt>
<trkpt lat="39.699678" lon="-8.554645">
<ele>212.5</ele>
<desc>Speed 10.8 km/h Distance 59.82 km</desc>
<time>2011-05-22T11:41:44.49</time>
<name>12523</name>
<sym>Dot</sym>
</trkpt>
<trkpt lat="39.699667" lon="-8.554682">
<ele>213.5</ele>
<desc>Speed 12.2 km/h Distance 59.83 km</desc>
<time>2011-05-22T11:41:45.49</time>
<name>12524</name>
<sym>Dot</sym>
</trkpt>
<trkpt lat="39.699653" lon="-8.554718">
<ele>214.5</ele>
<desc>Speed 11.7 km/h Distance 59.83 km</desc>
<time>2011-05-22T11:41:46.48</time>
<name>12525</name>
<sym>Dot</sym>
</trkpt>
<trkpt lat="39.699645" lon="-8.554757">
<ele>214.5</ele>
<desc>Speed 12.1 km/h Distance 59.83 km</desc>
<time>2011-05-22T11:41:47.48</time>
<name>12526</name>
<sym>Dot</sym>
</trkpt>
<trkpt lat="39.699642" lon="-8.554802">
<ele>214.0</ele>
<desc>Speed 13.2 km/h Distance 59.84 km</desc>
<time>2011-05-22T11:41:48.49</time>
<name>12527</name>
<sym>Dot</sym>
</trkpt>
<trkpt lat="39.699637" lon="-8.554843">
<ele>214.0</ele>
<desc>Speed 12.7 km/h Distance 59.84 km</desc>
<time>2011-05-22T11:41:49.48</time>
<name>12528</name>
<sym>Dot</sym>
</trkpt>
<trkpt lat="39.699627" lon="-8.554885">
<ele>214.0</ele>
<desc>Speed 13.0 km/h Distance 59.84 km</desc>
<time>2011-05-22T11:41:50.48</time>
<name>12529</name>
<sym>Dot</sym>
</trkpt>
<trkpt lat="39.699620" lon="-8.554930">
<ele>214.0</ele>
<desc>Speed 13.2 km/h Distance 59.85 km</desc>
<time>2011-05-22T11:41:51.48</time>
<name>12530</name>
<sym>Dot</sym>
</trkpt>
<trkpt lat="39.699613" lon="-8.554973">
<ele>213.5</ele>
<desc>Speed 13.3 km/h Distance 59.85 km</desc>
<time>2011-05-22T11:41:52.47</time>
<name>12531</name>
<sym>Dot</sym>
</trkpt>
<trkpt lat="39.699605" lon="-8.555017">
<ele>213.5</ele>
<desc>Speed 13.0 km/h Distance 59.86 km</desc>
<time>2011-05-22T11:41:53.47</time>
<name>12532</name>
<sym>Dot</sym>
</trkpt>
<trkpt lat="39.699597" lon="-8.555058">
<ele>212.5</ele>
<desc>Speed 12.8 km/h Distance 59.86 km</desc>
<time>2011-05-22T11:41:54.47</time>
<name>12533</name>
<sym>Dot</sym>
</trkpt>
<trkpt lat="39.699588" lon="-8.555103">
<ele>212.5</ele>
<desc>Speed 13.5 km/h Distance 59.86 km</desc>
<time>2011-05-22T11:41:55.47</time>
<name>12534</name>
<sym>Dot</sym>
</trkpt>
<trkpt lat="39.699580" lon="-8.555150">
<ele>212.0</ele>
<desc>Speed 14.1 km/h Distance 59.87 km</desc>
<time>2011-05-22T11:41:56.46</time>
<name>12535</name>
<sym>Dot</sym>
</trkpt>
<trkpt lat="39.699573" lon="-8.555197">
<ele>211.5</ele>
<desc>Speed 14.1 km/h Distance 59.87 km</desc>
<time>2011-05-22T11:41:57.46</time>
<name>12536</name>
<sym>Dot</sym>
</trkpt>
<trkpt lat="39.699570" lon="-8.555243">
<ele>211.0</ele>
<desc>Speed 13.9 km/h Distance 59.88 km</desc>
<time>2011-05-22T11:41:58.46</time>
<name>12537</name>
<sym>Dot</sym>
</trkpt>
<trkpt lat="39.699568" lon="-8.555290">
<ele>210.5</ele>
<desc>Speed 13.8 km/h Distance 59.88 km</desc>
<time>2011-05-22T11:41:59.46</time>
<name>12538</name>
<sym>Dot</sym>
</trkpt>
<trkpt lat="39.699562" lon="-8.555333">
<ele>211.0</ele>
<desc>Speed 13.5 km/h Distance 59.88 km</desc>
<time>2011-05-22T11:42:00.46</time>
<name>12539</name>
<sym>Dot</sym>
</trkpt>
<trkpt lat="39.699555" lon="-8.555378">
<ele>211.0</ele>
<desc>Speed 13.3 km/h Distance 59.89 km</desc>
<time>2011-05-22T11:42:01.45</time>
<name>12540</name>
<sym>Dot</sym>
</trkpt>
<trkpt lat="39.699548" lon="-8.555427">
<ele>210.5</ele>
<desc>Speed 14.4 km/h Distance 59.89 km</desc>
<time>2011-05-22T11:42:02.44</time>
<name>12541</name>
<sym>Dot</sym>
</trkpt>
<trkpt lat="39.699543" lon="-8.555477">
<ele>210.5</ele>
<desc>Speed 14.9 km/h Distance 59.90 km</desc>
<time>2011-05-22T11:42:03.44</time>
<name>12542</name>
<sym>Dot</sym>
</trkpt>
<trkpt lat="39.699537" lon="-8.555527">
<ele>210.5</ele>
<desc>Speed 14.9 km/h Distance 59.90 km</desc>
<time>2011-05-22T11:42:04.44</time>
<name>12543</name>
<sym>Dot</sym>
</trkpt>
<trkpt lat="39.699535" lon="-8.555580">
<ele>210.0</ele>
<desc>Speed 16.4 km/h Distance 59.91 km</desc>
<time>2011-05-22T11:42:05.44</time>
<name>12544</name>
<sym>Dot</sym>
</trkpt>
<trkpt lat="39.699533" lon="-8.555635">
<ele>209.5</ele>
<desc>Speed 16.5 km/h Distance 59.91 km</desc>
<time>2011-05-22T11:42:06.44</time>
<name>12545</name>
<sym>Dot</sym>
</trkpt>
<trkpt lat="39.699537" lon="-8.555692">
<ele>208.5</ele>
<desc>Speed 16.7 km/h Distance 59.91 km</desc>
<time>2011-05-22T11:42:07.44</time>
<name>12546</name>
<sym>Dot</sym>
</trkpt>
<trkpt lat="39.699537" lon="-8.555748">
<ele>207.5</ele>
<desc>Speed 17.1 km/h Distance 59.92 km</desc>
<time>2011-05-22T11:42:08.43</time>
<name>12547</name>
<sym>Dot</sym>
</trkpt>
<trkpt lat="39.699537" lon="-8.555805">
<ele>207.5</ele>
<desc>Speed 16.4 km/h Distance 59.92 km</desc>
<time>2011-05-22T11:42:09.43</time>
<name>12548</name>
<sym>Dot</sym>
</trkpt>
<trkpt lat="39.699537" lon="-8.555863">
<ele>207.5</ele>
<desc>Speed 17.5 km/h Distance 59.93 km</desc>
<time>2011-05-22T11:42:10.43</time>
<name>12549</name>
<sym>Dot</sym>
</trkpt>
<trkpt lat="39.699538" lon="-8.555918">
<ele>207.0</ele>
<desc>Speed 16.7 km/h Distance 59.93 km</desc>
<time>2011-05-22T11:42:11.43</time>
<name>12550</name>
<sym>Dot</sym>
</trkpt>
<trkpt lat="39.699542" lon="-8.555975">
<ele>207.0</ele>
<desc>Speed 16.9 km/h Distance 59.94 km</desc>
<time>2011-05-22T11:42:12.42</time>
<name>12551</name>
<sym>Dot</sym>
</trkpt>
<trkpt lat="39.699547" lon="-8.556033">
<ele>206.0</ele>
<desc>Speed 17.1 km/h Distance 59.94 km</desc>
<time>2011-05-22T11:42:13.42</time>
<name>12552</name>
<sym>Dot</sym>
</trkpt>
<trkpt lat="39.699550" lon="-8.556087">
<ele>206.0</ele>
<desc>Speed 16.0 km/h Distance 59.95 km</desc>
<time>2011-05-22T11:42:14.42</time>
<name>12553</name>
<sym>Dot</sym>
</trkpt>
<trkpt lat="39.699557" lon="-8.556133">
<ele>205.5</ele>
<desc>Speed 14.2 km/h Distance 59.95 km</desc>
<time>2011-05-22T11:42:15.42</time>
<name>12554</name>
<sym>Dot</sym>
</trkpt>
<trkpt lat="39.699562" lon="-8.556173">
<ele>205.5</ele>
<desc>Speed 12.0 km/h Distance 59.96 km</desc>
<time>2011-05-22T11:42:16.41</time>
<name>12555</name>
<sym>Dot</sym>
</trkpt>
<trkpt lat="39.699567" lon="-8.556208">
<ele>205.0</ele>
<desc>Speed 10.2 km/h Distance 59.96 km</desc>
<time>2011-05-22T11:42:17.41</time>
<name>12556</name>
<sym>Dot</sym>
</trkpt>
<trkpt lat="39.699573" lon="-8.556233">
<ele>204.5</ele>
<desc>Speed 7.5 km/h Distance 59.96 km</desc>
<time>2011-05-22T11:42:18.41</time>
<name>12557</name>
<sym>Dot</sym>
</trkpt>
<trkpt lat="39.699580" lon="-8.556248">
<ele>204.0</ele>
<desc>Speed 4.0 km/h Distance 59.96 km</desc>
<time>2011-05-22T11:42:19.41</time>
<name>12558</name>
<sym>Dot</sym>
</trkpt>
<trkpt lat="39.699585" lon="-8.556258">
<ele>203.5</ele>
<desc>Speed 1.1 km/h Distance 59.96 km</desc>
<time>2011-05-22T11:42:24.41</time>
<name>12559</name>
<sym>Dot</sym>
</trkpt>
<trkpt lat="39.699590" lon="-8.556262">
<ele>203.0</ele>
<desc>Speed 1.6 km/h Distance 59.96 km</desc>
<time>2011-05-22T11:42:25.41</time>
<name>12560</name>
<sym>Dot</sym>
</trkpt>
<trkpt lat="39.699597" lon="-8.556267">
<ele>203.0</ele>
<desc>Speed 2.3 km/h Distance 59.97 km</desc>
<time>2011-05-22T11:42:26.40</time>
<name>12561</name>
<sym>Dot</sym>
</trkpt>
<trkpt lat="39.699602" lon="-8.556270">
<ele>203.0</ele>
<desc>Speed 2.2 km/h Distance 59.97 km</desc>
<time>2011-05-22T11:42:27.40</time>
<name>12562</name>
<sym>Dot</sym>
</trkpt>
<trkpt lat="39.699613" lon="-8.556285">
<ele>202.5</ele>
<desc>Speed 2.2 km/h Distance 59.97 km</desc>
<time>2011-05-22T11:42:36.39</time>
<name>12563</name>
<sym>Dot</sym>
</trkpt>
<trkpt lat="39.699618" lon="-8.556287">
<ele>202.5</ele>
<desc>Speed 1.4 km/h Distance 59.97 km</desc>
<time>2011-05-22T11:42:37.39</time>
<name>12564</name>
<sym>Dot</sym>
</trkpt>
<trkpt lat="39.699640" lon="-8.556318">
<ele>201.0</ele>
<desc>Speed 1.8 km/h Distance 59.97 km</desc>
<time>2011-05-22T11:44:02.38</time>
<name>12565</name>
<sym>Dot</sym>
</trkpt>
<trkpt lat="39.699662" lon="-8.556347">
<ele>203.5</ele>
<desc>Speed 1.1 km/h Distance 59.98 km</desc>
<time>2011-05-22T11:45:19.37</time>
<name>12566</name>
<sym>Dot</sym>
</trkpt>
<trkpt lat="39.699667" lon="-8.556347">
<ele>203.5</ele>
<desc>Speed 1.7 km/h Distance 59.98 km</desc>
<time>2011-05-22T11:45:20.37</time>
<name>12567</name>
<sym>Dot</sym>
</trkpt>
<trkpt lat="39.699663" lon="-8.556345">
<ele>203.0</ele>
<desc>Speed 1.1 km/h Distance 59.98 km</desc>
<time>2011-05-22T11:45:36.36</time>
<name>12568</name>
<sym>Dot</sym>
</trkpt>
<trkpt lat="39.699647" lon="-8.556353">
<ele>201.0</ele>
<desc>Speed 1.8 km/h Distance 59.98 km</desc>
<time>2011-05-22T11:45:51.36</time>
<name>12569</name>
<sym>Dot</sym>
</trkpt>
<trkpt lat="39.699648" lon="-8.556367">
<ele>200.5</ele>
<desc>Speed 3.7 km/h Distance 59.98 km</desc>
<time>2011-05-22T11:45:52.35</time>
<name>12570</name>
<sym>Dot</sym>
</trkpt>
<trkpt lat="39.699645" lon="-8.556377">
<ele>200.0</ele>
<desc>Speed 3.3 km/h Distance 59.98 km</desc>
<time>2011-05-22T11:45:53.35</time>
<name>12571</name>
<sym>Dot</sym>
</trkpt>
<trkpt lat="39.699642" lon="-8.556393">
<ele>200.0</ele>
<desc>Speed 5.5 km/h Distance 59.98 km</desc>
<time>2011-05-22T11:45:54.35</time>
<name>12572</name>
<sym>Dot</sym>
</trkpt>
<trkpt lat="39.699638" lon="-8.556413">
<ele>200.5</ele>
<desc>Speed 6.6 km/h Distance 59.98 km</desc>
<time>2011-05-22T11:45:55.35</time>
<name>12573</name>
<sym>Dot</sym>
</trkpt>
<trkpt lat="39.699635" lon="-8.556438">
<ele>201.0</ele>
<desc>Speed 7.8 km/h Distance 59.99 km</desc>
<time>2011-05-22T11:45:56.35</time>
<name>12574</name>
<sym>Dot</sym>
</trkpt>
<trkpt lat="39.699630" lon="-8.556467">
<ele>202.0</ele>
<desc>Speed 8.9 km/h Distance 59.99 km</desc>
<time>2011-05-22T11:45:57.35</time>
<name>12575</name>
<sym>Dot</sym>
</trkpt>
<trkpt lat="39.699625" lon="-8.556500">
<ele>202.5</ele>
<desc>Speed 10.4 km/h Distance 59.99 km</desc>
<time>2011-05-22T11:45:58.35</time>
<name>12576</name>
<sym>Dot</sym>
</trkpt>
<trkpt lat="39.699627" lon="-8.556542">
<ele>202.5</ele>
<desc>Speed 12.6 km/h Distance 60.00 km</desc>
<time>2011-05-22T11:45:59.34</time>
<name>12577</name>
<sym>Dot</sym>
</trkpt>
<trkpt lat="39.699632" lon="-8.556587">
<ele>202.5</ele>
<desc>Speed 14.0 km/h Distance 60.00 km</desc>
<time>2011-05-22T11:46:00.33</time>
<name>12578</name>
<sym>Dot</sym>
</trkpt>
<trkpt lat="39.699637" lon="-8.556632">
<ele>202.5</ele>
<desc>Speed 13.9 km/h Distance 60.00 km</desc>
<time>2011-05-22T11:46:01.33</time>
<name>12579</name>
<sym>Dot</sym>
</trkpt>
<trkpt lat="39.699642" lon="-8.556685">
<ele>202.0</ele>
<desc>Speed 16.5 km/h Distance 60.01 km</desc>
<time>2011-05-22T11:46:02.32</time>
<name>12580</name>
<sym>Dot</sym>
</trkpt>
<trkpt lat="39.699645" lon="-8.556740">
<ele>202.0</ele>
<desc>Speed 17.2 km/h Distance 60.01 km</desc>
<time>2011-05-22T11:46:03.32</time>
<name>12581</name>
<sym>Dot</sym>
</trkpt>
<trkpt lat="39.699652" lon="-8.556798">
<ele>202.0</ele>
<desc>Speed 17.6 km/h Distance 60.02 km</desc>
<time>2011-05-22T11:46:04.32</time>
<name>12582</name>
<sym>Dot</sym>
</trkpt>
<trkpt lat="39.699653" lon="-8.556855">
<ele>202.5</ele>
<desc>Speed 18.0 km/h Distance 60.02 km</desc>
<time>2011-05-22T11:46:05.33</time>
<name>12583</name>
<sym>Dot</sym>
</trkpt>
<trkpt lat="39.699658" lon="-8.556915">
<ele>202.0</ele>
<desc>Speed 18.3 km/h Distance 60.03 km</desc>
<time>2011-05-22T11:46:06.33</time>
<name>12584</name>
<sym>Dot</sym>
</trkpt>
<trkpt lat="39.699662" lon="-8.556977">
<ele>202.0</ele>
<desc>Speed 18.6 km/h Distance 60.03 km</desc>
<time>2011-05-22T11:46:07.32</time>
<name>12585</name>
<sym>Dot</sym>
</trkpt>
<trkpt lat="39.699668" lon="-8.557035">
<ele>202.0</ele>
<desc>Speed 18.3 km/h Distance 60.04 km</desc>
<time>2011-05-22T11:46:08.31</time>
<name>12586</name>
<sym>Dot</sym>
</trkpt>
<trkpt lat="39.699677" lon="-8.557097">
<ele>201.5</ele>
<desc>Speed 18.7 km/h Distance 60.04 km</desc>
<time>2011-05-22T11:46:09.31</time>
<name>12587</name>
<sym>Dot</sym>
</trkpt>
<trkpt lat="39.699683" lon="-8.557157">
<ele>201.5</ele>
<desc>Speed 18.8 km/h Distance 60.05 km</desc>
<time>2011-05-22T11:46:10.31</time>
<name>12588</name>
<sym>Dot</sym>
</trkpt>
<trkpt lat="39.699692" lon="-8.557218">
<ele>201.5</ele>
<desc>Speed 18.8 km/h Distance 60.05 km</desc>
<time>2011-05-22T11:46:11.29</time>
<name>12589</name>
<sym>Dot</sym>
</trkpt>
<trkpt lat="39.699698" lon="-8.557280">
<ele>201.0</ele>
<desc>Speed 18.8 km/h Distance 60.06 km</desc>
<time>2011-05-22T11:46:12.29</time>
<name>12590</name>
<sym>Dot</sym>
</trkpt>
<trkpt lat="39.699705" lon="-8.557340">
<ele>201.0</ele>
<desc>Speed 18.5 km/h Distance 60.06 km</desc>
<time>2011-05-22T11:46:13.29</time>
<name>12591</name>
<sym>Dot</sym>
</trkpt>
<trkpt lat="39.699713" lon="-8.557402">
<ele>200.5</ele>
<desc>Speed 18.9 km/h Distance 60.07 km</desc>
<time>2011-05-22T11:46:14.29</time>
<name>12592</name>
<sym>Dot</sym>
</trkpt>
<trkpt lat="39.699722" lon="-8.557462">
<ele>200.5</ele>
<desc>Speed 18.9 km/h Distance 60.07 km</desc>
<time>2011-05-22T11:46:15.28</time>
<name>12593</name>
<sym>Dot</sym>
</trkpt>
<trkpt lat="39.699730" lon="-8.557523">
<ele>200.0</ele>
<desc>Speed 18.8 km/h Distance 60.08 km</desc>
<time>2011-05-22T11:46:16.28</time>
<name>12594</name>
<sym>Dot</sym>
</trkpt>
<trkpt lat="39.699737" lon="-8.557582">
<ele>200.0</ele>
<desc>Speed 17.9 km/h Distance 60.09 km</desc>
<time>2011-05-22T11:46:17.28</time>
<name>12595</name>
<sym>Dot</sym>
</trkpt>
<trkpt lat="39.699742" lon="-8.557638">
<ele>200.0</ele>
<desc>Speed 17.9 km/h Distance 60.09 km</desc>
<time>2011-05-22T11:46:18.28</time>
<name>12596</name>
<sym>Dot</sym>
</trkpt>
<trkpt lat="39.699743" lon="-8.557697">
<ele>200.0</ele>
<desc>Speed 17.5 km/h Distance 60.10 km</desc>
<time>2011-05-22T11:46:19.28</time>
<name>12597</name>
<sym>Dot</sym>
</trkpt>
<trkpt lat="39.699750" lon="-8.557753">
<ele>200.0</ele>
<desc>Speed 17.3 km/h Distance 60.10 km</desc>
<time>2011-05-22T11:46:20.28</time>
<name>12598</name>
<sym>Dot</sym>
</trkpt>
<trkpt lat="39.699753" lon="-8.557808">
<ele>200.0</ele>
<desc>Speed 16.5 km/h Distance 60.10 km</desc>
<time>2011-05-22T11:46:21.28</time>
<name>12599</name>
<sym>Dot</sym>
</trkpt>
<trkpt lat="39.699760" lon="-8.557863">
<ele>200.0</ele>
<desc>Speed 16.9 km/h Distance 60.11 km</desc>
<time>2011-05-22T11:46:22.27</time>
<name>12600</name>
<sym>Dot</sym>
</trkpt>
<trkpt lat="39.699767" lon="-8.557918">
<ele>200.0</ele>
<desc>Speed 16.9 km/h Distance 60.11 km</desc>
<time>2011-05-22T11:46:23.27</time>
<name>12601</name>
<sym>Dot</sym>
</trkpt>
<trkpt lat="39.699777" lon="-8.557973">
<ele>199.5</ele>
<desc>Speed 17.4 km/h Distance 60.12 km</desc>
<time>2011-05-22T11:46:24.26</time>
<name>12602</name>
<sym>Dot</sym>
</trkpt>
<trkpt lat="39.699783" lon="-8.558030">
<ele>199.5</ele>
<desc>Speed 17.7 km/h Distance 60.12 km</desc>
<time>2011-05-22T11:46:25.26</time>
<name>12603</name>
<sym>Dot</sym>
</trkpt>
<trkpt lat="39.699792" lon="-8.558092">
<ele>199.5</ele>
<desc>Speed 18.8 km/h Distance 60.13 km</desc>
<time>2011-05-22T11:46:26.26</time>
<name>12604</name>
<sym>Dot</sym>
</trkpt>
<trkpt lat="39.699798" lon="-8.558153">
<ele>199.5</ele>
<desc>Speed 19.0 km/h Distance 60.13 km</desc>
<time>2011-05-22T11:46:27.26</time>
<name>12605</name>
<sym>Dot</sym>
</trkpt>
<trkpt lat="39.699807" lon="-8.558215">
<ele>199.5</ele>
<desc>Speed 19.2 km/h Distance 60.14 km</desc>
<time>2011-05-22T11:46:28.25</time>
<name>12606</name>
<sym>Dot</sym>
</trkpt>
<trkpt lat="39.699815" lon="-8.558277">
<ele>199.5</ele>
<desc>Speed 19.3 km/h Distance 60.15 km</desc>
<time>2011-05-22T11:46:29.25</time>
<name>12607</name>
<sym>Dot</sym>
</trkpt>
<trkpt lat="39.699827" lon="-8.558340">
<ele>199.5</ele>
<desc>Speed 19.7 km/h Distance 60.15 km</desc>
<time>2011-05-22T11:46:30.25</time>
<name>12608</name>
<sym>Dot</sym>
</trkpt>
<trkpt lat="39.699837" lon="-8.558403">
<ele>199.5</ele>
<desc>Speed 19.9 km/h Distance 60.16 km</desc>
<time>2011-05-22T11:46:31.25</time>
<name>12609</name>
<sym>Dot</sym>
</trkpt>
<trkpt lat="39.699847" lon="-8.558467">
<ele>199.5</ele>
<desc>Speed 20.3 km/h Distance 60.16 km</desc>
<time>2011-05-22T11:46:32.24</time>
<name>12610</name>
<sym>Dot</sym>
</trkpt>
<trkpt lat="39.699857" lon="-8.558532">
<ele>199.5</ele>
<desc>Speed 20.2 km/h Distance 60.17 km</desc>
<time>2011-05-22T11:46:33.23</time>
<name>12611</name>
<sym>Dot</sym>
</trkpt>
<trkpt lat="39.699868" lon="-8.558595">
<ele>199.5</ele>
<desc>Speed 20.2 km/h Distance 60.17 km</desc>
<time>2011-05-22T11:46:34.23</time>
<name>12612</name>
<sym>Dot</sym>
</trkpt>
<trkpt lat="39.699882" lon="-8.558662">
<ele>199.5</ele>
<desc>Speed 20.5 km/h Distance 60.18 km</desc>
<time>2011-05-22T11:46:35.22</time>
<name>12613</name>
<sym>Dot</sym>
</trkpt>
<trkpt lat="39.699892" lon="-8.558725">
<ele>199.5</ele>
<desc>Speed 20.1 km/h Distance 60.18 km</desc>
<time>2011-05-22T11:46:36.22</time>
<name>12614</name>
<sym>Dot</sym>
</trkpt>
<trkpt lat="39.699905" lon="-8.558788">
<ele>199.5</ele>
<desc>Speed 20.0 km/h Distance 60.19 km</desc>
<time>2011-05-22T11:46:37.21</time>
<name>12615</name>
<sym>Dot</sym>
</trkpt>
<trkpt lat="39.699915" lon="-8.558850">
<ele>199.5</ele>
<desc>Speed 19.3 km/h Distance 60.20 km</desc>
<time>2011-05-22T11:46:38.20</time>
<name>12616</name>
<sym>Dot</sym>
</trkpt>
<trkpt lat="39.699927" lon="-8.558910">
<ele>199.5</ele>
<desc>Speed 18.9 km/h Distance 60.20 km</desc>
<time>2011-05-22T11:46:39.20</time>
<name>12617</name>
<sym>Dot</sym>
</trkpt>
<trkpt lat="39.699942" lon="-8.558970">
<ele>199.0</ele>
<desc>Speed 19.2 km/h Distance 60.21 km</desc>
<time>2011-05-22T11:46:40.20</time>
<name>12618</name>
<sym>Dot</sym>
</trkpt>
<trkpt lat="39.699953" lon="-8.559032">
<ele>199.0</ele>
<desc>Speed 19.3 km/h Distance 60.21 km</desc>
<time>2011-05-22T11:46:41.19</time>
<name>12619</name>
<sym>Dot</sym>
</trkpt>
<trkpt lat="39.699968" lon="-8.559090">
<ele>199.0</ele>
<desc>Speed 19.2 km/h Distance 60.22 km</desc>
<time>2011-05-22T11:46:42.19</time>
<name>12620</name>
<sym>Dot</sym>
</trkpt>
<trkpt lat="39.699983" lon="-8.559152">
<ele>199.0</ele>
<desc>Speed 19.7 km/h Distance 60.22 km</desc>
<time>2011-05-22T11:46:43.18</time>
<name>12621</name>
<sym>Dot</sym>
</trkpt>
<trkpt lat="39.699998" lon="-8.559213">
<ele>199.0</ele>
<desc>Speed 19.6 km/h Distance 60.23 km</desc>
<time>2011-05-22T11:46:44.18</time>
<name>12622</name>
<sym>Dot</sym>
</trkpt>
<trkpt lat="39.700012" lon="-8.559275">
<ele>199.0</ele>
<desc>Speed 19.6 km/h Distance 60.23 km</desc>
<time>2011-05-22T11:46:45.18</time>
<name>12623</name>
<sym>Dot</sym>
</trkpt>
<trkpt lat="39.700023" lon="-8.559337">
<ele>199.0</ele>
<desc>Speed 19.4 km/h Distance 60.24 km</desc>
<time>2011-05-22T11:46:46.17</time>
<name>12624</name>
<sym>Dot</sym>
</trkpt>
<trkpt lat="39.700035" lon="-8.559397">
<ele>199.0</ele>
<desc>Speed 19.2 km/h Distance 60.24 km</desc>
<time>2011-05-22T11:46:47.17</time>
<name>12625</name>
<sym>Dot</sym>
</trkpt>
<trkpt lat="39.700048" lon="-8.559458">
<ele>199.0</ele>
<desc>Speed 19.3 km/h Distance 60.25 km</desc>
<time>2011-05-22T11:46:48.17</time>
<name>12626</name>
<sym>Dot</sym>
</trkpt>
<trkpt lat="39.700062" lon="-8.559520">
<ele>199.0</ele>
<desc>Speed 19.2 km/h Distance 60.26 km</desc>
<time>2011-05-22T11:46:49.17</time>
<name>12627</name>
<sym>Dot</sym>
</trkpt>
<trkpt lat="39.700073" lon="-8.559582">
<ele>199.0</ele>
<desc>Speed 19.3 km/h Distance 60.26 km</desc>
<time>2011-05-22T11:46:50.17</time>
<name>12628</name>
<sym>Dot</sym>
</trkpt>
<trkpt lat="39.700087" lon="-8.559642">
<ele>199.0</ele>
<desc>Speed 19.1 km/h Distance 60.27 km</desc>
<time>2011-05-22T11:46:51.16</time>
<name>12629</name>
<sym>Dot</sym>
</trkpt>
<trkpt lat="39.700098" lon="-8.559700">
<ele>198.5</ele>
<desc>Speed 18.7 km/h Distance 60.27 km</desc>
<time>2011-05-22T11:46:52.16</time>
<name>12630</name>
<sym>Dot</sym>
</trkpt>
<trkpt lat="39.700110" lon="-8.559760">
<ele>198.5</ele>
<desc>Speed 18.6 km/h Distance 60.28 km</desc>
<time>2011-05-22T11:46:53.16</time>
<name>12631</name>
<sym>Dot</sym>
</trkpt>
<trkpt lat="39.700123" lon="-8.559818">
<ele>198.0</ele>
<desc>Speed 18.6 km/h Distance 60.28 km</desc>
<time>2011-05-22T11:46:54.16</time>
<name>12632</name>
<sym>Dot</sym>
</trkpt>
<trkpt lat="39.700135" lon="-8.559878">
<ele>198.0</ele>
<desc>Speed 18.8 km/h Distance 60.29 km</desc>
<time>2011-05-22T11:46:55.16</time>
<name>12633</name>
<sym>Dot</sym>
</trkpt>
<trkpt lat="39.700147" lon="-8.559938">
<ele>198.0</ele>
<desc>Speed 18.8 km/h Distance 60.29 km</desc>
<time>2011-05-22T11:46:56.16</time>
<name>12634</name>
<sym>Dot</sym>
</trkpt>
<trkpt lat="39.700158" lon="-8.559998">
<ele>198.0</ele>
<desc>Speed 18.8 km/h Distance 60.30 km</desc>
<time>2011-05-22T11:46:57.15</time>
<name>12635</name>
<sym>Dot</sym>
</trkpt>
<trkpt lat="39.700170" lon="-8.560060">
<ele>198.0</ele>
<desc>Speed 19.2 km/h Distance 60.30 km</desc>
<time>2011-05-22T11:46:58.14</time>
<name>12636</name>
<sym>Dot</sym>
</trkpt>
<trkpt lat="39.700180" lon="-8.560120">
<ele>198.0</ele>
<desc>Speed 19.2 km/h Distance 60.31 km</desc>
<time>2011-05-22T11:46:59.14</time>
<name>12637</name>
<sym>Dot</sym>
</trkpt>
<trkpt lat="39.700193" lon="-8.560182">
<ele>197.5</ele>
<desc>Speed 19.3 km/h Distance 60.31 km</desc>
<time>2011-05-22T11:47:00.14</time>
<name>12638</name>
<sym>Dot</sym>
</trkpt>
<trkpt lat="39.700202" lon="-8.560243">
<ele>197.5</ele>
<desc>Speed 19.2 km/h Distance 60.32 km</desc>
<time>2011-05-22T11:47:01.13</time>
<name>12639</name>
<sym>Dot</sym>
</trkpt>
<trkpt lat="39.700210" lon="-8.560305">
<ele>197.0</ele>
<desc>Speed 19.0 km/h Distance 60.32 km</desc>
<time>2011-05-22T11:47:02.13</time>
<name>12640</name>
<sym>Dot</sym>
</trkpt>
<trkpt lat="39.700220" lon="-8.560368">
<ele>197.0</ele>
<desc>Speed 19.3 km/h Distance 60.33 km</desc>
<time>2011-05-22T11:47:03.13</time>
<name>12641</name>
<sym>Dot</sym>
</trkpt>
<trkpt lat="39.700228" lon="-8.560430">
<ele>197.0</ele>
<desc>Speed 19.4 km/h Distance 60.34 km</desc>
<time>2011-05-22T11:47:04.13</time>
<name>12642</name>
<sym>Dot</sym>
</trkpt>
<trkpt lat="39.700238" lon="-8.560493">
<ele>197.0</ele>
<desc>Speed 19.4 km/h Distance 60.34 km</desc>
<time>2011-05-22T11:47:05.12</time>
<name>12643</name>
<sym>Dot</sym>
</trkpt>
<trkpt lat="39.700248" lon="-8.560555">
<ele>197.0</ele>
<desc>Speed 19.6 km/h Distance 60.35 km</desc>
<time>2011-05-22T11:47:06.12</time>
<name>12644</name>
<sym>Dot</sym>
</trkpt>
<trkpt lat="39.700258" lon="-8.560620">
<ele>196.5</ele>
<desc>Speed 19.7 km/h Distance 60.35 km</desc>
<time>2011-05-22T11:47:07.12</time>
<name>12645</name>
<sym>Dot</sym>
</trkpt>
<trkpt lat="39.700267" lon="-8.560683">
<ele>196.5</ele>
<desc>Speed 19.8 km/h Distance 60.36 km</desc>
<time>2011-05-22T11:47:08.12</time>
<name>12646</name>
<sym>Dot</sym>
</trkpt>
<trkpt lat="39.700277" lon="-8.560748">
<ele>196.5</ele>
<desc>Speed 20.2 km/h Distance 60.36 km</desc>
<time>2011-05-22T11:47:09.11</time>
<name>12647</name>
<sym>Dot</sym>
</trkpt>
<trkpt lat="39.700285" lon="-8.560815">
<ele>196.5</ele>
<desc>Speed 20.5 km/h Distance 60.37 km</desc>
<time>2011-05-22T11:47:10.10</time>
<name>12648</name>
<sym>Dot</sym>
</trkpt>
<trkpt lat="39.700293" lon="-8.560882">
<ele>196.5</ele>
<desc>Speed 20.3 km/h Distance 60.38 km</desc>
<time>2011-05-22T11:47:11.10</time>
<name>12649</name>
<sym>Dot</sym>
</trkpt>
<trkpt lat="39.700303" lon="-8.560947">
<ele>196.5</ele>
<desc>Speed 20.2 km/h Distance 60.38 km</desc>
<time>2011-05-22T11:47:12.10</time>
<name>12650</name>
<sym>Dot</sym>
</trkpt>
<trkpt lat="39.700310" lon="-8.561012">
<ele>196.5</ele>
<desc>Speed 20.3 km/h Distance 60.39 km</desc>
<time>2011-05-22T11:47:13.09</time>
<name>12651</name>
<sym>Dot</sym>
</trkpt>
<trkpt lat="39.700315" lon="-8.561078">
<ele>196.5</ele>
<desc>Speed 20.5 km/h Distance 60.39 km</desc>
<time>2011-05-22T11:47:14.09</time>
<name>12652</name>
<sym>Dot</sym>
</trkpt>
<trkpt lat="39.700323" lon="-8.561143">
<ele>196.5</ele>
<desc>Speed 20.0 km/h Distance 60.40 km</desc>
<time>2011-05-22T11:47:15.09</time>
<name>12653</name>
<sym>Dot</sym>
</trkpt>
<trkpt lat="39.700330" lon="-8.561205">
<ele>196.5</ele>
<desc>Speed 19.5 km/h Distance 60.40 km</desc>
<time>2011-05-22T11:47:16.09</time>
<name>12654</name>
<sym>Dot</sym>
</trkpt>
<trkpt lat="39.700338" lon="-8.561267">
<ele>197.0</ele>
<desc>Speed 19.0 km/h Distance 60.41 km</desc>
<time>2011-05-22T11:47:17.08</time>
<name>12655</name>
<sym>Dot</sym>
</trkpt>
<trkpt lat="39.700347" lon="-8.561327">
<ele>197.0</ele>
<desc>Speed 19.0 km/h Distance 60.41 km</desc>
<time>2011-05-22T11:47:18.08</time>
<name>12656</name>
<sym>Dot</sym>
</trkpt>
<trkpt lat="39.700355" lon="-8.561388">
<ele>197.0</ele>
<desc>Speed 18.9 km/h Distance 60.42 km</desc>
<time>2011-05-22T11:47:19.08</time>
<name>12657</name>
<sym>Dot</sym>
</trkpt>
<trkpt lat="39.700363" lon="-8.561447">
<ele>197.0</ele>
<desc>Speed 18.5 km/h Distance 60.42 km</desc>
<time>2011-05-22T11:47:20.08</time>
<name>12658</name>
<sym>Dot</sym>
</trkpt>
<trkpt lat="39.700372" lon="-8.561505">
<ele>197.0</ele>
<desc>Speed 18.3 km/h Distance 60.43 km</desc>
<time>2011-05-22T11:47:21.08</time>
<name>12659</name>
<sym>Dot</sym>
</trkpt>
<trkpt lat="39.700382" lon="-8.561563">
<ele>197.5</ele>
<desc>Speed 18.1 km/h Distance 60.43 km</desc>
<time>2011-05-22T11:47:22.07</time>
<name>12660</name>
<sym>Dot</sym>
</trkpt>
<trkpt lat="39.700390" lon="-8.561620">
<ele>197.5</ele>
<desc>Speed 17.7 km/h Distance 60.44 km</desc>
<time>2011-05-22T11:47:23.06</time>
<name>12661</name>
<sym>Dot</sym>
</trkpt>
<trkpt lat="39.700398" lon="-8.561677">
<ele>197.5</ele>
<desc>Speed 17.7 km/h Distance 60.44 km</desc>
<time>2011-05-22T11:47:24.06</time>
<name>12662</name>
<sym>Dot</sym>
</trkpt>
<trkpt lat="39.700405" lon="-8.561735">
<ele>197.5</ele>
<desc>Speed 18.0 km/h Distance 60.45 km</desc>
<time>2011-05-22T11:47:25.06</time>
<name>12663</name>
<sym>Dot</sym>
</trkpt>
<trkpt lat="39.700412" lon="-8.561793">
<ele>197.5</ele>
<desc>Speed 17.9 km/h Distance 60.45 km</desc>
<time>2011-05-22T11:47:26.06</time>
<name>12664</name>
<sym>Dot</sym>
</trkpt>
<trkpt lat="39.700420" lon="-8.561848">
<ele>197.5</ele>
<desc>Speed 17.4 km/h Distance 60.46 km</desc>
<time>2011-05-22T11:47:27.05</time>
<name>12665</name>
<sym>Dot</sym>
</trkpt>
<trkpt lat="39.700428" lon="-8.561903">
<ele>197.5</ele>
<desc>Speed 17.1 km/h Distance 60.46 km</desc>
<time>2011-05-22T11:47:28.05</time>
<name>12666</name>
<sym>Dot</sym>
</trkpt>
<trkpt lat="39.700438" lon="-8.561958">
<ele>197.5</ele>
<desc>Speed 17.1 km/h Distance 60.47 km</desc>
<time>2011-05-22T11:47:29.05</time>
<name>12667</name>
<sym>Dot</sym>
</trkpt>
<trkpt lat="39.700447" lon="-8.562013">
<ele>197.5</ele>
<desc>Speed 16.9 km/h Distance 60.47 km</desc>
<time>2011-05-22T11:47:30.05</time>
<name>12668</name>
<sym>Dot</sym>
</trkpt>
<trkpt lat="39.700457" lon="-8.562067">
<ele>198.0</ele>
<desc>Speed 16.8 km/h Distance 60.48 km</desc>
<time>2011-05-22T11:47:31.06</time>
<name>12669</name>
<sym>Dot</sym>
</trkpt>
<trkpt lat="39.700467" lon="-8.562120">
<ele>198.0</ele>
<desc>Speed 16.8 km/h Distance 60.48 km</desc>
<time>2011-05-22T11:47:32.04</time>
<name>12670</name>
<sym>Dot</sym>
</trkpt>
<trkpt lat="39.700477" lon="-8.562172">
<ele>198.0</ele>
<desc>Speed 16.5 km/h Distance 60.49 km</desc>
<time>2011-05-22T11:47:33.04</time>
<name>12671</name>
<sym>Dot</sym>
</trkpt>
<trkpt lat="39.700485" lon="-8.562225">
<ele>198.0</ele>
<desc>Speed 16.5 km/h Distance 60.49 km</desc>
<time>2011-05-22T11:47:34.04</time>
<name>12672</name>
<sym>Dot</sym>
</trkpt>
<trkpt lat="39.700497" lon="-8.562277">
<ele>198.5</ele>
<desc>Speed 16.2 km/h Distance 60.50 km</desc>
<time>2011-05-22T11:47:35.03</time>
<name>12673</name>
<sym>Dot</sym>
</trkpt>
<trkpt lat="39.700505" lon="-8.562327">
<ele>198.5</ele>
<desc>Speed 15.9 km/h Distance 60.50 km</desc>
<time>2011-05-22T11:47:36.04</time>
<name>12674</name>
<sym>Dot</sym>
</trkpt>
<trkpt lat="39.700512" lon="-8.562375">
<ele>199.5</ele>
<desc>Speed 14.9 km/h Distance 60.51 km</desc>
<time>2011-05-22T11:47:37.02</time>
<name>12675</name>
<sym>Dot</sym>
</trkpt>
<trkpt lat="39.700520" lon="-8.562423">
<ele>199.5</ele>
<desc>Speed 15.6 km/h Distance 60.51 km</desc>
<time>2011-05-22T11:47:38.02</time>
<name>12676</name>
<sym>Dot</sym>
</trkpt>
<trkpt lat="39.700528" lon="-8.562475">
<ele>199.5</ele>
<desc>Speed 15.8 km/h Distance 60.51 km</desc>
<time>2011-05-22T11:47:39.02</time>
<name>12677</name>
<sym>Dot</sym>
</trkpt>
<trkpt lat="39.700538" lon="-8.562523">
<ele>199.5</ele>
<desc>Speed 15.6 km/h Distance 60.52 km</desc>
<time>2011-05-22T11:47:40.02</time>
<name>12678</name>
<sym>Dot</sym>
</trkpt>
<trkpt lat="39.700552" lon="-8.562573">
<ele>199.5</ele>
<desc>Speed 16.2 km/h Distance 60.52 km</desc>
<time>2011-05-22T11:47:41.02</time>
<name>12679</name>
<sym>Dot</sym>
</trkpt>
<trkpt lat="39.700563" lon="-8.562623">
<ele>199.5</ele>
<desc>Speed 16.4 km/h Distance 60.53 km</desc>
<time>2011-05-22T11:47:42.01</time>
<name>12680</name>
<sym>Dot</sym>
</trkpt>
<trkpt lat="39.700572" lon="-8.562677">
<ele>200.0</ele>
<desc>Speed 16.4 km/h Distance 60.53 km</desc>
<time>2011-05-22T11:47:43.01</time>
<name>12681</name>
<sym>Dot</sym>
</trkpt>
<trkpt lat="39.700578" lon="-8.562728">
<ele>199.5</ele>
<desc>Speed 16.4 km/h Distance 60.54 km</desc>
<time>2011-05-22T11:47:44.01</time>
<name>12682</name>
<sym>Dot</sym>
</trkpt>
<trkpt lat="39.700585" lon="-8.562780">
<ele>199.5</ele>
<desc>Speed 16.4 km/h Distance 60.54 km</desc>
<time>2011-05-22T11:47:45.00</time>
<name>12683</name>
<sym>Dot</sym>
</trkpt>
<trkpt lat="39.700593" lon="-8.562823">
<ele>199.5</ele>
<desc>Speed 13.8 km/h Distance 60.54 km</desc>
<time>2011-05-22T11:47:46.01</time>
<name>12684</name>
<sym>Dot</sym>
</trkpt>
<trkpt lat="39.700572" lon="-8.562867">
<ele>199.5</ele>
<desc>Speed 16.2 km/h Distance 60.55 km</desc>
<time>2011-05-22T11:47:47.00</time>
<name>12685</name>
<sym>Dot</sym>
</trkpt>
<trkpt lat="39.700537" lon="-8.562900">
<ele>199.0</ele>
<desc>Speed 17.5 km/h Distance 60.55 km</desc>
<time>2011-05-22T11:47:47.99</time>
<name>12686</name>
<sym>Dot</sym>
</trkpt>
<trkpt lat="39.700492" lon="-8.562925">
<ele>199.0</ele>
<desc>Speed 19.4 km/h Distance 60.56 km</desc>
<time>2011-05-22T11:47:49.00</time>
<name>12687</name>
<sym>Dot</sym>
</trkpt>
<trkpt lat="39.700445" lon="-8.562940">
<ele>199.0</ele>
<desc>Speed 19.7 km/h Distance 60.56 km</desc>
<time>2011-05-22T11:47:49.99</time>
<name>12688</name>
<sym>Dot</sym>
</trkpt>
<trkpt lat="39.700397" lon="-8.562957">
<ele>198.5</ele>
<desc>Speed 20.3 km/h Distance 60.57 km</desc>
<time>2011-05-22T11:47:50.99</time>
<name>12689</name>
<sym>Dot</sym>
</trkpt>
<trkpt lat="39.700348" lon="-8.562977">
<ele>199.0</ele>
<desc>Speed 20.5 km/h Distance 60.58 km</desc>
<time>2011-05-22T11:47:51.99</time>
<name>12690</name>
<sym>Dot</sym>
</trkpt>
<trkpt lat="39.700302" lon="-8.563000">
<ele>198.5</ele>
<desc>Speed 20.3 km/h Distance 60.58 km</desc>
<time>2011-05-22T11:47:52.99</time>
<name>12691</name>
<sym>Dot</sym>
</trkpt>
<trkpt lat="39.700253" lon="-8.563022">
<ele>198.5</ele>
<desc>Speed 20.4 km/h Distance 60.59 km</desc>
<time>2011-05-22T11:47:53.98</time>
<name>12692</name>
<sym>Dot</sym>
</trkpt>
<trkpt lat="39.700208" lon="-8.563043">
<ele>198.5</ele>
<desc>Speed 19.4 km/h Distance 60.59 km</desc>
<time>2011-05-22T11:47:54.98</time>
<name>12693</name>
<sym>Dot</sym>
</trkpt>
<trkpt lat="39.700163" lon="-8.563065">
<ele>198.5</ele>
<desc>Speed 19.2 km/h Distance 60.60 km</desc>
<time>2011-05-22T11:47:55.97</time>
<name>12694</name>
<sym>Dot</sym>
</trkpt>
<trkpt lat="39.700118" lon="-8.563083">
<ele>198.5</ele>
<desc>Speed 19.4 km/h Distance 60.60 km</desc>
<time>2011-05-22T11:47:56.97</time>
<name>12695</name>
<sym>Dot</sym>
</trkpt>
<trkpt lat="39.700073" lon="-8.563105">
<ele>198.5</ele>
<desc>Speed 19.4 km/h Distance 60.61 km</desc>
<time>2011-05-22T11:47:57.96</time>
<name>12696</name>
<sym>Dot</sym>
</trkpt>
<trkpt lat="39.700028" lon="-8.563128">
<ele>198.5</ele>
<desc>Speed 19.6 km/h Distance 60.61 km</desc>
<time>2011-05-22T11:47:58.96</time>
<name>12697</name>
<sym>Dot</sym>
</trkpt>
<trkpt lat="39.699982" lon="-8.563152">
<ele>198.5</ele>
<desc>Speed 19.7 km/h Distance 60.62 km</desc>
<time>2011-05-22T11:47:59.96</time>
<name>12698</name>
<sym>Dot</sym>
</trkpt>
<trkpt lat="39.699937" lon="-8.563170">
<ele>198.5</ele>
<desc>Speed 19.4 km/h Distance 60.62 km</desc>
<time>2011-05-22T11:48:00.95</time>
<name>12699</name>
<sym>Dot</sym>
</trkpt>
<trkpt lat="39.699890" lon="-8.563190">
<ele>198.5</ele>
<desc>Speed 19.6 km/h Distance 60.63 km</desc>
<time>2011-05-22T11:48:01.95</time>
<name>12700</name>
<sym>Dot</sym>
</trkpt>
<trkpt lat="39.699845" lon="-8.563212">
<ele>198.5</ele>
<desc>Speed 19.8 km/h Distance 60.64 km</desc>
<time>2011-05-22T11:48:02.94</time>
<name>12701</name>
<sym>Dot</sym>
</trkpt>
<trkpt lat="39.699798" lon="-8.563233">
<ele>199.0</ele>
<desc>Speed 19.8 km/h Distance 60.64 km</desc>
<time>2011-05-22T11:48:03.93</time>
<name>12702</name>
<sym>Dot</sym>
</trkpt>
<trkpt lat="39.699753" lon="-8.563257">
<ele>198.5</ele>
<desc>Speed 19.8 km/h Distance 60.65 km</desc>
<time>2011-05-22T11:48:04.93</time>
<name>12703</name>
<sym>Dot</sym>
</trkpt>
<trkpt lat="39.699708" lon="-8.563277">
<ele>198.5</ele>
<desc>Speed 19.3 km/h Distance 60.65 km</desc>
<time>2011-05-22T11:48:05.93</time>
<name>12704</name>
<sym>Dot</sym>
</trkpt>
<trkpt lat="39.699663" lon="-8.563295">
<ele>198.5</ele>
<desc>Speed 19.3 km/h Distance 60.66 km</desc>
<time>2011-05-22T11:48:06.93</time>
<name>12705</name>
<sym>Dot</sym>
</trkpt>
<trkpt lat="39.699618" lon="-8.563312">
<ele>198.5</ele>
<desc>Speed 18.8 km/h Distance 60.66 km</desc>
<time>2011-05-22T11:48:07.93</time>
<name>12706</name>
<sym>Dot</sym>
</trkpt>
<trkpt lat="39.699575" lon="-8.563332">
<ele>198.5</ele>
<desc>Speed 18.3 km/h Distance 60.67 km</desc>
<time>2011-05-22T11:48:08.92</time>
<name>12707</name>
<sym>Dot</sym>
</trkpt>
<trkpt lat="39.699535" lon="-8.563352">
<ele>198.5</ele>
<desc>Speed 17.5 km/h Distance 60.67 km</desc>
<time>2011-05-22T11:48:09.92</time>
<name>12708</name>
<sym>Dot</sym>
</trkpt>
<trkpt lat="39.699495" lon="-8.563372">
<ele>198.5</ele>
<desc>Speed 17.3 km/h Distance 60.68 km</desc>
<time>2011-05-22T11:48:10.92</time>
<name>12709</name>
<sym>Dot</sym>
</trkpt>
<trkpt lat="39.699453" lon="-8.563390">
<ele>198.5</ele>
<desc>Speed 17.6 km/h Distance 60.68 km</desc>
<time>2011-05-22T11:48:11.92</time>
<name>12710</name>
<sym>Dot</sym>
</trkpt>
<trkpt lat="39.699412" lon="-8.563408">
<ele>198.5</ele>
<desc>Speed 18.1 km/h Distance 60.69 km</desc>
<time>2011-05-22T11:48:12.92</time>
<name>12711</name>
<sym>Dot</sym>
</trkpt>
<trkpt lat="39.699368" lon="-8.563428">
<ele>198.5</ele>
<desc>Speed 18.7 km/h Distance 60.69 km</desc>
<time>2011-05-22T11:48:13.92</time>
<name>12712</name>
<sym>Dot</sym>
</trkpt>
<trkpt lat="39.699323" lon="-8.563448">
<ele>198.5</ele>
<desc>Speed 18.8 km/h Distance 60.70 km</desc>
<time>2011-05-22T11:48:14.91</time>
<name>12713</name>
<sym>Dot</sym>
</trkpt>
<trkpt lat="39.699278" lon="-8.563468">
<ele>198.5</ele>
<desc>Speed 19.4 km/h Distance 60.70 km</desc>
<time>2011-05-22T11:48:15.91</time>
<name>12714</name>
<sym>Dot</sym>
</trkpt>
<trkpt lat="39.699232" lon="-8.563485">
<ele>198.5</ele>
<desc>Speed 19.8 km/h Distance 60.71 km</desc>
<time>2011-05-22T11:48:16.91</time>
<name>12715</name>
<sym>Dot</sym>
</trkpt>
<trkpt lat="39.699183" lon="-8.563503">
<ele>198.5</ele>
<desc>Speed 20.4 km/h Distance 60.71 km</desc>
<time>2011-05-22T11:48:17.90</time>
<name>12716</name>
<sym>Dot</sym>
</trkpt>
<trkpt lat="39.699137" lon="-8.563527">
<ele>198.5</ele>
<desc>Speed 20.5 km/h Distance 60.72 km</desc>
<time>2011-05-22T11:48:18.90</time>
<name>12717</name>
<sym>Dot</sym>
</trkpt>
<trkpt lat="39.699090" lon="-8.563550">
<ele>198.0</ele>
<desc>Speed 20.7 km/h Distance 60.72 km</desc>
<time>2011-05-22T11:48:19.90</time>
<name>12718</name>
<sym>Dot</sym>
</trkpt>
<trkpt lat="39.699042" lon="-8.563573">
<ele>198.0</ele>
<desc>Speed 21.1 km/h Distance 60.73 km</desc>
<time>2011-05-22T11:48:20.90</time>
<name>12719</name>
<sym>Dot</sym>
</trkpt>
<trkpt lat="39.698993" lon="-8.563597">
<ele>198.0</ele>
<desc>Speed 21.4 km/h Distance 60.74 km</desc>
<time>2011-05-22T11:48:21.89</time>
<name>12720</name>
<sym>Dot</sym>
</trkpt>
<trkpt lat="39.698943" lon="-8.563617">
<ele>198.0</ele>
<desc>Speed 21.3 km/h Distance 60.74 km</desc>
<time>2011-05-22T11:48:22.89</time>
<name>12721</name>
<sym>Dot</sym>
</trkpt>
<trkpt lat="39.698895" lon="-8.563640">
<ele>197.5</ele>
<desc>Speed 21.3 km/h Distance 60.75 km</desc>
<time>2011-05-22T11:48:23.89</time>
<name>12722</name>
<sym>Dot</sym>
</trkpt>
<trkpt lat="39.698847" lon="-8.563670">
<ele>197.5</ele>
<desc>Speed 21.5 km/h Distance 60.75 km</desc>
<time>2011-05-22T11:48:24.89</time>
<name>12723</name>
<sym>Dot</sym>
</trkpt>
<trkpt lat="39.698798" lon="-8.563703">
<ele>197.5</ele>
<desc>Speed 21.8 km/h Distance 60.76 km</desc>
<time>2011-05-22T11:48:25.88</time>
<name>12724</name>
<sym>Dot</sym>
</trkpt>
<trkpt lat="39.698753" lon="-8.563743">
<ele>197.5</ele>
<desc>Speed 21.9 km/h Distance 60.77 km</desc>
<time>2011-05-22T11:48:26.88</time>
<name>12725</name>
<sym>Dot</sym>
</trkpt>
<trkpt lat="39.698712" lon="-8.563787">
<ele>197.5</ele>
<desc>Speed 22.0 km/h Distance 60.77 km</desc>
<time>2011-05-22T11:48:27.87</time>
<name>12726</name>
<sym>Dot</sym>
</trkpt>
<trkpt lat="39.698670" lon="-8.563833">
<ele>197.5</ele>
<desc>Speed 21.8 km/h Distance 60.78 km</desc>
<time>2011-05-22T11:48:28.87</time>
<name>12727</name>
<sym>Dot</sym>
</trkpt>
<trkpt lat="39.698635" lon="-8.563883">
<ele>197.5</ele>
<desc>Speed 20.8 km/h Distance 60.78 km</desc>
<time>2011-05-22T11:48:29.87</time>
<name>12728</name>
<sym>Dot</sym>
</trkpt>
<trkpt lat="39.698605" lon="-8.563933">
<ele>197.5</ele>
<desc>Speed 20.1 km/h Distance 60.79 km</desc>
<time>2011-05-22T11:48:30.87</time>
<name>12729</name>
<sym>Dot</sym>
</trkpt>
<trkpt lat="39.698577" lon="-8.563983">
<ele>197.5</ele>
<desc>Speed 19.0 km/h Distance 60.79 km</desc>
<time>2011-05-22T11:48:31.86</time>
<name>12730</name>
<sym>Dot</sym>
</trkpt>
<trkpt lat="39.698548" lon="-8.564032">
<ele>197.5</ele>
<desc>Speed 18.5 km/h Distance 60.80 km</desc>
<time>2011-05-22T11:48:32.86</time>
<name>12731</name>
<sym>Dot</sym>
</trkpt>
<trkpt lat="39.698522" lon="-8.564080">
<ele>197.5</ele>
<desc>Speed 18.2 km/h Distance 60.80 km</desc>
<time>2011-05-22T11:48:33.86</time>
<name>12732</name>
<sym>Dot</sym>
</trkpt>
<trkpt lat="39.698497" lon="-8.564128">
<ele>197.5</ele>
<desc>Speed 18.2 km/h Distance 60.81 km</desc>
<time>2011-05-22T11:48:34.86</time>
<name>12733</name>
<sym>Dot</sym>
</trkpt>
<trkpt lat="39.698472" lon="-8.564175">
<ele>197.5</ele>
<desc>Speed 18.2 km/h Distance 60.81 km</desc>
<time>2011-05-22T11:48:35.85</time>
<name>12734</name>
<sym>Dot</sym>
</trkpt>
<trkpt lat="39.698447" lon="-8.564223">
<ele>197.5</ele>
<desc>Speed 18.2 km/h Distance 60.82 km</desc>
<time>2011-05-22T11:48:36.85</time>
<name>12735</name>
<sym>Dot</sym>
</trkpt>
<trkpt lat="39.698420" lon="-8.564268">
<ele>197.5</ele>
<desc>Speed 17.9 km/h Distance 60.82 km</desc>
<time>2011-05-22T11:48:37.85</time>
<name>12736</name>
<sym>Dot</sym>
</trkpt>
<trkpt lat="39.698393" lon="-8.564312">
<ele>197.5</ele>
<desc>Speed 17.9 km/h Distance 60.83 km</desc>
<time>2011-05-22T11:48:38.85</time>
<name>12737</name>
<sym>Dot</sym>
</trkpt>
<trkpt lat="39.698365" lon="-8.564357">
<ele>197.5</ele>
<desc>Speed 17.9 km/h Distance 60.83 km</desc>
<time>2011-05-22T11:48:39.85</time>
<name>12738</name>
<sym>Dot</sym>
</trkpt>
<trkpt lat="39.698338" lon="-8.564403">
<ele>197.5</ele>
<desc>Speed 18.1 km/h Distance 60.84 km</desc>
<time>2011-05-22T11:48:40.84</time>
<name>12739</name>
<sym>Dot</sym>
</trkpt>
<trkpt lat="39.698312" lon="-8.564450">
<ele>197.5</ele>
<desc>Speed 18.0 km/h Distance 60.84 km</desc>
<time>2011-05-22T11:48:41.84</time>
<name>12740</name>
<sym>Dot</sym>
</trkpt>
<trkpt lat="39.698287" lon="-8.564495">
<ele>198.0</ele>
<desc>Speed 17.4 km/h Distance 60.85 km</desc>
<time>2011-05-22T11:48:42.83</time>
<name>12741</name>
<sym>Dot</sym>
</trkpt>
<trkpt lat="39.698263" lon="-8.564538">
<ele>198.0</ele>
<desc>Speed 16.5 km/h Distance 60.85 km</desc>
<time>2011-05-22T11:48:43.83</time>
<name>12742</name>
<sym>Dot</sym>
</trkpt>
<trkpt lat="39.698240" lon="-8.564580">
<ele>198.0</ele>
<desc>Speed 16.1 km/h Distance 60.86 km</desc>
<time>2011-05-22T11:48:44.83</time>
<name>12743</name>
<sym>Dot</sym>
</trkpt>
<trkpt lat="39.698217" lon="-8.564622">
<ele>198.0</ele>
<desc>Speed 15.7 km/h Distance 60.86 km</desc>
<time>2011-05-22T11:48:45.82</time>
<name>12744</name>
<sym>Dot</sym>
</trkpt>
<trkpt lat="39.698195" lon="-8.564663">
<ele>198.5</ele>
<desc>Speed 16.0 km/h Distance 60.87 km</desc>
<time>2011-05-22T11:48:46.81</time>
<name>12745</name>
<sym>Dot</sym>
</trkpt>
<trkpt lat="39.698170" lon="-8.564708">
<ele>199.0</ele>
<desc>Speed 16.7 km/h Distance 60.87 km</desc>
<time>2011-05-22T11:48:47.82</time>
<name>12746</name>
<sym>Dot</sym>
</trkpt>
<trkpt lat="39.698148" lon="-8.564755">
<ele>200.0</ele>
<desc>Speed 16.8 km/h Distance 60.88 km</desc>
<time>2011-05-22T11:48:48.80</time>
<name>12747</name>
<sym>Dot</sym>
</trkpt>
<trkpt lat="39.698128" lon="-8.564803">
<ele>200.5</ele>
<desc>Speed 17.1 km/h Distance 60.88 km</desc>
<time>2011-05-22T11:48:49.80</time>
<name>12748</name>
<sym>Dot</sym>
</trkpt>
<trkpt lat="39.698108" lon="-8.564853">
<ele>201.5</ele>
<desc>Speed 17.3 km/h Distance 60.89 km</desc>
<time>2011-05-22T11:48:50.79</time>
<name>12749</name>
<sym>Dot</sym>
</trkpt>
<trkpt lat="39.698093" lon="-8.564903">
<ele>202.5</ele>
<desc>Speed 16.7 km/h Distance 60.89 km</desc>
<time>2011-05-22T11:48:51.79</time>
<name>12750</name>
<sym>Dot</sym>
</trkpt>
<trkpt lat="39.698083" lon="-8.564955">
<ele>203.0</ele>
<desc>Speed 16.4 km/h Distance 60.89 km</desc>
<time>2011-05-22T11:48:52.78</time>
<name>12751</name>
<sym>Dot</sym>
</trkpt>
<trkpt lat="39.698077" lon="-8.565007">
<ele>204.0</ele>
<desc>Speed 16.2 km/h Distance 60.90 km</desc>
<time>2011-05-22T11:48:53.78</time>
<name>12752</name>
<sym>Dot</sym>
</trkpt>
<trkpt lat="39.698068" lon="-8.565058">
<ele>205.0</ele>
<desc>Speed 15.8 km/h Distance 60.90 km</desc>
<time>2011-05-22T11:48:54.78</time>
<name>12753</name>
<sym>Dot</sym>
</trkpt>
<trkpt lat="39.698065" lon="-8.565105">
<ele>206.0</ele>
<desc>Speed 14.5 km/h Distance 60.91 km</desc>
<time>2011-05-22T11:48:55.77</time>
<name>12754</name>
<sym>Dot</sym>
</trkpt>
<trkpt lat="39.698065" lon="-8.565150">
<ele>206.5</ele>
<desc>Speed 14.0 km/h Distance 60.91 km</desc>
<time>2011-05-22T11:48:56.77</time>
<name>12755</name>
<sym>Dot</sym>
</trkpt>
<trkpt lat="39.698065" lon="-8.565193">
<ele>207.5</ele>
<desc>Speed 13.2 km/h Distance 60.92 km</desc>
<time>2011-05-22T11:48:57.77</time>
<name>12756</name>
<sym>Dot</sym>
</trkpt>
<trkpt lat="39.698067" lon="-8.565238">
<ele>207.5</ele>
<desc>Speed 13.5 km/h Distance 60.92 km</desc>
<time>2011-05-22T11:48:58.76</time>
<name>12757</name>
<sym>Dot</sym>
</trkpt>
<trkpt lat="39.698065" lon="-8.565283">
<ele>208.5</ele>
<desc>Speed 13.7 km/h Distance 60.92 km</desc>
<time>2011-05-22T11:48:59.75</time>
<name>12758</name>
<sym>Dot</sym>
</trkpt>
<trkpt lat="39.698067" lon="-8.565327">
<ele>209.0</ele>
<desc>Speed 12.7 km/h Distance 60.93 km</desc>
<time>2011-05-22T11:49:00.75</time>
<name>12759</name>
<sym>Dot</sym>
</trkpt>
<trkpt lat="39.698072" lon="-8.565368">
<ele>209.0</ele>
<desc>Speed 12.5 km/h Distance 60.93 km</desc>
<time>2011-05-22T11:49:01.74</time>
<name>12760</name>
<sym>Dot</sym>
</trkpt>
<trkpt lat="39.698073" lon="-8.565410">
<ele>209.0</ele>
<desc>Speed 13.1 km/h Distance 60.93 km</desc>
<time>2011-05-22T11:49:02.74</time>
<name>12761</name>
<sym>Dot</sym>
</trkpt>
<trkpt lat="39.698078" lon="-8.565453">
<ele>209.5</ele>
<desc>Speed 13.2 km/h Distance 60.94 km</desc>
<time>2011-05-22T11:49:03.74</time>
<name>12762</name>
<sym>Dot</sym>
</trkpt>
<trkpt lat="39.698083" lon="-8.565498">
<ele>210.0</ele>
<desc>Speed 14.0 km/h Distance 60.94 km</desc>
<time>2011-05-22T11:49:04.74</time>
<name>12763</name>
<sym>Dot</sym>
</trkpt>
<trkpt lat="39.698090" lon="-8.565545">
<ele>210.5</ele>
<desc>Speed 14.1 km/h Distance 60.95 km</desc>
<time>2011-05-22T11:49:05.73</time>
<name>12764</name>
<sym>Dot</sym>
</trkpt>
<trkpt lat="39.698097" lon="-8.565590">
<ele>211.0</ele>
<desc>Speed 14.1 km/h Distance 60.95 km</desc>
<time>2011-05-22T11:49:06.73</time>
<name>12765</name>
<sym>Dot</sym>
</trkpt>
<trkpt lat="39.698107" lon="-8.565637">
<ele>212.0</ele>
<desc>Speed 14.3 km/h Distance 60.95 km</desc>
<time>2011-05-22T11:49:07.72</time>
<name>12766</name>
<sym>Dot</sym>
</trkpt>
<trkpt lat="39.698113" lon="-8.565683">
<ele>212.5</ele>
<desc>Speed 14.5 km/h Distance 60.96 km</desc>
<time>2011-05-22T11:49:08.72</time>
<name>12767</name>
<sym>Dot</sym>
</trkpt>
<trkpt lat="39.698123" lon="-8.565728">
<ele>213.0</ele>
<desc>Speed 14.5 km/h Distance 60.96 km</desc>
<time>2011-05-22T11:49:09.72</time>
<name>12768</name>
<sym>Dot</sym>
</trkpt>
<trkpt lat="39.698133" lon="-8.565777">
<ele>213.5</ele>
<desc>Speed 14.8 km/h Distance 60.97 km</desc>
<time>2011-05-22T11:49:10.71</time>
<name>12769</name>
<sym>Dot</sym>
</trkpt>
<trkpt lat="39.698142" lon="-8.565823">
<ele>214.0</ele>
<desc>Speed 14.5 km/h Distance 60.97 km</desc>
<time>2011-05-22T11:49:11.71</time>
<name>12770</name>
<sym>Dot</sym>
</trkpt>
<trkpt lat="39.698150" lon="-8.565868">
<ele>214.5</ele>
<desc>Speed 14.3 km/h Distance 60.97 km</desc>
<time>2011-05-22T11:49:12.70</time>
<name>12771</name>
<sym>Dot</sym>
</trkpt>
<trkpt lat="39.698157" lon="-8.565913">
<ele>215.0</ele>
<desc>Speed 13.9 km/h Distance 60.98 km</desc>
<time>2011-05-22T11:49:13.70</time>
<name>12772</name>
<sym>Dot</sym>
</trkpt>
<trkpt lat="39.698162" lon="-8.565958">
<ele>215.5</ele>
<desc>Speed 13.9 km/h Distance 60.98 km</desc>
<time>2011-05-22T11:49:14.70</time>
<name>12773</name>
<sym>Dot</sym>
</trkpt>
<trkpt lat="39.698168" lon="-8.566003">
<ele>216.0</ele>
<desc>Speed 13.7 km/h Distance 60.99 km</desc>
<time>2011-05-22T11:49:15.70</time>
<name>12774</name>
<sym>Dot</sym>
</trkpt>
<trkpt lat="39.698175" lon="-8.566050">
<ele>216.5</ele>
<desc>Speed 14.2 km/h Distance 60.99 km</desc>
<time>2011-05-22T11:49:16.69</time>
<name>12775</name>
<sym>Dot</sym>
</trkpt>
<trkpt lat="39.698178" lon="-8.566093">
<ele>217.0</ele>
<desc>Speed 13.6 km/h Distance 60.99 km</desc>
<time>2011-05-22T11:49:17.69</time>
<name>12776</name>
<sym>Dot</sym>
</trkpt>
<trkpt lat="39.698178" lon="-8.566138">
<ele>217.5</ele>
<desc>Speed 13.7 km/h Distance 61.00 km</desc>
<time>2011-05-22T11:49:18.69</time>
<name>12777</name>
<sym>Dot</sym>
</trkpt>
<trkpt lat="39.698178" lon="-8.566185">
<ele>218.0</ele>
<desc>Speed 13.9 km/h Distance 61.00 km</desc>
<time>2011-05-22T11:49:19.68</time>
<name>12778</name>
<sym>Dot</sym>
</trkpt>
<trkpt lat="39.698175" lon="-8.566230">
<ele>218.5</ele>
<desc>Speed 13.5 km/h Distance 61.01 km</desc>
<time>2011-05-22T11:49:20.68</time>
<name>12779</name>
<sym>Dot</sym>
</trkpt>
<trkpt lat="39.698170" lon="-8.566273">
<ele>219.0</ele>
<desc>Speed 13.6 km/h Distance 61.01 km</desc>
<time>2011-05-22T11:49:21.67</time>
<name>12780</name>
<sym>Dot</sym>
</trkpt>
<trkpt lat="39.698162" lon="-8.566317">
<ele>219.0</ele>
<desc>Speed 13.4 km/h Distance 61.01 km</desc>
<time>2011-05-22T11:49:22.67</time>
<name>12781</name>
<sym>Dot</sym>
</trkpt>
<trkpt lat="39.698153" lon="-8.566358">
<ele>219.5</ele>
<desc>Speed 13.0 km/h Distance 61.02 km</desc>
<time>2011-05-22T11:49:23.67</time>
<name>12782</name>
<sym>Dot</sym>
</trkpt>
<trkpt lat="39.698145" lon="-8.566398">
<ele>219.5</ele>
<desc>Speed 12.7 km/h Distance 61.02 km</desc>
<time>2011-05-22T11:49:24.66</time>
<name>12783</name>
<sym>Dot</sym>
</trkpt>
<trkpt lat="39.698137" lon="-8.566440">
<ele>220.0</ele>
<desc>Speed 13.2 km/h Distance 61.02 km</desc>
<time>2011-05-22T11:49:25.66</time>
<name>12784</name>
<sym>Dot</sym>
</trkpt>
<trkpt lat="39.698128" lon="-8.566483">
<ele>220.0</ele>
<desc>Speed 13.8 km/h Distance 61.03 km</desc>
<time>2011-05-22T11:49:26.65</time>
<name>12785</name>
<sym>Dot</sym>
</trkpt>
<trkpt lat="39.698118" lon="-8.566527">
<ele>220.0</ele>
<desc>Speed 13.5 km/h Distance 61.03 km</desc>
<time>2011-05-22T11:49:27.65</time>
<name>12786</name>
<sym>Dot</sym>
</trkpt>
<trkpt lat="39.698108" lon="-8.566568">
<ele>220.5</ele>
<desc>Speed 13.4 km/h Distance 61.04 km</desc>
<time>2011-05-22T11:49:28.64</time>
<name>12787</name>
<sym>Dot</sym>
</trkpt>
<trkpt lat="39.698098" lon="-8.566602">
<ele>220.5</ele>
<desc>Speed 11.0 km/h Distance 61.04 km</desc>
<time>2011-05-22T11:49:29.64</time>
<name>12788</name>
<sym>Dot</sym>
</trkpt>
<trkpt lat="39.698092" lon="-8.566622">
<ele>221.0</ele>
<desc>Speed 6.8 km/h Distance 61.04 km</desc>
<time>2011-05-22T11:49:30.64</time>
<name>12789</name>
<sym>Dot</sym>
</trkpt>
<trkpt lat="39.698087" lon="-8.566645">
<ele>222.0</ele>
<desc>Speed 7.3 km/h Distance 61.04 km</desc>
<time>2011-05-22T11:49:31.64</time>
<name>12790</name>
<sym>Dot</sym>
</trkpt>
<trkpt lat="39.698083" lon="-8.566672">
<ele>222.0</ele>
<desc>Speed 8.6 km/h Distance 61.04 km</desc>
<time>2011-05-22T11:49:32.64</time>
<name>12791</name>
<sym>Dot</sym>
</trkpt>
<trkpt lat="39.698078" lon="-8.566702">
<ele>222.0</ele>
<desc>Speed 9.0 km/h Distance 61.05 km</desc>
<time>2011-05-22T11:49:33.63</time>
<name>12792</name>
<sym>Dot</sym>
</trkpt>
<trkpt lat="39.698072" lon="-8.566730">
<ele>222.5</ele>
<desc>Speed 9.5 km/h Distance 61.05 km</desc>
<time>2011-05-22T11:49:34.62</time>
<name>12793</name>
<sym>Dot</sym>
</trkpt>
<trkpt lat="39.698063" lon="-8.566758">
<ele>223.5</ele>
<desc>Speed 9.5 km/h Distance 61.05 km</desc>
<time>2011-05-22T11:49:35.62</time>
<name>12794</name>
<sym>Dot</sym>
</trkpt>
<trkpt lat="39.698053" lon="-8.566788">
<ele>224.0</ele>
<desc>Speed 9.7 km/h Distance 61.06 km</desc>
<time>2011-05-22T11:49:36.62</time>
<name>12795</name>
<sym>Dot</sym>
</trkpt>
<trkpt lat="39.698047" lon="-8.566815">
<ele>224.5</ele>
<desc>Speed 9.3 km/h Distance 61.06 km</desc>
<time>2011-05-22T11:49:37.62</time>
<name>12796</name>
<sym>Dot</sym>
</trkpt>
<trkpt lat="39.698038" lon="-8.566843">
<ele>225.0</ele>
<desc>Speed 9.6 km/h Distance 61.06 km</desc>
<time>2011-05-22T11:49:38.62</time>
<name>12797</name>
<sym>Dot</sym>
</trkpt>
<trkpt lat="39.698032" lon="-8.566873">
<ele>225.5</ele>
<desc>Speed 9.5 km/h Distance 61.06 km</desc>
<time>2011-05-22T11:49:39.62</time>
<name>12798</name>
<sym>Dot</sym>
</trkpt>
<trkpt lat="39.698025" lon="-8.566907">
<ele>226.0</ele>
<desc>Speed 10.4 km/h Distance 61.07 km</desc>
<time>2011-05-22T11:49:40.61</time>
<name>12799</name>
<sym>Dot</sym>
</trkpt>
<trkpt lat="39.698020" lon="-8.566940">
<ele>226.0</ele>
<desc>Speed 10.4 km/h Distance 61.07 km</desc>
<time>2011-05-22T11:49:41.61</time>
<name>12800</name>
<sym>Dot</sym>
</trkpt>
<trkpt lat="39.698015" lon="-8.566968">
<ele>226.0</ele>
<desc>Speed 9.1 km/h Distance 61.07 km</desc>
<time>2011-05-22T11:49:42.60</time>
<name>12801</name>
<sym>Dot</sym>
</trkpt>
<trkpt lat="39.698008" lon="-8.566995">
<ele>226.5</ele>
<desc>Speed 9.1 km/h Distance 61.07 km</desc>
<time>2011-05-22T11:49:43.60</time>
<name>12802</name>
<sym>Dot</sym>
</trkpt>
<trkpt lat="39.698002" lon="-8.567025">
<ele>226.5</ele>
<desc>Speed 9.2 km/h Distance 61.08 km</desc>
<time>2011-05-22T11:49:44.58</time>
<name>12803</name>
<sym>Dot</sym>
</trkpt>
<trkpt lat="39.697995" lon="-8.567055">
<ele>227.0</ele>
<desc>Speed 9.7 km/h Distance 61.08 km</desc>
<time>2011-05-22T11:49:45.58</time>
<name>12804</name>
<sym>Dot</sym>
</trkpt>
<trkpt lat="39.697992" lon="-8.567088">
<ele>227.0</ele>
<desc>Speed 9.8 km/h Distance 61.08 km</desc>
<time>2011-05-22T11:49:46.58</time>
<name>12805</name>
<sym>Dot</sym>
</trkpt>
<trkpt lat="39.697987" lon="-8.567120">
<ele>227.0</ele>
<desc>Speed 10.0 km/h Distance 61.08 km</desc>
<time>2011-05-22T11:49:47.57</time>
<name>12806</name>
<sym>Dot</sym>
</trkpt>
<trkpt lat="39.697980" lon="-8.567152">
<ele>227.0</ele>
<desc>Speed 10.0 km/h Distance 61.09 km</desc>
<time>2011-05-22T11:49:48.56</time>
<name>12807</name>
<sym>Dot</sym>
</trkpt>
<trkpt lat="39.697973" lon="-8.567185">
<ele>227.5</ele>
<desc>Speed 10.5 km/h Distance 61.09 km</desc>
<time>2011-05-22T11:49:49.57</time>
<name>12808</name>
<sym>Dot</sym>
</trkpt>
<trkpt lat="39.697972" lon="-8.567222">
<ele>227.5</ele>
<desc>Speed 11.5 km/h Distance 61.09 km</desc>
<time>2011-05-22T11:49:50.56</time>
<name>12809</name>
<sym>Dot</sym>
</trkpt>
<trkpt lat="39.697975" lon="-8.567258">
<ele>227.5</ele>
<desc>Speed 11.3 km/h Distance 61.10 km</desc>
<time>2011-05-22T11:49:51.55</time>
<name>12810</name>
<sym>Dot</sym>
</trkpt>
<trkpt lat="39.697980" lon="-8.567292">
<ele>228.0</ele>
<desc>Speed 10.2 km/h Distance 61.10 km</desc>
<time>2011-05-22T11:49:52.55</time>
<name>12811</name>
<sym>Dot</sym>
</trkpt>
<trkpt lat="39.697985" lon="-8.567323">
<ele>228.5</ele>
<desc>Speed 9.9 km/h Distance 61.10 km</desc>
<time>2011-05-22T11:49:53.55</time>
<name>12812</name>
<sym>Dot</sym>
</trkpt>
<trkpt lat="39.697993" lon="-8.567355">
<ele>229.0</ele>
<desc>Speed 10.0 km/h Distance 61.11 km</desc>
<time>2011-05-22T11:49:54.54</time>
<name>12813</name>
<sym>Dot</sym>
</trkpt>
<trkpt lat="39.698002" lon="-8.567385">
<ele>229.5</ele>
<desc>Speed 9.9 km/h Distance 61.11 km</desc>
<time>2011-05-22T11:49:55.54</time>
<name>12814</name>
<sym>Dot</sym>
</trkpt>
<trkpt lat="39.698013" lon="-8.567415">
<ele>230.0</ele>
<desc>Speed 10.0 km/h Distance 61.11 km</desc>
<time>2011-05-22T11:49:56.54</time>
<name>12815</name>
<sym>Dot</sym>
</trkpt>
<trkpt lat="39.698027" lon="-8.567442">
<ele>230.0</ele>
<desc>Speed 9.7 km/h Distance 61.11 km</desc>
<time>2011-05-22T11:49:57.54</time>
<name>12816</name>
<sym>Dot</sym>
</trkpt>
<trkpt lat="39.698040" lon="-8.567467">
<ele>230.5</ele>
<desc>Speed 8.9 km/h Distance 61.12 km</desc>
<time>2011-05-22T11:49:58.53</time>
<name>12817</name>
<sym>Dot</sym>
</trkpt>
<trkpt lat="39.698057" lon="-8.567492">
<ele>230.5</ele>
<desc>Speed 9.1 km/h Distance 61.12 km</desc>
<time>2011-05-22T11:49:59.53</time>
<name>12818</name>
<sym>Dot</sym>
</trkpt>
<trkpt lat="39.698070" lon="-8.567515">
<ele>230.5</ele>
<desc>Speed 8.7 km/h Distance 61.12 km</desc>
<time>2011-05-22T11:50:00.53</time>
<name>12819</name>
<sym>Dot</sym>
</trkpt>
<trkpt lat="39.698083" lon="-8.567538">
<ele>231.0</ele>
<desc>Speed 8.0 km/h Distance 61.12 km</desc>
<time>2011-05-22T11:50:01.52</time>
<name>12820</name>
<sym>Dot</sym>
</trkpt>
<trkpt lat="39.698097" lon="-8.567558">
<ele>231.0</ele>
<desc>Speed 7.7 km/h Distance 61.13 km</desc>
<time>2011-05-22T11:50:02.52</time>
<name>12821</name>
<sym>Dot</sym>
</trkpt>
<trkpt lat="39.698110" lon="-8.567578">
<ele>231.5</ele>
<desc>Speed 7.9 km/h Distance 61.13 km</desc>
<time>2011-05-22T11:50:03.52</time>
<name>12822</name>
<sym>Dot</sym>
</trkpt>
<trkpt lat="39.698123" lon="-8.567598">
<ele>231.5</ele>
<desc>Speed 8.0 km/h Distance 61.13 km</desc>
<time>2011-05-22T11:50:04.51</time>
<name>12823</name>
<sym>Dot</sym>
</trkpt>
<trkpt lat="39.698137" lon="-8.567617">
<ele>232.0</ele>
<desc>Speed 7.5 km/h Distance 61.13 km</desc>
<time>2011-05-22T11:50:05.51</time>
<name>12824</name>
<sym>Dot</sym>
</trkpt>
<trkpt lat="39.698152" lon="-8.567635">
<ele>232.0</ele>
<desc>Speed 8.0 km/h Distance 61.14 km</desc>
<time>2011-05-22T11:50:06.50</time>
<name>12825</name>
<sym>Dot</sym>
</trkpt>
<trkpt lat="39.698170" lon="-8.567652">
<ele>232.0</ele>
<desc>Speed 8.2 km/h Distance 61.14 km</desc>
<time>2011-05-22T11:50:07.50</time>
<name>12826</name>
<sym>Dot</sym>
</trkpt>
<trkpt lat="39.698187" lon="-8.567670">
<ele>232.0</ele>
<desc>Speed 8.8 km/h Distance 61.14 km</desc>
<time>2011-05-22T11:50:08.50</time>
<name>12827</name>
<sym>Dot</sym>
</trkpt>
<trkpt lat="39.698205" lon="-8.567688">
<ele>232.0</ele>
<desc>Speed 8.7 km/h Distance 61.14 km</desc>
<time>2011-05-22T11:50:09.50</time>
<name>12828</name>
<sym>Dot</sym>
</trkpt>
<trkpt lat="39.698222" lon="-8.567707">
<ele>232.0</ele>
<desc>Speed 8.4 km/h Distance 61.15 km</desc>
<time>2011-05-22T11:50:10.50</time>
<name>12829</name>
<sym>Dot</sym>
</trkpt>
<trkpt lat="39.698238" lon="-8.567725">
<ele>232.0</ele>
<desc>Speed 8.2 km/h Distance 61.15 km</desc>
<time>2011-05-22T11:50:11.50</time>
<name>12830</name>
<sym>Dot</sym>
</trkpt>
<trkpt lat="39.698253" lon="-8.567743">
<ele>232.0</ele>
<desc>Speed 8.0 km/h Distance 61.15 km</desc>
<time>2011-05-22T11:50:12.50</time>
<name>12831</name>
<sym>Dot</sym>
</trkpt>
<trkpt lat="39.698272" lon="-8.567762">
<ele>232.0</ele>
<desc>Speed 8.4 km/h Distance 61.15 km</desc>
<time>2011-05-22T11:50:13.50</time>
<name>12832</name>
<sym>Dot</sym>
</trkpt>
<trkpt lat="39.698290" lon="-8.567782">
<ele>231.5</ele>
<desc>Speed 9.2 km/h Distance 61.16 km</desc>
<time>2011-05-22T11:50:14.49</time>
<name>12833</name>
<sym>Dot</sym>
</trkpt>
<trkpt lat="39.698308" lon="-8.567803">
<ele>231.5</ele>
<desc>Speed 9.5 km/h Distance 61.16 km</desc>
<time>2011-05-22T11:50:15.49</time>
<name>12834</name>
<sym>Dot</sym>
</trkpt>
<trkpt lat="39.698327" lon="-8.567828">
<ele>231.5</ele>
<desc>Speed 10.4 km/h Distance 61.16 km</desc>
<time>2011-05-22T11:50:16.49</time>
<name>12835</name>
<sym>Dot</sym>
</trkpt>
<trkpt lat="39.698347" lon="-8.567857">
<ele>231.5</ele>
<desc>Speed 11.7 km/h Distance 61.16 km</desc>
<time>2011-05-22T11:50:17.49</time>
<name>12836</name>
<sym>Dot</sym>
</trkpt>
<trkpt lat="39.698367" lon="-8.567892">
<ele>231.5</ele>
<desc>Speed 12.8 km/h Distance 61.17 km</desc>
<time>2011-05-22T11:50:18.48</time>
<name>12837</name>
<sym>Dot</sym>
</trkpt>
<trkpt lat="39.698387" lon="-8.567930">
<ele>231.5</ele>
<desc>Speed 14.2 km/h Distance 61.17 km</desc>
<time>2011-05-22T11:50:19.48</time>
<name>12838</name>
<sym>Dot</sym>
</trkpt>
<trkpt lat="39.698408" lon="-8.567972">
<ele>231.5</ele>
<desc>Speed 15.0 km/h Distance 61.18 km</desc>
<time>2011-05-22T11:50:20.48</time>
<name>12839</name>
<sym>Dot</sym>
</trkpt>
<trkpt lat="39.698430" lon="-8.568015">
<ele>231.5</ele>
<desc>Speed 15.9 km/h Distance 61.18 km</desc>
<time>2011-05-22T11:50:21.48</time>
<name>12840</name>
<sym>Dot</sym>
</trkpt>
<trkpt lat="39.698452" lon="-8.568062">
<ele>231.5</ele>
<desc>Speed 16.2 km/h Distance 61.19 km</desc>
<time>2011-05-22T11:50:22.48</time>
<name>12841</name>
<sym>Dot</sym>
</trkpt>
<trkpt lat="39.698470" lon="-8.568110">
<ele>231.5</ele>
<desc>Speed 16.8 km/h Distance 61.19 km</desc>
<time>2011-05-22T11:50:23.48</time>
<name>12842</name>
<sym>Dot</sym>
</trkpt>
<trkpt lat="39.698488" lon="-8.568162">
<ele>231.5</ele>
<desc>Speed 17.4 km/h Distance 61.19 km</desc>
<time>2011-05-22T11:50:24.47</time>
<name>12843</name>
<sym>Dot</sym>
</trkpt>
<trkpt lat="39.698503" lon="-8.568217">
<ele>231.5</ele>
<desc>Speed 17.6 km/h Distance 61.20 km</desc>
<time>2011-05-22T11:50:25.46</time>
<name>12844</name>
<sym>Dot</sym>
</trkpt>
<trkpt lat="39.698515" lon="-8.568272">
<ele>232.0</ele>
<desc>Speed 17.6 km/h Distance 61.20 km</desc>
<time>2011-05-22T11:50:26.46</time>
<name>12845</name>
<sym>Dot</sym>
</trkpt>
<trkpt lat="39.698525" lon="-8.568328">
<ele>232.0</ele>
<desc>Speed 17.4 km/h Distance 61.21 km</desc>
<time>2011-05-22T11:50:27.46</time>
<name>12846</name>
<sym>Dot</sym>
</trkpt>
<trkpt lat="39.698530" lon="-8.568385">
<ele>232.0</ele>
<desc>Speed 17.3 km/h Distance 61.21 km</desc>
<time>2011-05-22T11:50:28.46</time>
<name>12847</name>
<sym>Dot</sym>
</trkpt>
<trkpt lat="39.698533" lon="-8.568440">
<ele>232.0</ele>
<desc>Speed 17.2 km/h Distance 61.22 km</desc>
<time>2011-05-22T11:50:29.45</time>
<name>12848</name>
<sym>Dot</sym>
</trkpt>
<trkpt lat="39.698533" lon="-8.568497">
<ele>232.0</ele>
<desc>Speed 17.1 km/h Distance 61.22 km</desc>
<time>2011-05-22T11:50:30.45</time>
<name>12849</name>
<sym>Dot</sym>
</trkpt>
<trkpt lat="39.698528" lon="-8.568550">
<ele>232.0</ele>
<desc>Speed 17.0 km/h Distance 61.23 km</desc>
<time>2011-05-22T11:50:31.44</time>
<name>12850</name>
<sym>Dot</sym>
</trkpt>
<trkpt lat="39.698522" lon="-8.568603">
<ele>232.0</ele>
<desc>Speed 16.7 km/h Distance 61.23 km</desc>
<time>2011-05-22T11:50:32.43</time>
<name>12851</name>
<sym>Dot</sym>
</trkpt>
<trkpt lat="39.698510" lon="-8.568655">
<ele>232.0</ele>
<desc>Speed 16.3 km/h Distance 61.24 km</desc>
<time>2011-05-22T11:50:33.43</time>
<name>12852</name>
<sym>Dot</sym>
</trkpt>
<trkpt lat="39.698495" lon="-8.568705">
<ele>232.0</ele>
<desc>Speed 16.6 km/h Distance 61.24 km</desc>
<time>2011-05-22T11:50:34.42</time>
<name>12853</name>
<sym>Dot</sym>
</trkpt>
<trkpt lat="39.698480" lon="-8.568752">
<ele>232.5</ele>
<desc>Speed 15.8 km/h Distance 61.25 km</desc>
<time>2011-05-22T11:50:35.42</time>
<name>12854</name>
<sym>Dot</sym>
</trkpt>
<trkpt lat="39.698465" lon="-8.568793">
<ele>232.0</ele>
<desc>Speed 14.6 km/h Distance 61.25 km</desc>
<time>2011-05-22T11:50:36.42</time>
<name>12855</name>
<sym>Dot</sym>
</trkpt>
<trkpt lat="39.698450" lon="-8.568832">
<ele>232.0</ele>
<desc>Speed 12.9 km/h Distance 61.25 km</desc>
<time>2011-05-22T11:50:37.41</time>
<name>12856</name>
<sym>Dot</sym>
</trkpt>
<trkpt lat="39.698438" lon="-8.568865">
<ele>232.0</ele>
<desc>Speed 11.7 km/h Distance 61.26 km</desc>
<time>2011-05-22T11:50:38.41</time>
<name>12857</name>
<sym>Dot</sym>
</trkpt>
<trkpt lat="39.698428" lon="-8.568893">
<ele>232.0</ele>
<desc>Speed 9.6 km/h Distance 61.26 km</desc>
<time>2011-05-22T11:50:39.41</time>
<name>12858</name>
<sym>Dot</sym>
</trkpt>
<trkpt lat="39.698422" lon="-8.568915">
<ele>233.0</ele>
<desc>Speed 7.6 km/h Distance 61.26 km</desc>
<time>2011-05-22T11:50:40.40</time>
<name>12859</name>
<sym>Dot</sym>
</trkpt>
<trkpt lat="39.698410" lon="-8.568937">
<ele>233.0</ele>
<desc>Speed 8.6 km/h Distance 61.26 km</desc>
<time>2011-05-22T11:50:41.40</time>
<name>12860</name>
<sym>Dot</sym>
</trkpt>
<trkpt lat="39.698395" lon="-8.568962">
<ele>233.5</ele>
<desc>Speed 9.9 km/h Distance 61.27 km</desc>
<time>2011-05-22T11:50:42.40</time>
<name>12861</name>
<sym>Dot</sym>
</trkpt>
<trkpt lat="39.698377" lon="-8.568982">
<ele>233.5</ele>
<desc>Speed 10.1 km/h Distance 61.27 km</desc>
<time>2011-05-22T11:50:43.39</time>
<name>12862</name>
<sym>Dot</sym>
</trkpt>
<trkpt lat="39.698360" lon="-8.569008">
<ele>233.5</ele>
<desc>Speed 10.9 km/h Distance 61.27 km</desc>
<time>2011-05-22T11:50:44.39</time>
<name>12863</name>
<sym>Dot</sym>
</trkpt>
<trkpt lat="39.698345" lon="-8.569037">
<ele>234.5</ele>
<desc>Speed 10.8 km/h Distance 61.28 km</desc>
<time>2011-05-22T11:50:45.38</time>
<name>12864</name>
<sym>Dot</sym>
</trkpt>
<trkpt lat="39.698333" lon="-8.569060">
<ele>235.0</ele>
<desc>Speed 8.9 km/h Distance 61.28 km</desc>
<time>2011-05-22T11:50:46.38</time>
<name>12865</name>
<sym>Dot</sym>
</trkpt>
<trkpt lat="39.698325" lon="-8.569082">
<ele>235.0</ele>
<desc>Speed 8.0 km/h Distance 61.28 km</desc>
<time>2011-05-22T11:50:47.38</time>
<name>12866</name>
<sym>Dot</sym>
</trkpt>
<trkpt lat="39.698318" lon="-8.569107">
<ele>235.5</ele>
<desc>Speed 8.2 km/h Distance 61.28 km</desc>
<time>2011-05-22T11:50:48.38</time>
<name>12867</name>
<sym>Dot</sym>
</trkpt>
<trkpt lat="39.698315" lon="-8.569132">
<ele>236.0</ele>
<desc>Speed 8.0 km/h Distance 61.28 km</desc>
<time>2011-05-22T11:50:49.37</time>
<name>12868</name>
<sym>Dot</sym>
</trkpt>
<trkpt lat="39.698313" lon="-8.569157">
<ele>236.0</ele>
<desc>Speed 7.6 km/h Distance 61.29 km</desc>
<time>2011-05-22T11:50:50.37</time>
<name>12869</name>
<sym>Dot</sym>
</trkpt>
<trkpt lat="39.698307" lon="-8.569180">
<ele>236.5</ele>
<desc>Speed 7.7 km/h Distance 61.29 km</desc>
<time>2011-05-22T11:50:51.37</time>
<name>12870</name>
<sym>Dot</sym>
</trkpt>
<trkpt lat="39.698298" lon="-8.569202">
<ele>237.0</ele>
<desc>Speed 7.7 km/h Distance 61.29 km</desc>
<time>2011-05-22T11:50:52.36</time>
<name>12871</name>
<sym>Dot</sym>
</trkpt>
<trkpt lat="39.698287" lon="-8.569222">
<ele>237.5</ele>
<desc>Speed 7.8 km/h Distance 61.29 km</desc>
<time>2011-05-22T11:50:53.35</time>
<name>12872</name>
<sym>Dot</sym>
</trkpt>
<trkpt lat="39.698277" lon="-8.569245">
<ele>237.5</ele>
<desc>Speed 8.2 km/h Distance 61.30 km</desc>
<time>2011-05-22T11:50:54.34</time>
<name>12873</name>
<sym>Dot</sym>
</trkpt>
<trkpt lat="39.698272" lon="-8.569273">
<ele>237.5</ele>
<desc>Speed 8.8 km/h Distance 61.30 km</desc>
<time>2011-05-22T11:50:55.34</time>
<name>12874</name>
<sym>Dot</sym>
</trkpt>
<trkpt lat="39.698265" lon="-8.569300">
<ele>237.5</ele>
<desc>Speed 8.7 km/h Distance 61.30 km</desc>
<time>2011-05-22T11:50:56.33</time>
<name>12875</name>
<sym>Dot</sym>
</trkpt>
<trkpt lat="39.698257" lon="-8.569327">
<ele>238.0</ele>
<desc>Speed 8.6 km/h Distance 61.30 km</desc>
<time>2011-05-22T11:50:57.32</time>
<name>12876</name>
<sym>Dot</sym>
</trkpt>
<trkpt lat="39.698248" lon="-8.569350">
<ele>238.5</ele>
<desc>Speed 8.1 km/h Distance 61.30 km</desc>
<time>2011-05-22T11:50:58.32</time>
<name>12877</name>
<sym>Dot</sym>
</trkpt>
<trkpt lat="39.698238" lon="-8.569372">
<ele>239.0</ele>
<desc>Speed 7.8 km/h Distance 61.31 km</desc>
<time>2011-05-22T11:50:59.32</time>
<name>12878</name>
<sym>Dot</sym>
</trkpt>
<trkpt lat="39.698232" lon="-8.569395">
<ele>239.5</ele>
<desc>Speed 7.6 km/h Distance 61.31 km</desc>
<time>2011-05-22T11:51:00.32</time>
<name>12879</name>
<sym>Dot</sym>
</trkpt>
<trkpt lat="39.698227" lon="-8.569418">
<ele>239.5</ele>
<desc>Speed 7.6 km/h Distance 61.31 km</desc>
<time>2011-05-22T11:51:01.31</time>
<name>12880</name>
<sym>Dot</sym>
</trkpt>
<trkpt lat="39.698217" lon="-8.569440">
<ele>240.5</ele>
<desc>Speed 7.7 km/h Distance 61.31 km</desc>
<time>2011-05-22T11:51:02.31</time>
<name>12881</name>
<sym>Dot</sym>
</trkpt>
<trkpt lat="39.698210" lon="-8.569465">
<ele>241.0</ele>
<desc>Speed 8.1 km/h Distance 61.32 km</desc>
<time>2011-05-22T11:51:03.30</time>
<name>12882</name>
<sym>Dot</sym>
</trkpt>
<trkpt lat="39.698202" lon="-8.569488">
<ele>241.5</ele>
<desc>Speed 8.0 km/h Distance 61.32 km</desc>
<time>2011-05-22T11:51:04.30</time>
<name>12883</name>
<sym>Dot</sym>
</trkpt>
<trkpt lat="39.698193" lon="-8.569512">
<ele>241.5</ele>
<desc>Speed 7.8 km/h Distance 61.32 km</desc>
<time>2011-05-22T11:51:05.29</time>
<name>12884</name>
<sym>Dot</sym>
</trkpt>
<trkpt lat="39.698183" lon="-8.569533">
<ele>242.0</ele>
<desc>Speed 7.7 km/h Distance 61.32 km</desc>
<time>2011-05-22T11:51:06.29</time>
<name>12885</name>
<sym>Dot</sym>
</trkpt>
<trkpt lat="39.698177" lon="-8.569553">
<ele>242.5</ele>
<desc>Speed 6.9 km/h Distance 61.32 km</desc>
<time>2011-05-22T11:51:07.30</time>
<name>12886</name>
<sym>Dot</sym>
</trkpt>
<trkpt lat="39.698170" lon="-8.569575">
<ele>242.5</ele>
<desc>Speed 7.3 km/h Distance 61.33 km</desc>
<time>2011-05-22T11:51:08.29</time>
<name>12887</name>
<sym>Dot</sym>
</trkpt>
<trkpt lat="39.698162" lon="-8.569600">
<ele>242.5</ele>
<desc>Speed 8.2 km/h Distance 61.33 km</desc>
<time>2011-05-22T11:51:09.29</time>
<name>12888</name>
<sym>Dot</sym>
</trkpt>
<trkpt lat="39.698153" lon="-8.569625">
<ele>243.0</ele>
<desc>Speed 8.1 km/h Distance 61.33 km</desc>
<time>2011-05-22T11:51:10.28</time>
<name>12889</name>
<sym>Dot</sym>
</trkpt>
<trkpt lat="39.698145" lon="-8.569647">
<ele>243.0</ele>
<desc>Speed 7.8 km/h Distance 61.33 km</desc>
<time>2011-05-22T11:51:11.27</time>
<name>12890</name>
<sym>Dot</sym>
</trkpt>
<trkpt lat="39.698137" lon="-8.569670">
<ele>243.5</ele>
<desc>Speed 7.6 km/h Distance 61.34 km</desc>
<time>2011-05-22T11:51:12.26</time>
<name>12891</name>
<sym>Dot</sym>
</trkpt>
<trkpt lat="39.698128" lon="-8.569692">
<ele>243.5</ele>
<desc>Speed 7.7 km/h Distance 61.34 km</desc>
<time>2011-05-22T11:51:13.25</time>
<name>12892</name>
<sym>Dot</sym>
</trkpt>
<trkpt lat="39.698122" lon="-8.569713">
<ele>244.0</ele>
<desc>Speed 7.2 km/h Distance 61.34 km</desc>
<time>2011-05-22T11:51:14.25</time>
<name>12893</name>
<sym>Dot</sym>
</trkpt>
<trkpt lat="39.698112" lon="-8.569733">
<ele>244.0</ele>
<desc>Speed 7.3 km/h Distance 61.34 km</desc>
<time>2011-05-22T11:51:15.25</time>
<name>12894</name>
<sym>Dot</sym>
</trkpt>
<trkpt lat="39.698102" lon="-8.569753">
<ele>244.0</ele>
<desc>Speed 7.6 km/h Distance 61.34 km</desc>
<time>2011-05-22T11:51:16.25</time>
<name>12895</name>
<sym>Dot</sym>
</trkpt>
<trkpt lat="39.698093" lon="-8.569775">
<ele>244.0</ele>
<desc>Speed 7.8 km/h Distance 61.35 km</desc>
<time>2011-05-22T11:51:17.24</time>
<name>12896</name>
<sym>Dot</sym>
</trkpt>
<trkpt lat="39.698083" lon="-8.569798">
<ele>244.0</ele>
<desc>Speed 8.2 km/h Distance 61.35 km</desc>
<time>2011-05-22T11:51:18.24</time>
<name>12897</name>
<sym>Dot</sym>
</trkpt>
<trkpt lat="39.698072" lon="-8.569820">
<ele>244.5</ele>
<desc>Speed 8.2 km/h Distance 61.35 km</desc>
<time>2011-05-22T11:51:19.23</time>
<name>12898</name>
<sym>Dot</sym>
</trkpt>
<trkpt lat="39.698060" lon="-8.569842">
<ele>244.0</ele>
<desc>Speed 8.3 km/h Distance 61.35 km</desc>
<time>2011-05-22T11:51:20.23</time>
<name>12899</name>
<sym>Dot</sym>
</trkpt>
<trkpt lat="39.698048" lon="-8.569867">
<ele>244.0</ele>
<desc>Speed 9.0 km/h Distance 61.35 km</desc>
<time>2011-05-22T11:51:21.23</time>
<name>12900</name>
<sym>Dot</sym>
</trkpt>
<trkpt lat="39.698035" lon="-8.569897">
<ele>244.0</ele>
<desc>Speed 10.7 km/h Distance 61.36 km</desc>
<time>2011-05-22T11:51:22.23</time>
<name>12901</name>
<sym>Dot</sym>
</trkpt>
<trkpt lat="39.698023" lon="-8.569927">
<ele>244.5</ele>
<desc>Speed 10.2 km/h Distance 61.36 km</desc>
<time>2011-05-22T11:51:23.22</time>
<name>12902</name>
<sym>Dot</sym>
</trkpt>
<trkpt lat="39.698012" lon="-8.569962">
<ele>244.5</ele>
<desc>Speed 12.2 km/h Distance 61.36 km</desc>
<time>2011-05-22T11:51:24.22</time>
<name>12903</name>
<sym>Dot</sym>
</trkpt>
<trkpt lat="39.697997" lon="-8.570005">
<ele>244.0</ele>
<desc>Speed 14.2 km/h Distance 61.37 km</desc>
<time>2011-05-22T11:51:25.21</time>
<name>12904</name>
<sym>Dot</sym>
</trkpt>
<trkpt lat="39.697982" lon="-8.570055">
<ele>243.5</ele>
<desc>Speed 16.5 km/h Distance 61.37 km</desc>
<time>2011-05-22T11:51:26.21</time>
<name>12905</name>
<sym>Dot</sym>
</trkpt>
<trkpt lat="39.697967" lon="-8.570112">
<ele>243.0</ele>
<desc>Speed 18.6 km/h Distance 61.38 km</desc>
<time>2011-05-22T11:51:27.20</time>
<name>12906</name>
<sym>Dot</sym>
</trkpt>
<trkpt lat="39.697948" lon="-8.570172">
<ele>242.5</ele>
<desc>Speed 20.0 km/h Distance 61.38 km</desc>
<time>2011-05-22T11:51:28.19</time>
<name>12907</name>
<sym>Dot</sym>
</trkpt>
<trkpt lat="39.697930" lon="-8.570238">
<ele>242.5</ele>
<desc>Speed 21.4 km/h Distance 61.39 km</desc>
<time>2011-05-22T11:51:29.19</time>
<name>12908</name>
<sym>Dot</sym>
</trkpt>
<trkpt lat="39.697908" lon="-8.570303">
<ele>242.0</ele>
<desc>Speed 21.9 km/h Distance 61.40 km</desc>
<time>2011-05-22T11:51:30.20</time>
<name>12909</name>
<sym>Dot</sym>
</trkpt>
<trkpt lat="39.697885" lon="-8.570372">
<ele>242.0</ele>
<desc>Speed 22.8 km/h Distance 61.40 km</desc>
<time>2011-05-22T11:51:31.19</time>
<name>12910</name>
<sym>Dot</sym>
</trkpt>
<trkpt lat="39.697858" lon="-8.570438">
<ele>242.0</ele>
<desc>Speed 23.0 km/h Distance 61.41 km</desc>
<time>2011-05-22T11:51:32.19</time>
<name>12911</name>
<sym>Dot</sym>
</trkpt>
<trkpt lat="39.697823" lon="-8.570498">
<ele>242.0</ele>
<desc>Speed 23.3 km/h Distance 61.41 km</desc>
<time>2011-05-22T11:51:33.18</time>
<name>12912</name>
<sym>Dot</sym>
</trkpt>
<trkpt lat="39.697780" lon="-8.570552">
<ele>241.5</ele>
<desc>Speed 23.6 km/h Distance 61.42 km</desc>
<time>2011-05-22T11:51:34.18</time>
<name>12913</name>
<sym>Dot</sym>
</trkpt>
<trkpt lat="39.697733" lon="-8.570597">
<ele>241.5</ele>
<desc>Speed 23.3 km/h Distance 61.43 km</desc>
<time>2011-05-22T11:51:35.17</time>
<name>12914</name>
<sym>Dot</sym>
</trkpt>
<trkpt lat="39.697685" lon="-8.570637">
<ele>241.5</ele>
<desc>Speed 23.3 km/h Distance 61.43 km</desc>
<time>2011-05-22T11:51:36.16</time>
<name>12915</name>
<sym>Dot</sym>
</trkpt>
<trkpt lat="39.697635" lon="-8.570672">
<ele>241.5</ele>
<desc>Speed 22.8 km/h Distance 61.44 km</desc>
<time>2011-05-22T11:51:37.16</time>
<name>12916</name>
<sym>Dot</sym>
</trkpt>
<trkpt lat="39.697583" lon="-8.570703">
<ele>242.0</ele>
<desc>Speed 22.9 km/h Distance 61.45 km</desc>
<time>2011-05-22T11:51:38.15</time>
<name>12917</name>
<sym>Dot</sym>
</trkpt>
<trkpt lat="39.697533" lon="-8.570733">
<ele>242.5</ele>
<desc>Speed 22.5 km/h Distance 61.45 km</desc>
<time>2011-05-22T11:51:39.14</time>
<name>12918</name>
<sym>Dot</sym>
</trkpt>
<trkpt lat="39.697482" lon="-8.570767">
<ele>242.5</ele>
<desc>Speed 22.6 km/h Distance 61.46 km</desc>
<time>2011-05-22T11:51:40.13</time>
<name>12919</name>
<sym>Dot</sym>
</trkpt>
<trkpt lat="39.697430" lon="-8.570802">
<ele>242.5</ele>
<desc>Speed 23.6 km/h Distance 61.47 km</desc>
<time>2011-05-22T11:51:41.13</time>
<name>12920</name>
<sym>Dot</sym>
</trkpt>
<trkpt lat="39.697378" lon="-8.570838">
<ele>242.0</ele>
<desc>Speed 23.8 km/h Distance 61.47 km</desc>
<time>2011-05-22T11:51:42.12</time>
<name>12921</name>
<sym>Dot</sym>
</trkpt>
<trkpt lat="39.697325" lon="-8.570878">
<ele>241.5</ele>
<desc>Speed 24.4 km/h Distance 61.48 km</desc>
<time>2011-05-22T11:51:43.11</time>
<name>12922</name>
<sym>Dot</sym>
</trkpt>
<trkpt lat="39.697265" lon="-8.570923">
<ele>241.5</ele>
<desc>Speed 27.8 km/h Distance 61.49 km</desc>
<time>2011-05-22T11:51:44.11</time>
<name>12923</name>
<sym>Dot</sym>
</trkpt>
<trkpt lat="39.697193" lon="-8.570975">
<ele>241.0</ele>
<desc>Speed 33.3 km/h Distance 61.50 km</desc>
<time>2011-05-22T11:51:45.11</time>
<name>12924</name>
<sym>Dot</sym>
</trkpt>
<trkpt lat="39.697118" lon="-8.571028">
<ele>240.5</ele>
<desc>Speed 34.1 km/h Distance 61.51 km</desc>
<time>2011-05-22T11:51:46.11</time>
<name>12925</name>
<sym>Dot</sym>
</trkpt>
<trkpt lat="39.697042" lon="-8.571078">
<ele>239.5</ele>
<desc>Speed 35.0 km/h Distance 61.52 km</desc>
<time>2011-05-22T11:51:47.09</time>
<name>12926</name>
<sym>Dot</sym>
</trkpt>
<trkpt lat="39.696960" lon="-8.571127">
<ele>239.0</ele>
<desc>Speed 36.2 km/h Distance 61.53 km</desc>
<time>2011-05-22T11:51:48.09</time>
<name>12927</name>
<sym>Dot</sym>
</trkpt>
<trkpt lat="39.696875" lon="-8.571168">
<ele>238.5</ele>
<desc>Speed 36.0 km/h Distance 61.54 km</desc>
<time>2011-05-22T11:51:49.08</time>
<name>12928</name>
<sym>Dot</sym>
</trkpt>
<trkpt lat="39.696793" lon="-8.571205">
<ele>239.0</ele>
<desc>Speed 35.0 km/h Distance 61.54 km</desc>
<time>2011-05-22T11:51:50.09</time>
<name>12929</name>
<sym>Dot</sym>
</trkpt>
<trkpt lat="39.696715" lon="-8.571240">
<ele>239.0</ele>
<desc>Speed 32.9 km/h Distance 61.55 km</desc>
<time>2011-05-22T11:51:51.08</time>
<name>12930</name>
<sym>Dot</sym>
</trkpt>
<trkpt lat="39.696645" lon="-8.571273">
<ele>239.5</ele>
<desc>Speed 30.5 km/h Distance 61.56 km</desc>
<time>2011-05-22T11:51:52.07</time>
<name>12931</name>
<sym>Dot</sym>
</trkpt>
<trkpt lat="39.696582" lon="-8.571303">
<ele>240.0</ele>
<desc>Speed 27.4 km/h Distance 61.57 km</desc>
<time>2011-05-22T11:51:53.07</time>
<name>12932</name>
<sym>Dot</sym>
</trkpt>
<trkpt lat="39.696527" lon="-8.571335">
<ele>240.5</ele>
<desc>Speed 24.3 km/h Distance 61.58 km</desc>
<time>2011-05-22T11:51:54.07</time>
<name>12933</name>
<sym>Dot</sym>
</trkpt>
<trkpt lat="39.696480" lon="-8.571365">
<ele>240.5</ele>
<desc>Speed 21.2 km/h Distance 61.58 km</desc>
<time>2011-05-22T11:51:55.06</time>
<name>12934</name>
<sym>Dot</sym>
</trkpt>
<trkpt lat="39.696438" lon="-8.571392">
<ele>241.0</ele>
<desc>Speed 18.9 km/h Distance 61.59 km</desc>
<time>2011-05-22T11:51:56.06</time>
<name>12935</name>
<sym>Dot</sym>
</trkpt>
<trkpt lat="39.696402" lon="-8.571418">
<ele>240.5</ele>
<desc>Speed 17.3 km/h Distance 61.59 km</desc>
<time>2011-05-22T11:51:57.05</time>
<name>12936</name>
<sym>Dot</sym>
</trkpt>
<trkpt lat="39.696363" lon="-8.571447">
<ele>240.5</ele>
<desc>Speed 17.8 km/h Distance 61.60 km</desc>
<time>2011-05-22T11:51:58.05</time>
<name>12937</name>
<sym>Dot</sym>
</trkpt>
<trkpt lat="39.696322" lon="-8.571480">
<ele>240.0</ele>
<desc>Speed 19.6 km/h Distance 61.60 km</desc>
<time>2011-05-22T11:51:59.05</time>
<name>12938</name>
<sym>Dot</sym>
</trkpt>
<trkpt lat="39.696277" lon="-8.571518">
<ele>239.0</ele>
<desc>Speed 21.9 km/h Distance 61.61 km</desc>
<time>2011-05-22T11:52:00.05</time>
<name>12939</name>
<sym>Dot</sym>
</trkpt>
<trkpt lat="39.696230" lon="-8.571568">
<ele>238.5</ele>
<desc>Speed 24.6 km/h Distance 61.62 km</desc>
<time>2011-05-22T11:52:01.05</time>
<name>12940</name>
<sym>Dot</sym>
</trkpt>
<trkpt lat="39.696175" lon="-8.571620">
<ele>237.5</ele>
<desc>Speed 27.4 km/h Distance 61.62 km</desc>
<time>2011-05-22T11:52:02.04</time>
<name>12941</name>
<sym>Dot</sym>
</trkpt>
<trkpt lat="39.696112" lon="-8.571672">
<ele>236.5</ele>
<desc>Speed 29.8 km/h Distance 61.63 km</desc>
<time>2011-05-22T11:52:03.04</time>
<name>12942</name>
<sym>Dot</sym>
</trkpt>
<trkpt lat="39.696047" lon="-8.571727">
<ele>235.5</ele>
<desc>Speed 31.4 km/h Distance 61.64 km</desc>
<time>2011-05-22T11:52:04.04</time>
<name>12943</name>
<sym>Dot</sym>
</trkpt>
<trkpt lat="39.695978" lon="-8.571785">
<ele>235.5</ele>
<desc>Speed 33.0 km/h Distance 61.65 km</desc>
<time>2011-05-22T11:52:05.03</time>
<name>12944</name>
<sym>Dot</sym>
</trkpt>
<trkpt lat="39.695910" lon="-8.571847">
<ele>235.0</ele>
<desc>Speed 33.7 km/h Distance 61.66 km</desc>
<time>2011-05-22T11:52:06.03</time>
<name>12945</name>
<sym>Dot</sym>
</trkpt>
<trkpt lat="39.695840" lon="-8.571910">
<ele>234.5</ele>
<desc>Speed 34.6 km/h Distance 61.67 km</desc>
<time>2011-05-22T11:52:07.03</time>
<name>12946</name>
<sym>Dot</sym>
</trkpt>
<trkpt lat="39.695767" lon="-8.571975">
<ele>234.0</ele>
<desc>Speed 35.6 km/h Distance 61.68 km</desc>
<time>2011-05-22T11:52:08.02</time>
<name>12947</name>
<sym>Dot</sym>
</trkpt>
<trkpt lat="39.695692" lon="-8.572042">
<ele>233.5</ele>
<desc>Speed 36.5 km/h Distance 61.69 km</desc>
<time>2011-05-22T11:52:09.02</time>
<name>12948</name>
<sym>Dot</sym>
</trkpt>
<trkpt lat="39.695615" lon="-8.572110">
<ele>233.0</ele>
<desc>Speed 37.3 km/h Distance 61.70 km</desc>
<time>2011-05-22T11:52:10.02</time>
<name>12949</name>
<sym>Dot</sym>
</trkpt>
<trkpt lat="39.695537" lon="-8.572175">
<ele>232.5</ele>
<desc>Speed 37.8 km/h Distance 61.71 km</desc>
<time>2011-05-22T11:52:11.01</time>
<name>12950</name>
<sym>Dot</sym>
</trkpt>
<trkpt lat="39.695458" lon="-8.572243">
<ele>232.0</ele>
<desc>Speed 37.8 km/h Distance 61.72 km</desc>
<time>2011-05-22T11:52:12.00</time>
<name>12951</name>
<sym>Dot</sym>
</trkpt>
<trkpt lat="39.695382" lon="-8.572308">
<ele>232.5</ele>
<desc>Speed 37.3 km/h Distance 61.73 km</desc>
<time>2011-05-22T11:52:13.00</time>
<name>12952</name>
<sym>Dot</sym>
</trkpt>
<trkpt lat="39.695308" lon="-8.572372">
<ele>233.0</ele>
<desc>Speed 35.2 km/h Distance 61.74 km</desc>
<time>2011-05-22T11:52:13.99</time>
<name>12953</name>
<sym>Dot</sym>
</trkpt>
<trkpt lat="39.695238" lon="-8.572432">
<ele>233.5</ele>
<desc>Speed 33.2 km/h Distance 61.75 km</desc>
<time>2011-05-22T11:52:14.98</time>
<name>12954</name>
<sym>Dot</sym>
</trkpt>
<trkpt lat="39.695177" lon="-8.572488">
<ele>234.0</ele>
<desc>Speed 30.9 km/h Distance 61.76 km</desc>
<time>2011-05-22T11:52:15.98</time>
<name>12955</name>
<sym>Dot</sym>
</trkpt>
<trkpt lat="39.695118" lon="-8.572542">
<ele>234.5</ele>
<desc>Speed 28.4 km/h Distance 61.76 km</desc>
<time>2011-05-22T11:52:16.98</time>
<name>12956</name>
<sym>Dot</sym>
</trkpt>
<trkpt lat="39.695063" lon="-8.572593">
<ele>235.0</ele>
<desc>Speed 27.4 km/h Distance 61.77 km</desc>
<time>2011-05-22T11:52:17.97</time>
<name>12957</name>
<sym>Dot</sym>
</trkpt>
<trkpt lat="39.695013" lon="-8.572650">
<ele>235.0</ele>
<desc>Speed 26.8 km/h Distance 61.78 km</desc>
<time>2011-05-22T11:52:18.96</time>
<name>12958</name>
<sym>Dot</sym>
</trkpt>
<trkpt lat="39.694970" lon="-8.572720">
<ele>234.5</ele>
<desc>Speed 27.6 km/h Distance 61.79 km</desc>
<time>2011-05-22T11:52:19.96</time>
<name>12959</name>
<sym>Dot</sym>
</trkpt>
<trkpt lat="39.694930" lon="-8.572795">
<ele>234.5</ele>
<desc>Speed 28.4 km/h Distance 61.79 km</desc>
<time>2011-05-22T11:52:20.96</time>
<name>12960</name>
<sym>Dot</sym>
</trkpt>
<trkpt lat="39.694888" lon="-8.572870">
<ele>234.0</ele>
<desc>Speed 28.8 km/h Distance 61.80 km</desc>
<time>2011-05-22T11:52:21.95</time>
<name>12961</name>
<sym>Dot</sym>
</trkpt>
<trkpt lat="39.694847" lon="-8.572945">
<ele>234.0</ele>
<desc>Speed 29.2 km/h Distance 61.81 km</desc>
<time>2011-05-22T11:52:22.96</time>
<name>12962</name>
<sym>Dot</sym>
</trkpt>
<trkpt lat="39.694803" lon="-8.573022">
<ele>234.0</ele>
<desc>Speed 29.6 km/h Distance 61.82 km</desc>
<time>2011-05-22T11:52:23.95</time>
<name>12963</name>
<sym>Dot</sym>
</trkpt>
<trkpt lat="39.694755" lon="-8.573093">
<ele>234.0</ele>
<desc>Speed 29.5 km/h Distance 61.83 km</desc>
<time>2011-05-22T11:52:24.95</time>
<name>12964</name>
<sym>Dot</sym>
</trkpt>
<trkpt lat="39.694707" lon="-8.573163">
<ele>233.5</ele>
<desc>Speed 29.6 km/h Distance 61.84 km</desc>
<time>2011-05-22T11:52:25.94</time>
<name>12965</name>
<sym>Dot</sym>
</trkpt>
<trkpt lat="39.694655" lon="-8.573235">
<ele>233.5</ele>
<desc>Speed 30.2 km/h Distance 61.84 km</desc>
<time>2011-05-22T11:52:26.94</time>
<name>12966</name>
<sym>Dot</sym>
</trkpt>
<trkpt lat="39.694607" lon="-8.573310">
<ele>233.0</ele>
<desc>Speed 30.4 km/h Distance 61.85 km</desc>
<time>2011-05-22T11:52:27.93</time>
<name>12967</name>
<sym>Dot</sym>
</trkpt>
<trkpt lat="39.694562" lon="-8.573390">
<ele>232.5</ele>
<desc>Speed 30.6 km/h Distance 61.86 km</desc>
<time>2011-05-22T11:52:28.93</time>
<name>12968</name>
<sym>Dot</sym>
</trkpt>
<trkpt lat="39.694522" lon="-8.573473">
<ele>232.5</ele>
<desc>Speed 30.5 km/h Distance 61.87 km</desc>
<time>2011-05-22T11:52:29.93</time>
<name>12969</name>
<sym>Dot</sym>
</trkpt>
<trkpt lat="39.694490" lon="-8.573560">
<ele>232.5</ele>
<desc>Speed 30.0 km/h Distance 61.88 km</desc>
<time>2011-05-22T11:52:30.92</time>
<name>12970</name>
<sym>Dot</sym>
</trkpt>
<trkpt lat="39.694467" lon="-8.573652">
<ele>232.5</ele>
<desc>Speed 29.6 km/h Distance 61.89 km</desc>
<time>2011-05-22T11:52:31.90</time>
<name>12971</name>
<sym>Dot</sym>
</trkpt>
<trkpt lat="39.694452" lon="-8.573745">
<ele>233.0</ele>
<desc>Speed 29.3 km/h Distance 61.89 km</desc>
<time>2011-05-22T11:52:32.91</time>
<name>12972</name>
<sym>Dot</sym>
</trkpt>
<trkpt lat="39.694440" lon="-8.573835">
<ele>233.0</ele>
<desc>Speed 28.3 km/h Distance 61.90 km</desc>
<time>2011-05-22T11:52:33.91</time>
<name>12973</name>
<sym>Dot</sym>
</trkpt>
<trkpt lat="39.694428" lon="-8.573920">
<ele>233.5</ele>
<desc>Speed 26.6 km/h Distance 61.91 km</desc>
<time>2011-05-22T11:52:34.90</time>
<name>12974</name>
<sym>Dot</sym>
</trkpt>
<trkpt lat="39.694420" lon="-8.574008">
<ele>232.5</ele>
<desc>Speed 28.2 km/h Distance 61.92 km</desc>
<time>2011-05-22T11:52:35.89</time>
<name>12975</name>
<sym>Dot</sym>
</trkpt>
<trkpt lat="39.694415" lon="-8.574080">
<ele>233.0</ele>
<desc>Speed 22.4 km/h Distance 61.92 km</desc>
<time>2011-05-22T11:52:36.88</time>
<name>12976</name>
<sym>Dot</sym>
</trkpt>
<trkpt lat="39.694410" lon="-8.574147">
<ele>233.5</ele>
<desc>Speed 20.7 km/h Distance 61.93 km</desc>
<time>2011-05-22T11:52:37.88</time>
<name>12977</name>
<sym>Dot</sym>
</trkpt>
<trkpt lat="39.694408" lon="-8.574205">
<ele>233.5</ele>
<desc>Speed 18.3 km/h Distance 61.93 km</desc>
<time>2011-05-22T11:52:38.88</time>
<name>12978</name>
<sym>Dot</sym>
</trkpt>
<trkpt lat="39.694403" lon="-8.574257">
<ele>234.0</ele>
<desc>Speed 15.8 km/h Distance 61.94 km</desc>
<time>2011-05-22T11:52:39.87</time>
<name>12979</name>
<sym>Dot</sym>
</trkpt>
<trkpt lat="39.694400" lon="-8.574300">
<ele>234.0</ele>
<desc>Speed 13.5 km/h Distance 61.94 km</desc>
<time>2011-05-22T11:52:40.87</time>
<name>12980</name>
<sym>Dot</sym>
</trkpt>
<trkpt lat="39.694398" lon="-8.574333">
<ele>234.5</ele>
<desc>Speed 10.8 km/h Distance 61.94 km</desc>
<time>2011-05-22T11:52:41.86</time>
<name>12981</name>
<sym>Dot</sym>
</trkpt>
<trkpt lat="39.694400" lon="-8.574362">
<ele>235.0</ele>
<desc>Speed 8.5 km/h Distance 61.95 km</desc>
<time>2011-05-22T11:52:42.85</time>
<name>12982</name>
<sym>Dot</sym>
</trkpt>
<trkpt lat="39.694398" lon="-8.574382">
<ele>235.5</ele>
<desc>Speed 6.3 km/h Distance 61.95 km</desc>
<time>2011-05-22T11:52:43.86</time>
<name>12983</name>
<sym>Dot</sym>
</trkpt>
<trkpt lat="39.694400" lon="-8.574397">
<ele>235.5</ele>
<desc>Speed 4.2 km/h Distance 61.95 km</desc>
<time>2011-05-22T11:52:44.85</time>
<name>12984</name>
<sym>Dot</sym>
</trkpt>
<trkpt lat="39.694400" lon="-8.574408">
<ele>236.0</ele>
<desc>Speed 3.7 km/h Distance 61.95 km</desc>
<time>2011-05-22T11:52:45.84</time>
<name>12985</name>
<sym>Dot</sym>
</trkpt>
<trkpt lat="39.694400" lon="-8.574422">
<ele>236.5</ele>
<desc>Speed 4.0 km/h Distance 61.95 km</desc>
<time>2011-05-22T11:52:46.84</time>
<name>12986</name>
<sym>Dot</sym>
</trkpt>
<trkpt lat="39.694400" lon="-8.574432">
<ele>237.0</ele>
<desc>Speed 3.0 km/h Distance 61.95 km</desc>
<time>2011-05-22T11:52:47.83</time>
<name>12987</name>
<sym>Dot</sym>
</trkpt>
<trkpt lat="39.694402" lon="-8.574440">
<ele>236.5</ele>
<desc>Speed 2.4 km/h Distance 61.95 km</desc>
<time>2011-05-22T11:52:48.82</time>
<name>12988</name>
<sym>Dot</sym>
</trkpt>
<trkpt lat="39.694402" lon="-8.574450">
<ele>236.5</ele>
<desc>Speed 2.9 km/h Distance 61.95 km</desc>
<time>2011-05-22T11:52:49.82</time>
<name>12989</name>
<sym>Dot</sym>
</trkpt>
<trkpt lat="39.694402" lon="-8.574462">
<ele>237.0</ele>
<desc>Speed 3.3 km/h Distance 61.96 km</desc>
<time>2011-05-22T11:52:50.82</time>
<name>12990</name>
<sym>Dot</sym>
</trkpt>
<trkpt lat="39.694402" lon="-8.574470">
<ele>237.0</ele>
<desc>Speed 2.4 km/h Distance 61.96 km</desc>
<time>2011-05-22T11:52:51.81</time>
<name>12991</name>
<sym>Dot</sym>
</trkpt>
<trkpt lat="39.694402" lon="-8.574478">
<ele>237.0</ele>
<desc>Speed 2.7 km/h Distance 61.96 km</desc>
<time>2011-05-22T11:52:52.80</time>
<name>12992</name>
<sym>Dot</sym>
</trkpt>
<trkpt lat="39.694402" lon="-8.574492">
<ele>237.0</ele>
<desc>Speed 4.2 km/h Distance 61.96 km</desc>
<time>2011-05-22T11:52:53.80</time>
<name>12993</name>
<sym>Dot</sym>
</trkpt>
<trkpt lat="39.694402" lon="-8.574507">
<ele>237.0</ele>
<desc>Speed 4.1 km/h Distance 61.96 km</desc>
<time>2011-05-22T11:52:54.80</time>
<name>12994</name>
<sym>Dot</sym>
</trkpt>
<trkpt lat="39.694403" lon="-8.574522">
<ele>237.0</ele>
<desc>Speed 4.6 km/h Distance 61.96 km</desc>
<time>2011-05-22T11:52:55.79</time>
<name>12995</name>
<sym>Dot</sym>
</trkpt>
<trkpt lat="39.694405" lon="-8.574538">
<ele>237.0</ele>
<desc>Speed 5.4 km/h Distance 61.96 km</desc>
<time>2011-05-22T11:52:56.78</time>
<name>12996</name>
<sym>Dot</sym>
</trkpt>
<trkpt lat="39.694403" lon="-8.574558">
<ele>237.0</ele>
<desc>Speed 5.5 km/h Distance 61.96 km</desc>
<time>2011-05-22T11:52:57.78</time>
<name>12997</name>
<sym>Dot</sym>
</trkpt>
<trkpt lat="39.694402" lon="-8.574580">
<ele>237.0</ele>
<desc>Speed 6.8 km/h Distance 61.97 km</desc>
<time>2011-05-22T11:52:58.78</time>
<name>12998</name>
<sym>Dot</sym>
</trkpt>
<trkpt lat="39.694398" lon="-8.574602">
<ele>237.0</ele>
<desc>Speed 6.7 km/h Distance 61.97 km</desc>
<time>2011-05-22T11:52:59.77</time>
<name>12999</name>
<sym>Dot</sym>
</trkpt>
<trkpt lat="39.694398" lon="-8.574623">
<ele>237.0</ele>
<desc>Speed 7.0 km/h Distance 61.97 km</desc>
<time>2011-05-22T11:53:00.76</time>
<name>13000</name>
<sym>Dot</sym>
</trkpt>
<trkpt lat="39.694398" lon="-8.574647">
<ele>237.0</ele>
<desc>Speed 6.9 km/h Distance 61.97 km</desc>
<time>2011-05-22T11:53:01.76</time>
<name>13001</name>
<sym>Dot</sym>
</trkpt>
<trkpt lat="39.694402" lon="-8.574672">
<ele>237.0</ele>
<desc>Speed 7.6 km/h Distance 61.97 km</desc>
<time>2011-05-22T11:53:02.75</time>
<name>13002</name>
<sym>Dot</sym>
</trkpt>
<trkpt lat="39.694403" lon="-8.574698">
<ele>237.0</ele>
<desc>Speed 8.1 km/h Distance 61.98 km</desc>
<time>2011-05-22T11:53:03.75</time>
<name>13003</name>
<sym>Dot</sym>
</trkpt>
<trkpt lat="39.694403" lon="-8.574725">
<ele>237.0</ele>
<desc>Speed 8.1 km/h Distance 61.98 km</desc>
<time>2011-05-22T11:53:04.74</time>
<name>13004</name>
<sym>Dot</sym>
</trkpt>
<trkpt lat="39.694403" lon="-8.574755">
<ele>237.0</ele>
<desc>Speed 9.1 km/h Distance 61.98 km</desc>
<time>2011-05-22T11:53:05.74</time>
<name>13005</name>
<sym>Dot</sym>
</trkpt>
<trkpt lat="39.694403" lon="-8.574787">
<ele>237.0</ele>
<desc>Speed 9.2 km/h Distance 61.98 km</desc>
<time>2011-05-22T11:53:06.74</time>
<name>13006</name>
<sym>Dot</sym>
</trkpt>
<trkpt lat="39.694403" lon="-8.574818">
<ele>237.0</ele>
<desc>Speed 9.3 km/h Distance 61.99 km</desc>
<time>2011-05-22T11:53:07.74</time>
<name>13007</name>
<sym>Dot</sym>
</trkpt>
<trkpt lat="39.694403" lon="-8.574850">
<ele>236.5</ele>
<desc>Speed 9.3 km/h Distance 61.99 km</desc>
<time>2011-05-22T11:53:08.73</time>
<name>13008</name>
<sym>Dot</sym>
</trkpt>
<trkpt lat="39.694407" lon="-8.574882">
<ele>236.5</ele>
<desc>Speed 9.4 km/h Distance 61.99 km</desc>
<time>2011-05-22T11:53:09.73</time>
<name>13009</name>
<sym>Dot</sym>
</trkpt>
<trkpt lat="39.694410" lon="-8.574913">
<ele>236.5</ele>
<desc>Speed 9.6 km/h Distance 61.99 km</desc>
<time>2011-05-22T11:53:10.73</time>
<name>13010</name>
<sym>Dot</sym>
</trkpt>
<trkpt lat="39.694413" lon="-8.574947">
<ele>236.5</ele>
<desc>Speed 9.9 km/h Distance 62.00 km</desc>
<time>2011-05-22T11:53:11.72</time>
<name>13011</name>
<sym>Dot</sym>
</trkpt>
<trkpt lat="39.694415" lon="-8.574980">
<ele>236.5</ele>
<desc>Speed 10.2 km/h Distance 62.00 km</desc>
<time>2011-05-22T11:53:12.71</time>
<name>13012</name>
<sym>Dot</sym>
</trkpt>
<trkpt lat="39.694420" lon="-8.575013">
<ele>236.5</ele>
<desc>Speed 10.3 km/h Distance 62.00 km</desc>
<time>2011-05-22T11:53:13.71</time>
<name>13013</name>
<sym>Dot</sym>
</trkpt>
<trkpt lat="39.694427" lon="-8.575048">
<ele>236.0</ele>
<desc>Speed 10.8 km/h Distance 62.01 km</desc>
<time>2011-05-22T11:53:14.70</time>
<name>13014</name>
<sym>Dot</sym>
</trkpt>
<trkpt lat="39.694432" lon="-8.575085">
<ele>236.0</ele>
<desc>Speed 11.1 km/h Distance 62.01 km</desc>
<time>2011-05-22T11:53:15.71</time>
<name>13015</name>
<sym>Dot</sym>
</trkpt>
<trkpt lat="39.694438" lon="-8.575123">
<ele>236.0</ele>
<desc>Speed 11.9 km/h Distance 62.01 km</desc>
<time>2011-05-22T11:53:16.70</time>
<name>13016</name>
<sym>Dot</sym>
</trkpt>
<trkpt lat="39.694447" lon="-8.575167">
<ele>236.0</ele>
<desc>Speed 13.0 km/h Distance 62.02 km</desc>
<time>2011-05-22T11:53:17.70</time>
<name>13017</name>
<sym>Dot</sym>
</trkpt>
<trkpt lat="39.694452" lon="-8.575215">
<ele>235.5</ele>
<desc>Speed 14.7 km/h Distance 62.02 km</desc>
<time>2011-05-22T11:53:18.69</time>
<name>13018</name>
<sym>Dot</sym>
</trkpt>
<trkpt lat="39.694460" lon="-8.575267">
<ele>235.0</ele>
<desc>Speed 16.1 km/h Distance 62.02 km</desc>
<time>2011-05-22T11:53:19.69</time>
<name>13019</name>
<sym>Dot</sym>
</trkpt>
<trkpt lat="39.694472" lon="-8.575323">
<ele>235.0</ele>
<desc>Speed 17.8 km/h Distance 62.03 km</desc>
<time>2011-05-22T11:53:20.68</time>
<name>13020</name>
<sym>Dot</sym>
</trkpt>
<trkpt lat="39.694482" lon="-8.575388">
<ele>234.5</ele>
<desc>Speed 19.8 km/h Distance 62.04 km</desc>
<time>2011-05-22T11:53:21.67</time>
<name>13021</name>
<sym>Dot</sym>
</trkpt>
<trkpt lat="39.694487" lon="-8.575458">
<ele>234.0</ele>
<desc>Speed 21.5 km/h Distance 62.04 km</desc>
<time>2011-05-22T11:53:22.66</time>
<name>13022</name>
<sym>Dot</sym>
</trkpt>
<trkpt lat="39.694488" lon="-8.575533">
<ele>234.0</ele>
<desc>Speed 22.8 km/h Distance 62.05 km</desc>
<time>2011-05-22T11:53:23.66</time>
<name>13023</name>
<sym>Dot</sym>
</trkpt>
<trkpt lat="39.694480" lon="-8.575610">
<ele>233.5</ele>
<desc>Speed 23.4 km/h Distance 62.05 km</desc>
<time>2011-05-22T11:53:24.66</time>
<name>13024</name>
<sym>Dot</sym>
</trkpt>
<trkpt lat="39.694463" lon="-8.575683">
<ele>233.5</ele>
<desc>Speed 23.9 km/h Distance 62.06 km</desc>
<time>2011-05-22T11:53:25.65</time>
<name>13025</name>
<sym>Dot</sym>
</trkpt>
<trkpt lat="39.694437" lon="-8.575752">
<ele>233.5</ele>
<desc>Speed 23.4 km/h Distance 62.07 km</desc>
<time>2011-05-22T11:53:26.65</time>
<name>13026</name>
<sym>Dot</sym>
</trkpt>
<trkpt lat="39.694402" lon="-8.575812">
<ele>233.5</ele>
<desc>Speed 23.0 km/h Distance 62.07 km</desc>
<time>2011-05-22T11:53:27.65</time>
<name>13027</name>
<sym>Dot</sym>
</trkpt>
<trkpt lat="39.694365" lon="-8.575862">
<ele>233.5</ele>
<desc>Speed 21.2 km/h Distance 62.08 km</desc>
<time>2011-05-22T11:53:28.65</time>
<name>13028</name>
<sym>Dot</sym>
</trkpt>
<trkpt lat="39.694330" lon="-8.575905">
<ele>234.0</ele>
<desc>Speed 19.6 km/h Distance 62.09 km</desc>
<time>2011-05-22T11:53:29.65</time>
<name>13029</name>
<sym>Dot</sym>
</trkpt>
<trkpt lat="39.694300" lon="-8.575947">
<ele>234.0</ele>
<desc>Speed 18.0 km/h Distance 62.09 km</desc>
<time>2011-05-22T11:53:30.63</time>
<name>13030</name>
<sym>Dot</sym>
</trkpt>
<trkpt lat="39.694272" lon="-8.575985">
<ele>234.0</ele>
<desc>Speed 16.4 km/h Distance 62.10 km</desc>
<time>2011-05-22T11:53:31.63</time>
<name>13031</name>
<sym>Dot</sym>
</trkpt>
<trkpt lat="39.694245" lon="-8.576018">
<ele>234.0</ele>
<desc>Speed 15.0 km/h Distance 62.10 km</desc>
<time>2011-05-22T11:53:32.63</time>
<name>13032</name>
<sym>Dot</sym>
</trkpt>
<trkpt lat="39.694222" lon="-8.576050">
<ele>234.0</ele>
<desc>Speed 13.4 km/h Distance 62.10 km</desc>
<time>2011-05-22T11:53:33.63</time>
<name>13033</name>
<sym>Dot</sym>
</trkpt>
<trkpt lat="39.694198" lon="-8.576078">
<ele>234.0</ele>
<desc>Speed 13.1 km/h Distance 62.11 km</desc>
<time>2011-05-22T11:53:34.63</time>
<name>13034</name>
<sym>Dot</sym>
</trkpt>
<trkpt lat="39.694175" lon="-8.576105">
<ele>234.0</ele>
<desc>Speed 12.6 km/h Distance 62.11 km</desc>
<time>2011-05-22T11:53:35.63</time>
<name>13035</name>
<sym>Dot</sym>
</trkpt>
<trkpt lat="39.694150" lon="-8.576133">
<ele>234.0</ele>
<desc>Speed 12.9 km/h Distance 62.11 km</desc>
<time>2011-05-22T11:53:36.62</time>
<name>13036</name>
<sym>Dot</sym>
</trkpt>
<trkpt lat="39.694127" lon="-8.576160">
<ele>234.0</ele>
<desc>Speed 12.6 km/h Distance 62.12 km</desc>
<time>2011-05-22T11:53:37.61</time>
<name>13037</name>
<sym>Dot</sym>
</trkpt>
<trkpt lat="39.694105" lon="-8.576188">
<ele>234.0</ele>
<desc>Speed 12.1 km/h Distance 62.12 km</desc>
<time>2011-05-22T11:53:38.61</time>
<name>13038</name>
<sym>Dot</sym>
</trkpt>
<trkpt lat="39.694082" lon="-8.576212">
<ele>234.0</ele>
<desc>Speed 12.2 km/h Distance 62.12 km</desc>
<time>2011-05-22T11:53:39.60</time>
<name>13039</name>
<sym>Dot</sym>
</trkpt>
<trkpt lat="39.694058" lon="-8.576235">
<ele>234.0</ele>
<desc>Speed 11.6 km/h Distance 62.13 km</desc>
<time>2011-05-22T11:53:40.59</time>
<name>13040</name>
<sym>Dot</sym>
</trkpt>
<trkpt lat="39.694038" lon="-8.576258">
<ele>234.5</ele>
<desc>Speed 10.5 km/h Distance 62.13 km</desc>
<time>2011-05-22T11:53:41.59</time>
<name>13041</name>
<sym>Dot</sym>
</trkpt>
<trkpt lat="39.694022" lon="-8.576280">
<ele>234.5</ele>
<desc>Speed 10.0 km/h Distance 62.13 km</desc>
<time>2011-05-22T11:53:42.58</time>
<name>13042</name>
<sym>Dot</sym>
</trkpt>
<trkpt lat="39.694005" lon="-8.576303">
<ele>234.5</ele>
<desc>Speed 9.8 km/h Distance 62.14 km</desc>
<time>2011-05-22T11:53:43.58</time>
<name>13043</name>
<sym>Dot</sym>
</trkpt>
<trkpt lat="39.693990" lon="-8.576325">
<ele>234.5</ele>
<desc>Speed 9.2 km/h Distance 62.14 km</desc>
<time>2011-05-22T11:53:44.57</time>
<name>13044</name>
<sym>Dot</sym>
</trkpt>
<trkpt lat="39.693975" lon="-8.576347">
<ele>235.0</ele>
<desc>Speed 8.7 km/h Distance 62.14 km</desc>
<time>2011-05-22T11:53:45.56</time>
<name>13045</name>
<sym>Dot</sym>
</trkpt>
<trkpt lat="39.693962" lon="-8.576363">
<ele>235.0</ele>
<desc>Speed 7.7 km/h Distance 62.14 km</desc>
<time>2011-05-22T11:53:46.56</time>
<name>13046</name>
<sym>Dot</sym>
</trkpt>
<trkpt lat="39.693948" lon="-8.576382">
<ele>235.5</ele>
<desc>Speed 7.8 km/h Distance 62.14 km</desc>
<time>2011-05-22T11:53:47.56</time>
<name>13047</name>
<sym>Dot</sym>
</trkpt>
<trkpt lat="39.693937" lon="-8.576402">
<ele>235.5</ele>
<desc>Speed 7.8 km/h Distance 62.15 km</desc>
<time>2011-05-22T11:53:48.56</time>
<name>13048</name>
<sym>Dot</sym>
</trkpt>
<trkpt lat="39.693923" lon="-8.576422">
<ele>235.5</ele>
<desc>Speed 8.0 km/h Distance 62.15 km</desc>
<time>2011-05-22T11:53:49.56</time>
<name>13049</name>
<sym>Dot</sym>
</trkpt>
<trkpt lat="39.693907" lon="-8.576442">
<ele>235.5</ele>
<desc>Speed 8.9 km/h Distance 62.15 km</desc>
<time>2011-05-22T11:53:50.55</time>
<name>13050</name>
<sym>Dot</sym>
</trkpt>
<trkpt lat="39.693888" lon="-8.576463">
<ele>235.5</ele>
<desc>Speed 10.0 km/h Distance 62.15 km</desc>
<time>2011-05-22T11:53:51.55</time>
<name>13051</name>
<sym>Dot</sym>
</trkpt>
<trkpt lat="39.693873" lon="-8.576490">
<ele>235.5</ele>
<desc>Speed 10.5 km/h Distance 62.16 km</desc>
<time>2011-05-22T11:53:52.55</time>
<name>13052</name>
<sym>Dot</sym>
</trkpt>
<trkpt lat="39.693857" lon="-8.576520">
<ele>235.5</ele>
<desc>Speed 11.6 km/h Distance 62.16 km</desc>
<time>2011-05-22T11:53:53.55</time>
<name>13053</name>
<sym>Dot</sym>
</trkpt>
<trkpt lat="39.693840" lon="-8.576552">
<ele>235.5</ele>
<desc>Speed 11.6 km/h Distance 62.16 km</desc>
<time>2011-05-22T11:53:54.55</time>
<name>13054</name>
<sym>Dot</sym>
</trkpt>
<trkpt lat="39.693820" lon="-8.576583">
<ele>235.5</ele>
<desc>Speed 12.6 km/h Distance 62.17 km</desc>
<time>2011-05-22T11:53:55.55</time>
<name>13055</name>
<sym>Dot</sym>
</trkpt>
<trkpt lat="39.693797" lon="-8.576617">
<ele>235.0</ele>
<desc>Speed 14.4 km/h Distance 62.17 km</desc>
<time>2011-05-22T11:53:56.54</time>
<name>13056</name>
<sym>Dot</sym>
</trkpt>
<trkpt lat="39.693770" lon="-8.576652">
<ele>235.0</ele>
<desc>Speed 14.9 km/h Distance 62.18 km</desc>
<time>2011-05-22T11:53:57.54</time>
<name>13057</name>
<sym>Dot</sym>
</trkpt>
<trkpt lat="39.693743" lon="-8.576687">
<ele>234.5</ele>
<desc>Speed 15.0 km/h Distance 62.18 km</desc>
<time>2011-05-22T11:53:58.54</time>
<name>13058</name>
<sym>Dot</sym>
</trkpt>
<trkpt lat="39.693718" lon="-8.576718">
<ele>235.0</ele>
<desc>Speed 14.2 km/h Distance 62.18 km</desc>
<time>2011-05-22T11:53:59.54</time>
<name>13059</name>
<sym>Dot</sym>
</trkpt>
<trkpt lat="39.693697" lon="-8.576753">
<ele>235.0</ele>
<desc>Speed 14.1 km/h Distance 62.19 km</desc>
<time>2011-05-22T11:54:00.54</time>
<name>13060</name>
<sym>Dot</sym>
</trkpt>
<trkpt lat="39.693677" lon="-8.576787">
<ele>235.0</ele>
<desc>Speed 13.3 km/h Distance 62.19 km</desc>
<time>2011-05-22T11:54:01.53</time>
<name>13061</name>
<sym>Dot</sym>
</trkpt>
<trkpt lat="39.693658" lon="-8.576825">
<ele>234.5</ele>
<desc>Speed 14.3 km/h Distance 62.19 km</desc>
<time>2011-05-22T11:54:02.53</time>
<name>13062</name>
<sym>Dot</sym>
</trkpt>
<trkpt lat="39.693640" lon="-8.576867">
<ele>234.5</ele>
<desc>Speed 14.9 km/h Distance 62.20 km</desc>
<time>2011-05-22T11:54:03.53</time>
<name>13063</name>
<sym>Dot</sym>
</trkpt>
<trkpt lat="39.693620" lon="-8.576908">
<ele>234.5</ele>
<desc>Speed 15.0 km/h Distance 62.20 km</desc>
<time>2011-05-22T11:54:04.52</time>
<name>13064</name>
<sym>Dot</sym>
</trkpt>
<trkpt lat="39.693602" lon="-8.576950">
<ele>234.5</ele>
<desc>Speed 15.3 km/h Distance 62.21 km</desc>
<time>2011-05-22T11:54:05.52</time>
<name>13065</name>
<sym>Dot</sym>
</trkpt>
<trkpt lat="39.693583" lon="-8.576992">
<ele>234.5</ele>
<desc>Speed 14.7 km/h Distance 62.21 km</desc>
<time>2011-05-22T11:54:06.52</time>
<name>13066</name>
<sym>Dot</sym>
</trkpt>
<trkpt lat="39.693568" lon="-8.577037">
<ele>235.0</ele>
<desc>Speed 14.7 km/h Distance 62.22 km</desc>
<time>2011-05-22T11:54:07.52</time>
<name>13067</name>
<sym>Dot</sym>
</trkpt>
<trkpt lat="39.693555" lon="-8.577080">
<ele>235.0</ele>
<desc>Speed 14.4 km/h Distance 62.22 km</desc>
<time>2011-05-22T11:54:08.52</time>
<name>13068</name>
<sym>Dot</sym>
</trkpt>
<trkpt lat="39.693540" lon="-8.577120">
<ele>235.5</ele>
<desc>Speed 13.8 km/h Distance 62.22 km</desc>
<time>2011-05-22T11:54:09.50</time>
<name>13069</name>
<sym>Dot</sym>
</trkpt>
<trkpt lat="39.693523" lon="-8.577160">
<ele>235.5</ele>
<desc>Speed 13.6 km/h Distance 62.23 km</desc>
<time>2011-05-22T11:54:10.50</time>
<name>13070</name>
<sym>Dot</sym>
</trkpt>
<trkpt lat="39.693505" lon="-8.577195">
<ele>235.5</ele>
<desc>Speed 12.9 km/h Distance 62.23 km</desc>
<time>2011-05-22T11:54:11.50</time>
<name>13071</name>
<sym>Dot</sym>
</trkpt>
<trkpt lat="39.693490" lon="-8.577232">
<ele>235.5</ele>
<desc>Speed 12.6 km/h Distance 62.23 km</desc>
<time>2011-05-22T11:54:12.50</time>
<name>13072</name>
<sym>Dot</sym>
</trkpt>
<trkpt lat="39.693477" lon="-8.577268">
<ele>235.5</ele>
<desc>Speed 12.6 km/h Distance 62.24 km</desc>
<time>2011-05-22T11:54:13.50</time>
<name>13073</name>
<sym>Dot</sym>
</trkpt>
<trkpt lat="39.693462" lon="-8.577303">
<ele>235.5</ele>
<desc>Speed 12.2 km/h Distance 62.24 km</desc>
<time>2011-05-22T11:54:14.50</time>
<name>13074</name>
<sym>Dot</sym>
</trkpt>
<trkpt lat="39.693447" lon="-8.577337">
<ele>235.5</ele>
<desc>Speed 12.0 km/h Distance 62.24 km</desc>
<time>2011-05-22T11:54:15.50</time>
<name>13075</name>
<sym>Dot</sym>
</trkpt>
<trkpt lat="39.693433" lon="-8.577372">
<ele>235.5</ele>
<desc>Speed 12.0 km/h Distance 62.25 km</desc>
<time>2011-05-22T11:54:16.49</time>
<name>13076</name>
<sym>Dot</sym>
</trkpt>
<trkpt lat="39.693420" lon="-8.577405">
<ele>236.0</ele>
<desc>Speed 11.6 km/h Distance 62.25 km</desc>
<time>2011-05-22T11:54:17.48</time>
<name>13077</name>
<sym>Dot</sym>
</trkpt>
<trkpt lat="39.693408" lon="-8.577440">
<ele>236.0</ele>
<desc>Speed 11.9 km/h Distance 62.25 km</desc>
<time>2011-05-22T11:54:18.47</time>
<name>13078</name>
<sym>Dot</sym>
</trkpt>
<trkpt lat="39.693397" lon="-8.577475">
<ele>236.0</ele>
<desc>Speed 11.5 km/h Distance 62.26 km</desc>
<time>2011-05-22T11:54:19.47</time>
<name>13079</name>
<sym>Dot</sym>
</trkpt>
<trkpt lat="39.693385" lon="-8.577505">
<ele>236.5</ele>
<desc>Speed 10.8 km/h Distance 62.26 km</desc>
<time>2011-05-22T11:54:20.46</time>
<name>13080</name>
<sym>Dot</sym>
</trkpt>
<trkpt lat="39.693373" lon="-8.577537">
<ele>236.5</ele>
<desc>Speed 10.7 km/h Distance 62.26 km</desc>
<time>2011-05-22T11:54:21.46</time>
<name>13081</name>
<sym>Dot</sym>
</trkpt>
<trkpt lat="39.693362" lon="-8.577567">
<ele>237.0</ele>
<desc>Speed 10.7 km/h Distance 62.27 km</desc>
<time>2011-05-22T11:54:22.45</time>
<name>13082</name>
<sym>Dot</sym>
</trkpt>
<trkpt lat="39.693350" lon="-8.577598">
<ele>237.5</ele>
<desc>Speed 10.3 km/h Distance 62.27 km</desc>
<time>2011-05-22T11:54:23.45</time>
<name>13083</name>
<sym>Dot</sym>
</trkpt>
<trkpt lat="39.693340" lon="-8.577627">
<ele>237.5</ele>
<desc>Speed 9.7 km/h Distance 62.27 km</desc>
<time>2011-05-22T11:54:24.44</time>
<name>13084</name>
<sym>Dot</sym>
</trkpt>
<trkpt lat="39.693330" lon="-8.577655">
<ele>237.5</ele>
<desc>Speed 9.7 km/h Distance 62.27 km</desc>
<time>2011-05-22T11:54:25.44</time>
<name>13085</name>
<sym>Dot</sym>
</trkpt>
<trkpt lat="39.693318" lon="-8.577683">
<ele>238.0</ele>
<desc>Speed 9.8 km/h Distance 62.28 km</desc>
<time>2011-05-22T11:54:26.44</time>
<name>13086</name>
<sym>Dot</sym>
</trkpt>
<trkpt lat="39.693308" lon="-8.577712">
<ele>238.0</ele>
<desc>Speed 9.7 km/h Distance 62.28 km</desc>
<time>2011-05-22T11:54:27.44</time>
<name>13087</name>
<sym>Dot</sym>
</trkpt>
<trkpt lat="39.693297" lon="-8.577740">
<ele>238.0</ele>
<desc>Speed 9.9 km/h Distance 62.28 km</desc>
<time>2011-05-22T11:54:28.42</time>
<name>13088</name>
<sym>Dot</sym>
</trkpt>
<trkpt lat="39.693285" lon="-8.577770">
<ele>238.0</ele>
<desc>Speed 10.2 km/h Distance 62.29 km</desc>
<time>2011-05-22T11:54:29.43</time>
<name>13089</name>
<sym>Dot</sym>
</trkpt>
<trkpt lat="39.693275" lon="-8.577803">
<ele>238.0</ele>
<desc>Speed 10.8 km/h Distance 62.29 km</desc>
<time>2011-05-22T11:54:30.41</time>
<name>13090</name>
<sym>Dot</sym>
</trkpt>
<trkpt lat="39.693263" lon="-8.577837">
<ele>238.0</ele>
<desc>Speed 11.0 km/h Distance 62.29 km</desc>
<time>2011-05-22T11:54:31.40</time>
<name>13091</name>
<sym>Dot</sym>
</trkpt>
<trkpt lat="39.693252" lon="-8.577870">
<ele>237.5</ele>
<desc>Speed 11.1 km/h Distance 62.30 km</desc>
<time>2011-05-22T11:54:32.40</time>
<name>13092</name>
<sym>Dot</sym>
</trkpt>
<trkpt lat="39.693237" lon="-8.577903">
<ele>237.5</ele>
<desc>Speed 11.7 km/h Distance 62.30 km</desc>
<time>2011-05-22T11:54:33.40</time>
<name>13093</name>
<sym>Dot</sym>
</trkpt>
<trkpt lat="39.693223" lon="-8.577940">
<ele>237.0</ele>
<desc>Speed 12.2 km/h Distance 62.30 km</desc>
<time>2011-05-22T11:54:34.40</time>
<name>13094</name>
<sym>Dot</sym>
</trkpt>
<trkpt lat="39.693207" lon="-8.577977">
<ele>237.0</ele>
<desc>Speed 12.6 km/h Distance 62.31 km</desc>
<time>2011-05-22T11:54:35.40</time>
<name>13095</name>
<sym>Dot</sym>
</trkpt>
<trkpt lat="39.693192" lon="-8.578015">
<ele>237.0</ele>
<desc>Speed 13.3 km/h Distance 62.31 km</desc>
<time>2011-05-22T11:54:36.40</time>
<name>13096</name>
<sym>Dot</sym>
</trkpt>
<trkpt lat="39.693177" lon="-8.578055">
<ele>237.0</ele>
<desc>Speed 13.6 km/h Distance 62.31 km</desc>
<time>2011-05-22T11:54:37.39</time>
<name>13097</name>
<sym>Dot</sym>
</trkpt>
<trkpt lat="39.693160" lon="-8.578095">
<ele>236.5</ele>
<desc>Speed 13.7 km/h Distance 62.32 km</desc>
<time>2011-05-22T11:54:38.39</time>
<name>13098</name>
<sym>Dot</sym>
</trkpt>
<trkpt lat="39.693140" lon="-8.578135">
<ele>236.5</ele>
<desc>Speed 14.0 km/h Distance 62.32 km</desc>
<time>2011-05-22T11:54:39.39</time>
<name>13099</name>
<sym>Dot</sym>
</trkpt>
<trkpt lat="39.693122" lon="-8.578175">
<ele>236.0</ele>
<desc>Speed 14.2 km/h Distance 62.33 km</desc>
<time>2011-05-22T11:54:40.39</time>
<name>13100</name>
<sym>Dot</sym>
</trkpt>
<trkpt lat="39.693102" lon="-8.578215">
<ele>235.5</ele>
<desc>Speed 14.3 km/h Distance 62.33 km</desc>
<time>2011-05-22T11:54:41.39</time>
<name>13101</name>
<sym>Dot</sym>
</trkpt>
<trkpt lat="39.693080" lon="-8.578255">
<ele>235.5</ele>
<desc>Speed 14.4 km/h Distance 62.33 km</desc>
<time>2011-05-22T11:54:42.39</time>
<name>13102</name>
<sym>Dot</sym>
</trkpt>
<trkpt lat="39.693058" lon="-8.578297">
<ele>235.0</ele>
<desc>Speed 14.9 km/h Distance 62.34 km</desc>
<time>2011-05-22T11:54:43.37</time>
<name>13103</name>
<sym>Dot</sym>
</trkpt>
<trkpt lat="39.693037" lon="-8.578337">
<ele>235.0</ele>
<desc>Speed 14.9 km/h Distance 62.34 km</desc>
<time>2011-05-22T11:54:44.37</time>
<name>13104</name>
<sym>Dot</sym>
</trkpt>
<trkpt lat="39.693015" lon="-8.578377">
<ele>235.0</ele>
<desc>Speed 15.1 km/h Distance 62.35 km</desc>
<time>2011-05-22T11:54:45.37</time>
<name>13105</name>
<sym>Dot</sym>
</trkpt>
<trkpt lat="39.692993" lon="-8.578417">
<ele>235.0</ele>
<desc>Speed 15.1 km/h Distance 62.35 km</desc>
<time>2011-05-22T11:54:46.36</time>
<name>13106</name>
<sym>Dot</sym>
</trkpt>
<trkpt lat="39.692970" lon="-8.578457">
<ele>235.0</ele>
<desc>Speed 15.2 km/h Distance 62.35 km</desc>
<time>2011-05-22T11:54:47.36</time>
<name>13107</name>
<sym>Dot</sym>
</trkpt>
<trkpt lat="39.692948" lon="-8.578498">
<ele>235.0</ele>
<desc>Speed 15.3 km/h Distance 62.36 km</desc>
<time>2011-05-22T11:54:48.36</time>
<name>13108</name>
<sym>Dot</sym>
</trkpt>
<trkpt lat="39.692928" lon="-8.578538">
<ele>235.0</ele>
<desc>Speed 14.9 km/h Distance 62.36 km</desc>
<time>2011-05-22T11:54:49.35</time>
<name>13109</name>
<sym>Dot</sym>
</trkpt>
<trkpt lat="39.692908" lon="-8.578578">
<ele>235.0</ele>
<desc>Speed 14.5 km/h Distance 62.37 km</desc>
<time>2011-05-22T11:54:50.35</time>
<name>13110</name>
<sym>Dot</sym>
</trkpt>
<trkpt lat="39.692888" lon="-8.578617">
<ele>235.0</ele>
<desc>Speed 14.2 km/h Distance 62.37 km</desc>
<time>2011-05-22T11:54:51.35</time>
<name>13111</name>
<sym>Dot</sym>
</trkpt>
<trkpt lat="39.692868" lon="-8.578652">
<ele>235.0</ele>
<desc>Speed 13.5 km/h Distance 62.37 km</desc>
<time>2011-05-22T11:54:52.34</time>
<name>13112</name>
<sym>Dot</sym>
</trkpt>
<trkpt lat="39.692850" lon="-8.578685">
<ele>235.5</ele>
<desc>Speed 12.5 km/h Distance 62.38 km</desc>
<time>2011-05-22T11:54:53.34</time>
<name>13113</name>
<sym>Dot</sym>
</trkpt>
<trkpt lat="39.692833" lon="-8.578717">
<ele>235.5</ele>
<desc>Speed 11.8 km/h Distance 62.38 km</desc>
<time>2011-05-22T11:54:54.33</time>
<name>13114</name>
<sym>Dot</sym>
</trkpt>
<trkpt lat="39.692817" lon="-8.578748">
<ele>235.5</ele>
<desc>Speed 11.7 km/h Distance 62.38 km</desc>
<time>2011-05-22T11:54:55.33</time>
<name>13115</name>
<sym>Dot</sym>
</trkpt>
<trkpt lat="39.692800" lon="-8.578777">
<ele>236.0</ele>
<desc>Speed 11.3 km/h Distance 62.39 km</desc>
<time>2011-05-22T11:54:56.32</time>
<name>13116</name>
<sym>Dot</sym>
</trkpt>
<trkpt lat="39.692785" lon="-8.578808">
<ele>236.5</ele>
<desc>Speed 11.4 km/h Distance 62.39 km</desc>
<time>2011-05-22T11:54:57.32</time>
<name>13117</name>
<sym>Dot</sym>
</trkpt>
<trkpt lat="39.692770" lon="-8.578842">
<ele>236.5</ele>
<desc>Speed 11.7 km/h Distance 62.39 km</desc>
<time>2011-05-22T11:54:58.32</time>
<name>13118</name>
<sym>Dot</sym>
</trkpt>
<trkpt lat="39.692755" lon="-8.578875">
<ele>236.5</ele>
<desc>Speed 12.2 km/h Distance 62.40 km</desc>
<time>2011-05-22T11:54:59.32</time>
<name>13119</name>
<sym>Dot</sym>
</trkpt>
<trkpt lat="39.692740" lon="-8.578912">
<ele>236.0</ele>
<desc>Speed 12.6 km/h Distance 62.40 km</desc>
<time>2011-05-22T11:55:00.31</time>
<name>13120</name>
<sym>Dot</sym>
</trkpt>
<trkpt lat="39.692727" lon="-8.578952">
<ele>236.0</ele>
<desc>Speed 13.3 km/h Distance 62.40 km</desc>
<time>2011-05-22T11:55:01.31</time>
<name>13121</name>
<sym>Dot</sym>
</trkpt>
<trkpt lat="39.692713" lon="-8.578993">
<ele>235.5</ele>
<desc>Speed 14.3 km/h Distance 62.41 km</desc>
<time>2011-05-22T11:55:02.31</time>
<name>13122</name>
<sym>Dot</sym>
</trkpt>
<trkpt lat="39.692698" lon="-8.579040">
<ele>235.5</ele>
<desc>Speed 15.6 km/h Distance 62.41 km</desc>
<time>2011-05-22T11:55:03.30</time>
<name>13123</name>
<sym>Dot</sym>
</trkpt>
<trkpt lat="39.692682" lon="-8.579092">
<ele>235.5</ele>
<desc>Speed 17.0 km/h Distance 62.42 km</desc>
<time>2011-05-22T11:55:04.30</time>
<name>13124</name>
<sym>Dot</sym>
</trkpt>
<trkpt lat="39.692663" lon="-8.579147">
<ele>235.0</ele>
<desc>Speed 18.0 km/h Distance 62.42 km</desc>
<time>2011-05-22T11:55:05.30</time>
<name>13125</name>
<sym>Dot</sym>
</trkpt>
<trkpt lat="39.692647" lon="-8.579208">
<ele>234.5</ele>
<desc>Speed 19.5 km/h Distance 62.43 km</desc>
<time>2011-05-22T11:55:06.30</time>
<name>13126</name>
<sym>Dot</sym>
</trkpt>
<trkpt lat="39.692632" lon="-8.579273">
<ele>234.5</ele>
<desc>Speed 20.6 km/h Distance 62.43 km</desc>
<time>2011-05-22T11:55:07.30</time>
<name>13127</name>
<sym>Dot</sym>
</trkpt>
<trkpt lat="39.692618" lon="-8.579345">
<ele>234.0</ele>
<desc>Speed 22.5 km/h Distance 62.44 km</desc>
<time>2011-05-22T11:55:08.30</time>
<name>13128</name>
<sym>Dot</sym>
</trkpt>
<trkpt lat="39.692603" lon="-8.579422">
<ele>233.5</ele>
<desc>Speed 24.6 km/h Distance 62.45 km</desc>
<time>2011-05-22T11:55:09.30</time>
<name>13129</name>
<sym>Dot</sym>
</trkpt>
<trkpt lat="39.692587" lon="-8.579507">
<ele>232.5</ele>
<desc>Speed 26.5 km/h Distance 62.46 km</desc>
<time>2011-05-22T11:55:10.30</time>
<name>13130</name>
<sym>Dot</sym>
</trkpt>
<trkpt lat="39.692570" lon="-8.579598">
<ele>232.0</ele>
<desc>Speed 28.9 km/h Distance 62.46 km</desc>
<time>2011-05-22T11:55:11.30</time>
<name>13131</name>
<sym>Dot</sym>
</trkpt>
<trkpt lat="39.692552" lon="-8.579698">
<ele>231.0</ele>
<desc>Speed 31.4 km/h Distance 62.47 km</desc>
<time>2011-05-22T11:55:12.28</time>
<name>13132</name>
<sym>Dot</sym>
</trkpt>
<trkpt lat="39.692533" lon="-8.579807">
<ele>229.5</ele>
<desc>Speed 33.7 km/h Distance 62.48 km</desc>
<time>2011-05-22T11:55:13.28</time>
<name>13133</name>
<sym>Dot</sym>
</trkpt>
<trkpt lat="39.692513" lon="-8.579922">
<ele>228.5</ele>
<desc>Speed 35.9 km/h Distance 62.49 km</desc>
<time>2011-05-22T11:55:14.29</time>
<name>13134</name>
<sym>Dot</sym>
</trkpt>
<trkpt lat="39.692493" lon="-8.580043">
<ele>227.5</ele>
<desc>Speed 38.2 km/h Distance 62.50 km</desc>
<time>2011-05-22T11:55:15.28</time>
<name>13135</name>
<sym>Dot</sym>
</trkpt>
<trkpt lat="39.692473" lon="-8.580172">
<ele>226.0</ele>
<desc>Speed 40.3 km/h Distance 62.51 km</desc>
<time>2011-05-22T11:55:16.28</time>
<name>13136</name>
<sym>Dot</sym>
</trkpt>
<trkpt lat="39.692455" lon="-8.580307">
<ele>224.5</ele>
<desc>Speed 42.0 km/h Distance 62.53 km</desc>
<time>2011-05-22T11:55:17.26</time>
<name>13137</name>
<sym>Dot</sym>
</trkpt>
<trkpt lat="39.692433" lon="-8.580443">
<ele>223.5</ele>
<desc>Speed 43.1 km/h Distance 62.54 km</desc>
<time>2011-05-22T11:55:18.26</time>
<name>13138</name>
<sym>Dot</sym>
</trkpt>
<trkpt lat="39.692410" lon="-8.580582">
<ele>223.5</ele>
<desc>Speed 43.5 km/h Distance 62.55 km</desc>
<time>2011-05-22T11:55:19.25</time>
<name>13139</name>
<sym>Dot</sym>
</trkpt>
<trkpt lat="39.692390" lon="-8.580717">
<ele>223.5</ele>
<desc>Speed 42.2 km/h Distance 62.56 km</desc>
<time>2011-05-22T11:55:20.25</time>
<name>13140</name>
<sym>Dot</sym>
</trkpt>
<trkpt lat="39.692367" lon="-8.580843">
<ele>223.5</ele>
<desc>Speed 39.8 km/h Distance 62.57 km</desc>
<time>2011-05-22T11:55:21.24</time>
<name>13141</name>
<sym>Dot</sym>
</trkpt>
<trkpt lat="39.692342" lon="-8.580958">
<ele>224.0</ele>
<desc>Speed 37.1 km/h Distance 62.58 km</desc>
<time>2011-05-22T11:55:22.24</time>
<name>13142</name>
<sym>Dot</sym>
</trkpt>
<trkpt lat="39.692310" lon="-8.581062">
<ele>224.5</ele>
<desc>Speed 33.8 km/h Distance 62.59 km</desc>
<time>2011-05-22T11:55:23.24</time>
<name>13143</name>
<sym>Dot</sym>
</trkpt>
<trkpt lat="39.692277" lon="-8.581147">
<ele>225.5</ele>
<desc>Speed 29.6 km/h Distance 62.60 km</desc>
<time>2011-05-22T11:55:24.23</time>
<name>13144</name>
<sym>Dot</sym>
</trkpt>
<trkpt lat="39.692242" lon="-8.581217">
<ele>225.5</ele>
<desc>Speed 25.9 km/h Distance 62.61 km</desc>
<time>2011-05-22T11:55:25.23</time>
<name>13145</name>
<sym>Dot</sym>
</trkpt>
<trkpt lat="39.692207" lon="-8.581272">
<ele>226.0</ele>
<desc>Speed 21.9 km/h Distance 62.61 km</desc>
<time>2011-05-22T11:55:26.23</time>
<name>13146</name>
<sym>Dot</sym>
</trkpt>
<trkpt lat="39.692177" lon="-8.581317">
<ele>226.5</ele>
<desc>Speed 18.7 km/h Distance 62.62 km</desc>
<time>2011-05-22T11:55:27.23</time>
<name>13147</name>
<sym>Dot</sym>
</trkpt>
<trkpt lat="39.692148" lon="-8.581355">
<ele>227.0</ele>
<desc>Speed 16.4 km/h Distance 62.62 km</desc>
<time>2011-05-22T11:55:28.22</time>
<name>13148</name>
<sym>Dot</sym>
</trkpt>
<trkpt lat="39.692122" lon="-8.581385">
<ele>227.5</ele>
<desc>Speed 14.0 km/h Distance 62.63 km</desc>
<time>2011-05-22T11:55:29.22</time>
<name>13149</name>
<sym>Dot</sym>
</trkpt>
<trkpt lat="39.692098" lon="-8.581408">
<ele>227.5</ele>
<desc>Speed 12.3 km/h Distance 62.63 km</desc>
<time>2011-05-22T11:55:30.21</time>
<name>13150</name>
<sym>Dot</sym>
</trkpt>
<trkpt lat="39.692077" lon="-8.581428">
<ele>228.5</ele>
<desc>Speed 10.4 km/h Distance 62.63 km</desc>
<time>2011-05-22T11:55:31.20</time>
<name>13151</name>
<sym>Dot</sym>
</trkpt>
<trkpt lat="39.692055" lon="-8.581445">
<ele>229.0</ele>
<desc>Speed 10.6 km/h Distance 62.64 km</desc>
<time>2011-05-22T11:55:32.20</time>
<name>13152</name>
<sym>Dot</sym>
</trkpt>
<trkpt lat="39.692033" lon="-8.581462">
<ele>229.0</ele>
<desc>Speed 9.9 km/h Distance 62.64 km</desc>
<time>2011-05-22T11:55:33.19</time>
<name>13153</name>
<sym>Dot</sym>
</trkpt>
<trkpt lat="39.692015" lon="-8.581478">
<ele>230.0</ele>
<desc>Speed 9.3 km/h Distance 62.64 km</desc>
<time>2011-05-22T11:55:34.19</time>
<name>13154</name>
<sym>Dot</sym>
</trkpt>
<trkpt lat="39.691997" lon="-8.581493">
<ele>230.5</ele>
<desc>Speed 9.3 km/h Distance 62.64 km</desc>
<time>2011-05-22T11:55:35.19</time>
<name>13155</name>
<sym>Dot</sym>
</trkpt>
<trkpt lat="39.691977" lon="-8.581512">
<ele>231.0</ele>
<desc>Speed 9.5 km/h Distance 62.65 km</desc>
<time>2011-05-22T11:55:36.19</time>
<name>13156</name>
<sym>Dot</sym>
</trkpt>
<trkpt lat="39.691958" lon="-8.581530">
<ele>231.5</ele>
<desc>Speed 10.0 km/h Distance 62.65 km</desc>
<time>2011-05-22T11:55:37.19</time>
<name>13157</name>
<sym>Dot</sym>
</trkpt>
<trkpt lat="39.691940" lon="-8.581547">
<ele>231.5</ele>
<desc>Speed 8.7 km/h Distance 62.65 km</desc>
<time>2011-05-22T11:55:38.18</time>
<name>13158</name>
<sym>Dot</sym>
</trkpt>
<trkpt lat="39.691925" lon="-8.581562">
<ele>232.0</ele>
<desc>Speed 8.0 km/h Distance 62.65 km</desc>
<time>2011-05-22T11:55:39.18</time>
<name>13159</name>
<sym>Dot</sym>
</trkpt>
<trkpt lat="39.691907" lon="-8.581580">
<ele>232.0</ele>
<desc>Speed 9.4 km/h Distance 62.66 km</desc>
<time>2011-05-22T11:55:40.17</time>
<name>13160</name>
<sym>Dot</sym>
</trkpt>
<trkpt lat="39.691888" lon="-8.581600">
<ele>232.0</ele>
<desc>Speed 9.3 km/h Distance 62.66 km</desc>
<time>2011-05-22T11:55:41.17</time>
<name>13161</name>
<sym>Dot</sym>
</trkpt>
<trkpt lat="39.691872" lon="-8.581618">
<ele>232.5</ele>
<desc>Speed 9.5 km/h Distance 62.66 km</desc>
<time>2011-05-22T11:55:42.17</time>
<name>13162</name>
<sym>Dot</sym>
</trkpt>
<trkpt lat="39.691855" lon="-8.581640">
<ele>233.0</ele>
<desc>Speed 9.8 km/h Distance 62.66 km</desc>
<time>2011-05-22T11:55:43.17</time>
<name>13163</name>
<sym>Dot</sym>
</trkpt>
<trkpt lat="39.691838" lon="-8.581663">
<ele>233.0</ele>
<desc>Speed 9.7 km/h Distance 62.67 km</desc>
<time>2011-05-22T11:55:44.17</time>
<name>13164</name>
<sym>Dot</sym>
</trkpt>
<trkpt lat="39.691822" lon="-8.581687">
<ele>233.0</ele>
<desc>Speed 10.0 km/h Distance 62.67 km</desc>
<time>2011-05-22T11:55:45.17</time>
<name>13165</name>
<sym>Dot</sym>
</trkpt>
<trkpt lat="39.691805" lon="-8.581710">
<ele>233.5</ele>
<desc>Speed 10.0 km/h Distance 62.67 km</desc>
<time>2011-05-22T11:55:46.17</time>
<name>13166</name>
<sym>Dot</sym>
</trkpt>
<trkpt lat="39.691788" lon="-8.581735">
<ele>234.0</ele>
<desc>Speed 10.7 km/h Distance 62.67 km</desc>
<time>2011-05-22T11:55:47.16</time>
<name>13167</name>
<sym>Dot</sym>
</trkpt>
<trkpt lat="39.691772" lon="-8.581765">
<ele>234.0</ele>
<desc>Speed 11.4 km/h Distance 62.68 km</desc>
<time>2011-05-22T11:55:48.15</time>
<name>13168</name>
<sym>Dot</sym>
</trkpt>
<trkpt lat="39.691753" lon="-8.581800">
<ele>234.0</ele>
<desc>Speed 13.0 km/h Distance 62.68 km</desc>
<time>2011-05-22T11:55:49.15</time>
<name>13169</name>
<sym>Dot</sym>
</trkpt>
<trkpt lat="39.691735" lon="-8.581838">
<ele>234.0</ele>
<desc>Speed 14.0 km/h Distance 62.69 km</desc>
<time>2011-05-22T11:55:50.14</time>
<name>13170</name>
<sym>Dot</sym>
</trkpt>
<trkpt lat="39.691717" lon="-8.581880">
<ele>234.0</ele>
<desc>Speed 14.7 km/h Distance 62.69 km</desc>
<time>2011-05-22T11:55:51.13</time>
<name>13171</name>
<sym>Dot</sym>
</trkpt>
<trkpt lat="39.691698" lon="-8.581922">
<ele>234.5</ele>
<desc>Speed 14.8 km/h Distance 62.69 km</desc>
<time>2011-05-22T11:55:52.13</time>
<name>13172</name>
<sym>Dot</sym>
</trkpt>
<trkpt lat="39.691678" lon="-8.581965">
<ele>234.0</ele>
<desc>Speed 15.4 km/h Distance 62.70 km</desc>
<time>2011-05-22T11:55:53.13</time>
<name>13173</name>
<sym>Dot</sym>
</trkpt>
<trkpt lat="39.691658" lon="-8.582008">
<ele>234.0</ele>
<desc>Speed 15.8 km/h Distance 62.70 km</desc>
<time>2011-05-22T11:55:54.12</time>
<name>13174</name>
<sym>Dot</sym>
</trkpt>
<trkpt lat="39.691637" lon="-8.582052">
<ele>234.0</ele>
<desc>Speed 16.0 km/h Distance 62.71 km</desc>
<time>2011-05-22T11:55:55.13</time>
<name>13175</name>
<sym>Dot</sym>
</trkpt>
<trkpt lat="39.691617" lon="-8.582097">
<ele>234.0</ele>
<desc>Speed 16.2 km/h Distance 62.71 km</desc>
<time>2011-05-22T11:55:56.12</time>
<name>13176</name>
<sym>Dot</sym>
</trkpt>
<trkpt lat="39.691595" lon="-8.582143">
<ele>234.0</ele>
<desc>Speed 16.6 km/h Distance 62.72 km</desc>
<time>2011-05-22T11:55:57.12</time>
<name>13177</name>
<sym>Dot</sym>
</trkpt>
<trkpt lat="39.691573" lon="-8.582192">
<ele>234.0</ele>
<desc>Speed 17.1 km/h Distance 62.72 km</desc>
<time>2011-05-22T11:55:58.11</time>
<name>13178</name>
<sym>Dot</sym>
</trkpt>
<trkpt lat="39.691553" lon="-8.582240">
<ele>234.0</ele>
<desc>Speed 17.2 km/h Distance 62.73 km</desc>
<time>2011-05-22T11:55:59.10</time>
<name>13179</name>
<sym>Dot</sym>
</trkpt>
<trkpt lat="39.691535" lon="-8.582292">
<ele>234.0</ele>
<desc>Speed 17.7 km/h Distance 62.73 km</desc>
<time>2011-05-22T11:56:00.09</time>
<name>13180</name>
<sym>Dot</sym>
</trkpt>
<trkpt lat="39.691515" lon="-8.582345">
<ele>233.5</ele>
<desc>Speed 18.3 km/h Distance 62.74 km</desc>
<time>2011-05-22T11:56:01.09</time>
<name>13181</name>
<sym>Dot</sym>
</trkpt>
<trkpt lat="39.691495" lon="-8.582400">
<ele>233.5</ele>
<desc>Speed 18.9 km/h Distance 62.74 km</desc>
<time>2011-05-22T11:56:02.09</time>
<name>13182</name>
<sym>Dot</sym>
</trkpt>
<trkpt lat="39.691472" lon="-8.582455">
<ele>233.5</ele>
<desc>Speed 19.4 km/h Distance 62.75 km</desc>
<time>2011-05-22T11:56:03.09</time>
<name>13183</name>
<sym>Dot</sym>
</trkpt>
<trkpt lat="39.691450" lon="-8.582512">
<ele>233.5</ele>
<desc>Speed 19.8 km/h Distance 62.75 km</desc>
<time>2011-05-22T11:56:04.08</time>
<name>13184</name>
<sym>Dot</sym>
</trkpt>
<trkpt lat="39.691427" lon="-8.582572">
<ele>233.0</ele>
<desc>Speed 20.5 km/h Distance 62.76 km</desc>
<time>2011-05-22T11:56:05.08</time>
<name>13185</name>
<sym>Dot</sym>
</trkpt>
<trkpt lat="39.691405" lon="-8.582635">
<ele>233.0</ele>
<desc>Speed 21.1 km/h Distance 62.76 km</desc>
<time>2011-05-22T11:56:06.08</time>
<name>13186</name>
<sym>Dot</sym>
</trkpt>
<trkpt lat="39.691383" lon="-8.582700">
<ele>233.0</ele>
<desc>Speed 21.9 km/h Distance 62.77 km</desc>
<time>2011-05-22T11:56:07.08</time>
<name>13187</name>
<sym>Dot</sym>
</trkpt>
<trkpt lat="39.691362" lon="-8.582768">
<ele>233.0</ele>
<desc>Speed 22.6 km/h Distance 62.78 km</desc>
<time>2011-05-22T11:56:08.07</time>
<name>13188</name>
<sym>Dot</sym>
</trkpt>
<trkpt lat="39.691343" lon="-8.582840">
<ele>232.5</ele>
<desc>Speed 23.3 km/h Distance 62.78 km</desc>
<time>2011-05-22T11:56:09.07</time>
<name>13189</name>
<sym>Dot</sym>
</trkpt>
<trkpt lat="39.691330" lon="-8.582913">
<ele>232.5</ele>
<desc>Speed 23.8 km/h Distance 62.79 km</desc>
<time>2011-05-22T11:56:10.08</time>
<name>13190</name>
<sym>Dot</sym>
</trkpt>
<trkpt lat="39.691318" lon="-8.582990">
<ele>232.5</ele>
<desc>Speed 23.8 km/h Distance 62.80 km</desc>
<time>2011-05-22T11:56:11.08</time>
<name>13191</name>
<sym>Dot</sym>
</trkpt>
<trkpt lat="39.691310" lon="-8.583065">
<ele>232.5</ele>
<desc>Speed 23.4 km/h Distance 62.80 km</desc>
<time>2011-05-22T11:56:12.07</time>
<name>13192</name>
<sym>Dot</sym>
</trkpt>
<trkpt lat="39.691298" lon="-8.583138">
<ele>232.5</ele>
<desc>Speed 22.7 km/h Distance 62.81 km</desc>
<time>2011-05-22T11:56:13.07</time>
<name>13193</name>
<sym>Dot</sym>
</trkpt>
<trkpt lat="39.691287" lon="-8.583207">
<ele>232.5</ele>
<desc>Speed 21.6 km/h Distance 62.81 km</desc>
<time>2011-05-22T11:56:14.07</time>
<name>13194</name>
<sym>Dot</sym>
</trkpt>
<trkpt lat="39.691278" lon="-8.583273">
<ele>232.5</ele>
<desc>Speed 20.8 km/h Distance 62.82 km</desc>
<time>2011-05-22T11:56:15.07</time>
<name>13195</name>
<sym>Dot</sym>
</trkpt>
<trkpt lat="39.691273" lon="-8.583340">
<ele>232.5</ele>
<desc>Speed 20.0 km/h Distance 62.83 km</desc>
<time>2011-05-22T11:56:16.07</time>
<name>13196</name>
<sym>Dot</sym>
</trkpt>
<trkpt lat="39.691268" lon="-8.583402">
<ele>232.5</ele>
<desc>Speed 19.3 km/h Distance 62.83 km</desc>
<time>2011-05-22T11:56:17.06</time>
<name>13197</name>
<sym>Dot</sym>
</trkpt>
<trkpt lat="39.691267" lon="-8.583463">
<ele>232.5</ele>
<desc>Speed 18.7 km/h Distance 62.84 km</desc>
<time>2011-05-22T11:56:18.06</time>
<name>13198</name>
<sym>Dot</sym>
</trkpt>
<trkpt lat="39.691272" lon="-8.583523">
<ele>232.0</ele>
<desc>Speed 18.9 km/h Distance 62.84 km</desc>
<time>2011-05-22T11:56:19.06</time>
<name>13199</name>
<sym>Dot</sym>
</trkpt>
<trkpt lat="39.691282" lon="-8.583585">
<ele>232.0</ele>
<desc>Speed 19.1 km/h Distance 62.85 km</desc>
<time>2011-05-22T11:56:20.05</time>
<name>13200</name>
<sym>Dot</sym>
</trkpt>
<trkpt lat="39.691292" lon="-8.583647">
<ele>232.0</ele>
<desc>Speed 19.7 km/h Distance 62.85 km</desc>
<time>2011-05-22T11:56:21.05</time>
<name>13201</name>
<sym>Dot</sym>
</trkpt>
<trkpt lat="39.691297" lon="-8.583715">
<ele>232.0</ele>
<desc>Speed 20.7 km/h Distance 62.86 km</desc>
<time>2011-05-22T11:56:22.05</time>
<name>13202</name>
<sym>Dot</sym>
</trkpt>
<trkpt lat="39.691302" lon="-8.583783">
<ele>231.5</ele>
<desc>Speed 21.3 km/h Distance 62.86 km</desc>
<time>2011-05-22T11:56:23.05</time>
<name>13203</name>
<sym>Dot</sym>
</trkpt>
<trkpt lat="39.691303" lon="-8.583855">
<ele>231.5</ele>
<desc>Speed 22.0 km/h Distance 62.87 km</desc>
<time>2011-05-22T11:56:24.04</time>
<name>13204</name>
<sym>Dot</sym>
</trkpt>
<trkpt lat="39.691307" lon="-8.583928">
<ele>231.0</ele>
<desc>Speed 22.4 km/h Distance 62.88 km</desc>
<time>2011-05-22T11:56:25.03</time>
<name>13205</name>
<sym>Dot</sym>
</trkpt>
<trkpt lat="39.691312" lon="-8.584003">
<ele>231.0</ele>
<desc>Speed 23.2 km/h Distance 62.88 km</desc>
<time>2011-05-22T11:56:26.04</time>
<name>13206</name>
<sym>Dot</sym>
</trkpt>
<trkpt lat="39.691313" lon="-8.584083">
<ele>230.5</ele>
<desc>Speed 24.2 km/h Distance 62.89 km</desc>
<time>2011-05-22T11:56:27.02</time>
<name>13207</name>
<sym>Dot</sym>
</trkpt>
<trkpt lat="39.691317" lon="-8.584165">
<ele>230.0</ele>
<desc>Speed 24.9 km/h Distance 62.90 km</desc>
<time>2011-05-22T11:56:28.02</time>
<name>13208</name>
<sym>Dot</sym>
</trkpt>
<trkpt lat="39.691322" lon="-8.584248">
<ele>229.5</ele>
<desc>Speed 25.6 km/h Distance 62.90 km</desc>
<time>2011-05-22T11:56:29.03</time>
<name>13209</name>
<sym>Dot</sym>
</trkpt>
<trkpt lat="39.691325" lon="-8.584333">
<ele>229.5</ele>
<desc>Speed 26.2 km/h Distance 62.91 km</desc>
<time>2011-05-22T11:56:30.01</time>
<name>13210</name>
<sym>Dot</sym>
</trkpt>
<trkpt lat="39.691327" lon="-8.584418">
<ele>229.5</ele>
<desc>Speed 26.5 km/h Distance 62.92 km</desc>
<time>2011-05-22T11:56:31.00</time>
<name>13211</name>
<sym>Dot</sym>
</trkpt>
<trkpt lat="39.691332" lon="-8.584505">
<ele>229.0</ele>
<desc>Speed 26.4 km/h Distance 62.93 km</desc>
<time>2011-05-22T11:56:32.00</time>
<name>13212</name>
<sym>Dot</sym>
</trkpt>
<trkpt lat="39.691340" lon="-8.584590">
<ele>229.0</ele>
<desc>Speed 26.7 km/h Distance 62.93 km</desc>
<time>2011-05-22T11:56:32.99</time>
<name>13213</name>
<sym>Dot</sym>
</trkpt>
<trkpt lat="39.691348" lon="-8.584677">
<ele>229.0</ele>
<desc>Speed 26.6 km/h Distance 62.94 km</desc>
<time>2011-05-22T11:56:33.99</time>
<name>13214</name>
<sym>Dot</sym>
</trkpt>
<trkpt lat="39.691355" lon="-8.584760">
<ele>229.0</ele>
<desc>Speed 26.0 km/h Distance 62.95 km</desc>
<time>2011-05-22T11:56:34.99</time>
<name>13215</name>
<sym>Dot</sym>
</trkpt>
<trkpt lat="39.691358" lon="-8.584845">
<ele>228.5</ele>
<desc>Speed 25.9 km/h Distance 62.96 km</desc>
<time>2011-05-22T11:56:35.98</time>
<name>13216</name>
<sym>Dot</sym>
</trkpt>
<trkpt lat="39.691362" lon="-8.584927">
<ele>228.5</ele>
<desc>Speed 25.4 km/h Distance 62.96 km</desc>
<time>2011-05-22T11:56:36.98</time>
<name>13217</name>
<sym>Dot</sym>
</trkpt>
<trkpt lat="39.691362" lon="-8.585008">
<ele>229.0</ele>
<desc>Speed 24.9 km/h Distance 62.97 km</desc>
<time>2011-05-22T11:56:37.98</time>
<name>13218</name>
<sym>Dot</sym>
</trkpt>
<trkpt lat="39.691363" lon="-8.585087">
<ele>229.0</ele>
<desc>Speed 24.2 km/h Distance 62.98 km</desc>
<time>2011-05-22T11:56:38.97</time>
<name>13219</name>
<sym>Dot</sym>
</trkpt>
<trkpt lat="39.691367" lon="-8.585163">
<ele>229.0</ele>
<desc>Speed 23.6 km/h Distance 62.98 km</desc>
<time>2011-05-22T11:56:39.96</time>
<name>13220</name>
<sym>Dot</sym>
</trkpt>
<trkpt lat="39.691373" lon="-8.585238">
<ele>229.0</ele>
<desc>Speed 22.9 km/h Distance 62.99 km</desc>
<time>2011-05-22T11:56:40.96</time>
<name>13221</name>
<sym>Dot</sym>
</trkpt>
<trkpt lat="39.691378" lon="-8.585310">
<ele>229.5</ele>
<desc>Speed 22.3 km/h Distance 62.99 km</desc>
<time>2011-05-22T11:56:41.96</time>
<name>13222</name>
<sym>Dot</sym>
</trkpt>
<trkpt lat="39.691380" lon="-8.585380">
<ele>229.5</ele>
<desc>Speed 21.6 km/h Distance 63.00 km</desc>
<time>2011-05-22T11:56:42.95</time>
<name>13223</name>
<sym>Dot</sym>
</trkpt>
<trkpt lat="39.691380" lon="-8.585448">
<ele>229.5</ele>
<desc>Speed 21.1 km/h Distance 63.01 km</desc>
<time>2011-05-22T11:56:43.94</time>
<name>13224</name>
<sym>Dot</sym>
</trkpt>
<trkpt lat="39.691380" lon="-8.585515">
<ele>229.5</ele>
<desc>Speed 20.6 km/h Distance 63.01 km</desc>
<time>2011-05-22T11:56:44.94</time>
<name>13225</name>
<sym>Dot</sym>
</trkpt>
<trkpt lat="39.691377" lon="-8.585582">
<ele>230.0</ele>
<desc>Speed 20.4 km/h Distance 63.02 km</desc>
<time>2011-05-22T11:56:45.94</time>
<name>13226</name>
<sym>Dot</sym>
</trkpt>
<trkpt lat="39.691373" lon="-8.585647">
<ele>230.0</ele>
<desc>Speed 19.9 km/h Distance 63.02 km</desc>
<time>2011-05-22T11:56:46.93</time>
<name>13227</name>
<sym>Dot</sym>
</trkpt>
<trkpt lat="39.691368" lon="-8.585710">
<ele>230.0</ele>
<desc>Speed 19.5 km/h Distance 63.03 km</desc>
<time>2011-05-22T11:56:47.92</time>
<name>13228</name>
<sym>Dot</sym>
</trkpt>
<trkpt lat="39.691360" lon="-8.585768">
<ele>230.0</ele>
<desc>Speed 18.6 km/h Distance 63.03 km</desc>
<time>2011-05-22T11:56:48.92</time>
<name>13229</name>
<sym>Dot</sym>
</trkpt>
<trkpt lat="39.691347" lon="-8.585825">
<ele>230.5</ele>
<desc>Speed 17.9 km/h Distance 63.04 km</desc>
<time>2011-05-22T11:56:49.92</time>
<name>13230</name>
<sym>Dot</sym>
</trkpt>
<trkpt lat="39.691333" lon="-8.585877">
<ele>230.5</ele>
<desc>Speed 17.4 km/h Distance 63.04 km</desc>
<time>2011-05-22T11:56:50.91</time>
<name>13231</name>
<sym>Dot</sym>
</trkpt>
<trkpt lat="39.691317" lon="-8.585928">
<ele>230.5</ele>
<desc>Speed 16.8 km/h Distance 63.05 km</desc>
<time>2011-05-22T11:56:51.90</time>
<name>13232</name>
<sym>Dot</sym>
</trkpt>
<trkpt lat="39.691300" lon="-8.585975">
<ele>231.0</ele>
<desc>Speed 16.0 km/h Distance 63.05 km</desc>
<time>2011-05-22T11:56:52.90</time>
<name>13233</name>
<sym>Dot</sym>
</trkpt>
<trkpt lat="39.691280" lon="-8.586017">
<ele>231.0</ele>
<desc>Speed 15.6 km/h Distance 63.06 km</desc>
<time>2011-05-22T11:56:53.89</time>
<name>13234</name>
<sym>Dot</sym>
</trkpt>
<trkpt lat="39.691258" lon="-8.586057">
<ele>231.0</ele>
<desc>Speed 15.0 km/h Distance 63.06 km</desc>
<time>2011-05-22T11:56:54.89</time>
<name>13235</name>
<sym>Dot</sym>
</trkpt>
<trkpt lat="39.691238" lon="-8.586095">
<ele>231.0</ele>
<desc>Speed 14.7 km/h Distance 63.07 km</desc>
<time>2011-05-22T11:56:55.88</time>
<name>13236</name>
<sym>Dot</sym>
</trkpt>
<trkpt lat="39.691217" lon="-8.586133">
<ele>231.5</ele>
<desc>Speed 14.4 km/h Distance 63.07 km</desc>
<time>2011-05-22T11:56:56.88</time>
<name>13237</name>
<sym>Dot</sym>
</trkpt>
<trkpt lat="39.691195" lon="-8.586168">
<ele>231.5</ele>
<desc>Speed 14.2 km/h Distance 63.07 km</desc>
<time>2011-05-22T11:56:57.87</time>
<name>13238</name>
<sym>Dot</sym>
</trkpt>
<trkpt lat="39.691170" lon="-8.586202">
<ele>231.5</ele>
<desc>Speed 14.1 km/h Distance 63.08 km</desc>
<time>2011-05-22T11:56:58.87</time>
<name>13239</name>
<sym>Dot</sym>
</trkpt>
<trkpt lat="39.691147" lon="-8.586232">
<ele>231.5</ele>
<desc>Speed 14.0 km/h Distance 63.08 km</desc>
<time>2011-05-22T11:56:59.86</time>
<name>13240</name>
<sym>Dot</sym>
</trkpt>
<trkpt lat="39.691123" lon="-8.586265">
<ele>231.5</ele>
<desc>Speed 13.6 km/h Distance 63.09 km</desc>
<time>2011-05-22T11:57:00.87</time>
<name>13241</name>
<sym>Dot</sym>
</trkpt>
<trkpt lat="39.691102" lon="-8.586297">
<ele>231.5</ele>
<desc>Speed 13.5 km/h Distance 63.09 km</desc>
<time>2011-05-22T11:57:01.87</time>
<name>13242</name>
<sym>Dot</sym>
</trkpt>
<trkpt lat="39.691078" lon="-8.586330">
<ele>231.5</ele>
<desc>Speed 13.5 km/h Distance 63.09 km</desc>
<time>2011-05-22T11:57:02.87</time>
<name>13243</name>
<sym>Dot</sym>
</trkpt>
<trkpt lat="39.691057" lon="-8.586363">
<ele>231.5</ele>
<desc>Speed 13.7 km/h Distance 63.10 km</desc>
<time>2011-05-22T11:57:03.87</time>
<name>13244</name>
<sym>Dot</sym>
</trkpt>
<trkpt lat="39.691033" lon="-8.586397">
<ele>231.5</ele>
<desc>Speed 14.0 km/h Distance 63.10 km</desc>
<time>2011-05-22T11:57:04.87</time>
<name>13245</name>
<sym>Dot</sym>
</trkpt>
<trkpt lat="39.691012" lon="-8.586433">
<ele>231.5</ele>
<desc>Speed 14.3 km/h Distance 63.10 km</desc>
<time>2011-05-22T11:57:05.87</time>
<name>13246</name>
<sym>Dot</sym>
</trkpt>
<trkpt lat="39.690992" lon="-8.586472">
<ele>231.5</ele>
<desc>Speed 14.6 km/h Distance 63.11 km</desc>
<time>2011-05-22T11:57:06.87</time>
<name>13247</name>
<sym>Dot</sym>
</trkpt>
<trkpt lat="39.690968" lon="-8.586512">
<ele>231.0</ele>
<desc>Speed 15.3 km/h Distance 63.11 km</desc>
<time>2011-05-22T11:57:07.87</time>
<name>13248</name>
<sym>Dot</sym>
</trkpt>
<trkpt lat="39.690947" lon="-8.586553">
<ele>231.0</ele>
<desc>Speed 15.8 km/h Distance 63.12 km</desc>
<time>2011-05-22T11:57:08.87</time>
<name>13249</name>
<sym>Dot</sym>
</trkpt>
<trkpt lat="39.690925" lon="-8.586598">
<ele>231.0</ele>
<desc>Speed 16.3 km/h Distance 63.12 km</desc>
<time>2011-05-22T11:57:09.87</time>
<name>13250</name>
<sym>Dot</sym>
</trkpt>
<trkpt lat="39.690908" lon="-8.586647">
<ele>231.0</ele>
<desc>Speed 16.7 km/h Distance 63.13 km</desc>
<time>2011-05-22T11:57:10.87</time>
<name>13251</name>
<sym>Dot</sym>
</trkpt>
<trkpt lat="39.690892" lon="-8.586697">
<ele>231.0</ele>
<desc>Speed 17.0 km/h Distance 63.13 km</desc>
<time>2011-05-22T11:57:11.87</time>
<name>13252</name>
<sym>Dot</sym>
</trkpt>
<trkpt lat="39.690877" lon="-8.586750">
<ele>231.0</ele>
<desc>Speed 17.5 km/h Distance 63.14 km</desc>
<time>2011-05-22T11:57:12.87</time>
<name>13253</name>
<sym>Dot</sym>
</trkpt>
<trkpt lat="39.690862" lon="-8.586807">
<ele>231.0</ele>
<desc>Speed 18.3 km/h Distance 63.14 km</desc>
<time>2011-05-22T11:57:13.87</time>
<name>13254</name>
<sym>Dot</sym>
</trkpt>
<trkpt lat="39.690847" lon="-8.586865">
<ele>231.0</ele>
<desc>Speed 19.0 km/h Distance 63.15 km</desc>
<time>2011-05-22T11:57:14.87</time>
<name>13255</name>
<sym>Dot</sym>
</trkpt>
<trkpt lat="39.690832" lon="-8.586925">
<ele>230.5</ele>
<desc>Speed 19.4 km/h Distance 63.15 km</desc>
<time>2011-05-22T11:57:15.87</time>
<name>13256</name>
<sym>Dot</sym>
</trkpt>
<trkpt lat="39.690818" lon="-8.586985">
<ele>231.0</ele>
<desc>Speed 19.7 km/h Distance 63.16 km</desc>
<time>2011-05-22T11:57:16.87</time>
<name>13257</name>
<sym>Dot</sym>
</trkpt>
<trkpt lat="39.690805" lon="-8.587047">
<ele>231.0</ele>
<desc>Speed 19.8 km/h Distance 63.16 km</desc>
<time>2011-05-22T11:57:17.87</time>
<name>13258</name>
<sym>Dot</sym>
</trkpt>
<trkpt lat="39.690790" lon="-8.587108">
<ele>231.0</ele>
<desc>Speed 19.6 km/h Distance 63.17 km</desc>
<time>2011-05-22T11:57:18.87</time>
<name>13259</name>
<sym>Dot</sym>
</trkpt>
<trkpt lat="39.690777" lon="-8.587168">
<ele>231.0</ele>
<desc>Speed 19.2 km/h Distance 63.17 km</desc>
<time>2011-05-22T11:57:19.87</time>
<name>13260</name>
<sym>Dot</sym>
</trkpt>
<trkpt lat="39.690763" lon="-8.587228">
<ele>230.5</ele>
<desc>Speed 19.4 km/h Distance 63.18 km</desc>
<time>2011-05-22T11:57:20.87</time>
<name>13261</name>
<sym>Dot</sym>
</trkpt>
<trkpt lat="39.690748" lon="-8.587287">
<ele>230.5</ele>
<desc>Speed 19.2 km/h Distance 63.18 km</desc>
<time>2011-05-22T11:57:21.87</time>
<name>13262</name>
<sym>Dot</sym>
</trkpt>
<trkpt lat="39.690733" lon="-8.587345">
<ele>230.5</ele>
<desc>Speed 19.2 km/h Distance 63.19 km</desc>
<time>2011-05-22T11:57:22.87</time>
<name>13263</name>
<sym>Dot</sym>
</trkpt>
<trkpt lat="39.690720" lon="-8.587402">
<ele>230.5</ele>
<desc>Speed 18.4 km/h Distance 63.19 km</desc>
<time>2011-05-22T11:57:23.87</time>
<name>13264</name>
<sym>Dot</sym>
</trkpt>
<trkpt lat="39.690708" lon="-8.587460">
<ele>230.0</ele>
<desc>Speed 18.5 km/h Distance 63.20 km</desc>
<time>2011-05-22T11:57:24.87</time>
<name>13265</name>
<sym>Dot</sym>
</trkpt>
<trkpt lat="39.690697" lon="-8.587517">
<ele>230.0</ele>
<desc>Speed 18.5 km/h Distance 63.20 km</desc>
<time>2011-05-22T11:57:25.87</time>
<name>13266</name>
<sym>Dot</sym>
</trkpt>
<trkpt lat="39.690683" lon="-8.587575">
<ele>230.0</ele>
<desc>Speed 18.5 km/h Distance 63.21 km</desc>
<time>2011-05-22T11:57:26.87</time>
<name>13267</name>
<sym>Dot</sym>
</trkpt>
<trkpt lat="39.690668" lon="-8.587633">
<ele>230.0</ele>
<desc>Speed 19.2 km/h Distance 63.21 km</desc>
<time>2011-05-22T11:57:27.86</time>
<name>13268</name>
<sym>Dot</sym>
</trkpt>
<trkpt lat="39.690655" lon="-8.587695">
<ele>230.0</ele>
<desc>Speed 19.7 km/h Distance 63.22 km</desc>
<time>2011-05-22T11:57:28.86</time>
<name>13269</name>
<sym>Dot</sym>
</trkpt>
<trkpt lat="39.690640" lon="-8.587753">
<ele>229.5</ele>
<desc>Speed 18.9 km/h Distance 63.23 km</desc>
<time>2011-05-22T11:57:29.86</time>
<name>13270</name>
<sym>Dot</sym>
</trkpt>
<trkpt lat="39.690625" lon="-8.587807">
<ele>229.5</ele>
<desc>Speed 17.6 km/h Distance 63.23 km</desc>
<time>2011-05-22T11:57:30.86</time>
<name>13271</name>
<sym>Dot</sym>
</trkpt>
<trkpt lat="39.690605" lon="-8.587853">
<ele>229.0</ele>
<desc>Speed 16.2 km/h Distance 63.23 km</desc>
<time>2011-05-22T11:57:31.86</time>
<name>13272</name>
<sym>Dot</sym>
</trkpt>
<trkpt lat="39.690585" lon="-8.587897">
<ele>228.0</ele>
<desc>Speed 15.9 km/h Distance 63.24 km</desc>
<time>2011-05-22T11:57:32.86</time>
<name>13273</name>
<sym>Dot</sym>
</trkpt>
<trkpt lat="39.690568" lon="-8.587938">
<ele>227.5</ele>
<desc>Speed 14.4 km/h Distance 63.24 km</desc>
<time>2011-05-22T11:57:33.86</time>
<name>13274</name>
<sym>Dot</sym>
</trkpt>
<trkpt lat="39.690558" lon="-8.587972">
<ele>227.5</ele>
<desc>Speed 11.0 km/h Distance 63.25 km</desc>
<time>2011-05-22T11:57:34.86</time>
<name>13275</name>
<sym>Dot</sym>
</trkpt>
<trkpt lat="39.690552" lon="-8.587995">
<ele>227.5</ele>
<desc>Speed 7.8 km/h Distance 63.25 km</desc>
<time>2011-05-22T11:57:35.86</time>
<name>13276</name>
<sym>Dot</sym>
</trkpt>
<trkpt lat="39.690548" lon="-8.588010">
<ele>228.0</ele>
<desc>Speed 4.6 km/h Distance 63.25 km</desc>
<time>2011-05-22T11:57:36.86</time>
<name>13277</name>
<sym>Dot</sym>
</trkpt>
<trkpt lat="39.690545" lon="-8.588017">
<ele>228.5</ele>
<desc>Speed 2.8 km/h Distance 63.25 km</desc>
<time>2011-05-22T11:57:37.86</time>
<name>13278</name>
<sym>Dot</sym>
</trkpt>
<trkpt lat="39.690548" lon="-8.588020">
<ele>228.5</ele>
<desc>Speed 1.4 km/h Distance 63.25 km</desc>
<time>2011-05-22T11:57:38.86</time>
<name>13279</name>
<sym>Dot</sym>
</trkpt>
<trkpt lat="39.690552" lon="-8.588018">
<ele>226.5</ele>
<desc>Speed 1.5 km/h Distance 63.25 km</desc>
<time>2011-05-22T11:58:11.86</time>
<name>13280</name>
<sym>Dot</sym>
</trkpt>
<trkpt lat="39.690547" lon="-8.588020">
<ele>226.0</ele>
<desc>Speed 1.1 km/h Distance 63.25 km</desc>
<time>2011-05-22T11:58:13.86</time>
<name>13281</name>
<sym>Dot</sym>
</trkpt>
<trkpt lat="39.690545" lon="-8.588022">
<ele>226.0</ele>
<desc>Speed 1.3 km/h Distance 63.25 km</desc>
<time>2011-05-22T11:58:14.86</time>
<name>13282</name>
<sym>Dot</sym>
</trkpt>
<trkpt lat="39.690553" lon="-8.588020">
<ele>226.0</ele>
<desc>Speed 1.2 km/h Distance 63.25 km</desc>
<time>2011-05-22T11:59:04.86</time>
<name>13283</name>
<sym>Dot</sym>
</trkpt>
<trkpt lat="39.690553" lon="-8.588047">
<ele>226.0</ele>
<desc>Speed 1.1 km/h Distance 63.26 km</desc>
<time>2011-05-22T11:59:49.86</time>
<name>13284</name>
<sym>Dot</sym>
</trkpt>
<trkpt lat="39.690552" lon="-8.588052">
<ele>226.0</ele>
<desc>Speed 1.2 km/h Distance 63.26 km</desc>
<time>2011-05-22T11:59:51.86</time>
<name>13285</name>
<sym>Dot</sym>
</trkpt>
<trkpt lat="39.690548" lon="-8.588053">
<ele>226.0</ele>
<desc>Speed 1.1 km/h Distance 63.26 km</desc>
<time>2011-05-22T11:59:53.86</time>
<name>13286</name>
<sym>Dot</sym>
</trkpt>
<trkpt lat="39.690548" lon="-8.588058">
<ele>226.0</ele>
<desc>Speed 1.4 km/h Distance 63.26 km</desc>
<time>2011-05-22T11:59:54.86</time>
<name>13287</name>
<sym>Dot</sym>
</trkpt>
<trkpt lat="39.690547" lon="-8.588060">
<ele>226.0</ele>
<desc>Speed 1.2 km/h Distance 63.26 km</desc>
<time>2011-05-22T11:59:55.86</time>
<name>13288</name>
<sym>Dot</sym>
</trkpt>
<trkpt lat="39.690543" lon="-8.588070">
<ele>228.5</ele>
<desc>Speed 1.2 km/h Distance 63.26 km</desc>
<time>2011-05-22T12:01:25.86</time>
<name>13289</name>
<sym>Dot</sym>
</trkpt>
<trkpt lat="39.690572" lon="-8.588092">
<ele>224.0</ele>
<desc>Speed 1.3 km/h Distance 63.26 km</desc>
<time>2011-05-22T12:03:22.86</time>
<name>13290</name>
<sym>Dot</sym>
</trkpt>
<trkpt lat="39.690572" lon="-8.588087">
<ele>224.0</ele>
<desc>Speed 1.1 km/h Distance 63.26 km</desc>
<time>2011-05-22T12:03:34.86</time>
<name>13291</name>
<sym>Dot</sym>
</trkpt>
<trkpt lat="39.690565" lon="-8.588087">
<ele>224.0</ele>
<desc>Speed 1.8 km/h Distance 63.26 km</desc>
<time>2011-05-22T12:04:20.86</time>
<name>13292</name>
<sym>Dot</sym>
</trkpt>
<trkpt lat="39.690563" lon="-8.588095">
<ele>225.5</ele>
<desc>Speed 3.6 km/h Distance 63.26 km</desc>
<time>2011-05-22T12:04:37.86</time>
<name>13293</name>
<sym>Dot</sym>
</trkpt>
<trkpt lat="39.690557" lon="-8.588108">
<ele>226.0</ele>
<desc>Speed 4.8 km/h Distance 63.26 km</desc>
<time>2011-05-22T12:04:38.86</time>
<name>13294</name>
<sym>Dot</sym>
</trkpt>
<trkpt lat="39.690552" lon="-8.588128">
<ele>226.5</ele>
<desc>Speed 6.3 km/h Distance 63.27 km</desc>
<time>2011-05-22T12:04:39.86</time>
<name>13295</name>
<sym>Dot</sym>
</trkpt>
<trkpt lat="39.690543" lon="-8.588155">
<ele>227.0</ele>
<desc>Speed 9.2 km/h Distance 63.27 km</desc>
<time>2011-05-22T12:04:40.86</time>
<name>13296</name>
<sym>Dot</sym>
</trkpt>
<trkpt lat="39.690528" lon="-8.588182">
<ele>228.0</ele>
<desc>Speed 10.4 km/h Distance 63.27 km</desc>
<time>2011-05-22T12:04:41.86</time>
<name>13297</name>
<sym>Dot</sym>
</trkpt>
<trkpt lat="39.690515" lon="-8.588207">
<ele>229.5</ele>
<desc>Speed 9.0 km/h Distance 63.27 km</desc>
<time>2011-05-22T12:04:42.86</time>
<name>13298</name>
<sym>Dot</sym>
</trkpt>
<trkpt lat="39.690512" lon="-8.588225">
<ele>229.5</ele>
<desc>Speed 6.1 km/h Distance 63.28 km</desc>
<time>2011-05-22T12:04:43.86</time>
<name>13299</name>
<sym>Dot</sym>
</trkpt>
<trkpt lat="39.690508" lon="-8.588228">
<ele>229.5</ele>
<desc>Speed 1.5 km/h Distance 63.28 km</desc>
<time>2011-05-22T12:04:44.86</time>
<name>13300</name>
<sym>Dot</sym>
</trkpt>
<trkpt lat="39.690505" lon="-8.588233">
<ele>229.5</ele>
<desc>Speed 1.3 km/h Distance 63.28 km</desc>
<time>2011-05-22T12:04:47.86</time>
<name>13301</name>
<sym>Dot</sym>
</trkpt>
<trkpt lat="39.690497" lon="-8.588250">
<ele>230.0</ele>
<desc>Speed 6.0 km/h Distance 63.28 km</desc>
<time>2011-05-22T12:04:48.86</time>
<name>13302</name>
<sym>Dot</sym>
</trkpt>
<trkpt lat="39.690487" lon="-8.588272">
<ele>230.5</ele>
<desc>Speed 8.1 km/h Distance 63.28 km</desc>
<time>2011-05-22T12:04:49.86</time>
<name>13303</name>
<sym>Dot</sym>
</trkpt>
<trkpt lat="39.690472" lon="-8.588307">
<ele>230.5</ele>
<desc>Speed 11.9 km/h Distance 63.28 km</desc>
<time>2011-05-22T12:04:50.86</time>
<name>13304</name>
<sym>Dot</sym>
</trkpt>
<trkpt lat="39.690453" lon="-8.588348">
<ele>231.0</ele>
<desc>Speed 14.4 km/h Distance 63.29 km</desc>
<time>2011-05-22T12:04:51.86</time>
<name>13305</name>
<sym>Dot</sym>
</trkpt>
<trkpt lat="39.690435" lon="-8.588402">
<ele>230.5</ele>
<desc>Speed 17.9 km/h Distance 63.29 km</desc>
<time>2011-05-22T12:04:52.86</time>
<name>13306</name>
<sym>Dot</sym>
</trkpt>
<trkpt lat="39.690417" lon="-8.588465">
<ele>230.0</ele>
<desc>Speed 20.3 km/h Distance 63.30 km</desc>
<time>2011-05-22T12:04:53.86</time>
<name>13307</name>
<sym>Dot</sym>
</trkpt>
<trkpt lat="39.690395" lon="-8.588535">
<ele>230.0</ele>
<desc>Speed 23.0 km/h Distance 63.31 km</desc>
<time>2011-05-22T12:04:54.86</time>
<name>13308</name>
<sym>Dot</sym>
</trkpt>
<trkpt lat="39.690370" lon="-8.588607">
<ele>229.5</ele>
<desc>Speed 24.1 km/h Distance 63.31 km</desc>
<time>2011-05-22T12:04:55.86</time>
<name>13309</name>
<sym>Dot</sym>
</trkpt>
<trkpt lat="39.690338" lon="-8.588680">
<ele>229.0</ele>
<desc>Speed 25.1 km/h Distance 63.32 km</desc>
<time>2011-05-22T12:04:56.86</time>
<name>13310</name>
<sym>Dot</sym>
</trkpt>
<trkpt lat="39.690300" lon="-8.588753">
<ele>228.5</ele>
<desc>Speed 26.6 km/h Distance 63.33 km</desc>
<time>2011-05-22T12:04:57.86</time>
<name>13311</name>
<sym>Dot</sym>
</trkpt>
<trkpt lat="39.690260" lon="-8.588835">
<ele>228.0</ele>
<desc>Speed 29.3 km/h Distance 63.34 km</desc>
<time>2011-05-22T12:04:58.86</time>
<name>13312</name>
<sym>Dot</sym>
</trkpt>
<trkpt lat="39.690217" lon="-8.588920">
<ele>227.5</ele>
<desc>Speed 31.1 km/h Distance 63.34 km</desc>
<time>2011-05-22T12:04:59.86</time>
<name>13313</name>
<sym>Dot</sym>
</trkpt>
<trkpt lat="39.690172" lon="-8.589010">
<ele>227.0</ele>
<desc>Speed 32.6 km/h Distance 63.35 km</desc>
<time>2011-05-22T12:05:00.86</time>
<name>13314</name>
<sym>Dot</sym>
</trkpt>
<trkpt lat="39.690123" lon="-8.589102">
<ele>226.5</ele>
<desc>Speed 33.8 km/h Distance 63.36 km</desc>
<time>2011-05-22T12:05:01.86</time>
<name>13315</name>
<sym>Dot</sym>
</trkpt>
<trkpt lat="39.690075" lon="-8.589195">
<ele>226.0</ele>
<desc>Speed 34.5 km/h Distance 63.37 km</desc>
<time>2011-05-22T12:05:02.86</time>
<name>13316</name>
<sym>Dot</sym>
</trkpt>
<trkpt lat="39.690028" lon="-8.589290">
<ele>225.5</ele>
<desc>Speed 34.5 km/h Distance 63.38 km</desc>
<time>2011-05-22T12:05:03.86</time>
<name>13317</name>
<sym>Dot</sym>
</trkpt>
<trkpt lat="39.689988" lon="-8.589388">
<ele>225.5</ele>
<desc>Speed 34.0 km/h Distance 63.39 km</desc>
<time>2011-05-22T12:05:04.86</time>
<name>13318</name>
<sym>Dot</sym>
</trkpt>
<trkpt lat="39.689955" lon="-8.589490">
<ele>225.0</ele>
<desc>Speed 33.4 km/h Distance 63.40 km</desc>
<time>2011-05-22T12:05:05.86</time>
<name>13319</name>
<sym>Dot</sym>
</trkpt>
<trkpt lat="39.689925" lon="-8.589590">
<ele>225.0</ele>
<desc>Speed 33.0 km/h Distance 63.41 km</desc>
<time>2011-05-22T12:05:06.86</time>
<name>13320</name>
<sym>Dot</sym>
</trkpt>
<trkpt lat="39.689897" lon="-8.589692">
<ele>224.5</ele>
<desc>Speed 32.5 km/h Distance 63.42 km</desc>
<time>2011-05-22T12:05:07.86</time>
<name>13321</name>
<sym>Dot</sym>
</trkpt>
<trkpt lat="39.689873" lon="-8.589792">
<ele>224.5</ele>
<desc>Speed 32.3 km/h Distance 63.43 km</desc>
<time>2011-05-22T12:05:08.86</time>
<name>13322</name>
<sym>Dot</sym>
</trkpt>
<trkpt lat="39.689855" lon="-8.589893">
<ele>224.5</ele>
<desc>Speed 32.0 km/h Distance 63.44 km</desc>
<time>2011-05-22T12:05:09.86</time>
<name>13323</name>
<sym>Dot</sym>
</trkpt>
<trkpt lat="39.689848" lon="-8.589997">
<ele>224.5</ele>
<desc>Speed 31.8 km/h Distance 63.45 km</desc>
<time>2011-05-22T12:05:10.86</time>
<name>13324</name>
<sym>Dot</sym>
</trkpt>
<trkpt lat="39.689853" lon="-8.590100">
<ele>225.0</ele>
<desc>Speed 31.6 km/h Distance 63.46 km</desc>
<time>2011-05-22T12:05:11.86</time>
<name>13325</name>
<sym>Dot</sym>
</trkpt>
<trkpt lat="39.689880" lon="-8.590193">
<ele>225.5</ele>
<desc>Speed 30.3 km/h Distance 63.46 km</desc>
<time>2011-05-22T12:05:12.86</time>
<name>13326</name>
<sym>Dot</sym>
</trkpt>
<trkpt lat="39.689925" lon="-8.590272">
<ele>225.5</ele>
<desc>Speed 30.0 km/h Distance 63.47 km</desc>
<time>2011-05-22T12:05:13.86</time>
<name>13327</name>
<sym>Dot</sym>
</trkpt>
<trkpt lat="39.689982" lon="-8.590327">
<ele>226.0</ele>
<desc>Speed 28.2 km/h Distance 63.48 km</desc>
<time>2011-05-22T12:05:14.86</time>
<name>13328</name>
<sym>Dot</sym>
</trkpt>
<trkpt lat="39.690032" lon="-8.590377">
<ele>226.5</ele>
<desc>Speed 25.5 km/h Distance 63.49 km</desc>
<time>2011-05-22T12:05:15.86</time>
<name>13329</name>
<sym>Dot</sym>
</trkpt>
<trkpt lat="39.690082" lon="-8.590420">
<ele>227.0</ele>
<desc>Speed 23.4 km/h Distance 63.49 km</desc>
<time>2011-05-22T12:05:16.86</time>
<name>13330</name>
<sym>Dot</sym>
</trkpt>
<trkpt lat="39.690127" lon="-8.590455">
<ele>227.5</ele>
<desc>Speed 21.3 km/h Distance 63.50 km</desc>
<time>2011-05-22T12:05:17.86</time>
<name>13331</name>
<sym>Dot</sym>
</trkpt>
<trkpt lat="39.690170" lon="-8.590487">
<ele>228.0</ele>
<desc>Speed 19.6 km/h Distance 63.51 km</desc>
<time>2011-05-22T12:05:18.86</time>
<name>13332</name>
<sym>Dot</sym>
</trkpt>
<trkpt lat="39.690210" lon="-8.590515">
<ele>228.0</ele>
<desc>Speed 18.3 km/h Distance 63.51 km</desc>
<time>2011-05-22T12:05:19.86</time>
<name>13333</name>
<sym>Dot</sym>
</trkpt>
<trkpt lat="39.690245" lon="-8.590540">
<ele>228.5</ele>
<desc>Speed 16.1 km/h Distance 63.51 km</desc>
<time>2011-05-22T12:05:20.86</time>
<name>13334</name>
<sym>Dot</sym>
</trkpt>
<trkpt lat="39.690278" lon="-8.590560">
<ele>228.5</ele>
<desc>Speed 14.4 km/h Distance 63.52 km</desc>
<time>2011-05-22T12:05:21.86</time>
<name>13335</name>
<sym>Dot</sym>
</trkpt>
<trkpt lat="39.690307" lon="-8.590575">
<ele>229.0</ele>
<desc>Speed 12.3 km/h Distance 63.52 km</desc>
<time>2011-05-22T12:05:22.86</time>
<name>13336</name>
<sym>Dot</sym>
</trkpt>
<trkpt lat="39.690328" lon="-8.590588">
<ele>229.0</ele>
<desc>Speed 9.3 km/h Distance 63.52 km</desc>
<time>2011-05-22T12:05:23.86</time>
<name>13337</name>
<sym>Dot</sym>
</trkpt>
<trkpt lat="39.690345" lon="-8.590593">
<ele>229.0</ele>
<desc>Speed 7.5 km/h Distance 63.53 km</desc>
<time>2011-05-22T12:05:24.86</time>
<name>13338</name>
<sym>Dot</sym>
</trkpt>
<trkpt lat="39.690357" lon="-8.590602">
<ele>229.0</ele>
<desc>Speed 4.8 km/h Distance 63.53 km</desc>
<time>2011-05-22T12:05:25.86</time>
<name>13339</name>
<sym>Dot</sym>
</trkpt>
<trkpt lat="39.690365" lon="-8.590613">
<ele>229.0</ele>
<desc>Speed 5.1 km/h Distance 63.53 km</desc>
<time>2011-05-22T12:05:26.86</time>
<name>13340</name>
<sym>Dot</sym>
</trkpt>
<trkpt lat="39.690373" lon="-8.590622">
<ele>229.0</ele>
<desc>Speed 4.2 km/h Distance 63.53 km</desc>
<time>2011-05-22T12:05:27.86</time>
<name>13341</name>
<sym>Dot</sym>
</trkpt>
<trkpt lat="39.690387" lon="-8.590630">
<ele>229.0</ele>
<desc>Speed 5.4 km/h Distance 63.53 km</desc>
<time>2011-05-22T12:05:28.86</time>
<name>13342</name>
<sym>Dot</sym>
</trkpt>
<trkpt lat="39.690398" lon="-8.590637">
<ele>229.0</ele>
<desc>Speed 5.0 km/h Distance 63.53 km</desc>
<time>2011-05-22T12:05:29.86</time>
<name>13343</name>
<sym>Dot</sym>
</trkpt>
<trkpt lat="39.690415" lon="-8.590645">
<ele>229.0</ele>
<desc>Speed 6.9 km/h Distance 63.54 km</desc>
<time>2011-05-22T12:05:30.86</time>
<name>13344</name>
<sym>Dot</sym>
</trkpt>
<trkpt lat="39.690428" lon="-8.590655">
<ele>229.0</ele>
<desc>Speed 6.3 km/h Distance 63.54 km</desc>
<time>2011-05-22T12:05:31.86</time>
<name>13345</name>
<sym>Dot</sym>
</trkpt>
<trkpt lat="39.690442" lon="-8.590665">
<ele>229.0</ele>
<desc>Speed 6.4 km/h Distance 63.54 km</desc>
<time>2011-05-22T12:05:32.86</time>
<name>13346</name>
<sym>Dot</sym>
</trkpt>
<trkpt lat="39.690460" lon="-8.590678">
<ele>229.0</ele>
<desc>Speed 8.2 km/h Distance 63.54 km</desc>
<time>2011-05-22T12:05:33.86</time>
<name>13347</name>
<sym>Dot</sym>
</trkpt>
<trkpt lat="39.690483" lon="-8.590695">
<ele>229.0</ele>
<desc>Speed 10.1 km/h Distance 63.54 km</desc>
<time>2011-05-22T12:05:34.86</time>
<name>13348</name>
<sym>Dot</sym>
</trkpt>
<trkpt lat="39.690508" lon="-8.590712">
<ele>229.0</ele>
<desc>Speed 11.7 km/h Distance 63.55 km</desc>
<time>2011-05-22T12:05:35.86</time>
<name>13349</name>
<sym>Dot</sym>
</trkpt>
<trkpt lat="39.690537" lon="-8.590730">
<ele>229.0</ele>
<desc>Speed 12.2 km/h Distance 63.55 km</desc>
<time>2011-05-22T12:05:36.86</time>
<name>13350</name>
<sym>Dot</sym>
</trkpt>
<trkpt lat="39.690562" lon="-8.590750">
<ele>229.5</ele>
<desc>Speed 11.7 km/h Distance 63.55 km</desc>
<time>2011-05-22T12:05:37.86</time>
<name>13351</name>
<sym>Dot</sym>
</trkpt>
<trkpt lat="39.690587" lon="-8.590770">
<ele>229.5</ele>
<desc>Speed 11.9 km/h Distance 63.56 km</desc>
<time>2011-05-22T12:05:38.86</time>
<name>13352</name>
<sym>Dot</sym>
</trkpt>
<trkpt lat="39.690613" lon="-8.590790">
<ele>230.0</ele>
<desc>Speed 12.0 km/h Distance 63.56 km</desc>
<time>2011-05-22T12:05:39.86</time>
<name>13353</name>
<sym>Dot</sym>
</trkpt>
<trkpt lat="39.690642" lon="-8.590808">
<ele>230.0</ele>
<desc>Speed 12.3 km/h Distance 63.56 km</desc>
<time>2011-05-22T12:05:40.86</time>
<name>13354</name>
<sym>Dot</sym>
</trkpt>
<trkpt lat="39.690670" lon="-8.590825">
<ele>230.5</ele>
<desc>Speed 12.2 km/h Distance 63.57 km</desc>
<time>2011-05-22T12:05:41.86</time>
<name>13355</name>
<sym>Dot</sym>
</trkpt>
<trkpt lat="39.690695" lon="-8.590843">
<ele>231.5</ele>
<desc>Speed 11.6 km/h Distance 63.57 km</desc>
<time>2011-05-22T12:05:42.86</time>
<name>13356</name>
<sym>Dot</sym>
</trkpt>
<trkpt lat="39.690722" lon="-8.590863">
<ele>232.0</ele>
<desc>Speed 12.3 km/h Distance 63.57 km</desc>
<time>2011-05-22T12:05:43.86</time>
<name>13357</name>
<sym>Dot</sym>
</trkpt>
<trkpt lat="39.690750" lon="-8.590885">
<ele>232.0</ele>
<desc>Speed 13.1 km/h Distance 63.58 km</desc>
<time>2011-05-22T12:05:44.86</time>
<name>13358</name>
<sym>Dot</sym>
</trkpt>
<trkpt lat="39.690777" lon="-8.590910">
<ele>232.0</ele>
<desc>Speed 12.8 km/h Distance 63.58 km</desc>
<time>2011-05-22T12:05:45.86</time>
<name>13359</name>
<sym>Dot</sym>
</trkpt>
<trkpt lat="39.690802" lon="-8.590938">
<ele>232.0</ele>
<desc>Speed 12.9 km/h Distance 63.59 km</desc>
<time>2011-05-22T12:05:46.86</time>
<name>13360</name>
<sym>Dot</sym>
</trkpt>
<trkpt lat="39.690823" lon="-8.590970">
<ele>231.5</ele>
<desc>Speed 13.2 km/h Distance 63.59 km</desc>
<time>2011-05-22T12:05:47.86</time>
<name>13361</name>
<sym>Dot</sym>
</trkpt>
<trkpt lat="39.690845" lon="-8.591005">
<ele>231.5</ele>
<desc>Speed 13.3 km/h Distance 63.59 km</desc>
<time>2011-05-22T12:05:48.86</time>
<name>13362</name>
<sym>Dot</sym>
</trkpt>
<trkpt lat="39.690865" lon="-8.591042">
<ele>231.5</ele>
<desc>Speed 14.1 km/h Distance 63.60 km</desc>
<time>2011-05-22T12:05:49.86</time>
<name>13363</name>
<sym>Dot</sym>
</trkpt>
<trkpt lat="39.690887" lon="-8.591080">
<ele>231.5</ele>
<desc>Speed 14.1 km/h Distance 63.60 km</desc>
<time>2011-05-22T12:05:50.86</time>
<name>13364</name>
<sym>Dot</sym>
</trkpt>
<trkpt lat="39.690908" lon="-8.591117">
<ele>231.5</ele>
<desc>Speed 14.4 km/h Distance 63.61 km</desc>
<time>2011-05-22T12:05:51.86</time>
<name>13365</name>
<sym>Dot</sym>
</trkpt>
<trkpt lat="39.690930" lon="-8.591155">
<ele>231.5</ele>
<desc>Speed 14.4 km/h Distance 63.61 km</desc>
<time>2011-05-22T12:05:52.86</time>
<name>13366</name>
<sym>Dot</sym>
</trkpt>
<trkpt lat="39.690950" lon="-8.591195">
<ele>231.5</ele>
<desc>Speed 14.6 km/h Distance 63.61 km</desc>
<time>2011-05-22T12:05:53.86</time>
<name>13367</name>
<sym>Dot</sym>
</trkpt>
<trkpt lat="39.690970" lon="-8.591235">
<ele>231.5</ele>
<desc>Speed 14.6 km/h Distance 63.62 km</desc>
<time>2011-05-22T12:05:54.86</time>
<name>13368</name>
<sym>Dot</sym>
</trkpt>
<trkpt lat="39.690993" lon="-8.591272">
<ele>231.5</ele>
<desc>Speed 14.8 km/h Distance 63.62 km</desc>
<time>2011-05-22T12:05:55.86</time>
<name>13369</name>
<sym>Dot</sym>
</trkpt>
<trkpt lat="39.691017" lon="-8.591307">
<ele>231.5</ele>
<desc>Speed 14.6 km/h Distance 63.63 km</desc>
<time>2011-05-22T12:05:56.86</time>
<name>13370</name>
<sym>Dot</sym>
</trkpt>
<trkpt lat="39.691040" lon="-8.591345">
<ele>231.0</ele>
<desc>Speed 14.6 km/h Distance 63.63 km</desc>
<time>2011-05-22T12:05:57.86</time>
<name>13371</name>
<sym>Dot</sym>
</trkpt>
<trkpt lat="39.691052" lon="-8.591390">
<ele>231.0</ele>
<desc>Speed 14.6 km/h Distance 63.63 km</desc>
<time>2011-05-22T12:05:58.86</time>
<name>13372</name>
<sym>Dot</sym>
</trkpt>
<trkpt lat="39.691048" lon="-8.591440">
<ele>231.0</ele>
<desc>Speed 16.0 km/h Distance 63.64 km</desc>
<time>2011-05-22T12:05:59.86</time>
<name>13373</name>
<sym>Dot</sym>
</trkpt>
<trkpt lat="39.691015" lon="-8.591482">
<ele>230.0</ele>
<desc>Speed 18.4 km/h Distance 63.64 km</desc>
<time>2011-05-22T12:06:00.86</time>
<name>13374</name>
<sym>Dot</sym>
</trkpt>
<trkpt lat="39.690968" lon="-8.591507">
<ele>229.0</ele>
<desc>Speed 20.0 km/h Distance 63.65 km</desc>
<time>2011-05-22T12:06:01.86</time>
<name>13375</name>
<sym>Dot</sym>
</trkpt>
<trkpt lat="39.690928" lon="-8.591528">
<ele>229.0</ele>
<desc>Speed 17.7 km/h Distance 63.65 km</desc>
<time>2011-05-22T12:06:02.86</time>
<name>13376</name>
<sym>Dot</sym>
</trkpt>
<trkpt lat="39.690887" lon="-8.591553">
<ele>229.0</ele>
<desc>Speed 18.3 km/h Distance 63.66 km</desc>
<time>2011-05-22T12:06:03.86</time>
<name>13377</name>
<sym>Dot</sym>
</trkpt>
<trkpt lat="39.690842" lon="-8.591573">
<ele>229.0</ele>
<desc>Speed 19.3 km/h Distance 63.66 km</desc>
<time>2011-05-22T12:06:04.86</time>
<name>13378</name>
<sym>Dot</sym>
</trkpt>
<trkpt lat="39.690797" lon="-8.591595">
<ele>228.5</ele>
<desc>Speed 19.6 km/h Distance 63.67 km</desc>
<time>2011-05-22T12:06:05.86</time>
<name>13379</name>
<sym>Dot</sym>
</trkpt>
<trkpt lat="39.690750" lon="-8.591620">
<ele>228.0</ele>
<desc>Speed 20.0 km/h Distance 63.67 km</desc>
<time>2011-05-22T12:06:06.86</time>
<name>13380</name>
<sym>Dot</sym>
</trkpt>
<trkpt lat="39.690705" lon="-8.591648">
<ele>228.0</ele>
<desc>Speed 20.5 km/h Distance 63.68 km</desc>
<time>2011-05-22T12:06:07.86</time>
<name>13381</name>
<sym>Dot</sym>
</trkpt>
<trkpt lat="39.690663" lon="-8.591675">
<ele>227.5</ele>
<desc>Speed 18.9 km/h Distance 63.69 km</desc>
<time>2011-05-22T12:06:08.86</time>
<name>13382</name>
<sym>Dot</sym>
</trkpt>
<trkpt lat="39.690625" lon="-8.591698">
<ele>227.5</ele>
<desc>Speed 17.4 km/h Distance 63.69 km</desc>
<time>2011-05-22T12:06:09.86</time>
<name>13383</name>
<sym>Dot</sym>
</trkpt>
<trkpt lat="39.690590" lon="-8.591717">
<ele>227.5</ele>
<desc>Speed 15.6 km/h Distance 63.69 km</desc>
<time>2011-05-22T12:06:10.86</time>
<name>13384</name>
<sym>Dot</sym>
</trkpt>
<trkpt lat="39.690558" lon="-8.591725">
<ele>227.5</ele>
<desc>Speed 13.5 km/h Distance 63.70 km</desc>
<time>2011-05-22T12:06:11.86</time>
<name>13385</name>
<sym>Dot</sym>
</trkpt>
<trkpt lat="39.690530" lon="-8.591728">
<ele>227.5</ele>
<desc>Speed 11.9 km/h Distance 63.70 km</desc>
<time>2011-05-22T12:06:12.86</time>
<name>13386</name>
<sym>Dot</sym>
</trkpt>
<trkpt lat="39.690502" lon="-8.591732">
<ele>228.0</ele>
<desc>Speed 11.6 km/h Distance 63.70 km</desc>
<time>2011-05-22T12:06:13.86</time>
<name>13387</name>
<sym>Dot</sym>
</trkpt>
<trkpt lat="39.690473" lon="-8.591740">
<ele>228.5</ele>
<desc>Speed 11.7 km/h Distance 63.71 km</desc>
<time>2011-05-22T12:06:14.86</time>
<name>13388</name>
<sym>Dot</sym>
</trkpt>
<trkpt lat="39.690447" lon="-8.591753">
<ele>228.5</ele>
<desc>Speed 12.1 km/h Distance 63.71 km</desc>
<time>2011-05-22T12:06:15.86</time>
<name>13389</name>
<sym>Dot</sym>
</trkpt>
<trkpt lat="39.690420" lon="-8.591763">
<ele>228.5</ele>
<desc>Speed 11.0 km/h Distance 63.71 km</desc>
<time>2011-05-22T12:06:16.86</time>
<name>13390</name>
<sym>Dot</sym>
</trkpt>
<trkpt lat="39.690397" lon="-8.591773">
<ele>228.5</ele>
<desc>Speed 10.6 km/h Distance 63.72 km</desc>
<time>2011-05-22T12:06:17.86</time>
<name>13391</name>
<sym>Dot</sym>
</trkpt>
<trkpt lat="39.690372" lon="-8.591788">
<ele>228.5</ele>
<desc>Speed 11.4 km/h Distance 63.72 km</desc>
<time>2011-05-22T12:06:18.86</time>
<name>13392</name>
<sym>Dot</sym>
</trkpt>
<trkpt lat="39.690348" lon="-8.591802">
<ele>228.5</ele>
<desc>Speed 10.8 km/h Distance 63.72 km</desc>
<time>2011-05-22T12:06:19.86</time>
<name>13393</name>
<sym>Dot</sym>
</trkpt>
<trkpt lat="39.690325" lon="-8.591813">
<ele>228.5</ele>
<desc>Speed 10.8 km/h Distance 63.73 km</desc>
<time>2011-05-22T12:06:20.86</time>
<name>13394</name>
<sym>Dot</sym>
</trkpt>
<trkpt lat="39.690300" lon="-8.591823">
<ele>228.5</ele>
<desc>Speed 10.8 km/h Distance 63.73 km</desc>
<time>2011-05-22T12:06:21.86</time>
<name>13395</name>
<sym>Dot</sym>
</trkpt>
<trkpt lat="39.690275" lon="-8.591828">
<ele>229.0</ele>
<desc>Speed 10.5 km/h Distance 63.73 km</desc>
<time>2011-05-22T12:06:22.86</time>
<name>13396</name>
<sym>Dot</sym>
</trkpt>
<trkpt lat="39.690250" lon="-8.591840">
<ele>229.0</ele>
<desc>Speed 11.2 km/h Distance 63.73 km</desc>
<time>2011-05-22T12:06:23.86</time>
<name>13397</name>
<sym>Dot</sym>
</trkpt>
<trkpt lat="39.690225" lon="-8.591858">
<ele>228.5</ele>
<desc>Speed 11.8 km/h Distance 63.74 km</desc>
<time>2011-05-22T12:06:24.86</time>
<name>13398</name>
<sym>Dot</sym>
</trkpt>
<trkpt lat="39.690202" lon="-8.591873">
<ele>229.0</ele>
<desc>Speed 10.7 km/h Distance 63.74 km</desc>
<time>2011-05-22T12:06:25.86</time>
<name>13399</name>
<sym>Dot</sym>
</trkpt>
<trkpt lat="39.690178" lon="-8.591887">
<ele>229.0</ele>
<desc>Speed 10.8 km/h Distance 63.74 km</desc>
<time>2011-05-22T12:06:26.86</time>
<name>13400</name>
<sym>Dot</sym>
</trkpt>
<trkpt lat="39.690155" lon="-8.591907">
<ele>229.0</ele>
<desc>Speed 11.3 km/h Distance 63.75 km</desc>
<time>2011-05-22T12:06:27.86</time>
<name>13401</name>
<sym>Dot</sym>
</trkpt>
<trkpt lat="39.690133" lon="-8.591928">
<ele>229.5</ele>
<desc>Speed 11.1 km/h Distance 63.75 km</desc>
<time>2011-05-22T12:06:28.86</time>
<name>13402</name>
<sym>Dot</sym>
</trkpt>
<trkpt lat="39.690113" lon="-8.591950">
<ele>229.5</ele>
<desc>Speed 11.0 km/h Distance 63.75 km</desc>
<time>2011-05-22T12:06:29.86</time>
<name>13403</name>
<sym>Dot</sym>
</trkpt>
<trkpt lat="39.690097" lon="-8.591968">
<ele>230.5</ele>
<desc>Speed 8.6 km/h Distance 63.75 km</desc>
<time>2011-05-22T12:06:30.86</time>
<name>13404</name>
<sym>Dot</sym>
</trkpt>
<trkpt lat="39.690083" lon="-8.591992">
<ele>231.5</ele>
<desc>Speed 9.0 km/h Distance 63.76 km</desc>
<time>2011-05-22T12:06:31.86</time>
<name>13405</name>
<sym>Dot</sym>
</trkpt>
<trkpt lat="39.690072" lon="-8.592018">
<ele>232.0</ele>
<desc>Speed 9.5 km/h Distance 63.76 km</desc>
<time>2011-05-22T12:06:32.86</time>
<name>13406</name>
<sym>Dot</sym>
</trkpt>
<trkpt lat="39.690062" lon="-8.592048">
<ele>232.5</ele>
<desc>Speed 10.1 km/h Distance 63.76 km</desc>
<time>2011-05-22T12:06:33.86</time>
<name>13407</name>
<sym>Dot</sym>
</trkpt>
<trkpt lat="39.690052" lon="-8.592080">
<ele>232.5</ele>
<desc>Speed 10.8 km/h Distance 63.77 km</desc>
<time>2011-05-22T12:06:34.86</time>
<name>13408</name>
<sym>Dot</sym>
</trkpt>
<trkpt lat="39.690043" lon="-8.592115">
<ele>232.5</ele>
<desc>Speed 11.1 km/h Distance 63.77 km</desc>
<time>2011-05-22T12:06:35.86</time>
<name>13409</name>
<sym>Dot</sym>
</trkpt>
<trkpt lat="39.690038" lon="-8.592147">
<ele>232.5</ele>
<desc>Speed 10.5 km/h Distance 63.77 km</desc>
<time>2011-05-22T12:06:36.86</time>
<name>13410</name>
<sym>Dot</sym>
</trkpt>
<trkpt lat="39.690032" lon="-8.592180">
<ele>232.5</ele>
<desc>Speed 10.6 km/h Distance 63.77 km</desc>
<time>2011-05-22T12:06:37.86</time>
<name>13411</name>
<sym>Dot</sym>
</trkpt>
<trkpt lat="39.690028" lon="-8.592213">
<ele>232.5</ele>
<desc>Speed 10.2 km/h Distance 63.78 km</desc>
<time>2011-05-22T12:06:38.86</time>
<name>13412</name>
<sym>Dot</sym>
</trkpt>
<trkpt lat="39.690025" lon="-8.592245">
<ele>233.0</ele>
<desc>Speed 9.6 km/h Distance 63.78 km</desc>
<time>2011-05-22T12:06:39.86</time>
<name>13413</name>
<sym>Dot</sym>
</trkpt>
<trkpt lat="39.690020" lon="-8.592275">
<ele>233.5</ele>
<desc>Speed 9.7 km/h Distance 63.78 km</desc>
<time>2011-05-22T12:06:40.86</time>
<name>13414</name>
<sym>Dot</sym>
</trkpt>
<trkpt lat="39.690015" lon="-8.592305">
<ele>234.0</ele>
<desc>Speed 9.8 km/h Distance 63.79 km</desc>
<time>2011-05-22T12:06:41.86</time>
<name>13415</name>
<sym>Dot</sym>
</trkpt>
<trkpt lat="39.690013" lon="-8.592333">
<ele>235.0</ele>
<desc>Speed 8.7 km/h Distance 63.79 km</desc>
<time>2011-05-22T12:06:42.86</time>
<name>13416</name>
<sym>Dot</sym>
</trkpt>
<trkpt lat="39.690013" lon="-8.592363">
<ele>235.5</ele>
<desc>Speed 9.4 km/h Distance 63.79 km</desc>
<time>2011-05-22T12:06:43.86</time>
<name>13417</name>
<sym>Dot</sym>
</trkpt>
<trkpt lat="39.690010" lon="-8.592395">
<ele>236.0</ele>
<desc>Speed 10.3 km/h Distance 63.79 km</desc>
<time>2011-05-22T12:06:44.86</time>
<name>13418</name>
<sym>Dot</sym>
</trkpt>
<trkpt lat="39.690005" lon="-8.592428">
<ele>236.0</ele>
<desc>Speed 10.4 km/h Distance 63.80 km</desc>
<time>2011-05-22T12:06:45.86</time>
<name>13419</name>
<sym>Dot</sym>
</trkpt>
<trkpt lat="39.690003" lon="-8.592462">
<ele>236.0</ele>
<desc>Speed 10.2 km/h Distance 63.80 km</desc>
<time>2011-05-22T12:06:46.86</time>
<name>13420</name>
<sym>Dot</sym>
</trkpt>
<trkpt lat="39.690003" lon="-8.592495">
<ele>236.5</ele>
<desc>Speed 10.3 km/h Distance 63.80 km</desc>
<time>2011-05-22T12:06:47.86</time>
<name>13421</name>
<sym>Dot</sym>
</trkpt>
<trkpt lat="39.690002" lon="-8.592530">
<ele>237.0</ele>
<desc>Speed 10.4 km/h Distance 63.80 km</desc>
<time>2011-05-22T12:06:48.86</time>
<name>13422</name>
<sym>Dot</sym>
</trkpt>
<trkpt lat="39.690000" lon="-8.592563">
<ele>237.0</ele>
<desc>Speed 10.4 km/h Distance 63.81 km</desc>
<time>2011-05-22T12:06:49.86</time>
<name>13423</name>
<sym>Dot</sym>
</trkpt>
<trkpt lat="39.690000" lon="-8.592597">
<ele>237.5</ele>
<desc>Speed 9.7 km/h Distance 63.81 km</desc>
<time>2011-05-22T12:06:50.86</time>
<name>13424</name>
<sym>Dot</sym>
</trkpt>
<trkpt lat="39.690003" lon="-8.592630">
<ele>238.0</ele>
<desc>Speed 10.5 km/h Distance 63.81 km</desc>
<time>2011-05-22T12:06:51.86</time>
<name>13425</name>
<sym>Dot</sym>
</trkpt>
<trkpt lat="39.690005" lon="-8.592662">
<ele>238.5</ele>
<desc>Speed 9.8 km/h Distance 63.82 km</desc>
<time>2011-05-22T12:06:52.86</time>
<name>13426</name>
<sym>Dot</sym>
</trkpt>
<trkpt lat="39.690008" lon="-8.592693">
<ele>238.5</ele>
<desc>Speed 9.8 km/h Distance 63.82 km</desc>
<time>2011-05-22T12:06:53.86</time>
<name>13427</name>
<sym>Dot</sym>
</trkpt>
<trkpt lat="39.690012" lon="-8.592718">
<ele>239.0</ele>
<desc>Speed 7.7 km/h Distance 63.82 km</desc>
<time>2011-05-22T12:06:54.86</time>
<name>13428</name>
<sym>Dot</sym>
</trkpt>
<trkpt lat="39.690017" lon="-8.592743">
<ele>239.5</ele>
<desc>Speed 7.2 km/h Distance 63.82 km</desc>
<time>2011-05-22T12:06:55.86</time>
<name>13429</name>
<sym>Dot</sym>
</trkpt>
<trkpt lat="39.690020" lon="-8.592770">
<ele>240.0</ele>
<desc>Speed 8.1 km/h Distance 63.83 km</desc>
<time>2011-05-22T12:06:56.86</time>
<name>13430</name>
<sym>Dot</sym>
</trkpt>
<trkpt lat="39.690023" lon="-8.592797">
<ele>241.0</ele>
<desc>Speed 8.1 km/h Distance 63.83 km</desc>
<time>2011-05-22T12:06:57.86</time>
<name>13431</name>
<sym>Dot</sym>
</trkpt>
<trkpt lat="39.690028" lon="-8.592820">
<ele>242.0</ele>
<desc>Speed 7.8 km/h Distance 63.83 km</desc>
<time>2011-05-22T12:06:58.86</time>
<name>13432</name>
<sym>Dot</sym>
</trkpt>
<trkpt lat="39.690040" lon="-8.592845">
<ele>243.0</ele>
<desc>Speed 8.5 km/h Distance 63.83 km</desc>
<time>2011-05-22T12:06:59.86</time>
<name>13433</name>
<sym>Dot</sym>
</trkpt>
<trkpt lat="39.690055" lon="-8.592867">
<ele>243.0</ele>
<desc>Speed 9.1 km/h Distance 63.83 km</desc>
<time>2011-05-22T12:07:00.86</time>
<name>13434</name>
<sym>Dot</sym>
</trkpt>
<trkpt lat="39.690072" lon="-8.592883">
<ele>243.5</ele>
<desc>Speed 8.5 km/h Distance 63.84 km</desc>
<time>2011-05-22T12:07:01.86</time>
<name>13435</name>
<sym>Dot</sym>
</trkpt>
<trkpt lat="39.690092" lon="-8.592898">
<ele>243.5</ele>
<desc>Speed 9.0 km/h Distance 63.84 km</desc>
<time>2011-05-22T12:07:02.86</time>
<name>13436</name>
<sym>Dot</sym>
</trkpt>
<trkpt lat="39.690107" lon="-8.592915">
<ele>244.0</ele>
<desc>Speed 8.0 km/h Distance 63.84 km</desc>
<time>2011-05-22T12:07:03.86</time>
<name>13437</name>
<sym>Dot</sym>
</trkpt>
<trkpt lat="39.690125" lon="-8.592928">
<ele>244.5</ele>
<desc>Speed 8.4 km/h Distance 63.84 km</desc>
<time>2011-05-22T12:07:04.86</time>
<name>13438</name>
<sym>Dot</sym>
</trkpt>
<trkpt lat="39.690140" lon="-8.592940">
<ele>246.0</ele>
<desc>Speed 6.7 km/h Distance 63.85 km</desc>
<time>2011-05-22T12:07:05.86</time>
<name>13439</name>
<sym>Dot</sym>
</trkpt>
<trkpt lat="39.690157" lon="-8.592950">
<ele>246.5</ele>
<desc>Speed 7.7 km/h Distance 63.85 km</desc>
<time>2011-05-22T12:07:06.86</time>
<name>13440</name>
<sym>Dot</sym>
</trkpt>
<trkpt lat="39.690173" lon="-8.592958">
<ele>247.0</ele>
<desc>Speed 7.2 km/h Distance 63.85 km</desc>
<time>2011-05-22T12:07:07.86</time>
<name>13441</name>
<sym>Dot</sym>
</trkpt>
<trkpt lat="39.690187" lon="-8.592968">
<ele>248.5</ele>
<desc>Speed 5.9 km/h Distance 63.85 km</desc>
<time>2011-05-22T12:07:08.86</time>
<name>13442</name>
<sym>Dot</sym>
</trkpt>
<trkpt lat="39.690207" lon="-8.592978">
<ele>249.0</ele>
<desc>Speed 8.2 km/h Distance 63.85 km</desc>
<time>2011-05-22T12:07:09.86</time>
<name>13443</name>
<sym>Dot</sym>
</trkpt>
<trkpt lat="39.690227" lon="-8.592988">
<ele>249.5</ele>
<desc>Speed 8.6 km/h Distance 63.86 km</desc>
<time>2011-05-22T12:07:10.86</time>
<name>13444</name>
<sym>Dot</sym>
</trkpt>
<trkpt lat="39.690247" lon="-8.592998">
<ele>249.5</ele>
<desc>Speed 8.5 km/h Distance 63.86 km</desc>
<time>2011-05-22T12:07:11.86</time>
<name>13445</name>
<sym>Dot</sym>
</trkpt>
<trkpt lat="39.690268" lon="-8.593010">
<ele>250.5</ele>
<desc>Speed 8.9 km/h Distance 63.86 km</desc>
<time>2011-05-22T12:07:12.86</time>
<name>13446</name>
<sym>Dot</sym>
</trkpt>
<trkpt lat="39.690290" lon="-8.593020">
<ele>251.0</ele>
<desc>Speed 9.1 km/h Distance 63.86 km</desc>
<time>2011-05-22T12:07:13.86</time>
<name>13447</name>
<sym>Dot</sym>
</trkpt>
<trkpt lat="39.690308" lon="-8.593035">
<ele>251.0</ele>
<desc>Speed 8.9 km/h Distance 63.87 km</desc>
<time>2011-05-22T12:07:14.86</time>
<name>13448</name>
<sym>Dot</sym>
</trkpt>
<trkpt lat="39.690328" lon="-8.593052">
<ele>252.0</ele>
<desc>Speed 9.2 km/h Distance 63.87 km</desc>
<time>2011-05-22T12:07:15.86</time>
<name>13449</name>
<sym>Dot</sym>
</trkpt>
<trkpt lat="39.690350" lon="-8.593068">
<ele>252.0</ele>
<desc>Speed 10.0 km/h Distance 63.87 km</desc>
<time>2011-05-22T12:07:16.86</time>
<name>13450</name>
<sym>Dot</sym>
</trkpt>
<trkpt lat="39.690372" lon="-8.593082">
<ele>252.5</ele>
<desc>Speed 9.8 km/h Distance 63.87 km</desc>
<time>2011-05-22T12:07:17.86</time>
<name>13451</name>
<sym>Dot</sym>
</trkpt>
<trkpt lat="39.690393" lon="-8.593098">
<ele>252.5</ele>
<desc>Speed 9.9 km/h Distance 63.88 km</desc>
<time>2011-05-22T12:07:18.86</time>
<name>13452</name>
<sym>Dot</sym>
</trkpt>
<trkpt lat="39.690415" lon="-8.593113">
<ele>253.0</ele>
<desc>Speed 9.5 km/h Distance 63.88 km</desc>
<time>2011-05-22T12:07:19.86</time>
<name>13453</name>
<sym>Dot</sym>
</trkpt>
<trkpt lat="39.690438" lon="-8.593125">
<ele>253.0</ele>
<desc>Speed 9.9 km/h Distance 63.88 km</desc>
<time>2011-05-22T12:07:20.86</time>
<name>13454</name>
<sym>Dot</sym>
</trkpt>
<trkpt lat="39.690460" lon="-8.593138">
<ele>254.0</ele>
<desc>Speed 9.4 km/h Distance 63.89 km</desc>
<time>2011-05-22T12:07:21.86</time>
<name>13455</name>
<sym>Dot</sym>
</trkpt>
<trkpt lat="39.690487" lon="-8.593157">
<ele>254.5</ele>
<desc>Speed 11.4 km/h Distance 63.89 km</desc>
<time>2011-05-22T12:07:22.86</time>
<name>13456</name>
<sym>Dot</sym>
</trkpt>
<trkpt lat="39.690512" lon="-8.593173">
<ele>255.0</ele>
<desc>Speed 11.3 km/h Distance 63.89 km</desc>
<time>2011-05-22T12:07:23.86</time>
<name>13457</name>
<sym>Dot</sym>
</trkpt>
<trkpt lat="39.690537" lon="-8.593192">
<ele>255.5</ele>
<desc>Speed 11.1 km/h Distance 63.90 km</desc>
<time>2011-05-22T12:07:24.86</time>
<name>13458</name>
<sym>Dot</sym>
</trkpt>
<trkpt lat="39.690562" lon="-8.593213">
<ele>255.5</ele>
<desc>Speed 11.6 km/h Distance 63.90 km</desc>
<time>2011-05-22T12:07:25.86</time>
<name>13459</name>
<sym>Dot</sym>
</trkpt>
<trkpt lat="39.690587" lon="-8.593233">
<ele>256.0</ele>
<desc>Speed 11.1 km/h Distance 63.90 km</desc>
<time>2011-05-22T12:07:26.86</time>
<name>13460</name>
<sym>Dot</sym>
</trkpt>
<trkpt lat="39.690612" lon="-8.593257">
<ele>256.0</ele>
<desc>Speed 11.5 km/h Distance 63.91 km</desc>
<time>2011-05-22T12:07:27.86</time>
<name>13461</name>
<sym>Dot</sym>
</trkpt>
<trkpt lat="39.690635" lon="-8.593280">
<ele>256.0</ele>
<desc>Speed 11.6 km/h Distance 63.91 km</desc>
<time>2011-05-22T12:07:28.86</time>
<name>13462</name>
<sym>Dot</sym>
</trkpt>
<trkpt lat="39.690662" lon="-8.593302">
<ele>256.0</ele>
<desc>Speed 11.8 km/h Distance 63.91 km</desc>
<time>2011-05-22T12:07:29.86</time>
<name>13463</name>
<sym>Dot</sym>
</trkpt>
<trkpt lat="39.690687" lon="-8.593325">
<ele>256.0</ele>
<desc>Speed 12.0 km/h Distance 63.92 km</desc>
<time>2011-05-22T12:07:30.86</time>
<name>13464</name>
<sym>Dot</sym>
</trkpt>
<trkpt lat="39.690713" lon="-8.593350">
<ele>256.0</ele>
<desc>Speed 12.3 km/h Distance 63.92 km</desc>
<time>2011-05-22T12:07:31.86</time>
<name>13465</name>
<sym>Dot</sym>
</trkpt>
<trkpt lat="39.690740" lon="-8.593373">
<ele>256.0</ele>
<desc>Speed 12.2 km/h Distance 63.92 km</desc>
<time>2011-05-22T12:07:32.86</time>
<name>13466</name>
<sym>Dot</sym>
</trkpt>
<trkpt lat="39.690765" lon="-8.593398">
<ele>256.0</ele>
<desc>Speed 12.2 km/h Distance 63.93 km</desc>
<time>2011-05-22T12:07:33.86</time>
<name>13467</name>
<sym>Dot</sym>
</trkpt>
<trkpt lat="39.690790" lon="-8.593420">
<ele>256.0</ele>
<desc>Speed 11.5 km/h Distance 63.93 km</desc>
<time>2011-05-22T12:07:34.86</time>
<name>13468</name>
<sym>Dot</sym>
</trkpt>
<trkpt lat="39.690812" lon="-8.593440">
<ele>256.5</ele>
<desc>Speed 10.8 km/h Distance 63.93 km</desc>
<time>2011-05-22T12:07:35.86</time>
<name>13469</name>
<sym>Dot</sym>
</trkpt>
<trkpt lat="39.690838" lon="-8.593467">
<ele>255.5</ele>
<desc>Speed 11.1 km/h Distance 63.94 km</desc>
<time>2011-05-22T12:07:36.86</time>
<name>13470</name>
<sym>Dot</sym>
</trkpt>
<trkpt lat="39.690862" lon="-8.593487">
<ele>255.0</ele>
<desc>Speed 10.6 km/h Distance 63.94 km</desc>
<time>2011-05-22T12:07:37.86</time>
<name>13471</name>
<sym>Dot</sym>
</trkpt>
<trkpt lat="39.690883" lon="-8.593505">
<ele>255.5</ele>
<desc>Speed 9.6 km/h Distance 63.94 km</desc>
<time>2011-05-22T12:07:38.86</time>
<name>13472</name>
<sym>Dot</sym>
</trkpt>
<trkpt lat="39.690905" lon="-8.593523">
<ele>255.5</ele>
<desc>Speed 9.5 km/h Distance 63.95 km</desc>
<time>2011-05-22T12:07:39.86</time>
<name>13473</name>
<sym>Dot</sym>
</trkpt>
<trkpt lat="39.690925" lon="-8.593542">
<ele>255.5</ele>
<desc>Speed 9.0 km/h Distance 63.95 km</desc>
<time>2011-05-22T12:07:40.86</time>
<name>13474</name>
<sym>Dot</sym>
</trkpt>
<trkpt lat="39.690943" lon="-8.593558">
<ele>255.5</ele>
<desc>Speed 8.4 km/h Distance 63.95 km</desc>
<time>2011-05-22T12:07:41.86</time>
<name>13475</name>
<sym>Dot</sym>
</trkpt>
<trkpt lat="39.690962" lon="-8.593573">
<ele>255.0</ele>
<desc>Speed 8.1 km/h Distance 63.95 km</desc>
<time>2011-05-22T12:07:42.86</time>
<name>13476</name>
<sym>Dot</sym>
</trkpt>
<trkpt lat="39.690978" lon="-8.593592">
<ele>255.5</ele>
<desc>Speed 8.2 km/h Distance 63.96 km</desc>
<time>2011-05-22T12:07:43.86</time>
<name>13477</name>
<sym>Dot</sym>
</trkpt>
<trkpt lat="39.690995" lon="-8.593608">
<ele>255.5</ele>
<desc>Speed 8.3 km/h Distance 63.96 km</desc>
<time>2011-05-22T12:07:44.86</time>
<name>13478</name>
<sym>Dot</sym>
</trkpt>
<trkpt lat="39.691013" lon="-8.593627">
<ele>255.0</ele>
<desc>Speed 8.1 km/h Distance 63.96 km</desc>
<time>2011-05-22T12:07:45.86</time>
<name>13479</name>
<sym>Dot</sym>
</trkpt>
<trkpt lat="39.691033" lon="-8.593645">
<ele>254.0</ele>
<desc>Speed 8.0 km/h Distance 63.96 km</desc>
<time>2011-05-22T12:07:46.86</time>
<name>13480</name>
<sym>Dot</sym>
</trkpt>
<trkpt lat="39.691052" lon="-8.593663">
<ele>253.5</ele>
<desc>Speed 8.0 km/h Distance 63.97 km</desc>
<time>2011-05-22T12:07:47.86</time>
<name>13481</name>
<sym>Dot</sym>
</trkpt>
<trkpt lat="39.691068" lon="-8.593678">
<ele>253.0</ele>
<desc>Speed 7.3 km/h Distance 63.97 km</desc>
<time>2011-05-22T12:07:48.86</time>
<name>13482</name>
<sym>Dot</sym>
</trkpt>
<trkpt lat="39.691082" lon="-8.593697">
<ele>253.5</ele>
<desc>Speed 7.7 km/h Distance 63.97 km</desc>
<time>2011-05-22T12:07:49.86</time>
<name>13483</name>
<sym>Dot</sym>
</trkpt>
<trkpt lat="39.691098" lon="-8.593715">
<ele>253.0</ele>
<desc>Speed 7.8 km/h Distance 63.97 km</desc>
<time>2011-05-22T12:07:50.86</time>
<name>13484</name>
<sym>Dot</sym>
</trkpt>
<trkpt lat="39.691115" lon="-8.593735">
<ele>252.5</ele>
<desc>Speed 8.0 km/h Distance 63.97 km</desc>
<time>2011-05-22T12:07:51.86</time>
<name>13485</name>
<sym>Dot</sym>
</trkpt>
<trkpt lat="39.691127" lon="-8.593755">
<ele>252.5</ele>
<desc>Speed 7.5 km/h Distance 63.98 km</desc>
<time>2011-05-22T12:07:52.86</time>
<name>13486</name>
<sym>Dot</sym>
</trkpt>
<trkpt lat="39.691138" lon="-8.593773">
<ele>253.0</ele>
<desc>Speed 6.9 km/h Distance 63.98 km</desc>
<time>2011-05-22T12:07:53.86</time>
<name>13487</name>
<sym>Dot</sym>
</trkpt>
<trkpt lat="39.691150" lon="-8.593793">
<ele>253.0</ele>
<desc>Speed 7.0 km/h Distance 63.98 km</desc>
<time>2011-05-22T12:07:54.86</time>
<name>13488</name>
<sym>Dot</sym>
</trkpt>
<trkpt lat="39.691160" lon="-8.593810">
<ele>253.5</ele>
<desc>Speed 6.2 km/h Distance 63.98 km</desc>
<time>2011-05-22T12:07:55.86</time>
<name>13489</name>
<sym>Dot</sym>
</trkpt>
<trkpt lat="39.691168" lon="-8.593827">
<ele>253.5</ele>
<desc>Speed 6.2 km/h Distance 63.98 km</desc>
<time>2011-05-22T12:07:56.86</time>
<name>13490</name>
<sym>Dot</sym>
</trkpt>
<trkpt lat="39.691170" lon="-8.593847">
<ele>254.5</ele>
<desc>Speed 6.1 km/h Distance 63.99 km</desc>
<time>2011-05-22T12:07:57.86</time>
<name>13491</name>
<sym>Dot</sym>
</trkpt>
<trkpt lat="39.691162" lon="-8.593865">
<ele>254.5</ele>
<desc>Speed 6.8 km/h Distance 63.99 km</desc>
<time>2011-05-22T12:07:58.86</time>
<name>13492</name>
<sym>Dot</sym>
</trkpt>
<trkpt lat="39.691152" lon="-8.593878">
<ele>254.0</ele>
<desc>Speed 5.9 km/h Distance 63.99 km</desc>
<time>2011-05-22T12:07:59.86</time>
<name>13493</name>
<sym>Dot</sym>
</trkpt>
<trkpt lat="39.691143" lon="-8.593887">
<ele>254.5</ele>
<desc>Speed 4.3 km/h Distance 63.99 km</desc>
<time>2011-05-22T12:08:00.86</time>
<name>13494</name>
<sym>Dot</sym>
</trkpt>
<trkpt lat="39.691137" lon="-8.593897">
<ele>255.0</ele>
<desc>Speed 4.2 km/h Distance 63.99 km</desc>
<time>2011-05-22T12:08:01.86</time>
<name>13495</name>
<sym>Dot</sym>
</trkpt>
<trkpt lat="39.691133" lon="-8.593902">
<ele>255.5</ele>
<desc>Speed 2.5 km/h Distance 63.99 km</desc>
<time>2011-05-22T12:08:02.86</time>
<name>13496</name>
<sym>Dot</sym>
</trkpt>
<trkpt lat="39.691130" lon="-8.593908">
<ele>256.5</ele>
<desc>Speed 2.6 km/h Distance 63.99 km</desc>
<time>2011-05-22T12:08:03.86</time>
<name>13497</name>
<sym>Dot</sym>
</trkpt>
<trkpt lat="39.691125" lon="-8.593913">
<ele>257.5</ele>
<desc>Speed 3.0 km/h Distance 63.99 km</desc>
<time>2011-05-22T12:08:04.86</time>
<name>13498</name>
<sym>Dot</sym>
</trkpt>
<trkpt lat="39.691117" lon="-8.593927">
<ele>257.5</ele>
<desc>Speed 5.4 km/h Distance 64.00 km</desc>
<time>2011-05-22T12:08:05.86</time>
<name>13499</name>
<sym>Dot</sym>
</trkpt>
<trkpt lat="39.691108" lon="-8.593940">
<ele>257.5</ele>
<desc>Speed 5.6 km/h Distance 64.00 km</desc>
<time>2011-05-22T12:08:06.86</time>
<name>13500</name>
<sym>Dot</sym>
</trkpt>
<trkpt lat="39.691098" lon="-8.593955">
<ele>257.0</ele>
<desc>Speed 5.9 km/h Distance 64.00 km</desc>
<time>2011-05-22T12:08:07.86</time>
<name>13501</name>
<sym>Dot</sym>
</trkpt>
<trkpt lat="39.691087" lon="-8.593973">
<ele>257.0</ele>
<desc>Speed 7.5 km/h Distance 64.00 km</desc>
<time>2011-05-22T12:08:08.86</time>
<name>13502</name>
<sym>Dot</sym>
</trkpt>
<trkpt lat="39.691077" lon="-8.593993">
<ele>257.0</ele>
<desc>Speed 7.5 km/h Distance 64.00 km</desc>
<time>2011-05-22T12:08:09.86</time>
<name>13503</name>
<sym>Dot</sym>
</trkpt>
<trkpt lat="39.691067" lon="-8.594012">
<ele>257.0</ele>
<desc>Speed 6.7 km/h Distance 64.00 km</desc>
<time>2011-05-22T12:08:10.86</time>
<name>13504</name>
<sym>Dot</sym>
</trkpt>
<trkpt lat="39.691058" lon="-8.594028">
<ele>257.5</ele>
<desc>Speed 5.8 km/h Distance 64.01 km</desc>
<time>2011-05-22T12:08:11.86</time>
<name>13505</name>
<sym>Dot</sym>
</trkpt>
<trkpt lat="39.691050" lon="-8.594043">
<ele>257.5</ele>
<desc>Speed 5.7 km/h Distance 64.01 km</desc>
<time>2011-05-22T12:08:12.86</time>
<name>13506</name>
<sym>Dot</sym>
</trkpt>
<trkpt lat="39.691047" lon="-8.594052">
<ele>258.5</ele>
<desc>Speed 2.9 km/h Distance 64.01 km</desc>
<time>2011-05-22T12:08:13.86</time>
<name>13507</name>
<sym>Dot</sym>
</trkpt>
<trkpt lat="39.691045" lon="-8.594057">
<ele>259.0</ele>
<desc>Speed 1.3 km/h Distance 64.01 km</desc>
<time>2011-05-22T12:08:15.86</time>
<name>13508</name>
<sym>Dot</sym>
</trkpt>
<trkpt lat="39.691040" lon="-8.594053">
<ele>259.5</ele>
<desc>Speed 2.2 km/h Distance 64.01 km</desc>
<time>2011-05-22T12:08:16.86</time>
<name>13509</name>
<sym>Dot</sym>
</trkpt>
<trkpt lat="39.691043" lon="-8.594043">
<ele>257.5</ele>
<desc>Speed 3.1 km/h Distance 64.01 km</desc>
<time>2011-05-22T12:08:17.86</time>
<name>13510</name>
<sym>Dot</sym>
</trkpt>
<trkpt lat="39.691050" lon="-8.594050">
<ele>258.0</ele>
<desc>Speed 2.7 km/h Distance 64.01 km</desc>
<time>2011-05-22T12:08:19.86</time>
<name>13511</name>
<sym>Dot</sym>
</trkpt>
<trkpt lat="39.691047" lon="-8.594048">
<ele>257.5</ele>
<desc>Speed 1.2 km/h Distance 64.01 km</desc>
<time>2011-05-22T12:08:20.86</time>
<name>13512</name>
<sym>Dot</sym>
</trkpt>
<trkpt lat="39.691050" lon="-8.594050">
<ele>258.5</ele>
<desc>Speed 1.5 km/h Distance 64.01 km</desc>
<time>2011-05-22T12:08:22.86</time>
<name>13513</name>
<sym>Dot</sym>
</trkpt>
<trkpt lat="39.691048" lon="-8.594060">
<ele>259.5</ele>
<desc>Speed 2.9 km/h Distance 64.01 km</desc>
<time>2011-05-22T12:08:23.86</time>
<name>13514</name>
<sym>Dot</sym>
</trkpt>
<trkpt lat="39.691047" lon="-8.594075">
<ele>260.5</ele>
<desc>Speed 5.2 km/h Distance 64.01 km</desc>
<time>2011-05-22T12:08:24.86</time>
<name>13515</name>
<sym>Dot</sym>
</trkpt>
<trkpt lat="39.691043" lon="-8.594105">
<ele>260.5</ele>
<desc>Speed 9.1 km/h Distance 64.02 km</desc>
<time>2011-05-22T12:08:25.86</time>
<name>13516</name>
<sym>Dot</sym>
</trkpt>
<trkpt lat="39.691040" lon="-8.594138">
<ele>261.0</ele>
<desc>Speed 10.0 km/h Distance 64.02 km</desc>
<time>2011-05-22T12:08:26.86</time>
<name>13517</name>
<sym>Dot</sym>
</trkpt>
<trkpt lat="39.691035" lon="-8.594167">
<ele>261.5</ele>
<desc>Speed 9.6 km/h Distance 64.02 km</desc>
<time>2011-05-22T12:08:27.86</time>
<name>13518</name>
<sym>Dot</sym>
</trkpt>
<trkpt lat="39.691028" lon="-8.594200">
<ele>261.5</ele>
<desc>Speed 10.2 km/h Distance 64.03 km</desc>
<time>2011-05-22T12:08:28.86</time>
<name>13519</name>
<sym>Dot</sym>
</trkpt>
<trkpt lat="39.691022" lon="-8.594233">
<ele>261.5</ele>
<desc>Speed 10.7 km/h Distance 64.03 km</desc>
<time>2011-05-22T12:08:29.86</time>
<name>13520</name>
<sym>Dot</sym>
</trkpt>
<trkpt lat="39.691015" lon="-8.594267">
<ele>261.5</ele>
<desc>Speed 10.6 km/h Distance 64.03 km</desc>
<time>2011-05-22T12:08:30.86</time>
<name>13521</name>
<sym>Dot</sym>
</trkpt>
<trkpt lat="39.691008" lon="-8.594300">
<ele>262.0</ele>
<desc>Speed 10.8 km/h Distance 64.03 km</desc>
<time>2011-05-22T12:08:31.86</time>
<name>13522</name>
<sym>Dot</sym>
</trkpt>
<trkpt lat="39.691003" lon="-8.594337">
<ele>262.0</ele>
<desc>Speed 11.1 km/h Distance 64.04 km</desc>
<time>2011-05-22T12:08:32.86</time>
<name>13523</name>
<sym>Dot</sym>
</trkpt>
<trkpt lat="39.690997" lon="-8.594373">
<ele>262.0</ele>
<desc>Speed 11.4 km/h Distance 64.04 km</desc>
<time>2011-05-22T12:08:33.86</time>
<name>13524</name>
<sym>Dot</sym>
</trkpt>
<trkpt lat="39.690990" lon="-8.594412">
<ele>262.0</ele>
<desc>Speed 11.7 km/h Distance 64.04 km</desc>
<time>2011-05-22T12:08:34.86</time>
<name>13525</name>
<sym>Dot</sym>
</trkpt>
<trkpt lat="39.690985" lon="-8.594452">
<ele>261.5</ele>
<desc>Speed 11.8 km/h Distance 64.05 km</desc>
<time>2011-05-22T12:08:35.86</time>
<name>13526</name>
<sym>Dot</sym>
</trkpt>
<trkpt lat="39.690980" lon="-8.594492">
<ele>261.5</ele>
<desc>Speed 12.0 km/h Distance 64.05 km</desc>
<time>2011-05-22T12:08:36.86</time>
<name>13527</name>
<sym>Dot</sym>
</trkpt>
<trkpt lat="39.690975" lon="-8.594532">
<ele>261.5</ele>
<desc>Speed 12.5 km/h Distance 64.05 km</desc>
<time>2011-05-22T12:08:37.86</time>
<name>13528</name>
<sym>Dot</sym>
</trkpt>
<trkpt lat="39.690970" lon="-8.594575">
<ele>261.5</ele>
<desc>Speed 12.9 km/h Distance 64.06 km</desc>
<time>2011-05-22T12:08:38.86</time>
<name>13529</name>
<sym>Dot</sym>
</trkpt>
<trkpt lat="39.690965" lon="-8.594618">
<ele>261.0</ele>
<desc>Speed 13.4 km/h Distance 64.06 km</desc>
<time>2011-05-22T12:08:39.86</time>
<name>13530</name>
<sym>Dot</sym>
</trkpt>
<trkpt lat="39.690962" lon="-8.594663">
<ele>261.0</ele>
<desc>Speed 13.5 km/h Distance 64.07 km</desc>
<time>2011-05-22T12:08:40.86</time>
<name>13531</name>
<sym>Dot</sym>
</trkpt>
<trkpt lat="39.690958" lon="-8.594710">
<ele>260.5</ele>
<desc>Speed 13.3 km/h Distance 64.07 km</desc>
<time>2011-05-22T12:08:41.86</time>
<name>13532</name>
<sym>Dot</sym>
</trkpt>
<trkpt lat="39.690952" lon="-8.594757">
<ele>260.5</ele>
<desc>Speed 13.9 km/h Distance 64.07 km</desc>
<time>2011-05-22T12:08:42.86</time>
<name>13533</name>
<sym>Dot</sym>
</trkpt>
<trkpt lat="39.690943" lon="-8.594805">
<ele>260.0</ele>
<desc>Speed 14.4 km/h Distance 64.08 km</desc>
<time>2011-05-22T12:08:43.86</time>
<name>13534</name>
<sym>Dot</sym>
</trkpt>
<trkpt lat="39.690937" lon="-8.594853">
<ele>259.5</ele>
<desc>Speed 14.3 km/h Distance 64.08 km</desc>
<time>2011-05-22T12:08:44.86</time>
<name>13535</name>
<sym>Dot</sym>
</trkpt>
<trkpt lat="39.690928" lon="-8.594903">
<ele>259.5</ele>
<desc>Speed 14.7 km/h Distance 64.09 km</desc>
<time>2011-05-22T12:08:45.86</time>
<name>13536</name>
<sym>Dot</sym>
</trkpt>
<trkpt lat="39.690920" lon="-8.594953">
<ele>259.0</ele>
<desc>Speed 15.4 km/h Distance 64.09 km</desc>
<time>2011-05-22T12:08:46.86</time>
<name>13537</name>
<sym>Dot</sym>
</trkpt>
<trkpt lat="39.690908" lon="-8.595007">
<ele>258.5</ele>
<desc>Speed 16.2 km/h Distance 64.10 km</desc>
<time>2011-05-22T12:08:47.86</time>
<name>13538</name>
<sym>Dot</sym>
</trkpt>
<trkpt lat="39.690897" lon="-8.595062">
<ele>258.0</ele>
<desc>Speed 16.7 km/h Distance 64.10 km</desc>
<time>2011-05-22T12:08:48.86</time>
<name>13539</name>
<sym>Dot</sym>
</trkpt>
<trkpt lat="39.690882" lon="-8.595117">
<ele>257.5</ele>
<desc>Speed 17.6 km/h Distance 64.11 km</desc>
<time>2011-05-22T12:08:49.86</time>
<name>13540</name>
<sym>Dot</sym>
</trkpt>
<trkpt lat="39.690867" lon="-8.595172">
<ele>257.5</ele>
<desc>Speed 17.4 km/h Distance 64.11 km</desc>
<time>2011-05-22T12:08:50.86</time>
<name>13541</name>
<sym>Dot</sym>
</trkpt>
<trkpt lat="39.690852" lon="-8.595227">
<ele>257.0</ele>
<desc>Speed 17.3 km/h Distance 64.12 km</desc>
<time>2011-05-22T12:08:51.86</time>
<name>13542</name>
<sym>Dot</sym>
</trkpt>
<trkpt lat="39.690837" lon="-8.595282">
<ele>257.0</ele>
<desc>Speed 17.6 km/h Distance 64.12 km</desc>
<time>2011-05-22T12:08:52.86</time>
<name>13543</name>
<sym>Dot</sym>
</trkpt>
<trkpt lat="39.690823" lon="-8.595333">
<ele>257.0</ele>
<desc>Speed 16.7 km/h Distance 64.13 km</desc>
<time>2011-05-22T12:08:53.86</time>
<name>13544</name>
<sym>Dot</sym>
</trkpt>
<trkpt lat="39.690810" lon="-8.595385">
<ele>256.5</ele>
<desc>Speed 16.7 km/h Distance 64.13 km</desc>
<time>2011-05-22T12:08:54.86</time>
<name>13545</name>
<sym>Dot</sym>
</trkpt>
<trkpt lat="39.690797" lon="-8.595438">
<ele>256.5</ele>
<desc>Speed 17.0 km/h Distance 64.14 km</desc>
<time>2011-05-22T12:08:55.86</time>
<name>13546</name>
<sym>Dot</sym>
</trkpt>
<trkpt lat="39.690783" lon="-8.595493">
<ele>256.0</ele>
<desc>Speed 17.5 km/h Distance 64.14 km</desc>
<time>2011-05-22T12:08:56.86</time>
<name>13547</name>
<sym>Dot</sym>
</trkpt>
<trkpt lat="39.690772" lon="-8.595547">
<ele>255.5</ele>
<desc>Speed 16.8 km/h Distance 64.14 km</desc>
<time>2011-05-22T12:08:57.86</time>
<name>13548</name>
<sym>Dot</sym>
</trkpt>
<trkpt lat="39.690760" lon="-8.595593">
<ele>255.5</ele>
<desc>Speed 14.5 km/h Distance 64.15 km</desc>
<time>2011-05-22T12:08:58.86</time>
<name>13549</name>
<sym>Dot</sym>
</trkpt>
<trkpt lat="39.690752" lon="-8.595628">
<ele>255.5</ele>
<desc>Speed 11.1 km/h Distance 64.15 km</desc>
<time>2011-05-22T12:08:59.86</time>
<name>13550</name>
<sym>Dot</sym>
</trkpt>
<trkpt lat="39.690743" lon="-8.595652">
<ele>255.5</ele>
<desc>Speed 8.1 km/h Distance 64.15 km</desc>
<time>2011-05-22T12:09:00.86</time>
<name>13551</name>
<sym>Dot</sym>
</trkpt>
<trkpt lat="39.690733" lon="-8.595670">
<ele>255.5</ele>
<desc>Speed 6.4 km/h Distance 64.16 km</desc>
<time>2011-05-22T12:09:01.86</time>
<name>13552</name>
<sym>Dot</sym>
</trkpt>
<trkpt lat="39.690722" lon="-8.595683">
<ele>256.0</ele>
<desc>Speed 6.0 km/h Distance 64.16 km</desc>
<time>2011-05-22T12:09:02.86</time>
<name>13553</name>
<sym>Dot</sym>
</trkpt>
<trkpt lat="39.690710" lon="-8.595692">
<ele>256.0</ele>
<desc>Speed 5.5 km/h Distance 64.16 km</desc>
<time>2011-05-22T12:09:03.86</time>
<name>13554</name>
<sym>Dot</sym>
</trkpt>
<trkpt lat="39.690702" lon="-8.595702">
<ele>256.0</ele>
<desc>Speed 4.8 km/h Distance 64.16 km</desc>
<time>2011-05-22T12:09:04.86</time>
<name>13555</name>
<sym>Dot</sym>
</trkpt>
<trkpt lat="39.690698" lon="-8.595713">
<ele>256.5</ele>
<desc>Speed 3.6 km/h Distance 64.16 km</desc>
<time>2011-05-22T12:09:05.86</time>
<name>13556</name>
<sym>Dot</sym>
</trkpt>
<trkpt lat="39.690698" lon="-8.595718">
<ele>257.0</ele>
<desc>Speed 1.5 km/h Distance 64.16 km</desc>
<time>2011-05-22T12:09:06.86</time>
<name>13557</name>
<sym>Dot</sym>
</trkpt>
<trkpt lat="39.690700" lon="-8.595715">
<ele>258.0</ele>
<desc>Speed 1.2 km/h Distance 64.16 km</desc>
<time>2011-05-22T12:09:12.86</time>
<name>13558</name>
<sym>Dot</sym>
</trkpt>
<trkpt lat="39.690700" lon="-8.595717">
<ele>258.0</ele>
<desc>Speed 1.2 km/h Distance 64.16 km</desc>
<time>2011-05-22T12:09:14.86</time>
<name>13559</name>
<sym>Dot</sym>
</trkpt>
<trkpt lat="39.690697" lon="-8.595728">
<ele>258.5</ele>
<desc>Speed 4.0 km/h Distance 64.16 km</desc>
<time>2011-05-22T12:09:15.86</time>
<name>13560</name>
<sym>Dot</sym>
</trkpt>
<trkpt lat="39.690697" lon="-8.595750">
<ele>259.5</ele>
<desc>Speed 6.3 km/h Distance 64.17 km</desc>
<time>2011-05-22T12:09:16.86</time>
<name>13561</name>
<sym>Dot</sym>
</trkpt>
<trkpt lat="39.690698" lon="-8.595777">
<ele>260.0</ele>
<desc>Speed 8.3 km/h Distance 64.17 km</desc>
<time>2011-05-22T12:09:17.86</time>
<name>13562</name>
<sym>Dot</sym>
</trkpt>
<trkpt lat="39.690695" lon="-8.595815">
<ele>260.0</ele>
<desc>Speed 11.7 km/h Distance 64.17 km</desc>
<time>2011-05-22T12:09:18.86</time>
<name>13563</name>
<sym>Dot</sym>
</trkpt>
<trkpt lat="39.690683" lon="-8.595857">
<ele>260.0</ele>
<desc>Speed 13.6 km/h Distance 64.18 km</desc>
<time>2011-05-22T12:09:19.86</time>
<name>13564</name>
<sym>Dot</sym>
</trkpt>
<trkpt lat="39.690665" lon="-8.595902">
<ele>259.5</ele>
<desc>Speed 15.4 km/h Distance 64.18 km</desc>
<time>2011-05-22T12:09:20.86</time>
<name>13565</name>
<sym>Dot</sym>
</trkpt>
<trkpt lat="39.690642" lon="-8.595950">
<ele>259.0</ele>
<desc>Speed 16.9 km/h Distance 64.18 km</desc>
<time>2011-05-22T12:09:21.86</time>
<name>13566</name>
<sym>Dot</sym>
</trkpt>
<trkpt lat="39.690615" lon="-8.595997">
<ele>258.5</ele>
<desc>Speed 18.0 km/h Distance 64.19 km</desc>
<time>2011-05-22T12:09:22.86</time>
<name>13567</name>
<sym>Dot</sym>
</trkpt>
<trkpt lat="39.690583" lon="-8.596040">
<ele>259.0</ele>
<desc>Speed 18.4 km/h Distance 64.19 km</desc>
<time>2011-05-22T12:09:23.86</time>
<name>13568</name>
<sym>Dot</sym>
</trkpt>
<trkpt lat="39.690548" lon="-8.596082">
<ele>259.0</ele>
<desc>Speed 18.9 km/h Distance 64.20 km</desc>
<time>2011-05-22T12:09:24.86</time>
<name>13569</name>
<sym>Dot</sym>
</trkpt>
<trkpt lat="39.690513" lon="-8.596120">
<ele>259.0</ele>
<desc>Speed 18.6 km/h Distance 64.20 km</desc>
<time>2011-05-22T12:09:25.86</time>
<name>13570</name>
<sym>Dot</sym>
</trkpt>
<trkpt lat="39.690477" lon="-8.596158">
<ele>258.5</ele>
<desc>Speed 19.0 km/h Distance 64.21 km</desc>
<time>2011-05-22T12:09:26.86</time>
<name>13571</name>
<sym>Dot</sym>
</trkpt>
<trkpt lat="39.690442" lon="-8.596202">
<ele>258.0</ele>
<desc>Speed 19.4 km/h Distance 64.22 km</desc>
<time>2011-05-22T12:09:27.86</time>
<name>13572</name>
<sym>Dot</sym>
</trkpt>
<trkpt lat="39.690407" lon="-8.596245">
<ele>258.0</ele>
<desc>Speed 18.9 km/h Distance 64.22 km</desc>
<time>2011-05-22T12:09:28.86</time>
<name>13573</name>
<sym>Dot</sym>
</trkpt>
<trkpt lat="39.690372" lon="-8.596287">
<ele>258.0</ele>
<desc>Speed 19.0 km/h Distance 64.23 km</desc>
<time>2011-05-22T12:09:29.86</time>
<name>13574</name>
<sym>Dot</sym>
</trkpt>
<trkpt lat="39.690337" lon="-8.596325">
<ele>258.0</ele>
<desc>Speed 18.5 km/h Distance 64.23 km</desc>
<time>2011-05-22T12:09:30.86</time>
<name>13575</name>
<sym>Dot</sym>
</trkpt>
<trkpt lat="39.690302" lon="-8.596365">
<ele>257.5</ele>
<desc>Speed 18.4 km/h Distance 64.24 km</desc>
<time>2011-05-22T12:09:31.86</time>
<name>13576</name>
<sym>Dot</sym>
</trkpt>
<trkpt lat="39.690270" lon="-8.596405">
<ele>257.5</ele>
<desc>Speed 17.9 km/h Distance 64.24 km</desc>
<time>2011-05-22T12:09:32.86</time>
<name>13577</name>
<sym>Dot</sym>
</trkpt>
<trkpt lat="39.690240" lon="-8.596448">
<ele>257.0</ele>
<desc>Speed 17.9 km/h Distance 64.25 km</desc>
<time>2011-05-22T12:09:33.86</time>
<name>13578</name>
<sym>Dot</sym>
</trkpt>
<trkpt lat="39.690212" lon="-8.596495">
<ele>257.0</ele>
<desc>Speed 17.9 km/h Distance 64.25 km</desc>
<time>2011-05-22T12:09:34.86</time>
<name>13579</name>
<sym>Dot</sym>
</trkpt>
<trkpt lat="39.690187" lon="-8.596540">
<ele>256.5</ele>
<desc>Speed 17.6 km/h Distance 64.26 km</desc>
<time>2011-05-22T12:09:35.86</time>
<name>13580</name>
<sym>Dot</sym>
</trkpt>
<trkpt lat="39.690165" lon="-8.596590">
<ele>256.5</ele>
<desc>Speed 17.4 km/h Distance 64.26 km</desc>
<time>2011-05-22T12:09:36.86</time>
<name>13581</name>
<sym>Dot</sym>
</trkpt>
<trkpt lat="39.690150" lon="-8.596645">
<ele>256.5</ele>
<desc>Speed 17.6 km/h Distance 64.27 km</desc>
<time>2011-05-22T12:09:37.86</time>
<name>13582</name>
<sym>Dot</sym>
</trkpt>
<trkpt lat="39.690143" lon="-8.596703">
<ele>256.0</ele>
<desc>Speed 17.9 km/h Distance 64.27 km</desc>
<time>2011-05-22T12:09:38.86</time>
<name>13583</name>
<sym>Dot</sym>
</trkpt>
<trkpt lat="39.690143" lon="-8.596763">
<ele>256.0</ele>
<desc>Speed 18.3 km/h Distance 64.28 km</desc>
<time>2011-05-22T12:09:39.86</time>
<name>13584</name>
<sym>Dot</sym>
</trkpt>
<trkpt lat="39.690148" lon="-8.596823">
<ele>256.0</ele>
<desc>Speed 18.1 km/h Distance 64.28 km</desc>
<time>2011-05-22T12:09:40.86</time>
<name>13585</name>
<sym>Dot</sym>
</trkpt>
<trkpt lat="39.690158" lon="-8.596883">
<ele>256.0</ele>
<desc>Speed 18.5 km/h Distance 64.29 km</desc>
<time>2011-05-22T12:09:41.86</time>
<name>13586</name>
<sym>Dot</sym>
</trkpt>
<trkpt lat="39.690168" lon="-8.596943">
<ele>255.5</ele>
<desc>Speed 18.8 km/h Distance 64.29 km</desc>
<time>2011-05-22T12:09:42.86</time>
<name>13587</name>
<sym>Dot</sym>
</trkpt>
<trkpt lat="39.690178" lon="-8.597003">
<ele>255.5</ele>
<desc>Speed 18.8 km/h Distance 64.30 km</desc>
<time>2011-05-22T12:09:43.86</time>
<name>13588</name>
<sym>Dot</sym>
</trkpt>
<trkpt lat="39.690185" lon="-8.597065">
<ele>255.0</ele>
<desc>Speed 18.9 km/h Distance 64.30 km</desc>
<time>2011-05-22T12:09:44.86</time>
<name>13589</name>
<sym>Dot</sym>
</trkpt>
<trkpt lat="39.690190" lon="-8.597128">
<ele>255.0</ele>
<desc>Speed 18.9 km/h Distance 64.31 km</desc>
<time>2011-05-22T12:09:45.86</time>
<name>13590</name>
<sym>Dot</sym>
</trkpt>
<trkpt lat="39.690190" lon="-8.597190">
<ele>254.5</ele>
<desc>Speed 18.8 km/h Distance 64.31 km</desc>
<time>2011-05-22T12:09:46.86</time>
<name>13591</name>
<sym>Dot</sym>
</trkpt>
<trkpt lat="39.690190" lon="-8.597253">
<ele>254.5</ele>
<desc>Speed 19.1 km/h Distance 64.32 km</desc>
<time>2011-05-22T12:09:47.86</time>
<name>13592</name>
<sym>Dot</sym>
</trkpt>
<trkpt lat="39.690187" lon="-8.597318">
<ele>254.5</ele>
<desc>Speed 19.9 km/h Distance 64.32 km</desc>
<time>2011-05-22T12:09:48.86</time>
<name>13593</name>
<sym>Dot</sym>
</trkpt>
<trkpt lat="39.690180" lon="-8.597387">
<ele>254.5</ele>
<desc>Speed 21.0 km/h Distance 64.33 km</desc>
<time>2011-05-22T12:09:49.86</time>
<name>13594</name>
<sym>Dot</sym>
</trkpt>
<trkpt lat="39.690172" lon="-8.597458">
<ele>254.0</ele>
<desc>Speed 21.6 km/h Distance 64.34 km</desc>
<time>2011-05-22T12:09:50.86</time>
<name>13595</name>
<sym>Dot</sym>
</trkpt>
<trkpt lat="39.690160" lon="-8.597530">
<ele>253.5</ele>
<desc>Speed 22.1 km/h Distance 64.34 km</desc>
<time>2011-05-22T12:09:51.86</time>
<name>13596</name>
<sym>Dot</sym>
</trkpt>
<trkpt lat="39.690148" lon="-8.597603">
<ele>253.0</ele>
<desc>Speed 22.5 km/h Distance 64.35 km</desc>
<time>2011-05-22T12:09:52.86</time>
<name>13597</name>
<sym>Dot</sym>
</trkpt>
<trkpt lat="39.690135" lon="-8.597678">
<ele>253.0</ele>
<desc>Speed 23.0 km/h Distance 64.36 km</desc>
<time>2011-05-22T12:09:53.86</time>
<name>13598</name>
<sym>Dot</sym>
</trkpt>
<trkpt lat="39.690122" lon="-8.597755">
<ele>252.5</ele>
<desc>Speed 24.3 km/h Distance 64.36 km</desc>
<time>2011-05-22T12:09:54.86</time>
<name>13599</name>
<sym>Dot</sym>
</trkpt>
<trkpt lat="39.690105" lon="-8.597837">
<ele>251.5</ele>
<desc>Speed 25.5 km/h Distance 64.37 km</desc>
<time>2011-05-22T12:09:55.86</time>
<name>13600</name>
<sym>Dot</sym>
</trkpt>
<trkpt lat="39.690087" lon="-8.597922">
<ele>251.0</ele>
<desc>Speed 26.4 km/h Distance 64.38 km</desc>
<time>2011-05-22T12:09:56.86</time>
<name>13601</name>
<sym>Dot</sym>
</trkpt>
<trkpt lat="39.690068" lon="-8.598008">
<ele>250.5</ele>
<desc>Speed 27.5 km/h Distance 64.38 km</desc>
<time>2011-05-22T12:09:57.86</time>
<name>13602</name>
<sym>Dot</sym>
</trkpt>
<trkpt lat="39.690043" lon="-8.598098">
<ele>249.5</ele>
<desc>Speed 28.7 km/h Distance 64.39 km</desc>
<time>2011-05-22T12:09:58.86</time>
<name>13603</name>
<sym>Dot</sym>
</trkpt>
<trkpt lat="39.690018" lon="-8.598187">
<ele>249.0</ele>
<desc>Speed 28.7 km/h Distance 64.40 km</desc>
<time>2011-05-22T12:09:59.86</time>
<name>13604</name>
<sym>Dot</sym>
</trkpt>
<trkpt lat="39.689998" lon="-8.598265">
<ele>248.0</ele>
<desc>Speed 25.1 km/h Distance 64.41 km</desc>
<time>2011-05-22T12:10:00.86</time>
<name>13605</name>
<sym>Dot</sym>
</trkpt>
<trkpt lat="39.689982" lon="-8.598330">
<ele>248.0</ele>
<desc>Speed 20.6 km/h Distance 64.41 km</desc>
<time>2011-05-22T12:10:01.86</time>
<name>13606</name>
<sym>Dot</sym>
</trkpt>
<trkpt lat="39.689970" lon="-8.598378">
<ele>247.0</ele>
<desc>Speed 15.9 km/h Distance 64.42 km</desc>
<time>2011-05-22T12:10:02.86</time>
<name>13607</name>
<sym>Dot</sym>
</trkpt>
<trkpt lat="39.689958" lon="-8.598418">
<ele>247.0</ele>
<desc>Speed 12.6 km/h Distance 64.42 km</desc>
<time>2011-05-22T12:10:03.86</time>
<name>13608</name>
<sym>Dot</sym>
</trkpt>
<trkpt lat="39.689943" lon="-8.598457">
<ele>246.5</ele>
<desc>Speed 13.0 km/h Distance 64.43 km</desc>
<time>2011-05-22T12:10:04.86</time>
<name>13609</name>
<sym>Dot</sym>
</trkpt>
<trkpt lat="39.689930" lon="-8.598495">
<ele>246.0</ele>
<desc>Speed 12.7 km/h Distance 64.43 km</desc>
<time>2011-05-22T12:10:05.86</time>
<name>13610</name>
<sym>Dot</sym>
</trkpt>
<trkpt lat="39.689918" lon="-8.598535">
<ele>245.5</ele>
<desc>Speed 13.1 km/h Distance 64.43 km</desc>
<time>2011-05-22T12:10:06.86</time>
<name>13611</name>
<sym>Dot</sym>
</trkpt>
<trkpt lat="39.689908" lon="-8.598572">
<ele>245.5</ele>
<desc>Speed 12.0 km/h Distance 64.44 km</desc>
<time>2011-05-22T12:10:07.86</time>
<name>13612</name>
<sym>Dot</sym>
</trkpt>
<trkpt lat="39.689902" lon="-8.598607">
<ele>245.0</ele>
<desc>Speed 10.7 km/h Distance 64.44 km</desc>
<time>2011-05-22T12:10:08.86</time>
<name>13613</name>
<sym>Dot</sym>
</trkpt>
<trkpt lat="39.689895" lon="-8.598635">
<ele>245.0</ele>
<desc>Speed 9.4 km/h Distance 64.44 km</desc>
<time>2011-05-22T12:10:09.86</time>
<name>13614</name>
<sym>Dot</sym>
</trkpt>
<trkpt lat="39.689888" lon="-8.598663">
<ele>245.0</ele>
<desc>Speed 8.8 km/h Distance 64.44 km</desc>
<time>2011-05-22T12:10:10.86</time>
<name>13615</name>
<sym>Dot</sym>
</trkpt>
<trkpt lat="39.689883" lon="-8.598695">
<ele>245.0</ele>
<desc>Speed 10.0 km/h Distance 64.45 km</desc>
<time>2011-05-22T12:10:11.86</time>
<name>13616</name>
<sym>Dot</sym>
</trkpt>
<trkpt lat="39.689877" lon="-8.598728">
<ele>244.5</ele>
<desc>Speed 10.9 km/h Distance 64.45 km</desc>
<time>2011-05-22T12:10:12.86</time>
<name>13617</name>
<sym>Dot</sym>
</trkpt>
<trkpt lat="39.689870" lon="-8.598763">
<ele>245.0</ele>
<desc>Speed 11.1 km/h Distance 64.45 km</desc>
<time>2011-05-22T12:10:13.86</time>
<name>13618</name>
<sym>Dot</sym>
</trkpt>
<trkpt lat="39.689860" lon="-8.598802">
<ele>245.5</ele>
<desc>Speed 12.1 km/h Distance 64.46 km</desc>
<time>2011-05-22T12:10:14.86</time>
<name>13619</name>
<sym>Dot</sym>
</trkpt>
<trkpt lat="39.689850" lon="-8.598840">
<ele>245.5</ele>
<desc>Speed 12.6 km/h Distance 64.46 km</desc>
<time>2011-05-22T12:10:15.86</time>
<name>13620</name>
<sym>Dot</sym>
</trkpt>
<trkpt lat="39.689842" lon="-8.598878">
<ele>246.0</ele>
<desc>Speed 12.3 km/h Distance 64.46 km</desc>
<time>2011-05-22T12:10:16.86</time>
<name>13621</name>
<sym>Dot</sym>
</trkpt>
<trkpt lat="39.689833" lon="-8.598922">
<ele>246.0</ele>
<desc>Speed 14.0 km/h Distance 64.47 km</desc>
<time>2011-05-22T12:10:17.86</time>
<name>13622</name>
<sym>Dot</sym>
</trkpt>
<trkpt lat="39.689832" lon="-8.598970">
<ele>246.0</ele>
<desc>Speed 14.4 km/h Distance 64.47 km</desc>
<time>2011-05-22T12:10:18.86</time>
<name>13623</name>
<sym>Dot</sym>
</trkpt>
<trkpt lat="39.689833" lon="-8.599017">
<ele>246.5</ele>
<desc>Speed 14.4 km/h Distance 64.48 km</desc>
<time>2011-05-22T12:10:19.86</time>
<name>13624</name>
<sym>Dot</sym>
</trkpt>
<trkpt lat="39.689838" lon="-8.599062">
<ele>246.0</ele>
<desc>Speed 14.3 km/h Distance 64.48 km</desc>
<time>2011-05-22T12:10:20.86</time>
<name>13625</name>
<sym>Dot</sym>
</trkpt>
<trkpt lat="39.689845" lon="-8.599110">
<ele>246.0</ele>
<desc>Speed 15.4 km/h Distance 64.48 km</desc>
<time>2011-05-22T12:10:21.86</time>
<name>13626</name>
<sym>Dot</sym>
</trkpt>
<trkpt lat="39.689853" lon="-8.599162">
<ele>246.0</ele>
<desc>Speed 15.8 km/h Distance 64.49 km</desc>
<time>2011-05-22T12:10:22.86</time>
<name>13627</name>
<sym>Dot</sym>
</trkpt>
<trkpt lat="39.689858" lon="-8.599217">
<ele>245.5</ele>
<desc>Speed 17.0 km/h Distance 64.49 km</desc>
<time>2011-05-22T12:10:23.86</time>
<name>13628</name>
<sym>Dot</sym>
</trkpt>
<trkpt lat="39.689867" lon="-8.599273">
<ele>245.5</ele>
<desc>Speed 17.9 km/h Distance 64.50 km</desc>
<time>2011-05-22T12:10:24.86</time>
<name>13629</name>
<sym>Dot</sym>
</trkpt>
<trkpt lat="39.689877" lon="-8.599332">
<ele>245.0</ele>
<desc>Speed 18.6 km/h Distance 64.50 km</desc>
<time>2011-05-22T12:10:25.86</time>
<name>13630</name>
<sym>Dot</sym>
</trkpt>
<trkpt lat="39.689888" lon="-8.599393">
<ele>245.0</ele>
<desc>Speed 19.5 km/h Distance 64.51 km</desc>
<time>2011-05-22T12:10:26.86</time>
<name>13631</name>
<sym>Dot</sym>
</trkpt>
<trkpt lat="39.689898" lon="-8.599452">
<ele>245.0</ele>
<desc>Speed 18.5 km/h Distance 64.51 km</desc>
<time>2011-05-22T12:10:27.86</time>
<name>13632</name>
<sym>Dot</sym>
</trkpt>
<trkpt lat="39.689910" lon="-8.599515">
<ele>244.5</ele>
<desc>Speed 19.4 km/h Distance 64.52 km</desc>
<time>2011-05-22T12:10:28.86</time>
<name>13633</name>
<sym>Dot</sym>
</trkpt>
<trkpt lat="39.689920" lon="-8.599578">
<ele>244.0</ele>
<desc>Speed 20.3 km/h Distance 64.52 km</desc>
<time>2011-05-22T12:10:29.86</time>
<name>13634</name>
<sym>Dot</sym>
</trkpt>
<trkpt lat="39.689930" lon="-8.599643">
<ele>243.5</ele>
<desc>Speed 20.5 km/h Distance 64.53 km</desc>
<time>2011-05-22T12:10:30.86</time>
<name>13635</name>
<sym>Dot</sym>
</trkpt>
<trkpt lat="39.689942" lon="-8.599708">
<ele>243.5</ele>
<desc>Speed 20.6 km/h Distance 64.54 km</desc>
<time>2011-05-22T12:10:31.86</time>
<name>13636</name>
<sym>Dot</sym>
</trkpt>
<trkpt lat="39.689955" lon="-8.599773">
<ele>243.0</ele>
<desc>Speed 20.5 km/h Distance 64.54 km</desc>
<time>2011-05-22T12:10:32.86</time>
<name>13637</name>
<sym>Dot</sym>
</trkpt>
<trkpt lat="39.689967" lon="-8.599838">
<ele>242.5</ele>
<desc>Speed 20.6 km/h Distance 64.55 km</desc>
<time>2011-05-22T12:10:33.86</time>
<name>13638</name>
<sym>Dot</sym>
</trkpt>
<trkpt lat="39.689978" lon="-8.599905">
<ele>242.5</ele>
<desc>Speed 21.0 km/h Distance 64.55 km</desc>
<time>2011-05-22T12:10:34.86</time>
<name>13639</name>
<sym>Dot</sym>
</trkpt>
<trkpt lat="39.689988" lon="-8.599972">
<ele>242.0</ele>
<desc>Speed 21.2 km/h Distance 64.56 km</desc>
<time>2011-05-22T12:10:35.86</time>
<name>13640</name>
<sym>Dot</sym>
</trkpt>
<trkpt lat="39.690000" lon="-8.600038">
<ele>242.5</ele>
<desc>Speed 20.8 km/h Distance 64.57 km</desc>
<time>2011-05-22T12:10:36.86</time>
<name>13641</name>
<sym>Dot</sym>
</trkpt>
<trkpt lat="39.690010" lon="-8.600105">
<ele>242.0</ele>
<desc>Speed 21.0 km/h Distance 64.57 km</desc>
<time>2011-05-22T12:10:37.86</time>
<name>13642</name>
<sym>Dot</sym>
</trkpt>
<trkpt lat="39.690018" lon="-8.600173">
<ele>242.0</ele>
<desc>Speed 21.2 km/h Distance 64.58 km</desc>
<time>2011-05-22T12:10:38.86</time>
<name>13643</name>
<sym>Dot</sym>
</trkpt>
<trkpt lat="39.690023" lon="-8.600245">
<ele>242.0</ele>
<desc>Speed 22.0 km/h Distance 64.58 km</desc>
<time>2011-05-22T12:10:39.86</time>
<name>13644</name>
<sym>Dot</sym>
</trkpt>
<trkpt lat="39.690035" lon="-8.600308">
<ele>243.0</ele>
<desc>Speed 20.1 km/h Distance 64.59 km</desc>
<time>2011-05-22T12:10:40.86</time>
<name>13645</name>
<sym>Dot</sym>
</trkpt>
<trkpt lat="39.690028" lon="-8.600383">
<ele>243.5</ele>
<desc>Speed 23.2 km/h Distance 64.60 km</desc>
<time>2011-05-22T12:10:41.86</time>
<name>13646</name>
<sym>Dot</sym>
</trkpt>
<trkpt lat="39.690015" lon="-8.600458">
<ele>244.5</ele>
<desc>Speed 23.7 km/h Distance 64.60 km</desc>
<time>2011-05-22T12:10:42.86</time>
<name>13647</name>
<sym>Dot</sym>
</trkpt>
<trkpt lat="39.689985" lon="-8.600540">
<ele>243.5</ele>
<desc>Speed 28.2 km/h Distance 64.61 km</desc>
<time>2011-05-22T12:10:43.86</time>
<name>13648</name>
<sym>Dot</sym>
</trkpt>
<trkpt lat="39.689952" lon="-8.600625">
<ele>243.5</ele>
<desc>Speed 28.5 km/h Distance 64.62 km</desc>
<time>2011-05-22T12:10:44.86</time>
<name>13649</name>
<sym>Dot</sym>
</trkpt>
<trkpt lat="39.689913" lon="-8.600710">
<ele>243.0</ele>
<desc>Speed 30.0 km/h Distance 64.63 km</desc>
<time>2011-05-22T12:10:45.86</time>
<name>13650</name>
<sym>Dot</sym>
</trkpt>
<trkpt lat="39.689873" lon="-8.600800">
<ele>243.0</ele>
<desc>Speed 31.4 km/h Distance 64.64 km</desc>
<time>2011-05-22T12:10:46.86</time>
<name>13651</name>
<sym>Dot</sym>
</trkpt>
<trkpt lat="39.689837" lon="-8.600892">
<ele>243.0</ele>
<desc>Speed 31.8 km/h Distance 64.64 km</desc>
<time>2011-05-22T12:10:47.86</time>
<name>13652</name>
<sym>Dot</sym>
</trkpt>
<trkpt lat="39.689800" lon="-8.600985">
<ele>243.0</ele>
<desc>Speed 32.0 km/h Distance 64.65 km</desc>
<time>2011-05-22T12:10:48.86</time>
<name>13653</name>
<sym>Dot</sym>
</trkpt>
<trkpt lat="39.689773" lon="-8.601083">
<ele>243.0</ele>
<desc>Speed 32.1 km/h Distance 64.66 km</desc>
<time>2011-05-22T12:10:49.86</time>
<name>13654</name>
<sym>Dot</sym>
</trkpt>
<trkpt lat="39.689755" lon="-8.601180">
<ele>243.5</ele>
<desc>Speed 30.6 km/h Distance 64.67 km</desc>
<time>2011-05-22T12:10:50.86</time>
<name>13655</name>
<sym>Dot</sym>
</trkpt>
<trkpt lat="39.689750" lon="-8.601273">
<ele>244.0</ele>
<desc>Speed 29.0 km/h Distance 64.68 km</desc>
<time>2011-05-22T12:10:51.86</time>
<name>13656</name>
<sym>Dot</sym>
</trkpt>
<trkpt lat="39.689752" lon="-8.601363">
<ele>244.5</ele>
<desc>Speed 27.3 km/h Distance 64.69 km</desc>
<time>2011-05-22T12:10:52.86</time>
<name>13657</name>
<sym>Dot</sym>
</trkpt>
<trkpt lat="39.689765" lon="-8.601435">
<ele>245.0</ele>
<desc>Speed 23.0 km/h Distance 64.69 km</desc>
<time>2011-05-22T12:10:53.86</time>
<name>13658</name>
<sym>Dot</sym>
</trkpt>
<trkpt lat="39.689777" lon="-8.601513">
<ele>245.0</ele>
<desc>Speed 24.6 km/h Distance 64.70 km</desc>
<time>2011-05-22T12:10:54.86</time>
<name>13659</name>
<sym>Dot</sym>
</trkpt>
<trkpt lat="39.689797" lon="-8.601578">
<ele>245.5</ele>
<desc>Speed 21.9 km/h Distance 64.71 km</desc>
<time>2011-05-22T12:10:55.86</time>
<name>13660</name>
<sym>Dot</sym>
</trkpt>
<trkpt lat="39.689817" lon="-8.601643">
<ele>246.0</ele>
<desc>Speed 20.9 km/h Distance 64.71 km</desc>
<time>2011-05-22T12:10:56.86</time>
<name>13661</name>
<sym>Dot</sym>
</trkpt>
<trkpt lat="39.689837" lon="-8.601702">
<ele>246.0</ele>
<desc>Speed 19.7 km/h Distance 64.72 km</desc>
<time>2011-05-22T12:10:57.86</time>
<name>13662</name>
<sym>Dot</sym>
</trkpt>
<trkpt lat="39.689852" lon="-8.601760">
<ele>246.5</ele>
<desc>Speed 18.8 km/h Distance 64.72 km</desc>
<time>2011-05-22T12:10:58.86</time>
<name>13663</name>
<sym>Dot</sym>
</trkpt>
<trkpt lat="39.689862" lon="-8.601817">
<ele>247.0</ele>
<desc>Speed 18.0 km/h Distance 64.73 km</desc>
<time>2011-05-22T12:10:59.86</time>
<name>13664</name>
<sym>Dot</sym>
</trkpt>
<trkpt lat="39.689873" lon="-8.601870">
<ele>247.5</ele>
<desc>Speed 16.9 km/h Distance 64.73 km</desc>
<time>2011-05-22T12:11:00.86</time>
<name>13665</name>
<sym>Dot</sym>
</trkpt>
<trkpt lat="39.689880" lon="-8.601927">
<ele>248.0</ele>
<desc>Speed 17.6 km/h Distance 64.74 km</desc>
<time>2011-05-22T12:11:01.86</time>
<name>13666</name>
<sym>Dot</sym>
</trkpt>
<trkpt lat="39.689885" lon="-8.601983">
<ele>248.5</ele>
<desc>Speed 17.7 km/h Distance 64.74 km</desc>
<time>2011-05-22T12:11:02.86</time>
<name>13667</name>
<sym>Dot</sym>
</trkpt>
<trkpt lat="39.689888" lon="-8.602042">
<ele>249.0</ele>
<desc>Speed 17.7 km/h Distance 64.75 km</desc>
<time>2011-05-22T12:11:03.86</time>
<name>13668</name>
<sym>Dot</sym>
</trkpt>
<trkpt lat="39.689888" lon="-8.602098">
<ele>249.5</ele>
<desc>Speed 17.6 km/h Distance 64.75 km</desc>
<time>2011-05-22T12:11:04.86</time>
<name>13669</name>
<sym>Dot</sym>
</trkpt>
<trkpt lat="39.689885" lon="-8.602153">
<ele>249.5</ele>
<desc>Speed 16.5 km/h Distance 64.76 km</desc>
<time>2011-05-22T12:11:05.86</time>
<name>13670</name>
<sym>Dot</sym>
</trkpt>
<trkpt lat="39.689880" lon="-8.602208">
<ele>250.0</ele>
<desc>Speed 16.7 km/h Distance 64.76 km</desc>
<time>2011-05-22T12:11:06.86</time>
<name>13671</name>
<sym>Dot</sym>
</trkpt>
<trkpt lat="39.689882" lon="-8.602252">
<ele>251.0</ele>
<desc>Speed 12.9 km/h Distance 64.76 km</desc>
<time>2011-05-22T12:11:07.86</time>
<name>13672</name>
<sym>Dot</sym>
</trkpt>
<trkpt lat="39.689880" lon="-8.602295">
<ele>251.0</ele>
<desc>Speed 13.3 km/h Distance 64.77 km</desc>
<time>2011-05-22T12:11:08.86</time>
<name>13673</name>
<sym>Dot</sym>
</trkpt>
<trkpt lat="39.689875" lon="-8.602335">
<ele>251.5</ele>
<desc>Speed 11.8 km/h Distance 64.77 km</desc>
<time>2011-05-22T12:11:09.86</time>
<name>13674</name>
<sym>Dot</sym>
</trkpt>
<trkpt lat="39.689870" lon="-8.602370">
<ele>252.0</ele>
<desc>Speed 10.7 km/h Distance 64.77 km</desc>
<time>2011-05-22T12:11:10.86</time>
<name>13675</name>
<sym>Dot</sym>
</trkpt>
<trkpt lat="39.689865" lon="-8.602398">
<ele>252.0</ele>
<desc>Speed 9.3 km/h Distance 64.78 km</desc>
<time>2011-05-22T12:11:11.86</time>
<name>13676</name>
<sym>Dot</sym>
</trkpt>
<trkpt lat="39.689858" lon="-8.602430">
<ele>252.5</ele>
<desc>Speed 9.9 km/h Distance 64.78 km</desc>
<time>2011-05-22T12:11:12.86</time>
<name>13677</name>
<sym>Dot</sym>
</trkpt>
<trkpt lat="39.689853" lon="-8.602462">
<ele>252.5</ele>
<desc>Speed 9.6 km/h Distance 64.78 km</desc>
<time>2011-05-22T12:11:13.86</time>
<name>13678</name>
<sym>Dot</sym>
</trkpt>
<trkpt lat="39.689848" lon="-8.602492">
<ele>253.0</ele>
<desc>Speed 9.6 km/h Distance 64.79 km</desc>
<time>2011-05-22T12:11:14.86</time>
<name>13679</name>
<sym>Dot</sym>
</trkpt>
<trkpt lat="39.689838" lon="-8.602520">
<ele>253.0</ele>
<desc>Speed 9.6 km/h Distance 64.79 km</desc>
<time>2011-05-22T12:11:15.86</time>
<name>13680</name>
<sym>Dot</sym>
</trkpt>
<trkpt lat="39.689825" lon="-8.602548">
<ele>253.0</ele>
<desc>Speed 10.8 km/h Distance 64.79 km</desc>
<time>2011-05-22T12:11:16.86</time>
<name>13681</name>
<sym>Dot</sym>
</trkpt>
<trkpt lat="39.689805" lon="-8.602578">
<ele>252.5</ele>
<desc>Speed 11.8 km/h Distance 64.79 km</desc>
<time>2011-05-22T12:11:17.86</time>
<name>13682</name>
<sym>Dot</sym>
</trkpt>
<trkpt lat="39.689785" lon="-8.602610">
<ele>252.5</ele>
<desc>Speed 13.6 km/h Distance 64.80 km</desc>
<time>2011-05-22T12:11:18.86</time>
<name>13683</name>
<sym>Dot</sym>
</trkpt>
<trkpt lat="39.689762" lon="-8.602652">
<ele>252.0</ele>
<desc>Speed 15.7 km/h Distance 64.80 km</desc>
<time>2011-05-22T12:11:19.86</time>
<name>13684</name>
<sym>Dot</sym>
</trkpt>
<trkpt lat="39.689742" lon="-8.602695">
<ele>252.0</ele>
<desc>Speed 16.1 km/h Distance 64.81 km</desc>
<time>2011-05-22T12:11:20.86</time>
<name>13685</name>
<sym>Dot</sym>
</trkpt>
<trkpt lat="39.689718" lon="-8.602748">
<ele>251.5</ele>
<desc>Speed 19.0 km/h Distance 64.81 km</desc>
<time>2011-05-22T12:11:21.86</time>
<name>13686</name>
<sym>Dot</sym>
</trkpt>
<trkpt lat="39.689697" lon="-8.602810">
<ele>250.5</ele>
<desc>Speed 20.8 km/h Distance 64.82 km</desc>
<time>2011-05-22T12:11:22.86</time>
<name>13687</name>
<sym>Dot</sym>
</trkpt>
<trkpt lat="39.689680" lon="-8.602882">
<ele>250.0</ele>
<desc>Speed 22.8 km/h Distance 64.82 km</desc>
<time>2011-05-22T12:11:23.86</time>
<name>13688</name>
<sym>Dot</sym>
</trkpt>
<trkpt lat="39.689670" lon="-8.602962">
<ele>249.0</ele>
<desc>Speed 25.1 km/h Distance 64.83 km</desc>
<time>2011-05-22T12:11:24.86</time>
<name>13689</name>
<sym>Dot</sym>
</trkpt>
<trkpt lat="39.689672" lon="-8.603052">
<ele>248.5</ele>
<desc>Speed 27.2 km/h Distance 64.84 km</desc>
<time>2011-05-22T12:11:25.86</time>
<name>13690</name>
<sym>Dot</sym>
</trkpt>
<trkpt lat="39.689685" lon="-8.603143">
<ele>248.5</ele>
<desc>Speed 28.8 km/h Distance 64.85 km</desc>
<time>2011-05-22T12:11:26.86</time>
<name>13691</name>
<sym>Dot</sym>
</trkpt>
<trkpt lat="39.689705" lon="-8.603237">
<ele>248.0</ele>
<desc>Speed 29.6 km/h Distance 64.86 km</desc>
<time>2011-05-22T12:11:27.86</time>
<name>13692</name>
<sym>Dot</sym>
</trkpt>
<trkpt lat="39.689727" lon="-8.603325">
<ele>248.0</ele>
<desc>Speed 28.7 km/h Distance 64.86 km</desc>
<time>2011-05-22T12:11:28.86</time>
<name>13693</name>
<sym>Dot</sym>
</trkpt>
<trkpt lat="39.689748" lon="-8.603408">
<ele>248.0</ele>
<desc>Speed 27.1 km/h Distance 64.87 km</desc>
<time>2011-05-22T12:11:29.86</time>
<name>13694</name>
<sym>Dot</sym>
</trkpt>
<trkpt lat="39.689767" lon="-8.603488">
<ele>248.5</ele>
<desc>Speed 25.7 km/h Distance 64.88 km</desc>
<time>2011-05-22T12:11:30.86</time>
<name>13695</name>
<sym>Dot</sym>
</trkpt>
<trkpt lat="39.689780" lon="-8.603567">
<ele>248.5</ele>
<desc>Speed 24.9 km/h Distance 64.88 km</desc>
<time>2011-05-22T12:11:31.86</time>
<name>13696</name>
<sym>Dot</sym>
</trkpt>
<trkpt lat="39.689788" lon="-8.603645">
<ele>248.5</ele>
<desc>Speed 24.4 km/h Distance 64.89 km</desc>
<time>2011-05-22T12:11:32.86</time>
<name>13697</name>
<sym>Dot</sym>
</trkpt>
<trkpt lat="39.689792" lon="-8.603727">
<ele>248.0</ele>
<desc>Speed 25.2 km/h Distance 64.90 km</desc>
<time>2011-05-22T12:11:33.86</time>
<name>13698</name>
<sym>Dot</sym>
</trkpt>
<trkpt lat="39.689788" lon="-8.603808">
<ele>248.0</ele>
<desc>Speed 25.1 km/h Distance 64.91 km</desc>
<time>2011-05-22T12:11:34.86</time>
<name>13699</name>
<sym>Dot</sym>
</trkpt>
<trkpt lat="39.689780" lon="-8.603890">
<ele>248.0</ele>
<desc>Speed 25.6 km/h Distance 64.91 km</desc>
<time>2011-05-22T12:11:35.86</time>
<name>13700</name>
<sym>Dot</sym>
</trkpt>
<trkpt lat="39.689775" lon="-8.603975">
<ele>247.5</ele>
<desc>Speed 26.0 km/h Distance 64.92 km</desc>
<time>2011-05-22T12:11:36.86</time>
<name>13701</name>
<sym>Dot</sym>
</trkpt>
<trkpt lat="39.689775" lon="-8.604058">
<ele>247.0</ele>
<desc>Speed 26.0 km/h Distance 64.93 km</desc>
<time>2011-05-22T12:11:37.86</time>
<name>13702</name>
<sym>Dot</sym>
</trkpt>
<trkpt lat="39.689773" lon="-8.604142">
<ele>247.0</ele>
<desc>Speed 25.2 km/h Distance 64.93 km</desc>
<time>2011-05-22T12:11:38.86</time>
<name>13703</name>
<sym>Dot</sym>
</trkpt>
<trkpt lat="39.689783" lon="-8.604212">
<ele>246.5</ele>
<desc>Speed 21.9 km/h Distance 64.94 km</desc>
<time>2011-05-22T12:11:39.86</time>
<name>13704</name>
<sym>Dot</sym>
</trkpt>
<trkpt lat="39.689782" lon="-8.604290">
<ele>246.5</ele>
<desc>Speed 24.1 km/h Distance 64.95 km</desc>
<time>2011-05-22T12:11:40.86</time>
<name>13705</name>
<sym>Dot</sym>
</trkpt>
<trkpt lat="39.689782" lon="-8.604368">
<ele>246.5</ele>
<desc>Speed 24.0 km/h Distance 64.95 km</desc>
<time>2011-05-22T12:11:41.85</time>
<name>13706</name>
<sym>Dot</sym>
</trkpt>
<trkpt lat="39.689783" lon="-8.604445">
<ele>246.0</ele>
<desc>Speed 23.4 km/h Distance 64.96 km</desc>
<time>2011-05-22T12:11:42.85</time>
<name>13707</name>
<sym>Dot</sym>
</trkpt>
<trkpt lat="39.689783" lon="-8.604522">
<ele>246.0</ele>
<desc>Speed 23.2 km/h Distance 64.97 km</desc>
<time>2011-05-22T12:11:43.85</time>
<name>13708</name>
<sym>Dot</sym>
</trkpt>
<trkpt lat="39.689783" lon="-8.604595">
<ele>246.0</ele>
<desc>Speed 22.3 km/h Distance 64.97 km</desc>
<time>2011-05-22T12:11:44.85</time>
<name>13709</name>
<sym>Dot</sym>
</trkpt>
<trkpt lat="39.689783" lon="-8.604667">
<ele>246.0</ele>
<desc>Speed 21.9 km/h Distance 64.98 km</desc>
<time>2011-05-22T12:11:45.85</time>
<name>13710</name>
<sym>Dot</sym>
</trkpt>
<trkpt lat="39.689782" lon="-8.604738">
<ele>245.5</ele>
<desc>Speed 21.9 km/h Distance 64.99 km</desc>
<time>2011-05-22T12:11:46.85</time>
<name>13711</name>
<sym>Dot</sym>
</trkpt>
<trkpt lat="39.689785" lon="-8.604813">
<ele>245.5</ele>
<desc>Speed 22.9 km/h Distance 64.99 km</desc>
<time>2011-05-22T12:11:47.85</time>
<name>13712</name>
<sym>Dot</sym>
</trkpt>
<trkpt lat="39.689790" lon="-8.604888">
<ele>245.0</ele>
<desc>Speed 22.8 km/h Distance 65.00 km</desc>
<time>2011-05-22T12:11:48.85</time>
<name>13713</name>
<sym>Dot</sym>
</trkpt>
<trkpt lat="39.689793" lon="-8.604963">
<ele>245.0</ele>
<desc>Speed 23.0 km/h Distance 65.00 km</desc>
<time>2011-05-22T12:11:49.85</time>
<name>13714</name>
<sym>Dot</sym>
</trkpt>
<trkpt lat="39.689800" lon="-8.605038">
<ele>245.0</ele>
<desc>Speed 22.8 km/h Distance 65.01 km</desc>
<time>2011-05-22T12:11:50.85</time>
<name>13715</name>
<sym>Dot</sym>
</trkpt>
<trkpt lat="39.689812" lon="-8.605115">
<ele>245.5</ele>
<desc>Speed 23.7 km/h Distance 65.02 km</desc>
<time>2011-05-22T12:11:51.85</time>
<name>13716</name>
<sym>Dot</sym>
</trkpt>
<trkpt lat="39.689822" lon="-8.605190">
<ele>246.0</ele>
<desc>Speed 23.0 km/h Distance 65.02 km</desc>
<time>2011-05-22T12:11:52.85</time>
<name>13717</name>
<sym>Dot</sym>
</trkpt>
<trkpt lat="39.689833" lon="-8.605262">
<ele>246.0</ele>
<desc>Speed 22.5 km/h Distance 65.03 km</desc>
<time>2011-05-22T12:11:53.85</time>
<name>13718</name>
<sym>Dot</sym>
</trkpt>
<trkpt lat="39.689845" lon="-8.605333">
<ele>245.5</ele>
<desc>Speed 22.2 km/h Distance 65.04 km</desc>
<time>2011-05-22T12:11:54.85</time>
<name>13719</name>
<sym>Dot</sym>
</trkpt>
<trkpt lat="39.689853" lon="-8.605405">
<ele>245.5</ele>
<desc>Speed 21.7 km/h Distance 65.04 km</desc>
<time>2011-05-22T12:11:55.85</time>
<name>13720</name>
<sym>Dot</sym>
</trkpt>
<trkpt lat="39.689860" lon="-8.605472">
<ele>245.5</ele>
<desc>Speed 20.7 km/h Distance 65.05 km</desc>
<time>2011-05-22T12:11:56.85</time>
<name>13721</name>
<sym>Dot</sym>
</trkpt>
<trkpt lat="39.689868" lon="-8.605538">
<ele>245.5</ele>
<desc>Speed 20.3 km/h Distance 65.05 km</desc>
<time>2011-05-22T12:11:57.85</time>
<name>13722</name>
<sym>Dot</sym>
</trkpt>
<trkpt lat="39.689873" lon="-8.605602">
<ele>245.5</ele>
<desc>Speed 20.0 km/h Distance 65.06 km</desc>
<time>2011-05-22T12:11:58.85</time>
<name>13723</name>
<sym>Dot</sym>
</trkpt>
<trkpt lat="39.689878" lon="-8.605668">
<ele>245.5</ele>
<desc>Speed 20.1 km/h Distance 65.07 km</desc>
<time>2011-05-22T12:11:59.85</time>
<name>13724</name>
<sym>Dot</sym>
</trkpt>
<trkpt lat="39.689880" lon="-8.605733">
<ele>245.5</ele>
<desc>Speed 20.2 km/h Distance 65.07 km</desc>
<time>2011-05-22T12:12:00.85</time>
<name>13725</name>
<sym>Dot</sym>
</trkpt>
<trkpt lat="39.689882" lon="-8.605800">
<ele>245.5</ele>
<desc>Speed 20.3 km/h Distance 65.08 km</desc>
<time>2011-05-22T12:12:01.85</time>
<name>13726</name>
<sym>Dot</sym>
</trkpt>
<trkpt lat="39.689882" lon="-8.605867">
<ele>245.5</ele>
<desc>Speed 20.6 km/h Distance 65.08 km</desc>
<time>2011-05-22T12:12:02.85</time>
<name>13727</name>
<sym>Dot</sym>
</trkpt>
<trkpt lat="39.689880" lon="-8.605933">
<ele>245.5</ele>
<desc>Speed 20.3 km/h Distance 65.09 km</desc>
<time>2011-05-22T12:12:03.85</time>
<name>13728</name>
<sym>Dot</sym>
</trkpt>
<trkpt lat="39.689878" lon="-8.605998">
<ele>245.5</ele>
<desc>Speed 20.0 km/h Distance 65.09 km</desc>
<time>2011-05-22T12:12:04.85</time>
<name>13729</name>
<sym>Dot</sym>
</trkpt>
<trkpt lat="39.689877" lon="-8.606063">
<ele>245.5</ele>
<desc>Speed 19.5 km/h Distance 65.10 km</desc>
<time>2011-05-22T12:12:05.85</time>
<name>13730</name>
<sym>Dot</sym>
</trkpt>
<trkpt lat="39.689877" lon="-8.606125">
<ele>245.5</ele>
<desc>Speed 18.9 km/h Distance 65.10 km</desc>
<time>2011-05-22T12:12:06.85</time>
<name>13731</name>
<sym>Dot</sym>
</trkpt>
<trkpt lat="39.689875" lon="-8.606183">
<ele>245.5</ele>
<desc>Speed 17.6 km/h Distance 65.11 km</desc>
<time>2011-05-22T12:12:07.85</time>
<name>13732</name>
<sym>Dot</sym>
</trkpt>
<trkpt lat="39.689875" lon="-8.606238">
<ele>245.5</ele>
<desc>Speed 16.8 km/h Distance 65.11 km</desc>
<time>2011-05-22T12:12:08.85</time>
<name>13733</name>
<sym>Dot</sym>
</trkpt>
<trkpt lat="39.689877" lon="-8.606290">
<ele>246.0</ele>
<desc>Speed 16.2 km/h Distance 65.12 km</desc>
<time>2011-05-22T12:12:09.85</time>
<name>13734</name>
<sym>Dot</sym>
</trkpt>
<trkpt lat="39.689880" lon="-8.606342">
<ele>246.0</ele>
<desc>Speed 15.8 km/h Distance 65.12 km</desc>
<time>2011-05-22T12:12:10.85</time>
<name>13735</name>
<sym>Dot</sym>
</trkpt>
<trkpt lat="39.689887" lon="-8.606390">
<ele>246.5</ele>
<desc>Speed 14.7 km/h Distance 65.13 km</desc>
<time>2011-05-22T12:12:11.85</time>
<name>13736</name>
<sym>Dot</sym>
</trkpt>
<trkpt lat="39.689892" lon="-8.606435">
<ele>246.5</ele>
<desc>Speed 13.7 km/h Distance 65.13 km</desc>
<time>2011-05-22T12:12:12.85</time>
<name>13737</name>
<sym>Dot</sym>
</trkpt>
<trkpt lat="39.689900" lon="-8.606477">
<ele>247.0</ele>
<desc>Speed 13.2 km/h Distance 65.14 km</desc>
<time>2011-05-22T12:12:13.85</time>
<name>13738</name>
<sym>Dot</sym>
</trkpt>
<trkpt lat="39.689907" lon="-8.606518">
<ele>247.0</ele>
<desc>Speed 13.0 km/h Distance 65.14 km</desc>
<time>2011-05-22T12:12:14.85</time>
<name>13739</name>
<sym>Dot</sym>
</trkpt>
<trkpt lat="39.689917" lon="-8.606557">
<ele>247.0</ele>
<desc>Speed 12.2 km/h Distance 65.14 km</desc>
<time>2011-05-22T12:12:15.85</time>
<name>13740</name>
<sym>Dot</sym>
</trkpt>
<trkpt lat="39.689927" lon="-8.606593">
<ele>247.5</ele>
<desc>Speed 11.7 km/h Distance 65.15 km</desc>
<time>2011-05-22T12:12:16.85</time>
<name>13741</name>
<sym>Dot</sym>
</trkpt>
<trkpt lat="39.689933" lon="-8.606627">
<ele>247.5</ele>
<desc>Speed 10.9 km/h Distance 65.15 km</desc>
<time>2011-05-22T12:12:17.85</time>
<name>13742</name>
<sym>Dot</sym>
</trkpt>
<trkpt lat="39.689943" lon="-8.606662">
<ele>248.0</ele>
<desc>Speed 10.8 km/h Distance 65.15 km</desc>
<time>2011-05-22T12:12:18.85</time>
<name>13743</name>
<sym>Dot</sym>
</trkpt>
<trkpt lat="39.689953" lon="-8.606695">
<ele>248.0</ele>
<desc>Speed 11.3 km/h Distance 65.15 km</desc>
<time>2011-05-22T12:12:19.85</time>
<name>13744</name>
<sym>Dot</sym>
</trkpt>
<trkpt lat="39.689965" lon="-8.606728">
<ele>248.0</ele>
<desc>Speed 11.6 km/h Distance 65.16 km</desc>
<time>2011-05-22T12:12:20.85</time>
<name>13745</name>
<sym>Dot</sym>
</trkpt>
<trkpt lat="39.689973" lon="-8.606765">
<ele>248.0</ele>
<desc>Speed 12.0 km/h Distance 65.16 km</desc>
<time>2011-05-22T12:12:21.85</time>
<name>13746</name>
<sym>Dot</sym>
</trkpt>
<trkpt lat="39.689990" lon="-8.606800">
<ele>248.0</ele>
<desc>Speed 12.2 km/h Distance 65.16 km</desc>
<time>2011-05-22T12:12:22.85</time>
<name>13747</name>
<sym>Dot</sym>
</trkpt>
<trkpt lat="39.690005" lon="-8.606833">
<ele>248.5</ele>
<desc>Speed 11.9 km/h Distance 65.17 km</desc>
<time>2011-05-22T12:12:23.85</time>
<name>13748</name>
<sym>Dot</sym>
</trkpt>
<trkpt lat="39.690025" lon="-8.606868">
<ele>248.0</ele>
<desc>Speed 12.9 km/h Distance 65.17 km</desc>
<time>2011-05-22T12:12:24.85</time>
<name>13749</name>
<sym>Dot</sym>
</trkpt>
<trkpt lat="39.690047" lon="-8.606907">
<ele>248.0</ele>
<desc>Speed 14.3 km/h Distance 65.18 km</desc>
<time>2011-05-22T12:12:25.85</time>
<name>13750</name>
<sym>Dot</sym>
</trkpt>
<trkpt lat="39.690068" lon="-8.606950">
<ele>247.5</ele>
<desc>Speed 15.8 km/h Distance 65.18 km</desc>
<time>2011-05-22T12:12:26.85</time>
<name>13751</name>
<sym>Dot</sym>
</trkpt>
<trkpt lat="39.690090" lon="-8.606993">
<ele>247.0</ele>
<desc>Speed 16.0 km/h Distance 65.18 km</desc>
<time>2011-05-22T12:12:27.85</time>
<name>13752</name>
<sym>Dot</sym>
</trkpt>
<trkpt lat="39.690110" lon="-8.607042">
<ele>247.0</ele>
<desc>Speed 16.1 km/h Distance 65.19 km</desc>
<time>2011-05-22T12:12:28.85</time>
<name>13753</name>
<sym>Dot</sym>
</trkpt>
<trkpt lat="39.690127" lon="-8.607090">
<ele>246.5</ele>
<desc>Speed 16.6 km/h Distance 65.19 km</desc>
<time>2011-05-22T12:12:29.85</time>
<name>13754</name>
<sym>Dot</sym>
</trkpt>
<trkpt lat="39.690143" lon="-8.607143">
<ele>246.0</ele>
<desc>Speed 16.9 km/h Distance 65.20 km</desc>
<time>2011-05-22T12:12:30.85</time>
<name>13755</name>
<sym>Dot</sym>
</trkpt>
<trkpt lat="39.690158" lon="-8.607197">
<ele>246.0</ele>
<desc>Speed 17.4 km/h Distance 65.20 km</desc>
<time>2011-05-22T12:12:31.85</time>
<name>13756</name>
<sym>Dot</sym>
</trkpt>
<trkpt lat="39.690167" lon="-8.607255">
<ele>245.5</ele>
<desc>Speed 18.5 km/h Distance 65.21 km</desc>
<time>2011-05-22T12:12:32.85</time>
<name>13757</name>
<sym>Dot</sym>
</trkpt>
<trkpt lat="39.690173" lon="-8.607318">
<ele>244.5</ele>
<desc>Speed 19.2 km/h Distance 65.21 km</desc>
<time>2011-05-22T12:12:33.85</time>
<name>13758</name>
<sym>Dot</sym>
</trkpt>
<trkpt lat="39.690173" lon="-8.607383">
<ele>244.5</ele>
<desc>Speed 19.8 km/h Distance 65.22 km</desc>
<time>2011-05-22T12:12:34.85</time>
<name>13759</name>
<sym>Dot</sym>
</trkpt>
<trkpt lat="39.690173" lon="-8.607450">
<ele>245.0</ele>
<desc>Speed 20.4 km/h Distance 65.23 km</desc>
<time>2011-05-22T12:12:35.85</time>
<name>13760</name>
<sym>Dot</sym>
</trkpt>
<trkpt lat="39.690172" lon="-8.607518">
<ele>245.5</ele>
<desc>Speed 20.7 km/h Distance 65.23 km</desc>
<time>2011-05-22T12:12:36.85</time>
<name>13761</name>
<sym>Dot</sym>
</trkpt>
<trkpt lat="39.690172" lon="-8.607587">
<ele>245.5</ele>
<desc>Speed 21.3 km/h Distance 65.24 km</desc>
<time>2011-05-22T12:12:37.85</time>
<name>13762</name>
<sym>Dot</sym>
</trkpt>
<trkpt lat="39.690172" lon="-8.607658">
<ele>245.5</ele>
<desc>Speed 21.7 km/h Distance 65.24 km</desc>
<time>2011-05-22T12:12:38.85</time>
<name>13763</name>
<sym>Dot</sym>
</trkpt>
<trkpt lat="39.690168" lon="-8.607725">
<ele>245.0</ele>
<desc>Speed 20.6 km/h Distance 65.25 km</desc>
<time>2011-05-22T12:12:39.85</time>
<name>13764</name>
<sym>Dot</sym>
</trkpt>
<trkpt lat="39.690162" lon="-8.607792">
<ele>245.5</ele>
<desc>Speed 20.5 km/h Distance 65.25 km</desc>
<time>2011-05-22T12:12:40.85</time>
<name>13765</name>
<sym>Dot</sym>
</trkpt>
<trkpt lat="39.690158" lon="-8.607857">
<ele>246.0</ele>
<desc>Speed 19.9 km/h Distance 65.26 km</desc>
<time>2011-05-22T12:12:41.85</time>
<name>13766</name>
<sym>Dot</sym>
</trkpt>
<trkpt lat="39.690153" lon="-8.607920">
<ele>246.0</ele>
<desc>Speed 19.6 km/h Distance 65.27 km</desc>
<time>2011-05-22T12:12:42.85</time>
<name>13767</name>
<sym>Dot</sym>
</trkpt>
<trkpt lat="39.690153" lon="-8.607985">
<ele>246.5</ele>
<desc>Speed 19.7 km/h Distance 65.27 km</desc>
<time>2011-05-22T12:12:43.85</time>
<name>13768</name>
<sym>Dot</sym>
</trkpt>
<trkpt lat="39.690152" lon="-8.608048">
<ele>246.5</ele>
<desc>Speed 19.4 km/h Distance 65.28 km</desc>
<time>2011-05-22T12:12:44.85</time>
<name>13769</name>
<sym>Dot</sym>
</trkpt>
<trkpt lat="39.690153" lon="-8.608110">
<ele>246.5</ele>
<desc>Speed 19.0 km/h Distance 65.28 km</desc>
<time>2011-05-22T12:12:45.85</time>
<name>13770</name>
<sym>Dot</sym>
</trkpt>
<trkpt lat="39.690153" lon="-8.608170">
<ele>246.5</ele>
<desc>Speed 18.4 km/h Distance 65.29 km</desc>
<time>2011-05-22T12:12:46.85</time>
<name>13771</name>
<sym>Dot</sym>
</trkpt>
<trkpt lat="39.690153" lon="-8.608228">
<ele>246.5</ele>
<desc>Speed 17.9 km/h Distance 65.29 km</desc>
<time>2011-05-22T12:12:47.85</time>
<name>13772</name>
<sym>Dot</sym>
</trkpt>
<trkpt lat="39.690152" lon="-8.608285">
<ele>247.0</ele>
<desc>Speed 17.3 km/h Distance 65.30 km</desc>
<time>2011-05-22T12:12:48.85</time>
<name>13773</name>
<sym>Dot</sym>
</trkpt>
<trkpt lat="39.690152" lon="-8.608340">
<ele>247.0</ele>
<desc>Speed 16.6 km/h Distance 65.30 km</desc>
<time>2011-05-22T12:12:49.85</time>
<name>13774</name>
<sym>Dot</sym>
</trkpt>
<trkpt lat="39.690152" lon="-8.608392">
<ele>246.5</ele>
<desc>Speed 15.9 km/h Distance 65.31 km</desc>
<time>2011-05-22T12:12:50.85</time>
<name>13775</name>
<sym>Dot</sym>
</trkpt>
<trkpt lat="39.690150" lon="-8.608438">
<ele>247.0</ele>
<desc>Speed 14.4 km/h Distance 65.31 km</desc>
<time>2011-05-22T12:12:51.85</time>
<name>13776</name>
<sym>Dot</sym>
</trkpt>
<trkpt lat="39.690152" lon="-8.608482">
<ele>246.5</ele>
<desc>Speed 13.6 km/h Distance 65.31 km</desc>
<time>2011-05-22T12:12:52.85</time>
<name>13777</name>
<sym>Dot</sym>
</trkpt>
<trkpt lat="39.690153" lon="-8.608527">
<ele>246.0</ele>
<desc>Speed 13.5 km/h Distance 65.32 km</desc>
<time>2011-05-22T12:12:53.85</time>
<name>13778</name>
<sym>Dot</sym>
</trkpt>
<trkpt lat="39.690153" lon="-8.608568">
<ele>246.0</ele>
<desc>Speed 13.0 km/h Distance 65.32 km</desc>
<time>2011-05-22T12:12:54.85</time>
<name>13779</name>
<sym>Dot</sym>
</trkpt>
<trkpt lat="39.690150" lon="-8.608608">
<ele>246.0</ele>
<desc>Speed 12.6 km/h Distance 65.32 km</desc>
<time>2011-05-22T12:12:55.85</time>
<name>13780</name>
<sym>Dot</sym>
</trkpt>
<trkpt lat="39.690147" lon="-8.608648">
<ele>246.0</ele>
<desc>Speed 12.4 km/h Distance 65.33 km</desc>
<time>2011-05-22T12:12:56.85</time>
<name>13781</name>
<sym>Dot</sym>
</trkpt>
<trkpt lat="39.690142" lon="-8.608688">
<ele>245.5</ele>
<desc>Speed 12.2 km/h Distance 65.33 km</desc>
<time>2011-05-22T12:12:57.85</time>
<name>13782</name>
<sym>Dot</sym>
</trkpt>
<trkpt lat="39.690137" lon="-8.608725">
<ele>245.5</ele>
<desc>Speed 12.1 km/h Distance 65.34 km</desc>
<time>2011-05-22T12:12:58.85</time>
<name>13783</name>
<sym>Dot</sym>
</trkpt>
<trkpt lat="39.690132" lon="-8.608763">
<ele>245.5</ele>
<desc>Speed 11.8 km/h Distance 65.34 km</desc>
<time>2011-05-22T12:12:59.85</time>
<name>13784</name>
<sym>Dot</sym>
</trkpt>
<trkpt lat="39.690127" lon="-8.608800">
<ele>245.5</ele>
<desc>Speed 11.9 km/h Distance 65.34 km</desc>
<time>2011-05-22T12:13:00.85</time>
<name>13785</name>
<sym>Dot</sym>
</trkpt>
<trkpt lat="39.690118" lon="-8.608838">
<ele>245.5</ele>
<desc>Speed 12.1 km/h Distance 65.34 km</desc>
<time>2011-05-22T12:13:01.85</time>
<name>13786</name>
<sym>Dot</sym>
</trkpt>
<trkpt lat="39.690113" lon="-8.608873">
<ele>246.0</ele>
<desc>Speed 11.1 km/h Distance 65.35 km</desc>
<time>2011-05-22T12:13:02.85</time>
<name>13787</name>
<sym>Dot</sym>
</trkpt>
<trkpt lat="39.690107" lon="-8.608912">
<ele>245.5</ele>
<desc>Speed 12.2 km/h Distance 65.35 km</desc>
<time>2011-05-22T12:13:03.85</time>
<name>13788</name>
<sym>Dot</sym>
</trkpt>
<trkpt lat="39.690102" lon="-8.608953">
<ele>246.0</ele>
<desc>Speed 12.5 km/h Distance 65.36 km</desc>
<time>2011-05-22T12:13:04.85</time>
<name>13789</name>
<sym>Dot</sym>
</trkpt>
<trkpt lat="39.690100" lon="-8.608993">
<ele>246.0</ele>
<desc>Speed 12.5 km/h Distance 65.36 km</desc>
<time>2011-05-22T12:13:05.85</time>
<name>13790</name>
<sym>Dot</sym>
</trkpt>
<trkpt lat="39.690095" lon="-8.609033">
<ele>246.0</ele>
<desc>Speed 12.3 km/h Distance 65.36 km</desc>
<time>2011-05-22T12:13:06.85</time>
<name>13791</name>
<sym>Dot</sym>
</trkpt>
<trkpt lat="39.690090" lon="-8.609072">
<ele>246.0</ele>
<desc>Speed 12.0 km/h Distance 65.37 km</desc>
<time>2011-05-22T12:13:07.85</time>
<name>13792</name>
<sym>Dot</sym>
</trkpt>
<trkpt lat="39.690083" lon="-8.609110">
<ele>246.0</ele>
<desc>Speed 11.4 km/h Distance 65.37 km</desc>
<time>2011-05-22T12:13:08.85</time>
<name>13793</name>
<sym>Dot</sym>
</trkpt>
<trkpt lat="39.690080" lon="-8.609145">
<ele>246.5</ele>
<desc>Speed 10.9 km/h Distance 65.37 km</desc>
<time>2011-05-22T12:13:09.85</time>
<name>13794</name>
<sym>Dot</sym>
</trkpt>
<trkpt lat="39.690075" lon="-8.609180">
<ele>246.5</ele>
<desc>Speed 10.8 km/h Distance 65.37 km</desc>
<time>2011-05-22T12:13:10.85</time>
<name>13795</name>
<sym>Dot</sym>
</trkpt>
<trkpt lat="39.690072" lon="-8.609213">
<ele>247.0</ele>
<desc>Speed 10.3 km/h Distance 65.38 km</desc>
<time>2011-05-22T12:13:11.85</time>
<name>13796</name>
<sym>Dot</sym>
</trkpt>
<trkpt lat="39.690068" lon="-8.609248">
<ele>246.5</ele>
<desc>Speed 10.7 km/h Distance 65.38 km</desc>
<time>2011-05-22T12:13:12.85</time>
<name>13797</name>
<sym>Dot</sym>
</trkpt>
<trkpt lat="39.690065" lon="-8.609283">
<ele>247.0</ele>
<desc>Speed 11.1 km/h Distance 65.38 km</desc>
<time>2011-05-22T12:13:13.85</time>
<name>13798</name>
<sym>Dot</sym>
</trkpt>
<trkpt lat="39.690062" lon="-8.609322">
<ele>247.0</ele>
<desc>Speed 11.7 km/h Distance 65.39 km</desc>
<time>2011-05-22T12:13:14.85</time>
<name>13799</name>
<sym>Dot</sym>
</trkpt>
<trkpt lat="39.690062" lon="-8.609365">
<ele>247.0</ele>
<desc>Speed 13.4 km/h Distance 65.39 km</desc>
<time>2011-05-22T12:13:15.85</time>
<name>13800</name>
<sym>Dot</sym>
</trkpt>
<trkpt lat="39.690060" lon="-8.609410">
<ele>247.0</ele>
<desc>Speed 13.9 km/h Distance 65.39 km</desc>
<time>2011-05-22T12:13:16.85</time>
<name>13801</name>
<sym>Dot</sym>
</trkpt>
<trkpt lat="39.690055" lon="-8.609457">
<ele>246.5</ele>
<desc>Speed 14.3 km/h Distance 65.40 km</desc>
<time>2011-05-22T12:13:17.85</time>
<name>13802</name>
<sym>Dot</sym>
</trkpt>
<trkpt lat="39.690050" lon="-8.609503">
<ele>247.0</ele>
<desc>Speed 14.4 km/h Distance 65.40 km</desc>
<time>2011-05-22T12:13:18.85</time>
<name>13803</name>
<sym>Dot</sym>
</trkpt>
<trkpt lat="39.690042" lon="-8.609552">
<ele>247.0</ele>
<desc>Speed 14.8 km/h Distance 65.41 km</desc>
<time>2011-05-22T12:13:19.85</time>
<name>13804</name>
<sym>Dot</sym>
</trkpt>
<trkpt lat="39.690035" lon="-8.609598">
<ele>246.5</ele>
<desc>Speed 15.0 km/h Distance 65.41 km</desc>
<time>2011-05-22T12:13:20.85</time>
<name>13805</name>
<sym>Dot</sym>
</trkpt>
<trkpt lat="39.690028" lon="-8.609648">
<ele>246.5</ele>
<desc>Speed 15.4 km/h Distance 65.42 km</desc>
<time>2011-05-22T12:13:21.85</time>
<name>13806</name>
<sym>Dot</sym>
</trkpt>
<trkpt lat="39.690020" lon="-8.609698">
<ele>246.5</ele>
<desc>Speed 15.6 km/h Distance 65.42 km</desc>
<time>2011-05-22T12:13:22.85</time>
<name>13807</name>
<sym>Dot</sym>
</trkpt>
<trkpt lat="39.690010" lon="-8.609750">
<ele>246.5</ele>
<desc>Speed 16.1 km/h Distance 65.42 km</desc>
<time>2011-05-22T12:13:23.85</time>
<name>13808</name>
<sym>Dot</sym>
</trkpt>
<trkpt lat="39.689998" lon="-8.609802">
<ele>246.5</ele>
<desc>Speed 16.1 km/h Distance 65.43 km</desc>
<time>2011-05-22T12:13:24.85</time>
<name>13809</name>
<sym>Dot</sym>
</trkpt>
<trkpt lat="39.689987" lon="-8.609853">
<ele>246.5</ele>
<desc>Speed 16.7 km/h Distance 65.43 km</desc>
<time>2011-05-22T12:13:25.85</time>
<name>13810</name>
<sym>Dot</sym>
</trkpt>
<trkpt lat="39.689973" lon="-8.609908">
<ele>246.5</ele>
<desc>Speed 17.4 km/h Distance 65.44 km</desc>
<time>2011-05-22T12:13:26.85</time>
<name>13811</name>
<sym>Dot</sym>
</trkpt>
<trkpt lat="39.689963" lon="-8.609965">
<ele>246.5</ele>
<desc>Speed 17.5 km/h Distance 65.44 km</desc>
<time>2011-05-22T12:13:27.85</time>
<name>13812</name>
<sym>Dot</sym>
</trkpt>
<trkpt lat="39.689953" lon="-8.610022">
<ele>246.5</ele>
<desc>Speed 17.6 km/h Distance 65.45 km</desc>
<time>2011-05-22T12:13:28.85</time>
<name>13813</name>
<sym>Dot</sym>
</trkpt>
<trkpt lat="39.689943" lon="-8.610078">
<ele>246.0</ele>
<desc>Speed 17.7 km/h Distance 65.45 km</desc>
<time>2011-05-22T12:13:29.85</time>
<name>13814</name>
<sym>Dot</sym>
</trkpt>
<trkpt lat="39.689938" lon="-8.610135">
<ele>246.0</ele>
<desc>Speed 17.3 km/h Distance 65.46 km</desc>
<time>2011-05-22T12:13:30.85</time>
<name>13815</name>
<sym>Dot</sym>
</trkpt>
<trkpt lat="39.689937" lon="-8.610190">
<ele>246.0</ele>
<desc>Speed 17.0 km/h Distance 65.46 km</desc>
<time>2011-05-22T12:13:31.85</time>
<name>13816</name>
<sym>Dot</sym>
</trkpt>
<trkpt lat="39.689937" lon="-8.610245">
<ele>245.5</ele>
<desc>Speed 16.7 km/h Distance 65.47 km</desc>
<time>2011-05-22T12:13:32.85</time>
<name>13817</name>
<sym>Dot</sym>
</trkpt>
<trkpt lat="39.689937" lon="-8.610298">
<ele>245.5</ele>
<desc>Speed 16.2 km/h Distance 65.47 km</desc>
<time>2011-05-22T12:13:33.85</time>
<name>13818</name>
<sym>Dot</sym>
</trkpt>
<trkpt lat="39.689938" lon="-8.610350">
<ele>245.5</ele>
<desc>Speed 15.8 km/h Distance 65.48 km</desc>
<time>2011-05-22T12:13:34.85</time>
<name>13819</name>
<sym>Dot</sym>
</trkpt>
<trkpt lat="39.689940" lon="-8.610402">
<ele>245.5</ele>
<desc>Speed 15.8 km/h Distance 65.48 km</desc>
<time>2011-05-22T12:13:35.85</time>
<name>13820</name>
<sym>Dot</sym>
</trkpt>
<trkpt lat="39.689947" lon="-8.610452">
<ele>246.0</ele>
<desc>Speed 15.6 km/h Distance 65.49 km</desc>
<time>2011-05-22T12:13:36.85</time>
<name>13821</name>
<sym>Dot</sym>
</trkpt>
<trkpt lat="39.689952" lon="-8.610503">
<ele>246.0</ele>
<desc>Speed 15.7 km/h Distance 65.49 km</desc>
<time>2011-05-22T12:13:37.85</time>
<name>13822</name>
<sym>Dot</sym>
</trkpt>
<trkpt lat="39.689957" lon="-8.610555">
<ele>246.0</ele>
<desc>Speed 15.7 km/h Distance 65.49 km</desc>
<time>2011-05-22T12:13:38.85</time>
<name>13823</name>
<sym>Dot</sym>
</trkpt>
<trkpt lat="39.689960" lon="-8.610603">
<ele>246.5</ele>
<desc>Speed 15.2 km/h Distance 65.50 km</desc>
<time>2011-05-22T12:13:39.85</time>
<name>13824</name>
<sym>Dot</sym>
</trkpt>
<trkpt lat="39.689962" lon="-8.610653">
<ele>246.5</ele>
<desc>Speed 15.2 km/h Distance 65.50 km</desc>
<time>2011-05-22T12:13:40.85</time>
<name>13825</name>
<sym>Dot</sym>
</trkpt>
<trkpt lat="39.689967" lon="-8.610703">
<ele>246.5</ele>
<desc>Speed 15.2 km/h Distance 65.51 km</desc>
<time>2011-05-22T12:13:41.85</time>
<name>13826</name>
<sym>Dot</sym>
</trkpt>
<trkpt lat="39.689970" lon="-8.610752">
<ele>246.5</ele>
<desc>Speed 15.0 km/h Distance 65.51 km</desc>
<time>2011-05-22T12:13:42.85</time>
<name>13827</name>
<sym>Dot</sym>
</trkpt>
<trkpt lat="39.689973" lon="-8.610802">
<ele>247.0</ele>
<desc>Speed 15.2 km/h Distance 65.52 km</desc>
<time>2011-05-22T12:13:43.85</time>
<name>13828</name>
<sym>Dot</sym>
</trkpt>
<trkpt lat="39.689977" lon="-8.610850">
<ele>247.0</ele>
<desc>Speed 15.2 km/h Distance 65.52 km</desc>
<time>2011-05-22T12:13:44.85</time>
<name>13829</name>
<sym>Dot</sym>
</trkpt>
<trkpt lat="39.689978" lon="-8.610900">
<ele>247.0</ele>
<desc>Speed 14.8 km/h Distance 65.52 km</desc>
<time>2011-05-22T12:13:45.85</time>
<name>13830</name>
<sym>Dot</sym>
</trkpt>
<trkpt lat="39.689980" lon="-8.610947">
<ele>247.0</ele>
<desc>Speed 14.4 km/h Distance 65.53 km</desc>
<time>2011-05-22T12:13:46.85</time>
<name>13831</name>
<sym>Dot</sym>
</trkpt>
<trkpt lat="39.689982" lon="-8.610993">
<ele>247.5</ele>
<desc>Speed 14.2 km/h Distance 65.53 km</desc>
<time>2011-05-22T12:13:47.85</time>
<name>13832</name>
<sym>Dot</sym>
</trkpt>
<trkpt lat="39.689983" lon="-8.611040">
<ele>247.5</ele>
<desc>Speed 13.8 km/h Distance 65.54 km</desc>
<time>2011-05-22T12:13:48.85</time>
<name>13833</name>
<sym>Dot</sym>
</trkpt>
<trkpt lat="39.689982" lon="-8.611085">
<ele>247.5</ele>
<desc>Speed 13.7 km/h Distance 65.54 km</desc>
<time>2011-05-22T12:13:49.85</time>
<name>13834</name>
<sym>Dot</sym>
</trkpt>
<trkpt lat="39.689982" lon="-8.611130">
<ele>247.5</ele>
<desc>Speed 13.5 km/h Distance 65.54 km</desc>
<time>2011-05-22T12:13:50.85</time>
<name>13835</name>
<sym>Dot</sym>
</trkpt>
<trkpt lat="39.689985" lon="-8.611170">
<ele>247.5</ele>
<desc>Speed 12.6 km/h Distance 65.55 km</desc>
<time>2011-05-22T12:13:51.85</time>
<name>13836</name>
<sym>Dot</sym>
</trkpt>
<trkpt lat="39.689988" lon="-8.611213">
<ele>247.5</ele>
<desc>Speed 12.9 km/h Distance 65.55 km</desc>
<time>2011-05-22T12:13:52.85</time>
<name>13837</name>
<sym>Dot</sym>
</trkpt>
<trkpt lat="39.689988" lon="-8.611255">
<ele>247.5</ele>
<desc>Speed 12.6 km/h Distance 65.55 km</desc>
<time>2011-05-22T12:13:53.85</time>
<name>13838</name>
<sym>Dot</sym>
</trkpt>
<trkpt lat="39.689990" lon="-8.611292">
<ele>247.5</ele>
<desc>Speed 11.0 km/h Distance 65.56 km</desc>
<time>2011-05-22T12:13:54.85</time>
<name>13839</name>
<sym>Dot</sym>
</trkpt>
<trkpt lat="39.689993" lon="-8.611327">
<ele>248.0</ele>
<desc>Speed 10.8 km/h Distance 65.56 km</desc>
<time>2011-05-22T12:13:55.85</time>
<name>13840</name>
<sym>Dot</sym>
</trkpt>
<trkpt lat="39.689995" lon="-8.611363">
<ele>248.0</ele>
<desc>Speed 11.7 km/h Distance 65.56 km</desc>
<time>2011-05-22T12:13:56.85</time>
<name>13841</name>
<sym>Dot</sym>
</trkpt>
<trkpt lat="39.689993" lon="-8.611398">
<ele>249.0</ele>
<desc>Speed 10.4 km/h Distance 65.57 km</desc>
<time>2011-05-22T12:13:57.85</time>
<name>13842</name>
<sym>Dot</sym>
</trkpt>
<trkpt lat="39.689993" lon="-8.611432">
<ele>250.0</ele>
<desc>Speed 10.3 km/h Distance 65.57 km</desc>
<time>2011-05-22T12:13:58.85</time>
<name>13843</name>
<sym>Dot</sym>
</trkpt>
<trkpt lat="39.689992" lon="-8.611467">
<ele>250.0</ele>
<desc>Speed 11.1 km/h Distance 65.57 km</desc>
<time>2011-05-22T12:13:59.85</time>
<name>13844</name>
<sym>Dot</sym>
</trkpt>
<trkpt lat="39.689990" lon="-8.611505">
<ele>250.0</ele>
<desc>Speed 11.6 km/h Distance 65.58 km</desc>
<time>2011-05-22T12:14:00.85</time>
<name>13845</name>
<sym>Dot</sym>
</trkpt>
<trkpt lat="39.689983" lon="-8.611542">
<ele>250.0</ele>
<desc>Speed 11.7 km/h Distance 65.58 km</desc>
<time>2011-05-22T12:14:01.85</time>
<name>13846</name>
<sym>Dot</sym>
</trkpt>
<trkpt lat="39.689983" lon="-8.611580">
<ele>249.5</ele>
<desc>Speed 11.6 km/h Distance 65.58 km</desc>
<time>2011-05-22T12:14:02.85</time>
<name>13847</name>
<sym>Dot</sym>
</trkpt>
<trkpt lat="39.689985" lon="-8.611617">
<ele>249.5</ele>
<desc>Speed 11.4 km/h Distance 65.59 km</desc>
<time>2011-05-22T12:14:03.85</time>
<name>13848</name>
<sym>Dot</sym>
</trkpt>
<trkpt lat="39.689987" lon="-8.611653">
<ele>249.5</ele>
<desc>Speed 11.3 km/h Distance 65.59 km</desc>
<time>2011-05-22T12:14:04.85</time>
<name>13849</name>
<sym>Dot</sym>
</trkpt>
<trkpt lat="39.689988" lon="-8.611692">
<ele>250.0</ele>
<desc>Speed 11.7 km/h Distance 65.59 km</desc>
<time>2011-05-22T12:14:05.85</time>
<name>13850</name>
<sym>Dot</sym>
</trkpt>
<trkpt lat="39.689990" lon="-8.611730">
<ele>249.5</ele>
<desc>Speed 12.0 km/h Distance 65.60 km</desc>
<time>2011-05-22T12:14:06.85</time>
<name>13851</name>
<sym>Dot</sym>
</trkpt>
<trkpt lat="39.689990" lon="-8.611770">
<ele>249.5</ele>
<desc>Speed 12.3 km/h Distance 65.60 km</desc>
<time>2011-05-22T12:14:07.85</time>
<name>13852</name>
<sym>Dot</sym>
</trkpt>
<trkpt lat="39.689987" lon="-8.611812">
<ele>249.5</ele>
<desc>Speed 12.4 km/h Distance 65.60 km</desc>
<time>2011-05-22T12:14:08.85</time>
<name>13853</name>
<sym>Dot</sym>
</trkpt>
<trkpt lat="39.689983" lon="-8.611855">
<ele>249.5</ele>
<desc>Speed 13.3 km/h Distance 65.61 km</desc>
<time>2011-05-22T12:14:09.85</time>
<name>13854</name>
<sym>Dot</sym>
</trkpt>
<trkpt lat="39.689978" lon="-8.611898">
<ele>250.0</ele>
<desc>Speed 13.7 km/h Distance 65.61 km</desc>
<time>2011-05-22T12:14:10.85</time>
<name>13855</name>
<sym>Dot</sym>
</trkpt>
<trkpt lat="39.689970" lon="-8.611945">
<ele>250.0</ele>
<desc>Speed 14.3 km/h Distance 65.61 km</desc>
<time>2011-05-22T12:14:11.85</time>
<name>13856</name>
<sym>Dot</sym>
</trkpt>
<trkpt lat="39.689965" lon="-8.611992">
<ele>250.0</ele>
<desc>Speed 14.7 km/h Distance 65.62 km</desc>
<time>2011-05-22T12:14:12.85</time>
<name>13857</name>
<sym>Dot</sym>
</trkpt>
<trkpt lat="39.689960" lon="-8.612040">
<ele>250.0</ele>
<desc>Speed 15.2 km/h Distance 65.62 km</desc>
<time>2011-05-22T12:14:13.85</time>
<name>13858</name>
<sym>Dot</sym>
</trkpt>
<trkpt lat="39.689958" lon="-8.612090">
<ele>249.5</ele>
<desc>Speed 15.3 km/h Distance 65.63 km</desc>
<time>2011-05-22T12:14:14.85</time>
<name>13859</name>
<sym>Dot</sym>
</trkpt>
<trkpt lat="39.689955" lon="-8.612142">
<ele>250.0</ele>
<desc>Speed 15.8 km/h Distance 65.63 km</desc>
<time>2011-05-22T12:14:15.85</time>
<name>13860</name>
<sym>Dot</sym>
</trkpt>
<trkpt lat="39.689950" lon="-8.612193">
<ele>249.5</ele>
<desc>Speed 16.0 km/h Distance 65.64 km</desc>
<time>2011-05-22T12:14:16.85</time>
<name>13861</name>
<sym>Dot</sym>
</trkpt>
<trkpt lat="39.689945" lon="-8.612247">
<ele>249.5</ele>
<desc>Speed 16.5 km/h Distance 65.64 km</desc>
<time>2011-05-22T12:14:17.85</time>
<name>13862</name>
<sym>Dot</sym>
</trkpt>
<trkpt lat="39.689942" lon="-8.612302">
<ele>249.5</ele>
<desc>Speed 16.8 km/h Distance 65.64 km</desc>
<time>2011-05-22T12:14:18.85</time>
<name>13863</name>
<sym>Dot</sym>
</trkpt>
<trkpt lat="39.689937" lon="-8.612355">
<ele>249.5</ele>
<desc>Speed 16.7 km/h Distance 65.65 km</desc>
<time>2011-05-22T12:14:19.85</time>
<name>13864</name>
<sym>Dot</sym>
</trkpt>
<trkpt lat="39.689930" lon="-8.612410">
<ele>249.5</ele>
<desc>Speed 16.7 km/h Distance 65.65 km</desc>
<time>2011-05-22T12:14:20.85</time>
<name>13865</name>
<sym>Dot</sym>
</trkpt>
<trkpt lat="39.689927" lon="-8.612463">
<ele>249.0</ele>
<desc>Speed 16.5 km/h Distance 65.66 km</desc>
<time>2011-05-22T12:14:21.85</time>
<name>13866</name>
<sym>Dot</sym>
</trkpt>
<trkpt lat="39.689920" lon="-8.612515">
<ele>249.0</ele>
<desc>Speed 16.1 km/h Distance 65.66 km</desc>
<time>2011-05-22T12:14:22.85</time>
<name>13867</name>
<sym>Dot</sym>
</trkpt>
<trkpt lat="39.689915" lon="-8.612567">
<ele>249.0</ele>
<desc>Speed 16.2 km/h Distance 65.67 km</desc>
<time>2011-05-22T12:14:23.85</time>
<name>13868</name>
<sym>Dot</sym>
</trkpt>
<trkpt lat="39.689910" lon="-8.612620">
<ele>249.0</ele>
<desc>Speed 16.5 km/h Distance 65.67 km</desc>
<time>2011-05-22T12:14:24.85</time>
<name>13869</name>
<sym>Dot</sym>
</trkpt>
<trkpt lat="39.689902" lon="-8.612673">
<ele>249.0</ele>
<desc>Speed 16.2 km/h Distance 65.68 km</desc>
<time>2011-05-22T12:14:25.85</time>
<name>13870</name>
<sym>Dot</sym>
</trkpt>
<trkpt lat="39.689893" lon="-8.612725">
<ele>248.5</ele>
<desc>Speed 16.0 km/h Distance 65.68 km</desc>
<time>2011-05-22T12:14:26.85</time>
<name>13871</name>
<sym>Dot</sym>
</trkpt>
<trkpt lat="39.689887" lon="-8.612775">
<ele>249.0</ele>
<desc>Speed 15.5 km/h Distance 65.69 km</desc>
<time>2011-05-22T12:14:27.85</time>
<name>13872</name>
<sym>Dot</sym>
</trkpt>
<trkpt lat="39.689880" lon="-8.612827">
<ele>249.0</ele>
<desc>Speed 16.0 km/h Distance 65.69 km</desc>
<time>2011-05-22T12:14:28.85</time>
<name>13873</name>
<sym>Dot</sym>
</trkpt>
<trkpt lat="39.689875" lon="-8.612880">
<ele>248.5</ele>
<desc>Speed 16.4 km/h Distance 65.69 km</desc>
<time>2011-05-22T12:14:29.85</time>
<name>13874</name>
<sym>Dot</sym>
</trkpt>
<trkpt lat="39.689872" lon="-8.612932">
<ele>248.5</ele>
<desc>Speed 16.1 km/h Distance 65.70 km</desc>
<time>2011-05-22T12:14:30.85</time>
<name>13875</name>
<sym>Dot</sym>
</trkpt>
<trkpt lat="39.689872" lon="-8.612985">
<ele>248.5</ele>
<desc>Speed 16.4 km/h Distance 65.70 km</desc>
<time>2011-05-22T12:14:31.85</time>
<name>13876</name>
<sym>Dot</sym>
</trkpt>
<trkpt lat="39.689870" lon="-8.613040">
<ele>248.0</ele>
<desc>Speed 16.8 km/h Distance 65.71 km</desc>
<time>2011-05-22T12:14:32.85</time>
<name>13877</name>
<sym>Dot</sym>
</trkpt>
<trkpt lat="39.689867" lon="-8.613095">
<ele>247.5</ele>
<desc>Speed 16.7 km/h Distance 65.71 km</desc>
<time>2011-05-22T12:14:33.85</time>
<name>13878</name>
<sym>Dot</sym>
</trkpt>
<trkpt lat="39.689862" lon="-8.613148">
<ele>247.0</ele>
<desc>Speed 16.7 km/h Distance 65.72 km</desc>
<time>2011-05-22T12:14:34.85</time>
<name>13879</name>
<sym>Dot</sym>
</trkpt>
<trkpt lat="39.689857" lon="-8.613202">
<ele>247.0</ele>
<desc>Speed 16.5 km/h Distance 65.72 km</desc>
<time>2011-05-22T12:14:35.85</time>
<name>13880</name>
<sym>Dot</sym>
</trkpt>
<trkpt lat="39.689852" lon="-8.613253">
<ele>246.5</ele>
<desc>Speed 16.1 km/h Distance 65.73 km</desc>
<time>2011-05-22T12:14:36.85</time>
<name>13881</name>
<sym>Dot</sym>
</trkpt>
<trkpt lat="39.689848" lon="-8.613305">
<ele>246.5</ele>
<desc>Speed 16.0 km/h Distance 65.73 km</desc>
<time>2011-05-22T12:14:37.85</time>
<name>13882</name>
<sym>Dot</sym>
</trkpt>
<trkpt lat="39.689843" lon="-8.613357">
<ele>246.0</ele>
<desc>Speed 15.8 km/h Distance 65.74 km</desc>
<time>2011-05-22T12:14:38.85</time>
<name>13883</name>
<sym>Dot</sym>
</trkpt>
<trkpt lat="39.689838" lon="-8.613405">
<ele>246.0</ele>
<desc>Speed 15.5 km/h Distance 65.74 km</desc>
<time>2011-05-22T12:14:39.85</time>
<name>13884</name>
<sym>Dot</sym>
</trkpt>
<trkpt lat="39.689833" lon="-8.613455">
<ele>246.0</ele>
<desc>Speed 15.3 km/h Distance 65.74 km</desc>
<time>2011-05-22T12:14:40.85</time>
<name>13885</name>
<sym>Dot</sym>
</trkpt>
<trkpt lat="39.689827" lon="-8.613503">
<ele>246.0</ele>
<desc>Speed 14.9 km/h Distance 65.75 km</desc>
<time>2011-05-22T12:14:41.85</time>
<name>13886</name>
<sym>Dot</sym>
</trkpt>
<trkpt lat="39.689820" lon="-8.613552">
<ele>245.5</ele>
<desc>Speed 14.9 km/h Distance 65.75 km</desc>
<time>2011-05-22T12:14:42.85</time>
<name>13887</name>
<sym>Dot</sym>
</trkpt>
<trkpt lat="39.689817" lon="-8.613598">
<ele>245.5</ele>
<desc>Speed 14.5 km/h Distance 65.76 km</desc>
<time>2011-05-22T12:14:43.85</time>
<name>13888</name>
<sym>Dot</sym>
</trkpt>
<trkpt lat="39.689812" lon="-8.613645">
<ele>245.5</ele>
<desc>Speed 14.3 km/h Distance 65.76 km</desc>
<time>2011-05-22T12:14:44.85</time>
<name>13889</name>
<sym>Dot</sym>
</trkpt>
<trkpt lat="39.689805" lon="-8.613690">
<ele>245.5</ele>
<desc>Speed 14.4 km/h Distance 65.76 km</desc>
<time>2011-05-22T12:14:45.85</time>
<name>13890</name>
<sym>Dot</sym>
</trkpt>
<trkpt lat="39.689798" lon="-8.613737">
<ele>245.5</ele>
<desc>Speed 14.7 km/h Distance 65.77 km</desc>
<time>2011-05-22T12:14:46.85</time>
<name>13891</name>
<sym>Dot</sym>
</trkpt>
<trkpt lat="39.689792" lon="-8.613785">
<ele>245.5</ele>
<desc>Speed 14.9 km/h Distance 65.77 km</desc>
<time>2011-05-22T12:14:47.85</time>
<name>13892</name>
<sym>Dot</sym>
</trkpt>
<trkpt lat="39.689785" lon="-8.613833">
<ele>245.5</ele>
<desc>Speed 15.2 km/h Distance 65.78 km</desc>
<time>2011-05-22T12:14:48.85</time>
<name>13893</name>
<sym>Dot</sym>
</trkpt>
<trkpt lat="39.689782" lon="-8.613883">
<ele>245.0</ele>
<desc>Speed 15.0 km/h Distance 65.78 km</desc>
<time>2011-05-22T12:14:49.85</time>
<name>13894</name>
<sym>Dot</sym>
</trkpt>
<trkpt lat="39.689778" lon="-8.613930">
<ele>245.0</ele>
<desc>Speed 14.7 km/h Distance 65.79 km</desc>
<time>2011-05-22T12:14:50.85</time>
<name>13895</name>
<sym>Dot</sym>
</trkpt>
<trkpt lat="39.689777" lon="-8.613977">
<ele>245.0</ele>
<desc>Speed 14.0 km/h Distance 65.79 km</desc>
<time>2011-05-22T12:14:51.85</time>
<name>13896</name>
<sym>Dot</sym>
</trkpt>
<trkpt lat="39.689772" lon="-8.614022">
<ele>245.0</ele>
<desc>Speed 14.0 km/h Distance 65.79 km</desc>
<time>2011-05-22T12:14:52.85</time>
<name>13897</name>
<sym>Dot</sym>
</trkpt>
<trkpt lat="39.689768" lon="-8.614065">
<ele>245.5</ele>
<desc>Speed 13.7 km/h Distance 65.80 km</desc>
<time>2011-05-22T12:14:53.85</time>
<name>13898</name>
<sym>Dot</sym>
</trkpt>
<trkpt lat="39.689763" lon="-8.614110">
<ele>245.5</ele>
<desc>Speed 13.5 km/h Distance 65.80 km</desc>
<time>2011-05-22T12:14:54.85</time>
<name>13899</name>
<sym>Dot</sym>
</trkpt>
<trkpt lat="39.689757" lon="-8.614152">
<ele>245.5</ele>
<desc>Speed 13.5 km/h Distance 65.80 km</desc>
<time>2011-05-22T12:14:55.85</time>
<name>13900</name>
<sym>Dot</sym>
</trkpt>
<trkpt lat="39.689750" lon="-8.614195">
<ele>245.5</ele>
<desc>Speed 13.4 km/h Distance 65.81 km</desc>
<time>2011-05-22T12:14:56.85</time>
<name>13901</name>
<sym>Dot</sym>
</trkpt>
<trkpt lat="39.689745" lon="-8.614237">
<ele>246.0</ele>
<desc>Speed 12.9 km/h Distance 65.81 km</desc>
<time>2011-05-22T12:14:57.85</time>
<name>13902</name>
<sym>Dot</sym>
</trkpt>
<trkpt lat="39.689740" lon="-8.614278">
<ele>246.0</ele>
<desc>Speed 13.0 km/h Distance 65.82 km</desc>
<time>2011-05-22T12:14:58.85</time>
<name>13903</name>
<sym>Dot</sym>
</trkpt>
<trkpt lat="39.689737" lon="-8.614320">
<ele>246.0</ele>
<desc>Speed 12.9 km/h Distance 65.82 km</desc>
<time>2011-05-22T12:14:59.85</time>
<name>13904</name>
<sym>Dot</sym>
</trkpt>
<trkpt lat="39.689732" lon="-8.614360">
<ele>246.0</ele>
<desc>Speed 12.8 km/h Distance 65.82 km</desc>
<time>2011-05-22T12:15:00.85</time>
<name>13905</name>
<sym>Dot</sym>
</trkpt>
<trkpt lat="39.689723" lon="-8.614398">
<ele>246.0</ele>
<desc>Speed 12.4 km/h Distance 65.83 km</desc>
<time>2011-05-22T12:15:01.85</time>
<name>13906</name>
<sym>Dot</sym>
</trkpt>
<trkpt lat="39.689712" lon="-8.614438">
<ele>246.0</ele>
<desc>Speed 12.9 km/h Distance 65.83 km</desc>
<time>2011-05-22T12:15:02.85</time>
<name>13907</name>
<sym>Dot</sym>
</trkpt>
<trkpt lat="39.689700" lon="-8.614477">
<ele>246.0</ele>
<desc>Speed 12.7 km/h Distance 65.83 km</desc>
<time>2011-05-22T12:15:03.85</time>
<name>13908</name>
<sym>Dot</sym>
</trkpt>
<trkpt lat="39.689687" lon="-8.614513">
<ele>246.5</ele>
<desc>Speed 12.6 km/h Distance 65.84 km</desc>
<time>2011-05-22T12:15:04.85</time>
<name>13909</name>
<sym>Dot</sym>
</trkpt>
<trkpt lat="39.689675" lon="-8.614548">
<ele>246.0</ele>
<desc>Speed 12.0 km/h Distance 65.84 km</desc>
<time>2011-05-22T12:15:05.85</time>
<name>13910</name>
<sym>Dot</sym>
</trkpt>
<trkpt lat="39.689658" lon="-8.614583">
<ele>246.0</ele>
<desc>Speed 12.4 km/h Distance 65.84 km</desc>
<time>2011-05-22T12:15:06.85</time>
<name>13911</name>
<sym>Dot</sym>
</trkpt>
<trkpt lat="39.689642" lon="-8.614617">
<ele>246.5</ele>
<desc>Speed 12.2 km/h Distance 65.85 km</desc>
<time>2011-05-22T12:15:07.85</time>
<name>13912</name>
<sym>Dot</sym>
</trkpt>
<trkpt lat="39.689627" lon="-8.614652">
<ele>246.5</ele>
<desc>Speed 12.2 km/h Distance 65.85 km</desc>
<time>2011-05-22T12:15:08.85</time>
<name>13913</name>
<sym>Dot</sym>
</trkpt>
<trkpt lat="39.689610" lon="-8.614687">
<ele>246.5</ele>
<desc>Speed 12.3 km/h Distance 65.85 km</desc>
<time>2011-05-22T12:15:09.85</time>
<name>13914</name>
<sym>Dot</sym>
</trkpt>
<trkpt lat="39.689595" lon="-8.614720">
<ele>246.5</ele>
<desc>Speed 12.2 km/h Distance 65.86 km</desc>
<time>2011-05-22T12:15:10.85</time>
<name>13915</name>
<sym>Dot</sym>
</trkpt>
<trkpt lat="39.689578" lon="-8.614753">
<ele>247.0</ele>
<desc>Speed 12.2 km/h Distance 65.86 km</desc>
<time>2011-05-22T12:15:11.85</time>
<name>13916</name>
<sym>Dot</sym>
</trkpt>
<trkpt lat="39.689562" lon="-8.614785">
<ele>247.0</ele>
<desc>Speed 11.9 km/h Distance 65.86 km</desc>
<time>2011-05-22T12:15:12.85</time>
<name>13917</name>
<sym>Dot</sym>
</trkpt>
<trkpt lat="39.689547" lon="-8.614818">
<ele>247.0</ele>
<desc>Speed 11.9 km/h Distance 65.87 km</desc>
<time>2011-05-22T12:15:13.85</time>
<name>13918</name>
<sym>Dot</sym>
</trkpt>
<trkpt lat="39.689528" lon="-8.614852">
<ele>247.5</ele>
<desc>Speed 12.4 km/h Distance 65.87 km</desc>
<time>2011-05-22T12:15:14.85</time>
<name>13919</name>
<sym>Dot</sym>
</trkpt>
<trkpt lat="39.689510" lon="-8.614885">
<ele>247.5</ele>
<desc>Speed 12.9 km/h Distance 65.87 km</desc>
<time>2011-05-22T12:15:15.85</time>
<name>13920</name>
<sym>Dot</sym>
</trkpt>
<trkpt lat="39.689493" lon="-8.614923">
<ele>247.5</ele>
<desc>Speed 13.5 km/h Distance 65.88 km</desc>
<time>2011-05-22T12:15:16.85</time>
<name>13921</name>
<sym>Dot</sym>
</trkpt>
<trkpt lat="39.689475" lon="-8.614962">
<ele>247.5</ele>
<desc>Speed 13.8 km/h Distance 65.88 km</desc>
<time>2011-05-22T12:15:17.85</time>
<name>13922</name>
<sym>Dot</sym>
</trkpt>
<trkpt lat="39.689458" lon="-8.615000">
<ele>248.0</ele>
<desc>Speed 13.6 km/h Distance 65.89 km</desc>
<time>2011-05-22T12:15:18.85</time>
<name>13923</name>
<sym>Dot</sym>
</trkpt>
<trkpt lat="39.689442" lon="-8.615037">
<ele>248.0</ele>
<desc>Speed 13.6 km/h Distance 65.89 km</desc>
<time>2011-05-22T12:15:19.85</time>
<name>13924</name>
<sym>Dot</sym>
</trkpt>
<trkpt lat="39.689427" lon="-8.615078">
<ele>248.5</ele>
<desc>Speed 14.0 km/h Distance 65.89 km</desc>
<time>2011-05-22T12:15:20.85</time>
<name>13925</name>
<sym>Dot</sym>
</trkpt>
<trkpt lat="39.689413" lon="-8.615117">
<ele>248.5</ele>
<desc>Speed 13.1 km/h Distance 65.90 km</desc>
<time>2011-05-22T12:15:21.85</time>
<name>13926</name>
<sym>Dot</sym>
</trkpt>
<trkpt lat="39.689403" lon="-8.615160">
<ele>248.5</ele>
<desc>Speed 13.6 km/h Distance 65.90 km</desc>
<time>2011-05-22T12:15:22.85</time>
<name>13927</name>
<sym>Dot</sym>
</trkpt>
<trkpt lat="39.689377" lon="-8.615200">
<ele>250.0</ele>
<desc>Speed 16.3 km/h Distance 65.91 km</desc>
<time>2011-05-22T12:15:23.85</time>
<name>13928</name>
<sym>Dot</sym>
</trkpt>
<trkpt lat="39.689362" lon="-8.615243">
<ele>250.0</ele>
<desc>Speed 14.4 km/h Distance 65.91 km</desc>
<time>2011-05-22T12:15:24.85</time>
<name>13929</name>
<sym>Dot</sym>
</trkpt>
<trkpt lat="39.689347" lon="-8.615285">
<ele>251.0</ele>
<desc>Speed 14.4 km/h Distance 65.91 km</desc>
<time>2011-05-22T12:15:25.85</time>
<name>13930</name>
<sym>Dot</sym>
</trkpt>
<trkpt lat="39.689322" lon="-8.615323">
<ele>252.5</ele>
<desc>Speed 15.4 km/h Distance 65.92 km</desc>
<time>2011-05-22T12:15:26.85</time>
<name>13931</name>
<sym>Dot</sym>
</trkpt>
<trkpt lat="39.689300" lon="-8.615362">
<ele>253.5</ele>
<desc>Speed 14.4 km/h Distance 65.92 km</desc>
<time>2011-05-22T12:15:27.85</time>
<name>13932</name>
<sym>Dot</sym>
</trkpt>
<trkpt lat="39.689282" lon="-8.615402">
<ele>255.0</ele>
<desc>Speed 14.3 km/h Distance 65.93 km</desc>
<time>2011-05-22T12:15:28.85</time>
<name>13933</name>
<sym>Dot</sym>
</trkpt>
<trkpt lat="39.689268" lon="-8.615442">
<ele>255.0</ele>
<desc>Speed 13.4 km/h Distance 65.93 km</desc>
<time>2011-05-22T12:15:29.85</time>
<name>13934</name>
<sym>Dot</sym>
</trkpt>
<trkpt lat="39.689275" lon="-8.615467">
<ele>255.5</ele>
<desc>Speed 8.3 km/h Distance 65.93 km</desc>
<time>2011-05-22T12:15:30.85</time>
<name>13935</name>
<sym>Dot</sym>
</trkpt>
<trkpt lat="39.689262" lon="-8.615498">
<ele>257.0</ele>
<desc>Speed 11.5 km/h Distance 65.93 km</desc>
<time>2011-05-22T12:15:31.85</time>
<name>13936</name>
<sym>Dot</sym>
</trkpt>
<trkpt lat="39.689255" lon="-8.615537">
<ele>257.0</ele>
<desc>Speed 12.0 km/h Distance 65.94 km</desc>
<time>2011-05-22T12:15:32.85</time>
<name>13937</name>
<sym>Dot</sym>
</trkpt>
<trkpt lat="39.689243" lon="-8.615577">
<ele>257.0</ele>
<desc>Speed 13.2 km/h Distance 65.94 km</desc>
<time>2011-05-22T12:15:33.85</time>
<name>13938</name>
<sym>Dot</sym>
</trkpt>
<trkpt lat="39.689225" lon="-8.615615">
<ele>258.5</ele>
<desc>Speed 13.6 km/h Distance 65.95 km</desc>
<time>2011-05-22T12:15:34.85</time>
<name>13939</name>
<sym>Dot</sym>
</trkpt>
<trkpt lat="39.689215" lon="-8.615652">
<ele>259.0</ele>
<desc>Speed 11.9 km/h Distance 65.95 km</desc>
<time>2011-05-22T12:15:35.85</time>
<name>13940</name>
<sym>Dot</sym>
</trkpt>
<trkpt lat="39.689222" lon="-8.615673">
<ele>259.0</ele>
<desc>Speed 7.1 km/h Distance 65.95 km</desc>
<time>2011-05-22T12:15:36.85</time>
<name>13941</name>
<sym>Dot</sym>
</trkpt>
<trkpt lat="39.689217" lon="-8.615717">
<ele>257.5</ele>
<desc>Speed 13.2 km/h Distance 65.95 km</desc>
<time>2011-05-22T12:15:37.85</time>
<name>13942</name>
<sym>Dot</sym>
</trkpt>
<trkpt lat="39.689202" lon="-8.615752">
<ele>258.5</ele>
<desc>Speed 12.0 km/h Distance 65.96 km</desc>
<time>2011-05-22T12:15:38.85</time>
<name>13943</name>
<sym>Dot</sym>
</trkpt>
<trkpt lat="39.689190" lon="-8.615783">
<ele>259.0</ele>
<desc>Speed 11.5 km/h Distance 65.96 km</desc>
<time>2011-05-22T12:15:39.85</time>
<name>13944</name>
<sym>Dot</sym>
</trkpt>
<trkpt lat="39.689182" lon="-8.615817">
<ele>259.0</ele>
<desc>Speed 10.5 km/h Distance 65.96 km</desc>
<time>2011-05-22T12:15:40.85</time>
<name>13945</name>
<sym>Dot</sym>
</trkpt>
<trkpt lat="39.689162" lon="-8.615850">
<ele>261.0</ele>
<desc>Speed 13.3 km/h Distance 65.97 km</desc>
<time>2011-05-22T12:15:41.85</time>
<name>13946</name>
<sym>Dot</sym>
</trkpt>
<trkpt lat="39.689160" lon="-8.615888">
<ele>261.0</ele>
<desc>Speed 11.6 km/h Distance 65.97 km</desc>
<time>2011-05-22T12:15:42.85</time>
<name>13947</name>
<sym>Dot</sym>
</trkpt>
<trkpt lat="39.689150" lon="-8.615928">
<ele>263.0</ele>
<desc>Speed 12.6 km/h Distance 65.97 km</desc>
<time>2011-05-22T12:15:43.85</time>
<name>13948</name>
<sym>Dot</sym>
</trkpt>
<trkpt lat="39.689142" lon="-8.615962">
<ele>263.5</ele>
<desc>Speed 10.9 km/h Distance 65.98 km</desc>
<time>2011-05-22T12:15:44.85</time>
<name>13949</name>
<sym>Dot</sym>
</trkpt>
<trkpt lat="39.689133" lon="-8.615995">
<ele>263.5</ele>
<desc>Speed 10.2 km/h Distance 65.98 km</desc>
<time>2011-05-22T12:15:45.85</time>
<name>13950</name>
<sym>Dot</sym>
</trkpt>
<trkpt lat="39.689128" lon="-8.616030">
<ele>263.5</ele>
<desc>Speed 10.5 km/h Distance 65.98 km</desc>
<time>2011-05-22T12:15:46.85</time>
<name>13951</name>
<sym>Dot</sym>
</trkpt>
<trkpt lat="39.689123" lon="-8.616063">
<ele>264.0</ele>
<desc>Speed 10.4 km/h Distance 65.99 km</desc>
<time>2011-05-22T12:15:47.85</time>
<name>13952</name>
<sym>Dot</sym>
</trkpt>
<trkpt lat="39.689122" lon="-8.616098">
<ele>263.5</ele>
<desc>Speed 10.4 km/h Distance 65.99 km</desc>
<time>2011-05-22T12:15:48.85</time>
<name>13953</name>
<sym>Dot</sym>
</trkpt>
<trkpt lat="39.689132" lon="-8.616132">
<ele>262.0</ele>
<desc>Speed 9.9 km/h Distance 65.99 km</desc>
<time>2011-05-22T12:15:49.85</time>
<name>13954</name>
<sym>Dot</sym>
</trkpt>
<trkpt lat="39.689137" lon="-8.616163">
<ele>261.0</ele>
<desc>Speed 9.8 km/h Distance 66.00 km</desc>
<time>2011-05-22T12:15:50.85</time>
<name>13955</name>
<sym>Dot</sym>
</trkpt>
<trkpt lat="39.689135" lon="-8.616197">
<ele>260.5</ele>
<desc>Speed 9.8 km/h Distance 66.00 km</desc>
<time>2011-05-22T12:15:51.85</time>
<name>13956</name>
<sym>Dot</sym>
</trkpt>
<trkpt lat="39.689135" lon="-8.616225">
<ele>260.5</ele>
<desc>Speed 9.4 km/h Distance 66.00 km</desc>
<time>2011-05-22T12:15:52.85</time>
<name>13957</name>
<sym>Dot</sym>
</trkpt>
<trkpt lat="39.689133" lon="-8.616257">
<ele>260.5</ele>
<desc>Speed 9.7 km/h Distance 66.00 km</desc>
<time>2011-05-22T12:15:53.85</time>
<name>13958</name>
<sym>Dot</sym>
</trkpt>
<trkpt lat="39.689132" lon="-8.616288">
<ele>260.0</ele>
<desc>Speed 9.8 km/h Distance 66.01 km</desc>
<time>2011-05-22T12:15:54.85</time>
<name>13959</name>
<sym>Dot</sym>
</trkpt>
<trkpt lat="39.689128" lon="-8.616320">
<ele>260.0</ele>
<desc>Speed 10.2 km/h Distance 66.01 km</desc>
<time>2011-05-22T12:15:55.85</time>
<name>13960</name>
<sym>Dot</sym>
</trkpt>
<trkpt lat="39.689127" lon="-8.616355">
<ele>259.5</ele>
<desc>Speed 10.2 km/h Distance 66.01 km</desc>
<time>2011-05-22T12:15:56.85</time>
<name>13961</name>
<sym>Dot</sym>
</trkpt>
<trkpt lat="39.689123" lon="-8.616388">
<ele>259.0</ele>
<desc>Speed 10.1 km/h Distance 66.01 km</desc>
<time>2011-05-22T12:15:57.85</time>
<name>13962</name>
<sym>Dot</sym>
</trkpt>
<trkpt lat="39.689118" lon="-8.616423">
<ele>259.0</ele>
<desc>Speed 10.1 km/h Distance 66.02 km</desc>
<time>2011-05-22T12:15:58.85</time>
<name>13963</name>
<sym>Dot</sym>
</trkpt>
<trkpt lat="39.689117" lon="-8.616460">
<ele>259.0</ele>
<desc>Speed 10.2 km/h Distance 66.02 km</desc>
<time>2011-05-22T12:15:59.85</time>
<name>13964</name>
<sym>Dot</sym>
</trkpt>
<trkpt lat="39.689113" lon="-8.616495">
<ele>259.0</ele>
<desc>Speed 10.2 km/h Distance 66.02 km</desc>
<time>2011-05-22T12:16:00.85</time>
<name>13965</name>
<sym>Dot</sym>
</trkpt>
<trkpt lat="39.689110" lon="-8.616532">
<ele>258.5</ele>
<desc>Speed 10.7 km/h Distance 66.03 km</desc>
<time>2011-05-22T12:16:01.85</time>
<name>13966</name>
<sym>Dot</sym>
</trkpt>
<trkpt lat="39.689103" lon="-8.616570">
<ele>258.5</ele>
<desc>Speed 11.1 km/h Distance 66.03 km</desc>
<time>2011-05-22T12:16:02.85</time>
<name>13967</name>
<sym>Dot</sym>
</trkpt>
<trkpt lat="39.689098" lon="-8.616608">
<ele>258.5</ele>
<desc>Speed 11.2 km/h Distance 66.03 km</desc>
<time>2011-05-22T12:16:03.85</time>
<name>13968</name>
<sym>Dot</sym>
</trkpt>
<trkpt lat="39.689097" lon="-8.616645">
<ele>258.5</ele>
<desc>Speed 11.1 km/h Distance 66.04 km</desc>
<time>2011-05-22T12:16:04.85</time>
<name>13969</name>
<sym>Dot</sym>
</trkpt>
<trkpt lat="39.689093" lon="-8.616682">
<ele>258.5</ele>
<desc>Speed 10.9 km/h Distance 66.04 km</desc>
<time>2011-05-22T12:16:05.85</time>
<name>13970</name>
<sym>Dot</sym>
</trkpt>
<trkpt lat="39.689090" lon="-8.616718">
<ele>258.5</ele>
<desc>Speed 10.8 km/h Distance 66.04 km</desc>
<time>2011-05-22T12:16:06.85</time>
<name>13971</name>
<sym>Dot</sym>
</trkpt>
<trkpt lat="39.689087" lon="-8.616753">
<ele>258.5</ele>
<desc>Speed 10.5 km/h Distance 66.05 km</desc>
<time>2011-05-22T12:16:07.85</time>
<name>13972</name>
<sym>Dot</sym>
</trkpt>
<trkpt lat="39.689083" lon="-8.616788">
<ele>258.5</ele>
<desc>Speed 10.4 km/h Distance 66.05 km</desc>
<time>2011-05-22T12:16:08.85</time>
<name>13973</name>
<sym>Dot</sym>
</trkpt>
<trkpt lat="39.689080" lon="-8.616822">
<ele>259.0</ele>
<desc>Speed 9.9 km/h Distance 66.05 km</desc>
<time>2011-05-22T12:16:09.85</time>
<name>13974</name>
<sym>Dot</sym>
</trkpt>
<trkpt lat="39.689077" lon="-8.616857">
<ele>259.0</ele>
<desc>Speed 10.6 km/h Distance 66.06 km</desc>
<time>2011-05-22T12:16:10.85</time>
<name>13975</name>
<sym>Dot</sym>
</trkpt>
<trkpt lat="39.689072" lon="-8.616888">
<ele>259.5</ele>
<desc>Speed 9.6 km/h Distance 66.06 km</desc>
<time>2011-05-22T12:16:11.85</time>
<name>13976</name>
<sym>Dot</sym>
</trkpt>
<trkpt lat="39.689067" lon="-8.616918">
<ele>260.0</ele>
<desc>Speed 9.1 km/h Distance 66.06 km</desc>
<time>2011-05-22T12:16:12.85</time>
<name>13977</name>
<sym>Dot</sym>
</trkpt>
<trkpt lat="39.689060" lon="-8.616948">
<ele>260.5</ele>
<desc>Speed 9.3 km/h Distance 66.06 km</desc>
<time>2011-05-22T12:16:13.85</time>
<name>13978</name>
<sym>Dot</sym>
</trkpt>
<trkpt lat="39.689052" lon="-8.616977">
<ele>260.5</ele>
<desc>Speed 9.5 km/h Distance 66.07 km</desc>
<time>2011-05-22T12:16:14.85</time>
<name>13979</name>
<sym>Dot</sym>
</trkpt>
<trkpt lat="39.689040" lon="-8.617005">
<ele>261.0</ele>
<desc>Speed 9.3 km/h Distance 66.07 km</desc>
<time>2011-05-22T12:16:15.85</time>
<name>13980</name>
<sym>Dot</sym>
</trkpt>
<trkpt lat="39.689025" lon="-8.617033">
<ele>261.0</ele>
<desc>Speed 10.0 km/h Distance 66.07 km</desc>
<time>2011-05-22T12:16:16.85</time>
<name>13981</name>
<sym>Dot</sym>
</trkpt>
<trkpt lat="39.689008" lon="-8.617058">
<ele>261.5</ele>
<desc>Speed 10.1 km/h Distance 66.07 km</desc>
<time>2011-05-22T12:16:17.85</time>
<name>13982</name>
<sym>Dot</sym>
</trkpt>
<trkpt lat="39.688990" lon="-8.617083">
<ele>261.5</ele>
<desc>Speed 10.4 km/h Distance 66.08 km</desc>
<time>2011-05-22T12:16:18.85</time>
<name>13983</name>
<sym>Dot</sym>
</trkpt>
<trkpt lat="39.688970" lon="-8.617107">
<ele>262.0</ele>
<desc>Speed 10.4 km/h Distance 66.08 km</desc>
<time>2011-05-22T12:16:19.85</time>
<name>13984</name>
<sym>Dot</sym>
</trkpt>
<trkpt lat="39.688950" lon="-8.617125">
<ele>262.5</ele>
<desc>Speed 10.0 km/h Distance 66.08 km</desc>
<time>2011-05-22T12:16:20.85</time>
<name>13985</name>
<sym>Dot</sym>
</trkpt>
<trkpt lat="39.688927" lon="-8.617138">
<ele>262.5</ele>
<desc>Speed 10.7 km/h Distance 66.09 km</desc>
<time>2011-05-22T12:16:21.85</time>
<name>13986</name>
<sym>Dot</sym>
</trkpt>
<trkpt lat="39.688902" lon="-8.617147">
<ele>262.0</ele>
<desc>Speed 10.7 km/h Distance 66.09 km</desc>
<time>2011-05-22T12:16:22.85</time>
<name>13987</name>
<sym>Dot</sym>
</trkpt>
<trkpt lat="39.688875" lon="-8.617158">
<ele>262.0</ele>
<desc>Speed 10.9 km/h Distance 66.09 km</desc>
<time>2011-05-22T12:16:23.85</time>
<name>13988</name>
<sym>Dot</sym>
</trkpt>
<trkpt lat="39.688850" lon="-8.617170">
<ele>262.5</ele>
<desc>Speed 11.1 km/h Distance 66.09 km</desc>
<time>2011-05-22T12:16:24.85</time>
<name>13989</name>
<sym>Dot</sym>
</trkpt>
<trkpt lat="39.688822" lon="-8.617182">
<ele>262.5</ele>
<desc>Speed 11.9 km/h Distance 66.10 km</desc>
<time>2011-05-22T12:16:25.85</time>
<name>13990</name>
<sym>Dot</sym>
</trkpt>
<trkpt lat="39.688793" lon="-8.617193">
<ele>263.0</ele>
<desc>Speed 11.8 km/h Distance 66.10 km</desc>
<time>2011-05-22T12:16:26.85</time>
<name>13991</name>
<sym>Dot</sym>
</trkpt>
<trkpt lat="39.688765" lon="-8.617203">
<ele>262.5</ele>
<desc>Speed 11.9 km/h Distance 66.10 km</desc>
<time>2011-05-22T12:16:27.85</time>
<name>13992</name>
<sym>Dot</sym>
</trkpt>
<trkpt lat="39.688738" lon="-8.617215">
<ele>262.5</ele>
<desc>Speed 11.4 km/h Distance 66.11 km</desc>
<time>2011-05-22T12:16:28.85</time>
<name>13993</name>
<sym>Dot</sym>
</trkpt>
<trkpt lat="39.688713" lon="-8.617232">
<ele>262.0</ele>
<desc>Speed 11.4 km/h Distance 66.11 km</desc>
<time>2011-05-22T12:16:29.85</time>
<name>13994</name>
<sym>Dot</sym>
</trkpt>
<trkpt lat="39.688692" lon="-8.617252">
<ele>262.0</ele>
<desc>Speed 10.5 km/h Distance 66.11 km</desc>
<time>2011-05-22T12:16:30.85</time>
<name>13995</name>
<sym>Dot</sym>
</trkpt>
<trkpt lat="39.688678" lon="-8.617270">
<ele>263.5</ele>
<desc>Speed 8.0 km/h Distance 66.12 km</desc>
<time>2011-05-22T12:16:31.85</time>
<name>13996</name>
<sym>Dot</sym>
</trkpt>
<trkpt lat="39.688665" lon="-8.617300">
<ele>264.0</ele>
<desc>Speed 10.8 km/h Distance 66.12 km</desc>
<time>2011-05-22T12:16:32.85</time>
<name>13997</name>
<sym>Dot</sym>
</trkpt>
<trkpt lat="39.688653" lon="-8.617332">
<ele>264.5</ele>
<desc>Speed 10.8 km/h Distance 66.12 km</desc>
<time>2011-05-22T12:16:33.85</time>
<name>13998</name>
<sym>Dot</sym>
</trkpt>
<trkpt lat="39.688642" lon="-8.617365">
<ele>264.5</ele>
<desc>Speed 11.2 km/h Distance 66.13 km</desc>
<time>2011-05-22T12:16:34.85</time>
<name>13999</name>
<sym>Dot</sym>
</trkpt>
<trkpt lat="39.688630" lon="-8.617408">
<ele>265.0</ele>
<desc>Speed 13.7 km/h Distance 66.13 km</desc>
<time>2011-05-22T12:16:35.85</time>
<name>14000</name>
<sym>Dot</sym>
</trkpt>
<trkpt lat="39.688615" lon="-8.617452">
<ele>265.5</ele>
<desc>Speed 14.7 km/h Distance 66.13 km</desc>
<time>2011-05-22T12:16:36.85</time>
<name>14001</name>
<sym>Dot</sym>
</trkpt>
<trkpt lat="39.688603" lon="-8.617498">
<ele>265.0</ele>
<desc>Speed 14.8 km/h Distance 66.14 km</desc>
<time>2011-05-22T12:16:37.85</time>
<name>14002</name>
<sym>Dot</sym>
</trkpt>
<trkpt lat="39.688588" lon="-8.617548">
<ele>265.0</ele>
<desc>Speed 16.0 km/h Distance 66.14 km</desc>
<time>2011-05-22T12:16:38.85</time>
<name>14003</name>
<sym>Dot</sym>
</trkpt>
<trkpt lat="39.688570" lon="-8.617598">
<ele>264.5</ele>
<desc>Speed 16.7 km/h Distance 66.15 km</desc>
<time>2011-05-22T12:16:39.85</time>
<name>14004</name>
<sym>Dot</sym>
</trkpt>
<trkpt lat="39.688550" lon="-8.617652">
<ele>265.0</ele>
<desc>Speed 17.9 km/h Distance 66.15 km</desc>
<time>2011-05-22T12:16:40.85</time>
<name>14005</name>
<sym>Dot</sym>
</trkpt>
<trkpt lat="39.688525" lon="-8.617707">
<ele>264.5</ele>
<desc>Speed 19.4 km/h Distance 66.16 km</desc>
<time>2011-05-22T12:16:41.85</time>
<name>14006</name>
<sym>Dot</sym>
</trkpt>
<trkpt lat="39.688500" lon="-8.617767">
<ele>264.5</ele>
<desc>Speed 20.5 km/h Distance 66.16 km</desc>
<time>2011-05-22T12:16:42.85</time>
<name>14007</name>
<sym>Dot</sym>
</trkpt>
<trkpt lat="39.688475" lon="-8.617828">
<ele>264.5</ele>
<desc>Speed 21.1 km/h Distance 66.17 km</desc>
<time>2011-05-22T12:16:43.85</time>
<name>14008</name>
<sym>Dot</sym>
</trkpt>
<trkpt lat="39.688447" lon="-8.617892">
<ele>264.0</ele>
<desc>Speed 22.1 km/h Distance 66.18 km</desc>
<time>2011-05-22T12:16:44.85</time>
<name>14009</name>
<sym>Dot</sym>
</trkpt>
<trkpt lat="39.688417" lon="-8.617952">
<ele>263.5</ele>
<desc>Speed 21.6 km/h Distance 66.18 km</desc>
<time>2011-05-22T12:16:45.85</time>
<name>14010</name>
<sym>Dot</sym>
</trkpt>
<trkpt lat="39.688383" lon="-8.618015">
<ele>263.0</ele>
<desc>Speed 22.6 km/h Distance 66.19 km</desc>
<time>2011-05-22T12:16:46.85</time>
<name>14011</name>
<sym>Dot</sym>
</trkpt>
<trkpt lat="39.688348" lon="-8.618072">
<ele>263.0</ele>
<desc>Speed 22.3 km/h Distance 66.19 km</desc>
<time>2011-05-22T12:16:47.85</time>
<name>14012</name>
<sym>Dot</sym>
</trkpt>
<trkpt lat="39.688308" lon="-8.618123">
<ele>263.0</ele>
<desc>Speed 22.1 km/h Distance 66.20 km</desc>
<time>2011-05-22T12:16:48.85</time>
<name>14013</name>
<sym>Dot</sym>
</trkpt>
<trkpt lat="39.688265" lon="-8.618167">
<ele>262.5</ele>
<desc>Speed 22.1 km/h Distance 66.21 km</desc>
<time>2011-05-22T12:16:49.85</time>
<name>14014</name>
<sym>Dot</sym>
</trkpt>
<trkpt lat="39.688220" lon="-8.618212">
<ele>262.0</ele>
<desc>Speed 22.6 km/h Distance 66.21 km</desc>
<time>2011-05-22T12:16:50.85</time>
<name>14015</name>
<sym>Dot</sym>
</trkpt>
<trkpt lat="39.688173" lon="-8.618257">
<ele>262.0</ele>
<desc>Speed 23.0 km/h Distance 66.22 km</desc>
<time>2011-05-22T12:16:51.85</time>
<name>14016</name>
<sym>Dot</sym>
</trkpt>
<trkpt lat="39.688127" lon="-8.618303">
<ele>262.0</ele>
<desc>Speed 23.8 km/h Distance 66.23 km</desc>
<time>2011-05-22T12:16:52.85</time>
<name>14017</name>
<sym>Dot</sym>
</trkpt>
<trkpt lat="39.688080" lon="-8.618352">
<ele>261.5</ele>
<desc>Speed 24.2 km/h Distance 66.23 km</desc>
<time>2011-05-22T12:16:53.85</time>
<name>14018</name>
<sym>Dot</sym>
</trkpt>
<trkpt lat="39.688032" lon="-8.618403">
<ele>261.5</ele>
<desc>Speed 24.6 km/h Distance 66.24 km</desc>
<time>2011-05-22T12:16:54.85</time>
<name>14019</name>
<sym>Dot</sym>
</trkpt>
<trkpt lat="39.687982" lon="-8.618448">
<ele>261.5</ele>
<desc>Speed 25.0 km/h Distance 66.25 km</desc>
<time>2011-05-22T12:16:55.85</time>
<name>14020</name>
<sym>Dot</sym>
</trkpt>
<trkpt lat="39.687930" lon="-8.618495">
<ele>261.5</ele>
<desc>Speed 25.0 km/h Distance 66.25 km</desc>
<time>2011-05-22T12:16:56.85</time>
<name>14021</name>
<sym>Dot</sym>
</trkpt>
<trkpt lat="39.687878" lon="-8.618537">
<ele>261.5</ele>
<desc>Speed 24.6 km/h Distance 66.26 km</desc>
<time>2011-05-22T12:16:57.85</time>
<name>14022</name>
<sym>Dot</sym>
</trkpt>
<trkpt lat="39.687827" lon="-8.618573">
<ele>261.5</ele>
<desc>Speed 23.8 km/h Distance 66.27 km</desc>
<time>2011-05-22T12:16:58.85</time>
<name>14023</name>
<sym>Dot</sym>
</trkpt>
<trkpt lat="39.687777" lon="-8.618612">
<ele>261.5</ele>
<desc>Speed 22.8 km/h Distance 66.27 km</desc>
<time>2011-05-22T12:16:59.85</time>
<name>14024</name>
<sym>Dot</sym>
</trkpt>
<trkpt lat="39.687730" lon="-8.618650">
<ele>261.5</ele>
<desc>Speed 22.2 km/h Distance 66.28 km</desc>
<time>2011-05-22T12:17:00.85</time>
<name>14025</name>
<sym>Dot</sym>
</trkpt>
<trkpt lat="39.687685" lon="-8.618683">
<ele>262.0</ele>
<desc>Speed 20.9 km/h Distance 66.29 km</desc>
<time>2011-05-22T12:17:01.85</time>
<name>14026</name>
<sym>Dot</sym>
</trkpt>
<trkpt lat="39.687638" lon="-8.618707">
<ele>262.0</ele>
<desc>Speed 19.8 km/h Distance 66.29 km</desc>
<time>2011-05-22T12:17:02.85</time>
<name>14027</name>
<sym>Dot</sym>
</trkpt>
<trkpt lat="39.687595" lon="-8.618723">
<ele>262.0</ele>
<desc>Speed 18.4 km/h Distance 66.30 km</desc>
<time>2011-05-22T12:17:03.85</time>
<name>14028</name>
<sym>Dot</sym>
</trkpt>
<trkpt lat="39.687553" lon="-8.618735">
<ele>261.5</ele>
<desc>Speed 16.8 km/h Distance 66.30 km</desc>
<time>2011-05-22T12:17:04.85</time>
<name>14029</name>
<sym>Dot</sym>
</trkpt>
<trkpt lat="39.687518" lon="-8.618745">
<ele>261.5</ele>
<desc>Speed 14.9 km/h Distance 66.30 km</desc>
<time>2011-05-22T12:17:05.85</time>
<name>14030</name>
<sym>Dot</sym>
</trkpt>
<trkpt lat="39.687485" lon="-8.618750">
<ele>261.5</ele>
<desc>Speed 13.5 km/h Distance 66.31 km</desc>
<time>2011-05-22T12:17:06.85</time>
<name>14031</name>
<sym>Dot</sym>
</trkpt>
<trkpt lat="39.687455" lon="-8.618758">
<ele>261.0</ele>
<desc>Speed 12.2 km/h Distance 66.31 km</desc>
<time>2011-05-22T12:17:07.85</time>
<name>14032</name>
<sym>Dot</sym>
</trkpt>
<trkpt lat="39.687428" lon="-8.618765">
<ele>261.0</ele>
<desc>Speed 11.4 km/h Distance 66.31 km</desc>
<time>2011-05-22T12:17:08.85</time>
<name>14033</name>
<sym>Dot</sym>
</trkpt>
<trkpt lat="39.687403" lon="-8.618772">
<ele>261.0</ele>
<desc>Speed 10.4 km/h Distance 66.32 km</desc>
<time>2011-05-22T12:17:09.85</time>
<name>14034</name>
<sym>Dot</sym>
</trkpt>
<trkpt lat="39.687378" lon="-8.618782">
<ele>261.0</ele>
<desc>Speed 10.5 km/h Distance 66.32 km</desc>
<time>2011-05-22T12:17:10.85</time>
<name>14035</name>
<sym>Dot</sym>
</trkpt>
<trkpt lat="39.687353" lon="-8.618790">
<ele>260.5</ele>
<desc>Speed 10.5 km/h Distance 66.32 km</desc>
<time>2011-05-22T12:17:11.85</time>
<name>14036</name>
<sym>Dot</sym>
</trkpt>
<trkpt lat="39.687330" lon="-8.618803">
<ele>261.0</ele>
<desc>Speed 10.7 km/h Distance 66.33 km</desc>
<time>2011-05-22T12:17:12.85</time>
<name>14037</name>
<sym>Dot</sym>
</trkpt>
<trkpt lat="39.687307" lon="-8.618822">
<ele>260.5</ele>
<desc>Speed 10.4 km/h Distance 66.33 km</desc>
<time>2011-05-22T12:17:13.85</time>
<name>14038</name>
<sym>Dot</sym>
</trkpt>
<trkpt lat="39.687290" lon="-8.618842">
<ele>260.5</ele>
<desc>Speed 9.3 km/h Distance 66.33 km</desc>
<time>2011-05-22T12:17:14.85</time>
<name>14039</name>
<sym>Dot</sym>
</trkpt>
<trkpt lat="39.687277" lon="-8.618863">
<ele>260.5</ele>
<desc>Speed 8.7 km/h Distance 66.33 km</desc>
<time>2011-05-22T12:17:15.85</time>
<name>14040</name>
<sym>Dot</sym>
</trkpt>
<trkpt lat="39.687267" lon="-8.618890">
<ele>261.0</ele>
<desc>Speed 9.0 km/h Distance 66.34 km</desc>
<time>2011-05-22T12:17:16.85</time>
<name>14041</name>
<sym>Dot</sym>
</trkpt>
<trkpt lat="39.687262" lon="-8.618913">
<ele>261.5</ele>
<desc>Speed 7.6 km/h Distance 66.34 km</desc>
<time>2011-05-22T12:17:17.85</time>
<name>14042</name>
<sym>Dot</sym>
</trkpt>
<trkpt lat="39.687255" lon="-8.618937">
<ele>261.5</ele>
<desc>Speed 7.4 km/h Distance 66.34 km</desc>
<time>2011-05-22T12:17:18.85</time>
<name>14043</name>
<sym>Dot</sym>
</trkpt>
<trkpt lat="39.687253" lon="-8.618958">
<ele>262.0</ele>
<desc>Speed 6.7 km/h Distance 66.34 km</desc>
<time>2011-05-22T12:17:19.85</time>
<name>14044</name>
<sym>Dot</sym>
</trkpt>
<trkpt lat="39.687252" lon="-8.618978">
<ele>262.0</ele>
<desc>Speed 6.2 km/h Distance 66.34 km</desc>
<time>2011-05-22T12:17:20.85</time>
<name>14045</name>
<sym>Dot</sym>
</trkpt>
<trkpt lat="39.687252" lon="-8.618997">
<ele>262.5</ele>
<desc>Speed 5.8 km/h Distance 66.35 km</desc>
<time>2011-05-22T12:17:21.85</time>
<name>14046</name>
<sym>Dot</sym>
</trkpt>
<trkpt lat="39.687252" lon="-8.619018">
<ele>262.5</ele>
<desc>Speed 6.2 km/h Distance 66.35 km</desc>
<time>2011-05-22T12:17:22.85</time>
<name>14047</name>
<sym>Dot</sym>
</trkpt>
<trkpt lat="39.687252" lon="-8.619040">
<ele>262.5</ele>
<desc>Speed 6.4 km/h Distance 66.35 km</desc>
<time>2011-05-22T12:17:23.85</time>
<name>14048</name>
<sym>Dot</sym>
</trkpt>
<trkpt lat="39.687252" lon="-8.619060">
<ele>262.5</ele>
<desc>Speed 6.4 km/h Distance 66.35 km</desc>
<time>2011-05-22T12:17:24.85</time>
<name>14049</name>
<sym>Dot</sym>
</trkpt>
<trkpt lat="39.687252" lon="-8.619082">
<ele>262.5</ele>
<desc>Speed 6.3 km/h Distance 66.35 km</desc>
<time>2011-05-22T12:17:25.85</time>
<name>14050</name>
<sym>Dot</sym>
</trkpt>
<trkpt lat="39.687253" lon="-8.619100">
<ele>263.0</ele>
<desc>Speed 5.8 km/h Distance 66.35 km</desc>
<time>2011-05-22T12:17:26.85</time>
<name>14051</name>
<sym>Dot</sym>
</trkpt>
<trkpt lat="39.687257" lon="-8.619115">
<ele>264.5</ele>
<desc>Speed 4.8 km/h Distance 66.36 km</desc>
<time>2011-05-22T12:17:27.85</time>
<name>14052</name>
<sym>Dot</sym>
</trkpt>
<trkpt lat="39.687255" lon="-8.619138">
<ele>264.0</ele>
<desc>Speed 7.0 km/h Distance 66.36 km</desc>
<time>2011-05-22T12:17:28.85</time>
<name>14053</name>
<sym>Dot</sym>
</trkpt>
<trkpt lat="39.687258" lon="-8.619155">
<ele>265.5</ele>
<desc>Speed 4.9 km/h Distance 66.36 km</desc>
<time>2011-05-22T12:17:29.85</time>
<name>14054</name>
<sym>Dot</sym>
</trkpt>
<trkpt lat="39.687260" lon="-8.619178">
<ele>265.5</ele>
<desc>Speed 6.7 km/h Distance 66.36 km</desc>
<time>2011-05-22T12:17:30.85</time>
<name>14055</name>
<sym>Dot</sym>
</trkpt>
<trkpt lat="39.687262" lon="-8.619200">
<ele>265.5</ele>
<desc>Speed 6.6 km/h Distance 66.36 km</desc>
<time>2011-05-22T12:17:31.85</time>
<name>14056</name>
<sym>Dot</sym>
</trkpt>
<trkpt lat="39.687262" lon="-8.619223">
<ele>265.0</ele>
<desc>Speed 6.8 km/h Distance 66.37 km</desc>
<time>2011-05-22T12:17:32.85</time>
<name>14057</name>
<sym>Dot</sym>
</trkpt>
<trkpt lat="39.687263" lon="-8.619247">
<ele>265.5</ele>
<desc>Speed 6.8 km/h Distance 66.37 km</desc>
<time>2011-05-22T12:17:33.85</time>
<name>14058</name>
<sym>Dot</sym>
</trkpt>
<trkpt lat="39.687265" lon="-8.619270">
<ele>265.0</ele>
<desc>Speed 6.8 km/h Distance 66.37 km</desc>
<time>2011-05-22T12:17:34.85</time>
<name>14059</name>
<sym>Dot</sym>
</trkpt>
<trkpt lat="39.687267" lon="-8.619290">
<ele>265.0</ele>
<desc>Speed 6.2 km/h Distance 66.37 km</desc>
<time>2011-05-22T12:17:35.85</time>
<name>14060</name>
<sym>Dot</sym>
</trkpt>
<trkpt lat="39.687268" lon="-8.619315">
<ele>264.5</ele>
<desc>Speed 7.3 km/h Distance 66.37 km</desc>
<time>2011-05-22T12:17:36.85</time>
<name>14061</name>
<sym>Dot</sym>
</trkpt>
<trkpt lat="39.687270" lon="-8.619340">
<ele>264.5</ele>
<desc>Speed 7.6 km/h Distance 66.38 km</desc>
<time>2011-05-22T12:17:37.85</time>
<name>14062</name>
<sym>Dot</sym>
</trkpt>
<trkpt lat="39.687273" lon="-8.619368">
<ele>264.5</ele>
<desc>Speed 8.6 km/h Distance 66.38 km</desc>
<time>2011-05-22T12:17:38.85</time>
<name>14063</name>
<sym>Dot</sym>
</trkpt>
<trkpt lat="39.687282" lon="-8.619393">
<ele>264.0</ele>
<desc>Speed 8.1 km/h Distance 66.38 km</desc>
<time>2011-05-22T12:17:39.85</time>
<name>14064</name>
<sym>Dot</sym>
</trkpt>
<trkpt lat="39.687285" lon="-8.619418">
<ele>264.5</ele>
<desc>Speed 8.1 km/h Distance 66.38 km</desc>
<time>2011-05-22T12:17:40.85</time>
<name>14065</name>
<sym>Dot</sym>
</trkpt>
<trkpt lat="39.687288" lon="-8.619445">
<ele>265.0</ele>
<desc>Speed 8.0 km/h Distance 66.38 km</desc>
<time>2011-05-22T12:17:41.85</time>
<name>14066</name>
<sym>Dot</sym>
</trkpt>
<trkpt lat="39.687288" lon="-8.619467">
<ele>266.0</ele>
<desc>Speed 7.1 km/h Distance 66.39 km</desc>
<time>2011-05-22T12:17:42.85</time>
<name>14067</name>
<sym>Dot</sym>
</trkpt>
<trkpt lat="39.687292" lon="-8.619488">
<ele>266.5</ele>
<desc>Speed 6.7 km/h Distance 66.39 km</desc>
<time>2011-05-22T12:17:43.85</time>
<name>14068</name>
<sym>Dot</sym>
</trkpt>
<trkpt lat="39.687297" lon="-8.619508">
<ele>267.5</ele>
<desc>Speed 6.6 km/h Distance 66.39 km</desc>
<time>2011-05-22T12:17:44.85</time>
<name>14069</name>
<sym>Dot</sym>
</trkpt>
<trkpt lat="39.687302" lon="-8.619530">
<ele>267.5</ele>
<desc>Speed 6.8 km/h Distance 66.39 km</desc>
<time>2011-05-22T12:17:45.85</time>
<name>14070</name>
<sym>Dot</sym>
</trkpt>
<trkpt lat="39.687305" lon="-8.619553">
<ele>267.5</ele>
<desc>Speed 7.2 km/h Distance 66.39 km</desc>
<time>2011-05-22T12:17:46.85</time>
<name>14071</name>
<sym>Dot</sym>
</trkpt>
<trkpt lat="39.687308" lon="-8.619577">
<ele>267.5</ele>
<desc>Speed 6.7 km/h Distance 66.40 km</desc>
<time>2011-05-22T12:17:47.85</time>
<name>14072</name>
<sym>Dot</sym>
</trkpt>
<trkpt lat="39.687310" lon="-8.619600">
<ele>267.5</ele>
<desc>Speed 6.7 km/h Distance 66.40 km</desc>
<time>2011-05-22T12:17:48.85</time>
<name>14073</name>
<sym>Dot</sym>
</trkpt>
<trkpt lat="39.687313" lon="-8.619622">
<ele>268.0</ele>
<desc>Speed 6.8 km/h Distance 66.40 km</desc>
<time>2011-05-22T12:17:49.85</time>
<name>14074</name>
<sym>Dot</sym>
</trkpt>
<trkpt lat="39.687318" lon="-8.619643">
<ele>268.0</ele>
<desc>Speed 6.6 km/h Distance 66.40 km</desc>
<time>2011-05-22T12:17:50.85</time>
<name>14075</name>
<sym>Dot</sym>
</trkpt>
<trkpt lat="39.687323" lon="-8.619663">
<ele>268.5</ele>
<desc>Speed 6.4 km/h Distance 66.40 km</desc>
<time>2011-05-22T12:17:51.85</time>
<name>14076</name>
<sym>Dot</sym>
</trkpt>
<trkpt lat="39.687328" lon="-8.619687">
<ele>268.0</ele>
<desc>Speed 7.4 km/h Distance 66.41 km</desc>
<time>2011-05-22T12:17:52.85</time>
<name>14077</name>
<sym>Dot</sym>
</trkpt>
<trkpt lat="39.687333" lon="-8.619708">
<ele>268.0</ele>
<desc>Speed 6.9 km/h Distance 66.41 km</desc>
<time>2011-05-22T12:17:53.85</time>
<name>14078</name>
<sym>Dot</sym>
</trkpt>
<trkpt lat="39.687337" lon="-8.619727">
<ele>269.5</ele>
<desc>Speed 5.3 km/h Distance 66.41 km</desc>
<time>2011-05-22T12:17:54.85</time>
<name>14079</name>
<sym>Dot</sym>
</trkpt>
<trkpt lat="39.687342" lon="-8.619750">
<ele>269.5</ele>
<desc>Speed 7.2 km/h Distance 66.41 km</desc>
<time>2011-05-22T12:17:55.85</time>
<name>14080</name>
<sym>Dot</sym>
</trkpt>
<trkpt lat="39.687343" lon="-8.619772">
<ele>270.0</ele>
<desc>Speed 6.9 km/h Distance 66.41 km</desc>
<time>2011-05-22T12:17:56.85</time>
<name>14081</name>
<sym>Dot</sym>
</trkpt>
<trkpt lat="39.687347" lon="-8.619792">
<ele>270.5</ele>
<desc>Speed 6.3 km/h Distance 66.42 km</desc>
<time>2011-05-22T12:17:57.85</time>
<name>14082</name>
<sym>Dot</sym>
</trkpt>
<trkpt lat="39.687350" lon="-8.619813">
<ele>270.5</ele>
<desc>Speed 6.7 km/h Distance 66.42 km</desc>
<time>2011-05-22T12:17:58.85</time>
<name>14083</name>
<sym>Dot</sym>
</trkpt>
<trkpt lat="39.687355" lon="-8.619835">
<ele>270.5</ele>
<desc>Speed 6.8 km/h Distance 66.42 km</desc>
<time>2011-05-22T12:17:59.85</time>
<name>14084</name>
<sym>Dot</sym>
</trkpt>
<trkpt lat="39.687357" lon="-8.619853">
<ele>272.0</ele>
<desc>Speed 5.4 km/h Distance 66.42 km</desc>
<time>2011-05-22T12:18:00.85</time>
<name>14085</name>
<sym>Dot</sym>
</trkpt>
<trkpt lat="39.687358" lon="-8.619870">
<ele>273.5</ele>
<desc>Speed 5.5 km/h Distance 66.42 km</desc>
<time>2011-05-22T12:18:01.85</time>
<name>14086</name>
<sym>Dot</sym>
</trkpt>
<trkpt lat="39.687360" lon="-8.619892">
<ele>274.5</ele>
<desc>Speed 6.4 km/h Distance 66.42 km</desc>
<time>2011-05-22T12:18:02.85</time>
<name>14087</name>
<sym>Dot</sym>
</trkpt>
<trkpt lat="39.687362" lon="-8.619917">
<ele>274.5</ele>
<desc>Speed 7.2 km/h Distance 66.43 km</desc>
<time>2011-05-22T12:18:03.85</time>
<name>14088</name>
<sym>Dot</sym>
</trkpt>
<trkpt lat="39.687365" lon="-8.619942">
<ele>275.0</ele>
<desc>Speed 7.6 km/h Distance 66.43 km</desc>
<time>2011-05-22T12:18:04.85</time>
<name>14089</name>
<sym>Dot</sym>
</trkpt>
<trkpt lat="39.687368" lon="-8.619962">
<ele>275.0</ele>
<desc>Speed 6.3 km/h Distance 66.43 km</desc>
<time>2011-05-22T12:18:05.85</time>
<name>14090</name>
<sym>Dot</sym>
</trkpt>
<trkpt lat="39.687372" lon="-8.619983">
<ele>275.5</ele>
<desc>Speed 6.7 km/h Distance 66.43 km</desc>
<time>2011-05-22T12:18:06.85</time>
<name>14091</name>
<sym>Dot</sym>
</trkpt>
<trkpt lat="39.687375" lon="-8.620007">
<ele>275.5</ele>
<desc>Speed 7.1 km/h Distance 66.43 km</desc>
<time>2011-05-22T12:18:07.85</time>
<name>14092</name>
<sym>Dot</sym>
</trkpt>
<trkpt lat="39.687377" lon="-8.620027">
<ele>276.5</ele>
<desc>Speed 5.9 km/h Distance 66.44 km</desc>
<time>2011-05-22T12:18:08.85</time>
<name>14093</name>
<sym>Dot</sym>
</trkpt>
<trkpt lat="39.687378" lon="-8.620048">
<ele>277.0</ele>
<desc>Speed 6.6 km/h Distance 66.44 km</desc>
<time>2011-05-22T12:18:09.85</time>
<name>14094</name>
<sym>Dot</sym>
</trkpt>
<trkpt lat="39.687382" lon="-8.620072">
<ele>277.0</ele>
<desc>Speed 6.6 km/h Distance 66.44 km</desc>
<time>2011-05-22T12:18:10.85</time>
<name>14095</name>
<sym>Dot</sym>
</trkpt>
<trkpt lat="39.687383" lon="-8.620095">
<ele>277.0</ele>
<desc>Speed 7.1 km/h Distance 66.44 km</desc>
<time>2011-05-22T12:18:11.85</time>
<name>14096</name>
<sym>Dot</sym>
</trkpt>
<trkpt lat="39.687385" lon="-8.620122">
<ele>277.0</ele>
<desc>Speed 7.3 km/h Distance 66.44 km</desc>
<time>2011-05-22T12:18:12.85</time>
<name>14097</name>
<sym>Dot</sym>
</trkpt>
<trkpt lat="39.687387" lon="-8.620148">
<ele>277.0</ele>
<desc>Speed 7.8 km/h Distance 66.45 km</desc>
<time>2011-05-22T12:18:13.85</time>
<name>14098</name>
<sym>Dot</sym>
</trkpt>
<trkpt lat="39.687388" lon="-8.620175">
<ele>277.5</ele>
<desc>Speed 7.8 km/h Distance 66.45 km</desc>
<time>2011-05-22T12:18:14.85</time>
<name>14099</name>
<sym>Dot</sym>
</trkpt>
<trkpt lat="39.687393" lon="-8.620202">
<ele>277.0</ele>
<desc>Speed 7.6 km/h Distance 66.45 km</desc>
<time>2011-05-22T12:18:15.85</time>
<name>14100</name>
<sym>Dot</sym>
</trkpt>
<trkpt lat="39.687393" lon="-8.620223">
<ele>277.5</ele>
<desc>Speed 6.7 km/h Distance 66.45 km</desc>
<time>2011-05-22T12:18:16.85</time>
<name>14101</name>
<sym>Dot</sym>
</trkpt>
<trkpt lat="39.687392" lon="-8.620248">
<ele>277.5</ele>
<desc>Speed 6.8 km/h Distance 66.46 km</desc>
<time>2011-05-22T12:18:17.85</time>
<name>14102</name>
<sym>Dot</sym>
</trkpt>
<trkpt lat="39.687393" lon="-8.620273">
<ele>277.5</ele>
<desc>Speed 7.0 km/h Distance 66.46 km</desc>
<time>2011-05-22T12:18:18.85</time>
<name>14103</name>
<sym>Dot</sym>
</trkpt>
<trkpt lat="39.687395" lon="-8.620298">
<ele>277.0</ele>
<desc>Speed 6.8 km/h Distance 66.46 km</desc>
<time>2011-05-22T12:18:19.85</time>
<name>14104</name>
<sym>Dot</sym>
</trkpt>
<trkpt lat="39.687395" lon="-8.620320">
<ele>277.5</ele>
<desc>Speed 6.6 km/h Distance 66.46 km</desc>
<time>2011-05-22T12:18:20.85</time>
<name>14105</name>
<sym>Dot</sym>
</trkpt>
<trkpt lat="39.687397" lon="-8.620345">
<ele>277.5</ele>
<desc>Speed 7.0 km/h Distance 66.46 km</desc>
<time>2011-05-22T12:18:21.85</time>
<name>14106</name>
<sym>Dot</sym>
</trkpt>
<trkpt lat="39.687397" lon="-8.620368">
<ele>278.0</ele>
<desc>Speed 7.1 km/h Distance 66.47 km</desc>
<time>2011-05-22T12:18:22.85</time>
<name>14107</name>
<sym>Dot</sym>
</trkpt>
<trkpt lat="39.687400" lon="-8.620392">
<ele>278.5</ele>
<desc>Speed 6.7 km/h Distance 66.47 km</desc>
<time>2011-05-22T12:18:23.85</time>
<name>14108</name>
<sym>Dot</sym>
</trkpt>
<trkpt lat="39.687402" lon="-8.620415">
<ele>278.5</ele>
<desc>Speed 7.5 km/h Distance 66.47 km</desc>
<time>2011-05-22T12:18:24.85</time>
<name>14109</name>
<sym>Dot</sym>
</trkpt>
<trkpt lat="39.687403" lon="-8.620437">
<ele>279.5</ele>
<desc>Speed 6.6 km/h Distance 66.47 km</desc>
<time>2011-05-22T12:18:25.85</time>
<name>14110</name>
<sym>Dot</sym>
</trkpt>
<trkpt lat="39.687403" lon="-8.620462">
<ele>279.5</ele>
<desc>Speed 7.2 km/h Distance 66.47 km</desc>
<time>2011-05-22T12:18:26.85</time>
<name>14111</name>
<sym>Dot</sym>
</trkpt>
<trkpt lat="39.687403" lon="-8.620487">
<ele>279.5</ele>
<desc>Speed 7.2 km/h Distance 66.48 km</desc>
<time>2011-05-22T12:18:27.85</time>
<name>14112</name>
<sym>Dot</sym>
</trkpt>
<trkpt lat="39.687403" lon="-8.620510">
<ele>279.5</ele>
<desc>Speed 6.8 km/h Distance 66.48 km</desc>
<time>2011-05-22T12:18:28.85</time>
<name>14113</name>
<sym>Dot</sym>
</trkpt>
<trkpt lat="39.687400" lon="-8.620530">
<ele>280.5</ele>
<desc>Speed 5.4 km/h Distance 66.48 km</desc>
<time>2011-05-22T12:18:29.85</time>
<name>14114</name>
<sym>Dot</sym>
</trkpt>
<trkpt lat="39.687402" lon="-8.620548">
<ele>281.5</ele>
<desc>Speed 5.5 km/h Distance 66.48 km</desc>
<time>2011-05-22T12:18:30.85</time>
<name>14115</name>
<sym>Dot</sym>
</trkpt>
<trkpt lat="39.687402" lon="-8.620565">
<ele>283.0</ele>
<desc>Speed 4.9 km/h Distance 66.48 km</desc>
<time>2011-05-22T12:18:31.85</time>
<name>14116</name>
<sym>Dot</sym>
</trkpt>
<trkpt lat="39.687405" lon="-8.620588">
<ele>283.0</ele>
<desc>Speed 6.9 km/h Distance 66.48 km</desc>
<time>2011-05-22T12:18:32.85</time>
<name>14117</name>
<sym>Dot</sym>
</trkpt>
<trkpt lat="39.687407" lon="-8.620613">
<ele>283.5</ele>
<desc>Speed 7.3 km/h Distance 66.49 km</desc>
<time>2011-05-22T12:18:33.85</time>
<name>14118</name>
<sym>Dot</sym>
</trkpt>
<trkpt lat="39.687408" lon="-8.620635">
<ele>284.0</ele>
<desc>Speed 6.8 km/h Distance 66.49 km</desc>
<time>2011-05-22T12:18:34.85</time>
<name>14119</name>
<sym>Dot</sym>
</trkpt>
<trkpt lat="39.687410" lon="-8.620653">
<ele>285.5</ele>
<desc>Speed 5.0 km/h Distance 66.49 km</desc>
<time>2011-05-22T12:18:35.85</time>
<name>14120</name>
<sym>Dot</sym>
</trkpt>
<trkpt lat="39.687412" lon="-8.620670">
<ele>287.0</ele>
<desc>Speed 4.5 km/h Distance 66.49 km</desc>
<time>2011-05-22T12:18:36.85</time>
<name>14121</name>
<sym>Dot</sym>
</trkpt>
<trkpt lat="39.687412" lon="-8.620690">
<ele>287.5</ele>
<desc>Speed 5.6 km/h Distance 66.49 km</desc>
<time>2011-05-22T12:18:37.85</time>
<name>14122</name>
<sym>Dot</sym>
</trkpt>
<trkpt lat="39.687413" lon="-8.620698">
<ele>289.0</ele>
<desc>Speed 2.8 km/h Distance 66.49 km</desc>
<time>2011-05-22T12:18:38.85</time>
<name>14123</name>
<sym>Dot</sym>
</trkpt>
<trkpt lat="39.687413" lon="-8.620723">
<ele>289.0</ele>
<desc>Speed 7.0 km/h Distance 66.50 km</desc>
<time>2011-05-22T12:18:39.85</time>
<name>14124</name>
<sym>Dot</sym>
</trkpt>
<trkpt lat="39.687413" lon="-8.620748">
<ele>288.5</ele>
<desc>Speed 7.3 km/h Distance 66.50 km</desc>
<time>2011-05-22T12:18:40.85</time>
<name>14125</name>
<sym>Dot</sym>
</trkpt>
<trkpt lat="39.687415" lon="-8.620773">
<ele>288.5</ele>
<desc>Speed 7.2 km/h Distance 66.50 km</desc>
<time>2011-05-22T12:18:41.85</time>
<name>14126</name>
<sym>Dot</sym>
</trkpt>
<trkpt lat="39.687415" lon="-8.620800">
<ele>288.5</ele>
<desc>Speed 7.7 km/h Distance 66.50 km</desc>
<time>2011-05-22T12:18:42.85</time>
<name>14127</name>
<sym>Dot</sym>
</trkpt>
<trkpt lat="39.687418" lon="-8.620822">
<ele>288.5</ele>
<desc>Speed 6.7 km/h Distance 66.50 km</desc>
<time>2011-05-22T12:18:43.85</time>
<name>14128</name>
<sym>Dot</sym>
</trkpt>
<trkpt lat="39.687420" lon="-8.620840">
<ele>289.0</ele>
<desc>Speed 5.6 km/h Distance 66.51 km</desc>
<time>2011-05-22T12:18:44.85</time>
<name>14129</name>
<sym>Dot</sym>
</trkpt>
<trkpt lat="39.687423" lon="-8.620862">
<ele>289.5</ele>
<desc>Speed 6.7 km/h Distance 66.51 km</desc>
<time>2011-05-22T12:18:45.85</time>
<name>14130</name>
<sym>Dot</sym>
</trkpt>
<trkpt lat="39.687423" lon="-8.620890">
<ele>289.0</ele>
<desc>Speed 8.2 km/h Distance 66.51 km</desc>
<time>2011-05-22T12:18:46.85</time>
<name>14131</name>
<sym>Dot</sym>
</trkpt>
<trkpt lat="39.687425" lon="-8.620912">
<ele>289.0</ele>
<desc>Speed 6.4 km/h Distance 66.51 km</desc>
<time>2011-05-22T12:18:47.85</time>
<name>14132</name>
<sym>Dot</sym>
</trkpt>
<trkpt lat="39.687425" lon="-8.620933">
<ele>289.5</ele>
<desc>Speed 5.3 km/h Distance 66.51 km</desc>
<time>2011-05-22T12:18:48.85</time>
<name>14133</name>
<sym>Dot</sym>
</trkpt>
<trkpt lat="39.687427" lon="-8.620955">
<ele>289.0</ele>
<desc>Speed 6.4 km/h Distance 66.52 km</desc>
<time>2011-05-22T12:18:49.85</time>
<name>14134</name>
<sym>Dot</sym>
</trkpt>
<trkpt lat="39.687428" lon="-8.620968">
<ele>290.5</ele>
<desc>Speed 3.6 km/h Distance 66.52 km</desc>
<time>2011-05-22T12:18:50.85</time>
<name>14135</name>
<sym>Dot</sym>
</trkpt>
<trkpt lat="39.687430" lon="-8.620988">
<ele>290.5</ele>
<desc>Speed 5.4 km/h Distance 66.52 km</desc>
<time>2011-05-22T12:18:51.85</time>
<name>14136</name>
<sym>Dot</sym>
</trkpt>
<trkpt lat="39.687430" lon="-8.621010">
<ele>290.5</ele>
<desc>Speed 6.3 km/h Distance 66.52 km</desc>
<time>2011-05-22T12:18:52.85</time>
<name>14137</name>
<sym>Dot</sym>
</trkpt>
<trkpt lat="39.687427" lon="-8.621028">
<ele>291.0</ele>
<desc>Speed 5.4 km/h Distance 66.52 km</desc>
<time>2011-05-22T12:18:53.85</time>
<name>14138</name>
<sym>Dot</sym>
</trkpt>
<trkpt lat="39.687428" lon="-8.621035">
<ele>292.0</ele>
<desc>Speed 1.3 km/h Distance 66.52 km</desc>
<time>2011-05-22T12:18:54.85</time>
<name>14139</name>
<sym>Dot</sym>
</trkpt>
<trkpt lat="39.687425" lon="-8.621050">
<ele>291.5</ele>
<desc>Speed 3.7 km/h Distance 66.52 km</desc>
<time>2011-05-22T12:18:55.85</time>
<name>14140</name>
<sym>Dot</sym>
</trkpt>
<trkpt lat="39.687422" lon="-8.621065">
<ele>292.0</ele>
<desc>Speed 4.2 km/h Distance 66.53 km</desc>
<time>2011-05-22T12:18:56.85</time>
<name>14141</name>
<sym>Dot</sym>
</trkpt>
<trkpt lat="39.687415" lon="-8.621087">
<ele>291.5</ele>
<desc>Speed 7.4 km/h Distance 66.53 km</desc>
<time>2011-05-22T12:18:57.85</time>
<name>14142</name>
<sym>Dot</sym>
</trkpt>
<trkpt lat="39.687408" lon="-8.621113">
<ele>291.0</ele>
<desc>Speed 8.1 km/h Distance 66.53 km</desc>
<time>2011-05-22T12:18:58.85</time>
<name>14143</name>
<sym>Dot</sym>
</trkpt>
<trkpt lat="39.687398" lon="-8.621143">
<ele>291.0</ele>
<desc>Speed 9.0 km/h Distance 66.53 km</desc>
<time>2011-05-22T12:18:59.85</time>
<name>14144</name>
<sym>Dot</sym>
</trkpt>
<trkpt lat="39.687387" lon="-8.621178">
<ele>291.0</ele>
<desc>Speed 10.5 km/h Distance 66.54 km</desc>
<time>2011-05-22T12:19:00.85</time>
<name>14145</name>
<sym>Dot</sym>
</trkpt>
<trkpt lat="39.687373" lon="-8.621218">
<ele>291.0</ele>
<desc>Speed 12.7 km/h Distance 66.54 km</desc>
<time>2011-05-22T12:19:01.85</time>
<name>14146</name>
<sym>Dot</sym>
</trkpt>
<trkpt lat="39.687355" lon="-8.621268">
<ele>290.5</ele>
<desc>Speed 16.3 km/h Distance 66.54 km</desc>
<time>2011-05-22T12:19:02.85</time>
<name>14147</name>
<sym>Dot</sym>
</trkpt>
<trkpt lat="39.687335" lon="-8.621328">
<ele>290.0</ele>
<desc>Speed 19.2 km/h Distance 66.55 km</desc>
<time>2011-05-22T12:19:03.85</time>
<name>14148</name>
<sym>Dot</sym>
</trkpt>
<trkpt lat="39.687310" lon="-8.621393">
<ele>289.0</ele>
<desc>Speed 21.5 km/h Distance 66.56 km</desc>
<time>2011-05-22T12:19:04.85</time>
<name>14149</name>
<sym>Dot</sym>
</trkpt>
<trkpt lat="39.687285" lon="-8.621463">
<ele>288.0</ele>
<desc>Speed 23.0 km/h Distance 66.56 km</desc>
<time>2011-05-22T12:19:05.85</time>
<name>14150</name>
<sym>Dot</sym>
</trkpt>
<trkpt lat="39.687260" lon="-8.621540">
<ele>287.0</ele>
<desc>Speed 24.6 km/h Distance 66.57 km</desc>
<time>2011-05-22T12:19:06.85</time>
<name>14151</name>
<sym>Dot</sym>
</trkpt>
<trkpt lat="39.687235" lon="-8.621618">
<ele>286.0</ele>
<desc>Speed 25.2 km/h Distance 66.58 km</desc>
<time>2011-05-22T12:19:07.85</time>
<name>14152</name>
<sym>Dot</sym>
</trkpt>
<trkpt lat="39.687212" lon="-8.621693">
<ele>285.5</ele>
<desc>Speed 24.6 km/h Distance 66.58 km</desc>
<time>2011-05-22T12:19:08.85</time>
<name>14153</name>
<sym>Dot</sym>
</trkpt>
<trkpt lat="39.687185" lon="-8.621777">
<ele>284.0</ele>
<desc>Speed 26.2 km/h Distance 66.59 km</desc>
<time>2011-05-22T12:19:09.85</time>
<name>14154</name>
<sym>Dot</sym>
</trkpt>
<trkpt lat="39.687155" lon="-8.621862">
<ele>283.0</ele>
<desc>Speed 27.4 km/h Distance 66.60 km</desc>
<time>2011-05-22T12:19:10.85</time>
<name>14155</name>
<sym>Dot</sym>
</trkpt>
<trkpt lat="39.687128" lon="-8.621948">
<ele>282.5</ele>
<desc>Speed 28.2 km/h Distance 66.61 km</desc>
<time>2011-05-22T12:19:11.85</time>
<name>14156</name>
<sym>Dot</sym>
</trkpt>
<trkpt lat="39.687103" lon="-8.622027">
<ele>283.5</ele>
<desc>Speed 28.6 km/h Distance 66.62 km</desc>
<time>2011-05-22T12:19:12.85</time>
<name>14157</name>
<sym>Dot</sym>
</trkpt>
<trkpt lat="39.687072" lon="-8.622110">
<ele>283.5</ele>
<desc>Speed 28.2 km/h Distance 66.62 km</desc>
<time>2011-05-22T12:19:13.85</time>
<name>14158</name>
<sym>Dot</sym>
</trkpt>
<trkpt lat="39.687045" lon="-8.622193">
<ele>283.5</ele>
<desc>Speed 27.3 km/h Distance 66.63 km</desc>
<time>2011-05-22T12:19:14.85</time>
<name>14159</name>
<sym>Dot</sym>
</trkpt>
<trkpt lat="39.687020" lon="-8.622273">
<ele>283.5</ele>
<desc>Speed 26.2 km/h Distance 66.64 km</desc>
<time>2011-05-22T12:19:15.85</time>
<name>14160</name>
<sym>Dot</sym>
</trkpt>
<trkpt lat="39.686998" lon="-8.622352">
<ele>283.0</ele>
<desc>Speed 25.2 km/h Distance 66.65 km</desc>
<time>2011-05-22T12:19:16.85</time>
<name>14161</name>
<sym>Dot</sym>
</trkpt>
<trkpt lat="39.686975" lon="-8.622428">
<ele>283.0</ele>
<desc>Speed 24.1 km/h Distance 66.65 km</desc>
<time>2011-05-22T12:19:17.85</time>
<name>14162</name>
<sym>Dot</sym>
</trkpt>
<trkpt lat="39.686953" lon="-8.622502">
<ele>282.5</ele>
<desc>Speed 23.5 km/h Distance 66.66 km</desc>
<time>2011-05-22T12:19:18.85</time>
<name>14163</name>
<sym>Dot</sym>
</trkpt>
<trkpt lat="39.686932" lon="-8.622575">
<ele>282.0</ele>
<desc>Speed 22.5 km/h Distance 66.67 km</desc>
<time>2011-05-22T12:19:19.85</time>
<name>14164</name>
<sym>Dot</sym>
</trkpt>
<trkpt lat="39.686910" lon="-8.622647">
<ele>281.5</ele>
<desc>Speed 21.9 km/h Distance 66.67 km</desc>
<time>2011-05-22T12:19:20.85</time>
<name>14165</name>
<sym>Dot</sym>
</trkpt>
<trkpt lat="39.686888" lon="-8.622717">
<ele>281.0</ele>
<desc>Speed 21.2 km/h Distance 66.68 km</desc>
<time>2011-05-22T12:19:21.85</time>
<name>14166</name>
<sym>Dot</sym>
</trkpt>
<trkpt lat="39.686865" lon="-8.622785">
<ele>280.0</ele>
<desc>Speed 20.7 km/h Distance 66.69 km</desc>
<time>2011-05-22T12:19:22.85</time>
<name>14167</name>
<sym>Dot</sym>
</trkpt>
<trkpt lat="39.686842" lon="-8.622850">
<ele>279.0</ele>
<desc>Speed 19.8 km/h Distance 66.69 km</desc>
<time>2011-05-22T12:19:23.85</time>
<name>14168</name>
<sym>Dot</sym>
</trkpt>
<trkpt lat="39.686820" lon="-8.622908">
<ele>279.0</ele>
<desc>Speed 19.4 km/h Distance 66.70 km</desc>
<time>2011-05-22T12:19:24.85</time>
<name>14169</name>
<sym>Dot</sym>
</trkpt>
<trkpt lat="39.686798" lon="-8.622963">
<ele>279.0</ele>
<desc>Speed 18.9 km/h Distance 66.70 km</desc>
<time>2011-05-22T12:19:25.85</time>
<name>14170</name>
<sym>Dot</sym>
</trkpt>
<trkpt lat="39.686777" lon="-8.623015">
<ele>279.0</ele>
<desc>Speed 18.1 km/h Distance 66.71 km</desc>
<time>2011-05-22T12:19:26.85</time>
<name>14171</name>
<sym>Dot</sym>
</trkpt>
<trkpt lat="39.686753" lon="-8.623065">
<ele>278.5</ele>
<desc>Speed 17.8 km/h Distance 66.71 km</desc>
<time>2011-05-22T12:19:27.85</time>
<name>14172</name>
<sym>Dot</sym>
</trkpt>
<trkpt lat="39.686732" lon="-8.623115">
<ele>278.5</ele>
<desc>Speed 17.4 km/h Distance 66.72 km</desc>
<time>2011-05-22T12:19:28.85</time>
<name>14173</name>
<sym>Dot</sym>
</trkpt>
<trkpt lat="39.686712" lon="-8.623163">
<ele>278.5</ele>
<desc>Speed 16.4 km/h Distance 66.72 km</desc>
<time>2011-05-22T12:19:29.85</time>
<name>14174</name>
<sym>Dot</sym>
</trkpt>
<trkpt lat="39.686690" lon="-8.623212">
<ele>277.5</ele>
<desc>Speed 17.1 km/h Distance 66.73 km</desc>
<time>2011-05-22T12:19:30.85</time>
<name>14175</name>
<sym>Dot</sym>
</trkpt>
<trkpt lat="39.686667" lon="-8.623258">
<ele>277.5</ele>
<desc>Speed 16.9 km/h Distance 66.73 km</desc>
<time>2011-05-22T12:19:31.85</time>
<name>14176</name>
<sym>Dot</sym>
</trkpt>
<trkpt lat="39.686645" lon="-8.623305">
<ele>277.0</ele>
<desc>Speed 16.6 km/h Distance 66.74 km</desc>
<time>2011-05-22T12:19:32.85</time>
<name>14177</name>
<sym>Dot</sym>
</trkpt>
<trkpt lat="39.686622" lon="-8.623335">
<ele>277.0</ele>
<desc>Speed 12.9 km/h Distance 66.74 km</desc>
<time>2011-05-22T12:19:33.85</time>
<name>14178</name>
<sym>Dot</sym>
</trkpt>
<trkpt lat="39.686598" lon="-8.623373">
<ele>277.5</ele>
<desc>Speed 15.1 km/h Distance 66.74 km</desc>
<time>2011-05-22T12:19:34.85</time>
<name>14179</name>
<sym>Dot</sym>
</trkpt>
<trkpt lat="39.686577" lon="-8.623423">
<ele>277.0</ele>
<desc>Speed 17.2 km/h Distance 66.75 km</desc>
<time>2011-05-22T12:19:35.85</time>
<name>14180</name>
<sym>Dot</sym>
</trkpt>
<trkpt lat="39.686553" lon="-8.623475">
<ele>276.5</ele>
<desc>Speed 17.9 km/h Distance 66.75 km</desc>
<time>2011-05-22T12:19:36.85</time>
<name>14181</name>
<sym>Dot</sym>
</trkpt>
<trkpt lat="39.686528" lon="-8.623527">
<ele>276.5</ele>
<desc>Speed 18.8 km/h Distance 66.76 km</desc>
<time>2011-05-22T12:19:37.85</time>
<name>14182</name>
<sym>Dot</sym>
</trkpt>
<trkpt lat="39.686502" lon="-8.623583">
<ele>276.5</ele>
<desc>Speed 19.7 km/h Distance 66.77 km</desc>
<time>2011-05-22T12:19:38.85</time>
<name>14183</name>
<sym>Dot</sym>
</trkpt>
<trkpt lat="39.686478" lon="-8.623642">
<ele>276.0</ele>
<desc>Speed 20.4 km/h Distance 66.77 km</desc>
<time>2011-05-22T12:19:39.85</time>
<name>14184</name>
<sym>Dot</sym>
</trkpt>
<trkpt lat="39.686458" lon="-8.623705">
<ele>276.0</ele>
<desc>Speed 21.0 km/h Distance 66.78 km</desc>
<time>2011-05-22T12:19:40.85</time>
<name>14185</name>
<sym>Dot</sym>
</trkpt>
<trkpt lat="39.686447" lon="-8.623772">
<ele>276.0</ele>
<desc>Speed 20.5 km/h Distance 66.78 km</desc>
<time>2011-05-22T12:19:41.85</time>
<name>14186</name>
<sym>Dot</sym>
</trkpt>
<trkpt lat="39.686442" lon="-8.623840">
<ele>276.0</ele>
<desc>Speed 20.5 km/h Distance 66.79 km</desc>
<time>2011-05-22T12:19:42.85</time>
<name>14187</name>
<sym>Dot</sym>
</trkpt>
<trkpt lat="39.686438" lon="-8.623903">
<ele>276.5</ele>
<desc>Speed 19.6 km/h Distance 66.79 km</desc>
<time>2011-05-22T12:19:43.85</time>
<name>14188</name>
<sym>Dot</sym>
</trkpt>
<trkpt lat="39.686435" lon="-8.623967">
<ele>276.5</ele>
<desc>Speed 19.0 km/h Distance 66.80 km</desc>
<time>2011-05-22T12:19:44.85</time>
<name>14189</name>
<sym>Dot</sym>
</trkpt>
<trkpt lat="39.686435" lon="-8.624027">
<ele>276.5</ele>
<desc>Speed 18.5 km/h Distance 66.80 km</desc>
<time>2011-05-22T12:19:45.85</time>
<name>14190</name>
<sym>Dot</sym>
</trkpt>
<trkpt lat="39.686438" lon="-8.624088">
<ele>276.5</ele>
<desc>Speed 18.5 km/h Distance 66.81 km</desc>
<time>2011-05-22T12:19:46.85</time>
<name>14191</name>
<sym>Dot</sym>
</trkpt>
<trkpt lat="39.686448" lon="-8.624147">
<ele>276.5</ele>
<desc>Speed 17.6 km/h Distance 66.81 km</desc>
<time>2011-05-22T12:19:47.85</time>
<name>14192</name>
<sym>Dot</sym>
</trkpt>
<trkpt lat="39.686460" lon="-8.624202">
<ele>277.0</ele>
<desc>Speed 17.0 km/h Distance 66.82 km</desc>
<time>2011-05-22T12:19:48.85</time>
<name>14193</name>
<sym>Dot</sym>
</trkpt>
<trkpt lat="39.686468" lon="-8.624258">
<ele>277.0</ele>
<desc>Speed 16.2 km/h Distance 66.82 km</desc>
<time>2011-05-22T12:19:49.85</time>
<name>14194</name>
<sym>Dot</sym>
</trkpt>
<trkpt lat="39.686480" lon="-8.624310">
<ele>277.0</ele>
<desc>Speed 15.5 km/h Distance 66.83 km</desc>
<time>2011-05-22T12:19:50.85</time>
<name>14195</name>
<sym>Dot</sym>
</trkpt>
<trkpt lat="39.686493" lon="-8.624362">
<ele>277.0</ele>
<desc>Speed 15.6 km/h Distance 66.83 km</desc>
<time>2011-05-22T12:19:51.85</time>
<name>14196</name>
<sym>Dot</sym>
</trkpt>
<trkpt lat="39.686507" lon="-8.624413">
<ele>277.0</ele>
<desc>Speed 15.5 km/h Distance 66.84 km</desc>
<time>2011-05-22T12:19:52.85</time>
<name>14197</name>
<sym>Dot</sym>
</trkpt>
<trkpt lat="39.686520" lon="-8.624462">
<ele>277.0</ele>
<desc>Speed 15.2 km/h Distance 66.84 km</desc>
<time>2011-05-22T12:19:53.85</time>
<name>14198</name>
<sym>Dot</sym>
</trkpt>
<trkpt lat="39.686537" lon="-8.624508">
<ele>277.0</ele>
<desc>Speed 15.2 km/h Distance 66.85 km</desc>
<time>2011-05-22T12:19:54.85</time>
<name>14199</name>
<sym>Dot</sym>
</trkpt>
<trkpt lat="39.686553" lon="-8.624555">
<ele>277.0</ele>
<desc>Speed 15.6 km/h Distance 66.85 km</desc>
<time>2011-05-22T12:19:55.85</time>
<name>14200</name>
<sym>Dot</sym>
</trkpt>
<trkpt lat="39.686572" lon="-8.624603">
<ele>277.0</ele>
<desc>Speed 15.6 km/h Distance 66.86 km</desc>
<time>2011-05-22T12:19:56.85</time>
<name>14201</name>
<sym>Dot</sym>
</trkpt>
<trkpt lat="39.686585" lon="-8.624652">
<ele>276.5</ele>
<desc>Speed 15.3 km/h Distance 66.86 km</desc>
<time>2011-05-22T12:19:57.85</time>
<name>14202</name>
<sym>Dot</sym>
</trkpt>
<trkpt lat="39.686597" lon="-8.624700">
<ele>276.5</ele>
<desc>Speed 15.0 km/h Distance 66.87 km</desc>
<time>2011-05-22T12:19:58.85</time>
<name>14203</name>
<sym>Dot</sym>
</trkpt>
<trkpt lat="39.686605" lon="-8.624750">
<ele>276.0</ele>
<desc>Speed 14.7 km/h Distance 66.87 km</desc>
<time>2011-05-22T12:19:59.85</time>
<name>14204</name>
<sym>Dot</sym>
</trkpt>
<trkpt lat="39.686612" lon="-8.624793">
<ele>276.0</ele>
<desc>Speed 13.4 km/h Distance 66.87 km</desc>
<time>2011-05-22T12:20:00.85</time>
<name>14205</name>
<sym>Dot</sym>
</trkpt>
<trkpt lat="39.686615" lon="-8.624833">
<ele>276.0</ele>
<desc>Speed 12.3 km/h Distance 66.88 km</desc>
<time>2011-05-22T12:20:01.85</time>
<name>14206</name>
<sym>Dot</sym>
</trkpt>
<trkpt lat="39.686615" lon="-8.624872">
<ele>276.5</ele>
<desc>Speed 11.3 km/h Distance 66.88 km</desc>
<time>2011-05-22T12:20:02.85</time>
<name>14207</name>
<sym>Dot</sym>
</trkpt>
<trkpt lat="39.686612" lon="-8.624908">
<ele>277.0</ele>
<desc>Speed 11.0 km/h Distance 66.88 km</desc>
<time>2011-05-22T12:20:03.85</time>
<name>14208</name>
<sym>Dot</sym>
</trkpt>
<trkpt lat="39.686608" lon="-8.624945">
<ele>277.5</ele>
<desc>Speed 11.3 km/h Distance 66.89 km</desc>
<time>2011-05-22T12:20:04.85</time>
<name>14209</name>
<sym>Dot</sym>
</trkpt>
<trkpt lat="39.686605" lon="-8.624987">
<ele>277.5</ele>
<desc>Speed 12.6 km/h Distance 66.89 km</desc>
<time>2011-05-22T12:20:05.85</time>
<name>14210</name>
<sym>Dot</sym>
</trkpt>
<trkpt lat="39.686598" lon="-8.625028">
<ele>277.5</ele>
<desc>Speed 12.9 km/h Distance 66.89 km</desc>
<time>2011-05-22T12:20:06.85</time>
<name>14211</name>
<sym>Dot</sym>
</trkpt>
<trkpt lat="39.686592" lon="-8.625070">
<ele>278.0</ele>
<desc>Speed 13.2 km/h Distance 66.90 km</desc>
<time>2011-05-22T12:20:07.85</time>
<name>14212</name>
<sym>Dot</sym>
</trkpt>
<trkpt lat="39.686587" lon="-8.625110">
<ele>278.0</ele>
<desc>Speed 12.0 km/h Distance 66.90 km</desc>
<time>2011-05-22T12:20:08.85</time>
<name>14213</name>
<sym>Dot</sym>
</trkpt>
<trkpt lat="39.686580" lon="-8.625142">
<ele>278.5</ele>
<desc>Speed 9.9 km/h Distance 66.90 km</desc>
<time>2011-05-22T12:20:09.85</time>
<name>14214</name>
<sym>Dot</sym>
</trkpt>
<trkpt lat="39.686578" lon="-8.625168">
<ele>279.0</ele>
<desc>Speed 8.1 km/h Distance 66.91 km</desc>
<time>2011-05-22T12:20:10.85</time>
<name>14215</name>
<sym>Dot</sym>
</trkpt>
<trkpt lat="39.686575" lon="-8.625200">
<ele>279.0</ele>
<desc>Speed 9.7 km/h Distance 66.91 km</desc>
<time>2011-05-22T12:20:11.85</time>
<name>14216</name>
<sym>Dot</sym>
</trkpt>
<trkpt lat="39.686575" lon="-8.625228">
<ele>279.5</ele>
<desc>Speed 8.7 km/h Distance 66.91 km</desc>
<time>2011-05-22T12:20:12.85</time>
<name>14217</name>
<sym>Dot</sym>
</trkpt>
<trkpt lat="39.686573" lon="-8.625257">
<ele>279.5</ele>
<desc>Speed 9.0 km/h Distance 66.91 km</desc>
<time>2011-05-22T12:20:13.85</time>
<name>14218</name>
<sym>Dot</sym>
</trkpt>
<trkpt lat="39.686570" lon="-8.625288">
<ele>279.5</ele>
<desc>Speed 9.6 km/h Distance 66.92 km</desc>
<time>2011-05-22T12:20:14.85</time>
<name>14219</name>
<sym>Dot</sym>
</trkpt>
<trkpt lat="39.686565" lon="-8.625318">
<ele>280.0</ele>
<desc>Speed 9.3 km/h Distance 66.92 km</desc>
<time>2011-05-22T12:20:15.85</time>
<name>14220</name>
<sym>Dot</sym>
</trkpt>
<trkpt lat="39.686560" lon="-8.625350">
<ele>280.0</ele>
<desc>Speed 9.9 km/h Distance 66.92 km</desc>
<time>2011-05-22T12:20:16.85</time>
<name>14221</name>
<sym>Dot</sym>
</trkpt>
<trkpt lat="39.686555" lon="-8.625383">
<ele>280.0</ele>
<desc>Speed 10.6 km/h Distance 66.92 km</desc>
<time>2011-05-22T12:20:17.85</time>
<name>14222</name>
<sym>Dot</sym>
</trkpt>
<trkpt lat="39.686548" lon="-8.625428">
<ele>279.0</ele>
<desc>Speed 14.1 km/h Distance 66.93 km</desc>
<time>2011-05-22T12:20:18.85</time>
<name>14223</name>
<sym>Dot</sym>
</trkpt>
<trkpt lat="39.686543" lon="-8.625468">
<ele>280.0</ele>
<desc>Speed 12.3 km/h Distance 66.93 km</desc>
<time>2011-05-22T12:20:19.85</time>
<name>14224</name>
<sym>Dot</sym>
</trkpt>
<trkpt lat="39.686542" lon="-8.625512">
<ele>281.0</ele>
<desc>Speed 13.4 km/h Distance 66.94 km</desc>
<time>2011-05-22T12:20:20.85</time>
<name>14225</name>
<sym>Dot</sym>
</trkpt>
<trkpt lat="39.686537" lon="-8.625568">
<ele>280.0</ele>
<desc>Speed 16.8 km/h Distance 66.94 km</desc>
<time>2011-05-22T12:20:21.85</time>
<name>14226</name>
<sym>Dot</sym>
</trkpt>
<trkpt lat="39.686533" lon="-8.625622">
<ele>280.0</ele>
<desc>Speed 16.3 km/h Distance 66.95 km</desc>
<time>2011-05-22T12:20:22.85</time>
<name>14227</name>
<sym>Dot</sym>
</trkpt>
<trkpt lat="39.686528" lon="-8.625677">
<ele>280.0</ele>
<desc>Speed 17.0 km/h Distance 66.95 km</desc>
<time>2011-05-22T12:20:23.85</time>
<name>14228</name>
<sym>Dot</sym>
</trkpt>
<trkpt lat="39.686525" lon="-8.625733">
<ele>279.5</ele>
<desc>Speed 17.7 km/h Distance 66.95 km</desc>
<time>2011-05-22T12:20:24.85</time>
<name>14229</name>
<sym>Dot</sym>
</trkpt>
<trkpt lat="39.686520" lon="-8.625793">
<ele>279.5</ele>
<desc>Speed 18.3 km/h Distance 66.96 km</desc>
<time>2011-05-22T12:20:25.85</time>
<name>14230</name>
<sym>Dot</sym>
</trkpt>
<trkpt lat="39.686513" lon="-8.625855">
<ele>279.5</ele>
<desc>Speed 18.8 km/h Distance 66.97 km</desc>
<time>2011-05-22T12:20:26.85</time>
<name>14231</name>
<sym>Dot</sym>
</trkpt>
<trkpt lat="39.686505" lon="-8.625918">
<ele>279.0</ele>
<desc>Speed 19.4 km/h Distance 66.97 km</desc>
<time>2011-05-22T12:20:27.85</time>
<name>14232</name>
<sym>Dot</sym>
</trkpt>
<trkpt lat="39.686497" lon="-8.625982">
<ele>279.0</ele>
<desc>Speed 19.8 km/h Distance 66.98 km</desc>
<time>2011-05-22T12:20:28.85</time>
<name>14233</name>
<sym>Dot</sym>
</trkpt>
<trkpt lat="39.686488" lon="-8.626048">
<ele>278.5</ele>
<desc>Speed 20.1 km/h Distance 66.98 km</desc>
<time>2011-05-22T12:20:29.85</time>
<name>14234</name>
<sym>Dot</sym>
</trkpt>
<trkpt lat="39.686480" lon="-8.626113">
<ele>278.0</ele>
<desc>Speed 20.3 km/h Distance 66.99 km</desc>
<time>2011-05-22T12:20:30.85</time>
<name>14235</name>
<sym>Dot</sym>
</trkpt>
<trkpt lat="39.686472" lon="-8.626178">
<ele>278.0</ele>
<desc>Speed 20.1 km/h Distance 66.99 km</desc>
<time>2011-05-22T12:20:31.85</time>
<name>14236</name>
<sym>Dot</sym>
</trkpt>
<trkpt lat="39.686460" lon="-8.626245">
<ele>277.5</ele>
<desc>Speed 20.3 km/h Distance 67.00 km</desc>
<time>2011-05-22T12:20:32.85</time>
<name>14237</name>
<sym>Dot</sym>
</trkpt>
<trkpt lat="39.686448" lon="-8.626310">
<ele>277.0</ele>
<desc>Speed 20.3 km/h Distance 67.00 km</desc>
<time>2011-05-22T12:20:33.85</time>
<name>14238</name>
<sym>Dot</sym>
</trkpt>
<trkpt lat="39.686435" lon="-8.626375">
<ele>277.0</ele>
<desc>Speed 20.3 km/h Distance 67.01 km</desc>
<time>2011-05-22T12:20:34.85</time>
<name>14239</name>
<sym>Dot</sym>
</trkpt>
<trkpt lat="39.686420" lon="-8.626440">
<ele>277.0</ele>
<desc>Speed 20.4 km/h Distance 67.02 km</desc>
<time>2011-05-22T12:20:35.85</time>
<name>14240</name>
<sym>Dot</sym>
</trkpt>
<trkpt lat="39.686405" lon="-8.626503">
<ele>277.0</ele>
<desc>Speed 19.9 km/h Distance 67.02 km</desc>
<time>2011-05-22T12:20:36.85</time>
<name>14241</name>
<sym>Dot</sym>
</trkpt>
<trkpt lat="39.686390" lon="-8.626565">
<ele>276.5</ele>
<desc>Speed 19.7 km/h Distance 67.03 km</desc>
<time>2011-05-22T12:20:37.85</time>
<name>14242</name>
<sym>Dot</sym>
</trkpt>
<trkpt lat="39.686373" lon="-8.626630">
<ele>276.5</ele>
<desc>Speed 20.1 km/h Distance 67.03 km</desc>
<time>2011-05-22T12:20:38.85</time>
<name>14243</name>
<sym>Dot</sym>
</trkpt>
<trkpt lat="39.686358" lon="-8.626692">
<ele>276.5</ele>
<desc>Speed 19.7 km/h Distance 67.04 km</desc>
<time>2011-05-22T12:20:39.85</time>
<name>14244</name>
<sym>Dot</sym>
</trkpt>
<trkpt lat="39.686343" lon="-8.626753">
<ele>276.5</ele>
<desc>Speed 19.8 km/h Distance 67.04 km</desc>
<time>2011-05-22T12:20:40.85</time>
<name>14245</name>
<sym>Dot</sym>
</trkpt>
<trkpt lat="39.686327" lon="-8.626812">
<ele>277.0</ele>
<desc>Speed 19.4 km/h Distance 67.05 km</desc>
<time>2011-05-22T12:20:41.85</time>
<name>14246</name>
<sym>Dot</sym>
</trkpt>
<trkpt lat="39.686310" lon="-8.626868">
<ele>276.5</ele>
<desc>Speed 18.7 km/h Distance 67.06 km</desc>
<time>2011-05-22T12:20:42.85</time>
<name>14247</name>
<sym>Dot</sym>
</trkpt>
<trkpt lat="39.686295" lon="-8.626918">
<ele>277.0</ele>
<desc>Speed 16.5 km/h Distance 67.06 km</desc>
<time>2011-05-22T12:20:43.85</time>
<name>14248</name>
<sym>Dot</sym>
</trkpt>
<trkpt lat="39.686278" lon="-8.626963">
<ele>276.5</ele>
<desc>Speed 15.1 km/h Distance 67.06 km</desc>
<time>2011-05-22T12:20:44.85</time>
<name>14249</name>
<sym>Dot</sym>
</trkpt>
<trkpt lat="39.686265" lon="-8.627005">
<ele>276.0</ele>
<desc>Speed 14.4 km/h Distance 67.07 km</desc>
<time>2011-05-22T12:20:45.85</time>
<name>14250</name>
<sym>Dot</sym>
</trkpt>
<trkpt lat="39.686252" lon="-8.627045">
<ele>276.0</ele>
<desc>Speed 13.3 km/h Distance 67.07 km</desc>
<time>2011-05-22T12:20:46.85</time>
<name>14251</name>
<sym>Dot</sym>
</trkpt>
<trkpt lat="39.686238" lon="-8.627085">
<ele>276.0</ele>
<desc>Speed 13.2 km/h Distance 67.08 km</desc>
<time>2011-05-22T12:20:47.85</time>
<name>14252</name>
<sym>Dot</sym>
</trkpt>
<trkpt lat="39.686228" lon="-8.627127">
<ele>275.5</ele>
<desc>Speed 13.2 km/h Distance 67.08 km</desc>
<time>2011-05-22T12:20:48.85</time>
<name>14253</name>
<sym>Dot</sym>
</trkpt>
<trkpt lat="39.686218" lon="-8.627167">
<ele>275.5</ele>
<desc>Speed 13.3 km/h Distance 67.08 km</desc>
<time>2011-05-22T12:20:49.85</time>
<name>14254</name>
<sym>Dot</sym>
</trkpt>
<trkpt lat="39.686207" lon="-8.627205">
<ele>275.5</ele>
<desc>Speed 12.7 km/h Distance 67.09 km</desc>
<time>2011-05-22T12:20:50.85</time>
<name>14255</name>
<sym>Dot</sym>
</trkpt>
<trkpt lat="39.686193" lon="-8.627240">
<ele>275.5</ele>
<desc>Speed 11.9 km/h Distance 67.09 km</desc>
<time>2011-05-22T12:20:51.85</time>
<name>14256</name>
<sym>Dot</sym>
</trkpt>
<trkpt lat="39.686182" lon="-8.627277">
<ele>275.5</ele>
<desc>Speed 12.1 km/h Distance 67.09 km</desc>
<time>2011-05-22T12:20:52.85</time>
<name>14257</name>
<sym>Dot</sym>
</trkpt>
<trkpt lat="39.686170" lon="-8.627315">
<ele>275.0</ele>
<desc>Speed 12.7 km/h Distance 67.10 km</desc>
<time>2011-05-22T12:20:53.85</time>
<name>14258</name>
<sym>Dot</sym>
</trkpt>
<trkpt lat="39.686158" lon="-8.627352">
<ele>275.5</ele>
<desc>Speed 12.4 km/h Distance 67.10 km</desc>
<time>2011-05-22T12:20:54.85</time>
<name>14259</name>
<sym>Dot</sym>
</trkpt>
<trkpt lat="39.686147" lon="-8.627388">
<ele>276.0</ele>
<desc>Speed 12.3 km/h Distance 67.10 km</desc>
<time>2011-05-22T12:20:55.85</time>
<name>14260</name>
<sym>Dot</sym>
</trkpt>
<trkpt lat="39.686135" lon="-8.627427">
<ele>276.0</ele>
<desc>Speed 12.3 km/h Distance 67.11 km</desc>
<time>2011-05-22T12:20:56.85</time>
<name>14261</name>
<sym>Dot</sym>
</trkpt>
<trkpt lat="39.686125" lon="-8.627465">
<ele>276.0</ele>
<desc>Speed 12.5 km/h Distance 67.11 km</desc>
<time>2011-05-22T12:20:57.85</time>
<name>14262</name>
<sym>Dot</sym>
</trkpt>
<trkpt lat="39.686113" lon="-8.627502">
<ele>276.0</ele>
<desc>Speed 12.3 km/h Distance 67.11 km</desc>
<time>2011-05-22T12:20:58.85</time>
<name>14263</name>
<sym>Dot</sym>
</trkpt>
<trkpt lat="39.686105" lon="-8.627540">
<ele>276.0</ele>
<desc>Speed 11.8 km/h Distance 67.12 km</desc>
<time>2011-05-22T12:20:59.85</time>
<name>14264</name>
<sym>Dot</sym>
</trkpt>
<trkpt lat="39.686098" lon="-8.627575">
<ele>276.5</ele>
<desc>Speed 11.6 km/h Distance 67.12 km</desc>
<time>2011-05-22T12:21:00.85</time>
<name>14265</name>
<sym>Dot</sym>
</trkpt>
<trkpt lat="39.686090" lon="-8.627610">
<ele>276.5</ele>
<desc>Speed 11.2 km/h Distance 67.12 km</desc>
<time>2011-05-22T12:21:01.85</time>
<name>14266</name>
<sym>Dot</sym>
</trkpt>
<trkpt lat="39.686085" lon="-8.627645">
<ele>276.5</ele>
<desc>Speed 10.9 km/h Distance 67.13 km</desc>
<time>2011-05-22T12:21:02.85</time>
<name>14267</name>
<sym>Dot</sym>
</trkpt>
<trkpt lat="39.686080" lon="-8.627680">
<ele>277.0</ele>
<desc>Speed 11.1 km/h Distance 67.13 km</desc>
<time>2011-05-22T12:21:03.85</time>
<name>14268</name>
<sym>Dot</sym>
</trkpt>
<trkpt lat="39.686075" lon="-8.627718">
<ele>277.0</ele>
<desc>Speed 11.7 km/h Distance 67.13 km</desc>
<time>2011-05-22T12:21:04.85</time>
<name>14269</name>
<sym>Dot</sym>
</trkpt>
<trkpt lat="39.686068" lon="-8.627757">
<ele>277.0</ele>
<desc>Speed 11.8 km/h Distance 67.14 km</desc>
<time>2011-05-22T12:21:05.85</time>
<name>14270</name>
<sym>Dot</sym>
</trkpt>
<trkpt lat="39.686062" lon="-8.627795">
<ele>277.0</ele>
<desc>Speed 12.0 km/h Distance 67.14 km</desc>
<time>2011-05-22T12:21:06.85</time>
<name>14271</name>
<sym>Dot</sym>
</trkpt>
<trkpt lat="39.686052" lon="-8.627833">
<ele>277.5</ele>
<desc>Speed 11.8 km/h Distance 67.14 km</desc>
<time>2011-05-22T12:21:07.85</time>
<name>14272</name>
<sym>Dot</sym>
</trkpt>
<trkpt lat="39.686042" lon="-8.627875">
<ele>278.0</ele>
<desc>Speed 13.2 km/h Distance 67.15 km</desc>
<time>2011-05-22T12:21:08.85</time>
<name>14273</name>
<sym>Dot</sym>
</trkpt>
<trkpt lat="39.686035" lon="-8.627917">
<ele>278.0</ele>
<desc>Speed 13.0 km/h Distance 67.15 km</desc>
<time>2011-05-22T12:21:09.85</time>
<name>14274</name>
<sym>Dot</sym>
</trkpt>
<trkpt lat="39.686028" lon="-8.627958">
<ele>278.0</ele>
<desc>Speed 12.8 km/h Distance 67.15 km</desc>
<time>2011-05-22T12:21:10.85</time>
<name>14275</name>
<sym>Dot</sym>
</trkpt>
<trkpt lat="39.686020" lon="-8.628002">
<ele>278.0</ele>
<desc>Speed 12.9 km/h Distance 67.16 km</desc>
<time>2011-05-22T12:21:11.85</time>
<name>14276</name>
<sym>Dot</sym>
</trkpt>
<trkpt lat="39.686013" lon="-8.628040">
<ele>278.0</ele>
<desc>Speed 12.2 km/h Distance 67.16 km</desc>
<time>2011-05-22T12:21:12.85</time>
<name>14277</name>
<sym>Dot</sym>
</trkpt>
<trkpt lat="39.686005" lon="-8.628080">
<ele>278.0</ele>
<desc>Speed 12.0 km/h Distance 67.16 km</desc>
<time>2011-05-22T12:21:13.85</time>
<name>14278</name>
<sym>Dot</sym>
</trkpt>
<trkpt lat="39.685998" lon="-8.628118">
<ele>278.0</ele>
<desc>Speed 12.2 km/h Distance 67.17 km</desc>
<time>2011-05-22T12:21:14.85</time>
<name>14279</name>
<sym>Dot</sym>
</trkpt>
<trkpt lat="39.685993" lon="-8.628153">
<ele>279.0</ele>
<desc>Speed 11.1 km/h Distance 67.17 km</desc>
<time>2011-05-22T12:21:15.85</time>
<name>14280</name>
<sym>Dot</sym>
</trkpt>
<trkpt lat="39.685987" lon="-8.628192">
<ele>279.0</ele>
<desc>Speed 11.8 km/h Distance 67.17 km</desc>
<time>2011-05-22T12:21:16.85</time>
<name>14281</name>
<sym>Dot</sym>
</trkpt>
<trkpt lat="39.685980" lon="-8.628230">
<ele>279.0</ele>
<desc>Speed 11.8 km/h Distance 67.18 km</desc>
<time>2011-05-22T12:21:17.85</time>
<name>14282</name>
<sym>Dot</sym>
</trkpt>
<trkpt lat="39.685973" lon="-8.628267">
<ele>279.0</ele>
<desc>Speed 11.6 km/h Distance 67.18 km</desc>
<time>2011-05-22T12:21:18.85</time>
<name>14283</name>
<sym>Dot</sym>
</trkpt>
<trkpt lat="39.685967" lon="-8.628302">
<ele>279.0</ele>
<desc>Speed 11.0 km/h Distance 67.18 km</desc>
<time>2011-05-22T12:21:19.85</time>
<name>14284</name>
<sym>Dot</sym>
</trkpt>
<trkpt lat="39.685960" lon="-8.628335">
<ele>279.0</ele>
<desc>Speed 10.8 km/h Distance 67.19 km</desc>
<time>2011-05-22T12:21:20.85</time>
<name>14285</name>
<sym>Dot</sym>
</trkpt>
<trkpt lat="39.685953" lon="-8.628368">
<ele>279.0</ele>
<desc>Speed 10.4 km/h Distance 67.19 km</desc>
<time>2011-05-22T12:21:21.85</time>
<name>14286</name>
<sym>Dot</sym>
</trkpt>
<trkpt lat="39.685945" lon="-8.628400">
<ele>279.0</ele>
<desc>Speed 10.5 km/h Distance 67.19 km</desc>
<time>2011-05-22T12:21:22.85</time>
<name>14287</name>
<sym>Dot</sym>
</trkpt>
<trkpt lat="39.685940" lon="-8.628433">
<ele>279.0</ele>
<desc>Speed 10.7 km/h Distance 67.20 km</desc>
<time>2011-05-22T12:21:23.85</time>
<name>14288</name>
<sym>Dot</sym>
</trkpt>
<trkpt lat="39.685935" lon="-8.628470">
<ele>278.5</ele>
<desc>Speed 11.3 km/h Distance 67.20 km</desc>
<time>2011-05-22T12:21:24.85</time>
<name>14289</name>
<sym>Dot</sym>
</trkpt>
<trkpt lat="39.685930" lon="-8.628507">
<ele>278.5</ele>
<desc>Speed 11.3 km/h Distance 67.20 km</desc>
<time>2011-05-22T12:21:25.85</time>
<name>14290</name>
<sym>Dot</sym>
</trkpt>
<trkpt lat="39.685920" lon="-8.628543">
<ele>278.5</ele>
<desc>Speed 11.9 km/h Distance 67.21 km</desc>
<time>2011-05-22T12:21:26.85</time>
<name>14291</name>
<sym>Dot</sym>
</trkpt>
<trkpt lat="39.685912" lon="-8.628582">
<ele>278.5</ele>
<desc>Speed 12.1 km/h Distance 67.21 km</desc>
<time>2011-05-22T12:21:27.85</time>
<name>14292</name>
<sym>Dot</sym>
</trkpt>
<trkpt lat="39.685903" lon="-8.628618">
<ele>278.5</ele>
<desc>Speed 11.9 km/h Distance 67.21 km</desc>
<time>2011-05-22T12:21:28.85</time>
<name>14293</name>
<sym>Dot</sym>
</trkpt>
<trkpt lat="39.685895" lon="-8.628657">
<ele>278.0</ele>
<desc>Speed 12.1 km/h Distance 67.22 km</desc>
<time>2011-05-22T12:21:29.85</time>
<name>14294</name>
<sym>Dot</sym>
</trkpt>
<trkpt lat="39.685885" lon="-8.628695">
<ele>278.0</ele>
<desc>Speed 12.2 km/h Distance 67.22 km</desc>
<time>2011-05-22T12:21:30.85</time>
<name>14295</name>
<sym>Dot</sym>
</trkpt>
<trkpt lat="39.685877" lon="-8.628735">
<ele>278.0</ele>
<desc>Speed 12.7 km/h Distance 67.22 km</desc>
<time>2011-05-22T12:21:31.85</time>
<name>14296</name>
<sym>Dot</sym>
</trkpt>
<trkpt lat="39.685868" lon="-8.628775">
<ele>278.0</ele>
<desc>Speed 12.7 km/h Distance 67.23 km</desc>
<time>2011-05-22T12:21:32.85</time>
<name>14297</name>
<sym>Dot</sym>
</trkpt>
<trkpt lat="39.685860" lon="-8.628815">
<ele>278.0</ele>
<desc>Speed 13.1 km/h Distance 67.23 km</desc>
<time>2011-05-22T12:21:33.85</time>
<name>14298</name>
<sym>Dot</sym>
</trkpt>
<trkpt lat="39.685848" lon="-8.628857">
<ele>278.0</ele>
<desc>Speed 13.3 km/h Distance 67.23 km</desc>
<time>2011-05-22T12:21:34.85</time>
<name>14299</name>
<sym>Dot</sym>
</trkpt>
<trkpt lat="39.685840" lon="-8.628895">
<ele>277.5</ele>
<desc>Speed 12.8 km/h Distance 67.24 km</desc>
<time>2011-05-22T12:21:35.85</time>
<name>14300</name>
<sym>Dot</sym>
</trkpt>
<trkpt lat="39.685828" lon="-8.628935">
<ele>277.5</ele>
<desc>Speed 12.7 km/h Distance 67.24 km</desc>
<time>2011-05-22T12:21:36.85</time>
<name>14301</name>
<sym>Dot</sym>
</trkpt>
<trkpt lat="39.685817" lon="-8.628973">
<ele>277.5</ele>
<desc>Speed 12.9 km/h Distance 67.24 km</desc>
<time>2011-05-22T12:21:37.85</time>
<name>14302</name>
<sym>Dot</sym>
</trkpt>
<trkpt lat="39.685805" lon="-8.629013">
<ele>278.0</ele>
<desc>Speed 12.8 km/h Distance 67.25 km</desc>
<time>2011-05-22T12:21:38.85</time>
<name>14303</name>
<sym>Dot</sym>
</trkpt>
<trkpt lat="39.685793" lon="-8.629053">
<ele>278.0</ele>
<desc>Speed 12.8 km/h Distance 67.25 km</desc>
<time>2011-05-22T12:21:39.85</time>
<name>14304</name>
<sym>Dot</sym>
</trkpt>
<trkpt lat="39.685782" lon="-8.629093">
<ele>278.0</ele>
<desc>Speed 13.2 km/h Distance 67.26 km</desc>
<time>2011-05-22T12:21:40.85</time>
<name>14305</name>
<sym>Dot</sym>
</trkpt>
<trkpt lat="39.685772" lon="-8.629135">
<ele>278.0</ele>
<desc>Speed 13.1 km/h Distance 67.26 km</desc>
<time>2011-05-22T12:21:41.85</time>
<name>14306</name>
<sym>Dot</sym>
</trkpt>
<trkpt lat="39.685762" lon="-8.629177">
<ele>278.0</ele>
<desc>Speed 13.8 km/h Distance 67.26 km</desc>
<time>2011-05-22T12:21:42.85</time>
<name>14307</name>
<sym>Dot</sym>
</trkpt>
<trkpt lat="39.685750" lon="-8.629220">
<ele>278.0</ele>
<desc>Speed 13.6 km/h Distance 67.27 km</desc>
<time>2011-05-22T12:21:43.85</time>
<name>14308</name>
<sym>Dot</sym>
</trkpt>
<trkpt lat="39.685738" lon="-8.629260">
<ele>278.0</ele>
<desc>Speed 13.4 km/h Distance 67.27 km</desc>
<time>2011-05-22T12:21:44.85</time>
<name>14309</name>
<sym>Dot</sym>
</trkpt>
<trkpt lat="39.685725" lon="-8.629300">
<ele>278.0</ele>
<desc>Speed 13.1 km/h Distance 67.27 km</desc>
<time>2011-05-22T12:21:45.85</time>
<name>14310</name>
<sym>Dot</sym>
</trkpt>
<trkpt lat="39.685713" lon="-8.629338">
<ele>278.0</ele>
<desc>Speed 12.8 km/h Distance 67.28 km</desc>
<time>2011-05-22T12:21:46.85</time>
<name>14311</name>
<sym>Dot</sym>
</trkpt>
<trkpt lat="39.685705" lon="-8.629377">
<ele>278.0</ele>
<desc>Speed 12.2 km/h Distance 67.28 km</desc>
<time>2011-05-22T12:21:47.85</time>
<name>14312</name>
<sym>Dot</sym>
</trkpt>
<trkpt lat="39.685695" lon="-8.629412">
<ele>278.0</ele>
<desc>Speed 11.6 km/h Distance 67.28 km</desc>
<time>2011-05-22T12:21:48.85</time>
<name>14313</name>
<sym>Dot</sym>
</trkpt>
<trkpt lat="39.685683" lon="-8.629445">
<ele>278.5</ele>
<desc>Speed 11.6 km/h Distance 67.29 km</desc>
<time>2011-05-22T12:21:49.85</time>
<name>14314</name>
<sym>Dot</sym>
</trkpt>
<trkpt lat="39.685672" lon="-8.629480">
<ele>278.5</ele>
<desc>Speed 11.6 km/h Distance 67.29 km</desc>
<time>2011-05-22T12:21:50.85</time>
<name>14315</name>
<sym>Dot</sym>
</trkpt>
<trkpt lat="39.685662" lon="-8.629513">
<ele>278.5</ele>
<desc>Speed 11.4 km/h Distance 67.29 km</desc>
<time>2011-05-22T12:21:51.85</time>
<name>14316</name>
<sym>Dot</sym>
</trkpt>
<trkpt lat="39.685653" lon="-8.629547">
<ele>278.5</ele>
<desc>Speed 10.8 km/h Distance 67.30 km</desc>
<time>2011-05-22T12:21:52.85</time>
<name>14317</name>
<sym>Dot</sym>
</trkpt>
<trkpt lat="39.685645" lon="-8.629582">
<ele>278.5</ele>
<desc>Speed 11.1 km/h Distance 67.30 km</desc>
<time>2011-05-22T12:21:53.85</time>
<name>14318</name>
<sym>Dot</sym>
</trkpt>
<trkpt lat="39.685635" lon="-8.629615">
<ele>278.5</ele>
<desc>Speed 11.1 km/h Distance 67.30 km</desc>
<time>2011-05-22T12:21:54.85</time>
<name>14319</name>
<sym>Dot</sym>
</trkpt>
<trkpt lat="39.685625" lon="-8.629648">
<ele>278.5</ele>
<desc>Speed 10.5 km/h Distance 67.31 km</desc>
<time>2011-05-22T12:21:55.85</time>
<name>14320</name>
<sym>Dot</sym>
</trkpt>
<trkpt lat="39.685618" lon="-8.629678">
<ele>279.0</ele>
<desc>Speed 9.9 km/h Distance 67.31 km</desc>
<time>2011-05-22T12:21:56.85</time>
<name>14321</name>
<sym>Dot</sym>
</trkpt>
<trkpt lat="39.685610" lon="-8.629708">
<ele>279.0</ele>
<desc>Speed 9.8 km/h Distance 67.31 km</desc>
<time>2011-05-22T12:21:57.85</time>
<name>14322</name>
<sym>Dot</sym>
</trkpt>
<trkpt lat="39.685602" lon="-8.629740">
<ele>279.0</ele>
<desc>Speed 10.0 km/h Distance 67.31 km</desc>
<time>2011-05-22T12:21:58.85</time>
<name>14323</name>
<sym>Dot</sym>
</trkpt>
<trkpt lat="39.685595" lon="-8.629770">
<ele>279.0</ele>
<desc>Speed 9.8 km/h Distance 67.32 km</desc>
<time>2011-05-22T12:21:59.85</time>
<name>14324</name>
<sym>Dot</sym>
</trkpt>
<trkpt lat="39.685588" lon="-8.629798">
<ele>279.0</ele>
<desc>Speed 9.4 km/h Distance 67.32 km</desc>
<time>2011-05-22T12:22:00.85</time>
<name>14325</name>
<sym>Dot</sym>
</trkpt>
<trkpt lat="39.685582" lon="-8.629827">
<ele>279.5</ele>
<desc>Speed 9.0 km/h Distance 67.32 km</desc>
<time>2011-05-22T12:22:01.85</time>
<name>14326</name>
<sym>Dot</sym>
</trkpt>
<trkpt lat="39.685575" lon="-8.629852">
<ele>279.5</ele>
<desc>Speed 8.2 km/h Distance 67.32 km</desc>
<time>2011-05-22T12:22:02.85</time>
<name>14327</name>
<sym>Dot</sym>
</trkpt>
<trkpt lat="39.685567" lon="-8.629873">
<ele>280.0</ele>
<desc>Speed 7.1 km/h Distance 67.33 km</desc>
<time>2011-05-22T12:22:03.85</time>
<name>14328</name>
<sym>Dot</sym>
</trkpt>
<trkpt lat="39.685560" lon="-8.629892">
<ele>281.0</ele>
<desc>Speed 6.4 km/h Distance 67.33 km</desc>
<time>2011-05-22T12:22:04.85</time>
<name>14329</name>
<sym>Dot</sym>
</trkpt>
<trkpt lat="39.685553" lon="-8.629903">
<ele>281.0</ele>
<desc>Speed 4.4 km/h Distance 67.33 km</desc>
<time>2011-05-22T12:22:05.85</time>
<name>14330</name>
<sym>Dot</sym>
</trkpt>
<trkpt lat="39.685543" lon="-8.629910">
<ele>281.0</ele>
<desc>Speed 4.2 km/h Distance 67.33 km</desc>
<time>2011-05-22T12:22:06.85</time>
<name>14331</name>
<sym>Dot</sym>
</trkpt>
<trkpt lat="39.685542" lon="-8.629937">
<ele>281.0</ele>
<desc>Speed 8.0 km/h Distance 67.33 km</desc>
<time>2011-05-22T12:22:07.85</time>
<name>14332</name>
<sym>Dot</sym>
</trkpt>
<trkpt lat="39.685538" lon="-8.629962">
<ele>281.0</ele>
<desc>Speed 7.6 km/h Distance 67.33 km</desc>
<time>2011-05-22T12:22:08.85</time>
<name>14333</name>
<sym>Dot</sym>
</trkpt>
<trkpt lat="39.685537" lon="-8.629987">
<ele>280.5</ele>
<desc>Speed 6.8 km/h Distance 67.34 km</desc>
<time>2011-05-22T12:22:09.85</time>
<name>14334</name>
<sym>Dot</sym>
</trkpt>
<trkpt lat="39.685537" lon="-8.630008">
<ele>281.0</ele>
<desc>Speed 6.4 km/h Distance 67.34 km</desc>
<time>2011-05-22T12:22:10.85</time>
<name>14335</name>
<sym>Dot</sym>
</trkpt>
<trkpt lat="39.685535" lon="-8.630030">
<ele>281.0</ele>
<desc>Speed 6.2 km/h Distance 67.34 km</desc>
<time>2011-05-22T12:22:11.85</time>
<name>14336</name>
<sym>Dot</sym>
</trkpt>
<trkpt lat="39.685532" lon="-8.630053">
<ele>281.5</ele>
<desc>Speed 6.8 km/h Distance 67.34 km</desc>
<time>2011-05-22T12:22:12.85</time>
<name>14337</name>
<sym>Dot</sym>
</trkpt>
<trkpt lat="39.685527" lon="-8.630073">
<ele>282.0</ele>
<desc>Speed 6.5 km/h Distance 67.34 km</desc>
<time>2011-05-22T12:22:13.85</time>
<name>14338</name>
<sym>Dot</sym>
</trkpt>
<trkpt lat="39.685520" lon="-8.630097">
<ele>282.0</ele>
<desc>Speed 7.7 km/h Distance 67.35 km</desc>
<time>2011-05-22T12:22:14.85</time>
<name>14339</name>
<sym>Dot</sym>
</trkpt>
<trkpt lat="39.685512" lon="-8.630118">
<ele>282.5</ele>
<desc>Speed 7.1 km/h Distance 67.35 km</desc>
<time>2011-05-22T12:22:15.85</time>
<name>14340</name>
<sym>Dot</sym>
</trkpt>
<trkpt lat="39.685503" lon="-8.630147">
<ele>282.0</ele>
<desc>Speed 9.1 km/h Distance 67.35 km</desc>
<time>2011-05-22T12:22:16.85</time>
<name>14341</name>
<sym>Dot</sym>
</trkpt>
<trkpt lat="39.685495" lon="-8.630175">
<ele>282.5</ele>
<desc>Speed 9.1 km/h Distance 67.35 km</desc>
<time>2011-05-22T12:22:17.85</time>
<name>14342</name>
<sym>Dot</sym>
</trkpt>
<trkpt lat="39.685483" lon="-8.630207">
<ele>282.5</ele>
<desc>Speed 10.6 km/h Distance 67.36 km</desc>
<time>2011-05-22T12:22:18.85</time>
<name>14343</name>
<sym>Dot</sym>
</trkpt>
<trkpt lat="39.685472" lon="-8.630237">
<ele>283.0</ele>
<desc>Speed 10.1 km/h Distance 67.36 km</desc>
<time>2011-05-22T12:22:19.85</time>
<name>14344</name>
<sym>Dot</sym>
</trkpt>
<trkpt lat="39.685460" lon="-8.630270">
<ele>283.0</ele>
<desc>Speed 11.0 km/h Distance 67.36 km</desc>
<time>2011-05-22T12:22:20.85</time>
<name>14345</name>
<sym>Dot</sym>
</trkpt>
<trkpt lat="39.685448" lon="-8.630303">
<ele>283.5</ele>
<desc>Speed 11.2 km/h Distance 67.37 km</desc>
<time>2011-05-22T12:22:21.85</time>
<name>14346</name>
<sym>Dot</sym>
</trkpt>
<trkpt lat="39.685437" lon="-8.630338">
<ele>284.0</ele>
<desc>Speed 11.3 km/h Distance 67.37 km</desc>
<time>2011-05-22T12:22:22.85</time>
<name>14347</name>
<sym>Dot</sym>
</trkpt>
<trkpt lat="39.685425" lon="-8.630373">
<ele>284.5</ele>
<desc>Speed 11.6 km/h Distance 67.37 km</desc>
<time>2011-05-22T12:22:23.85</time>
<name>14348</name>
<sym>Dot</sym>
</trkpt>
<trkpt lat="39.685413" lon="-8.630407">
<ele>284.5</ele>
<desc>Speed 11.3 km/h Distance 67.38 km</desc>
<time>2011-05-22T12:22:24.85</time>
<name>14349</name>
<sym>Dot</sym>
</trkpt>
<trkpt lat="39.685402" lon="-8.630442">
<ele>285.0</ele>
<desc>Speed 11.5 km/h Distance 67.38 km</desc>
<time>2011-05-22T12:22:25.85</time>
<name>14350</name>
<sym>Dot</sym>
</trkpt>
<trkpt lat="39.685388" lon="-8.630477">
<ele>285.0</ele>
<desc>Speed 11.6 km/h Distance 67.38 km</desc>
<time>2011-05-22T12:22:26.85</time>
<name>14351</name>
<sym>Dot</sym>
</trkpt>
<trkpt lat="39.685375" lon="-8.630510">
<ele>285.0</ele>
<desc>Speed 11.5 km/h Distance 67.39 km</desc>
<time>2011-05-22T12:22:27.85</time>
<name>14352</name>
<sym>Dot</sym>
</trkpt>
<trkpt lat="39.685362" lon="-8.630543">
<ele>285.0</ele>
<desc>Speed 11.6 km/h Distance 67.39 km</desc>
<time>2011-05-22T12:22:28.85</time>
<name>14353</name>
<sym>Dot</sym>
</trkpt>
<trkpt lat="39.685347" lon="-8.630577">
<ele>285.0</ele>
<desc>Speed 11.5 km/h Distance 67.39 km</desc>
<time>2011-05-22T12:22:29.85</time>
<name>14354</name>
<sym>Dot</sym>
</trkpt>
<trkpt lat="39.685333" lon="-8.630612">
<ele>285.0</ele>
<desc>Speed 11.4 km/h Distance 67.40 km</desc>
<time>2011-05-22T12:22:30.85</time>
<name>14355</name>
<sym>Dot</sym>
</trkpt>
<trkpt lat="39.685323" lon="-8.630647">
<ele>285.0</ele>
<desc>Speed 11.3 km/h Distance 67.40 km</desc>
<time>2011-05-22T12:22:31.85</time>
<name>14356</name>
<sym>Dot</sym>
</trkpt>
<trkpt lat="39.685315" lon="-8.630682">
<ele>285.0</ele>
<desc>Speed 11.1 km/h Distance 67.40 km</desc>
<time>2011-05-22T12:22:32.85</time>
<name>14357</name>
<sym>Dot</sym>
</trkpt>
<trkpt lat="39.685303" lon="-8.630715">
<ele>285.0</ele>
<desc>Speed 11.1 km/h Distance 67.41 km</desc>
<time>2011-05-22T12:22:33.85</time>
<name>14358</name>
<sym>Dot</sym>
</trkpt>
<trkpt lat="39.685292" lon="-8.630750">
<ele>285.0</ele>
<desc>Speed 11.3 km/h Distance 67.41 km</desc>
<time>2011-05-22T12:22:34.85</time>
<name>14359</name>
<sym>Dot</sym>
</trkpt>
<trkpt lat="39.685280" lon="-8.630785">
<ele>285.0</ele>
<desc>Speed 11.5 km/h Distance 67.41 km</desc>
<time>2011-05-22T12:22:35.85</time>
<name>14360</name>
<sym>Dot</sym>
</trkpt>
<trkpt lat="39.685267" lon="-8.630822">
<ele>285.0</ele>
<desc>Speed 12.2 km/h Distance 67.42 km</desc>
<time>2011-05-22T12:22:36.85</time>
<name>14361</name>
<sym>Dot</sym>
</trkpt>
<trkpt lat="39.685252" lon="-8.630860">
<ele>285.0</ele>
<desc>Speed 12.6 km/h Distance 67.42 km</desc>
<time>2011-05-22T12:22:37.85</time>
<name>14362</name>
<sym>Dot</sym>
</trkpt>
<trkpt lat="39.685240" lon="-8.630900">
<ele>284.5</ele>
<desc>Speed 13.0 km/h Distance 67.42 km</desc>
<time>2011-05-22T12:22:38.85</time>
<name>14363</name>
<sym>Dot</sym>
</trkpt>
<trkpt lat="39.685225" lon="-8.630938">
<ele>284.5</ele>
<desc>Speed 13.0 km/h Distance 67.43 km</desc>
<time>2011-05-22T12:22:39.85</time>
<name>14364</name>
<sym>Dot</sym>
</trkpt>
<trkpt lat="39.685212" lon="-8.630978">
<ele>284.0</ele>
<desc>Speed 13.3 km/h Distance 67.43 km</desc>
<time>2011-05-22T12:22:40.85</time>
<name>14365</name>
<sym>Dot</sym>
</trkpt>
<trkpt lat="39.685198" lon="-8.631017">
<ele>284.0</ele>
<desc>Speed 12.8 km/h Distance 67.43 km</desc>
<time>2011-05-22T12:22:41.85</time>
<name>14366</name>
<sym>Dot</sym>
</trkpt>
<trkpt lat="39.685185" lon="-8.631058">
<ele>284.0</ele>
<desc>Speed 13.2 km/h Distance 67.44 km</desc>
<time>2011-05-22T12:22:42.85</time>
<name>14367</name>
<sym>Dot</sym>
</trkpt>
<trkpt lat="39.685172" lon="-8.631097">
<ele>283.5</ele>
<desc>Speed 13.2 km/h Distance 67.44 km</desc>
<time>2011-05-22T12:22:43.85</time>
<name>14368</name>
<sym>Dot</sym>
</trkpt>
<trkpt lat="39.685157" lon="-8.631137">
<ele>283.5</ele>
<desc>Speed 13.2 km/h Distance 67.44 km</desc>
<time>2011-05-22T12:22:44.85</time>
<name>14369</name>
<sym>Dot</sym>
</trkpt>
<trkpt lat="39.685142" lon="-8.631175">
<ele>283.5</ele>
<desc>Speed 13.3 km/h Distance 67.45 km</desc>
<time>2011-05-22T12:22:45.85</time>
<name>14370</name>
<sym>Dot</sym>
</trkpt>
<trkpt lat="39.685127" lon="-8.631213">
<ele>283.5</ele>
<desc>Speed 12.9 km/h Distance 67.45 km</desc>
<time>2011-05-22T12:22:46.85</time>
<name>14371</name>
<sym>Dot</sym>
</trkpt>
<trkpt lat="39.685110" lon="-8.631248">
<ele>283.5</ele>
<desc>Speed 12.9 km/h Distance 67.46 km</desc>
<time>2011-05-22T12:22:47.85</time>
<name>14372</name>
<sym>Dot</sym>
</trkpt>
<trkpt lat="39.685093" lon="-8.631280">
<ele>284.5</ele>
<desc>Speed 11.7 km/h Distance 67.46 km</desc>
<time>2011-05-22T12:22:48.85</time>
<name>14373</name>
<sym>Dot</sym>
</trkpt>
<trkpt lat="39.685077" lon="-8.631312">
<ele>285.0</ele>
<desc>Speed 11.8 km/h Distance 67.46 km</desc>
<time>2011-05-22T12:22:49.85</time>
<name>14374</name>
<sym>Dot</sym>
</trkpt>
<trkpt lat="39.685057" lon="-8.631342">
<ele>285.0</ele>
<desc>Speed 12.4 km/h Distance 67.47 km</desc>
<time>2011-05-22T12:22:50.85</time>
<name>14375</name>
<sym>Dot</sym>
</trkpt>
<trkpt lat="39.685035" lon="-8.631375">
<ele>285.0</ele>
<desc>Speed 12.8 km/h Distance 67.47 km</desc>
<time>2011-05-22T12:22:51.85</time>
<name>14376</name>
<sym>Dot</sym>
</trkpt>
<trkpt lat="39.685013" lon="-8.631405">
<ele>285.0</ele>
<desc>Speed 12.7 km/h Distance 67.47 km</desc>
<time>2011-05-22T12:22:52.85</time>
<name>14377</name>
<sym>Dot</sym>
</trkpt>
<trkpt lat="39.684990" lon="-8.631428">
<ele>286.0</ele>
<desc>Speed 11.6 km/h Distance 67.48 km</desc>
<time>2011-05-22T12:22:53.85</time>
<name>14378</name>
<sym>Dot</sym>
</trkpt>
<trkpt lat="39.684968" lon="-8.631455">
<ele>286.5</ele>
<desc>Speed 12.2 km/h Distance 67.48 km</desc>
<time>2011-05-22T12:22:54.85</time>
<name>14379</name>
<sym>Dot</sym>
</trkpt>
<trkpt lat="39.684945" lon="-8.631485">
<ele>286.5</ele>
<desc>Speed 12.7 km/h Distance 67.48 km</desc>
<time>2011-05-22T12:22:55.85</time>
<name>14380</name>
<sym>Dot</sym>
</trkpt>
<trkpt lat="39.684922" lon="-8.631513">
<ele>286.5</ele>
<desc>Speed 12.9 km/h Distance 67.49 km</desc>
<time>2011-05-22T12:22:56.85</time>
<name>14381</name>
<sym>Dot</sym>
</trkpt>
<trkpt lat="39.684897" lon="-8.631542">
<ele>287.0</ele>
<desc>Speed 12.9 km/h Distance 67.49 km</desc>
<time>2011-05-22T12:22:57.85</time>
<name>14382</name>
<sym>Dot</sym>
</trkpt>
<trkpt lat="39.684870" lon="-8.631570">
<ele>287.0</ele>
<desc>Speed 13.2 km/h Distance 67.49 km</desc>
<time>2011-05-22T12:22:58.85</time>
<name>14383</name>
<sym>Dot</sym>
</trkpt>
<trkpt lat="39.684845" lon="-8.631598">
<ele>286.5</ele>
<desc>Speed 13.5 km/h Distance 67.50 km</desc>
<time>2011-05-22T12:22:59.85</time>
<name>14384</name>
<sym>Dot</sym>
</trkpt>
<trkpt lat="39.684818" lon="-8.631627">
<ele>286.5</ele>
<desc>Speed 13.4 km/h Distance 67.50 km</desc>
<time>2011-05-22T12:23:00.85</time>
<name>14385</name>
<sym>Dot</sym>
</trkpt>
<trkpt lat="39.684793" lon="-8.631655">
<ele>286.5</ele>
<desc>Speed 13.4 km/h Distance 67.51 km</desc>
<time>2011-05-22T12:23:01.85</time>
<name>14386</name>
<sym>Dot</sym>
</trkpt>
<trkpt lat="39.684767" lon="-8.631683">
<ele>287.0</ele>
<desc>Speed 13.5 km/h Distance 67.51 km</desc>
<time>2011-05-22T12:23:02.85</time>
<name>14387</name>
<sym>Dot</sym>
</trkpt>
<trkpt lat="39.684742" lon="-8.631712">
<ele>287.0</ele>
<desc>Speed 13.5 km/h Distance 67.51 km</desc>
<time>2011-05-22T12:23:03.85</time>
<name>14388</name>
<sym>Dot</sym>
</trkpt>
<trkpt lat="39.684713" lon="-8.631738">
<ele>287.0</ele>
<desc>Speed 13.4 km/h Distance 67.52 km</desc>
<time>2011-05-22T12:23:04.85</time>
<name>14389</name>
<sym>Dot</sym>
</trkpt>
<trkpt lat="39.684690" lon="-8.631767">
<ele>287.5</ele>
<desc>Speed 13.1 km/h Distance 67.52 km</desc>
<time>2011-05-22T12:23:05.85</time>
<name>14390</name>
<sym>Dot</sym>
</trkpt>
<trkpt lat="39.684665" lon="-8.631795">
<ele>287.5</ele>
<desc>Speed 12.8 km/h Distance 67.52 km</desc>
<time>2011-05-22T12:23:06.85</time>
<name>14391</name>
<sym>Dot</sym>
</trkpt>
<trkpt lat="39.684640" lon="-8.631815">
<ele>288.5</ele>
<desc>Speed 12.2 km/h Distance 67.53 km</desc>
<time>2011-05-22T12:23:07.85</time>
<name>14392</name>
<sym>Dot</sym>
</trkpt>
<trkpt lat="39.684615" lon="-8.631837">
<ele>289.0</ele>
<desc>Speed 11.9 km/h Distance 67.53 km</desc>
<time>2011-05-22T12:23:08.85</time>
<name>14393</name>
<sym>Dot</sym>
</trkpt>
<trkpt lat="39.684593" lon="-8.631862">
<ele>290.0</ele>
<desc>Speed 11.8 km/h Distance 67.53 km</desc>
<time>2011-05-22T12:23:09.85</time>
<name>14394</name>
<sym>Dot</sym>
</trkpt>
<trkpt lat="39.684573" lon="-8.631890">
<ele>290.5</ele>
<desc>Speed 11.5 km/h Distance 67.54 km</desc>
<time>2011-05-22T12:23:10.85</time>
<name>14395</name>
<sym>Dot</sym>
</trkpt>
<trkpt lat="39.684553" lon="-8.631918">
<ele>291.0</ele>
<desc>Speed 11.7 km/h Distance 67.54 km</desc>
<time>2011-05-22T12:23:11.85</time>
<name>14396</name>
<sym>Dot</sym>
</trkpt>
<trkpt lat="39.684535" lon="-8.631948">
<ele>291.0</ele>
<desc>Speed 11.7 km/h Distance 67.54 km</desc>
<time>2011-05-22T12:23:12.85</time>
<name>14397</name>
<sym>Dot</sym>
</trkpt>
<trkpt lat="39.684518" lon="-8.631975">
<ele>291.5</ele>
<desc>Speed 11.1 km/h Distance 67.55 km</desc>
<time>2011-05-22T12:23:13.85</time>
<name>14398</name>
<sym>Dot</sym>
</trkpt>
<trkpt lat="39.684500" lon="-8.632000">
<ele>292.0</ele>
<desc>Speed 10.8 km/h Distance 67.55 km</desc>
<time>2011-05-22T12:23:14.85</time>
<name>14399</name>
<sym>Dot</sym>
</trkpt>
<trkpt lat="39.684482" lon="-8.632027">
<ele>292.0</ele>
<desc>Speed 11.0 km/h Distance 67.55 km</desc>
<time>2011-05-22T12:23:15.85</time>
<name>14400</name>
<sym>Dot</sym>
</trkpt>
<trkpt lat="39.684465" lon="-8.632057">
<ele>292.5</ele>
<desc>Speed 11.1 km/h Distance 67.56 km</desc>
<time>2011-05-22T12:23:16.85</time>
<name>14401</name>
<sym>Dot</sym>
</trkpt>
<trkpt lat="39.684452" lon="-8.632087">
<ele>292.5</ele>
<desc>Speed 10.8 km/h Distance 67.56 km</desc>
<time>2011-05-22T12:23:17.85</time>
<name>14402</name>
<sym>Dot</sym>
</trkpt>
<trkpt lat="39.684438" lon="-8.632117">
<ele>292.5</ele>
<desc>Speed 10.4 km/h Distance 67.56 km</desc>
<time>2011-05-22T12:23:18.85</time>
<name>14403</name>
<sym>Dot</sym>
</trkpt>
<trkpt lat="39.684427" lon="-8.632147">
<ele>292.0</ele>
<desc>Speed 10.1 km/h Distance 67.56 km</desc>
<time>2011-05-22T12:23:19.85</time>
<name>14404</name>
<sym>Dot</sym>
</trkpt>
<trkpt lat="39.684415" lon="-8.632177">
<ele>292.0</ele>
<desc>Speed 10.1 km/h Distance 67.57 km</desc>
<time>2011-05-22T12:23:20.85</time>
<name>14405</name>
<sym>Dot</sym>
</trkpt>
<trkpt lat="39.684403" lon="-8.632208">
<ele>292.0</ele>
<desc>Speed 10.7 km/h Distance 67.57 km</desc>
<time>2011-05-22T12:23:21.85</time>
<name>14406</name>
<sym>Dot</sym>
</trkpt>
<trkpt lat="39.684393" lon="-8.632242">
<ele>292.0</ele>
<desc>Speed 10.7 km/h Distance 67.57 km</desc>
<time>2011-05-22T12:23:22.85</time>
<name>14407</name>
<sym>Dot</sym>
</trkpt>
<trkpt lat="39.684382" lon="-8.632275">
<ele>292.0</ele>
<desc>Speed 11.0 km/h Distance 67.58 km</desc>
<time>2011-05-22T12:23:23.85</time>
<name>14408</name>
<sym>Dot</sym>
</trkpt>
<trkpt lat="39.684370" lon="-8.632307">
<ele>292.0</ele>
<desc>Speed 11.0 km/h Distance 67.58 km</desc>
<time>2011-05-22T12:23:24.85</time>
<name>14409</name>
<sym>Dot</sym>
</trkpt>
<trkpt lat="39.684358" lon="-8.632340">
<ele>292.0</ele>
<desc>Speed 11.2 km/h Distance 67.58 km</desc>
<time>2011-05-22T12:23:25.85</time>
<name>14410</name>
<sym>Dot</sym>
</trkpt>
<trkpt lat="39.684345" lon="-8.632375">
<ele>292.0</ele>
<desc>Speed 11.4 km/h Distance 67.59 km</desc>
<time>2011-05-22T12:23:26.85</time>
<name>14411</name>
<sym>Dot</sym>
</trkpt>
<trkpt lat="39.684332" lon="-8.632412">
<ele>291.5</ele>
<desc>Speed 11.8 km/h Distance 67.59 km</desc>
<time>2011-05-22T12:23:27.84</time>
<name>14412</name>
<sym>Dot</sym>
</trkpt>
<trkpt lat="39.684318" lon="-8.632448">
<ele>291.5</ele>
<desc>Speed 11.8 km/h Distance 67.59 km</desc>
<time>2011-05-22T12:23:28.84</time>
<name>14413</name>
<sym>Dot</sym>
</trkpt>
<trkpt lat="39.684305" lon="-8.632485">
<ele>291.0</ele>
<desc>Speed 11.8 km/h Distance 67.60 km</desc>
<time>2011-05-22T12:23:29.84</time>
<name>14414</name>
<sym>Dot</sym>
</trkpt>
<trkpt lat="39.684290" lon="-8.632518">
<ele>291.0</ele>
<desc>Speed 11.1 km/h Distance 67.60 km</desc>
<time>2011-05-22T12:23:30.84</time>
<name>14415</name>
<sym>Dot</sym>
</trkpt>
<trkpt lat="39.684278" lon="-8.632547">
<ele>291.0</ele>
<desc>Speed 9.1 km/h Distance 67.60 km</desc>
<time>2011-05-22T12:23:31.84</time>
<name>14416</name>
<sym>Dot</sym>
</trkpt>
<trkpt lat="39.684270" lon="-8.632575">
<ele>291.0</ele>
<desc>Speed 8.8 km/h Distance 67.61 km</desc>
<time>2011-05-22T12:23:32.84</time>
<name>14417</name>
<sym>Dot</sym>
</trkpt>
<trkpt lat="39.684262" lon="-8.632600">
<ele>291.0</ele>
<desc>Speed 7.8 km/h Distance 67.61 km</desc>
<time>2011-05-22T12:23:33.84</time>
<name>14418</name>
<sym>Dot</sym>
</trkpt>
<trkpt lat="39.684253" lon="-8.632630">
<ele>291.0</ele>
<desc>Speed 9.5 km/h Distance 67.61 km</desc>
<time>2011-05-22T12:23:34.84</time>
<name>14419</name>
<sym>Dot</sym>
</trkpt>
<trkpt lat="39.684243" lon="-8.632663">
<ele>290.5</ele>
<desc>Speed 11.3 km/h Distance 67.61 km</desc>
<time>2011-05-22T12:23:35.84</time>
<name>14420</name>
<sym>Dot</sym>
</trkpt>
<trkpt lat="39.684230" lon="-8.632700">
<ele>290.0</ele>
<desc>Speed 12.1 km/h Distance 67.62 km</desc>
<time>2011-05-22T12:23:36.84</time>
<name>14421</name>
<sym>Dot</sym>
</trkpt>
<trkpt lat="39.684218" lon="-8.632737">
<ele>289.5</ele>
<desc>Speed 12.3 km/h Distance 67.62 km</desc>
<time>2011-05-22T12:23:37.84</time>
<name>14422</name>
<sym>Dot</sym>
</trkpt>
<trkpt lat="39.684207" lon="-8.632773">
<ele>289.5</ele>
<desc>Speed 12.0 km/h Distance 67.62 km</desc>
<time>2011-05-22T12:23:38.84</time>
<name>14423</name>
<sym>Dot</sym>
</trkpt>
<trkpt lat="39.684195" lon="-8.632810">
<ele>290.0</ele>
<desc>Speed 12.1 km/h Distance 67.63 km</desc>
<time>2011-05-22T12:23:39.84</time>
<name>14424</name>
<sym>Dot</sym>
</trkpt>
<trkpt lat="39.684182" lon="-8.632848">
<ele>290.0</ele>
<desc>Speed 12.9 km/h Distance 67.63 km</desc>
<time>2011-05-22T12:23:40.84</time>
<name>14425</name>
<sym>Dot</sym>
</trkpt>
<trkpt lat="39.684168" lon="-8.632887">
<ele>290.0</ele>
<desc>Speed 12.5 km/h Distance 67.63 km</desc>
<time>2011-05-22T12:23:41.84</time>
<name>14426</name>
<sym>Dot</sym>
</trkpt>
<trkpt lat="39.684157" lon="-8.632923">
<ele>290.5</ele>
<desc>Speed 12.2 km/h Distance 67.64 km</desc>
<time>2011-05-22T12:23:42.84</time>
<name>14427</name>
<sym>Dot</sym>
</trkpt>
<trkpt lat="39.684145" lon="-8.632960">
<ele>290.0</ele>
<desc>Speed 12.6 km/h Distance 67.64 km</desc>
<time>2011-05-22T12:23:43.84</time>
<name>14428</name>
<sym>Dot</sym>
</trkpt>
<trkpt lat="39.684132" lon="-8.632998">
<ele>290.0</ele>
<desc>Speed 12.6 km/h Distance 67.64 km</desc>
<time>2011-05-22T12:23:44.84</time>
<name>14429</name>
<sym>Dot</sym>
</trkpt>
<trkpt lat="39.684118" lon="-8.633035">
<ele>290.0</ele>
<desc>Speed 12.2 km/h Distance 67.65 km</desc>
<time>2011-05-22T12:23:45.84</time>
<name>14430</name>
<sym>Dot</sym>
</trkpt>
<trkpt lat="39.684107" lon="-8.633070">
<ele>290.5</ele>
<desc>Speed 11.6 km/h Distance 67.65 km</desc>
<time>2011-05-22T12:23:46.84</time>
<name>14431</name>
<sym>Dot</sym>
</trkpt>
<trkpt lat="39.684095" lon="-8.633108">
<ele>290.5</ele>
<desc>Speed 12.1 km/h Distance 67.66 km</desc>
<time>2011-05-22T12:23:47.84</time>
<name>14432</name>
<sym>Dot</sym>
</trkpt>
<trkpt lat="39.684082" lon="-8.633145">
<ele>290.0</ele>
<desc>Speed 12.2 km/h Distance 67.66 km</desc>
<time>2011-05-22T12:23:48.84</time>
<name>14433</name>
<sym>Dot</sym>
</trkpt>
<trkpt lat="39.684068" lon="-8.633180">
<ele>290.0</ele>
<desc>Speed 12.0 km/h Distance 67.66 km</desc>
<time>2011-05-22T12:23:49.84</time>
<name>14434</name>
<sym>Dot</sym>
</trkpt>
<trkpt lat="39.684057" lon="-8.633217">
<ele>290.0</ele>
<desc>Speed 12.1 km/h Distance 67.67 km</desc>
<time>2011-05-22T12:23:50.84</time>
<name>14435</name>
<sym>Dot</sym>
</trkpt>
<trkpt lat="39.684045" lon="-8.633255">
<ele>290.0</ele>
<desc>Speed 12.0 km/h Distance 67.67 km</desc>
<time>2011-05-22T12:23:51.84</time>
<name>14436</name>
<sym>Dot</sym>
</trkpt>
<trkpt lat="39.684032" lon="-8.633293">
<ele>290.0</ele>
<desc>Speed 12.3 km/h Distance 67.67 km</desc>
<time>2011-05-22T12:23:52.84</time>
<name>14437</name>
<sym>Dot</sym>
</trkpt>
<trkpt lat="39.684018" lon="-8.633333">
<ele>289.5</ele>
<desc>Speed 12.7 km/h Distance 67.68 km</desc>
<time>2011-05-22T12:23:53.84</time>
<name>14438</name>
<sym>Dot</sym>
</trkpt>
<trkpt lat="39.684005" lon="-8.633370">
<ele>289.5</ele>
<desc>Speed 12.3 km/h Distance 67.68 km</desc>
<time>2011-05-22T12:23:54.84</time>
<name>14439</name>
<sym>Dot</sym>
</trkpt>
<trkpt lat="39.683992" lon="-8.633410">
<ele>289.5</ele>
<desc>Speed 12.8 km/h Distance 67.68 km</desc>
<time>2011-05-22T12:23:55.84</time>
<name>14440</name>
<sym>Dot</sym>
</trkpt>
<trkpt lat="39.683980" lon="-8.633450">
<ele>289.5</ele>
<desc>Speed 13.0 km/h Distance 67.69 km</desc>
<time>2011-05-22T12:23:56.84</time>
<name>14441</name>
<sym>Dot</sym>
</trkpt>
<trkpt lat="39.683967" lon="-8.633488">
<ele>289.5</ele>
<desc>Speed 12.5 km/h Distance 67.69 km</desc>
<time>2011-05-22T12:23:57.84</time>
<name>14442</name>
<sym>Dot</sym>
</trkpt>
<trkpt lat="39.683953" lon="-8.633527">
<ele>289.0</ele>
<desc>Speed 12.5 km/h Distance 67.69 km</desc>
<time>2011-05-22T12:23:58.84</time>
<name>14443</name>
<sym>Dot</sym>
</trkpt>
<trkpt lat="39.683942" lon="-8.633563">
<ele>289.5</ele>
<desc>Speed 12.0 km/h Distance 67.70 km</desc>
<time>2011-05-22T12:23:59.84</time>
<name>14444</name>
<sym>Dot</sym>
</trkpt>
<trkpt lat="39.683930" lon="-8.633600">
<ele>289.5</ele>
<desc>Speed 12.0 km/h Distance 67.70 km</desc>
<time>2011-05-22T12:24:00.84</time>
<name>14445</name>
<sym>Dot</sym>
</trkpt>
<trkpt lat="39.683918" lon="-8.633635">
<ele>289.5</ele>
<desc>Speed 11.5 km/h Distance 67.70 km</desc>
<time>2011-05-22T12:24:01.84</time>
<name>14446</name>
<sym>Dot</sym>
</trkpt>
<trkpt lat="39.683907" lon="-8.633672">
<ele>289.5</ele>
<desc>Speed 11.6 km/h Distance 67.71 km</desc>
<time>2011-05-22T12:24:02.84</time>
<name>14447</name>
<sym>Dot</sym>
</trkpt>
<trkpt lat="39.683897" lon="-8.633708">
<ele>289.5</ele>
<desc>Speed 11.8 km/h Distance 67.71 km</desc>
<time>2011-05-22T12:24:03.84</time>
<name>14448</name>
<sym>Dot</sym>
</trkpt>
<trkpt lat="39.683888" lon="-8.633745">
<ele>289.5</ele>
<desc>Speed 11.6 km/h Distance 67.71 km</desc>
<time>2011-05-22T12:24:04.84</time>
<name>14449</name>
<sym>Dot</sym>
</trkpt>
<trkpt lat="39.683878" lon="-8.633783">
<ele>289.5</ele>
<desc>Speed 12.0 km/h Distance 67.72 km</desc>
<time>2011-05-22T12:24:05.84</time>
<name>14450</name>
<sym>Dot</sym>
</trkpt>
<trkpt lat="39.683870" lon="-8.633823">
<ele>289.5</ele>
<desc>Speed 12.3 km/h Distance 67.72 km</desc>
<time>2011-05-22T12:24:06.84</time>
<name>14451</name>
<sym>Dot</sym>
</trkpt>
<trkpt lat="39.683862" lon="-8.633862">
<ele>290.0</ele>
<desc>Speed 11.9 km/h Distance 67.72 km</desc>
<time>2011-05-22T12:24:07.84</time>
<name>14452</name>
<sym>Dot</sym>
</trkpt>
<trkpt lat="39.683857" lon="-8.633898">
<ele>290.0</ele>
<desc>Speed 11.4 km/h Distance 67.73 km</desc>
<time>2011-05-22T12:24:08.84</time>
<name>14453</name>
<sym>Dot</sym>
</trkpt>
<trkpt lat="39.683852" lon="-8.633935">
<ele>290.0</ele>
<desc>Speed 10.6 km/h Distance 67.73 km</desc>
<time>2011-05-22T12:24:09.84</time>
<name>14454</name>
<sym>Dot</sym>
</trkpt>
<trkpt lat="39.683847" lon="-8.633968">
<ele>290.0</ele>
<desc>Speed 10.5 km/h Distance 67.73 km</desc>
<time>2011-05-22T12:24:10.84</time>
<name>14455</name>
<sym>Dot</sym>
</trkpt>
<trkpt lat="39.683842" lon="-8.634002">
<ele>289.5</ele>
<desc>Speed 9.9 km/h Distance 67.74 km</desc>
<time>2011-05-22T12:24:11.84</time>
<name>14456</name>
<sym>Dot</sym>
</trkpt>
<trkpt lat="39.683838" lon="-8.634035">
<ele>289.5</ele>
<desc>Speed 9.8 km/h Distance 67.74 km</desc>
<time>2011-05-22T12:24:12.84</time>
<name>14457</name>
<sym>Dot</sym>
</trkpt>
<trkpt lat="39.683833" lon="-8.634067">
<ele>289.5</ele>
<desc>Speed 9.6 km/h Distance 67.74 km</desc>
<time>2011-05-22T12:24:13.84</time>
<name>14458</name>
<sym>Dot</sym>
</trkpt>
<trkpt lat="39.683830" lon="-8.634097">
<ele>289.5</ele>
<desc>Speed 9.0 km/h Distance 67.75 km</desc>
<time>2011-05-22T12:24:14.84</time>
<name>14459</name>
<sym>Dot</sym>
</trkpt>
<trkpt lat="39.683825" lon="-8.634127">
<ele>289.5</ele>
<desc>Speed 8.9 km/h Distance 67.75 km</desc>
<time>2011-05-22T12:24:15.84</time>
<name>14460</name>
<sym>Dot</sym>
</trkpt>
<trkpt lat="39.683822" lon="-8.634157">
<ele>289.5</ele>
<desc>Speed 9.0 km/h Distance 67.75 km</desc>
<time>2011-05-22T12:24:16.84</time>
<name>14461</name>
<sym>Dot</sym>
</trkpt>
<trkpt lat="39.683818" lon="-8.634185">
<ele>289.5</ele>
<desc>Speed 8.7 km/h Distance 67.75 km</desc>
<time>2011-05-22T12:24:17.84</time>
<name>14462</name>
<sym>Dot</sym>
</trkpt>
<trkpt lat="39.683815" lon="-8.634212">
<ele>289.5</ele>
<desc>Speed 8.0 km/h Distance 67.76 km</desc>
<time>2011-05-22T12:24:18.84</time>
<name>14463</name>
<sym>Dot</sym>
</trkpt>
<trkpt lat="39.683813" lon="-8.634235">
<ele>289.5</ele>
<desc>Speed 7.2 km/h Distance 67.76 km</desc>
<time>2011-05-22T12:24:19.84</time>
<name>14464</name>
<sym>Dot</sym>
</trkpt>
<trkpt lat="39.683810" lon="-8.634258">
<ele>289.5</ele>
<desc>Speed 6.9 km/h Distance 67.76 km</desc>
<time>2011-05-22T12:24:20.84</time>
<name>14465</name>
<sym>Dot</sym>
</trkpt>
<trkpt lat="39.683805" lon="-8.634278">
<ele>289.5</ele>
<desc>Speed 6.2 km/h Distance 67.76 km</desc>
<time>2011-05-22T12:24:21.84</time>
<name>14466</name>
<sym>Dot</sym>
</trkpt>
<trkpt lat="39.683800" lon="-8.634298">
<ele>289.5</ele>
<desc>Speed 6.1 km/h Distance 67.76 km</desc>
<time>2011-05-22T12:24:22.84</time>
<name>14467</name>
<sym>Dot</sym>
</trkpt>
<trkpt lat="39.683795" lon="-8.634318">
<ele>290.0</ele>
<desc>Speed 6.0 km/h Distance 67.76 km</desc>
<time>2011-05-22T12:24:23.84</time>
<name>14468</name>
<sym>Dot</sym>
</trkpt>
<trkpt lat="39.683792" lon="-8.634335">
<ele>290.0</ele>
<desc>Speed 5.3 km/h Distance 67.77 km</desc>
<time>2011-05-22T12:24:24.84</time>
<name>14469</name>
<sym>Dot</sym>
</trkpt>
<trkpt lat="39.683792" lon="-8.634348">
<ele>290.5</ele>
<desc>Speed 4.0 km/h Distance 67.77 km</desc>
<time>2011-05-22T12:24:25.84</time>
<name>14470</name>
<sym>Dot</sym>
</trkpt>
<trkpt lat="39.683793" lon="-8.634360">
<ele>291.0</ele>
<desc>Speed 3.8 km/h Distance 67.77 km</desc>
<time>2011-05-22T12:24:26.84</time>
<name>14471</name>
<sym>Dot</sym>
</trkpt>
<trkpt lat="39.683795" lon="-8.634373">
<ele>291.5</ele>
<desc>Speed 3.7 km/h Distance 67.77 km</desc>
<time>2011-05-22T12:24:27.84</time>
<name>14472</name>
<sym>Dot</sym>
</trkpt>
<trkpt lat="39.683795" lon="-8.634383">
<ele>292.0</ele>
<desc>Speed 3.3 km/h Distance 67.77 km</desc>
<time>2011-05-22T12:24:28.84</time>
<name>14473</name>
<sym>Dot</sym>
</trkpt>
<trkpt lat="39.683793" lon="-8.634395">
<ele>292.5</ele>
<desc>Speed 3.3 km/h Distance 67.77 km</desc>
<time>2011-05-22T12:24:29.84</time>
<name>14474</name>
<sym>Dot</sym>
</trkpt>
<trkpt lat="39.683790" lon="-8.634405">
<ele>293.0</ele>
<desc>Speed 3.5 km/h Distance 67.77 km</desc>
<time>2011-05-22T12:24:30.84</time>
<name>14475</name>
<sym>Dot</sym>
</trkpt>
<trkpt lat="39.683787" lon="-8.634415">
<ele>293.5</ele>
<desc>Speed 2.9 km/h Distance 67.77 km</desc>
<time>2011-05-22T12:24:31.84</time>
<name>14476</name>
<sym>Dot</sym>
</trkpt>
<trkpt lat="39.683790" lon="-8.634423">
<ele>294.5</ele>
<desc>Speed 3.1 km/h Distance 67.77 km</desc>
<time>2011-05-22T12:24:32.84</time>
<name>14477</name>
<sym>Dot</sym>
</trkpt>
<trkpt lat="39.683795" lon="-8.634432">
<ele>294.5</ele>
<desc>Speed 3.3 km/h Distance 67.77 km</desc>
<time>2011-05-22T12:24:33.84</time>
<name>14478</name>
<sym>Dot</sym>
</trkpt>
<trkpt lat="39.683798" lon="-8.634438">
<ele>295.0</ele>
<desc>Speed 2.4 km/h Distance 67.78 km</desc>
<time>2011-05-22T12:24:34.84</time>
<name>14479</name>
<sym>Dot</sym>
</trkpt>
<trkpt lat="39.683798" lon="-8.634447">
<ele>296.0</ele>
<desc>Speed 2.5 km/h Distance 67.78 km</desc>
<time>2011-05-22T12:24:35.84</time>
<name>14480</name>
<sym>Dot</sym>
</trkpt>
<trkpt lat="39.683795" lon="-8.634453">
<ele>296.5</ele>
<desc>Speed 2.4 km/h Distance 67.78 km</desc>
<time>2011-05-22T12:24:36.84</time>
<name>14481</name>
<sym>Dot</sym>
</trkpt>
<trkpt lat="39.683793" lon="-8.634463">
<ele>297.5</ele>
<desc>Speed 2.7 km/h Distance 67.78 km</desc>
<time>2011-05-22T12:24:37.84</time>
<name>14482</name>
<sym>Dot</sym>
</trkpt>
<trkpt lat="39.683790" lon="-8.634470">
<ele>298.0</ele>
<desc>Speed 2.9 km/h Distance 67.78 km</desc>
<time>2011-05-22T12:24:38.84</time>
<name>14483</name>
<sym>Dot</sym>
</trkpt>
<trkpt lat="39.683787" lon="-8.634470">
<ele>298.5</ele>
<desc>Speed 1.7 km/h Distance 67.78 km</desc>
<time>2011-05-22T12:24:39.84</time>
<name>14484</name>
<sym>Dot</sym>
</trkpt>
<trkpt lat="39.683783" lon="-8.634462">
<ele>298.5</ele>
<desc>Speed 3.1 km/h Distance 67.78 km</desc>
<time>2011-05-22T12:24:40.84</time>
<name>14485</name>
<sym>Dot</sym>
</trkpt>
<trkpt lat="39.683783" lon="-8.634453">
<ele>299.0</ele>
<desc>Speed 3.0 km/h Distance 67.78 km</desc>
<time>2011-05-22T12:24:41.84</time>
<name>14486</name>
<sym>Dot</sym>
</trkpt>
<trkpt lat="39.683785" lon="-8.634450">
<ele>299.0</ele>
<desc>Speed 1.4 km/h Distance 67.78 km</desc>
<time>2011-05-22T12:24:42.84</time>
<name>14487</name>
<sym>Dot</sym>
</trkpt>
<trkpt lat="39.683788" lon="-8.634473">
<ele>295.0</ele>
<desc>Speed 2.1 km/h Distance 67.78 km</desc>
<time>2011-05-22T12:25:18.84</time>
<name>14488</name>
<sym>Dot</sym>
</trkpt>
<trkpt lat="39.683792" lon="-8.634482">
<ele>293.5</ele>
<desc>Speed 1.7 km/h Distance 67.78 km</desc>
<time>2011-05-22T12:25:44.84</time>
<name>14489</name>
<sym>Dot</sym>
</trkpt>
<trkpt lat="39.683797" lon="-8.634487">
<ele>294.0</ele>
<desc>Speed 1.3 km/h Distance 67.78 km</desc>
<time>2011-05-22T12:25:48.84</time>
<name>14490</name>
<sym>Dot</sym>
</trkpt>
<trkpt lat="39.683817" lon="-8.634493">
<ele>294.0</ele>
<desc>Speed 6.8 km/h Distance 67.79 km</desc>
<time>2011-05-22T12:25:54.12</time>
<name>14491</name>
<sym>Dot</sym>
</trkpt>
<trkpt lat="39.683820" lon="-8.634498">
<ele>293.0</ele>
<desc>Speed 1.6 km/h Distance 67.79 km</desc>
<time>2011-05-22T12:26:02.86</time>
<name>14492</name>
<sym>Dot</sym>
</trkpt>
<trkpt lat="39.683827" lon="-8.634515">
<ele>291.5</ele>
<desc>Speed 1.2 km/h Distance 67.79 km</desc>
<time>2011-05-22T12:26:28.14</time>
<name>14493</name>
<sym>Dot</sym>
</trkpt>
<trkpt lat="39.683828" lon="-8.634523">
<ele>291.5</ele>
<desc>Speed 1.4 km/h Distance 67.79 km</desc>
<time>2011-05-22T12:26:40.61</time>
<name>14494</name>
<sym>Dot</sym>
</trkpt>
<trkpt lat="39.683837" lon="-8.634528">
<ele>292.0</ele>
<desc>Speed 3.6 km/h Distance 67.79 km</desc>
<time>2011-05-22T12:26:42.61</time>
<name>14495</name>
<sym>Dot</sym>
</trkpt>
<trkpt lat="39.683843" lon="-8.634530">
<ele>292.0</ele>
<desc>Speed 2.4 km/h Distance 67.79 km</desc>
<time>2011-05-22T12:26:43.60</time>
<name>14496</name>
<sym>Dot</sym>
</trkpt>
<trkpt lat="39.683842" lon="-8.634527">
<ele>292.5</ele>
<desc>Speed 1.3 km/h Distance 67.79 km</desc>
<time>2011-05-22T12:26:45.60</time>
<name>14497</name>
<sym>Dot</sym>
</trkpt>
<trkpt lat="39.683828" lon="-8.634517">
<ele>292.0</ele>
<desc>Speed 1.2 km/h Distance 67.79 km</desc>
<time>2011-05-22T12:26:58.59</time>
<name>14498</name>
<sym>Dot</sym>
</trkpt>
<trkpt lat="39.683823" lon="-8.634525">
<ele>292.0</ele>
<desc>Speed 1.9 km/h Distance 67.79 km</desc>
<time>2011-05-22T12:26:59.59</time>
<name>14499</name>
<sym>Dot</sym>
</trkpt>
<trkpt lat="39.683818" lon="-8.634533">
<ele>292.5</ele>
<desc>Speed 2.9 km/h Distance 67.80 km</desc>
<time>2011-05-22T12:27:00.59</time>
<name>14500</name>
<sym>Dot</sym>
</trkpt>
<trkpt lat="39.683813" lon="-8.634543">
<ele>293.0</ele>
<desc>Speed 3.2 km/h Distance 67.80 km</desc>
<time>2011-05-22T12:27:01.58</time>
<name>14501</name>
<sym>Dot</sym>
</trkpt>
<trkpt lat="39.683808" lon="-8.634550">
<ele>293.0</ele>
<desc>Speed 2.5 km/h Distance 67.80 km</desc>
<time>2011-05-22T12:27:02.58</time>
<name>14502</name>
<sym>Dot</sym>
</trkpt>
<trkpt lat="39.683805" lon="-8.634555">
<ele>293.0</ele>
<desc>Speed 2.3 km/h Distance 67.80 km</desc>
<time>2011-05-22T12:27:03.57</time>
<name>14503</name>
<sym>Dot</sym>
</trkpt>
<trkpt lat="39.683847" lon="-8.634572">
<ele>290.5</ele>
<desc>Speed 1.4 km/h Distance 67.80 km</desc>
<time>2011-05-22T12:30:05.55</time>
<name>14504</name>
<sym>Dot</sym>
</trkpt>
<trkpt lat="39.683860" lon="-8.634580">
<ele>290.5</ele>
<desc>Speed 2.0 km/h Distance 67.80 km</desc>
<time>2011-05-22T12:30:37.54</time>
<name>14505</name>
<sym>Dot</sym>
</trkpt>
<trkpt lat="39.683865" lon="-8.634578">
<ele>291.0</ele>
<desc>Speed 1.1 km/h Distance 67.80 km</desc>
<time>2011-05-22T12:31:38.53</time>
<name>14506</name>
<sym>Dot</sym>
</trkpt>
<trkpt lat="39.683860" lon="-8.634577">
<ele>290.5</ele>
<desc>Speed 1.7 km/h Distance 67.81 km</desc>
<time>2011-05-22T12:31:41.53</time>
<name>14507</name>
<sym>Dot</sym>
</trkpt>
<trkpt lat="39.683870" lon="-8.634578">
<ele>290.5</ele>
<desc>Speed 3.4 km/h Distance 67.81 km</desc>
<time>2011-05-22T12:31:47.53</time>
<name>14508</name>
<sym>Dot</sym>
</trkpt>
<trkpt lat="39.683870" lon="-8.634577">
<ele>290.0</ele>
<desc>Speed 1.5 km/h Distance 67.81 km</desc>
<time>2011-05-22T12:31:53.52</time>
<name>14509</name>
<sym>Dot</sym>
</trkpt>
<trkpt lat="39.683867" lon="-8.634577">
<ele>290.0</ele>
<desc>Speed 1.1 km/h Distance 67.81 km</desc>
<time>2011-05-22T12:31:54.52</time>
<name>14510</name>
<sym>Dot</sym>
</trkpt>
<trkpt lat="39.683862" lon="-8.634573">
<ele>290.0</ele>
<desc>Speed 2.2 km/h Distance 67.81 km</desc>
<time>2011-05-22T12:31:56.51</time>
<name>14511</name>
<sym>Dot</sym>
</trkpt>
<trkpt lat="39.683865" lon="-8.634573">
<ele>289.5</ele>
<desc>Speed 1.3 km/h Distance 67.81 km</desc>
<time>2011-05-22T12:32:01.51</time>
<name>14512</name>
<sym>Dot</sym>
</trkpt>
<trkpt lat="39.683855" lon="-8.634568">
<ele>289.5</ele>
<desc>Speed 1.1 km/h Distance 67.81 km</desc>
<time>2011-05-22T12:32:06.50</time>
<name>14513</name>
<sym>Dot</sym>
</trkpt>
<trkpt lat="39.683830" lon="-8.634562">
<ele>289.0</ele>
<desc>Speed 1.7 km/h Distance 67.81 km</desc>
<time>2011-05-22T12:32:13.50</time>
<name>14514</name>
<sym>Dot</sym>
</trkpt>
<trkpt lat="39.683857" lon="-8.634567">
<ele>288.5</ele>
<desc>Speed 1.1 km/h Distance 67.81 km</desc>
<time>2011-05-22T12:35:09.48</time>
<name>14515</name>
<sym>Dot</sym>
</trkpt>
<trkpt lat="39.683850" lon="-8.634567">
<ele>289.5</ele>
<desc>Speed 1.4 km/h Distance 67.82 km</desc>
<time>2011-05-22T12:36:36.48</time>
<name>14516</name>
<sym>Dot</sym>
</trkpt>
<trkpt lat="39.683848" lon="-8.634575">
<ele>289.0</ele>
<desc>Speed 1.5 km/h Distance 67.82 km</desc>
<time>2011-05-22T12:37:30.47</time>
<name>14517</name>
<sym>Dot</sym>
</trkpt>
<trkpt lat="39.683850" lon="-8.634568">
<ele>289.5</ele>
<desc>Speed 2.9 km/h Distance 67.82 km</desc>
<time>2011-05-22T12:37:31.46</time>
<name>14518</name>
<sym>Dot</sym>
</trkpt>
<trkpt lat="39.683852" lon="-8.634565">
<ele>290.5</ele>
<desc>Speed 2.3 km/h Distance 67.82 km</desc>
<time>2011-05-22T12:37:32.46</time>
<name>14519</name>
<sym>Dot</sym>
</trkpt>
<trkpt lat="39.683852" lon="-8.634563">
<ele>291.0</ele>
<desc>Speed 1.8 km/h Distance 67.82 km</desc>
<time>2011-05-22T12:37:33.46</time>
<name>14520</name>
<sym>Dot</sym>
</trkpt>
<trkpt lat="39.683853" lon="-8.634552">
<ele>291.5</ele>
<desc>Speed 3.7 km/h Distance 67.82 km</desc>
<time>2011-05-22T12:37:34.46</time>
<name>14521</name>
<sym>Dot</sym>
</trkpt>
<trkpt lat="39.683852" lon="-8.634547">
<ele>291.5</ele>
<desc>Speed 1.5 km/h Distance 67.82 km</desc>
<time>2011-05-22T12:37:35.46</time>
<name>14522</name>
<sym>Dot</sym>
</trkpt>
<trkpt lat="39.683842" lon="-8.634555">
<ele>292.5</ele>
<desc>Speed 1.3 km/h Distance 67.82 km</desc>
<time>2011-05-22T12:38:21.45</time>
<name>14523</name>
<sym>Dot</sym>
</trkpt>
<trkpt lat="39.683842" lon="-8.634548">
<ele>293.0</ele>
<desc>Speed 2.3 km/h Distance 67.82 km</desc>
<time>2011-05-22T12:38:22.45</time>
<name>14524</name>
<sym>Dot</sym>
</trkpt>
<trkpt lat="39.683843" lon="-8.634540">
<ele>293.5</ele>
<desc>Speed 2.5 km/h Distance 67.82 km</desc>
<time>2011-05-22T12:38:23.45</time>
<name>14525</name>
<sym>Dot</sym>
</trkpt>
<trkpt lat="39.683845" lon="-8.634530">
<ele>293.5</ele>
<desc>Speed 3.1 km/h Distance 67.82 km</desc>
<time>2011-05-22T12:38:24.45</time>
<name>14526</name>
<sym>Dot</sym>
</trkpt>
<trkpt lat="39.683845" lon="-8.634518">
<ele>294.0</ele>
<desc>Speed 2.8 km/h Distance 67.82 km</desc>
<time>2011-05-22T12:38:25.45</time>
<name>14527</name>
<sym>Dot</sym>
</trkpt>
<trkpt lat="39.683845" lon="-8.634512">
<ele>294.5</ele>
<desc>Speed 2.1 km/h Distance 67.82 km</desc>
<time>2011-05-22T12:38:26.45</time>
<name>14528</name>
<sym>Dot</sym>
</trkpt>
<trkpt lat="39.683845" lon="-8.634503">
<ele>294.5</ele>
<desc>Speed 2.2 km/h Distance 67.82 km</desc>
<time>2011-05-22T12:38:27.44</time>
<name>14529</name>
<sym>Dot</sym>
</trkpt>
<trkpt lat="39.683843" lon="-8.634495">
<ele>295.0</ele>
<desc>Speed 2.5 km/h Distance 67.83 km</desc>
<time>2011-05-22T12:38:28.44</time>
<name>14530</name>
<sym>Dot</sym>
</trkpt>
<trkpt lat="39.683842" lon="-8.634488">
<ele>295.5</ele>
<desc>Speed 2.1 km/h Distance 67.83 km</desc>
<time>2011-05-22T12:38:29.44</time>
<name>14531</name>
<sym>Dot</sym>
</trkpt>
<trkpt lat="39.683840" lon="-8.634482">
<ele>295.5</ele>
<desc>Speed 1.9 km/h Distance 67.83 km</desc>
<time>2011-05-22T12:38:30.43</time>
<name>14532</name>
<sym>Dot</sym>
</trkpt>
<trkpt lat="39.683838" lon="-8.634473">
<ele>296.0</ele>
<desc>Speed 2.6 km/h Distance 67.83 km</desc>
<time>2011-05-22T12:38:31.42</time>
<name>14533</name>
<sym>Dot</sym>
</trkpt>
<trkpt lat="39.683835" lon="-8.634460">
<ele>297.0</ele>
<desc>Speed 3.6 km/h Distance 67.83 km</desc>
<time>2011-05-22T12:38:32.42</time>
<name>14534</name>
<sym>Dot</sym>
</trkpt>
<trkpt lat="39.683827" lon="-8.634453">
<ele>297.5</ele>
<desc>Speed 3.1 km/h Distance 67.83 km</desc>
<time>2011-05-22T12:38:33.42</time>
<name>14535</name>
<sym>Dot</sym>
</trkpt>
<trkpt lat="39.683817" lon="-8.634452">
<ele>298.5</ele>
<desc>Speed 3.6 km/h Distance 67.83 km</desc>
<time>2011-05-22T12:38:34.42</time>
<name>14536</name>
<sym>Dot</sym>
</trkpt>
<trkpt lat="39.683807" lon="-8.634450">
<ele>299.0</ele>
<desc>Speed 4.1 km/h Distance 67.83 km</desc>
<time>2011-05-22T12:38:35.42</time>
<name>14537</name>
<sym>Dot</sym>
</trkpt>
<trkpt lat="39.683800" lon="-8.634452">
<ele>299.0</ele>
<desc>Speed 2.4 km/h Distance 67.83 km</desc>
<time>2011-05-22T12:38:36.41</time>
<name>14538</name>
<sym>Dot</sym>
</trkpt>
<trkpt lat="39.683793" lon="-8.634448">
<ele>299.0</ele>
<desc>Speed 1.8 km/h Distance 67.83 km</desc>
<time>2011-05-22T12:38:39.40</time>
<name>14539</name>
<sym>Dot</sym>
</trkpt>
<trkpt lat="39.683787" lon="-8.634450">
<ele>299.5</ele>
<desc>Speed 2.5 km/h Distance 67.83 km</desc>
<time>2011-05-22T12:38:40.40</time>
<name>14540</name>
<sym>Dot</sym>
</trkpt>
<trkpt lat="39.683778" lon="-8.634452">
<ele>300.0</ele>
<desc>Speed 2.8 km/h Distance 67.84 km</desc>
<time>2011-05-22T12:38:41.39</time>
<name>14541</name>
<sym>Dot</sym>
</trkpt>
<trkpt lat="39.683768" lon="-8.634453">
<ele>300.5</ele>
<desc>Speed 2.9 km/h Distance 67.84 km</desc>
<time>2011-05-22T12:38:42.41</time>
<name>14542</name>
<sym>Dot</sym>
</trkpt>
<trkpt lat="39.683758" lon="-8.634458">
<ele>300.5</ele>
<desc>Speed 4.1 km/h Distance 67.84 km</desc>
<time>2011-05-22T12:38:43.38</time>
<name>14543</name>
<sym>Dot</sym>
</trkpt>
<trkpt lat="39.683748" lon="-8.634467">
<ele>301.0</ele>
<desc>Speed 4.8 km/h Distance 67.84 km</desc>
<time>2011-05-22T12:38:44.38</time>
<name>14544</name>
<sym>Dot</sym>
</trkpt>
<trkpt lat="39.683738" lon="-8.634480">
<ele>301.0</ele>
<desc>Speed 6.0 km/h Distance 67.84 km</desc>
<time>2011-05-22T12:38:45.38</time>
<name>14545</name>
<sym>Dot</sym>
</trkpt>
<trkpt lat="39.683727" lon="-8.634495">
<ele>301.0</ele>
<desc>Speed 6.6 km/h Distance 67.84 km</desc>
<time>2011-05-22T12:38:46.37</time>
<name>14546</name>
<sym>Dot</sym>
</trkpt>
<trkpt lat="39.683715" lon="-8.634507">
<ele>301.0</ele>
<desc>Speed 6.4 km/h Distance 67.84 km</desc>
<time>2011-05-22T12:38:47.36</time>
<name>14547</name>
<sym>Dot</sym>
</trkpt>
<trkpt lat="39.683705" lon="-8.634520">
<ele>301.0</ele>
<desc>Speed 6.4 km/h Distance 67.85 km</desc>
<time>2011-05-22T12:38:48.35</time>
<name>14548</name>
<sym>Dot</sym>
</trkpt>
<trkpt lat="39.683695" lon="-8.634532">
<ele>301.0</ele>
<desc>Speed 6.1 km/h Distance 67.85 km</desc>
<time>2011-05-22T12:38:49.35</time>
<name>14549</name>
<sym>Dot</sym>
</trkpt>
<trkpt lat="39.683683" lon="-8.634542">
<ele>301.5</ele>
<desc>Speed 5.8 km/h Distance 67.85 km</desc>
<time>2011-05-22T12:38:50.34</time>
<name>14550</name>
<sym>Dot</sym>
</trkpt>
<trkpt lat="39.683673" lon="-8.634550">
<ele>302.0</ele>
<desc>Speed 5.2 km/h Distance 67.85 km</desc>
<time>2011-05-22T12:38:51.35</time>
<name>14551</name>
<sym>Dot</sym>
</trkpt>
<trkpt lat="39.683665" lon="-8.634560">
<ele>302.0</ele>
<desc>Speed 4.9 km/h Distance 67.85 km</desc>
<time>2011-05-22T12:38:52.34</time>
<name>14552</name>
<sym>Dot</sym>
</trkpt>
<trkpt lat="39.683655" lon="-8.634570">
<ele>302.5</ele>
<desc>Speed 5.4 km/h Distance 67.85 km</desc>
<time>2011-05-22T12:38:53.34</time>
<name>14553</name>
<sym>Dot</sym>
</trkpt>
<trkpt lat="39.683642" lon="-8.634583">
<ele>303.0</ele>
<desc>Speed 6.3 km/h Distance 67.85 km</desc>
<time>2011-05-22T12:38:54.33</time>
<name>14554</name>
<sym>Dot</sym>
</trkpt>
<trkpt lat="39.683630" lon="-8.634597">
<ele>304.0</ele>
<desc>Speed 6.7 km/h Distance 67.86 km</desc>
<time>2011-05-22T12:38:55.33</time>
<name>14555</name>
<sym>Dot</sym>
</trkpt>
<trkpt lat="39.683617" lon="-8.634603">
<ele>304.0</ele>
<desc>Speed 5.2 km/h Distance 67.86 km</desc>
<time>2011-05-22T12:38:56.32</time>
<name>14556</name>
<sym>Dot</sym>
</trkpt>
<trkpt lat="39.683610" lon="-8.634605">
<ele>304.0</ele>
<desc>Speed 2.4 km/h Distance 67.86 km</desc>
<time>2011-05-22T12:38:57.32</time>
<name>14557</name>
<sym>Dot</sym>
</trkpt>
<trkpt lat="39.683598" lon="-8.634595">
<ele>303.0</ele>
<desc>Speed 1.5 km/h Distance 67.86 km</desc>
<time>2011-05-22T12:39:06.33</time>
<name>14558</name>
<sym>Dot</sym>
</trkpt>
<trkpt lat="39.683593" lon="-8.634598">
<ele>303.0</ele>
<desc>Speed 2.2 km/h Distance 67.86 km</desc>
<time>2011-05-22T12:39:07.30</time>
<name>14559</name>
<sym>Dot</sym>
</trkpt>
<trkpt lat="39.683587" lon="-8.634605">
<ele>302.5</ele>
<desc>Speed 3.1 km/h Distance 67.86 km</desc>
<time>2011-05-22T12:39:08.30</time>
<name>14560</name>
<sym>Dot</sym>
</trkpt>
<trkpt lat="39.683582" lon="-8.634608">
<ele>302.5</ele>
<desc>Speed 2.6 km/h Distance 67.86 km</desc>
<time>2011-05-22T12:39:09.30</time>
<name>14561</name>
<sym>Dot</sym>
</trkpt>
<trkpt lat="39.683573" lon="-8.634610">
<ele>303.0</ele>
<desc>Speed 2.9 km/h Distance 67.86 km</desc>
<time>2011-05-22T12:39:10.29</time>
<name>14562</name>
<sym>Dot</sym>
</trkpt>
<trkpt lat="39.683560" lon="-8.634615">
<ele>303.0</ele>
<desc>Speed 5.3 km/h Distance 67.86 km</desc>
<time>2011-05-22T12:39:11.29</time>
<name>14563</name>
<sym>Dot</sym>
</trkpt>
<trkpt lat="39.683548" lon="-8.634627">
<ele>303.5</ele>
<desc>Speed 6.2 km/h Distance 67.87 km</desc>
<time>2011-05-22T12:39:12.29</time>
<name>14564</name>
<sym>Dot</sym>
</trkpt>
<trkpt lat="39.683540" lon="-8.634637">
<ele>303.5</ele>
<desc>Speed 4.8 km/h Distance 67.87 km</desc>
<time>2011-05-22T12:39:13.28</time>
<name>14565</name>
<sym>Dot</sym>
</trkpt>
<trkpt lat="39.683532" lon="-8.634643">
<ele>303.5</ele>
<desc>Speed 3.7 km/h Distance 67.87 km</desc>
<time>2011-05-22T12:39:14.28</time>
<name>14566</name>
<sym>Dot</sym>
</trkpt>
<trkpt lat="39.683522" lon="-8.634647">
<ele>304.0</ele>
<desc>Speed 3.7 km/h Distance 67.87 km</desc>
<time>2011-05-22T12:39:15.27</time>
<name>14567</name>
<sym>Dot</sym>
</trkpt>
<trkpt lat="39.683513" lon="-8.634647">
<ele>304.5</ele>
<desc>Speed 3.2 km/h Distance 67.87 km</desc>
<time>2011-05-22T12:39:16.28</time>
<name>14568</name>
<sym>Dot</sym>
</trkpt>
<trkpt lat="39.683503" lon="-8.634650">
<ele>304.5</ele>
<desc>Speed 3.2 km/h Distance 67.87 km</desc>
<time>2011-05-22T12:39:17.27</time>
<name>14569</name>
<sym>Dot</sym>
</trkpt>
<trkpt lat="39.683493" lon="-8.634658">
<ele>304.5</ele>
<desc>Speed 4.5 km/h Distance 67.87 km</desc>
<time>2011-05-22T12:39:18.27</time>
<name>14570</name>
<sym>Dot</sym>
</trkpt>
<trkpt lat="39.683482" lon="-8.634668">
<ele>305.0</ele>
<desc>Speed 5.5 km/h Distance 67.87 km</desc>
<time>2011-05-22T12:39:19.27</time>
<name>14571</name>
<sym>Dot</sym>
</trkpt>
<trkpt lat="39.683468" lon="-8.634678">
<ele>305.0</ele>
<desc>Speed 5.4 km/h Distance 67.88 km</desc>
<time>2011-05-22T12:39:20.26</time>
<name>14572</name>
<sym>Dot</sym>
</trkpt>
<trkpt lat="39.683453" lon="-8.634685">
<ele>305.5</ele>
<desc>Speed 6.3 km/h Distance 67.88 km</desc>
<time>2011-05-22T12:39:21.26</time>
<name>14573</name>
<sym>Dot</sym>
</trkpt>
<trkpt lat="39.683435" lon="-8.634698">
<ele>306.0</ele>
<desc>Speed 8.3 km/h Distance 67.88 km</desc>
<time>2011-05-22T12:39:22.26</time>
<name>14574</name>
<sym>Dot</sym>
</trkpt>
<trkpt lat="39.683413" lon="-8.634717">
<ele>306.0</ele>
<desc>Speed 10.1 km/h Distance 67.88 km</desc>
<time>2011-05-22T12:39:23.26</time>
<name>14575</name>
<sym>Dot</sym>
</trkpt>
<trkpt lat="39.683393" lon="-8.634735">
<ele>306.0</ele>
<desc>Speed 9.6 km/h Distance 67.89 km</desc>
<time>2011-05-22T12:39:24.25</time>
<name>14576</name>
<sym>Dot</sym>
</trkpt>
<trkpt lat="39.683375" lon="-8.634752">
<ele>306.5</ele>
<desc>Speed 9.1 km/h Distance 67.89 km</desc>
<time>2011-05-22T12:39:25.25</time>
<name>14577</name>
<sym>Dot</sym>
</trkpt>
<trkpt lat="39.683358" lon="-8.634770">
<ele>306.5</ele>
<desc>Speed 8.6 km/h Distance 67.89 km</desc>
<time>2011-05-22T12:39:26.24</time>
<name>14578</name>
<sym>Dot</sym>
</trkpt>
<trkpt lat="39.683343" lon="-8.634787">
<ele>307.0</ele>
<desc>Speed 8.0 km/h Distance 67.89 km</desc>
<time>2011-05-22T12:39:27.24</time>
<name>14579</name>
<sym>Dot</sym>
</trkpt>
<trkpt lat="39.683328" lon="-8.634807">
<ele>307.0</ele>
<desc>Speed 8.7 km/h Distance 67.90 km</desc>
<time>2011-05-22T12:39:28.24</time>
<name>14580</name>
<sym>Dot</sym>
</trkpt>
<trkpt lat="39.683310" lon="-8.634828">
<ele>307.0</ele>
<desc>Speed 10.0 km/h Distance 67.90 km</desc>
<time>2011-05-22T12:39:29.24</time>
<name>14581</name>
<sym>Dot</sym>
</trkpt>
<trkpt lat="39.683290" lon="-8.634848">
<ele>307.5</ele>
<desc>Speed 10.0 km/h Distance 67.90 km</desc>
<time>2011-05-22T12:39:30.23</time>
<name>14582</name>
<sym>Dot</sym>
</trkpt>
<trkpt lat="39.683273" lon="-8.634865">
<ele>308.0</ele>
<desc>Speed 8.4 km/h Distance 67.90 km</desc>
<time>2011-05-22T12:39:31.23</time>
<name>14583</name>
<sym>Dot</sym>
</trkpt>
<trkpt lat="39.683257" lon="-8.634877">
<ele>307.5</ele>
<desc>Speed 6.8 km/h Distance 67.91 km</desc>
<time>2011-05-22T12:39:32.22</time>
<name>14584</name>
<sym>Dot</sym>
</trkpt>
<trkpt lat="39.683243" lon="-8.634888">
<ele>308.0</ele>
<desc>Speed 6.8 km/h Distance 67.91 km</desc>
<time>2011-05-22T12:39:33.22</time>
<name>14585</name>
<sym>Dot</sym>
</trkpt>
<trkpt lat="39.683228" lon="-8.634900">
<ele>308.0</ele>
<desc>Speed 6.6 km/h Distance 67.91 km</desc>
<time>2011-05-22T12:39:34.22</time>
<name>14586</name>
<sym>Dot</sym>
</trkpt>
<trkpt lat="39.683215" lon="-8.634915">
<ele>308.5</ele>
<desc>Speed 6.9 km/h Distance 67.91 km</desc>
<time>2011-05-22T12:39:35.23</time>
<name>14587</name>
<sym>Dot</sym>
</trkpt>
<trkpt lat="39.683202" lon="-8.634928">
<ele>309.0</ele>
<desc>Speed 6.8 km/h Distance 67.91 km</desc>
<time>2011-05-22T12:39:36.22</time>
<name>14588</name>
<sym>Dot</sym>
</trkpt>
<trkpt lat="39.683185" lon="-8.634943">
<ele>309.0</ele>
<desc>Speed 7.8 km/h Distance 67.92 km</desc>
<time>2011-05-22T12:39:37.22</time>
<name>14589</name>
<sym>Dot</sym>
</trkpt>
<trkpt lat="39.683167" lon="-8.634960">
<ele>309.5</ele>
<desc>Speed 9.0 km/h Distance 67.92 km</desc>
<time>2011-05-22T12:39:38.21</time>
<name>14590</name>
<sym>Dot</sym>
</trkpt>
<trkpt lat="39.683145" lon="-8.634980">
<ele>309.5</ele>
<desc>Speed 10.0 km/h Distance 67.92 km</desc>
<time>2011-05-22T12:39:39.22</time>
<name>14591</name>
<sym>Dot</sym>
</trkpt>
<trkpt lat="39.683125" lon="-8.634998">
<ele>310.0</ele>
<desc>Speed 9.8 km/h Distance 67.92 km</desc>
<time>2011-05-22T12:39:40.21</time>
<name>14592</name>
<sym>Dot</sym>
</trkpt>
<trkpt lat="39.683107" lon="-8.635015">
<ele>311.0</ele>
<desc>Speed 9.3 km/h Distance 67.93 km</desc>
<time>2011-05-22T12:39:41.21</time>
<name>14593</name>
<sym>Dot</sym>
</trkpt>
<trkpt lat="39.683087" lon="-8.635035">
<ele>311.0</ele>
<desc>Speed 9.9 km/h Distance 67.93 km</desc>
<time>2011-05-22T12:39:42.21</time>
<name>14594</name>
<sym>Dot</sym>
</trkpt>
<trkpt lat="39.683063" lon="-8.635055">
<ele>311.0</ele>
<desc>Speed 10.4 km/h Distance 67.93 km</desc>
<time>2011-05-22T12:39:43.21</time>
<name>14595</name>
<sym>Dot</sym>
</trkpt>
<trkpt lat="39.683040" lon="-8.635070">
<ele>311.0</ele>
<desc>Speed 9.9 km/h Distance 67.93 km</desc>
<time>2011-05-22T12:39:44.21</time>
<name>14596</name>
<sym>Dot</sym>
</trkpt>
<trkpt lat="39.683018" lon="-8.635083">
<ele>311.0</ele>
<desc>Speed 9.8 km/h Distance 67.94 km</desc>
<time>2011-05-22T12:39:45.21</time>
<name>14597</name>
<sym>Dot</sym>
</trkpt>
<trkpt lat="39.682997" lon="-8.635093">
<ele>312.5</ele>
<desc>Speed 9.3 km/h Distance 67.94 km</desc>
<time>2011-05-22T12:39:46.20</time>
<name>14598</name>
<sym>Dot</sym>
</trkpt>
<trkpt lat="39.682977" lon="-8.635107">
<ele>314.5</ele>
<desc>Speed 8.8 km/h Distance 67.94 km</desc>
<time>2011-05-22T12:39:47.19</time>
<name>14599</name>
<sym>Dot</sym>
</trkpt>
<trkpt lat="39.682955" lon="-8.635118">
<ele>316.0</ele>
<desc>Speed 9.2 km/h Distance 67.95 km</desc>
<time>2011-05-22T12:39:48.19</time>
<name>14600</name>
<sym>Dot</sym>
</trkpt>
<trkpt lat="39.682928" lon="-8.635130">
<ele>316.0</ele>
<desc>Speed 10.8 km/h Distance 67.95 km</desc>
<time>2011-05-22T12:39:49.19</time>
<name>14601</name>
<sym>Dot</sym>
</trkpt>
<trkpt lat="39.682907" lon="-8.635152">
<ele>317.0</ele>
<desc>Speed 11.7 km/h Distance 67.95 km</desc>
<time>2011-05-22T12:39:50.18</time>
<name>14602</name>
<sym>Dot</sym>
</trkpt>
<trkpt lat="39.682880" lon="-8.635175">
<ele>318.0</ele>
<desc>Speed 12.2 km/h Distance 67.96 km</desc>
<time>2011-05-22T12:39:51.18</time>
<name>14603</name>
<sym>Dot</sym>
</trkpt>
<trkpt lat="39.682857" lon="-8.635190">
<ele>319.5</ele>
<desc>Speed 10.6 km/h Distance 67.96 km</desc>
<time>2011-05-22T12:39:52.18</time>
<name>14604</name>
<sym>Dot</sym>
</trkpt>
<trkpt lat="39.682833" lon="-8.635217">
<ele>319.5</ele>
<desc>Speed 12.0 km/h Distance 67.96 km</desc>
<time>2011-05-22T12:39:53.17</time>
<name>14605</name>
<sym>Dot</sym>
</trkpt>
<trkpt lat="39.682808" lon="-8.635237">
<ele>319.5</ele>
<desc>Speed 11.7 km/h Distance 67.96 km</desc>
<time>2011-05-22T12:39:54.16</time>
<name>14606</name>
<sym>Dot</sym>
</trkpt>
<trkpt lat="39.682783" lon="-8.635257">
<ele>319.0</ele>
<desc>Speed 11.5 km/h Distance 67.97 km</desc>
<time>2011-05-22T12:39:55.16</time>
<name>14607</name>
<sym>Dot</sym>
</trkpt>
<trkpt lat="39.682757" lon="-8.635275">
<ele>319.0</ele>
<desc>Speed 11.4 km/h Distance 67.97 km</desc>
<time>2011-05-22T12:39:56.16</time>
<name>14608</name>
<sym>Dot</sym>
</trkpt>
<trkpt lat="39.682735" lon="-8.635292">
<ele>321.0</ele>
<desc>Speed 10.5 km/h Distance 67.97 km</desc>
<time>2011-05-22T12:39:57.15</time>
<name>14609</name>
<sym>Dot</sym>
</trkpt>
<trkpt lat="39.682712" lon="-8.635310">
<ele>322.5</ele>
<desc>Speed 10.5 km/h Distance 67.98 km</desc>
<time>2011-05-22T12:39:58.15</time>
<name>14610</name>
<sym>Dot</sym>
</trkpt>
<trkpt lat="39.682688" lon="-8.635330">
<ele>324.5</ele>
<desc>Speed 10.8 km/h Distance 67.98 km</desc>
<time>2011-05-22T12:39:59.14</time>
<name>14611</name>
<sym>Dot</sym>
</trkpt>
<trkpt lat="39.682660" lon="-8.635348">
<ele>324.5</ele>
<desc>Speed 11.9 km/h Distance 67.98 km</desc>
<time>2011-05-22T12:40:00.14</time>
<name>14612</name>
<sym>Dot</sym>
</trkpt>
<trkpt lat="39.682637" lon="-8.635367">
<ele>326.0</ele>
<desc>Speed 10.6 km/h Distance 67.99 km</desc>
<time>2011-05-22T12:40:01.14</time>
<name>14613</name>
<sym>Dot</sym>
</trkpt>
<trkpt lat="39.682613" lon="-8.635387">
<ele>327.0</ele>
<desc>Speed 11.0 km/h Distance 67.99 km</desc>
<time>2011-05-22T12:40:02.14</time>
<name>14614</name>
<sym>Dot</sym>
</trkpt>
<trkpt lat="39.682595" lon="-8.635412">
<ele>328.5</ele>
<desc>Speed 10.5 km/h Distance 67.99 km</desc>
<time>2011-05-22T12:40:03.13</time>
<name>14615</name>
<sym>Dot</sym>
</trkpt>
<trkpt lat="39.682573" lon="-8.635432">
<ele>330.0</ele>
<desc>Speed 9.9 km/h Distance 68.00 km</desc>
<time>2011-05-22T12:40:04.13</time>
<name>14616</name>
<sym>Dot</sym>
</trkpt>
<trkpt lat="39.682548" lon="-8.635448">
<ele>331.5</ele>
<desc>Speed 10.7 km/h Distance 68.00 km</desc>
<time>2011-05-22T12:40:05.14</time>
<name>14617</name>
<sym>Dot</sym>
</trkpt>
<trkpt lat="39.682525" lon="-8.635468">
<ele>332.5</ele>
<desc>Speed 10.8 km/h Distance 68.00 km</desc>
<time>2011-05-22T12:40:06.13</time>
<name>14618</name>
<sym>Dot</sym>
</trkpt>
<trkpt lat="39.682500" lon="-8.635483">
<ele>333.5</ele>
<desc>Speed 10.5 km/h Distance 68.01 km</desc>
<time>2011-05-22T12:40:07.12</time>
<name>14619</name>
<sym>Dot</sym>
</trkpt>
<trkpt lat="39.682478" lon="-8.635505">
<ele>334.5</ele>
<desc>Speed 10.6 km/h Distance 68.01 km</desc>
<time>2011-05-22T12:40:08.12</time>
<name>14620</name>
<sym>Dot</sym>
</trkpt>
<trkpt lat="39.682455" lon="-8.635528">
<ele>335.5</ele>
<desc>Speed 11.1 km/h Distance 68.01 km</desc>
<time>2011-05-22T12:40:09.12</time>
<name>14621</name>
<sym>Dot</sym>
</trkpt>
<trkpt lat="39.682432" lon="-8.635557">
<ele>336.0</ele>
<desc>Speed 12.4 km/h Distance 68.02 km</desc>
<time>2011-05-22T12:40:10.11</time>
<name>14622</name>
<sym>Dot</sym>
</trkpt>
<trkpt lat="39.682405" lon="-8.635585">
<ele>336.0</ele>
<desc>Speed 12.5 km/h Distance 68.02 km</desc>
<time>2011-05-22T12:40:11.11</time>
<name>14623</name>
<sym>Dot</sym>
</trkpt>
<trkpt lat="39.682380" lon="-8.635612">
<ele>336.0</ele>
<desc>Speed 12.4 km/h Distance 68.02 km</desc>
<time>2011-05-22T12:40:12.12</time>
<name>14624</name>
<sym>Dot</sym>
</trkpt>
<trkpt lat="39.682357" lon="-8.635642">
<ele>336.0</ele>
<desc>Speed 12.2 km/h Distance 68.03 km</desc>
<time>2011-05-22T12:40:13.11</time>
<name>14625</name>
<sym>Dot</sym>
</trkpt>
<trkpt lat="39.682330" lon="-8.635660">
<ele>336.5</ele>
<desc>Speed 11.7 km/h Distance 68.03 km</desc>
<time>2011-05-22T12:40:14.11</time>
<name>14626</name>
<sym>Dot</sym>
</trkpt>
<trkpt lat="39.682303" lon="-8.635680">
<ele>337.5</ele>
<desc>Speed 11.1 km/h Distance 68.03 km</desc>
<time>2011-05-22T12:40:15.10</time>
<name>14627</name>
<sym>Dot</sym>
</trkpt>
<trkpt lat="39.682278" lon="-8.635702">
<ele>338.0</ele>
<desc>Speed 11.6 km/h Distance 68.04 km</desc>
<time>2011-05-22T12:40:16.09</time>
<name>14628</name>
<sym>Dot</sym>
</trkpt>
<trkpt lat="39.682255" lon="-8.635727">
<ele>338.5</ele>
<desc>Speed 11.8 km/h Distance 68.04 km</desc>
<time>2011-05-22T12:40:17.08</time>
<name>14629</name>
<sym>Dot</sym>
</trkpt>
<trkpt lat="39.682233" lon="-8.635752">
<ele>338.5</ele>
<desc>Speed 11.3 km/h Distance 68.04 km</desc>
<time>2011-05-22T12:40:18.08</time>
<name>14630</name>
<sym>Dot</sym>
</trkpt>
<trkpt lat="39.682213" lon="-8.635777">
<ele>339.0</ele>
<desc>Speed 11.2 km/h Distance 68.05 km</desc>
<time>2011-05-22T12:40:19.07</time>
<name>14631</name>
<sym>Dot</sym>
</trkpt>
<trkpt lat="39.682192" lon="-8.635803">
<ele>339.0</ele>
<desc>Speed 11.0 km/h Distance 68.05 km</desc>
<time>2011-05-22T12:40:20.07</time>
<name>14632</name>
<sym>Dot</sym>
</trkpt>
<trkpt lat="39.682170" lon="-8.635827">
<ele>339.0</ele>
<desc>Speed 11.0 km/h Distance 68.05 km</desc>
<time>2011-05-22T12:40:21.06</time>
<name>14633</name>
<sym>Dot</sym>
</trkpt>
<trkpt lat="39.682145" lon="-8.635843">
<ele>339.5</ele>
<desc>Speed 10.8 km/h Distance 68.06 km</desc>
<time>2011-05-22T12:40:22.05</time>
<name>14634</name>
<sym>Dot</sym>
</trkpt>
<trkpt lat="39.682120" lon="-8.635868">
<ele>339.0</ele>
<desc>Speed 10.7 km/h Distance 68.06 km</desc>
<time>2011-05-22T12:40:23.05</time>
<name>14635</name>
<sym>Dot</sym>
</trkpt>
<trkpt lat="39.682097" lon="-8.635893">
<ele>339.0</ele>
<desc>Speed 10.4 km/h Distance 68.06 km</desc>
<time>2011-05-22T12:40:24.05</time>
<name>14636</name>
<sym>Dot</sym>
</trkpt>
<trkpt lat="39.682077" lon="-8.635910">
<ele>340.0</ele>
<desc>Speed 9.4 km/h Distance 68.07 km</desc>
<time>2011-05-22T12:40:25.04</time>
<name>14637</name>
<sym>Dot</sym>
</trkpt>
<trkpt lat="39.682060" lon="-8.635928">
<ele>340.0</ele>
<desc>Speed 7.9 km/h Distance 68.07 km</desc>
<time>2011-05-22T12:40:26.04</time>
<name>14638</name>
<sym>Dot</sym>
</trkpt>
<trkpt lat="39.682042" lon="-8.635943">
<ele>340.5</ele>
<desc>Speed 7.5 km/h Distance 68.07 km</desc>
<time>2011-05-22T12:40:27.03</time>
<name>14639</name>
<sym>Dot</sym>
</trkpt>
<trkpt lat="39.682027" lon="-8.635958">
<ele>340.5</ele>
<desc>Speed 7.1 km/h Distance 68.07 km</desc>
<time>2011-05-22T12:40:28.04</time>
<name>14640</name>
<sym>Dot</sym>
</trkpt>
<trkpt lat="39.682010" lon="-8.635975">
<ele>341.0</ele>
<desc>Speed 7.5 km/h Distance 68.07 km</desc>
<time>2011-05-22T12:40:29.02</time>
<name>14641</name>
<sym>Dot</sym>
</trkpt>
<trkpt lat="39.681992" lon="-8.635993">
<ele>341.0</ele>
<desc>Speed 8.8 km/h Distance 68.08 km</desc>
<time>2011-05-22T12:40:30.02</time>
<name>14642</name>
<sym>Dot</sym>
</trkpt>
<trkpt lat="39.681972" lon="-8.636012">
<ele>341.5</ele>
<desc>Speed 9.1 km/h Distance 68.08 km</desc>
<time>2011-05-22T12:40:31.02</time>
<name>14643</name>
<sym>Dot</sym>
</trkpt>
<trkpt lat="39.681952" lon="-8.636030">
<ele>341.5</ele>
<desc>Speed 9.2 km/h Distance 68.08 km</desc>
<time>2011-05-22T12:40:32.02</time>
<name>14644</name>
<sym>Dot</sym>
</trkpt>
<trkpt lat="39.681935" lon="-8.636048">
<ele>341.5</ele>
<desc>Speed 7.8 km/h Distance 68.08 km</desc>
<time>2011-05-22T12:40:33.01</time>
<name>14645</name>
<sym>Dot</sym>
</trkpt>
<trkpt lat="39.681923" lon="-8.636062">
<ele>341.5</ele>
<desc>Speed 5.8 km/h Distance 68.09 km</desc>
<time>2011-05-22T12:40:34.01</time>
<name>14646</name>
<sym>Dot</sym>
</trkpt>
<trkpt lat="39.681915" lon="-8.636073">
<ele>341.5</ele>
<desc>Speed 4.5 km/h Distance 68.09 km</desc>
<time>2011-05-22T12:40:35.01</time>
<name>14647</name>
<sym>Dot</sym>
</trkpt>
<trkpt lat="39.681903" lon="-8.636083">
<ele>341.5</ele>
<desc>Speed 5.3 km/h Distance 68.09 km</desc>
<time>2011-05-22T12:40:36.00</time>
<name>14648</name>
<sym>Dot</sym>
</trkpt>
<trkpt lat="39.681890" lon="-8.636097">
<ele>341.5</ele>
<desc>Speed 6.1 km/h Distance 68.09 km</desc>
<time>2011-05-22T12:40:37.00</time>
<name>14649</name>
<sym>Dot</sym>
</trkpt>
<trkpt lat="39.681875" lon="-8.636113">
<ele>341.5</ele>
<desc>Speed 7.3 km/h Distance 68.09 km</desc>
<time>2011-05-22T12:40:37.99</time>
<name>14650</name>
<sym>Dot</sym>
</trkpt>
<trkpt lat="39.681858" lon="-8.636132">
<ele>342.0</ele>
<desc>Speed 8.3 km/h Distance 68.10 km</desc>
<time>2011-05-22T12:40:38.99</time>
<name>14651</name>
<sym>Dot</sym>
</trkpt>
<trkpt lat="39.681838" lon="-8.636153">
<ele>342.0</ele>
<desc>Speed 9.0 km/h Distance 68.10 km</desc>
<time>2011-05-22T12:40:39.99</time>
<name>14652</name>
<sym>Dot</sym>
</trkpt>
<trkpt lat="39.681820" lon="-8.636173">
<ele>342.0</ele>
<desc>Speed 9.3 km/h Distance 68.10 km</desc>
<time>2011-05-22T12:40:40.98</time>
<name>14653</name>
<sym>Dot</sym>
</trkpt>
<trkpt lat="39.681800" lon="-8.636195">
<ele>342.0</ele>
<desc>Speed 9.5 km/h Distance 68.10 km</desc>
<time>2011-05-22T12:40:41.98</time>
<name>14654</name>
<sym>Dot</sym>
</trkpt>
<trkpt lat="39.681782" lon="-8.636213">
<ele>342.5</ele>
<desc>Speed 8.7 km/h Distance 68.11 km</desc>
<time>2011-05-22T12:40:42.98</time>
<name>14655</name>
<sym>Dot</sym>
</trkpt>
<trkpt lat="39.681762" lon="-8.636230">
<ele>343.0</ele>
<desc>Speed 8.4 km/h Distance 68.11 km</desc>
<time>2011-05-22T12:40:43.98</time>
<name>14656</name>
<sym>Dot</sym>
</trkpt>
<trkpt lat="39.681748" lon="-8.636243">
<ele>343.0</ele>
<desc>Speed 6.2 km/h Distance 68.11 km</desc>
<time>2011-05-22T12:40:44.98</time>
<name>14657</name>
<sym>Dot</sym>
</trkpt>
<trkpt lat="39.681740" lon="-8.636250">
<ele>343.0</ele>
<desc>Speed 3.4 km/h Distance 68.11 km</desc>
<time>2011-05-22T12:40:45.99</time>
<name>14658</name>
<sym>Dot</sym>
</trkpt>
<trkpt lat="39.681732" lon="-8.636257">
<ele>343.0</ele>
<desc>Speed 3.3 km/h Distance 68.11 km</desc>
<time>2011-05-22T12:40:46.99</time>
<name>14659</name>
<sym>Dot</sym>
</trkpt>
<trkpt lat="39.681725" lon="-8.636265">
<ele>343.0</ele>
<desc>Speed 3.6 km/h Distance 68.11 km</desc>
<time>2011-05-22T12:40:47.99</time>
<name>14660</name>
<sym>Dot</sym>
</trkpt>
<trkpt lat="39.681715" lon="-8.636278">
<ele>343.0</ele>
<desc>Speed 4.8 km/h Distance 68.12 km</desc>
<time>2011-05-22T12:40:48.98</time>
<name>14661</name>
<sym>Dot</sym>
</trkpt>
<trkpt lat="39.681705" lon="-8.636292">
<ele>343.0</ele>
<desc>Speed 5.4 km/h Distance 68.12 km</desc>
<time>2011-05-22T12:40:49.99</time>
<name>14662</name>
<sym>Dot</sym>
</trkpt>
<trkpt lat="39.681695" lon="-8.636307">
<ele>343.0</ele>
<desc>Speed 5.5 km/h Distance 68.12 km</desc>
<time>2011-05-22T12:40:50.98</time>
<name>14663</name>
<sym>Dot</sym>
</trkpt>
<trkpt lat="39.681682" lon="-8.636315">
<ele>343.5</ele>
<desc>Speed 5.7 km/h Distance 68.12 km</desc>
<time>2011-05-22T12:40:51.96</time>
<name>14664</name>
<sym>Dot</sym>
</trkpt>
<trkpt lat="39.681668" lon="-8.636327">
<ele>343.5</ele>
<desc>Speed 5.8 km/h Distance 68.12 km</desc>
<time>2011-05-22T12:40:52.96</time>
<name>14665</name>
<sym>Dot</sym>
</trkpt>
<trkpt lat="39.681652" lon="-8.636340">
<ele>343.5</ele>
<desc>Speed 7.7 km/h Distance 68.13 km</desc>
<time>2011-05-22T12:40:53.96</time>
<name>14666</name>
<sym>Dot</sym>
</trkpt>
<trkpt lat="39.681635" lon="-8.636357">
<ele>343.5</ele>
<desc>Speed 8.1 km/h Distance 68.13 km</desc>
<time>2011-05-22T12:40:54.95</time>
<name>14667</name>
<sym>Dot</sym>
</trkpt>
<trkpt lat="39.681617" lon="-8.636375">
<ele>343.5</ele>
<desc>Speed 8.9 km/h Distance 68.13 km</desc>
<time>2011-05-22T12:40:55.94</time>
<name>14668</name>
<sym>Dot</sym>
</trkpt>
<trkpt lat="39.681598" lon="-8.636397">
<ele>343.5</ele>
<desc>Speed 9.6 km/h Distance 68.13 km</desc>
<time>2011-05-22T12:40:56.93</time>
<name>14669</name>
<sym>Dot</sym>
</trkpt>
<trkpt lat="39.681578" lon="-8.636417">
<ele>343.5</ele>
<desc>Speed 10.0 km/h Distance 68.14 km</desc>
<time>2011-05-22T12:40:57.93</time>
<name>14670</name>
<sym>Dot</sym>
</trkpt>
<trkpt lat="39.681558" lon="-8.636438">
<ele>344.0</ele>
<desc>Speed 10.0 km/h Distance 68.14 km</desc>
<time>2011-05-22T12:40:58.93</time>
<name>14671</name>
<sym>Dot</sym>
</trkpt>
<trkpt lat="39.681537" lon="-8.636458">
<ele>344.0</ele>
<desc>Speed 10.0 km/h Distance 68.14 km</desc>
<time>2011-05-22T12:40:59.93</time>
<name>14672</name>
<sym>Dot</sym>
</trkpt>
<trkpt lat="39.681517" lon="-8.636475">
<ele>344.5</ele>
<desc>Speed 9.7 km/h Distance 68.14 km</desc>
<time>2011-05-22T12:41:00.92</time>
<name>14673</name>
<sym>Dot</sym>
</trkpt>
<trkpt lat="39.681497" lon="-8.636493">
<ele>344.5</ele>
<desc>Speed 9.6 km/h Distance 68.15 km</desc>
<time>2011-05-22T12:41:01.92</time>
<name>14674</name>
<sym>Dot</sym>
</trkpt>
<trkpt lat="39.681477" lon="-8.636515">
<ele>344.5</ele>
<desc>Speed 9.9 km/h Distance 68.15 km</desc>
<time>2011-05-22T12:41:02.92</time>
<name>14675</name>
<sym>Dot</sym>
</trkpt>
<trkpt lat="39.681457" lon="-8.636533">
<ele>345.0</ele>
<desc>Speed 9.3 km/h Distance 68.15 km</desc>
<time>2011-05-22T12:41:03.91</time>
<name>14676</name>
<sym>Dot</sym>
</trkpt>
<trkpt lat="39.681435" lon="-8.636552">
<ele>345.0</ele>
<desc>Speed 9.6 km/h Distance 68.16 km</desc>
<time>2011-05-22T12:41:04.91</time>
<name>14677</name>
<sym>Dot</sym>
</trkpt>
<trkpt lat="39.681413" lon="-8.636570">
<ele>345.0</ele>
<desc>Speed 9.5 km/h Distance 68.16 km</desc>
<time>2011-05-22T12:41:05.90</time>
<name>14678</name>
<sym>Dot</sym>
</trkpt>
<trkpt lat="39.681392" lon="-8.636588">
<ele>345.5</ele>
<desc>Speed 9.7 km/h Distance 68.16 km</desc>
<time>2011-05-22T12:41:06.89</time>
<name>14679</name>
<sym>Dot</sym>
</trkpt>
<trkpt lat="39.681372" lon="-8.636608">
<ele>345.5</ele>
<desc>Speed 9.5 km/h Distance 68.16 km</desc>
<time>2011-05-22T12:41:07.88</time>
<name>14680</name>
<sym>Dot</sym>
</trkpt>
<trkpt lat="39.681355" lon="-8.636630">
<ele>345.5</ele>
<desc>Speed 9.5 km/h Distance 68.17 km</desc>
<time>2011-05-22T12:41:08.88</time>
<name>14681</name>
<sym>Dot</sym>
</trkpt>
<trkpt lat="39.681337" lon="-8.636652">
<ele>345.5</ele>
<desc>Speed 9.4 km/h Distance 68.17 km</desc>
<time>2011-05-22T12:41:09.89</time>
<name>14682</name>
<sym>Dot</sym>
</trkpt>
<trkpt lat="39.681320" lon="-8.636672">
<ele>346.0</ele>
<desc>Speed 9.0 km/h Distance 68.17 km</desc>
<time>2011-05-22T12:41:10.88</time>
<name>14683</name>
<sym>Dot</sym>
</trkpt>
<trkpt lat="39.681302" lon="-8.636688">
<ele>347.0</ele>
<desc>Speed 8.6 km/h Distance 68.17 km</desc>
<time>2011-05-22T12:41:11.88</time>
<name>14684</name>
<sym>Dot</sym>
</trkpt>
<trkpt lat="39.681285" lon="-8.636707">
<ele>347.0</ele>
<desc>Speed 8.8 km/h Distance 68.18 km</desc>
<time>2011-05-22T12:41:12.87</time>
<name>14685</name>
<sym>Dot</sym>
</trkpt>
<trkpt lat="39.681267" lon="-8.636723">
<ele>347.5</ele>
<desc>Speed 8.8 km/h Distance 68.18 km</desc>
<time>2011-05-22T12:41:13.87</time>
<name>14686</name>
<sym>Dot</sym>
</trkpt>
<trkpt lat="39.681250" lon="-8.636743">
<ele>347.5</ele>
<desc>Speed 8.6 km/h Distance 68.18 km</desc>
<time>2011-05-22T12:41:14.86</time>
<name>14687</name>
<sym>Dot</sym>
</trkpt>
<trkpt lat="39.681235" lon="-8.636762">
<ele>348.0</ele>
<desc>Speed 7.7 km/h Distance 68.18 km</desc>
<time>2011-05-22T12:41:15.86</time>
<name>14688</name>
<sym>Dot</sym>
</trkpt>
<trkpt lat="39.681218" lon="-8.636777">
<ele>348.0</ele>
<desc>Speed 7.6 km/h Distance 68.19 km</desc>
<time>2011-05-22T12:41:16.86</time>
<name>14689</name>
<sym>Dot</sym>
</trkpt>
<trkpt lat="39.681203" lon="-8.636793">
<ele>348.0</ele>
<desc>Speed 7.5 km/h Distance 68.19 km</desc>
<time>2011-05-22T12:41:17.86</time>
<name>14690</name>
<sym>Dot</sym>
</trkpt>
<trkpt lat="39.681188" lon="-8.636807">
<ele>348.5</ele>
<desc>Speed 6.9 km/h Distance 68.19 km</desc>
<time>2011-05-22T12:41:18.86</time>
<name>14691</name>
<sym>Dot</sym>
</trkpt>
<trkpt lat="39.681177" lon="-8.636820">
<ele>349.5</ele>
<desc>Speed 5.7 km/h Distance 68.19 km</desc>
<time>2011-05-22T12:41:19.85</time>
<name>14692</name>
<sym>Dot</sym>
</trkpt>
<trkpt lat="39.681167" lon="-8.636832">
<ele>349.5</ele>
<desc>Speed 5.2 km/h Distance 68.19 km</desc>
<time>2011-05-22T12:41:20.84</time>
<name>14693</name>
<sym>Dot</sym>
</trkpt>
<trkpt lat="39.681158" lon="-8.636837">
<ele>349.5</ele>
<desc>Speed 3.5 km/h Distance 68.19 km</desc>
<time>2011-05-22T12:41:21.85</time>
<name>14694</name>
<sym>Dot</sym>
</trkpt>
<trkpt lat="39.681158" lon="-8.636873">
<ele>346.5</ele>
<desc>Speed 2.2 km/h Distance 68.20 km</desc>
<time>2011-05-22T12:41:30.85</time>
<name>14695</name>
<sym>Dot</sym>
</trkpt>
<trkpt lat="39.681155" lon="-8.636880">
<ele>346.0</ele>
<desc>Speed 1.5 km/h Distance 68.20 km</desc>
<time>2011-05-22T12:41:32.85</time>
<name>14696</name>
<sym>Dot</sym>
</trkpt>
<trkpt lat="39.681148" lon="-8.636883">
<ele>346.0</ele>
<desc>Speed 2.6 km/h Distance 68.20 km</desc>
<time>2011-05-22T12:41:33.84</time>
<name>14697</name>
<sym>Dot</sym>
</trkpt>
<trkpt lat="39.681143" lon="-8.636892">
<ele>346.5</ele>
<desc>Speed 3.1 km/h Distance 68.20 km</desc>
<time>2011-05-22T12:41:34.84</time>
<name>14698</name>
<sym>Dot</sym>
</trkpt>
<trkpt lat="39.681132" lon="-8.636898">
<ele>347.0</ele>
<desc>Speed 4.2 km/h Distance 68.20 km</desc>
<time>2011-05-22T12:41:35.83</time>
<name>14699</name>
<sym>Dot</sym>
</trkpt>
<trkpt lat="39.681117" lon="-8.636907">
<ele>347.0</ele>
<desc>Speed 5.2 km/h Distance 68.20 km</desc>
<time>2011-05-22T12:41:36.84</time>
<name>14700</name>
<sym>Dot</sym>
</trkpt>
<trkpt lat="39.681103" lon="-8.636917">
<ele>347.5</ele>
<desc>Speed 5.8 km/h Distance 68.21 km</desc>
<time>2011-05-22T12:41:37.84</time>
<name>14701</name>
<sym>Dot</sym>
</trkpt>
<trkpt lat="39.681093" lon="-8.636928">
<ele>348.0</ele>
<desc>Speed 5.2 km/h Distance 68.21 km</desc>
<time>2011-05-22T12:41:38.83</time>
<name>14702</name>
<sym>Dot</sym>
</trkpt>
<trkpt lat="39.681082" lon="-8.636937">
<ele>348.5</ele>
<desc>Speed 5.3 km/h Distance 68.21 km</desc>
<time>2011-05-22T12:41:39.85</time>
<name>14703</name>
<sym>Dot</sym>
</trkpt>
<trkpt lat="39.681072" lon="-8.636947">
<ele>349.0</ele>
<desc>Speed 5.0 km/h Distance 68.21 km</desc>
<time>2011-05-22T12:41:40.81</time>
<name>14704</name>
<sym>Dot</sym>
</trkpt>
<trkpt lat="39.681057" lon="-8.636957">
<ele>349.5</ele>
<desc>Speed 6.2 km/h Distance 68.21 km</desc>
<time>2011-05-22T12:41:41.81</time>
<name>14705</name>
<sym>Dot</sym>
</trkpt>
<trkpt lat="39.681042" lon="-8.636967">
<ele>350.0</ele>
<desc>Speed 5.8 km/h Distance 68.21 km</desc>
<time>2011-05-22T12:41:42.81</time>
<name>14706</name>
<sym>Dot</sym>
</trkpt>
<trkpt lat="39.681028" lon="-8.636975">
<ele>350.0</ele>
<desc>Speed 5.6 km/h Distance 68.22 km</desc>
<time>2011-05-22T12:41:43.80</time>
<name>14707</name>
<sym>Dot</sym>
</trkpt>
<trkpt lat="39.681015" lon="-8.636985">
<ele>350.5</ele>
<desc>Speed 5.5 km/h Distance 68.22 km</desc>
<time>2011-05-22T12:41:44.80</time>
<name>14708</name>
<sym>Dot</sym>
</trkpt>
<trkpt lat="39.681003" lon="-8.636993">
<ele>350.5</ele>
<desc>Speed 5.4 km/h Distance 68.22 km</desc>
<time>2011-05-22T12:41:45.80</time>
<name>14709</name>
<sym>Dot</sym>
</trkpt>
<trkpt lat="39.680992" lon="-8.637002">
<ele>351.0</ele>
<desc>Speed 5.4 km/h Distance 68.22 km</desc>
<time>2011-05-22T12:41:46.79</time>
<name>14710</name>
<sym>Dot</sym>
</trkpt>
<trkpt lat="39.680978" lon="-8.637012">
<ele>351.0</ele>
<desc>Speed 5.7 km/h Distance 68.22 km</desc>
<time>2011-05-22T12:41:47.79</time>
<name>14711</name>
<sym>Dot</sym>
</trkpt>
<trkpt lat="39.680963" lon="-8.637022">
<ele>351.0</ele>
<desc>Speed 6.4 km/h Distance 68.22 km</desc>
<time>2011-05-22T12:41:48.79</time>
<name>14712</name>
<sym>Dot</sym>
</trkpt>
<trkpt lat="39.680948" lon="-8.637032">
<ele>351.5</ele>
<desc>Speed 6.0 km/h Distance 68.23 km</desc>
<time>2011-05-22T12:41:49.77</time>
<name>14713</name>
<sym>Dot</sym>
</trkpt>
<trkpt lat="39.680935" lon="-8.637040">
<ele>351.5</ele>
<desc>Speed 6.1 km/h Distance 68.23 km</desc>
<time>2011-05-22T12:41:50.77</time>
<name>14714</name>
<sym>Dot</sym>
</trkpt>
<trkpt lat="39.680920" lon="-8.637048">
<ele>351.5</ele>
<desc>Speed 6.2 km/h Distance 68.23 km</desc>
<time>2011-05-22T12:41:51.76</time>
<name>14715</name>
<sym>Dot</sym>
</trkpt>
<trkpt lat="39.680903" lon="-8.637058">
<ele>352.0</ele>
<desc>Speed 6.7 km/h Distance 68.23 km</desc>
<time>2011-05-22T12:41:52.79</time>
<name>14716</name>
<sym>Dot</sym>
</trkpt>
<trkpt lat="39.680888" lon="-8.637067">
<ele>352.0</ele>
<desc>Speed 6.7 km/h Distance 68.23 km</desc>
<time>2011-05-22T12:41:53.76</time>
<name>14717</name>
<sym>Dot</sym>
</trkpt>
<trkpt lat="39.680872" lon="-8.637075">
<ele>352.0</ele>
<desc>Speed 6.7 km/h Distance 68.23 km</desc>
<time>2011-05-22T12:41:54.75</time>
<name>14718</name>
<sym>Dot</sym>
</trkpt>
<trkpt lat="39.680855" lon="-8.637085">
<ele>352.0</ele>
<desc>Speed 7.1 km/h Distance 68.24 km</desc>
<time>2011-05-22T12:41:55.75</time>
<name>14719</name>
<sym>Dot</sym>
</trkpt>
<trkpt lat="39.680840" lon="-8.637092">
<ele>352.0</ele>
<desc>Speed 6.7 km/h Distance 68.24 km</desc>
<time>2011-05-22T12:41:56.75</time>
<name>14720</name>
<sym>Dot</sym>
</trkpt>
<trkpt lat="39.680822" lon="-8.637098">
<ele>352.5</ele>
<desc>Speed 7.5 km/h Distance 68.24 km</desc>
<time>2011-05-22T12:41:57.74</time>
<name>14721</name>
<sym>Dot</sym>
</trkpt>
<trkpt lat="39.680803" lon="-8.637105">
<ele>352.5</ele>
<desc>Speed 8.0 km/h Distance 68.24 km</desc>
<time>2011-05-22T12:41:58.74</time>
<name>14722</name>
<sym>Dot</sym>
</trkpt>
<trkpt lat="39.680783" lon="-8.637112">
<ele>353.0</ele>
<desc>Speed 8.2 km/h Distance 68.24 km</desc>
<time>2011-05-22T12:41:59.73</time>
<name>14723</name>
<sym>Dot</sym>
</trkpt>
<trkpt lat="39.680760" lon="-8.637118">
<ele>353.0</ele>
<desc>Speed 9.2 km/h Distance 68.25 km</desc>
<time>2011-05-22T12:42:00.72</time>
<name>14724</name>
<sym>Dot</sym>
</trkpt>
<trkpt lat="39.680737" lon="-8.637125">
<ele>353.5</ele>
<desc>Speed 9.5 km/h Distance 68.25 km</desc>
<time>2011-05-22T12:42:01.72</time>
<name>14725</name>
<sym>Dot</sym>
</trkpt>
<trkpt lat="39.680712" lon="-8.637132">
<ele>353.5</ele>
<desc>Speed 10.0 km/h Distance 68.25 km</desc>
<time>2011-05-22T12:42:02.72</time>
<name>14726</name>
<sym>Dot</sym>
</trkpt>
<trkpt lat="39.680687" lon="-8.637137">
<ele>353.5</ele>
<desc>Speed 10.6 km/h Distance 68.26 km</desc>
<time>2011-05-22T12:42:03.71</time>
<name>14727</name>
<sym>Dot</sym>
</trkpt>
<trkpt lat="39.680660" lon="-8.637143">
<ele>353.5</ele>
<desc>Speed 11.1 km/h Distance 68.26 km</desc>
<time>2011-05-22T12:42:04.71</time>
<name>14728</name>
<sym>Dot</sym>
</trkpt>
<trkpt lat="39.680630" lon="-8.637155">
<ele>353.0</ele>
<desc>Speed 11.6 km/h Distance 68.26 km</desc>
<time>2011-05-22T12:42:05.71</time>
<name>14729</name>
<sym>Dot</sym>
</trkpt>
<trkpt lat="39.680600" lon="-8.637158">
<ele>353.0</ele>
<desc>Speed 11.6 km/h Distance 68.27 km</desc>
<time>2011-05-22T12:42:06.70</time>
<name>14730</name>
<sym>Dot</sym>
</trkpt>
<trkpt lat="39.680572" lon="-8.637162">
<ele>352.5</ele>
<desc>Speed 11.4 km/h Distance 68.27 km</desc>
<time>2011-05-22T12:42:07.72</time>
<name>14731</name>
<sym>Dot</sym>
</trkpt>
<trkpt lat="39.680543" lon="-8.637165">
<ele>352.5</ele>
<desc>Speed 11.3 km/h Distance 68.27 km</desc>
<time>2011-05-22T12:42:08.68</time>
<name>14732</name>
<sym>Dot</sym>
</trkpt>
<trkpt lat="39.680517" lon="-8.637167">
<ele>353.0</ele>
<desc>Speed 10.5 km/h Distance 68.28 km</desc>
<time>2011-05-22T12:42:09.69</time>
<name>14733</name>
<sym>Dot</sym>
</trkpt>
<trkpt lat="39.680490" lon="-8.637167">
<ele>353.5</ele>
<desc>Speed 10.7 km/h Distance 68.28 km</desc>
<time>2011-05-22T12:42:10.68</time>
<name>14734</name>
<sym>Dot</sym>
</trkpt>
<trkpt lat="39.680462" lon="-8.637172">
<ele>353.0</ele>
<desc>Speed 11.3 km/h Distance 68.28 km</desc>
<time>2011-05-22T12:42:11.68</time>
<name>14735</name>
<sym>Dot</sym>
</trkpt>
<trkpt lat="39.680428" lon="-8.637178">
<ele>352.0</ele>
<desc>Speed 13.1 km/h Distance 68.28 km</desc>
<time>2011-05-22T12:42:12.67</time>
<name>14736</name>
<sym>Dot</sym>
</trkpt>
<trkpt lat="39.680397" lon="-8.637185">
<ele>353.0</ele>
<desc>Speed 12.6 km/h Distance 68.29 km</desc>
<time>2011-05-22T12:42:13.66</time>
<name>14737</name>
<sym>Dot</sym>
</trkpt>
<trkpt lat="39.680363" lon="-8.637195">
<ele>353.5</ele>
<desc>Speed 13.6 km/h Distance 68.29 km</desc>
<time>2011-05-22T12:42:14.65</time>
<name>14738</name>
<sym>Dot</sym>
</trkpt>
<trkpt lat="39.680327" lon="-8.637200">
<ele>353.5</ele>
<desc>Speed 14.6 km/h Distance 68.30 km</desc>
<time>2011-05-22T12:42:15.65</time>
<name>14739</name>
<sym>Dot</sym>
</trkpt>
<trkpt lat="39.680285" lon="-8.637202">
<ele>354.0</ele>
<desc>Speed 16.8 km/h Distance 68.30 km</desc>
<time>2011-05-22T12:42:16.65</time>
<name>14740</name>
<sym>Dot</sym>
</trkpt>
<trkpt lat="39.680243" lon="-8.637202">
<ele>354.0</ele>
<desc>Speed 16.7 km/h Distance 68.31 km</desc>
<time>2011-05-22T12:42:17.64</time>
<name>14741</name>
<sym>Dot</sym>
</trkpt>
<trkpt lat="39.680200" lon="-8.637203">
<ele>354.0</ele>
<desc>Speed 17.2 km/h Distance 68.31 km</desc>
<time>2011-05-22T12:42:18.63</time>
<name>14742</name>
<sym>Dot</sym>
</trkpt>
<trkpt lat="39.680157" lon="-8.637207">
<ele>354.0</ele>
<desc>Speed 17.4 km/h Distance 68.32 km</desc>
<time>2011-05-22T12:42:19.63</time>
<name>14743</name>
<sym>Dot</sym>
</trkpt>
<trkpt lat="39.680115" lon="-8.637213">
<ele>354.5</ele>
<desc>Speed 16.4 km/h Distance 68.32 km</desc>
<time>2011-05-22T12:42:20.63</time>
<name>14744</name>
<sym>Dot</sym>
</trkpt>
<trkpt lat="39.680073" lon="-8.637217">
<ele>355.0</ele>
<desc>Speed 17.0 km/h Distance 68.32 km</desc>
<time>2011-05-22T12:42:21.63</time>
<name>14745</name>
<sym>Dot</sym>
</trkpt>
<trkpt lat="39.680037" lon="-8.637235">
<ele>355.0</ele>
<desc>Speed 14.9 km/h Distance 68.33 km</desc>
<time>2011-05-22T12:42:22.63</time>
<name>14746</name>
<sym>Dot</sym>
</trkpt>
<trkpt lat="39.680000" lon="-8.637245">
<ele>356.5</ele>
<desc>Speed 15.2 km/h Distance 68.33 km</desc>
<time>2011-05-22T12:42:23.62</time>
<name>14747</name>
<sym>Dot</sym>
</trkpt>
<trkpt lat="39.679960" lon="-8.637255">
<ele>358.0</ele>
<desc>Speed 15.8 km/h Distance 68.34 km</desc>
<time>2011-05-22T12:42:24.62</time>
<name>14748</name>
<sym>Dot</sym>
</trkpt>
<trkpt lat="39.679918" lon="-8.637277">
<ele>357.5</ele>
<desc>Speed 18.2 km/h Distance 68.34 km</desc>
<time>2011-05-22T12:42:25.60</time>
<name>14749</name>
<sym>Dot</sym>
</trkpt>
<trkpt lat="39.679875" lon="-8.637300">
<ele>357.5</ele>
<desc>Speed 18.3 km/h Distance 68.35 km</desc>
<time>2011-05-22T12:42:26.60</time>
<name>14750</name>
<sym>Dot</sym>
</trkpt>
<trkpt lat="39.679833" lon="-8.637327">
<ele>357.0</ele>
<desc>Speed 18.6 km/h Distance 68.35 km</desc>
<time>2011-05-22T12:42:27.61</time>
<name>14751</name>
<sym>Dot</sym>
</trkpt>
<trkpt lat="39.679792" lon="-8.637358">
<ele>356.5</ele>
<desc>Speed 18.5 km/h Distance 68.36 km</desc>
<time>2011-05-22T12:42:28.60</time>
<name>14752</name>
<sym>Dot</sym>
</trkpt>
<trkpt lat="39.679753" lon="-8.637393">
<ele>356.0</ele>
<desc>Speed 18.8 km/h Distance 68.36 km</desc>
<time>2011-05-22T12:42:29.58</time>
<name>14753</name>
<sym>Dot</sym>
</trkpt>
<trkpt lat="39.679715" lon="-8.637428">
<ele>356.0</ele>
<desc>Speed 18.5 km/h Distance 68.37 km</desc>
<time>2011-05-22T12:42:30.57</time>
<name>14754</name>
<sym>Dot</sym>
</trkpt>
<trkpt lat="39.679678" lon="-8.637467">
<ele>355.5</ele>
<desc>Speed 18.8 km/h Distance 68.37 km</desc>
<time>2011-05-22T12:42:31.57</time>
<name>14755</name>
<sym>Dot</sym>
</trkpt>
<trkpt lat="39.679645" lon="-8.637513">
<ele>355.5</ele>
<desc>Speed 18.8 km/h Distance 68.38 km</desc>
<time>2011-05-22T12:42:32.57</time>
<name>14756</name>
<sym>Dot</sym>
</trkpt>
<trkpt lat="39.679617" lon="-8.637560">
<ele>355.5</ele>
<desc>Speed 18.2 km/h Distance 68.38 km</desc>
<time>2011-05-22T12:42:33.56</time>
<name>14757</name>
<sym>Dot</sym>
</trkpt>
<trkpt lat="39.679593" lon="-8.637617">
<ele>354.5</ele>
<desc>Speed 19.4 km/h Distance 68.39 km</desc>
<time>2011-05-22T12:42:34.55</time>
<name>14758</name>
<sym>Dot</sym>
</trkpt>
<trkpt lat="39.679578" lon="-8.637668">
<ele>354.5</ele>
<desc>Speed 16.7 km/h Distance 68.40 km</desc>
<time>2011-05-22T12:42:35.54</time>
<name>14759</name>
<sym>Dot</sym>
</trkpt>
<trkpt lat="39.679570" lon="-8.637718">
<ele>354.5</ele>
<desc>Speed 15.3 km/h Distance 68.40 km</desc>
<time>2011-05-22T12:42:36.55</time>
<name>14760</name>
<sym>Dot</sym>
</trkpt>
<trkpt lat="39.679568" lon="-8.637767">
<ele>354.5</ele>
<desc>Speed 14.8 km/h Distance 68.40 km</desc>
<time>2011-05-22T12:42:37.55</time>
<name>14761</name>
<sym>Dot</sym>
</trkpt>
<trkpt lat="39.679573" lon="-8.637813">
<ele>354.5</ele>
<desc>Speed 14.0 km/h Distance 68.41 km</desc>
<time>2011-05-22T12:42:38.54</time>
<name>14762</name>
<sym>Dot</sym>
</trkpt>
<trkpt lat="39.679580" lon="-8.637858">
<ele>354.5</ele>
<desc>Speed 13.9 km/h Distance 68.41 km</desc>
<time>2011-05-22T12:42:39.56</time>
<name>14763</name>
<sym>Dot</sym>
</trkpt>
<trkpt lat="39.679588" lon="-8.637903">
<ele>354.5</ele>
<desc>Speed 13.8 km/h Distance 68.42 km</desc>
<time>2011-05-22T12:42:40.52</time>
<name>14764</name>
<sym>Dot</sym>
</trkpt>
<trkpt lat="39.679595" lon="-8.637947">
<ele>354.5</ele>
<desc>Speed 13.5 km/h Distance 68.42 km</desc>
<time>2011-05-22T12:42:41.51</time>
<name>14765</name>
<sym>Dot</sym>
</trkpt>
<trkpt lat="39.679603" lon="-8.637990">
<ele>354.5</ele>
<desc>Speed 13.6 km/h Distance 68.42 km</desc>
<time>2011-05-22T12:42:42.51</time>
<name>14766</name>
<sym>Dot</sym>
</trkpt>
<trkpt lat="39.679610" lon="-8.638035">
<ele>354.0</ele>
<desc>Speed 13.7 km/h Distance 68.43 km</desc>
<time>2011-05-22T12:42:43.51</time>
<name>14767</name>
<sym>Dot</sym>
</trkpt>
<trkpt lat="39.679618" lon="-8.638080">
<ele>354.0</ele>
<desc>Speed 13.9 km/h Distance 68.43 km</desc>
<time>2011-05-22T12:42:44.50</time>
<name>14768</name>
<sym>Dot</sym>
</trkpt>
<trkpt lat="39.679627" lon="-8.638123">
<ele>354.0</ele>
<desc>Speed 14.0 km/h Distance 68.43 km</desc>
<time>2011-05-22T12:42:45.50</time>
<name>14769</name>
<sym>Dot</sym>
</trkpt>
<trkpt lat="39.679637" lon="-8.638168">
<ele>354.5</ele>
<desc>Speed 14.1 km/h Distance 68.44 km</desc>
<time>2011-05-22T12:42:46.49</time>
<name>14770</name>
<sym>Dot</sym>
</trkpt>
<trkpt lat="39.679645" lon="-8.638212">
<ele>354.5</ele>
<desc>Speed 13.9 km/h Distance 68.44 km</desc>
<time>2011-05-22T12:42:47.49</time>
<name>14771</name>
<sym>Dot</sym>
</trkpt>
<trkpt lat="39.679653" lon="-8.638255">
<ele>354.5</ele>
<desc>Speed 13.1 km/h Distance 68.45 km</desc>
<time>2011-05-22T12:42:48.49</time>
<name>14772</name>
<sym>Dot</sym>
</trkpt>
<trkpt lat="39.679660" lon="-8.638293">
<ele>355.0</ele>
<desc>Speed 12.3 km/h Distance 68.45 km</desc>
<time>2011-05-22T12:42:49.48</time>
<name>14773</name>
<sym>Dot</sym>
</trkpt>
<trkpt lat="39.679667" lon="-8.638333">
<ele>355.0</ele>
<desc>Speed 12.4 km/h Distance 68.45 km</desc>
<time>2011-05-22T12:42:50.49</time>
<name>14774</name>
<sym>Dot</sym>
</trkpt>
<trkpt lat="39.679672" lon="-8.638375">
<ele>355.0</ele>
<desc>Speed 13.2 km/h Distance 68.46 km</desc>
<time>2011-05-22T12:42:51.47</time>
<name>14775</name>
<sym>Dot</sym>
</trkpt>
<trkpt lat="39.679675" lon="-8.638418">
<ele>354.0</ele>
<desc>Speed 13.3 km/h Distance 68.46 km</desc>
<time>2011-05-22T12:42:52.47</time>
<name>14776</name>
<sym>Dot</sym>
</trkpt>
<trkpt lat="39.679675" lon="-8.638465">
<ele>353.0</ele>
<desc>Speed 13.5 km/h Distance 68.46 km</desc>
<time>2011-05-22T12:42:53.47</time>
<name>14777</name>
<sym>Dot</sym>
</trkpt>
<trkpt lat="39.679678" lon="-8.638508">
<ele>353.0</ele>
<desc>Speed 13.5 km/h Distance 68.47 km</desc>
<time>2011-05-22T12:42:54.46</time>
<name>14778</name>
<sym>Dot</sym>
</trkpt>
<trkpt lat="39.679682" lon="-8.638552">
<ele>353.0</ele>
<desc>Speed 13.1 km/h Distance 68.47 km</desc>
<time>2011-05-22T12:42:55.46</time>
<name>14779</name>
<sym>Dot</sym>
</trkpt>
<trkpt lat="39.679685" lon="-8.638595">
<ele>353.0</ele>
<desc>Speed 13.3 km/h Distance 68.48 km</desc>
<time>2011-05-22T12:42:56.46</time>
<name>14780</name>
<sym>Dot</sym>
</trkpt>
<trkpt lat="39.679687" lon="-8.638640">
<ele>352.5</ele>
<desc>Speed 13.5 km/h Distance 68.48 km</desc>
<time>2011-05-22T12:42:57.46</time>
<name>14781</name>
<sym>Dot</sym>
</trkpt>
<trkpt lat="39.679687" lon="-8.638685">
<ele>352.5</ele>
<desc>Speed 13.6 km/h Distance 68.48 km</desc>
<time>2011-05-22T12:42:58.46</time>
<name>14782</name>
<sym>Dot</sym>
</trkpt>
<trkpt lat="39.679685" lon="-8.638727">
<ele>353.0</ele>
<desc>Speed 12.8 km/h Distance 68.49 km</desc>
<time>2011-05-22T12:42:59.44</time>
<name>14783</name>
<sym>Dot</sym>
</trkpt>
<trkpt lat="39.679682" lon="-8.638773">
<ele>353.0</ele>
<desc>Speed 14.1 km/h Distance 68.49 km</desc>
<time>2011-05-22T12:43:00.44</time>
<name>14784</name>
<sym>Dot</sym>
</trkpt>
<trkpt lat="39.679677" lon="-8.638822">
<ele>353.0</ele>
<desc>Speed 15.0 km/h Distance 68.50 km</desc>
<time>2011-05-22T12:43:01.44</time>
<name>14785</name>
<sym>Dot</sym>
</trkpt>
<trkpt lat="39.679672" lon="-8.638872">
<ele>352.5</ele>
<desc>Speed 15.0 km/h Distance 68.50 km</desc>
<time>2011-05-22T12:43:02.44</time>
<name>14786</name>
<sym>Dot</sym>
</trkpt>
<trkpt lat="39.679665" lon="-8.638922">
<ele>352.5</ele>
<desc>Speed 15.4 km/h Distance 68.50 km</desc>
<time>2011-05-22T12:43:03.44</time>
<name>14787</name>
<sym>Dot</sym>
</trkpt>
<trkpt lat="39.679658" lon="-8.638972">
<ele>352.5</ele>
<desc>Speed 15.7 km/h Distance 68.51 km</desc>
<time>2011-05-22T12:43:04.42</time>
<name>14788</name>
<sym>Dot</sym>
</trkpt>
<trkpt lat="39.679648" lon="-8.639027">
<ele>352.0</ele>
<desc>Speed 16.7 km/h Distance 68.51 km</desc>
<time>2011-05-22T12:43:05.42</time>
<name>14789</name>
<sym>Dot</sym>
</trkpt>
<trkpt lat="39.679638" lon="-8.639090">
<ele>351.0</ele>
<desc>Speed 17.1 km/h Distance 68.52 km</desc>
<time>2011-05-22T12:43:06.42</time>
<name>14790</name>
<sym>Dot</sym>
</trkpt>
<trkpt lat="39.679632" lon="-8.639145">
<ele>351.0</ele>
<desc>Speed 17.4 km/h Distance 68.52 km</desc>
<time>2011-05-22T12:43:07.42</time>
<name>14791</name>
<sym>Dot</sym>
</trkpt>
<trkpt lat="39.679622" lon="-8.639202">
<ele>351.0</ele>
<desc>Speed 17.9 km/h Distance 68.53 km</desc>
<time>2011-05-22T12:43:08.42</time>
<name>14792</name>
<sym>Dot</sym>
</trkpt>
<trkpt lat="39.679613" lon="-8.639260">
<ele>351.0</ele>
<desc>Speed 17.8 km/h Distance 68.53 km</desc>
<time>2011-05-22T12:43:09.42</time>
<name>14793</name>
<sym>Dot</sym>
</trkpt>
<trkpt lat="39.679607" lon="-8.639318">
<ele>350.5</ele>
<desc>Speed 18.2 km/h Distance 68.54 km</desc>
<time>2011-05-22T12:43:10.41</time>
<name>14794</name>
<sym>Dot</sym>
</trkpt>
<trkpt lat="39.679602" lon="-8.639380">
<ele>350.5</ele>
<desc>Speed 18.8 km/h Distance 68.54 km</desc>
<time>2011-05-22T12:43:11.40</time>
<name>14795</name>
<sym>Dot</sym>
</trkpt>
<trkpt lat="39.679598" lon="-8.639443">
<ele>350.5</ele>
<desc>Speed 19.2 km/h Distance 68.55 km</desc>
<time>2011-05-22T12:43:12.40</time>
<name>14796</name>
<sym>Dot</sym>
</trkpt>
<trkpt lat="39.679597" lon="-8.639507">
<ele>350.5</ele>
<desc>Speed 19.3 km/h Distance 68.55 km</desc>
<time>2011-05-22T12:43:13.39</time>
<name>14797</name>
<sym>Dot</sym>
</trkpt>
<trkpt lat="39.679598" lon="-8.639568">
<ele>350.5</ele>
<desc>Speed 19.1 km/h Distance 68.56 km</desc>
<time>2011-05-22T12:43:14.39</time>
<name>14798</name>
<sym>Dot</sym>
</trkpt>
<trkpt lat="39.679600" lon="-8.639630">
<ele>350.5</ele>
<desc>Speed 18.6 km/h Distance 68.57 km</desc>
<time>2011-05-22T12:43:15.38</time>
<name>14799</name>
<sym>Dot</sym>
</trkpt>
<trkpt lat="39.679602" lon="-8.639688">
<ele>350.5</ele>
<desc>Speed 18.0 km/h Distance 68.57 km</desc>
<time>2011-05-22T12:43:16.38</time>
<name>14800</name>
<sym>Dot</sym>
</trkpt>
<trkpt lat="39.679605" lon="-8.639745">
<ele>350.5</ele>
<desc>Speed 17.3 km/h Distance 68.58 km</desc>
<time>2011-05-22T12:43:17.37</time>
<name>14801</name>
<sym>Dot</sym>
</trkpt>
<trkpt lat="39.679612" lon="-8.639800">
<ele>350.5</ele>
<desc>Speed 17.0 km/h Distance 68.58 km</desc>
<time>2011-05-22T12:43:18.37</time>
<name>14802</name>
<sym>Dot</sym>
</trkpt>
<trkpt lat="39.679622" lon="-8.639853">
<ele>350.5</ele>
<desc>Speed 17.1 km/h Distance 68.58 km</desc>
<time>2011-05-22T12:43:19.37</time>
<name>14803</name>
<sym>Dot</sym>
</trkpt>
<trkpt lat="39.679633" lon="-8.639910">
<ele>350.5</ele>
<desc>Speed 17.4 km/h Distance 68.59 km</desc>
<time>2011-05-22T12:43:20.37</time>
<name>14804</name>
<sym>Dot</sym>
</trkpt>
<trkpt lat="39.679642" lon="-8.639965">
<ele>350.5</ele>
<desc>Speed 17.5 km/h Distance 68.59 km</desc>
<time>2011-05-22T12:43:21.36</time>
<name>14805</name>
<sym>Dot</sym>
</trkpt>
<trkpt lat="39.679648" lon="-8.640022">
<ele>350.0</ele>
<desc>Speed 17.4 km/h Distance 68.60 km</desc>
<time>2011-05-22T12:43:22.36</time>
<name>14806</name>
<sym>Dot</sym>
</trkpt>
<trkpt lat="39.679658" lon="-8.640077">
<ele>350.0</ele>
<desc>Speed 17.4 km/h Distance 68.60 km</desc>
<time>2011-05-22T12:43:23.36</time>
<name>14807</name>
<sym>Dot</sym>
</trkpt>
<trkpt lat="39.679672" lon="-8.640132">
<ele>350.5</ele>
<desc>Speed 17.4 km/h Distance 68.61 km</desc>
<time>2011-05-22T12:43:24.35</time>
<name>14808</name>
<sym>Dot</sym>
</trkpt>
<trkpt lat="39.679685" lon="-8.640185">
<ele>350.0</ele>
<desc>Speed 17.5 km/h Distance 68.61 km</desc>
<time>2011-05-22T12:43:25.35</time>
<name>14809</name>
<sym>Dot</sym>
</trkpt>
<trkpt lat="39.679702" lon="-8.640238">
<ele>350.0</ele>
<desc>Speed 17.5 km/h Distance 68.62 km</desc>
<time>2011-05-22T12:43:26.34</time>
<name>14810</name>
<sym>Dot</sym>
</trkpt>
<trkpt lat="39.679720" lon="-8.640290">
<ele>350.5</ele>
<desc>Speed 17.5 km/h Distance 68.62 km</desc>
<time>2011-05-22T12:43:27.34</time>
<name>14811</name>
<sym>Dot</sym>
</trkpt>
<trkpt lat="39.679740" lon="-8.640340">
<ele>350.5</ele>
<desc>Speed 17.4 km/h Distance 68.63 km</desc>
<time>2011-05-22T12:43:28.33</time>
<name>14812</name>
<sym>Dot</sym>
</trkpt>
<trkpt lat="39.679760" lon="-8.640388">
<ele>350.0</ele>
<desc>Speed 17.0 km/h Distance 68.63 km</desc>
<time>2011-05-22T12:43:29.32</time>
<name>14813</name>
<sym>Dot</sym>
</trkpt>
<trkpt lat="39.679782" lon="-8.640435">
<ele>350.0</ele>
<desc>Speed 16.6 km/h Distance 68.64 km</desc>
<time>2011-05-22T12:43:30.32</time>
<name>14814</name>
<sym>Dot</sym>
</trkpt>
<trkpt lat="39.679802" lon="-8.640477">
<ele>349.5</ele>
<desc>Speed 15.8 km/h Distance 68.64 km</desc>
<time>2011-05-22T12:43:31.31</time>
<name>14815</name>
<sym>Dot</sym>
</trkpt>
<trkpt lat="39.679822" lon="-8.640517">
<ele>349.5</ele>
<desc>Speed 14.9 km/h Distance 68.65 km</desc>
<time>2011-05-22T12:43:32.32</time>
<name>14816</name>
<sym>Dot</sym>
</trkpt>
<trkpt lat="39.679843" lon="-8.640553">
<ele>349.0</ele>
<desc>Speed 14.3 km/h Distance 68.65 km</desc>
<time>2011-05-22T12:43:33.30</time>
<name>14817</name>
<sym>Dot</sym>
</trkpt>
<trkpt lat="39.679865" lon="-8.640587">
<ele>349.5</ele>
<desc>Speed 13.5 km/h Distance 68.65 km</desc>
<time>2011-05-22T12:43:34.30</time>
<name>14818</name>
<sym>Dot</sym>
</trkpt>
<trkpt lat="39.679880" lon="-8.640620">
<ele>349.5</ele>
<desc>Speed 12.2 km/h Distance 68.66 km</desc>
<time>2011-05-22T12:43:35.29</time>
<name>14819</name>
<sym>Dot</sym>
</trkpt>
<trkpt lat="39.679898" lon="-8.640648">
<ele>349.0</ele>
<desc>Speed 11.7 km/h Distance 68.66 km</desc>
<time>2011-05-22T12:43:36.29</time>
<name>14820</name>
<sym>Dot</sym>
</trkpt>
<trkpt lat="39.679917" lon="-8.640675">
<ele>349.0</ele>
<desc>Speed 11.4 km/h Distance 68.66 km</desc>
<time>2011-05-22T12:43:37.29</time>
<name>14821</name>
<sym>Dot</sym>
</trkpt>
<trkpt lat="39.679933" lon="-8.640702">
<ele>348.5</ele>
<desc>Speed 10.5 km/h Distance 68.67 km</desc>
<time>2011-05-22T12:43:38.27</time>
<name>14822</name>
<sym>Dot</sym>
</trkpt>
<trkpt lat="39.679950" lon="-8.640725">
<ele>348.5</ele>
<desc>Speed 9.6 km/h Distance 68.67 km</desc>
<time>2011-05-22T12:43:39.27</time>
<name>14823</name>
<sym>Dot</sym>
</trkpt>
<trkpt lat="39.679965" lon="-8.640747">
<ele>348.5</ele>
<desc>Speed 9.2 km/h Distance 68.67 km</desc>
<time>2011-05-22T12:43:40.26</time>
<name>14824</name>
<sym>Dot</sym>
</trkpt>
<trkpt lat="39.679980" lon="-8.640768">
<ele>348.5</ele>
<desc>Speed 8.5 km/h Distance 68.67 km</desc>
<time>2011-05-22T12:43:41.26</time>
<name>14825</name>
<sym>Dot</sym>
</trkpt>
<trkpt lat="39.679993" lon="-8.640793">
<ele>348.0</ele>
<desc>Speed 8.9 km/h Distance 68.68 km</desc>
<time>2011-05-22T12:43:42.26</time>
<name>14826</name>
<sym>Dot</sym>
</trkpt>
<trkpt lat="39.680007" lon="-8.640817">
<ele>347.5</ele>
<desc>Speed 8.2 km/h Distance 68.68 km</desc>
<time>2011-05-22T12:43:43.25</time>
<name>14827</name>
<sym>Dot</sym>
</trkpt>
<trkpt lat="39.680018" lon="-8.640840">
<ele>347.5</ele>
<desc>Speed 7.6 km/h Distance 68.68 km</desc>
<time>2011-05-22T12:43:44.25</time>
<name>14828</name>
<sym>Dot</sym>
</trkpt>
<trkpt lat="39.680030" lon="-8.640865">
<ele>347.0</ele>
<desc>Speed 8.1 km/h Distance 68.68 km</desc>
<time>2011-05-22T12:43:45.25</time>
<name>14829</name>
<sym>Dot</sym>
</trkpt>
<trkpt lat="39.680043" lon="-8.640885">
<ele>347.0</ele>
<desc>Speed 8.3 km/h Distance 68.69 km</desc>
<time>2011-05-22T12:43:46.24</time>
<name>14830</name>
<sym>Dot</sym>
</trkpt>
<trkpt lat="39.680058" lon="-8.640905">
<ele>347.0</ele>
<desc>Speed 8.0 km/h Distance 68.69 km</desc>
<time>2011-05-22T12:43:47.24</time>
<name>14831</name>
<sym>Dot</sym>
</trkpt>
<trkpt lat="39.680072" lon="-8.640923">
<ele>347.0</ele>
<desc>Speed 7.8 km/h Distance 68.69 km</desc>
<time>2011-05-22T12:43:48.23</time>
<name>14832</name>
<sym>Dot</sym>
</trkpt>
<trkpt lat="39.680087" lon="-8.640940">
<ele>347.0</ele>
<desc>Speed 8.2 km/h Distance 68.69 km</desc>
<time>2011-05-22T12:43:49.23</time>
<name>14833</name>
<sym>Dot</sym>
</trkpt>
<trkpt lat="39.680102" lon="-8.640958">
<ele>347.0</ele>
<desc>Speed 7.9 km/h Distance 68.70 km</desc>
<time>2011-05-22T12:43:50.22</time>
<name>14834</name>
<sym>Dot</sym>
</trkpt>
<trkpt lat="39.680115" lon="-8.640975">
<ele>347.0</ele>
<desc>Speed 7.8 km/h Distance 68.70 km</desc>
<time>2011-05-22T12:43:51.22</time>
<name>14835</name>
<sym>Dot</sym>
</trkpt>
<trkpt lat="39.680130" lon="-8.641000">
<ele>346.5</ele>
<desc>Speed 7.7 km/h Distance 68.70 km</desc>
<time>2011-05-22T12:43:52.22</time>
<name>14836</name>
<sym>Dot</sym>
</trkpt>
<trkpt lat="39.680145" lon="-8.641015">
<ele>346.5</ele>
<desc>Speed 7.9 km/h Distance 68.70 km</desc>
<time>2011-05-22T12:43:53.21</time>
<name>14837</name>
<sym>Dot</sym>
</trkpt>
<trkpt lat="39.680163" lon="-8.641032">
<ele>346.5</ele>
<desc>Speed 8.4 km/h Distance 68.70 km</desc>
<time>2011-05-22T12:43:54.21</time>
<name>14838</name>
<sym>Dot</sym>
</trkpt>
<trkpt lat="39.680180" lon="-8.641048">
<ele>346.5</ele>
<desc>Speed 8.5 km/h Distance 68.71 km</desc>
<time>2011-05-22T12:43:55.21</time>
<name>14839</name>
<sym>Dot</sym>
</trkpt>
<trkpt lat="39.680197" lon="-8.641065">
<ele>346.5</ele>
<desc>Speed 8.3 km/h Distance 68.71 km</desc>
<time>2011-05-22T12:43:56.20</time>
<name>14840</name>
<sym>Dot</sym>
</trkpt>
<trkpt lat="39.680213" lon="-8.641082">
<ele>346.5</ele>
<desc>Speed 8.1 km/h Distance 68.71 km</desc>
<time>2011-05-22T12:43:57.20</time>
<name>14841</name>
<sym>Dot</sym>
</trkpt>
<trkpt lat="39.680230" lon="-8.641098">
<ele>347.0</ele>
<desc>Speed 8.2 km/h Distance 68.71 km</desc>
<time>2011-05-22T12:43:58.20</time>
<name>14842</name>
<sym>Dot</sym>
</trkpt>
<trkpt lat="39.680247" lon="-8.641115">
<ele>347.0</ele>
<desc>Speed 8.4 km/h Distance 68.72 km</desc>
<time>2011-05-22T12:43:59.20</time>
<name>14843</name>
<sym>Dot</sym>
</trkpt>
<trkpt lat="39.680263" lon="-8.641130">
<ele>347.0</ele>
<desc>Speed 7.5 km/h Distance 68.72 km</desc>
<time>2011-05-22T12:44:00.19</time>
<name>14844</name>
<sym>Dot</sym>
</trkpt>
<trkpt lat="39.680278" lon="-8.641145">
<ele>347.0</ele>
<desc>Speed 7.2 km/h Distance 68.72 km</desc>
<time>2011-05-22T12:44:01.18</time>
<name>14845</name>
<sym>Dot</sym>
</trkpt>
<trkpt lat="39.680292" lon="-8.641160">
<ele>347.0</ele>
<desc>Speed 7.1 km/h Distance 68.72 km</desc>
<time>2011-05-22T12:44:02.17</time>
<name>14846</name>
<sym>Dot</sym>
</trkpt>
<trkpt lat="39.680303" lon="-8.641175">
<ele>347.0</ele>
<desc>Speed 5.8 km/h Distance 68.72 km</desc>
<time>2011-05-22T12:44:03.17</time>
<name>14847</name>
<sym>Dot</sym>
</trkpt>
<trkpt lat="39.680313" lon="-8.641188">
<ele>347.0</ele>
<desc>Speed 5.3 km/h Distance 68.73 km</desc>
<time>2011-05-22T12:44:04.17</time>
<name>14848</name>
<sym>Dot</sym>
</trkpt>
<trkpt lat="39.680323" lon="-8.641200">
<ele>347.0</ele>
<desc>Speed 5.3 km/h Distance 68.73 km</desc>
<time>2011-05-22T12:44:05.16</time>
<name>14849</name>
<sym>Dot</sym>
</trkpt>
<trkpt lat="39.680335" lon="-8.641215">
<ele>347.0</ele>
<desc>Speed 6.4 km/h Distance 68.73 km</desc>
<time>2011-05-22T12:44:06.16</time>
<name>14850</name>
<sym>Dot</sym>
</trkpt>
<trkpt lat="39.680348" lon="-8.641228">
<ele>347.0</ele>
<desc>Speed 6.6 km/h Distance 68.73 km</desc>
<time>2011-05-22T12:44:07.15</time>
<name>14851</name>
<sym>Dot</sym>
</trkpt>
<trkpt lat="39.680363" lon="-8.641240">
<ele>347.0</ele>
<desc>Speed 6.4 km/h Distance 68.73 km</desc>
<time>2011-05-22T12:44:08.15</time>
<name>14852</name>
<sym>Dot</sym>
</trkpt>
<trkpt lat="39.680380" lon="-8.641250">
<ele>347.5</ele>
<desc>Speed 7.2 km/h Distance 68.74 km</desc>
<time>2011-05-22T12:44:09.15</time>
<name>14853</name>
<sym>Dot</sym>
</trkpt>
<trkpt lat="39.680398" lon="-8.641262">
<ele>347.0</ele>
<desc>Speed 7.7 km/h Distance 68.74 km</desc>
<time>2011-05-22T12:44:10.15</time>
<name>14854</name>
<sym>Dot</sym>
</trkpt>
<trkpt lat="39.680415" lon="-8.641278">
<ele>347.0</ele>
<desc>Speed 8.1 km/h Distance 68.74 km</desc>
<time>2011-05-22T12:44:11.14</time>
<name>14855</name>
<sym>Dot</sym>
</trkpt>
<trkpt lat="39.680430" lon="-8.641295">
<ele>347.0</ele>
<desc>Speed 7.9 km/h Distance 68.74 km</desc>
<time>2011-05-22T12:44:12.14</time>
<name>14856</name>
<sym>Dot</sym>
</trkpt>
<trkpt lat="39.680445" lon="-8.641313">
<ele>347.0</ele>
<desc>Speed 7.6 km/h Distance 68.74 km</desc>
<time>2011-05-22T12:44:13.13</time>
<name>14857</name>
<sym>Dot</sym>
</trkpt>
<trkpt lat="39.680458" lon="-8.641332">
<ele>347.0</ele>
<desc>Speed 7.4 km/h Distance 68.75 km</desc>
<time>2011-05-22T12:44:14.13</time>
<name>14858</name>
<sym>Dot</sym>
</trkpt>
<trkpt lat="39.680473" lon="-8.641348">
<ele>347.0</ele>
<desc>Speed 7.4 km/h Distance 68.75 km</desc>
<time>2011-05-22T12:44:15.13</time>
<name>14859</name>
<sym>Dot</sym>
</trkpt>
<trkpt lat="39.680488" lon="-8.641365">
<ele>347.0</ele>
<desc>Speed 7.5 km/h Distance 68.75 km</desc>
<time>2011-05-22T12:44:16.13</time>
<name>14860</name>
<sym>Dot</sym>
</trkpt>
<trkpt lat="39.680502" lon="-8.641382">
<ele>347.0</ele>
<desc>Speed 7.4 km/h Distance 68.75 km</desc>
<time>2011-05-22T12:44:17.13</time>
<name>14861</name>
<sym>Dot</sym>
</trkpt>
<trkpt lat="39.680517" lon="-8.641397">
<ele>347.0</ele>
<desc>Speed 7.5 km/h Distance 68.76 km</desc>
<time>2011-05-22T12:44:18.13</time>
<name>14862</name>
<sym>Dot</sym>
</trkpt>
<trkpt lat="39.680530" lon="-8.641412">
<ele>347.0</ele>
<desc>Speed 7.1 km/h Distance 68.76 km</desc>
<time>2011-05-22T12:44:19.12</time>
<name>14863</name>
<sym>Dot</sym>
</trkpt>
<trkpt lat="39.680543" lon="-8.641428">
<ele>347.0</ele>
<desc>Speed 7.2 km/h Distance 68.76 km</desc>
<time>2011-05-22T12:44:20.11</time>
<name>14864</name>
<sym>Dot</sym>
</trkpt>
<trkpt lat="39.680557" lon="-8.641445">
<ele>347.0</ele>
<desc>Speed 7.2 km/h Distance 68.76 km</desc>
<time>2011-05-22T12:44:21.11</time>
<name>14865</name>
<sym>Dot</sym>
</trkpt>
<trkpt lat="39.680572" lon="-8.641460">
<ele>347.0</ele>
<desc>Speed 7.1 km/h Distance 68.76 km</desc>
<time>2011-05-22T12:44:22.10</time>
<name>14866</name>
<sym>Dot</sym>
</trkpt>
<trkpt lat="39.680583" lon="-8.641478">
<ele>347.0</ele>
<desc>Speed 7.5 km/h Distance 68.77 km</desc>
<time>2011-05-22T12:44:23.11</time>
<name>14867</name>
<sym>Dot</sym>
</trkpt>
<trkpt lat="39.680597" lon="-8.641497">
<ele>347.0</ele>
<desc>Speed 7.4 km/h Distance 68.77 km</desc>
<time>2011-05-22T12:44:24.09</time>
<name>14868</name>
<sym>Dot</sym>
</trkpt>
<trkpt lat="39.680610" lon="-8.641513">
<ele>347.0</ele>
<desc>Speed 7.2 km/h Distance 68.77 km</desc>
<time>2011-05-22T12:44:25.10</time>
<name>14869</name>
<sym>Dot</sym>
</trkpt>
<trkpt lat="39.680622" lon="-8.641530">
<ele>346.5</ele>
<desc>Speed 7.0 km/h Distance 68.77 km</desc>
<time>2011-05-22T12:44:26.09</time>
<name>14870</name>
<sym>Dot</sym>
</trkpt>
<trkpt lat="39.680632" lon="-8.641550">
<ele>347.0</ele>
<desc>Speed 6.9 km/h Distance 68.77 km</desc>
<time>2011-05-22T12:44:27.09</time>
<name>14871</name>
<sym>Dot</sym>
</trkpt>
<trkpt lat="39.680638" lon="-8.641570">
<ele>347.0</ele>
<desc>Speed 6.6 km/h Distance 68.78 km</desc>
<time>2011-05-22T12:44:28.08</time>
<name>14872</name>
<sym>Dot</sym>
</trkpt>
<trkpt lat="39.680645" lon="-8.641593">
<ele>347.0</ele>
<desc>Speed 7.3 km/h Distance 68.78 km</desc>
<time>2011-05-22T12:44:29.08</time>
<name>14873</name>
<sym>Dot</sym>
</trkpt>
<trkpt lat="39.680653" lon="-8.641618">
<ele>347.0</ele>
<desc>Speed 7.7 km/h Distance 68.78 km</desc>
<time>2011-05-22T12:44:30.07</time>
<name>14874</name>
<sym>Dot</sym>
</trkpt>
<trkpt lat="39.680662" lon="-8.641642">
<ele>347.0</ele>
<desc>Speed 8.0 km/h Distance 68.78 km</desc>
<time>2011-05-22T12:44:31.06</time>
<name>14875</name>
<sym>Dot</sym>
</trkpt>
<trkpt lat="39.680668" lon="-8.641667">
<ele>346.5</ele>
<desc>Speed 7.6 km/h Distance 68.78 km</desc>
<time>2011-05-22T12:44:32.06</time>
<name>14876</name>
<sym>Dot</sym>
</trkpt>
<trkpt lat="39.680673" lon="-8.641693">
<ele>346.5</ele>
<desc>Speed 7.8 km/h Distance 68.79 km</desc>
<time>2011-05-22T12:44:33.05</time>
<name>14877</name>
<sym>Dot</sym>
</trkpt>
<trkpt lat="39.680675" lon="-8.641720">
<ele>346.5</ele>
<desc>Speed 8.1 km/h Distance 68.79 km</desc>
<time>2011-05-22T12:44:34.05</time>
<name>14878</name>
<sym>Dot</sym>
</trkpt>
<trkpt lat="39.680677" lon="-8.641747">
<ele>347.0</ele>
<desc>Speed 8.1 km/h Distance 68.79 km</desc>
<time>2011-05-22T12:44:35.05</time>
<name>14879</name>
<sym>Dot</sym>
</trkpt>
<trkpt lat="39.680678" lon="-8.641773">
<ele>347.0</ele>
<desc>Speed 8.2 km/h Distance 68.79 km</desc>
<time>2011-05-22T12:44:36.05</time>
<name>14880</name>
<sym>Dot</sym>
</trkpt>
<trkpt lat="39.680678" lon="-8.641800">
<ele>348.0</ele>
<desc>Speed 8.4 km/h Distance 68.80 km</desc>
<time>2011-05-22T12:44:37.04</time>
<name>14881</name>
<sym>Dot</sym>
</trkpt>
<trkpt lat="39.680675" lon="-8.641828">
<ele>348.5</ele>
<desc>Speed 8.3 km/h Distance 68.80 km</desc>
<time>2011-05-22T12:44:38.02</time>
<name>14882</name>
<sym>Dot</sym>
</trkpt>
<trkpt lat="39.680672" lon="-8.641855">
<ele>349.0</ele>
<desc>Speed 8.1 km/h Distance 68.80 km</desc>
<time>2011-05-22T12:44:39.02</time>
<name>14883</name>
<sym>Dot</sym>
</trkpt>
<trkpt lat="39.680670" lon="-8.641880">
<ele>350.0</ele>
<desc>Speed 7.9 km/h Distance 68.80 km</desc>
<time>2011-05-22T12:44:40.01</time>
<name>14884</name>
<sym>Dot</sym>
</trkpt>
<trkpt lat="39.680665" lon="-8.641912">
<ele>350.0</ele>
<desc>Speed 9.4 km/h Distance 68.81 km</desc>
<time>2011-05-22T12:44:41.01</time>
<name>14885</name>
<sym>Dot</sym>
</trkpt>
<trkpt lat="39.680663" lon="-8.641945">
<ele>350.5</ele>
<desc>Speed 9.9 km/h Distance 68.81 km</desc>
<time>2011-05-22T12:44:42.01</time>
<name>14886</name>
<sym>Dot</sym>
</trkpt>
<trkpt lat="39.680658" lon="-8.641978">
<ele>350.5</ele>
<desc>Speed 10.0 km/h Distance 68.81 km</desc>
<time>2011-05-22T12:44:43.01</time>
<name>14887</name>
<sym>Dot</sym>
</trkpt>
<trkpt lat="39.680650" lon="-8.642045">
<ele>351.5</ele>
<desc>Speed 10.7 km/h Distance 68.82 km</desc>
<time>2011-05-22T12:44:45.00</time>
<name>14888</name>
<sym>Dot</sym>
</trkpt>
<trkpt lat="39.680643" lon="-8.642080">
<ele>351.5</ele>
<desc>Speed 11.3 km/h Distance 68.82 km</desc>
<time>2011-05-22T12:44:45.99</time>
<name>14889</name>
<sym>Dot</sym>
</trkpt>
<trkpt lat="39.680640" lon="-8.642117">
<ele>352.0</ele>
<desc>Speed 11.6 km/h Distance 68.82 km</desc>
<time>2011-05-22T12:44:46.99</time>
<name>14890</name>
<sym>Dot</sym>
</trkpt>
<trkpt lat="39.680635" lon="-8.642155">
<ele>352.0</ele>
<desc>Speed 11.8 km/h Distance 68.83 km</desc>
<time>2011-05-22T12:44:47.99</time>
<name>14891</name>
<sym>Dot</sym>
</trkpt>
<trkpt lat="39.680628" lon="-8.642192">
<ele>352.0</ele>
<desc>Speed 11.4 km/h Distance 68.83 km</desc>
<time>2011-05-22T12:44:48.98</time>
<name>14892</name>
<sym>Dot</sym>
</trkpt>
<trkpt lat="39.680622" lon="-8.642227">
<ele>352.5</ele>
<desc>Speed 11.2 km/h Distance 68.83 km</desc>
<time>2011-05-22T12:44:49.97</time>
<name>14893</name>
<sym>Dot</sym>
</trkpt>
<trkpt lat="39.680617" lon="-8.642262">
<ele>352.5</ele>
<desc>Speed 11.4 km/h Distance 68.84 km</desc>
<time>2011-05-22T12:44:50.96</time>
<name>14894</name>
<sym>Dot</sym>
</trkpt>
<trkpt lat="39.680610" lon="-8.642298">
<ele>352.5</ele>
<desc>Speed 11.6 km/h Distance 68.84 km</desc>
<time>2011-05-22T12:44:51.96</time>
<name>14895</name>
<sym>Dot</sym>
</trkpt>
<trkpt lat="39.680603" lon="-8.642335">
<ele>352.5</ele>
<desc>Speed 11.7 km/h Distance 68.84 km</desc>
<time>2011-05-22T12:44:52.95</time>
<name>14896</name>
<sym>Dot</sym>
</trkpt>
<trkpt lat="39.680598" lon="-8.642372">
<ele>352.5</ele>
<desc>Speed 11.5 km/h Distance 68.85 km</desc>
<time>2011-05-22T12:44:53.94</time>
<name>14897</name>
<sym>Dot</sym>
</trkpt>
<trkpt lat="39.680593" lon="-8.642407">
<ele>352.0</ele>
<desc>Speed 11.3 km/h Distance 68.85 km</desc>
<time>2011-05-22T12:44:54.94</time>
<name>14898</name>
<sym>Dot</sym>
</trkpt>
<trkpt lat="39.680588" lon="-8.642443">
<ele>352.0</ele>
<desc>Speed 11.5 km/h Distance 68.85 km</desc>
<time>2011-05-22T12:44:55.93</time>
<name>14899</name>
<sym>Dot</sym>
</trkpt>
<trkpt lat="39.680585" lon="-8.642480">
<ele>352.0</ele>
<desc>Speed 11.6 km/h Distance 68.86 km</desc>
<time>2011-05-22T12:44:56.92</time>
<name>14900</name>
<sym>Dot</sym>
</trkpt>
<trkpt lat="39.680582" lon="-8.642517">
<ele>352.0</ele>
<desc>Speed 11.4 km/h Distance 68.86 km</desc>
<time>2011-05-22T12:44:57.92</time>
<name>14901</name>
<sym>Dot</sym>
</trkpt>
<trkpt lat="39.680577" lon="-8.642553">
<ele>352.0</ele>
<desc>Speed 11.5 km/h Distance 68.86 km</desc>
<time>2011-05-22T12:44:58.91</time>
<name>14902</name>
<sym>Dot</sym>
</trkpt>
<trkpt lat="39.680573" lon="-8.642590">
<ele>352.0</ele>
<desc>Speed 11.4 km/h Distance 68.86 km</desc>
<time>2011-05-22T12:44:59.90</time>
<name>14903</name>
<sym>Dot</sym>
</trkpt>
<trkpt lat="39.680570" lon="-8.642627">
<ele>352.0</ele>
<desc>Speed 11.4 km/h Distance 68.87 km</desc>
<time>2011-05-22T12:45:00.90</time>
<name>14904</name>
<sym>Dot</sym>
</trkpt>
<trkpt lat="39.680567" lon="-8.642665">
<ele>351.5</ele>
<desc>Speed 11.7 km/h Distance 68.87 km</desc>
<time>2011-05-22T12:45:01.91</time>
<name>14905</name>
<sym>Dot</sym>
</trkpt>
<trkpt lat="39.680565" lon="-8.642703">
<ele>351.0</ele>
<desc>Speed 11.9 km/h Distance 68.87 km</desc>
<time>2011-05-22T12:45:02.89</time>
<name>14906</name>
<sym>Dot</sym>
</trkpt>
<trkpt lat="39.680562" lon="-8.642742">
<ele>351.0</ele>
<desc>Speed 11.9 km/h Distance 68.88 km</desc>
<time>2011-05-22T12:45:03.90</time>
<name>14907</name>
<sym>Dot</sym>
</trkpt>
<trkpt lat="39.680558" lon="-8.642778">
<ele>351.0</ele>
<desc>Speed 11.8 km/h Distance 68.88 km</desc>
<time>2011-05-22T12:45:04.89</time>
<name>14908</name>
<sym>Dot</sym>
</trkpt>
<trkpt lat="39.680553" lon="-8.642817">
<ele>350.5</ele>
<desc>Speed 11.7 km/h Distance 68.88 km</desc>
<time>2011-05-22T12:45:05.88</time>
<name>14909</name>
<sym>Dot</sym>
</trkpt>
<trkpt lat="39.680548" lon="-8.642853">
<ele>350.0</ele>
<desc>Speed 11.6 km/h Distance 68.89 km</desc>
<time>2011-05-22T12:45:06.88</time>
<name>14910</name>
<sym>Dot</sym>
</trkpt>
<trkpt lat="39.680547" lon="-8.642890">
<ele>350.0</ele>
<desc>Speed 11.3 km/h Distance 68.89 km</desc>
<time>2011-05-22T12:45:07.88</time>
<name>14911</name>
<sym>Dot</sym>
</trkpt>
<trkpt lat="39.680543" lon="-8.642930">
<ele>349.0</ele>
<desc>Speed 11.2 km/h Distance 68.89 km</desc>
<time>2011-05-22T12:45:08.88</time>
<name>14912</name>
<sym>Dot</sym>
</trkpt>
<trkpt lat="39.680540" lon="-8.642967">
<ele>349.0</ele>
<desc>Speed 11.4 km/h Distance 68.90 km</desc>
<time>2011-05-22T12:45:09.87</time>
<name>14913</name>
<sym>Dot</sym>
</trkpt>
<trkpt lat="39.680537" lon="-8.643003">
<ele>349.0</ele>
<desc>Speed 11.4 km/h Distance 68.90 km</desc>
<time>2011-05-22T12:45:10.86</time>
<name>14914</name>
<sym>Dot</sym>
</trkpt>
<trkpt lat="39.680532" lon="-8.643043">
<ele>348.0</ele>
<desc>Speed 11.7 km/h Distance 68.90 km</desc>
<time>2011-05-22T12:45:11.86</time>
<name>14915</name>
<sym>Dot</sym>
</trkpt>
<trkpt lat="39.680530" lon="-8.643082">
<ele>348.0</ele>
<desc>Speed 11.8 km/h Distance 68.91 km</desc>
<time>2011-05-22T12:45:12.86</time>
<name>14916</name>
<sym>Dot</sym>
</trkpt>
<trkpt lat="39.680527" lon="-8.643120">
<ele>347.5</ele>
<desc>Speed 12.0 km/h Distance 68.91 km</desc>
<time>2011-05-22T12:45:13.92</time>
<name>14917</name>
<sym>Dot</sym>
</trkpt>
<trkpt lat="39.680527" lon="-8.643158">
<ele>347.5</ele>
<desc>Speed 11.9 km/h Distance 68.91 km</desc>
<time>2011-05-22T12:45:14.85</time>
<name>14918</name>
<sym>Dot</sym>
</trkpt>
<trkpt lat="39.680527" lon="-8.643198">
<ele>347.5</ele>
<desc>Speed 12.4 km/h Distance 68.92 km</desc>
<time>2011-05-22T12:45:15.85</time>
<name>14919</name>
<sym>Dot</sym>
</trkpt>
<trkpt lat="39.680525" lon="-8.643238">
<ele>347.5</ele>
<desc>Speed 12.3 km/h Distance 68.92 km</desc>
<time>2011-05-22T12:45:16.84</time>
<name>14920</name>
<sym>Dot</sym>
</trkpt>
<trkpt lat="39.680523" lon="-8.643278">
<ele>347.0</ele>
<desc>Speed 12.4 km/h Distance 68.92 km</desc>
<time>2011-05-22T12:45:17.85</time>
<name>14921</name>
<sym>Dot</sym>
</trkpt>
<trkpt lat="39.680518" lon="-8.643315">
<ele>347.0</ele>
<desc>Speed 11.8 km/h Distance 68.93 km</desc>
<time>2011-05-22T12:45:18.84</time>
<name>14922</name>
<sym>Dot</sym>
</trkpt>
<trkpt lat="39.680513" lon="-8.643353">
<ele>346.5</ele>
<desc>Speed 11.7 km/h Distance 68.93 km</desc>
<time>2011-05-22T12:45:19.84</time>
<name>14923</name>
<sym>Dot</sym>
</trkpt>
<trkpt lat="39.680508" lon="-8.643393">
<ele>346.0</ele>
<desc>Speed 11.5 km/h Distance 68.93 km</desc>
<time>2011-05-22T12:45:20.83</time>
<name>14924</name>
<sym>Dot</sym>
</trkpt>
<trkpt lat="39.680503" lon="-8.643432">
<ele>345.5</ele>
<desc>Speed 11.5 km/h Distance 68.94 km</desc>
<time>2011-05-22T12:45:21.83</time>
<name>14925</name>
<sym>Dot</sym>
</trkpt>
<trkpt lat="39.680502" lon="-8.643472">
<ele>345.5</ele>
<desc>Speed 11.6 km/h Distance 68.94 km</desc>
<time>2011-05-22T12:45:22.83</time>
<name>14926</name>
<sym>Dot</sym>
</trkpt>
<trkpt lat="39.680502" lon="-8.643512">
<ele>346.0</ele>
<desc>Speed 12.3 km/h Distance 68.94 km</desc>
<time>2011-05-22T12:45:23.82</time>
<name>14927</name>
<sym>Dot</sym>
</trkpt>
<trkpt lat="39.680502" lon="-8.643555">
<ele>345.5</ele>
<desc>Speed 12.5 km/h Distance 68.95 km</desc>
<time>2011-05-22T12:45:24.82</time>
<name>14928</name>
<sym>Dot</sym>
</trkpt>
<trkpt lat="39.680502" lon="-8.643593">
<ele>346.5</ele>
<desc>Speed 12.0 km/h Distance 68.95 km</desc>
<time>2011-05-22T12:45:25.82</time>
<name>14929</name>
<sym>Dot</sym>
</trkpt>
<trkpt lat="39.680505" lon="-8.643635">
<ele>347.0</ele>
<desc>Speed 12.2 km/h Distance 68.95 km</desc>
<time>2011-05-22T12:45:26.81</time>
<name>14930</name>
<sym>Dot</sym>
</trkpt>
<trkpt lat="39.680508" lon="-8.643673">
<ele>348.0</ele>
<desc>Speed 12.0 km/h Distance 68.96 km</desc>
<time>2011-05-22T12:45:27.80</time>
<name>14931</name>
<sym>Dot</sym>
</trkpt>
<trkpt lat="39.680507" lon="-8.643712">
<ele>348.5</ele>
<desc>Speed 11.9 km/h Distance 68.96 km</desc>
<time>2011-05-22T12:45:28.79</time>
<name>14932</name>
<sym>Dot</sym>
</trkpt>
<trkpt lat="39.680507" lon="-8.643750">
<ele>348.5</ele>
<desc>Speed 11.7 km/h Distance 68.96 km</desc>
<time>2011-05-22T12:45:29.80</time>
<name>14933</name>
<sym>Dot</sym>
</trkpt>
<trkpt lat="39.680507" lon="-8.643788">
<ele>349.0</ele>
<desc>Speed 11.4 km/h Distance 68.97 km</desc>
<time>2011-05-22T12:45:30.79</time>
<name>14934</name>
<sym>Dot</sym>
</trkpt>
<trkpt lat="39.680507" lon="-8.643825">
<ele>349.0</ele>
<desc>Speed 11.3 km/h Distance 68.97 km</desc>
<time>2011-05-22T12:45:31.78</time>
<name>14935</name>
<sym>Dot</sym>
</trkpt>
<trkpt lat="39.680508" lon="-8.643862">
<ele>349.0</ele>
<desc>Speed 11.4 km/h Distance 68.97 km</desc>
<time>2011-05-22T12:45:32.78</time>
<name>14936</name>
<sym>Dot</sym>
</trkpt>
<trkpt lat="39.680510" lon="-8.643898">
<ele>349.0</ele>
<desc>Speed 11.3 km/h Distance 68.98 km</desc>
<time>2011-05-22T12:45:33.77</time>
<name>14937</name>
<sym>Dot</sym>
</trkpt>
<trkpt lat="39.680510" lon="-8.643935">
<ele>349.5</ele>
<desc>Speed 11.3 km/h Distance 68.98 km</desc>
<time>2011-05-22T12:45:34.77</time>
<name>14938</name>
<sym>Dot</sym>
</trkpt>
<trkpt lat="39.680512" lon="-8.643973">
<ele>349.5</ele>
<desc>Speed 11.4 km/h Distance 68.98 km</desc>
<time>2011-05-22T12:45:35.77</time>
<name>14939</name>
<sym>Dot</sym>
</trkpt>
<trkpt lat="39.680512" lon="-8.644010">
<ele>349.5</ele>
<desc>Speed 11.4 km/h Distance 68.99 km</desc>
<time>2011-05-22T12:45:36.76</time>
<name>14940</name>
<sym>Dot</sym>
</trkpt>
<trkpt lat="39.680515" lon="-8.644047">
<ele>350.0</ele>
<desc>Speed 11.2 km/h Distance 68.99 km</desc>
<time>2011-05-22T12:45:37.75</time>
<name>14941</name>
<sym>Dot</sym>
</trkpt>
<trkpt lat="39.680515" lon="-8.644082">
<ele>350.0</ele>
<desc>Speed 10.9 km/h Distance 68.99 km</desc>
<time>2011-05-22T12:45:38.75</time>
<name>14942</name>
<sym>Dot</sym>
</trkpt>
<trkpt lat="39.680517" lon="-8.644117">
<ele>350.0</ele>
<desc>Speed 10.5 km/h Distance 69.00 km</desc>
<time>2011-05-22T12:45:39.75</time>
<name>14943</name>
<sym>Dot</sym>
</trkpt>
<trkpt lat="39.680520" lon="-8.644150">
<ele>350.5</ele>
<desc>Speed 10.4 km/h Distance 69.00 km</desc>
<time>2011-05-22T12:45:40.74</time>
<name>14944</name>
<sym>Dot</sym>
</trkpt>
<trkpt lat="39.680520" lon="-8.644183">
<ele>350.5</ele>
<desc>Speed 10.3 km/h Distance 69.00 km</desc>
<time>2011-05-22T12:45:41.73</time>
<name>14945</name>
<sym>Dot</sym>
</trkpt>
<trkpt lat="39.680522" lon="-8.644218">
<ele>350.5</ele>
<desc>Speed 10.3 km/h Distance 69.01 km</desc>
<time>2011-05-22T12:45:42.73</time>
<name>14946</name>
<sym>Dot</sym>
</trkpt>
<trkpt lat="39.680525" lon="-8.644250">
<ele>351.0</ele>
<desc>Speed 10.0 km/h Distance 69.01 km</desc>
<time>2011-05-22T12:45:43.73</time>
<name>14947</name>
<sym>Dot</sym>
</trkpt>
<trkpt lat="39.680528" lon="-8.644280">
<ele>351.0</ele>
<desc>Speed 9.4 km/h Distance 69.01 km</desc>
<time>2011-05-22T12:45:44.72</time>
<name>14948</name>
<sym>Dot</sym>
</trkpt>
<trkpt lat="39.680533" lon="-8.644308">
<ele>351.0</ele>
<desc>Speed 8.7 km/h Distance 69.01 km</desc>
<time>2011-05-22T12:45:45.71</time>
<name>14949</name>
<sym>Dot</sym>
</trkpt>
<trkpt lat="39.680540" lon="-8.644337">
<ele>351.0</ele>
<desc>Speed 8.7 km/h Distance 69.02 km</desc>
<time>2011-05-22T12:45:46.70</time>
<name>14950</name>
<sym>Dot</sym>
</trkpt>
<trkpt lat="39.680547" lon="-8.644365">
<ele>351.0</ele>
<desc>Speed 9.0 km/h Distance 69.02 km</desc>
<time>2011-05-22T12:45:47.70</time>
<name>14951</name>
<sym>Dot</sym>
</trkpt>
<trkpt lat="39.680553" lon="-8.644393">
<ele>351.5</ele>
<desc>Speed 9.4 km/h Distance 69.02 km</desc>
<time>2011-05-22T12:45:48.70</time>
<name>14952</name>
<sym>Dot</sym>
</trkpt>
<trkpt lat="39.680558" lon="-8.644423">
<ele>352.0</ele>
<desc>Speed 9.2 km/h Distance 69.02 km</desc>
<time>2011-05-22T12:45:49.70</time>
<name>14953</name>
<sym>Dot</sym>
</trkpt>
<trkpt lat="39.680562" lon="-8.644453">
<ele>352.0</ele>
<desc>Speed 9.0 km/h Distance 69.03 km</desc>
<time>2011-05-22T12:45:50.69</time>
<name>14954</name>
<sym>Dot</sym>
</trkpt>
<trkpt lat="39.680567" lon="-8.644482">
<ele>352.0</ele>
<desc>Speed 9.0 km/h Distance 69.03 km</desc>
<time>2011-05-22T12:45:51.70</time>
<name>14955</name>
<sym>Dot</sym>
</trkpt>
<trkpt lat="39.680572" lon="-8.644508">
<ele>352.0</ele>
<desc>Speed 8.4 km/h Distance 69.03 km</desc>
<time>2011-05-22T12:45:52.70</time>
<name>14956</name>
<sym>Dot</sym>
</trkpt>
<trkpt lat="39.680577" lon="-8.644533">
<ele>352.0</ele>
<desc>Speed 8.0 km/h Distance 69.03 km</desc>
<time>2011-05-22T12:45:53.69</time>
<name>14957</name>
<sym>Dot</sym>
</trkpt>
<trkpt lat="39.680582" lon="-8.644553">
<ele>352.5</ele>
<desc>Speed 6.1 km/h Distance 69.03 km</desc>
<time>2011-05-22T12:45:54.68</time>
<name>14958</name>
<sym>Dot</sym>
</trkpt>
<trkpt lat="39.680587" lon="-8.644570">
<ele>352.5</ele>
<desc>Speed 5.7 km/h Distance 69.04 km</desc>
<time>2011-05-22T12:45:55.68</time>
<name>14959</name>
<sym>Dot</sym>
</trkpt>
<trkpt lat="39.680592" lon="-8.644585">
<ele>353.0</ele>
<desc>Speed 4.8 km/h Distance 69.04 km</desc>
<time>2011-05-22T12:45:56.68</time>
<name>14960</name>
<sym>Dot</sym>
</trkpt>
<trkpt lat="39.680598" lon="-8.644600">
<ele>353.0</ele>
<desc>Speed 5.0 km/h Distance 69.04 km</desc>
<time>2011-05-22T12:45:57.67</time>
<name>14961</name>
<sym>Dot</sym>
</trkpt>
<trkpt lat="39.680603" lon="-8.644617">
<ele>353.5</ele>
<desc>Speed 5.5 km/h Distance 69.04 km</desc>
<time>2011-05-22T12:45:58.67</time>
<name>14962</name>
<sym>Dot</sym>
</trkpt>
<trkpt lat="39.680608" lon="-8.644635">
<ele>354.0</ele>
<desc>Speed 6.2 km/h Distance 69.04 km</desc>
<time>2011-05-22T12:45:59.66</time>
<name>14963</name>
<sym>Dot</sym>
</trkpt>
<trkpt lat="39.680615" lon="-8.644657">
<ele>354.0</ele>
<desc>Speed 6.8 km/h Distance 69.04 km</desc>
<time>2011-05-22T12:46:00.65</time>
<name>14964</name>
<sym>Dot</sym>
</trkpt>
<trkpt lat="39.680622" lon="-8.644677">
<ele>354.5</ele>
<desc>Speed 6.8 km/h Distance 69.05 km</desc>
<time>2011-05-22T12:46:01.64</time>
<name>14965</name>
<sym>Dot</sym>
</trkpt>
<trkpt lat="39.680628" lon="-8.644698">
<ele>354.5</ele>
<desc>Speed 7.1 km/h Distance 69.05 km</desc>
<time>2011-05-22T12:46:02.64</time>
<name>14966</name>
<sym>Dot</sym>
</trkpt>
<trkpt lat="39.680637" lon="-8.644722">
<ele>354.5</ele>
<desc>Speed 6.8 km/h Distance 69.05 km</desc>
<time>2011-05-22T12:46:03.64</time>
<name>14967</name>
<sym>Dot</sym>
</trkpt>
<trkpt lat="39.680645" lon="-8.644742">
<ele>354.5</ele>
<desc>Speed 6.3 km/h Distance 69.05 km</desc>
<time>2011-05-22T12:46:04.64</time>
<name>14968</name>
<sym>Dot</sym>
</trkpt>
<trkpt lat="39.680653" lon="-8.644757">
<ele>354.5</ele>
<desc>Speed 4.6 km/h Distance 69.05 km</desc>
<time>2011-05-22T12:46:05.64</time>
<name>14969</name>
<sym>Dot</sym>
</trkpt>
<trkpt lat="39.680658" lon="-8.644770">
<ele>354.5</ele>
<desc>Speed 4.6 km/h Distance 69.06 km</desc>
<time>2011-05-22T12:46:06.64</time>
<name>14970</name>
<sym>Dot</sym>
</trkpt>
<trkpt lat="39.680665" lon="-8.644782">
<ele>355.0</ele>
<desc>Speed 4.8 km/h Distance 69.06 km</desc>
<time>2011-05-22T12:46:07.63</time>
<name>14971</name>
<sym>Dot</sym>
</trkpt>
<trkpt lat="39.680673" lon="-8.644795">
<ele>356.0</ele>
<desc>Speed 5.0 km/h Distance 69.06 km</desc>
<time>2011-05-22T12:46:08.63</time>
<name>14972</name>
<sym>Dot</sym>
</trkpt>
<trkpt lat="39.680683" lon="-8.644812">
<ele>356.0</ele>
<desc>Speed 6.4 km/h Distance 69.06 km</desc>
<time>2011-05-22T12:46:09.63</time>
<name>14973</name>
<sym>Dot</sym>
</trkpt>
<trkpt lat="39.680697" lon="-8.644830">
<ele>356.0</ele>
<desc>Speed 7.2 km/h Distance 69.06 km</desc>
<time>2011-05-22T12:46:10.63</time>
<name>14974</name>
<sym>Dot</sym>
</trkpt>
<trkpt lat="39.680708" lon="-8.644848">
<ele>356.5</ele>
<desc>Speed 6.8 km/h Distance 69.06 km</desc>
<time>2011-05-22T12:46:11.62</time>
<name>14975</name>
<sym>Dot</sym>
</trkpt>
<trkpt lat="39.680718" lon="-8.644865">
<ele>356.5</ele>
<desc>Speed 6.6 km/h Distance 69.07 km</desc>
<time>2011-05-22T12:46:12.61</time>
<name>14976</name>
<sym>Dot</sym>
</trkpt>
<trkpt lat="39.680728" lon="-8.644883">
<ele>357.0</ele>
<desc>Speed 6.4 km/h Distance 69.07 km</desc>
<time>2011-05-22T12:46:13.61</time>
<name>14977</name>
<sym>Dot</sym>
</trkpt>
<trkpt lat="39.680740" lon="-8.644898">
<ele>357.0</ele>
<desc>Speed 6.4 km/h Distance 69.07 km</desc>
<time>2011-05-22T12:46:14.61</time>
<name>14978</name>
<sym>Dot</sym>
</trkpt>
<trkpt lat="39.680755" lon="-8.644915">
<ele>357.0</ele>
<desc>Speed 6.9 km/h Distance 69.07 km</desc>
<time>2011-05-22T12:46:15.61</time>
<name>14979</name>
<sym>Dot</sym>
</trkpt>
<trkpt lat="39.680768" lon="-8.644930">
<ele>357.5</ele>
<desc>Speed 6.7 km/h Distance 69.07 km</desc>
<time>2011-05-22T12:46:16.60</time>
<name>14980</name>
<sym>Dot</sym>
</trkpt>
<trkpt lat="39.680783" lon="-8.644947">
<ele>357.5</ele>
<desc>Speed 7.5 km/h Distance 69.08 km</desc>
<time>2011-05-22T12:46:17.61</time>
<name>14981</name>
<sym>Dot</sym>
</trkpt>
<trkpt lat="39.680798" lon="-8.644963">
<ele>358.0</ele>
<desc>Speed 7.2 km/h Distance 69.08 km</desc>
<time>2011-05-22T12:46:18.60</time>
<name>14982</name>
<sym>Dot</sym>
</trkpt>
<trkpt lat="39.680813" lon="-8.644978">
<ele>358.0</ele>
<desc>Speed 7.1 km/h Distance 69.08 km</desc>
<time>2011-05-22T12:46:19.59</time>
<name>14983</name>
<sym>Dot</sym>
</trkpt>
<trkpt lat="39.680827" lon="-8.644992">
<ele>358.5</ele>
<desc>Speed 6.3 km/h Distance 69.08 km</desc>
<time>2011-05-22T12:46:20.59</time>
<name>14984</name>
<sym>Dot</sym>
</trkpt>
<trkpt lat="39.680840" lon="-8.645008">
<ele>358.5</ele>
<desc>Speed 7.1 km/h Distance 69.08 km</desc>
<time>2011-05-22T12:46:21.59</time>
<name>14985</name>
<sym>Dot</sym>
</trkpt>
<trkpt lat="39.680850" lon="-8.645022">
<ele>359.0</ele>
<desc>Speed 5.8 km/h Distance 69.09 km</desc>
<time>2011-05-22T12:46:22.59</time>
<name>14986</name>
<sym>Dot</sym>
</trkpt>
<trkpt lat="39.680862" lon="-8.645037">
<ele>359.0</ele>
<desc>Speed 5.9 km/h Distance 69.09 km</desc>
<time>2011-05-22T12:46:23.58</time>
<name>14987</name>
<sym>Dot</sym>
</trkpt>
<trkpt lat="39.680875" lon="-8.645055">
<ele>359.0</ele>
<desc>Speed 7.4 km/h Distance 69.09 km</desc>
<time>2011-05-22T12:46:24.58</time>
<name>14988</name>
<sym>Dot</sym>
</trkpt>
<trkpt lat="39.680885" lon="-8.645072">
<ele>359.5</ele>
<desc>Speed 6.4 km/h Distance 69.09 km</desc>
<time>2011-05-22T12:46:25.57</time>
<name>14989</name>
<sym>Dot</sym>
</trkpt>
<trkpt lat="39.680893" lon="-8.645090">
<ele>359.5</ele>
<desc>Speed 6.3 km/h Distance 69.09 km</desc>
<time>2011-05-22T12:46:26.57</time>
<name>14990</name>
<sym>Dot</sym>
</trkpt>
<trkpt lat="39.680903" lon="-8.645110">
<ele>359.5</ele>
<desc>Speed 6.8 km/h Distance 69.10 km</desc>
<time>2011-05-22T12:46:27.56</time>
<name>14991</name>
<sym>Dot</sym>
</trkpt>
<trkpt lat="39.680912" lon="-8.645130">
<ele>359.5</ele>
<desc>Speed 7.4 km/h Distance 69.10 km</desc>
<time>2011-05-22T12:46:28.55</time>
<name>14992</name>
<sym>Dot</sym>
</trkpt>
<trkpt lat="39.680923" lon="-8.645153">
<ele>359.5</ele>
<desc>Speed 7.5 km/h Distance 69.10 km</desc>
<time>2011-05-22T12:46:29.54</time>
<name>14993</name>
<sym>Dot</sym>
</trkpt>
<trkpt lat="39.680932" lon="-8.645173">
<ele>360.0</ele>
<desc>Speed 7.1 km/h Distance 69.10 km</desc>
<time>2011-05-22T12:46:30.53</time>
<name>14994</name>
<sym>Dot</sym>
</trkpt>
<trkpt lat="39.680940" lon="-8.645197">
<ele>360.0</ele>
<desc>Speed 7.3 km/h Distance 69.10 km</desc>
<time>2011-05-22T12:46:31.53</time>
<name>14995</name>
<sym>Dot</sym>
</trkpt>
<trkpt lat="39.680948" lon="-8.645218">
<ele>360.0</ele>
<desc>Speed 7.5 km/h Distance 69.11 km</desc>
<time>2011-05-22T12:46:32.52</time>
<name>14996</name>
<sym>Dot</sym>
</trkpt>
<trkpt lat="39.680953" lon="-8.645242">
<ele>360.5</ele>
<desc>Speed 7.2 km/h Distance 69.11 km</desc>
<time>2011-05-22T12:46:33.52</time>
<name>14997</name>
<sym>Dot</sym>
</trkpt>
<trkpt lat="39.680960" lon="-8.645268">
<ele>360.5</ele>
<desc>Speed 8.3 km/h Distance 69.11 km</desc>
<time>2011-05-22T12:46:34.52</time>
<name>14998</name>
<sym>Dot</sym>
</trkpt>
<trkpt lat="39.680965" lon="-8.645295">
<ele>360.5</ele>
<desc>Speed 8.1 km/h Distance 69.11 km</desc>
<time>2011-05-22T12:46:35.51</time>
<name>14999</name>
<sym>Dot</sym>
</trkpt>
<trkpt lat="39.680968" lon="-8.645322">
<ele>360.5</ele>
<desc>Speed 8.2 km/h Distance 69.11 km</desc>
<time>2011-05-22T12:46:36.51</time>
<name>15000</name>
<sym>Dot</sym>
</trkpt>
<trkpt lat="39.680973" lon="-8.645350">
<ele>360.5</ele>
<desc>Speed 8.7 km/h Distance 69.12 km</desc>
<time>2011-05-22T12:46:37.51</time>
<name>15001</name>
<sym>Dot</sym>
</trkpt>
<trkpt lat="39.680977" lon="-8.645380">
<ele>360.5</ele>
<desc>Speed 9.0 km/h Distance 69.12 km</desc>
<time>2011-05-22T12:46:38.50</time>
<name>15002</name>
<sym>Dot</sym>
</trkpt>
<trkpt lat="39.680977" lon="-8.645410">
<ele>361.0</ele>
<desc>Speed 9.0 km/h Distance 69.12 km</desc>
<time>2011-05-22T12:46:39.50</time>
<name>15003</name>
<sym>Dot</sym>
</trkpt>
<trkpt lat="39.680977" lon="-8.645438">
<ele>361.0</ele>
<desc>Speed 8.7 km/h Distance 69.12 km</desc>
<time>2011-05-22T12:46:40.49</time>
<name>15004</name>
<sym>Dot</sym>
</trkpt>
<trkpt lat="39.680978" lon="-8.645467">
<ele>361.5</ele>
<desc>Speed 8.6 km/h Distance 69.13 km</desc>
<time>2011-05-22T12:46:41.49</time>
<name>15005</name>
<sym>Dot</sym>
</trkpt>
<trkpt lat="39.680978" lon="-8.645497">
<ele>361.5</ele>
<desc>Speed 9.0 km/h Distance 69.13 km</desc>
<time>2011-05-22T12:46:42.49</time>
<name>15006</name>
<sym>Dot</sym>
</trkpt>
<trkpt lat="39.680977" lon="-8.645528">
<ele>362.0</ele>
<desc>Speed 9.6 km/h Distance 69.13 km</desc>
<time>2011-05-22T12:46:43.49</time>
<name>15007</name>
<sym>Dot</sym>
</trkpt>
<trkpt lat="39.680973" lon="-8.645563">
<ele>361.5</ele>
<desc>Speed 9.8 km/h Distance 69.14 km</desc>
<time>2011-05-22T12:46:44.48</time>
<name>15008</name>
<sym>Dot</sym>
</trkpt>
<trkpt lat="39.680970" lon="-8.645600">
<ele>361.0</ele>
<desc>Speed 9.9 km/h Distance 69.14 km</desc>
<time>2011-05-22T12:46:45.48</time>
<name>15009</name>
<sym>Dot</sym>
</trkpt>
<trkpt lat="39.680965" lon="-8.645632">
<ele>361.5</ele>
<desc>Speed 10.0 km/h Distance 69.14 km</desc>
<time>2011-05-22T12:46:46.48</time>
<name>15010</name>
<sym>Dot</sym>
</trkpt>
<trkpt lat="39.680960" lon="-8.645665">
<ele>361.0</ele>
<desc>Speed 9.3 km/h Distance 69.14 km</desc>
<time>2011-05-22T12:46:47.48</time>
<name>15011</name>
<sym>Dot</sym>
</trkpt>
<trkpt lat="39.680953" lon="-8.645695">
<ele>360.5</ele>
<desc>Speed 8.9 km/h Distance 69.15 km</desc>
<time>2011-05-22T12:46:48.47</time>
<name>15012</name>
<sym>Dot</sym>
</trkpt>
<trkpt lat="39.680945" lon="-8.645723">
<ele>360.5</ele>
<desc>Speed 9.1 km/h Distance 69.15 km</desc>
<time>2011-05-22T12:46:49.47</time>
<name>15013</name>
<sym>Dot</sym>
</trkpt>
<trkpt lat="39.680938" lon="-8.645752">
<ele>361.0</ele>
<desc>Speed 9.2 km/h Distance 69.15 km</desc>
<time>2011-05-22T12:46:50.47</time>
<name>15014</name>
<sym>Dot</sym>
</trkpt>
<trkpt lat="39.680930" lon="-8.645782">
<ele>361.0</ele>
<desc>Speed 9.6 km/h Distance 69.16 km</desc>
<time>2011-05-22T12:46:51.47</time>
<name>15015</name>
<sym>Dot</sym>
</trkpt>
<trkpt lat="39.680923" lon="-8.645813">
<ele>361.0</ele>
<desc>Speed 9.9 km/h Distance 69.16 km</desc>
<time>2011-05-22T12:46:52.47</time>
<name>15016</name>
<sym>Dot</sym>
</trkpt>
<trkpt lat="39.680915" lon="-8.645843">
<ele>361.0</ele>
<desc>Speed 9.1 km/h Distance 69.16 km</desc>
<time>2011-05-22T12:46:53.46</time>
<name>15017</name>
<sym>Dot</sym>
</trkpt>
<trkpt lat="39.680908" lon="-8.645873">
<ele>360.5</ele>
<desc>Speed 9.2 km/h Distance 69.16 km</desc>
<time>2011-05-22T12:46:54.45</time>
<name>15018</name>
<sym>Dot</sym>
</trkpt>
<trkpt lat="39.680900" lon="-8.645903">
<ele>360.0</ele>
<desc>Speed 9.3 km/h Distance 69.17 km</desc>
<time>2011-05-22T12:46:55.45</time>
<name>15019</name>
<sym>Dot</sym>
</trkpt>
<trkpt lat="39.680892" lon="-8.645932">
<ele>360.0</ele>
<desc>Speed 9.4 km/h Distance 69.17 km</desc>
<time>2011-05-22T12:46:56.44</time>
<name>15020</name>
<sym>Dot</sym>
</trkpt>
<trkpt lat="39.680883" lon="-8.645962">
<ele>360.0</ele>
<desc>Speed 9.4 km/h Distance 69.17 km</desc>
<time>2011-05-22T12:46:57.44</time>
<name>15021</name>
<sym>Dot</sym>
</trkpt>
<trkpt lat="39.680875" lon="-8.645990">
<ele>359.5</ele>
<desc>Speed 9.2 km/h Distance 69.17 km</desc>
<time>2011-05-22T12:46:58.44</time>
<name>15022</name>
<sym>Dot</sym>
</trkpt>
<trkpt lat="39.680865" lon="-8.646018">
<ele>359.5</ele>
<desc>Speed 9.3 km/h Distance 69.18 km</desc>
<time>2011-05-22T12:46:59.44</time>
<name>15023</name>
<sym>Dot</sym>
</trkpt>
<trkpt lat="39.680857" lon="-8.646048">
<ele>359.5</ele>
<desc>Speed 9.2 km/h Distance 69.18 km</desc>
<time>2011-05-22T12:47:00.43</time>
<name>15024</name>
<sym>Dot</sym>
</trkpt>
<trkpt lat="39.680848" lon="-8.646077">
<ele>359.5</ele>
<desc>Speed 9.3 km/h Distance 69.18 km</desc>
<time>2011-05-22T12:47:01.43</time>
<name>15025</name>
<sym>Dot</sym>
</trkpt>
<trkpt lat="39.680840" lon="-8.646108">
<ele>359.5</ele>
<desc>Speed 9.9 km/h Distance 69.18 km</desc>
<time>2011-05-22T12:47:02.42</time>
<name>15026</name>
<sym>Dot</sym>
</trkpt>
<trkpt lat="39.680832" lon="-8.646138">
<ele>359.5</ele>
<desc>Speed 10.0 km/h Distance 69.19 km</desc>
<time>2011-05-22T12:47:03.42</time>
<name>15027</name>
<sym>Dot</sym>
</trkpt>
<trkpt lat="39.680823" lon="-8.646168">
<ele>359.5</ele>
<desc>Speed 9.8 km/h Distance 69.19 km</desc>
<time>2011-05-22T12:47:04.41</time>
<name>15028</name>
<sym>Dot</sym>
</trkpt>
<trkpt lat="39.680815" lon="-8.646198">
<ele>359.0</ele>
<desc>Speed 9.5 km/h Distance 69.19 km</desc>
<time>2011-05-22T12:47:05.40</time>
<name>15029</name>
<sym>Dot</sym>
</trkpt>
<trkpt lat="39.680807" lon="-8.646227">
<ele>358.5</ele>
<desc>Speed 9.5 km/h Distance 69.20 km</desc>
<time>2011-05-22T12:47:06.40</time>
<name>15030</name>
<sym>Dot</sym>
</trkpt>
<trkpt lat="39.680797" lon="-8.646255">
<ele>358.5</ele>
<desc>Speed 9.3 km/h Distance 69.20 km</desc>
<time>2011-05-22T12:47:07.40</time>
<name>15031</name>
<sym>Dot</sym>
</trkpt>
<trkpt lat="39.680788" lon="-8.646283">
<ele>358.5</ele>
<desc>Speed 9.4 km/h Distance 69.20 km</desc>
<time>2011-05-22T12:47:08.39</time>
<name>15032</name>
<sym>Dot</sym>
</trkpt>
<trkpt lat="39.680778" lon="-8.646313">
<ele>358.0</ele>
<desc>Speed 9.8 km/h Distance 69.20 km</desc>
<time>2011-05-22T12:47:09.38</time>
<name>15033</name>
<sym>Dot</sym>
</trkpt>
<trkpt lat="39.680770" lon="-8.646345">
<ele>358.0</ele>
<desc>Speed 9.9 km/h Distance 69.21 km</desc>
<time>2011-05-22T12:47:10.38</time>
<name>15034</name>
<sym>Dot</sym>
</trkpt>
<trkpt lat="39.680758" lon="-8.646375">
<ele>358.0</ele>
<desc>Speed 10.1 km/h Distance 69.21 km</desc>
<time>2011-05-22T12:47:11.37</time>
<name>15035</name>
<sym>Dot</sym>
</trkpt>
<trkpt lat="39.680750" lon="-8.646407">
<ele>357.5</ele>
<desc>Speed 10.0 km/h Distance 69.21 km</desc>
<time>2011-05-22T12:47:12.37</time>
<name>15036</name>
<sym>Dot</sym>
</trkpt>
<trkpt lat="39.680742" lon="-8.646438">
<ele>357.5</ele>
<desc>Speed 10.1 km/h Distance 69.22 km</desc>
<time>2011-05-22T12:47:13.37</time>
<name>15037</name>
<sym>Dot</sym>
</trkpt>
<trkpt lat="39.680735" lon="-8.646470">
<ele>357.0</ele>
<desc>Speed 10.0 km/h Distance 69.22 km</desc>
<time>2011-05-22T12:47:14.37</time>
<name>15038</name>
<sym>Dot</sym>
</trkpt>
<trkpt lat="39.680725" lon="-8.646500">
<ele>357.0</ele>
<desc>Speed 10.0 km/h Distance 69.22 km</desc>
<time>2011-05-22T12:47:15.37</time>
<name>15039</name>
<sym>Dot</sym>
</trkpt>
<trkpt lat="39.680715" lon="-8.646530">
<ele>357.0</ele>
<desc>Speed 10.0 km/h Distance 69.22 km</desc>
<time>2011-05-22T12:47:16.36</time>
<name>15040</name>
<sym>Dot</sym>
</trkpt>
<trkpt lat="39.680705" lon="-8.646560">
<ele>357.0</ele>
<desc>Speed 9.9 km/h Distance 69.23 km</desc>
<time>2011-05-22T12:47:17.36</time>
<name>15041</name>
<sym>Dot</sym>
</trkpt>
<trkpt lat="39.680693" lon="-8.646590">
<ele>357.0</ele>
<desc>Speed 10.3 km/h Distance 69.23 km</desc>
<time>2011-05-22T12:47:18.36</time>
<name>15042</name>
<sym>Dot</sym>
</trkpt>
<trkpt lat="39.680685" lon="-8.646622">
<ele>357.0</ele>
<desc>Speed 10.2 km/h Distance 69.23 km</desc>
<time>2011-05-22T12:47:19.36</time>
<name>15043</name>
<sym>Dot</sym>
</trkpt>
<trkpt lat="39.680675" lon="-8.646653">
<ele>356.5</ele>
<desc>Speed 10.0 km/h Distance 69.24 km</desc>
<time>2011-05-22T12:47:20.36</time>
<name>15044</name>
<sym>Dot</sym>
</trkpt>
<trkpt lat="39.680665" lon="-8.646683">
<ele>356.5</ele>
<desc>Speed 10.3 km/h Distance 69.24 km</desc>
<time>2011-05-22T12:47:21.36</time>
<name>15045</name>
<sym>Dot</sym>
</trkpt>
<trkpt lat="39.680653" lon="-8.646713">
<ele>356.5</ele>
<desc>Speed 10.4 km/h Distance 69.24 km</desc>
<time>2011-05-22T12:47:22.35</time>
<name>15046</name>
<sym>Dot</sym>
</trkpt>
<trkpt lat="39.680640" lon="-8.646743">
<ele>356.5</ele>
<desc>Speed 9.9 km/h Distance 69.24 km</desc>
<time>2011-05-22T12:47:23.35</time>
<name>15047</name>
<sym>Dot</sym>
</trkpt>
<trkpt lat="39.680628" lon="-8.646772">
<ele>357.0</ele>
<desc>Speed 9.9 km/h Distance 69.25 km</desc>
<time>2011-05-22T12:47:24.35</time>
<name>15048</name>
<sym>Dot</sym>
</trkpt>
<trkpt lat="39.680617" lon="-8.646800">
<ele>357.0</ele>
<desc>Speed 10.0 km/h Distance 69.25 km</desc>
<time>2011-05-22T12:47:25.34</time>
<name>15049</name>
<sym>Dot</sym>
</trkpt>
<trkpt lat="39.680607" lon="-8.646832">
<ele>357.0</ele>
<desc>Speed 10.4 km/h Distance 69.25 km</desc>
<time>2011-05-22T12:47:26.34</time>
<name>15050</name>
<sym>Dot</sym>
</trkpt>
<trkpt lat="39.680597" lon="-8.646863">
<ele>357.0</ele>
<desc>Speed 10.5 km/h Distance 69.26 km</desc>
<time>2011-05-22T12:47:27.33</time>
<name>15051</name>
<sym>Dot</sym>
</trkpt>
<trkpt lat="39.680585" lon="-8.646895">
<ele>357.5</ele>
<desc>Speed 10.5 km/h Distance 69.26 km</desc>
<time>2011-05-22T12:47:28.33</time>
<name>15052</name>
<sym>Dot</sym>
</trkpt>
<trkpt lat="39.680575" lon="-8.646928">
<ele>357.5</ele>
<desc>Speed 10.8 km/h Distance 69.26 km</desc>
<time>2011-05-22T12:47:29.33</time>
<name>15053</name>
<sym>Dot</sym>
</trkpt>
<trkpt lat="39.680560" lon="-8.646953">
<ele>358.5</ele>
<desc>Speed 9.6 km/h Distance 69.26 km</desc>
<time>2011-05-22T12:47:30.33</time>
<name>15054</name>
<sym>Dot</sym>
</trkpt>
<trkpt lat="39.680548" lon="-8.646980">
<ele>359.0</ele>
<desc>Speed 9.7 km/h Distance 69.27 km</desc>
<time>2011-05-22T12:47:31.34</time>
<name>15055</name>
<sym>Dot</sym>
</trkpt>
<trkpt lat="39.680537" lon="-8.647010">
<ele>359.5</ele>
<desc>Speed 10.0 km/h Distance 69.27 km</desc>
<time>2011-05-22T12:47:32.32</time>
<name>15056</name>
<sym>Dot</sym>
</trkpt>
<trkpt lat="39.680527" lon="-8.647043">
<ele>359.5</ele>
<desc>Speed 10.8 km/h Distance 69.27 km</desc>
<time>2011-05-22T12:47:33.32</time>
<name>15057</name>
<sym>Dot</sym>
</trkpt>
<trkpt lat="39.680515" lon="-8.647077">
<ele>360.0</ele>
<desc>Speed 11.0 km/h Distance 69.28 km</desc>
<time>2011-05-22T12:47:34.31</time>
<name>15058</name>
<sym>Dot</sym>
</trkpt>
<trkpt lat="39.680503" lon="-8.647110">
<ele>360.0</ele>
<desc>Speed 11.0 km/h Distance 69.28 km</desc>
<time>2011-05-22T12:47:35.31</time>
<name>15059</name>
<sym>Dot</sym>
</trkpt>
<trkpt lat="39.680492" lon="-8.647142">
<ele>360.5</ele>
<desc>Speed 11.0 km/h Distance 69.28 km</desc>
<time>2011-05-22T12:47:36.30</time>
<name>15060</name>
<sym>Dot</sym>
</trkpt>
<trkpt lat="39.680478" lon="-8.647175">
<ele>360.5</ele>
<desc>Speed 11.3 km/h Distance 69.29 km</desc>
<time>2011-05-22T12:47:37.29</time>
<name>15061</name>
<sym>Dot</sym>
</trkpt>
<trkpt lat="39.680467" lon="-8.647208">
<ele>361.0</ele>
<desc>Speed 11.1 km/h Distance 69.29 km</desc>
<time>2011-05-22T12:47:38.29</time>
<name>15062</name>
<sym>Dot</sym>
</trkpt>
<trkpt lat="39.680457" lon="-8.647238">
<ele>361.5</ele>
<desc>Speed 9.9 km/h Distance 69.29 km</desc>
<time>2011-05-22T12:47:39.29</time>
<name>15063</name>
<sym>Dot</sym>
</trkpt>
<trkpt lat="39.680445" lon="-8.647263">
<ele>362.0</ele>
<desc>Speed 9.1 km/h Distance 69.29 km</desc>
<time>2011-05-22T12:47:40.29</time>
<name>15064</name>
<sym>Dot</sym>
</trkpt>
<trkpt lat="39.680432" lon="-8.647287">
<ele>362.5</ele>
<desc>Speed 8.7 km/h Distance 69.30 km</desc>
<time>2011-05-22T12:47:41.29</time>
<name>15065</name>
<sym>Dot</sym>
</trkpt>
<trkpt lat="39.680418" lon="-8.647308">
<ele>363.0</ele>
<desc>Speed 8.7 km/h Distance 69.30 km</desc>
<time>2011-05-22T12:47:42.28</time>
<name>15066</name>
<sym>Dot</sym>
</trkpt>
<trkpt lat="39.680408" lon="-8.647327">
<ele>363.5</ele>
<desc>Speed 7.0 km/h Distance 69.30 km</desc>
<time>2011-05-22T12:47:43.27</time>
<name>15067</name>
<sym>Dot</sym>
</trkpt>
<trkpt lat="39.680400" lon="-8.647340">
<ele>363.5</ele>
<desc>Speed 5.3 km/h Distance 69.30 km</desc>
<time>2011-05-22T12:47:44.27</time>
<name>15068</name>
<sym>Dot</sym>
</trkpt>
<trkpt lat="39.680393" lon="-8.647345">
<ele>363.5</ele>
<desc>Speed 3.0 km/h Distance 69.30 km</desc>
<time>2011-05-22T12:47:45.26</time>
<name>15069</name>
<sym>Dot</sym>
</trkpt>
<trkpt lat="39.680392" lon="-8.647347">
<ele>363.5</ele>
<desc>Speed 1.2 km/h Distance 69.30 km</desc>
<time>2011-05-22T12:47:46.27</time>
<name>15070</name>
<sym>Dot</sym>
</trkpt>
<trkpt lat="39.680392" lon="-8.647352">
<ele>364.0</ele>
<desc>Speed 1.1 km/h Distance 69.30 km</desc>
<time>2011-05-22T12:47:54.27</time>
<name>15071</name>
<sym>Dot</sym>
</trkpt>
<trkpt lat="39.680387" lon="-8.647357">
<ele>364.0</ele>
<desc>Speed 2.8 km/h Distance 69.30 km</desc>
<time>2011-05-22T12:47:55.27</time>
<name>15072</name>
<sym>Dot</sym>
</trkpt>
<trkpt lat="39.680377" lon="-8.647365">
<ele>364.0</ele>
<desc>Speed 4.6 km/h Distance 69.31 km</desc>
<time>2011-05-22T12:47:56.27</time>
<name>15073</name>
<sym>Dot</sym>
</trkpt>
<trkpt lat="39.680368" lon="-8.647377">
<ele>364.0</ele>
<desc>Speed 5.1 km/h Distance 69.31 km</desc>
<time>2011-05-22T12:47:57.25</time>
<name>15074</name>
<sym>Dot</sym>
</trkpt>
<trkpt lat="39.680358" lon="-8.647383">
<ele>364.5</ele>
<desc>Speed 4.1 km/h Distance 69.31 km</desc>
<time>2011-05-22T12:47:58.24</time>
<name>15075</name>
<sym>Dot</sym>
</trkpt>
<trkpt lat="39.680348" lon="-8.647393">
<ele>364.0</ele>
<desc>Speed 5.1 km/h Distance 69.31 km</desc>
<time>2011-05-22T12:47:59.24</time>
<name>15076</name>
<sym>Dot</sym>
</trkpt>
<trkpt lat="39.680337" lon="-8.647402">
<ele>364.0</ele>
<desc>Speed 4.6 km/h Distance 69.31 km</desc>
<time>2011-05-22T12:48:00.24</time>
<name>15077</name>
<sym>Dot</sym>
</trkpt>
<trkpt lat="39.680327" lon="-8.647412">
<ele>363.0</ele>
<desc>Speed 4.4 km/h Distance 69.31 km</desc>
<time>2011-05-22T12:48:01.22</time>
<name>15078</name>
<sym>Dot</sym>
</trkpt>
<trkpt lat="39.680315" lon="-8.647422">
<ele>362.5</ele>
<desc>Speed 4.6 km/h Distance 69.31 km</desc>
<time>2011-05-22T12:48:02.22</time>
<name>15079</name>
<sym>Dot</sym>
</trkpt>
<trkpt lat="39.680303" lon="-8.647433">
<ele>362.0</ele>
<desc>Speed 4.6 km/h Distance 69.32 km</desc>
<time>2011-05-22T12:48:03.22</time>
<name>15080</name>
<sym>Dot</sym>
</trkpt>
<trkpt lat="39.680292" lon="-8.647440">
<ele>362.0</ele>
<desc>Speed 4.6 km/h Distance 69.32 km</desc>
<time>2011-05-22T12:48:04.21</time>
<name>15081</name>
<sym>Dot</sym>
</trkpt>
<trkpt lat="39.680283" lon="-8.647445">
<ele>362.5</ele>
<desc>Speed 4.2 km/h Distance 69.32 km</desc>
<time>2011-05-22T12:48:05.20</time>
<name>15082</name>
<sym>Dot</sym>
</trkpt>
<trkpt lat="39.680272" lon="-8.647448">
<ele>362.5</ele>
<desc>Speed 4.3 km/h Distance 69.32 km</desc>
<time>2011-05-22T12:48:06.20</time>
<name>15083</name>
<sym>Dot</sym>
</trkpt>
<trkpt lat="39.680265" lon="-8.647453">
<ele>363.0</ele>
<desc>Speed 3.1 km/h Distance 69.32 km</desc>
<time>2011-05-22T12:48:07.19</time>
<name>15084</name>
<sym>Dot</sym>
</trkpt>
<trkpt lat="39.680260" lon="-8.647455">
<ele>363.0</ele>
<desc>Speed 2.2 km/h Distance 69.32 km</desc>
<time>2011-05-22T12:48:08.19</time>
<name>15085</name>
<sym>Dot</sym>
</trkpt>
<trkpt lat="39.680250" lon="-8.647478">
<ele>360.5</ele>
<desc>Speed 1.8 km/h Distance 69.32 km</desc>
<time>2011-05-22T12:48:55.18</time>
<name>15086</name>
<sym>Dot</sym>
</trkpt>
<trkpt lat="39.680240" lon="-8.647485">
<ele>361.0</ele>
<desc>Speed 4.4 km/h Distance 69.32 km</desc>
<time>2011-05-22T12:48:56.18</time>
<name>15087</name>
<sym>Dot</sym>
</trkpt>
<trkpt lat="39.680222" lon="-8.647492">
<ele>361.5</ele>
<desc>Speed 6.9 km/h Distance 69.33 km</desc>
<time>2011-05-22T12:48:57.17</time>
<name>15088</name>
<sym>Dot</sym>
</trkpt>
<trkpt lat="39.680198" lon="-8.647500">
<ele>361.5</ele>
<desc>Speed 9.4 km/h Distance 69.33 km</desc>
<time>2011-05-22T12:48:58.17</time>
<name>15089</name>
<sym>Dot</sym>
</trkpt>
<trkpt lat="39.680175" lon="-8.647515">
<ele>362.5</ele>
<desc>Speed 10.5 km/h Distance 69.33 km</desc>
<time>2011-05-22T12:48:59.17</time>
<name>15090</name>
<sym>Dot</sym>
</trkpt>
<trkpt lat="39.680138" lon="-8.647530">
<ele>362.5</ele>
<desc>Speed 14.9 km/h Distance 69.34 km</desc>
<time>2011-05-22T12:49:00.17</time>
<name>15091</name>
<sym>Dot</sym>
</trkpt>
<trkpt lat="39.680098" lon="-8.647548">
<ele>363.5</ele>
<desc>Speed 16.2 km/h Distance 69.34 km</desc>
<time>2011-05-22T12:49:01.17</time>
<name>15092</name>
<sym>Dot</sym>
</trkpt>
<trkpt lat="39.680053" lon="-8.647567">
<ele>364.0</ele>
<desc>Speed 19.7 km/h Distance 69.35 km</desc>
<time>2011-05-22T12:49:02.17</time>
<name>15093</name>
<sym>Dot</sym>
</trkpt>
<trkpt lat="39.679993" lon="-8.647585">
<ele>364.5</ele>
<desc>Speed 24.4 km/h Distance 69.35 km</desc>
<time>2011-05-22T12:49:03.18</time>
<name>15094</name>
<sym>Dot</sym>
</trkpt>
<trkpt lat="39.679927" lon="-8.647608">
<ele>364.0</ele>
<desc>Speed 27.5 km/h Distance 69.36 km</desc>
<time>2011-05-22T12:49:04.16</time>
<name>15095</name>
<sym>Dot</sym>
</trkpt>
<trkpt lat="39.679855" lon="-8.647630">
<ele>363.0</ele>
<desc>Speed 29.3 km/h Distance 69.37 km</desc>
<time>2011-05-22T12:49:05.15</time>
<name>15096</name>
<sym>Dot</sym>
</trkpt>
<trkpt lat="39.679778" lon="-8.647647">
<ele>362.0</ele>
<desc>Speed 30.8 km/h Distance 69.38 km</desc>
<time>2011-05-22T12:49:06.15</time>
<name>15097</name>
<sym>Dot</sym>
</trkpt>
<trkpt lat="39.679693" lon="-8.647670">
<ele>362.0</ele>
<desc>Speed 34.3 km/h Distance 69.39 km</desc>
<time>2011-05-22T12:49:07.15</time>
<name>15098</name>
<sym>Dot</sym>
</trkpt>
<trkpt lat="39.679603" lon="-8.647703">
<ele>361.5</ele>
<desc>Speed 36.8 km/h Distance 69.40 km</desc>
<time>2011-05-22T12:49:08.15</time>
<name>15099</name>
<sym>Dot</sym>
</trkpt>
<trkpt lat="39.679510" lon="-8.647743">
<ele>360.5</ele>
<desc>Speed 39.2 km/h Distance 69.41 km</desc>
<time>2011-05-22T12:49:09.13</time>
<name>15100</name>
<sym>Dot</sym>
</trkpt>
<trkpt lat="39.679417" lon="-8.647790">
<ele>360.0</ele>
<desc>Speed 40.0 km/h Distance 69.42 km</desc>
<time>2011-05-22T12:49:10.14</time>
<name>15101</name>
<sym>Dot</sym>
</trkpt>
<trkpt lat="39.679328" lon="-8.647850">
<ele>360.0</ele>
<desc>Speed 39.7 km/h Distance 69.43 km</desc>
<time>2011-05-22T12:49:11.13</time>
<name>15102</name>
<sym>Dot</sym>
</trkpt>
<trkpt lat="39.679248" lon="-8.647915">
<ele>362.0</ele>
<desc>Speed 37.4 km/h Distance 69.44 km</desc>
<time>2011-05-22T12:49:12.12</time>
<name>15103</name>
<sym>Dot</sym>
</trkpt>
<trkpt lat="39.679158" lon="-8.647977">
<ele>362.5</ele>
<desc>Speed 39.7 km/h Distance 69.45 km</desc>
<time>2011-05-22T12:49:13.12</time>
<name>15104</name>
<sym>Dot</sym>
</trkpt>
<trkpt lat="39.679058" lon="-8.648012">
<ele>363.5</ele>
<desc>Speed 41.3 km/h Distance 69.46 km</desc>
<time>2011-05-22T12:49:14.12</time>
<name>15105</name>
<sym>Dot</sym>
</trkpt>
<trkpt lat="39.678962" lon="-8.648047">
<ele>363.5</ele>
<desc>Speed 39.9 km/h Distance 69.48 km</desc>
<time>2011-05-22T12:49:15.11</time>
<name>15106</name>
<sym>Dot</sym>
</trkpt>
<trkpt lat="39.678867" lon="-8.648075">
<ele>364.0</ele>
<desc>Speed 38.2 km/h Distance 69.49 km</desc>
<time>2011-05-22T12:49:16.11</time>
<name>15107</name>
<sym>Dot</sym>
</trkpt>
<trkpt lat="39.678770" lon="-8.648098">
<ele>364.0</ele>
<desc>Speed 38.9 km/h Distance 69.50 km</desc>
<time>2011-05-22T12:49:17.11</time>
<name>15108</name>
<sym>Dot</sym>
</trkpt>
<trkpt lat="39.678663" lon="-8.648108">
<ele>365.0</ele>
<desc>Speed 41.3 km/h Distance 69.51 km</desc>
<time>2011-05-22T12:49:18.11</time>
<name>15109</name>
<sym>Dot</sym>
</trkpt>
<trkpt lat="39.678567" lon="-8.648125">
<ele>365.5</ele>
<desc>Speed 39.1 km/h Distance 69.52 km</desc>
<time>2011-05-22T12:49:19.11</time>
<name>15110</name>
<sym>Dot</sym>
</trkpt>
<trkpt lat="39.678473" lon="-8.648145">
<ele>365.5</ele>
<desc>Speed 37.7 km/h Distance 69.53 km</desc>
<time>2011-05-22T12:49:20.11</time>
<name>15111</name>
<sym>Dot</sym>
</trkpt>
<trkpt lat="39.678373" lon="-8.648175">
<ele>363.0</ele>
<desc>Speed 37.0 km/h Distance 69.54 km</desc>
<time>2011-05-22T12:49:21.10</time>
<name>15112</name>
<sym>Dot</sym>
</trkpt>
<trkpt lat="39.678285" lon="-8.648202">
<ele>362.5</ele>
<desc>Speed 35.9 km/h Distance 69.55 km</desc>
<time>2011-05-22T12:49:22.09</time>
<name>15113</name>
<sym>Dot</sym>
</trkpt>
<trkpt lat="39.678200" lon="-8.648228">
<ele>362.0</ele>
<desc>Speed 34.6 km/h Distance 69.56 km</desc>
<time>2011-05-22T12:49:23.08</time>
<name>15114</name>
<sym>Dot</sym>
</trkpt>
<trkpt lat="39.678118" lon="-8.648258">
<ele>361.0</ele>
<desc>Speed 33.7 km/h Distance 69.57 km</desc>
<time>2011-05-22T12:49:24.08</time>
<name>15115</name>
<sym>Dot</sym>
</trkpt>
<trkpt lat="39.678035" lon="-8.648302">
<ele>359.0</ele>
<desc>Speed 33.0 km/h Distance 69.58 km</desc>
<time>2011-05-22T12:49:25.08</time>
<name>15116</name>
<sym>Dot</sym>
</trkpt>
<trkpt lat="39.677962" lon="-8.648350">
<ele>357.5</ele>
<desc>Speed 32.0 km/h Distance 69.59 km</desc>
<time>2011-05-22T12:49:26.08</time>
<name>15117</name>
<sym>Dot</sym>
</trkpt>
<trkpt lat="39.677895" lon="-8.648400">
<ele>358.0</ele>
<desc>Speed 30.8 km/h Distance 69.60 km</desc>
<time>2011-05-22T12:49:27.07</time>
<name>15118</name>
<sym>Dot</sym>
</trkpt>
<trkpt lat="39.677835" lon="-8.648457">
<ele>358.0</ele>
<desc>Speed 29.6 km/h Distance 69.61 km</desc>
<time>2011-05-22T12:49:28.07</time>
<name>15119</name>
<sym>Dot</sym>
</trkpt>
<trkpt lat="39.677780" lon="-8.648517">
<ele>357.5</ele>
<desc>Speed 28.5 km/h Distance 69.61 km</desc>
<time>2011-05-22T12:49:29.06</time>
<name>15120</name>
<sym>Dot</sym>
</trkpt>
<trkpt lat="39.677730" lon="-8.648577">
<ele>357.5</ele>
<desc>Speed 27.3 km/h Distance 69.62 km</desc>
<time>2011-05-22T12:49:30.05</time>
<name>15121</name>
<sym>Dot</sym>
</trkpt>
<trkpt lat="39.677685" lon="-8.648643">
<ele>357.0</ele>
<desc>Speed 26.9 km/h Distance 69.63 km</desc>
<time>2011-05-22T12:49:31.05</time>
<name>15122</name>
<sym>Dot</sym>
</trkpt>
<trkpt lat="39.677653" lon="-8.648710">
<ele>357.0</ele>
<desc>Speed 24.2 km/h Distance 69.64 km</desc>
<time>2011-05-22T12:49:32.04</time>
<name>15123</name>
<sym>Dot</sym>
</trkpt>
<trkpt lat="39.677635" lon="-8.648785">
<ele>356.5</ele>
<desc>Speed 4.9 km/h Distance 69.64 km</desc>
<time>2011-05-22T12:49:41.60</time>
<name>15124</name>
<sym>Dot</sym>
</trkpt>
<trkpt lat="39.677620" lon="-8.648797">
<ele>356.5</ele>
<desc>Speed 6.7 km/h Distance 69.65 km</desc>
<time>2011-05-22T12:49:42.57</time>
<name>15125</name>
<sym>Dot</sym>
</trkpt>
<trkpt lat="39.677607" lon="-8.648818">
<ele>356.0</ele>
<desc>Speed 8.4 km/h Distance 69.65 km</desc>
<time>2011-05-22T12:49:43.56</time>
<name>15126</name>
<sym>Dot</sym>
</trkpt>
<trkpt lat="39.677600" lon="-8.648840">
<ele>355.5</ele>
<desc>Speed 7.3 km/h Distance 69.65 km</desc>
<time>2011-05-22T12:49:44.56</time>
<name>15127</name>
<sym>Dot</sym>
</trkpt>
<trkpt lat="39.677595" lon="-8.648853">
<ele>355.5</ele>
<desc>Speed 4.2 km/h Distance 69.65 km</desc>
<time>2011-05-22T12:49:45.55</time>
<name>15128</name>
<sym>Dot</sym>
</trkpt>
<trkpt lat="39.677587" lon="-8.648858">
<ele>355.5</ele>
<desc>Speed 3.3 km/h Distance 69.65 km</desc>
<time>2011-05-22T12:49:46.56</time>
<name>15129</name>
<sym>Dot</sym>
</trkpt>
<trkpt lat="39.677577" lon="-8.648862">
<ele>355.0</ele>
<desc>Speed 4.3 km/h Distance 69.65 km</desc>
<time>2011-05-22T12:49:47.55</time>
<name>15130</name>
<sym>Dot</sym>
</trkpt>
<trkpt lat="39.677563" lon="-8.648863">
<ele>354.5</ele>
<desc>Speed 4.9 km/h Distance 69.65 km</desc>
<time>2011-05-22T12:49:48.55</time>
<name>15131</name>
<sym>Dot</sym>
</trkpt>
<trkpt lat="39.677555" lon="-8.648862">
<ele>353.5</ele>
<desc>Speed 4.0 km/h Distance 69.66 km</desc>
<time>2011-05-22T12:49:49.54</time>
<name>15132</name>
<sym>Dot</sym>
</trkpt>
<trkpt lat="39.677550" lon="-8.648867">
<ele>353.0</ele>
<desc>Speed 1.8 km/h Distance 69.66 km</desc>
<time>2011-05-22T12:49:50.53</time>
<name>15133</name>
<sym>Dot</sym>
</trkpt>
<trkpt lat="39.677538" lon="-8.648882">
<ele>350.0</ele>
<desc>Speed 3.0 km/h Distance 69.66 km</desc>
<time>2011-05-22T12:50:36.53</time>
<name>15134</name>
<sym>Dot</sym>
</trkpt>
<trkpt lat="39.677535" lon="-8.648875">
<ele>350.5</ele>
<desc>Speed 3.6 km/h Distance 69.66 km</desc>
<time>2011-05-22T12:50:37.52</time>
<name>15135</name>
<sym>Dot</sym>
</trkpt>
<trkpt lat="39.677533" lon="-8.648865">
<ele>351.5</ele>
<desc>Speed 3.9 km/h Distance 69.66 km</desc>
<time>2011-05-22T12:50:38.52</time>
<name>15136</name>
<sym>Dot</sym>
</trkpt>
<trkpt lat="39.677537" lon="-8.648853">
<ele>352.0</ele>
<desc>Speed 4.3 km/h Distance 69.66 km</desc>
<time>2011-05-22T12:50:39.51</time>
<name>15137</name>
<sym>Dot</sym>
</trkpt>
<trkpt lat="39.677538" lon="-8.648845">
<ele>352.5</ele>
<desc>Speed 3.5 km/h Distance 69.66 km</desc>
<time>2011-05-22T12:50:40.51</time>
<name>15138</name>
<sym>Dot</sym>
</trkpt>
<trkpt lat="39.677542" lon="-8.648843">
<ele>353.0</ele>
<desc>Speed 2.2 km/h Distance 69.66 km</desc>
<time>2011-05-22T12:50:41.50</time>
<name>15139</name>
<sym>Dot</sym>
</trkpt>
<trkpt lat="39.677548" lon="-8.648842">
<ele>353.5</ele>
<desc>Speed 3.7 km/h Distance 69.66 km</desc>
<time>2011-05-22T12:50:42.49</time>
<name>15140</name>
<sym>Dot</sym>
</trkpt>
<trkpt lat="39.677557" lon="-8.648845">
<ele>353.5</ele>
<desc>Speed 3.6 km/h Distance 69.66 km</desc>
<time>2011-05-22T12:50:43.49</time>
<name>15141</name>
<sym>Dot</sym>
</trkpt>
<trkpt lat="39.677565" lon="-8.648853">
<ele>353.5</ele>
<desc>Speed 4.0 km/h Distance 69.66 km</desc>
<time>2011-05-22T12:50:44.49</time>
<name>15142</name>
<sym>Dot</sym>
</trkpt>
<trkpt lat="39.677570" lon="-8.648867">
<ele>353.0</ele>
<desc>Speed 3.7 km/h Distance 69.67 km</desc>
<time>2011-05-22T12:50:45.49</time>
<name>15143</name>
<sym>Dot</sym>
</trkpt>
<trkpt lat="39.677575" lon="-8.648875">
<ele>353.0</ele>
<desc>Speed 3.2 km/h Distance 69.67 km</desc>
<time>2011-05-22T12:50:46.48</time>
<name>15144</name>
<sym>Dot</sym>
</trkpt>
<trkpt lat="39.677578" lon="-8.648887">
<ele>353.0</ele>
<desc>Speed 3.7 km/h Distance 69.67 km</desc>
<time>2011-05-22T12:50:47.48</time>
<name>15145</name>
<sym>Dot</sym>
</trkpt>
<trkpt lat="39.677585" lon="-8.648900">
<ele>353.0</ele>
<desc>Speed 4.9 km/h Distance 69.67 km</desc>
<time>2011-05-22T12:50:48.47</time>
<name>15146</name>
<sym>Dot</sym>
</trkpt>
<trkpt lat="39.677593" lon="-8.648913">
<ele>353.0</ele>
<desc>Speed 5.0 km/h Distance 69.67 km</desc>
<time>2011-05-22T12:50:49.46</time>
<name>15147</name>
<sym>Dot</sym>
</trkpt>
<trkpt lat="39.677603" lon="-8.648928">
<ele>353.0</ele>
<desc>Speed 5.7 km/h Distance 69.67 km</desc>
<time>2011-05-22T12:50:50.45</time>
<name>15148</name>
<sym>Dot</sym>
</trkpt>
<trkpt lat="39.677613" lon="-8.648943">
<ele>352.5</ele>
<desc>Speed 5.4 km/h Distance 69.67 km</desc>
<time>2011-05-22T12:50:51.44</time>
<name>15149</name>
<sym>Dot</sym>
</trkpt>
<trkpt lat="39.677622" lon="-8.648957">
<ele>352.5</ele>
<desc>Speed 5.7 km/h Distance 69.68 km</desc>
<time>2011-05-22T12:50:52.45</time>
<name>15150</name>
<sym>Dot</sym>
</trkpt>
<trkpt lat="39.677632" lon="-8.648967">
<ele>352.5</ele>
<desc>Speed 5.4 km/h Distance 69.68 km</desc>
<time>2011-05-22T12:50:53.44</time>
<name>15151</name>
<sym>Dot</sym>
</trkpt>
<trkpt lat="39.677643" lon="-8.648973">
<ele>352.5</ele>
<desc>Speed 5.5 km/h Distance 69.68 km</desc>
<time>2011-05-22T12:50:54.44</time>
<name>15152</name>
<sym>Dot</sym>
</trkpt>
<trkpt lat="39.677655" lon="-8.648982">
<ele>352.5</ele>
<desc>Speed 5.6 km/h Distance 69.68 km</desc>
<time>2011-05-22T12:50:55.43</time>
<name>15153</name>
<sym>Dot</sym>
</trkpt>
<trkpt lat="39.677665" lon="-8.648988">
<ele>352.5</ele>
<desc>Speed 5.4 km/h Distance 69.68 km</desc>
<time>2011-05-22T12:50:56.44</time>
<name>15154</name>
<sym>Dot</sym>
</trkpt>
<trkpt lat="39.677677" lon="-8.648998">
<ele>353.0</ele>
<desc>Speed 5.4 km/h Distance 69.68 km</desc>
<time>2011-05-22T12:50:57.43</time>
<name>15155</name>
<sym>Dot</sym>
</trkpt>
<trkpt lat="39.677690" lon="-8.649015">
<ele>352.5</ele>
<desc>Speed 7.3 km/h Distance 69.69 km</desc>
<time>2011-05-22T12:50:58.43</time>
<name>15156</name>
<sym>Dot</sym>
</trkpt>
<trkpt lat="39.677702" lon="-8.649033">
<ele>352.5</ele>
<desc>Speed 7.5 km/h Distance 69.69 km</desc>
<time>2011-05-22T12:50:59.43</time>
<name>15157</name>
<sym>Dot</sym>
</trkpt>
<trkpt lat="39.677713" lon="-8.649052">
<ele>352.5</ele>
<desc>Speed 7.6 km/h Distance 69.69 km</desc>
<time>2011-05-22T12:51:00.43</time>
<name>15158</name>
<sym>Dot</sym>
</trkpt>
<trkpt lat="39.677725" lon="-8.649072">
<ele>352.0</ele>
<desc>Speed 7.7 km/h Distance 69.69 km</desc>
<time>2011-05-22T12:51:01.42</time>
<name>15159</name>
<sym>Dot</sym>
</trkpt>
<trkpt lat="39.677737" lon="-8.649092">
<ele>352.0</ele>
<desc>Speed 7.7 km/h Distance 69.69 km</desc>
<time>2011-05-22T12:51:02.41</time>
<name>15160</name>
<sym>Dot</sym>
</trkpt>
<trkpt lat="39.677748" lon="-8.649108">
<ele>351.5</ele>
<desc>Speed 7.5 km/h Distance 69.70 km</desc>
<time>2011-05-22T12:51:03.41</time>
<name>15161</name>
<sym>Dot</sym>
</trkpt>
<trkpt lat="39.677760" lon="-8.649127">
<ele>352.0</ele>
<desc>Speed 7.1 km/h Distance 69.70 km</desc>
<time>2011-05-22T12:51:04.41</time>
<name>15162</name>
<sym>Dot</sym>
</trkpt>
<trkpt lat="39.677772" lon="-8.649143">
<ele>352.0</ele>
<desc>Speed 6.7 km/h Distance 69.70 km</desc>
<time>2011-05-22T12:51:05.41</time>
<name>15163</name>
<sym>Dot</sym>
</trkpt>
<trkpt lat="39.677782" lon="-8.649160">
<ele>352.0</ele>
<desc>Speed 6.6 km/h Distance 69.70 km</desc>
<time>2011-05-22T12:51:06.40</time>
<name>15164</name>
<sym>Dot</sym>
</trkpt>
<trkpt lat="39.677792" lon="-8.649177">
<ele>352.5</ele>
<desc>Speed 6.3 km/h Distance 69.70 km</desc>
<time>2011-05-22T12:51:07.39</time>
<name>15165</name>
<sym>Dot</sym>
</trkpt>
<trkpt lat="39.677802" lon="-8.649193">
<ele>353.0</ele>
<desc>Speed 6.2 km/h Distance 69.70 km</desc>
<time>2011-05-22T12:51:08.39</time>
<name>15166</name>
<sym>Dot</sym>
</trkpt>
<trkpt lat="39.677810" lon="-8.649208">
<ele>353.5</ele>
<desc>Speed 6.1 km/h Distance 69.71 km</desc>
<time>2011-05-22T12:51:09.38</time>
<name>15167</name>
<sym>Dot</sym>
</trkpt>
<trkpt lat="39.677818" lon="-8.649225">
<ele>354.0</ele>
<desc>Speed 6.0 km/h Distance 69.71 km</desc>
<time>2011-05-22T12:51:10.38</time>
<name>15168</name>
<sym>Dot</sym>
</trkpt>
<trkpt lat="39.677828" lon="-8.649243">
<ele>354.5</ele>
<desc>Speed 6.5 km/h Distance 69.71 km</desc>
<time>2011-05-22T12:51:11.37</time>
<name>15169</name>
<sym>Dot</sym>
</trkpt>
<trkpt lat="39.677838" lon="-8.649267">
<ele>354.0</ele>
<desc>Speed 7.5 km/h Distance 69.71 km</desc>
<time>2011-05-22T12:51:12.37</time>
<name>15170</name>
<sym>Dot</sym>
</trkpt>
<trkpt lat="39.677852" lon="-8.649285">
<ele>354.5</ele>
<desc>Speed 7.7 km/h Distance 69.71 km</desc>
<time>2011-05-22T12:51:13.37</time>
<name>15171</name>
<sym>Dot</sym>
</trkpt>
<trkpt lat="39.677863" lon="-8.649305">
<ele>354.5</ele>
<desc>Speed 7.7 km/h Distance 69.72 km</desc>
<time>2011-05-22T12:51:14.37</time>
<name>15172</name>
<sym>Dot</sym>
</trkpt>
<trkpt lat="39.677878" lon="-8.649327">
<ele>355.0</ele>
<desc>Speed 8.1 km/h Distance 69.72 km</desc>
<time>2011-05-22T12:51:15.37</time>
<name>15173</name>
<sym>Dot</sym>
</trkpt>
<trkpt lat="39.677890" lon="-8.649345">
<ele>355.0</ele>
<desc>Speed 8.1 km/h Distance 69.72 km</desc>
<time>2011-05-22T12:51:16.35</time>
<name>15174</name>
<sym>Dot</sym>
</trkpt>
<trkpt lat="39.677903" lon="-8.649365">
<ele>355.0</ele>
<desc>Speed 7.8 km/h Distance 69.72 km</desc>
<time>2011-05-22T12:51:17.36</time>
<name>15175</name>
<sym>Dot</sym>
</trkpt>
<trkpt lat="39.677917" lon="-8.649385">
<ele>355.5</ele>
<desc>Speed 8.4 km/h Distance 69.73 km</desc>
<time>2011-05-22T12:51:18.34</time>
<name>15176</name>
<sym>Dot</sym>
</trkpt>
<trkpt lat="39.677930" lon="-8.649407">
<ele>355.0</ele>
<desc>Speed 8.7 km/h Distance 69.73 km</desc>
<time>2011-05-22T12:51:19.34</time>
<name>15177</name>
<sym>Dot</sym>
</trkpt>
<trkpt lat="39.677943" lon="-8.649430">
<ele>355.0</ele>
<desc>Speed 8.7 km/h Distance 69.73 km</desc>
<time>2011-05-22T12:51:20.33</time>
<name>15178</name>
<sym>Dot</sym>
</trkpt>
<trkpt lat="39.677957" lon="-8.649452">
<ele>355.0</ele>
<desc>Speed 8.7 km/h Distance 69.73 km</desc>
<time>2011-05-22T12:51:21.33</time>
<name>15179</name>
<sym>Dot</sym>
</trkpt>
<trkpt lat="39.677968" lon="-8.649472">
<ele>355.5</ele>
<desc>Speed 8.2 km/h Distance 69.74 km</desc>
<time>2011-05-22T12:51:22.33</time>
<name>15180</name>
<sym>Dot</sym>
</trkpt>
<trkpt lat="39.677983" lon="-8.649495">
<ele>356.0</ele>
<desc>Speed 9.0 km/h Distance 69.74 km</desc>
<time>2011-05-22T12:51:23.33</time>
<name>15181</name>
<sym>Dot</sym>
</trkpt>
<trkpt lat="39.677997" lon="-8.649517">
<ele>356.0</ele>
<desc>Speed 8.9 km/h Distance 69.74 km</desc>
<time>2011-05-22T12:51:24.33</time>
<name>15182</name>
<sym>Dot</sym>
</trkpt>
<trkpt lat="39.678010" lon="-8.649542">
<ele>356.0</ele>
<desc>Speed 9.4 km/h Distance 69.74 km</desc>
<time>2011-05-22T12:51:25.32</time>
<name>15183</name>
<sym>Dot</sym>
</trkpt>
<trkpt lat="39.678025" lon="-8.649567">
<ele>356.5</ele>
<desc>Speed 9.6 km/h Distance 69.75 km</desc>
<time>2011-05-22T12:51:26.32</time>
<name>15184</name>
<sym>Dot</sym>
</trkpt>
<trkpt lat="39.678042" lon="-8.649592">
<ele>356.5</ele>
<desc>Speed 9.6 km/h Distance 69.75 km</desc>
<time>2011-05-22T12:51:27.31</time>
<name>15185</name>
<sym>Dot</sym>
</trkpt>
<trkpt lat="39.678057" lon="-8.649618">
<ele>356.5</ele>
<desc>Speed 9.9 km/h Distance 69.75 km</desc>
<time>2011-05-22T12:51:28.31</time>
<name>15186</name>
<sym>Dot</sym>
</trkpt>
<trkpt lat="39.678072" lon="-8.649647">
<ele>356.5</ele>
<desc>Speed 10.2 km/h Distance 69.75 km</desc>
<time>2011-05-22T12:51:29.30</time>
<name>15187</name>
<sym>Dot</sym>
</trkpt>
<trkpt lat="39.678088" lon="-8.649675">
<ele>356.5</ele>
<desc>Speed 10.5 km/h Distance 69.76 km</desc>
<time>2011-05-22T12:51:30.29</time>
<name>15188</name>
<sym>Dot</sym>
</trkpt>
<trkpt lat="39.678103" lon="-8.649702">
<ele>357.0</ele>
<desc>Speed 10.5 km/h Distance 69.76 km</desc>
<time>2011-05-22T12:51:31.29</time>
<name>15189</name>
<sym>Dot</sym>
</trkpt>
<trkpt lat="39.678120" lon="-8.649728">
<ele>357.0</ele>
<desc>Speed 10.3 km/h Distance 69.76 km</desc>
<time>2011-05-22T12:51:32.29</time>
<name>15190</name>
<sym>Dot</sym>
</trkpt>
<trkpt lat="39.678137" lon="-8.649758">
<ele>357.0</ele>
<desc>Speed 10.9 km/h Distance 69.77 km</desc>
<time>2011-05-22T12:51:33.28</time>
<name>15191</name>
<sym>Dot</sym>
</trkpt>
<trkpt lat="39.678152" lon="-8.649790">
<ele>357.5</ele>
<desc>Speed 11.1 km/h Distance 69.77 km</desc>
<time>2011-05-22T12:51:34.27</time>
<name>15192</name>
<sym>Dot</sym>
</trkpt>
<trkpt lat="39.678168" lon="-8.649818">
<ele>357.5</ele>
<desc>Speed 10.8 km/h Distance 69.77 km</desc>
<time>2011-05-22T12:51:35.27</time>
<name>15193</name>
<sym>Dot</sym>
</trkpt>
<trkpt lat="39.678187" lon="-8.649848">
<ele>358.0</ele>
<desc>Speed 10.9 km/h Distance 69.78 km</desc>
<time>2011-05-22T12:51:36.26</time>
<name>15194</name>
<sym>Dot</sym>
</trkpt>
<trkpt lat="39.678202" lon="-8.649877">
<ele>358.0</ele>
<desc>Speed 10.3 km/h Distance 69.78 km</desc>
<time>2011-05-22T12:51:37.25</time>
<name>15195</name>
<sym>Dot</sym>
</trkpt>
<trkpt lat="39.678215" lon="-8.649907">
<ele>358.0</ele>
<desc>Speed 10.2 km/h Distance 69.78 km</desc>
<time>2011-05-22T12:51:38.27</time>
<name>15196</name>
<sym>Dot</sym>
</trkpt>
<trkpt lat="39.678232" lon="-8.649935">
<ele>358.0</ele>
<desc>Speed 10.4 km/h Distance 69.78 km</desc>
<time>2011-05-22T12:51:39.24</time>
<name>15197</name>
<sym>Dot</sym>
</trkpt>
<trkpt lat="39.678248" lon="-8.649963">
<ele>358.5</ele>
<desc>Speed 11.0 km/h Distance 69.79 km</desc>
<time>2011-05-22T12:51:40.25</time>
<name>15198</name>
<sym>Dot</sym>
</trkpt>
<trkpt lat="39.678265" lon="-8.649992">
<ele>358.5</ele>
<desc>Speed 10.8 km/h Distance 69.79 km</desc>
<time>2011-05-22T12:51:41.24</time>
<name>15199</name>
<sym>Dot</sym>
</trkpt>
<trkpt lat="39.678282" lon="-8.650022">
<ele>358.5</ele>
<desc>Speed 10.6 km/h Distance 69.79 km</desc>
<time>2011-05-22T12:51:42.24</time>
<name>15200</name>
<sym>Dot</sym>
</trkpt>
<trkpt lat="39.678298" lon="-8.650050">
<ele>359.0</ele>
<desc>Speed 10.5 km/h Distance 69.80 km</desc>
<time>2011-05-22T12:51:43.25</time>
<name>15201</name>
<sym>Dot</sym>
</trkpt>
<trkpt lat="39.678315" lon="-8.650078">
<ele>359.0</ele>
<desc>Speed 10.7 km/h Distance 69.80 km</desc>
<time>2011-05-22T12:51:44.24</time>
<name>15202</name>
<sym>Dot</sym>
</trkpt>
<trkpt lat="39.678332" lon="-8.650108">
<ele>359.0</ele>
<desc>Speed 10.8 km/h Distance 69.80 km</desc>
<time>2011-05-22T12:51:45.23</time>
<name>15203</name>
<sym>Dot</sym>
</trkpt>
<trkpt lat="39.678348" lon="-8.650137">
<ele>359.0</ele>
<desc>Speed 10.7 km/h Distance 69.81 km</desc>
<time>2011-05-22T12:51:46.22</time>
<name>15204</name>
<sym>Dot</sym>
</trkpt>
<trkpt lat="39.678365" lon="-8.650167">
<ele>359.0</ele>
<desc>Speed 10.8 km/h Distance 69.81 km</desc>
<time>2011-05-22T12:51:47.21</time>
<name>15205</name>
<sym>Dot</sym>
</trkpt>
<trkpt lat="39.678382" lon="-8.650195">
<ele>359.0</ele>
<desc>Speed 10.9 km/h Distance 69.81 km</desc>
<time>2011-05-22T12:51:48.21</time>
<name>15206</name>
<sym>Dot</sym>
</trkpt>
<trkpt lat="39.678398" lon="-8.650223">
<ele>359.0</ele>
<desc>Speed 10.5 km/h Distance 69.82 km</desc>
<time>2011-05-22T12:51:49.20</time>
<name>15207</name>
<sym>Dot</sym>
</trkpt>
<trkpt lat="39.678413" lon="-8.650253">
<ele>359.0</ele>
<desc>Speed 10.4 km/h Distance 69.82 km</desc>
<time>2011-05-22T12:51:50.20</time>
<name>15208</name>
<sym>Dot</sym>
</trkpt>
<trkpt lat="39.678430" lon="-8.650280">
<ele>359.5</ele>
<desc>Speed 10.3 km/h Distance 69.82 km</desc>
<time>2011-05-22T12:51:51.21</time>
<name>15209</name>
<sym>Dot</sym>
</trkpt>
<trkpt lat="39.678447" lon="-8.650307">
<ele>359.5</ele>
<desc>Speed 10.3 km/h Distance 69.82 km</desc>
<time>2011-05-22T12:51:52.19</time>
<name>15210</name>
<sym>Dot</sym>
</trkpt>
<trkpt lat="39.678460" lon="-8.650335">
<ele>359.5</ele>
<desc>Speed 10.0 km/h Distance 69.83 km</desc>
<time>2011-05-22T12:51:53.19</time>
<name>15211</name>
<sym>Dot</sym>
</trkpt>
<trkpt lat="39.678477" lon="-8.650360">
<ele>359.5</ele>
<desc>Speed 9.8 km/h Distance 69.83 km</desc>
<time>2011-05-22T12:51:54.18</time>
<name>15212</name>
<sym>Dot</sym>
</trkpt>
<trkpt lat="39.678492" lon="-8.650388">
<ele>359.5</ele>
<desc>Speed 9.8 km/h Distance 69.83 km</desc>
<time>2011-05-22T12:51:55.18</time>
<name>15213</name>
<sym>Dot</sym>
</trkpt>
<trkpt lat="39.678508" lon="-8.650413">
<ele>359.5</ele>
<desc>Speed 9.6 km/h Distance 69.84 km</desc>
<time>2011-05-22T12:51:56.18</time>
<name>15214</name>
<sym>Dot</sym>
</trkpt>
<trkpt lat="39.678525" lon="-8.650437">
<ele>359.5</ele>
<desc>Speed 9.3 km/h Distance 69.84 km</desc>
<time>2011-05-22T12:51:57.17</time>
<name>15215</name>
<sym>Dot</sym>
</trkpt>
<trkpt lat="39.678540" lon="-8.650458">
<ele>359.5</ele>
<desc>Speed 8.8 km/h Distance 69.84 km</desc>
<time>2011-05-22T12:51:58.18</time>
<name>15216</name>
<sym>Dot</sym>
</trkpt>
<trkpt lat="39.678555" lon="-8.650483">
<ele>359.5</ele>
<desc>Speed 9.1 km/h Distance 69.84 km</desc>
<time>2011-05-22T12:51:59.17</time>
<name>15217</name>
<sym>Dot</sym>
</trkpt>
<trkpt lat="39.678570" lon="-8.650507">
<ele>359.0</ele>
<desc>Speed 8.4 km/h Distance 69.85 km</desc>
<time>2011-05-22T12:52:00.16</time>
<name>15218</name>
<sym>Dot</sym>
</trkpt>
<trkpt lat="39.678583" lon="-8.650527">
<ele>359.5</ele>
<desc>Speed 8.2 km/h Distance 69.85 km</desc>
<time>2011-05-22T12:52:01.16</time>
<name>15219</name>
<sym>Dot</sym>
</trkpt>
<trkpt lat="39.678598" lon="-8.650545">
<ele>359.5</ele>
<desc>Speed 7.9 km/h Distance 69.85 km</desc>
<time>2011-05-22T12:52:02.16</time>
<name>15220</name>
<sym>Dot</sym>
</trkpt>
<trkpt lat="39.678613" lon="-8.650568">
<ele>359.5</ele>
<desc>Speed 8.4 km/h Distance 69.85 km</desc>
<time>2011-05-22T12:52:03.16</time>
<name>15221</name>
<sym>Dot</sym>
</trkpt>
<trkpt lat="39.678628" lon="-8.650588">
<ele>359.5</ele>
<desc>Speed 8.7 km/h Distance 69.86 km</desc>
<time>2011-05-22T12:52:04.15</time>
<name>15222</name>
<sym>Dot</sym>
</trkpt>
<trkpt lat="39.678642" lon="-8.650610">
<ele>360.0</ele>
<desc>Speed 8.2 km/h Distance 69.86 km</desc>
<time>2011-05-22T12:52:05.15</time>
<name>15223</name>
<sym>Dot</sym>
</trkpt>
<trkpt lat="39.678658" lon="-8.650627">
<ele>360.5</ele>
<desc>Speed 8.0 km/h Distance 69.86 km</desc>
<time>2011-05-22T12:52:06.13</time>
<name>15224</name>
<sym>Dot</sym>
</trkpt>
<trkpt lat="39.678677" lon="-8.650642">
<ele>361.0</ele>
<desc>Speed 8.1 km/h Distance 69.86 km</desc>
<time>2011-05-22T12:52:07.13</time>
<name>15225</name>
<sym>Dot</sym>
</trkpt>
<trkpt lat="39.678695" lon="-8.650658">
<ele>362.0</ele>
<desc>Speed 8.6 km/h Distance 69.87 km</desc>
<time>2011-05-22T12:52:08.12</time>
<name>15226</name>
<sym>Dot</sym>
</trkpt>
<trkpt lat="39.678713" lon="-8.650678">
<ele>362.5</ele>
<desc>Speed 9.3 km/h Distance 69.87 km</desc>
<time>2011-05-22T12:52:09.13</time>
<name>15227</name>
<sym>Dot</sym>
</trkpt>
<trkpt lat="39.678732" lon="-8.650698">
<ele>363.0</ele>
<desc>Speed 9.2 km/h Distance 69.87 km</desc>
<time>2011-05-22T12:52:10.13</time>
<name>15228</name>
<sym>Dot</sym>
</trkpt>
<trkpt lat="39.678752" lon="-8.650722">
<ele>363.0</ele>
<desc>Speed 10.2 km/h Distance 69.87 km</desc>
<time>2011-05-22T12:52:11.12</time>
<name>15229</name>
<sym>Dot</sym>
</trkpt>
<trkpt lat="39.678773" lon="-8.650748">
<ele>363.0</ele>
<desc>Speed 11.5 km/h Distance 69.88 km</desc>
<time>2011-05-22T12:52:12.11</time>
<name>15230</name>
<sym>Dot</sym>
</trkpt>
<trkpt lat="39.678793" lon="-8.650773">
<ele>363.5</ele>
<desc>Speed 10.8 km/h Distance 69.88 km</desc>
<time>2011-05-22T12:52:13.11</time>
<name>15231</name>
<sym>Dot</sym>
</trkpt>
<trkpt lat="39.678813" lon="-8.650797">
<ele>363.5</ele>
<desc>Speed 10.5 km/h Distance 69.88 km</desc>
<time>2011-05-22T12:52:14.11</time>
<name>15232</name>
<sym>Dot</sym>
</trkpt>
<trkpt lat="39.678835" lon="-8.650820">
<ele>363.5</ele>
<desc>Speed 11.1 km/h Distance 69.89 km</desc>
<time>2011-05-22T12:52:15.09</time>
<name>15233</name>
<sym>Dot</sym>
</trkpt>
<trkpt lat="39.678857" lon="-8.650845">
<ele>364.0</ele>
<desc>Speed 11.0 km/h Distance 69.89 km</desc>
<time>2011-05-22T12:52:16.08</time>
<name>15234</name>
<sym>Dot</sym>
</trkpt>
<trkpt lat="39.678878" lon="-8.650868">
<ele>364.0</ele>
<desc>Speed 11.0 km/h Distance 69.89 km</desc>
<time>2011-05-22T12:52:17.08</time>
<name>15235</name>
<sym>Dot</sym>
</trkpt>
<trkpt lat="39.678902" lon="-8.650893">
<ele>364.0</ele>
<desc>Speed 11.8 km/h Distance 69.90 km</desc>
<time>2011-05-22T12:52:18.08</time>
<name>15236</name>
<sym>Dot</sym>
</trkpt>
<trkpt lat="39.678923" lon="-8.650920">
<ele>364.0</ele>
<desc>Speed 11.7 km/h Distance 69.90 km</desc>
<time>2011-05-22T12:52:19.08</time>
<name>15237</name>
<sym>Dot</sym>
</trkpt>
<trkpt lat="39.678947" lon="-8.650947">
<ele>364.0</ele>
<desc>Speed 11.8 km/h Distance 69.90 km</desc>
<time>2011-05-22T12:52:20.07</time>
<name>15238</name>
<sym>Dot</sym>
</trkpt>
<trkpt lat="39.678968" lon="-8.650973">
<ele>364.0</ele>
<desc>Speed 12.0 km/h Distance 69.91 km</desc>
<time>2011-05-22T12:52:21.07</time>
<name>15239</name>
<sym>Dot</sym>
</trkpt>
<trkpt lat="39.678990" lon="-8.651002">
<ele>364.0</ele>
<desc>Speed 11.6 km/h Distance 69.91 km</desc>
<time>2011-05-22T12:52:22.10</time>
<name>15240</name>
<sym>Dot</sym>
</trkpt>
<trkpt lat="39.679012" lon="-8.651028">
<ele>364.5</ele>
<desc>Speed 11.5 km/h Distance 69.91 km</desc>
<time>2011-05-22T12:52:23.06</time>
<name>15241</name>
<sym>Dot</sym>
</trkpt>
<trkpt lat="39.679030" lon="-8.651053">
<ele>364.5</ele>
<desc>Speed 10.6 km/h Distance 69.92 km</desc>
<time>2011-05-22T12:52:24.07</time>
<name>15242</name>
<sym>Dot</sym>
</trkpt>
<trkpt lat="39.679052" lon="-8.651078">
<ele>364.5</ele>
<desc>Speed 11.2 km/h Distance 69.92 km</desc>
<time>2011-05-22T12:52:25.07</time>
<name>15243</name>
<sym>Dot</sym>
</trkpt>
<trkpt lat="39.679072" lon="-8.651105">
<ele>364.5</ele>
<desc>Speed 11.2 km/h Distance 69.92 km</desc>
<time>2011-05-22T12:52:26.06</time>
<name>15244</name>
<sym>Dot</sym>
</trkpt>
<trkpt lat="39.679093" lon="-8.651132">
<ele>364.5</ele>
<desc>Speed 11.2 km/h Distance 69.93 km</desc>
<time>2011-05-22T12:52:27.05</time>
<name>15245</name>
<sym>Dot</sym>
</trkpt>
<trkpt lat="39.679115" lon="-8.651157">
<ele>364.5</ele>
<desc>Speed 11.8 km/h Distance 69.93 km</desc>
<time>2011-05-22T12:52:28.05</time>
<name>15246</name>
<sym>Dot</sym>
</trkpt>
<trkpt lat="39.679142" lon="-8.651185">
<ele>364.5</ele>
<desc>Speed 13.2 km/h Distance 69.93 km</desc>
<time>2011-05-22T12:52:29.05</time>
<name>15247</name>
<sym>Dot</sym>
</trkpt>
<trkpt lat="39.679167" lon="-8.651218">
<ele>364.5</ele>
<desc>Speed 14.1 km/h Distance 69.94 km</desc>
<time>2011-05-22T12:52:30.05</time>
<name>15248</name>
<sym>Dot</sym>
</trkpt>
<trkpt lat="39.679192" lon="-8.651257">
<ele>364.0</ele>
<desc>Speed 15.1 km/h Distance 69.94 km</desc>
<time>2011-05-22T12:52:31.03</time>
<name>15249</name>
<sym>Dot</sym>
</trkpt>
<trkpt lat="39.679218" lon="-8.651298">
<ele>363.5</ele>
<desc>Speed 16.1 km/h Distance 69.95 km</desc>
<time>2011-05-22T12:52:32.03</time>
<name>15250</name>
<sym>Dot</sym>
</trkpt>
<trkpt lat="39.679247" lon="-8.651347">
<ele>363.0</ele>
<desc>Speed 17.8 km/h Distance 69.95 km</desc>
<time>2011-05-22T12:52:33.02</time>
<name>15251</name>
<sym>Dot</sym>
</trkpt>
<trkpt lat="39.679273" lon="-8.651397">
<ele>362.5</ele>
<desc>Speed 18.8 km/h Distance 69.96 km</desc>
<time>2011-05-22T12:52:34.01</time>
<name>15252</name>
<sym>Dot</sym>
</trkpt>
<trkpt lat="39.679297" lon="-8.651455">
<ele>362.5</ele>
<desc>Speed 20.1 km/h Distance 69.96 km</desc>
<time>2011-05-22T12:52:35.01</time>
<name>15253</name>
<sym>Dot</sym>
</trkpt>
<trkpt lat="39.679320" lon="-8.651522">
<ele>362.5</ele>
<desc>Speed 21.7 km/h Distance 69.97 km</desc>
<time>2011-05-22T12:52:36.01</time>
<name>15254</name>
<sym>Dot</sym>
</trkpt>
<trkpt lat="39.679337" lon="-8.651593">
<ele>362.5</ele>
<desc>Speed 23.1 km/h Distance 69.97 km</desc>
<time>2011-05-22T12:52:37.00</time>
<name>15255</name>
<sym>Dot</sym>
</trkpt>
<trkpt lat="39.679347" lon="-8.651675">
<ele>362.5</ele>
<desc>Speed 24.8 km/h Distance 69.98 km</desc>
<time>2011-05-22T12:52:38.00</time>
<name>15256</name>
<sym>Dot</sym>
</trkpt>
<trkpt lat="39.679355" lon="-8.651757">
<ele>362.5</ele>
<desc>Speed 25.5 km/h Distance 69.99 km</desc>
<time>2011-05-22T12:52:39.01</time>
<name>15257</name>
<sym>Dot</sym>
</trkpt>
<trkpt lat="39.679353" lon="-8.651847">
<ele>362.5</ele>
<desc>Speed 27.5 km/h Distance 70.00 km</desc>
<time>2011-05-22T12:52:40.00</time>
<name>15258</name>
<sym>Dot</sym>
</trkpt>
<trkpt lat="39.679342" lon="-8.651937">
<ele>362.5</ele>
<desc>Speed 28.4 km/h Distance 70.00 km</desc>
<time>2011-05-22T12:52:40.99</time>
<name>15259</name>
<sym>Dot</sym>
</trkpt>
<trkpt lat="39.679323" lon="-8.652032">
<ele>363.0</ele>
<desc>Speed 30.5 km/h Distance 70.01 km</desc>
<time>2011-05-22T12:52:42.00</time>
<name>15260</name>
<sym>Dot</sym>
</trkpt>
<trkpt lat="39.679288" lon="-8.652117">
<ele>363.5</ele>
<desc>Speed 29.3 km/h Distance 70.02 km</desc>
<time>2011-05-22T12:52:42.98</time>
<name>15261</name>
<sym>Dot</sym>
</trkpt>
<trkpt lat="39.679247" lon="-8.652203">
<ele>363.5</ele>
<desc>Speed 31.1 km/h Distance 70.03 km</desc>
<time>2011-05-22T12:52:43.98</time>
<name>15262</name>
<sym>Dot</sym>
</trkpt>
<trkpt lat="39.679203" lon="-8.652293">
<ele>363.5</ele>
<desc>Speed 32.3 km/h Distance 70.04 km</desc>
<time>2011-05-22T12:52:44.97</time>
<name>15263</name>
<sym>Dot</sym>
</trkpt>
<trkpt lat="39.679170" lon="-8.652388">
<ele>363.5</ele>
<desc>Speed 32.3 km/h Distance 70.05 km</desc>
<time>2011-05-22T12:52:45.96</time>
<name>15264</name>
<sym>Dot</sym>
</trkpt>
<trkpt lat="39.679140" lon="-8.652488">
<ele>362.5</ele>
<desc>Speed 32.8 km/h Distance 70.06 km</desc>
<time>2011-05-22T12:52:46.96</time>
<name>15265</name>
<sym>Dot</sym>
</trkpt>
<trkpt lat="39.679118" lon="-8.652590">
<ele>362.5</ele>
<desc>Speed 32.5 km/h Distance 70.07 km</desc>
<time>2011-05-22T12:52:47.95</time>
<name>15266</name>
<sym>Dot</sym>
</trkpt>
<trkpt lat="39.679125" lon="-8.652718">
<ele>362.5</ele>
<desc>Speed 39.4 km/h Distance 70.08 km</desc>
<time>2011-05-22T12:52:48.95</time>
<name>15267</name>
<sym>Dot</sym>
</trkpt>
<trkpt lat="39.679133" lon="-8.652847">
<ele>362.0</ele>
<desc>Speed 39.5 km/h Distance 70.09 km</desc>
<time>2011-05-22T12:52:49.94</time>
<name>15268</name>
<sym>Dot</sym>
</trkpt>
<trkpt lat="39.679152" lon="-8.652975">
<ele>362.0</ele>
<desc>Speed 40.4 km/h Distance 70.10 km</desc>
<time>2011-05-22T12:52:50.95</time>
<name>15269</name>
<sym>Dot</sym>
</trkpt>
<trkpt lat="39.679198" lon="-8.653088">
<ele>361.0</ele>
<desc>Speed 39.6 km/h Distance 70.11 km</desc>
<time>2011-05-22T12:52:51.97</time>
<name>15270</name>
<sym>Dot</sym>
</trkpt>
<trkpt lat="39.679253" lon="-8.653197">
<ele>360.0</ele>
<desc>Speed 39.3 km/h Distance 70.12 km</desc>
<time>2011-05-22T12:52:52.93</time>
<name>15271</name>
<sym>Dot</sym>
</trkpt>
<trkpt lat="39.679313" lon="-8.653297">
<ele>359.5</ele>
<desc>Speed 39.1 km/h Distance 70.13 km</desc>
<time>2011-05-22T12:52:53.96</time>
<name>15272</name>
<sym>Dot</sym>
</trkpt>
<trkpt lat="39.679373" lon="-8.653393">
<ele>359.5</ele>
<desc>Speed 37.9 km/h Distance 70.14 km</desc>
<time>2011-05-22T12:52:54.93</time>
<name>15273</name>
<sym>Dot</sym>
</trkpt>
<trkpt lat="39.679440" lon="-8.653483">
<ele>359.5</ele>
<desc>Speed 38.3 km/h Distance 70.15 km</desc>
<time>2011-05-22T12:52:55.93</time>
<name>15274</name>
<sym>Dot</sym>
</trkpt>
<trkpt lat="39.679505" lon="-8.653577">
<ele>358.5</ele>
<desc>Speed 38.7 km/h Distance 70.16 km</desc>
<time>2011-05-22T12:52:56.93</time>
<name>15275</name>
<sym>Dot</sym>
</trkpt>
<trkpt lat="39.679567" lon="-8.653675">
<ele>357.5</ele>
<desc>Speed 38.8 km/h Distance 70.17 km</desc>
<time>2011-05-22T12:52:57.92</time>
<name>15276</name>
<sym>Dot</sym>
</trkpt>
<trkpt lat="39.679620" lon="-8.653783">
<ele>357.0</ele>
<desc>Speed 39.0 km/h Distance 70.19 km</desc>
<time>2011-05-22T12:52:58.92</time>
<name>15277</name>
<sym>Dot</sym>
</trkpt>
<trkpt lat="39.679662" lon="-8.653897">
<ele>356.0</ele>
<desc>Speed 38.9 km/h Distance 70.20 km</desc>
<time>2011-05-22T12:52:59.91</time>
<name>15278</name>
<sym>Dot</sym>
</trkpt>
<trkpt lat="39.679693" lon="-8.654017">
<ele>355.5</ele>
<desc>Speed 39.1 km/h Distance 70.21 km</desc>
<time>2011-05-22T12:53:00.91</time>
<name>15279</name>
<sym>Dot</sym>
</trkpt>
<trkpt lat="39.679717" lon="-8.654142">
<ele>355.0</ele>
<desc>Speed 39.5 km/h Distance 70.22 km</desc>
<time>2011-05-22T12:53:01.91</time>
<name>15280</name>
<sym>Dot</sym>
</trkpt>
<trkpt lat="39.679732" lon="-8.654268">
<ele>354.0</ele>
<desc>Speed 39.6 km/h Distance 70.23 km</desc>
<time>2011-05-22T12:53:02.90</time>
<name>15281</name>
<sym>Dot</sym>
</trkpt>
<trkpt lat="39.679737" lon="-8.654398">
<ele>353.5</ele>
<desc>Speed 39.8 km/h Distance 70.24 km</desc>
<time>2011-05-22T12:53:03.89</time>
<name>15282</name>
<sym>Dot</sym>
</trkpt>
<trkpt lat="39.679733" lon="-8.654528">
<ele>353.0</ele>
<desc>Speed 40.0 km/h Distance 70.25 km</desc>
<time>2011-05-22T12:53:04.92</time>
<name>15283</name>
<sym>Dot</sym>
</trkpt>
<trkpt lat="39.679723" lon="-8.654655">
<ele>352.0</ele>
<desc>Speed 39.7 km/h Distance 70.26 km</desc>
<time>2011-05-22T12:53:05.88</time>
<name>15284</name>
<sym>Dot</sym>
</trkpt>
<trkpt lat="39.679712" lon="-8.654782">
<ele>351.5</ele>
<desc>Speed 39.5 km/h Distance 70.27 km</desc>
<time>2011-05-22T12:53:06.88</time>
<name>15285</name>
<sym>Dot</sym>
</trkpt>
<trkpt lat="39.679698" lon="-8.654907">
<ele>350.5</ele>
<desc>Speed 39.2 km/h Distance 70.28 km</desc>
<time>2011-05-22T12:53:07.86</time>
<name>15286</name>
<sym>Dot</sym>
</trkpt>
<trkpt lat="39.679688" lon="-8.655037">
<ele>349.5</ele>
<desc>Speed 39.2 km/h Distance 70.30 km</desc>
<time>2011-05-22T12:53:08.86</time>
<name>15287</name>
<sym>Dot</sym>
</trkpt>
<trkpt lat="39.679675" lon="-8.655162">
<ele>349.0</ele>
<desc>Speed 39.1 km/h Distance 70.31 km</desc>
<time>2011-05-22T12:53:09.85</time>
<name>15288</name>
<sym>Dot</sym>
</trkpt>
<trkpt lat="39.679660" lon="-8.655285">
<ele>348.0</ele>
<desc>Speed 38.7 km/h Distance 70.32 km</desc>
<time>2011-05-22T12:53:10.85</time>
<name>15289</name>
<sym>Dot</sym>
</trkpt>
<trkpt lat="39.679643" lon="-8.655408">
<ele>348.0</ele>
<desc>Speed 38.5 km/h Distance 70.33 km</desc>
<time>2011-05-22T12:53:11.84</time>
<name>15290</name>
<sym>Dot</sym>
</trkpt>
<trkpt lat="39.679627" lon="-8.655530">
<ele>348.0</ele>
<desc>Speed 38.3 km/h Distance 70.34 km</desc>
<time>2011-05-22T12:53:12.84</time>
<name>15291</name>
<sym>Dot</sym>
</trkpt>
<trkpt lat="39.679612" lon="-8.655650">
<ele>348.5</ele>
<desc>Speed 37.4 km/h Distance 70.35 km</desc>
<time>2011-05-22T12:53:13.83</time>
<name>15292</name>
<sym>Dot</sym>
</trkpt>
<trkpt lat="39.679598" lon="-8.655773">
<ele>348.5</ele>
<desc>Speed 38.3 km/h Distance 70.36 km</desc>
<time>2011-05-22T12:53:14.83</time>
<name>15293</name>
<sym>Dot</sym>
</trkpt>
<trkpt lat="39.679587" lon="-8.655892">
<ele>348.5</ele>
<desc>Speed 37.0 km/h Distance 70.37 km</desc>
<time>2011-05-22T12:53:15.82</time>
<name>15294</name>
<sym>Dot</sym>
</trkpt>
<trkpt lat="39.679578" lon="-8.656008">
<ele>348.5</ele>
<desc>Speed 36.2 km/h Distance 70.38 km</desc>
<time>2011-05-22T12:53:16.82</time>
<name>15295</name>
<sym>Dot</sym>
</trkpt>
<trkpt lat="39.679573" lon="-8.656123">
<ele>348.0</ele>
<desc>Speed 35.6 km/h Distance 70.39 km</desc>
<time>2011-05-22T12:53:17.82</time>
<name>15296</name>
<sym>Dot</sym>
</trkpt>
<trkpt lat="39.679568" lon="-8.656237">
<ele>346.0</ele>
<desc>Speed 35.2 km/h Distance 70.40 km</desc>
<time>2011-05-22T12:53:18.81</time>
<name>15297</name>
<sym>Dot</sym>
</trkpt>
<trkpt lat="39.679570" lon="-8.656348">
<ele>343.5</ele>
<desc>Speed 34.8 km/h Distance 70.41 km</desc>
<time>2011-05-22T12:53:19.80</time>
<name>15298</name>
<sym>Dot</sym>
</trkpt>
<trkpt lat="39.679572" lon="-8.656463">
<ele>343.0</ele>
<desc>Speed 34.6 km/h Distance 70.42 km</desc>
<time>2011-05-22T12:53:20.80</time>
<name>15299</name>
<sym>Dot</sym>
</trkpt>
<trkpt lat="39.679582" lon="-8.656575">
<ele>342.5</ele>
<desc>Speed 34.2 km/h Distance 70.43 km</desc>
<time>2011-05-22T12:53:21.79</time>
<name>15300</name>
<sym>Dot</sym>
</trkpt>
<trkpt lat="39.679597" lon="-8.656685">
<ele>341.5</ele>
<desc>Speed 33.3 km/h Distance 70.44 km</desc>
<time>2011-05-22T12:53:22.79</time>
<name>15301</name>
<sym>Dot</sym>
</trkpt>
<trkpt lat="39.679615" lon="-8.656793">
<ele>340.5</ele>
<desc>Speed 32.9 km/h Distance 70.45 km</desc>
<time>2011-05-22T12:53:23.78</time>
<name>15302</name>
<sym>Dot</sym>
</trkpt>
<trkpt lat="39.679638" lon="-8.656893">
<ele>340.0</ele>
<desc>Speed 32.3 km/h Distance 70.46 km</desc>
<time>2011-05-22T12:53:24.78</time>
<name>15303</name>
<sym>Dot</sym>
</trkpt>
<trkpt lat="39.679662" lon="-8.656992">
<ele>339.5</ele>
<desc>Speed 31.5 km/h Distance 70.47 km</desc>
<time>2011-05-22T12:53:25.78</time>
<name>15304</name>
<sym>Dot</sym>
</trkpt>
<trkpt lat="39.679683" lon="-8.657087">
<ele>339.5</ele>
<desc>Speed 30.4 km/h Distance 70.47 km</desc>
<time>2011-05-22T12:53:26.78</time>
<name>15305</name>
<sym>Dot</sym>
</trkpt>
<trkpt lat="39.679705" lon="-8.657175">
<ele>339.0</ele>
<desc>Speed 28.7 km/h Distance 70.48 km</desc>
<time>2011-05-22T12:53:27.77</time>
<name>15306</name>
<sym>Dot</sym>
</trkpt>
<trkpt lat="39.679727" lon="-8.657258">
<ele>338.0</ele>
<desc>Speed 27.5 km/h Distance 70.49 km</desc>
<time>2011-05-22T12:53:28.76</time>
<name>15307</name>
<sym>Dot</sym>
</trkpt>
<trkpt lat="39.679748" lon="-8.657338">
<ele>337.5</ele>
<desc>Speed 26.0 km/h Distance 70.50 km</desc>
<time>2011-05-22T12:53:29.75</time>
<name>15308</name>
<sym>Dot</sym>
</trkpt>
<trkpt lat="39.679765" lon="-8.657417">
<ele>337.0</ele>
<desc>Speed 24.9 km/h Distance 70.50 km</desc>
<time>2011-05-22T12:53:30.74</time>
<name>15309</name>
<sym>Dot</sym>
</trkpt>
<trkpt lat="39.679785" lon="-8.657488">
<ele>336.0</ele>
<desc>Speed 23.5 km/h Distance 70.51 km</desc>
<time>2011-05-22T12:53:31.76</time>
<name>15310</name>
<sym>Dot</sym>
</trkpt>
<trkpt lat="39.679807" lon="-8.657557">
<ele>335.5</ele>
<desc>Speed 22.8 km/h Distance 70.52 km</desc>
<time>2011-05-22T12:53:32.73</time>
<name>15311</name>
<sym>Dot</sym>
</trkpt>
<trkpt lat="39.679827" lon="-8.657632">
<ele>335.0</ele>
<desc>Speed 22.6 km/h Distance 70.52 km</desc>
<time>2011-05-22T12:53:33.73</time>
<name>15312</name>
<sym>Dot</sym>
</trkpt>
<trkpt lat="39.679847" lon="-8.657700">
<ele>334.5</ele>
<desc>Speed 22.5 km/h Distance 70.53 km</desc>
<time>2011-05-22T12:53:34.74</time>
<name>15313</name>
<sym>Dot</sym>
</trkpt>
<trkpt lat="39.679865" lon="-8.657768">
<ele>334.5</ele>
<desc>Speed 21.9 km/h Distance 70.54 km</desc>
<time>2011-05-22T12:53:35.73</time>
<name>15314</name>
<sym>Dot</sym>
</trkpt>
<trkpt lat="39.679885" lon="-8.657832">
<ele>334.5</ele>
<desc>Speed 21.0 km/h Distance 70.54 km</desc>
<time>2011-05-22T12:53:36.73</time>
<name>15315</name>
<sym>Dot</sym>
</trkpt>
<trkpt lat="39.679903" lon="-8.657892">
<ele>334.5</ele>
<desc>Speed 20.1 km/h Distance 70.55 km</desc>
<time>2011-05-22T12:53:37.72</time>
<name>15316</name>
<sym>Dot</sym>
</trkpt>
<trkpt lat="39.679920" lon="-8.657950">
<ele>334.5</ele>
<desc>Speed 19.2 km/h Distance 70.55 km</desc>
<time>2011-05-22T12:53:38.72</time>
<name>15317</name>
<sym>Dot</sym>
</trkpt>
<trkpt lat="39.679935" lon="-8.658008">
<ele>334.5</ele>
<desc>Speed 18.3 km/h Distance 70.56 km</desc>
<time>2011-05-22T12:53:39.72</time>
<name>15318</name>
<sym>Dot</sym>
</trkpt>
<trkpt lat="39.679950" lon="-8.658063">
<ele>334.5</ele>
<desc>Speed 17.9 km/h Distance 70.56 km</desc>
<time>2011-05-22T12:53:40.72</time>
<name>15319</name>
<sym>Dot</sym>
</trkpt>
<trkpt lat="39.679965" lon="-8.658117">
<ele>334.0</ele>
<desc>Speed 17.4 km/h Distance 70.57 km</desc>
<time>2011-05-22T12:53:41.71</time>
<name>15320</name>
<sym>Dot</sym>
</trkpt>
<trkpt lat="39.679980" lon="-8.658170">
<ele>334.0</ele>
<desc>Speed 17.0 km/h Distance 70.57 km</desc>
<time>2011-05-22T12:53:42.71</time>
<name>15321</name>
<sym>Dot</sym>
</trkpt>
<trkpt lat="39.679993" lon="-8.658222">
<ele>334.0</ele>
<desc>Speed 17.0 km/h Distance 70.58 km</desc>
<time>2011-05-22T12:53:43.70</time>
<name>15322</name>
<sym>Dot</sym>
</trkpt>
<trkpt lat="39.680007" lon="-8.658273">
<ele>334.0</ele>
<desc>Speed 16.7 km/h Distance 70.58 km</desc>
<time>2011-05-22T12:53:44.70</time>
<name>15323</name>
<sym>Dot</sym>
</trkpt>
<trkpt lat="39.680020" lon="-8.658323">
<ele>334.0</ele>
<desc>Speed 16.4 km/h Distance 70.59 km</desc>
<time>2011-05-22T12:53:45.70</time>
<name>15324</name>
<sym>Dot</sym>
</trkpt>
<trkpt lat="39.680033" lon="-8.658373">
<ele>334.0</ele>
<desc>Speed 16.2 km/h Distance 70.59 km</desc>
<time>2011-05-22T12:53:46.69</time>
<name>15325</name>
<sym>Dot</sym>
</trkpt>
<trkpt lat="39.680047" lon="-8.658423">
<ele>334.0</ele>
<desc>Speed 15.9 km/h Distance 70.60 km</desc>
<time>2011-05-22T12:53:47.69</time>
<name>15326</name>
<sym>Dot</sym>
</trkpt>
<trkpt lat="39.680060" lon="-8.658472">
<ele>334.0</ele>
<desc>Speed 15.6 km/h Distance 70.60 km</desc>
<time>2011-05-22T12:53:48.69</time>
<name>15327</name>
<sym>Dot</sym>
</trkpt>
<trkpt lat="39.680070" lon="-8.658518">
<ele>334.0</ele>
<desc>Speed 15.2 km/h Distance 70.60 km</desc>
<time>2011-05-22T12:53:49.68</time>
<name>15328</name>
<sym>Dot</sym>
</trkpt>
<trkpt lat="39.680082" lon="-8.658565">
<ele>334.0</ele>
<desc>Speed 14.9 km/h Distance 70.61 km</desc>
<time>2011-05-22T12:53:50.68</time>
<name>15329</name>
<sym>Dot</sym>
</trkpt>
<trkpt lat="39.680093" lon="-8.658610">
<ele>334.0</ele>
<desc>Speed 14.8 km/h Distance 70.61 km</desc>
<time>2011-05-22T12:53:51.67</time>
<name>15330</name>
<sym>Dot</sym>
</trkpt>
<trkpt lat="39.680105" lon="-8.658657">
<ele>334.0</ele>
<desc>Speed 14.7 km/h Distance 70.62 km</desc>
<time>2011-05-22T12:53:52.67</time>
<name>15331</name>
<sym>Dot</sym>
</trkpt>
<trkpt lat="39.680115" lon="-8.658700">
<ele>334.0</ele>
<desc>Speed 14.2 km/h Distance 70.62 km</desc>
<time>2011-05-22T12:53:53.67</time>
<name>15332</name>
<sym>Dot</sym>
</trkpt>
<trkpt lat="39.680125" lon="-8.658743">
<ele>334.0</ele>
<desc>Speed 13.9 km/h Distance 70.62 km</desc>
<time>2011-05-22T12:53:54.67</time>
<name>15333</name>
<sym>Dot</sym>
</trkpt>
<trkpt lat="39.680133" lon="-8.658787">
<ele>334.0</ele>
<desc>Speed 13.7 km/h Distance 70.63 km</desc>
<time>2011-05-22T12:53:55.66</time>
<name>15334</name>
<sym>Dot</sym>
</trkpt>
<trkpt lat="39.680143" lon="-8.658828">
<ele>334.0</ele>
<desc>Speed 13.4 km/h Distance 70.63 km</desc>
<time>2011-05-22T12:53:56.66</time>
<name>15335</name>
<sym>Dot</sym>
</trkpt>
<trkpt lat="39.680153" lon="-8.658868">
<ele>334.0</ele>
<desc>Speed 13.1 km/h Distance 70.64 km</desc>
<time>2011-05-22T12:53:57.66</time>
<name>15336</name>
<sym>Dot</sym>
</trkpt>
<trkpt lat="39.680163" lon="-8.658910">
<ele>334.0</ele>
<desc>Speed 13.1 km/h Distance 70.64 km</desc>
<time>2011-05-22T12:53:58.65</time>
<name>15337</name>
<sym>Dot</sym>
</trkpt>
<trkpt lat="39.680177" lon="-8.658948">
<ele>334.0</ele>
<desc>Speed 13.0 km/h Distance 70.64 km</desc>
<time>2011-05-22T12:53:59.65</time>
<name>15338</name>
<sym>Dot</sym>
</trkpt>
<trkpt lat="39.680190" lon="-8.658988">
<ele>334.0</ele>
<desc>Speed 13.0 km/h Distance 70.65 km</desc>
<time>2011-05-22T12:54:00.65</time>
<name>15339</name>
<sym>Dot</sym>
</trkpt>
<trkpt lat="39.680202" lon="-8.659028">
<ele>333.5</ele>
<desc>Speed 13.1 km/h Distance 70.65 km</desc>
<time>2011-05-22T12:54:01.64</time>
<name>15340</name>
<sym>Dot</sym>
</trkpt>
<trkpt lat="39.680212" lon="-8.659068">
<ele>333.5</ele>
<desc>Speed 13.0 km/h Distance 70.65 km</desc>
<time>2011-05-22T12:54:02.64</time>
<name>15341</name>
<sym>Dot</sym>
</trkpt>
<trkpt lat="39.680223" lon="-8.659108">
<ele>333.5</ele>
<desc>Speed 12.8 km/h Distance 70.66 km</desc>
<time>2011-05-22T12:54:03.63</time>
<name>15342</name>
<sym>Dot</sym>
</trkpt>
<trkpt lat="39.680233" lon="-8.659145">
<ele>333.5</ele>
<desc>Speed 12.0 km/h Distance 70.66 km</desc>
<time>2011-05-22T12:54:04.63</time>
<name>15343</name>
<sym>Dot</sym>
</trkpt>
<trkpt lat="39.680242" lon="-8.659182">
<ele>333.5</ele>
<desc>Speed 11.1 km/h Distance 70.66 km</desc>
<time>2011-05-22T12:54:05.62</time>
<name>15344</name>
<sym>Dot</sym>
</trkpt>
<trkpt lat="39.680250" lon="-8.659213">
<ele>333.0</ele>
<desc>Speed 10.2 km/h Distance 70.67 km</desc>
<time>2011-05-22T12:54:06.62</time>
<name>15345</name>
<sym>Dot</sym>
</trkpt>
<trkpt lat="39.680258" lon="-8.659247">
<ele>332.5</ele>
<desc>Speed 9.5 km/h Distance 70.67 km</desc>
<time>2011-05-22T12:54:07.62</time>
<name>15346</name>
<sym>Dot</sym>
</trkpt>
<trkpt lat="39.680265" lon="-8.659273">
<ele>332.5</ele>
<desc>Speed 8.4 km/h Distance 70.67 km</desc>
<time>2011-05-22T12:54:08.62</time>
<name>15347</name>
<sym>Dot</sym>
</trkpt>
<trkpt lat="39.680270" lon="-8.659297">
<ele>332.5</ele>
<desc>Speed 7.5 km/h Distance 70.67 km</desc>
<time>2011-05-22T12:54:09.62</time>
<name>15348</name>
<sym>Dot</sym>
</trkpt>
<trkpt lat="39.680273" lon="-8.659318">
<ele>332.0</ele>
<desc>Speed 6.4 km/h Distance 70.68 km</desc>
<time>2011-05-22T12:54:10.62</time>
<name>15349</name>
<sym>Dot</sym>
</trkpt>
<trkpt lat="39.680277" lon="-8.659332">
<ele>332.0</ele>
<desc>Speed 4.1 km/h Distance 70.68 km</desc>
<time>2011-05-22T12:54:11.62</time>
<name>15350</name>
<sym>Dot</sym>
</trkpt>
<trkpt lat="39.680275" lon="-8.659337">
<ele>332.0</ele>
<desc>Speed 1.8 km/h Distance 70.68 km</desc>
<time>2011-05-22T12:54:12.62</time>
<name>15351</name>
<sym>Dot</sym>
</trkpt>
<trkpt lat="39.680280" lon="-8.659352">
<ele>329.5</ele>
<desc>Speed 1.4 km/h Distance 70.68 km</desc>
<time>2011-05-22T12:54:23.62</time>
<name>15352</name>
<sym>Dot</sym>
</trkpt>
<trkpt lat="39.680282" lon="-8.659355">
<ele>329.0</ele>
<desc>Speed 1.1 km/h Distance 70.68 km</desc>
<time>2011-05-22T12:54:24.61</time>
<name>15353</name>
<sym>Dot</sym>
</trkpt>
<trkpt lat="39.680290" lon="-8.659363">
<ele>329.0</ele>
<desc>Speed 3.5 km/h Distance 70.68 km</desc>
<time>2011-05-22T12:54:25.61</time>
<name>15354</name>
<sym>Dot</sym>
</trkpt>
<trkpt lat="39.680297" lon="-8.659377">
<ele>329.0</ele>
<desc>Speed 4.9 km/h Distance 70.68 km</desc>
<time>2011-05-22T12:54:26.60</time>
<name>15355</name>
<sym>Dot</sym>
</trkpt>
<trkpt lat="39.680302" lon="-8.659397">
<ele>329.0</ele>
<desc>Speed 6.2 km/h Distance 70.68 km</desc>
<time>2011-05-22T12:54:27.59</time>
<name>15356</name>
<sym>Dot</sym>
</trkpt>
<trkpt lat="39.680305" lon="-8.659415">
<ele>329.0</ele>
<desc>Speed 5.7 km/h Distance 70.69 km</desc>
<time>2011-05-22T12:54:28.59</time>
<name>15357</name>
<sym>Dot</sym>
</trkpt>
<trkpt lat="39.680310" lon="-8.659437">
<ele>329.0</ele>
<desc>Speed 6.6 km/h Distance 70.69 km</desc>
<time>2011-05-22T12:54:29.58</time>
<name>15358</name>
<sym>Dot</sym>
</trkpt>
<trkpt lat="39.680315" lon="-8.659460">
<ele>328.5</ele>
<desc>Speed 6.8 km/h Distance 70.69 km</desc>
<time>2011-05-22T12:54:30.58</time>
<name>15359</name>
<sym>Dot</sym>
</trkpt>
<trkpt lat="39.680320" lon="-8.659483">
<ele>328.5</ele>
<desc>Speed 6.7 km/h Distance 70.69 km</desc>
<time>2011-05-22T12:54:31.58</time>
<name>15360</name>
<sym>Dot</sym>
</trkpt>
<trkpt lat="39.680325" lon="-8.659508">
<ele>328.0</ele>
<desc>Speed 7.8 km/h Distance 70.69 km</desc>
<time>2011-05-22T12:54:32.56</time>
<name>15361</name>
<sym>Dot</sym>
</trkpt>
<trkpt lat="39.680333" lon="-8.659538">
<ele>328.0</ele>
<desc>Speed 8.9 km/h Distance 70.70 km</desc>
<time>2011-05-22T12:54:33.55</time>
<name>15362</name>
<sym>Dot</sym>
</trkpt>
<trkpt lat="39.680342" lon="-8.659567">
<ele>327.5</ele>
<desc>Speed 9.2 km/h Distance 70.70 km</desc>
<time>2011-05-22T12:54:34.56</time>
<name>15363</name>
<sym>Dot</sym>
</trkpt>
<trkpt lat="39.680350" lon="-8.659595">
<ele>327.0</ele>
<desc>Speed 8.5 km/h Distance 70.70 km</desc>
<time>2011-05-22T12:54:35.56</time>
<name>15364</name>
<sym>Dot</sym>
</trkpt>
<trkpt lat="39.680357" lon="-8.659622">
<ele>327.0</ele>
<desc>Speed 8.5 km/h Distance 70.70 km</desc>
<time>2011-05-22T12:54:36.56</time>
<name>15365</name>
<sym>Dot</sym>
</trkpt>
<trkpt lat="39.680363" lon="-8.659653">
<ele>327.0</ele>
<desc>Speed 9.7 km/h Distance 70.71 km</desc>
<time>2011-05-22T12:54:37.54</time>
<name>15366</name>
<sym>Dot</sym>
</trkpt>
<trkpt lat="39.680372" lon="-8.659687">
<ele>326.5</ele>
<desc>Speed 10.4 km/h Distance 70.71 km</desc>
<time>2011-05-22T12:54:38.54</time>
<name>15367</name>
<sym>Dot</sym>
</trkpt>
<trkpt lat="39.680382" lon="-8.659720">
<ele>326.5</ele>
<desc>Speed 10.7 km/h Distance 70.71 km</desc>
<time>2011-05-22T12:54:39.54</time>
<name>15368</name>
<sym>Dot</sym>
</trkpt>
<trkpt lat="39.680390" lon="-8.659753">
<ele>326.5</ele>
<desc>Speed 10.9 km/h Distance 70.72 km</desc>
<time>2011-05-22T12:54:40.54</time>
<name>15369</name>
<sym>Dot</sym>
</trkpt>
<trkpt lat="39.680398" lon="-8.659788">
<ele>326.5</ele>
<desc>Speed 10.9 km/h Distance 70.72 km</desc>
<time>2011-05-22T12:54:41.54</time>
<name>15370</name>
<sym>Dot</sym>
</trkpt>
<trkpt lat="39.680407" lon="-8.659818">
<ele>326.0</ele>
<desc>Speed 9.9 km/h Distance 70.72 km</desc>
<time>2011-05-22T12:54:42.54</time>
<name>15371</name>
<sym>Dot</sym>
</trkpt>
<trkpt lat="39.680413" lon="-8.659848">
<ele>326.0</ele>
<desc>Speed 9.0 km/h Distance 70.72 km</desc>
<time>2011-05-22T12:54:43.54</time>
<name>15372</name>
<sym>Dot</sym>
</trkpt>
<trkpt lat="39.680420" lon="-8.659877">
<ele>326.0</ele>
<desc>Speed 9.0 km/h Distance 70.73 km</desc>
<time>2011-05-22T12:54:44.54</time>
<name>15373</name>
<sym>Dot</sym>
</trkpt>
<trkpt lat="39.680428" lon="-8.659908">
<ele>326.0</ele>
<desc>Speed 9.9 km/h Distance 70.73 km</desc>
<time>2011-05-22T12:54:45.53</time>
<name>15374</name>
<sym>Dot</sym>
</trkpt>
<trkpt lat="39.680438" lon="-8.659938">
<ele>326.0</ele>
<desc>Speed 10.2 km/h Distance 70.73 km</desc>
<time>2011-05-22T12:54:46.53</time>
<name>15375</name>
<sym>Dot</sym>
</trkpt>
<trkpt lat="39.680447" lon="-8.659973">
<ele>326.0</ele>
<desc>Speed 10.5 km/h Distance 70.74 km</desc>
<time>2011-05-22T12:54:47.52</time>
<name>15376</name>
<sym>Dot</sym>
</trkpt>
<trkpt lat="39.680453" lon="-8.660007">
<ele>326.0</ele>
<desc>Speed 10.7 km/h Distance 70.74 km</desc>
<time>2011-05-22T12:54:48.52</time>
<name>15377</name>
<sym>Dot</sym>
</trkpt>
<trkpt lat="39.680462" lon="-8.660040">
<ele>326.0</ele>
<desc>Speed 10.8 km/h Distance 70.74 km</desc>
<time>2011-05-22T12:54:49.52</time>
<name>15378</name>
<sym>Dot</sym>
</trkpt>
<trkpt lat="39.680470" lon="-8.660073">
<ele>326.0</ele>
<desc>Speed 10.4 km/h Distance 70.74 km</desc>
<time>2011-05-22T12:54:50.51</time>
<name>15379</name>
<sym>Dot</sym>
</trkpt>
<trkpt lat="39.680480" lon="-8.660107">
<ele>326.0</ele>
<desc>Speed 11.2 km/h Distance 70.75 km</desc>
<time>2011-05-22T12:54:51.51</time>
<name>15380</name>
<sym>Dot</sym>
</trkpt>
<trkpt lat="39.680492" lon="-8.660142">
<ele>326.0</ele>
<desc>Speed 11.7 km/h Distance 70.75 km</desc>
<time>2011-05-22T12:54:52.51</time>
<name>15381</name>
<sym>Dot</sym>
</trkpt>
<trkpt lat="39.680500" lon="-8.660180">
<ele>326.0</ele>
<desc>Speed 11.9 km/h Distance 70.75 km</desc>
<time>2011-05-22T12:54:53.51</time>
<name>15382</name>
<sym>Dot</sym>
</trkpt>
<trkpt lat="39.680508" lon="-8.660220">
<ele>326.0</ele>
<desc>Speed 12.7 km/h Distance 70.76 km</desc>
<time>2011-05-22T12:54:54.50</time>
<name>15383</name>
<sym>Dot</sym>
</trkpt>
<trkpt lat="39.680518" lon="-8.660263">
<ele>326.0</ele>
<desc>Speed 13.5 km/h Distance 70.76 km</desc>
<time>2011-05-22T12:54:55.50</time>
<name>15384</name>
<sym>Dot</sym>
</trkpt>
<trkpt lat="39.680530" lon="-8.660307">
<ele>326.0</ele>
<desc>Speed 14.1 km/h Distance 70.77 km</desc>
<time>2011-05-22T12:54:56.50</time>
<name>15385</name>
<sym>Dot</sym>
</trkpt>
<trkpt lat="39.680542" lon="-8.660350">
<ele>326.0</ele>
<desc>Speed 14.1 km/h Distance 70.77 km</desc>
<time>2011-05-22T12:54:57.50</time>
<name>15386</name>
<sym>Dot</sym>
</trkpt>
<trkpt lat="39.680553" lon="-8.660392">
<ele>326.0</ele>
<desc>Speed 13.8 km/h Distance 70.77 km</desc>
<time>2011-05-22T12:54:58.50</time>
<name>15387</name>
<sym>Dot</sym>
</trkpt>
<trkpt lat="39.680565" lon="-8.660433">
<ele>326.0</ele>
<desc>Speed 13.2 km/h Distance 70.78 km</desc>
<time>2011-05-22T12:54:59.49</time>
<name>15388</name>
<sym>Dot</sym>
</trkpt>
<trkpt lat="39.680578" lon="-8.660473">
<ele>326.0</ele>
<desc>Speed 13.0 km/h Distance 70.78 km</desc>
<time>2011-05-22T12:55:00.49</time>
<name>15389</name>
<sym>Dot</sym>
</trkpt>
<trkpt lat="39.680590" lon="-8.660513">
<ele>326.0</ele>
<desc>Speed 13.1 km/h Distance 70.78 km</desc>
<time>2011-05-22T12:55:01.48</time>
<name>15390</name>
<sym>Dot</sym>
</trkpt>
<trkpt lat="39.680602" lon="-8.660552">
<ele>326.0</ele>
<desc>Speed 12.8 km/h Distance 70.79 km</desc>
<time>2011-05-22T12:55:02.48</time>
<name>15391</name>
<sym>Dot</sym>
</trkpt>
<trkpt lat="39.680613" lon="-8.660590">
<ele>326.0</ele>
<desc>Speed 12.4 km/h Distance 70.79 km</desc>
<time>2011-05-22T12:55:03.48</time>
<name>15392</name>
<sym>Dot</sym>
</trkpt>
<trkpt lat="39.680625" lon="-8.660625">
<ele>326.0</ele>
<desc>Speed 12.0 km/h Distance 70.80 km</desc>
<time>2011-05-22T12:55:04.48</time>
<name>15393</name>
<sym>Dot</sym>
</trkpt>
<trkpt lat="39.680638" lon="-8.660660">
<ele>326.0</ele>
<desc>Speed 11.7 km/h Distance 70.80 km</desc>
<time>2011-05-22T12:55:05.47</time>
<name>15394</name>
<sym>Dot</sym>
</trkpt>
<trkpt lat="39.680652" lon="-8.660695">
<ele>326.0</ele>
<desc>Speed 11.7 km/h Distance 70.80 km</desc>
<time>2011-05-22T12:55:06.47</time>
<name>15395</name>
<sym>Dot</sym>
</trkpt>
<trkpt lat="39.680662" lon="-8.660730">
<ele>326.5</ele>
<desc>Speed 11.1 km/h Distance 70.81 km</desc>
<time>2011-05-22T12:55:07.47</time>
<name>15396</name>
<sym>Dot</sym>
</trkpt>
<trkpt lat="39.680672" lon="-8.660762">
<ele>326.5</ele>
<desc>Speed 10.6 km/h Distance 70.81 km</desc>
<time>2011-05-22T12:55:08.47</time>
<name>15397</name>
<sym>Dot</sym>
</trkpt>
<trkpt lat="39.680682" lon="-8.660793">
<ele>326.5</ele>
<desc>Speed 10.2 km/h Distance 70.81 km</desc>
<time>2011-05-22T12:55:09.46</time>
<name>15398</name>
<sym>Dot</sym>
</trkpt>
<trkpt lat="39.680693" lon="-8.660820">
<ele>326.5</ele>
<desc>Speed 9.5 km/h Distance 70.81 km</desc>
<time>2011-05-22T12:55:10.46</time>
<name>15399</name>
<sym>Dot</sym>
</trkpt>
<trkpt lat="39.680705" lon="-8.660847">
<ele>326.5</ele>
<desc>Speed 9.0 km/h Distance 70.82 km</desc>
<time>2011-05-22T12:55:11.45</time>
<name>15400</name>
<sym>Dot</sym>
</trkpt>
<trkpt lat="39.680715" lon="-8.660872">
<ele>326.5</ele>
<desc>Speed 8.4 km/h Distance 70.82 km</desc>
<time>2011-05-22T12:55:12.45</time>
<name>15401</name>
<sym>Dot</sym>
</trkpt>
<trkpt lat="39.680722" lon="-8.660893">
<ele>326.5</ele>
<desc>Speed 7.1 km/h Distance 70.82 km</desc>
<time>2011-05-22T12:55:13.44</time>
<name>15402</name>
<sym>Dot</sym>
</trkpt>
<trkpt lat="39.680728" lon="-8.660912">
<ele>327.0</ele>
<desc>Speed 6.3 km/h Distance 70.82 km</desc>
<time>2011-05-22T12:55:14.44</time>
<name>15403</name>
<sym>Dot</sym>
</trkpt>
<trkpt lat="39.680733" lon="-8.660928">
<ele>326.5</ele>
<desc>Speed 5.3 km/h Distance 70.82 km</desc>
<time>2011-05-22T12:55:15.44</time>
<name>15404</name>
<sym>Dot</sym>
</trkpt>
<trkpt lat="39.680735" lon="-8.660937">
<ele>326.5</ele>
<desc>Speed 2.5 km/h Distance 70.82 km</desc>
<time>2011-05-22T12:55:16.44</time>
<name>15405</name>
<sym>Dot</sym>
</trkpt>
<trkpt lat="39.680742" lon="-8.660948">
<ele>324.5</ele>
<desc>Speed 1.2 km/h Distance 70.83 km</desc>
<time>2011-05-22T12:55:55.43</time>
<name>15406</name>
<sym>Dot</sym>
</trkpt>
<trkpt lat="39.680748" lon="-8.660953">
<ele>323.5</ele>
<desc>Speed 1.2 km/h Distance 70.83 km</desc>
<time>2011-05-22T12:57:08.42</time>
<name>15407</name>
<sym>Dot</sym>
</trkpt>
<trkpt lat="39.680748" lon="-8.660960">
<ele>324.0</ele>
<desc>Speed 1.5 km/h Distance 70.83 km</desc>
<time>2011-05-22T12:57:35.41</time>
<name>15408</name>
<sym>Dot</sym>
</trkpt>
<trkpt lat="39.680752" lon="-8.660967">
<ele>324.5</ele>
<desc>Speed 2.6 km/h Distance 70.83 km</desc>
<time>2011-05-22T12:57:36.41</time>
<name>15409</name>
<sym>Dot</sym>
</trkpt>
<trkpt lat="39.680753" lon="-8.660953">
<ele>322.5</ele>
<desc>Speed 4.0 km/h Distance 70.83 km</desc>
<time>2011-05-22T12:57:37.41</time>
<name>15410</name>
<sym>Dot</sym>
</trkpt>
<trkpt lat="39.680755" lon="-8.660952">
<ele>322.5</ele>
<desc>Speed 1.2 km/h Distance 70.83 km</desc>
<time>2011-05-22T12:57:44.40</time>
<name>15411</name>
<sym>Dot</sym>
</trkpt>
<trkpt lat="39.680758" lon="-8.660972">
<ele>322.5</ele>
<desc>Speed 1.4 km/h Distance 70.83 km</desc>
<time>2011-05-22T12:57:56.39</time>
<name>15412</name>
<sym>Dot</sym>
</trkpt>
<trkpt lat="39.680760" lon="-8.660980">
<ele>323.5</ele>
<desc>Speed 2.2 km/h Distance 70.83 km</desc>
<time>2011-05-22T12:57:57.42</time>
<name>15413</name>
<sym>Dot</sym>
</trkpt>
<trkpt lat="39.680762" lon="-8.660990">
<ele>324.0</ele>
<desc>Speed 3.1 km/h Distance 70.83 km</desc>
<time>2011-05-22T12:57:58.39</time>
<name>15414</name>
<sym>Dot</sym>
</trkpt>
<trkpt lat="39.680767" lon="-8.661003">
<ele>324.5</ele>
<desc>Speed 4.1 km/h Distance 70.83 km</desc>
<time>2011-05-22T12:57:59.39</time>
<name>15415</name>
<sym>Dot</sym>
</trkpt>
<trkpt lat="39.680770" lon="-8.661017">
<ele>325.0</ele>
<desc>Speed 4.2 km/h Distance 70.84 km</desc>
<time>2011-05-22T12:58:00.38</time>
<name>15416</name>
<sym>Dot</sym>
</trkpt>
<trkpt lat="39.680772" lon="-8.661030">
<ele>326.0</ele>
<desc>Speed 4.0 km/h Distance 70.84 km</desc>
<time>2011-05-22T12:58:01.38</time>
<name>15417</name>
<sym>Dot</sym>
</trkpt>
<trkpt lat="39.680773" lon="-8.661043">
<ele>326.5</ele>
<desc>Speed 4.0 km/h Distance 70.84 km</desc>
<time>2011-05-22T12:58:02.36</time>
<name>15418</name>
<sym>Dot</sym>
</trkpt>
<trkpt lat="39.680777" lon="-8.661055">
<ele>327.0</ele>
<desc>Speed 4.0 km/h Distance 70.84 km</desc>
<time>2011-05-22T12:58:03.36</time>
<name>15419</name>
<sym>Dot</sym>
</trkpt>
<trkpt lat="39.680780" lon="-8.661068">
<ele>327.5</ele>
<desc>Speed 4.4 km/h Distance 70.84 km</desc>
<time>2011-05-22T12:58:04.36</time>
<name>15420</name>
<sym>Dot</sym>
</trkpt>
<trkpt lat="39.680787" lon="-8.661083">
<ele>327.5</ele>
<desc>Speed 4.8 km/h Distance 70.84 km</desc>
<time>2011-05-22T12:58:05.36</time>
<name>15421</name>
<sym>Dot</sym>
</trkpt>
<trkpt lat="39.680792" lon="-8.661097">
<ele>327.5</ele>
<desc>Speed 4.8 km/h Distance 70.84 km</desc>
<time>2011-05-22T12:58:06.36</time>
<name>15422</name>
<sym>Dot</sym>
</trkpt>
<trkpt lat="39.680797" lon="-8.661110">
<ele>328.0</ele>
<desc>Speed 4.6 km/h Distance 70.84 km</desc>
<time>2011-05-22T12:58:07.36</time>
<name>15423</name>
<sym>Dot</sym>
</trkpt>
<trkpt lat="39.680803" lon="-8.661122">
<ele>328.0</ele>
<desc>Speed 4.5 km/h Distance 70.85 km</desc>
<time>2011-05-22T12:58:08.36</time>
<name>15424</name>
<sym>Dot</sym>
</trkpt>
<trkpt lat="39.680808" lon="-8.661132">
<ele>328.5</ele>
<desc>Speed 3.7 km/h Distance 70.85 km</desc>
<time>2011-05-22T12:58:09.35</time>
<name>15425</name>
<sym>Dot</sym>
</trkpt>
<trkpt lat="39.680808" lon="-8.661137">
<ele>328.5</ele>
<desc>Speed 1.1 km/h Distance 70.85 km</desc>
<time>2011-05-22T12:58:11.35</time>
<name>15426</name>
<sym>Dot</sym>
</trkpt>
<trkpt lat="39.680812" lon="-8.661147">
<ele>328.5</ele>
<desc>Speed 3.2 km/h Distance 70.85 km</desc>
<time>2011-05-22T12:58:12.35</time>
<name>15427</name>
<sym>Dot</sym>
</trkpt>
<trkpt lat="39.680815" lon="-8.661157">
<ele>328.5</ele>
<desc>Speed 3.6 km/h Distance 70.85 km</desc>
<time>2011-05-22T12:58:13.34</time>
<name>15428</name>
<sym>Dot</sym>
</trkpt>
<trkpt lat="39.680817" lon="-8.661172">
<ele>328.5</ele>
<desc>Speed 4.7 km/h Distance 70.85 km</desc>
<time>2011-05-22T12:58:14.34</time>
<name>15429</name>
<sym>Dot</sym>
</trkpt>
<trkpt lat="39.680823" lon="-8.661183">
<ele>328.5</ele>
<desc>Speed 4.5 km/h Distance 70.85 km</desc>
<time>2011-05-22T12:58:15.34</time>
<name>15430</name>
<sym>Dot</sym>
</trkpt>
<trkpt lat="39.680828" lon="-8.661195">
<ele>328.0</ele>
<desc>Speed 4.4 km/h Distance 70.85 km</desc>
<time>2011-05-22T12:58:16.34</time>
<name>15431</name>
<sym>Dot</sym>
</trkpt>
<trkpt lat="39.680833" lon="-8.661208">
<ele>328.5</ele>
<desc>Speed 4.5 km/h Distance 70.85 km</desc>
<time>2011-05-22T12:58:17.34</time>
<name>15432</name>
<sym>Dot</sym>
</trkpt>
<trkpt lat="39.680838" lon="-8.661220">
<ele>328.5</ele>
<desc>Speed 4.1 km/h Distance 70.85 km</desc>
<time>2011-05-22T12:58:18.34</time>
<name>15433</name>
<sym>Dot</sym>
</trkpt>
<trkpt lat="39.680842" lon="-8.661235">
<ele>328.5</ele>
<desc>Speed 4.6 km/h Distance 70.86 km</desc>
<time>2011-05-22T12:58:19.34</time>
<name>15434</name>
<sym>Dot</sym>
</trkpt>
<trkpt lat="39.680845" lon="-8.661248">
<ele>328.5</ele>
<desc>Speed 4.1 km/h Distance 70.86 km</desc>
<time>2011-05-22T12:58:20.34</time>
<name>15435</name>
<sym>Dot</sym>
</trkpt>
<trkpt lat="39.680848" lon="-8.661263">
<ele>328.5</ele>
<desc>Speed 4.5 km/h Distance 70.86 km</desc>
<time>2011-05-22T12:58:21.34</time>
<name>15436</name>
<sym>Dot</sym>
</trkpt>
<trkpt lat="39.680853" lon="-8.661275">
<ele>329.0</ele>
<desc>Speed 4.2 km/h Distance 70.86 km</desc>
<time>2011-05-22T12:58:22.33</time>
<name>15437</name>
<sym>Dot</sym>
</trkpt>
<trkpt lat="39.680858" lon="-8.661290">
<ele>329.0</ele>
<desc>Speed 4.5 km/h Distance 70.86 km</desc>
<time>2011-05-22T12:58:23.36</time>
<name>15438</name>
<sym>Dot</sym>
</trkpt>
<trkpt lat="39.680862" lon="-8.661305">
<ele>328.5</ele>
<desc>Speed 4.8 km/h Distance 70.86 km</desc>
<time>2011-05-22T12:58:24.32</time>
<name>15439</name>
<sym>Dot</sym>
</trkpt>
<trkpt lat="39.680867" lon="-8.661320">
<ele>329.0</ele>
<desc>Speed 4.8 km/h Distance 70.86 km</desc>
<time>2011-05-22T12:58:25.31</time>
<name>15440</name>
<sym>Dot</sym>
</trkpt>
<trkpt lat="39.680872" lon="-8.661335">
<ele>329.0</ele>
<desc>Speed 4.6 km/h Distance 70.87 km</desc>
<time>2011-05-22T12:58:26.31</time>
<name>15441</name>
<sym>Dot</sym>
</trkpt>
<trkpt lat="39.680877" lon="-8.661350">
<ele>329.0</ele>
<desc>Speed 4.9 km/h Distance 70.87 km</desc>
<time>2011-05-22T12:58:27.32</time>
<name>15442</name>
<sym>Dot</sym>
</trkpt>
<trkpt lat="39.680882" lon="-8.661363">
<ele>329.5</ele>
<desc>Speed 4.6 km/h Distance 70.87 km</desc>
<time>2011-05-22T12:58:28.32</time>
<name>15443</name>
<sym>Dot</sym>
</trkpt>
<trkpt lat="39.680888" lon="-8.661378">
<ele>329.5</ele>
<desc>Speed 4.7 km/h Distance 70.87 km</desc>
<time>2011-05-22T12:58:29.31</time>
<name>15444</name>
<sym>Dot</sym>
</trkpt>
<trkpt lat="39.680893" lon="-8.661392">
<ele>330.0</ele>
<desc>Speed 4.3 km/h Distance 70.87 km</desc>
<time>2011-05-22T12:58:30.31</time>
<name>15445</name>
<sym>Dot</sym>
</trkpt>
<trkpt lat="39.680898" lon="-8.661403">
<ele>330.5</ele>
<desc>Speed 3.3 km/h Distance 70.87 km</desc>
<time>2011-05-22T12:58:31.31</time>
<name>15446</name>
<sym>Dot</sym>
</trkpt>
<trkpt lat="39.680903" lon="-8.661415">
<ele>331.0</ele>
<desc>Speed 4.0 km/h Distance 70.87 km</desc>
<time>2011-05-22T12:58:32.30</time>
<name>15447</name>
<sym>Dot</sym>
</trkpt>
<trkpt lat="39.680912" lon="-8.661428">
<ele>331.0</ele>
<desc>Speed 4.9 km/h Distance 70.87 km</desc>
<time>2011-05-22T12:58:33.31</time>
<name>15448</name>
<sym>Dot</sym>
</trkpt>
<trkpt lat="39.680920" lon="-8.661438">
<ele>330.5</ele>
<desc>Speed 4.0 km/h Distance 70.88 km</desc>
<time>2011-05-22T12:58:34.30</time>
<name>15449</name>
<sym>Dot</sym>
</trkpt>
<trkpt lat="39.680922" lon="-8.661450">
<ele>330.5</ele>
<desc>Speed 3.3 km/h Distance 70.88 km</desc>
<time>2011-05-22T12:58:35.30</time>
<name>15450</name>
<sym>Dot</sym>
</trkpt>
<trkpt lat="39.680925" lon="-8.661465">
<ele>328.0</ele>
<desc>Speed 1.4 km/h Distance 70.88 km</desc>
<time>2011-05-22T12:58:54.30</time>
<name>15451</name>
<sym>Dot</sym>
</trkpt>
<trkpt lat="39.680928" lon="-8.661473">
<ele>328.5</ele>
<desc>Speed 2.4 km/h Distance 70.88 km</desc>
<time>2011-05-22T12:58:55.29</time>
<name>15452</name>
<sym>Dot</sym>
</trkpt>
<trkpt lat="39.680935" lon="-8.661485">
<ele>328.5</ele>
<desc>Speed 3.7 km/h Distance 70.88 km</desc>
<time>2011-05-22T12:58:56.29</time>
<name>15453</name>
<sym>Dot</sym>
</trkpt>
<trkpt lat="39.680938" lon="-8.661497">
<ele>329.0</ele>
<desc>Speed 3.3 km/h Distance 70.88 km</desc>
<time>2011-05-22T12:58:57.29</time>
<name>15454</name>
<sym>Dot</sym>
</trkpt>
<trkpt lat="39.680942" lon="-8.661508">
<ele>329.0</ele>
<desc>Speed 3.3 km/h Distance 70.88 km</desc>
<time>2011-05-22T12:58:58.29</time>
<name>15455</name>
<sym>Dot</sym>
</trkpt>
<trkpt lat="39.680938" lon="-8.661518">
<ele>329.0</ele>
<desc>Speed 3.3 km/h Distance 70.88 km</desc>
<time>2011-05-22T12:58:59.29</time>
<name>15456</name>
<sym>Dot</sym>
</trkpt>
<trkpt lat="39.680933" lon="-8.661527">
<ele>330.0</ele>
<desc>Speed 3.5 km/h Distance 70.88 km</desc>
<time>2011-05-22T12:59:00.28</time>
<name>15457</name>
<sym>Dot</sym>
</trkpt>
<trkpt lat="39.680930" lon="-8.661537">
<ele>331.0</ele>
<desc>Speed 4.1 km/h Distance 70.88 km</desc>
<time>2011-05-22T12:59:01.28</time>
<name>15458</name>
<sym>Dot</sym>
</trkpt>
<trkpt lat="39.680923" lon="-8.661548">
<ele>331.5</ele>
<desc>Speed 4.5 km/h Distance 70.89 km</desc>
<time>2011-05-22T12:59:02.27</time>
<name>15459</name>
<sym>Dot</sym>
</trkpt>
<trkpt lat="39.680920" lon="-8.661562">
<ele>332.0</ele>
<desc>Speed 4.5 km/h Distance 70.89 km</desc>
<time>2011-05-22T12:59:03.27</time>
<name>15460</name>
<sym>Dot</sym>
</trkpt>
<trkpt lat="39.680918" lon="-8.661577">
<ele>333.0</ele>
<desc>Speed 4.3 km/h Distance 70.89 km</desc>
<time>2011-05-22T12:59:04.27</time>
<name>15461</name>
<sym>Dot</sym>
</trkpt>
<trkpt lat="39.680918" lon="-8.661590">
<ele>333.5</ele>
<desc>Speed 4.4 km/h Distance 70.89 km</desc>
<time>2011-05-22T12:59:05.26</time>
<name>15462</name>
<sym>Dot</sym>
</trkpt>
<trkpt lat="39.680922" lon="-8.661602">
<ele>334.0</ele>
<desc>Speed 3.5 km/h Distance 70.89 km</desc>
<time>2011-05-22T12:59:06.26</time>
<name>15463</name>
<sym>Dot</sym>
</trkpt>
<trkpt lat="39.680925" lon="-8.661613">
<ele>335.0</ele>
<desc>Speed 3.4 km/h Distance 70.89 km</desc>
<time>2011-05-22T12:59:07.26</time>
<name>15464</name>
<sym>Dot</sym>
</trkpt>
<trkpt lat="39.680928" lon="-8.661625">
<ele>335.5</ele>
<desc>Speed 3.7 km/h Distance 70.89 km</desc>
<time>2011-05-22T12:59:08.25</time>
<name>15465</name>
<sym>Dot</sym>
</trkpt>
<trkpt lat="39.680935" lon="-8.661638">
<ele>336.0</ele>
<desc>Speed 4.5 km/h Distance 70.89 km</desc>
<time>2011-05-22T12:59:09.25</time>
<name>15466</name>
<sym>Dot</sym>
</trkpt>
<trkpt lat="39.680940" lon="-8.661652">
<ele>336.5</ele>
<desc>Speed 4.3 km/h Distance 70.90 km</desc>
<time>2011-05-22T12:59:10.25</time>
<name>15467</name>
<sym>Dot</sym>
</trkpt>
<trkpt lat="39.680945" lon="-8.661668">
<ele>336.5</ele>
<desc>Speed 5.0 km/h Distance 70.90 km</desc>
<time>2011-05-22T12:59:11.24</time>
<name>15468</name>
<sym>Dot</sym>
</trkpt>
<trkpt lat="39.680950" lon="-8.661677">
<ele>337.0</ele>
<desc>Speed 3.3 km/h Distance 70.90 km</desc>
<time>2011-05-22T12:59:12.23</time>
<name>15469</name>
<sym>Dot</sym>
</trkpt>
<trkpt lat="39.680953" lon="-8.661687">
<ele>337.0</ele>
<desc>Speed 3.4 km/h Distance 70.90 km</desc>
<time>2011-05-22T12:59:13.23</time>
<name>15470</name>
<sym>Dot</sym>
</trkpt>
<trkpt lat="39.680960" lon="-8.661698">
<ele>337.0</ele>
<desc>Speed 4.0 km/h Distance 70.90 km</desc>
<time>2011-05-22T12:59:14.24</time>
<name>15471</name>
<sym>Dot</sym>
</trkpt>
<trkpt lat="39.680965" lon="-8.661712">
<ele>337.5</ele>
<desc>Speed 4.7 km/h Distance 70.90 km</desc>
<time>2011-05-22T12:59:15.23</time>
<name>15472</name>
<sym>Dot</sym>
</trkpt>
<trkpt lat="39.680972" lon="-8.661723">
<ele>337.5</ele>
<desc>Speed 4.1 km/h Distance 70.90 km</desc>
<time>2011-05-22T12:59:16.22</time>
<name>15473</name>
<sym>Dot</sym>
</trkpt>
<trkpt lat="39.680977" lon="-8.661737">
<ele>338.0</ele>
<desc>Speed 4.5 km/h Distance 70.90 km</desc>
<time>2011-05-22T12:59:17.22</time>
<name>15474</name>
<sym>Dot</sym>
</trkpt>
<trkpt lat="39.680983" lon="-8.661748">
<ele>338.0</ele>
<desc>Speed 4.7 km/h Distance 70.91 km</desc>
<time>2011-05-22T12:59:18.22</time>
<name>15475</name>
<sym>Dot</sym>
</trkpt>
<trkpt lat="39.680990" lon="-8.661762">
<ele>338.0</ele>
<desc>Speed 4.4 km/h Distance 70.91 km</desc>
<time>2011-05-22T12:59:19.22</time>
<name>15476</name>
<sym>Dot</sym>
</trkpt>
<trkpt lat="39.680995" lon="-8.661773">
<ele>338.0</ele>
<desc>Speed 4.0 km/h Distance 70.91 km</desc>
<time>2011-05-22T12:59:20.22</time>
<name>15477</name>
<sym>Dot</sym>
</trkpt>
<trkpt lat="39.681000" lon="-8.661787">
<ele>338.5</ele>
<desc>Speed 4.1 km/h Distance 70.91 km</desc>
<time>2011-05-22T12:59:21.21</time>
<name>15478</name>
<sym>Dot</sym>
</trkpt>
<trkpt lat="39.681005" lon="-8.661802">
<ele>338.5</ele>
<desc>Speed 4.8 km/h Distance 70.91 km</desc>
<time>2011-05-22T12:59:22.21</time>
<name>15479</name>
<sym>Dot</sym>
</trkpt>
<trkpt lat="39.681008" lon="-8.661817">
<ele>338.5</ele>
<desc>Speed 4.6 km/h Distance 70.91 km</desc>
<time>2011-05-22T12:59:23.20</time>
<name>15480</name>
<sym>Dot</sym>
</trkpt>
<trkpt lat="39.681013" lon="-8.661828">
<ele>339.0</ele>
<desc>Speed 4.1 km/h Distance 70.91 km</desc>
<time>2011-05-22T12:59:24.20</time>
<name>15481</name>
<sym>Dot</sym>
</trkpt>
<trkpt lat="39.681017" lon="-8.661837">
<ele>339.0</ele>
<desc>Speed 3.1 km/h Distance 70.91 km</desc>
<time>2011-05-22T12:59:25.20</time>
<name>15482</name>
<sym>Dot</sym>
</trkpt>
<trkpt lat="39.681022" lon="-8.661853">
<ele>339.0</ele>
<desc>Speed 5.7 km/h Distance 70.92 km</desc>
<time>2011-05-22T12:59:26.19</time>
<name>15483</name>
<sym>Dot</sym>
</trkpt>
<trkpt lat="39.681028" lon="-8.661870">
<ele>339.5</ele>
<desc>Speed 5.1 km/h Distance 70.92 km</desc>
<time>2011-05-22T12:59:27.19</time>
<name>15484</name>
<sym>Dot</sym>
</trkpt>
<trkpt lat="39.681032" lon="-8.661885">
<ele>339.5</ele>
<desc>Speed 4.8 km/h Distance 70.92 km</desc>
<time>2011-05-22T12:59:28.19</time>
<name>15485</name>
<sym>Dot</sym>
</trkpt>
<trkpt lat="39.681035" lon="-8.661897">
<ele>340.0</ele>
<desc>Speed 3.8 km/h Distance 70.92 km</desc>
<time>2011-05-22T12:59:29.18</time>
<name>15486</name>
<sym>Dot</sym>
</trkpt>
<trkpt lat="39.681040" lon="-8.661912">
<ele>340.5</ele>
<desc>Speed 4.9 km/h Distance 70.92 km</desc>
<time>2011-05-22T12:59:30.18</time>
<name>15487</name>
<sym>Dot</sym>
</trkpt>
<trkpt lat="39.681045" lon="-8.661925">
<ele>341.0</ele>
<desc>Speed 4.0 km/h Distance 70.92 km</desc>
<time>2011-05-22T12:59:31.18</time>
<name>15488</name>
<sym>Dot</sym>
</trkpt>
<trkpt lat="39.681048" lon="-8.661932">
<ele>343.0</ele>
<desc>Speed 2.0 km/h Distance 70.92 km</desc>
<time>2011-05-22T12:59:32.18</time>
<name>15489</name>
<sym>Dot</sym>
</trkpt>
<trkpt lat="39.681053" lon="-8.661940">
<ele>344.5</ele>
<desc>Speed 2.9 km/h Distance 70.92 km</desc>
<time>2011-05-22T12:59:33.16</time>
<name>15490</name>
<sym>Dot</sym>
</trkpt>
<trkpt lat="39.681058" lon="-8.661957">
<ele>345.5</ele>
<desc>Speed 5.0 km/h Distance 70.93 km</desc>
<time>2011-05-22T12:59:34.16</time>
<name>15491</name>
<sym>Dot</sym>
</trkpt>
<trkpt lat="39.681067" lon="-8.661973">
<ele>345.0</ele>
<desc>Speed 5.9 km/h Distance 70.93 km</desc>
<time>2011-05-22T12:59:35.16</time>
<name>15492</name>
<sym>Dot</sym>
</trkpt>
<trkpt lat="39.681073" lon="-8.661987">
<ele>345.5</ele>
<desc>Speed 4.7 km/h Distance 70.93 km</desc>
<time>2011-05-22T12:59:36.15</time>
<name>15493</name>
<sym>Dot</sym>
</trkpt>
<trkpt lat="39.681078" lon="-8.662002">
<ele>346.0</ele>
<desc>Speed 4.4 km/h Distance 70.93 km</desc>
<time>2011-05-22T12:59:37.15</time>
<name>15494</name>
<sym>Dot</sym>
</trkpt>
<trkpt lat="39.681083" lon="-8.662018">
<ele>346.0</ele>
<desc>Speed 5.4 km/h Distance 70.93 km</desc>
<time>2011-05-22T12:59:38.14</time>
<name>15495</name>
<sym>Dot</sym>
</trkpt>
<trkpt lat="39.681092" lon="-8.662028">
<ele>346.5</ele>
<desc>Speed 4.1 km/h Distance 70.93 km</desc>
<time>2011-05-22T12:59:39.13</time>
<name>15496</name>
<sym>Dot</sym>
</trkpt>
<trkpt lat="39.681097" lon="-8.662040">
<ele>347.5</ele>
<desc>Speed 3.7 km/h Distance 70.93 km</desc>
<time>2011-05-22T12:59:40.12</time>
<name>15497</name>
<sym>Dot</sym>
</trkpt>
<trkpt lat="39.681102" lon="-8.662057">
<ele>347.5</ele>
<desc>Speed 5.1 km/h Distance 70.94 km</desc>
<time>2011-05-22T12:59:41.12</time>
<name>15498</name>
<sym>Dot</sym>
</trkpt>
<trkpt lat="39.681108" lon="-8.662072">
<ele>348.0</ele>
<desc>Speed 5.4 km/h Distance 70.94 km</desc>
<time>2011-05-22T12:59:42.11</time>
<name>15499</name>
<sym>Dot</sym>
</trkpt>
<trkpt lat="39.681115" lon="-8.662087">
<ele>348.0</ele>
<desc>Speed 5.2 km/h Distance 70.94 km</desc>
<time>2011-05-22T12:59:43.11</time>
<name>15500</name>
<sym>Dot</sym>
</trkpt>
<trkpt lat="39.681122" lon="-8.662102">
<ele>348.0</ele>
<desc>Speed 4.9 km/h Distance 70.94 km</desc>
<time>2011-05-22T12:59:44.11</time>
<name>15501</name>
<sym>Dot</sym>
</trkpt>
<trkpt lat="39.681127" lon="-8.662117">
<ele>348.5</ele>
<desc>Speed 5.0 km/h Distance 70.94 km</desc>
<time>2011-05-22T12:59:45.11</time>
<name>15502</name>
<sym>Dot</sym>
</trkpt>
<trkpt lat="39.681133" lon="-8.662137">
<ele>348.5</ele>
<desc>Speed 6.4 km/h Distance 70.94 km</desc>
<time>2011-05-22T12:59:46.11</time>
<name>15503</name>
<sym>Dot</sym>
</trkpt>
<trkpt lat="39.681142" lon="-8.662152">
<ele>348.5</ele>
<desc>Speed 5.3 km/h Distance 70.94 km</desc>
<time>2011-05-22T12:59:47.11</time>
<name>15504</name>
<sym>Dot</sym>
</trkpt>
<trkpt lat="39.681148" lon="-8.662165">
<ele>348.5</ele>
<desc>Speed 5.0 km/h Distance 70.95 km</desc>
<time>2011-05-22T12:59:48.11</time>
<name>15505</name>
<sym>Dot</sym>
</trkpt>
<trkpt lat="39.681152" lon="-8.662183">
<ele>348.5</ele>
<desc>Speed 5.4 km/h Distance 70.95 km</desc>
<time>2011-05-22T12:59:49.10</time>
<name>15506</name>
<sym>Dot</sym>
</trkpt>
<trkpt lat="39.681160" lon="-8.662200">
<ele>348.5</ele>
<desc>Speed 5.7 km/h Distance 70.95 km</desc>
<time>2011-05-22T12:59:50.10</time>
<name>15507</name>
<sym>Dot</sym>
</trkpt>
<trkpt lat="39.681167" lon="-8.662220">
<ele>348.5</ele>
<desc>Speed 6.6 km/h Distance 70.95 km</desc>
<time>2011-05-22T12:59:51.09</time>
<name>15508</name>
<sym>Dot</sym>
</trkpt>
<trkpt lat="39.681175" lon="-8.662240">
<ele>348.5</ele>
<desc>Speed 5.9 km/h Distance 70.95 km</desc>
<time>2011-05-22T12:59:52.09</time>
<name>15509</name>
<sym>Dot</sym>
</trkpt>
<trkpt lat="39.681183" lon="-8.662262">
<ele>349.0</ele>
<desc>Speed 6.3 km/h Distance 70.95 km</desc>
<time>2011-05-22T12:59:53.09</time>
<name>15510</name>
<sym>Dot</sym>
</trkpt>
<trkpt lat="39.681190" lon="-8.662280">
<ele>348.5</ele>
<desc>Speed 5.4 km/h Distance 70.96 km</desc>
<time>2011-05-22T12:59:54.08</time>
<name>15511</name>
<sym>Dot</sym>
</trkpt>
<trkpt lat="39.681193" lon="-8.662305">
<ele>348.0</ele>
<desc>Speed 5.8 km/h Distance 70.96 km</desc>
<time>2011-05-22T12:59:55.08</time>
<name>15512</name>
<sym>Dot</sym>
</trkpt>
<trkpt lat="39.681197" lon="-8.662323">
<ele>348.0</ele>
<desc>Speed 5.3 km/h Distance 70.96 km</desc>
<time>2011-05-22T12:59:56.13</time>
<name>15513</name>
<sym>Dot</sym>
</trkpt>
<trkpt lat="39.681213" lon="-8.662392">
<ele>348.0</ele>
<desc>Speed 4.1 km/h Distance 70.97 km</desc>
<time>2011-05-22T13:00:01.54</time>
<name>15514</name>
<sym>Dot</sym>
</trkpt>
<trkpt lat="39.681217" lon="-8.662410">
<ele>348.0</ele>
<desc>Speed 5.4 km/h Distance 70.97 km</desc>
<time>2011-05-22T13:00:02.52</time>
<name>15515</name>
<sym>Dot</sym>
</trkpt>
<trkpt lat="39.681222" lon="-8.662428">
<ele>348.0</ele>
<desc>Speed 5.7 km/h Distance 70.97 km</desc>
<time>2011-05-22T13:00:03.64</time>
<name>15516</name>
<sym>Dot</sym>
</trkpt>
<trkpt lat="39.681227" lon="-8.662448">
<ele>347.5</ele>
<desc>Speed 5.7 km/h Distance 70.97 km</desc>
<time>2011-05-22T13:00:04.54</time>
<name>15517</name>
<sym>Dot</sym>
</trkpt>
<trkpt lat="39.681233" lon="-8.662472">
<ele>346.5</ele>
<desc>Speed 5.9 km/h Distance 70.97 km</desc>
<time>2011-05-22T13:00:05.54</time>
<name>15518</name>
<sym>Dot</sym>
</trkpt>
<trkpt lat="39.681238" lon="-8.662488">
<ele>347.0</ele>
<desc>Speed 4.8 km/h Distance 70.98 km</desc>
<time>2011-05-22T13:00:06.54</time>
<name>15519</name>
<sym>Dot</sym>
</trkpt>
<trkpt lat="39.681243" lon="-8.662505">
<ele>347.0</ele>
<desc>Speed 5.5 km/h Distance 70.98 km</desc>
<time>2011-05-22T13:00:07.54</time>
<name>15520</name>
<sym>Dot</sym>
</trkpt>
<trkpt lat="39.681247" lon="-8.662523">
<ele>347.5</ele>
<desc>Speed 5.7 km/h Distance 70.98 km</desc>
<time>2011-05-22T13:00:08.54</time>
<name>15521</name>
<sym>Dot</sym>
</trkpt>
<trkpt lat="39.681252" lon="-8.662542">
<ele>347.5</ele>
<desc>Speed 5.9 km/h Distance 70.98 km</desc>
<time>2011-05-22T13:00:09.54</time>
<name>15522</name>
<sym>Dot</sym>
</trkpt>
<trkpt lat="39.681257" lon="-8.662562">
<ele>347.0</ele>
<desc>Speed 5.5 km/h Distance 70.98 km</desc>
<time>2011-05-22T13:00:10.54</time>
<name>15523</name>
<sym>Dot</sym>
</trkpt>
<trkpt lat="39.681262" lon="-8.662580">
<ele>347.0</ele>
<desc>Speed 5.6 km/h Distance 70.98 km</desc>
<time>2011-05-22T13:00:11.54</time>
<name>15524</name>
<sym>Dot</sym>
</trkpt>
<trkpt lat="39.681267" lon="-8.662600">
<ele>347.0</ele>
<desc>Speed 5.9 km/h Distance 70.99 km</desc>
<time>2011-05-22T13:00:12.54</time>
<name>15525</name>
<sym>Dot</sym>
</trkpt>
<trkpt lat="39.681272" lon="-8.662620">
<ele>347.5</ele>
<desc>Speed 5.5 km/h Distance 70.99 km</desc>
<time>2011-05-22T13:00:13.54</time>
<name>15526</name>
<sym>Dot</sym>
</trkpt>
<trkpt lat="39.681277" lon="-8.662638">
<ele>347.5</ele>
<desc>Speed 5.5 km/h Distance 70.99 km</desc>
<time>2011-05-22T13:00:14.54</time>
<name>15527</name>
<sym>Dot</sym>
</trkpt>
<trkpt lat="39.681280" lon="-8.662657">
<ele>347.5</ele>
<desc>Speed 5.5 km/h Distance 70.99 km</desc>
<time>2011-05-22T13:00:15.54</time>
<name>15528</name>
<sym>Dot</sym>
</trkpt>
<trkpt lat="39.681283" lon="-8.662675">
<ele>347.5</ele>
<desc>Speed 5.8 km/h Distance 70.99 km</desc>
<time>2011-05-22T13:00:16.54</time>
<name>15529</name>
<sym>Dot</sym>
</trkpt>
<trkpt lat="39.681285" lon="-8.662692">
<ele>347.5</ele>
<desc>Speed 5.5 km/h Distance 70.99 km</desc>
<time>2011-05-22T13:00:17.54</time>
<name>15530</name>
<sym>Dot</sym>
</trkpt>
<trkpt lat="39.681288" lon="-8.662712">
<ele>347.0</ele>
<desc>Speed 5.7 km/h Distance 71.00 km</desc>
<time>2011-05-22T13:00:18.54</time>
<name>15531</name>
<sym>Dot</sym>
</trkpt>
<trkpt lat="39.681292" lon="-8.662727">
<ele>347.0</ele>
<desc>Speed 5.0 km/h Distance 71.00 km</desc>
<time>2011-05-22T13:00:19.54</time>
<name>15532</name>
<sym>Dot</sym>
</trkpt>
<trkpt lat="39.681293" lon="-8.662745">
<ele>347.0</ele>
<desc>Speed 5.4 km/h Distance 71.00 km</desc>
<time>2011-05-22T13:00:20.54</time>
<name>15533</name>
<sym>Dot</sym>
</trkpt>
<trkpt lat="39.681295" lon="-8.662763">
<ele>347.0</ele>
<desc>Speed 5.7 km/h Distance 71.00 km</desc>
<time>2011-05-22T13:00:21.54</time>
<name>15534</name>
<sym>Dot</sym>
</trkpt>
<trkpt lat="39.681300" lon="-8.662790">
<ele>346.5</ele>
<desc>Speed 5.8 km/h Distance 71.00 km</desc>
<time>2011-05-22T13:00:22.54</time>
<name>15535</name>
<sym>Dot</sym>
</trkpt>
<trkpt lat="39.681303" lon="-8.662808">
<ele>346.0</ele>
<desc>Speed 5.7 km/h Distance 71.00 km</desc>
<time>2011-05-22T13:00:23.54</time>
<name>15536</name>
<sym>Dot</sym>
</trkpt>
<trkpt lat="39.681305" lon="-8.662827">
<ele>346.0</ele>
<desc>Speed 5.4 km/h Distance 71.01 km</desc>
<time>2011-05-22T13:00:24.54</time>
<name>15537</name>
<sym>Dot</sym>
</trkpt>
<trkpt lat="39.681307" lon="-8.662843">
<ele>346.0</ele>
<desc>Speed 5.3 km/h Distance 71.01 km</desc>
<time>2011-05-22T13:00:25.54</time>
<name>15538</name>
<sym>Dot</sym>
</trkpt>
<trkpt lat="39.681307" lon="-8.662868">
<ele>345.0</ele>
<desc>Speed 5.7 km/h Distance 71.01 km</desc>
<time>2011-05-22T13:00:26.53</time>
<name>15539</name>
<sym>Dot</sym>
</trkpt>
<trkpt lat="39.681310" lon="-8.662887">
<ele>345.5</ele>
<desc>Speed 5.7 km/h Distance 71.01 km</desc>
<time>2011-05-22T13:00:27.53</time>
<name>15540</name>
<sym>Dot</sym>
</trkpt>
<trkpt lat="39.681312" lon="-8.662905">
<ele>345.5</ele>
<desc>Speed 5.9 km/h Distance 71.01 km</desc>
<time>2011-05-22T13:00:28.54</time>
<name>15541</name>
<sym>Dot</sym>
</trkpt>
<trkpt lat="39.681318" lon="-8.662927">
<ele>345.0</ele>
<desc>Speed 5.4 km/h Distance 71.01 km</desc>
<time>2011-05-22T13:00:29.54</time>
<name>15542</name>
<sym>Dot</sym>
</trkpt>
<trkpt lat="39.681318" lon="-8.662947">
<ele>344.5</ele>
<desc>Speed 5.0 km/h Distance 71.02 km</desc>
<time>2011-05-22T13:00:30.54</time>
<name>15543</name>
<sym>Dot</sym>
</trkpt>
<trkpt lat="39.681320" lon="-8.662963">
<ele>344.5</ele>
<desc>Speed 5.3 km/h Distance 71.02 km</desc>
<time>2011-05-22T13:00:31.54</time>
<name>15544</name>
<sym>Dot</sym>
</trkpt>
<trkpt lat="39.681320" lon="-8.662982">
<ele>344.5</ele>
<desc>Speed 5.6 km/h Distance 71.02 km</desc>
<time>2011-05-22T13:00:32.53</time>
<name>15545</name>
<sym>Dot</sym>
</trkpt>
<trkpt lat="39.681322" lon="-8.663002">
<ele>345.0</ele>
<desc>Speed 5.8 km/h Distance 71.02 km</desc>
<time>2011-05-22T13:00:33.53</time>
<name>15546</name>
<sym>Dot</sym>
</trkpt>
<trkpt lat="39.681323" lon="-8.663022">
<ele>345.0</ele>
<desc>Speed 5.7 km/h Distance 71.02 km</desc>
<time>2011-05-22T13:00:34.53</time>
<name>15547</name>
<sym>Dot</sym>
</trkpt>
<trkpt lat="39.681323" lon="-8.663042">
<ele>345.0</ele>
<desc>Speed 5.7 km/h Distance 71.02 km</desc>
<time>2011-05-22T13:00:35.53</time>
<name>15548</name>
<sym>Dot</sym>
</trkpt>
<trkpt lat="39.681323" lon="-8.663062">
<ele>345.5</ele>
<desc>Speed 5.6 km/h Distance 71.03 km</desc>
<time>2011-05-22T13:00:36.53</time>
<name>15549</name>
<sym>Dot</sym>
</trkpt>
<trkpt lat="39.681325" lon="-8.663078">
<ele>345.5</ele>
<desc>Speed 5.6 km/h Distance 71.03 km</desc>
<time>2011-05-22T13:00:37.53</time>
<name>15550</name>
<sym>Dot</sym>
</trkpt>
<trkpt lat="39.681325" lon="-8.663098">
<ele>345.0</ele>
<desc>Speed 5.9 km/h Distance 71.03 km</desc>
<time>2011-05-22T13:00:38.52</time>
<name>15551</name>
<sym>Dot</sym>
</trkpt>
<trkpt lat="39.681325" lon="-8.663118">
<ele>345.0</ele>
<desc>Speed 5.9 km/h Distance 71.03 km</desc>
<time>2011-05-22T13:00:39.52</time>
<name>15552</name>
<sym>Dot</sym>
</trkpt>
<trkpt lat="39.681325" lon="-8.663137">
<ele>345.5</ele>
<desc>Speed 5.7 km/h Distance 71.03 km</desc>
<time>2011-05-22T13:00:40.52</time>
<name>15553</name>
<sym>Dot</sym>
</trkpt>
<trkpt lat="39.681323" lon="-8.663155">
<ele>345.5</ele>
<desc>Speed 5.8 km/h Distance 71.03 km</desc>
<time>2011-05-22T13:00:41.52</time>
<name>15554</name>
<sym>Dot</sym>
</trkpt>
<trkpt lat="39.681325" lon="-8.663175">
<ele>345.5</ele>
<desc>Speed 5.9 km/h Distance 71.04 km</desc>
<time>2011-05-22T13:00:42.52</time>
<name>15555</name>
<sym>Dot</sym>
</trkpt>
<trkpt lat="39.681325" lon="-8.663193">
<ele>345.5</ele>
<desc>Speed 5.6 km/h Distance 71.04 km</desc>
<time>2011-05-22T13:00:43.52</time>
<name>15556</name>
<sym>Dot</sym>
</trkpt>
<trkpt lat="39.681325" lon="-8.663210">
<ele>345.0</ele>
<desc>Speed 5.5 km/h Distance 71.04 km</desc>
<time>2011-05-22T13:00:44.52</time>
<name>15557</name>
<sym>Dot</sym>
</trkpt>
<trkpt lat="39.681325" lon="-8.663228">
<ele>345.0</ele>
<desc>Speed 5.7 km/h Distance 71.04 km</desc>
<time>2011-05-22T13:00:45.52</time>
<name>15558</name>
<sym>Dot</sym>
</trkpt>
<trkpt lat="39.681323" lon="-8.663247">
<ele>345.0</ele>
<desc>Speed 5.8 km/h Distance 71.04 km</desc>
<time>2011-05-22T13:00:46.52</time>
<name>15559</name>
<sym>Dot</sym>
</trkpt>
<trkpt lat="39.681323" lon="-8.663265">
<ele>345.0</ele>
<desc>Speed 5.8 km/h Distance 71.04 km</desc>
<time>2011-05-22T13:00:47.52</time>
<name>15560</name>
<sym>Dot</sym>
</trkpt>
<trkpt lat="39.681322" lon="-8.663283">
<ele>345.0</ele>
<desc>Speed 5.7 km/h Distance 71.04 km</desc>
<time>2011-05-22T13:00:48.52</time>
<name>15561</name>
<sym>Dot</sym>
</trkpt>
<trkpt lat="39.681322" lon="-8.663302">
<ele>345.0</ele>
<desc>Speed 5.7 km/h Distance 71.05 km</desc>
<time>2011-05-22T13:00:49.52</time>
<name>15562</name>
<sym>Dot</sym>
</trkpt>
<trkpt lat="39.681322" lon="-8.663320">
<ele>345.0</ele>
<desc>Speed 5.7 km/h Distance 71.05 km</desc>
<time>2011-05-22T13:00:50.52</time>
<name>15563</name>
<sym>Dot</sym>
</trkpt>
<trkpt lat="39.681322" lon="-8.663337">
<ele>345.0</ele>
<desc>Speed 5.6 km/h Distance 71.05 km</desc>
<time>2011-05-22T13:00:51.52</time>
<name>15564</name>
<sym>Dot</sym>
</trkpt>
<trkpt lat="39.681322" lon="-8.663353">
<ele>345.0</ele>
<desc>Speed 5.5 km/h Distance 71.05 km</desc>
<time>2011-05-22T13:00:52.52</time>
<name>15565</name>
<sym>Dot</sym>
</trkpt>
<trkpt lat="39.681318" lon="-8.663373">
<ele>345.0</ele>
<desc>Speed 6.1 km/h Distance 71.05 km</desc>
<time>2011-05-22T13:00:53.52</time>
<name>15566</name>
<sym>Dot</sym>
</trkpt>
<trkpt lat="39.681317" lon="-8.663390">
<ele>345.0</ele>
<desc>Speed 5.8 km/h Distance 71.05 km</desc>
<time>2011-05-22T13:00:54.52</time>
<name>15567</name>
<sym>Dot</sym>
</trkpt>
<trkpt lat="39.681315" lon="-8.663408">
<ele>344.5</ele>
<desc>Speed 5.8 km/h Distance 71.06 km</desc>
<time>2011-05-22T13:00:55.52</time>
<name>15568</name>
<sym>Dot</sym>
</trkpt>
<trkpt lat="39.681313" lon="-8.663427">
<ele>344.5</ele>
<desc>Speed 6.1 km/h Distance 71.06 km</desc>
<time>2011-05-22T13:00:56.52</time>
<name>15569</name>
<sym>Dot</sym>
</trkpt>
<trkpt lat="39.681310" lon="-8.663445">
<ele>344.5</ele>
<desc>Speed 5.8 km/h Distance 71.06 km</desc>
<time>2011-05-22T13:00:57.52</time>
<name>15570</name>
<sym>Dot</sym>
</trkpt>
<trkpt lat="39.681308" lon="-8.663463">
<ele>344.5</ele>
<desc>Speed 5.8 km/h Distance 71.06 km</desc>
<time>2011-05-22T13:00:58.52</time>
<name>15571</name>
<sym>Dot</sym>
</trkpt>
<trkpt lat="39.681303" lon="-8.663482">
<ele>344.5</ele>
<desc>Speed 5.7 km/h Distance 71.06 km</desc>
<time>2011-05-22T13:00:59.52</time>
<name>15572</name>
<sym>Dot</sym>
</trkpt>
<trkpt lat="39.681300" lon="-8.663500">
<ele>344.5</ele>
<desc>Speed 5.8 km/h Distance 71.06 km</desc>
<time>2011-05-22T13:01:00.51</time>
<name>15573</name>
<sym>Dot</sym>
</trkpt>
<trkpt lat="39.681297" lon="-8.663520">
<ele>345.0</ele>
<desc>Speed 6.1 km/h Distance 71.07 km</desc>
<time>2011-05-22T13:01:01.51</time>
<name>15574</name>
<sym>Dot</sym>
</trkpt>
<trkpt lat="39.681295" lon="-8.663538">
<ele>345.0</ele>
<desc>Speed 5.9 km/h Distance 71.07 km</desc>
<time>2011-05-22T13:01:02.51</time>
<name>15575</name>
<sym>Dot</sym>
</trkpt>
<trkpt lat="39.681292" lon="-8.663557">
<ele>345.0</ele>
<desc>Speed 6.0 km/h Distance 71.07 km</desc>
<time>2011-05-22T13:01:03.51</time>
<name>15576</name>
<sym>Dot</sym>
</trkpt>
<trkpt lat="39.681288" lon="-8.663577">
<ele>345.0</ele>
<desc>Speed 6.4 km/h Distance 71.07 km</desc>
<time>2011-05-22T13:01:04.50</time>
<name>15577</name>
<sym>Dot</sym>
</trkpt>
<trkpt lat="39.681285" lon="-8.663597">
<ele>345.0</ele>
<desc>Speed 5.9 km/h Distance 71.07 km</desc>
<time>2011-05-22T13:01:05.50</time>
<name>15578</name>
<sym>Dot</sym>
</trkpt>
<trkpt lat="39.681282" lon="-8.663615">
<ele>345.0</ele>
<desc>Speed 5.8 km/h Distance 71.07 km</desc>
<time>2011-05-22T13:01:06.50</time>
<name>15579</name>
<sym>Dot</sym>
</trkpt>
<trkpt lat="39.681277" lon="-8.663647">
<ele>344.0</ele>
<desc>Speed 7.3 km/h Distance 71.08 km</desc>
<time>2011-05-22T13:01:07.50</time>
<name>15580</name>
<sym>Dot</sym>
</trkpt>
<trkpt lat="39.681273" lon="-8.663665">
<ele>344.0</ele>
<desc>Speed 5.0 km/h Distance 71.08 km</desc>
<time>2011-05-22T13:01:08.50</time>
<name>15581</name>
<sym>Dot</sym>
</trkpt>
<trkpt lat="39.681268" lon="-8.663683">
<ele>343.5</ele>
<desc>Speed 5.8 km/h Distance 71.08 km</desc>
<time>2011-05-22T13:01:09.52</time>
<name>15582</name>
<sym>Dot</sym>
</trkpt>
<trkpt lat="39.681265" lon="-8.663698">
<ele>342.5</ele>
<desc>Speed 4.6 km/h Distance 71.08 km</desc>
<time>2011-05-22T13:01:10.52</time>
<name>15583</name>
<sym>Dot</sym>
</trkpt>
<trkpt lat="39.681262" lon="-8.663715">
<ele>342.0</ele>
<desc>Speed 5.0 km/h Distance 71.08 km</desc>
<time>2011-05-22T13:01:11.51</time>
<name>15584</name>
<sym>Dot</sym>
</trkpt>
<trkpt lat="39.681257" lon="-8.663733">
<ele>341.5</ele>
<desc>Speed 5.8 km/h Distance 71.08 km</desc>
<time>2011-05-22T13:01:12.51</time>
<name>15585</name>
<sym>Dot</sym>
</trkpt>
<trkpt lat="39.681253" lon="-8.663748">
<ele>340.5</ele>
<desc>Speed 5.0 km/h Distance 71.09 km</desc>
<time>2011-05-22T13:01:13.51</time>
<name>15586</name>
<sym>Dot</sym>
</trkpt>
<trkpt lat="39.681247" lon="-8.663770">
<ele>340.5</ele>
<desc>Speed 6.6 km/h Distance 71.09 km</desc>
<time>2011-05-22T13:01:14.51</time>
<name>15587</name>
<sym>Dot</sym>
</trkpt>
<trkpt lat="39.681242" lon="-8.663787">
<ele>340.0</ele>
<desc>Speed 5.4 km/h Distance 71.09 km</desc>
<time>2011-05-22T13:01:15.51</time>
<name>15588</name>
<sym>Dot</sym>
</trkpt>
<trkpt lat="39.681237" lon="-8.663807">
<ele>339.5</ele>
<desc>Speed 5.8 km/h Distance 71.09 km</desc>
<time>2011-05-22T13:01:16.51</time>
<name>15589</name>
<sym>Dot</sym>
</trkpt>
<trkpt lat="39.681233" lon="-8.663828">
<ele>339.5</ele>
<desc>Speed 5.7 km/h Distance 71.09 km</desc>
<time>2011-05-22T13:01:17.51</time>
<name>15590</name>
<sym>Dot</sym>
</trkpt>
<trkpt lat="39.681230" lon="-8.663848">
<ele>340.0</ele>
<desc>Speed 5.5 km/h Distance 71.09 km</desc>
<time>2011-05-22T13:01:18.60</time>
<name>15591</name>
<sym>Dot</sym>
</trkpt>
<trkpt lat="39.681223" lon="-8.663863">
<ele>339.5</ele>
<desc>Speed 4.9 km/h Distance 71.10 km</desc>
<time>2011-05-22T13:01:19.52</time>
<name>15592</name>
<sym>Dot</sym>
</trkpt>
<trkpt lat="39.681215" lon="-8.663893">
<ele>340.5</ele>
<desc>Speed 9.8 km/h Distance 71.10 km</desc>
<time>2011-05-22T13:01:20.52</time>
<name>15593</name>
<sym>Dot</sym>
</trkpt>
<trkpt lat="39.681210" lon="-8.663912">
<ele>340.5</ele>
<desc>Speed 5.7 km/h Distance 71.10 km</desc>
<time>2011-05-22T13:01:21.52</time>
<name>15594</name>
<sym>Dot</sym>
</trkpt>
<trkpt lat="39.681202" lon="-8.663933">
<ele>341.0</ele>
<desc>Speed 7.2 km/h Distance 71.10 km</desc>
<time>2011-05-22T13:01:22.55</time>
<name>15595</name>
<sym>Dot</sym>
</trkpt>
<trkpt lat="39.681195" lon="-8.663952">
<ele>341.0</ele>
<desc>Speed 6.4 km/h Distance 71.10 km</desc>
<time>2011-05-22T13:01:23.54</time>
<name>15596</name>
<sym>Dot</sym>
</trkpt>
<trkpt lat="39.681198" lon="-8.663968">
<ele>342.5</ele>
<desc>Speed 5.3 km/h Distance 71.11 km</desc>
<time>2011-05-22T13:01:24.54</time>
<name>15597</name>
<sym>Dot</sym>
</trkpt>
<trkpt lat="39.681193" lon="-8.663987">
<ele>342.0</ele>
<desc>Speed 5.6 km/h Distance 71.11 km</desc>
<time>2011-05-22T13:01:25.54</time>
<name>15598</name>
<sym>Dot</sym>
</trkpt>
<trkpt lat="39.681190" lon="-8.664003">
<ele>342.5</ele>
<desc>Speed 4.9 km/h Distance 71.11 km</desc>
<time>2011-05-22T13:01:26.54</time>
<name>15599</name>
<sym>Dot</sym>
</trkpt>
<trkpt lat="39.681187" lon="-8.664018">
<ele>342.5</ele>
<desc>Speed 4.8 km/h Distance 71.11 km</desc>
<time>2011-05-22T13:01:27.54</time>
<name>15600</name>
<sym>Dot</sym>
</trkpt>
<trkpt lat="39.681182" lon="-8.664028">
<ele>342.0</ele>
<desc>Speed 5.0 km/h Distance 71.11 km</desc>
<time>2011-05-22T13:01:28.54</time>
<name>15601</name>
<sym>Dot</sym>
</trkpt>
<trkpt lat="39.681182" lon="-8.664042">
<ele>341.5</ele>
<desc>Speed 4.9 km/h Distance 71.11 km</desc>
<time>2011-05-22T13:01:29.54</time>
<name>15602</name>
<sym>Dot</sym>
</trkpt>
<trkpt lat="39.681180" lon="-8.664052">
<ele>342.0</ele>
<desc>Speed 4.8 km/h Distance 71.11 km</desc>
<time>2011-05-22T13:01:30.54</time>
<name>15603</name>
<sym>Dot</sym>
</trkpt>
<trkpt lat="39.681178" lon="-8.664063">
<ele>342.0</ele>
<desc>Speed 4.6 km/h Distance 71.11 km</desc>
<time>2011-05-22T13:01:31.54</time>
<name>15604</name>
<sym>Dot</sym>
</trkpt>
<trkpt lat="39.681178" lon="-8.664077">
<ele>342.0</ele>
<desc>Speed 4.5 km/h Distance 71.12 km</desc>
<time>2011-05-22T13:01:32.54</time>
<name>15605</name>
<sym>Dot</sym>
</trkpt>
<trkpt lat="39.681175" lon="-8.664093">
<ele>341.5</ele>
<desc>Speed 5.3 km/h Distance 71.12 km</desc>
<time>2011-05-22T13:01:33.54</time>
<name>15606</name>
<sym>Dot</sym>
</trkpt>
<trkpt lat="39.681175" lon="-8.664110">
<ele>341.5</ele>
<desc>Speed 4.1 km/h Distance 71.12 km</desc>
<time>2011-05-22T13:01:34.54</time>
<name>15607</name>
<sym>Dot</sym>
</trkpt>
<trkpt lat="39.681173" lon="-8.664127">
<ele>342.0</ele>
<desc>Speed 4.7 km/h Distance 71.12 km</desc>
<time>2011-05-22T13:01:35.54</time>
<name>15608</name>
<sym>Dot</sym>
</trkpt>
<trkpt lat="39.681170" lon="-8.664140">
<ele>342.0</ele>
<desc>Speed 4.9 km/h Distance 71.12 km</desc>
<time>2011-05-22T13:01:36.54</time>
<name>15609</name>
<sym>Dot</sym>
</trkpt>
<trkpt lat="39.681165" lon="-8.664155">
<ele>342.0</ele>
<desc>Speed 4.8 km/h Distance 71.12 km</desc>
<time>2011-05-22T13:01:37.54</time>
<name>15610</name>
<sym>Dot</sym>
</trkpt>
<trkpt lat="39.681162" lon="-8.664170">
<ele>342.0</ele>
<desc>Speed 4.9 km/h Distance 71.12 km</desc>
<time>2011-05-22T13:01:38.54</time>
<name>15611</name>
<sym>Dot</sym>
</trkpt>
<trkpt lat="39.681157" lon="-8.664187">
<ele>342.5</ele>
<desc>Speed 5.3 km/h Distance 71.13 km</desc>
<time>2011-05-22T13:01:39.54</time>
<name>15612</name>
<sym>Dot</sym>
</trkpt>
<trkpt lat="39.681153" lon="-8.664202">
<ele>342.5</ele>
<desc>Speed 4.9 km/h Distance 71.13 km</desc>
<time>2011-05-22T13:01:40.54</time>
<name>15613</name>
<sym>Dot</sym>
</trkpt>
<trkpt lat="39.681150" lon="-8.664215">
<ele>342.5</ele>
<desc>Speed 4.6 km/h Distance 71.13 km</desc>
<time>2011-05-22T13:01:41.54</time>
<name>15614</name>
<sym>Dot</sym>
</trkpt>
<trkpt lat="39.681145" lon="-8.664230">
<ele>343.0</ele>
<desc>Speed 5.1 km/h Distance 71.13 km</desc>
<time>2011-05-22T13:01:42.54</time>
<name>15615</name>
<sym>Dot</sym>
</trkpt>
<trkpt lat="39.681143" lon="-8.664247">
<ele>343.0</ele>
<desc>Speed 5.4 km/h Distance 71.13 km</desc>
<time>2011-05-22T13:01:43.54</time>
<name>15616</name>
<sym>Dot</sym>
</trkpt>
<trkpt lat="39.681140" lon="-8.664263">
<ele>343.5</ele>
<desc>Speed 5.2 km/h Distance 71.13 km</desc>
<time>2011-05-22T13:01:44.54</time>
<name>15617</name>
<sym>Dot</sym>
</trkpt>
<trkpt lat="39.681138" lon="-8.664283">
<ele>344.0</ele>
<desc>Speed 5.7 km/h Distance 71.13 km</desc>
<time>2011-05-22T13:01:45.54</time>
<name>15618</name>
<sym>Dot</sym>
</trkpt>
<trkpt lat="39.681135" lon="-8.664302">
<ele>344.0</ele>
<desc>Speed 5.8 km/h Distance 71.14 km</desc>
<time>2011-05-22T13:01:46.54</time>
<name>15619</name>
<sym>Dot</sym>
</trkpt>
<trkpt lat="39.681128" lon="-8.664320">
<ele>344.5</ele>
<desc>Speed 5.8 km/h Distance 71.14 km</desc>
<time>2011-05-22T13:01:47.54</time>
<name>15620</name>
<sym>Dot</sym>
</trkpt>
<trkpt lat="39.681123" lon="-8.664337">
<ele>345.0</ele>
<desc>Speed 5.6 km/h Distance 71.14 km</desc>
<time>2011-05-22T13:01:48.54</time>
<name>15621</name>
<sym>Dot</sym>
</trkpt>
<trkpt lat="39.681118" lon="-8.664353">
<ele>345.0</ele>
<desc>Speed 5.3 km/h Distance 71.14 km</desc>
<time>2011-05-22T13:01:49.54</time>
<name>15622</name>
<sym>Dot</sym>
</trkpt>
<trkpt lat="39.681113" lon="-8.664368">
<ele>345.0</ele>
<desc>Speed 4.4 km/h Distance 71.14 km</desc>
<time>2011-05-22T13:01:50.54</time>
<name>15623</name>
<sym>Dot</sym>
</trkpt>
<trkpt lat="39.681108" lon="-8.664385">
<ele>345.0</ele>
<desc>Speed 5.0 km/h Distance 71.14 km</desc>
<time>2011-05-22T13:01:51.54</time>
<name>15624</name>
<sym>Dot</sym>
</trkpt>
<trkpt lat="39.681103" lon="-8.664398">
<ele>345.5</ele>
<desc>Speed 4.8 km/h Distance 71.14 km</desc>
<time>2011-05-22T13:01:52.54</time>
<name>15625</name>
<sym>Dot</sym>
</trkpt>
<trkpt lat="39.681097" lon="-8.664413">
<ele>346.0</ele>
<desc>Speed 4.9 km/h Distance 71.15 km</desc>
<time>2011-05-22T13:01:53.54</time>
<name>15626</name>
<sym>Dot</sym>
</trkpt>
<trkpt lat="39.681092" lon="-8.664432">
<ele>346.0</ele>
<desc>Speed 5.7 km/h Distance 71.15 km</desc>
<time>2011-05-22T13:01:54.54</time>
<name>15627</name>
<sym>Dot</sym>
</trkpt>
<trkpt lat="39.681087" lon="-8.664450">
<ele>346.0</ele>
<desc>Speed 5.7 km/h Distance 71.15 km</desc>
<time>2011-05-22T13:01:55.54</time>
<name>15628</name>
<sym>Dot</sym>
</trkpt>
<trkpt lat="39.681082" lon="-8.664468">
<ele>346.0</ele>
<desc>Speed 5.5 km/h Distance 71.15 km</desc>
<time>2011-05-22T13:01:56.54</time>
<name>15629</name>
<sym>Dot</sym>
</trkpt>
<trkpt lat="39.681077" lon="-8.664487">
<ele>346.5</ele>
<desc>Speed 5.4 km/h Distance 71.15 km</desc>
<time>2011-05-22T13:01:57.54</time>
<name>15630</name>
<sym>Dot</sym>
</trkpt>
<trkpt lat="39.681072" lon="-8.664507">
<ele>346.5</ele>
<desc>Speed 5.9 km/h Distance 71.15 km</desc>
<time>2011-05-22T13:01:58.54</time>
<name>15631</name>
<sym>Dot</sym>
</trkpt>
<trkpt lat="39.681065" lon="-8.664525">
<ele>346.0</ele>
<desc>Speed 5.9 km/h Distance 71.16 km</desc>
<time>2011-05-22T13:01:59.54</time>
<name>15632</name>
<sym>Dot</sym>
</trkpt>
<trkpt lat="39.681060" lon="-8.664547">
<ele>346.5</ele>
<desc>Speed 6.0 km/h Distance 71.16 km</desc>
<time>2011-05-22T13:02:00.54</time>
<name>15633</name>
<sym>Dot</sym>
</trkpt>
<trkpt lat="39.681055" lon="-8.664565">
<ele>346.5</ele>
<desc>Speed 5.6 km/h Distance 71.16 km</desc>
<time>2011-05-22T13:02:01.54</time>
<name>15634</name>
<sym>Dot</sym>
</trkpt>
<trkpt lat="39.681050" lon="-8.664583">
<ele>347.0</ele>
<desc>Speed 5.9 km/h Distance 71.16 km</desc>
<time>2011-05-22T13:02:02.54</time>
<name>15635</name>
<sym>Dot</sym>
</trkpt>
<trkpt lat="39.681045" lon="-8.664602">
<ele>347.0</ele>
<desc>Speed 5.2 km/h Distance 71.16 km</desc>
<time>2011-05-22T13:02:03.54</time>
<name>15636</name>
<sym>Dot</sym>
</trkpt>
<trkpt lat="39.681040" lon="-8.664618">
<ele>347.0</ele>
<desc>Speed 5.3 km/h Distance 71.16 km</desc>
<time>2011-05-22T13:02:04.54</time>
<name>15637</name>
<sym>Dot</sym>
</trkpt>
<trkpt lat="39.681035" lon="-8.664637">
<ele>347.0</ele>
<desc>Speed 5.4 km/h Distance 71.17 km</desc>
<time>2011-05-22T13:02:05.54</time>
<name>15638</name>
<sym>Dot</sym>
</trkpt>
<trkpt lat="39.681030" lon="-8.664653">
<ele>347.0</ele>
<desc>Speed 4.7 km/h Distance 71.17 km</desc>
<time>2011-05-22T13:02:06.54</time>
<name>15639</name>
<sym>Dot</sym>
</trkpt>
<trkpt lat="39.681027" lon="-8.664668">
<ele>347.5</ele>
<desc>Speed 3.3 km/h Distance 71.17 km</desc>
<time>2011-05-22T13:02:07.54</time>
<name>15640</name>
<sym>Dot</sym>
</trkpt>
<trkpt lat="39.681022" lon="-8.664683">
<ele>347.5</ele>
<desc>Speed 4.3 km/h Distance 71.17 km</desc>
<time>2011-05-22T13:02:08.54</time>
<name>15641</name>
<sym>Dot</sym>
</trkpt>
<trkpt lat="39.681018" lon="-8.664697">
<ele>348.0</ele>
<desc>Speed 4.1 km/h Distance 71.17 km</desc>
<time>2011-05-22T13:02:09.54</time>
<name>15642</name>
<sym>Dot</sym>
</trkpt>
<trkpt lat="39.681013" lon="-8.664712">
<ele>348.0</ele>
<desc>Speed 4.3 km/h Distance 71.17 km</desc>
<time>2011-05-22T13:02:10.54</time>
<name>15643</name>
<sym>Dot</sym>
</trkpt>
<trkpt lat="39.681010" lon="-8.664727">
<ele>348.5</ele>
<desc>Speed 4.1 km/h Distance 71.17 km</desc>
<time>2011-05-22T13:02:11.54</time>
<name>15644</name>
<sym>Dot</sym>
</trkpt>
<trkpt lat="39.681005" lon="-8.664738">
<ele>349.0</ele>
<desc>Speed 4.0 km/h Distance 71.18 km</desc>
<time>2011-05-22T13:02:12.54</time>
<name>15645</name>
<sym>Dot</sym>
</trkpt>
<trkpt lat="39.680998" lon="-8.664748">
<ele>349.5</ele>
<desc>Speed 3.9 km/h Distance 71.18 km</desc>
<time>2011-05-22T13:02:13.54</time>
<name>15646</name>
<sym>Dot</sym>
</trkpt>
<trkpt lat="39.680993" lon="-8.664762">
<ele>350.0</ele>
<desc>Speed 3.9 km/h Distance 71.18 km</desc>
<time>2011-05-22T13:02:14.54</time>
<name>15647</name>
<sym>Dot</sym>
</trkpt>
<trkpt lat="39.680992" lon="-8.664768">
<ele>352.0</ele>
<desc>Speed 1.6 km/h Distance 71.18 km</desc>
<time>2011-05-22T13:02:15.54</time>
<name>15648</name>
<sym>Dot</sym>
</trkpt>
<trkpt lat="39.680990" lon="-8.664777">
<ele>353.5</ele>
<desc>Speed 2.2 km/h Distance 71.18 km</desc>
<time>2011-05-22T13:02:16.54</time>
<name>15649</name>
<sym>Dot</sym>
</trkpt>
<trkpt lat="39.680987" lon="-8.664788">
<ele>354.5</ele>
<desc>Speed 3.3 km/h Distance 71.18 km</desc>
<time>2011-05-22T13:02:17.54</time>
<name>15650</name>
<sym>Dot</sym>
</trkpt>
<trkpt lat="39.680983" lon="-8.664797">
<ele>355.5</ele>
<desc>Speed 2.7 km/h Distance 71.18 km</desc>
<time>2011-05-22T13:02:18.54</time>
<name>15651</name>
<sym>Dot</sym>
</trkpt>
<trkpt lat="39.680978" lon="-8.664803">
<ele>357.0</ele>
<desc>Speed 2.3 km/h Distance 71.18 km</desc>
<time>2011-05-22T13:02:19.54</time>
<name>15652</name>
<sym>Dot</sym>
</trkpt>
<trkpt lat="39.680975" lon="-8.664812">
<ele>358.5</ele>
<desc>Speed 2.5 km/h Distance 71.18 km</desc>
<time>2011-05-22T13:02:20.54</time>
<name>15653</name>
<sym>Dot</sym>
</trkpt>
<trkpt lat="39.680972" lon="-8.664822">
<ele>359.5</ele>
<desc>Speed 3.2 km/h Distance 71.18 km</desc>
<time>2011-05-22T13:02:21.54</time>
<name>15654</name>
<sym>Dot</sym>
</trkpt>
<trkpt lat="39.680965" lon="-8.664833">
<ele>360.0</ele>
<desc>Speed 3.2 km/h Distance 71.18 km</desc>
<time>2011-05-22T13:02:22.54</time>
<name>15655</name>
<sym>Dot</sym>
</trkpt>
<trkpt lat="39.680963" lon="-8.664847">
<ele>360.5</ele>
<desc>Speed 3.1 km/h Distance 71.19 km</desc>
<time>2011-05-22T13:02:23.54</time>
<name>15656</name>
<sym>Dot</sym>
</trkpt>
<trkpt lat="39.680960" lon="-8.664858">
<ele>361.0</ele>
<desc>Speed 2.9 km/h Distance 71.19 km</desc>
<time>2011-05-22T13:02:24.54</time>
<name>15657</name>
<sym>Dot</sym>
</trkpt>
<trkpt lat="39.680957" lon="-8.664867">
<ele>362.0</ele>
<desc>Speed 2.2 km/h Distance 71.19 km</desc>
<time>2011-05-22T13:02:25.54</time>
<name>15658</name>
<sym>Dot</sym>
</trkpt>
<trkpt lat="39.680957" lon="-8.664878">
<ele>363.5</ele>
<desc>Speed 2.6 km/h Distance 71.19 km</desc>
<time>2011-05-22T13:02:26.54</time>
<name>15659</name>
<sym>Dot</sym>
</trkpt>
<trkpt lat="39.680957" lon="-8.664890">
<ele>365.0</ele>
<desc>Speed 2.6 km/h Distance 71.19 km</desc>
<time>2011-05-22T13:02:27.54</time>
<name>15660</name>
<sym>Dot</sym>
</trkpt>
<trkpt lat="39.680953" lon="-8.664903">
<ele>366.0</ele>
<desc>Speed 3.2 km/h Distance 71.19 km</desc>
<time>2011-05-22T13:02:28.54</time>
<name>15661</name>
<sym>Dot</sym>
</trkpt>
<trkpt lat="39.680950" lon="-8.664922">
<ele>366.5</ele>
<desc>Speed 4.6 km/h Distance 71.19 km</desc>
<time>2011-05-22T13:02:29.54</time>
<name>15662</name>
<sym>Dot</sym>
</trkpt>
<trkpt lat="39.680950" lon="-8.664935">
<ele>368.0</ele>
<desc>Speed 3.6 km/h Distance 71.19 km</desc>
<time>2011-05-22T13:02:30.54</time>
<name>15663</name>
<sym>Dot</sym>
</trkpt>
<trkpt lat="39.680950" lon="-8.664952">
<ele>369.5</ele>
<desc>Speed 4.0 km/h Distance 71.20 km</desc>
<time>2011-05-22T13:02:31.54</time>
<name>15664</name>
<sym>Dot</sym>
</trkpt>
<trkpt lat="39.680948" lon="-8.664967">
<ele>371.0</ele>
<desc>Speed 3.3 km/h Distance 71.20 km</desc>
<time>2011-05-22T13:02:32.54</time>
<name>15665</name>
<sym>Dot</sym>
</trkpt>
<trkpt lat="39.680947" lon="-8.664980">
<ele>372.5</ele>
<desc>Speed 3.5 km/h Distance 71.20 km</desc>
<time>2011-05-22T13:02:33.54</time>
<name>15666</name>
<sym>Dot</sym>
</trkpt>
<trkpt lat="39.680943" lon="-8.664993">
<ele>374.0</ele>
<desc>Speed 3.9 km/h Distance 71.20 km</desc>
<time>2011-05-22T13:02:34.54</time>
<name>15667</name>
<sym>Dot</sym>
</trkpt>
<trkpt lat="39.680937" lon="-8.665008">
<ele>375.0</ele>
<desc>Speed 4.9 km/h Distance 71.20 km</desc>
<time>2011-05-22T13:02:35.54</time>
<name>15668</name>
<sym>Dot</sym>
</trkpt>
<trkpt lat="39.680932" lon="-8.665028">
<ele>375.0</ele>
<desc>Speed 5.7 km/h Distance 71.20 km</desc>
<time>2011-05-22T13:02:36.54</time>
<name>15669</name>
<sym>Dot</sym>
</trkpt>
<trkpt lat="39.680923" lon="-8.665045">
<ele>375.5</ele>
<desc>Speed 4.9 km/h Distance 71.20 km</desc>
<time>2011-05-22T13:02:37.54</time>
<name>15670</name>
<sym>Dot</sym>
</trkpt>
<trkpt lat="39.680913" lon="-8.665065">
<ele>375.0</ele>
<desc>Speed 5.5 km/h Distance 71.21 km</desc>
<time>2011-05-22T13:02:38.54</time>
<name>15671</name>
<sym>Dot</sym>
</trkpt>
<trkpt lat="39.680910" lon="-8.665083">
<ele>376.0</ele>
<desc>Speed 5.0 km/h Distance 71.21 km</desc>
<time>2011-05-22T13:02:39.54</time>
<name>15672</name>
<sym>Dot</sym>
</trkpt>
<trkpt lat="39.680907" lon="-8.665100">
<ele>376.5</ele>
<desc>Speed 5.0 km/h Distance 71.21 km</desc>
<time>2011-05-22T13:02:40.54</time>
<name>15673</name>
<sym>Dot</sym>
</trkpt>
<trkpt lat="39.680902" lon="-8.665120">
<ele>377.0</ele>
<desc>Speed 5.2 km/h Distance 71.21 km</desc>
<time>2011-05-22T13:02:41.54</time>
<name>15674</name>
<sym>Dot</sym>
</trkpt>
<trkpt lat="39.680897" lon="-8.665142">
<ele>377.5</ele>
<desc>Speed 5.4 km/h Distance 71.21 km</desc>
<time>2011-05-22T13:02:42.54</time>
<name>15675</name>
<sym>Dot</sym>
</trkpt>
<trkpt lat="39.680893" lon="-8.665167">
<ele>377.5</ele>
<desc>Speed 5.4 km/h Distance 71.22 km</desc>
<time>2011-05-22T13:02:43.54</time>
<name>15676</name>
<sym>Dot</sym>
</trkpt>
<trkpt lat="39.680888" lon="-8.665183">
<ele>378.0</ele>
<desc>Speed 4.9 km/h Distance 71.22 km</desc>
<time>2011-05-22T13:02:44.54</time>
<name>15677</name>
<sym>Dot</sym>
</trkpt>
<trkpt lat="39.680885" lon="-8.665200">
<ele>378.5</ele>
<desc>Speed 5.3 km/h Distance 71.22 km</desc>
<time>2011-05-22T13:02:45.54</time>
<name>15678</name>
<sym>Dot</sym>
</trkpt>
<trkpt lat="39.680883" lon="-8.665217">
<ele>379.5</ele>
<desc>Speed 4.8 km/h Distance 71.22 km</desc>
<time>2011-05-22T13:02:46.54</time>
<name>15679</name>
<sym>Dot</sym>
</trkpt>
<trkpt lat="39.680880" lon="-8.665243">
<ele>380.0</ele>
<desc>Speed 5.4 km/h Distance 71.22 km</desc>
<time>2011-05-22T13:02:47.54</time>
<name>15680</name>
<sym>Dot</sym>
</trkpt>
<trkpt lat="39.680878" lon="-8.665270">
<ele>379.5</ele>
<desc>Speed 5.4 km/h Distance 71.22 km</desc>
<time>2011-05-22T13:02:48.54</time>
<name>15681</name>
<sym>Dot</sym>
</trkpt>
<trkpt lat="39.680875" lon="-8.665282">
<ele>381.0</ele>
<desc>Speed 3.1 km/h Distance 71.23 km</desc>
<time>2011-05-22T13:02:49.54</time>
<name>15682</name>
<sym>Dot</sym>
</trkpt>
<trkpt lat="39.680872" lon="-8.665295">
<ele>382.5</ele>
<desc>Speed 3.4 km/h Distance 71.23 km</desc>
<time>2011-05-22T13:02:50.54</time>
<name>15683</name>
<sym>Dot</sym>
</trkpt>
<trkpt lat="39.680870" lon="-8.665325">
<ele>382.0</ele>
<desc>Speed 4.8 km/h Distance 71.23 km</desc>
<time>2011-05-22T13:02:51.54</time>
<name>15684</name>
<sym>Dot</sym>
</trkpt>
<trkpt lat="39.680865" lon="-8.665347">
<ele>382.0</ele>
<desc>Speed 5.8 km/h Distance 71.23 km</desc>
<time>2011-05-22T13:02:52.54</time>
<name>15685</name>
<sym>Dot</sym>
</trkpt>
<trkpt lat="39.680862" lon="-8.665368">
<ele>381.5</ele>
<desc>Speed 5.7 km/h Distance 71.23 km</desc>
<time>2011-05-22T13:02:53.54</time>
<name>15686</name>
<sym>Dot</sym>
</trkpt>
<trkpt lat="39.680855" lon="-8.665388">
<ele>381.0</ele>
<desc>Speed 5.4 km/h Distance 71.23 km</desc>
<time>2011-05-22T13:02:54.54</time>
<name>15687</name>
<sym>Dot</sym>
</trkpt>
<trkpt lat="39.680853" lon="-8.665402">
<ele>381.5</ele>
<desc>Speed 3.4 km/h Distance 71.24 km</desc>
<time>2011-05-22T13:02:55.54</time>
<name>15688</name>
<sym>Dot</sym>
</trkpt>
<trkpt lat="39.680852" lon="-8.665422">
<ele>381.0</ele>
<desc>Speed 1.4 km/h Distance 71.24 km</desc>
<time>2011-05-22T13:02:56.54</time>
<name>15689</name>
<sym>Dot</sym>
</trkpt>
<trkpt lat="39.680845" lon="-8.665433">
<ele>380.5</ele>
<desc>Speed 2.4 km/h Distance 71.24 km</desc>
<time>2011-05-22T13:02:57.54</time>
<name>15690</name>
<sym>Dot</sym>
</trkpt>
<trkpt lat="39.680838" lon="-8.665445">
<ele>380.0</ele>
<desc>Speed 2.4 km/h Distance 71.24 km</desc>
<time>2011-05-22T13:02:58.54</time>
<name>15691</name>
<sym>Dot</sym>
</trkpt>
<trkpt lat="39.680832" lon="-8.665458">
<ele>379.5</ele>
<desc>Speed 2.3 km/h Distance 71.24 km</desc>
<time>2011-05-22T13:02:59.54</time>
<name>15692</name>
<sym>Dot</sym>
</trkpt>
<trkpt lat="39.680827" lon="-8.665467">
<ele>378.5</ele>
<desc>Speed 1.3 km/h Distance 71.24 km</desc>
<time>2011-05-22T13:03:00.54</time>
<name>15693</name>
<sym>Dot</sym>
</trkpt>
<trkpt lat="39.680813" lon="-8.665513">
<ele>372.0</ele>
<desc>Speed 1.5 km/h Distance 71.25 km</desc>
<time>2011-05-22T13:03:09.54</time>
<name>15694</name>
<sym>Dot</sym>
</trkpt>
<trkpt lat="39.680812" lon="-8.665523">
<ele>372.0</ele>
<desc>Speed 2.5 km/h Distance 71.25 km</desc>
<time>2011-05-22T13:03:10.54</time>
<name>15695</name>
<sym>Dot</sym>
</trkpt>
<trkpt lat="39.680808" lon="-8.665535">
<ele>371.5</ele>
<desc>Speed 2.7 km/h Distance 71.25 km</desc>
<time>2011-05-22T13:03:11.54</time>
<name>15696</name>
<sym>Dot</sym>
</trkpt>
<trkpt lat="39.680807" lon="-8.665547">
<ele>370.5</ele>
<desc>Speed 2.9 km/h Distance 71.25 km</desc>
<time>2011-05-22T13:03:12.54</time>
<name>15697</name>
<sym>Dot</sym>
</trkpt>
<trkpt lat="39.680810" lon="-8.665560">
<ele>371.0</ele>
<desc>Speed 3.7 km/h Distance 71.25 km</desc>
<time>2011-05-22T13:03:13.54</time>
<name>15698</name>
<sym>Dot</sym>
</trkpt>
<trkpt lat="39.680812" lon="-8.665578">
<ele>371.0</ele>
<desc>Speed 4.9 km/h Distance 71.25 km</desc>
<time>2011-05-22T13:03:14.54</time>
<name>15699</name>
<sym>Dot</sym>
</trkpt>
<trkpt lat="39.680815" lon="-8.665597">
<ele>370.5</ele>
<desc>Speed 4.9 km/h Distance 71.25 km</desc>
<time>2011-05-22T13:03:15.54</time>
<name>15700</name>
<sym>Dot</sym>
</trkpt>
<trkpt lat="39.680817" lon="-8.665612">
<ele>370.5</ele>
<desc>Speed 4.4 km/h Distance 71.26 km</desc>
<time>2011-05-22T13:03:16.54</time>
<name>15701</name>
<sym>Dot</sym>
</trkpt>
<trkpt lat="39.680822" lon="-8.665628">
<ele>370.0</ele>
<desc>Speed 5.1 km/h Distance 71.26 km</desc>
<time>2011-05-22T13:03:17.54</time>
<name>15702</name>
<sym>Dot</sym>
</trkpt>
<trkpt lat="39.680828" lon="-8.665647">
<ele>370.0</ele>
<desc>Speed 5.7 km/h Distance 71.26 km</desc>
<time>2011-05-22T13:03:18.54</time>
<name>15703</name>
<sym>Dot</sym>
</trkpt>
<trkpt lat="39.680835" lon="-8.665662">
<ele>370.0</ele>
<desc>Speed 5.3 km/h Distance 71.26 km</desc>
<time>2011-05-22T13:03:19.54</time>
<name>15704</name>
<sym>Dot</sym>
</trkpt>
<trkpt lat="39.680842" lon="-8.665677">
<ele>370.0</ele>
<desc>Speed 5.2 km/h Distance 71.26 km</desc>
<time>2011-05-22T13:03:20.54</time>
<name>15705</name>
<sym>Dot</sym>
</trkpt>
<trkpt lat="39.680850" lon="-8.665693">
<ele>370.0</ele>
<desc>Speed 5.5 km/h Distance 71.26 km</desc>
<time>2011-05-22T13:03:21.54</time>
<name>15706</name>
<sym>Dot</sym>
</trkpt>
<trkpt lat="39.680855" lon="-8.665712">
<ele>370.0</ele>
<desc>Speed 5.3 km/h Distance 71.26 km</desc>
<time>2011-05-22T13:03:22.54</time>
<name>15707</name>
<sym>Dot</sym>
</trkpt>
<trkpt lat="39.680863" lon="-8.665727">
<ele>370.0</ele>
<desc>Speed 5.0 km/h Distance 71.27 km</desc>
<time>2011-05-22T13:03:23.54</time>
<name>15708</name>
<sym>Dot</sym>
</trkpt>
<trkpt lat="39.680870" lon="-8.665737">
<ele>370.5</ele>
<desc>Speed 4.0 km/h Distance 71.27 km</desc>
<time>2011-05-22T13:03:24.54</time>
<name>15709</name>
<sym>Dot</sym>
</trkpt>
<trkpt lat="39.680878" lon="-8.665747">
<ele>371.5</ele>
<desc>Speed 4.0 km/h Distance 71.27 km</desc>
<time>2011-05-22T13:03:25.54</time>
<name>15710</name>
<sym>Dot</sym>
</trkpt>
<trkpt lat="39.680887" lon="-8.665753">
<ele>373.0</ele>
<desc>Speed 3.2 km/h Distance 71.27 km</desc>
<time>2011-05-22T13:03:26.54</time>
<name>15711</name>
<sym>Dot</sym>
</trkpt>
<trkpt lat="39.680897" lon="-8.665763">
<ele>374.0</ele>
<desc>Speed 3.8 km/h Distance 71.27 km</desc>
<time>2011-05-22T13:03:27.54</time>
<name>15712</name>
<sym>Dot</sym>
</trkpt>
<trkpt lat="39.680905" lon="-8.665767">
<ele>376.0</ele>
<desc>Speed 3.9 km/h Distance 71.27 km</desc>
<time>2011-05-22T13:03:28.54</time>
<name>15713</name>
<sym>Dot</sym>
</trkpt>
<trkpt lat="39.680917" lon="-8.665778">
<ele>377.5</ele>
<desc>Speed 4.4 km/h Distance 71.27 km</desc>
<time>2011-05-22T13:03:29.54</time>
<name>15714</name>
<sym>Dot</sym>
</trkpt>
<trkpt lat="39.680930" lon="-8.665805">
<ele>378.0</ele>
<desc>Speed 4.7 km/h Distance 71.28 km</desc>
<time>2011-05-22T13:03:30.54</time>
<name>15715</name>
<sym>Dot</sym>
</trkpt>
<trkpt lat="39.680942" lon="-8.665833">
<ele>377.5</ele>
<desc>Speed 4.5 km/h Distance 71.28 km</desc>
<time>2011-05-22T13:03:31.54</time>
<name>15716</name>
<sym>Dot</sym>
</trkpt>
<trkpt lat="39.680953" lon="-8.665847">
<ele>378.5</ele>
<desc>Speed 5.3 km/h Distance 71.28 km</desc>
<time>2011-05-22T13:03:32.54</time>
<name>15717</name>
<sym>Dot</sym>
</trkpt>
<trkpt lat="39.680962" lon="-8.665857">
<ele>379.5</ele>
<desc>Speed 4.1 km/h Distance 71.28 km</desc>
<time>2011-05-22T13:03:33.54</time>
<name>15718</name>
<sym>Dot</sym>
</trkpt>
<trkpt lat="39.680973" lon="-8.665868">
<ele>380.5</ele>
<desc>Speed 4.5 km/h Distance 71.28 km</desc>
<time>2011-05-22T13:03:34.54</time>
<name>15719</name>
<sym>Dot</sym>
</trkpt>
<trkpt lat="39.680985" lon="-8.665892">
<ele>381.0</ele>
<desc>Speed 4.9 km/h Distance 71.29 km</desc>
<time>2011-05-22T13:03:35.54</time>
<name>15720</name>
<sym>Dot</sym>
</trkpt>
<trkpt lat="39.680992" lon="-8.665898">
<ele>381.5</ele>
<desc>Speed 3.7 km/h Distance 71.29 km</desc>
<time>2011-05-22T13:03:36.54</time>
<name>15721</name>
<sym>Dot</sym>
</trkpt>
<trkpt lat="39.680997" lon="-8.665903">
<ele>382.5</ele>
<desc>Speed 3.1 km/h Distance 71.29 km</desc>
<time>2011-05-22T13:03:37.54</time>
<name>15722</name>
<sym>Dot</sym>
</trkpt>
<trkpt lat="39.681000" lon="-8.665912">
<ele>382.5</ele>
<desc>Speed 3.2 km/h Distance 71.29 km</desc>
<time>2011-05-22T13:03:38.54</time>
<name>15723</name>
<sym>Dot</sym>
</trkpt>
<trkpt lat="39.681012" lon="-8.665933">
<ele>382.5</ele>
<desc>Speed 4.4 km/h Distance 71.29 km</desc>
<time>2011-05-22T13:03:39.54</time>
<name>15724</name>
<sym>Dot</sym>
</trkpt>
<trkpt lat="39.681015" lon="-8.665948">
<ele>382.0</ele>
<desc>Speed 4.6 km/h Distance 71.29 km</desc>
<time>2011-05-22T13:03:40.54</time>
<name>15725</name>
<sym>Dot</sym>
</trkpt>
<trkpt lat="39.681025" lon="-8.665957">
<ele>382.5</ele>
<desc>Speed 4.5 km/h Distance 71.29 km</desc>
<time>2011-05-22T13:03:41.54</time>
<name>15726</name>
<sym>Dot</sym>
</trkpt>
<trkpt lat="39.681030" lon="-8.665972">
<ele>381.5</ele>
<desc>Speed 5.5 km/h Distance 71.30 km</desc>
<time>2011-05-22T13:03:42.54</time>
<name>15727</name>
<sym>Dot</sym>
</trkpt>
<trkpt lat="39.681035" lon="-8.665987">
<ele>380.5</ele>
<desc>Speed 5.4 km/h Distance 71.30 km</desc>
<time>2011-05-22T13:03:43.54</time>
<name>15728</name>
<sym>Dot</sym>
</trkpt>
<trkpt lat="39.681040" lon="-8.666000">
<ele>380.0</ele>
<desc>Speed 5.0 km/h Distance 71.30 km</desc>
<time>2011-05-22T13:03:44.54</time>
<name>15729</name>
<sym>Dot</sym>
</trkpt>
<trkpt lat="39.681045" lon="-8.666013">
<ele>379.5</ele>
<desc>Speed 5.0 km/h Distance 71.30 km</desc>
<time>2011-05-22T13:03:45.54</time>
<name>15730</name>
<sym>Dot</sym>
</trkpt>
<trkpt lat="39.681052" lon="-8.666022">
<ele>380.0</ele>
<desc>Speed 3.6 km/h Distance 71.30 km</desc>
<time>2011-05-22T13:03:46.54</time>
<name>15731</name>
<sym>Dot</sym>
</trkpt>
<trkpt lat="39.681055" lon="-8.666033">
<ele>379.0</ele>
<desc>Speed 3.7 km/h Distance 71.30 km</desc>
<time>2011-05-22T13:03:47.54</time>
<name>15732</name>
<sym>Dot</sym>
</trkpt>
<trkpt lat="39.681062" lon="-8.666047">
<ele>378.5</ele>
<desc>Speed 4.9 km/h Distance 71.30 km</desc>
<time>2011-05-22T13:03:48.54</time>
<name>15733</name>
<sym>Dot</sym>
</trkpt>
<trkpt lat="39.681068" lon="-8.666058">
<ele>379.0</ele>
<desc>Speed 4.6 km/h Distance 71.30 km</desc>
<time>2011-05-22T13:03:49.54</time>
<name>15734</name>
<sym>Dot</sym>
</trkpt>
<trkpt lat="39.681075" lon="-8.666065">
<ele>380.0</ele>
<desc>Speed 3.7 km/h Distance 71.30 km</desc>
<time>2011-05-22T13:03:50.54</time>
<name>15735</name>
<sym>Dot</sym>
</trkpt>
<trkpt lat="39.681082" lon="-8.666075">
<ele>380.5</ele>
<desc>Speed 3.7 km/h Distance 71.31 km</desc>
<time>2011-05-22T13:03:51.54</time>
<name>15736</name>
<sym>Dot</sym>
</trkpt>
<trkpt lat="39.681083" lon="-8.666087">
<ele>380.5</ele>
<desc>Speed 3.5 km/h Distance 71.31 km</desc>
<time>2011-05-22T13:03:52.54</time>
<name>15737</name>
<sym>Dot</sym>
</trkpt>
<trkpt lat="39.681088" lon="-8.666102">
<ele>380.5</ele>
<desc>Speed 3.7 km/h Distance 71.31 km</desc>
<time>2011-05-22T13:03:53.54</time>
<name>15738</name>
<sym>Dot</sym>
</trkpt>
<trkpt lat="39.681095" lon="-8.666117">
<ele>381.0</ele>
<desc>Speed 4.5 km/h Distance 71.31 km</desc>
<time>2011-05-22T13:03:54.54</time>
<name>15739</name>
<sym>Dot</sym>
</trkpt>
<trkpt lat="39.681103" lon="-8.666132">
<ele>381.5</ele>
<desc>Speed 4.8 km/h Distance 71.31 km</desc>
<time>2011-05-22T13:03:55.54</time>
<name>15740</name>
<sym>Dot</sym>
</trkpt>
<trkpt lat="39.681108" lon="-8.666140">
<ele>382.0</ele>
<desc>Speed 2.5 km/h Distance 71.31 km</desc>
<time>2011-05-22T13:03:56.54</time>
<name>15741</name>
<sym>Dot</sym>
</trkpt>
<trkpt lat="39.681112" lon="-8.666150">
<ele>383.5</ele>
<desc>Speed 1.2 km/h Distance 71.31 km</desc>
<time>2011-05-22T13:03:57.54</time>
<name>15742</name>
<sym>Dot</sym>
</trkpt>
<trkpt lat="39.681115" lon="-8.666160">
<ele>384.5</ele>
<desc>Speed 1.8 km/h Distance 71.31 km</desc>
<time>2011-05-22T13:03:58.54</time>
<name>15743</name>
<sym>Dot</sym>
</trkpt>
<trkpt lat="39.681123" lon="-8.666183">
<ele>384.0</ele>
<desc>Speed 3.3 km/h Distance 71.32 km</desc>
<time>2011-05-22T13:03:59.54</time>
<name>15744</name>
<sym>Dot</sym>
</trkpt>
<trkpt lat="39.681128" lon="-8.666195">
<ele>384.5</ele>
<desc>Speed 3.6 km/h Distance 71.32 km</desc>
<time>2011-05-22T13:04:00.54</time>
<name>15745</name>
<sym>Dot</sym>
</trkpt>
<trkpt lat="39.681138" lon="-8.666220">
<ele>387.0</ele>
<desc>Speed 4.1 km/h Distance 71.32 km</desc>
<time>2011-05-22T13:04:03.54</time>
<name>15746</name>
<sym>Dot</sym>
</trkpt>
<trkpt lat="39.681147" lon="-8.666243">
<ele>388.0</ele>
<desc>Speed 6.8 km/h Distance 71.32 km</desc>
<time>2011-05-22T13:04:04.54</time>
<name>15747</name>
<sym>Dot</sym>
</trkpt>
<trkpt lat="39.681155" lon="-8.666272">
<ele>389.5</ele>
<desc>Speed 7.7 km/h Distance 71.32 km</desc>
<time>2011-05-22T13:04:05.54</time>
<name>15748</name>
<sym>Dot</sym>
</trkpt>
<trkpt lat="39.681160" lon="-8.666293">
<ele>389.5</ele>
<desc>Speed 5.7 km/h Distance 71.33 km</desc>
<time>2011-05-22T13:04:06.54</time>
<name>15749</name>
<sym>Dot</sym>
</trkpt>
<trkpt lat="39.681158" lon="-8.666305">
<ele>389.0</ele>
<desc>Speed 2.0 km/h Distance 71.33 km</desc>
<time>2011-05-22T13:04:07.54</time>
<name>15750</name>
<sym>Dot</sym>
</trkpt>
<trkpt lat="39.681162" lon="-8.666375">
<ele>390.5</ele>
<desc>Speed 9.4 km/h Distance 71.33 km</desc>
<time>2011-05-22T13:04:09.54</time>
<name>15751</name>
<sym>Dot</sym>
</trkpt>
<trkpt lat="39.681153" lon="-8.666415">
<ele>390.5</ele>
<desc>Speed 10.4 km/h Distance 71.34 km</desc>
<time>2011-05-22T13:04:10.54</time>
<name>15752</name>
<sym>Dot</sym>
</trkpt>
<trkpt lat="39.681145" lon="-8.666452">
<ele>390.5</ele>
<desc>Speed 9.1 km/h Distance 71.34 km</desc>
<time>2011-05-22T13:04:11.54</time>
<name>15753</name>
<sym>Dot</sym>
</trkpt>
<trkpt lat="39.681138" lon="-8.666485">
<ele>390.5</ele>
<desc>Speed 7.4 km/h Distance 71.34 km</desc>
<time>2011-05-22T13:04:12.54</time>
<name>15754</name>
<sym>Dot</sym>
</trkpt>
<trkpt lat="39.681130" lon="-8.666508">
<ele>391.5</ele>
<desc>Speed 6.6 km/h Distance 71.35 km</desc>
<time>2011-05-22T13:04:13.54</time>
<name>15755</name>
<sym>Dot</sym>
</trkpt>
<trkpt lat="39.681118" lon="-8.666525">
<ele>392.0</ele>
<desc>Speed 5.3 km/h Distance 71.35 km</desc>
<time>2011-05-22T13:04:14.54</time>
<name>15756</name>
<sym>Dot</sym>
</trkpt>
<trkpt lat="39.681110" lon="-8.666543">
<ele>393.5</ele>
<desc>Speed 4.8 km/h Distance 71.35 km</desc>
<time>2011-05-22T13:04:15.54</time>
<name>15757</name>
<sym>Dot</sym>
</trkpt>
<trkpt lat="39.681107" lon="-8.666558">
<ele>394.5</ele>
<desc>Speed 3.4 km/h Distance 71.35 km</desc>
<time>2011-05-22T13:04:16.54</time>
<name>15758</name>
<sym>Dot</sym>
</trkpt>
<trkpt lat="39.681108" lon="-8.666570">
<ele>395.5</ele>
<desc>Speed 2.1 km/h Distance 71.35 km</desc>
<time>2011-05-22T13:04:17.54</time>
<name>15759</name>
<sym>Dot</sym>
</trkpt>
<trkpt lat="39.681115" lon="-8.666580">
<ele>396.5</ele>
<desc>Speed 2.7 km/h Distance 71.35 km</desc>
<time>2011-05-22T13:04:18.54</time>
<name>15760</name>
<sym>Dot</sym>
</trkpt>
<trkpt lat="39.681120" lon="-8.666593">
<ele>398.0</ele>
<desc>Speed 2.7 km/h Distance 71.35 km</desc>
<time>2011-05-22T13:04:19.54</time>
<name>15761</name>
<sym>Dot</sym>
</trkpt>
<trkpt lat="39.681118" lon="-8.666607">
<ele>398.5</ele>
<desc>Speed 2.2 km/h Distance 71.36 km</desc>
<time>2011-05-22T13:04:20.54</time>
<name>15762</name>
<sym>Dot</sym>
</trkpt>
<trkpt lat="39.681113" lon="-8.666618">
<ele>399.5</ele>
<desc>Speed 1.7 km/h Distance 71.36 km</desc>
<time>2011-05-22T13:04:23.54</time>
<name>15763</name>
<sym>Dot</sym>
</trkpt>
<trkpt lat="39.681110" lon="-8.666628">
<ele>399.5</ele>
<desc>Speed 1.5 km/h Distance 71.36 km</desc>
<time>2011-05-22T13:04:24.54</time>
<name>15764</name>
<sym>Dot</sym>
</trkpt>
<trkpt lat="39.681107" lon="-8.666705">
<ele>387.5</ele>
<desc>Speed 1.2 km/h Distance 71.36 km</desc>
<time>2011-05-22T13:04:36.54</time>
<name>15765</name>
<sym>Dot</sym>
</trkpt>
<trkpt lat="39.681098" lon="-8.666750">
<ele>381.5</ele>
<desc>Speed 1.2 km/h Distance 71.37 km</desc>
<time>2011-05-22T13:04:40.54</time>
<name>15766</name>
<sym>Dot</sym>
</trkpt>
<trkpt lat="39.681113" lon="-8.667173">
<ele>343.0</ele>
<desc>Speed 1.1 km/h Distance 71.40 km</desc>
<time>2011-05-22T13:11:02.54</time>
<name>15767</name>
<sym>Dot</sym>
</trkpt>
<trkpt lat="39.681117" lon="-8.667195">
<ele>341.0</ele>
<desc>Speed 1.3 km/h Distance 71.41 km</desc>
<time>2011-05-22T13:11:13.54</time>
<name>15768</name>
<sym>Dot</sym>
</trkpt>
<trkpt lat="39.681112" lon="-8.667203">
<ele>342.0</ele>
<desc>Speed 1.4 km/h Distance 71.41 km</desc>
<time>2011-05-22T13:11:16.54</time>
<name>15769</name>
<sym>Dot</sym>
</trkpt>
<trkpt lat="39.681113" lon="-8.667212">
<ele>343.0</ele>
<desc>Speed 2.2 km/h Distance 71.41 km</desc>
<time>2011-05-22T13:11:26.54</time>
<name>15770</name>
<sym>Dot</sym>
</trkpt>
<trkpt lat="39.681102" lon="-8.667220">
<ele>343.5</ele>
<desc>Speed 5.3 km/h Distance 71.41 km</desc>
<time>2011-05-22T13:11:27.54</time>
<name>15771</name>
<sym>Dot</sym>
</trkpt>
<trkpt lat="39.681088" lon="-8.667233">
<ele>344.5</ele>
<desc>Speed 6.8 km/h Distance 71.41 km</desc>
<time>2011-05-22T13:11:28.54</time>
<name>15772</name>
<sym>Dot</sym>
</trkpt>
<trkpt lat="39.681073" lon="-8.667247">
<ele>345.0</ele>
<desc>Speed 6.8 km/h Distance 71.41 km</desc>
<time>2011-05-22T13:11:29.54</time>
<name>15773</name>
<sym>Dot</sym>
</trkpt>
<trkpt lat="39.681058" lon="-8.667258">
<ele>346.0</ele>
<desc>Speed 7.4 km/h Distance 71.42 km</desc>
<time>2011-05-22T13:11:30.54</time>
<name>15774</name>
<sym>Dot</sym>
</trkpt>
<trkpt lat="39.681040" lon="-8.667273">
<ele>346.5</ele>
<desc>Speed 8.5 km/h Distance 71.42 km</desc>
<time>2011-05-22T13:11:31.54</time>
<name>15775</name>
<sym>Dot</sym>
</trkpt>
<trkpt lat="39.681022" lon="-8.667288">
<ele>346.5</ele>
<desc>Speed 8.9 km/h Distance 71.42 km</desc>
<time>2011-05-22T13:11:32.54</time>
<name>15776</name>
<sym>Dot</sym>
</trkpt>
<trkpt lat="39.681003" lon="-8.667305">
<ele>347.0</ele>
<desc>Speed 9.0 km/h Distance 71.42 km</desc>
<time>2011-05-22T13:11:33.54</time>
<name>15777</name>
<sym>Dot</sym>
</trkpt>
<trkpt lat="39.680985" lon="-8.667322">
<ele>348.0</ele>
<desc>Speed 9.0 km/h Distance 71.42 km</desc>
<time>2011-05-22T13:11:34.54</time>
<name>15778</name>
<sym>Dot</sym>
</trkpt>
<trkpt lat="39.680965" lon="-8.667335">
<ele>348.5</ele>
<desc>Speed 9.0 km/h Distance 71.43 km</desc>
<time>2011-05-22T13:11:35.54</time>
<name>15779</name>
<sym>Dot</sym>
</trkpt>
<trkpt lat="39.680943" lon="-8.667350">
<ele>349.0</ele>
<desc>Speed 10.2 km/h Distance 71.43 km</desc>
<time>2011-05-22T13:11:36.54</time>
<name>15780</name>
<sym>Dot</sym>
</trkpt>
<trkpt lat="39.680920" lon="-8.667367">
<ele>349.0</ele>
<desc>Speed 10.5 km/h Distance 71.43 km</desc>
<time>2011-05-22T13:11:37.54</time>
<name>15781</name>
<sym>Dot</sym>
</trkpt>
<trkpt lat="39.680898" lon="-8.667385">
<ele>350.0</ele>
<desc>Speed 10.4 km/h Distance 71.44 km</desc>
<time>2011-05-22T13:11:38.54</time>
<name>15782</name>
<sym>Dot</sym>
</trkpt>
<trkpt lat="39.680875" lon="-8.667402">
<ele>350.0</ele>
<desc>Speed 10.2 km/h Distance 71.44 km</desc>
<time>2011-05-22T13:11:39.54</time>
<name>15783</name>
<sym>Dot</sym>
</trkpt>
<trkpt lat="39.680850" lon="-8.667415">
<ele>349.5</ele>
<desc>Speed 10.6 km/h Distance 71.44 km</desc>
<time>2011-05-22T13:11:40.54</time>
<name>15784</name>
<sym>Dot</sym>
</trkpt>
<trkpt lat="39.680827" lon="-8.667427">
<ele>349.5</ele>
<desc>Speed 10.0 km/h Distance 71.44 km</desc>
<time>2011-05-22T13:11:41.54</time>
<name>15785</name>
<sym>Dot</sym>
</trkpt>
<trkpt lat="39.680807" lon="-8.667437">
<ele>349.5</ele>
<desc>Speed 8.4 km/h Distance 71.45 km</desc>
<time>2011-05-22T13:11:42.54</time>
<name>15786</name>
<sym>Dot</sym>
</trkpt>
<trkpt lat="39.680790" lon="-8.667445">
<ele>349.5</ele>
<desc>Speed 7.2 km/h Distance 71.45 km</desc>
<time>2011-05-22T13:11:43.54</time>
<name>15787</name>
<sym>Dot</sym>
</trkpt>
<trkpt lat="39.680777" lon="-8.667455">
<ele>349.5</ele>
<desc>Speed 6.3 km/h Distance 71.45 km</desc>
<time>2011-05-22T13:11:44.54</time>
<name>15788</name>
<sym>Dot</sym>
</trkpt>
<trkpt lat="39.680762" lon="-8.667468">
<ele>349.5</ele>
<desc>Speed 6.7 km/h Distance 71.45 km</desc>
<time>2011-05-22T13:11:45.54</time>
<name>15789</name>
<sym>Dot</sym>
</trkpt>
<trkpt lat="39.680752" lon="-8.667477">
<ele>350.5</ele>
<desc>Speed 4.9 km/h Distance 71.45 km</desc>
<time>2011-05-22T13:11:46.54</time>
<name>15790</name>
<sym>Dot</sym>
</trkpt>
<trkpt lat="39.680737" lon="-8.667480">
<ele>351.0</ele>
<desc>Speed 6.3 km/h Distance 71.46 km</desc>
<time>2011-05-22T13:11:47.54</time>
<name>15791</name>
<sym>Dot</sym>
</trkpt>
<trkpt lat="39.680725" lon="-8.667472">
<ele>350.5</ele>
<desc>Speed 5.7 km/h Distance 71.46 km</desc>
<time>2011-05-22T13:11:48.54</time>
<name>15792</name>
<sym>Dot</sym>
</trkpt>
<trkpt lat="39.680715" lon="-8.667467">
<ele>350.5</ele>
<desc>Speed 4.5 km/h Distance 71.46 km</desc>
<time>2011-05-22T13:11:49.54</time>
<name>15793</name>
<sym>Dot</sym>
</trkpt>
<trkpt lat="39.680707" lon="-8.667470">
<ele>350.5</ele>
<desc>Speed 3.6 km/h Distance 71.46 km</desc>
<time>2011-05-22T13:11:50.54</time>
<name>15794</name>
<sym>Dot</sym>
</trkpt>
<trkpt lat="39.680702" lon="-8.667477">
<ele>351.0</ele>
<desc>Speed 2.5 km/h Distance 71.46 km</desc>
<time>2011-05-22T13:11:51.54</time>
<name>15795</name>
<sym>Dot</sym>
</trkpt>
<trkpt lat="39.680698" lon="-8.667483">
<ele>350.5</ele>
<desc>Speed 1.4 km/h Distance 71.46 km</desc>
<time>2011-05-22T13:11:52.54</time>
<name>15796</name>
<sym>Dot</sym>
</trkpt>
<trkpt lat="39.680693" lon="-8.667493">
<ele>347.0</ele>
<desc>Speed 1.2 km/h Distance 71.46 km</desc>
<time>2011-05-22T13:12:13.54</time>
<name>15797</name>
<sym>Dot</sym>
</trkpt>
<trkpt lat="39.680690" lon="-8.667493">
<ele>347.0</ele>
<desc>Speed 1.7 km/h Distance 71.46 km</desc>
<time>2011-05-22T13:12:14.54</time>
<name>15798</name>
<sym>Dot</sym>
</trkpt>
<trkpt lat="39.680683" lon="-8.667493">
<ele>346.5</ele>
<desc>Speed 1.4 km/h Distance 71.46 km</desc>
<time>2011-05-22T13:12:16.54</time>
<name>15799</name>
<sym>Dot</sym>
</trkpt>
<trkpt lat="39.680677" lon="-8.667498">
<ele>347.5</ele>
<desc>Speed 1.8 km/h Distance 71.46 km</desc>
<time>2011-05-22T13:12:24.54</time>
<name>15800</name>
<sym>Dot</sym>
</trkpt>
<trkpt lat="39.680677" lon="-8.667508">
<ele>349.0</ele>
<desc>Speed 3.0 km/h Distance 71.46 km</desc>
<time>2011-05-22T13:12:25.54</time>
<name>15801</name>
<sym>Dot</sym>
</trkpt>
<trkpt lat="39.680675" lon="-8.667515">
<ele>351.0</ele>
<desc>Speed 2.4 km/h Distance 71.47 km</desc>
<time>2011-05-22T13:12:26.54</time>
<name>15802</name>
<sym>Dot</sym>
</trkpt>
<trkpt lat="39.680672" lon="-8.667525">
<ele>352.5</ele>
<desc>Speed 3.2 km/h Distance 71.47 km</desc>
<time>2011-05-22T13:12:27.54</time>
<name>15803</name>
<sym>Dot</sym>
</trkpt>
<trkpt lat="39.680665" lon="-8.667540">
<ele>354.0</ele>
<desc>Speed 5.1 km/h Distance 71.47 km</desc>
<time>2011-05-22T13:12:28.54</time>
<name>15804</name>
<sym>Dot</sym>
</trkpt>
<trkpt lat="39.680657" lon="-8.667550">
<ele>355.0</ele>
<desc>Speed 4.4 km/h Distance 71.47 km</desc>
<time>2011-05-22T13:12:29.54</time>
<name>15805</name>
<sym>Dot</sym>
</trkpt>
<trkpt lat="39.680648" lon="-8.667558">
<ele>355.5</ele>
<desc>Speed 4.5 km/h Distance 71.47 km</desc>
<time>2011-05-22T13:12:30.54</time>
<name>15806</name>
<sym>Dot</sym>
</trkpt>
<trkpt lat="39.680637" lon="-8.667563">
<ele>355.5</ele>
<desc>Speed 4.1 km/h Distance 71.47 km</desc>
<time>2011-05-22T13:12:31.54</time>
<name>15807</name>
<sym>Dot</sym>
</trkpt>
<trkpt lat="39.680635" lon="-8.667572">
<ele>355.5</ele>
<desc>Speed 2.3 km/h Distance 71.47 km</desc>
<time>2011-05-22T13:12:32.54</time>
<name>15808</name>
<sym>Dot</sym>
</trkpt>
<trkpt lat="39.680632" lon="-8.667577">
<ele>354.0</ele>
<desc>Speed 1.4 km/h Distance 71.47 km</desc>
<time>2011-05-22T13:12:44.54</time>
<name>15809</name>
<sym>Dot</sym>
</trkpt>
<trkpt lat="39.680625" lon="-8.667588">
<ele>354.0</ele>
<desc>Speed 4.1 km/h Distance 71.47 km</desc>
<time>2011-05-22T13:12:45.54</time>
<name>15810</name>
<sym>Dot</sym>
</trkpt>
<trkpt lat="39.680615" lon="-8.667605">
<ele>354.0</ele>
<desc>Speed 5.9 km/h Distance 71.48 km</desc>
<time>2011-05-22T13:12:46.54</time>
<name>15811</name>
<sym>Dot</sym>
</trkpt>
<trkpt lat="39.680597" lon="-8.667618">
<ele>354.5</ele>
<desc>Speed 8.0 km/h Distance 71.48 km</desc>
<time>2011-05-22T13:12:47.54</time>
<name>15812</name>
<sym>Dot</sym>
</trkpt>
<trkpt lat="39.680575" lon="-8.667635">
<ele>354.5</ele>
<desc>Speed 9.5 km/h Distance 71.48 km</desc>
<time>2011-05-22T13:12:48.54</time>
<name>15813</name>
<sym>Dot</sym>
</trkpt>
<trkpt lat="39.680553" lon="-8.667657">
<ele>353.5</ele>
<desc>Speed 10.4 km/h Distance 71.48 km</desc>
<time>2011-05-22T13:12:49.54</time>
<name>15814</name>
<sym>Dot</sym>
</trkpt>
<trkpt lat="39.680528" lon="-8.667682">
<ele>352.0</ele>
<desc>Speed 11.6 km/h Distance 71.49 km</desc>
<time>2011-05-22T13:12:50.54</time>
<name>15815</name>
<sym>Dot</sym>
</trkpt>
<trkpt lat="39.680500" lon="-8.667707">
<ele>352.0</ele>
<desc>Speed 12.9 km/h Distance 71.49 km</desc>
<time>2011-05-22T13:12:51.54</time>
<name>15816</name>
<sym>Dot</sym>
</trkpt>
<trkpt lat="39.680470" lon="-8.667733">
<ele>352.0</ele>
<desc>Speed 13.8 km/h Distance 71.50 km</desc>
<time>2011-05-22T13:12:52.54</time>
<name>15817</name>
<sym>Dot</sym>
</trkpt>
<trkpt lat="39.680437" lon="-8.667760">
<ele>352.0</ele>
<desc>Speed 15.1 km/h Distance 71.50 km</desc>
<time>2011-05-22T13:12:53.54</time>
<name>15818</name>
<sym>Dot</sym>
</trkpt>
<trkpt lat="39.680402" lon="-8.667792">
<ele>352.0</ele>
<desc>Speed 15.7 km/h Distance 71.50 km</desc>
<time>2011-05-22T13:12:54.54</time>
<name>15819</name>
<sym>Dot</sym>
</trkpt>
<trkpt lat="39.680368" lon="-8.667825">
<ele>352.0</ele>
<desc>Speed 16.7 km/h Distance 71.51 km</desc>
<time>2011-05-22T13:12:55.54</time>
<name>15820</name>
<sym>Dot</sym>
</trkpt>
<trkpt lat="39.680333" lon="-8.667863">
<ele>351.5</ele>
<desc>Speed 17.6 km/h Distance 71.51 km</desc>
<time>2011-05-22T13:12:56.54</time>
<name>15821</name>
<sym>Dot</sym>
</trkpt>
<trkpt lat="39.680302" lon="-8.667907">
<ele>352.5</ele>
<desc>Speed 17.7 km/h Distance 71.52 km</desc>
<time>2011-05-22T13:12:57.54</time>
<name>15822</name>
<sym>Dot</sym>
</trkpt>
<trkpt lat="39.680263" lon="-8.667952">
<ele>352.5</ele>
<desc>Speed 19.9 km/h Distance 71.53 km</desc>
<time>2011-05-22T13:12:58.54</time>
<name>15823</name>
<sym>Dot</sym>
</trkpt>
<trkpt lat="39.680225" lon="-8.668002">
<ele>352.0</ele>
<desc>Speed 21.0 km/h Distance 71.53 km</desc>
<time>2011-05-22T13:12:59.54</time>
<name>15824</name>
<sym>Dot</sym>
</trkpt>
<trkpt lat="39.680187" lon="-8.668055">
<ele>351.5</ele>
<desc>Speed 22.1 km/h Distance 71.54 km</desc>
<time>2011-05-22T13:13:00.54</time>
<name>15825</name>
<sym>Dot</sym>
</trkpt>
<trkpt lat="39.680148" lon="-8.668112">
<ele>351.0</ele>
<desc>Speed 22.9 km/h Distance 71.54 km</desc>
<time>2011-05-22T13:13:01.54</time>
<name>15826</name>
<sym>Dot</sym>
</trkpt>
<trkpt lat="39.680108" lon="-8.668172">
<ele>350.5</ele>
<desc>Speed 23.8 km/h Distance 71.55 km</desc>
<time>2011-05-22T13:13:02.54</time>
<name>15827</name>
<sym>Dot</sym>
</trkpt>
<trkpt lat="39.680070" lon="-8.668237">
<ele>350.5</ele>
<desc>Speed 24.7 km/h Distance 71.56 km</desc>
<time>2011-05-22T13:13:03.54</time>
<name>15828</name>
<sym>Dot</sym>
</trkpt>
<trkpt lat="39.680030" lon="-8.668305">
<ele>350.0</ele>
<desc>Speed 25.5 km/h Distance 71.57 km</desc>
<time>2011-05-22T13:13:04.54</time>
<name>15829</name>
<sym>Dot</sym>
</trkpt>
<trkpt lat="39.679990" lon="-8.668373">
<ele>349.5</ele>
<desc>Speed 26.2 km/h Distance 71.57 km</desc>
<time>2011-05-22T13:13:05.54</time>
<name>15830</name>
<sym>Dot</sym>
</trkpt>
<trkpt lat="39.679952" lon="-8.668447">
<ele>349.0</ele>
<desc>Speed 26.7 km/h Distance 71.58 km</desc>
<time>2011-05-22T13:13:06.54</time>
<name>15831</name>
<sym>Dot</sym>
</trkpt>
<trkpt lat="39.679915" lon="-8.668523">
<ele>348.5</ele>
<desc>Speed 27.5 km/h Distance 71.59 km</desc>
<time>2011-05-22T13:13:07.54</time>
<name>15832</name>
<sym>Dot</sym>
</trkpt>
<trkpt lat="39.679878" lon="-8.668600">
<ele>348.0</ele>
<desc>Speed 28.1 km/h Distance 71.60 km</desc>
<time>2011-05-22T13:13:08.54</time>
<name>15833</name>
<sym>Dot</sym>
</trkpt>
<trkpt lat="39.679840" lon="-8.668680">
<ele>347.5</ele>
<desc>Speed 28.7 km/h Distance 71.60 km</desc>
<time>2011-05-22T13:13:09.54</time>
<name>15834</name>
<sym>Dot</sym>
</trkpt>
<trkpt lat="39.679802" lon="-8.668762">
<ele>347.0</ele>
<desc>Speed 29.2 km/h Distance 71.61 km</desc>
<time>2011-05-22T13:13:10.54</time>
<name>15835</name>
<sym>Dot</sym>
</trkpt>
<trkpt lat="39.679762" lon="-8.668843">
<ele>347.0</ele>
<desc>Speed 29.4 km/h Distance 71.62 km</desc>
<time>2011-05-22T13:13:11.54</time>
<name>15836</name>
<sym>Dot</sym>
</trkpt>
<trkpt lat="39.679723" lon="-8.668927">
<ele>346.0</ele>
<desc>Speed 29.2 km/h Distance 71.63 km</desc>
<time>2011-05-22T13:13:12.54</time>
<name>15837</name>
<sym>Dot</sym>
</trkpt>
<trkpt lat="39.679682" lon="-8.669005">
<ele>345.5</ele>
<desc>Speed 29.1 km/h Distance 71.64 km</desc>
<time>2011-05-22T13:13:13.54</time>
<name>15838</name>
<sym>Dot</sym>
</trkpt>
<trkpt lat="39.679640" lon="-8.669087">
<ele>345.0</ele>
<desc>Speed 29.3 km/h Distance 71.65 km</desc>
<time>2011-05-22T13:13:14.54</time>
<name>15839</name>
<sym>Dot</sym>
</trkpt>
<trkpt lat="39.679602" lon="-8.669168">
<ele>345.0</ele>
<desc>Speed 29.3 km/h Distance 71.65 km</desc>
<time>2011-05-22T13:13:15.54</time>
<name>15840</name>
<sym>Dot</sym>
</trkpt>
<trkpt lat="39.679562" lon="-8.669247">
<ele>344.5</ele>
<desc>Speed 28.8 km/h Distance 71.66 km</desc>
<time>2011-05-22T13:13:16.54</time>
<name>15841</name>
<sym>Dot</sym>
</trkpt>
<trkpt lat="39.679522" lon="-8.669323">
<ele>344.5</ele>
<desc>Speed 28.2 km/h Distance 71.67 km</desc>
<time>2011-05-22T13:13:17.54</time>
<name>15842</name>
<sym>Dot</sym>
</trkpt>
<trkpt lat="39.679485" lon="-8.669400">
<ele>344.5</ele>
<desc>Speed 27.5 km/h Distance 71.68 km</desc>
<time>2011-05-22T13:13:18.54</time>
<name>15843</name>
<sym>Dot</sym>
</trkpt>
<trkpt lat="39.679448" lon="-8.669473">
<ele>344.5</ele>
<desc>Speed 26.8 km/h Distance 71.68 km</desc>
<time>2011-05-22T13:13:19.54</time>
<name>15844</name>
<sym>Dot</sym>
</trkpt>
<trkpt lat="39.679413" lon="-8.669547">
<ele>344.0</ele>
<desc>Speed 26.1 km/h Distance 71.69 km</desc>
<time>2011-05-22T13:13:20.54</time>
<name>15845</name>
<sym>Dot</sym>
</trkpt>
<trkpt lat="39.679382" lon="-8.669620">
<ele>343.5</ele>
<desc>Speed 25.7 km/h Distance 71.70 km</desc>
<time>2011-05-22T13:13:21.54</time>
<name>15846</name>
<sym>Dot</sym>
</trkpt>
<trkpt lat="39.679348" lon="-8.669695">
<ele>343.0</ele>
<desc>Speed 25.5 km/h Distance 71.71 km</desc>
<time>2011-05-22T13:13:22.54</time>
<name>15847</name>
<sym>Dot</sym>
</trkpt>
<trkpt lat="39.679317" lon="-8.669763">
<ele>343.0</ele>
<desc>Speed 24.3 km/h Distance 71.71 km</desc>
<time>2011-05-22T13:13:23.54</time>
<name>15848</name>
<sym>Dot</sym>
</trkpt>
<trkpt lat="39.679287" lon="-8.669828">
<ele>343.0</ele>
<desc>Speed 23.1 km/h Distance 71.72 km</desc>
<time>2011-05-22T13:13:24.54</time>
<name>15849</name>
<sym>Dot</sym>
</trkpt>
<trkpt lat="39.679252" lon="-8.669890">
<ele>341.5</ele>
<desc>Speed 22.4 km/h Distance 71.73 km</desc>
<time>2011-05-22T13:13:25.54</time>
<name>15850</name>
<sym>Dot</sym>
</trkpt>
<trkpt lat="39.679222" lon="-8.669957">
<ele>340.5</ele>
<desc>Speed 22.8 km/h Distance 71.73 km</desc>
<time>2011-05-22T13:13:26.54</time>
<name>15851</name>
<sym>Dot</sym>
</trkpt>
<trkpt lat="39.679192" lon="-8.670018">
<ele>341.0</ele>
<desc>Speed 22.8 km/h Distance 71.74 km</desc>
<time>2011-05-22T13:13:27.54</time>
<name>15852</name>
<sym>Dot</sym>
</trkpt>
<trkpt lat="39.679162" lon="-8.670080">
<ele>341.0</ele>
<desc>Speed 21.8 km/h Distance 71.75 km</desc>
<time>2011-05-22T13:13:28.54</time>
<name>15853</name>
<sym>Dot</sym>
</trkpt>
<trkpt lat="39.679133" lon="-8.670142">
<ele>341.0</ele>
<desc>Speed 21.6 km/h Distance 71.75 km</desc>
<time>2011-05-22T13:13:29.54</time>
<name>15854</name>
<sym>Dot</sym>
</trkpt>
<trkpt lat="39.679105" lon="-8.670200">
<ele>341.0</ele>
<desc>Speed 21.0 km/h Distance 71.76 km</desc>
<time>2011-05-22T13:13:30.54</time>
<name>15855</name>
<sym>Dot</sym>
</trkpt>
<trkpt lat="39.679075" lon="-8.670258">
<ele>340.5</ele>
<desc>Speed 20.6 km/h Distance 71.76 km</desc>
<time>2011-05-22T13:13:31.54</time>
<name>15856</name>
<sym>Dot</sym>
</trkpt>
<trkpt lat="39.679048" lon="-8.670315">
<ele>340.0</ele>
<desc>Speed 19.4 km/h Distance 71.77 km</desc>
<time>2011-05-22T13:13:32.54</time>
<name>15857</name>
<sym>Dot</sym>
</trkpt>
<trkpt lat="39.679023" lon="-8.670365">
<ele>339.5</ele>
<desc>Speed 17.9 km/h Distance 71.77 km</desc>
<time>2011-05-22T13:13:33.54</time>
<name>15858</name>
<sym>Dot</sym>
</trkpt>
<trkpt lat="39.679000" lon="-8.670412">
<ele>339.5</ele>
<desc>Speed 16.3 km/h Distance 71.78 km</desc>
<time>2011-05-22T13:13:34.54</time>
<name>15859</name>
<sym>Dot</sym>
</trkpt>
<trkpt lat="39.678978" lon="-8.670453">
<ele>339.5</ele>
<desc>Speed 14.8 km/h Distance 71.78 km</desc>
<time>2011-05-22T13:13:35.54</time>
<name>15860</name>
<sym>Dot</sym>
</trkpt>
<trkpt lat="39.678960" lon="-8.670493">
<ele>339.5</ele>
<desc>Speed 14.0 km/h Distance 71.79 km</desc>
<time>2011-05-22T13:13:36.54</time>
<name>15861</name>
<sym>Dot</sym>
</trkpt>
<trkpt lat="39.678942" lon="-8.670527">
<ele>339.5</ele>
<desc>Speed 12.4 km/h Distance 71.79 km</desc>
<time>2011-05-22T13:13:37.54</time>
<name>15862</name>
<sym>Dot</sym>
</trkpt>
<trkpt lat="39.678923" lon="-8.670557">
<ele>339.5</ele>
<desc>Speed 11.5 km/h Distance 71.79 km</desc>
<time>2011-05-22T13:13:38.54</time>
<name>15863</name>
<sym>Dot</sym>
</trkpt>
<trkpt lat="39.678908" lon="-8.670588">
<ele>339.5</ele>
<desc>Speed 11.1 km/h Distance 71.80 km</desc>
<time>2011-05-22T13:13:39.54</time>
<name>15864</name>
<sym>Dot</sym>
</trkpt>
<trkpt lat="39.678895" lon="-8.670622">
<ele>340.0</ele>
<desc>Speed 10.8 km/h Distance 71.80 km</desc>
<time>2011-05-22T13:13:40.54</time>
<name>15865</name>
<sym>Dot</sym>
</trkpt>
<trkpt lat="39.678880" lon="-8.670653">
<ele>340.0</ele>
<desc>Speed 11.3 km/h Distance 71.80 km</desc>
<time>2011-05-22T13:13:41.54</time>
<name>15866</name>
<sym>Dot</sym>
</trkpt>
<trkpt lat="39.678867" lon="-8.670680">
<ele>341.0</ele>
<desc>Speed 9.6 km/h Distance 71.81 km</desc>
<time>2011-05-22T13:13:42.54</time>
<name>15867</name>
<sym>Dot</sym>
</trkpt>
<trkpt lat="39.678852" lon="-8.670707">
<ele>342.0</ele>
<desc>Speed 9.6 km/h Distance 71.81 km</desc>
<time>2011-05-22T13:13:43.54</time>
<name>15868</name>
<sym>Dot</sym>
</trkpt>
<trkpt lat="39.678838" lon="-8.670733">
<ele>342.5</ele>
<desc>Speed 9.8 km/h Distance 71.81 km</desc>
<time>2011-05-22T13:13:44.54</time>
<name>15869</name>
<sym>Dot</sym>
</trkpt>
<trkpt lat="39.678827" lon="-8.670763">
<ele>342.5</ele>
<desc>Speed 10.0 km/h Distance 71.81 km</desc>
<time>2011-05-22T13:13:45.54</time>
<name>15870</name>
<sym>Dot</sym>
</trkpt>
<trkpt lat="39.678813" lon="-8.670787">
<ele>343.0</ele>
<desc>Speed 9.1 km/h Distance 71.82 km</desc>
<time>2011-05-22T13:13:46.54</time>
<name>15871</name>
<sym>Dot</sym>
</trkpt>
<trkpt lat="39.678800" lon="-8.670808">
<ele>343.5</ele>
<desc>Speed 8.4 km/h Distance 71.82 km</desc>
<time>2011-05-22T13:13:47.54</time>
<name>15872</name>
<sym>Dot</sym>
</trkpt>
<trkpt lat="39.678785" lon="-8.670828">
<ele>344.0</ele>
<desc>Speed 8.4 km/h Distance 71.82 km</desc>
<time>2011-05-22T13:13:48.54</time>
<name>15873</name>
<sym>Dot</sym>
</trkpt>
<trkpt lat="39.678772" lon="-8.670850">
<ele>344.5</ele>
<desc>Speed 8.5 km/h Distance 71.82 km</desc>
<time>2011-05-22T13:13:49.54</time>
<name>15874</name>
<sym>Dot</sym>
</trkpt>
<trkpt lat="39.678760" lon="-8.670870">
<ele>345.0</ele>
<desc>Speed 7.8 km/h Distance 71.83 km</desc>
<time>2011-05-22T13:13:50.54</time>
<name>15875</name>
<sym>Dot</sym>
</trkpt>
<trkpt lat="39.678748" lon="-8.670892">
<ele>345.5</ele>
<desc>Speed 7.8 km/h Distance 71.83 km</desc>
<time>2011-05-22T13:13:51.54</time>
<name>15876</name>
<sym>Dot</sym>
</trkpt>
<trkpt lat="39.678737" lon="-8.670915">
<ele>346.0</ele>
<desc>Speed 8.4 km/h Distance 71.83 km</desc>
<time>2011-05-22T13:13:52.54</time>
<name>15877</name>
<sym>Dot</sym>
</trkpt>
<trkpt lat="39.678725" lon="-8.670940">
<ele>346.5</ele>
<desc>Speed 8.9 km/h Distance 71.83 km</desc>
<time>2011-05-22T13:13:53.54</time>
<name>15878</name>
<sym>Dot</sym>
</trkpt>
<trkpt lat="39.678712" lon="-8.670967">
<ele>346.5</ele>
<desc>Speed 9.5 km/h Distance 71.84 km</desc>
<time>2011-05-22T13:13:54.54</time>
<name>15879</name>
<sym>Dot</sym>
</trkpt>
<trkpt lat="39.678700" lon="-8.670997">
<ele>346.5</ele>
<desc>Speed 9.9 km/h Distance 71.84 km</desc>
<time>2011-05-22T13:13:55.54</time>
<name>15880</name>
<sym>Dot</sym>
</trkpt>
<trkpt lat="39.678687" lon="-8.671027">
<ele>346.5</ele>
<desc>Speed 10.0 km/h Distance 71.84 km</desc>
<time>2011-05-22T13:13:56.54</time>
<name>15881</name>
<sym>Dot</sym>
</trkpt>
<trkpt lat="39.678672" lon="-8.671055">
<ele>346.5</ele>
<desc>Speed 10.4 km/h Distance 71.85 km</desc>
<time>2011-05-22T13:13:57.54</time>
<name>15882</name>
<sym>Dot</sym>
</trkpt>
<trkpt lat="39.678657" lon="-8.671083">
<ele>346.5</ele>
<desc>Speed 9.9 km/h Distance 71.85 km</desc>
<time>2011-05-22T13:13:58.54</time>
<name>15883</name>
<sym>Dot</sym>
</trkpt>
<trkpt lat="39.678643" lon="-8.671113">
<ele>346.5</ele>
<desc>Speed 9.9 km/h Distance 71.85 km</desc>
<time>2011-05-22T13:13:59.54</time>
<name>15884</name>
<sym>Dot</sym>
</trkpt>
<trkpt lat="39.678630" lon="-8.671142">
<ele>346.5</ele>
<desc>Speed 9.6 km/h Distance 71.85 km</desc>
<time>2011-05-22T13:14:00.54</time>
<name>15885</name>
<sym>Dot</sym>
</trkpt>
<trkpt lat="39.678618" lon="-8.671170">
<ele>346.5</ele>
<desc>Speed 9.7 km/h Distance 71.86 km</desc>
<time>2011-05-22T13:14:01.54</time>
<name>15886</name>
<sym>Dot</sym>
</trkpt>
<trkpt lat="39.678605" lon="-8.671197">
<ele>346.5</ele>
<desc>Speed 9.0 km/h Distance 71.86 km</desc>
<time>2011-05-22T13:14:02.54</time>
<name>15887</name>
<sym>Dot</sym>
</trkpt>
<trkpt lat="39.678593" lon="-8.671222">
<ele>346.5</ele>
<desc>Speed 8.4 km/h Distance 71.86 km</desc>
<time>2011-05-22T13:14:03.54</time>
<name>15888</name>
<sym>Dot</sym>
</trkpt>
<trkpt lat="39.678583" lon="-8.671247">
<ele>346.5</ele>
<desc>Speed 8.1 km/h Distance 71.86 km</desc>
<time>2011-05-22T13:14:04.54</time>
<name>15889</name>
<sym>Dot</sym>
</trkpt>
<trkpt lat="39.678573" lon="-8.671270">
<ele>346.5</ele>
<desc>Speed 7.6 km/h Distance 71.87 km</desc>
<time>2011-05-22T13:14:05.54</time>
<name>15890</name>
<sym>Dot</sym>
</trkpt>
<trkpt lat="39.678562" lon="-8.671292">
<ele>346.5</ele>
<desc>Speed 7.8 km/h Distance 71.87 km</desc>
<time>2011-05-22T13:14:06.54</time>
<name>15891</name>
<sym>Dot</sym>
</trkpt>
<trkpt lat="39.678550" lon="-8.671315">
<ele>346.0</ele>
<desc>Speed 7.7 km/h Distance 71.87 km</desc>
<time>2011-05-22T13:14:07.54</time>
<name>15892</name>
<sym>Dot</sym>
</trkpt>
<trkpt lat="39.678540" lon="-8.671342">
<ele>345.5</ele>
<desc>Speed 8.2 km/h Distance 71.87 km</desc>
<time>2011-05-22T13:14:08.54</time>
<name>15893</name>
<sym>Dot</sym>
</trkpt>
<trkpt lat="39.678527" lon="-8.671368">
<ele>345.0</ele>
<desc>Speed 8.8 km/h Distance 71.88 km</desc>
<time>2011-05-22T13:14:09.54</time>
<name>15894</name>
<sym>Dot</sym>
</trkpt>
<trkpt lat="39.678513" lon="-8.671397">
<ele>344.5</ele>
<desc>Speed 9.5 km/h Distance 71.88 km</desc>
<time>2011-05-22T13:14:10.54</time>
<name>15895</name>
<sym>Dot</sym>
</trkpt>
<trkpt lat="39.678500" lon="-8.671427">
<ele>345.0</ele>
<desc>Speed 10.1 km/h Distance 71.88 km</desc>
<time>2011-05-22T13:14:11.54</time>
<name>15896</name>
<sym>Dot</sym>
</trkpt>
<trkpt lat="39.678487" lon="-8.671458">
<ele>344.5</ele>
<desc>Speed 10.3 km/h Distance 71.89 km</desc>
<time>2011-05-22T13:14:12.54</time>
<name>15897</name>
<sym>Dot</sym>
</trkpt>
<trkpt lat="39.678473" lon="-8.671490">
<ele>344.0</ele>
<desc>Speed 10.2 km/h Distance 71.89 km</desc>
<time>2011-05-22T13:14:13.54</time>
<name>15898</name>
<sym>Dot</sym>
</trkpt>
<trkpt lat="39.678462" lon="-8.671518">
<ele>344.0</ele>
<desc>Speed 10.0 km/h Distance 71.89 km</desc>
<time>2011-05-22T13:14:14.54</time>
<name>15899</name>
<sym>Dot</sym>
</trkpt>
<trkpt lat="39.678448" lon="-8.671547">
<ele>344.0</ele>
<desc>Speed 9.8 km/h Distance 71.89 km</desc>
<time>2011-05-22T13:14:15.54</time>
<name>15900</name>
<sym>Dot</sym>
</trkpt>
<trkpt lat="39.678435" lon="-8.671575">
<ele>344.0</ele>
<desc>Speed 9.5 km/h Distance 71.90 km</desc>
<time>2011-05-22T13:14:16.54</time>
<name>15901</name>
<sym>Dot</sym>
</trkpt>
<trkpt lat="39.678422" lon="-8.671603">
<ele>344.0</ele>
<desc>Speed 9.5 km/h Distance 71.90 km</desc>
<time>2011-05-22T13:14:17.54</time>
<name>15902</name>
<sym>Dot</sym>
</trkpt>
<trkpt lat="39.678407" lon="-8.671628">
<ele>344.0</ele>
<desc>Speed 9.4 km/h Distance 71.90 km</desc>
<time>2011-05-22T13:14:18.54</time>
<name>15903</name>
<sym>Dot</sym>
</trkpt>
<trkpt lat="39.678395" lon="-8.671653">
<ele>344.5</ele>
<desc>Speed 9.1 km/h Distance 71.91 km</desc>
<time>2011-05-22T13:14:19.54</time>
<name>15904</name>
<sym>Dot</sym>
</trkpt>
<trkpt lat="39.678380" lon="-8.671678">
<ele>345.0</ele>
<desc>Speed 9.1 km/h Distance 71.91 km</desc>
<time>2011-05-22T13:14:20.54</time>
<name>15905</name>
<sym>Dot</sym>
</trkpt>
<trkpt lat="39.678365" lon="-8.671698">
<ele>345.5</ele>
<desc>Speed 8.5 km/h Distance 71.91 km</desc>
<time>2011-05-22T13:14:21.54</time>
<name>15906</name>
<sym>Dot</sym>
</trkpt>
<trkpt lat="39.678352" lon="-8.671718">
<ele>346.0</ele>
<desc>Speed 8.1 km/h Distance 71.91 km</desc>
<time>2011-05-22T13:14:22.54</time>
<name>15907</name>
<sym>Dot</sym>
</trkpt>
<trkpt lat="39.678337" lon="-8.671740">
<ele>346.5</ele>
<desc>Speed 8.7 km/h Distance 71.92 km</desc>
<time>2011-05-22T13:14:23.54</time>
<name>15908</name>
<sym>Dot</sym>
</trkpt>
<trkpt lat="39.678323" lon="-8.671763">
<ele>347.0</ele>
<desc>Speed 8.6 km/h Distance 71.92 km</desc>
<time>2011-05-22T13:14:24.54</time>
<name>15909</name>
<sym>Dot</sym>
</trkpt>
<trkpt lat="39.678310" lon="-8.671787">
<ele>347.5</ele>
<desc>Speed 8.7 km/h Distance 71.92 km</desc>
<time>2011-05-22T13:14:25.54</time>
<name>15910</name>
<sym>Dot</sym>
</trkpt>
<trkpt lat="39.678300" lon="-8.671808">
<ele>348.5</ele>
<desc>Speed 8.1 km/h Distance 71.92 km</desc>
<time>2011-05-22T13:14:26.54</time>
<name>15911</name>
<sym>Dot</sym>
</trkpt>
<trkpt lat="39.678287" lon="-8.671832">
<ele>348.5</ele>
<desc>Speed 8.5 km/h Distance 71.92 km</desc>
<time>2011-05-22T13:14:27.54</time>
<name>15912</name>
<sym>Dot</sym>
</trkpt>
<trkpt lat="39.678277" lon="-8.671855">
<ele>349.0</ele>
<desc>Speed 8.0 km/h Distance 71.93 km</desc>
<time>2011-05-22T13:14:28.54</time>
<name>15913</name>
<sym>Dot</sym>
</trkpt>
<trkpt lat="39.678267" lon="-8.671877">
<ele>349.0</ele>
<desc>Speed 7.6 km/h Distance 71.93 km</desc>
<time>2011-05-22T13:14:29.54</time>
<name>15914</name>
<sym>Dot</sym>
</trkpt>
<trkpt lat="39.678255" lon="-8.671898">
<ele>349.5</ele>
<desc>Speed 8.0 km/h Distance 71.93 km</desc>
<time>2011-05-22T13:14:30.54</time>
<name>15915</name>
<sym>Dot</sym>
</trkpt>
<trkpt lat="39.678243" lon="-8.671922">
<ele>350.0</ele>
<desc>Speed 8.0 km/h Distance 71.93 km</desc>
<time>2011-05-22T13:14:31.54</time>
<name>15916</name>
<sym>Dot</sym>
</trkpt>
<trkpt lat="39.678233" lon="-8.671945">
<ele>350.0</ele>
<desc>Speed 7.5 km/h Distance 71.94 km</desc>
<time>2011-05-22T13:14:32.54</time>
<name>15917</name>
<sym>Dot</sym>
</trkpt>
<trkpt lat="39.678225" lon="-8.671967">
<ele>350.5</ele>
<desc>Speed 7.4 km/h Distance 71.94 km</desc>
<time>2011-05-22T13:14:33.54</time>
<name>15918</name>
<sym>Dot</sym>
</trkpt>
<trkpt lat="39.678220" lon="-8.671985">
<ele>351.5</ele>
<desc>Speed 6.0 km/h Distance 71.94 km</desc>
<time>2011-05-22T13:14:34.54</time>
<name>15919</name>
<sym>Dot</sym>
</trkpt>
<trkpt lat="39.678210" lon="-8.672002">
<ele>351.5</ele>
<desc>Speed 5.5 km/h Distance 71.94 km</desc>
<time>2011-05-22T13:14:35.54</time>
<name>15920</name>
<sym>Dot</sym>
</trkpt>
<trkpt lat="39.678203" lon="-8.672022">
<ele>352.0</ele>
<desc>Speed 5.7 km/h Distance 71.94 km</desc>
<time>2011-05-22T13:14:36.54</time>
<name>15921</name>
<sym>Dot</sym>
</trkpt>
<trkpt lat="39.678195" lon="-8.672042">
<ele>352.0</ele>
<desc>Speed 6.4 km/h Distance 71.95 km</desc>
<time>2011-05-22T13:14:37.54</time>
<name>15922</name>
<sym>Dot</sym>
</trkpt>
<trkpt lat="39.678188" lon="-8.672062">
<ele>352.0</ele>
<desc>Speed 6.5 km/h Distance 71.95 km</desc>
<time>2011-05-22T13:14:38.54</time>
<name>15923</name>
<sym>Dot</sym>
</trkpt>
<trkpt lat="39.678177" lon="-8.672087">
<ele>352.0</ele>
<desc>Speed 8.1 km/h Distance 71.95 km</desc>
<time>2011-05-22T13:14:39.54</time>
<name>15924</name>
<sym>Dot</sym>
</trkpt>
<trkpt lat="39.678163" lon="-8.672112">
<ele>351.5</ele>
<desc>Speed 8.2 km/h Distance 71.95 km</desc>
<time>2011-05-22T13:14:40.54</time>
<name>15925</name>
<sym>Dot</sym>
</trkpt>
<trkpt lat="39.678150" lon="-8.672133">
<ele>351.5</ele>
<desc>Speed 8.6 km/h Distance 71.95 km</desc>
<time>2011-05-22T13:14:41.54</time>
<name>15926</name>
<sym>Dot</sym>
</trkpt>
<trkpt lat="39.678133" lon="-8.672160">
<ele>351.5</ele>
<desc>Speed 9.6 km/h Distance 71.96 km</desc>
<time>2011-05-22T13:14:42.54</time>
<name>15927</name>
<sym>Dot</sym>
</trkpt>
<trkpt lat="39.678117" lon="-8.672187">
<ele>351.5</ele>
<desc>Speed 10.0 km/h Distance 71.96 km</desc>
<time>2011-05-22T13:14:43.54</time>
<name>15928</name>
<sym>Dot</sym>
</trkpt>
<trkpt lat="39.678100" lon="-8.672213">
<ele>352.0</ele>
<desc>Speed 10.0 km/h Distance 71.96 km</desc>
<time>2011-05-22T13:14:44.54</time>
<name>15929</name>
<sym>Dot</sym>
</trkpt>
<trkpt lat="39.678083" lon="-8.672242">
<ele>351.5</ele>
<desc>Speed 10.1 km/h Distance 71.97 km</desc>
<time>2011-05-22T13:14:45.54</time>
<name>15930</name>
<sym>Dot</sym>
</trkpt>
<trkpt lat="39.678067" lon="-8.672268">
<ele>351.5</ele>
<desc>Speed 9.9 km/h Distance 71.97 km</desc>
<time>2011-05-22T13:14:46.54</time>
<name>15931</name>
<sym>Dot</sym>
</trkpt>
<trkpt lat="39.678050" lon="-8.672297">
<ele>351.5</ele>
<desc>Speed 9.8 km/h Distance 71.97 km</desc>
<time>2011-05-22T13:14:47.54</time>
<name>15932</name>
<sym>Dot</sym>
</trkpt>
<trkpt lat="39.678033" lon="-8.672322">
<ele>351.5</ele>
<desc>Speed 9.9 km/h Distance 71.98 km</desc>
<time>2011-05-22T13:14:48.54</time>
<name>15933</name>
<sym>Dot</sym>
</trkpt>
<trkpt lat="39.678017" lon="-8.672345">
<ele>352.0</ele>
<desc>Speed 9.4 km/h Distance 71.98 km</desc>
<time>2011-05-22T13:14:49.54</time>
<name>15934</name>
<sym>Dot</sym>
</trkpt>
<trkpt lat="39.678002" lon="-8.672367">
<ele>352.5</ele>
<desc>Speed 8.7 km/h Distance 71.98 km</desc>
<time>2011-05-22T13:14:50.54</time>
<name>15935</name>
<sym>Dot</sym>
</trkpt>
<trkpt lat="39.677987" lon="-8.672390">
<ele>352.5</ele>
<desc>Speed 9.4 km/h Distance 71.98 km</desc>
<time>2011-05-22T13:14:51.54</time>
<name>15936</name>
<sym>Dot</sym>
</trkpt>
<trkpt lat="39.677970" lon="-8.672415">
<ele>352.5</ele>
<desc>Speed 9.6 km/h Distance 71.99 km</desc>
<time>2011-05-22T13:14:52.54</time>
<name>15937</name>
<sym>Dot</sym>
</trkpt>
<trkpt lat="39.677955" lon="-8.672442">
<ele>353.0</ele>
<desc>Speed 9.7 km/h Distance 71.99 km</desc>
<time>2011-05-22T13:14:53.54</time>
<name>15938</name>
<sym>Dot</sym>
</trkpt>
<trkpt lat="39.677938" lon="-8.672468">
<ele>353.0</ele>
<desc>Speed 9.8 km/h Distance 71.99 km</desc>
<time>2011-05-22T13:14:54.54</time>
<name>15939</name>
<sym>Dot</sym>
</trkpt>
<trkpt lat="39.677923" lon="-8.672492">
<ele>353.5</ele>
<desc>Speed 9.7 km/h Distance 71.99 km</desc>
<time>2011-05-22T13:14:55.54</time>
<name>15940</name>
<sym>Dot</sym>
</trkpt>
<trkpt lat="39.677907" lon="-8.672520">
<ele>353.5</ele>
<desc>Speed 9.9 km/h Distance 72.00 km</desc>
<time>2011-05-22T13:14:56.54</time>
<name>15941</name>
<sym>Dot</sym>
</trkpt>
<trkpt lat="39.677890" lon="-8.672545">
<ele>353.5</ele>
<desc>Speed 9.6 km/h Distance 72.00 km</desc>
<time>2011-05-22T13:14:57.54</time>
<name>15942</name>
<sym>Dot</sym>
</trkpt>
<trkpt lat="39.677875" lon="-8.672572">
<ele>354.0</ele>
<desc>Speed 9.6 km/h Distance 72.00 km</desc>
<time>2011-05-22T13:14:58.54</time>
<name>15943</name>
<sym>Dot</sym>
</trkpt>
<trkpt lat="39.677858" lon="-8.672595">
<ele>354.5</ele>
<desc>Speed 9.5 km/h Distance 72.01 km</desc>
<time>2011-05-22T13:14:59.54</time>
<name>15944</name>
<sym>Dot</sym>
</trkpt>
<trkpt lat="39.677842" lon="-8.672618">
<ele>354.5</ele>
<desc>Speed 9.4 km/h Distance 72.01 km</desc>
<time>2011-05-22T13:15:00.54</time>
<name>15945</name>
<sym>Dot</sym>
</trkpt>
<trkpt lat="39.677825" lon="-8.672643">
<ele>355.0</ele>
<desc>Speed 9.3 km/h Distance 72.01 km</desc>
<time>2011-05-22T13:15:01.54</time>
<name>15946</name>
<sym>Dot</sym>
</trkpt>
<trkpt lat="39.677810" lon="-8.672668">
<ele>355.0</ele>
<desc>Speed 8.9 km/h Distance 72.01 km</desc>
<time>2011-05-22T13:15:02.54</time>
<name>15947</name>
<sym>Dot</sym>
</trkpt>
<trkpt lat="39.677795" lon="-8.672693">
<ele>355.5</ele>
<desc>Speed 9.3 km/h Distance 72.02 km</desc>
<time>2011-05-22T13:15:03.54</time>
<name>15948</name>
<sym>Dot</sym>
</trkpt>
<trkpt lat="39.677780" lon="-8.672720">
<ele>356.0</ele>
<desc>Speed 9.3 km/h Distance 72.02 km</desc>
<time>2011-05-22T13:15:04.54</time>
<name>15949</name>
<sym>Dot</sym>
</trkpt>
<trkpt lat="39.677763" lon="-8.672742">
<ele>356.0</ele>
<desc>Speed 9.1 km/h Distance 72.02 km</desc>
<time>2011-05-22T13:15:05.54</time>
<name>15950</name>
<sym>Dot</sym>
</trkpt>
<trkpt lat="39.677745" lon="-8.672765">
<ele>356.5</ele>
<desc>Speed 9.4 km/h Distance 72.03 km</desc>
<time>2011-05-22T13:15:06.54</time>
<name>15951</name>
<sym>Dot</sym>
</trkpt>
<trkpt lat="39.677728" lon="-8.672787">
<ele>356.5</ele>
<desc>Speed 9.3 km/h Distance 72.03 km</desc>
<time>2011-05-22T13:15:07.54</time>
<name>15952</name>
<sym>Dot</sym>
</trkpt>
<trkpt lat="39.677712" lon="-8.672808">
<ele>357.0</ele>
<desc>Speed 9.3 km/h Distance 72.03 km</desc>
<time>2011-05-22T13:15:08.54</time>
<name>15953</name>
<sym>Dot</sym>
</trkpt>
<trkpt lat="39.677693" lon="-8.672832">
<ele>357.0</ele>
<desc>Speed 9.2 km/h Distance 72.03 km</desc>
<time>2011-05-22T13:15:09.54</time>
<name>15954</name>
<sym>Dot</sym>
</trkpt>
<trkpt lat="39.677678" lon="-8.672855">
<ele>357.0</ele>
<desc>Speed 9.1 km/h Distance 72.04 km</desc>
<time>2011-05-22T13:15:10.54</time>
<name>15955</name>
<sym>Dot</sym>
</trkpt>
<trkpt lat="39.677663" lon="-8.672882">
<ele>357.0</ele>
<desc>Speed 9.6 km/h Distance 72.04 km</desc>
<time>2011-05-22T13:15:11.54</time>
<name>15956</name>
<sym>Dot</sym>
</trkpt>
<trkpt lat="39.677647" lon="-8.672907">
<ele>357.5</ele>
<desc>Speed 9.5 km/h Distance 72.04 km</desc>
<time>2011-05-22T13:15:12.54</time>
<name>15957</name>
<sym>Dot</sym>
</trkpt>
<trkpt lat="39.677630" lon="-8.672930">
<ele>357.5</ele>
<desc>Speed 9.4 km/h Distance 72.04 km</desc>
<time>2011-05-22T13:15:13.54</time>
<name>15958</name>
<sym>Dot</sym>
</trkpt>
<trkpt lat="39.677613" lon="-8.672952">
<ele>358.0</ele>
<desc>Speed 9.2 km/h Distance 72.05 km</desc>
<time>2011-05-22T13:15:14.54</time>
<name>15959</name>
<sym>Dot</sym>
</trkpt>
<trkpt lat="39.677597" lon="-8.672973">
<ele>358.5</ele>
<desc>Speed 9.1 km/h Distance 72.05 km</desc>
<time>2011-05-22T13:15:15.54</time>
<name>15960</name>
<sym>Dot</sym>
</trkpt>
<trkpt lat="39.677580" lon="-8.672998">
<ele>358.0</ele>
<desc>Speed 9.0 km/h Distance 72.05 km</desc>
<time>2011-05-22T13:15:16.54</time>
<name>15961</name>
<sym>Dot</sym>
</trkpt>
<trkpt lat="39.677567" lon="-8.673023">
<ele>358.0</ele>
<desc>Speed 8.6 km/h Distance 72.06 km</desc>
<time>2011-05-22T13:15:17.54</time>
<name>15962</name>
<sym>Dot</sym>
</trkpt>
<trkpt lat="39.677552" lon="-8.673045">
<ele>358.0</ele>
<desc>Speed 8.8 km/h Distance 72.06 km</desc>
<time>2011-05-22T13:15:18.54</time>
<name>15963</name>
<sym>Dot</sym>
</trkpt>
<trkpt lat="39.677537" lon="-8.673063">
<ele>358.5</ele>
<desc>Speed 7.8 km/h Distance 72.06 km</desc>
<time>2011-05-22T13:15:19.54</time>
<name>15964</name>
<sym>Dot</sym>
</trkpt>
<trkpt lat="39.677520" lon="-8.673082">
<ele>358.5</ele>
<desc>Speed 8.4 km/h Distance 72.06 km</desc>
<time>2011-05-22T13:15:20.53</time>
<name>15965</name>
<sym>Dot</sym>
</trkpt>
<trkpt lat="39.677503" lon="-8.673100">
<ele>359.5</ele>
<desc>Speed 8.6 km/h Distance 72.06 km</desc>
<time>2011-05-22T13:15:21.53</time>
<name>15966</name>
<sym>Dot</sym>
</trkpt>
<trkpt lat="39.677485" lon="-8.673120">
<ele>360.0</ele>
<desc>Speed 9.0 km/h Distance 72.07 km</desc>
<time>2011-05-22T13:15:22.53</time>
<name>15967</name>
<sym>Dot</sym>
</trkpt>
<trkpt lat="39.677467" lon="-8.673138">
<ele>360.5</ele>
<desc>Speed 8.9 km/h Distance 72.07 km</desc>
<time>2011-05-22T13:15:23.53</time>
<name>15968</name>
<sym>Dot</sym>
</trkpt>
<trkpt lat="39.677448" lon="-8.673158">
<ele>361.0</ele>
<desc>Speed 9.1 km/h Distance 72.07 km</desc>
<time>2011-05-22T13:15:24.53</time>
<name>15969</name>
<sym>Dot</sym>
</trkpt>
<trkpt lat="39.677432" lon="-8.673180">
<ele>361.5</ele>
<desc>Speed 9.1 km/h Distance 72.08 km</desc>
<time>2011-05-22T13:15:25.53</time>
<name>15970</name>
<sym>Dot</sym>
</trkpt>
<trkpt lat="39.677415" lon="-8.673202">
<ele>362.0</ele>
<desc>Speed 9.0 km/h Distance 72.08 km</desc>
<time>2011-05-22T13:15:26.53</time>
<name>15971</name>
<sym>Dot</sym>
</trkpt>
<trkpt lat="39.677398" lon="-8.673223">
<ele>362.0</ele>
<desc>Speed 9.0 km/h Distance 72.08 km</desc>
<time>2011-05-22T13:15:27.53</time>
<name>15972</name>
<sym>Dot</sym>
</trkpt>
<trkpt lat="39.677382" lon="-8.673243">
<ele>362.5</ele>
<desc>Speed 9.1 km/h Distance 72.08 km</desc>
<time>2011-05-22T13:15:28.53</time>
<name>15973</name>
<sym>Dot</sym>
</trkpt>
<trkpt lat="39.677363" lon="-8.673263">
<ele>363.0</ele>
<desc>Speed 9.0 km/h Distance 72.09 km</desc>
<time>2011-05-22T13:15:29.53</time>
<name>15974</name>
<sym>Dot</sym>
</trkpt>
<trkpt lat="39.677347" lon="-8.673285">
<ele>363.0</ele>
<desc>Speed 9.0 km/h Distance 72.09 km</desc>
<time>2011-05-22T13:15:30.53</time>
<name>15975</name>
<sym>Dot</sym>
</trkpt>
<trkpt lat="39.677330" lon="-8.673310">
<ele>363.5</ele>
<desc>Speed 9.4 km/h Distance 72.09 km</desc>
<time>2011-05-22T13:15:31.53</time>
<name>15976</name>
<sym>Dot</sym>
</trkpt>
<trkpt lat="39.677315" lon="-8.673333">
<ele>363.5</ele>
<desc>Speed 9.2 km/h Distance 72.09 km</desc>
<time>2011-05-22T13:15:32.53</time>
<name>15977</name>
<sym>Dot</sym>
</trkpt>
<trkpt lat="39.677298" lon="-8.673358">
<ele>363.5</ele>
<desc>Speed 9.4 km/h Distance 72.10 km</desc>
<time>2011-05-22T13:15:33.53</time>
<name>15978</name>
<sym>Dot</sym>
</trkpt>
<trkpt lat="39.677282" lon="-8.673380">
<ele>364.0</ele>
<desc>Speed 9.2 km/h Distance 72.10 km</desc>
<time>2011-05-22T13:15:34.53</time>
<name>15979</name>
<sym>Dot</sym>
</trkpt>
<trkpt lat="39.677263" lon="-8.673400">
<ele>364.5</ele>
<desc>Speed 9.0 km/h Distance 72.10 km</desc>
<time>2011-05-22T13:15:35.53</time>
<name>15980</name>
<sym>Dot</sym>
</trkpt>
<trkpt lat="39.677248" lon="-8.673425">
<ele>364.5</ele>
<desc>Speed 9.0 km/h Distance 72.10 km</desc>
<time>2011-05-22T13:15:36.53</time>
<name>15981</name>
<sym>Dot</sym>
</trkpt>
<trkpt lat="39.677232" lon="-8.673452">
<ele>364.0</ele>
<desc>Speed 9.3 km/h Distance 72.11 km</desc>
<time>2011-05-22T13:15:37.53</time>
<name>15982</name>
<sym>Dot</sym>
</trkpt>
<trkpt lat="39.677217" lon="-8.673478">
<ele>364.0</ele>
<desc>Speed 9.1 km/h Distance 72.11 km</desc>
<time>2011-05-22T13:15:38.53</time>
<name>15983</name>
<sym>Dot</sym>
</trkpt>
<trkpt lat="39.677202" lon="-8.673503">
<ele>364.0</ele>
<desc>Speed 9.1 km/h Distance 72.11 km</desc>
<time>2011-05-22T13:15:39.53</time>
<name>15984</name>
<sym>Dot</sym>
</trkpt>
<trkpt lat="39.677185" lon="-8.673527">
<ele>364.0</ele>
<desc>Speed 9.3 km/h Distance 72.12 km</desc>
<time>2011-05-22T13:15:40.53</time>
<name>15985</name>
<sym>Dot</sym>
</trkpt>
<trkpt lat="39.677168" lon="-8.673552">
<ele>364.0</ele>
<desc>Speed 9.4 km/h Distance 72.12 km</desc>
<time>2011-05-22T13:15:41.53</time>
<name>15986</name>
<sym>Dot</sym>
</trkpt>
<trkpt lat="39.677152" lon="-8.673577">
<ele>364.0</ele>
<desc>Speed 9.3 km/h Distance 72.12 km</desc>
<time>2011-05-22T13:15:42.53</time>
<name>15987</name>
<sym>Dot</sym>
</trkpt>
<trkpt lat="39.677137" lon="-8.673602">
<ele>364.0</ele>
<desc>Speed 9.1 km/h Distance 72.12 km</desc>
<time>2011-05-22T13:15:43.53</time>
<name>15988</name>
<sym>Dot</sym>
</trkpt>
<trkpt lat="39.677122" lon="-8.673627">
<ele>364.0</ele>
<desc>Speed 9.2 km/h Distance 72.13 km</desc>
<time>2011-05-22T13:15:44.53</time>
<name>15989</name>
<sym>Dot</sym>
</trkpt>
<trkpt lat="39.677105" lon="-8.673650">
<ele>363.5</ele>
<desc>Speed 9.0 km/h Distance 72.13 km</desc>
<time>2011-05-22T13:15:45.53</time>
<name>15990</name>
<sym>Dot</sym>
</trkpt>
<trkpt lat="39.677090" lon="-8.673673">
<ele>364.0</ele>
<desc>Speed 8.9 km/h Distance 72.13 km</desc>
<time>2011-05-22T13:15:46.53</time>
<name>15991</name>
<sym>Dot</sym>
</trkpt>
<trkpt lat="39.677075" lon="-8.673697">
<ele>364.0</ele>
<desc>Speed 8.5 km/h Distance 72.13 km</desc>
<time>2011-05-22T13:15:47.53</time>
<name>15992</name>
<sym>Dot</sym>
</trkpt>
<trkpt lat="39.677060" lon="-8.673718">
<ele>364.0</ele>
<desc>Speed 8.6 km/h Distance 72.14 km</desc>
<time>2011-05-22T13:15:48.53</time>
<name>15993</name>
<sym>Dot</sym>
</trkpt>
<trkpt lat="39.677045" lon="-8.673742">
<ele>364.0</ele>
<desc>Speed 8.9 km/h Distance 72.14 km</desc>
<time>2011-05-22T13:15:49.53</time>
<name>15994</name>
<sym>Dot</sym>
</trkpt>
<trkpt lat="39.677032" lon="-8.673767">
<ele>364.0</ele>
<desc>Speed 8.8 km/h Distance 72.14 km</desc>
<time>2011-05-22T13:15:50.53</time>
<name>15995</name>
<sym>Dot</sym>
</trkpt>
<trkpt lat="39.677017" lon="-8.673790">
<ele>364.0</ele>
<desc>Speed 8.7 km/h Distance 72.15 km</desc>
<time>2011-05-22T13:15:51.53</time>
<name>15996</name>
<sym>Dot</sym>
</trkpt>
<trkpt lat="39.677000" lon="-8.673812">
<ele>364.0</ele>
<desc>Speed 8.6 km/h Distance 72.15 km</desc>
<time>2011-05-22T13:15:52.53</time>
<name>15997</name>
<sym>Dot</sym>
</trkpt>
<trkpt lat="39.676985" lon="-8.673835">
<ele>363.5</ele>
<desc>Speed 8.6 km/h Distance 72.15 km</desc>
<time>2011-05-22T13:15:53.53</time>
<name>15998</name>
<sym>Dot</sym>
</trkpt>
<trkpt lat="39.676972" lon="-8.673860">
<ele>363.5</ele>
<desc>Speed 8.7 km/h Distance 72.15 km</desc>
<time>2011-05-22T13:15:54.53</time>
<name>15999</name>
<sym>Dot</sym>
</trkpt>
<trkpt lat="39.676957" lon="-8.673885">
<ele>363.5</ele>
<desc>Speed 9.0 km/h Distance 72.16 km</desc>
<time>2011-05-22T13:15:55.53</time>
<name>16000</name>
<sym>Dot</sym>
</trkpt>
<trkpt lat="39.676942" lon="-8.673910">
<ele>363.0</ele>
<desc>Speed 9.0 km/h Distance 72.16 km</desc>
<time>2011-05-22T13:15:56.53</time>
<name>16001</name>
<sym>Dot</sym>
</trkpt>
<trkpt lat="39.676927" lon="-8.673937">
<ele>362.5</ele>
<desc>Speed 9.0 km/h Distance 72.16 km</desc>
<time>2011-05-22T13:15:57.53</time>
<name>16002</name>
<sym>Dot</sym>
</trkpt>
<trkpt lat="39.676912" lon="-8.673963">
<ele>362.0</ele>
<desc>Speed 9.3 km/h Distance 72.16 km</desc>
<time>2011-05-22T13:15:58.53</time>
<name>16003</name>
<sym>Dot</sym>
</trkpt>
<trkpt lat="39.676895" lon="-8.673988">
<ele>362.0</ele>
<desc>Speed 9.3 km/h Distance 72.17 km</desc>
<time>2011-05-22T13:15:59.53</time>
<name>16004</name>
<sym>Dot</sym>
</trkpt>
<trkpt lat="39.676880" lon="-8.674012">
<ele>362.0</ele>
<desc>Speed 9.2 km/h Distance 72.17 km</desc>
<time>2011-05-22T13:16:00.53</time>
<name>16005</name>
<sym>Dot</sym>
</trkpt>
<trkpt lat="39.676865" lon="-8.674035">
<ele>362.0</ele>
<desc>Speed 9.0 km/h Distance 72.17 km</desc>
<time>2011-05-22T13:16:01.53</time>
<name>16006</name>
<sym>Dot</sym>
</trkpt>
<trkpt lat="39.676850" lon="-8.674058">
<ele>362.5</ele>
<desc>Speed 8.6 km/h Distance 72.17 km</desc>
<time>2011-05-22T13:16:02.53</time>
<name>16007</name>
<sym>Dot</sym>
</trkpt>
<trkpt lat="39.676837" lon="-8.674080">
<ele>362.5</ele>
<desc>Speed 8.7 km/h Distance 72.18 km</desc>
<time>2011-05-22T13:16:03.53</time>
<name>16008</name>
<sym>Dot</sym>
</trkpt>
<trkpt lat="39.676822" lon="-8.674105">
<ele>362.5</ele>
<desc>Speed 8.6 km/h Distance 72.18 km</desc>
<time>2011-05-22T13:16:04.53</time>
<name>16009</name>
<sym>Dot</sym>
</trkpt>
<trkpt lat="39.676807" lon="-8.674127">
<ele>362.5</ele>
<desc>Speed 8.8 km/h Distance 72.18 km</desc>
<time>2011-05-22T13:16:05.53</time>
<name>16010</name>
<sym>Dot</sym>
</trkpt>
<trkpt lat="39.676792" lon="-8.674150">
<ele>362.5</ele>
<desc>Speed 9.0 km/h Distance 72.19 km</desc>
<time>2011-05-22T13:16:06.53</time>
<name>16011</name>
<sym>Dot</sym>
</trkpt>
<trkpt lat="39.676778" lon="-8.674175">
<ele>362.5</ele>
<desc>Speed 8.7 km/h Distance 72.19 km</desc>
<time>2011-05-22T13:16:07.53</time>
<name>16012</name>
<sym>Dot</sym>
</trkpt>
<trkpt lat="39.676765" lon="-8.674198">
<ele>363.0</ele>
<desc>Speed 8.8 km/h Distance 72.19 km</desc>
<time>2011-05-22T13:16:08.53</time>
<name>16013</name>
<sym>Dot</sym>
</trkpt>
<trkpt lat="39.676750" lon="-8.674227">
<ele>362.0</ele>
<desc>Speed 9.2 km/h Distance 72.19 km</desc>
<time>2011-05-22T13:16:09.53</time>
<name>16014</name>
<sym>Dot</sym>
</trkpt>
<trkpt lat="39.676735" lon="-8.674248">
<ele>362.5</ele>
<desc>Speed 8.9 km/h Distance 72.20 km</desc>
<time>2011-05-22T13:16:10.53</time>
<name>16015</name>
<sym>Dot</sym>
</trkpt>
<trkpt lat="39.676722" lon="-8.674270">
<ele>363.0</ele>
<desc>Speed 8.7 km/h Distance 72.20 km</desc>
<time>2011-05-22T13:16:11.53</time>
<name>16016</name>
<sym>Dot</sym>
</trkpt>
<trkpt lat="39.676707" lon="-8.674293">
<ele>362.5</ele>
<desc>Speed 8.7 km/h Distance 72.20 km</desc>
<time>2011-05-22T13:16:12.53</time>
<name>16017</name>
<sym>Dot</sym>
</trkpt>
<trkpt lat="39.676692" lon="-8.674317">
<ele>362.5</ele>
<desc>Speed 9.0 km/h Distance 72.20 km</desc>
<time>2011-05-22T13:16:13.53</time>
<name>16018</name>
<sym>Dot</sym>
</trkpt>
<trkpt lat="39.676677" lon="-8.674343">
<ele>362.0</ele>
<desc>Speed 8.9 km/h Distance 72.21 km</desc>
<time>2011-05-22T13:16:14.53</time>
<name>16019</name>
<sym>Dot</sym>
</trkpt>
<trkpt lat="39.676660" lon="-8.674367">
<ele>362.0</ele>
<desc>Speed 9.1 km/h Distance 72.21 km</desc>
<time>2011-05-22T13:16:15.53</time>
<name>16020</name>
<sym>Dot</sym>
</trkpt>
<trkpt lat="39.676643" lon="-8.674390">
<ele>362.0</ele>
<desc>Speed 9.3 km/h Distance 72.21 km</desc>
<time>2011-05-22T13:16:16.53</time>
<name>16021</name>
<sym>Dot</sym>
</trkpt>
<trkpt lat="39.676627" lon="-8.674413">
<ele>362.5</ele>
<desc>Speed 9.4 km/h Distance 72.21 km</desc>
<time>2011-05-22T13:16:17.53</time>
<name>16022</name>
<sym>Dot</sym>
</trkpt>
<trkpt lat="39.676610" lon="-8.674438">
<ele>362.5</ele>
<desc>Speed 9.3 km/h Distance 72.22 km</desc>
<time>2011-05-22T13:16:18.53</time>
<name>16023</name>
<sym>Dot</sym>
</trkpt>
<trkpt lat="39.676593" lon="-8.674462">
<ele>363.0</ele>
<desc>Speed 9.4 km/h Distance 72.22 km</desc>
<time>2011-05-22T13:16:19.53</time>
<name>16024</name>
<sym>Dot</sym>
</trkpt>
<trkpt lat="39.676577" lon="-8.674483">
<ele>363.0</ele>
<desc>Speed 9.2 km/h Distance 72.22 km</desc>
<time>2011-05-22T13:16:20.53</time>
<name>16025</name>
<sym>Dot</sym>
</trkpt>
<trkpt lat="39.676562" lon="-8.674507">
<ele>363.5</ele>
<desc>Speed 8.9 km/h Distance 72.23 km</desc>
<time>2011-05-22T13:16:21.53</time>
<name>16026</name>
<sym>Dot</sym>
</trkpt>
<trkpt lat="39.676545" lon="-8.674528">
<ele>363.5</ele>
<desc>Speed 9.4 km/h Distance 72.23 km</desc>
<time>2011-05-22T13:16:22.53</time>
<name>16027</name>
<sym>Dot</sym>
</trkpt>
<trkpt lat="39.676527" lon="-8.674553">
<ele>363.0</ele>
<desc>Speed 9.6 km/h Distance 72.23 km</desc>
<time>2011-05-22T13:16:23.53</time>
<name>16028</name>
<sym>Dot</sym>
</trkpt>
<trkpt lat="39.676508" lon="-8.674577">
<ele>363.0</ele>
<desc>Speed 9.4 km/h Distance 72.23 km</desc>
<time>2011-05-22T13:16:24.53</time>
<name>16029</name>
<sym>Dot</sym>
</trkpt>
<trkpt lat="39.676492" lon="-8.674597">
<ele>363.0</ele>
<desc>Speed 8.7 km/h Distance 72.24 km</desc>
<time>2011-05-22T13:16:25.53</time>
<name>16030</name>
<sym>Dot</sym>
</trkpt>
<trkpt lat="39.676475" lon="-8.674617">
<ele>363.5</ele>
<desc>Speed 9.0 km/h Distance 72.24 km</desc>
<time>2011-05-22T13:16:26.53</time>
<name>16031</name>
<sym>Dot</sym>
</trkpt>
<trkpt lat="39.676458" lon="-8.674637">
<ele>363.5</ele>
<desc>Speed 8.9 km/h Distance 72.24 km</desc>
<time>2011-05-22T13:16:27.53</time>
<name>16032</name>
<sym>Dot</sym>
</trkpt>
<trkpt lat="39.676443" lon="-8.674655">
<ele>364.0</ele>
<desc>Speed 8.4 km/h Distance 72.24 km</desc>
<time>2011-05-22T13:16:28.53</time>
<name>16033</name>
<sym>Dot</sym>
</trkpt>
<trkpt lat="39.676425" lon="-8.674675">
<ele>364.5</ele>
<desc>Speed 9.0 km/h Distance 72.25 km</desc>
<time>2011-05-22T13:16:29.53</time>
<name>16034</name>
<sym>Dot</sym>
</trkpt>
<trkpt lat="39.676408" lon="-8.674695">
<ele>365.0</ele>
<desc>Speed 8.7 km/h Distance 72.25 km</desc>
<time>2011-05-22T13:16:30.53</time>
<name>16035</name>
<sym>Dot</sym>
</trkpt>
<trkpt lat="39.676388" lon="-8.674712">
<ele>365.0</ele>
<desc>Speed 9.1 km/h Distance 72.25 km</desc>
<time>2011-05-22T13:16:31.53</time>
<name>16036</name>
<sym>Dot</sym>
</trkpt>
<trkpt lat="39.676370" lon="-8.674730">
<ele>365.5</ele>
<desc>Speed 8.4 km/h Distance 72.25 km</desc>
<time>2011-05-22T13:16:32.53</time>
<name>16037</name>
<sym>Dot</sym>
</trkpt>
<trkpt lat="39.676350" lon="-8.674750">
<ele>365.0</ele>
<desc>Speed 9.7 km/h Distance 72.26 km</desc>
<time>2011-05-22T13:16:33.53</time>
<name>16038</name>
<sym>Dot</sym>
</trkpt>
<trkpt lat="39.676328" lon="-8.674768">
<ele>364.5</ele>
<desc>Speed 10.0 km/h Distance 72.26 km</desc>
<time>2011-05-22T13:16:34.53</time>
<name>16039</name>
<sym>Dot</sym>
</trkpt>
<trkpt lat="39.676307" lon="-8.674787">
<ele>364.5</ele>
<desc>Speed 10.0 km/h Distance 72.26 km</desc>
<time>2011-05-22T13:16:35.53</time>
<name>16040</name>
<sym>Dot</sym>
</trkpt>
<trkpt lat="39.676285" lon="-8.674805">
<ele>364.5</ele>
<desc>Speed 9.7 km/h Distance 72.27 km</desc>
<time>2011-05-22T13:16:36.53</time>
<name>16041</name>
<sym>Dot</sym>
</trkpt>
<trkpt lat="39.676265" lon="-8.674825">
<ele>365.0</ele>
<desc>Speed 9.6 km/h Distance 72.27 km</desc>
<time>2011-05-22T13:16:37.53</time>
<name>16042</name>
<sym>Dot</sym>
</trkpt>
<trkpt lat="39.676245" lon="-8.674842">
<ele>365.0</ele>
<desc>Speed 9.4 km/h Distance 72.27 km</desc>
<time>2011-05-22T13:16:38.53</time>
<name>16043</name>
<sym>Dot</sym>
</trkpt>
<trkpt lat="39.676225" lon="-8.674857">
<ele>365.0</ele>
<desc>Speed 9.3 km/h Distance 72.27 km</desc>
<time>2011-05-22T13:16:39.53</time>
<name>16044</name>
<sym>Dot</sym>
</trkpt>
<trkpt lat="39.676205" lon="-8.674873">
<ele>365.5</ele>
<desc>Speed 9.2 km/h Distance 72.28 km</desc>
<time>2011-05-22T13:16:40.53</time>
<name>16045</name>
<sym>Dot</sym>
</trkpt>
<trkpt lat="39.676187" lon="-8.674892">
<ele>366.0</ele>
<desc>Speed 9.3 km/h Distance 72.28 km</desc>
<time>2011-05-22T13:16:41.53</time>
<name>16046</name>
<sym>Dot</sym>
</trkpt>
<trkpt lat="39.676167" lon="-8.674908">
<ele>366.0</ele>
<desc>Speed 9.5 km/h Distance 72.28 km</desc>
<time>2011-05-22T13:16:42.53</time>
<name>16047</name>
<sym>Dot</sym>
</trkpt>
<trkpt lat="39.676147" lon="-8.674927">
<ele>366.5</ele>
<desc>Speed 9.4 km/h Distance 72.28 km</desc>
<time>2011-05-22T13:16:43.53</time>
<name>16048</name>
<sym>Dot</sym>
</trkpt>
<trkpt lat="39.676127" lon="-8.674942">
<ele>367.0</ele>
<desc>Speed 9.1 km/h Distance 72.29 km</desc>
<time>2011-05-22T13:16:44.53</time>
<name>16049</name>
<sym>Dot</sym>
</trkpt>
<trkpt lat="39.676107" lon="-8.674957">
<ele>367.5</ele>
<desc>Speed 9.0 km/h Distance 72.29 km</desc>
<time>2011-05-22T13:16:45.53</time>
<name>16050</name>
<sym>Dot</sym>
</trkpt>
<trkpt lat="39.676087" lon="-8.674973">
<ele>368.5</ele>
<desc>Speed 9.3 km/h Distance 72.29 km</desc>
<time>2011-05-22T13:16:46.53</time>
<name>16051</name>
<sym>Dot</sym>
</trkpt>
<trkpt lat="39.676065" lon="-8.674988">
<ele>368.5</ele>
<desc>Speed 9.6 km/h Distance 72.29 km</desc>
<time>2011-05-22T13:16:47.53</time>
<name>16052</name>
<sym>Dot</sym>
</trkpt>
<trkpt lat="39.676043" lon="-8.675003">
<ele>368.5</ele>
<desc>Speed 9.5 km/h Distance 72.30 km</desc>
<time>2011-05-22T13:16:48.53</time>
<name>16053</name>
<sym>Dot</sym>
</trkpt>
<trkpt lat="39.676023" lon="-8.675020">
<ele>368.5</ele>
<desc>Speed 9.4 km/h Distance 72.30 km</desc>
<time>2011-05-22T13:16:49.53</time>
<name>16054</name>
<sym>Dot</sym>
</trkpt>
<trkpt lat="39.676002" lon="-8.675035">
<ele>368.5</ele>
<desc>Speed 9.3 km/h Distance 72.30 km</desc>
<time>2011-05-22T13:16:50.53</time>
<name>16055</name>
<sym>Dot</sym>
</trkpt>
<trkpt lat="39.675982" lon="-8.675050">
<ele>369.0</ele>
<desc>Speed 9.1 km/h Distance 72.30 km</desc>
<time>2011-05-22T13:16:51.53</time>
<name>16056</name>
<sym>Dot</sym>
</trkpt>
<trkpt lat="39.675962" lon="-8.675068">
<ele>369.0</ele>
<desc>Speed 9.3 km/h Distance 72.31 km</desc>
<time>2011-05-22T13:16:52.53</time>
<name>16057</name>
<sym>Dot</sym>
</trkpt>
<trkpt lat="39.675942" lon="-8.675085">
<ele>369.0</ele>
<desc>Speed 9.5 km/h Distance 72.31 km</desc>
<time>2011-05-22T13:16:53.53</time>
<name>16058</name>
<sym>Dot</sym>
</trkpt>
<trkpt lat="39.675920" lon="-8.675100">
<ele>369.0</ele>
<desc>Speed 9.8 km/h Distance 72.31 km</desc>
<time>2011-05-22T13:16:54.53</time>
<name>16059</name>
<sym>Dot</sym>
</trkpt>
<trkpt lat="39.675900" lon="-8.675115">
<ele>369.5</ele>
<desc>Speed 8.8 km/h Distance 72.32 km</desc>
<time>2011-05-22T13:16:55.53</time>
<name>16060</name>
<sym>Dot</sym>
</trkpt>
<trkpt lat="39.675882" lon="-8.675127">
<ele>370.0</ele>
<desc>Speed 8.2 km/h Distance 72.32 km</desc>
<time>2011-05-22T13:16:56.53</time>
<name>16061</name>
<sym>Dot</sym>
</trkpt>
<trkpt lat="39.675863" lon="-8.675140">
<ele>370.5</ele>
<desc>Speed 8.1 km/h Distance 72.32 km</desc>
<time>2011-05-22T13:16:57.53</time>
<name>16062</name>
<sym>Dot</sym>
</trkpt>
<trkpt lat="39.675845" lon="-8.675152">
<ele>371.0</ele>
<desc>Speed 7.9 km/h Distance 72.32 km</desc>
<time>2011-05-22T13:16:58.53</time>
<name>16063</name>
<sym>Dot</sym>
</trkpt>
<trkpt lat="39.675827" lon="-8.675165">
<ele>371.5</ele>
<desc>Speed 7.8 km/h Distance 72.32 km</desc>
<time>2011-05-22T13:16:59.53</time>
<name>16064</name>
<sym>Dot</sym>
</trkpt>
<trkpt lat="39.675812" lon="-8.675177">
<ele>372.5</ele>
<desc>Speed 6.7 km/h Distance 72.33 km</desc>
<time>2011-05-22T13:17:00.53</time>
<name>16065</name>
<sym>Dot</sym>
</trkpt>
<trkpt lat="39.675795" lon="-8.675190">
<ele>373.0</ele>
<desc>Speed 7.4 km/h Distance 72.33 km</desc>
<time>2011-05-22T13:17:01.53</time>
<name>16066</name>
<sym>Dot</sym>
</trkpt>
<trkpt lat="39.675778" lon="-8.675203">
<ele>373.0</ele>
<desc>Speed 7.9 km/h Distance 72.33 km</desc>
<time>2011-05-22T13:17:02.53</time>
<name>16067</name>
<sym>Dot</sym>
</trkpt>
<trkpt lat="39.675760" lon="-8.675217">
<ele>373.0</ele>
<desc>Speed 8.2 km/h Distance 72.33 km</desc>
<time>2011-05-22T13:17:03.53</time>
<name>16068</name>
<sym>Dot</sym>
</trkpt>
<trkpt lat="39.675742" lon="-8.675232">
<ele>373.0</ele>
<desc>Speed 8.0 km/h Distance 72.34 km</desc>
<time>2011-05-22T13:17:04.53</time>
<name>16069</name>
<sym>Dot</sym>
</trkpt>
<trkpt lat="39.675725" lon="-8.675245">
<ele>373.5</ele>
<desc>Speed 7.5 km/h Distance 72.34 km</desc>
<time>2011-05-22T13:17:05.53</time>
<name>16070</name>
<sym>Dot</sym>
</trkpt>
<trkpt lat="39.675710" lon="-8.675255">
<ele>374.5</ele>
<desc>Speed 7.1 km/h Distance 72.34 km</desc>
<time>2011-05-22T13:17:06.53</time>
<name>16071</name>
<sym>Dot</sym>
</trkpt>
<trkpt lat="39.675693" lon="-8.675268">
<ele>375.0</ele>
<desc>Speed 7.2 km/h Distance 72.34 km</desc>
<time>2011-05-22T13:17:07.53</time>
<name>16072</name>
<sym>Dot</sym>
</trkpt>
<trkpt lat="39.675675" lon="-8.675282">
<ele>375.5</ele>
<desc>Speed 7.9 km/h Distance 72.34 km</desc>
<time>2011-05-22T13:17:08.53</time>
<name>16073</name>
<sym>Dot</sym>
</trkpt>
<trkpt lat="39.675658" lon="-8.675295">
<ele>376.0</ele>
<desc>Speed 7.3 km/h Distance 72.35 km</desc>
<time>2011-05-22T13:17:09.53</time>
<name>16074</name>
<sym>Dot</sym>
</trkpt>
<trkpt lat="39.675640" lon="-8.675308">
<ele>376.0</ele>
<desc>Speed 8.2 km/h Distance 72.35 km</desc>
<time>2011-05-22T13:17:10.53</time>
<name>16075</name>
<sym>Dot</sym>
</trkpt>
<trkpt lat="39.675620" lon="-8.675323">
<ele>376.0</ele>
<desc>Speed 8.7 km/h Distance 72.35 km</desc>
<time>2011-05-22T13:17:11.53</time>
<name>16076</name>
<sym>Dot</sym>
</trkpt>
<trkpt lat="39.675600" lon="-8.675338">
<ele>376.0</ele>
<desc>Speed 8.7 km/h Distance 72.35 km</desc>
<time>2011-05-22T13:17:12.53</time>
<name>16077</name>
<sym>Dot</sym>
</trkpt>
<trkpt lat="39.675582" lon="-8.675352">
<ele>376.0</ele>
<desc>Speed 8.4 km/h Distance 72.36 km</desc>
<time>2011-05-22T13:17:13.53</time>
<name>16078</name>
<sym>Dot</sym>
</trkpt>
<trkpt lat="39.675563" lon="-8.675363">
<ele>377.0</ele>
<desc>Speed 7.7 km/h Distance 72.36 km</desc>
<time>2011-05-22T13:17:14.53</time>
<name>16079</name>
<sym>Dot</sym>
</trkpt>
<trkpt lat="39.675543" lon="-8.675377">
<ele>377.0</ele>
<desc>Speed 8.2 km/h Distance 72.36 km</desc>
<time>2011-05-22T13:17:15.53</time>
<name>16080</name>
<sym>Dot</sym>
</trkpt>
<trkpt lat="39.675525" lon="-8.675390">
<ele>377.0</ele>
<desc>Speed 8.3 km/h Distance 72.36 km</desc>
<time>2011-05-22T13:17:16.53</time>
<name>16081</name>
<sym>Dot</sym>
</trkpt>
<trkpt lat="39.675507" lon="-8.675402">
<ele>377.0</ele>
<desc>Speed 8.4 km/h Distance 72.37 km</desc>
<time>2011-05-22T13:17:17.53</time>
<name>16082</name>
<sym>Dot</sym>
</trkpt>
<trkpt lat="39.675487" lon="-8.675415">
<ele>377.0</ele>
<desc>Speed 8.4 km/h Distance 72.37 km</desc>
<time>2011-05-22T13:17:18.53</time>
<name>16083</name>
<sym>Dot</sym>
</trkpt>
<trkpt lat="39.675467" lon="-8.675428">
<ele>377.0</ele>
<desc>Speed 8.4 km/h Distance 72.37 km</desc>
<time>2011-05-22T13:17:19.53</time>
<name>16084</name>
<sym>Dot</sym>
</trkpt>
<trkpt lat="39.675448" lon="-8.675443">
<ele>377.5</ele>
<desc>Speed 7.9 km/h Distance 72.37 km</desc>
<time>2011-05-22T13:17:20.53</time>
<name>16085</name>
<sym>Dot</sym>
</trkpt>
<trkpt lat="39.675432" lon="-8.675460">
<ele>378.0</ele>
<desc>Speed 8.0 km/h Distance 72.38 km</desc>
<time>2011-05-22T13:17:21.53</time>
<name>16086</name>
<sym>Dot</sym>
</trkpt>
<trkpt lat="39.675415" lon="-8.675475">
<ele>379.0</ele>
<desc>Speed 7.3 km/h Distance 72.38 km</desc>
<time>2011-05-22T13:17:22.53</time>
<name>16087</name>
<sym>Dot</sym>
</trkpt>
<trkpt lat="39.675400" lon="-8.675488">
<ele>380.0</ele>
<desc>Speed 7.0 km/h Distance 72.38 km</desc>
<time>2011-05-22T13:17:23.53</time>
<name>16088</name>
<sym>Dot</sym>
</trkpt>
<trkpt lat="39.675383" lon="-8.675503">
<ele>381.0</ele>
<desc>Speed 7.0 km/h Distance 72.38 km</desc>
<time>2011-05-22T13:17:24.53</time>
<name>16089</name>
<sym>Dot</sym>
</trkpt>
<trkpt lat="39.675365" lon="-8.675517">
<ele>381.0</ele>
<desc>Speed 8.5 km/h Distance 72.38 km</desc>
<time>2011-05-22T13:17:25.53</time>
<name>16090</name>
<sym>Dot</sym>
</trkpt>
<trkpt lat="39.675347" lon="-8.675533">
<ele>381.0</ele>
<desc>Speed 8.6 km/h Distance 72.39 km</desc>
<time>2011-05-22T13:17:26.53</time>
<name>16091</name>
<sym>Dot</sym>
</trkpt>
<trkpt lat="39.675330" lon="-8.675548">
<ele>381.5</ele>
<desc>Speed 8.1 km/h Distance 72.39 km</desc>
<time>2011-05-22T13:17:27.53</time>
<name>16092</name>
<sym>Dot</sym>
</trkpt>
<trkpt lat="39.675310" lon="-8.675562">
<ele>381.5</ele>
<desc>Speed 8.6 km/h Distance 72.39 km</desc>
<time>2011-05-22T13:17:28.53</time>
<name>16093</name>
<sym>Dot</sym>
</trkpt>
<trkpt lat="39.675290" lon="-8.675575">
<ele>381.5</ele>
<desc>Speed 8.4 km/h Distance 72.39 km</desc>
<time>2011-05-22T13:17:29.53</time>
<name>16094</name>
<sym>Dot</sym>
</trkpt>
<trkpt lat="39.675268" lon="-8.675588">
<ele>381.5</ele>
<desc>Speed 8.7 km/h Distance 72.40 km</desc>
<time>2011-05-22T13:17:30.53</time>
<name>16095</name>
<sym>Dot</sym>
</trkpt>
<trkpt lat="39.675248" lon="-8.675602">
<ele>381.5</ele>
<desc>Speed 8.3 km/h Distance 72.40 km</desc>
<time>2011-05-22T13:17:31.53</time>
<name>16096</name>
<sym>Dot</sym>
</trkpt>
<trkpt lat="39.675228" lon="-8.675613">
<ele>382.0</ele>
<desc>Speed 8.1 km/h Distance 72.40 km</desc>
<time>2011-05-22T13:17:32.53</time>
<name>16097</name>
<sym>Dot</sym>
</trkpt>
<trkpt lat="39.675210" lon="-8.675623">
<ele>383.0</ele>
<desc>Speed 7.7 km/h Distance 72.40 km</desc>
<time>2011-05-22T13:17:33.53</time>
<name>16098</name>
<sym>Dot</sym>
</trkpt>
<trkpt lat="39.675192" lon="-8.675637">
<ele>383.5</ele>
<desc>Speed 7.5 km/h Distance 72.41 km</desc>
<time>2011-05-22T13:17:34.53</time>
<name>16099</name>
<sym>Dot</sym>
</trkpt>
<trkpt lat="39.675175" lon="-8.675648">
<ele>384.0</ele>
<desc>Speed 7.2 km/h Distance 72.41 km</desc>
<time>2011-05-22T13:17:35.53</time>
<name>16100</name>
<sym>Dot</sym>
</trkpt>
<trkpt lat="39.675157" lon="-8.675662">
<ele>384.5</ele>
<desc>Speed 8.0 km/h Distance 72.41 km</desc>
<time>2011-05-22T13:17:36.53</time>
<name>16101</name>
<sym>Dot</sym>
</trkpt>
<trkpt lat="39.675140" lon="-8.675673">
<ele>384.5</ele>
<desc>Speed 8.0 km/h Distance 72.41 km</desc>
<time>2011-05-22T13:17:37.53</time>
<name>16102</name>
<sym>Dot</sym>
</trkpt>
<trkpt lat="39.675120" lon="-8.675688">
<ele>384.5</ele>
<desc>Speed 8.4 km/h Distance 72.42 km</desc>
<time>2011-05-22T13:17:38.53</time>
<name>16103</name>
<sym>Dot</sym>
</trkpt>
<trkpt lat="39.675102" lon="-8.675698">
<ele>385.0</ele>
<desc>Speed 7.6 km/h Distance 72.42 km</desc>
<time>2011-05-22T13:17:39.53</time>
<name>16104</name>
<sym>Dot</sym>
</trkpt>
<trkpt lat="39.675082" lon="-8.675710">
<ele>385.0</ele>
<desc>Speed 7.8 km/h Distance 72.42 km</desc>
<time>2011-05-22T13:17:40.53</time>
<name>16105</name>
<sym>Dot</sym>
</trkpt>
<trkpt lat="39.675063" lon="-8.675717">
<ele>386.0</ele>
<desc>Speed 7.5 km/h Distance 72.42 km</desc>
<time>2011-05-22T13:17:41.53</time>
<name>16106</name>
<sym>Dot</sym>
</trkpt>
<trkpt lat="39.675043" lon="-8.675725">
<ele>386.5</ele>
<desc>Speed 8.0 km/h Distance 72.42 km</desc>
<time>2011-05-22T13:17:42.53</time>
<name>16107</name>
<sym>Dot</sym>
</trkpt>
<trkpt lat="39.675022" lon="-8.675737">
<ele>386.5</ele>
<desc>Speed 8.4 km/h Distance 72.43 km</desc>
<time>2011-05-22T13:17:43.53</time>
<name>16108</name>
<sym>Dot</sym>
</trkpt>
<trkpt lat="39.675003" lon="-8.675747">
<ele>387.0</ele>
<desc>Speed 8.2 km/h Distance 72.43 km</desc>
<time>2011-05-22T13:17:44.53</time>
<name>16109</name>
<sym>Dot</sym>
</trkpt>
<trkpt lat="39.674983" lon="-8.675757">
<ele>387.5</ele>
<desc>Speed 8.0 km/h Distance 72.43 km</desc>
<time>2011-05-22T13:17:45.53</time>
<name>16110</name>
<sym>Dot</sym>
</trkpt>
<trkpt lat="39.674965" lon="-8.675767">
<ele>388.5</ele>
<desc>Speed 7.8 km/h Distance 72.43 km</desc>
<time>2011-05-22T13:17:46.53</time>
<name>16111</name>
<sym>Dot</sym>
</trkpt>
<trkpt lat="39.674947" lon="-8.675778">
<ele>389.0</ele>
<desc>Speed 7.5 km/h Distance 72.44 km</desc>
<time>2011-05-22T13:17:47.53</time>
<name>16112</name>
<sym>Dot</sym>
</trkpt>
<trkpt lat="39.674927" lon="-8.675787">
<ele>390.0</ele>
<desc>Speed 7.8 km/h Distance 72.44 km</desc>
<time>2011-05-22T13:17:48.53</time>
<name>16113</name>
<sym>Dot</sym>
</trkpt>
<trkpt lat="39.674905" lon="-8.675798">
<ele>390.0</ele>
<desc>Speed 8.6 km/h Distance 72.44 km</desc>
<time>2011-05-22T13:17:49.53</time>
<name>16114</name>
<sym>Dot</sym>
</trkpt>
<trkpt lat="39.674887" lon="-8.675812">
<ele>390.0</ele>
<desc>Speed 8.4 km/h Distance 72.44 km</desc>
<time>2011-05-22T13:17:50.53</time>
<name>16115</name>
<sym>Dot</sym>
</trkpt>
<trkpt lat="39.674865" lon="-8.675827">
<ele>390.5</ele>
<desc>Speed 8.7 km/h Distance 72.45 km</desc>
<time>2011-05-22T13:17:51.53</time>
<name>16116</name>
<sym>Dot</sym>
</trkpt>
<trkpt lat="39.674843" lon="-8.675840">
<ele>390.5</ele>
<desc>Speed 8.8 km/h Distance 72.45 km</desc>
<time>2011-05-22T13:17:52.53</time>
<name>16117</name>
<sym>Dot</sym>
</trkpt>
<trkpt lat="39.674823" lon="-8.675853">
<ele>390.5</ele>
<desc>Speed 8.8 km/h Distance 72.45 km</desc>
<time>2011-05-22T13:17:53.53</time>
<name>16118</name>
<sym>Dot</sym>
</trkpt>
<trkpt lat="39.674803" lon="-8.675868">
<ele>390.5</ele>
<desc>Speed 8.7 km/h Distance 72.45 km</desc>
<time>2011-05-22T13:17:54.53</time>
<name>16119</name>
<sym>Dot</sym>
</trkpt>
<trkpt lat="39.674787" lon="-8.675880">
<ele>389.5</ele>
<desc>Speed 6.7 km/h Distance 72.46 km</desc>
<time>2011-05-22T13:17:55.53</time>
<name>16120</name>
<sym>Dot</sym>
</trkpt>
<trkpt lat="39.674767" lon="-8.675892">
<ele>390.5</ele>
<desc>Speed 7.1 km/h Distance 72.46 km</desc>
<time>2011-05-22T13:17:56.53</time>
<name>16121</name>
<sym>Dot</sym>
</trkpt>
<trkpt lat="39.674747" lon="-8.675907">
<ele>390.5</ele>
<desc>Speed 8.1 km/h Distance 72.46 km</desc>
<time>2011-05-22T13:17:57.53</time>
<name>16122</name>
<sym>Dot</sym>
</trkpt>
<trkpt lat="39.674727" lon="-8.675920">
<ele>391.0</ele>
<desc>Speed 8.0 km/h Distance 72.46 km</desc>
<time>2011-05-22T13:17:58.53</time>
<name>16123</name>
<sym>Dot</sym>
</trkpt>
<trkpt lat="39.674707" lon="-8.675933">
<ele>391.5</ele>
<desc>Speed 8.0 km/h Distance 72.47 km</desc>
<time>2011-05-22T13:17:59.53</time>
<name>16124</name>
<sym>Dot</sym>
</trkpt>
<trkpt lat="39.674688" lon="-8.675947">
<ele>392.5</ele>
<desc>Speed 7.5 km/h Distance 72.47 km</desc>
<time>2011-05-22T13:18:00.53</time>
<name>16125</name>
<sym>Dot</sym>
</trkpt>
<trkpt lat="39.674672" lon="-8.675958">
<ele>393.5</ele>
<desc>Speed 7.1 km/h Distance 72.47 km</desc>
<time>2011-05-22T13:18:01.53</time>
<name>16126</name>
<sym>Dot</sym>
</trkpt>
<trkpt lat="39.674655" lon="-8.675967">
<ele>395.0</ele>
<desc>Speed 6.6 km/h Distance 72.47 km</desc>
<time>2011-05-22T13:18:02.53</time>
<name>16127</name>
<sym>Dot</sym>
</trkpt>
<trkpt lat="39.674637" lon="-8.675977">
<ele>396.0</ele>
<desc>Speed 7.5 km/h Distance 72.47 km</desc>
<time>2011-05-22T13:18:03.53</time>
<name>16128</name>
<sym>Dot</sym>
</trkpt>
<trkpt lat="39.674618" lon="-8.675990">
<ele>396.5</ele>
<desc>Speed 7.8 km/h Distance 72.48 km</desc>
<time>2011-05-22T13:18:04.53</time>
<name>16129</name>
<sym>Dot</sym>
</trkpt>
<trkpt lat="39.674598" lon="-8.676003">
<ele>397.0</ele>
<desc>Speed 8.4 km/h Distance 72.48 km</desc>
<time>2011-05-22T13:18:05.53</time>
<name>16130</name>
<sym>Dot</sym>
</trkpt>
<trkpt lat="39.674577" lon="-8.676027">
<ele>395.0</ele>
<desc>Speed 8.8 km/h Distance 72.48 km</desc>
<time>2011-05-22T13:18:06.53</time>
<name>16131</name>
<sym>Dot</sym>
</trkpt>
<trkpt lat="39.674557" lon="-8.676043">
<ele>394.5</ele>
<desc>Speed 8.4 km/h Distance 72.49 km</desc>
<time>2011-05-22T13:18:07.53</time>
<name>16132</name>
<sym>Dot</sym>
</trkpt>
<trkpt lat="39.674535" lon="-8.676058">
<ele>394.0</ele>
<desc>Speed 9.3 km/h Distance 72.49 km</desc>
<time>2011-05-22T13:18:08.53</time>
<name>16133</name>
<sym>Dot</sym>
</trkpt>
<trkpt lat="39.674512" lon="-8.676073">
<ele>394.0</ele>
<desc>Speed 9.3 km/h Distance 72.49 km</desc>
<time>2011-05-22T13:18:09.53</time>
<name>16134</name>
<sym>Dot</sym>
</trkpt>
<trkpt lat="39.674492" lon="-8.676088">
<ele>394.0</ele>
<desc>Speed 8.9 km/h Distance 72.49 km</desc>
<time>2011-05-22T13:18:10.53</time>
<name>16135</name>
<sym>Dot</sym>
</trkpt>
<trkpt lat="39.674472" lon="-8.676102">
<ele>394.0</ele>
<desc>Speed 8.2 km/h Distance 72.50 km</desc>
<time>2011-05-22T13:18:11.53</time>
<name>16136</name>
<sym>Dot</sym>
</trkpt>
<trkpt lat="39.674453" lon="-8.676118">
<ele>394.5</ele>
<desc>Speed 8.2 km/h Distance 72.50 km</desc>
<time>2011-05-22T13:18:12.53</time>
<name>16137</name>
<sym>Dot</sym>
</trkpt>
<trkpt lat="39.674433" lon="-8.676132">
<ele>394.5</ele>
<desc>Speed 8.2 km/h Distance 72.50 km</desc>
<time>2011-05-22T13:18:13.53</time>
<name>16138</name>
<sym>Dot</sym>
</trkpt>
<trkpt lat="39.674415" lon="-8.676145">
<ele>395.0</ele>
<desc>Speed 7.8 km/h Distance 72.50 km</desc>
<time>2011-05-22T13:18:14.53</time>
<name>16139</name>
<sym>Dot</sym>
</trkpt>
<trkpt lat="39.674395" lon="-8.676158">
<ele>395.0</ele>
<desc>Speed 8.2 km/h Distance 72.51 km</desc>
<time>2011-05-22T13:18:15.53</time>
<name>16140</name>
<sym>Dot</sym>
</trkpt>
<trkpt lat="39.674375" lon="-8.676173">
<ele>395.0</ele>
<desc>Speed 8.1 km/h Distance 72.51 km</desc>
<time>2011-05-22T13:18:16.53</time>
<name>16141</name>
<sym>Dot</sym>
</trkpt>
<trkpt lat="39.674353" lon="-8.676188">
<ele>395.0</ele>
<desc>Speed 8.7 km/h Distance 72.51 km</desc>
<time>2011-05-22T13:18:17.53</time>
<name>16142</name>
<sym>Dot</sym>
</trkpt>
<trkpt lat="39.674332" lon="-8.676203">
<ele>394.5</ele>
<desc>Speed 8.9 km/h Distance 72.51 km</desc>
<time>2011-05-22T13:18:18.53</time>
<name>16143</name>
<sym>Dot</sym>
</trkpt>
<trkpt lat="39.674310" lon="-8.676220">
<ele>394.5</ele>
<desc>Speed 8.8 km/h Distance 72.52 km</desc>
<time>2011-05-22T13:18:19.53</time>
<name>16144</name>
<sym>Dot</sym>
</trkpt>
<trkpt lat="39.674290" lon="-8.676233">
<ele>395.0</ele>
<desc>Speed 8.5 km/h Distance 72.52 km</desc>
<time>2011-05-22T13:18:20.53</time>
<name>16145</name>
<sym>Dot</sym>
</trkpt>
<trkpt lat="39.674270" lon="-8.676252">
<ele>394.0</ele>
<desc>Speed 8.4 km/h Distance 72.52 km</desc>
<time>2011-05-22T13:18:21.53</time>
<name>16146</name>
<sym>Dot</sym>
</trkpt>
<trkpt lat="39.674252" lon="-8.676265">
<ele>394.5</ele>
<desc>Speed 8.2 km/h Distance 72.52 km</desc>
<time>2011-05-22T13:18:22.53</time>
<name>16147</name>
<sym>Dot</sym>
</trkpt>
<trkpt lat="39.674232" lon="-8.676278">
<ele>394.5</ele>
<desc>Speed 8.1 km/h Distance 72.53 km</desc>
<time>2011-05-22T13:18:23.53</time>
<name>16148</name>
<sym>Dot</sym>
</trkpt>
<trkpt lat="39.674210" lon="-8.676295">
<ele>394.0</ele>
<desc>Speed 8.6 km/h Distance 72.53 km</desc>
<time>2011-05-22T13:18:24.53</time>
<name>16149</name>
<sym>Dot</sym>
</trkpt>
<trkpt lat="39.674190" lon="-8.676308">
<ele>394.0</ele>
<desc>Speed 8.4 km/h Distance 72.53 km</desc>
<time>2011-05-22T13:18:25.53</time>
<name>16150</name>
<sym>Dot</sym>
</trkpt>
<trkpt lat="39.674172" lon="-8.676322">
<ele>395.0</ele>
<desc>Speed 7.8 km/h Distance 72.53 km</desc>
<time>2011-05-22T13:18:26.53</time>
<name>16151</name>
<sym>Dot</sym>
</trkpt>
<trkpt lat="39.674153" lon="-8.676333">
<ele>395.0</ele>
<desc>Speed 7.6 km/h Distance 72.54 km</desc>
<time>2011-05-22T13:18:27.53</time>
<name>16152</name>
<sym>Dot</sym>
</trkpt>
<trkpt lat="39.674137" lon="-8.676348">
<ele>395.5</ele>
<desc>Speed 7.5 km/h Distance 72.54 km</desc>
<time>2011-05-22T13:18:28.53</time>
<name>16153</name>
<sym>Dot</sym>
</trkpt>
<trkpt lat="39.674115" lon="-8.676360">
<ele>395.0</ele>
<desc>Speed 8.5 km/h Distance 72.54 km</desc>
<time>2011-05-22T13:18:29.53</time>
<name>16154</name>
<sym>Dot</sym>
</trkpt>
<trkpt lat="39.674095" lon="-8.676375">
<ele>395.0</ele>
<desc>Speed 8.9 km/h Distance 72.54 km</desc>
<time>2011-05-22T13:18:30.53</time>
<name>16155</name>
<sym>Dot</sym>
</trkpt>
<trkpt lat="39.674075" lon="-8.676390">
<ele>395.0</ele>
<desc>Speed 7.9 km/h Distance 72.55 km</desc>
<time>2011-05-22T13:18:31.53</time>
<name>16156</name>
<sym>Dot</sym>
</trkpt>
<trkpt lat="39.674055" lon="-8.676402">
<ele>395.5</ele>
<desc>Speed 8.0 km/h Distance 72.55 km</desc>
<time>2011-05-22T13:18:32.53</time>
<name>16157</name>
<sym>Dot</sym>
</trkpt>
<trkpt lat="39.674035" lon="-8.676417">
<ele>395.5</ele>
<desc>Speed 8.4 km/h Distance 72.55 km</desc>
<time>2011-05-22T13:18:33.53</time>
<name>16158</name>
<sym>Dot</sym>
</trkpt>
<trkpt lat="39.674015" lon="-8.676430">
<ele>395.0</ele>
<desc>Speed 8.4 km/h Distance 72.55 km</desc>
<time>2011-05-22T13:18:34.53</time>
<name>16159</name>
<sym>Dot</sym>
</trkpt>
<trkpt lat="39.673995" lon="-8.676443">
<ele>395.0</ele>
<desc>Speed 8.1 km/h Distance 72.56 km</desc>
<time>2011-05-22T13:18:35.53</time>
<name>16160</name>
<sym>Dot</sym>
</trkpt>
<trkpt lat="39.673975" lon="-8.676458">
<ele>395.0</ele>
<desc>Speed 8.4 km/h Distance 72.56 km</desc>
<time>2011-05-22T13:18:36.53</time>
<name>16161</name>
<sym>Dot</sym>
</trkpt>
<trkpt lat="39.673955" lon="-8.676472">
<ele>394.5</ele>
<desc>Speed 8.5 km/h Distance 72.56 km</desc>
<time>2011-05-22T13:18:37.53</time>
<name>16162</name>
<sym>Dot</sym>
</trkpt>
<trkpt lat="39.673933" lon="-8.676488">
<ele>394.0</ele>
<desc>Speed 8.6 km/h Distance 72.56 km</desc>
<time>2011-05-22T13:18:38.53</time>
<name>16163</name>
<sym>Dot</sym>
</trkpt>
<trkpt lat="39.673915" lon="-8.676505">
<ele>393.5</ele>
<desc>Speed 8.1 km/h Distance 72.57 km</desc>
<time>2011-05-22T13:18:39.53</time>
<name>16164</name>
<sym>Dot</sym>
</trkpt>
<trkpt lat="39.673895" lon="-8.676518">
<ele>393.5</ele>
<desc>Speed 7.6 km/h Distance 72.57 km</desc>
<time>2011-05-22T13:18:40.53</time>
<name>16165</name>
<sym>Dot</sym>
</trkpt>
<trkpt lat="39.673878" lon="-8.676532">
<ele>394.0</ele>
<desc>Speed 7.3 km/h Distance 72.57 km</desc>
<time>2011-05-22T13:18:41.53</time>
<name>16166</name>
<sym>Dot</sym>
</trkpt>
<trkpt lat="39.673860" lon="-8.676547">
<ele>394.5</ele>
<desc>Speed 7.4 km/h Distance 72.57 km</desc>
<time>2011-05-22T13:18:42.53</time>
<name>16167</name>
<sym>Dot</sym>
</trkpt>
<trkpt lat="39.673843" lon="-8.676560">
<ele>395.0</ele>
<desc>Speed 7.5 km/h Distance 72.58 km</desc>
<time>2011-05-22T13:18:43.53</time>
<name>16168</name>
<sym>Dot</sym>
</trkpt>
<trkpt lat="39.673823" lon="-8.676573">
<ele>395.0</ele>
<desc>Speed 8.1 km/h Distance 72.58 km</desc>
<time>2011-05-22T13:18:44.53</time>
<name>16169</name>
<sym>Dot</sym>
</trkpt>
<trkpt lat="39.673803" lon="-8.676587">
<ele>395.5</ele>
<desc>Speed 8.4 km/h Distance 72.58 km</desc>
<time>2011-05-22T13:18:45.53</time>
<name>16170</name>
<sym>Dot</sym>
</trkpt>
<trkpt lat="39.673782" lon="-8.676602">
<ele>395.5</ele>
<desc>Speed 8.6 km/h Distance 72.58 km</desc>
<time>2011-05-22T13:18:46.53</time>
<name>16171</name>
<sym>Dot</sym>
</trkpt>
<trkpt lat="39.673762" lon="-8.676617">
<ele>396.5</ele>
<desc>Speed 8.4 km/h Distance 72.59 km</desc>
<time>2011-05-22T13:18:47.53</time>
<name>16172</name>
<sym>Dot</sym>
</trkpt>
<trkpt lat="39.673742" lon="-8.676632">
<ele>397.0</ele>
<desc>Speed 8.7 km/h Distance 72.59 km</desc>
<time>2011-05-22T13:18:48.53</time>
<name>16173</name>
<sym>Dot</sym>
</trkpt>
<trkpt lat="39.673718" lon="-8.676650">
<ele>397.0</ele>
<desc>Speed 9.9 km/h Distance 72.59 km</desc>
<time>2011-05-22T13:18:49.53</time>
<name>16174</name>
<sym>Dot</sym>
</trkpt>
<trkpt lat="39.673695" lon="-8.676665">
<ele>397.0</ele>
<desc>Speed 9.7 km/h Distance 72.60 km</desc>
<time>2011-05-22T13:18:50.53</time>
<name>16175</name>
<sym>Dot</sym>
</trkpt>
<trkpt lat="39.673672" lon="-8.676682">
<ele>396.5</ele>
<desc>Speed 9.9 km/h Distance 72.60 km</desc>
<time>2011-05-22T13:18:51.53</time>
<name>16176</name>
<sym>Dot</sym>
</trkpt>
<trkpt lat="39.673647" lon="-8.676698">
<ele>396.5</ele>
<desc>Speed 10.0 km/h Distance 72.60 km</desc>
<time>2011-05-22T13:18:52.53</time>
<name>16177</name>
<sym>Dot</sym>
</trkpt>
<trkpt lat="39.673623" lon="-8.676713">
<ele>396.5</ele>
<desc>Speed 10.0 km/h Distance 72.60 km</desc>
<time>2011-05-22T13:18:53.53</time>
<name>16178</name>
<sym>Dot</sym>
</trkpt>
<trkpt lat="39.673598" lon="-8.676730">
<ele>396.5</ele>
<desc>Speed 10.0 km/h Distance 72.61 km</desc>
<time>2011-05-22T13:18:54.53</time>
<name>16179</name>
<sym>Dot</sym>
</trkpt>
<trkpt lat="39.673575" lon="-8.676747">
<ele>396.0</ele>
<desc>Speed 9.9 km/h Distance 72.61 km</desc>
<time>2011-05-22T13:18:55.53</time>
<name>16180</name>
<sym>Dot</sym>
</trkpt>
<trkpt lat="39.673552" lon="-8.676763">
<ele>396.0</ele>
<desc>Speed 9.9 km/h Distance 72.61 km</desc>
<time>2011-05-22T13:18:56.53</time>
<name>16181</name>
<sym>Dot</sym>
</trkpt>
<trkpt lat="39.673530" lon="-8.676777">
<ele>396.0</ele>
<desc>Speed 9.3 km/h Distance 72.62 km</desc>
<time>2011-05-22T13:18:57.53</time>
<name>16182</name>
<sym>Dot</sym>
</trkpt>
<trkpt lat="39.673507" lon="-8.676792">
<ele>396.0</ele>
<desc>Speed 9.5 km/h Distance 72.62 km</desc>
<time>2011-05-22T13:18:58.53</time>
<name>16183</name>
<sym>Dot</sym>
</trkpt>
<trkpt lat="39.673485" lon="-8.676808">
<ele>396.0</ele>
<desc>Speed 10.2 km/h Distance 72.62 km</desc>
<time>2011-05-22T13:18:59.53</time>
<name>16184</name>
<sym>Dot</sym>
</trkpt>
<trkpt lat="39.673462" lon="-8.676825">
<ele>396.0</ele>
<desc>Speed 10.0 km/h Distance 72.62 km</desc>
<time>2011-05-22T13:19:00.53</time>
<name>16185</name>
<sym>Dot</sym>
</trkpt>
<trkpt lat="39.673440" lon="-8.676838">
<ele>396.0</ele>
<desc>Speed 9.1 km/h Distance 72.63 km</desc>
<time>2011-05-22T13:19:01.53</time>
<name>16186</name>
<sym>Dot</sym>
</trkpt>
<trkpt lat="39.673420" lon="-8.676852">
<ele>395.5</ele>
<desc>Speed 8.0 km/h Distance 72.63 km</desc>
<time>2011-05-22T13:19:02.53</time>
<name>16187</name>
<sym>Dot</sym>
</trkpt>
<trkpt lat="39.673403" lon="-8.676865">
<ele>395.5</ele>
<desc>Speed 7.1 km/h Distance 72.63 km</desc>
<time>2011-05-22T13:19:03.53</time>
<name>16188</name>
<sym>Dot</sym>
</trkpt>
<trkpt lat="39.673385" lon="-8.676880">
<ele>395.0</ele>
<desc>Speed 8.1 km/h Distance 72.63 km</desc>
<time>2011-05-22T13:19:04.53</time>
<name>16189</name>
<sym>Dot</sym>
</trkpt>
<trkpt lat="39.673363" lon="-8.676898">
<ele>394.5</ele>
<desc>Speed 9.5 km/h Distance 72.64 km</desc>
<time>2011-05-22T13:19:05.53</time>
<name>16190</name>
<sym>Dot</sym>
</trkpt>
<trkpt lat="39.673342" lon="-8.676915">
<ele>394.5</ele>
<desc>Speed 9.8 km/h Distance 72.64 km</desc>
<time>2011-05-22T13:19:06.53</time>
<name>16191</name>
<sym>Dot</sym>
</trkpt>
<trkpt lat="39.673318" lon="-8.676933">
<ele>394.5</ele>
<desc>Speed 10.1 km/h Distance 72.64 km</desc>
<time>2011-05-22T13:19:07.53</time>
<name>16192</name>
<sym>Dot</sym>
</trkpt>
<trkpt lat="39.673293" lon="-8.676955">
<ele>394.5</ele>
<desc>Speed 11.1 km/h Distance 72.65 km</desc>
<time>2011-05-22T13:19:08.53</time>
<name>16193</name>
<sym>Dot</sym>
</trkpt>
<trkpt lat="39.673267" lon="-8.676975">
<ele>394.0</ele>
<desc>Speed 11.4 km/h Distance 72.65 km</desc>
<time>2011-05-22T13:19:09.53</time>
<name>16194</name>
<sym>Dot</sym>
</trkpt>
<trkpt lat="39.673242" lon="-8.676990">
<ele>394.5</ele>
<desc>Speed 11.3 km/h Distance 72.65 km</desc>
<time>2011-05-22T13:19:10.53</time>
<name>16195</name>
<sym>Dot</sym>
</trkpt>
<trkpt lat="39.673215" lon="-8.677003">
<ele>394.0</ele>
<desc>Speed 11.1 km/h Distance 72.66 km</desc>
<time>2011-05-22T13:19:11.53</time>
<name>16196</name>
<sym>Dot</sym>
</trkpt>
<trkpt lat="39.673188" lon="-8.677020">
<ele>394.0</ele>
<desc>Speed 11.0 km/h Distance 72.66 km</desc>
<time>2011-05-22T13:19:12.53</time>
<name>16197</name>
<sym>Dot</sym>
</trkpt>
<trkpt lat="39.673163" lon="-8.677040">
<ele>393.5</ele>
<desc>Speed 11.2 km/h Distance 72.66 km</desc>
<time>2011-05-22T13:19:13.53</time>
<name>16198</name>
<sym>Dot</sym>
</trkpt>
<trkpt lat="39.673137" lon="-8.677058">
<ele>393.5</ele>
<desc>Speed 11.5 km/h Distance 72.67 km</desc>
<time>2011-05-22T13:19:14.53</time>
<name>16199</name>
<sym>Dot</sym>
</trkpt>
<trkpt lat="39.673110" lon="-8.677080">
<ele>393.0</ele>
<desc>Speed 11.7 km/h Distance 72.67 km</desc>
<time>2011-05-22T13:19:15.53</time>
<name>16200</name>
<sym>Dot</sym>
</trkpt>
<trkpt lat="39.673082" lon="-8.677103">
<ele>392.5</ele>
<desc>Speed 11.8 km/h Distance 72.67 km</desc>
<time>2011-05-22T13:19:16.53</time>
<name>16201</name>
<sym>Dot</sym>
</trkpt>
<trkpt lat="39.673055" lon="-8.677122">
<ele>392.0</ele>
<desc>Speed 11.7 km/h Distance 72.68 km</desc>
<time>2011-05-22T13:19:17.53</time>
<name>16202</name>
<sym>Dot</sym>
</trkpt>
<trkpt lat="39.673027" lon="-8.677142">
<ele>392.0</ele>
<desc>Speed 12.1 km/h Distance 72.68 km</desc>
<time>2011-05-22T13:19:18.53</time>
<name>16203</name>
<sym>Dot</sym>
</trkpt>
<trkpt lat="39.672998" lon="-8.677160">
<ele>392.0</ele>
<desc>Speed 11.8 km/h Distance 72.68 km</desc>
<time>2011-05-22T13:19:19.53</time>
<name>16204</name>
<sym>Dot</sym>
</trkpt>
<trkpt lat="39.672970" lon="-8.677182">
<ele>392.0</ele>
<desc>Speed 12.1 km/h Distance 72.69 km</desc>
<time>2011-05-22T13:19:20.53</time>
<name>16205</name>
<sym>Dot</sym>
</trkpt>
<trkpt lat="39.672942" lon="-8.677200">
<ele>392.0</ele>
<desc>Speed 12.0 km/h Distance 72.69 km</desc>
<time>2011-05-22T13:19:21.53</time>
<name>16206</name>
<sym>Dot</sym>
</trkpt>
<trkpt lat="39.672915" lon="-8.677218">
<ele>392.0</ele>
<desc>Speed 11.5 km/h Distance 72.69 km</desc>
<time>2011-05-22T13:19:22.53</time>
<name>16207</name>
<sym>Dot</sym>
</trkpt>
<trkpt lat="39.672888" lon="-8.677238">
<ele>391.5</ele>
<desc>Speed 11.6 km/h Distance 72.70 km</desc>
<time>2011-05-22T13:19:23.53</time>
<name>16208</name>
<sym>Dot</sym>
</trkpt>
<trkpt lat="39.672862" lon="-8.677260">
<ele>391.5</ele>
<desc>Speed 11.7 km/h Distance 72.70 km</desc>
<time>2011-05-22T13:19:24.53</time>
<name>16209</name>
<sym>Dot</sym>
</trkpt>
<trkpt lat="39.672837" lon="-8.677283">
<ele>391.0</ele>
<desc>Speed 11.7 km/h Distance 72.70 km</desc>
<time>2011-05-22T13:19:25.53</time>
<name>16210</name>
<sym>Dot</sym>
</trkpt>
<trkpt lat="39.672810" lon="-8.677305">
<ele>390.5</ele>
<desc>Speed 11.7 km/h Distance 72.71 km</desc>
<time>2011-05-22T13:19:26.53</time>
<name>16211</name>
<sym>Dot</sym>
</trkpt>
<trkpt lat="39.672783" lon="-8.677328">
<ele>390.5</ele>
<desc>Speed 11.9 km/h Distance 72.71 km</desc>
<time>2011-05-22T13:19:27.53</time>
<name>16212</name>
<sym>Dot</sym>
</trkpt>
<trkpt lat="39.672758" lon="-8.677350">
<ele>390.5</ele>
<desc>Speed 11.6 km/h Distance 72.72 km</desc>
<time>2011-05-22T13:19:28.53</time>
<name>16213</name>
<sym>Dot</sym>
</trkpt>
<trkpt lat="39.672733" lon="-8.677375">
<ele>390.5</ele>
<desc>Speed 12.2 km/h Distance 72.72 km</desc>
<time>2011-05-22T13:19:29.53</time>
<name>16214</name>
<sym>Dot</sym>
</trkpt>
<trkpt lat="39.672708" lon="-8.677403">
<ele>390.5</ele>
<desc>Speed 12.6 km/h Distance 72.72 km</desc>
<time>2011-05-22T13:19:30.53</time>
<name>16215</name>
<sym>Dot</sym>
</trkpt>
<trkpt lat="39.672682" lon="-8.677432">
<ele>390.0</ele>
<desc>Speed 13.4 km/h Distance 72.73 km</desc>
<time>2011-05-22T13:19:31.53</time>
<name>16216</name>
<sym>Dot</sym>
</trkpt>
<trkpt lat="39.672653" lon="-8.677462">
<ele>390.0</ele>
<desc>Speed 13.5 km/h Distance 72.73 km</desc>
<time>2011-05-22T13:19:32.53</time>
<name>16217</name>
<sym>Dot</sym>
</trkpt>
<trkpt lat="39.672627" lon="-8.677493">
<ele>389.5</ele>
<desc>Speed 13.8 km/h Distance 72.73 km</desc>
<time>2011-05-22T13:19:33.53</time>
<name>16218</name>
<sym>Dot</sym>
</trkpt>
<trkpt lat="39.672600" lon="-8.677525">
<ele>389.0</ele>
<desc>Speed 13.5 km/h Distance 72.74 km</desc>
<time>2011-05-22T13:19:34.53</time>
<name>16219</name>
<sym>Dot</sym>
</trkpt>
<trkpt lat="39.672575" lon="-8.677557">
<ele>388.5</ele>
<desc>Speed 13.4 km/h Distance 72.74 km</desc>
<time>2011-05-22T13:19:35.53</time>
<name>16220</name>
<sym>Dot</sym>
</trkpt>
<trkpt lat="39.672548" lon="-8.677592">
<ele>387.5</ele>
<desc>Speed 14.0 km/h Distance 72.75 km</desc>
<time>2011-05-22T13:19:36.53</time>
<name>16221</name>
<sym>Dot</sym>
</trkpt>
<trkpt lat="39.672522" lon="-8.677628">
<ele>386.5</ele>
<desc>Speed 14.3 km/h Distance 72.75 km</desc>
<time>2011-05-22T13:19:37.53</time>
<name>16222</name>
<sym>Dot</sym>
</trkpt>
<trkpt lat="39.672497" lon="-8.677667">
<ele>386.0</ele>
<desc>Speed 14.3 km/h Distance 72.76 km</desc>
<time>2011-05-22T13:19:38.53</time>
<name>16223</name>
<sym>Dot</sym>
</trkpt>
<trkpt lat="39.672472" lon="-8.677703">
<ele>385.5</ele>
<desc>Speed 14.4 km/h Distance 72.76 km</desc>
<time>2011-05-22T13:19:39.53</time>
<name>16224</name>
<sym>Dot</sym>
</trkpt>
<trkpt lat="39.672448" lon="-8.677740">
<ele>385.0</ele>
<desc>Speed 14.5 km/h Distance 72.76 km</desc>
<time>2011-05-22T13:19:40.53</time>
<name>16225</name>
<sym>Dot</sym>
</trkpt>
<trkpt lat="39.672423" lon="-8.677778">
<ele>385.0</ele>
<desc>Speed 14.6 km/h Distance 72.77 km</desc>
<time>2011-05-22T13:19:41.53</time>
<name>16226</name>
<sym>Dot</sym>
</trkpt>
<trkpt lat="39.672403" lon="-8.677818">
<ele>384.5</ele>
<desc>Speed 14.4 km/h Distance 72.77 km</desc>
<time>2011-05-22T13:19:42.53</time>
<name>16227</name>
<sym>Dot</sym>
</trkpt>
<trkpt lat="39.672382" lon="-8.677860">
<ele>384.0</ele>
<desc>Speed 14.7 km/h Distance 72.78 km</desc>
<time>2011-05-22T13:19:43.53</time>
<name>16228</name>
<sym>Dot</sym>
</trkpt>
<trkpt lat="39.672358" lon="-8.677897">
<ele>384.0</ele>
<desc>Speed 14.4 km/h Distance 72.78 km</desc>
<time>2011-05-22T13:19:44.53</time>
<name>16229</name>
<sym>Dot</sym>
</trkpt>
<trkpt lat="39.672337" lon="-8.677937">
<ele>383.5</ele>
<desc>Speed 14.4 km/h Distance 72.78 km</desc>
<time>2011-05-22T13:19:45.53</time>
<name>16230</name>
<sym>Dot</sym>
</trkpt>
<trkpt lat="39.672310" lon="-8.677973">
<ele>382.5</ele>
<desc>Speed 14.3 km/h Distance 72.79 km</desc>
<time>2011-05-22T13:19:46.53</time>
<name>16231</name>
<sym>Dot</sym>
</trkpt>
<trkpt lat="39.672288" lon="-8.678012">
<ele>382.5</ele>
<desc>Speed 14.3 km/h Distance 72.79 km</desc>
<time>2011-05-22T13:19:47.53</time>
<name>16232</name>
<sym>Dot</sym>
</trkpt>
<trkpt lat="39.672263" lon="-8.678048">
<ele>382.0</ele>
<desc>Speed 14.2 km/h Distance 72.80 km</desc>
<time>2011-05-22T13:19:48.53</time>
<name>16233</name>
<sym>Dot</sym>
</trkpt>
<trkpt lat="39.672240" lon="-8.678087">
<ele>381.0</ele>
<desc>Speed 14.0 km/h Distance 72.80 km</desc>
<time>2011-05-22T13:19:49.53</time>
<name>16234</name>
<sym>Dot</sym>
</trkpt>
<trkpt lat="39.672217" lon="-8.678123">
<ele>381.0</ele>
<desc>Speed 13.6 km/h Distance 72.81 km</desc>
<time>2011-05-22T13:19:50.53</time>
<name>16235</name>
<sym>Dot</sym>
</trkpt>
<trkpt lat="39.672195" lon="-8.678160">
<ele>380.5</ele>
<desc>Speed 13.6 km/h Distance 72.81 km</desc>
<time>2011-05-22T13:19:51.53</time>
<name>16236</name>
<sym>Dot</sym>
</trkpt>
<trkpt lat="39.672173" lon="-8.678197">
<ele>380.5</ele>
<desc>Speed 13.7 km/h Distance 72.81 km</desc>
<time>2011-05-22T13:19:52.53</time>
<name>16237</name>
<sym>Dot</sym>
</trkpt>
<trkpt lat="39.672150" lon="-8.678233">
<ele>380.0</ele>
<desc>Speed 13.8 km/h Distance 72.82 km</desc>
<time>2011-05-22T13:19:53.53</time>
<name>16238</name>
<sym>Dot</sym>
</trkpt>
<trkpt lat="39.672127" lon="-8.678270">
<ele>379.5</ele>
<desc>Speed 13.9 km/h Distance 72.82 km</desc>
<time>2011-05-22T13:19:54.53</time>
<name>16239</name>
<sym>Dot</sym>
</trkpt>
<trkpt lat="39.672103" lon="-8.678305">
<ele>379.5</ele>
<desc>Speed 14.0 km/h Distance 72.83 km</desc>
<time>2011-05-22T13:19:55.53</time>
<name>16240</name>
<sym>Dot</sym>
</trkpt>
<trkpt lat="39.672082" lon="-8.678342">
<ele>379.5</ele>
<desc>Speed 14.0 km/h Distance 72.83 km</desc>
<time>2011-05-22T13:19:56.53</time>
<name>16241</name>
<sym>Dot</sym>
</trkpt>
<trkpt lat="39.672058" lon="-8.678377">
<ele>379.0</ele>
<desc>Speed 14.1 km/h Distance 72.83 km</desc>
<time>2011-05-22T13:19:57.53</time>
<name>16242</name>
<sym>Dot</sym>
</trkpt>
<trkpt lat="39.672035" lon="-8.678415">
<ele>379.0</ele>
<desc>Speed 14.3 km/h Distance 72.84 km</desc>
<time>2011-05-22T13:19:58.53</time>
<name>16243</name>
<sym>Dot</sym>
</trkpt>
<trkpt lat="39.672010" lon="-8.678453">
<ele>378.5</ele>
<desc>Speed 14.3 km/h Distance 72.84 km</desc>
<time>2011-05-22T13:19:59.53</time>
<name>16244</name>
<sym>Dot</sym>
</trkpt>
<trkpt lat="39.671988" lon="-8.678490">
<ele>378.0</ele>
<desc>Speed 14.2 km/h Distance 72.85 km</desc>
<time>2011-05-22T13:20:00.53</time>
<name>16245</name>
<sym>Dot</sym>
</trkpt>
<trkpt lat="39.671965" lon="-8.678528">
<ele>378.0</ele>
<desc>Speed 14.2 km/h Distance 72.85 km</desc>
<time>2011-05-22T13:20:01.53</time>
<name>16246</name>
<sym>Dot</sym>
</trkpt>
<trkpt lat="39.671942" lon="-8.678563">
<ele>378.0</ele>
<desc>Speed 13.8 km/h Distance 72.85 km</desc>
<time>2011-05-22T13:20:02.53</time>
<name>16247</name>
<sym>Dot</sym>
</trkpt>
<trkpt lat="39.671920" lon="-8.678597">
<ele>378.0</ele>
<desc>Speed 13.6 km/h Distance 72.86 km</desc>
<time>2011-05-22T13:20:03.53</time>
<name>16248</name>
<sym>Dot</sym>
</trkpt>
<trkpt lat="39.671897" lon="-8.678633">
<ele>378.0</ele>
<desc>Speed 13.8 km/h Distance 72.86 km</desc>
<time>2011-05-22T13:20:04.53</time>
<name>16249</name>
<sym>Dot</sym>
</trkpt>
<trkpt lat="39.671873" lon="-8.678667">
<ele>377.5</ele>
<desc>Speed 13.9 km/h Distance 72.87 km</desc>
<time>2011-05-22T13:20:05.53</time>
<name>16250</name>
<sym>Dot</sym>
</trkpt>
<trkpt lat="39.671852" lon="-8.678700">
<ele>378.0</ele>
<desc>Speed 13.2 km/h Distance 72.87 km</desc>
<time>2011-05-22T13:20:06.53</time>
<name>16251</name>
<sym>Dot</sym>
</trkpt>
<trkpt lat="39.671830" lon="-8.678735">
<ele>378.0</ele>
<desc>Speed 13.1 km/h Distance 72.87 km</desc>
<time>2011-05-22T13:20:07.53</time>
<name>16252</name>
<sym>Dot</sym>
</trkpt>
<trkpt lat="39.671808" lon="-8.678772">
<ele>378.0</ele>
<desc>Speed 13.8 km/h Distance 72.88 km</desc>
<time>2011-05-22T13:20:08.53</time>
<name>16253</name>
<sym>Dot</sym>
</trkpt>
<trkpt lat="39.671788" lon="-8.678808">
<ele>378.0</ele>
<desc>Speed 13.6 km/h Distance 72.88 km</desc>
<time>2011-05-22T13:20:09.53</time>
<name>16254</name>
<sym>Dot</sym>
</trkpt>
<trkpt lat="39.671767" lon="-8.678847">
<ele>378.0</ele>
<desc>Speed 14.0 km/h Distance 72.88 km</desc>
<time>2011-05-22T13:20:10.53</time>
<name>16255</name>
<sym>Dot</sym>
</trkpt>
<trkpt lat="39.671745" lon="-8.678885">
<ele>378.0</ele>
<desc>Speed 14.3 km/h Distance 72.89 km</desc>
<time>2011-05-22T13:20:11.53</time>
<name>16256</name>
<sym>Dot</sym>
</trkpt>
<trkpt lat="39.671723" lon="-8.678920">
<ele>378.0</ele>
<desc>Speed 14.0 km/h Distance 72.89 km</desc>
<time>2011-05-22T13:20:12.53</time>
<name>16257</name>
<sym>Dot</sym>
</trkpt>
<trkpt lat="39.671702" lon="-8.678958">
<ele>378.5</ele>
<desc>Speed 14.1 km/h Distance 72.90 km</desc>
<time>2011-05-22T13:20:13.53</time>
<name>16258</name>
<sym>Dot</sym>
</trkpt>
<trkpt lat="39.671680" lon="-8.678997">
<ele>378.5</ele>
<desc>Speed 14.5 km/h Distance 72.90 km</desc>
<time>2011-05-22T13:20:14.53</time>
<name>16259</name>
<sym>Dot</sym>
</trkpt>
<trkpt lat="39.671657" lon="-8.679033">
<ele>378.5</ele>
<desc>Speed 14.2 km/h Distance 72.91 km</desc>
<time>2011-05-22T13:20:15.53</time>
<name>16260</name>
<sym>Dot</sym>
</trkpt>
<trkpt lat="39.671635" lon="-8.679070">
<ele>378.5</ele>
<desc>Speed 14.0 km/h Distance 72.91 km</desc>
<time>2011-05-22T13:20:16.53</time>
<name>16261</name>
<sym>Dot</sym>
</trkpt>
<trkpt lat="39.671615" lon="-8.679108">
<ele>378.5</ele>
<desc>Speed 14.1 km/h Distance 72.91 km</desc>
<time>2011-05-22T13:20:17.53</time>
<name>16262</name>
<sym>Dot</sym>
</trkpt>
<trkpt lat="39.671593" lon="-8.679147">
<ele>378.5</ele>
<desc>Speed 14.1 km/h Distance 72.92 km</desc>
<time>2011-05-22T13:20:18.53</time>
<name>16263</name>
<sym>Dot</sym>
</trkpt>
<trkpt lat="39.671572" lon="-8.679183">
<ele>378.0</ele>
<desc>Speed 13.9 km/h Distance 72.92 km</desc>
<time>2011-05-22T13:20:19.53</time>
<name>16264</name>
<sym>Dot</sym>
</trkpt>
<trkpt lat="39.671552" lon="-8.679220">
<ele>378.5</ele>
<desc>Speed 14.0 km/h Distance 72.92 km</desc>
<time>2011-05-22T13:20:20.53</time>
<name>16265</name>
<sym>Dot</sym>
</trkpt>
<trkpt lat="39.671532" lon="-8.679258">
<ele>378.5</ele>
<desc>Speed 14.0 km/h Distance 72.93 km</desc>
<time>2011-05-22T13:20:21.53</time>
<name>16266</name>
<sym>Dot</sym>
</trkpt>
<trkpt lat="39.671512" lon="-8.679297">
<ele>378.5</ele>
<desc>Speed 14.0 km/h Distance 72.93 km</desc>
<time>2011-05-22T13:20:22.53</time>
<name>16267</name>
<sym>Dot</sym>
</trkpt>
<trkpt lat="39.671493" lon="-8.679337">
<ele>378.5</ele>
<desc>Speed 13.8 km/h Distance 72.94 km</desc>
<time>2011-05-22T13:20:23.53</time>
<name>16268</name>
<sym>Dot</sym>
</trkpt>
<trkpt lat="39.671477" lon="-8.679375">
<ele>378.5</ele>
<desc>Speed 13.8 km/h Distance 72.94 km</desc>
<time>2011-05-22T13:20:24.53</time>
<name>16269</name>
<sym>Dot</sym>
</trkpt>
<trkpt lat="39.671463" lon="-8.679415">
<ele>379.0</ele>
<desc>Speed 13.5 km/h Distance 72.94 km</desc>
<time>2011-05-22T13:20:25.53</time>
<name>16270</name>
<sym>Dot</sym>
</trkpt>
<trkpt lat="39.671447" lon="-8.679455">
<ele>379.0</ele>
<desc>Speed 13.7 km/h Distance 72.95 km</desc>
<time>2011-05-22T13:20:26.53</time>
<name>16271</name>
<sym>Dot</sym>
</trkpt>
<trkpt lat="39.671432" lon="-8.679495">
<ele>379.0</ele>
<desc>Speed 13.6 km/h Distance 72.95 km</desc>
<time>2011-05-22T13:20:27.53</time>
<name>16272</name>
<sym>Dot</sym>
</trkpt>
<trkpt lat="39.671420" lon="-8.679538">
<ele>379.0</ele>
<desc>Speed 13.7 km/h Distance 72.96 km</desc>
<time>2011-05-22T13:20:28.53</time>
<name>16273</name>
<sym>Dot</sym>
</trkpt>
<trkpt lat="39.671408" lon="-8.679582">
<ele>379.0</ele>
<desc>Speed 14.0 km/h Distance 72.96 km</desc>
<time>2011-05-22T13:20:29.53</time>
<name>16274</name>
<sym>Dot</sym>
</trkpt>
<trkpt lat="39.671397" lon="-8.679625">
<ele>379.0</ele>
<desc>Speed 13.8 km/h Distance 72.96 km</desc>
<time>2011-05-22T13:20:30.53</time>
<name>16275</name>
<sym>Dot</sym>
</trkpt>
<trkpt lat="39.671388" lon="-8.679670">
<ele>379.0</ele>
<desc>Speed 14.0 km/h Distance 72.97 km</desc>
<time>2011-05-22T13:20:31.53</time>
<name>16276</name>
<sym>Dot</sym>
</trkpt>
<trkpt lat="39.671380" lon="-8.679715">
<ele>379.0</ele>
<desc>Speed 14.1 km/h Distance 72.97 km</desc>
<time>2011-05-22T13:20:32.53</time>
<name>16277</name>
<sym>Dot</sym>
</trkpt>
<trkpt lat="39.671373" lon="-8.679760">
<ele>379.5</ele>
<desc>Speed 13.8 km/h Distance 72.98 km</desc>
<time>2011-05-22T13:20:33.53</time>
<name>16278</name>
<sym>Dot</sym>
</trkpt>
<trkpt lat="39.671368" lon="-8.679805">
<ele>379.5</ele>
<desc>Speed 13.8 km/h Distance 72.98 km</desc>
<time>2011-05-22T13:20:34.53</time>
<name>16279</name>
<sym>Dot</sym>
</trkpt>
<trkpt lat="39.671365" lon="-8.679848">
<ele>380.0</ele>
<desc>Speed 13.6 km/h Distance 72.98 km</desc>
<time>2011-05-22T13:20:35.53</time>
<name>16280</name>
<sym>Dot</sym>
</trkpt>
<trkpt lat="39.671360" lon="-8.679893">
<ele>380.0</ele>
<desc>Speed 13.4 km/h Distance 72.99 km</desc>
<time>2011-05-22T13:20:36.53</time>
<name>16281</name>
<sym>Dot</sym>
</trkpt>
<trkpt lat="39.671357" lon="-8.679937">
<ele>380.5</ele>
<desc>Speed 13.1 km/h Distance 72.99 km</desc>
<time>2011-05-22T13:20:37.53</time>
<name>16282</name>
<sym>Dot</sym>
</trkpt>
<trkpt lat="39.671357" lon="-8.679977">
<ele>381.0</ele>
<desc>Speed 12.6 km/h Distance 72.99 km</desc>
<time>2011-05-22T13:20:38.53</time>
<name>16283</name>
<sym>Dot</sym>
</trkpt>
<trkpt lat="39.671357" lon="-8.680017">
<ele>381.5</ele>
<desc>Speed 11.8 km/h Distance 73.00 km</desc>
<time>2011-05-22T13:20:39.53</time>
<name>16284</name>
<sym>Dot</sym>
</trkpt>
<trkpt lat="39.671358" lon="-8.680057">
<ele>382.0</ele>
<desc>Speed 12.3 km/h Distance 73.00 km</desc>
<time>2011-05-22T13:20:40.53</time>
<name>16285</name>
<sym>Dot</sym>
</trkpt>
<trkpt lat="39.671360" lon="-8.680098">
<ele>382.0</ele>
<desc>Speed 12.4 km/h Distance 73.00 km</desc>
<time>2011-05-22T13:20:41.53</time>
<name>16286</name>
<sym>Dot</sym>
</trkpt>
<trkpt lat="39.671365" lon="-8.680137">
<ele>382.0</ele>
<desc>Speed 12.2 km/h Distance 73.01 km</desc>
<time>2011-05-22T13:20:42.53</time>
<name>16287</name>
<sym>Dot</sym>
</trkpt>
<trkpt lat="39.671368" lon="-8.680175">
<ele>382.5</ele>
<desc>Speed 11.7 km/h Distance 73.01 km</desc>
<time>2011-05-22T13:20:43.53</time>
<name>16288</name>
<sym>Dot</sym>
</trkpt>
<trkpt lat="39.671375" lon="-8.680212">
<ele>383.0</ele>
<desc>Speed 11.3 km/h Distance 73.01 km</desc>
<time>2011-05-22T13:20:44.53</time>
<name>16289</name>
<sym>Dot</sym>
</trkpt>
<trkpt lat="39.671383" lon="-8.680248">
<ele>383.0</ele>
<desc>Speed 11.3 km/h Distance 73.02 km</desc>
<time>2011-05-22T13:20:45.53</time>
<name>16290</name>
<sym>Dot</sym>
</trkpt>
<trkpt lat="39.671390" lon="-8.680283">
<ele>383.5</ele>
<desc>Speed 11.2 km/h Distance 73.02 km</desc>
<time>2011-05-22T13:20:46.53</time>
<name>16291</name>
<sym>Dot</sym>
</trkpt>
<trkpt lat="39.671398" lon="-8.680317">
<ele>383.5</ele>
<desc>Speed 10.9 km/h Distance 73.02 km</desc>
<time>2011-05-22T13:20:47.53</time>
<name>16292</name>
<sym>Dot</sym>
</trkpt>
<trkpt lat="39.671410" lon="-8.680348">
<ele>384.0</ele>
<desc>Speed 10.3 km/h Distance 73.03 km</desc>
<time>2011-05-22T13:20:48.53</time>
<name>16293</name>
<sym>Dot</sym>
</trkpt>
<trkpt lat="39.671420" lon="-8.680380">
<ele>384.5</ele>
<desc>Speed 10.3 km/h Distance 73.03 km</desc>
<time>2011-05-22T13:20:49.53</time>
<name>16294</name>
<sym>Dot</sym>
</trkpt>
<trkpt lat="39.671425" lon="-8.680410">
<ele>384.5</ele>
<desc>Speed 9.3 km/h Distance 73.03 km</desc>
<time>2011-05-22T13:20:50.53</time>
<name>16295</name>
<sym>Dot</sym>
</trkpt>
<trkpt lat="39.671427" lon="-8.680435">
<ele>385.0</ele>
<desc>Speed 7.6 km/h Distance 73.03 km</desc>
<time>2011-05-22T13:20:51.53</time>
<name>16296</name>
<sym>Dot</sym>
</trkpt>
<trkpt lat="39.671432" lon="-8.680455">
<ele>385.0</ele>
<desc>Speed 6.7 km/h Distance 73.04 km</desc>
<time>2011-05-22T13:20:52.53</time>
<name>16297</name>
<sym>Dot</sym>
</trkpt>
<trkpt lat="39.671437" lon="-8.680472">
<ele>385.5</ele>
<desc>Speed 5.1 km/h Distance 73.04 km</desc>
<time>2011-05-22T13:20:53.53</time>
<name>16298</name>
<sym>Dot</sym>
</trkpt>
<trkpt lat="39.671442" lon="-8.680480">
<ele>385.5</ele>
<desc>Speed 3.5 km/h Distance 73.04 km</desc>
<time>2011-05-22T13:20:54.53</time>
<name>16299</name>
<sym>Dot</sym>
</trkpt>
<trkpt lat="39.671450" lon="-8.680487">
<ele>386.0</ele>
<desc>Speed 3.1 km/h Distance 73.04 km</desc>
<time>2011-05-22T13:20:55.53</time>
<name>16300</name>
<sym>Dot</sym>
</trkpt>
<trkpt lat="39.671453" lon="-8.680493">
<ele>386.0</ele>
<desc>Speed 2.2 km/h Distance 73.04 km</desc>
<time>2011-05-22T13:20:56.53</time>
<name>16301</name>
<sym>Dot</sym>
</trkpt>
<trkpt lat="39.671455" lon="-8.680497">
<ele>386.0</ele>
<desc>Speed 1.4 km/h Distance 73.04 km</desc>
<time>2011-05-22T13:20:57.53</time>
<name>16302</name>
<sym>Dot</sym>
</trkpt>
<trkpt lat="39.671455" lon="-8.680505">
<ele>385.0</ele>
<desc>Speed 1.3 km/h Distance 73.04 km</desc>
<time>2011-05-22T13:21:15.53</time>
<name>16303</name>
<sym>Dot</sym>
</trkpt>
<trkpt lat="39.671460" lon="-8.680512">
<ele>385.5</ele>
<desc>Speed 2.2 km/h Distance 73.04 km</desc>
<time>2011-05-22T13:21:17.53</time>
<name>16304</name>
<sym>Dot</sym>
</trkpt>
<trkpt lat="39.671465" lon="-8.680523">
<ele>385.5</ele>
<desc>Speed 3.9 km/h Distance 73.04 km</desc>
<time>2011-05-22T13:21:18.53</time>
<name>16305</name>
<sym>Dot</sym>
</trkpt>
<trkpt lat="39.671468" lon="-8.680535">
<ele>386.0</ele>
<desc>Speed 4.0 km/h Distance 73.04 km</desc>
<time>2011-05-22T13:21:19.53</time>
<name>16306</name>
<sym>Dot</sym>
</trkpt>
<trkpt lat="39.671470" lon="-8.680548">
<ele>386.0</ele>
<desc>Speed 3.9 km/h Distance 73.05 km</desc>
<time>2011-05-22T13:21:20.53</time>
<name>16307</name>
<sym>Dot</sym>
</trkpt>
<trkpt lat="39.671470" lon="-8.680560">
<ele>386.0</ele>
<desc>Speed 3.2 km/h Distance 73.05 km</desc>
<time>2011-05-22T13:21:21.53</time>
<name>16308</name>
<sym>Dot</sym>
</trkpt>
<trkpt lat="39.671468" lon="-8.680567">
<ele>385.5</ele>
<desc>Speed 2.3 km/h Distance 73.05 km</desc>
<time>2011-05-22T13:21:22.53</time>
<name>16309</name>
<sym>Dot</sym>
</trkpt>
<trkpt lat="39.671477" lon="-8.680587">
<ele>385.0</ele>
<desc>Speed 4.5 km/h Distance 73.05 km</desc>
<time>2011-05-22T13:21:41.53</time>
<name>16310</name>
<sym>Dot</sym>
</trkpt>
<trkpt lat="39.671483" lon="-8.680598">
<ele>385.5</ele>
<desc>Speed 4.4 km/h Distance 73.05 km</desc>
<time>2011-05-22T13:21:42.53</time>
<name>16311</name>
<sym>Dot</sym>
</trkpt>
<trkpt lat="39.671488" lon="-8.680613">
<ele>385.5</ele>
<desc>Speed 4.4 km/h Distance 73.05 km</desc>
<time>2011-05-22T13:21:43.53</time>
<name>16312</name>
<sym>Dot</sym>
</trkpt>
<trkpt lat="39.671493" lon="-8.680632">
<ele>385.5</ele>
<desc>Speed 5.6 km/h Distance 73.05 km</desc>
<time>2011-05-22T13:21:44.53</time>
<name>16313</name>
<sym>Dot</sym>
</trkpt>
<trkpt lat="39.671500" lon="-8.680652">
<ele>386.0</ele>
<desc>Speed 6.4 km/h Distance 73.06 km</desc>
<time>2011-05-22T13:21:45.53</time>
<name>16314</name>
<sym>Dot</sym>
</trkpt>
<trkpt lat="39.671507" lon="-8.680675">
<ele>386.0</ele>
<desc>Speed 7.0 km/h Distance 73.06 km</desc>
<time>2011-05-22T13:21:46.53</time>
<name>16315</name>
<sym>Dot</sym>
</trkpt>
<trkpt lat="39.671515" lon="-8.680698">
<ele>386.0</ele>
<desc>Speed 7.8 km/h Distance 73.06 km</desc>
<time>2011-05-22T13:21:47.53</time>
<name>16316</name>
<sym>Dot</sym>
</trkpt>
<trkpt lat="39.671520" lon="-8.680720">
<ele>386.5</ele>
<desc>Speed 6.3 km/h Distance 73.06 km</desc>
<time>2011-05-22T13:21:48.53</time>
<name>16317</name>
<sym>Dot</sym>
</trkpt>
<trkpt lat="39.671520" lon="-8.680735">
<ele>386.5</ele>
<desc>Speed 4.7 km/h Distance 73.06 km</desc>
<time>2011-05-22T13:21:49.53</time>
<name>16318</name>
<sym>Dot</sym>
</trkpt>
<trkpt lat="39.671518" lon="-8.680748">
<ele>386.5</ele>
<desc>Speed 3.7 km/h Distance 73.06 km</desc>
<time>2011-05-22T13:21:50.53</time>
<name>16319</name>
<sym>Dot</sym>
</trkpt>
<trkpt lat="39.671518" lon="-8.680753">
<ele>386.5</ele>
<desc>Speed 1.3 km/h Distance 73.06 km</desc>
<time>2011-05-22T13:21:51.53</time>
<name>16320</name>
<sym>Dot</sym>
</trkpt>
<trkpt lat="39.671520" lon="-8.680758">
<ele>386.5</ele>
<desc>Speed 1.5 km/h Distance 73.07 km</desc>
<time>2011-05-22T13:21:52.53</time>
<name>16321</name>
<sym>Dot</sym>
</trkpt>
<trkpt lat="39.671518" lon="-8.680772">
<ele>385.0</ele>
<desc>Speed 1.4 km/h Distance 73.07 km</desc>
<time>2011-05-22T13:22:35.53</time>
<name>16322</name>
<sym>Dot</sym>
</trkpt>
<trkpt lat="39.671520" lon="-8.680775">
<ele>384.5</ele>
<desc>Speed 1.3 km/h Distance 73.07 km</desc>
<time>2011-05-22T13:22:37.53</time>
<name>16323</name>
<sym>Dot</sym>
</trkpt>
<trkpt lat="39.671527" lon="-8.680785">
<ele>385.0</ele>
<desc>Speed 4.1 km/h Distance 73.07 km</desc>
<time>2011-05-22T13:22:38.53</time>
<name>16324</name>
<sym>Dot</sym>
</trkpt>
<trkpt lat="39.671532" lon="-8.680798">
<ele>385.0</ele>
<desc>Speed 4.5 km/h Distance 73.07 km</desc>
<time>2011-05-22T13:22:39.53</time>
<name>16325</name>
<sym>Dot</sym>
</trkpt>
<trkpt lat="39.671538" lon="-8.680813">
<ele>385.5</ele>
<desc>Speed 5.4 km/h Distance 73.07 km</desc>
<time>2011-05-22T13:22:40.53</time>
<name>16326</name>
<sym>Dot</sym>
</trkpt>
<trkpt lat="39.671545" lon="-8.680832">
<ele>385.5</ele>
<desc>Speed 5.8 km/h Distance 73.07 km</desc>
<time>2011-05-22T13:22:41.53</time>
<name>16327</name>
<sym>Dot</sym>
</trkpt>
<trkpt lat="39.671548" lon="-8.680843">
<ele>386.0</ele>
<desc>Speed 3.9 km/h Distance 73.07 km</desc>
<time>2011-05-22T13:22:42.53</time>
<name>16328</name>
<sym>Dot</sym>
</trkpt>
<trkpt lat="39.671552" lon="-8.680850">
<ele>386.0</ele>
<desc>Speed 2.2 km/h Distance 73.07 km</desc>
<time>2011-05-22T13:22:43.53</time>
<name>16329</name>
<sym>Dot</sym>
</trkpt>
<trkpt lat="39.671553" lon="-8.680857">
<ele>386.0</ele>
<desc>Speed 2.1 km/h Distance 73.07 km</desc>
<time>2011-05-22T13:22:44.53</time>
<name>16330</name>
<sym>Dot</sym>
</trkpt>
<trkpt lat="39.671553" lon="-8.680862">
<ele>386.5</ele>
<desc>Speed 1.6 km/h Distance 73.08 km</desc>
<time>2011-05-22T13:22:45.53</time>
<name>16331</name>
<sym>Dot</sym>
</trkpt>
<trkpt lat="39.671550" lon="-8.680865">
<ele>386.0</ele>
<desc>Speed 1.5 km/h Distance 73.08 km</desc>
<time>2011-05-22T13:22:46.53</time>
<name>16332</name>
<sym>Dot</sym>
</trkpt>
<trkpt lat="39.671552" lon="-8.680890">
<ele>384.5</ele>
<desc>Speed 1.5 km/h Distance 73.08 km</desc>
<time>2011-05-22T13:23:14.53</time>
<name>16333</name>
<sym>Dot</sym>
</trkpt>
<trkpt lat="39.671555" lon="-8.680897">
<ele>384.5</ele>
<desc>Speed 2.0 km/h Distance 73.08 km</desc>
<time>2011-05-22T13:23:15.53</time>
<name>16334</name>
<sym>Dot</sym>
</trkpt>
<trkpt lat="39.671560" lon="-8.680908">
<ele>385.5</ele>
<desc>Speed 3.7 km/h Distance 73.08 km</desc>
<time>2011-05-22T13:23:16.53</time>
<name>16335</name>
<sym>Dot</sym>
</trkpt>
<trkpt lat="39.671565" lon="-8.680923">
<ele>385.5</ele>
<desc>Speed 4.6 km/h Distance 73.08 km</desc>
<time>2011-05-22T13:23:17.53</time>
<name>16336</name>
<sym>Dot</sym>
</trkpt>
<trkpt lat="39.671568" lon="-8.680937">
<ele>386.5</ele>
<desc>Speed 4.6 km/h Distance 73.08 km</desc>
<time>2011-05-22T13:23:18.53</time>
<name>16337</name>
<sym>Dot</sym>
</trkpt>
<trkpt lat="39.671572" lon="-8.680952">
<ele>387.5</ele>
<desc>Speed 4.7 km/h Distance 73.08 km</desc>
<time>2011-05-22T13:23:19.53</time>
<name>16338</name>
<sym>Dot</sym>
</trkpt>
<trkpt lat="39.671575" lon="-8.680973">
<ele>388.0</ele>
<desc>Speed 6.5 km/h Distance 73.09 km</desc>
<time>2011-05-22T13:23:20.53</time>
<name>16339</name>
<sym>Dot</sym>
</trkpt>
<trkpt lat="39.671580" lon="-8.680995">
<ele>388.0</ele>
<desc>Speed 6.7 km/h Distance 73.09 km</desc>
<time>2011-05-22T13:23:21.53</time>
<name>16340</name>
<sym>Dot</sym>
</trkpt>
<trkpt lat="39.671585" lon="-8.681017">
<ele>388.5</ele>
<desc>Speed 6.7 km/h Distance 73.09 km</desc>
<time>2011-05-22T13:23:22.53</time>
<name>16341</name>
<sym>Dot</sym>
</trkpt>
<trkpt lat="39.671593" lon="-8.681038">
<ele>388.5</ele>
<desc>Speed 7.3 km/h Distance 73.09 km</desc>
<time>2011-05-22T13:23:23.53</time>
<name>16342</name>
<sym>Dot</sym>
</trkpt>
<trkpt lat="39.671602" lon="-8.681058">
<ele>389.0</ele>
<desc>Speed 6.8 km/h Distance 73.09 km</desc>
<time>2011-05-22T13:23:24.53</time>
<name>16343</name>
<sym>Dot</sym>
</trkpt>
<trkpt lat="39.671608" lon="-8.681082">
<ele>389.5</ele>
<desc>Speed 7.5 km/h Distance 73.10 km</desc>
<time>2011-05-22T13:23:25.53</time>
<name>16344</name>
<sym>Dot</sym>
</trkpt>
<trkpt lat="39.671617" lon="-8.681108">
<ele>389.5</ele>
<desc>Speed 8.3 km/h Distance 73.10 km</desc>
<time>2011-05-22T13:23:26.53</time>
<name>16345</name>
<sym>Dot</sym>
</trkpt>
<trkpt lat="39.671625" lon="-8.681133">
<ele>389.5</ele>
<desc>Speed 8.3 km/h Distance 73.10 km</desc>
<time>2011-05-22T13:23:27.53</time>
<name>16346</name>
<sym>Dot</sym>
</trkpt>
<trkpt lat="39.671633" lon="-8.681160">
<ele>390.0</ele>
<desc>Speed 8.5 km/h Distance 73.10 km</desc>
<time>2011-05-22T13:23:28.53</time>
<name>16347</name>
<sym>Dot</sym>
</trkpt>
<trkpt lat="39.671642" lon="-8.681187">
<ele>390.0</ele>
<desc>Speed 8.4 km/h Distance 73.11 km</desc>
<time>2011-05-22T13:23:29.53</time>
<name>16348</name>
<sym>Dot</sym>
</trkpt>
<trkpt lat="39.671650" lon="-8.681212">
<ele>390.0</ele>
<desc>Speed 8.6 km/h Distance 73.11 km</desc>
<time>2011-05-22T13:23:30.53</time>
<name>16349</name>
<sym>Dot</sym>
</trkpt>
<trkpt lat="39.671658" lon="-8.681240">
<ele>390.5</ele>
<desc>Speed 8.8 km/h Distance 73.11 km</desc>
<time>2011-05-22T13:23:31.53</time>
<name>16350</name>
<sym>Dot</sym>
</trkpt>
<trkpt lat="39.671665" lon="-8.681267">
<ele>390.5</ele>
<desc>Speed 8.7 km/h Distance 73.11 km</desc>
<time>2011-05-22T13:23:32.53</time>
<name>16351</name>
<sym>Dot</sym>
</trkpt>
<trkpt lat="39.671675" lon="-8.681293">
<ele>390.5</ele>
<desc>Speed 8.5 km/h Distance 73.12 km</desc>
<time>2011-05-22T13:23:33.53</time>
<name>16352</name>
<sym>Dot</sym>
</trkpt>
<trkpt lat="39.671682" lon="-8.681320">
<ele>390.5</ele>
<desc>Speed 8.6 km/h Distance 73.12 km</desc>
<time>2011-05-22T13:23:34.53</time>
<name>16353</name>
<sym>Dot</sym>
</trkpt>
<trkpt lat="39.671690" lon="-8.681347">
<ele>391.0</ele>
<desc>Speed 8.3 km/h Distance 73.12 km</desc>
<time>2011-05-22T13:23:35.53</time>
<name>16354</name>
<sym>Dot</sym>
</trkpt>
<trkpt lat="39.671700" lon="-8.681372">
<ele>391.0</ele>
<desc>Speed 8.6 km/h Distance 73.12 km</desc>
<time>2011-05-22T13:23:36.53</time>
<name>16355</name>
<sym>Dot</sym>
</trkpt>
<trkpt lat="39.671707" lon="-8.681398">
<ele>391.5</ele>
<desc>Speed 8.4 km/h Distance 73.12 km</desc>
<time>2011-05-22T13:23:37.53</time>
<name>16356</name>
<sym>Dot</sym>
</trkpt>
<trkpt lat="39.671715" lon="-8.681425">
<ele>391.5</ele>
<desc>Speed 8.6 km/h Distance 73.13 km</desc>
<time>2011-05-22T13:23:38.53</time>
<name>16357</name>
<sym>Dot</sym>
</trkpt>
<trkpt lat="39.671723" lon="-8.681452">
<ele>391.5</ele>
<desc>Speed 8.7 km/h Distance 73.13 km</desc>
<time>2011-05-22T13:23:39.53</time>
<name>16358</name>
<sym>Dot</sym>
</trkpt>
<trkpt lat="39.671733" lon="-8.681478">
<ele>391.5</ele>
<desc>Speed 8.6 km/h Distance 73.13 km</desc>
<time>2011-05-22T13:23:40.53</time>
<name>16359</name>
<sym>Dot</sym>
</trkpt>
<trkpt lat="39.671742" lon="-8.681503">
<ele>391.5</ele>
<desc>Speed 8.4 km/h Distance 73.13 km</desc>
<time>2011-05-22T13:23:41.53</time>
<name>16360</name>
<sym>Dot</sym>
</trkpt>
<trkpt lat="39.671750" lon="-8.681528">
<ele>392.0</ele>
<desc>Speed 8.3 km/h Distance 73.14 km</desc>
<time>2011-05-22T13:23:42.53</time>
<name>16361</name>
<sym>Dot</sym>
</trkpt>
<trkpt lat="39.671758" lon="-8.681555">
<ele>392.0</ele>
<desc>Speed 8.2 km/h Distance 73.14 km</desc>
<time>2011-05-22T13:23:43.53</time>
<name>16362</name>
<sym>Dot</sym>
</trkpt>
<trkpt lat="39.671763" lon="-8.681582">
<ele>392.5</ele>
<desc>Speed 8.7 km/h Distance 73.14 km</desc>
<time>2011-05-22T13:23:44.53</time>
<name>16363</name>
<sym>Dot</sym>
</trkpt>
<trkpt lat="39.671772" lon="-8.681610">
<ele>392.5</ele>
<desc>Speed 8.9 km/h Distance 73.14 km</desc>
<time>2011-05-22T13:23:45.53</time>
<name>16364</name>
<sym>Dot</sym>
</trkpt>
<trkpt lat="39.671782" lon="-8.681635">
<ele>392.5</ele>
<desc>Speed 8.9 km/h Distance 73.15 km</desc>
<time>2011-05-22T13:23:46.53</time>
<name>16365</name>
<sym>Dot</sym>
</trkpt>
<trkpt lat="39.671793" lon="-8.681662">
<ele>393.0</ele>
<desc>Speed 8.8 km/h Distance 73.15 km</desc>
<time>2011-05-22T13:23:47.53</time>
<name>16366</name>
<sym>Dot</sym>
</trkpt>
<trkpt lat="39.671802" lon="-8.681687">
<ele>393.0</ele>
<desc>Speed 8.5 km/h Distance 73.15 km</desc>
<time>2011-05-22T13:23:48.53</time>
<name>16367</name>
<sym>Dot</sym>
</trkpt>
<trkpt lat="39.671812" lon="-8.681712">
<ele>393.5</ele>
<desc>Speed 8.4 km/h Distance 73.15 km</desc>
<time>2011-05-22T13:23:49.53</time>
<name>16368</name>
<sym>Dot</sym>
</trkpt>
<trkpt lat="39.671822" lon="-8.681737">
<ele>393.5</ele>
<desc>Speed 8.3 km/h Distance 73.16 km</desc>
<time>2011-05-22T13:23:50.53</time>
<name>16369</name>
<sym>Dot</sym>
</trkpt>
<trkpt lat="39.671828" lon="-8.681762">
<ele>393.5</ele>
<desc>Speed 8.0 km/h Distance 73.16 km</desc>
<time>2011-05-22T13:23:51.53</time>
<name>16370</name>
<sym>Dot</sym>
</trkpt>
<trkpt lat="39.671837" lon="-8.681787">
<ele>393.5</ele>
<desc>Speed 8.0 km/h Distance 73.16 km</desc>
<time>2011-05-22T13:23:52.53</time>
<name>16371</name>
<sym>Dot</sym>
</trkpt>
<trkpt lat="39.671842" lon="-8.681810">
<ele>393.0</ele>
<desc>Speed 7.2 km/h Distance 73.16 km</desc>
<time>2011-05-22T13:23:53.53</time>
<name>16372</name>
<sym>Dot</sym>
</trkpt>
<trkpt lat="39.671848" lon="-8.681837">
<ele>393.0</ele>
<desc>Speed 8.2 km/h Distance 73.17 km</desc>
<time>2011-05-22T13:23:54.53</time>
<name>16373</name>
<sym>Dot</sym>
</trkpt>
<trkpt lat="39.671855" lon="-8.681862">
<ele>393.5</ele>
<desc>Speed 9.2 km/h Distance 73.17 km</desc>
<time>2011-05-22T13:23:55.53</time>
<name>16374</name>
<sym>Dot</sym>
</trkpt>
<trkpt lat="39.671863" lon="-8.681892">
<ele>393.5</ele>
<desc>Speed 9.4 km/h Distance 73.17 km</desc>
<time>2011-05-22T13:23:56.53</time>
<name>16375</name>
<sym>Dot</sym>
</trkpt>
<trkpt lat="39.671872" lon="-8.681922">
<ele>394.0</ele>
<desc>Speed 9.6 km/h Distance 73.17 km</desc>
<time>2011-05-22T13:23:57.53</time>
<name>16376</name>
<sym>Dot</sym>
</trkpt>
<trkpt lat="39.671882" lon="-8.681952">
<ele>394.0</ele>
<desc>Speed 9.7 km/h Distance 73.18 km</desc>
<time>2011-05-22T13:23:58.53</time>
<name>16377</name>
<sym>Dot</sym>
</trkpt>
<trkpt lat="39.671892" lon="-8.681983">
<ele>394.0</ele>
<desc>Speed 10.2 km/h Distance 73.18 km</desc>
<time>2011-05-22T13:23:59.53</time>
<name>16378</name>
<sym>Dot</sym>
</trkpt>
<trkpt lat="39.671903" lon="-8.682015">
<ele>394.5</ele>
<desc>Speed 10.2 km/h Distance 73.18 km</desc>
<time>2011-05-22T13:24:00.53</time>
<name>16379</name>
<sym>Dot</sym>
</trkpt>
<trkpt lat="39.671915" lon="-8.682045">
<ele>394.5</ele>
<desc>Speed 9.9 km/h Distance 73.19 km</desc>
<time>2011-05-22T13:24:01.53</time>
<name>16380</name>
<sym>Dot</sym>
</trkpt>
<trkpt lat="39.671925" lon="-8.682075">
<ele>394.5</ele>
<desc>Speed 10.0 km/h Distance 73.19 km</desc>
<time>2011-05-22T13:24:02.53</time>
<name>16381</name>
<sym>Dot</sym>
</trkpt>
<trkpt lat="39.671937" lon="-8.682103">
<ele>395.0</ele>
<desc>Speed 9.8 km/h Distance 73.19 km</desc>
<time>2011-05-22T13:24:03.53</time>
<name>16382</name>
<sym>Dot</sym>
</trkpt>
<trkpt lat="39.671945" lon="-8.682137">
<ele>395.0</ele>
<desc>Speed 10.2 km/h Distance 73.19 km</desc>
<time>2011-05-22T13:24:04.53</time>
<name>16383</name>
<sym>Dot</sym>
</trkpt>
<trkpt lat="39.671950" lon="-8.682168">
<ele>395.0</ele>
<desc>Speed 9.7 km/h Distance 73.20 km</desc>
<time>2011-05-22T13:24:05.53</time>
<name>16384</name>
<sym>Dot</sym>
</trkpt>
<trkpt lat="39.671958" lon="-8.682198">
<ele>395.0</ele>
<desc>Speed 9.9 km/h Distance 73.20 km</desc>
<time>2011-05-22T13:24:06.53</time>
<name>16385</name>
<sym>Dot</sym>
</trkpt>
<trkpt lat="39.671963" lon="-8.682232">
<ele>395.5</ele>
<desc>Speed 10.0 km/h Distance 73.20 km</desc>
<time>2011-05-22T13:24:07.53</time>
<name>16386</name>
<sym>Dot</sym>
</trkpt>
<trkpt lat="39.671965" lon="-8.682265">
<ele>396.0</ele>
<desc>Speed 10.1 km/h Distance 73.20 km</desc>
<time>2011-05-22T13:24:08.53</time>
<name>16387</name>
<sym>Dot</sym>
</trkpt>
<trkpt lat="39.671968" lon="-8.682300">
<ele>396.0</ele>
<desc>Speed 10.4 km/h Distance 73.21 km</desc>
<time>2011-05-22T13:24:09.53</time>
<name>16388</name>
<sym>Dot</sym>
</trkpt>
<trkpt lat="39.671970" lon="-8.682333">
<ele>396.5</ele>
<desc>Speed 10.0 km/h Distance 73.21 km</desc>
<time>2011-05-22T13:24:10.53</time>
<name>16389</name>
<sym>Dot</sym>
</trkpt>
<trkpt lat="39.671972" lon="-8.682365">
<ele>396.5</ele>
<desc>Speed 9.2 km/h Distance 73.21 km</desc>
<time>2011-05-22T13:24:11.53</time>
<name>16390</name>
<sym>Dot</sym>
</trkpt>
<trkpt lat="39.671972" lon="-8.682392">
<ele>397.0</ele>
<desc>Speed 8.2 km/h Distance 73.22 km</desc>
<time>2011-05-22T13:24:12.53</time>
<name>16391</name>
<sym>Dot</sym>
</trkpt>
<trkpt lat="39.671975" lon="-8.682420">
<ele>397.0</ele>
<desc>Speed 8.6 km/h Distance 73.22 km</desc>
<time>2011-05-22T13:24:13.53</time>
<name>16392</name>
<sym>Dot</sym>
</trkpt>
<trkpt lat="39.671977" lon="-8.682447">
<ele>397.0</ele>
<desc>Speed 7.6 km/h Distance 73.22 km</desc>
<time>2011-05-22T13:24:14.53</time>
<name>16393</name>
<sym>Dot</sym>
</trkpt>
<trkpt lat="39.671977" lon="-8.682468">
<ele>397.5</ele>
<desc>Speed 7.1 km/h Distance 73.22 km</desc>
<time>2011-05-22T13:24:15.53</time>
<name>16394</name>
<sym>Dot</sym>
</trkpt>
<trkpt lat="39.671977" lon="-8.682495">
<ele>397.5</ele>
<desc>Speed 8.1 km/h Distance 73.22 km</desc>
<time>2011-05-22T13:24:16.53</time>
<name>16395</name>
<sym>Dot</sym>
</trkpt>
<trkpt lat="39.671977" lon="-8.682522">
<ele>398.0</ele>
<desc>Speed 8.0 km/h Distance 73.23 km</desc>
<time>2011-05-22T13:24:17.53</time>
<name>16396</name>
<sym>Dot</sym>
</trkpt>
<trkpt lat="39.671973" lon="-8.682548">
<ele>398.0</ele>
<desc>Speed 8.1 km/h Distance 73.23 km</desc>
<time>2011-05-22T13:24:18.53</time>
<name>16397</name>
<sym>Dot</sym>
</trkpt>
<trkpt lat="39.671973" lon="-8.682575">
<ele>398.5</ele>
<desc>Speed 7.7 km/h Distance 73.23 km</desc>
<time>2011-05-22T13:24:19.53</time>
<name>16398</name>
<sym>Dot</sym>
</trkpt>
<trkpt lat="39.671973" lon="-8.682603">
<ele>399.0</ele>
<desc>Speed 8.5 km/h Distance 73.23 km</desc>
<time>2011-05-22T13:24:20.53</time>
<name>16399</name>
<sym>Dot</sym>
</trkpt>
<trkpt lat="39.671972" lon="-8.682633">
<ele>399.0</ele>
<desc>Speed 9.0 km/h Distance 73.24 km</desc>
<time>2011-05-22T13:24:21.53</time>
<name>16400</name>
<sym>Dot</sym>
</trkpt>
<trkpt lat="39.671968" lon="-8.682663">
<ele>399.0</ele>
<desc>Speed 8.7 km/h Distance 73.24 km</desc>
<time>2011-05-22T13:24:22.53</time>
<name>16401</name>
<sym>Dot</sym>
</trkpt>
<trkpt lat="39.671965" lon="-8.682692">
<ele>399.0</ele>
<desc>Speed 8.6 km/h Distance 73.24 km</desc>
<time>2011-05-22T13:24:23.53</time>
<name>16402</name>
<sym>Dot</sym>
</trkpt>
<trkpt lat="39.671962" lon="-8.682720">
<ele>399.0</ele>
<desc>Speed 8.7 km/h Distance 73.24 km</desc>
<time>2011-05-22T13:24:24.53</time>
<name>16403</name>
<sym>Dot</sym>
</trkpt>
<trkpt lat="39.671957" lon="-8.682747">
<ele>399.5</ele>
<desc>Speed 8.8 km/h Distance 73.25 km</desc>
<time>2011-05-22T13:24:25.53</time>
<name>16404</name>
<sym>Dot</sym>
</trkpt>
<trkpt lat="39.671950" lon="-8.682778">
<ele>399.0</ele>
<desc>Speed 8.9 km/h Distance 73.25 km</desc>
<time>2011-05-22T13:24:26.53</time>
<name>16405</name>
<sym>Dot</sym>
</trkpt>
<trkpt lat="39.671943" lon="-8.682807">
<ele>399.0</ele>
<desc>Speed 9.1 km/h Distance 73.25 km</desc>
<time>2011-05-22T13:24:27.53</time>
<name>16406</name>
<sym>Dot</sym>
</trkpt>
<trkpt lat="39.671938" lon="-8.682833">
<ele>399.0</ele>
<desc>Speed 8.4 km/h Distance 73.25 km</desc>
<time>2011-05-22T13:24:28.53</time>
<name>16407</name>
<sym>Dot</sym>
</trkpt>
<trkpt lat="39.671933" lon="-8.682862">
<ele>399.5</ele>
<desc>Speed 8.4 km/h Distance 73.26 km</desc>
<time>2011-05-22T13:24:29.53</time>
<name>16408</name>
<sym>Dot</sym>
</trkpt>
<trkpt lat="39.671925" lon="-8.682883">
<ele>399.5</ele>
<desc>Speed 7.5 km/h Distance 73.26 km</desc>
<time>2011-05-22T13:24:30.53</time>
<name>16409</name>
<sym>Dot</sym>
</trkpt>
<trkpt lat="39.671918" lon="-8.682908">
<ele>400.0</ele>
<desc>Speed 8.1 km/h Distance 73.26 km</desc>
<time>2011-05-22T13:24:31.53</time>
<name>16410</name>
<sym>Dot</sym>
</trkpt>
<trkpt lat="39.671910" lon="-8.682935">
<ele>400.5</ele>
<desc>Speed 8.2 km/h Distance 73.26 km</desc>
<time>2011-05-22T13:24:32.53</time>
<name>16411</name>
<sym>Dot</sym>
</trkpt>
<trkpt lat="39.671902" lon="-8.682960">
<ele>400.5</ele>
<desc>Speed 8.2 km/h Distance 73.27 km</desc>
<time>2011-05-22T13:24:33.53</time>
<name>16412</name>
<sym>Dot</sym>
</trkpt>
<trkpt lat="39.671893" lon="-8.682987">
<ele>400.5</ele>
<desc>Speed 8.5 km/h Distance 73.27 km</desc>
<time>2011-05-22T13:24:34.53</time>
<name>16413</name>
<sym>Dot</sym>
</trkpt>
<trkpt lat="39.671883" lon="-8.683010">
<ele>401.0</ele>
<desc>Speed 8.0 km/h Distance 73.27 km</desc>
<time>2011-05-22T13:24:35.53</time>
<name>16414</name>
<sym>Dot</sym>
</trkpt>
<trkpt lat="39.671875" lon="-8.683035">
<ele>401.5</ele>
<desc>Speed 8.0 km/h Distance 73.27 km</desc>
<time>2011-05-22T13:24:36.53</time>
<name>16415</name>
<sym>Dot</sym>
</trkpt>
<trkpt lat="39.671867" lon="-8.683058">
<ele>402.0</ele>
<desc>Speed 8.3 km/h Distance 73.28 km</desc>
<time>2011-05-22T13:24:37.53</time>
<name>16416</name>
<sym>Dot</sym>
</trkpt>
<trkpt lat="39.671857" lon="-8.683085">
<ele>402.0</ele>
<desc>Speed 8.8 km/h Distance 73.28 km</desc>
<time>2011-05-22T13:24:38.53</time>
<name>16417</name>
<sym>Dot</sym>
</trkpt>
<trkpt lat="39.671845" lon="-8.683110">
<ele>402.5</ele>
<desc>Speed 8.9 km/h Distance 73.28 km</desc>
<time>2011-05-22T13:24:39.53</time>
<name>16418</name>
<sym>Dot</sym>
</trkpt>
<trkpt lat="39.671832" lon="-8.683137">
<ele>403.0</ele>
<desc>Speed 9.6 km/h Distance 73.28 km</desc>
<time>2011-05-22T13:24:40.53</time>
<name>16419</name>
<sym>Dot</sym>
</trkpt>
<trkpt lat="39.671820" lon="-8.683163">
<ele>403.0</ele>
<desc>Speed 9.5 km/h Distance 73.29 km</desc>
<time>2011-05-22T13:24:41.53</time>
<name>16420</name>
<sym>Dot</sym>
</trkpt>
<trkpt lat="39.671807" lon="-8.683190">
<ele>403.5</ele>
<desc>Speed 9.3 km/h Distance 73.29 km</desc>
<time>2011-05-22T13:24:42.53</time>
<name>16421</name>
<sym>Dot</sym>
</trkpt>
<trkpt lat="39.671793" lon="-8.683215">
<ele>404.0</ele>
<desc>Speed 8.9 km/h Distance 73.29 km</desc>
<time>2011-05-22T13:24:43.53</time>
<name>16422</name>
<sym>Dot</sym>
</trkpt>
<trkpt lat="39.671780" lon="-8.683240">
<ele>405.0</ele>
<desc>Speed 9.2 km/h Distance 73.29 km</desc>
<time>2011-05-22T13:24:44.53</time>
<name>16423</name>
<sym>Dot</sym>
</trkpt>
<trkpt lat="39.671765" lon="-8.683267">
<ele>405.0</ele>
<desc>Speed 10.1 km/h Distance 73.30 km</desc>
<time>2011-05-22T13:24:45.53</time>
<name>16424</name>
<sym>Dot</sym>
</trkpt>
<trkpt lat="39.671748" lon="-8.683292">
<ele>405.0</ele>
<desc>Speed 10.3 km/h Distance 73.30 km</desc>
<time>2011-05-22T13:24:46.53</time>
<name>16425</name>
<sym>Dot</sym>
</trkpt>
<trkpt lat="39.671730" lon="-8.683318">
<ele>405.0</ele>
<desc>Speed 10.5 km/h Distance 73.30 km</desc>
<time>2011-05-22T13:24:47.53</time>
<name>16426</name>
<sym>Dot</sym>
</trkpt>
<trkpt lat="39.671712" lon="-8.683343">
<ele>405.0</ele>
<desc>Speed 10.4 km/h Distance 73.31 km</desc>
<time>2011-05-22T13:24:48.53</time>
<name>16427</name>
<sym>Dot</sym>
</trkpt>
<trkpt lat="39.671693" lon="-8.683370">
<ele>405.0</ele>
<desc>Speed 10.4 km/h Distance 73.31 km</desc>
<time>2011-05-22T13:24:49.53</time>
<name>16428</name>
<sym>Dot</sym>
</trkpt>
<trkpt lat="39.671675" lon="-8.683395">
<ele>405.0</ele>
<desc>Speed 10.6 km/h Distance 73.31 km</desc>
<time>2011-05-22T13:24:50.53</time>
<name>16429</name>
<sym>Dot</sym>
</trkpt>
<trkpt lat="39.671655" lon="-8.683418">
<ele>405.0</ele>
<desc>Speed 10.4 km/h Distance 73.31 km</desc>
<time>2011-05-22T13:24:51.53</time>
<name>16430</name>
<sym>Dot</sym>
</trkpt>
<trkpt lat="39.671635" lon="-8.683437">
<ele>405.5</ele>
<desc>Speed 9.8 km/h Distance 73.32 km</desc>
<time>2011-05-22T13:24:52.53</time>
<name>16431</name>
<sym>Dot</sym>
</trkpt>
<trkpt lat="39.671615" lon="-8.683457">
<ele>405.5</ele>
<desc>Speed 10.0 km/h Distance 73.32 km</desc>
<time>2011-05-22T13:24:53.53</time>
<name>16432</name>
<sym>Dot</sym>
</trkpt>
<trkpt lat="39.671595" lon="-8.683475">
<ele>405.5</ele>
<desc>Speed 9.6 km/h Distance 73.32 km</desc>
<time>2011-05-22T13:24:54.53</time>
<name>16433</name>
<sym>Dot</sym>
</trkpt>
<trkpt lat="39.671573" lon="-8.683495">
<ele>405.5</ele>
<desc>Speed 10.2 km/h Distance 73.33 km</desc>
<time>2011-05-22T13:24:55.53</time>
<name>16434</name>
<sym>Dot</sym>
</trkpt>
<trkpt lat="39.671552" lon="-8.683515">
<ele>405.5</ele>
<desc>Speed 10.7 km/h Distance 73.33 km</desc>
<time>2011-05-22T13:24:56.53</time>
<name>16435</name>
<sym>Dot</sym>
</trkpt>
<trkpt lat="39.671532" lon="-8.683535">
<ele>405.5</ele>
<desc>Speed 10.5 km/h Distance 73.33 km</desc>
<time>2011-05-22T13:24:57.53</time>
<name>16436</name>
<sym>Dot</sym>
</trkpt>
<trkpt lat="39.671510" lon="-8.683557">
<ele>405.5</ele>
<desc>Speed 10.7 km/h Distance 73.33 km</desc>
<time>2011-05-22T13:24:58.53</time>
<name>16437</name>
<sym>Dot</sym>
</trkpt>
<trkpt lat="39.671488" lon="-8.683580">
<ele>405.5</ele>
<desc>Speed 10.8 km/h Distance 73.34 km</desc>
<time>2011-05-22T13:24:59.53</time>
<name>16438</name>
<sym>Dot</sym>
</trkpt>
<trkpt lat="39.671467" lon="-8.683600">
<ele>405.5</ele>
<desc>Speed 10.9 km/h Distance 73.34 km</desc>
<time>2011-05-22T13:25:00.53</time>
<name>16439</name>
<sym>Dot</sym>
</trkpt>
<trkpt lat="39.671438" lon="-8.683618">
<ele>405.0</ele>
<desc>Speed 12.0 km/h Distance 73.34 km</desc>
<time>2011-05-22T13:25:01.53</time>
<name>16440</name>
<sym>Dot</sym>
</trkpt>
<trkpt lat="39.671413" lon="-8.683633">
<ele>405.0</ele>
<desc>Speed 11.4 km/h Distance 73.35 km</desc>
<time>2011-05-22T13:25:02.53</time>
<name>16441</name>
<sym>Dot</sym>
</trkpt>
<trkpt lat="39.671383" lon="-8.683647">
<ele>405.0</ele>
<desc>Speed 12.6 km/h Distance 73.35 km</desc>
<time>2011-05-22T13:25:03.53</time>
<name>16442</name>
<sym>Dot</sym>
</trkpt>
<trkpt lat="39.671350" lon="-8.683658">
<ele>404.5</ele>
<desc>Speed 13.4 km/h Distance 73.35 km</desc>
<time>2011-05-22T13:25:04.53</time>
<name>16443</name>
<sym>Dot</sym>
</trkpt>
<trkpt lat="39.671318" lon="-8.683672">
<ele>404.0</ele>
<desc>Speed 13.5 km/h Distance 73.36 km</desc>
<time>2011-05-22T13:25:05.53</time>
<name>16444</name>
<sym>Dot</sym>
</trkpt>
<trkpt lat="39.671285" lon="-8.683683">
<ele>403.0</ele>
<desc>Speed 13.4 km/h Distance 73.36 km</desc>
<time>2011-05-22T13:25:06.53</time>
<name>16445</name>
<sym>Dot</sym>
</trkpt>
<trkpt lat="39.671255" lon="-8.683695">
<ele>403.0</ele>
<desc>Speed 12.6 km/h Distance 73.37 km</desc>
<time>2011-05-22T13:25:07.53</time>
<name>16446</name>
<sym>Dot</sym>
</trkpt>
<trkpt lat="39.671227" lon="-8.683707">
<ele>402.5</ele>
<desc>Speed 11.8 km/h Distance 73.37 km</desc>
<time>2011-05-22T13:25:08.53</time>
<name>16447</name>
<sym>Dot</sym>
</trkpt>
<trkpt lat="39.671197" lon="-8.683722">
<ele>403.0</ele>
<desc>Speed 12.1 km/h Distance 73.37 km</desc>
<time>2011-05-22T13:25:09.53</time>
<name>16448</name>
<sym>Dot</sym>
</trkpt>
<trkpt lat="39.671167" lon="-8.683738">
<ele>403.5</ele>
<desc>Speed 12.9 km/h Distance 73.38 km</desc>
<time>2011-05-22T13:25:10.53</time>
<name>16449</name>
<sym>Dot</sym>
</trkpt>
<trkpt lat="39.671125" lon="-8.683750">
<ele>403.0</ele>
<desc>Speed 17.0 km/h Distance 73.38 km</desc>
<time>2011-05-22T13:25:11.53</time>
<name>16450</name>
<sym>Dot</sym>
</trkpt>
<trkpt lat="39.671082" lon="-8.683762">
<ele>403.0</ele>
<desc>Speed 17.9 km/h Distance 73.39 km</desc>
<time>2011-05-22T13:25:12.53</time>
<name>16451</name>
<sym>Dot</sym>
</trkpt>
<trkpt lat="39.671035" lon="-8.683780">
<ele>403.0</ele>
<desc>Speed 18.9 km/h Distance 73.39 km</desc>
<time>2011-05-22T13:25:13.53</time>
<name>16452</name>
<sym>Dot</sym>
</trkpt>
<trkpt lat="39.670990" lon="-8.683800">
<ele>402.5</ele>
<desc>Speed 18.8 km/h Distance 73.40 km</desc>
<time>2011-05-22T13:25:14.53</time>
<name>16453</name>
<sym>Dot</sym>
</trkpt>
<trkpt lat="39.670943" lon="-8.683820">
<ele>402.0</ele>
<desc>Speed 19.4 km/h Distance 73.40 km</desc>
<time>2011-05-22T13:25:15.53</time>
<name>16454</name>
<sym>Dot</sym>
</trkpt>
<trkpt lat="39.670900" lon="-8.683835">
<ele>402.5</ele>
<desc>Speed 18.1 km/h Distance 73.41 km</desc>
<time>2011-05-22T13:25:16.53</time>
<name>16455</name>
<sym>Dot</sym>
</trkpt>
<trkpt lat="39.670852" lon="-8.683853">
<ele>402.5</ele>
<desc>Speed 19.5 km/h Distance 73.41 km</desc>
<time>2011-05-22T13:25:17.53</time>
<name>16456</name>
<sym>Dot</sym>
</trkpt>
<trkpt lat="39.670805" lon="-8.683870">
<ele>402.5</ele>
<desc>Speed 19.7 km/h Distance 73.42 km</desc>
<time>2011-05-22T13:25:18.53</time>
<name>16457</name>
<sym>Dot</sym>
</trkpt>
<trkpt lat="39.670758" lon="-8.683890">
<ele>402.0</ele>
<desc>Speed 18.9 km/h Distance 73.42 km</desc>
<time>2011-05-22T13:25:19.53</time>
<name>16458</name>
<sym>Dot</sym>
</trkpt>
<trkpt lat="39.670715" lon="-8.683905">
<ele>401.5</ele>
<desc>Speed 18.2 km/h Distance 73.43 km</desc>
<time>2011-05-22T13:25:20.53</time>
<name>16459</name>
<sym>Dot</sym>
</trkpt>
<trkpt lat="39.670672" lon="-8.683920">
<ele>401.5</ele>
<desc>Speed 17.8 km/h Distance 73.43 km</desc>
<time>2011-05-22T13:25:21.53</time>
<name>16460</name>
<sym>Dot</sym>
</trkpt>
<trkpt lat="39.670630" lon="-8.683933">
<ele>401.0</ele>
<desc>Speed 16.5 km/h Distance 73.44 km</desc>
<time>2011-05-22T13:25:22.53</time>
<name>16461</name>
<sym>Dot</sym>
</trkpt>
<trkpt lat="39.670593" lon="-8.683948">
<ele>401.5</ele>
<desc>Speed 15.6 km/h Distance 73.44 km</desc>
<time>2011-05-22T13:25:23.53</time>
<name>16462</name>
<sym>Dot</sym>
</trkpt>
<trkpt lat="39.670552" lon="-8.683963">
<ele>401.0</ele>
<desc>Speed 16.9 km/h Distance 73.45 km</desc>
<time>2011-05-22T13:25:24.53</time>
<name>16463</name>
<sym>Dot</sym>
</trkpt>
<trkpt lat="39.670512" lon="-8.683978">
<ele>400.5</ele>
<desc>Speed 16.9 km/h Distance 73.45 km</desc>
<time>2011-05-22T13:25:25.53</time>
<name>16464</name>
<sym>Dot</sym>
</trkpt>
<trkpt lat="39.670475" lon="-8.683990">
<ele>400.0</ele>
<desc>Speed 14.6 km/h Distance 73.46 km</desc>
<time>2011-05-22T13:25:26.53</time>
<name>16465</name>
<sym>Dot</sym>
</trkpt>
<trkpt lat="39.670448" lon="-8.684000">
<ele>400.0</ele>
<desc>Speed 10.8 km/h Distance 73.46 km</desc>
<time>2011-05-22T13:25:27.53</time>
<name>16466</name>
<sym>Dot</sym>
</trkpt>
<trkpt lat="39.670433" lon="-8.684007">
<ele>399.5</ele>
<desc>Speed 6.5 km/h Distance 73.46 km</desc>
<time>2011-05-22T13:25:28.53</time>
<name>16467</name>
<sym>Dot</sym>
</trkpt>
<trkpt lat="39.670428" lon="-8.684008">
<ele>399.0</ele>
<desc>Speed 1.7 km/h Distance 73.46 km</desc>
<time>2011-05-22T13:25:29.53</time>
<name>16468</name>
<sym>Dot</sym>
</trkpt>
<trkpt lat="39.670420" lon="-8.684008">
<ele>399.0</ele>
<desc>Speed 2.7 km/h Distance 73.46 km</desc>
<time>2011-05-22T13:25:34.53</time>
<name>16469</name>
<sym>Dot</sym>
</trkpt>
<trkpt lat="39.670410" lon="-8.684010">
<ele>399.5</ele>
<desc>Speed 4.3 km/h Distance 73.46 km</desc>
<time>2011-05-22T13:25:35.53</time>
<name>16470</name>
<sym>Dot</sym>
</trkpt>
<trkpt lat="39.670393" lon="-8.684015">
<ele>400.0</ele>
<desc>Speed 6.8 km/h Distance 73.47 km</desc>
<time>2011-05-22T13:25:36.53</time>
<name>16471</name>
<sym>Dot</sym>
</trkpt>
<trkpt lat="39.670372" lon="-8.684020">
<ele>400.0</ele>
<desc>Speed 8.4 km/h Distance 73.47 km</desc>
<time>2011-05-22T13:25:37.53</time>
<name>16472</name>
<sym>Dot</sym>
</trkpt>
<trkpt lat="39.670347" lon="-8.684028">
<ele>400.0</ele>
<desc>Speed 10.2 km/h Distance 73.47 km</desc>
<time>2011-05-22T13:25:38.53</time>
<name>16473</name>
<sym>Dot</sym>
</trkpt>
<trkpt lat="39.670318" lon="-8.684032">
<ele>400.0</ele>
<desc>Speed 11.7 km/h Distance 73.47 km</desc>
<time>2011-05-22T13:25:39.53</time>
<name>16474</name>
<sym>Dot</sym>
</trkpt>
<trkpt lat="39.670285" lon="-8.684027">
<ele>400.0</ele>
<desc>Speed 12.7 km/h Distance 73.48 km</desc>
<time>2011-05-22T13:25:40.53</time>
<name>16475</name>
<sym>Dot</sym>
</trkpt>
<trkpt lat="39.670252" lon="-8.684017">
<ele>399.5</ele>
<desc>Speed 14.0 km/h Distance 73.48 km</desc>
<time>2011-05-22T13:25:41.53</time>
<name>16476</name>
<sym>Dot</sym>
</trkpt>
<trkpt lat="39.670215" lon="-8.683997">
<ele>399.5</ele>
<desc>Speed 15.6 km/h Distance 73.49 km</desc>
<time>2011-05-22T13:25:42.53</time>
<name>16477</name>
<sym>Dot</sym>
</trkpt>
<trkpt lat="39.670177" lon="-8.683968">
<ele>399.0</ele>
<desc>Speed 17.5 km/h Distance 73.49 km</desc>
<time>2011-05-22T13:25:43.53</time>
<name>16478</name>
<sym>Dot</sym>
</trkpt>
<trkpt lat="39.670140" lon="-8.683937">
<ele>399.0</ele>
<desc>Speed 17.6 km/h Distance 73.50 km</desc>
<time>2011-05-22T13:25:44.53</time>
<name>16479</name>
<sym>Dot</sym>
</trkpt>
<trkpt lat="39.670105" lon="-8.683903">
<ele>398.5</ele>
<desc>Speed 17.3 km/h Distance 73.50 km</desc>
<time>2011-05-22T13:25:45.53</time>
<name>16480</name>
<sym>Dot</sym>
</trkpt>
<trkpt lat="39.670070" lon="-8.683870">
<ele>398.5</ele>
<desc>Speed 17.1 km/h Distance 73.51 km</desc>
<time>2011-05-22T13:25:46.53</time>
<name>16481</name>
<sym>Dot</sym>
</trkpt>
<trkpt lat="39.670033" lon="-8.683838">
<ele>398.0</ele>
<desc>Speed 17.2 km/h Distance 73.51 km</desc>
<time>2011-05-22T13:25:47.53</time>
<name>16482</name>
<sym>Dot</sym>
</trkpt>
<trkpt lat="39.669997" lon="-8.683808">
<ele>397.5</ele>
<desc>Speed 17.6 km/h Distance 73.51 km</desc>
<time>2011-05-22T13:25:48.53</time>
<name>16483</name>
<sym>Dot</sym>
</trkpt>
<trkpt lat="39.669957" lon="-8.683783">
<ele>397.0</ele>
<desc>Speed 17.3 km/h Distance 73.52 km</desc>
<time>2011-05-22T13:25:49.53</time>
<name>16484</name>
<sym>Dot</sym>
</trkpt>
<trkpt lat="39.669915" lon="-8.683763">
<ele>397.0</ele>
<desc>Speed 17.5 km/h Distance 73.52 km</desc>
<time>2011-05-22T13:25:50.53</time>
<name>16485</name>
<sym>Dot</sym>
</trkpt>
<trkpt lat="39.669872" lon="-8.683745">
<ele>396.5</ele>
<desc>Speed 17.9 km/h Distance 73.53 km</desc>
<time>2011-05-22T13:25:51.53</time>
<name>16486</name>
<sym>Dot</sym>
</trkpt>
<trkpt lat="39.669828" lon="-8.683732">
<ele>396.0</ele>
<desc>Speed 18.0 km/h Distance 73.53 km</desc>
<time>2011-05-22T13:25:52.53</time>
<name>16487</name>
<sym>Dot</sym>
</trkpt>
<trkpt lat="39.669782" lon="-8.683725">
<ele>396.0</ele>
<desc>Speed 17.9 km/h Distance 73.54 km</desc>
<time>2011-05-22T13:25:53.53</time>
<name>16488</name>
<sym>Dot</sym>
</trkpt>
<trkpt lat="39.669737" lon="-8.683722">
<ele>395.5</ele>
<desc>Speed 17.8 km/h Distance 73.54 km</desc>
<time>2011-05-22T13:25:54.53</time>
<name>16489</name>
<sym>Dot</sym>
</trkpt>
<trkpt lat="39.669690" lon="-8.683720">
<ele>395.5</ele>
<desc>Speed 18.1 km/h Distance 73.55 km</desc>
<time>2011-05-22T13:25:55.53</time>
<name>16490</name>
<sym>Dot</sym>
</trkpt>
<trkpt lat="39.669645" lon="-8.683723">
<ele>395.5</ele>
<desc>Speed 17.8 km/h Distance 73.56 km</desc>
<time>2011-05-22T13:25:56.53</time>
<name>16491</name>
<sym>Dot</sym>
</trkpt>
<trkpt lat="39.669600" lon="-8.683733">
<ele>395.5</ele>
<desc>Speed 17.9 km/h Distance 73.56 km</desc>
<time>2011-05-22T13:25:57.53</time>
<name>16492</name>
<sym>Dot</sym>
</trkpt>
<trkpt lat="39.669557" lon="-8.683747">
<ele>395.5</ele>
<desc>Speed 18.0 km/h Distance 73.57 km</desc>
<time>2011-05-22T13:25:58.53</time>
<name>16493</name>
<sym>Dot</sym>
</trkpt>
<trkpt lat="39.669513" lon="-8.683765">
<ele>395.5</ele>
<desc>Speed 17.9 km/h Distance 73.57 km</desc>
<time>2011-05-22T13:25:59.53</time>
<name>16494</name>
<sym>Dot</sym>
</trkpt>
<trkpt lat="39.669473" lon="-8.683788">
<ele>396.0</ele>
<desc>Speed 17.4 km/h Distance 73.58 km</desc>
<time>2011-05-22T13:26:00.53</time>
<name>16495</name>
<sym>Dot</sym>
</trkpt>
<trkpt lat="39.669435" lon="-8.683817">
<ele>396.0</ele>
<desc>Speed 17.6 km/h Distance 73.58 km</desc>
<time>2011-05-22T13:26:01.53</time>
<name>16496</name>
<sym>Dot</sym>
</trkpt>
<trkpt lat="39.669398" lon="-8.683847">
<ele>396.0</ele>
<desc>Speed 17.0 km/h Distance 73.58 km</desc>
<time>2011-05-22T13:26:02.53</time>
<name>16497</name>
<sym>Dot</sym>
</trkpt>
<trkpt lat="39.669363" lon="-8.683880">
<ele>396.0</ele>
<desc>Speed 17.1 km/h Distance 73.59 km</desc>
<time>2011-05-22T13:26:03.53</time>
<name>16498</name>
<sym>Dot</sym>
</trkpt>
<trkpt lat="39.669330" lon="-8.683917">
<ele>396.0</ele>
<desc>Speed 17.2 km/h Distance 73.59 km</desc>
<time>2011-05-22T13:26:04.53</time>
<name>16499</name>
<sym>Dot</sym>
</trkpt>
<trkpt lat="39.669298" lon="-8.683955">
<ele>396.0</ele>
<desc>Speed 17.1 km/h Distance 73.60 km</desc>
<time>2011-05-22T13:26:05.53</time>
<name>16500</name>
<sym>Dot</sym>
</trkpt>
<trkpt lat="39.669267" lon="-8.683990">
<ele>396.0</ele>
<desc>Speed 16.7 km/h Distance 73.60 km</desc>
<time>2011-05-22T13:26:06.53</time>
<name>16501</name>
<sym>Dot</sym>
</trkpt>
<trkpt lat="39.669233" lon="-8.684023">
<ele>395.5</ele>
<desc>Speed 16.5 km/h Distance 73.61 km</desc>
<time>2011-05-22T13:26:07.53</time>
<name>16502</name>
<sym>Dot</sym>
</trkpt>
<trkpt lat="39.669202" lon="-8.684055">
<ele>395.5</ele>
<desc>Speed 16.0 km/h Distance 73.61 km</desc>
<time>2011-05-22T13:26:08.53</time>
<name>16503</name>
<sym>Dot</sym>
</trkpt>
<trkpt lat="39.669168" lon="-8.684082">
<ele>395.5</ele>
<desc>Speed 15.1 km/h Distance 73.62 km</desc>
<time>2011-05-22T13:26:09.53</time>
<name>16504</name>
<sym>Dot</sym>
</trkpt>
<trkpt lat="39.669133" lon="-8.684102">
<ele>395.5</ele>
<desc>Speed 15.4 km/h Distance 73.62 km</desc>
<time>2011-05-22T13:26:10.53</time>
<name>16505</name>
<sym>Dot</sym>
</trkpt>
<trkpt lat="39.669093" lon="-8.684115">
<ele>395.0</ele>
<desc>Speed 16.1 km/h Distance 73.63 km</desc>
<time>2011-05-22T13:26:11.53</time>
<name>16506</name>
<sym>Dot</sym>
</trkpt>
<trkpt lat="39.669052" lon="-8.684120">
<ele>395.0</ele>
<desc>Speed 16.7 km/h Distance 73.63 km</desc>
<time>2011-05-22T13:26:12.53</time>
<name>16507</name>
<sym>Dot</sym>
</trkpt>
<trkpt lat="39.669010" lon="-8.684122">
<ele>395.0</ele>
<desc>Speed 17.0 km/h Distance 73.64 km</desc>
<time>2011-05-22T13:26:13.53</time>
<name>16508</name>
<sym>Dot</sym>
</trkpt>
<trkpt lat="39.668967" lon="-8.684125">
<ele>395.0</ele>
<desc>Speed 17.1 km/h Distance 73.64 km</desc>
<time>2011-05-22T13:26:14.53</time>
<name>16509</name>
<sym>Dot</sym>
</trkpt>
<trkpt lat="39.668923" lon="-8.684132">
<ele>394.5</ele>
<desc>Speed 17.0 km/h Distance 73.65 km</desc>
<time>2011-05-22T13:26:15.53</time>
<name>16510</name>
<sym>Dot</sym>
</trkpt>
<trkpt lat="39.668882" lon="-8.684135">
<ele>394.5</ele>
<desc>Speed 16.8 km/h Distance 73.65 km</desc>
<time>2011-05-22T13:26:16.53</time>
<name>16511</name>
<sym>Dot</sym>
</trkpt>
<trkpt lat="39.668840" lon="-8.684137">
<ele>394.0</ele>
<desc>Speed 16.6 km/h Distance 73.65 km</desc>
<time>2011-05-22T13:26:17.53</time>
<name>16512</name>
<sym>Dot</sym>
</trkpt>
<trkpt lat="39.668798" lon="-8.684138">
<ele>394.0</ele>
<desc>Speed 16.0 km/h Distance 73.66 km</desc>
<time>2011-05-22T13:26:18.53</time>
<name>16513</name>
<sym>Dot</sym>
</trkpt>
<trkpt lat="39.668758" lon="-8.684140">
<ele>394.0</ele>
<desc>Speed 16.0 km/h Distance 73.66 km</desc>
<time>2011-05-22T13:26:19.53</time>
<name>16514</name>
<sym>Dot</sym>
</trkpt>
<trkpt lat="39.668718" lon="-8.684142">
<ele>393.5</ele>
<desc>Speed 15.9 km/h Distance 73.67 km</desc>
<time>2011-05-22T13:26:20.53</time>
<name>16515</name>
<sym>Dot</sym>
</trkpt>
<trkpt lat="39.668680" lon="-8.684140">
<ele>393.5</ele>
<desc>Speed 15.6 km/h Distance 73.67 km</desc>
<time>2011-05-22T13:26:21.53</time>
<name>16516</name>
<sym>Dot</sym>
</trkpt>
<trkpt lat="39.668640" lon="-8.684138">
<ele>393.5</ele>
<desc>Speed 16.0 km/h Distance 73.68 km</desc>
<time>2011-05-22T13:26:22.53</time>
<name>16517</name>
<sym>Dot</sym>
</trkpt>
<trkpt lat="39.668598" lon="-8.684140">
<ele>393.5</ele>
<desc>Speed 16.2 km/h Distance 73.68 km</desc>
<time>2011-05-22T13:26:23.53</time>
<name>16518</name>
<sym>Dot</sym>
</trkpt>
<trkpt lat="39.668558" lon="-8.684143">
<ele>393.5</ele>
<desc>Speed 16.2 km/h Distance 73.69 km</desc>
<time>2011-05-22T13:26:24.53</time>
<name>16519</name>
<sym>Dot</sym>
</trkpt>
<trkpt lat="39.668517" lon="-8.684145">
<ele>393.0</ele>
<desc>Speed 16.1 km/h Distance 73.69 km</desc>
<time>2011-05-22T13:26:25.53</time>
<name>16520</name>
<sym>Dot</sym>
</trkpt>
<trkpt lat="39.668475" lon="-8.684147">
<ele>393.0</ele>
<desc>Speed 16.7 km/h Distance 73.70 km</desc>
<time>2011-05-22T13:26:26.53</time>
<name>16521</name>
<sym>Dot</sym>
</trkpt>
<trkpt lat="39.668432" lon="-8.684148">
<ele>393.0</ele>
<desc>Speed 17.4 km/h Distance 73.70 km</desc>
<time>2011-05-22T13:26:27.53</time>
<name>16522</name>
<sym>Dot</sym>
</trkpt>
<trkpt lat="39.668388" lon="-8.684150">
<ele>393.0</ele>
<desc>Speed 17.4 km/h Distance 73.70 km</desc>
<time>2011-05-22T13:26:28.53</time>
<name>16523</name>
<sym>Dot</sym>
</trkpt>
<trkpt lat="39.668345" lon="-8.684150">
<ele>392.5</ele>
<desc>Speed 17.3 km/h Distance 73.71 km</desc>
<time>2011-05-22T13:26:29.53</time>
<name>16524</name>
<sym>Dot</sym>
</trkpt>
<trkpt lat="39.668302" lon="-8.684150">
<ele>392.5</ele>
<desc>Speed 17.3 km/h Distance 73.71 km</desc>
<time>2011-05-22T13:26:30.53</time>
<name>16525</name>
<sym>Dot</sym>
</trkpt>
<trkpt lat="39.668258" lon="-8.684148">
<ele>392.5</ele>
<desc>Speed 17.1 km/h Distance 73.72 km</desc>
<time>2011-05-22T13:26:31.53</time>
<name>16526</name>
<sym>Dot</sym>
</trkpt>
<trkpt lat="39.668215" lon="-8.684148">
<ele>392.5</ele>
<desc>Speed 17.3 km/h Distance 73.72 km</desc>
<time>2011-05-22T13:26:32.53</time>
<name>16527</name>
<sym>Dot</sym>
</trkpt>
<trkpt lat="39.668173" lon="-8.684150">
<ele>392.5</ele>
<desc>Speed 17.1 km/h Distance 73.73 km</desc>
<time>2011-05-22T13:26:33.53</time>
<name>16528</name>
<sym>Dot</sym>
</trkpt>
<trkpt lat="39.668132" lon="-8.684148">
<ele>393.0</ele>
<desc>Speed 16.3 km/h Distance 73.73 km</desc>
<time>2011-05-22T13:26:34.53</time>
<name>16529</name>
<sym>Dot</sym>
</trkpt>
<trkpt lat="39.668090" lon="-8.684148">
<ele>393.0</ele>
<desc>Speed 17.0 km/h Distance 73.74 km</desc>
<time>2011-05-22T13:26:35.53</time>
<name>16530</name>
<sym>Dot</sym>
</trkpt>
<trkpt lat="39.668047" lon="-8.684148">
<ele>393.0</ele>
<desc>Speed 17.0 km/h Distance 73.74 km</desc>
<time>2011-05-22T13:26:36.53</time>
<name>16531</name>
<sym>Dot</sym>
</trkpt>
<trkpt lat="39.668005" lon="-8.684148">
<ele>393.0</ele>
<desc>Speed 17.1 km/h Distance 73.75 km</desc>
<time>2011-05-22T13:26:37.53</time>
<name>16532</name>
<sym>Dot</sym>
</trkpt>
<trkpt lat="39.667963" lon="-8.684148">
<ele>393.0</ele>
<desc>Speed 16.8 km/h Distance 73.75 km</desc>
<time>2011-05-22T13:26:38.53</time>
<name>16533</name>
<sym>Dot</sym>
</trkpt>
<trkpt lat="39.667923" lon="-8.684145">
<ele>393.0</ele>
<desc>Speed 16.1 km/h Distance 73.76 km</desc>
<time>2011-05-22T13:26:39.53</time>
<name>16534</name>
<sym>Dot</sym>
</trkpt>
<trkpt lat="39.667882" lon="-8.684145">
<ele>393.0</ele>
<desc>Speed 16.4 km/h Distance 73.76 km</desc>
<time>2011-05-22T13:26:40.53</time>
<name>16535</name>
<sym>Dot</sym>
</trkpt>
<trkpt lat="39.667840" lon="-8.684147">
<ele>393.0</ele>
<desc>Speed 16.7 km/h Distance 73.77 km</desc>
<time>2011-05-22T13:26:41.53</time>
<name>16536</name>
<sym>Dot</sym>
</trkpt>
<trkpt lat="39.667798" lon="-8.684147">
<ele>393.0</ele>
<desc>Speed 16.8 km/h Distance 73.77 km</desc>
<time>2011-05-22T13:26:42.53</time>
<name>16537</name>
<sym>Dot</sym>
</trkpt>
<trkpt lat="39.667757" lon="-8.684147">
<ele>393.0</ele>
<desc>Speed 16.7 km/h Distance 73.78 km</desc>
<time>2011-05-22T13:26:43.53</time>
<name>16538</name>
<sym>Dot</sym>
</trkpt>
<trkpt lat="39.667717" lon="-8.684148">
<ele>393.5</ele>
<desc>Speed 16.5 km/h Distance 73.78 km</desc>
<time>2011-05-22T13:26:44.53</time>
<name>16539</name>
<sym>Dot</sym>
</trkpt>
<trkpt lat="39.667675" lon="-8.684152">
<ele>393.5</ele>
<desc>Speed 16.7 km/h Distance 73.78 km</desc>
<time>2011-05-22T13:26:45.53</time>
<name>16540</name>
<sym>Dot</sym>
</trkpt>
<trkpt lat="39.667633" lon="-8.684157">
<ele>393.5</ele>
<desc>Speed 16.8 km/h Distance 73.79 km</desc>
<time>2011-05-22T13:26:46.53</time>
<name>16541</name>
<sym>Dot</sym>
</trkpt>
<trkpt lat="39.667592" lon="-8.684160">
<ele>393.5</ele>
<desc>Speed 16.8 km/h Distance 73.79 km</desc>
<time>2011-05-22T13:26:47.53</time>
<name>16542</name>
<sym>Dot</sym>
</trkpt>
<trkpt lat="39.667548" lon="-8.684163">
<ele>393.5</ele>
<desc>Speed 17.0 km/h Distance 73.80 km</desc>
<time>2011-05-22T13:26:48.53</time>
<name>16543</name>
<sym>Dot</sym>
</trkpt>
<trkpt lat="39.667507" lon="-8.684168">
<ele>393.5</ele>
<desc>Speed 16.9 km/h Distance 73.80 km</desc>
<time>2011-05-22T13:26:49.53</time>
<name>16544</name>
<sym>Dot</sym>
</trkpt>
<trkpt lat="39.667463" lon="-8.684175">
<ele>393.5</ele>
<desc>Speed 17.5 km/h Distance 73.81 km</desc>
<time>2011-05-22T13:26:50.53</time>
<name>16545</name>
<sym>Dot</sym>
</trkpt>
<trkpt lat="39.667420" lon="-8.684183">
<ele>393.5</ele>
<desc>Speed 17.7 km/h Distance 73.81 km</desc>
<time>2011-05-22T13:26:51.53</time>
<name>16546</name>
<sym>Dot</sym>
</trkpt>
<trkpt lat="39.667373" lon="-8.684192">
<ele>393.5</ele>
<desc>Speed 18.4 km/h Distance 73.82 km</desc>
<time>2011-05-22T13:26:52.53</time>
<name>16547</name>
<sym>Dot</sym>
</trkpt>
<trkpt lat="39.667328" lon="-8.684203">
<ele>393.5</ele>
<desc>Speed 18.3 km/h Distance 73.82 km</desc>
<time>2011-05-22T13:26:53.53</time>
<name>16548</name>
<sym>Dot</sym>
</trkpt>
<trkpt lat="39.667283" lon="-8.684215">
<ele>393.5</ele>
<desc>Speed 18.9 km/h Distance 73.83 km</desc>
<time>2011-05-22T13:26:54.53</time>
<name>16549</name>
<sym>Dot</sym>
</trkpt>
<trkpt lat="39.667237" lon="-8.684227">
<ele>393.5</ele>
<desc>Speed 19.1 km/h Distance 73.83 km</desc>
<time>2011-05-22T13:26:55.53</time>
<name>16550</name>
<sym>Dot</sym>
</trkpt>
<trkpt lat="39.667190" lon="-8.684242">
<ele>393.5</ele>
<desc>Speed 18.8 km/h Distance 73.84 km</desc>
<time>2011-05-22T13:26:56.53</time>
<name>16551</name>
<sym>Dot</sym>
</trkpt>
<trkpt lat="39.667145" lon="-8.684257">
<ele>393.5</ele>
<desc>Speed 18.9 km/h Distance 73.84 km</desc>
<time>2011-05-22T13:26:57.53</time>
<name>16552</name>
<sym>Dot</sym>
</trkpt>
<trkpt lat="39.667098" lon="-8.684270">
<ele>394.0</ele>
<desc>Speed 18.8 km/h Distance 73.85 km</desc>
<time>2011-05-22T13:26:58.53</time>
<name>16553</name>
<sym>Dot</sym>
</trkpt>
<trkpt lat="39.667055" lon="-8.684285">
<ele>394.5</ele>
<desc>Speed 18.0 km/h Distance 73.85 km</desc>
<time>2011-05-22T13:26:59.53</time>
<name>16554</name>
<sym>Dot</sym>
</trkpt>
<trkpt lat="39.667012" lon="-8.684303">
<ele>394.5</ele>
<desc>Speed 17.9 km/h Distance 73.86 km</desc>
<time>2011-05-22T13:27:00.53</time>
<name>16555</name>
<sym>Dot</sym>
</trkpt>
<trkpt lat="39.666970" lon="-8.684320">
<ele>394.5</ele>
<desc>Speed 18.0 km/h Distance 73.86 km</desc>
<time>2011-05-22T13:27:01.53</time>
<name>16556</name>
<sym>Dot</sym>
</trkpt>
<trkpt lat="39.666928" lon="-8.684340">
<ele>395.0</ele>
<desc>Speed 17.6 km/h Distance 73.87 km</desc>
<time>2011-05-22T13:27:02.53</time>
<name>16557</name>
<sym>Dot</sym>
</trkpt>
<trkpt lat="39.666888" lon="-8.684360">
<ele>395.0</ele>
<desc>Speed 17.2 km/h Distance 73.87 km</desc>
<time>2011-05-22T13:27:03.53</time>
<name>16558</name>
<sym>Dot</sym>
</trkpt>
<trkpt lat="39.666848" lon="-8.684382">
<ele>395.0</ele>
<desc>Speed 17.0 km/h Distance 73.88 km</desc>
<time>2011-05-22T13:27:04.53</time>
<name>16559</name>
<sym>Dot</sym>
</trkpt>
<trkpt lat="39.666810" lon="-8.684400">
<ele>395.0</ele>
<desc>Speed 16.5 km/h Distance 73.88 km</desc>
<time>2011-05-22T13:27:05.53</time>
<name>16560</name>
<sym>Dot</sym>
</trkpt>
<trkpt lat="39.666772" lon="-8.684420">
<ele>395.5</ele>
<desc>Speed 16.0 km/h Distance 73.89 km</desc>
<time>2011-05-22T13:27:06.53</time>
<name>16561</name>
<sym>Dot</sym>
</trkpt>
<trkpt lat="39.666738" lon="-8.684438">
<ele>395.5</ele>
<desc>Speed 14.9 km/h Distance 73.89 km</desc>
<time>2011-05-22T13:27:07.53</time>
<name>16562</name>
<sym>Dot</sym>
</trkpt>
<trkpt lat="39.666705" lon="-8.684457">
<ele>396.0</ele>
<desc>Speed 14.1 km/h Distance 73.90 km</desc>
<time>2011-05-22T13:27:08.53</time>
<name>16563</name>
<sym>Dot</sym>
</trkpt>
<trkpt lat="39.666673" lon="-8.684475">
<ele>396.0</ele>
<desc>Speed 14.4 km/h Distance 73.90 km</desc>
<time>2011-05-22T13:27:09.53</time>
<name>16564</name>
<sym>Dot</sym>
</trkpt>
<trkpt lat="39.666638" lon="-8.684495">
<ele>396.5</ele>
<desc>Speed 14.7 km/h Distance 73.90 km</desc>
<time>2011-05-22T13:27:10.53</time>
<name>16565</name>
<sym>Dot</sym>
</trkpt>
<trkpt lat="39.666607" lon="-8.684513">
<ele>396.5</ele>
<desc>Speed 14.4 km/h Distance 73.91 km</desc>
<time>2011-05-22T13:27:11.53</time>
<name>16566</name>
<sym>Dot</sym>
</trkpt>
<trkpt lat="39.666573" lon="-8.684532">
<ele>397.0</ele>
<desc>Speed 14.3 km/h Distance 73.91 km</desc>
<time>2011-05-22T13:27:12.53</time>
<name>16567</name>
<sym>Dot</sym>
</trkpt>
<trkpt lat="39.666542" lon="-8.684552">
<ele>397.0</ele>
<desc>Speed 14.0 km/h Distance 73.92 km</desc>
<time>2011-05-22T13:27:13.53</time>
<name>16568</name>
<sym>Dot</sym>
</trkpt>
<trkpt lat="39.666510" lon="-8.684568">
<ele>397.5</ele>
<desc>Speed 13.7 km/h Distance 73.92 km</desc>
<time>2011-05-22T13:27:14.53</time>
<name>16569</name>
<sym>Dot</sym>
</trkpt>
<trkpt lat="39.666478" lon="-8.684583">
<ele>398.0</ele>
<desc>Speed 13.2 km/h Distance 73.92 km</desc>
<time>2011-05-22T13:27:15.53</time>
<name>16570</name>
<sym>Dot</sym>
</trkpt>
<trkpt lat="39.666448" lon="-8.684598">
<ele>398.5</ele>
<desc>Speed 13.1 km/h Distance 73.93 km</desc>
<time>2011-05-22T13:27:16.53</time>
<name>16571</name>
<sym>Dot</sym>
</trkpt>
<trkpt lat="39.666417" lon="-8.684613">
<ele>399.0</ele>
<desc>Speed 13.4 km/h Distance 73.93 km</desc>
<time>2011-05-22T13:27:17.53</time>
<name>16572</name>
<sym>Dot</sym>
</trkpt>
<trkpt lat="39.666385" lon="-8.684632">
<ele>399.0</ele>
<desc>Speed 13.8 km/h Distance 73.93 km</desc>
<time>2011-05-22T13:27:18.53</time>
<name>16573</name>
<sym>Dot</sym>
</trkpt>
<trkpt lat="39.666355" lon="-8.684648">
<ele>399.5</ele>
<desc>Speed 13.2 km/h Distance 73.94 km</desc>
<time>2011-05-22T13:27:19.53</time>
<name>16574</name>
<sym>Dot</sym>
</trkpt>
<trkpt lat="39.666323" lon="-8.684665">
<ele>399.5</ele>
<desc>Speed 13.3 km/h Distance 73.94 km</desc>
<time>2011-05-22T13:27:20.53</time>
<name>16575</name>
<sym>Dot</sym>
</trkpt>
<trkpt lat="39.666293" lon="-8.684680">
<ele>400.0</ele>
<desc>Speed 13.0 km/h Distance 73.95 km</desc>
<time>2011-05-22T13:27:21.53</time>
<name>16576</name>
<sym>Dot</sym>
</trkpt>
<trkpt lat="39.666263" lon="-8.684695">
<ele>400.5</ele>
<desc>Speed 12.5 km/h Distance 73.95 km</desc>
<time>2011-05-22T13:27:22.53</time>
<name>16577</name>
<sym>Dot</sym>
</trkpt>
<trkpt lat="39.666237" lon="-8.684710">
<ele>400.5</ele>
<desc>Speed 12.2 km/h Distance 73.95 km</desc>
<time>2011-05-22T13:27:23.53</time>
<name>16578</name>
<sym>Dot</sym>
</trkpt>
<trkpt lat="39.666207" lon="-8.684728">
<ele>400.5</ele>
<desc>Speed 12.9 km/h Distance 73.96 km</desc>
<time>2011-05-22T13:27:24.53</time>
<name>16579</name>
<sym>Dot</sym>
</trkpt>
<trkpt lat="39.666178" lon="-8.684742">
<ele>401.0</ele>
<desc>Speed 11.8 km/h Distance 73.96 km</desc>
<time>2011-05-22T13:27:25.53</time>
<name>16580</name>
<sym>Dot</sym>
</trkpt>
<trkpt lat="39.666150" lon="-8.684755">
<ele>401.5</ele>
<desc>Speed 12.1 km/h Distance 73.96 km</desc>
<time>2011-05-22T13:27:26.53</time>
<name>16581</name>
<sym>Dot</sym>
</trkpt>
<trkpt lat="39.666123" lon="-8.684768">
<ele>402.5</ele>
<desc>Speed 11.2 km/h Distance 73.97 km</desc>
<time>2011-05-22T13:27:27.53</time>
<name>16582</name>
<sym>Dot</sym>
</trkpt>
<trkpt lat="39.666097" lon="-8.684782">
<ele>403.5</ele>
<desc>Speed 11.2 km/h Distance 73.97 km</desc>
<time>2011-05-22T13:27:28.53</time>
<name>16583</name>
<sym>Dot</sym>
</trkpt>
<trkpt lat="39.666072" lon="-8.684795">
<ele>404.0</ele>
<desc>Speed 10.6 km/h Distance 73.97 km</desc>
<time>2011-05-22T13:27:29.53</time>
<name>16584</name>
<sym>Dot</sym>
</trkpt>
<trkpt lat="39.666043" lon="-8.684812">
<ele>403.5</ele>
<desc>Speed 12.4 km/h Distance 73.98 km</desc>
<time>2011-05-22T13:27:30.53</time>
<name>16585</name>
<sym>Dot</sym>
</trkpt>
<trkpt lat="39.666015" lon="-8.684828">
<ele>403.5</ele>
<desc>Speed 12.5 km/h Distance 73.98 km</desc>
<time>2011-05-22T13:27:31.53</time>
<name>16586</name>
<sym>Dot</sym>
</trkpt>
<trkpt lat="39.665987" lon="-8.684843">
<ele>404.0</ele>
<desc>Speed 11.7 km/h Distance 73.98 km</desc>
<time>2011-05-22T13:27:32.53</time>
<name>16587</name>
<sym>Dot</sym>
</trkpt>
<trkpt lat="39.665960" lon="-8.684858">
<ele>404.5</ele>
<desc>Speed 11.5 km/h Distance 73.99 km</desc>
<time>2011-05-22T13:27:33.53</time>
<name>16588</name>
<sym>Dot</sym>
</trkpt>
<trkpt lat="39.665933" lon="-8.684877">
<ele>405.0</ele>
<desc>Speed 11.8 km/h Distance 73.99 km</desc>
<time>2011-05-22T13:27:34.53</time>
<name>16589</name>
<sym>Dot</sym>
</trkpt>
<trkpt lat="39.665905" lon="-8.684895">
<ele>405.0</ele>
<desc>Speed 12.0 km/h Distance 73.99 km</desc>
<time>2011-05-22T13:27:35.53</time>
<name>16590</name>
<sym>Dot</sym>
</trkpt>
<trkpt lat="39.665877" lon="-8.684910">
<ele>405.0</ele>
<desc>Speed 12.3 km/h Distance 74.00 km</desc>
<time>2011-05-22T13:27:36.53</time>
<name>16591</name>
<sym>Dot</sym>
</trkpt>
<trkpt lat="39.665848" lon="-8.684927">
<ele>405.0</ele>
<desc>Speed 12.4 km/h Distance 74.00 km</desc>
<time>2011-05-22T13:27:37.53</time>
<name>16592</name>
<sym>Dot</sym>
</trkpt>
<trkpt lat="39.665818" lon="-8.684942">
<ele>404.5</ele>
<desc>Speed 12.6 km/h Distance 74.00 km</desc>
<time>2011-05-22T13:27:38.53</time>
<name>16593</name>
<sym>Dot</sym>
</trkpt>
<trkpt lat="39.665788" lon="-8.684957">
<ele>404.5</ele>
<desc>Speed 12.7 km/h Distance 74.01 km</desc>
<time>2011-05-22T13:27:39.53</time>
<name>16594</name>
<sym>Dot</sym>
</trkpt>
<trkpt lat="39.665758" lon="-8.684973">
<ele>404.5</ele>
<desc>Speed 12.9 km/h Distance 74.01 km</desc>
<time>2011-05-22T13:27:40.53</time>
<name>16595</name>
<sym>Dot</sym>
</trkpt>
<trkpt lat="39.665728" lon="-8.684988">
<ele>404.5</ele>
<desc>Speed 12.6 km/h Distance 74.01 km</desc>
<time>2011-05-22T13:27:41.53</time>
<name>16596</name>
<sym>Dot</sym>
</trkpt>
<trkpt lat="39.665698" lon="-8.685003">
<ele>404.5</ele>
<desc>Speed 12.9 km/h Distance 74.02 km</desc>
<time>2011-05-22T13:27:42.53</time>
<name>16597</name>
<sym>Dot</sym>
</trkpt>
<trkpt lat="39.665667" lon="-8.685018">
<ele>404.5</ele>
<desc>Speed 13.0 km/h Distance 74.02 km</desc>
<time>2011-05-22T13:27:43.53</time>
<name>16598</name>
<sym>Dot</sym>
</trkpt>
<trkpt lat="39.665637" lon="-8.685033">
<ele>404.5</ele>
<desc>Speed 12.8 km/h Distance 74.02 km</desc>
<time>2011-05-22T13:27:44.53</time>
<name>16599</name>
<sym>Dot</sym>
</trkpt>
<trkpt lat="39.665608" lon="-8.685048">
<ele>404.5</ele>
<desc>Speed 12.5 km/h Distance 74.03 km</desc>
<time>2011-05-22T13:27:45.53</time>
<name>16600</name>
<sym>Dot</sym>
</trkpt>
<trkpt lat="39.665580" lon="-8.685063">
<ele>404.5</ele>
<desc>Speed 12.2 km/h Distance 74.03 km</desc>
<time>2011-05-22T13:27:46.53</time>
<name>16601</name>
<sym>Dot</sym>
</trkpt>
<trkpt lat="39.665552" lon="-8.685078">
<ele>404.5</ele>
<desc>Speed 12.1 km/h Distance 74.04 km</desc>
<time>2011-05-22T13:27:47.53</time>
<name>16602</name>
<sym>Dot</sym>
</trkpt>
<trkpt lat="39.665523" lon="-8.685092">
<ele>405.0</ele>
<desc>Speed 11.6 km/h Distance 74.04 km</desc>
<time>2011-05-22T13:27:48.53</time>
<name>16603</name>
<sym>Dot</sym>
</trkpt>
<trkpt lat="39.665497" lon="-8.685103">
<ele>405.0</ele>
<desc>Speed 11.2 km/h Distance 74.04 km</desc>
<time>2011-05-22T13:27:49.53</time>
<name>16604</name>
<sym>Dot</sym>
</trkpt>
<trkpt lat="39.665470" lon="-8.685117">
<ele>405.5</ele>
<desc>Speed 11.5 km/h Distance 74.04 km</desc>
<time>2011-05-22T13:27:50.53</time>
<name>16605</name>
<sym>Dot</sym>
</trkpt>
<trkpt lat="39.665442" lon="-8.685132">
<ele>405.5</ele>
<desc>Speed 12.1 km/h Distance 74.05 km</desc>
<time>2011-05-22T13:27:51.53</time>
<name>16606</name>
<sym>Dot</sym>
</trkpt>
<trkpt lat="39.665413" lon="-8.685147">
<ele>405.5</ele>
<desc>Speed 12.0 km/h Distance 74.05 km</desc>
<time>2011-05-22T13:27:52.53</time>
<name>16607</name>
<sym>Dot</sym>
</trkpt>
<trkpt lat="39.665387" lon="-8.685162">
<ele>406.0</ele>
<desc>Speed 11.7 km/h Distance 74.05 km</desc>
<time>2011-05-22T13:27:53.53</time>
<name>16608</name>
<sym>Dot</sym>
</trkpt>
<trkpt lat="39.665358" lon="-8.685177">
<ele>406.0</ele>
<desc>Speed 11.7 km/h Distance 74.06 km</desc>
<time>2011-05-22T13:27:54.53</time>
<name>16609</name>
<sym>Dot</sym>
</trkpt>
<trkpt lat="39.665332" lon="-8.685192">
<ele>406.0</ele>
<desc>Speed 11.6 km/h Distance 74.06 km</desc>
<time>2011-05-22T13:27:55.53</time>
<name>16610</name>
<sym>Dot</sym>
</trkpt>
<trkpt lat="39.665305" lon="-8.685207">
<ele>406.0</ele>
<desc>Speed 11.2 km/h Distance 74.06 km</desc>
<time>2011-05-22T13:27:56.53</time>
<name>16611</name>
<sym>Dot</sym>
</trkpt>
<trkpt lat="39.665280" lon="-8.685222">
<ele>406.5</ele>
<desc>Speed 11.1 km/h Distance 74.07 km</desc>
<time>2011-05-22T13:27:57.53</time>
<name>16612</name>
<sym>Dot</sym>
</trkpt>
<trkpt lat="39.665253" lon="-8.685235">
<ele>406.5</ele>
<desc>Speed 11.3 km/h Distance 74.07 km</desc>
<time>2011-05-22T13:27:58.53</time>
<name>16613</name>
<sym>Dot</sym>
</trkpt>
<trkpt lat="39.665227" lon="-8.685250">
<ele>406.5</ele>
<desc>Speed 11.3 km/h Distance 74.07 km</desc>
<time>2011-05-22T13:27:59.53</time>
<name>16614</name>
<sym>Dot</sym>
</trkpt>
<trkpt lat="39.665200" lon="-8.685268">
<ele>406.5</ele>
<desc>Speed 11.7 km/h Distance 74.08 km</desc>
<time>2011-05-22T13:28:00.53</time>
<name>16615</name>
<sym>Dot</sym>
</trkpt>
<trkpt lat="39.665173" lon="-8.685285">
<ele>406.5</ele>
<desc>Speed 11.7 km/h Distance 74.08 km</desc>
<time>2011-05-22T13:28:01.53</time>
<name>16616</name>
<sym>Dot</sym>
</trkpt>
<trkpt lat="39.665148" lon="-8.685303">
<ele>407.0</ele>
<desc>Speed 11.7 km/h Distance 74.08 km</desc>
<time>2011-05-22T13:28:02.53</time>
<name>16617</name>
<sym>Dot</sym>
</trkpt>
<trkpt lat="39.665122" lon="-8.685320">
<ele>407.0</ele>
<desc>Speed 11.5 km/h Distance 74.09 km</desc>
<time>2011-05-22T13:28:03.53</time>
<name>16618</name>
<sym>Dot</sym>
</trkpt>
<trkpt lat="39.665095" lon="-8.685338">
<ele>407.0</ele>
<desc>Speed 11.5 km/h Distance 74.09 km</desc>
<time>2011-05-22T13:28:04.53</time>
<name>16619</name>
<sym>Dot</sym>
</trkpt>
<trkpt lat="39.665070" lon="-8.685358">
<ele>407.5</ele>
<desc>Speed 11.7 km/h Distance 74.09 km</desc>
<time>2011-05-22T13:28:05.53</time>
<name>16620</name>
<sym>Dot</sym>
</trkpt>
<trkpt lat="39.665045" lon="-8.685380">
<ele>407.5</ele>
<desc>Speed 11.5 km/h Distance 74.10 km</desc>
<time>2011-05-22T13:28:06.53</time>
<name>16621</name>
<sym>Dot</sym>
</trkpt>
<trkpt lat="39.665020" lon="-8.685400">
<ele>407.5</ele>
<desc>Speed 11.4 km/h Distance 74.10 km</desc>
<time>2011-05-22T13:28:07.53</time>
<name>16622</name>
<sym>Dot</sym>
</trkpt>
<trkpt lat="39.664995" lon="-8.685420">
<ele>407.5</ele>
<desc>Speed 11.6 km/h Distance 74.10 km</desc>
<time>2011-05-22T13:28:08.53</time>
<name>16623</name>
<sym>Dot</sym>
</trkpt>
<trkpt lat="39.664970" lon="-8.685440">
<ele>408.0</ele>
<desc>Speed 11.6 km/h Distance 74.11 km</desc>
<time>2011-05-22T13:28:09.53</time>
<name>16624</name>
<sym>Dot</sym>
</trkpt>
<trkpt lat="39.664947" lon="-8.685463">
<ele>408.0</ele>
<desc>Speed 11.9 km/h Distance 74.11 km</desc>
<time>2011-05-22T13:28:10.53</time>
<name>16625</name>
<sym>Dot</sym>
</trkpt>
<trkpt lat="39.664922" lon="-8.685485">
<ele>408.0</ele>
<desc>Speed 11.9 km/h Distance 74.11 km</desc>
<time>2011-05-22T13:28:11.53</time>
<name>16626</name>
<sym>Dot</sym>
</trkpt>
<trkpt lat="39.664897" lon="-8.685505">
<ele>408.0</ele>
<desc>Speed 11.8 km/h Distance 74.12 km</desc>
<time>2011-05-22T13:28:12.53</time>
<name>16627</name>
<sym>Dot</sym>
</trkpt>
<trkpt lat="39.664872" lon="-8.685527">
<ele>408.5</ele>
<desc>Speed 11.6 km/h Distance 74.12 km</desc>
<time>2011-05-22T13:28:13.53</time>
<name>16628</name>
<sym>Dot</sym>
</trkpt>
<trkpt lat="39.664847" lon="-8.685548">
<ele>408.5</ele>
<desc>Speed 11.6 km/h Distance 74.12 km</desc>
<time>2011-05-22T13:28:14.53</time>
<name>16629</name>
<sym>Dot</sym>
</trkpt>
<trkpt lat="39.664823" lon="-8.685570">
<ele>408.5</ele>
<desc>Speed 11.4 km/h Distance 74.13 km</desc>
<time>2011-05-22T13:28:15.53</time>
<name>16630</name>
<sym>Dot</sym>
</trkpt>
<trkpt lat="39.664800" lon="-8.685592">
<ele>408.5</ele>
<desc>Speed 11.3 km/h Distance 74.13 km</desc>
<time>2011-05-22T13:28:16.53</time>
<name>16631</name>
<sym>Dot</sym>
</trkpt>
<trkpt lat="39.664777" lon="-8.685613">
<ele>408.5</ele>
<desc>Speed 11.4 km/h Distance 74.13 km</desc>
<time>2011-05-22T13:28:17.53</time>
<name>16632</name>
<sym>Dot</sym>
</trkpt>
<trkpt lat="39.664752" lon="-8.685635">
<ele>408.5</ele>
<desc>Speed 11.6 km/h Distance 74.14 km</desc>
<time>2011-05-22T13:28:18.53</time>
<name>16633</name>
<sym>Dot</sym>
</trkpt>
<trkpt lat="39.664728" lon="-8.685657">
<ele>408.5</ele>
<desc>Speed 11.6 km/h Distance 74.14 km</desc>
<time>2011-05-22T13:28:19.53</time>
<name>16634</name>
<sym>Dot</sym>
</trkpt>
<trkpt lat="39.664703" lon="-8.685680">
<ele>408.5</ele>
<desc>Speed 11.6 km/h Distance 74.14 km</desc>
<time>2011-05-22T13:28:20.53</time>
<name>16635</name>
<sym>Dot</sym>
</trkpt>
<trkpt lat="39.664680" lon="-8.685700">
<ele>408.5</ele>
<desc>Speed 11.4 km/h Distance 74.15 km</desc>
<time>2011-05-22T13:28:21.53</time>
<name>16636</name>
<sym>Dot</sym>
</trkpt>
<trkpt lat="39.664657" lon="-8.685722">
<ele>409.0</ele>
<desc>Speed 11.1 km/h Distance 74.15 km</desc>
<time>2011-05-22T13:28:22.53</time>
<name>16637</name>
<sym>Dot</sym>
</trkpt>
<trkpt lat="39.664633" lon="-8.685747">
<ele>409.5</ele>
<desc>Speed 11.7 km/h Distance 74.15 km</desc>
<time>2011-05-22T13:28:23.53</time>
<name>16638</name>
<sym>Dot</sym>
</trkpt>
<trkpt lat="39.664610" lon="-8.685770">
<ele>409.5</ele>
<desc>Speed 11.6 km/h Distance 74.16 km</desc>
<time>2011-05-22T13:28:24.53</time>
<name>16639</name>
<sym>Dot</sym>
</trkpt>
<trkpt lat="39.664588" lon="-8.685792">
<ele>409.5</ele>
<desc>Speed 11.1 km/h Distance 74.16 km</desc>
<time>2011-05-22T13:28:25.53</time>
<name>16640</name>
<sym>Dot</sym>
</trkpt>
<trkpt lat="39.664563" lon="-8.685815">
<ele>409.5</ele>
<desc>Speed 11.8 km/h Distance 74.16 km</desc>
<time>2011-05-22T13:28:26.53</time>
<name>16641</name>
<sym>Dot</sym>
</trkpt>
<trkpt lat="39.664538" lon="-8.685838">
<ele>410.0</ele>
<desc>Speed 11.9 km/h Distance 74.17 km</desc>
<time>2011-05-22T13:28:27.53</time>
<name>16642</name>
<sym>Dot</sym>
</trkpt>
<trkpt lat="39.664515" lon="-8.685860">
<ele>410.0</ele>
<desc>Speed 11.9 km/h Distance 74.17 km</desc>
<time>2011-05-22T13:28:28.53</time>
<name>16643</name>
<sym>Dot</sym>
</trkpt>
<trkpt lat="39.664490" lon="-8.685883">
<ele>410.0</ele>
<desc>Speed 12.0 km/h Distance 74.17 km</desc>
<time>2011-05-22T13:28:29.53</time>
<name>16644</name>
<sym>Dot</sym>
</trkpt>
<trkpt lat="39.664465" lon="-8.685907">
<ele>410.5</ele>
<desc>Speed 12.0 km/h Distance 74.18 km</desc>
<time>2011-05-22T13:28:30.53</time>
<name>16645</name>
<sym>Dot</sym>
</trkpt>
<trkpt lat="39.664440" lon="-8.685932">
<ele>410.5</ele>
<desc>Speed 12.2 km/h Distance 74.18 km</desc>
<time>2011-05-22T13:28:31.53</time>
<name>16646</name>
<sym>Dot</sym>
</trkpt>
<trkpt lat="39.664415" lon="-8.685955">
<ele>410.5</ele>
<desc>Speed 12.3 km/h Distance 74.18 km</desc>
<time>2011-05-22T13:28:32.53</time>
<name>16647</name>
<sym>Dot</sym>
</trkpt>
<trkpt lat="39.664390" lon="-8.685977">
<ele>410.5</ele>
<desc>Speed 12.3 km/h Distance 74.19 km</desc>
<time>2011-05-22T13:28:33.53</time>
<name>16648</name>
<sym>Dot</sym>
</trkpt>
<trkpt lat="39.664363" lon="-8.686000">
<ele>410.5</ele>
<desc>Speed 12.4 km/h Distance 74.19 km</desc>
<time>2011-05-22T13:28:34.53</time>
<name>16649</name>
<sym>Dot</sym>
</trkpt>
<trkpt lat="39.664338" lon="-8.686023">
<ele>411.0</ele>
<desc>Speed 12.3 km/h Distance 74.19 km</desc>
<time>2011-05-22T13:28:35.53</time>
<name>16650</name>
<sym>Dot</sym>
</trkpt>
<trkpt lat="39.664315" lon="-8.686048">
<ele>411.0</ele>
<desc>Speed 12.0 km/h Distance 74.20 km</desc>
<time>2011-05-22T13:28:36.53</time>
<name>16651</name>
<sym>Dot</sym>
</trkpt>
<trkpt lat="39.664290" lon="-8.686068">
<ele>412.0</ele>
<desc>Speed 12.0 km/h Distance 74.20 km</desc>
<time>2011-05-22T13:28:37.53</time>
<name>16652</name>
<sym>Dot</sym>
</trkpt>
<trkpt lat="39.664265" lon="-8.686090">
<ele>412.0</ele>
<desc>Speed 12.3 km/h Distance 74.20 km</desc>
<time>2011-05-22T13:28:38.53</time>
<name>16653</name>
<sym>Dot</sym>
</trkpt>
<trkpt lat="39.664238" lon="-8.686113">
<ele>412.0</ele>
<desc>Speed 12.4 km/h Distance 74.21 km</desc>
<time>2011-05-22T13:28:39.53</time>
<name>16654</name>
<sym>Dot</sym>
</trkpt>
<trkpt lat="39.664213" lon="-8.686137">
<ele>412.5</ele>
<desc>Speed 12.4 km/h Distance 74.21 km</desc>
<time>2011-05-22T13:28:40.53</time>
<name>16655</name>
<sym>Dot</sym>
</trkpt>
<trkpt lat="39.664188" lon="-8.686162">
<ele>412.5</ele>
<desc>Speed 12.6 km/h Distance 74.21 km</desc>
<time>2011-05-22T13:28:41.53</time>
<name>16656</name>
<sym>Dot</sym>
</trkpt>
<trkpt lat="39.664163" lon="-8.686187">
<ele>412.5</ele>
<desc>Speed 12.6 km/h Distance 74.22 km</desc>
<time>2011-05-22T13:28:42.53</time>
<name>16657</name>
<sym>Dot</sym>
</trkpt>
<trkpt lat="39.664137" lon="-8.686210">
<ele>412.5</ele>
<desc>Speed 12.7 km/h Distance 74.22 km</desc>
<time>2011-05-22T13:28:43.53</time>
<name>16658</name>
<sym>Dot</sym>
</trkpt>
<trkpt lat="39.664110" lon="-8.686233">
<ele>413.0</ele>
<desc>Speed 13.0 km/h Distance 74.22 km</desc>
<time>2011-05-22T13:28:44.53</time>
<name>16659</name>
<sym>Dot</sym>
</trkpt>
<trkpt lat="39.664083" lon="-8.686258">
<ele>413.0</ele>
<desc>Speed 12.6 km/h Distance 74.23 km</desc>
<time>2011-05-22T13:28:45.53</time>
<name>16660</name>
<sym>Dot</sym>
</trkpt>
<trkpt lat="39.664058" lon="-8.686283">
<ele>413.5</ele>
<desc>Speed 12.4 km/h Distance 74.23 km</desc>
<time>2011-05-22T13:28:46.53</time>
<name>16661</name>
<sym>Dot</sym>
</trkpt>
<trkpt lat="39.664032" lon="-8.686307">
<ele>413.5</ele>
<desc>Speed 12.7 km/h Distance 74.24 km</desc>
<time>2011-05-22T13:28:47.53</time>
<name>16662</name>
<sym>Dot</sym>
</trkpt>
<trkpt lat="39.664007" lon="-8.686333">
<ele>413.5</ele>
<desc>Speed 12.8 km/h Distance 74.24 km</desc>
<time>2011-05-22T13:28:48.53</time>
<name>16663</name>
<sym>Dot</sym>
</trkpt>
<trkpt lat="39.663980" lon="-8.686355">
<ele>414.0</ele>
<desc>Speed 13.1 km/h Distance 74.24 km</desc>
<time>2011-05-22T13:28:49.53</time>
<name>16664</name>
<sym>Dot</sym>
</trkpt>
<trkpt lat="39.663953" lon="-8.686380">
<ele>414.5</ele>
<desc>Speed 13.1 km/h Distance 74.25 km</desc>
<time>2011-05-22T13:28:50.53</time>
<name>16665</name>
<sym>Dot</sym>
</trkpt>
<trkpt lat="39.663927" lon="-8.686405">
<ele>414.5</ele>
<desc>Speed 13.4 km/h Distance 74.25 km</desc>
<time>2011-05-22T13:28:51.53</time>
<name>16666</name>
<sym>Dot</sym>
</trkpt>
<trkpt lat="39.663898" lon="-8.686430">
<ele>415.0</ele>
<desc>Speed 13.5 km/h Distance 74.25 km</desc>
<time>2011-05-22T13:28:52.53</time>
<name>16667</name>
<sym>Dot</sym>
</trkpt>
<trkpt lat="39.663872" lon="-8.686457">
<ele>415.0</ele>
<desc>Speed 13.4 km/h Distance 74.26 km</desc>
<time>2011-05-22T13:28:53.53</time>
<name>16668</name>
<sym>Dot</sym>
</trkpt>
<trkpt lat="39.663845" lon="-8.686483">
<ele>415.5</ele>
<desc>Speed 13.4 km/h Distance 74.26 km</desc>
<time>2011-05-22T13:28:54.53</time>
<name>16669</name>
<sym>Dot</sym>
</trkpt>
<trkpt lat="39.663818" lon="-8.686508">
<ele>415.5</ele>
<desc>Speed 13.2 km/h Distance 74.26 km</desc>
<time>2011-05-22T13:28:55.53</time>
<name>16670</name>
<sym>Dot</sym>
</trkpt>
<trkpt lat="39.663792" lon="-8.686535">
<ele>415.5</ele>
<desc>Speed 13.0 km/h Distance 74.27 km</desc>
<time>2011-05-22T13:28:56.53</time>
<name>16671</name>
<sym>Dot</sym>
</trkpt>
<trkpt lat="39.663767" lon="-8.686562">
<ele>416.0</ele>
<desc>Speed 12.7 km/h Distance 74.27 km</desc>
<time>2011-05-22T13:28:57.53</time>
<name>16672</name>
<sym>Dot</sym>
</trkpt>
<trkpt lat="39.663738" lon="-8.686587">
<ele>416.0</ele>
<desc>Speed 13.2 km/h Distance 74.28 km</desc>
<time>2011-05-22T13:28:58.53</time>
<name>16673</name>
<sym>Dot</sym>
</trkpt>
<trkpt lat="39.663712" lon="-8.686613">
<ele>415.5</ele>
<desc>Speed 13.3 km/h Distance 74.28 km</desc>
<time>2011-05-22T13:28:59.53</time>
<name>16674</name>
<sym>Dot</sym>
</trkpt>
<trkpt lat="39.663685" lon="-8.686640">
<ele>415.5</ele>
<desc>Speed 13.5 km/h Distance 74.28 km</desc>
<time>2011-05-22T13:29:00.53</time>
<name>16675</name>
<sym>Dot</sym>
</trkpt>
<trkpt lat="39.663658" lon="-8.686665">
<ele>416.0</ele>
<desc>Speed 13.3 km/h Distance 74.29 km</desc>
<time>2011-05-22T13:29:01.53</time>
<name>16676</name>
<sym>Dot</sym>
</trkpt>
<trkpt lat="39.663630" lon="-8.686690">
<ele>416.0</ele>
<desc>Speed 13.3 km/h Distance 74.29 km</desc>
<time>2011-05-22T13:29:02.53</time>
<name>16677</name>
<sym>Dot</sym>
</trkpt>
<trkpt lat="39.663603" lon="-8.686712">
<ele>416.5</ele>
<desc>Speed 12.4 km/h Distance 74.29 km</desc>
<time>2011-05-22T13:29:03.53</time>
<name>16678</name>
<sym>Dot</sym>
</trkpt>
<trkpt lat="39.663578" lon="-8.686733">
<ele>417.0</ele>
<desc>Speed 12.3 km/h Distance 74.30 km</desc>
<time>2011-05-22T13:29:04.53</time>
<name>16679</name>
<sym>Dot</sym>
</trkpt>
<trkpt lat="39.663552" lon="-8.686760">
<ele>417.0</ele>
<desc>Speed 13.0 km/h Distance 74.30 km</desc>
<time>2011-05-22T13:29:05.53</time>
<name>16680</name>
<sym>Dot</sym>
</trkpt>
<trkpt lat="39.663523" lon="-8.686783">
<ele>417.0</ele>
<desc>Speed 13.2 km/h Distance 74.31 km</desc>
<time>2011-05-22T13:29:06.53</time>
<name>16681</name>
<sym>Dot</sym>
</trkpt>
<trkpt lat="39.663495" lon="-8.686805">
<ele>417.5</ele>
<desc>Speed 13.0 km/h Distance 74.31 km</desc>
<time>2011-05-22T13:29:07.53</time>
<name>16682</name>
<sym>Dot</sym>
</trkpt>
<trkpt lat="39.663467" lon="-8.686827">
<ele>417.5</ele>
<desc>Speed 12.9 km/h Distance 74.31 km</desc>
<time>2011-05-22T13:29:08.53</time>
<name>16683</name>
<sym>Dot</sym>
</trkpt>
<trkpt lat="39.663438" lon="-8.686852">
<ele>417.5</ele>
<desc>Speed 13.4 km/h Distance 74.32 km</desc>
<time>2011-05-22T13:29:09.53</time>
<name>16684</name>
<sym>Dot</sym>
</trkpt>
<trkpt lat="39.663412" lon="-8.686873">
<ele>418.0</ele>
<desc>Speed 12.8 km/h Distance 74.32 km</desc>
<time>2011-05-22T13:29:10.53</time>
<name>16685</name>
<sym>Dot</sym>
</trkpt>
<trkpt lat="39.663385" lon="-8.686895">
<ele>419.0</ele>
<desc>Speed 12.4 km/h Distance 74.32 km</desc>
<time>2011-05-22T13:29:11.53</time>
<name>16686</name>
<sym>Dot</sym>
</trkpt>
<trkpt lat="39.663357" lon="-8.686920">
<ele>419.0</ele>
<desc>Speed 13.4 km/h Distance 74.33 km</desc>
<time>2011-05-22T13:29:12.53</time>
<name>16687</name>
<sym>Dot</sym>
</trkpt>
<trkpt lat="39.663328" lon="-8.686947">
<ele>419.0</ele>
<desc>Speed 13.5 km/h Distance 74.33 km</desc>
<time>2011-05-22T13:29:13.53</time>
<name>16688</name>
<sym>Dot</sym>
</trkpt>
<trkpt lat="39.663302" lon="-8.686972">
<ele>419.0</ele>
<desc>Speed 12.8 km/h Distance 74.33 km</desc>
<time>2011-05-22T13:29:14.53</time>
<name>16689</name>
<sym>Dot</sym>
</trkpt>
<trkpt lat="39.663277" lon="-8.686997">
<ele>419.0</ele>
<desc>Speed 12.7 km/h Distance 74.34 km</desc>
<time>2011-05-22T13:29:15.53</time>
<name>16690</name>
<sym>Dot</sym>
</trkpt>
<trkpt lat="39.663252" lon="-8.687023">
<ele>419.0</ele>
<desc>Speed 12.7 km/h Distance 74.34 km</desc>
<time>2011-05-22T13:29:16.53</time>
<name>16691</name>
<sym>Dot</sym>
</trkpt>
<trkpt lat="39.663227" lon="-8.687052">
<ele>419.0</ele>
<desc>Speed 12.8 km/h Distance 74.35 km</desc>
<time>2011-05-22T13:29:17.53</time>
<name>16692</name>
<sym>Dot</sym>
</trkpt>
<trkpt lat="39.663202" lon="-8.687077">
<ele>419.0</ele>
<desc>Speed 12.3 km/h Distance 74.35 km</desc>
<time>2011-05-22T13:29:18.53</time>
<name>16693</name>
<sym>Dot</sym>
</trkpt>
<trkpt lat="39.663177" lon="-8.687102">
<ele>419.0</ele>
<desc>Speed 12.5 km/h Distance 74.35 km</desc>
<time>2011-05-22T13:29:19.53</time>
<name>16694</name>
<sym>Dot</sym>
</trkpt>
<trkpt lat="39.663150" lon="-8.687125">
<ele>419.0</ele>
<desc>Speed 12.3 km/h Distance 74.36 km</desc>
<time>2011-05-22T13:29:20.53</time>
<name>16695</name>
<sym>Dot</sym>
</trkpt>
<trkpt lat="39.663128" lon="-8.687150">
<ele>419.5</ele>
<desc>Speed 11.7 km/h Distance 74.36 km</desc>
<time>2011-05-22T13:29:21.53</time>
<name>16696</name>
<sym>Dot</sym>
</trkpt>
<trkpt lat="39.663103" lon="-8.687173">
<ele>420.0</ele>
<desc>Speed 11.8 km/h Distance 74.36 km</desc>
<time>2011-05-22T13:29:22.53</time>
<name>16697</name>
<sym>Dot</sym>
</trkpt>
<trkpt lat="39.663080" lon="-8.687202">
<ele>420.0</ele>
<desc>Speed 12.6 km/h Distance 74.37 km</desc>
<time>2011-05-22T13:29:23.53</time>
<name>16698</name>
<sym>Dot</sym>
</trkpt>
<trkpt lat="39.663053" lon="-8.687228">
<ele>419.5</ele>
<desc>Speed 12.9 km/h Distance 74.37 km</desc>
<time>2011-05-22T13:29:24.53</time>
<name>16699</name>
<sym>Dot</sym>
</trkpt>
<trkpt lat="39.663028" lon="-8.687255">
<ele>419.5</ele>
<desc>Speed 12.9 km/h Distance 74.37 km</desc>
<time>2011-05-22T13:29:25.53</time>
<name>16700</name>
<sym>Dot</sym>
</trkpt>
<trkpt lat="39.663003" lon="-8.687282">
<ele>419.5</ele>
<desc>Speed 13.0 km/h Distance 74.38 km</desc>
<time>2011-05-22T13:29:26.53</time>
<name>16701</name>
<sym>Dot</sym>
</trkpt>
<trkpt lat="39.662978" lon="-8.687310">
<ele>419.5</ele>
<desc>Speed 12.7 km/h Distance 74.38 km</desc>
<time>2011-05-22T13:29:27.53</time>
<name>16702</name>
<sym>Dot</sym>
</trkpt>
<trkpt lat="39.662952" lon="-8.687335">
<ele>419.5</ele>
<desc>Speed 12.6 km/h Distance 74.38 km</desc>
<time>2011-05-22T13:29:28.53</time>
<name>16703</name>
<sym>Dot</sym>
</trkpt>
<trkpt lat="39.662928" lon="-8.687360">
<ele>419.5</ele>
<desc>Speed 12.2 km/h Distance 74.39 km</desc>
<time>2011-05-22T13:29:29.53</time>
<name>16704</name>
<sym>Dot</sym>
</trkpt>
<trkpt lat="39.662903" lon="-8.687383">
<ele>419.5</ele>
<desc>Speed 12.1 km/h Distance 74.39 km</desc>
<time>2011-05-22T13:29:30.53</time>
<name>16705</name>
<sym>Dot</sym>
</trkpt>
<trkpt lat="39.662878" lon="-8.687407">
<ele>419.5</ele>
<desc>Speed 12.3 km/h Distance 74.39 km</desc>
<time>2011-05-22T13:29:31.53</time>
<name>16706</name>
<sym>Dot</sym>
</trkpt>
<trkpt lat="39.662853" lon="-8.687432">
<ele>419.5</ele>
<desc>Speed 12.3 km/h Distance 74.40 km</desc>
<time>2011-05-22T13:29:32.53</time>
<name>16707</name>
<sym>Dot</sym>
</trkpt>
<trkpt lat="39.662827" lon="-8.687455">
<ele>419.5</ele>
<desc>Speed 12.3 km/h Distance 74.40 km</desc>
<time>2011-05-22T13:29:33.53</time>
<name>16708</name>
<sym>Dot</sym>
</trkpt>
<trkpt lat="39.662802" lon="-8.687477">
<ele>419.5</ele>
<desc>Speed 12.3 km/h Distance 74.41 km</desc>
<time>2011-05-22T13:29:34.53</time>
<name>16709</name>
<sym>Dot</sym>
</trkpt>
<trkpt lat="39.662775" lon="-8.687502">
<ele>419.5</ele>
<desc>Speed 12.4 km/h Distance 74.41 km</desc>
<time>2011-05-22T13:29:35.53</time>
<name>16710</name>
<sym>Dot</sym>
</trkpt>
<trkpt lat="39.662750" lon="-8.687525">
<ele>419.5</ele>
<desc>Speed 12.3 km/h Distance 74.41 km</desc>
<time>2011-05-22T13:29:36.53</time>
<name>16711</name>
<sym>Dot</sym>
</trkpt>
<trkpt lat="39.662725" lon="-8.687548">
<ele>420.0</ele>
<desc>Speed 12.3 km/h Distance 74.42 km</desc>
<time>2011-05-22T13:29:37.53</time>
<name>16712</name>
<sym>Dot</sym>
</trkpt>
<trkpt lat="39.662700" lon="-8.687573">
<ele>420.0</ele>
<desc>Speed 12.4 km/h Distance 74.42 km</desc>
<time>2011-05-22T13:29:38.53</time>
<name>16713</name>
<sym>Dot</sym>
</trkpt>
<trkpt lat="39.662675" lon="-8.687597">
<ele>420.0</ele>
<desc>Speed 12.6 km/h Distance 74.42 km</desc>
<time>2011-05-22T13:29:39.53</time>
<name>16714</name>
<sym>Dot</sym>
</trkpt>
<trkpt lat="39.662648" lon="-8.687622">
<ele>420.5</ele>
<desc>Speed 12.7 km/h Distance 74.43 km</desc>
<time>2011-05-22T13:29:40.53</time>
<name>16715</name>
<sym>Dot</sym>
</trkpt>
<trkpt lat="39.662623" lon="-8.687645">
<ele>420.5</ele>
<desc>Speed 12.5 km/h Distance 74.43 km</desc>
<time>2011-05-22T13:29:41.53</time>
<name>16716</name>
<sym>Dot</sym>
</trkpt>
<trkpt lat="39.662598" lon="-8.687670">
<ele>421.0</ele>
<desc>Speed 12.7 km/h Distance 74.43 km</desc>
<time>2011-05-22T13:29:42.53</time>
<name>16717</name>
<sym>Dot</sym>
</trkpt>
<trkpt lat="39.662572" lon="-8.687693">
<ele>421.0</ele>
<desc>Speed 12.9 km/h Distance 74.44 km</desc>
<time>2011-05-22T13:29:43.53</time>
<name>16718</name>
<sym>Dot</sym>
</trkpt>
<trkpt lat="39.662545" lon="-8.687715">
<ele>422.0</ele>
<desc>Speed 12.4 km/h Distance 74.44 km</desc>
<time>2011-05-22T13:29:44.53</time>
<name>16719</name>
<sym>Dot</sym>
</trkpt>
<trkpt lat="39.662517" lon="-8.687738">
<ele>422.5</ele>
<desc>Speed 13.2 km/h Distance 74.44 km</desc>
<time>2011-05-22T13:29:45.53</time>
<name>16720</name>
<sym>Dot</sym>
</trkpt>
<trkpt lat="39.662490" lon="-8.687765">
<ele>422.5</ele>
<desc>Speed 13.5 km/h Distance 74.45 km</desc>
<time>2011-05-22T13:29:46.53</time>
<name>16721</name>
<sym>Dot</sym>
</trkpt>
<trkpt lat="39.662463" lon="-8.687790">
<ele>422.5</ele>
<desc>Speed 13.2 km/h Distance 74.45 km</desc>
<time>2011-05-22T13:29:47.53</time>
<name>16722</name>
<sym>Dot</sym>
</trkpt>
<trkpt lat="39.662437" lon="-8.687815">
<ele>423.0</ele>
<desc>Speed 12.9 km/h Distance 74.46 km</desc>
<time>2011-05-22T13:29:48.53</time>
<name>16723</name>
<sym>Dot</sym>
</trkpt>
<trkpt lat="39.662412" lon="-8.687838">
<ele>423.5</ele>
<desc>Speed 12.7 km/h Distance 74.46 km</desc>
<time>2011-05-22T13:29:49.53</time>
<name>16724</name>
<sym>Dot</sym>
</trkpt>
<trkpt lat="39.662385" lon="-8.687862">
<ele>423.5</ele>
<desc>Speed 12.8 km/h Distance 74.46 km</desc>
<time>2011-05-22T13:29:50.53</time>
<name>16725</name>
<sym>Dot</sym>
</trkpt>
<trkpt lat="39.662357" lon="-8.687885">
<ele>423.5</ele>
<desc>Speed 12.8 km/h Distance 74.47 km</desc>
<time>2011-05-22T13:29:51.53</time>
<name>16726</name>
<sym>Dot</sym>
</trkpt>
<trkpt lat="39.662332" lon="-8.687910">
<ele>423.5</ele>
<desc>Speed 12.8 km/h Distance 74.47 km</desc>
<time>2011-05-22T13:29:52.53</time>
<name>16727</name>
<sym>Dot</sym>
</trkpt>
<trkpt lat="39.662307" lon="-8.687933">
<ele>423.5</ele>
<desc>Speed 12.5 km/h Distance 74.47 km</desc>
<time>2011-05-22T13:29:53.53</time>
<name>16728</name>
<sym>Dot</sym>
</trkpt>
<trkpt lat="39.662280" lon="-8.687957">
<ele>424.0</ele>
<desc>Speed 12.5 km/h Distance 74.48 km</desc>
<time>2011-05-22T13:29:54.53</time>
<name>16729</name>
<sym>Dot</sym>
</trkpt>
<trkpt lat="39.662257" lon="-8.687983">
<ele>424.0</ele>
<desc>Speed 12.4 km/h Distance 74.48 km</desc>
<time>2011-05-22T13:29:55.53</time>
<name>16730</name>
<sym>Dot</sym>
</trkpt>
<trkpt lat="39.662232" lon="-8.688010">
<ele>424.0</ele>
<desc>Speed 12.6 km/h Distance 74.48 km</desc>
<time>2011-05-22T13:29:56.53</time>
<name>16731</name>
<sym>Dot</sym>
</trkpt>
<trkpt lat="39.662203" lon="-8.688030">
<ele>424.0</ele>
<desc>Speed 12.7 km/h Distance 74.49 km</desc>
<time>2011-05-22T13:29:57.53</time>
<name>16732</name>
<sym>Dot</sym>
</trkpt>
<trkpt lat="39.662173" lon="-8.688048">
<ele>424.5</ele>
<desc>Speed 12.7 km/h Distance 74.49 km</desc>
<time>2011-05-22T13:29:58.53</time>
<name>16733</name>
<sym>Dot</sym>
</trkpt>
<trkpt lat="39.662147" lon="-8.688067">
<ele>425.0</ele>
<desc>Speed 12.3 km/h Distance 74.49 km</desc>
<time>2011-05-22T13:29:59.53</time>
<name>16734</name>
<sym>Dot</sym>
</trkpt>
<trkpt lat="39.662120" lon="-8.688087">
<ele>425.5</ele>
<desc>Speed 12.2 km/h Distance 74.50 km</desc>
<time>2011-05-22T13:30:00.53</time>
<name>16735</name>
<sym>Dot</sym>
</trkpt>
<trkpt lat="39.662093" lon="-8.688105">
<ele>425.5</ele>
<desc>Speed 12.1 km/h Distance 74.50 km</desc>
<time>2011-05-22T13:30:01.53</time>
<name>16736</name>
<sym>Dot</sym>
</trkpt>
<trkpt lat="39.662068" lon="-8.688125">
<ele>426.0</ele>
<desc>Speed 11.4 km/h Distance 74.50 km</desc>
<time>2011-05-22T13:30:02.53</time>
<name>16737</name>
<sym>Dot</sym>
</trkpt>
<trkpt lat="39.662042" lon="-8.688142">
<ele>426.0</ele>
<desc>Speed 11.5 km/h Distance 74.51 km</desc>
<time>2011-05-22T13:30:03.53</time>
<name>16738</name>
<sym>Dot</sym>
</trkpt>
<trkpt lat="39.662015" lon="-8.688158">
<ele>426.0</ele>
<desc>Speed 11.8 km/h Distance 74.51 km</desc>
<time>2011-05-22T13:30:04.53</time>
<name>16739</name>
<sym>Dot</sym>
</trkpt>
<trkpt lat="39.661990" lon="-8.688175">
<ele>426.5</ele>
<desc>Speed 10.9 km/h Distance 74.51 km</desc>
<time>2011-05-22T13:30:05.53</time>
<name>16740</name>
<sym>Dot</sym>
</trkpt>
<trkpt lat="39.661967" lon="-8.688195">
<ele>426.5</ele>
<desc>Speed 10.6 km/h Distance 74.52 km</desc>
<time>2011-05-22T13:30:06.53</time>
<name>16741</name>
<sym>Dot</sym>
</trkpt>
<trkpt lat="39.661942" lon="-8.688208">
<ele>427.0</ele>
<desc>Speed 10.7 km/h Distance 74.52 km</desc>
<time>2011-05-22T13:30:07.53</time>
<name>16742</name>
<sym>Dot</sym>
</trkpt>
<trkpt lat="39.661915" lon="-8.688220">
<ele>427.0</ele>
<desc>Speed 11.0 km/h Distance 74.52 km</desc>
<time>2011-05-22T13:30:08.53</time>
<name>16743</name>
<sym>Dot</sym>
</trkpt>
<trkpt lat="39.661892" lon="-8.688232">
<ele>427.5</ele>
<desc>Speed 9.9 km/h Distance 74.53 km</desc>
<time>2011-05-22T13:30:09.53</time>
<name>16744</name>
<sym>Dot</sym>
</trkpt>
<trkpt lat="39.661868" lon="-8.688248">
<ele>427.5</ele>
<desc>Speed 10.7 km/h Distance 74.53 km</desc>
<time>2011-05-22T13:30:10.53</time>
<name>16745</name>
<sym>Dot</sym>
</trkpt>
<trkpt lat="39.661845" lon="-8.688263">
<ele>428.0</ele>
<desc>Speed 10.2 km/h Distance 74.53 km</desc>
<time>2011-05-22T13:30:11.53</time>
<name>16746</name>
<sym>Dot</sym>
</trkpt>
<trkpt lat="39.661822" lon="-8.688275">
<ele>428.0</ele>
<desc>Speed 10.1 km/h Distance 74.53 km</desc>
<time>2011-05-22T13:30:12.53</time>
<name>16747</name>
<sym>Dot</sym>
</trkpt>
<trkpt lat="39.661797" lon="-8.688287">
<ele>428.0</ele>
<desc>Speed 10.3 km/h Distance 74.54 km</desc>
<time>2011-05-22T13:30:13.53</time>
<name>16748</name>
<sym>Dot</sym>
</trkpt>
<trkpt lat="39.661773" lon="-8.688300">
<ele>428.0</ele>
<desc>Speed 10.6 km/h Distance 74.54 km</desc>
<time>2011-05-22T13:30:14.53</time>
<name>16749</name>
<sym>Dot</sym>
</trkpt>
<trkpt lat="39.661748" lon="-8.688310">
<ele>428.0</ele>
<desc>Speed 10.3 km/h Distance 74.54 km</desc>
<time>2011-05-22T13:30:15.53</time>
<name>16750</name>
<sym>Dot</sym>
</trkpt>
<trkpt lat="39.661722" lon="-8.688318">
<ele>428.0</ele>
<desc>Speed 10.9 km/h Distance 74.55 km</desc>
<time>2011-05-22T13:30:16.53</time>
<name>16751</name>
<sym>Dot</sym>
</trkpt>
<trkpt lat="39.661693" lon="-8.688327">
<ele>428.5</ele>
<desc>Speed 11.5 km/h Distance 74.55 km</desc>
<time>2011-05-22T13:30:17.53</time>
<name>16752</name>
<sym>Dot</sym>
</trkpt>
<trkpt lat="39.661662" lon="-8.688335">
<ele>429.0</ele>
<desc>Speed 12.6 km/h Distance 74.55 km</desc>
<time>2011-05-22T13:30:18.53</time>
<name>16753</name>
<sym>Dot</sym>
</trkpt>
<trkpt lat="39.661628" lon="-8.688343">
<ele>429.0</ele>
<desc>Speed 13.5 km/h Distance 74.56 km</desc>
<time>2011-05-22T13:30:19.53</time>
<name>16754</name>
<sym>Dot</sym>
</trkpt>
<trkpt lat="39.661593" lon="-8.688348">
<ele>429.0</ele>
<desc>Speed 14.3 km/h Distance 74.56 km</desc>
<time>2011-05-22T13:30:20.53</time>
<name>16755</name>
<sym>Dot</sym>
</trkpt>
<trkpt lat="39.661557" lon="-8.688353">
<ele>429.0</ele>
<desc>Speed 14.6 km/h Distance 74.57 km</desc>
<time>2011-05-22T13:30:21.53</time>
<name>16756</name>
<sym>Dot</sym>
</trkpt>
<trkpt lat="39.661520" lon="-8.688360">
<ele>429.0</ele>
<desc>Speed 14.6 km/h Distance 74.57 km</desc>
<time>2011-05-22T13:30:22.53</time>
<name>16757</name>
<sym>Dot</sym>
</trkpt>
<trkpt lat="39.661485" lon="-8.688367">
<ele>429.0</ele>
<desc>Speed 14.4 km/h Distance 74.57 km</desc>
<time>2011-05-22T13:30:23.53</time>
<name>16758</name>
<sym>Dot</sym>
</trkpt>
<trkpt lat="39.661450" lon="-8.688372">
<ele>429.0</ele>
<desc>Speed 14.1 km/h Distance 74.58 km</desc>
<time>2011-05-22T13:30:24.53</time>
<name>16759</name>
<sym>Dot</sym>
</trkpt>
<trkpt lat="39.661415" lon="-8.688378">
<ele>429.0</ele>
<desc>Speed 14.0 km/h Distance 74.58 km</desc>
<time>2011-05-22T13:30:25.53</time>
<name>16760</name>
<sym>Dot</sym>
</trkpt>
<trkpt lat="39.661380" lon="-8.688383">
<ele>429.0</ele>
<desc>Speed 14.1 km/h Distance 74.58 km</desc>
<time>2011-05-22T13:30:26.53</time>
<name>16761</name>
<sym>Dot</sym>
</trkpt>
<trkpt lat="39.661343" lon="-8.688390">
<ele>429.0</ele>
<desc>Speed 14.1 km/h Distance 74.59 km</desc>
<time>2011-05-22T13:30:27.53</time>
<name>16762</name>
<sym>Dot</sym>
</trkpt>
<trkpt lat="39.661308" lon="-8.688397">
<ele>429.0</ele>
<desc>Speed 14.0 km/h Distance 74.59 km</desc>
<time>2011-05-22T13:30:28.53</time>
<name>16763</name>
<sym>Dot</sym>
</trkpt>
<trkpt lat="39.661273" lon="-8.688402">
<ele>429.0</ele>
<desc>Speed 14.2 km/h Distance 74.60 km</desc>
<time>2011-05-22T13:30:29.53</time>
<name>16764</name>
<sym>Dot</sym>
</trkpt>
<trkpt lat="39.661238" lon="-8.688408">
<ele>429.0</ele>
<desc>Speed 14.2 km/h Distance 74.60 km</desc>
<time>2011-05-22T13:30:30.53</time>
<name>16765</name>
<sym>Dot</sym>
</trkpt>
<trkpt lat="39.661203" lon="-8.688413">
<ele>429.0</ele>
<desc>Speed 13.8 km/h Distance 74.60 km</desc>
<time>2011-05-22T13:30:31.53</time>
<name>16766</name>
<sym>Dot</sym>
</trkpt>
<trkpt lat="39.661170" lon="-8.688418">
<ele>429.0</ele>
<desc>Speed 13.8 km/h Distance 74.61 km</desc>
<time>2011-05-22T13:30:32.53</time>
<name>16767</name>
<sym>Dot</sym>
</trkpt>
<trkpt lat="39.661135" lon="-8.688425">
<ele>428.5</ele>
<desc>Speed 13.6 km/h Distance 74.61 km</desc>
<time>2011-05-22T13:30:33.53</time>
<name>16768</name>
<sym>Dot</sym>
</trkpt>
<trkpt lat="39.661102" lon="-8.688430">
<ele>428.5</ele>
<desc>Speed 13.5 km/h Distance 74.62 km</desc>
<time>2011-05-22T13:30:34.53</time>
<name>16769</name>
<sym>Dot</sym>
</trkpt>
<trkpt lat="39.661068" lon="-8.688437">
<ele>428.5</ele>
<desc>Speed 13.4 km/h Distance 74.62 km</desc>
<time>2011-05-22T13:30:35.53</time>
<name>16770</name>
<sym>Dot</sym>
</trkpt>
<trkpt lat="39.661035" lon="-8.688442">
<ele>428.5</ele>
<desc>Speed 13.3 km/h Distance 74.62 km</desc>
<time>2011-05-22T13:30:36.53</time>
<name>16771</name>
<sym>Dot</sym>
</trkpt>
<trkpt lat="39.661002" lon="-8.688447">
<ele>428.0</ele>
<desc>Speed 13.4 km/h Distance 74.63 km</desc>
<time>2011-05-22T13:30:37.53</time>
<name>16772</name>
<sym>Dot</sym>
</trkpt>
<trkpt lat="39.660968" lon="-8.688452">
<ele>428.0</ele>
<desc>Speed 13.3 km/h Distance 74.63 km</desc>
<time>2011-05-22T13:30:38.53</time>
<name>16773</name>
<sym>Dot</sym>
</trkpt>
<trkpt lat="39.660935" lon="-8.688457">
<ele>428.0</ele>
<desc>Speed 13.3 km/h Distance 74.63 km</desc>
<time>2011-05-22T13:30:39.53</time>
<name>16774</name>
<sym>Dot</sym>
</trkpt>
<trkpt lat="39.660902" lon="-8.688462">
<ele>428.0</ele>
<desc>Speed 13.2 km/h Distance 74.64 km</desc>
<time>2011-05-22T13:30:40.53</time>
<name>16775</name>
<sym>Dot</sym>
</trkpt>
<trkpt lat="39.660870" lon="-8.688467">
<ele>428.0</ele>
<desc>Speed 13.3 km/h Distance 74.64 km</desc>
<time>2011-05-22T13:30:41.53</time>
<name>16776</name>
<sym>Dot</sym>
</trkpt>
<trkpt lat="39.660837" lon="-8.688472">
<ele>428.0</ele>
<desc>Speed 13.2 km/h Distance 74.65 km</desc>
<time>2011-05-22T13:30:42.53</time>
<name>16777</name>
<sym>Dot</sym>
</trkpt>
<trkpt lat="39.660805" lon="-8.688475">
<ele>428.5</ele>
<desc>Speed 12.6 km/h Distance 74.65 km</desc>
<time>2011-05-22T13:30:43.53</time>
<name>16778</name>
<sym>Dot</sym>
</trkpt>
<trkpt lat="39.660775" lon="-8.688478">
<ele>428.5</ele>
<desc>Speed 12.5 km/h Distance 74.65 km</desc>
<time>2011-05-22T13:30:44.53</time>
<name>16779</name>
<sym>Dot</sym>
</trkpt>
<trkpt lat="39.660745" lon="-8.688482">
<ele>429.0</ele>
<desc>Speed 11.7 km/h Distance 74.66 km</desc>
<time>2011-05-22T13:30:45.53</time>
<name>16780</name>
<sym>Dot</sym>
</trkpt>
<trkpt lat="39.660715" lon="-8.688485">
<ele>429.0</ele>
<desc>Speed 11.9 km/h Distance 74.66 km</desc>
<time>2011-05-22T13:30:46.53</time>
<name>16781</name>
<sym>Dot</sym>
</trkpt>
<trkpt lat="39.660687" lon="-8.688488">
<ele>429.5</ele>
<desc>Speed 11.7 km/h Distance 74.66 km</desc>
<time>2011-05-22T13:30:47.53</time>
<name>16782</name>
<sym>Dot</sym>
</trkpt>
<trkpt lat="39.660658" lon="-8.688488">
<ele>430.0</ele>
<desc>Speed 11.2 km/h Distance 74.67 km</desc>
<time>2011-05-22T13:30:48.53</time>
<name>16783</name>
<sym>Dot</sym>
</trkpt>
<trkpt lat="39.660630" lon="-8.688490">
<ele>430.0</ele>
<desc>Speed 11.8 km/h Distance 74.67 km</desc>
<time>2011-05-22T13:30:49.53</time>
<name>16784</name>
<sym>Dot</sym>
</trkpt>
<trkpt lat="39.660600" lon="-8.688493">
<ele>430.5</ele>
<desc>Speed 11.7 km/h Distance 74.67 km</desc>
<time>2011-05-22T13:30:50.53</time>
<name>16785</name>
<sym>Dot</sym>
</trkpt>
<trkpt lat="39.660572" lon="-8.688498">
<ele>430.5</ele>
<desc>Speed 11.4 km/h Distance 74.68 km</desc>
<time>2011-05-22T13:30:51.53</time>
<name>16786</name>
<sym>Dot</sym>
</trkpt>
<trkpt lat="39.660545" lon="-8.688498">
<ele>431.0</ele>
<desc>Speed 11.1 km/h Distance 74.68 km</desc>
<time>2011-05-22T13:30:52.53</time>
<name>16787</name>
<sym>Dot</sym>
</trkpt>
<trkpt lat="39.660517" lon="-8.688498">
<ele>431.5</ele>
<desc>Speed 11.2 km/h Distance 74.68 km</desc>
<time>2011-05-22T13:30:53.53</time>
<name>16788</name>
<sym>Dot</sym>
</trkpt>
<trkpt lat="39.660488" lon="-8.688502">
<ele>431.5</ele>
<desc>Speed 11.1 km/h Distance 74.68 km</desc>
<time>2011-05-22T13:30:54.53</time>
<name>16789</name>
<sym>Dot</sym>
</trkpt>
<trkpt lat="39.660462" lon="-8.688505">
<ele>432.0</ele>
<desc>Speed 11.0 km/h Distance 74.69 km</desc>
<time>2011-05-22T13:30:55.53</time>
<name>16790</name>
<sym>Dot</sym>
</trkpt>
<trkpt lat="39.660433" lon="-8.688508">
<ele>431.5</ele>
<desc>Speed 11.1 km/h Distance 74.69 km</desc>
<time>2011-05-22T13:30:56.53</time>
<name>16791</name>
<sym>Dot</sym>
</trkpt>
<trkpt lat="39.660407" lon="-8.688513">
<ele>432.0</ele>
<desc>Speed 11.1 km/h Distance 74.69 km</desc>
<time>2011-05-22T13:30:57.53</time>
<name>16792</name>
<sym>Dot</sym>
</trkpt>
<trkpt lat="39.660378" lon="-8.688517">
<ele>432.0</ele>
<desc>Speed 11.6 km/h Distance 74.70 km</desc>
<time>2011-05-22T13:30:58.53</time>
<name>16793</name>
<sym>Dot</sym>
</trkpt>
<trkpt lat="39.660348" lon="-8.688520">
<ele>432.0</ele>
<desc>Speed 11.5 km/h Distance 74.70 km</desc>
<time>2011-05-22T13:30:59.53</time>
<name>16794</name>
<sym>Dot</sym>
</trkpt>
<trkpt lat="39.660320" lon="-8.688523">
<ele>432.0</ele>
<desc>Speed 11.5 km/h Distance 74.70 km</desc>
<time>2011-05-22T13:31:00.53</time>
<name>16795</name>
<sym>Dot</sym>
</trkpt>
<trkpt lat="39.660292" lon="-8.688527">
<ele>432.0</ele>
<desc>Speed 11.6 km/h Distance 74.71 km</desc>
<time>2011-05-22T13:31:01.53</time>
<name>16796</name>
<sym>Dot</sym>
</trkpt>
<trkpt lat="39.660262" lon="-8.688528">
<ele>432.5</ele>
<desc>Speed 12.0 km/h Distance 74.71 km</desc>
<time>2011-05-22T13:31:02.53</time>
<name>16797</name>
<sym>Dot</sym>
</trkpt>
<trkpt lat="39.660232" lon="-8.688530">
<ele>433.0</ele>
<desc>Speed 12.0 km/h Distance 74.71 km</desc>
<time>2011-05-22T13:31:03.53</time>
<name>16798</name>
<sym>Dot</sym>
</trkpt>
<trkpt lat="39.660202" lon="-8.688533">
<ele>433.0</ele>
<desc>Speed 11.9 km/h Distance 74.72 km</desc>
<time>2011-05-22T13:31:04.53</time>
<name>16799</name>
<sym>Dot</sym>
</trkpt>
<trkpt lat="39.660172" lon="-8.688537">
<ele>433.0</ele>
<desc>Speed 11.9 km/h Distance 74.72 km</desc>
<time>2011-05-22T13:31:05.53</time>
<name>16800</name>
<sym>Dot</sym>
</trkpt>
<trkpt lat="39.660142" lon="-8.688538">
<ele>433.0</ele>
<desc>Speed 12.1 km/h Distance 74.72 km</desc>
<time>2011-05-22T13:31:06.53</time>
<name>16801</name>
<sym>Dot</sym>
</trkpt>
<trkpt lat="39.660113" lon="-8.688543">
<ele>433.5</ele>
<desc>Speed 11.8 km/h Distance 74.73 km</desc>
<time>2011-05-22T13:31:07.53</time>
<name>16802</name>
<sym>Dot</sym>
</trkpt>
<trkpt lat="39.660083" lon="-8.688548">
<ele>433.5</ele>
<desc>Speed 11.8 km/h Distance 74.73 km</desc>
<time>2011-05-22T13:31:08.53</time>
<name>16803</name>
<sym>Dot</sym>
</trkpt>
<trkpt lat="39.660053" lon="-8.688550">
<ele>433.5</ele>
<desc>Speed 12.0 km/h Distance 74.73 km</desc>
<time>2011-05-22T13:31:09.53</time>
<name>16804</name>
<sym>Dot</sym>
</trkpt>
<trkpt lat="39.660023" lon="-8.688553">
<ele>433.5</ele>
<desc>Speed 12.0 km/h Distance 74.74 km</desc>
<time>2011-05-22T13:31:10.53</time>
<name>16805</name>
<sym>Dot</sym>
</trkpt>
<trkpt lat="39.659993" lon="-8.688555">
<ele>433.5</ele>
<desc>Speed 12.2 km/h Distance 74.74 km</desc>
<time>2011-05-22T13:31:11.53</time>
<name>16806</name>
<sym>Dot</sym>
</trkpt>
<trkpt lat="39.659963" lon="-8.688558">
<ele>434.0</ele>
<desc>Speed 12.0 km/h Distance 74.74 km</desc>
<time>2011-05-22T13:31:12.53</time>
<name>16807</name>
<sym>Dot</sym>
</trkpt>
<trkpt lat="39.659935" lon="-8.688562">
<ele>434.0</ele>
<desc>Speed 11.3 km/h Distance 74.75 km</desc>
<time>2011-05-22T13:31:13.53</time>
<name>16808</name>
<sym>Dot</sym>
</trkpt>
<trkpt lat="39.659905" lon="-8.688565">
<ele>434.5</ele>
<desc>Speed 12.0 km/h Distance 74.75 km</desc>
<time>2011-05-22T13:31:14.53</time>
<name>16809</name>
<sym>Dot</sym>
</trkpt>
<trkpt lat="39.659875" lon="-8.688568">
<ele>435.0</ele>
<desc>Speed 11.9 km/h Distance 74.75 km</desc>
<time>2011-05-22T13:31:15.53</time>
<name>16810</name>
<sym>Dot</sym>
</trkpt>
<trkpt lat="39.659845" lon="-8.688572">
<ele>434.5</ele>
<desc>Speed 12.2 km/h Distance 74.76 km</desc>
<time>2011-05-22T13:31:16.53</time>
<name>16811</name>
<sym>Dot</sym>
</trkpt>
<trkpt lat="39.659817" lon="-8.688577">
<ele>434.5</ele>
<desc>Speed 12.1 km/h Distance 74.76 km</desc>
<time>2011-05-22T13:31:17.53</time>
<name>16812</name>
<sym>Dot</sym>
</trkpt>
<trkpt lat="39.659787" lon="-8.688580">
<ele>434.5</ele>
<desc>Speed 11.7 km/h Distance 74.76 km</desc>
<time>2011-05-22T13:31:18.53</time>
<name>16813</name>
<sym>Dot</sym>
</trkpt>
<trkpt lat="39.659760" lon="-8.688583">
<ele>435.0</ele>
<desc>Speed 11.1 km/h Distance 74.77 km</desc>
<time>2011-05-22T13:31:19.53</time>
<name>16814</name>
<sym>Dot</sym>
</trkpt>
<trkpt lat="39.659733" lon="-8.688583">
<ele>435.5</ele>
<desc>Speed 10.8 km/h Distance 74.77 km</desc>
<time>2011-05-22T13:31:20.53</time>
<name>16815</name>
<sym>Dot</sym>
</trkpt>
<trkpt lat="39.659705" lon="-8.688587">
<ele>436.0</ele>
<desc>Speed 11.6 km/h Distance 74.77 km</desc>
<time>2011-05-22T13:31:21.53</time>
<name>16816</name>
<sym>Dot</sym>
</trkpt>
<trkpt lat="39.659677" lon="-8.688592">
<ele>436.0</ele>
<desc>Speed 11.5 km/h Distance 74.78 km</desc>
<time>2011-05-22T13:31:22.53</time>
<name>16817</name>
<sym>Dot</sym>
</trkpt>
<trkpt lat="39.659648" lon="-8.688595">
<ele>436.0</ele>
<desc>Speed 11.1 km/h Distance 74.78 km</desc>
<time>2011-05-22T13:31:23.53</time>
<name>16818</name>
<sym>Dot</sym>
</trkpt>
<trkpt lat="39.659620" lon="-8.688598">
<ele>435.5</ele>
<desc>Speed 11.3 km/h Distance 74.78 km</desc>
<time>2011-05-22T13:31:24.53</time>
<name>16819</name>
<sym>Dot</sym>
</trkpt>
<trkpt lat="39.659595" lon="-8.688603">
<ele>436.0</ele>
<desc>Speed 10.2 km/h Distance 74.78 km</desc>
<time>2011-05-22T13:31:25.53</time>
<name>16820</name>
<sym>Dot</sym>
</trkpt>
<trkpt lat="39.659568" lon="-8.688605">
<ele>436.5</ele>
<desc>Speed 10.9 km/h Distance 74.79 km</desc>
<time>2011-05-22T13:31:26.53</time>
<name>16821</name>
<sym>Dot</sym>
</trkpt>
<trkpt lat="39.659538" lon="-8.688608">
<ele>437.0</ele>
<desc>Speed 12.2 km/h Distance 74.79 km</desc>
<time>2011-05-22T13:31:27.53</time>
<name>16822</name>
<sym>Dot</sym>
</trkpt>
<trkpt lat="39.659507" lon="-8.688613">
<ele>437.0</ele>
<desc>Speed 12.4 km/h Distance 74.79 km</desc>
<time>2011-05-22T13:31:28.53</time>
<name>16823</name>
<sym>Dot</sym>
</trkpt>
<trkpt lat="39.659477" lon="-8.688618">
<ele>437.0</ele>
<desc>Speed 12.6 km/h Distance 74.80 km</desc>
<time>2011-05-22T13:31:29.53</time>
<name>16824</name>
<sym>Dot</sym>
</trkpt>
<trkpt lat="39.659445" lon="-8.688625">
<ele>437.0</ele>
<desc>Speed 12.8 km/h Distance 74.80 km</desc>
<time>2011-05-22T13:31:30.53</time>
<name>16825</name>
<sym>Dot</sym>
</trkpt>
<trkpt lat="39.659413" lon="-8.688630">
<ele>437.0</ele>
<desc>Speed 12.8 km/h Distance 74.81 km</desc>
<time>2011-05-22T13:31:31.53</time>
<name>16826</name>
<sym>Dot</sym>
</trkpt>
<trkpt lat="39.659382" lon="-8.688638">
<ele>437.0</ele>
<desc>Speed 12.5 km/h Distance 74.81 km</desc>
<time>2011-05-22T13:31:32.53</time>
<name>16827</name>
<sym>Dot</sym>
</trkpt>
<trkpt lat="39.659350" lon="-8.688645">
<ele>437.0</ele>
<desc>Speed 13.1 km/h Distance 74.81 km</desc>
<time>2011-05-22T13:31:33.53</time>
<name>16828</name>
<sym>Dot</sym>
</trkpt>
<trkpt lat="39.659318" lon="-8.688648">
<ele>437.0</ele>
<desc>Speed 12.7 km/h Distance 74.82 km</desc>
<time>2011-05-22T13:31:34.53</time>
<name>16829</name>
<sym>Dot</sym>
</trkpt>
<trkpt lat="39.659285" lon="-8.688652">
<ele>437.0</ele>
<desc>Speed 12.7 km/h Distance 74.82 km</desc>
<time>2011-05-22T13:31:35.53</time>
<name>16830</name>
<sym>Dot</sym>
</trkpt>
<trkpt lat="39.659253" lon="-8.688655">
<ele>436.5</ele>
<desc>Speed 12.7 km/h Distance 74.82 km</desc>
<time>2011-05-22T13:31:36.53</time>
<name>16831</name>
<sym>Dot</sym>
</trkpt>
<trkpt lat="39.659222" lon="-8.688660">
<ele>436.5</ele>
<desc>Speed 12.7 km/h Distance 74.83 km</desc>
<time>2011-05-22T13:31:37.53</time>
<name>16832</name>
<sym>Dot</sym>
</trkpt>
<trkpt lat="39.659190" lon="-8.688665">
<ele>436.5</ele>
<desc>Speed 12.9 km/h Distance 74.83 km</desc>
<time>2011-05-22T13:31:38.53</time>
<name>16833</name>
<sym>Dot</sym>
</trkpt>
<trkpt lat="39.659158" lon="-8.688667">
<ele>436.0</ele>
<desc>Speed 12.8 km/h Distance 74.83 km</desc>
<time>2011-05-22T13:31:39.53</time>
<name>16834</name>
<sym>Dot</sym>
</trkpt>
<trkpt lat="39.659127" lon="-8.688668">
<ele>436.5</ele>
<desc>Speed 12.4 km/h Distance 74.84 km</desc>
<time>2011-05-22T13:31:40.53</time>
<name>16835</name>
<sym>Dot</sym>
</trkpt>
<trkpt lat="39.659097" lon="-8.688672">
<ele>437.0</ele>
<desc>Speed 11.9 km/h Distance 74.84 km</desc>
<time>2011-05-22T13:31:41.53</time>
<name>16836</name>
<sym>Dot</sym>
</trkpt>
<trkpt lat="39.659065" lon="-8.688675">
<ele>437.0</ele>
<desc>Speed 12.5 km/h Distance 74.84 km</desc>
<time>2011-05-22T13:31:42.53</time>
<name>16837</name>
<sym>Dot</sym>
</trkpt>
<trkpt lat="39.659033" lon="-8.688678">
<ele>437.0</ele>
<desc>Speed 12.7 km/h Distance 74.85 km</desc>
<time>2011-05-22T13:31:43.53</time>
<name>16838</name>
<sym>Dot</sym>
</trkpt>
<trkpt lat="39.659000" lon="-8.688680">
<ele>436.5</ele>
<desc>Speed 13.1 km/h Distance 74.85 km</desc>
<time>2011-05-22T13:31:44.53</time>
<name>16839</name>
<sym>Dot</sym>
</trkpt>
<trkpt lat="39.658967" lon="-8.688680">
<ele>436.0</ele>
<desc>Speed 13.0 km/h Distance 74.86 km</desc>
<time>2011-05-22T13:31:45.53</time>
<name>16840</name>
<sym>Dot</sym>
</trkpt>
<trkpt lat="39.658933" lon="-8.688680">
<ele>436.0</ele>
<desc>Speed 13.4 km/h Distance 74.86 km</desc>
<time>2011-05-22T13:31:46.53</time>
<name>16841</name>
<sym>Dot</sym>
</trkpt>
<trkpt lat="39.658900" lon="-8.688680">
<ele>435.5</ele>
<desc>Speed 13.6 km/h Distance 74.86 km</desc>
<time>2011-05-22T13:31:47.53</time>
<name>16842</name>
<sym>Dot</sym>
</trkpt>
<trkpt lat="39.658863" lon="-8.688680">
<ele>435.5</ele>
<desc>Speed 14.3 km/h Distance 74.87 km</desc>
<time>2011-05-22T13:31:48.53</time>
<name>16843</name>
<sym>Dot</sym>
</trkpt>
<trkpt lat="39.658827" lon="-8.688677">
<ele>435.5</ele>
<desc>Speed 14.7 km/h Distance 74.87 km</desc>
<time>2011-05-22T13:31:49.53</time>
<name>16844</name>
<sym>Dot</sym>
</trkpt>
<trkpt lat="39.658788" lon="-8.688675">
<ele>435.0</ele>
<desc>Speed 15.2 km/h Distance 74.87 km</desc>
<time>2011-05-22T13:31:50.53</time>
<name>16845</name>
<sym>Dot</sym>
</trkpt>
<trkpt lat="39.658748" lon="-8.688672">
<ele>435.0</ele>
<desc>Speed 15.7 km/h Distance 74.88 km</desc>
<time>2011-05-22T13:31:51.53</time>
<name>16846</name>
<sym>Dot</sym>
</trkpt>
<trkpt lat="39.658708" lon="-8.688668">
<ele>435.0</ele>
<desc>Speed 16.2 km/h Distance 74.88 km</desc>
<time>2011-05-22T13:31:52.53</time>
<name>16847</name>
<sym>Dot</sym>
</trkpt>
<trkpt lat="39.658667" lon="-8.688662">
<ele>434.5</ele>
<desc>Speed 16.6 km/h Distance 74.89 km</desc>
<time>2011-05-22T13:31:53.53</time>
<name>16848</name>
<sym>Dot</sym>
</trkpt>
<trkpt lat="39.658625" lon="-8.688652">
<ele>434.5</ele>
<desc>Speed 17.4 km/h Distance 74.89 km</desc>
<time>2011-05-22T13:31:54.53</time>
<name>16849</name>
<sym>Dot</sym>
</trkpt>
<trkpt lat="39.658580" lon="-8.688638">
<ele>434.5</ele>
<desc>Speed 17.9 km/h Distance 74.90 km</desc>
<time>2011-05-22T13:31:55.53</time>
<name>16850</name>
<sym>Dot</sym>
</trkpt>
<trkpt lat="39.658537" lon="-8.688625">
<ele>434.5</ele>
<desc>Speed 18.3 km/h Distance 74.90 km</desc>
<time>2011-05-22T13:31:56.53</time>
<name>16851</name>
<sym>Dot</sym>
</trkpt>
<trkpt lat="39.658495" lon="-8.688613">
<ele>434.0</ele>
<desc>Speed 16.9 km/h Distance 74.91 km</desc>
<time>2011-05-22T13:31:57.53</time>
<name>16852</name>
<sym>Dot</sym>
</trkpt>
<trkpt lat="39.658455" lon="-8.688608">
<ele>434.0</ele>
<desc>Speed 15.8 km/h Distance 74.91 km</desc>
<time>2011-05-22T13:31:58.53</time>
<name>16853</name>
<sym>Dot</sym>
</trkpt>
<trkpt lat="39.658417" lon="-8.688608">
<ele>433.5</ele>
<desc>Speed 14.9 km/h Distance 74.92 km</desc>
<time>2011-05-22T13:31:59.53</time>
<name>16854</name>
<sym>Dot</sym>
</trkpt>
<trkpt lat="39.658382" lon="-8.688607">
<ele>433.0</ele>
<desc>Speed 14.2 km/h Distance 74.92 km</desc>
<time>2011-05-22T13:32:00.53</time>
<name>16855</name>
<sym>Dot</sym>
</trkpt>
<trkpt lat="39.658362" lon="-8.688603">
<ele>433.5</ele>
<desc>Speed 2.7 km/h Distance 74.92 km</desc>
<time>2011-05-22T13:32:02.53</time>
<name>16856</name>
<sym>Dot</sym>
</trkpt>
<trkpt lat="39.658355" lon="-8.688600">
<ele>433.5</ele>
<desc>Speed 2.7 km/h Distance 74.92 km</desc>
<time>2011-05-22T13:32:03.53</time>
<name>16857</name>
<sym>Dot</sym>
</trkpt>
<trkpt lat="39.658352" lon="-8.688597">
<ele>433.5</ele>
<desc>Speed 1.5 km/h Distance 74.92 km</desc>
<time>2011-05-22T13:32:04.53</time>
<name>16858</name>
<sym>Dot</sym>
</trkpt>
<trkpt lat="39.658345" lon="-8.688600">
<ele>433.0</ele>
<desc>Speed 1.7 km/h Distance 74.92 km</desc>
<time>2011-05-22T13:32:38.53</time>
<name>16859</name>
<sym>Dot</sym>
</trkpt>
<trkpt lat="39.658340" lon="-8.688613">
<ele>435.0</ele>
<desc>Speed 1.3 km/h Distance 74.93 km</desc>
<time>2011-05-22T13:34:16.53</time>
<name>16860</name>
<sym>Dot</sym>
</trkpt>
<trkpt lat="39.658337" lon="-8.688612">
<ele>434.0</ele>
<desc>Speed 1.7 km/h Distance 74.93 km</desc>
<time>2011-05-22T13:34:19.53</time>
<name>16861</name>
<sym>Dot</sym>
</trkpt>
<trkpt lat="39.658310" lon="-8.688620">
<ele>429.5</ele>
<desc>Speed 1.1 km/h Distance 74.93 km</desc>
<time>2011-05-22T13:36:03.53</time>
<name>16862</name>
<sym>Dot</sym>
</trkpt>
<trkpt lat="39.658302" lon="-8.688625">
<ele>428.0</ele>
<desc>Speed 2.0 km/h Distance 74.93 km</desc>
<time>2011-05-22T13:36:12.53</time>
<name>16863</name>
<sym>Dot</sym>
</trkpt>
<trkpt lat="39.658293" lon="-8.688625">
<ele>427.5</ele>
<desc>Speed 3.6 km/h Distance 74.93 km</desc>
<time>2011-05-22T13:36:13.53</time>
<name>16864</name>
<sym>Dot</sym>
</trkpt>
<trkpt lat="39.658282" lon="-8.688627">
<ele>427.0</ele>
<desc>Speed 4.4 km/h Distance 74.93 km</desc>
<time>2011-05-22T13:36:14.53</time>
<name>16865</name>
<sym>Dot</sym>
</trkpt>
<trkpt lat="39.658263" lon="-8.688622">
<ele>426.5</ele>
<desc>Speed 7.6 km/h Distance 74.94 km</desc>
<time>2011-05-22T13:36:15.53</time>
<name>16866</name>
<sym>Dot</sym>
</trkpt>
<trkpt lat="39.658242" lon="-8.688613">
<ele>426.5</ele>
<desc>Speed 9.2 km/h Distance 74.94 km</desc>
<time>2011-05-22T13:36:16.53</time>
<name>16867</name>
<sym>Dot</sym>
</trkpt>
<trkpt lat="39.658222" lon="-8.688605">
<ele>426.5</ele>
<desc>Speed 7.9 km/h Distance 74.94 km</desc>
<time>2011-05-22T13:36:17.53</time>
<name>16868</name>
<sym>Dot</sym>
</trkpt>
<trkpt lat="39.658205" lon="-8.688598">
<ele>427.0</ele>
<desc>Speed 6.7 km/h Distance 74.94 km</desc>
<time>2011-05-22T13:36:18.53</time>
<name>16869</name>
<sym>Dot</sym>
</trkpt>
<trkpt lat="39.658192" lon="-8.688597">
<ele>427.5</ele>
<desc>Speed 5.8 km/h Distance 74.94 km</desc>
<time>2011-05-22T13:36:19.53</time>
<name>16870</name>
<sym>Dot</sym>
</trkpt>
<trkpt lat="39.658178" lon="-8.688593">
<ele>428.0</ele>
<desc>Speed 5.2 km/h Distance 74.94 km</desc>
<time>2011-05-22T13:36:20.53</time>
<name>16871</name>
<sym>Dot</sym>
</trkpt>
<trkpt lat="39.658177" lon="-8.688590">
<ele>428.5</ele>
<desc>Speed 1.3 km/h Distance 74.95 km</desc>
<time>2011-05-22T13:36:21.53</time>
<name>16872</name>
<sym>Dot</sym>
</trkpt>
<trkpt lat="39.658160" lon="-8.688590">
<ele>429.0</ele>
<desc>Speed 4.4 km/h Distance 74.95 km</desc>
<time>2011-05-22T13:36:31.53</time>
<name>16873</name>
<sym>Dot</sym>
</trkpt>
<trkpt lat="39.658143" lon="-8.688587">
<ele>428.5</ele>
<desc>Speed 6.6 km/h Distance 74.95 km</desc>
<time>2011-05-22T13:36:32.53</time>
<name>16874</name>
<sym>Dot</sym>
</trkpt>
<trkpt lat="39.658120" lon="-8.688580">
<ele>428.0</ele>
<desc>Speed 9.3 km/h Distance 74.95 km</desc>
<time>2011-05-22T13:36:33.53</time>
<name>16875</name>
<sym>Dot</sym>
</trkpt>
<trkpt lat="39.658093" lon="-8.688572">
<ele>428.0</ele>
<desc>Speed 10.8 km/h Distance 74.95 km</desc>
<time>2011-05-22T13:36:34.53</time>
<name>16876</name>
<sym>Dot</sym>
</trkpt>
<trkpt lat="39.658060" lon="-8.688562">
<ele>428.5</ele>
<desc>Speed 13.3 km/h Distance 74.96 km</desc>
<time>2011-05-22T13:36:35.53</time>
<name>16877</name>
<sym>Dot</sym>
</trkpt>
<trkpt lat="39.658022" lon="-8.688552">
<ele>428.5</ele>
<desc>Speed 14.8 km/h Distance 74.96 km</desc>
<time>2011-05-22T13:36:36.53</time>
<name>16878</name>
<sym>Dot</sym>
</trkpt>
<trkpt lat="39.657982" lon="-8.688540">
<ele>429.0</ele>
<desc>Speed 16.3 km/h Distance 74.97 km</desc>
<time>2011-05-22T13:36:37.53</time>
<name>16879</name>
<sym>Dot</sym>
</trkpt>
<trkpt lat="39.657937" lon="-8.688527">
<ele>429.0</ele>
<desc>Speed 17.6 km/h Distance 74.97 km</desc>
<time>2011-05-22T13:36:38.53</time>
<name>16880</name>
<sym>Dot</sym>
</trkpt>
<trkpt lat="39.657892" lon="-8.688515">
<ele>429.0</ele>
<desc>Speed 18.4 km/h Distance 74.98 km</desc>
<time>2011-05-22T13:36:39.53</time>
<name>16881</name>
<sym>Dot</sym>
</trkpt>
<trkpt lat="39.657843" lon="-8.688502">
<ele>429.5</ele>
<desc>Speed 19.1 km/h Distance 74.98 km</desc>
<time>2011-05-22T13:36:40.53</time>
<name>16882</name>
<sym>Dot</sym>
</trkpt>
<trkpt lat="39.657792" lon="-8.688483">
<ele>430.5</ele>
<desc>Speed 19.2 km/h Distance 74.99 km</desc>
<time>2011-05-22T13:36:41.53</time>
<name>16883</name>
<sym>Dot</sym>
</trkpt>
<trkpt lat="39.657742" lon="-8.688467">
<ele>431.0</ele>
<desc>Speed 19.4 km/h Distance 74.99 km</desc>
<time>2011-05-22T13:36:42.53</time>
<name>16884</name>
<sym>Dot</sym>
</trkpt>
<trkpt lat="39.657692" lon="-8.688452">
<ele>431.5</ele>
<desc>Speed 19.5 km/h Distance 75.00 km</desc>
<time>2011-05-22T13:36:43.53</time>
<name>16885</name>
<sym>Dot</sym>
</trkpt>
<trkpt lat="39.657642" lon="-8.688437">
<ele>431.5</ele>
<desc>Speed 19.7 km/h Distance 75.01 km</desc>
<time>2011-05-22T13:36:44.53</time>
<name>16886</name>
<sym>Dot</sym>
</trkpt>
<trkpt lat="39.657593" lon="-8.688418">
<ele>432.5</ele>
<desc>Speed 19.1 km/h Distance 75.01 km</desc>
<time>2011-05-22T13:36:45.53</time>
<name>16887</name>
<sym>Dot</sym>
</trkpt>
<trkpt lat="39.657543" lon="-8.688403">
<ele>433.0</ele>
<desc>Speed 19.7 km/h Distance 75.02 km</desc>
<time>2011-05-22T13:36:46.52</time>
<name>16888</name>
<sym>Dot</sym>
</trkpt>
<trkpt lat="39.657493" lon="-8.688388">
<ele>433.0</ele>
<desc>Speed 19.9 km/h Distance 75.02 km</desc>
<time>2011-05-22T13:36:47.52</time>
<name>16889</name>
<sym>Dot</sym>
</trkpt>
<trkpt lat="39.657445" lon="-8.688370">
<ele>433.0</ele>
<desc>Speed 20.2 km/h Distance 75.03 km</desc>
<time>2011-05-22T13:36:48.52</time>
<name>16890</name>
<sym>Dot</sym>
</trkpt>
<trkpt lat="39.657395" lon="-8.688355">
<ele>433.0</ele>
<desc>Speed 20.3 km/h Distance 75.03 km</desc>
<time>2011-05-22T13:36:49.52</time>
<name>16891</name>
<sym>Dot</sym>
</trkpt>
<trkpt lat="39.657345" lon="-8.688337">
<ele>433.5</ele>
<desc>Speed 20.4 km/h Distance 75.04 km</desc>
<time>2011-05-22T13:36:50.52</time>
<name>16892</name>
<sym>Dot</sym>
</trkpt>
<trkpt lat="39.657293" lon="-8.688318">
<ele>433.5</ele>
<desc>Speed 20.8 km/h Distance 75.05 km</desc>
<time>2011-05-22T13:36:51.52</time>
<name>16893</name>
<sym>Dot</sym>
</trkpt>
<trkpt lat="39.657242" lon="-8.688302">
<ele>434.0</ele>
<desc>Speed 20.9 km/h Distance 75.05 km</desc>
<time>2011-05-22T13:36:52.52</time>
<name>16894</name>
<sym>Dot</sym>
</trkpt>
<trkpt lat="39.657190" lon="-8.688283">
<ele>434.0</ele>
<desc>Speed 21.0 km/h Distance 75.06 km</desc>
<time>2011-05-22T13:36:53.52</time>
<name>16895</name>
<sym>Dot</sym>
</trkpt>
<trkpt lat="39.657138" lon="-8.688265">
<ele>434.5</ele>
<desc>Speed 21.0 km/h Distance 75.06 km</desc>
<time>2011-05-22T13:36:54.52</time>
<name>16896</name>
<sym>Dot</sym>
</trkpt>
<trkpt lat="39.657087" lon="-8.688247">
<ele>434.5</ele>
<desc>Speed 20.9 km/h Distance 75.07 km</desc>
<time>2011-05-22T13:36:55.52</time>
<name>16897</name>
<sym>Dot</sym>
</trkpt>
<trkpt lat="39.657037" lon="-8.688230">
<ele>434.5</ele>
<desc>Speed 20.6 km/h Distance 75.08 km</desc>
<time>2011-05-22T13:36:56.52</time>
<name>16898</name>
<sym>Dot</sym>
</trkpt>
<trkpt lat="39.656987" lon="-8.688212">
<ele>434.5</ele>
<desc>Speed 20.3 km/h Distance 75.08 km</desc>
<time>2011-05-22T13:36:57.52</time>
<name>16899</name>
<sym>Dot</sym>
</trkpt>
<trkpt lat="39.656938" lon="-8.688193">
<ele>434.5</ele>
<desc>Speed 19.9 km/h Distance 75.09 km</desc>
<time>2011-05-22T13:36:58.52</time>
<name>16900</name>
<sym>Dot</sym>
</trkpt>
<trkpt lat="39.656890" lon="-8.688175">
<ele>434.0</ele>
<desc>Speed 19.9 km/h Distance 75.09 km</desc>
<time>2011-05-22T13:36:59.52</time>
<name>16901</name>
<sym>Dot</sym>
</trkpt>
<trkpt lat="39.656840" lon="-8.688158">
<ele>434.0</ele>
<desc>Speed 20.1 km/h Distance 75.10 km</desc>
<time>2011-05-22T13:37:00.52</time>
<name>16902</name>
<sym>Dot</sym>
</trkpt>
<trkpt lat="39.656788" lon="-8.688143">
<ele>434.0</ele>
<desc>Speed 21.0 km/h Distance 75.10 km</desc>
<time>2011-05-22T13:37:01.52</time>
<name>16903</name>
<sym>Dot</sym>
</trkpt>
<trkpt lat="39.656735" lon="-8.688128">
<ele>434.5</ele>
<desc>Speed 21.4 km/h Distance 75.11 km</desc>
<time>2011-05-22T13:37:02.52</time>
<name>16904</name>
<sym>Dot</sym>
</trkpt>
<trkpt lat="39.656682" lon="-8.688113">
<ele>435.0</ele>
<desc>Speed 21.7 km/h Distance 75.12 km</desc>
<time>2011-05-22T13:37:03.52</time>
<name>16905</name>
<sym>Dot</sym>
</trkpt>
<trkpt lat="39.656628" lon="-8.688098">
<ele>435.0</ele>
<desc>Speed 21.6 km/h Distance 75.12 km</desc>
<time>2011-05-22T13:37:04.52</time>
<name>16906</name>
<sym>Dot</sym>
</trkpt>
<trkpt lat="39.656575" lon="-8.688083">
<ele>435.5</ele>
<desc>Speed 21.5 km/h Distance 75.13 km</desc>
<time>2011-05-22T13:37:05.52</time>
<name>16907</name>
<sym>Dot</sym>
</trkpt>
<trkpt lat="39.656523" lon="-8.688068">
<ele>435.5</ele>
<desc>Speed 21.1 km/h Distance 75.13 km</desc>
<time>2011-05-22T13:37:06.52</time>
<name>16908</name>
<sym>Dot</sym>
</trkpt>
<trkpt lat="39.656473" lon="-8.688052">
<ele>435.5</ele>
<desc>Speed 20.4 km/h Distance 75.14 km</desc>
<time>2011-05-22T13:37:07.52</time>
<name>16909</name>
<sym>Dot</sym>
</trkpt>
<trkpt lat="39.656423" lon="-8.688033">
<ele>435.5</ele>
<desc>Speed 20.1 km/h Distance 75.15 km</desc>
<time>2011-05-22T13:37:08.52</time>
<name>16910</name>
<sym>Dot</sym>
</trkpt>
<trkpt lat="39.656377" lon="-8.688018">
<ele>435.5</ele>
<desc>Speed 19.4 km/h Distance 75.15 km</desc>
<time>2011-05-22T13:37:09.52</time>
<name>16911</name>
<sym>Dot</sym>
</trkpt>
<trkpt lat="39.656328" lon="-8.688007">
<ele>435.5</ele>
<desc>Speed 19.3 km/h Distance 75.16 km</desc>
<time>2011-05-22T13:37:10.52</time>
<name>16912</name>
<sym>Dot</sym>
</trkpt>
<trkpt lat="39.656282" lon="-8.687995">
<ele>435.5</ele>
<desc>Speed 18.9 km/h Distance 75.16 km</desc>
<time>2011-05-22T13:37:11.52</time>
<name>16913</name>
<sym>Dot</sym>
</trkpt>
<trkpt lat="39.656235" lon="-8.687982">
<ele>435.5</ele>
<desc>Speed 18.7 km/h Distance 75.17 km</desc>
<time>2011-05-22T13:37:12.52</time>
<name>16914</name>
<sym>Dot</sym>
</trkpt>
<trkpt lat="39.656190" lon="-8.687967">
<ele>435.5</ele>
<desc>Speed 18.5 km/h Distance 75.17 km</desc>
<time>2011-05-22T13:37:13.52</time>
<name>16915</name>
<sym>Dot</sym>
</trkpt>
<trkpt lat="39.656145" lon="-8.687952">
<ele>435.5</ele>
<desc>Speed 17.9 km/h Distance 75.18 km</desc>
<time>2011-05-22T13:37:14.52</time>
<name>16916</name>
<sym>Dot</sym>
</trkpt>
<trkpt lat="39.656103" lon="-8.687940">
<ele>435.0</ele>
<desc>Speed 17.1 km/h Distance 75.18 km</desc>
<time>2011-05-22T13:37:15.52</time>
<name>16917</name>
<sym>Dot</sym>
</trkpt>
<trkpt lat="39.656060" lon="-8.687927">
<ele>435.0</ele>
<desc>Speed 17.1 km/h Distance 75.19 km</desc>
<time>2011-05-22T13:37:16.52</time>
<name>16918</name>
<sym>Dot</sym>
</trkpt>
<trkpt lat="39.656017" lon="-8.687915">
<ele>435.5</ele>
<desc>Speed 17.6 km/h Distance 75.19 km</desc>
<time>2011-05-22T13:37:17.52</time>
<name>16919</name>
<sym>Dot</sym>
</trkpt>
<trkpt lat="39.655972" lon="-8.687903">
<ele>435.0</ele>
<desc>Speed 17.9 km/h Distance 75.20 km</desc>
<time>2011-05-22T13:37:18.52</time>
<name>16920</name>
<sym>Dot</sym>
</trkpt>
<trkpt lat="39.655928" lon="-8.687892">
<ele>434.5</ele>
<desc>Speed 17.6 km/h Distance 75.20 km</desc>
<time>2011-05-22T13:37:19.52</time>
<name>16921</name>
<sym>Dot</sym>
</trkpt>
<trkpt lat="39.655883" lon="-8.687880">
<ele>434.5</ele>
<desc>Speed 18.1 km/h Distance 75.21 km</desc>
<time>2011-05-22T13:37:20.52</time>
<name>16922</name>
<sym>Dot</sym>
</trkpt>
<trkpt lat="39.655838" lon="-8.687867">
<ele>434.5</ele>
<desc>Speed 18.3 km/h Distance 75.21 km</desc>
<time>2011-05-22T13:37:21.52</time>
<name>16923</name>
<sym>Dot</sym>
</trkpt>
<trkpt lat="39.655793" lon="-8.687855">
<ele>434.0</ele>
<desc>Speed 18.2 km/h Distance 75.22 km</desc>
<time>2011-05-22T13:37:22.52</time>
<name>16924</name>
<sym>Dot</sym>
</trkpt>
<trkpt lat="39.655750" lon="-8.687842">
<ele>434.0</ele>
<desc>Speed 18.0 km/h Distance 75.22 km</desc>
<time>2011-05-22T13:37:23.52</time>
<name>16925</name>
<sym>Dot</sym>
</trkpt>
<trkpt lat="39.655707" lon="-8.687828">
<ele>434.0</ele>
<desc>Speed 17.6 km/h Distance 75.23 km</desc>
<time>2011-05-22T13:37:24.52</time>
<name>16926</name>
<sym>Dot</sym>
</trkpt>
<trkpt lat="39.655662" lon="-8.687815">
<ele>434.0</ele>
<desc>Speed 17.8 km/h Distance 75.23 km</desc>
<time>2011-05-22T13:37:25.52</time>
<name>16927</name>
<sym>Dot</sym>
</trkpt>
<trkpt lat="39.655618" lon="-8.687802">
<ele>433.5</ele>
<desc>Speed 18.0 km/h Distance 75.24 km</desc>
<time>2011-05-22T13:37:26.52</time>
<name>16928</name>
<sym>Dot</sym>
</trkpt>
<trkpt lat="39.655573" lon="-8.687788">
<ele>434.0</ele>
<desc>Speed 17.9 km/h Distance 75.24 km</desc>
<time>2011-05-22T13:37:27.52</time>
<name>16929</name>
<sym>Dot</sym>
</trkpt>
<trkpt lat="39.655530" lon="-8.687777">
<ele>433.5</ele>
<desc>Speed 18.0 km/h Distance 75.25 km</desc>
<time>2011-05-22T13:37:28.52</time>
<name>16930</name>
<sym>Dot</sym>
</trkpt>
<trkpt lat="39.655485" lon="-8.687765">
<ele>433.5</ele>
<desc>Speed 18.0 km/h Distance 75.25 km</desc>
<time>2011-05-22T13:37:29.52</time>
<name>16931</name>
<sym>Dot</sym>
</trkpt>
<trkpt lat="39.655440" lon="-8.687752">
<ele>433.5</ele>
<desc>Speed 18.1 km/h Distance 75.26 km</desc>
<time>2011-05-22T13:37:30.52</time>
<name>16932</name>
<sym>Dot</sym>
</trkpt>
<trkpt lat="39.655395" lon="-8.687740">
<ele>433.0</ele>
<desc>Speed 18.2 km/h Distance 75.26 km</desc>
<time>2011-05-22T13:37:31.52</time>
<name>16933</name>
<sym>Dot</sym>
</trkpt>
<trkpt lat="39.655350" lon="-8.687730">
<ele>433.0</ele>
<desc>Speed 18.3 km/h Distance 75.27 km</desc>
<time>2011-05-22T13:37:32.52</time>
<name>16934</name>
<sym>Dot</sym>
</trkpt>
<trkpt lat="39.655305" lon="-8.687718">
<ele>433.0</ele>
<desc>Speed 18.0 km/h Distance 75.27 km</desc>
<time>2011-05-22T13:37:33.52</time>
<name>16935</name>
<sym>Dot</sym>
</trkpt>
<trkpt lat="39.655262" lon="-8.687708">
<ele>432.5</ele>
<desc>Speed 18.1 km/h Distance 75.28 km</desc>
<time>2011-05-22T13:37:34.52</time>
<name>16936</name>
<sym>Dot</sym>
</trkpt>
<trkpt lat="39.655217" lon="-8.687698">
<ele>432.5</ele>
<desc>Speed 17.9 km/h Distance 75.28 km</desc>
<time>2011-05-22T13:37:35.52</time>
<name>16937</name>
<sym>Dot</sym>
</trkpt>
<trkpt lat="39.655173" lon="-8.687688">
<ele>432.5</ele>
<desc>Speed 17.7 km/h Distance 75.29 km</desc>
<time>2011-05-22T13:37:36.52</time>
<name>16938</name>
<sym>Dot</sym>
</trkpt>
<trkpt lat="39.655130" lon="-8.687682">
<ele>432.5</ele>
<desc>Speed 17.5 km/h Distance 75.29 km</desc>
<time>2011-05-22T13:37:37.52</time>
<name>16939</name>
<sym>Dot</sym>
</trkpt>
<trkpt lat="39.655085" lon="-8.687675">
<ele>432.5</ele>
<desc>Speed 17.7 km/h Distance 75.30 km</desc>
<time>2011-05-22T13:37:38.52</time>
<name>16940</name>
<sym>Dot</sym>
</trkpt>
<trkpt lat="39.655042" lon="-8.687668">
<ele>432.5</ele>
<desc>Speed 17.6 km/h Distance 75.30 km</desc>
<time>2011-05-22T13:37:39.52</time>
<name>16941</name>
<sym>Dot</sym>
</trkpt>
<trkpt lat="39.654998" lon="-8.687660">
<ele>432.0</ele>
<desc>Speed 17.6 km/h Distance 75.31 km</desc>
<time>2011-05-22T13:37:40.52</time>
<name>16942</name>
<sym>Dot</sym>
</trkpt>
<trkpt lat="39.654957" lon="-8.687652">
<ele>432.0</ele>
<desc>Speed 17.3 km/h Distance 75.31 km</desc>
<time>2011-05-22T13:37:41.52</time>
<name>16943</name>
<sym>Dot</sym>
</trkpt>
<trkpt lat="39.654915" lon="-8.687643">
<ele>432.0</ele>
<desc>Speed 16.9 km/h Distance 75.32 km</desc>
<time>2011-05-22T13:37:42.52</time>
<name>16944</name>
<sym>Dot</sym>
</trkpt>
<trkpt lat="39.654873" lon="-8.687637">
<ele>432.0</ele>
<desc>Speed 16.8 km/h Distance 75.32 km</desc>
<time>2011-05-22T13:37:43.52</time>
<name>16945</name>
<sym>Dot</sym>
</trkpt>
<trkpt lat="39.654832" lon="-8.687630">
<ele>431.5</ele>
<desc>Speed 17.0 km/h Distance 75.33 km</desc>
<time>2011-05-22T13:37:44.52</time>
<name>16946</name>
<sym>Dot</sym>
</trkpt>
<trkpt lat="39.654788" lon="-8.687623">
<ele>431.5</ele>
<desc>Speed 17.0 km/h Distance 75.33 km</desc>
<time>2011-05-22T13:37:45.52</time>
<name>16947</name>
<sym>Dot</sym>
</trkpt>
<trkpt lat="39.654748" lon="-8.687615">
<ele>431.5</ele>
<desc>Speed 16.5 km/h Distance 75.34 km</desc>
<time>2011-05-22T13:37:46.52</time>
<name>16948</name>
<sym>Dot</sym>
</trkpt>
<trkpt lat="39.654708" lon="-8.687608">
<ele>432.0</ele>
<desc>Speed 16.1 km/h Distance 75.34 km</desc>
<time>2011-05-22T13:37:47.52</time>
<name>16949</name>
<sym>Dot</sym>
</trkpt>
<trkpt lat="39.654670" lon="-8.687602">
<ele>432.0</ele>
<desc>Speed 15.4 km/h Distance 75.35 km</desc>
<time>2011-05-22T13:37:48.52</time>
<name>16950</name>
<sym>Dot</sym>
</trkpt>
<trkpt lat="39.654632" lon="-8.687595">
<ele>432.0</ele>
<desc>Speed 15.6 km/h Distance 75.35 km</desc>
<time>2011-05-22T13:37:49.52</time>
<name>16951</name>
<sym>Dot</sym>
</trkpt>
<trkpt lat="39.654593" lon="-8.687588">
<ele>432.0</ele>
<desc>Speed 15.9 km/h Distance 75.35 km</desc>
<time>2011-05-22T13:37:50.52</time>
<name>16952</name>
<sym>Dot</sym>
</trkpt>
<trkpt lat="39.654553" lon="-8.687580">
<ele>432.0</ele>
<desc>Speed 15.9 km/h Distance 75.36 km</desc>
<time>2011-05-22T13:37:51.52</time>
<name>16953</name>
<sym>Dot</sym>
</trkpt>
<trkpt lat="39.654513" lon="-8.687572">
<ele>432.0</ele>
<desc>Speed 16.0 km/h Distance 75.36 km</desc>
<time>2011-05-22T13:37:52.52</time>
<name>16954</name>
<sym>Dot</sym>
</trkpt>
<trkpt lat="39.654473" lon="-8.687565">
<ele>432.0</ele>
<desc>Speed 16.2 km/h Distance 75.37 km</desc>
<time>2011-05-22T13:37:53.52</time>
<name>16955</name>
<sym>Dot</sym>
</trkpt>
<trkpt lat="39.654433" lon="-8.687557">
<ele>432.5</ele>
<desc>Speed 16.3 km/h Distance 75.37 km</desc>
<time>2011-05-22T13:37:54.52</time>
<name>16956</name>
<sym>Dot</sym>
</trkpt>
<trkpt lat="39.654393" lon="-8.687548">
<ele>432.5</ele>
<desc>Speed 16.2 km/h Distance 75.38 km</desc>
<time>2011-05-22T13:37:55.52</time>
<name>16957</name>
<sym>Dot</sym>
</trkpt>
<trkpt lat="39.654353" lon="-8.687542">
<ele>432.5</ele>
<desc>Speed 16.2 km/h Distance 75.38 km</desc>
<time>2011-05-22T13:37:56.52</time>
<name>16958</name>
<sym>Dot</sym>
</trkpt>
<trkpt lat="39.654313" lon="-8.687535">
<ele>432.5</ele>
<desc>Speed 16.1 km/h Distance 75.39 km</desc>
<time>2011-05-22T13:37:57.52</time>
<name>16959</name>
<sym>Dot</sym>
</trkpt>
<trkpt lat="39.654273" lon="-8.687527">
<ele>432.5</ele>
<desc>Speed 16.4 km/h Distance 75.39 km</desc>
<time>2011-05-22T13:37:58.52</time>
<name>16960</name>
<sym>Dot</sym>
</trkpt>
<trkpt lat="39.654232" lon="-8.687522">
<ele>432.5</ele>
<desc>Speed 16.6 km/h Distance 75.39 km</desc>
<time>2011-05-22T13:37:59.52</time>
<name>16961</name>
<sym>Dot</sym>
</trkpt>
<trkpt lat="39.654190" lon="-8.687515">
<ele>433.0</ele>
<desc>Speed 16.8 km/h Distance 75.40 km</desc>
<time>2011-05-22T13:38:00.52</time>
<name>16962</name>
<sym>Dot</sym>
</trkpt>
<trkpt lat="39.654150" lon="-8.687507">
<ele>433.0</ele>
<desc>Speed 16.7 km/h Distance 75.40 km</desc>
<time>2011-05-22T13:38:01.52</time>
<name>16963</name>
<sym>Dot</sym>
</trkpt>
<trkpt lat="39.654108" lon="-8.687498">
<ele>433.0</ele>
<desc>Speed 16.5 km/h Distance 75.41 km</desc>
<time>2011-05-22T13:38:02.52</time>
<name>16964</name>
<sym>Dot</sym>
</trkpt>
<trkpt lat="39.654068" lon="-8.687488">
<ele>433.5</ele>
<desc>Speed 16.7 km/h Distance 75.41 km</desc>
<time>2011-05-22T13:38:03.52</time>
<name>16965</name>
<sym>Dot</sym>
</trkpt>
<trkpt lat="39.654027" lon="-8.687482">
<ele>433.5</ele>
<desc>Speed 16.5 km/h Distance 75.42 km</desc>
<time>2011-05-22T13:38:04.52</time>
<name>16966</name>
<sym>Dot</sym>
</trkpt>
<trkpt lat="39.653990" lon="-8.687475">
<ele>433.5</ele>
<desc>Speed 14.9 km/h Distance 75.42 km</desc>
<time>2011-05-22T13:38:05.52</time>
<name>16967</name>
<sym>Dot</sym>
</trkpt>
<trkpt lat="39.653948" lon="-8.687467">
<ele>433.5</ele>
<desc>Speed 17.0 km/h Distance 75.43 km</desc>
<time>2011-05-22T13:38:06.52</time>
<name>16968</name>
<sym>Dot</sym>
</trkpt>
<trkpt lat="39.653907" lon="-8.687457">
<ele>433.5</ele>
<desc>Speed 17.1 km/h Distance 75.43 km</desc>
<time>2011-05-22T13:38:07.52</time>
<name>16969</name>
<sym>Dot</sym>
</trkpt>
<trkpt lat="39.653865" lon="-8.687450">
<ele>433.5</ele>
<desc>Speed 16.7 km/h Distance 75.44 km</desc>
<time>2011-05-22T13:38:08.52</time>
<name>16970</name>
<sym>Dot</sym>
</trkpt>
<trkpt lat="39.653823" lon="-8.687442">
<ele>433.5</ele>
<desc>Speed 16.8 km/h Distance 75.44 km</desc>
<time>2011-05-22T13:38:09.52</time>
<name>16971</name>
<sym>Dot</sym>
</trkpt>
<trkpt lat="39.653782" lon="-8.687433">
<ele>434.0</ele>
<desc>Speed 17.0 km/h Distance 75.45 km</desc>
<time>2011-05-22T13:38:10.52</time>
<name>16972</name>
<sym>Dot</sym>
</trkpt>
<trkpt lat="39.653738" lon="-8.687425">
<ele>434.0</ele>
<desc>Speed 17.0 km/h Distance 75.45 km</desc>
<time>2011-05-22T13:38:11.52</time>
<name>16973</name>
<sym>Dot</sym>
</trkpt>
<trkpt lat="39.653697" lon="-8.687418">
<ele>434.0</ele>
<desc>Speed 17.1 km/h Distance 75.45 km</desc>
<time>2011-05-22T13:38:12.52</time>
<name>16974</name>
<sym>Dot</sym>
</trkpt>
<trkpt lat="39.653657" lon="-8.687410">
<ele>434.0</ele>
<desc>Speed 16.6 km/h Distance 75.46 km</desc>
<time>2011-05-22T13:38:13.52</time>
<name>16975</name>
<sym>Dot</sym>
</trkpt>
<trkpt lat="39.653615" lon="-8.687400">
<ele>434.0</ele>
<desc>Speed 16.5 km/h Distance 75.46 km</desc>
<time>2011-05-22T13:38:14.52</time>
<name>16976</name>
<sym>Dot</sym>
</trkpt>
<trkpt lat="39.653573" lon="-8.687393">
<ele>434.0</ele>
<desc>Speed 16.8 km/h Distance 75.47 km</desc>
<time>2011-05-22T13:38:15.52</time>
<name>16977</name>
<sym>Dot</sym>
</trkpt>
<trkpt lat="39.653532" lon="-8.687387">
<ele>434.0</ele>
<desc>Speed 16.7 km/h Distance 75.47 km</desc>
<time>2011-05-22T13:38:16.52</time>
<name>16978</name>
<sym>Dot</sym>
</trkpt>
<trkpt lat="39.653490" lon="-8.687382">
<ele>434.0</ele>
<desc>Speed 16.8 km/h Distance 75.48 km</desc>
<time>2011-05-22T13:38:17.52</time>
<name>16979</name>
<sym>Dot</sym>
</trkpt>
<trkpt lat="39.653448" lon="-8.687373">
<ele>434.5</ele>
<desc>Speed 16.6 km/h Distance 75.48 km</desc>
<time>2011-05-22T13:38:18.52</time>
<name>16980</name>
<sym>Dot</sym>
</trkpt>
<trkpt lat="39.653408" lon="-8.687367">
<ele>434.5</ele>
<desc>Speed 16.2 km/h Distance 75.49 km</desc>
<time>2011-05-22T13:38:19.52</time>
<name>16981</name>
<sym>Dot</sym>
</trkpt>
<trkpt lat="39.653368" lon="-8.687358">
<ele>434.5</ele>
<desc>Speed 16.4 km/h Distance 75.49 km</desc>
<time>2011-05-22T13:38:20.52</time>
<name>16982</name>
<sym>Dot</sym>
</trkpt>
<trkpt lat="39.653328" lon="-8.687352">
<ele>434.5</ele>
<desc>Speed 16.2 km/h Distance 75.50 km</desc>
<time>2011-05-22T13:38:21.52</time>
<name>16983</name>
<sym>Dot</sym>
</trkpt>
<trkpt lat="39.653288" lon="-8.687343">
<ele>434.5</ele>
<desc>Speed 16.1 km/h Distance 75.50 km</desc>
<time>2011-05-22T13:38:22.52</time>
<name>16984</name>
<sym>Dot</sym>
</trkpt>
<trkpt lat="39.653250" lon="-8.687337">
<ele>434.5</ele>
<desc>Speed 15.8 km/h Distance 75.50 km</desc>
<time>2011-05-22T13:38:23.52</time>
<name>16985</name>
<sym>Dot</sym>
</trkpt>
<trkpt lat="39.653210" lon="-8.687327">
<ele>434.5</ele>
<desc>Speed 15.8 km/h Distance 75.51 km</desc>
<time>2011-05-22T13:38:24.52</time>
<name>16986</name>
<sym>Dot</sym>
</trkpt>
<trkpt lat="39.653172" lon="-8.687320">
<ele>434.5</ele>
<desc>Speed 15.8 km/h Distance 75.51 km</desc>
<time>2011-05-22T13:38:25.52</time>
<name>16987</name>
<sym>Dot</sym>
</trkpt>
<trkpt lat="39.653132" lon="-8.687312">
<ele>434.5</ele>
<desc>Speed 15.9 km/h Distance 75.52 km</desc>
<time>2011-05-22T13:38:26.52</time>
<name>16988</name>
<sym>Dot</sym>
</trkpt>
<trkpt lat="39.653093" lon="-8.687305">
<ele>434.5</ele>
<desc>Speed 15.6 km/h Distance 75.52 km</desc>
<time>2011-05-22T13:38:27.52</time>
<name>16989</name>
<sym>Dot</sym>
</trkpt>
<trkpt lat="39.653057" lon="-8.687297">
<ele>434.5</ele>
<desc>Speed 15.2 km/h Distance 75.53 km</desc>
<time>2011-05-22T13:38:28.52</time>
<name>16990</name>
<sym>Dot</sym>
</trkpt>
<trkpt lat="39.653020" lon="-8.687290">
<ele>434.5</ele>
<desc>Speed 15.0 km/h Distance 75.53 km</desc>
<time>2011-05-22T13:38:29.52</time>
<name>16991</name>
<sym>Dot</sym>
</trkpt>
<trkpt lat="39.652983" lon="-8.687285">
<ele>434.5</ele>
<desc>Speed 14.7 km/h Distance 75.53 km</desc>
<time>2011-05-22T13:38:30.52</time>
<name>16992</name>
<sym>Dot</sym>
</trkpt>
<trkpt lat="39.652945" lon="-8.687277">
<ele>434.5</ele>
<desc>Speed 15.6 km/h Distance 75.54 km</desc>
<time>2011-05-22T13:38:31.52</time>
<name>16993</name>
<sym>Dot</sym>
</trkpt>
<trkpt lat="39.652905" lon="-8.687270">
<ele>434.5</ele>
<desc>Speed 15.9 km/h Distance 75.54 km</desc>
<time>2011-05-22T13:38:32.52</time>
<name>16994</name>
<sym>Dot</sym>
</trkpt>
<trkpt lat="39.652865" lon="-8.687262">
<ele>434.5</ele>
<desc>Speed 16.1 km/h Distance 75.55 km</desc>
<time>2011-05-22T13:38:33.52</time>
<name>16995</name>
<sym>Dot</sym>
</trkpt>
<trkpt lat="39.652827" lon="-8.687253">
<ele>434.5</ele>
<desc>Speed 16.1 km/h Distance 75.55 km</desc>
<time>2011-05-22T13:38:34.52</time>
<name>16996</name>
<sym>Dot</sym>
</trkpt>
<trkpt lat="39.652787" lon="-8.687245">
<ele>434.5</ele>
<desc>Speed 16.0 km/h Distance 75.56 km</desc>
<time>2011-05-22T13:38:35.52</time>
<name>16997</name>
<sym>Dot</sym>
</trkpt>
<trkpt lat="39.652747" lon="-8.687238">
<ele>434.5</ele>
<desc>Speed 16.4 km/h Distance 75.56 km</desc>
<time>2011-05-22T13:38:36.52</time>
<name>16998</name>
<sym>Dot</sym>
</trkpt>
<trkpt lat="39.652705" lon="-8.687230">
<ele>434.5</ele>
<desc>Speed 16.5 km/h Distance 75.57 km</desc>
<time>2011-05-22T13:38:37.52</time>
<name>16999</name>
<sym>Dot</sym>
</trkpt>
<trkpt lat="39.652663" lon="-8.687220">
<ele>434.5</ele>
<desc>Speed 16.6 km/h Distance 75.57 km</desc>
<time>2011-05-22T13:38:38.52</time>
<name>17000</name>
<sym>Dot</sym>
</trkpt>
<trkpt lat="39.652623" lon="-8.687212">
<ele>434.5</ele>
<desc>Speed 16.5 km/h Distance 75.58 km</desc>
<time>2011-05-22T13:38:39.52</time>
<name>17001</name>
<sym>Dot</sym>
</trkpt>
<trkpt lat="39.652583" lon="-8.687205">
<ele>434.5</ele>
<desc>Speed 16.1 km/h Distance 75.58 km</desc>
<time>2011-05-22T13:38:40.52</time>
<name>17002</name>
<sym>Dot</sym>
</trkpt>
<trkpt lat="39.652545" lon="-8.687198">
<ele>434.5</ele>
<desc>Speed 15.6 km/h Distance 75.58 km</desc>
<time>2011-05-22T13:38:41.52</time>
<name>17003</name>
<sym>Dot</sym>
</trkpt>
<trkpt lat="39.652503" lon="-8.687192">
<ele>434.0</ele>
<desc>Speed 16.4 km/h Distance 75.59 km</desc>
<time>2011-05-22T13:38:42.52</time>
<name>17004</name>
<sym>Dot</sym>
</trkpt>
<trkpt lat="39.652463" lon="-8.687185">
<ele>434.5</ele>
<desc>Speed 16.7 km/h Distance 75.59 km</desc>
<time>2011-05-22T13:38:43.52</time>
<name>17005</name>
<sym>Dot</sym>
</trkpt>
<trkpt lat="39.652423" lon="-8.687177">
<ele>434.5</ele>
<desc>Speed 16.3 km/h Distance 75.60 km</desc>
<time>2011-05-22T13:38:44.52</time>
<name>17006</name>
<sym>Dot</sym>
</trkpt>
<trkpt lat="39.652383" lon="-8.687168">
<ele>434.5</ele>
<desc>Speed 16.1 km/h Distance 75.60 km</desc>
<time>2011-05-22T13:38:45.52</time>
<name>17007</name>
<sym>Dot</sym>
</trkpt>
<trkpt lat="39.652343" lon="-8.687160">
<ele>434.5</ele>
<desc>Speed 16.1 km/h Distance 75.61 km</desc>
<time>2011-05-22T13:38:46.52</time>
<name>17008</name>
<sym>Dot</sym>
</trkpt>
<trkpt lat="39.652305" lon="-8.687152">
<ele>434.5</ele>
<desc>Speed 15.8 km/h Distance 75.61 km</desc>
<time>2011-05-22T13:38:47.52</time>
<name>17009</name>
<sym>Dot</sym>
</trkpt>
<trkpt lat="39.652265" lon="-8.687143">
<ele>435.0</ele>
<desc>Speed 16.1 km/h Distance 75.62 km</desc>
<time>2011-05-22T13:38:48.52</time>
<name>17010</name>
<sym>Dot</sym>
</trkpt>
<trkpt lat="39.652227" lon="-8.687135">
<ele>435.0</ele>
<desc>Speed 16.0 km/h Distance 75.62 km</desc>
<time>2011-05-22T13:38:49.52</time>
<name>17011</name>
<sym>Dot</sym>
</trkpt>
<trkpt lat="39.652187" lon="-8.687128">
<ele>435.0</ele>
<desc>Speed 16.3 km/h Distance 75.62 km</desc>
<time>2011-05-22T13:38:50.52</time>
<name>17012</name>
<sym>Dot</sym>
</trkpt>
<trkpt lat="39.652147" lon="-8.687120">
<ele>435.0</ele>
<desc>Speed 16.1 km/h Distance 75.63 km</desc>
<time>2011-05-22T13:38:51.52</time>
<name>17013</name>
<sym>Dot</sym>
</trkpt>
<trkpt lat="39.652107" lon="-8.687110">
<ele>435.0</ele>
<desc>Speed 16.2 km/h Distance 75.63 km</desc>
<time>2011-05-22T13:38:52.52</time>
<name>17014</name>
<sym>Dot</sym>
</trkpt>
<trkpt lat="39.652067" lon="-8.687102">
<ele>435.0</ele>
<desc>Speed 16.4 km/h Distance 75.64 km</desc>
<time>2011-05-22T13:38:53.52</time>
<name>17015</name>
<sym>Dot</sym>
</trkpt>
<trkpt lat="39.652027" lon="-8.687095">
<ele>435.5</ele>
<desc>Speed 16.1 km/h Distance 75.64 km</desc>
<time>2011-05-22T13:38:54.52</time>
<name>17016</name>
<sym>Dot</sym>
</trkpt>
<trkpt lat="39.651987" lon="-8.687087">
<ele>435.5</ele>
<desc>Speed 16.1 km/h Distance 75.65 km</desc>
<time>2011-05-22T13:38:55.52</time>
<name>17017</name>
<sym>Dot</sym>
</trkpt>
<trkpt lat="39.651947" lon="-8.687082">
<ele>435.5</ele>
<desc>Speed 16.3 km/h Distance 75.65 km</desc>
<time>2011-05-22T13:38:56.52</time>
<name>17018</name>
<sym>Dot</sym>
</trkpt>
<trkpt lat="39.651907" lon="-8.687073">
<ele>435.5</ele>
<desc>Speed 16.2 km/h Distance 75.66 km</desc>
<time>2011-05-22T13:38:57.52</time>
<name>17019</name>
<sym>Dot</sym>
</trkpt>
<trkpt lat="39.651867" lon="-8.687067">
<ele>436.0</ele>
<desc>Speed 16.3 km/h Distance 75.66 km</desc>
<time>2011-05-22T13:38:58.52</time>
<name>17020</name>
<sym>Dot</sym>
</trkpt>
<trkpt lat="39.651827" lon="-8.687058">
<ele>435.5</ele>
<desc>Speed 16.2 km/h Distance 75.67 km</desc>
<time>2011-05-22T13:38:59.52</time>
<name>17021</name>
<sym>Dot</sym>
</trkpt>
<trkpt lat="39.651787" lon="-8.687052">
<ele>436.0</ele>
<desc>Speed 16.1 km/h Distance 75.67 km</desc>
<time>2011-05-22T13:39:00.52</time>
<name>17022</name>
<sym>Dot</sym>
</trkpt>
<trkpt lat="39.651747" lon="-8.687043">
<ele>436.0</ele>
<desc>Speed 16.5 km/h Distance 75.67 km</desc>
<time>2011-05-22T13:39:01.52</time>
<name>17023</name>
<sym>Dot</sym>
</trkpt>
<trkpt lat="39.651705" lon="-8.687037">
<ele>436.0</ele>
<desc>Speed 16.8 km/h Distance 75.68 km</desc>
<time>2011-05-22T13:39:02.52</time>
<name>17024</name>
<sym>Dot</sym>
</trkpt>
<trkpt lat="39.651663" lon="-8.687030">
<ele>436.0</ele>
<desc>Speed 16.5 km/h Distance 75.68 km</desc>
<time>2011-05-22T13:39:03.52</time>
<name>17025</name>
<sym>Dot</sym>
</trkpt>
<trkpt lat="39.651622" lon="-8.687022">
<ele>436.0</ele>
<desc>Speed 17.2 km/h Distance 75.69 km</desc>
<time>2011-05-22T13:39:04.52</time>
<name>17026</name>
<sym>Dot</sym>
</trkpt>
<trkpt lat="39.651582" lon="-8.687012">
<ele>436.0</ele>
<desc>Speed 16.5 km/h Distance 75.69 km</desc>
<time>2011-05-22T13:39:05.52</time>
<name>17027</name>
<sym>Dot</sym>
</trkpt>
<trkpt lat="39.651543" lon="-8.687003">
<ele>436.0</ele>
<desc>Speed 15.6 km/h Distance 75.70 km</desc>
<time>2011-05-22T13:39:06.52</time>
<name>17028</name>
<sym>Dot</sym>
</trkpt>
<trkpt lat="39.651503" lon="-8.687000">
<ele>435.5</ele>
<desc>Speed 15.6 km/h Distance 75.70 km</desc>
<time>2011-05-22T13:39:07.52</time>
<name>17029</name>
<sym>Dot</sym>
</trkpt>
<trkpt lat="39.651465" lon="-8.686995">
<ele>435.5</ele>
<desc>Speed 15.5 km/h Distance 75.71 km</desc>
<time>2011-05-22T13:39:08.52</time>
<name>17030</name>
<sym>Dot</sym>
</trkpt>
<trkpt lat="39.651428" lon="-8.686987">
<ele>435.5</ele>
<desc>Speed 15.2 km/h Distance 75.71 km</desc>
<time>2011-05-22T13:39:09.52</time>
<name>17031</name>
<sym>Dot</sym>
</trkpt>
<trkpt lat="39.651392" lon="-8.686978">
<ele>435.5</ele>
<desc>Speed 14.9 km/h Distance 75.71 km</desc>
<time>2011-05-22T13:39:10.52</time>
<name>17032</name>
<sym>Dot</sym>
</trkpt>
<trkpt lat="39.651353" lon="-8.686975">
<ele>435.5</ele>
<desc>Speed 15.4 km/h Distance 75.72 km</desc>
<time>2011-05-22T13:39:11.52</time>
<name>17033</name>
<sym>Dot</sym>
</trkpt>
<trkpt lat="39.651313" lon="-8.686970">
<ele>435.5</ele>
<desc>Speed 16.2 km/h Distance 75.72 km</desc>
<time>2011-05-22T13:39:12.52</time>
<name>17034</name>
<sym>Dot</sym>
</trkpt>
<trkpt lat="39.651273" lon="-8.686962">
<ele>435.0</ele>
<desc>Speed 16.7 km/h Distance 75.73 km</desc>
<time>2011-05-22T13:39:13.52</time>
<name>17035</name>
<sym>Dot</sym>
</trkpt>
<trkpt lat="39.651230" lon="-8.686950">
<ele>434.5</ele>
<desc>Speed 17.5 km/h Distance 75.73 km</desc>
<time>2011-05-22T13:39:14.52</time>
<name>17036</name>
<sym>Dot</sym>
</trkpt>
<trkpt lat="39.651185" lon="-8.686943">
<ele>434.0</ele>
<desc>Speed 18.0 km/h Distance 75.74 km</desc>
<time>2011-05-22T13:39:15.52</time>
<name>17037</name>
<sym>Dot</sym>
</trkpt>
<trkpt lat="39.651140" lon="-8.686933">
<ele>434.0</ele>
<desc>Speed 18.3 km/h Distance 75.74 km</desc>
<time>2011-05-22T13:39:16.52</time>
<name>17038</name>
<sym>Dot</sym>
</trkpt>
<trkpt lat="39.651095" lon="-8.686925">
<ele>434.0</ele>
<desc>Speed 18.4 km/h Distance 75.75 km</desc>
<time>2011-05-22T13:39:17.52</time>
<name>17039</name>
<sym>Dot</sym>
</trkpt>
<trkpt lat="39.651052" lon="-8.686915">
<ele>433.5</ele>
<desc>Speed 18.2 km/h Distance 75.75 km</desc>
<time>2011-05-22T13:39:18.52</time>
<name>17040</name>
<sym>Dot</sym>
</trkpt>
<trkpt lat="39.651007" lon="-8.686908">
<ele>433.5</ele>
<desc>Speed 18.3 km/h Distance 75.76 km</desc>
<time>2011-05-22T13:39:19.52</time>
<name>17041</name>
<sym>Dot</sym>
</trkpt>
<trkpt lat="39.650960" lon="-8.686900">
<ele>433.5</ele>
<desc>Speed 18.6 km/h Distance 75.76 km</desc>
<time>2011-05-22T13:39:20.52</time>
<name>17042</name>
<sym>Dot</sym>
</trkpt>
<trkpt lat="39.650917" lon="-8.686892">
<ele>433.5</ele>
<desc>Speed 18.1 km/h Distance 75.77 km</desc>
<time>2011-05-22T13:39:21.52</time>
<name>17043</name>
<sym>Dot</sym>
</trkpt>
<trkpt lat="39.650872" lon="-8.686883">
<ele>433.5</ele>
<desc>Speed 18.1 km/h Distance 75.77 km</desc>
<time>2011-05-22T13:39:22.52</time>
<name>17044</name>
<sym>Dot</sym>
</trkpt>
<trkpt lat="39.650825" lon="-8.686875">
<ele>433.5</ele>
<desc>Speed 18.6 km/h Distance 75.78 km</desc>
<time>2011-05-22T13:39:23.52</time>
<name>17045</name>
<sym>Dot</sym>
</trkpt>
<trkpt lat="39.650780" lon="-8.686865">
<ele>433.0</ele>
<desc>Speed 18.6 km/h Distance 75.78 km</desc>
<time>2011-05-22T13:39:24.52</time>
<name>17046</name>
<sym>Dot</sym>
</trkpt>
<trkpt lat="39.650733" lon="-8.686855">
<ele>433.0</ele>
<desc>Speed 18.9 km/h Distance 75.79 km</desc>
<time>2011-05-22T13:39:25.52</time>
<name>17047</name>
<sym>Dot</sym>
</trkpt>
<trkpt lat="39.650685" lon="-8.686848">
<ele>433.0</ele>
<desc>Speed 19.6 km/h Distance 75.79 km</desc>
<time>2011-05-22T13:39:26.52</time>
<name>17048</name>
<sym>Dot</sym>
</trkpt>
<trkpt lat="39.650637" lon="-8.686842">
<ele>433.0</ele>
<desc>Speed 19.7 km/h Distance 75.80 km</desc>
<time>2011-05-22T13:39:27.52</time>
<name>17049</name>
<sym>Dot</sym>
</trkpt>
<trkpt lat="39.650587" lon="-8.686830">
<ele>433.0</ele>
<desc>Speed 20.1 km/h Distance 75.80 km</desc>
<time>2011-05-22T13:39:28.52</time>
<name>17050</name>
<sym>Dot</sym>
</trkpt>
<trkpt lat="39.650537" lon="-8.686820">
<ele>433.0</ele>
<desc>Speed 20.6 km/h Distance 75.81 km</desc>
<time>2011-05-22T13:39:29.52</time>
<name>17051</name>
<sym>Dot</sym>
</trkpt>
<trkpt lat="39.650485" lon="-8.686810">
<ele>432.5</ele>
<desc>Speed 21.0 km/h Distance 75.82 km</desc>
<time>2011-05-22T13:39:30.52</time>
<name>17052</name>
<sym>Dot</sym>
</trkpt>
<trkpt lat="39.650432" lon="-8.686800">
<ele>432.5</ele>
<desc>Speed 21.6 km/h Distance 75.82 km</desc>
<time>2011-05-22T13:39:31.52</time>
<name>17053</name>
<sym>Dot</sym>
</trkpt>
<trkpt lat="39.650377" lon="-8.686790">
<ele>432.5</ele>
<desc>Speed 22.2 km/h Distance 75.83 km</desc>
<time>2011-05-22T13:39:32.52</time>
<name>17054</name>
<sym>Dot</sym>
</trkpt>
<trkpt lat="39.650320" lon="-8.686778">
<ele>432.5</ele>
<desc>Speed 22.6 km/h Distance 75.83 km</desc>
<time>2011-05-22T13:39:33.52</time>
<name>17055</name>
<sym>Dot</sym>
</trkpt>
<trkpt lat="39.650263" lon="-8.686768">
<ele>432.5</ele>
<desc>Speed 23.1 km/h Distance 75.84 km</desc>
<time>2011-05-22T13:39:34.52</time>
<name>17056</name>
<sym>Dot</sym>
</trkpt>
<trkpt lat="39.650207" lon="-8.686758">
<ele>432.0</ele>
<desc>Speed 23.3 km/h Distance 75.85 km</desc>
<time>2011-05-22T13:39:35.52</time>
<name>17057</name>
<sym>Dot</sym>
</trkpt>
<trkpt lat="39.650148" lon="-8.686748">
<ele>432.0</ele>
<desc>Speed 23.9 km/h Distance 75.85 km</desc>
<time>2011-05-22T13:39:36.52</time>
<name>17058</name>
<sym>Dot</sym>
</trkpt>
<trkpt lat="39.650088" lon="-8.686738">
<ele>431.5</ele>
<desc>Speed 24.3 km/h Distance 75.86 km</desc>
<time>2011-05-22T13:39:37.52</time>
<name>17059</name>
<sym>Dot</sym>
</trkpt>
<trkpt lat="39.650027" lon="-8.686728">
<ele>431.5</ele>
<desc>Speed 25.1 km/h Distance 75.87 km</desc>
<time>2011-05-22T13:39:38.52</time>
<name>17060</name>
<sym>Dot</sym>
</trkpt>
<trkpt lat="39.649962" lon="-8.686718">
<ele>431.5</ele>
<desc>Speed 25.7 km/h Distance 75.87 km</desc>
<time>2011-05-22T13:39:39.52</time>
<name>17061</name>
<sym>Dot</sym>
</trkpt>
<trkpt lat="39.649898" lon="-8.686705">
<ele>431.0</ele>
<desc>Speed 26.4 km/h Distance 75.88 km</desc>
<time>2011-05-22T13:39:40.52</time>
<name>17062</name>
<sym>Dot</sym>
</trkpt>
<trkpt lat="39.649832" lon="-8.686693">
<ele>431.0</ele>
<desc>Speed 27.0 km/h Distance 75.89 km</desc>
<time>2011-05-22T13:39:41.52</time>
<name>17063</name>
<sym>Dot</sym>
</trkpt>
<trkpt lat="39.649763" lon="-8.686680">
<ele>430.5</ele>
<desc>Speed 27.7 km/h Distance 75.90 km</desc>
<time>2011-05-22T13:39:42.52</time>
<name>17064</name>
<sym>Dot</sym>
</trkpt>
<trkpt lat="39.649693" lon="-8.686668">
<ele>430.0</ele>
<desc>Speed 28.3 km/h Distance 75.90 km</desc>
<time>2011-05-22T13:39:43.52</time>
<name>17065</name>
<sym>Dot</sym>
</trkpt>
<trkpt lat="39.649622" lon="-8.686653">
<ele>430.0</ele>
<desc>Speed 28.9 km/h Distance 75.91 km</desc>
<time>2011-05-22T13:39:44.52</time>
<name>17066</name>
<sym>Dot</sym>
</trkpt>
<trkpt lat="39.649550" lon="-8.686640">
<ele>429.5</ele>
<desc>Speed 29.4 km/h Distance 75.92 km</desc>
<time>2011-05-22T13:39:45.52</time>
<name>17067</name>
<sym>Dot</sym>
</trkpt>
<trkpt lat="39.649475" lon="-8.686627">
<ele>429.5</ele>
<desc>Speed 30.2 km/h Distance 75.93 km</desc>
<time>2011-05-22T13:39:46.52</time>
<name>17068</name>
<sym>Dot</sym>
</trkpt>
<trkpt lat="39.649398" lon="-8.686612">
<ele>429.0</ele>
<desc>Speed 30.9 km/h Distance 75.94 km</desc>
<time>2011-05-22T13:39:47.52</time>
<name>17069</name>
<sym>Dot</sym>
</trkpt>
<trkpt lat="39.649322" lon="-8.686598">
<ele>429.0</ele>
<desc>Speed 31.4 km/h Distance 75.95 km</desc>
<time>2011-05-22T13:39:48.52</time>
<name>17070</name>
<sym>Dot</sym>
</trkpt>
<trkpt lat="39.649242" lon="-8.686585">
<ele>428.5</ele>
<desc>Speed 32.0 km/h Distance 75.96 km</desc>
<time>2011-05-22T13:39:49.52</time>
<name>17071</name>
<sym>Dot</sym>
</trkpt>
<trkpt lat="39.649162" lon="-8.686570">
<ele>428.0</ele>
<desc>Speed 32.5 km/h Distance 75.96 km</desc>
<time>2011-05-22T13:39:50.52</time>
<name>17072</name>
<sym>Dot</sym>
</trkpt>
<trkpt lat="39.649082" lon="-8.686555">
<ele>428.0</ele>
<desc>Speed 32.8 km/h Distance 75.97 km</desc>
<time>2011-05-22T13:39:51.52</time>
<name>17073</name>
<sym>Dot</sym>
</trkpt>
<trkpt lat="39.648998" lon="-8.686542">
<ele>427.5</ele>
<desc>Speed 33.3 km/h Distance 75.98 km</desc>
<time>2011-05-22T13:39:52.52</time>
<name>17074</name>
<sym>Dot</sym>
</trkpt>
<trkpt lat="39.648915" lon="-8.686527">
<ele>427.0</ele>
<desc>Speed 33.6 km/h Distance 75.99 km</desc>
<time>2011-05-22T13:39:53.52</time>
<name>17075</name>
<sym>Dot</sym>
</trkpt>
<trkpt lat="39.648832" lon="-8.686510">
<ele>427.0</ele>
<desc>Speed 33.8 km/h Distance 76.00 km</desc>
<time>2011-05-22T13:39:54.52</time>
<name>17076</name>
<sym>Dot</sym>
</trkpt>
<trkpt lat="39.648747" lon="-8.686495">
<ele>426.5</ele>
<desc>Speed 34.1 km/h Distance 76.01 km</desc>
<time>2011-05-22T13:39:55.52</time>
<name>17077</name>
<sym>Dot</sym>
</trkpt>
<trkpt lat="39.648662" lon="-8.686478">
<ele>426.0</ele>
<desc>Speed 34.4 km/h Distance 76.02 km</desc>
<time>2011-05-22T13:39:56.52</time>
<name>17078</name>
<sym>Dot</sym>
</trkpt>
<trkpt lat="39.648577" lon="-8.686463">
<ele>426.0</ele>
<desc>Speed 34.7 km/h Distance 76.03 km</desc>
<time>2011-05-22T13:39:57.52</time>
<name>17079</name>
<sym>Dot</sym>
</trkpt>
<trkpt lat="39.648490" lon="-8.686447">
<ele>425.5</ele>
<desc>Speed 35.0 km/h Distance 76.04 km</desc>
<time>2011-05-22T13:39:58.52</time>
<name>17080</name>
<sym>Dot</sym>
</trkpt>
<trkpt lat="39.648403" lon="-8.686430">
<ele>425.0</ele>
<desc>Speed 35.0 km/h Distance 76.05 km</desc>
<time>2011-05-22T13:39:59.52</time>
<name>17081</name>
<sym>Dot</sym>
</trkpt>
<trkpt lat="39.648317" lon="-8.686415">
<ele>425.0</ele>
<desc>Speed 35.2 km/h Distance 76.06 km</desc>
<time>2011-05-22T13:40:00.52</time>
<name>17082</name>
<sym>Dot</sym>
</trkpt>
<trkpt lat="39.648230" lon="-8.686398">
<ele>424.5</ele>
<desc>Speed 35.0 km/h Distance 76.07 km</desc>
<time>2011-05-22T13:40:01.52</time>
<name>17083</name>
<sym>Dot</sym>
</trkpt>
<trkpt lat="39.648143" lon="-8.686382">
<ele>424.0</ele>
<desc>Speed 35.2 km/h Distance 76.08 km</desc>
<time>2011-05-22T13:40:02.52</time>
<name>17084</name>
<sym>Dot</sym>
</trkpt>
<trkpt lat="39.648057" lon="-8.686367">
<ele>424.0</ele>
<desc>Speed 35.2 km/h Distance 76.09 km</desc>
<time>2011-05-22T13:40:03.52</time>
<name>17085</name>
<sym>Dot</sym>
</trkpt>
<trkpt lat="39.647972" lon="-8.686350">
<ele>424.0</ele>
<desc>Speed 35.0 km/h Distance 76.10 km</desc>
<time>2011-05-22T13:40:04.52</time>
<name>17086</name>
<sym>Dot</sym>
</trkpt>
<trkpt lat="39.647887" lon="-8.686333">
<ele>424.0</ele>
<desc>Speed 34.6 km/h Distance 76.11 km</desc>
<time>2011-05-22T13:40:05.52</time>
<name>17087</name>
<sym>Dot</sym>
</trkpt>
<trkpt lat="39.647802" lon="-8.686320">
<ele>424.0</ele>
<desc>Speed 34.3 km/h Distance 76.12 km</desc>
<time>2011-05-22T13:40:06.52</time>
<name>17088</name>
<sym>Dot</sym>
</trkpt>
<trkpt lat="39.647718" lon="-8.686307">
<ele>424.0</ele>
<desc>Speed 33.8 km/h Distance 76.13 km</desc>
<time>2011-05-22T13:40:07.52</time>
<name>17089</name>
<sym>Dot</sym>
</trkpt>
<trkpt lat="39.647635" lon="-8.686292">
<ele>424.0</ele>
<desc>Speed 33.2 km/h Distance 76.14 km</desc>
<time>2011-05-22T13:40:08.52</time>
<name>17090</name>
<sym>Dot</sym>
</trkpt>
<trkpt lat="39.647555" lon="-8.686275">
<ele>424.0</ele>
<desc>Speed 32.6 km/h Distance 76.15 km</desc>
<time>2011-05-22T13:40:09.52</time>
<name>17091</name>
<sym>Dot</sym>
</trkpt>
<trkpt lat="39.647477" lon="-8.686260">
<ele>423.5</ele>
<desc>Speed 31.8 km/h Distance 76.15 km</desc>
<time>2011-05-22T13:40:10.52</time>
<name>17092</name>
<sym>Dot</sym>
</trkpt>
<trkpt lat="39.647402" lon="-8.686247">
<ele>423.5</ele>
<desc>Speed 31.1 km/h Distance 76.16 km</desc>
<time>2011-05-22T13:40:11.52</time>
<name>17093</name>
<sym>Dot</sym>
</trkpt>
<trkpt lat="39.647328" lon="-8.686232">
<ele>423.0</ele>
<desc>Speed 29.7 km/h Distance 76.17 km</desc>
<time>2011-05-22T13:40:12.52</time>
<name>17094</name>
<sym>Dot</sym>
</trkpt>
<trkpt lat="39.647257" lon="-8.686220">
<ele>423.0</ele>
<desc>Speed 29.3 km/h Distance 76.18 km</desc>
<time>2011-05-22T13:40:13.52</time>
<name>17095</name>
<sym>Dot</sym>
</trkpt>
<trkpt lat="39.647187" lon="-8.686208">
<ele>423.0</ele>
<desc>Speed 28.4 km/h Distance 76.19 km</desc>
<time>2011-05-22T13:40:14.52</time>
<name>17096</name>
<sym>Dot</sym>
</trkpt>
<trkpt lat="39.647120" lon="-8.686195">
<ele>423.0</ele>
<desc>Speed 27.5 km/h Distance 76.19 km</desc>
<time>2011-05-22T13:40:15.52</time>
<name>17097</name>
<sym>Dot</sym>
</trkpt>
<trkpt lat="39.647053" lon="-8.686183">
<ele>423.0</ele>
<desc>Speed 26.7 km/h Distance 76.20 km</desc>
<time>2011-05-22T13:40:16.52</time>
<name>17098</name>
<sym>Dot</sym>
</trkpt>
<trkpt lat="39.646990" lon="-8.686173">
<ele>423.0</ele>
<desc>Speed 25.8 km/h Distance 76.21 km</desc>
<time>2011-05-22T13:40:17.52</time>
<name>17099</name>
<sym>Dot</sym>
</trkpt>
<trkpt lat="39.646930" lon="-8.686165">
<ele>423.0</ele>
<desc>Speed 24.6 km/h Distance 76.22 km</desc>
<time>2011-05-22T13:40:18.52</time>
<name>17100</name>
<sym>Dot</sym>
</trkpt>
<trkpt lat="39.646870" lon="-8.686153">
<ele>423.0</ele>
<desc>Speed 25.0 km/h Distance 76.22 km</desc>
<time>2011-05-22T13:40:19.52</time>
<name>17101</name>
<sym>Dot</sym>
</trkpt>
<trkpt lat="39.646810" lon="-8.686143">
<ele>423.0</ele>
<desc>Speed 24.3 km/h Distance 76.23 km</desc>
<time>2011-05-22T13:40:20.52</time>
<name>17102</name>
<sym>Dot</sym>
</trkpt>
<trkpt lat="39.646752" lon="-8.686133">
<ele>423.5</ele>
<desc>Speed 23.3 km/h Distance 76.24 km</desc>
<time>2011-05-22T13:40:21.52</time>
<name>17103</name>
<sym>Dot</sym>
</trkpt>
<trkpt lat="39.646698" lon="-8.686125">
<ele>423.5</ele>
<desc>Speed 22.0 km/h Distance 76.24 km</desc>
<time>2011-05-22T13:40:22.52</time>
<name>17104</name>
<sym>Dot</sym>
</trkpt>
<trkpt lat="39.646643" lon="-8.686115">
<ele>423.5</ele>
<desc>Speed 21.9 km/h Distance 76.25 km</desc>
<time>2011-05-22T13:40:23.52</time>
<name>17105</name>
<sym>Dot</sym>
</trkpt>
<trkpt lat="39.646597" lon="-8.686107">
<ele>423.5</ele>
<desc>Speed 18.8 km/h Distance 76.25 km</desc>
<time>2011-05-22T13:40:24.52</time>
<name>17106</name>
<sym>Dot</sym>
</trkpt>
<trkpt lat="39.646545" lon="-8.686095">
<ele>423.5</ele>
<desc>Speed 21.4 km/h Distance 76.26 km</desc>
<time>2011-05-22T13:40:25.52</time>
<name>17107</name>
<sym>Dot</sym>
</trkpt>
<trkpt lat="39.646502" lon="-8.686088">
<ele>423.5</ele>
<desc>Speed 17.3 km/h Distance 76.26 km</desc>
<time>2011-05-22T13:40:26.52</time>
<name>17108</name>
<sym>Dot</sym>
</trkpt>
<trkpt lat="39.646455" lon="-8.686082">
<ele>424.0</ele>
<desc>Speed 19.1 km/h Distance 76.27 km</desc>
<time>2011-05-22T13:40:27.52</time>
<name>17109</name>
<sym>Dot</sym>
</trkpt>
<trkpt lat="39.646408" lon="-8.686073">
<ele>423.5</ele>
<desc>Speed 18.8 km/h Distance 76.27 km</desc>
<time>2011-05-22T13:40:28.52</time>
<name>17110</name>
<sym>Dot</sym>
</trkpt>
<trkpt lat="39.646363" lon="-8.686063">
<ele>423.5</ele>
<desc>Speed 18.2 km/h Distance 76.28 km</desc>
<time>2011-05-22T13:40:29.52</time>
<name>17111</name>
<sym>Dot</sym>
</trkpt>
<trkpt lat="39.646320" lon="-8.686053">
<ele>424.0</ele>
<desc>Speed 18.0 km/h Distance 76.28 km</desc>
<time>2011-05-22T13:40:30.52</time>
<name>17112</name>
<sym>Dot</sym>
</trkpt>
<trkpt lat="39.646277" lon="-8.686047">
<ele>424.0</ele>
<desc>Speed 17.6 km/h Distance 76.29 km</desc>
<time>2011-05-22T13:40:31.52</time>
<name>17113</name>
<sym>Dot</sym>
</trkpt>
<trkpt lat="39.646233" lon="-8.686040">
<ele>424.0</ele>
<desc>Speed 17.0 km/h Distance 76.29 km</desc>
<time>2011-05-22T13:40:32.52</time>
<name>17114</name>
<sym>Dot</sym>
</trkpt>
<trkpt lat="39.646193" lon="-8.686032">
<ele>424.0</ele>
<desc>Speed 16.5 km/h Distance 76.30 km</desc>
<time>2011-05-22T13:40:33.52</time>
<name>17115</name>
<sym>Dot</sym>
</trkpt>
<trkpt lat="39.646153" lon="-8.686023">
<ele>424.0</ele>
<desc>Speed 16.4 km/h Distance 76.30 km</desc>
<time>2011-05-22T13:40:34.52</time>
<name>17116</name>
<sym>Dot</sym>
</trkpt>
<trkpt lat="39.646113" lon="-8.686017">
<ele>424.0</ele>
<desc>Speed 16.1 km/h Distance 76.31 km</desc>
<time>2011-05-22T13:40:35.52</time>
<name>17117</name>
<sym>Dot</sym>
</trkpt>
<trkpt lat="39.646075" lon="-8.686010">
<ele>424.0</ele>
<desc>Speed 15.8 km/h Distance 76.31 km</desc>
<time>2011-05-22T13:40:36.52</time>
<name>17118</name>
<sym>Dot</sym>
</trkpt>
<trkpt lat="39.646038" lon="-8.686002">
<ele>424.5</ele>
<desc>Speed 15.4 km/h Distance 76.32 km</desc>
<time>2011-05-22T13:40:37.52</time>
<name>17119</name>
<sym>Dot</sym>
</trkpt>
<trkpt lat="39.646002" lon="-8.685995">
<ele>424.5</ele>
<desc>Speed 14.9 km/h Distance 76.32 km</desc>
<time>2011-05-22T13:40:38.52</time>
<name>17120</name>
<sym>Dot</sym>
</trkpt>
<trkpt lat="39.645965" lon="-8.685992">
<ele>424.5</ele>
<desc>Speed 14.7 km/h Distance 76.32 km</desc>
<time>2011-05-22T13:40:39.52</time>
<name>17121</name>
<sym>Dot</sym>
</trkpt>
<trkpt lat="39.645930" lon="-8.685987">
<ele>424.5</ele>
<desc>Speed 14.4 km/h Distance 76.33 km</desc>
<time>2011-05-22T13:40:40.52</time>
<name>17122</name>
<sym>Dot</sym>
</trkpt>
<trkpt lat="39.645895" lon="-8.685980">
<ele>424.5</ele>
<desc>Speed 14.1 km/h Distance 76.33 km</desc>
<time>2011-05-22T13:40:41.52</time>
<name>17123</name>
<sym>Dot</sym>
</trkpt>
<trkpt lat="39.645862" lon="-8.685973">
<ele>425.0</ele>
<desc>Speed 13.4 km/h Distance 76.34 km</desc>
<time>2011-05-22T13:40:42.52</time>
<name>17124</name>
<sym>Dot</sym>
</trkpt>
<trkpt lat="39.645832" lon="-8.685967">
<ele>425.0</ele>
<desc>Speed 12.8 km/h Distance 76.34 km</desc>
<time>2011-05-22T13:40:43.52</time>
<name>17125</name>
<sym>Dot</sym>
</trkpt>
<trkpt lat="39.645798" lon="-8.685960">
<ele>425.0</ele>
<desc>Speed 13.2 km/h Distance 76.34 km</desc>
<time>2011-05-22T13:40:44.52</time>
<name>17126</name>
<sym>Dot</sym>
</trkpt>
<trkpt lat="39.645767" lon="-8.685955">
<ele>425.0</ele>
<desc>Speed 12.5 km/h Distance 76.35 km</desc>
<time>2011-05-22T13:40:45.52</time>
<name>17127</name>
<sym>Dot</sym>
</trkpt>
<trkpt lat="39.645737" lon="-8.685948">
<ele>425.0</ele>
<desc>Speed 12.5 km/h Distance 76.35 km</desc>
<time>2011-05-22T13:40:46.52</time>
<name>17128</name>
<sym>Dot</sym>
</trkpt>
<trkpt lat="39.645705" lon="-8.685940">
<ele>425.5</ele>
<desc>Speed 13.4 km/h Distance 76.35 km</desc>
<time>2011-05-22T13:40:47.52</time>
<name>17129</name>
<sym>Dot</sym>
</trkpt>
<trkpt lat="39.645670" lon="-8.685933">
<ele>425.0</ele>
<desc>Speed 14.0 km/h Distance 76.36 km</desc>
<time>2011-05-22T13:40:48.52</time>
<name>17130</name>
<sym>Dot</sym>
</trkpt>
<trkpt lat="39.645635" lon="-8.685927">
<ele>425.0</ele>
<desc>Speed 14.1 km/h Distance 76.36 km</desc>
<time>2011-05-22T13:40:49.52</time>
<name>17131</name>
<sym>Dot</sym>
</trkpt>
<trkpt lat="39.645600" lon="-8.685918">
<ele>425.0</ele>
<desc>Speed 14.4 km/h Distance 76.37 km</desc>
<time>2011-05-22T13:40:50.52</time>
<name>17132</name>
<sym>Dot</sym>
</trkpt>
<trkpt lat="39.645562" lon="-8.685915">
<ele>425.5</ele>
<desc>Speed 15.0 km/h Distance 76.37 km</desc>
<time>2011-05-22T13:40:51.52</time>
<name>17133</name>
<sym>Dot</sym>
</trkpt>
<trkpt lat="39.645525" lon="-8.685907">
<ele>425.5</ele>
<desc>Speed 15.3 km/h Distance 76.37 km</desc>
<time>2011-05-22T13:40:52.52</time>
<name>17134</name>
<sym>Dot</sym>
</trkpt>
<trkpt lat="39.645487" lon="-8.685900">
<ele>425.0</ele>
<desc>Speed 15.5 km/h Distance 76.38 km</desc>
<time>2011-05-22T13:40:53.52</time>
<name>17135</name>
<sym>Dot</sym>
</trkpt>
<trkpt lat="39.645448" lon="-8.685892">
<ele>425.0</ele>
<desc>Speed 15.2 km/h Distance 76.38 km</desc>
<time>2011-05-22T13:40:54.52</time>
<name>17136</name>
<sym>Dot</sym>
</trkpt>
<trkpt lat="39.645410" lon="-8.685885">
<ele>425.0</ele>
<desc>Speed 15.1 km/h Distance 76.39 km</desc>
<time>2011-05-22T13:40:55.52</time>
<name>17137</name>
<sym>Dot</sym>
</trkpt>
<trkpt lat="39.645375" lon="-8.685877">
<ele>425.0</ele>
<desc>Speed 14.7 km/h Distance 76.39 km</desc>
<time>2011-05-22T13:40:56.52</time>
<name>17138</name>
<sym>Dot</sym>
</trkpt>
<trkpt lat="39.645338" lon="-8.685868">
<ele>425.0</ele>
<desc>Speed 14.8 km/h Distance 76.39 km</desc>
<time>2011-05-22T13:40:57.52</time>
<name>17139</name>
<sym>Dot</sym>
</trkpt>
<trkpt lat="39.645302" lon="-8.685860">
<ele>425.0</ele>
<desc>Speed 14.9 km/h Distance 76.40 km</desc>
<time>2011-05-22T13:40:58.52</time>
<name>17140</name>
<sym>Dot</sym>
</trkpt>
<trkpt lat="39.645265" lon="-8.685853">
<ele>425.0</ele>
<desc>Speed 14.6 km/h Distance 76.40 km</desc>
<time>2011-05-22T13:40:59.52</time>
<name>17141</name>
<sym>Dot</sym>
</trkpt>
<trkpt lat="39.645230" lon="-8.685847">
<ele>425.0</ele>
<desc>Speed 14.3 km/h Distance 76.41 km</desc>
<time>2011-05-22T13:41:00.52</time>
<name>17142</name>
<sym>Dot</sym>
</trkpt>
<trkpt lat="39.645195" lon="-8.685838">
<ele>424.5</ele>
<desc>Speed 14.5 km/h Distance 76.41 km</desc>
<time>2011-05-22T13:41:01.52</time>
<name>17143</name>
<sym>Dot</sym>
</trkpt>
<trkpt lat="39.645160" lon="-8.685833">
<ele>424.5</ele>
<desc>Speed 14.3 km/h Distance 76.41 km</desc>
<time>2011-05-22T13:41:02.52</time>
<name>17144</name>
<sym>Dot</sym>
</trkpt>
<trkpt lat="39.645128" lon="-8.685822">
<ele>423.0</ele>
<desc>Speed 13.1 km/h Distance 76.42 km</desc>
<time>2011-05-22T13:41:03.52</time>
<name>17145</name>
<sym>Dot</sym>
</trkpt>
<trkpt lat="39.645093" lon="-8.685817">
<ele>423.0</ele>
<desc>Speed 14.1 km/h Distance 76.42 km</desc>
<time>2011-05-22T13:41:04.52</time>
<name>17146</name>
<sym>Dot</sym>
</trkpt>
<trkpt lat="39.645060" lon="-8.685812">
<ele>423.0</ele>
<desc>Speed 14.0 km/h Distance 76.43 km</desc>
<time>2011-05-22T13:41:05.52</time>
<name>17147</name>
<sym>Dot</sym>
</trkpt>
<trkpt lat="39.645025" lon="-8.685803">
<ele>423.0</ele>
<desc>Speed 13.8 km/h Distance 76.43 km</desc>
<time>2011-05-22T13:41:06.52</time>
<name>17148</name>
<sym>Dot</sym>
</trkpt>
<trkpt lat="39.644992" lon="-8.685798">
<ele>422.5</ele>
<desc>Speed 13.8 km/h Distance 76.43 km</desc>
<time>2011-05-22T13:41:07.52</time>
<name>17149</name>
<sym>Dot</sym>
</trkpt>
<trkpt lat="39.644958" lon="-8.685792">
<ele>422.5</ele>
<desc>Speed 13.8 km/h Distance 76.44 km</desc>
<time>2011-05-22T13:41:08.52</time>
<name>17150</name>
<sym>Dot</sym>
</trkpt>
<trkpt lat="39.644925" lon="-8.685783">
<ele>422.5</ele>
<desc>Speed 14.0 km/h Distance 76.44 km</desc>
<time>2011-05-22T13:41:09.52</time>
<name>17151</name>
<sym>Dot</sym>
</trkpt>
<trkpt lat="39.644890" lon="-8.685778">
<ele>422.0</ele>
<desc>Speed 14.1 km/h Distance 76.45 km</desc>
<time>2011-05-22T13:41:10.52</time>
<name>17152</name>
<sym>Dot</sym>
</trkpt>
<trkpt lat="39.644857" lon="-8.685773">
<ele>422.0</ele>
<desc>Speed 14.0 km/h Distance 76.45 km</desc>
<time>2011-05-22T13:41:11.52</time>
<name>17153</name>
<sym>Dot</sym>
</trkpt>
<trkpt lat="39.644822" lon="-8.685768">
<ele>421.5</ele>
<desc>Speed 14.3 km/h Distance 76.45 km</desc>
<time>2011-05-22T13:41:12.52</time>
<name>17154</name>
<sym>Dot</sym>
</trkpt>
<trkpt lat="39.644788" lon="-8.685765">
<ele>421.5</ele>
<desc>Speed 14.3 km/h Distance 76.46 km</desc>
<time>2011-05-22T13:41:13.52</time>
<name>17155</name>
<sym>Dot</sym>
</trkpt>
<trkpt lat="39.644753" lon="-8.685758">
<ele>421.0</ele>
<desc>Speed 14.5 km/h Distance 76.46 km</desc>
<time>2011-05-22T13:41:14.52</time>
<name>17156</name>
<sym>Dot</sym>
</trkpt>
<trkpt lat="39.644717" lon="-8.685755">
<ele>421.0</ele>
<desc>Speed 14.4 km/h Distance 76.46 km</desc>
<time>2011-05-22T13:41:15.52</time>
<name>17157</name>
<sym>Dot</sym>
</trkpt>
<trkpt lat="39.644682" lon="-8.685750">
<ele>421.0</ele>
<desc>Speed 14.5 km/h Distance 76.47 km</desc>
<time>2011-05-22T13:41:16.52</time>
<name>17158</name>
<sym>Dot</sym>
</trkpt>
<trkpt lat="39.644647" lon="-8.685745">
<ele>421.0</ele>
<desc>Speed 14.7 km/h Distance 76.47 km</desc>
<time>2011-05-22T13:41:17.52</time>
<name>17159</name>
<sym>Dot</sym>
</trkpt>
<trkpt lat="39.644610" lon="-8.685737">
<ele>421.0</ele>
<desc>Speed 14.7 km/h Distance 76.48 km</desc>
<time>2011-05-22T13:41:18.52</time>
<name>17160</name>
<sym>Dot</sym>
</trkpt>
<trkpt lat="39.644573" lon="-8.685732">
<ele>421.0</ele>
<desc>Speed 15.0 km/h Distance 76.48 km</desc>
<time>2011-05-22T13:41:19.52</time>
<name>17161</name>
<sym>Dot</sym>
</trkpt>
<trkpt lat="39.644537" lon="-8.685727">
<ele>421.0</ele>
<desc>Speed 15.0 km/h Distance 76.48 km</desc>
<time>2011-05-22T13:41:20.52</time>
<name>17162</name>
<sym>Dot</sym>
</trkpt>
<trkpt lat="39.644498" lon="-8.685718">
<ele>420.5</ele>
<desc>Speed 15.1 km/h Distance 76.49 km</desc>
<time>2011-05-22T13:41:21.52</time>
<name>17163</name>
<sym>Dot</sym>
</trkpt>
<trkpt lat="39.644463" lon="-8.685710">
<ele>420.5</ele>
<desc>Speed 14.9 km/h Distance 76.49 km</desc>
<time>2011-05-22T13:41:22.52</time>
<name>17164</name>
<sym>Dot</sym>
</trkpt>
<trkpt lat="39.644427" lon="-8.685703">
<ele>420.5</ele>
<desc>Speed 14.9 km/h Distance 76.50 km</desc>
<time>2011-05-22T13:41:23.52</time>
<name>17165</name>
<sym>Dot</sym>
</trkpt>
<trkpt lat="39.644390" lon="-8.685698">
<ele>420.5</ele>
<desc>Speed 15.1 km/h Distance 76.50 km</desc>
<time>2011-05-22T13:41:24.52</time>
<name>17166</name>
<sym>Dot</sym>
</trkpt>
<trkpt lat="39.644353" lon="-8.685692">
<ele>420.0</ele>
<desc>Speed 14.7 km/h Distance 76.51 km</desc>
<time>2011-05-22T13:41:25.52</time>
<name>17167</name>
<sym>Dot</sym>
</trkpt>
<trkpt lat="39.644317" lon="-8.685683">
<ele>420.5</ele>
<desc>Speed 15.2 km/h Distance 76.51 km</desc>
<time>2011-05-22T13:41:26.52</time>
<name>17168</name>
<sym>Dot</sym>
</trkpt>
<trkpt lat="39.644278" lon="-8.685677">
<ele>420.0</ele>
<desc>Speed 15.8 km/h Distance 76.51 km</desc>
<time>2011-05-22T13:41:27.52</time>
<name>17169</name>
<sym>Dot</sym>
</trkpt>
<trkpt lat="39.644237" lon="-8.685670">
<ele>420.5</ele>
<desc>Speed 16.5 km/h Distance 76.52 km</desc>
<time>2011-05-22T13:41:28.52</time>
<name>17170</name>
<sym>Dot</sym>
</trkpt>
<trkpt lat="39.644197" lon="-8.685663">
<ele>420.0</ele>
<desc>Speed 16.5 km/h Distance 76.52 km</desc>
<time>2011-05-22T13:41:29.52</time>
<name>17171</name>
<sym>Dot</sym>
</trkpt>
<trkpt lat="39.644155" lon="-8.685655">
<ele>420.0</ele>
<desc>Speed 16.5 km/h Distance 76.53 km</desc>
<time>2011-05-22T13:41:30.52</time>
<name>17172</name>
<sym>Dot</sym>
</trkpt>
<trkpt lat="39.644115" lon="-8.685645">
<ele>420.0</ele>
<desc>Speed 16.2 km/h Distance 76.53 km</desc>
<time>2011-05-22T13:41:31.52</time>
<name>17173</name>
<sym>Dot</sym>
</trkpt>
<trkpt lat="39.644077" lon="-8.685637">
<ele>420.0</ele>
<desc>Speed 15.6 km/h Distance 76.54 km</desc>
<time>2011-05-22T13:41:32.52</time>
<name>17174</name>
<sym>Dot</sym>
</trkpt>
<trkpt lat="39.644037" lon="-8.685627">
<ele>419.5</ele>
<desc>Speed 16.3 km/h Distance 76.54 km</desc>
<time>2011-05-22T13:41:33.52</time>
<name>17175</name>
<sym>Dot</sym>
</trkpt>
<trkpt lat="39.643998" lon="-8.685615">
<ele>420.0</ele>
<desc>Speed 15.9 km/h Distance 76.55 km</desc>
<time>2011-05-22T13:41:34.52</time>
<name>17176</name>
<sym>Dot</sym>
</trkpt>
<trkpt lat="39.643958" lon="-8.685605">
<ele>420.0</ele>
<desc>Speed 16.0 km/h Distance 76.55 km</desc>
<time>2011-05-22T13:41:35.52</time>
<name>17177</name>
<sym>Dot</sym>
</trkpt>
<trkpt lat="39.643920" lon="-8.685597">
<ele>420.0</ele>
<desc>Speed 15.9 km/h Distance 76.55 km</desc>
<time>2011-05-22T13:41:36.52</time>
<name>17178</name>
<sym>Dot</sym>
</trkpt>
<trkpt lat="39.643882" lon="-8.685590">
<ele>419.5</ele>
<desc>Speed 15.4 km/h Distance 76.56 km</desc>
<time>2011-05-22T13:41:37.52</time>
<name>17179</name>
<sym>Dot</sym>
</trkpt>
<trkpt lat="39.643842" lon="-8.685585">
<ele>419.5</ele>
<desc>Speed 16.0 km/h Distance 76.56 km</desc>
<time>2011-05-22T13:41:38.52</time>
<name>17180</name>
<sym>Dot</sym>
</trkpt>
<trkpt lat="39.643802" lon="-8.685575">
<ele>419.5</ele>
<desc>Speed 16.2 km/h Distance 76.57 km</desc>
<time>2011-05-22T13:41:39.52</time>
<name>17181</name>
<sym>Dot</sym>
</trkpt>
<trkpt lat="39.643762" lon="-8.685565">
<ele>420.0</ele>
<desc>Speed 16.1 km/h Distance 76.57 km</desc>
<time>2011-05-22T13:41:40.52</time>
<name>17182</name>
<sym>Dot</sym>
</trkpt>
<trkpt lat="39.643718" lon="-8.685555">
<ele>420.5</ele>
<desc>Speed 17.2 km/h Distance 76.58 km</desc>
<time>2011-05-22T13:41:41.52</time>
<name>17183</name>
<sym>Dot</sym>
</trkpt>
<trkpt lat="39.643675" lon="-8.685545">
<ele>421.0</ele>
<desc>Speed 17.9 km/h Distance 76.58 km</desc>
<time>2011-05-22T13:41:42.52</time>
<name>17184</name>
<sym>Dot</sym>
</trkpt>
<trkpt lat="39.643628" lon="-8.685537">
<ele>421.0</ele>
<desc>Speed 19.1 km/h Distance 76.59 km</desc>
<time>2011-05-22T13:41:43.52</time>
<name>17185</name>
<sym>Dot</sym>
</trkpt>
<trkpt lat="39.643578" lon="-8.685528">
<ele>421.0</ele>
<desc>Speed 19.8 km/h Distance 76.59 km</desc>
<time>2011-05-22T13:41:44.52</time>
<name>17186</name>
<sym>Dot</sym>
</trkpt>
<trkpt lat="39.643528" lon="-8.685520">
<ele>421.0</ele>
<desc>Speed 20.8 km/h Distance 76.60 km</desc>
<time>2011-05-22T13:41:45.52</time>
<name>17187</name>
<sym>Dot</sym>
</trkpt>
<trkpt lat="39.643477" lon="-8.685512">
<ele>421.0</ele>
<desc>Speed 20.6 km/h Distance 76.60 km</desc>
<time>2011-05-22T13:41:46.52</time>
<name>17188</name>
<sym>Dot</sym>
</trkpt>
<trkpt lat="39.643427" lon="-8.685500">
<ele>421.0</ele>
<desc>Speed 20.2 km/h Distance 76.61 km</desc>
<time>2011-05-22T13:41:47.52</time>
<name>17189</name>
<sym>Dot</sym>
</trkpt>
<trkpt lat="39.643378" lon="-8.685490">
<ele>421.5</ele>
<desc>Speed 20.2 km/h Distance 76.62 km</desc>
<time>2011-05-22T13:41:48.52</time>
<name>17190</name>
<sym>Dot</sym>
</trkpt>
<trkpt lat="39.643328" lon="-8.685483">
<ele>421.5</ele>
<desc>Speed 19.8 km/h Distance 76.62 km</desc>
<time>2011-05-22T13:41:49.52</time>
<name>17191</name>
<sym>Dot</sym>
</trkpt>
<trkpt lat="39.643278" lon="-8.685473">
<ele>422.0</ele>
<desc>Speed 20.2 km/h Distance 76.63 km</desc>
<time>2011-05-22T13:41:50.52</time>
<name>17192</name>
<sym>Dot</sym>
</trkpt>
<trkpt lat="39.643230" lon="-8.685463">
<ele>422.0</ele>
<desc>Speed 19.7 km/h Distance 76.63 km</desc>
<time>2011-05-22T13:41:51.52</time>
<name>17193</name>
<sym>Dot</sym>
</trkpt>
<trkpt lat="39.643183" lon="-8.685455">
<ele>422.0</ele>
<desc>Speed 19.4 km/h Distance 76.64 km</desc>
<time>2011-05-22T13:41:52.52</time>
<name>17194</name>
<sym>Dot</sym>
</trkpt>
<trkpt lat="39.643135" lon="-8.685447">
<ele>422.0</ele>
<desc>Speed 19.3 km/h Distance 76.64 km</desc>
<time>2011-05-22T13:41:53.52</time>
<name>17195</name>
<sym>Dot</sym>
</trkpt>
<trkpt lat="39.643087" lon="-8.685438">
<ele>421.5</ele>
<desc>Speed 19.4 km/h Distance 76.65 km</desc>
<time>2011-05-22T13:41:54.52</time>
<name>17196</name>
<sym>Dot</sym>
</trkpt>
<trkpt lat="39.643040" lon="-8.685430">
<ele>421.5</ele>
<desc>Speed 19.3 km/h Distance 76.65 km</desc>
<time>2011-05-22T13:41:55.52</time>
<name>17197</name>
<sym>Dot</sym>
</trkpt>
<trkpt lat="39.642992" lon="-8.685423">
<ele>421.5</ele>
<desc>Speed 19.2 km/h Distance 76.66 km</desc>
<time>2011-05-22T13:41:56.52</time>
<name>17198</name>
<sym>Dot</sym>
</trkpt>
<trkpt lat="39.642945" lon="-8.685413">
<ele>421.5</ele>
<desc>Speed 19.3 km/h Distance 76.66 km</desc>
<time>2011-05-22T13:41:57.52</time>
<name>17199</name>
<sym>Dot</sym>
</trkpt>
<trkpt lat="39.642898" lon="-8.685407">
<ele>421.0</ele>
<desc>Speed 19.0 km/h Distance 76.67 km</desc>
<time>2011-05-22T13:41:58.52</time>
<name>17200</name>
<sym>Dot</sym>
</trkpt>
<trkpt lat="39.642852" lon="-8.685400">
<ele>421.0</ele>
<desc>Speed 18.9 km/h Distance 76.67 km</desc>
<time>2011-05-22T13:41:59.52</time>
<name>17201</name>
<sym>Dot</sym>
</trkpt>
<trkpt lat="39.642807" lon="-8.685393">
<ele>420.5</ele>
<desc>Speed 18.4 km/h Distance 76.68 km</desc>
<time>2011-05-22T13:42:00.52</time>
<name>17202</name>
<sym>Dot</sym>
</trkpt>
<trkpt lat="39.642760" lon="-8.685385">
<ele>420.5</ele>
<desc>Speed 19.0 km/h Distance 76.68 km</desc>
<time>2011-05-22T13:42:01.52</time>
<name>17203</name>
<sym>Dot</sym>
</trkpt>
<trkpt lat="39.642713" lon="-8.685377">
<ele>420.5</ele>
<desc>Speed 19.2 km/h Distance 76.69 km</desc>
<time>2011-05-22T13:42:02.52</time>
<name>17204</name>
<sym>Dot</sym>
</trkpt>
<trkpt lat="39.642667" lon="-8.685370">
<ele>420.5</ele>
<desc>Speed 19.0 km/h Distance 76.70 km</desc>
<time>2011-05-22T13:42:03.52</time>
<name>17205</name>
<sym>Dot</sym>
</trkpt>
<trkpt lat="39.642620" lon="-8.685362">
<ele>420.5</ele>
<desc>Speed 18.7 km/h Distance 76.70 km</desc>
<time>2011-05-22T13:42:04.52</time>
<name>17206</name>
<sym>Dot</sym>
</trkpt>
<trkpt lat="39.642575" lon="-8.685353">
<ele>420.5</ele>
<desc>Speed 18.4 km/h Distance 76.71 km</desc>
<time>2011-05-22T13:42:05.52</time>
<name>17207</name>
<sym>Dot</sym>
</trkpt>
<trkpt lat="39.642532" lon="-8.685342">
<ele>420.5</ele>
<desc>Speed 18.0 km/h Distance 76.71 km</desc>
<time>2011-05-22T13:42:06.52</time>
<name>17208</name>
<sym>Dot</sym>
</trkpt>
<trkpt lat="39.642488" lon="-8.685332">
<ele>420.0</ele>
<desc>Speed 17.9 km/h Distance 76.72 km</desc>
<time>2011-05-22T13:42:07.52</time>
<name>17209</name>
<sym>Dot</sym>
</trkpt>
<trkpt lat="39.642445" lon="-8.685323">
<ele>419.5</ele>
<desc>Speed 17.8 km/h Distance 76.72 km</desc>
<time>2011-05-22T13:42:08.52</time>
<name>17210</name>
<sym>Dot</sym>
</trkpt>
<trkpt lat="39.642398" lon="-8.685315">
<ele>420.0</ele>
<desc>Speed 18.0 km/h Distance 76.73 km</desc>
<time>2011-05-22T13:42:09.52</time>
<name>17211</name>
<sym>Dot</sym>
</trkpt>
<trkpt lat="39.642355" lon="-8.685308">
<ele>420.0</ele>
<desc>Speed 18.0 km/h Distance 76.73 km</desc>
<time>2011-05-22T13:42:10.52</time>
<name>17212</name>
<sym>Dot</sym>
</trkpt>
<trkpt lat="39.642312" lon="-8.685300">
<ele>419.5</ele>
<desc>Speed 17.8 km/h Distance 76.74 km</desc>
<time>2011-05-22T13:42:11.52</time>
<name>17213</name>
<sym>Dot</sym>
</trkpt>
<trkpt lat="39.642267" lon="-8.685292">
<ele>419.5</ele>
<desc>Speed 17.7 km/h Distance 76.74 km</desc>
<time>2011-05-22T13:42:12.52</time>
<name>17214</name>
<sym>Dot</sym>
</trkpt>
<trkpt lat="39.642225" lon="-8.685285">
<ele>419.5</ele>
<desc>Speed 17.4 km/h Distance 76.75 km</desc>
<time>2011-05-22T13:42:13.52</time>
<name>17215</name>
<sym>Dot</sym>
</trkpt>
<trkpt lat="39.642182" lon="-8.685278">
<ele>420.0</ele>
<desc>Speed 17.4 km/h Distance 76.75 km</desc>
<time>2011-05-22T13:42:14.52</time>
<name>17216</name>
<sym>Dot</sym>
</trkpt>
<trkpt lat="39.642140" lon="-8.685270">
<ele>420.0</ele>
<desc>Speed 16.9 km/h Distance 76.75 km</desc>
<time>2011-05-22T13:42:15.52</time>
<name>17217</name>
<sym>Dot</sym>
</trkpt>
<trkpt lat="39.642100" lon="-8.685262">
<ele>420.0</ele>
<desc>Speed 16.4 km/h Distance 76.76 km</desc>
<time>2011-05-22T13:42:16.52</time>
<name>17218</name>
<sym>Dot</sym>
</trkpt>
<trkpt lat="39.642060" lon="-8.685255">
<ele>420.0</ele>
<desc>Speed 16.4 km/h Distance 76.76 km</desc>
<time>2011-05-22T13:42:17.52</time>
<name>17219</name>
<sym>Dot</sym>
</trkpt>
<trkpt lat="39.642020" lon="-8.685248">
<ele>420.0</ele>
<desc>Speed 15.9 km/h Distance 76.77 km</desc>
<time>2011-05-22T13:42:18.52</time>
<name>17220</name>
<sym>Dot</sym>
</trkpt>
<trkpt lat="39.641982" lon="-8.685242">
<ele>420.0</ele>
<desc>Speed 15.5 km/h Distance 76.77 km</desc>
<time>2011-05-22T13:42:19.52</time>
<name>17221</name>
<sym>Dot</sym>
</trkpt>
<trkpt lat="39.641945" lon="-8.685233">
<ele>420.0</ele>
<desc>Speed 14.8 km/h Distance 76.78 km</desc>
<time>2011-05-22T13:42:20.52</time>
<name>17222</name>
<sym>Dot</sym>
</trkpt>
<trkpt lat="39.641908" lon="-8.685225">
<ele>420.0</ele>
<desc>Speed 14.8 km/h Distance 76.78 km</desc>
<time>2011-05-22T13:42:21.52</time>
<name>17223</name>
<sym>Dot</sym>
</trkpt>
<trkpt lat="39.641880" lon="-8.685225">
<ele>420.0</ele>
<desc>Speed 11.6 km/h Distance 76.78 km</desc>
<time>2011-05-22T13:42:22.52</time>
<name>17224</name>
<sym>Dot</sym>
</trkpt>
<trkpt lat="39.641850" lon="-8.685225">
<ele>420.0</ele>
<desc>Speed 12.3 km/h Distance 76.79 km</desc>
<time>2011-05-22T13:42:23.52</time>
<name>17225</name>
<sym>Dot</sym>
</trkpt>
<trkpt lat="39.641810" lon="-8.685220">
<ele>420.0</ele>
<desc>Speed 15.8 km/h Distance 76.79 km</desc>
<time>2011-05-22T13:42:24.52</time>
<name>17226</name>
<sym>Dot</sym>
</trkpt>
<trkpt lat="39.641768" lon="-8.685213">
<ele>419.5</ele>
<desc>Speed 16.6 km/h Distance 76.80 km</desc>
<time>2011-05-22T13:42:25.52</time>
<name>17227</name>
<sym>Dot</sym>
</trkpt>
<trkpt lat="39.641728" lon="-8.685207">
<ele>419.5</ele>
<desc>Speed 16.6 km/h Distance 76.80 km</desc>
<time>2011-05-22T13:42:26.52</time>
<name>17228</name>
<sym>Dot</sym>
</trkpt>
<trkpt lat="39.641688" lon="-8.685200">
<ele>419.5</ele>
<desc>Speed 16.2 km/h Distance 76.81 km</desc>
<time>2011-05-22T13:42:27.52</time>
<name>17229</name>
<sym>Dot</sym>
</trkpt>
<trkpt lat="39.641647" lon="-8.685193">
<ele>419.5</ele>
<desc>Speed 16.4 km/h Distance 76.81 km</desc>
<time>2011-05-22T13:42:28.52</time>
<name>17230</name>
<sym>Dot</sym>
</trkpt>
<trkpt lat="39.641605" lon="-8.685187">
<ele>419.5</ele>
<desc>Speed 17.1 km/h Distance 76.81 km</desc>
<time>2011-05-22T13:42:29.52</time>
<name>17231</name>
<sym>Dot</sym>
</trkpt>
<trkpt lat="39.641562" lon="-8.685178">
<ele>419.5</ele>
<desc>Speed 17.8 km/h Distance 76.82 km</desc>
<time>2011-05-22T13:42:30.52</time>
<name>17232</name>
<sym>Dot</sym>
</trkpt>
<trkpt lat="39.641515" lon="-8.685168">
<ele>419.5</ele>
<desc>Speed 18.5 km/h Distance 76.82 km</desc>
<time>2011-05-22T13:42:31.52</time>
<name>17233</name>
<sym>Dot</sym>
</trkpt>
<trkpt lat="39.641468" lon="-8.685162">
<ele>419.5</ele>
<desc>Speed 19.1 km/h Distance 76.83 km</desc>
<time>2011-05-22T13:42:32.52</time>
<name>17234</name>
<sym>Dot</sym>
</trkpt>
<trkpt lat="39.641420" lon="-8.685153">
<ele>419.5</ele>
<desc>Speed 19.3 km/h Distance 76.84 km</desc>
<time>2011-05-22T13:42:33.52</time>
<name>17235</name>
<sym>Dot</sym>
</trkpt>
<trkpt lat="39.641370" lon="-8.685143">
<ele>420.0</ele>
<desc>Speed 20.1 km/h Distance 76.84 km</desc>
<time>2011-05-22T13:42:34.52</time>
<name>17236</name>
<sym>Dot</sym>
</trkpt>
<trkpt lat="39.641318" lon="-8.685135">
<ele>419.5</ele>
<desc>Speed 20.7 km/h Distance 76.85 km</desc>
<time>2011-05-22T13:42:35.52</time>
<name>17237</name>
<sym>Dot</sym>
</trkpt>
<trkpt lat="39.641267" lon="-8.685125">
<ele>420.0</ele>
<desc>Speed 20.7 km/h Distance 76.85 km</desc>
<time>2011-05-22T13:42:36.52</time>
<name>17238</name>
<sym>Dot</sym>
</trkpt>
<trkpt lat="39.641217" lon="-8.685117">
<ele>420.0</ele>
<desc>Speed 20.5 km/h Distance 76.86 km</desc>
<time>2011-05-22T13:42:37.52</time>
<name>17239</name>
<sym>Dot</sym>
</trkpt>
<trkpt lat="39.641167" lon="-8.685107">
<ele>420.0</ele>
<desc>Speed 20.2 km/h Distance 76.86 km</desc>
<time>2011-05-22T13:42:38.52</time>
<name>17240</name>
<sym>Dot</sym>
</trkpt>
<trkpt lat="39.641117" lon="-8.685098">
<ele>420.0</ele>
<desc>Speed 20.1 km/h Distance 76.87 km</desc>
<time>2011-05-22T13:42:39.52</time>
<name>17241</name>
<sym>Dot</sym>
</trkpt>
<trkpt lat="39.641068" lon="-8.685090">
<ele>419.5</ele>
<desc>Speed 19.9 km/h Distance 76.87 km</desc>
<time>2011-05-22T13:42:40.52</time>
<name>17242</name>
<sym>Dot</sym>
</trkpt>
<trkpt lat="39.641020" lon="-8.685078">
<ele>419.5</ele>
<desc>Speed 19.6 km/h Distance 76.88 km</desc>
<time>2011-05-22T13:42:41.52</time>
<name>17243</name>
<sym>Dot</sym>
</trkpt>
<trkpt lat="39.640972" lon="-8.685068">
<ele>419.5</ele>
<desc>Speed 19.3 km/h Distance 76.89 km</desc>
<time>2011-05-22T13:42:42.52</time>
<name>17244</name>
<sym>Dot</sym>
</trkpt>
<trkpt lat="39.640925" lon="-8.685060">
<ele>419.5</ele>
<desc>Speed 18.9 km/h Distance 76.89 km</desc>
<time>2011-05-22T13:42:43.52</time>
<name>17245</name>
<sym>Dot</sym>
</trkpt>
<trkpt lat="39.640880" lon="-8.685050">
<ele>419.0</ele>
<desc>Speed 18.7 km/h Distance 76.90 km</desc>
<time>2011-05-22T13:42:44.52</time>
<name>17246</name>
<sym>Dot</sym>
</trkpt>
<trkpt lat="39.640833" lon="-8.685040">
<ele>419.0</ele>
<desc>Speed 18.8 km/h Distance 76.90 km</desc>
<time>2011-05-22T13:42:45.52</time>
<name>17247</name>
<sym>Dot</sym>
</trkpt>
<trkpt lat="39.640787" lon="-8.685032">
<ele>418.5</ele>
<desc>Speed 18.9 km/h Distance 76.91 km</desc>
<time>2011-05-22T13:42:46.52</time>
<name>17248</name>
<sym>Dot</sym>
</trkpt>
<trkpt lat="39.640738" lon="-8.685022">
<ele>418.5</ele>
<desc>Speed 19.2 km/h Distance 76.91 km</desc>
<time>2011-05-22T13:42:47.52</time>
<name>17249</name>
<sym>Dot</sym>
</trkpt>
<trkpt lat="39.640690" lon="-8.685013">
<ele>418.5</ele>
<desc>Speed 19.2 km/h Distance 76.92 km</desc>
<time>2011-05-22T13:42:48.52</time>
<name>17250</name>
<sym>Dot</sym>
</trkpt>
<trkpt lat="39.640643" lon="-8.685003">
<ele>418.5</ele>
<desc>Speed 18.8 km/h Distance 76.92 km</desc>
<time>2011-05-22T13:42:49.52</time>
<name>17251</name>
<sym>Dot</sym>
</trkpt>
<trkpt lat="39.640597" lon="-8.684993">
<ele>418.5</ele>
<desc>Speed 19.0 km/h Distance 76.93 km</desc>
<time>2011-05-22T13:42:50.52</time>
<name>17252</name>
<sym>Dot</sym>
</trkpt>
<trkpt lat="39.640548" lon="-8.684983">
<ele>418.0</ele>
<desc>Speed 19.3 km/h Distance 76.93 km</desc>
<time>2011-05-22T13:42:51.52</time>
<name>17253</name>
<sym>Dot</sym>
</trkpt>
<trkpt lat="39.640502" lon="-8.684975">
<ele>418.0</ele>
<desc>Speed 18.7 km/h Distance 76.94 km</desc>
<time>2011-05-22T13:42:52.52</time>
<name>17254</name>
<sym>Dot</sym>
</trkpt>
<trkpt lat="39.640453" lon="-8.684967">
<ele>418.0</ele>
<desc>Speed 19.7 km/h Distance 76.94 km</desc>
<time>2011-05-22T13:42:53.52</time>
<name>17255</name>
<sym>Dot</sym>
</trkpt>
<trkpt lat="39.640403" lon="-8.684957">
<ele>418.0</ele>
<desc>Speed 19.9 km/h Distance 76.95 km</desc>
<time>2011-05-22T13:42:54.52</time>
<name>17256</name>
<sym>Dot</sym>
</trkpt>
<trkpt lat="39.640353" lon="-8.684947">
<ele>418.0</ele>
<desc>Speed 20.2 km/h Distance 76.96 km</desc>
<time>2011-05-22T13:42:55.52</time>
<name>17257</name>
<sym>Dot</sym>
</trkpt>
<trkpt lat="39.640302" lon="-8.684940">
<ele>418.0</ele>
<desc>Speed 20.8 km/h Distance 76.96 km</desc>
<time>2011-05-22T13:42:56.52</time>
<name>17258</name>
<sym>Dot</sym>
</trkpt>
<trkpt lat="39.640250" lon="-8.684930">
<ele>418.0</ele>
<desc>Speed 21.2 km/h Distance 76.97 km</desc>
<time>2011-05-22T13:42:57.52</time>
<name>17259</name>
<sym>Dot</sym>
</trkpt>
<trkpt lat="39.640197" lon="-8.684918">
<ele>418.0</ele>
<desc>Speed 21.7 km/h Distance 76.97 km</desc>
<time>2011-05-22T13:42:58.52</time>
<name>17260</name>
<sym>Dot</sym>
</trkpt>
<trkpt lat="39.640142" lon="-8.684907">
<ele>418.0</ele>
<desc>Speed 22.1 km/h Distance 76.98 km</desc>
<time>2011-05-22T13:42:59.52</time>
<name>17261</name>
<sym>Dot</sym>
</trkpt>
<trkpt lat="39.640085" lon="-8.684897">
<ele>418.0</ele>
<desc>Speed 22.8 km/h Distance 76.99 km</desc>
<time>2011-05-22T13:43:00.52</time>
<name>17262</name>
<sym>Dot</sym>
</trkpt>
<trkpt lat="39.640027" lon="-8.684885">
<ele>417.5</ele>
<desc>Speed 23.6 km/h Distance 76.99 km</desc>
<time>2011-05-22T13:43:01.52</time>
<name>17263</name>
<sym>Dot</sym>
</trkpt>
<trkpt lat="39.639967" lon="-8.684873">
<ele>417.5</ele>
<desc>Speed 24.5 km/h Distance 77.00 km</desc>
<time>2011-05-22T13:43:02.52</time>
<name>17264</name>
<sym>Dot</sym>
</trkpt>
<trkpt lat="39.639905" lon="-8.684863">
<ele>417.5</ele>
<desc>Speed 24.7 km/h Distance 77.01 km</desc>
<time>2011-05-22T13:43:03.52</time>
<name>17265</name>
<sym>Dot</sym>
</trkpt>
<trkpt lat="39.639843" lon="-8.684853">
<ele>417.5</ele>
<desc>Speed 25.5 km/h Distance 77.01 km</desc>
<time>2011-05-22T13:43:04.52</time>
<name>17266</name>
<sym>Dot</sym>
</trkpt>
<trkpt lat="39.639778" lon="-8.684843">
<ele>417.5</ele>
<desc>Speed 25.9 km/h Distance 77.02 km</desc>
<time>2011-05-22T13:43:05.52</time>
<name>17267</name>
<sym>Dot</sym>
</trkpt>
<trkpt lat="39.639712" lon="-8.684832">
<ele>417.5</ele>
<desc>Speed 26.5 km/h Distance 77.03 km</desc>
<time>2011-05-22T13:43:06.52</time>
<name>17268</name>
<sym>Dot</sym>
</trkpt>
<trkpt lat="39.639645" lon="-8.684820">
<ele>417.5</ele>
<desc>Speed 27.3 km/h Distance 77.04 km</desc>
<time>2011-05-22T13:43:07.52</time>
<name>17269</name>
<sym>Dot</sym>
</trkpt>
<trkpt lat="39.639575" lon="-8.684807">
<ele>417.0</ele>
<desc>Speed 28.2 km/h Distance 77.04 km</desc>
<time>2011-05-22T13:43:08.52</time>
<name>17270</name>
<sym>Dot</sym>
</trkpt>
<trkpt lat="39.639503" lon="-8.684793">
<ele>417.0</ele>
<desc>Speed 29.1 km/h Distance 77.05 km</desc>
<time>2011-05-22T13:43:09.52</time>
<name>17271</name>
<sym>Dot</sym>
</trkpt>
<trkpt lat="39.639430" lon="-8.684778">
<ele>417.0</ele>
<desc>Speed 29.8 km/h Distance 77.06 km</desc>
<time>2011-05-22T13:43:10.52</time>
<name>17272</name>
<sym>Dot</sym>
</trkpt>
<trkpt lat="39.639357" lon="-8.684763">
<ele>416.5</ele>
<desc>Speed 29.6 km/h Distance 77.07 km</desc>
<time>2011-05-22T13:43:11.52</time>
<name>17273</name>
<sym>Dot</sym>
</trkpt>
<trkpt lat="39.639282" lon="-8.684750">
<ele>416.5</ele>
<desc>Speed 30.6 km/h Distance 77.08 km</desc>
<time>2011-05-22T13:43:12.52</time>
<name>17274</name>
<sym>Dot</sym>
</trkpt>
<trkpt lat="39.639205" lon="-8.684737">
<ele>416.0</ele>
<desc>Speed 31.1 km/h Distance 77.08 km</desc>
<time>2011-05-22T13:43:13.52</time>
<name>17275</name>
<sym>Dot</sym>
</trkpt>
<trkpt lat="39.639127" lon="-8.684720">
<ele>415.5</ele>
<desc>Speed 31.9 km/h Distance 77.09 km</desc>
<time>2011-05-22T13:43:14.52</time>
<name>17276</name>
<sym>Dot</sym>
</trkpt>
<trkpt lat="39.639047" lon="-8.684705">
<ele>414.5</ele>
<desc>Speed 32.5 km/h Distance 77.10 km</desc>
<time>2011-05-22T13:43:15.52</time>
<name>17277</name>
<sym>Dot</sym>
</trkpt>
<trkpt lat="39.638965" lon="-8.684690">
<ele>414.0</ele>
<desc>Speed 33.2 km/h Distance 77.11 km</desc>
<time>2011-05-22T13:43:16.52</time>
<name>17278</name>
<sym>Dot</sym>
</trkpt>
<trkpt lat="39.638880" lon="-8.684672">
<ele>415.0</ele>
<desc>Speed 34.6 km/h Distance 77.12 km</desc>
<time>2011-05-22T13:43:17.52</time>
<name>17279</name>
<sym>Dot</sym>
</trkpt>
<trkpt lat="39.638797" lon="-8.684650">
<ele>415.0</ele>
<desc>Speed 34.1 km/h Distance 77.13 km</desc>
<time>2011-05-22T13:43:18.52</time>
<name>17280</name>
<sym>Dot</sym>
</trkpt>
<trkpt lat="39.638710" lon="-8.684637">
<ele>415.5</ele>
<desc>Speed 35.5 km/h Distance 77.14 km</desc>
<time>2011-05-22T13:43:19.52</time>
<name>17281</name>
<sym>Dot</sym>
</trkpt>
<trkpt lat="39.638622" lon="-8.684625">
<ele>415.0</ele>
<desc>Speed 35.3 km/h Distance 77.15 km</desc>
<time>2011-05-22T13:43:20.52</time>
<name>17282</name>
<sym>Dot</sym>
</trkpt>
<trkpt lat="39.638533" lon="-8.684610">
<ele>414.5</ele>
<desc>Speed 35.6 km/h Distance 77.16 km</desc>
<time>2011-05-22T13:43:21.52</time>
<name>17283</name>
<sym>Dot</sym>
</trkpt>
<trkpt lat="39.638445" lon="-8.684593">
<ele>414.0</ele>
<desc>Speed 35.9 km/h Distance 77.17 km</desc>
<time>2011-05-22T13:43:22.52</time>
<name>17284</name>
<sym>Dot</sym>
</trkpt>
<trkpt lat="39.638357" lon="-8.684577">
<ele>413.5</ele>
<desc>Speed 35.8 km/h Distance 77.18 km</desc>
<time>2011-05-22T13:43:23.52</time>
<name>17285</name>
<sym>Dot</sym>
</trkpt>
<trkpt lat="39.638268" lon="-8.684560">
<ele>413.0</ele>
<desc>Speed 36.0 km/h Distance 77.19 km</desc>
<time>2011-05-22T13:43:24.52</time>
<name>17286</name>
<sym>Dot</sym>
</trkpt>
<trkpt lat="39.638180" lon="-8.684543">
<ele>413.0</ele>
<desc>Speed 35.7 km/h Distance 77.20 km</desc>
<time>2011-05-22T13:43:25.52</time>
<name>17287</name>
<sym>Dot</sym>
</trkpt>
<trkpt lat="39.638092" lon="-8.684527">
<ele>412.5</ele>
<desc>Speed 35.5 km/h Distance 77.21 km</desc>
<time>2011-05-22T13:43:26.52</time>
<name>17288</name>
<sym>Dot</sym>
</trkpt>
<trkpt lat="39.638003" lon="-8.684512">
<ele>412.5</ele>
<desc>Speed 35.4 km/h Distance 77.22 km</desc>
<time>2011-05-22T13:43:27.52</time>
<name>17289</name>
<sym>Dot</sym>
</trkpt>
<trkpt lat="39.637917" lon="-8.684497">
<ele>412.5</ele>
<desc>Speed 35.0 km/h Distance 77.23 km</desc>
<time>2011-05-22T13:43:28.52</time>
<name>17290</name>
<sym>Dot</sym>
</trkpt>
<trkpt lat="39.637832" lon="-8.684483">
<ele>412.5</ele>
<desc>Speed 34.6 km/h Distance 77.24 km</desc>
<time>2011-05-22T13:43:29.52</time>
<name>17291</name>
<sym>Dot</sym>
</trkpt>
<trkpt lat="39.637745" lon="-8.684470">
<ele>412.5</ele>
<desc>Speed 34.6 km/h Distance 77.25 km</desc>
<time>2011-05-22T13:43:30.52</time>
<name>17292</name>
<sym>Dot</sym>
</trkpt>
<trkpt lat="39.637660" lon="-8.684455">
<ele>413.0</ele>
<desc>Speed 34.2 km/h Distance 77.26 km</desc>
<time>2011-05-22T13:43:31.52</time>
<name>17293</name>
<sym>Dot</sym>
</trkpt>
<trkpt lat="39.637577" lon="-8.684440">
<ele>413.5</ele>
<desc>Speed 33.8 km/h Distance 77.27 km</desc>
<time>2011-05-22T13:43:32.52</time>
<name>17294</name>
<sym>Dot</sym>
</trkpt>
<trkpt lat="39.637493" lon="-8.684425">
<ele>413.5</ele>
<desc>Speed 33.4 km/h Distance 77.28 km</desc>
<time>2011-05-22T13:43:33.52</time>
<name>17295</name>
<sym>Dot</sym>
</trkpt>
<trkpt lat="39.637413" lon="-8.684410">
<ele>413.5</ele>
<desc>Speed 32.6 km/h Distance 77.29 km</desc>
<time>2011-05-22T13:43:34.52</time>
<name>17296</name>
<sym>Dot</sym>
</trkpt>
<trkpt lat="39.637333" lon="-8.684395">
<ele>413.5</ele>
<desc>Speed 32.1 km/h Distance 77.30 km</desc>
<time>2011-05-22T13:43:35.52</time>
<name>17297</name>
<sym>Dot</sym>
</trkpt>
<trkpt lat="39.637257" lon="-8.684380">
<ele>413.5</ele>
<desc>Speed 31.5 km/h Distance 77.30 km</desc>
<time>2011-05-22T13:43:36.52</time>
<name>17298</name>
<sym>Dot</sym>
</trkpt>
<trkpt lat="39.637180" lon="-8.684367">
<ele>413.0</ele>
<desc>Speed 30.8 km/h Distance 77.31 km</desc>
<time>2011-05-22T13:43:37.52</time>
<name>17299</name>
<sym>Dot</sym>
</trkpt>
<trkpt lat="39.637105" lon="-8.684352">
<ele>413.0</ele>
<desc>Speed 30.2 km/h Distance 77.32 km</desc>
<time>2011-05-22T13:43:38.52</time>
<name>17300</name>
<sym>Dot</sym>
</trkpt>
<trkpt lat="39.637032" lon="-8.684337">
<ele>413.0</ele>
<desc>Speed 29.7 km/h Distance 77.33 km</desc>
<time>2011-05-22T13:43:39.52</time>
<name>17301</name>
<sym>Dot</sym>
</trkpt>
<trkpt lat="39.636960" lon="-8.684323">
<ele>412.0</ele>
<desc>Speed 29.4 km/h Distance 77.34 km</desc>
<time>2011-05-22T13:43:40.52</time>
<name>17302</name>
<sym>Dot</sym>
</trkpt>
<trkpt lat="39.636890" lon="-8.684312">
<ele>411.5</ele>
<desc>Speed 28.7 km/h Distance 77.34 km</desc>
<time>2011-05-22T13:43:41.52</time>
<name>17303</name>
<sym>Dot</sym>
</trkpt>
<trkpt lat="39.636822" lon="-8.684300">
<ele>411.5</ele>
<desc>Speed 28.1 km/h Distance 77.35 km</desc>
<time>2011-05-22T13:43:42.52</time>
<name>17304</name>
<sym>Dot</sym>
</trkpt>
<trkpt lat="39.636757" lon="-8.684290">
<ele>411.5</ele>
<desc>Speed 26.2 km/h Distance 77.36 km</desc>
<time>2011-05-22T13:43:43.52</time>
<name>17305</name>
<sym>Dot</sym>
</trkpt>
<trkpt lat="39.636692" lon="-8.684282">
<ele>411.5</ele>
<desc>Speed 26.6 km/h Distance 77.37 km</desc>
<time>2011-05-22T13:43:44.52</time>
<name>17306</name>
<sym>Dot</sym>
</trkpt>
<trkpt lat="39.636627" lon="-8.684272">
<ele>411.5</ele>
<desc>Speed 26.4 km/h Distance 77.37 km</desc>
<time>2011-05-22T13:43:45.52</time>
<name>17307</name>
<sym>Dot</sym>
</trkpt>
<trkpt lat="39.636563" lon="-8.684262">
<ele>412.0</ele>
<desc>Speed 25.6 km/h Distance 77.38 km</desc>
<time>2011-05-22T13:43:46.52</time>
<name>17308</name>
<sym>Dot</sym>
</trkpt>
<trkpt lat="39.636503" lon="-8.684250">
<ele>412.0</ele>
<desc>Speed 24.6 km/h Distance 77.39 km</desc>
<time>2011-05-22T13:43:47.52</time>
<name>17309</name>
<sym>Dot</sym>
</trkpt>
<trkpt lat="39.636443" lon="-8.684242">
<ele>412.5</ele>
<desc>Speed 23.9 km/h Distance 77.40 km</desc>
<time>2011-05-22T13:43:48.52</time>
<name>17310</name>
<sym>Dot</sym>
</trkpt>
<trkpt lat="39.636387" lon="-8.684232">
<ele>412.5</ele>
<desc>Speed 22.9 km/h Distance 77.40 km</desc>
<time>2011-05-22T13:43:49.52</time>
<name>17311</name>
<sym>Dot</sym>
</trkpt>
<trkpt lat="39.636330" lon="-8.684220">
<ele>412.5</ele>
<desc>Speed 23.0 km/h Distance 77.41 km</desc>
<time>2011-05-22T13:43:50.52</time>
<name>17312</name>
<sym>Dot</sym>
</trkpt>
<trkpt lat="39.636275" lon="-8.684210">
<ele>412.0</ele>
<desc>Speed 22.5 km/h Distance 77.41 km</desc>
<time>2011-05-22T13:43:51.52</time>
<name>17313</name>
<sym>Dot</sym>
</trkpt>
<trkpt lat="39.636220" lon="-8.684200">
<ele>412.0</ele>
<desc>Speed 22.0 km/h Distance 77.42 km</desc>
<time>2011-05-22T13:43:52.52</time>
<name>17314</name>
<sym>Dot</sym>
</trkpt>
<trkpt lat="39.636167" lon="-8.684190">
<ele>412.0</ele>
<desc>Speed 21.1 km/h Distance 77.43 km</desc>
<time>2011-05-22T13:43:53.52</time>
<name>17315</name>
<sym>Dot</sym>
</trkpt>
<trkpt lat="39.636117" lon="-8.684180">
<ele>411.5</ele>
<desc>Speed 20.3 km/h Distance 77.43 km</desc>
<time>2011-05-22T13:43:54.52</time>
<name>17316</name>
<sym>Dot</sym>
</trkpt>
<trkpt lat="39.636065" lon="-8.684172">
<ele>411.5</ele>
<desc>Speed 20.7 km/h Distance 77.44 km</desc>
<time>2011-05-22T13:43:55.52</time>
<name>17317</name>
<sym>Dot</sym>
</trkpt>
<trkpt lat="39.636015" lon="-8.684163">
<ele>411.5</ele>
<desc>Speed 20.4 km/h Distance 77.44 km</desc>
<time>2011-05-22T13:43:56.52</time>
<name>17318</name>
<sym>Dot</sym>
</trkpt>
<trkpt lat="39.635965" lon="-8.684155">
<ele>411.5</ele>
<desc>Speed 19.9 km/h Distance 77.45 km</desc>
<time>2011-05-22T13:43:57.52</time>
<name>17319</name>
<sym>Dot</sym>
</trkpt>
<trkpt lat="39.635917" lon="-8.684145">
<ele>411.5</ele>
<desc>Speed 19.6 km/h Distance 77.45 km</desc>
<time>2011-05-22T13:43:58.52</time>
<name>17320</name>
<sym>Dot</sym>
</trkpt>
<trkpt lat="39.635870" lon="-8.684135">
<ele>411.5</ele>
<desc>Speed 19.0 km/h Distance 77.46 km</desc>
<time>2011-05-22T13:43:59.52</time>
<name>17321</name>
<sym>Dot</sym>
</trkpt>
<trkpt lat="39.635825" lon="-8.684127">
<ele>411.0</ele>
<desc>Speed 18.8 km/h Distance 77.46 km</desc>
<time>2011-05-22T13:44:00.52</time>
<name>17322</name>
<sym>Dot</sym>
</trkpt>
<trkpt lat="39.635780" lon="-8.684113">
<ele>410.5</ele>
<desc>Speed 18.3 km/h Distance 77.47 km</desc>
<time>2011-05-22T13:44:01.52</time>
<name>17323</name>
<sym>Dot</sym>
</trkpt>
<trkpt lat="39.635737" lon="-8.684102">
<ele>410.0</ele>
<desc>Speed 18.2 km/h Distance 77.47 km</desc>
<time>2011-05-22T13:44:02.52</time>
<name>17324</name>
<sym>Dot</sym>
</trkpt>
<trkpt lat="39.635690" lon="-8.684092">
<ele>409.5</ele>
<desc>Speed 18.3 km/h Distance 77.48 km</desc>
<time>2011-05-22T13:44:03.52</time>
<name>17325</name>
<sym>Dot</sym>
</trkpt>
<trkpt lat="39.635643" lon="-8.684083">
<ele>410.0</ele>
<desc>Speed 18.5 km/h Distance 77.49 km</desc>
<time>2011-05-22T13:44:04.52</time>
<name>17326</name>
<sym>Dot</sym>
</trkpt>
<trkpt lat="39.635598" lon="-8.684077">
<ele>410.5</ele>
<desc>Speed 18.3 km/h Distance 77.49 km</desc>
<time>2011-05-22T13:44:05.52</time>
<name>17327</name>
<sym>Dot</sym>
</trkpt>
<trkpt lat="39.635557" lon="-8.684063">
<ele>409.5</ele>
<desc>Speed 16.9 km/h Distance 77.49 km</desc>
<time>2011-05-22T13:44:06.52</time>
<name>17328</name>
<sym>Dot</sym>
</trkpt>
<trkpt lat="39.635515" lon="-8.684055">
<ele>409.5</ele>
<desc>Speed 16.9 km/h Distance 77.50 km</desc>
<time>2011-05-22T13:44:07.52</time>
<name>17329</name>
<sym>Dot</sym>
</trkpt>
<trkpt lat="39.635472" lon="-8.684050">
<ele>410.0</ele>
<desc>Speed 17.3 km/h Distance 77.50 km</desc>
<time>2011-05-22T13:44:08.52</time>
<name>17330</name>
<sym>Dot</sym>
</trkpt>
<trkpt lat="39.635427" lon="-8.684042">
<ele>410.0</ele>
<desc>Speed 18.0 km/h Distance 77.51 km</desc>
<time>2011-05-22T13:44:09.52</time>
<name>17331</name>
<sym>Dot</sym>
</trkpt>
<trkpt lat="39.635383" lon="-8.684035">
<ele>410.5</ele>
<desc>Speed 17.5 km/h Distance 77.51 km</desc>
<time>2011-05-22T13:44:10.52</time>
<name>17332</name>
<sym>Dot</sym>
</trkpt>
<trkpt lat="39.635340" lon="-8.684030">
<ele>411.5</ele>
<desc>Speed 17.1 km/h Distance 77.52 km</desc>
<time>2011-05-22T13:44:11.52</time>
<name>17333</name>
<sym>Dot</sym>
</trkpt>
<trkpt lat="39.635298" lon="-8.684027">
<ele>412.5</ele>
<desc>Speed 16.7 km/h Distance 77.52 km</desc>
<time>2011-05-22T13:44:12.52</time>
<name>17334</name>
<sym>Dot</sym>
</trkpt>
<trkpt lat="39.635260" lon="-8.684025">
<ele>413.0</ele>
<desc>Speed 15.7 km/h Distance 77.53 km</desc>
<time>2011-05-22T13:44:13.52</time>
<name>17335</name>
<sym>Dot</sym>
</trkpt>
<trkpt lat="39.635222" lon="-8.684022">
<ele>413.5</ele>
<desc>Speed 15.5 km/h Distance 77.53 km</desc>
<time>2011-05-22T13:44:14.52</time>
<name>17336</name>
<sym>Dot</sym>
</trkpt>
<trkpt lat="39.635183" lon="-8.684013">
<ele>413.0</ele>
<desc>Speed 15.6 km/h Distance 77.54 km</desc>
<time>2011-05-22T13:44:15.52</time>
<name>17337</name>
<sym>Dot</sym>
</trkpt>
<trkpt lat="39.635147" lon="-8.684005">
<ele>413.0</ele>
<desc>Speed 15.7 km/h Distance 77.54 km</desc>
<time>2011-05-22T13:44:16.52</time>
<name>17338</name>
<sym>Dot</sym>
</trkpt>
<trkpt lat="39.635107" lon="-8.683998">
<ele>413.0</ele>
<desc>Speed 16.2 km/h Distance 77.55 km</desc>
<time>2011-05-22T13:44:17.52</time>
<name>17339</name>
<sym>Dot</sym>
</trkpt>
<trkpt lat="39.635065" lon="-8.683993">
<ele>413.0</ele>
<desc>Speed 17.0 km/h Distance 77.55 km</desc>
<time>2011-05-22T13:44:18.52</time>
<name>17340</name>
<sym>Dot</sym>
</trkpt>
<trkpt lat="39.635022" lon="-8.683987">
<ele>413.5</ele>
<desc>Speed 17.2 km/h Distance 77.55 km</desc>
<time>2011-05-22T13:44:19.52</time>
<name>17341</name>
<sym>Dot</sym>
</trkpt>
<trkpt lat="39.634982" lon="-8.683982">
<ele>414.0</ele>
<desc>Speed 16.6 km/h Distance 77.56 km</desc>
<time>2011-05-22T13:44:20.52</time>
<name>17342</name>
<sym>Dot</sym>
</trkpt>
<trkpt lat="39.634940" lon="-8.683982">
<ele>415.0</ele>
<desc>Speed 16.9 km/h Distance 77.56 km</desc>
<time>2011-05-22T13:44:21.52</time>
<name>17343</name>
<sym>Dot</sym>
</trkpt>
<trkpt lat="39.634905" lon="-8.683995">
<ele>416.5</ele>
<desc>Speed 14.5 km/h Distance 77.57 km</desc>
<time>2011-05-22T13:44:22.52</time>
<name>17344</name>
<sym>Dot</sym>
</trkpt>
<trkpt lat="39.634880" lon="-8.684005">
<ele>417.5</ele>
<desc>Speed 10.9 km/h Distance 77.57 km</desc>
<time>2011-05-22T13:44:23.52</time>
<name>17345</name>
<sym>Dot</sym>
</trkpt>
<trkpt lat="39.634868" lon="-8.684013">
<ele>418.0</ele>
<desc>Speed 5.9 km/h Distance 77.57 km</desc>
<time>2011-05-22T13:44:24.52</time>
<name>17346</name>
<sym>Dot</sym>
</trkpt>
<trkpt lat="39.634860" lon="-8.684028">
<ele>418.5</ele>
<desc>Speed 5.7 km/h Distance 77.57 km</desc>
<time>2011-05-22T13:44:25.52</time>
<name>17347</name>
<sym>Dot</sym>
</trkpt>
<trkpt lat="39.634850" lon="-8.684038">
<ele>418.5</ele>
<desc>Speed 5.3 km/h Distance 77.58 km</desc>
<time>2011-05-22T13:44:26.52</time>
<name>17348</name>
<sym>Dot</sym>
</trkpt>
<trkpt lat="39.634835" lon="-8.684052">
<ele>419.5</ele>
<desc>Speed 7.4 km/h Distance 77.58 km</desc>
<time>2011-05-22T13:44:27.52</time>
<name>17349</name>
<sym>Dot</sym>
</trkpt>
<trkpt lat="39.634812" lon="-8.684063">
<ele>420.5</ele>
<desc>Speed 10.0 km/h Distance 77.58 km</desc>
<time>2011-05-22T13:44:28.52</time>
<name>17350</name>
<sym>Dot</sym>
</trkpt>
<trkpt lat="39.634788" lon="-8.684075">
<ele>422.0</ele>
<desc>Speed 9.6 km/h Distance 77.58 km</desc>
<time>2011-05-22T13:44:29.52</time>
<name>17351</name>
<sym>Dot</sym>
</trkpt>
<trkpt lat="39.634768" lon="-8.684088">
<ele>422.5</ele>
<desc>Speed 8.9 km/h Distance 77.59 km</desc>
<time>2011-05-22T13:44:30.52</time>
<name>17352</name>
<sym>Dot</sym>
</trkpt>
<trkpt lat="39.634752" lon="-8.684100">
<ele>423.5</ele>
<desc>Speed 7.8 km/h Distance 77.59 km</desc>
<time>2011-05-22T13:44:31.52</time>
<name>17353</name>
<sym>Dot</sym>
</trkpt>
<trkpt lat="39.634732" lon="-8.684120">
<ele>423.5</ele>
<desc>Speed 10.2 km/h Distance 77.59 km</desc>
<time>2011-05-22T13:44:32.52</time>
<name>17354</name>
<sym>Dot</sym>
</trkpt>
<trkpt lat="39.634707" lon="-8.684142">
<ele>423.0</ele>
<desc>Speed 12.2 km/h Distance 77.59 km</desc>
<time>2011-05-22T13:44:33.52</time>
<name>17355</name>
<sym>Dot</sym>
</trkpt>
<trkpt lat="39.634678" lon="-8.684163">
<ele>422.0</ele>
<desc>Speed 13.4 km/h Distance 77.60 km</desc>
<time>2011-05-22T13:44:34.52</time>
<name>17356</name>
<sym>Dot</sym>
</trkpt>
<trkpt lat="39.634652" lon="-8.684187">
<ele>421.5</ele>
<desc>Speed 13.9 km/h Distance 77.60 km</desc>
<time>2011-05-22T13:44:35.52</time>
<name>17357</name>
<sym>Dot</sym>
</trkpt>
<trkpt lat="39.634620" lon="-8.684210">
<ele>420.5</ele>
<desc>Speed 14.7 km/h Distance 77.61 km</desc>
<time>2011-05-22T13:44:36.52</time>
<name>17358</name>
<sym>Dot</sym>
</trkpt>
<trkpt lat="39.634585" lon="-8.684227">
<ele>420.0</ele>
<desc>Speed 15.2 km/h Distance 77.61 km</desc>
<time>2011-05-22T13:44:37.52</time>
<name>17359</name>
<sym>Dot</sym>
</trkpt>
<trkpt lat="39.634548" lon="-8.684237">
<ele>420.0</ele>
<desc>Speed 15.4 km/h Distance 77.61 km</desc>
<time>2011-05-22T13:44:38.52</time>
<name>17360</name>
<sym>Dot</sym>
</trkpt>
<trkpt lat="39.634508" lon="-8.684242">
<ele>419.5</ele>
<desc>Speed 15.8 km/h Distance 77.62 km</desc>
<time>2011-05-22T13:44:39.52</time>
<name>17361</name>
<sym>Dot</sym>
</trkpt>
<trkpt lat="39.634468" lon="-8.684243">
<ele>419.5</ele>
<desc>Speed 16.3 km/h Distance 77.62 km</desc>
<time>2011-05-22T13:44:40.52</time>
<name>17362</name>
<sym>Dot</sym>
</trkpt>
<trkpt lat="39.634427" lon="-8.684240">
<ele>419.5</ele>
<desc>Speed 16.8 km/h Distance 77.63 km</desc>
<time>2011-05-22T13:44:41.52</time>
<name>17363</name>
<sym>Dot</sym>
</trkpt>
<trkpt lat="39.634383" lon="-8.684230">
<ele>419.5</ele>
<desc>Speed 17.6 km/h Distance 77.63 km</desc>
<time>2011-05-22T13:44:42.52</time>
<name>17364</name>
<sym>Dot</sym>
</trkpt>
<trkpt lat="39.634340" lon="-8.684215">
<ele>419.5</ele>
<desc>Speed 17.7 km/h Distance 77.64 km</desc>
<time>2011-05-22T13:44:43.52</time>
<name>17365</name>
<sym>Dot</sym>
</trkpt>
<trkpt lat="39.634298" lon="-8.684190">
<ele>419.5</ele>
<desc>Speed 18.6 km/h Distance 77.64 km</desc>
<time>2011-05-22T13:44:44.52</time>
<name>17366</name>
<sym>Dot</sym>
</trkpt>
<trkpt lat="39.634260" lon="-8.684158">
<ele>419.5</ele>
<desc>Speed 18.9 km/h Distance 77.65 km</desc>
<time>2011-05-22T13:44:45.52</time>
<name>17367</name>
<sym>Dot</sym>
</trkpt>
<trkpt lat="39.634222" lon="-8.684122">
<ele>419.0</ele>
<desc>Speed 19.0 km/h Distance 77.65 km</desc>
<time>2011-05-22T13:44:46.52</time>
<name>17368</name>
<sym>Dot</sym>
</trkpt>
<trkpt lat="39.634190" lon="-8.684080">
<ele>418.5</ele>
<desc>Speed 18.1 km/h Distance 77.66 km</desc>
<time>2011-05-22T13:44:47.52</time>
<name>17369</name>
<sym>Dot</sym>
</trkpt>
<trkpt lat="39.634165" lon="-8.684035">
<ele>418.5</ele>
<desc>Speed 17.5 km/h Distance 77.66 km</desc>
<time>2011-05-22T13:44:48.52</time>
<name>17370</name>
<sym>Dot</sym>
</trkpt>
<trkpt lat="39.634147" lon="-8.683985">
<ele>418.0</ele>
<desc>Speed 17.7 km/h Distance 77.67 km</desc>
<time>2011-05-22T13:44:49.52</time>
<name>17371</name>
<sym>Dot</sym>
</trkpt>
<trkpt lat="39.634135" lon="-8.683930">
<ele>417.5</ele>
<desc>Speed 18.3 km/h Distance 77.67 km</desc>
<time>2011-05-22T13:44:50.52</time>
<name>17372</name>
<sym>Dot</sym>
</trkpt>
<trkpt lat="39.634128" lon="-8.683872">
<ele>417.0</ele>
<desc>Speed 18.6 km/h Distance 77.68 km</desc>
<time>2011-05-22T13:44:51.52</time>
<name>17373</name>
<sym>Dot</sym>
</trkpt>
<trkpt lat="39.634127" lon="-8.683812">
<ele>416.5</ele>
<desc>Speed 18.5 km/h Distance 77.68 km</desc>
<time>2011-05-22T13:44:52.52</time>
<name>17374</name>
<sym>Dot</sym>
</trkpt>
<trkpt lat="39.634130" lon="-8.683755">
<ele>416.0</ele>
<desc>Speed 18.2 km/h Distance 77.69 km</desc>
<time>2011-05-22T13:44:53.52</time>
<name>17375</name>
<sym>Dot</sym>
</trkpt>
<trkpt lat="39.634138" lon="-8.683700">
<ele>415.5</ele>
<desc>Speed 17.9 km/h Distance 77.69 km</desc>
<time>2011-05-22T13:44:54.52</time>
<name>17376</name>
<sym>Dot</sym>
</trkpt>
<trkpt lat="39.634150" lon="-8.683648">
<ele>415.5</ele>
<desc>Speed 17.1 km/h Distance 77.70 km</desc>
<time>2011-05-22T13:44:55.52</time>
<name>17377</name>
<sym>Dot</sym>
</trkpt>
<trkpt lat="39.634167" lon="-8.683598">
<ele>415.0</ele>
<desc>Speed 17.0 km/h Distance 77.70 km</desc>
<time>2011-05-22T13:44:56.52</time>
<name>17378</name>
<sym>Dot</sym>
</trkpt>
<trkpt lat="39.634187" lon="-8.683555">
<ele>415.0</ele>
<desc>Speed 16.3 km/h Distance 77.71 km</desc>
<time>2011-05-22T13:44:57.52</time>
<name>17379</name>
<sym>Dot</sym>
</trkpt>
<trkpt lat="39.634208" lon="-8.683513">
<ele>415.0</ele>
<desc>Speed 15.7 km/h Distance 77.71 km</desc>
<time>2011-05-22T13:44:58.52</time>
<name>17380</name>
<sym>Dot</sym>
</trkpt>
<trkpt lat="39.634235" lon="-8.683478">
<ele>415.0</ele>
<desc>Speed 15.6 km/h Distance 77.71 km</desc>
<time>2011-05-22T13:44:59.52</time>
<name>17381</name>
<sym>Dot</sym>
</trkpt>
<trkpt lat="39.634267" lon="-8.683447">
<ele>416.0</ele>
<desc>Speed 16.3 km/h Distance 77.72 km</desc>
<time>2011-05-22T13:45:00.52</time>
<name>17382</name>
<sym>Dot</sym>
</trkpt>
<trkpt lat="39.634303" lon="-8.683420">
<ele>416.0</ele>
<desc>Speed 17.1 km/h Distance 77.72 km</desc>
<time>2011-05-22T13:45:01.52</time>
<name>17383</name>
<sym>Dot</sym>
</trkpt>
<trkpt lat="39.634342" lon="-8.683398">
<ele>416.0</ele>
<desc>Speed 16.9 km/h Distance 77.73 km</desc>
<time>2011-05-22T13:45:02.52</time>
<name>17384</name>
<sym>Dot</sym>
</trkpt>
<trkpt lat="39.634382" lon="-8.683382">
<ele>416.0</ele>
<desc>Speed 16.7 km/h Distance 77.73 km</desc>
<time>2011-05-22T13:45:03.52</time>
<name>17385</name>
<sym>Dot</sym>
</trkpt>
<trkpt lat="39.634422" lon="-8.683363">
<ele>415.5</ele>
<desc>Speed 17.0 km/h Distance 77.74 km</desc>
<time>2011-05-22T13:45:04.52</time>
<name>17386</name>
<sym>Dot</sym>
</trkpt>
<trkpt lat="39.634462" lon="-8.683340">
<ele>415.5</ele>
<desc>Speed 17.7 km/h Distance 77.74 km</desc>
<time>2011-05-22T13:45:05.52</time>
<name>17387</name>
<sym>Dot</sym>
</trkpt>
<trkpt lat="39.634498" lon="-8.683313">
<ele>417.0</ele>
<desc>Speed 16.9 km/h Distance 77.75 km</desc>
<time>2011-05-22T13:45:06.52</time>
<name>17388</name>
<sym>Dot</sym>
</trkpt>
<trkpt lat="39.634533" lon="-8.683282">
<ele>418.0</ele>
<desc>Speed 17.1 km/h Distance 77.75 km</desc>
<time>2011-05-22T13:45:07.52</time>
<name>17389</name>
<sym>Dot</sym>
</trkpt>
<trkpt lat="39.634565" lon="-8.683247">
<ele>418.0</ele>
<desc>Speed 16.7 km/h Distance 77.76 km</desc>
<time>2011-05-22T13:45:08.52</time>
<name>17390</name>
<sym>Dot</sym>
</trkpt>
<trkpt lat="39.634592" lon="-8.683210">
<ele>418.0</ele>
<desc>Speed 16.0 km/h Distance 77.76 km</desc>
<time>2011-05-22T13:45:09.52</time>
<name>17391</name>
<sym>Dot</sym>
</trkpt>
<trkpt lat="39.634612" lon="-8.683167">
<ele>417.5</ele>
<desc>Speed 15.7 km/h Distance 77.76 km</desc>
<time>2011-05-22T13:45:10.52</time>
<name>17392</name>
<sym>Dot</sym>
</trkpt>
<trkpt lat="39.634630" lon="-8.683123">
<ele>417.5</ele>
<desc>Speed 15.0 km/h Distance 77.77 km</desc>
<time>2011-05-22T13:45:11.52</time>
<name>17393</name>
<sym>Dot</sym>
</trkpt>
<trkpt lat="39.634643" lon="-8.683082">
<ele>417.5</ele>
<desc>Speed 14.4 km/h Distance 77.77 km</desc>
<time>2011-05-22T13:45:12.52</time>
<name>17394</name>
<sym>Dot</sym>
</trkpt>
<trkpt lat="39.634657" lon="-8.683042">
<ele>417.5</ele>
<desc>Speed 13.6 km/h Distance 77.78 km</desc>
<time>2011-05-22T13:45:13.52</time>
<name>17395</name>
<sym>Dot</sym>
</trkpt>
<trkpt lat="39.634668" lon="-8.683003">
<ele>417.5</ele>
<desc>Speed 13.0 km/h Distance 77.78 km</desc>
<time>2011-05-22T13:45:14.52</time>
<name>17396</name>
<sym>Dot</sym>
</trkpt>
<trkpt lat="39.634675" lon="-8.682970">
<ele>417.0</ele>
<desc>Speed 10.3 km/h Distance 77.78 km</desc>
<time>2011-05-22T13:45:15.52</time>
<name>17397</name>
<sym>Dot</sym>
</trkpt>
<trkpt lat="39.634683" lon="-8.682942">
<ele>416.5</ele>
<desc>Speed 9.5 km/h Distance 77.79 km</desc>
<time>2011-05-22T13:45:16.52</time>
<name>17398</name>
<sym>Dot</sym>
</trkpt>
<trkpt lat="39.634690" lon="-8.682918">
<ele>416.5</ele>
<desc>Speed 8.3 km/h Distance 77.79 km</desc>
<time>2011-05-22T13:45:17.52</time>
<name>17399</name>
<sym>Dot</sym>
</trkpt>
<trkpt lat="39.634698" lon="-8.682893">
<ele>416.5</ele>
<desc>Speed 8.1 km/h Distance 77.79 km</desc>
<time>2011-05-22T13:45:18.52</time>
<name>17400</name>
<sym>Dot</sym>
</trkpt>
<trkpt lat="39.634707" lon="-8.682872">
<ele>417.0</ele>
<desc>Speed 7.7 km/h Distance 77.79 km</desc>
<time>2011-05-22T13:45:19.52</time>
<name>17401</name>
<sym>Dot</sym>
</trkpt>
<trkpt lat="39.634710" lon="-8.682853">
<ele>416.5</ele>
<desc>Speed 6.2 km/h Distance 77.79 km</desc>
<time>2011-05-22T13:45:20.51</time>
<name>17402</name>
<sym>Dot</sym>
</trkpt>
<trkpt lat="39.634715" lon="-8.682832">
<ele>416.5</ele>
<desc>Speed 7.0 km/h Distance 77.80 km</desc>
<time>2011-05-22T13:45:21.51</time>
<name>17403</name>
<sym>Dot</sym>
</trkpt>
<trkpt lat="39.634718" lon="-8.682810">
<ele>416.5</ele>
<desc>Speed 6.8 km/h Distance 77.80 km</desc>
<time>2011-05-22T13:45:22.51</time>
<name>17404</name>
<sym>Dot</sym>
</trkpt>
<trkpt lat="39.634725" lon="-8.682790">
<ele>416.5</ele>
<desc>Speed 6.4 km/h Distance 77.80 km</desc>
<time>2011-05-22T13:45:23.51</time>
<name>17405</name>
<sym>Dot</sym>
</trkpt>
<trkpt lat="39.634732" lon="-8.682773">
<ele>416.5</ele>
<desc>Speed 6.1 km/h Distance 77.80 km</desc>
<time>2011-05-22T13:45:24.51</time>
<name>17406</name>
<sym>Dot</sym>
</trkpt>
<trkpt lat="39.634735" lon="-8.682753">
<ele>416.5</ele>
<desc>Speed 5.9 km/h Distance 77.80 km</desc>
<time>2011-05-22T13:45:25.51</time>
<name>17407</name>
<sym>Dot</sym>
</trkpt>
<trkpt lat="39.634740" lon="-8.682735">
<ele>417.0</ele>
<desc>Speed 5.9 km/h Distance 77.80 km</desc>
<time>2011-05-22T13:45:26.51</time>
<name>17408</name>
<sym>Dot</sym>
</trkpt>
<trkpt lat="39.634745" lon="-8.682715">
<ele>417.0</ele>
<desc>Speed 6.4 km/h Distance 77.81 km</desc>
<time>2011-05-22T13:45:27.51</time>
<name>17409</name>
<sym>Dot</sym>
</trkpt>
<trkpt lat="39.634750" lon="-8.682695">
<ele>417.5</ele>
<desc>Speed 6.4 km/h Distance 77.81 km</desc>
<time>2011-05-22T13:45:28.51</time>
<name>17410</name>
<sym>Dot</sym>
</trkpt>
<trkpt lat="39.634755" lon="-8.682675">
<ele>417.5</ele>
<desc>Speed 6.8 km/h Distance 77.81 km</desc>
<time>2011-05-22T13:45:29.51</time>
<name>17411</name>
<sym>Dot</sym>
</trkpt>
<trkpt lat="39.634760" lon="-8.682655">
<ele>418.0</ele>
<desc>Speed 6.4 km/h Distance 77.81 km</desc>
<time>2011-05-22T13:45:30.51</time>
<name>17412</name>
<sym>Dot</sym>
</trkpt>
<trkpt lat="39.634765" lon="-8.682638">
<ele>418.5</ele>
<desc>Speed 5.8 km/h Distance 77.81 km</desc>
<time>2011-05-22T13:45:31.51</time>
<name>17413</name>
<sym>Dot</sym>
</trkpt>
<trkpt lat="39.634770" lon="-8.682622">
<ele>418.5</ele>
<desc>Speed 5.3 km/h Distance 77.81 km</desc>
<time>2011-05-22T13:45:32.51</time>
<name>17414</name>
<sym>Dot</sym>
</trkpt>
<trkpt lat="39.634777" lon="-8.682607">
<ele>418.5</ele>
<desc>Speed 5.3 km/h Distance 77.82 km</desc>
<time>2011-05-22T13:45:33.51</time>
<name>17415</name>
<sym>Dot</sym>
</trkpt>
<trkpt lat="39.634780" lon="-8.682588">
<ele>418.5</ele>
<desc>Speed 5.5 km/h Distance 77.82 km</desc>
<time>2011-05-22T13:45:34.51</time>
<name>17416</name>
<sym>Dot</sym>
</trkpt>
<trkpt lat="39.634787" lon="-8.682573">
<ele>418.0</ele>
<desc>Speed 5.4 km/h Distance 77.82 km</desc>
<time>2011-05-22T13:45:35.51</time>
<name>17417</name>
<sym>Dot</sym>
</trkpt>
<trkpt lat="39.634790" lon="-8.682560">
<ele>418.5</ele>
<desc>Speed 4.2 km/h Distance 77.82 km</desc>
<time>2011-05-22T13:45:36.51</time>
<name>17418</name>
<sym>Dot</sym>
</trkpt>
<trkpt lat="39.634795" lon="-8.682547">
<ele>418.5</ele>
<desc>Speed 4.4 km/h Distance 77.82 km</desc>
<time>2011-05-22T13:45:37.51</time>
<name>17419</name>
<sym>Dot</sym>
</trkpt>
<trkpt lat="39.634802" lon="-8.682532">
<ele>418.0</ele>
<desc>Speed 5.3 km/h Distance 77.82 km</desc>
<time>2011-05-22T13:45:38.51</time>
<name>17420</name>
<sym>Dot</sym>
</trkpt>
<trkpt lat="39.634808" lon="-8.682515">
<ele>417.0</ele>
<desc>Speed 5.5 km/h Distance 77.82 km</desc>
<time>2011-05-22T13:45:39.51</time>
<name>17421</name>
<sym>Dot</sym>
</trkpt>
<trkpt lat="39.634815" lon="-8.682500">
<ele>416.5</ele>
<desc>Speed 5.5 km/h Distance 77.83 km</desc>
<time>2011-05-22T13:45:40.51</time>
<name>17422</name>
<sym>Dot</sym>
</trkpt>
<trkpt lat="39.634822" lon="-8.682482">
<ele>415.5</ele>
<desc>Speed 5.9 km/h Distance 77.83 km</desc>
<time>2011-05-22T13:45:41.51</time>
<name>17423</name>
<sym>Dot</sym>
</trkpt>
<trkpt lat="39.634828" lon="-8.682467">
<ele>415.0</ele>
<desc>Speed 4.9 km/h Distance 77.83 km</desc>
<time>2011-05-22T13:45:42.51</time>
<name>17424</name>
<sym>Dot</sym>
</trkpt>
<trkpt lat="39.634832" lon="-8.682455">
<ele>415.0</ele>
<desc>Speed 4.1 km/h Distance 77.83 km</desc>
<time>2011-05-22T13:45:43.51</time>
<name>17425</name>
<sym>Dot</sym>
</trkpt>
<trkpt lat="39.634833" lon="-8.682447">
<ele>416.0</ele>
<desc>Speed 2.7 km/h Distance 77.83 km</desc>
<time>2011-05-22T13:45:44.51</time>
<name>17426</name>
<sym>Dot</sym>
</trkpt>
<trkpt lat="39.634837" lon="-8.682442">
<ele>415.5</ele>
<desc>Speed 1.9 km/h Distance 77.83 km</desc>
<time>2011-05-22T13:45:45.51</time>
<name>17427</name>
<sym>Dot</sym>
</trkpt>
<trkpt lat="39.634812" lon="-8.682395">
<ele>409.0</ele>
<desc>Speed 2.4 km/h Distance 77.84 km</desc>
<time>2011-05-22T13:47:35.51</time>
<name>17428</name>
<sym>Dot</sym>
</trkpt>
<trkpt lat="39.634807" lon="-8.682375">
<ele>409.5</ele>
<desc>Speed 1.9 km/h Distance 77.84 km</desc>
<time>2011-05-22T13:49:40.51</time>
<name>17429</name>
<sym>Dot</sym>
</trkpt>
<trkpt lat="39.634808" lon="-8.682368">
<ele>409.5</ele>
<desc>Speed 2.8 km/h Distance 77.84 km</desc>
<time>2011-05-22T13:49:41.51</time>
<name>17430</name>
<sym>Dot</sym>
</trkpt>
<trkpt lat="39.634808" lon="-8.682357">
<ele>410.0</ele>
<desc>Speed 4.4 km/h Distance 77.84 km</desc>
<time>2011-05-22T13:49:42.51</time>
<name>17431</name>
<sym>Dot</sym>
</trkpt>
<trkpt lat="39.634813" lon="-8.682342">
<ele>410.0</ele>
<desc>Speed 5.3 km/h Distance 77.84 km</desc>
<time>2011-05-22T13:49:43.51</time>
<name>17432</name>
<sym>Dot</sym>
</trkpt>
<trkpt lat="39.634823" lon="-8.682330">
<ele>410.5</ele>
<desc>Speed 5.5 km/h Distance 77.84 km</desc>
<time>2011-05-22T13:49:44.51</time>
<name>17433</name>
<sym>Dot</sym>
</trkpt>
<trkpt lat="39.634835" lon="-8.682327">
<ele>410.5</ele>
<desc>Speed 4.3 km/h Distance 77.84 km</desc>
<time>2011-05-22T13:49:45.51</time>
<name>17434</name>
<sym>Dot</sym>
</trkpt>
<trkpt lat="39.634843" lon="-8.682317">
<ele>411.5</ele>
<desc>Speed 3.9 km/h Distance 77.85 km</desc>
<time>2011-05-22T13:49:46.51</time>
<name>17435</name>
<sym>Dot</sym>
</trkpt>
<trkpt lat="39.634850" lon="-8.682298">
<ele>412.5</ele>
<desc>Speed 6.3 km/h Distance 77.85 km</desc>
<time>2011-05-22T13:49:47.51</time>
<name>17436</name>
<sym>Dot</sym>
</trkpt>
<trkpt lat="39.634858" lon="-8.682272">
<ele>412.5</ele>
<desc>Speed 8.6 km/h Distance 77.85 km</desc>
<time>2011-05-22T13:49:48.51</time>
<name>17437</name>
<sym>Dot</sym>
</trkpt>
<trkpt lat="39.634868" lon="-8.682240">
<ele>412.5</ele>
<desc>Speed 9.8 km/h Distance 77.85 km</desc>
<time>2011-05-22T13:49:49.51</time>
<name>17438</name>
<sym>Dot</sym>
</trkpt>
<trkpt lat="39.634877" lon="-8.682207">
<ele>412.5</ele>
<desc>Speed 10.1 km/h Distance 77.86 km</desc>
<time>2011-05-22T13:49:50.51</time>
<name>17439</name>
<sym>Dot</sym>
</trkpt>
<trkpt lat="39.634887" lon="-8.682175">
<ele>412.5</ele>
<desc>Speed 10.6 km/h Distance 77.86 km</desc>
<time>2011-05-22T13:49:51.51</time>
<name>17440</name>
<sym>Dot</sym>
</trkpt>
<trkpt lat="39.634900" lon="-8.682140">
<ele>412.5</ele>
<desc>Speed 11.2 km/h Distance 77.86 km</desc>
<time>2011-05-22T13:49:52.51</time>
<name>17441</name>
<sym>Dot</sym>
</trkpt>
<trkpt lat="39.634913" lon="-8.682103">
<ele>412.5</ele>
<desc>Speed 11.8 km/h Distance 77.87 km</desc>
<time>2011-05-22T13:49:53.51</time>
<name>17442</name>
<sym>Dot</sym>
</trkpt>
<trkpt lat="39.634923" lon="-8.682067">
<ele>412.5</ele>
<desc>Speed 11.6 km/h Distance 77.87 km</desc>
<time>2011-05-22T13:49:54.51</time>
<name>17443</name>
<sym>Dot</sym>
</trkpt>
<trkpt lat="39.634933" lon="-8.682028">
<ele>412.5</ele>
<desc>Speed 11.8 km/h Distance 77.87 km</desc>
<time>2011-05-22T13:49:55.51</time>
<name>17444</name>
<sym>Dot</sym>
</trkpt>
<trkpt lat="39.634945" lon="-8.681992">
<ele>412.0</ele>
<desc>Speed 11.7 km/h Distance 77.88 km</desc>
<time>2011-05-22T13:49:56.51</time>
<name>17445</name>
<sym>Dot</sym>
</trkpt>
<trkpt lat="39.634958" lon="-8.681955">
<ele>412.0</ele>
<desc>Speed 11.5 km/h Distance 77.88 km</desc>
<time>2011-05-22T13:49:57.51</time>
<name>17446</name>
<sym>Dot</sym>
</trkpt>
<trkpt lat="39.634968" lon="-8.681922">
<ele>412.0</ele>
<desc>Speed 11.0 km/h Distance 77.88 km</desc>
<time>2011-05-22T13:49:58.51</time>
<name>17447</name>
<sym>Dot</sym>
</trkpt>
<trkpt lat="39.634980" lon="-8.681888">
<ele>412.0</ele>
<desc>Speed 11.1 km/h Distance 77.89 km</desc>
<time>2011-05-22T13:49:59.51</time>
<name>17448</name>
<sym>Dot</sym>
</trkpt>
<trkpt lat="39.634993" lon="-8.681853">
<ele>412.5</ele>
<desc>Speed 11.2 km/h Distance 77.89 km</desc>
<time>2011-05-22T13:50:00.51</time>
<name>17449</name>
<sym>Dot</sym>
</trkpt>
<trkpt lat="39.635005" lon="-8.681818">
<ele>412.5</ele>
<desc>Speed 11.3 km/h Distance 77.89 km</desc>
<time>2011-05-22T13:50:01.51</time>
<name>17450</name>
<sym>Dot</sym>
</trkpt>
<trkpt lat="39.635017" lon="-8.681782">
<ele>412.5</ele>
<desc>Speed 11.7 km/h Distance 77.90 km</desc>
<time>2011-05-22T13:50:02.51</time>
<name>17451</name>
<sym>Dot</sym>
</trkpt>
<trkpt lat="39.635028" lon="-8.681743">
<ele>412.5</ele>
<desc>Speed 12.1 km/h Distance 77.90 km</desc>
<time>2011-05-22T13:50:03.51</time>
<name>17452</name>
<sym>Dot</sym>
</trkpt>
<trkpt lat="39.635042" lon="-8.681707">
<ele>412.5</ele>
<desc>Speed 12.5 km/h Distance 77.90 km</desc>
<time>2011-05-22T13:50:04.51</time>
<name>17453</name>
<sym>Dot</sym>
</trkpt>
<trkpt lat="39.635053" lon="-8.681668">
<ele>412.5</ele>
<desc>Speed 12.4 km/h Distance 77.91 km</desc>
<time>2011-05-22T13:50:05.51</time>
<name>17454</name>
<sym>Dot</sym>
</trkpt>
<trkpt lat="39.635065" lon="-8.681630">
<ele>412.5</ele>
<desc>Speed 12.5 km/h Distance 77.91 km</desc>
<time>2011-05-22T13:50:06.51</time>
<name>17455</name>
<sym>Dot</sym>
</trkpt>
<trkpt lat="39.635078" lon="-8.681592">
<ele>411.5</ele>
<desc>Speed 12.6 km/h Distance 77.91 km</desc>
<time>2011-05-22T13:50:07.51</time>
<name>17456</name>
<sym>Dot</sym>
</trkpt>
<trkpt lat="39.635088" lon="-8.681553">
<ele>411.0</ele>
<desc>Speed 12.5 km/h Distance 77.92 km</desc>
<time>2011-05-22T13:50:08.51</time>
<name>17457</name>
<sym>Dot</sym>
</trkpt>
<trkpt lat="39.635100" lon="-8.681512">
<ele>411.0</ele>
<desc>Speed 13.0 km/h Distance 77.92 km</desc>
<time>2011-05-22T13:50:09.51</time>
<name>17458</name>
<sym>Dot</sym>
</trkpt>
<trkpt lat="39.635110" lon="-8.681470">
<ele>411.5</ele>
<desc>Speed 13.1 km/h Distance 77.92 km</desc>
<time>2011-05-22T13:50:10.51</time>
<name>17459</name>
<sym>Dot</sym>
</trkpt>
<trkpt lat="39.635120" lon="-8.681428">
<ele>411.5</ele>
<desc>Speed 13.4 km/h Distance 77.93 km</desc>
<time>2011-05-22T13:50:11.51</time>
<name>17460</name>
<sym>Dot</sym>
</trkpt>
<trkpt lat="39.635132" lon="-8.681385">
<ele>411.0</ele>
<desc>Speed 13.5 km/h Distance 77.93 km</desc>
<time>2011-05-22T13:50:12.51</time>
<name>17461</name>
<sym>Dot</sym>
</trkpt>
<trkpt lat="39.635145" lon="-8.681343">
<ele>410.5</ele>
<desc>Speed 13.3 km/h Distance 77.94 km</desc>
<time>2011-05-22T13:50:13.51</time>
<name>17462</name>
<sym>Dot</sym>
</trkpt>
<trkpt lat="39.635157" lon="-8.681303">
<ele>410.5</ele>
<desc>Speed 13.2 km/h Distance 77.94 km</desc>
<time>2011-05-22T13:50:14.51</time>
<name>17463</name>
<sym>Dot</sym>
</trkpt>
<trkpt lat="39.635168" lon="-8.681260">
<ele>410.5</ele>
<desc>Speed 13.2 km/h Distance 77.94 km</desc>
<time>2011-05-22T13:50:15.51</time>
<name>17464</name>
<sym>Dot</sym>
</trkpt>
<trkpt lat="39.635180" lon="-8.681218">
<ele>410.0</ele>
<desc>Speed 13.2 km/h Distance 77.95 km</desc>
<time>2011-05-22T13:50:16.51</time>
<name>17465</name>
<sym>Dot</sym>
</trkpt>
<trkpt lat="39.635192" lon="-8.681178">
<ele>409.5</ele>
<desc>Speed 13.5 km/h Distance 77.95 km</desc>
<time>2011-05-22T13:50:17.51</time>
<name>17466</name>
<sym>Dot</sym>
</trkpt>
<trkpt lat="39.635203" lon="-8.681138">
<ele>409.5</ele>
<desc>Speed 12.3 km/h Distance 77.95 km</desc>
<time>2011-05-22T13:50:18.51</time>
<name>17467</name>
<sym>Dot</sym>
</trkpt>
<trkpt lat="39.635217" lon="-8.681103">
<ele>409.5</ele>
<desc>Speed 12.2 km/h Distance 77.96 km</desc>
<time>2011-05-22T13:50:19.51</time>
<name>17468</name>
<sym>Dot</sym>
</trkpt>
<trkpt lat="39.635228" lon="-8.681067">
<ele>409.5</ele>
<desc>Speed 12.2 km/h Distance 77.96 km</desc>
<time>2011-05-22T13:50:20.51</time>
<name>17469</name>
<sym>Dot</sym>
</trkpt>
<trkpt lat="39.635242" lon="-8.681030">
<ele>408.5</ele>
<desc>Speed 12.2 km/h Distance 77.96 km</desc>
<time>2011-05-22T13:50:21.51</time>
<name>17470</name>
<sym>Dot</sym>
</trkpt>
<trkpt lat="39.635250" lon="-8.680992">
<ele>408.5</ele>
<desc>Speed 12.0 km/h Distance 77.97 km</desc>
<time>2011-05-22T13:50:22.51</time>
<name>17471</name>
<sym>Dot</sym>
</trkpt>
<trkpt lat="39.635258" lon="-8.680953">
<ele>408.5</ele>
<desc>Speed 12.2 km/h Distance 77.97 km</desc>
<time>2011-05-22T13:50:23.51</time>
<name>17472</name>
<sym>Dot</sym>
</trkpt>
<trkpt lat="39.635267" lon="-8.680917">
<ele>408.5</ele>
<desc>Speed 11.4 km/h Distance 77.97 km</desc>
<time>2011-05-22T13:50:24.51</time>
<name>17473</name>
<sym>Dot</sym>
</trkpt>
<trkpt lat="39.635273" lon="-8.680878">
<ele>409.0</ele>
<desc>Speed 11.8 km/h Distance 77.98 km</desc>
<time>2011-05-22T13:50:25.51</time>
<name>17474</name>
<sym>Dot</sym>
</trkpt>
<trkpt lat="39.635285" lon="-8.680842">
<ele>409.0</ele>
<desc>Speed 11.9 km/h Distance 77.98 km</desc>
<time>2011-05-22T13:50:26.51</time>
<name>17475</name>
<sym>Dot</sym>
</trkpt>
<trkpt lat="39.635295" lon="-8.680803">
<ele>409.5</ele>
<desc>Speed 12.0 km/h Distance 77.99 km</desc>
<time>2011-05-22T13:50:27.51</time>
<name>17476</name>
<sym>Dot</sym>
</trkpt>
<trkpt lat="39.635305" lon="-8.680765">
<ele>409.5</ele>
<desc>Speed 12.2 km/h Distance 77.99 km</desc>
<time>2011-05-22T13:50:28.51</time>
<name>17477</name>
<sym>Dot</sym>
</trkpt>
<trkpt lat="39.635312" lon="-8.680725">
<ele>409.5</ele>
<desc>Speed 12.3 km/h Distance 77.99 km</desc>
<time>2011-05-22T13:50:29.51</time>
<name>17478</name>
<sym>Dot</sym>
</trkpt>
<trkpt lat="39.635320" lon="-8.680685">
<ele>409.5</ele>
<desc>Speed 12.3 km/h Distance 78.00 km</desc>
<time>2011-05-22T13:50:30.51</time>
<name>17479</name>
<sym>Dot</sym>
</trkpt>
<trkpt lat="39.635330" lon="-8.680648">
<ele>410.0</ele>
<desc>Speed 12.0 km/h Distance 78.00 km</desc>
<time>2011-05-22T13:50:31.51</time>
<name>17480</name>
<sym>Dot</sym>
</trkpt>
<trkpt lat="39.635340" lon="-8.680613">
<ele>410.5</ele>
<desc>Speed 11.4 km/h Distance 78.00 km</desc>
<time>2011-05-22T13:50:32.51</time>
<name>17481</name>
<sym>Dot</sym>
</trkpt>
<trkpt lat="39.635347" lon="-8.680578">
<ele>411.5</ele>
<desc>Speed 10.5 km/h Distance 78.01 km</desc>
<time>2011-05-22T13:50:33.51</time>
<name>17482</name>
<sym>Dot</sym>
</trkpt>
<trkpt lat="39.635357" lon="-8.680550">
<ele>413.0</ele>
<desc>Speed 9.6 km/h Distance 78.01 km</desc>
<time>2011-05-22T13:50:34.51</time>
<name>17483</name>
<sym>Dot</sym>
</trkpt>
<trkpt lat="39.635362" lon="-8.680518">
<ele>415.0</ele>
<desc>Speed 9.8 km/h Distance 78.01 km</desc>
<time>2011-05-22T13:50:35.51</time>
<name>17484</name>
<sym>Dot</sym>
</trkpt>
<trkpt lat="39.635368" lon="-8.680485">
<ele>416.0</ele>
<desc>Speed 10.4 km/h Distance 78.01 km</desc>
<time>2011-05-22T13:50:36.51</time>
<name>17485</name>
<sym>Dot</sym>
</trkpt>
<trkpt lat="39.635375" lon="-8.680448">
<ele>416.5</ele>
<desc>Speed 11.6 km/h Distance 78.02 km</desc>
<time>2011-05-22T13:50:37.51</time>
<name>17486</name>
<sym>Dot</sym>
</trkpt>
<trkpt lat="39.635383" lon="-8.680412">
<ele>416.5</ele>
<desc>Speed 11.5 km/h Distance 78.02 km</desc>
<time>2011-05-22T13:50:38.51</time>
<name>17487</name>
<sym>Dot</sym>
</trkpt>
<trkpt lat="39.635392" lon="-8.680378">
<ele>417.0</ele>
<desc>Speed 10.5 km/h Distance 78.02 km</desc>
<time>2011-05-22T13:50:39.51</time>
<name>17488</name>
<sym>Dot</sym>
</trkpt>
<trkpt lat="39.635400" lon="-8.680348">
<ele>417.0</ele>
<desc>Speed 9.9 km/h Distance 78.03 km</desc>
<time>2011-05-22T13:50:40.51</time>
<name>17489</name>
<sym>Dot</sym>
</trkpt>
<trkpt lat="39.635408" lon="-8.680320">
<ele>417.0</ele>
<desc>Speed 9.2 km/h Distance 78.03 km</desc>
<time>2011-05-22T13:50:41.51</time>
<name>17490</name>
<sym>Dot</sym>
</trkpt>
<trkpt lat="39.635417" lon="-8.680293">
<ele>417.0</ele>
<desc>Speed 8.4 km/h Distance 78.03 km</desc>
<time>2011-05-22T13:50:42.51</time>
<name>17491</name>
<sym>Dot</sym>
</trkpt>
<trkpt lat="39.635423" lon="-8.680268">
<ele>416.5</ele>
<desc>Speed 7.6 km/h Distance 78.03 km</desc>
<time>2011-05-22T13:50:43.51</time>
<name>17492</name>
<sym>Dot</sym>
</trkpt>
<trkpt lat="39.635430" lon="-8.680243">
<ele>417.5</ele>
<desc>Speed 7.5 km/h Distance 78.04 km</desc>
<time>2011-05-22T13:50:44.51</time>
<name>17493</name>
<sym>Dot</sym>
</trkpt>
<trkpt lat="39.635437" lon="-8.680218">
<ele>417.5</ele>
<desc>Speed 7.9 km/h Distance 78.04 km</desc>
<time>2011-05-22T13:50:45.51</time>
<name>17494</name>
<sym>Dot</sym>
</trkpt>
<trkpt lat="39.635447" lon="-8.680192">
<ele>417.5</ele>
<desc>Speed 8.7 km/h Distance 78.04 km</desc>
<time>2011-05-22T13:50:46.51</time>
<name>17495</name>
<sym>Dot</sym>
</trkpt>
<trkpt lat="39.635457" lon="-8.680162">
<ele>417.5</ele>
<desc>Speed 9.3 km/h Distance 78.04 km</desc>
<time>2011-05-22T13:50:47.51</time>
<name>17496</name>
<sym>Dot</sym>
</trkpt>
<trkpt lat="39.635475" lon="-8.680138">
<ele>417.0</ele>
<desc>Speed 9.9 km/h Distance 78.05 km</desc>
<time>2011-05-22T13:50:48.51</time>
<name>17497</name>
<sym>Dot</sym>
</trkpt>
<trkpt lat="39.635485" lon="-8.680105">
<ele>417.0</ele>
<desc>Speed 10.1 km/h Distance 78.05 km</desc>
<time>2011-05-22T13:50:49.51</time>
<name>17498</name>
<sym>Dot</sym>
</trkpt>
<trkpt lat="39.635493" lon="-8.680072">
<ele>416.5</ele>
<desc>Speed 10.5 km/h Distance 78.05 km</desc>
<time>2011-05-22T13:50:50.51</time>
<name>17499</name>
<sym>Dot</sym>
</trkpt>
<trkpt lat="39.635503" lon="-8.680038">
<ele>415.0</ele>
<desc>Speed 10.7 km/h Distance 78.06 km</desc>
<time>2011-05-22T13:50:51.51</time>
<name>17500</name>
<sym>Dot</sym>
</trkpt>
<trkpt lat="39.635512" lon="-8.680005">
<ele>414.0</ele>
<desc>Speed 10.0 km/h Distance 78.06 km</desc>
<time>2011-05-22T13:50:52.51</time>
<name>17501</name>
<sym>Dot</sym>
</trkpt>
<trkpt lat="39.635520" lon="-8.679973">
<ele>413.0</ele>
<desc>Speed 9.9 km/h Distance 78.06 km</desc>
<time>2011-05-22T13:50:53.51</time>
<name>17502</name>
<sym>Dot</sym>
</trkpt>
<trkpt lat="39.635528" lon="-8.679942">
<ele>412.5</ele>
<desc>Speed 10.1 km/h Distance 78.06 km</desc>
<time>2011-05-22T13:50:54.51</time>
<name>17503</name>
<sym>Dot</sym>
</trkpt>
<trkpt lat="39.635533" lon="-8.679908">
<ele>412.5</ele>
<desc>Speed 9.9 km/h Distance 78.07 km</desc>
<time>2011-05-22T13:50:55.51</time>
<name>17504</name>
<sym>Dot</sym>
</trkpt>
<trkpt lat="39.635540" lon="-8.679880">
<ele>413.0</ele>
<desc>Speed 9.4 km/h Distance 78.07 km</desc>
<time>2011-05-22T13:50:56.51</time>
<name>17505</name>
<sym>Dot</sym>
</trkpt>
<trkpt lat="39.635548" lon="-8.679848">
<ele>413.0</ele>
<desc>Speed 10.1 km/h Distance 78.07 km</desc>
<time>2011-05-22T13:50:57.51</time>
<name>17506</name>
<sym>Dot</sym>
</trkpt>
<trkpt lat="39.635557" lon="-8.679823">
<ele>414.0</ele>
<desc>Speed 8.2 km/h Distance 78.07 km</desc>
<time>2011-05-22T13:50:58.51</time>
<name>17507</name>
<sym>Dot</sym>
</trkpt>
<trkpt lat="39.635568" lon="-8.679798">
<ele>414.5</ele>
<desc>Speed 8.6 km/h Distance 78.08 km</desc>
<time>2011-05-22T13:50:59.51</time>
<name>17508</name>
<sym>Dot</sym>
</trkpt>
<trkpt lat="39.635573" lon="-8.679772">
<ele>414.5</ele>
<desc>Speed 8.4 km/h Distance 78.08 km</desc>
<time>2011-05-22T13:51:00.51</time>
<name>17509</name>
<sym>Dot</sym>
</trkpt>
<trkpt lat="39.635583" lon="-8.679753">
<ele>416.5</ele>
<desc>Speed 6.7 km/h Distance 78.08 km</desc>
<time>2011-05-22T13:51:01.51</time>
<name>17510</name>
<sym>Dot</sym>
</trkpt>
<trkpt lat="39.635590" lon="-8.679735">
<ele>418.5</ele>
<desc>Speed 6.4 km/h Distance 78.08 km</desc>
<time>2011-05-22T13:51:02.51</time>
<name>17511</name>
<sym>Dot</sym>
</trkpt>
<trkpt lat="39.635598" lon="-8.679712">
<ele>420.0</ele>
<desc>Speed 7.4 km/h Distance 78.09 km</desc>
<time>2011-05-22T13:51:03.51</time>
<name>17512</name>
<sym>Dot</sym>
</trkpt>
<trkpt lat="39.635607" lon="-8.679687">
<ele>421.0</ele>
<desc>Speed 8.2 km/h Distance 78.09 km</desc>
<time>2011-05-22T13:51:04.51</time>
<name>17513</name>
<sym>Dot</sym>
</trkpt>
<trkpt lat="39.635615" lon="-8.679657">
<ele>421.5</ele>
<desc>Speed 9.3 km/h Distance 78.09 km</desc>
<time>2011-05-22T13:51:05.51</time>
<name>17514</name>
<sym>Dot</sym>
</trkpt>
<trkpt lat="39.635625" lon="-8.679627">
<ele>422.0</ele>
<desc>Speed 10.1 km/h Distance 78.09 km</desc>
<time>2011-05-22T13:51:06.51</time>
<name>17515</name>
<sym>Dot</sym>
</trkpt>
<trkpt lat="39.635637" lon="-8.679595">
<ele>422.0</ele>
<desc>Speed 10.1 km/h Distance 78.10 km</desc>
<time>2011-05-22T13:51:07.51</time>
<name>17516</name>
<sym>Dot</sym>
</trkpt>
<trkpt lat="39.635647" lon="-8.679560">
<ele>422.0</ele>
<desc>Speed 11.0 km/h Distance 78.10 km</desc>
<time>2011-05-22T13:51:08.51</time>
<name>17517</name>
<sym>Dot</sym>
</trkpt>
<trkpt lat="39.635658" lon="-8.679523">
<ele>421.5</ele>
<desc>Speed 11.4 km/h Distance 78.10 km</desc>
<time>2011-05-22T13:51:09.51</time>
<name>17518</name>
<sym>Dot</sym>
</trkpt>
<trkpt lat="39.635667" lon="-8.679488">
<ele>421.5</ele>
<desc>Speed 10.9 km/h Distance 78.11 km</desc>
<time>2011-05-22T13:51:10.51</time>
<name>17519</name>
<sym>Dot</sym>
</trkpt>
<trkpt lat="39.635675" lon="-8.679455">
<ele>422.5</ele>
<desc>Speed 10.7 km/h Distance 78.11 km</desc>
<time>2011-05-22T13:51:11.51</time>
<name>17520</name>
<sym>Dot</sym>
</trkpt>
<trkpt lat="39.635685" lon="-8.679422">
<ele>423.0</ele>
<desc>Speed 10.7 km/h Distance 78.11 km</desc>
<time>2011-05-22T13:51:12.51</time>
<name>17521</name>
<sym>Dot</sym>
</trkpt>
<trkpt lat="39.635695" lon="-8.679387">
<ele>423.0</ele>
<desc>Speed 11.1 km/h Distance 78.12 km</desc>
<time>2011-05-22T13:51:13.51</time>
<name>17522</name>
<sym>Dot</sym>
</trkpt>
<trkpt lat="39.635705" lon="-8.679352">
<ele>423.0</ele>
<desc>Speed 10.8 km/h Distance 78.12 km</desc>
<time>2011-05-22T13:51:14.51</time>
<name>17523</name>
<sym>Dot</sym>
</trkpt>
<trkpt lat="39.635715" lon="-8.679318">
<ele>423.0</ele>
<desc>Speed 11.0 km/h Distance 78.12 km</desc>
<time>2011-05-22T13:51:15.51</time>
<name>17524</name>
<sym>Dot</sym>
</trkpt>
<trkpt lat="39.635723" lon="-8.679283">
<ele>423.0</ele>
<desc>Speed 10.8 km/h Distance 78.12 km</desc>
<time>2011-05-22T13:51:16.51</time>
<name>17525</name>
<sym>Dot</sym>
</trkpt>
<trkpt lat="39.635733" lon="-8.679252">
<ele>423.0</ele>
<desc>Speed 10.3 km/h Distance 78.13 km</desc>
<time>2011-05-22T13:51:17.51</time>
<name>17526</name>
<sym>Dot</sym>
</trkpt>
<trkpt lat="39.635743" lon="-8.679218">
<ele>423.5</ele>
<desc>Speed 10.3 km/h Distance 78.13 km</desc>
<time>2011-05-22T13:51:18.51</time>
<name>17527</name>
<sym>Dot</sym>
</trkpt>
<trkpt lat="39.635753" lon="-8.679185">
<ele>423.0</ele>
<desc>Speed 10.6 km/h Distance 78.13 km</desc>
<time>2011-05-22T13:51:19.51</time>
<name>17528</name>
<sym>Dot</sym>
</trkpt>
<trkpt lat="39.635765" lon="-8.679152">
<ele>423.5</ele>
<desc>Speed 10.8 km/h Distance 78.14 km</desc>
<time>2011-05-22T13:51:20.51</time>
<name>17529</name>
<sym>Dot</sym>
</trkpt>
<trkpt lat="39.635772" lon="-8.679130">
<ele>423.0</ele>
<desc>Speed 7.1 km/h Distance 78.14 km</desc>
<time>2011-05-22T13:51:21.51</time>
<name>17530</name>
<sym>Dot</sym>
</trkpt>
<trkpt lat="39.635783" lon="-8.679102">
<ele>423.0</ele>
<desc>Speed 9.0 km/h Distance 78.14 km</desc>
<time>2011-05-22T13:51:22.51</time>
<name>17531</name>
<sym>Dot</sym>
</trkpt>
<trkpt lat="39.635792" lon="-8.679072">
<ele>424.5</ele>
<desc>Speed 9.0 km/h Distance 78.14 km</desc>
<time>2011-05-22T13:51:23.51</time>
<name>17532</name>
<sym>Dot</sym>
</trkpt>
<trkpt lat="39.635798" lon="-8.679040">
<ele>425.5</ele>
<desc>Speed 9.3 km/h Distance 78.15 km</desc>
<time>2011-05-22T13:51:24.51</time>
<name>17533</name>
<sym>Dot</sym>
</trkpt>
<trkpt lat="39.635807" lon="-8.679008">
<ele>426.0</ele>
<desc>Speed 9.8 km/h Distance 78.15 km</desc>
<time>2011-05-22T13:51:25.51</time>
<name>17534</name>
<sym>Dot</sym>
</trkpt>
<trkpt lat="39.635820" lon="-8.678978">
<ele>426.5</ele>
<desc>Speed 10.4 km/h Distance 78.15 km</desc>
<time>2011-05-22T13:51:26.51</time>
<name>17535</name>
<sym>Dot</sym>
</trkpt>
<trkpt lat="39.635830" lon="-8.678943">
<ele>426.0</ele>
<desc>Speed 10.8 km/h Distance 78.16 km</desc>
<time>2011-05-22T13:51:27.51</time>
<name>17536</name>
<sym>Dot</sym>
</trkpt>
<trkpt lat="39.635842" lon="-8.678912">
<ele>425.5</ele>
<desc>Speed 10.4 km/h Distance 78.16 km</desc>
<time>2011-05-22T13:51:28.51</time>
<name>17537</name>
<sym>Dot</sym>
</trkpt>
<trkpt lat="39.635852" lon="-8.678877">
<ele>425.5</ele>
<desc>Speed 10.5 km/h Distance 78.16 km</desc>
<time>2011-05-22T13:51:29.51</time>
<name>17538</name>
<sym>Dot</sym>
</trkpt>
<trkpt lat="39.635860" lon="-8.678842">
<ele>426.0</ele>
<desc>Speed 10.9 km/h Distance 78.17 km</desc>
<time>2011-05-22T13:51:30.51</time>
<name>17539</name>
<sym>Dot</sym>
</trkpt>
<trkpt lat="39.635868" lon="-8.678805">
<ele>425.5</ele>
<desc>Speed 11.3 km/h Distance 78.17 km</desc>
<time>2011-05-22T13:51:31.51</time>
<name>17540</name>
<sym>Dot</sym>
</trkpt>
<trkpt lat="39.635877" lon="-8.678765">
<ele>425.0</ele>
<desc>Speed 12.6 km/h Distance 78.17 km</desc>
<time>2011-05-22T13:51:32.51</time>
<name>17541</name>
<sym>Dot</sym>
</trkpt>
<trkpt lat="39.635887" lon="-8.678728">
<ele>425.0</ele>
<desc>Speed 11.5 km/h Distance 78.18 km</desc>
<time>2011-05-22T13:51:33.51</time>
<name>17542</name>
<sym>Dot</sym>
</trkpt>
<trkpt lat="39.635893" lon="-8.678700">
<ele>425.0</ele>
<desc>Speed 8.9 km/h Distance 78.18 km</desc>
<time>2011-05-22T13:51:34.51</time>
<name>17543</name>
<sym>Dot</sym>
</trkpt>
<trkpt lat="39.635900" lon="-8.678672">
<ele>425.0</ele>
<desc>Speed 8.6 km/h Distance 78.18 km</desc>
<time>2011-05-22T13:51:35.51</time>
<name>17544</name>
<sym>Dot</sym>
</trkpt>
<trkpt lat="39.635913" lon="-8.678637">
<ele>424.5</ele>
<desc>Speed 11.7 km/h Distance 78.18 km</desc>
<time>2011-05-22T13:51:36.51</time>
<name>17545</name>
<sym>Dot</sym>
</trkpt>
<trkpt lat="39.635925" lon="-8.678602">
<ele>424.0</ele>
<desc>Speed 11.2 km/h Distance 78.19 km</desc>
<time>2011-05-22T13:51:37.51</time>
<name>17546</name>
<sym>Dot</sym>
</trkpt>
<trkpt lat="39.635937" lon="-8.678577">
<ele>426.0</ele>
<desc>Speed 8.6 km/h Distance 78.19 km</desc>
<time>2011-05-22T13:51:38.51</time>
<name>17547</name>
<sym>Dot</sym>
</trkpt>
<trkpt lat="39.635950" lon="-8.678550">
<ele>427.0</ele>
<desc>Speed 9.5 km/h Distance 78.19 km</desc>
<time>2011-05-22T13:51:39.51</time>
<name>17548</name>
<sym>Dot</sym>
</trkpt>
<trkpt lat="39.635962" lon="-8.678515">
<ele>427.0</ele>
<desc>Speed 11.6 km/h Distance 78.20 km</desc>
<time>2011-05-22T13:51:40.51</time>
<name>17549</name>
<sym>Dot</sym>
</trkpt>
<trkpt lat="39.635972" lon="-8.678478">
<ele>426.5</ele>
<desc>Speed 11.5 km/h Distance 78.20 km</desc>
<time>2011-05-22T13:51:41.51</time>
<name>17550</name>
<sym>Dot</sym>
</trkpt>
<trkpt lat="39.635982" lon="-8.678443">
<ele>426.5</ele>
<desc>Speed 11.0 km/h Distance 78.20 km</desc>
<time>2011-05-22T13:51:42.51</time>
<name>17551</name>
<sym>Dot</sym>
</trkpt>
<trkpt lat="39.635988" lon="-8.678405">
<ele>427.0</ele>
<desc>Speed 11.5 km/h Distance 78.21 km</desc>
<time>2011-05-22T13:51:43.51</time>
<name>17552</name>
<sym>Dot</sym>
</trkpt>
<trkpt lat="39.635997" lon="-8.678368">
<ele>427.0</ele>
<desc>Speed 11.3 km/h Distance 78.21 km</desc>
<time>2011-05-22T13:51:44.51</time>
<name>17553</name>
<sym>Dot</sym>
</trkpt>
<trkpt lat="39.636005" lon="-8.678332">
<ele>427.5</ele>
<desc>Speed 10.6 km/h Distance 78.21 km</desc>
<time>2011-05-22T13:51:45.51</time>
<name>17554</name>
<sym>Dot</sym>
</trkpt>
<trkpt lat="39.636007" lon="-8.678295">
<ele>428.5</ele>
<desc>Speed 10.5 km/h Distance 78.22 km</desc>
<time>2011-05-22T13:51:46.51</time>
<name>17555</name>
<sym>Dot</sym>
</trkpt>
<trkpt lat="39.636008" lon="-8.678260">
<ele>429.0</ele>
<desc>Speed 10.7 km/h Distance 78.22 km</desc>
<time>2011-05-22T13:51:47.51</time>
<name>17556</name>
<sym>Dot</sym>
</trkpt>
<trkpt lat="39.636008" lon="-8.678222">
<ele>429.0</ele>
<desc>Speed 11.1 km/h Distance 78.22 km</desc>
<time>2011-05-22T13:51:48.51</time>
<name>17557</name>
<sym>Dot</sym>
</trkpt>
<trkpt lat="39.636003" lon="-8.678183">
<ele>429.0</ele>
<desc>Speed 11.4 km/h Distance 78.22 km</desc>
<time>2011-05-22T13:51:49.51</time>
<name>17558</name>
<sym>Dot</sym>
</trkpt>
<trkpt lat="39.635992" lon="-8.678150">
<ele>429.0</ele>
<desc>Speed 10.8 km/h Distance 78.23 km</desc>
<time>2011-05-22T13:51:50.51</time>
<name>17559</name>
<sym>Dot</sym>
</trkpt>
<trkpt lat="39.635980" lon="-8.678113">
<ele>428.5</ele>
<desc>Speed 11.7 km/h Distance 78.23 km</desc>
<time>2011-05-22T13:51:51.51</time>
<name>17560</name>
<sym>Dot</sym>
</trkpt>
<trkpt lat="39.635965" lon="-8.678087">
<ele>428.5</ele>
<desc>Speed 10.4 km/h Distance 78.23 km</desc>
<time>2011-05-22T13:51:52.51</time>
<name>17561</name>
<sym>Dot</sym>
</trkpt>
<trkpt lat="39.635950" lon="-8.678062">
<ele>428.5</ele>
<desc>Speed 10.2 km/h Distance 78.24 km</desc>
<time>2011-05-22T13:51:53.51</time>
<name>17562</name>
<sym>Dot</sym>
</trkpt>
<trkpt lat="39.635933" lon="-8.678040">
<ele>428.0</ele>
<desc>Speed 9.3 km/h Distance 78.24 km</desc>
<time>2011-05-22T13:51:54.51</time>
<name>17563</name>
<sym>Dot</sym>
</trkpt>
<trkpt lat="39.635918" lon="-8.678030">
<ele>428.5</ele>
<desc>Speed 8.0 km/h Distance 78.24 km</desc>
<time>2011-05-22T13:51:55.51</time>
<name>17564</name>
<sym>Dot</sym>
</trkpt>
<trkpt lat="39.635908" lon="-8.678022">
<ele>428.5</ele>
<desc>Speed 5.9 km/h Distance 78.24 km</desc>
<time>2011-05-22T13:51:56.51</time>
<name>17565</name>
<sym>Dot</sym>
</trkpt>
<trkpt lat="39.635897" lon="-8.678028">
<ele>429.5</ele>
<desc>Speed 5.8 km/h Distance 78.24 km</desc>
<time>2011-05-22T13:51:57.51</time>
<name>17566</name>
<sym>Dot</sym>
</trkpt>
<trkpt lat="39.635887" lon="-8.678025">
<ele>430.5</ele>
<desc>Speed 5.6 km/h Distance 78.25 km</desc>
<time>2011-05-22T13:51:58.51</time>
<name>17567</name>
<sym>Dot</sym>
</trkpt>
<trkpt lat="39.635875" lon="-8.678008">
<ele>431.0</ele>
<desc>Speed 7.4 km/h Distance 78.25 km</desc>
<time>2011-05-22T13:51:59.51</time>
<name>17568</name>
<sym>Dot</sym>
</trkpt>
<trkpt lat="39.635867" lon="-8.677995">
<ele>431.5</ele>
<desc>Speed 5.9 km/h Distance 78.25 km</desc>
<time>2011-05-22T13:52:00.51</time>
<name>17569</name>
<sym>Dot</sym>
</trkpt>
<trkpt lat="39.635855" lon="-8.677990">
<ele>432.0</ele>
<desc>Speed 5.4 km/h Distance 78.25 km</desc>
<time>2011-05-22T13:52:01.51</time>
<name>17570</name>
<sym>Dot</sym>
</trkpt>
<trkpt lat="39.635840" lon="-8.677993">
<ele>431.5</ele>
<desc>Speed 7.2 km/h Distance 78.25 km</desc>
<time>2011-05-22T13:52:02.51</time>
<name>17571</name>
<sym>Dot</sym>
</trkpt>
<trkpt lat="39.635820" lon="-8.678007">
<ele>431.5</ele>
<desc>Speed 9.1 km/h Distance 78.25 km</desc>
<time>2011-05-22T13:52:03.51</time>
<name>17572</name>
<sym>Dot</sym>
</trkpt>
<trkpt lat="39.635802" lon="-8.678023">
<ele>431.0</ele>
<desc>Speed 9.6 km/h Distance 78.26 km</desc>
<time>2011-05-22T13:52:04.51</time>
<name>17573</name>
<sym>Dot</sym>
</trkpt>
<trkpt lat="39.635783" lon="-8.678038">
<ele>430.5</ele>
<desc>Speed 9.4 km/h Distance 78.26 km</desc>
<time>2011-05-22T13:52:05.51</time>
<name>17574</name>
<sym>Dot</sym>
</trkpt>
<trkpt lat="39.635765" lon="-8.678055">
<ele>430.0</ele>
<desc>Speed 9.4 km/h Distance 78.26 km</desc>
<time>2011-05-22T13:52:06.51</time>
<name>17575</name>
<sym>Dot</sym>
</trkpt>
<trkpt lat="39.635747" lon="-8.678070">
<ele>430.0</ele>
<desc>Speed 8.9 km/h Distance 78.26 km</desc>
<time>2011-05-22T13:52:07.51</time>
<name>17576</name>
<sym>Dot</sym>
</trkpt>
<trkpt lat="39.635727" lon="-8.678082">
<ele>430.0</ele>
<desc>Speed 8.8 km/h Distance 78.27 km</desc>
<time>2011-05-22T13:52:08.51</time>
<name>17577</name>
<sym>Dot</sym>
</trkpt>
<trkpt lat="39.635708" lon="-8.678090">
<ele>429.5</ele>
<desc>Speed 8.4 km/h Distance 78.27 km</desc>
<time>2011-05-22T13:52:09.51</time>
<name>17578</name>
<sym>Dot</sym>
</trkpt>
<trkpt lat="39.635690" lon="-8.678097">
<ele>429.0</ele>
<desc>Speed 8.2 km/h Distance 78.27 km</desc>
<time>2011-05-22T13:52:10.51</time>
<name>17579</name>
<sym>Dot</sym>
</trkpt>
<trkpt lat="39.635673" lon="-8.678100">
<ele>429.5</ele>
<desc>Speed 6.7 km/h Distance 78.27 km</desc>
<time>2011-05-22T13:52:11.51</time>
<name>17580</name>
<sym>Dot</sym>
</trkpt>
<trkpt lat="39.635655" lon="-8.678097">
<ele>430.5</ele>
<desc>Speed 7.5 km/h Distance 78.27 km</desc>
<time>2011-05-22T13:52:12.51</time>
<name>17581</name>
<sym>Dot</sym>
</trkpt>
<trkpt lat="39.635632" lon="-8.678098">
<ele>430.0</ele>
<desc>Speed 9.2 km/h Distance 78.28 km</desc>
<time>2011-05-22T13:52:13.51</time>
<name>17582</name>
<sym>Dot</sym>
</trkpt>
<trkpt lat="39.635607" lon="-8.678107">
<ele>430.0</ele>
<desc>Speed 9.6 km/h Distance 78.28 km</desc>
<time>2011-05-22T13:52:14.51</time>
<name>17583</name>
<sym>Dot</sym>
</trkpt>
<trkpt lat="39.635585" lon="-8.678118">
<ele>429.5</ele>
<desc>Speed 9.7 km/h Distance 78.28 km</desc>
<time>2011-05-22T13:52:15.51</time>
<name>17584</name>
<sym>Dot</sym>
</trkpt>
<trkpt lat="39.635560" lon="-8.678117">
<ele>429.5</ele>
<desc>Speed 10.3 km/h Distance 78.29 km</desc>
<time>2011-05-22T13:52:16.51</time>
<name>17585</name>
<sym>Dot</sym>
</trkpt>
<trkpt lat="39.635530" lon="-8.678110">
<ele>430.0</ele>
<desc>Speed 11.6 km/h Distance 78.29 km</desc>
<time>2011-05-22T13:52:17.51</time>
<name>17586</name>
<sym>Dot</sym>
</trkpt>
<trkpt lat="39.635508" lon="-8.678125">
<ele>428.5</ele>
<desc>Speed 10.2 km/h Distance 78.29 km</desc>
<time>2011-05-22T13:52:18.51</time>
<name>17587</name>
<sym>Dot</sym>
</trkpt>
<trkpt lat="39.635487" lon="-8.678147">
<ele>427.5</ele>
<desc>Speed 11.1 km/h Distance 78.29 km</desc>
<time>2011-05-22T13:52:19.51</time>
<name>17588</name>
<sym>Dot</sym>
</trkpt>
<trkpt lat="39.635462" lon="-8.678165">
<ele>426.5</ele>
<desc>Speed 11.7 km/h Distance 78.30 km</desc>
<time>2011-05-22T13:52:20.51</time>
<name>17589</name>
<sym>Dot</sym>
</trkpt>
<trkpt lat="39.635458" lon="-8.678187">
<ele>426.5</ele>
<desc>Speed 7.5 km/h Distance 78.30 km</desc>
<time>2011-05-22T13:52:21.51</time>
<name>17590</name>
<sym>Dot</sym>
</trkpt>
<trkpt lat="39.635388" lon="-8.678198">
<ele>424.5</ele>
<desc>Speed 13.5 km/h Distance 78.31 km</desc>
<time>2011-05-22T13:52:23.51</time>
<name>17591</name>
<sym>Dot</sym>
</trkpt>
<trkpt lat="39.635353" lon="-8.678197">
<ele>424.5</ele>
<desc>Speed 13.8 km/h Distance 78.31 km</desc>
<time>2011-05-22T13:52:24.51</time>
<name>17592</name>
<sym>Dot</sym>
</trkpt>
<trkpt lat="39.635320" lon="-8.678185">
<ele>425.5</ele>
<desc>Speed 13.4 km/h Distance 78.32 km</desc>
<time>2011-05-22T13:52:25.51</time>
<name>17593</name>
<sym>Dot</sym>
</trkpt>
<trkpt lat="39.635317" lon="-8.678158">
<ele>424.5</ele>
<desc>Speed 8.6 km/h Distance 78.32 km</desc>
<time>2011-05-22T13:52:26.51</time>
<name>17594</name>
<sym>Dot</sym>
</trkpt>
<trkpt lat="39.635298" lon="-8.678122">
<ele>424.0</ele>
<desc>Speed 12.9 km/h Distance 78.32 km</desc>
<time>2011-05-22T13:52:27.51</time>
<name>17595</name>
<sym>Dot</sym>
</trkpt>
<trkpt lat="39.635282" lon="-8.678082">
<ele>423.5</ele>
<desc>Speed 13.1 km/h Distance 78.33 km</desc>
<time>2011-05-22T13:52:28.51</time>
<name>17596</name>
<sym>Dot</sym>
</trkpt>
<trkpt lat="39.635265" lon="-8.678043">
<ele>423.5</ele>
<desc>Speed 13.6 km/h Distance 78.33 km</desc>
<time>2011-05-22T13:52:29.51</time>
<name>17597</name>
<sym>Dot</sym>
</trkpt>
<trkpt lat="39.635250" lon="-8.678003">
<ele>423.5</ele>
<desc>Speed 13.1 km/h Distance 78.33 km</desc>
<time>2011-05-22T13:52:30.51</time>
<name>17598</name>
<sym>Dot</sym>
</trkpt>
<trkpt lat="39.635232" lon="-8.677963">
<ele>423.0</ele>
<desc>Speed 13.6 km/h Distance 78.34 km</desc>
<time>2011-05-22T13:52:31.51</time>
<name>17599</name>
<sym>Dot</sym>
</trkpt>
<trkpt lat="39.635212" lon="-8.677925">
<ele>422.5</ele>
<desc>Speed 14.0 km/h Distance 78.34 km</desc>
<time>2011-05-22T13:52:32.51</time>
<name>17600</name>
<sym>Dot</sym>
</trkpt>
<trkpt lat="39.635188" lon="-8.677888">
<ele>422.0</ele>
<desc>Speed 14.2 km/h Distance 78.35 km</desc>
<time>2011-05-22T13:52:33.51</time>
<name>17601</name>
<sym>Dot</sym>
</trkpt>
<trkpt lat="39.635155" lon="-8.677838">
<ele>425.0</ele>
<desc>Speed 14.9 km/h Distance 78.35 km</desc>
<time>2011-05-22T13:52:34.51</time>
<name>17602</name>
<sym>Dot</sym>
</trkpt>
<trkpt lat="39.635127" lon="-8.677802">
<ele>424.5</ele>
<desc>Speed 15.3 km/h Distance 78.36 km</desc>
<time>2011-05-22T13:52:35.51</time>
<name>17603</name>
<sym>Dot</sym>
</trkpt>
<trkpt lat="39.635097" lon="-8.677765">
<ele>423.5</ele>
<desc>Speed 16.1 km/h Distance 78.36 km</desc>
<time>2011-05-22T13:52:36.51</time>
<name>17604</name>
<sym>Dot</sym>
</trkpt>
<trkpt lat="39.635067" lon="-8.677727">
<ele>422.5</ele>
<desc>Speed 16.2 km/h Distance 78.36 km</desc>
<time>2011-05-22T13:52:37.51</time>
<name>17605</name>
<sym>Dot</sym>
</trkpt>
<trkpt lat="39.635033" lon="-8.677688">
<ele>422.0</ele>
<desc>Speed 17.5 km/h Distance 78.37 km</desc>
<time>2011-05-22T13:52:38.51</time>
<name>17606</name>
<sym>Dot</sym>
</trkpt>
<trkpt lat="39.634997" lon="-8.677648">
<ele>421.5</ele>
<desc>Speed 18.3 km/h Distance 78.37 km</desc>
<time>2011-05-22T13:52:39.51</time>
<name>17607</name>
<sym>Dot</sym>
</trkpt>
<trkpt lat="39.634962" lon="-8.677603">
<ele>420.5</ele>
<desc>Speed 19.3 km/h Distance 78.38 km</desc>
<time>2011-05-22T13:52:40.51</time>
<name>17608</name>
<sym>Dot</sym>
</trkpt>
<trkpt lat="39.634925" lon="-8.677553">
<ele>420.0</ele>
<desc>Speed 21.0 km/h Distance 78.39 km</desc>
<time>2011-05-22T13:52:41.51</time>
<name>17609</name>
<sym>Dot</sym>
</trkpt>
<trkpt lat="39.634887" lon="-8.677503">
<ele>419.5</ele>
<desc>Speed 21.8 km/h Distance 78.39 km</desc>
<time>2011-05-22T13:52:42.51</time>
<name>17610</name>
<sym>Dot</sym>
</trkpt>
<trkpt lat="39.634848" lon="-8.677455">
<ele>418.5</ele>
<desc>Speed 21.2 km/h Distance 78.40 km</desc>
<time>2011-05-22T13:52:43.51</time>
<name>17611</name>
<sym>Dot</sym>
</trkpt>
<trkpt lat="39.634807" lon="-8.677405">
<ele>418.0</ele>
<desc>Speed 21.9 km/h Distance 78.40 km</desc>
<time>2011-05-22T13:52:44.51</time>
<name>17612</name>
<sym>Dot</sym>
</trkpt>
<trkpt lat="39.634770" lon="-8.677357">
<ele>417.5</ele>
<desc>Speed 21.2 km/h Distance 78.41 km</desc>
<time>2011-05-22T13:52:45.51</time>
<name>17613</name>
<sym>Dot</sym>
</trkpt>
<trkpt lat="39.634748" lon="-8.677308">
<ele>418.5</ele>
<desc>Speed 16.7 km/h Distance 78.42 km</desc>
<time>2011-05-22T13:52:46.51</time>
<name>17614</name>
<sym>Dot</sym>
</trkpt>
<trkpt lat="39.634707" lon="-8.677253">
<ele>417.5</ele>
<desc>Speed 23.6 km/h Distance 78.42 km</desc>
<time>2011-05-22T13:52:47.51</time>
<name>17615</name>
<sym>Dot</sym>
</trkpt>
<trkpt lat="39.634662" lon="-8.677198">
<ele>417.0</ele>
<desc>Speed 24.8 km/h Distance 78.43 km</desc>
<time>2011-05-22T13:52:48.51</time>
<name>17616</name>
<sym>Dot</sym>
</trkpt>
<trkpt lat="39.634610" lon="-8.677135">
<ele>416.0</ele>
<desc>Speed 27.9 km/h Distance 78.44 km</desc>
<time>2011-05-22T13:52:49.51</time>
<name>17617</name>
<sym>Dot</sym>
</trkpt>
<trkpt lat="39.634553" lon="-8.677068">
<ele>415.5</ele>
<desc>Speed 29.8 km/h Distance 78.45 km</desc>
<time>2011-05-22T13:52:50.51</time>
<name>17618</name>
<sym>Dot</sym>
</trkpt>
<trkpt lat="39.634498" lon="-8.677000">
<ele>414.5</ele>
<desc>Speed 30.7 km/h Distance 78.45 km</desc>
<time>2011-05-22T13:52:51.51</time>
<name>17619</name>
<sym>Dot</sym>
</trkpt>
<trkpt lat="39.634442" lon="-8.676928">
<ele>414.0</ele>
<desc>Speed 31.2 km/h Distance 78.46 km</desc>
<time>2011-05-22T13:52:52.51</time>
<name>17620</name>
<sym>Dot</sym>
</trkpt>
<trkpt lat="39.634382" lon="-8.676855">
<ele>413.0</ele>
<desc>Speed 31.9 km/h Distance 78.47 km</desc>
<time>2011-05-22T13:52:53.51</time>
<name>17621</name>
<sym>Dot</sym>
</trkpt>
<trkpt lat="39.634340" lon="-8.676788">
<ele>413.5</ele>
<desc>Speed 26.1 km/h Distance 78.48 km</desc>
<time>2011-05-22T13:52:54.51</time>
<name>17622</name>
<sym>Dot</sym>
</trkpt>
<trkpt lat="39.634287" lon="-8.676728">
<ele>413.0</ele>
<desc>Speed 27.7 km/h Distance 78.49 km</desc>
<time>2011-05-22T13:52:55.51</time>
<name>17623</name>
<sym>Dot</sym>
</trkpt>
<trkpt lat="39.634240" lon="-8.676675">
<ele>412.5</ele>
<desc>Speed 24.2 km/h Distance 78.49 km</desc>
<time>2011-05-22T13:52:56.51</time>
<name>17624</name>
<sym>Dot</sym>
</trkpt>
<trkpt lat="39.634200" lon="-8.676628">
<ele>412.0</ele>
<desc>Speed 21.8 km/h Distance 78.50 km</desc>
<time>2011-05-22T13:52:57.51</time>
<name>17625</name>
<sym>Dot</sym>
</trkpt>
<trkpt lat="39.634165" lon="-8.676588">
<ele>412.0</ele>
<desc>Speed 18.4 km/h Distance 78.50 km</desc>
<time>2011-05-22T13:52:58.51</time>
<name>17626</name>
<sym>Dot</sym>
</trkpt>
<trkpt lat="39.634138" lon="-8.676558">
<ele>412.0</ele>
<desc>Speed 14.3 km/h Distance 78.51 km</desc>
<time>2011-05-22T13:52:59.51</time>
<name>17627</name>
<sym>Dot</sym>
</trkpt>
<trkpt lat="39.634117" lon="-8.676535">
<ele>412.5</ele>
<desc>Speed 11.1 km/h Distance 78.51 km</desc>
<time>2011-05-22T13:53:00.51</time>
<name>17628</name>
<sym>Dot</sym>
</trkpt>
<trkpt lat="39.634103" lon="-8.676520">
<ele>413.0</ele>
<desc>Speed 7.3 km/h Distance 78.51 km</desc>
<time>2011-05-22T13:53:01.51</time>
<name>17629</name>
<sym>Dot</sym>
</trkpt>
<trkpt lat="39.634087" lon="-8.676502">
<ele>413.0</ele>
<desc>Speed 8.7 km/h Distance 78.52 km</desc>
<time>2011-05-22T13:53:02.51</time>
<name>17630</name>
<sym>Dot</sym>
</trkpt>
<trkpt lat="39.634075" lon="-8.676487">
<ele>413.5</ele>
<desc>Speed 5.7 km/h Distance 78.52 km</desc>
<time>2011-05-22T13:53:03.51</time>
<name>17631</name>
<sym>Dot</sym>
</trkpt>
<trkpt lat="39.634065" lon="-8.676473">
<ele>413.5</ele>
<desc>Speed 5.7 km/h Distance 78.52 km</desc>
<time>2011-05-22T13:53:04.51</time>
<name>17632</name>
<sym>Dot</sym>
</trkpt>
<trkpt lat="39.634057" lon="-8.676460">
<ele>413.5</ele>
<desc>Speed 5.0 km/h Distance 78.52 km</desc>
<time>2011-05-22T13:53:05.51</time>
<name>17633</name>
<sym>Dot</sym>
</trkpt>
<trkpt lat="39.634052" lon="-8.676450">
<ele>414.0</ele>
<desc>Speed 3.6 km/h Distance 78.52 km</desc>
<time>2011-05-22T13:53:06.51</time>
<name>17634</name>
<sym>Dot</sym>
</trkpt>
<trkpt lat="39.634045" lon="-8.676442">
<ele>414.5</ele>
<desc>Speed 3.8 km/h Distance 78.52 km</desc>
<time>2011-05-22T13:53:07.51</time>
<name>17635</name>
<sym>Dot</sym>
</trkpt>
<trkpt lat="39.634038" lon="-8.676433">
<ele>415.0</ele>
<desc>Speed 4.2 km/h Distance 78.52 km</desc>
<time>2011-05-22T13:53:08.51</time>
<name>17636</name>
<sym>Dot</sym>
</trkpt>
<trkpt lat="39.634032" lon="-8.676425">
<ele>415.5</ele>
<desc>Speed 4.3 km/h Distance 78.53 km</desc>
<time>2011-05-22T13:53:09.51</time>
<name>17637</name>
<sym>Dot</sym>
</trkpt>
<trkpt lat="39.634022" lon="-8.676413">
<ele>415.5</ele>
<desc>Speed 4.9 km/h Distance 78.53 km</desc>
<time>2011-05-22T13:53:10.51</time>
<name>17638</name>
<sym>Dot</sym>
</trkpt>
<trkpt lat="39.634005" lon="-8.676398">
<ele>415.5</ele>
<desc>Speed 7.2 km/h Distance 78.53 km</desc>
<time>2011-05-22T13:53:11.51</time>
<name>17639</name>
<sym>Dot</sym>
</trkpt>
<trkpt lat="39.633990" lon="-8.676380">
<ele>415.5</ele>
<desc>Speed 7.5 km/h Distance 78.53 km</desc>
<time>2011-05-22T13:53:12.51</time>
<name>17640</name>
<sym>Dot</sym>
</trkpt>
<trkpt lat="39.633978" lon="-8.676358">
<ele>416.0</ele>
<desc>Speed 7.3 km/h Distance 78.53 km</desc>
<time>2011-05-22T13:53:13.51</time>
<name>17641</name>
<sym>Dot</sym>
</trkpt>
<trkpt lat="39.633968" lon="-8.676338">
<ele>416.0</ele>
<desc>Speed 6.9 km/h Distance 78.54 km</desc>
<time>2011-05-22T13:53:14.51</time>
<name>17642</name>
<sym>Dot</sym>
</trkpt>
<trkpt lat="39.633955" lon="-8.676317">
<ele>416.5</ele>
<desc>Speed 8.0 km/h Distance 78.54 km</desc>
<time>2011-05-22T13:53:15.51</time>
<name>17643</name>
<sym>Dot</sym>
</trkpt>
<trkpt lat="39.633937" lon="-8.676293">
<ele>416.0</ele>
<desc>Speed 9.5 km/h Distance 78.54 km</desc>
<time>2011-05-22T13:53:16.51</time>
<name>17644</name>
<sym>Dot</sym>
</trkpt>
<trkpt lat="39.633917" lon="-8.676272">
<ele>416.0</ele>
<desc>Speed 10.2 km/h Distance 78.54 km</desc>
<time>2011-05-22T13:53:17.51</time>
<name>17645</name>
<sym>Dot</sym>
</trkpt>
<trkpt lat="39.633897" lon="-8.676245">
<ele>416.0</ele>
<desc>Speed 11.0 km/h Distance 78.55 km</desc>
<time>2011-05-22T13:53:18.51</time>
<name>17646</name>
<sym>Dot</sym>
</trkpt>
<trkpt lat="39.633875" lon="-8.676218">
<ele>416.0</ele>
<desc>Speed 11.3 km/h Distance 78.55 km</desc>
<time>2011-05-22T13:53:19.51</time>
<name>17647</name>
<sym>Dot</sym>
</trkpt>
<trkpt lat="39.633863" lon="-8.676190">
<ele>417.0</ele>
<desc>Speed 9.3 km/h Distance 78.55 km</desc>
<time>2011-05-22T13:53:20.51</time>
<name>17648</name>
<sym>Dot</sym>
</trkpt>
<trkpt lat="39.633848" lon="-8.676162">
<ele>417.0</ele>
<desc>Speed 10.0 km/h Distance 78.56 km</desc>
<time>2011-05-22T13:53:21.51</time>
<name>17649</name>
<sym>Dot</sym>
</trkpt>
<trkpt lat="39.633825" lon="-8.676133">
<ele>417.5</ele>
<desc>Speed 12.4 km/h Distance 78.56 km</desc>
<time>2011-05-22T13:53:22.51</time>
<name>17650</name>
<sym>Dot</sym>
</trkpt>
<trkpt lat="39.633800" lon="-8.676105">
<ele>417.5</ele>
<desc>Speed 12.9 km/h Distance 78.56 km</desc>
<time>2011-05-22T13:53:23.51</time>
<name>17651</name>
<sym>Dot</sym>
</trkpt>
<trkpt lat="39.633775" lon="-8.676077">
<ele>417.0</ele>
<desc>Speed 12.9 km/h Distance 78.57 km</desc>
<time>2011-05-22T13:53:24.51</time>
<name>17652</name>
<sym>Dot</sym>
</trkpt>
<trkpt lat="39.633752" lon="-8.676048">
<ele>417.0</ele>
<desc>Speed 12.1 km/h Distance 78.57 km</desc>
<time>2011-05-22T13:53:25.51</time>
<name>17653</name>
<sym>Dot</sym>
</trkpt>
<trkpt lat="39.633733" lon="-8.676020">
<ele>417.5</ele>
<desc>Speed 11.3 km/h Distance 78.57 km</desc>
<time>2011-05-22T13:53:26.51</time>
<name>17654</name>
<sym>Dot</sym>
</trkpt>
<trkpt lat="39.633713" lon="-8.675993">
<ele>417.5</ele>
<desc>Speed 11.2 km/h Distance 78.58 km</desc>
<time>2011-05-22T13:53:27.51</time>
<name>17655</name>
<sym>Dot</sym>
</trkpt>
<trkpt lat="39.633693" lon="-8.675967">
<ele>417.5</ele>
<desc>Speed 10.9 km/h Distance 78.58 km</desc>
<time>2011-05-22T13:53:28.51</time>
<name>17656</name>
<sym>Dot</sym>
</trkpt>
<trkpt lat="39.633667" lon="-8.675943">
<ele>417.0</ele>
<desc>Speed 12.0 km/h Distance 78.58 km</desc>
<time>2011-05-22T13:53:29.51</time>
<name>17657</name>
<sym>Dot</sym>
</trkpt>
<trkpt lat="39.633653" lon="-8.675922">
<ele>417.5</ele>
<desc>Speed 7.7 km/h Distance 78.59 km</desc>
<time>2011-05-22T13:53:30.51</time>
<name>17658</name>
<sym>Dot</sym>
</trkpt>
<trkpt lat="39.633640" lon="-8.675902">
<ele>418.5</ele>
<desc>Speed 7.7 km/h Distance 78.59 km</desc>
<time>2011-05-22T13:53:31.51</time>
<name>17659</name>
<sym>Dot</sym>
</trkpt>
<trkpt lat="39.633620" lon="-8.675877">
<ele>419.0</ele>
<desc>Speed 11.1 km/h Distance 78.59 km</desc>
<time>2011-05-22T13:53:32.51</time>
<name>17660</name>
<sym>Dot</sym>
</trkpt>
<trkpt lat="39.633598" lon="-8.675847">
<ele>419.0</ele>
<desc>Speed 11.7 km/h Distance 78.59 km</desc>
<time>2011-05-22T13:53:33.51</time>
<name>17661</name>
<sym>Dot</sym>
</trkpt>
<trkpt lat="39.633578" lon="-8.675817">
<ele>419.0</ele>
<desc>Speed 11.7 km/h Distance 78.60 km</desc>
<time>2011-05-22T13:53:34.51</time>
<name>17662</name>
<sym>Dot</sym>
</trkpt>
<trkpt lat="39.633557" lon="-8.675790">
<ele>419.0</ele>
<desc>Speed 11.8 km/h Distance 78.60 km</desc>
<time>2011-05-22T13:53:35.51</time>
<name>17663</name>
<sym>Dot</sym>
</trkpt>
<trkpt lat="39.633535" lon="-8.675763">
<ele>419.5</ele>
<desc>Speed 11.3 km/h Distance 78.61 km</desc>
<time>2011-05-22T13:53:36.51</time>
<name>17664</name>
<sym>Dot</sym>
</trkpt>
<trkpt lat="39.633513" lon="-8.675733">
<ele>419.5</ele>
<desc>Speed 12.1 km/h Distance 78.61 km</desc>
<time>2011-05-22T13:53:37.51</time>
<name>17665</name>
<sym>Dot</sym>
</trkpt>
<trkpt lat="39.633483" lon="-8.675705">
<ele>419.5</ele>
<desc>Speed 14.4 km/h Distance 78.61 km</desc>
<time>2011-05-22T13:53:38.51</time>
<name>17666</name>
<sym>Dot</sym>
</trkpt>
<trkpt lat="39.633450" lon="-8.675677">
<ele>419.0</ele>
<desc>Speed 15.9 km/h Distance 78.62 km</desc>
<time>2011-05-22T13:53:39.51</time>
<name>17667</name>
<sym>Dot</sym>
</trkpt>
<trkpt lat="39.633427" lon="-8.675648">
<ele>419.0</ele>
<desc>Speed 12.5 km/h Distance 78.62 km</desc>
<time>2011-05-22T13:53:40.51</time>
<name>17668</name>
<sym>Dot</sym>
</trkpt>
<trkpt lat="39.633407" lon="-8.675618">
<ele>419.0</ele>
<desc>Speed 11.4 km/h Distance 78.62 km</desc>
<time>2011-05-22T13:53:41.51</time>
<name>17669</name>
<sym>Dot</sym>
</trkpt>
<trkpt lat="39.633372" lon="-8.675590">
<ele>418.0</ele>
<desc>Speed 16.3 km/h Distance 78.63 km</desc>
<time>2011-05-22T13:53:42.51</time>
<name>17670</name>
<sym>Dot</sym>
</trkpt>
<trkpt lat="39.633348" lon="-8.675560">
<ele>418.0</ele>
<desc>Speed 12.3 km/h Distance 78.63 km</desc>
<time>2011-05-22T13:53:43.51</time>
<name>17671</name>
<sym>Dot</sym>
</trkpt>
<trkpt lat="39.633325" lon="-8.675530">
<ele>418.0</ele>
<desc>Speed 12.9 km/h Distance 78.64 km</desc>
<time>2011-05-22T13:53:44.51</time>
<name>17672</name>
<sym>Dot</sym>
</trkpt>
<trkpt lat="39.633308" lon="-8.675500">
<ele>418.0</ele>
<desc>Speed 10.8 km/h Distance 78.64 km</desc>
<time>2011-05-22T13:53:45.51</time>
<name>17673</name>
<sym>Dot</sym>
</trkpt>
<trkpt lat="39.633282" lon="-8.675472">
<ele>417.5</ele>
<desc>Speed 13.0 km/h Distance 78.64 km</desc>
<time>2011-05-22T13:53:46.51</time>
<name>17674</name>
<sym>Dot</sym>
</trkpt>
<trkpt lat="39.633262" lon="-8.675443">
<ele>417.0</ele>
<desc>Speed 11.6 km/h Distance 78.65 km</desc>
<time>2011-05-22T13:53:47.51</time>
<name>17675</name>
<sym>Dot</sym>
</trkpt>
<trkpt lat="39.633242" lon="-8.675417">
<ele>417.0</ele>
<desc>Speed 11.4 km/h Distance 78.65 km</desc>
<time>2011-05-22T13:53:48.51</time>
<name>17676</name>
<sym>Dot</sym>
</trkpt>
<trkpt lat="39.633210" lon="-8.675387">
<ele>416.5</ele>
<desc>Speed 14.8 km/h Distance 78.65 km</desc>
<time>2011-05-22T13:53:49.51</time>
<name>17677</name>
<sym>Dot</sym>
</trkpt>
<trkpt lat="39.633183" lon="-8.675362">
<ele>416.5</ele>
<desc>Speed 12.3 km/h Distance 78.66 km</desc>
<time>2011-05-22T13:53:50.51</time>
<name>17678</name>
<sym>Dot</sym>
</trkpt>
<trkpt lat="39.633155" lon="-8.675333">
<ele>416.5</ele>
<desc>Speed 13.2 km/h Distance 78.66 km</desc>
<time>2011-05-22T13:53:51.51</time>
<name>17679</name>
<sym>Dot</sym>
</trkpt>
<trkpt lat="39.633128" lon="-8.675307">
<ele>417.0</ele>
<desc>Speed 13.0 km/h Distance 78.67 km</desc>
<time>2011-05-22T13:53:52.51</time>
<name>17680</name>
<sym>Dot</sym>
</trkpt>
<trkpt lat="39.633105" lon="-8.675282">
<ele>417.0</ele>
<desc>Speed 12.0 km/h Distance 78.67 km</desc>
<time>2011-05-22T13:53:53.51</time>
<name>17681</name>
<sym>Dot</sym>
</trkpt>
<trkpt lat="39.633090" lon="-8.675255">
<ele>417.5</ele>
<desc>Speed 9.5 km/h Distance 78.67 km</desc>
<time>2011-05-22T13:53:54.51</time>
<name>17682</name>
<sym>Dot</sym>
</trkpt>
<trkpt lat="39.633068" lon="-8.675230">
<ele>417.5</ele>
<desc>Speed 10.8 km/h Distance 78.67 km</desc>
<time>2011-05-22T13:53:55.51</time>
<name>17683</name>
<sym>Dot</sym>
</trkpt>
<trkpt lat="39.633047" lon="-8.675205">
<ele>417.5</ele>
<desc>Speed 11.0 km/h Distance 78.68 km</desc>
<time>2011-05-22T13:53:56.51</time>
<name>17684</name>
<sym>Dot</sym>
</trkpt>
<trkpt lat="39.633025" lon="-8.675180">
<ele>417.0</ele>
<desc>Speed 10.9 km/h Distance 78.68 km</desc>
<time>2011-05-22T13:53:57.51</time>
<name>17685</name>
<sym>Dot</sym>
</trkpt>
<trkpt lat="39.633002" lon="-8.675153">
<ele>417.0</ele>
<desc>Speed 11.3 km/h Distance 78.68 km</desc>
<time>2011-05-22T13:53:58.51</time>
<name>17686</name>
<sym>Dot</sym>
</trkpt>
<trkpt lat="39.632982" lon="-8.675132">
<ele>417.5</ele>
<desc>Speed 9.9 km/h Distance 78.69 km</desc>
<time>2011-05-22T13:53:59.51</time>
<name>17687</name>
<sym>Dot</sym>
</trkpt>
<trkpt lat="39.632958" lon="-8.675112">
<ele>417.5</ele>
<desc>Speed 10.6 km/h Distance 78.69 km</desc>
<time>2011-05-22T13:54:00.51</time>
<name>17688</name>
<sym>Dot</sym>
</trkpt>
<trkpt lat="39.632935" lon="-8.675088">
<ele>417.5</ele>
<desc>Speed 11.3 km/h Distance 78.69 km</desc>
<time>2011-05-22T13:54:01.51</time>
<name>17689</name>
<sym>Dot</sym>
</trkpt>
<trkpt lat="39.632910" lon="-8.675065">
<ele>417.5</ele>
<desc>Speed 11.4 km/h Distance 78.70 km</desc>
<time>2011-05-22T13:54:02.51</time>
<name>17690</name>
<sym>Dot</sym>
</trkpt>
<trkpt lat="39.632885" lon="-8.675042">
<ele>417.5</ele>
<desc>Speed 12.1 km/h Distance 78.70 km</desc>
<time>2011-05-22T13:54:03.51</time>
<name>17691</name>
<sym>Dot</sym>
</trkpt>
<trkpt lat="39.632860" lon="-8.675020">
<ele>417.5</ele>
<desc>Speed 11.6 km/h Distance 78.70 km</desc>
<time>2011-05-22T13:54:04.51</time>
<name>17692</name>
<sym>Dot</sym>
</trkpt>
<trkpt lat="39.632835" lon="-8.675000">
<ele>417.5</ele>
<desc>Speed 11.3 km/h Distance 78.71 km</desc>
<time>2011-05-22T13:54:05.51</time>
<name>17693</name>
<sym>Dot</sym>
</trkpt>
<trkpt lat="39.632812" lon="-8.674978">
<ele>417.5</ele>
<desc>Speed 11.1 km/h Distance 78.71 km</desc>
<time>2011-05-22T13:54:06.51</time>
<name>17694</name>
<sym>Dot</sym>
</trkpt>
<trkpt lat="39.632788" lon="-8.674957">
<ele>417.5</ele>
<desc>Speed 11.5 km/h Distance 78.71 km</desc>
<time>2011-05-22T13:54:07.51</time>
<name>17695</name>
<sym>Dot</sym>
</trkpt>
<trkpt lat="39.632770" lon="-8.674938">
<ele>418.0</ele>
<desc>Speed 9.1 km/h Distance 78.72 km</desc>
<time>2011-05-22T13:54:08.51</time>
<name>17696</name>
<sym>Dot</sym>
</trkpt>
<trkpt lat="39.632753" lon="-8.674922">
<ele>418.0</ele>
<desc>Speed 8.2 km/h Distance 78.72 km</desc>
<time>2011-05-22T13:54:09.51</time>
<name>17697</name>
<sym>Dot</sym>
</trkpt>
<trkpt lat="39.632738" lon="-8.674908">
<ele>418.5</ele>
<desc>Speed 6.7 km/h Distance 78.72 km</desc>
<time>2011-05-22T13:54:10.51</time>
<name>17698</name>
<sym>Dot</sym>
</trkpt>
<trkpt lat="39.632722" lon="-8.674895">
<ele>418.5</ele>
<desc>Speed 7.2 km/h Distance 78.72 km</desc>
<time>2011-05-22T13:54:11.51</time>
<name>17699</name>
<sym>Dot</sym>
</trkpt>
<trkpt lat="39.632708" lon="-8.674885">
<ele>419.0</ele>
<desc>Speed 5.8 km/h Distance 78.72 km</desc>
<time>2011-05-22T13:54:12.51</time>
<name>17700</name>
<sym>Dot</sym>
</trkpt>
<trkpt lat="39.632693" lon="-8.674878">
<ele>419.0</ele>
<desc>Speed 5.5 km/h Distance 78.73 km</desc>
<time>2011-05-22T13:54:13.51</time>
<name>17701</name>
<sym>Dot</sym>
</trkpt>
<trkpt lat="39.632677" lon="-8.674880">
<ele>419.0</ele>
<desc>Speed 6.6 km/h Distance 78.73 km</desc>
<time>2011-05-22T13:54:14.51</time>
<name>17702</name>
<sym>Dot</sym>
</trkpt>
<trkpt lat="39.632660" lon="-8.674893">
<ele>419.5</ele>
<desc>Speed 7.7 km/h Distance 78.73 km</desc>
<time>2011-05-22T13:54:15.51</time>
<name>17703</name>
<sym>Dot</sym>
</trkpt>
<trkpt lat="39.632647" lon="-8.674910">
<ele>420.5</ele>
<desc>Speed 7.2 km/h Distance 78.73 km</desc>
<time>2011-05-22T13:54:16.51</time>
<name>17704</name>
<sym>Dot</sym>
</trkpt>
<trkpt lat="39.632633" lon="-8.674930">
<ele>421.5</ele>
<desc>Speed 8.1 km/h Distance 78.73 km</desc>
<time>2011-05-22T13:54:17.51</time>
<name>17705</name>
<sym>Dot</sym>
</trkpt>
<trkpt lat="39.632618" lon="-8.674955">
<ele>421.5</ele>
<desc>Speed 9.9 km/h Distance 78.74 km</desc>
<time>2011-05-22T13:54:18.51</time>
<name>17706</name>
<sym>Dot</sym>
</trkpt>
<trkpt lat="39.632600" lon="-8.674978">
<ele>421.0</ele>
<desc>Speed 10.2 km/h Distance 78.74 km</desc>
<time>2011-05-22T13:54:19.51</time>
<name>17707</name>
<sym>Dot</sym>
</trkpt>
<trkpt lat="39.632580" lon="-8.675002">
<ele>421.0</ele>
<desc>Speed 10.0 km/h Distance 78.74 km</desc>
<time>2011-05-22T13:54:20.51</time>
<name>17708</name>
<sym>Dot</sym>
</trkpt>
<trkpt lat="39.632560" lon="-8.675025">
<ele>421.0</ele>
<desc>Speed 10.2 km/h Distance 78.75 km</desc>
<time>2011-05-22T13:54:21.51</time>
<name>17709</name>
<sym>Dot</sym>
</trkpt>
<trkpt lat="39.632542" lon="-8.675048">
<ele>420.5</ele>
<desc>Speed 10.0 km/h Distance 78.75 km</desc>
<time>2011-05-22T13:54:22.51</time>
<name>17710</name>
<sym>Dot</sym>
</trkpt>
<trkpt lat="39.632523" lon="-8.675070">
<ele>420.5</ele>
<desc>Speed 9.6 km/h Distance 78.75 km</desc>
<time>2011-05-22T13:54:23.51</time>
<name>17711</name>
<sym>Dot</sym>
</trkpt>
<trkpt lat="39.632505" lon="-8.675090">
<ele>420.0</ele>
<desc>Speed 9.1 km/h Distance 78.75 km</desc>
<time>2011-05-22T13:54:24.51</time>
<name>17712</name>
<sym>Dot</sym>
</trkpt>
<trkpt lat="39.632488" lon="-8.675110">
<ele>419.5</ele>
<desc>Speed 8.9 km/h Distance 78.76 km</desc>
<time>2011-05-22T13:54:25.51</time>
<name>17713</name>
<sym>Dot</sym>
</trkpt>
<trkpt lat="39.632468" lon="-8.675127">
<ele>419.5</ele>
<desc>Speed 8.4 km/h Distance 78.76 km</desc>
<time>2011-05-22T13:54:26.51</time>
<name>17714</name>
<sym>Dot</sym>
</trkpt>
<trkpt lat="39.632447" lon="-8.675137">
<ele>419.0</ele>
<desc>Speed 8.0 km/h Distance 78.76 km</desc>
<time>2011-05-22T13:54:27.51</time>
<name>17715</name>
<sym>Dot</sym>
</trkpt>
<trkpt lat="39.632425" lon="-8.675145">
<ele>418.5</ele>
<desc>Speed 7.8 km/h Distance 78.76 km</desc>
<time>2011-05-22T13:54:28.51</time>
<name>17716</name>
<sym>Dot</sym>
</trkpt>
<trkpt lat="39.632407" lon="-8.675148">
<ele>418.5</ele>
<desc>Speed 7.5 km/h Distance 78.77 km</desc>
<time>2011-05-22T13:54:29.51</time>
<name>17717</name>
<sym>Dot</sym>
</trkpt>
<trkpt lat="39.632370" lon="-8.675155">
<ele>418.0</ele>
<desc>Speed 7.5 km/h Distance 78.77 km</desc>
<time>2011-05-22T13:54:31.01</time>
<name>17718</name>
<sym>Dot</sym>
</trkpt>
<trkpt lat="39.632352" lon="-8.675157">
<ele>418.0</ele>
<desc>Speed 7.2 km/h Distance 78.77 km</desc>
<time>2011-05-22T13:54:32.02</time>
<name>17719</name>
<sym>Dot</sym>
</trkpt>
<trkpt lat="39.632313" lon="-8.675162">
<ele>417.5</ele>
<desc>Speed 7.7 km/h Distance 78.78 km</desc>
<time>2011-05-22T13:54:34.00</time>
<name>17720</name>
<sym>Dot</sym>
</trkpt>
<trkpt lat="39.632292" lon="-8.675168">
<ele>417.5</ele>
<desc>Speed 8.7 km/h Distance 78.78 km</desc>
<time>2011-05-22T13:54:35.49</time>
<name>17721</name>
<sym>Dot</sym>
</trkpt>
<trkpt lat="39.632268" lon="-8.675178">
<ele>417.5</ele>
<desc>Speed 8.9 km/h Distance 78.78 km</desc>
<time>2011-05-22T13:54:36.49</time>
<name>17722</name>
<sym>Dot</sym>
</trkpt>
<trkpt lat="39.632223" lon="-8.675210">
<ele>417.0</ele>
<desc>Speed 9.6 km/h Distance 78.79 km</desc>
<time>2011-05-22T13:54:37.99</time>
<name>17723</name>
<sym>Dot</sym>
</trkpt>
<trkpt lat="39.632185" lon="-8.675255">
<ele>416.5</ele>
<desc>Speed 10.2 km/h Distance 78.79 km</desc>
<time>2011-05-22T13:54:39.97</time>
<name>17724</name>
<sym>Dot</sym>
</trkpt>
<trkpt lat="39.632167" lon="-8.675280">
<ele>416.5</ele>
<desc>Speed 10.5 km/h Distance 78.80 km</desc>
<time>2011-05-22T13:54:40.97</time>
<name>17725</name>
<sym>Dot</sym>
</trkpt>
<trkpt lat="39.632147" lon="-8.675303">
<ele>416.0</ele>
<desc>Speed 10.6 km/h Distance 78.80 km</desc>
<time>2011-05-22T13:54:41.96</time>
<name>17726</name>
<sym>Dot</sym>
</trkpt>
<trkpt lat="39.632125" lon="-8.675327">
<ele>415.5</ele>
<desc>Speed 10.5 km/h Distance 78.80 km</desc>
<time>2011-05-22T13:54:42.96</time>
<name>17727</name>
<sym>Dot</sym>
</trkpt>
<trkpt lat="39.632103" lon="-8.675352">
<ele>415.0</ele>
<desc>Speed 10.5 km/h Distance 78.81 km</desc>
<time>2011-05-22T13:54:43.96</time>
<name>17728</name>
<sym>Dot</sym>
</trkpt>
<trkpt lat="39.632085" lon="-8.675375">
<ele>415.0</ele>
<desc>Speed 10.4 km/h Distance 78.81 km</desc>
<time>2011-05-22T13:54:44.96</time>
<name>17729</name>
<sym>Dot</sym>
</trkpt>
<trkpt lat="39.632065" lon="-8.675400">
<ele>414.5</ele>
<desc>Speed 10.7 km/h Distance 78.81 km</desc>
<time>2011-05-22T13:54:46.45</time>
<name>17730</name>
<sym>Dot</sym>
</trkpt>
<trkpt lat="39.632047" lon="-8.675425">
<ele>414.5</ele>
<desc>Speed 10.3 km/h Distance 78.82 km</desc>
<time>2011-05-22T13:54:47.45</time>
<name>17731</name>
<sym>Dot</sym>
</trkpt>
<trkpt lat="39.632003" lon="-8.675480">
<ele>414.0</ele>
<desc>Speed 13.0 km/h Distance 78.82 km</desc>
<time>2011-05-22T13:54:48.95</time>
<name>17732</name>
<sym>Dot</sym>
</trkpt>
<trkpt lat="39.631952" lon="-8.675545">
<ele>413.5</ele>
<desc>Speed 14.0 km/h Distance 78.83 km</desc>
<time>2011-05-22T13:54:50.94</time>
<name>17733</name>
<sym>Dot</sym>
</trkpt>
<trkpt lat="39.631925" lon="-8.675577">
<ele>413.5</ele>
<desc>Speed 13.9 km/h Distance 78.83 km</desc>
<time>2011-05-22T13:54:51.94</time>
<name>17734</name>
<sym>Dot</sym>
</trkpt>
<trkpt lat="39.631898" lon="-8.675612">
<ele>413.0</ele>
<desc>Speed 14.4 km/h Distance 78.84 km</desc>
<time>2011-05-22T13:54:52.94</time>
<name>17735</name>
<sym>Dot</sym>
</trkpt>
<trkpt lat="39.631870" lon="-8.675645">
<ele>413.0</ele>
<desc>Speed 14.5 km/h Distance 78.84 km</desc>
<time>2011-05-22T13:54:53.94</time>
<name>17736</name>
<sym>Dot</sym>
</trkpt>
<trkpt lat="39.631840" lon="-8.675677">
<ele>412.5</ele>
<desc>Speed 14.7 km/h Distance 78.85 km</desc>
<time>2011-05-22T13:54:55.43</time>
<name>17737</name>
<sym>Dot</sym>
</trkpt>
<trkpt lat="39.631790" lon="-8.675737">
<ele>412.0</ele>
<desc>Speed 12.1 km/h Distance 78.85 km</desc>
<time>2011-05-22T13:54:56.92</time>
<name>17738</name>
<sym>Dot</sym>
</trkpt>
<trkpt lat="39.631768" lon="-8.675755">
<ele>412.0</ele>
<desc>Speed 10.1 km/h Distance 78.86 km</desc>
<time>2011-05-22T13:54:57.91</time>
<name>17739</name>
<sym>Dot</sym>
</trkpt>
<trkpt lat="39.631753" lon="-8.675770">
<ele>412.5</ele>
<desc>Speed 6.9 km/h Distance 78.86 km</desc>
<time>2011-05-22T13:54:58.92</time>
<name>17740</name>
<sym>Dot</sym>
</trkpt>
<trkpt lat="39.631713" lon="-8.675767">
<ele>413.5</ele>
<desc>Speed 7.8 km/h Distance 78.86 km</desc>
<time>2011-05-22T13:55:00.91</time>
<name>17741</name>
<sym>Dot</sym>
</trkpt>
<trkpt lat="39.631698" lon="-8.675753">
<ele>415.0</ele>
<desc>Speed 7.1 km/h Distance 78.87 km</desc>
<time>2011-05-22T13:55:01.91</time>
<name>17742</name>
<sym>Dot</sym>
</trkpt>
<trkpt lat="39.631683" lon="-8.675735">
<ele>415.5</ele>
<desc>Speed 7.7 km/h Distance 78.87 km</desc>
<time>2011-05-22T13:55:02.91</time>
<name>17743</name>
<sym>Dot</sym>
</trkpt>
<trkpt lat="39.631665" lon="-8.675713">
<ele>416.5</ele>
<desc>Speed 9.6 km/h Distance 78.87 km</desc>
<time>2011-05-22T13:55:03.91</time>
<name>17744</name>
<sym>Dot</sym>
</trkpt>
<trkpt lat="39.631640" lon="-8.675672">
<ele>417.5</ele>
<desc>Speed 7.4 km/h Distance 78.88 km</desc>
<time>2011-05-22T13:55:05.90</time>
<name>17745</name>
<sym>Dot</sym>
</trkpt>
<trkpt lat="39.631618" lon="-8.675652">
<ele>418.0</ele>
<desc>Speed 10.5 km/h Distance 78.88 km</desc>
<time>2011-05-22T13:55:06.90</time>
<name>17746</name>
<sym>Dot</sym>
</trkpt>
<trkpt lat="39.631597" lon="-8.675630">
<ele>418.5</ele>
<desc>Speed 10.2 km/h Distance 78.88 km</desc>
<time>2011-05-22T13:55:07.90</time>
<name>17747</name>
<sym>Dot</sym>
</trkpt>
<trkpt lat="39.631575" lon="-8.675608">
<ele>418.5</ele>
<desc>Speed 10.5 km/h Distance 78.88 km</desc>
<time>2011-05-22T13:55:08.90</time>
<name>17748</name>
<sym>Dot</sym>
</trkpt>
<trkpt lat="39.631535" lon="-8.675567">
<ele>419.0</ele>
<desc>Speed 9.6 km/h Distance 78.89 km</desc>
<time>2011-05-22T13:55:10.89</time>
<name>17749</name>
<sym>Dot</sym>
</trkpt>
<trkpt lat="39.631517" lon="-8.675547">
<ele>419.5</ele>
<desc>Speed 9.5 km/h Distance 78.89 km</desc>
<time>2011-05-22T13:55:11.89</time>
<name>17750</name>
<sym>Dot</sym>
</trkpt>
<trkpt lat="39.631497" lon="-8.675527">
<ele>419.5</ele>
<desc>Speed 9.5 km/h Distance 78.90 km</desc>
<time>2011-05-22T13:55:12.89</time>
<name>17751</name>
<sym>Dot</sym>
</trkpt>
<trkpt lat="39.631453" lon="-8.675488">
<ele>419.5</ele>
<desc>Speed 9.6 km/h Distance 78.90 km</desc>
<time>2011-05-22T13:55:14.88</time>
<name>17752</name>
<sym>Dot</sym>
</trkpt>
<trkpt lat="39.631438" lon="-8.675468">
<ele>420.0</ele>
<desc>Speed 8.3 km/h Distance 78.90 km</desc>
<time>2011-05-22T13:55:15.88</time>
<name>17753</name>
<sym>Dot</sym>
</trkpt>
<trkpt lat="39.631428" lon="-8.675450">
<ele>420.0</ele>
<desc>Speed 6.7 km/h Distance 78.91 km</desc>
<time>2011-05-22T13:55:16.88</time>
<name>17754</name>
<sym>Dot</sym>
</trkpt>
<trkpt lat="39.631420" lon="-8.675435">
<ele>421.0</ele>
<desc>Speed 5.0 km/h Distance 78.91 km</desc>
<time>2011-05-22T13:55:17.88</time>
<name>17755</name>
<sym>Dot</sym>
</trkpt>
<trkpt lat="39.631415" lon="-8.675420">
<ele>421.0</ele>
<desc>Speed 4.8 km/h Distance 78.91 km</desc>
<time>2011-05-22T13:55:18.88</time>
<name>17756</name>
<sym>Dot</sym>
</trkpt>
<trkpt lat="39.631400" lon="-8.675382">
<ele>421.0</ele>
<desc>Speed 6.3 km/h Distance 78.91 km</desc>
<time>2011-05-22T13:55:20.87</time>
<name>17757</name>
<sym>Dot</sym>
</trkpt>
<trkpt lat="39.631390" lon="-8.675362">
<ele>420.5</ele>
<desc>Speed 6.4 km/h Distance 78.91 km</desc>
<time>2011-05-22T13:55:21.87</time>
<name>17758</name>
<sym>Dot</sym>
</trkpt>
<trkpt lat="39.631378" lon="-8.675343">
<ele>420.5</ele>
<desc>Speed 5.7 km/h Distance 78.92 km</desc>
<time>2011-05-22T13:55:22.86</time>
<name>17759</name>
<sym>Dot</sym>
</trkpt>
<trkpt lat="39.631372" lon="-8.675328">
<ele>421.0</ele>
<desc>Speed 5.4 km/h Distance 78.92 km</desc>
<time>2011-05-22T13:55:23.86</time>
<name>17760</name>
<sym>Dot</sym>
</trkpt>
<trkpt lat="39.631362" lon="-8.675318">
<ele>421.0</ele>
<desc>Speed 4.3 km/h Distance 78.92 km</desc>
<time>2011-05-22T13:55:24.85</time>
<name>17761</name>
<sym>Dot</sym>
</trkpt>
<trkpt lat="39.631350" lon="-8.675313">
<ele>421.0</ele>
<desc>Speed 4.4 km/h Distance 78.92 km</desc>
<time>2011-05-22T13:55:25.85</time>
<name>17762</name>
<sym>Dot</sym>
</trkpt>
<trkpt lat="39.631337" lon="-8.675312">
<ele>421.0</ele>
<desc>Speed 4.7 km/h Distance 78.92 km</desc>
<time>2011-05-22T13:55:26.85</time>
<name>17763</name>
<sym>Dot</sym>
</trkpt>
<trkpt lat="39.631323" lon="-8.675313">
<ele>421.0</ele>
<desc>Speed 4.4 km/h Distance 78.92 km</desc>
<time>2011-05-22T13:55:27.85</time>
<name>17764</name>
<sym>Dot</sym>
</trkpt>
<trkpt lat="39.631315" lon="-8.675315">
<ele>421.0</ele>
<desc>Speed 3.7 km/h Distance 78.92 km</desc>
<time>2011-05-22T13:55:28.85</time>
<name>17765</name>
<sym>Dot</sym>
</trkpt>
<trkpt lat="39.631305" lon="-8.675317">
<ele>421.0</ele>
<desc>Speed 3.2 km/h Distance 78.93 km</desc>
<time>2011-05-22T13:55:29.85</time>
<name>17766</name>
<sym>Dot</sym>
</trkpt>
<trkpt lat="39.631298" lon="-8.675318">
<ele>421.0</ele>
<desc>Speed 2.7 km/h Distance 78.93 km</desc>
<time>2011-05-22T13:55:30.85</time>
<name>17767</name>
<sym>Dot</sym>
</trkpt>
<trkpt lat="39.631293" lon="-8.675317">
<ele>420.5</ele>
<desc>Speed 1.5 km/h Distance 78.93 km</desc>
<time>2011-05-22T13:55:31.86</time>
<name>17768</name>
<sym>Dot</sym>
</trkpt>
<trkpt lat="39.631293" lon="-8.675317">
<ele>420.5</ele>
<desc>Speed 1.5 km/h Distance 78.93 km</desc>
<time>2011-05-22T13:55:32.35</time>
<name>17769</name>
<sym>Dot</sym>
</trkpt>
<trkpt lat="39.631285" lon="-8.675317">
<ele>420.5</ele>
<desc>Speed 2.5 km/h Distance 78.93 km</desc>
<time>2011-05-22T13:55:33.35</time>
<name>17770</name>
<sym>Dot</sym>
</trkpt>
<trkpt lat="39.631262" lon="-8.675310">
<ele>418.5</ele>
<desc>Speed 1.3 km/h Distance 78.93 km</desc>
<time>2011-05-22T13:56:02.35</time>
<name>17771</name>
<sym>Dot</sym>
</trkpt>
<trkpt lat="39.631248" lon="-8.675308">
<ele>418.0</ele>
<desc>Speed 1.4 km/h Distance 78.93 km</desc>
<time>2011-05-22T13:56:16.85</time>
<name>17772</name>
<sym>Dot</sym>
</trkpt>
<trkpt lat="39.631248" lon="-8.675308">
<ele>418.0</ele>
<desc>Speed 1.4 km/h Distance 78.93 km</desc>
<time>2011-05-22T13:56:17.34</time>
<name>17773</name>
<sym>Dot</sym>
</trkpt>
<trkpt lat="39.631230" lon="-8.675325">
<ele>417.0</ele>
<desc>Speed 1.2 km/h Distance 78.93 km</desc>
<time>2011-05-22T13:56:43.86</time>
<name>17774</name>
<sym>Dot</sym>
</trkpt>
<trkpt lat="39.631230" lon="-8.675325">
<ele>417.0</ele>
<desc>Speed 1.2 km/h Distance 78.93 km</desc>
<time>2011-05-22T13:56:44.33</time>
<name>17775</name>
<sym>Dot</sym>
</trkpt>
<trkpt lat="39.631192" lon="-8.675293">
<ele>412.5</ele>
<desc>Speed 1.4 km/h Distance 78.94 km</desc>
<time>2011-05-22T13:59:47.81</time>
<name>17776</name>
<sym>Crossing</sym>
</trkpt>
</trkseg>
</trk>
</gpx>
